<?xml version="1.0" encoding="UTF-8" standalone="no" ?>
<gpx xmlns="http://www.topografix.com/GPX/1/1" xmlns:xsi="http://www.w3.org/2001/XMLSchema-instance" xsi:schemaLocation="http://www.topografix.com/GPX/1/1 http://www.topografix.com/GPX/1/1/gpx.xsd" version="1.1" creator="VisuGPX - https://www.visugpx.com">
  <metadata>
    <name>trip septembre</name>
  </metadata>
  <wpt lat="50.83956" lon="1.59443">
    <ele>51.1</ele>
    <name><![CDATA[Batterie Todt]]></name>
    <type><![CDATA[user]]></type>
  </wpt>
  <wpt lat="50.82679" lon="2.18225">
    <ele>10.6</ele>
    <name><![CDATA[Blockhaus D'Éperlecques]]></name>
    <type><![CDATA[user]]></type>
  </wpt>
  <wpt lat="50.70075" lon="2.09689">
    <ele>56</ele>
    <name><![CDATA[Le Moulin de Mombreux]]></name>
    <type><![CDATA[user]]></type>
  </wpt>
  <wpt lat="50.38697" lon="2.32159">
    <ele>82.6</ele>
    <name><![CDATA[www.lesballastieres.com]]></name>
    <type><![CDATA[user]]></type>
  </wpt>
  <wpt lat="50.83956" lon="1.59443">
    <ele>51.1</ele>
    <name><![CDATA[Batterie Todt]]></name>
    <type><![CDATA[user]]></type>
  </wpt>
  <wpt lat="50.82679" lon="2.18225">
    <ele>10.6</ele>
    <name><![CDATA[Blockhaus D'Éperlecques]]></name>
    <type><![CDATA[user]]></type>
  </wpt>
  <wpt lat="50.70075" lon="2.09689">
    <ele>56</ele>
    <name><![CDATA[Le Moulin de Mombreux]]></name>
    <type><![CDATA[user]]></type>
  </wpt>
  <wpt lat="50.38697" lon="2.32159">
    <ele>82.6</ele>
    <name><![CDATA[www.lesballastieres.com]]></name>
    <type><![CDATA[user]]></type>
  </wpt>
  <wpt lat="45.20002" lon="5.42078">
    <ele>251.8</ele>
    <name><![CDATA[400 La Plaine de Buissonnière]]></name>
    <type><![CDATA[ 38470 Vinay]]></type>
  </wpt>
  <wpt lat="45.08552" lon="5.46765">
    <ele>694.9</ele>
    <name><![CDATA[31b Les Granges]]></name>
    <type><![CDATA[ 26420 Rencurel]]></type>
  </wpt>
  <trk>
    <name><![CDATA[Le Cormet d'Arêche]]></name>
    <extensions>
      <line xmlns="http://www.topografix.com/GPX/gpx_style/0/2">
        <color>bd0000</color>
        <width>4</width>
      </line>
    </extensions>
    <trkseg>
      <trkpt lat="45.68053" lon="6.5762">
        <ele>1183.66</ele>
        <time>2019-10-14T08:02:49.000Z</time>
      </trkpt>
      <trkpt lat="45.68053" lon="6.5762">
        <ele>1183.66</ele>
        <time>2019-10-14T08:02:49.000Z</time>
      </trkpt>
      <trkpt lat="45.68053" lon="6.5762">
        <ele>1183.66</ele>
        <time>2019-10-14T08:02:49.000Z</time>
      </trkpt>
      <trkpt lat="45.68053" lon="6.5762">
        <ele>1183.66</ele>
        <time>2019-10-14T08:02:49.000Z</time>
      </trkpt>
      <trkpt lat="45.68063" lon="6.57618">
        <ele>1185.46</ele>
        <time>2019-10-14T08:03:31.000Z</time>
      </trkpt>
      <trkpt lat="45.68075" lon="6.57635">
        <ele>1181.38</ele>
        <time>2019-10-14T08:03:36.000Z</time>
      </trkpt>
      <trkpt lat="45.68087" lon="6.57652">
        <ele>1182.71</ele>
        <time>2019-10-14T08:03:41.000Z</time>
      </trkpt>
      <trkpt lat="45.68098" lon="6.57668">
        <ele>1184.67</ele>
        <time>2019-10-14T08:03:46.000Z</time>
      </trkpt>
      <trkpt lat="45.68093" lon="6.57688">
        <ele>1184.39</ele>
        <time>2019-10-14T08:03:51.000Z</time>
      </trkpt>
      <trkpt lat="45.68076" lon="6.57683">
        <ele>1185.35</ele>
        <time>2019-10-14T08:03:56.000Z</time>
      </trkpt>
      <trkpt lat="45.68061" lon="6.57675">
        <ele>1187.05</ele>
        <time>2019-10-14T08:04:01.000Z</time>
      </trkpt>
      <trkpt lat="45.68046" lon="6.57676">
        <ele>1190.25</ele>
        <time>2019-10-14T08:04:06.000Z</time>
      </trkpt>
      <trkpt lat="45.68031" lon="6.57679">
        <ele>1192.8</ele>
        <time>2019-10-14T08:04:11.000Z</time>
      </trkpt>
      <trkpt lat="45.68016" lon="6.57682">
        <ele>1193.42</ele>
        <time>2019-10-14T08:04:16.000Z</time>
      </trkpt>
      <trkpt lat="45.68" lon="6.57681">
        <ele>1195.71</ele>
        <time>2019-10-14T08:04:21.000Z</time>
      </trkpt>
      <trkpt lat="45.67987" lon="6.5767">
        <ele>1192.86</ele>
        <time>2019-10-14T08:04:26.000Z</time>
      </trkpt>
      <trkpt lat="45.67976" lon="6.57671">
        <ele>1196.07</ele>
        <time>2019-10-14T08:04:31.000Z</time>
      </trkpt>
      <trkpt lat="45.67974" lon="6.57692">
        <ele>1196.83</ele>
        <time>2019-10-14T08:04:36.000Z</time>
      </trkpt>
      <trkpt lat="45.67991" lon="6.57705">
        <ele>1200.9</ele>
        <time>2019-10-14T08:04:41.000Z</time>
      </trkpt>
      <trkpt lat="45.68003" lon="6.5772">
        <ele>1202.02</ele>
        <time>2019-10-14T08:04:46.000Z</time>
      </trkpt>
      <trkpt lat="45.68015" lon="6.57733">
        <ele>1201.84</ele>
        <time>2019-10-14T08:04:51.000Z</time>
      </trkpt>
      <trkpt lat="45.68026" lon="6.57746">
        <ele>1201.23</ele>
        <time>2019-10-14T08:04:56.000Z</time>
      </trkpt>
      <trkpt lat="45.68036" lon="6.57764">
        <ele>1200.57</ele>
        <time>2019-10-14T08:05:01.000Z</time>
      </trkpt>
      <trkpt lat="45.68044" lon="6.57782">
        <ele>1199.66</ele>
        <time>2019-10-14T08:05:06.000Z</time>
      </trkpt>
      <trkpt lat="45.68056" lon="6.57795">
        <ele>1198.7</ele>
        <time>2019-10-14T08:05:11.000Z</time>
      </trkpt>
      <trkpt lat="45.68068" lon="6.57807">
        <ele>1197.2</ele>
        <time>2019-10-14T08:05:16.000Z</time>
      </trkpt>
      <trkpt lat="45.68081" lon="6.57823">
        <ele>1195.29</ele>
        <time>2019-10-14T08:05:21.000Z</time>
      </trkpt>
      <trkpt lat="45.68097" lon="6.57832">
        <ele>1199.03</ele>
        <time>2019-10-14T08:05:26.000Z</time>
      </trkpt>
      <trkpt lat="45.68114" lon="6.57832">
        <ele>1202.92</ele>
        <time>2019-10-14T08:05:31.000Z</time>
      </trkpt>
      <trkpt lat="45.6813" lon="6.57827">
        <ele>1208.2</ele>
        <time>2019-10-14T08:05:36.000Z</time>
      </trkpt>
      <trkpt lat="45.68141" lon="6.57834">
        <ele>1210.16</ele>
        <time>2019-10-14T08:05:41.000Z</time>
      </trkpt>
      <trkpt lat="45.68129" lon="6.57848">
        <ele>1211.36</ele>
        <time>2019-10-14T08:05:46.000Z</time>
      </trkpt>
      <trkpt lat="45.68112" lon="6.57843">
        <ele>1213.64</ele>
        <time>2019-10-14T08:05:51.000Z</time>
      </trkpt>
      <trkpt lat="45.68095" lon="6.57836">
        <ele>1214.71</ele>
        <time>2019-10-14T08:05:56.000Z</time>
      </trkpt>
      <trkpt lat="45.68079" lon="6.57837">
        <ele>1213.83</ele>
        <time>2019-10-14T08:06:01.000Z</time>
      </trkpt>
      <trkpt lat="45.68062" lon="6.57837">
        <ele>1213.05</ele>
        <time>2019-10-14T08:06:06.000Z</time>
      </trkpt>
      <trkpt lat="45.68044" lon="6.5783">
        <ele>1214.85</ele>
        <time>2019-10-14T08:06:11.000Z</time>
      </trkpt>
      <trkpt lat="45.68029" lon="6.57826">
        <ele>1217.05</ele>
        <time>2019-10-14T08:06:16.000Z</time>
      </trkpt>
      <trkpt lat="45.68015" lon="6.5783">
        <ele>1217.26</ele>
        <time>2019-10-14T08:06:21.000Z</time>
      </trkpt>
      <trkpt lat="45.68" lon="6.57833">
        <ele>1217.26</ele>
        <time>2019-10-14T08:06:26.000Z</time>
      </trkpt>
      <trkpt lat="45.67984" lon="6.57829">
        <ele>1220.17</ele>
        <time>2019-10-14T08:06:31.000Z</time>
      </trkpt>
      <trkpt lat="45.67969" lon="6.57824">
        <ele>1225</ele>
        <time>2019-10-14T08:06:36.000Z</time>
      </trkpt>
      <trkpt lat="45.67953" lon="6.57819">
        <ele>1228.43</ele>
        <time>2019-10-14T08:06:41.000Z</time>
      </trkpt>
      <trkpt lat="45.67937" lon="6.57816">
        <ele>1228.69</ele>
        <time>2019-10-14T08:06:46.000Z</time>
      </trkpt>
      <trkpt lat="45.67921" lon="6.57812">
        <ele>1231.24</ele>
        <time>2019-10-14T08:06:51.000Z</time>
      </trkpt>
      <trkpt lat="45.67906" lon="6.57815">
        <ele>1232.98</ele>
        <time>2019-10-14T08:06:56.000Z</time>
      </trkpt>
      <trkpt lat="45.67891" lon="6.57823">
        <ele>1236.64</ele>
        <time>2019-10-14T08:07:01.000Z</time>
      </trkpt>
      <trkpt lat="45.67876" lon="6.57826">
        <ele>1237.88</ele>
        <time>2019-10-14T08:07:06.000Z</time>
      </trkpt>
      <trkpt lat="45.6786" lon="6.57826">
        <ele>1238.12</ele>
        <time>2019-10-14T08:07:11.000Z</time>
      </trkpt>
      <trkpt lat="45.67845" lon="6.57822">
        <ele>1238.2</ele>
        <time>2019-10-14T08:07:16.000Z</time>
      </trkpt>
      <trkpt lat="45.6783" lon="6.57816">
        <ele>1243.07</ele>
        <time>2019-10-14T08:07:21.000Z</time>
      </trkpt>
      <trkpt lat="45.67813" lon="6.5781">
        <ele>1243.36</ele>
        <time>2019-10-14T08:07:26.000Z</time>
      </trkpt>
      <trkpt lat="45.67798" lon="6.57807">
        <ele>1242.68</ele>
        <time>2019-10-14T08:07:31.000Z</time>
      </trkpt>
      <trkpt lat="45.67782" lon="6.57807">
        <ele>1237.61</ele>
        <time>2019-10-14T08:07:36.000Z</time>
      </trkpt>
      <trkpt lat="45.67767" lon="6.57808">
        <ele>1242.07</ele>
        <time>2019-10-14T08:07:41.000Z</time>
      </trkpt>
      <trkpt lat="45.67751" lon="6.57811">
        <ele>1247.41</ele>
        <time>2019-10-14T08:07:46.000Z</time>
      </trkpt>
      <trkpt lat="45.67735" lon="6.57812">
        <ele>1245.79</ele>
        <time>2019-10-14T08:07:51.000Z</time>
      </trkpt>
      <trkpt lat="45.67717" lon="6.57811">
        <ele>1243.08</ele>
        <time>2019-10-14T08:07:56.000Z</time>
      </trkpt>
      <trkpt lat="45.67701" lon="6.57811">
        <ele>1243.85</ele>
        <time>2019-10-14T08:08:01.000Z</time>
      </trkpt>
      <trkpt lat="45.67686" lon="6.57812">
        <ele>1240.28</ele>
        <time>2019-10-14T08:08:06.000Z</time>
      </trkpt>
      <trkpt lat="45.67673" lon="6.57818">
        <ele>1243.33</ele>
        <time>2019-10-14T08:08:11.000Z</time>
      </trkpt>
      <trkpt lat="45.67659" lon="6.57827">
        <ele>1245.44</ele>
        <time>2019-10-14T08:08:16.000Z</time>
      </trkpt>
      <trkpt lat="45.67641" lon="6.57828">
        <ele>1248.08</ele>
        <time>2019-10-14T08:08:21.000Z</time>
      </trkpt>
      <trkpt lat="45.67626" lon="6.57829">
        <ele>1253.15</ele>
        <time>2019-10-14T08:08:26.000Z</time>
      </trkpt>
      <trkpt lat="45.67611" lon="6.57832">
        <ele>1256.23</ele>
        <time>2019-10-14T08:08:31.000Z</time>
      </trkpt>
      <trkpt lat="45.67598" lon="6.57838">
        <ele>1259.69</ele>
        <time>2019-10-14T08:08:36.000Z</time>
      </trkpt>
      <trkpt lat="45.67583" lon="6.57842">
        <ele>1258.73</ele>
        <time>2019-10-14T08:08:41.000Z</time>
      </trkpt>
      <trkpt lat="45.67566" lon="6.57844">
        <ele>1261.11</ele>
        <time>2019-10-14T08:08:46.000Z</time>
      </trkpt>
      <trkpt lat="45.67548" lon="6.57848">
        <ele>1264.6</ele>
        <time>2019-10-14T08:08:51.000Z</time>
      </trkpt>
      <trkpt lat="45.67533" lon="6.57855">
        <ele>1267.61</ele>
        <time>2019-10-14T08:08:56.000Z</time>
      </trkpt>
      <trkpt lat="45.67519" lon="6.57864">
        <ele>1264.82</ele>
        <time>2019-10-14T08:09:01.000Z</time>
      </trkpt>
      <trkpt lat="45.67508" lon="6.5788">
        <ele>1266.71</ele>
        <time>2019-10-14T08:09:06.000Z</time>
      </trkpt>
      <trkpt lat="45.67494" lon="6.57887">
        <ele>1268.2</ele>
        <time>2019-10-14T08:09:11.000Z</time>
      </trkpt>
      <trkpt lat="45.6748" lon="6.57888">
        <ele>1269.82</ele>
        <time>2019-10-14T08:09:16.000Z</time>
      </trkpt>
      <trkpt lat="45.67468" lon="6.57894">
        <ele>1273.15</ele>
        <time>2019-10-14T08:09:21.000Z</time>
      </trkpt>
      <trkpt lat="45.67455" lon="6.57904">
        <ele>1274.8</ele>
        <time>2019-10-14T08:09:26.000Z</time>
      </trkpt>
      <trkpt lat="45.67441" lon="6.57914">
        <ele>1276.8</ele>
        <time>2019-10-14T08:09:31.000Z</time>
      </trkpt>
      <trkpt lat="45.67428" lon="6.57924">
        <ele>1277.42</ele>
        <time>2019-10-14T08:09:36.000Z</time>
      </trkpt>
      <trkpt lat="45.67413" lon="6.57928">
        <ele>1283.19</ele>
        <time>2019-10-14T08:09:41.000Z</time>
      </trkpt>
      <trkpt lat="45.674" lon="6.57931">
        <ele>1284.07</ele>
        <time>2019-10-14T08:09:46.000Z</time>
      </trkpt>
      <trkpt lat="45.67388" lon="6.57938">
        <ele>1283.51</ele>
        <time>2019-10-14T08:09:51.000Z</time>
      </trkpt>
      <trkpt lat="45.67374" lon="6.57945">
        <ele>1288.71</ele>
        <time>2019-10-14T08:09:56.000Z</time>
      </trkpt>
      <trkpt lat="45.67358" lon="6.57948">
        <ele>1290.72</ele>
        <time>2019-10-14T08:10:01.000Z</time>
      </trkpt>
      <trkpt lat="45.67342" lon="6.57952">
        <ele>1294.49</ele>
        <time>2019-10-14T08:10:06.000Z</time>
      </trkpt>
      <trkpt lat="45.67327" lon="6.57953">
        <ele>1291.36</ele>
        <time>2019-10-14T08:10:11.000Z</time>
      </trkpt>
      <trkpt lat="45.67313" lon="6.57959">
        <ele>1293.53</ele>
        <time>2019-10-14T08:10:16.000Z</time>
      </trkpt>
      <trkpt lat="45.67298" lon="6.57965">
        <ele>1294.4</ele>
        <time>2019-10-14T08:10:21.000Z</time>
      </trkpt>
      <trkpt lat="45.67282" lon="6.57972">
        <ele>1295.89</ele>
        <time>2019-10-14T08:10:26.000Z</time>
      </trkpt>
      <trkpt lat="45.67268" lon="6.57976">
        <ele>1298.88</ele>
        <time>2019-10-14T08:10:31.000Z</time>
      </trkpt>
      <trkpt lat="45.67253" lon="6.5797">
        <ele>1299.53</ele>
        <time>2019-10-14T08:10:36.000Z</time>
      </trkpt>
      <trkpt lat="45.67238" lon="6.57963">
        <ele>1301.78</ele>
        <time>2019-10-14T08:10:41.000Z</time>
      </trkpt>
      <trkpt lat="45.67224" lon="6.57953">
        <ele>1303.56</ele>
        <time>2019-10-14T08:10:46.000Z</time>
      </trkpt>
      <trkpt lat="45.67214" lon="6.57935">
        <ele>1306.95</ele>
        <time>2019-10-14T08:10:51.000Z</time>
      </trkpt>
      <trkpt lat="45.67204" lon="6.57915">
        <ele>1308.01</ele>
        <time>2019-10-14T08:10:56.000Z</time>
      </trkpt>
      <trkpt lat="45.67195" lon="6.57901">
        <ele>1315.91</ele>
        <time>2019-10-14T08:11:01.000Z</time>
      </trkpt>
      <trkpt lat="45.67183" lon="6.57887">
        <ele>1316.4</ele>
        <time>2019-10-14T08:11:06.000Z</time>
      </trkpt>
      <trkpt lat="45.6717" lon="6.57876">
        <ele>1316.75</ele>
        <time>2019-10-14T08:11:11.000Z</time>
      </trkpt>
      <trkpt lat="45.67158" lon="6.57864">
        <ele>1317.47</ele>
        <time>2019-10-14T08:11:16.000Z</time>
      </trkpt>
      <trkpt lat="45.67148" lon="6.57847">
        <ele>1323.14</ele>
        <time>2019-10-14T08:11:21.000Z</time>
      </trkpt>
      <trkpt lat="45.67143" lon="6.57831">
        <ele>1329.85</ele>
        <time>2019-10-14T08:11:26.000Z</time>
      </trkpt>
      <trkpt lat="45.6713" lon="6.57816">
        <ele>1332.24</ele>
        <time>2019-10-14T08:11:31.000Z</time>
      </trkpt>
      <trkpt lat="45.67118" lon="6.57805">
        <ele>1334.42</ele>
        <time>2019-10-14T08:11:36.000Z</time>
      </trkpt>
      <trkpt lat="45.67103" lon="6.578">
        <ele>1335.02</ele>
        <time>2019-10-14T08:11:41.000Z</time>
      </trkpt>
      <trkpt lat="45.67084" lon="6.57799">
        <ele>1335.88</ele>
        <time>2019-10-14T08:11:46.000Z</time>
      </trkpt>
      <trkpt lat="45.67069" lon="6.578">
        <ele>1337.74</ele>
        <time>2019-10-14T08:11:51.000Z</time>
      </trkpt>
      <trkpt lat="45.67054" lon="6.57801">
        <ele>1339.66</ele>
        <time>2019-10-14T08:11:56.000Z</time>
      </trkpt>
      <trkpt lat="45.67039" lon="6.57799">
        <ele>1341.73</ele>
        <time>2019-10-14T08:12:01.000Z</time>
      </trkpt>
      <trkpt lat="45.67024" lon="6.57798">
        <ele>1342.92</ele>
        <time>2019-10-14T08:12:06.000Z</time>
      </trkpt>
      <trkpt lat="45.67008" lon="6.57796">
        <ele>1344.44</ele>
        <time>2019-10-14T08:12:11.000Z</time>
      </trkpt>
      <trkpt lat="45.66992" lon="6.57797">
        <ele>1344.66</ele>
        <time>2019-10-14T08:12:16.000Z</time>
      </trkpt>
      <trkpt lat="45.66976" lon="6.57795">
        <ele>1344.36</ele>
        <time>2019-10-14T08:12:21.000Z</time>
      </trkpt>
      <trkpt lat="45.66961" lon="6.57794">
        <ele>1344.2</ele>
        <time>2019-10-14T08:12:26.000Z</time>
      </trkpt>
      <trkpt lat="45.66946" lon="6.57798">
        <ele>1346.78</ele>
        <time>2019-10-14T08:12:31.000Z</time>
      </trkpt>
      <trkpt lat="45.66933" lon="6.57809">
        <ele>1352.75</ele>
        <time>2019-10-14T08:12:36.000Z</time>
      </trkpt>
      <trkpt lat="45.66916" lon="6.57811">
        <ele>1355.8</ele>
        <time>2019-10-14T08:12:41.000Z</time>
      </trkpt>
      <trkpt lat="45.669" lon="6.57811">
        <ele>1359.27</ele>
        <time>2019-10-14T08:12:46.000Z</time>
      </trkpt>
      <trkpt lat="45.66884" lon="6.57813">
        <ele>1362.05</ele>
        <time>2019-10-14T08:12:51.000Z</time>
      </trkpt>
      <trkpt lat="45.66869" lon="6.57815">
        <ele>1360.06</ele>
        <time>2019-10-14T08:12:56.000Z</time>
      </trkpt>
      <trkpt lat="45.66855" lon="6.57811">
        <ele>1366.29</ele>
        <time>2019-10-14T08:13:01.000Z</time>
      </trkpt>
      <trkpt lat="45.66837" lon="6.57811">
        <ele>1365</ele>
        <time>2019-10-14T08:13:06.000Z</time>
      </trkpt>
      <trkpt lat="45.66821" lon="6.57806">
        <ele>1366.81</ele>
        <time>2019-10-14T08:13:11.000Z</time>
      </trkpt>
      <trkpt lat="45.66806" lon="6.57799">
        <ele>1367.65</ele>
        <time>2019-10-14T08:13:16.000Z</time>
      </trkpt>
      <trkpt lat="45.66789" lon="6.57799">
        <ele>1364.65</ele>
        <time>2019-10-14T08:13:21.000Z</time>
      </trkpt>
      <trkpt lat="45.66776" lon="6.57814">
        <ele>1364.82</ele>
        <time>2019-10-14T08:13:26.000Z</time>
      </trkpt>
      <trkpt lat="45.66767" lon="6.57832">
        <ele>1364.95</ele>
        <time>2019-10-14T08:13:31.000Z</time>
      </trkpt>
      <trkpt lat="45.6675" lon="6.57836">
        <ele>1366.96</ele>
        <time>2019-10-14T08:13:36.000Z</time>
      </trkpt>
      <trkpt lat="45.66735" lon="6.57841">
        <ele>1366.91</ele>
        <time>2019-10-14T08:13:41.000Z</time>
      </trkpt>
      <trkpt lat="45.66718" lon="6.57844">
        <ele>1371.98</ele>
        <time>2019-10-14T08:13:46.000Z</time>
      </trkpt>
      <trkpt lat="45.66703" lon="6.57846">
        <ele>1372.83</ele>
        <time>2019-10-14T08:13:51.000Z</time>
      </trkpt>
      <trkpt lat="45.66687" lon="6.5785">
        <ele>1370.9</ele>
        <time>2019-10-14T08:13:56.000Z</time>
      </trkpt>
      <trkpt lat="45.66675" lon="6.57858">
        <ele>1367.6</ele>
        <time>2019-10-14T08:14:01.000Z</time>
      </trkpt>
      <trkpt lat="45.66657" lon="6.57865">
        <ele>1369.67</ele>
        <time>2019-10-14T08:14:06.000Z</time>
      </trkpt>
      <trkpt lat="45.6664" lon="6.57871">
        <ele>1375.98</ele>
        <time>2019-10-14T08:14:11.000Z</time>
      </trkpt>
      <trkpt lat="45.66625" lon="6.57878">
        <ele>1379.75</ele>
        <time>2019-10-14T08:14:16.000Z</time>
      </trkpt>
      <trkpt lat="45.6661" lon="6.57879">
        <ele>1382.53</ele>
        <time>2019-10-14T08:14:21.000Z</time>
      </trkpt>
      <trkpt lat="45.66594" lon="6.57886">
        <ele>1376.99</ele>
        <time>2019-10-14T08:14:26.000Z</time>
      </trkpt>
      <trkpt lat="45.66581" lon="6.57899">
        <ele>1377.3</ele>
        <time>2019-10-14T08:14:31.000Z</time>
      </trkpt>
      <trkpt lat="45.66568" lon="6.57905">
        <ele>1378.16</ele>
        <time>2019-10-14T08:14:36.000Z</time>
      </trkpt>
      <trkpt lat="45.66552" lon="6.57912">
        <ele>1378.13</ele>
        <time>2019-10-14T08:14:41.000Z</time>
      </trkpt>
      <trkpt lat="45.66534" lon="6.57917">
        <ele>1379.68</ele>
        <time>2019-10-14T08:14:46.000Z</time>
      </trkpt>
      <trkpt lat="45.66517" lon="6.5792">
        <ele>1379.23</ele>
        <time>2019-10-14T08:14:51.000Z</time>
      </trkpt>
      <trkpt lat="45.66499" lon="6.5792">
        <ele>1381.02</ele>
        <time>2019-10-14T08:14:56.000Z</time>
      </trkpt>
      <trkpt lat="45.66481" lon="6.57926">
        <ele>1383.27</ele>
        <time>2019-10-14T08:15:01.000Z</time>
      </trkpt>
      <trkpt lat="45.66463" lon="6.57928">
        <ele>1386.89</ele>
        <time>2019-10-14T08:15:06.000Z</time>
      </trkpt>
      <trkpt lat="45.66445" lon="6.57926">
        <ele>1387.17</ele>
        <time>2019-10-14T08:15:11.000Z</time>
      </trkpt>
      <trkpt lat="45.66429" lon="6.57927">
        <ele>1387.33</ele>
        <time>2019-10-14T08:15:16.000Z</time>
      </trkpt>
      <trkpt lat="45.66411" lon="6.57928">
        <ele>1390.56</ele>
        <time>2019-10-14T08:15:21.000Z</time>
      </trkpt>
      <trkpt lat="45.66396" lon="6.57931">
        <ele>1393.51</ele>
        <time>2019-10-14T08:15:26.000Z</time>
      </trkpt>
      <trkpt lat="45.6638" lon="6.57928">
        <ele>1397.07</ele>
        <time>2019-10-14T08:15:31.000Z</time>
      </trkpt>
      <trkpt lat="45.66364" lon="6.57916">
        <ele>1396.37</ele>
        <time>2019-10-14T08:15:36.000Z</time>
      </trkpt>
      <trkpt lat="45.66347" lon="6.57911">
        <ele>1399</ele>
        <time>2019-10-14T08:15:41.000Z</time>
      </trkpt>
      <trkpt lat="45.66332" lon="6.57909">
        <ele>1400.27</ele>
        <time>2019-10-14T08:15:46.000Z</time>
      </trkpt>
      <trkpt lat="45.66315" lon="6.57906">
        <ele>1400.89</ele>
        <time>2019-10-14T08:15:51.000Z</time>
      </trkpt>
      <trkpt lat="45.66299" lon="6.579">
        <ele>1403.63</ele>
        <time>2019-10-14T08:15:56.000Z</time>
      </trkpt>
      <trkpt lat="45.66285" lon="6.57888">
        <ele>1405.37</ele>
        <time>2019-10-14T08:16:01.000Z</time>
      </trkpt>
      <trkpt lat="45.66271" lon="6.57874">
        <ele>1407.42</ele>
        <time>2019-10-14T08:16:06.000Z</time>
      </trkpt>
      <trkpt lat="45.66255" lon="6.57865">
        <ele>1409.5</ele>
        <time>2019-10-14T08:16:11.000Z</time>
      </trkpt>
      <trkpt lat="45.6624" lon="6.57859">
        <ele>1412.31</ele>
        <time>2019-10-14T08:16:16.000Z</time>
      </trkpt>
      <trkpt lat="45.66226" lon="6.57858">
        <ele>1409.91</ele>
        <time>2019-10-14T08:16:21.000Z</time>
      </trkpt>
      <trkpt lat="45.66211" lon="6.57863">
        <ele>1411.53</ele>
        <time>2019-10-14T08:16:26.000Z</time>
      </trkpt>
      <trkpt lat="45.66195" lon="6.57874">
        <ele>1413.44</ele>
        <time>2019-10-14T08:16:31.000Z</time>
      </trkpt>
      <trkpt lat="45.66179" lon="6.57883">
        <ele>1417.13</ele>
        <time>2019-10-14T08:16:36.000Z</time>
      </trkpt>
      <trkpt lat="45.66162" lon="6.57882">
        <ele>1417.68</ele>
        <time>2019-10-14T08:16:41.000Z</time>
      </trkpt>
      <trkpt lat="45.66144" lon="6.57872">
        <ele>1416.5</ele>
        <time>2019-10-14T08:16:46.000Z</time>
      </trkpt>
      <trkpt lat="45.66128" lon="6.57861">
        <ele>1419.71</ele>
        <time>2019-10-14T08:16:51.000Z</time>
      </trkpt>
      <trkpt lat="45.66112" lon="6.57848">
        <ele>1421.9</ele>
        <time>2019-10-14T08:16:56.000Z</time>
      </trkpt>
      <trkpt lat="45.66099" lon="6.57832">
        <ele>1423.08</ele>
        <time>2019-10-14T08:17:01.000Z</time>
      </trkpt>
      <trkpt lat="45.66087" lon="6.5781">
        <ele>1426.42</ele>
        <time>2019-10-14T08:17:06.000Z</time>
      </trkpt>
      <trkpt lat="45.66075" lon="6.57796">
        <ele>1430.08</ele>
        <time>2019-10-14T08:17:11.000Z</time>
      </trkpt>
      <trkpt lat="45.66059" lon="6.5779">
        <ele>1432.08</ele>
        <time>2019-10-14T08:17:16.000Z</time>
      </trkpt>
      <trkpt lat="45.66046" lon="6.57797">
        <ele>1432.3</ele>
        <time>2019-10-14T08:17:21.000Z</time>
      </trkpt>
      <trkpt lat="45.6603" lon="6.57802">
        <ele>1430.68</ele>
        <time>2019-10-14T08:17:26.000Z</time>
      </trkpt>
      <trkpt lat="45.66011" lon="6.57807">
        <ele>1431.11</ele>
        <time>2019-10-14T08:17:31.000Z</time>
      </trkpt>
      <trkpt lat="45.65993" lon="6.57814">
        <ele>1434.83</ele>
        <time>2019-10-14T08:17:36.000Z</time>
      </trkpt>
      <trkpt lat="45.65984" lon="6.5784">
        <ele>1434.47</ele>
        <time>2019-10-14T08:17:41.000Z</time>
      </trkpt>
      <trkpt lat="45.65978" lon="6.57866">
        <ele>1435.08</ele>
        <time>2019-10-14T08:17:46.000Z</time>
      </trkpt>
      <trkpt lat="45.65966" lon="6.57885">
        <ele>1438.22</ele>
        <time>2019-10-14T08:17:51.000Z</time>
      </trkpt>
      <trkpt lat="45.6595" lon="6.57893">
        <ele>1439.91</ele>
        <time>2019-10-14T08:17:56.000Z</time>
      </trkpt>
      <trkpt lat="45.65933" lon="6.57898">
        <ele>1439.7</ele>
        <time>2019-10-14T08:18:01.000Z</time>
      </trkpt>
      <trkpt lat="45.65914" lon="6.579">
        <ele>1438.95</ele>
        <time>2019-10-14T08:18:06.000Z</time>
      </trkpt>
      <trkpt lat="45.65893" lon="6.57899">
        <ele>1439.08</ele>
        <time>2019-10-14T08:18:11.000Z</time>
      </trkpt>
      <trkpt lat="45.65874" lon="6.57896">
        <ele>1441.07</ele>
        <time>2019-10-14T08:18:16.000Z</time>
      </trkpt>
      <trkpt lat="45.65854" lon="6.579">
        <ele>1443.28</ele>
        <time>2019-10-14T08:18:21.000Z</time>
      </trkpt>
      <trkpt lat="45.65834" lon="6.57901">
        <ele>1443.74</ele>
        <time>2019-10-14T08:18:26.000Z</time>
      </trkpt>
      <trkpt lat="45.65814" lon="6.57897">
        <ele>1444.15</ele>
        <time>2019-10-14T08:18:31.000Z</time>
      </trkpt>
      <trkpt lat="45.65794" lon="6.57893">
        <ele>1442.59</ele>
        <time>2019-10-14T08:18:36.000Z</time>
      </trkpt>
      <trkpt lat="45.65774" lon="6.57884">
        <ele>1444.27</ele>
        <time>2019-10-14T08:18:41.000Z</time>
      </trkpt>
      <trkpt lat="45.65756" lon="6.57873">
        <ele>1445.75</ele>
        <time>2019-10-14T08:18:46.000Z</time>
      </trkpt>
      <trkpt lat="45.65739" lon="6.57859">
        <ele>1445.35</ele>
        <time>2019-10-14T08:18:51.000Z</time>
      </trkpt>
      <trkpt lat="45.6572" lon="6.57853">
        <ele>1445.11</ele>
        <time>2019-10-14T08:18:56.000Z</time>
      </trkpt>
      <trkpt lat="45.65702" lon="6.57853">
        <ele>1448.78</ele>
        <time>2019-10-14T08:19:01.000Z</time>
      </trkpt>
      <trkpt lat="45.65683" lon="6.57848">
        <ele>1451.02</ele>
        <time>2019-10-14T08:19:06.000Z</time>
      </trkpt>
      <trkpt lat="45.65666" lon="6.57836">
        <ele>1451.86</ele>
        <time>2019-10-14T08:19:11.000Z</time>
      </trkpt>
      <trkpt lat="45.65647" lon="6.57826">
        <ele>1453.8</ele>
        <time>2019-10-14T08:19:16.000Z</time>
      </trkpt>
      <trkpt lat="45.65628" lon="6.57826">
        <ele>1457.36</ele>
        <time>2019-10-14T08:19:21.000Z</time>
      </trkpt>
      <trkpt lat="45.65611" lon="6.57831">
        <ele>1458.13</ele>
        <time>2019-10-14T08:19:26.000Z</time>
      </trkpt>
      <trkpt lat="45.65593" lon="6.57836">
        <ele>1457.59</ele>
        <time>2019-10-14T08:19:31.000Z</time>
      </trkpt>
      <trkpt lat="45.65572" lon="6.5784">
        <ele>1459.9</ele>
        <time>2019-10-14T08:19:36.000Z</time>
      </trkpt>
      <trkpt lat="45.65561" lon="6.57838">
        <ele>1460.44</ele>
        <time>2019-10-14T08:19:41.000Z</time>
      </trkpt>
      <trkpt lat="45.65552" lon="6.5784">
        <ele>1468.51</ele>
        <time>2019-10-14T08:20:23.000Z</time>
      </trkpt>
      <trkpt lat="45.65535" lon="6.57837">
        <ele>1465.38</ele>
        <time>2019-10-14T08:20:28.000Z</time>
      </trkpt>
      <trkpt lat="45.65515" lon="6.57835">
        <ele>1456.8</ele>
        <time>2019-10-14T08:20:33.000Z</time>
      </trkpt>
      <trkpt lat="45.65497" lon="6.57835">
        <ele>1459.34</ele>
        <time>2019-10-14T08:20:38.000Z</time>
      </trkpt>
      <trkpt lat="45.65478" lon="6.57835">
        <ele>1459.39</ele>
        <time>2019-10-14T08:20:43.000Z</time>
      </trkpt>
      <trkpt lat="45.65453" lon="6.57834">
        <ele>1454.83</ele>
        <time>2019-10-14T08:20:48.000Z</time>
      </trkpt>
      <trkpt lat="45.65434" lon="6.57833">
        <ele>1461.47</ele>
        <time>2019-10-14T08:20:53.000Z</time>
      </trkpt>
      <trkpt lat="45.65416" lon="6.57834">
        <ele>1461.97</ele>
        <time>2019-10-14T08:20:58.000Z</time>
      </trkpt>
      <trkpt lat="45.65398" lon="6.57837">
        <ele>1462.7</ele>
        <time>2019-10-14T08:21:03.000Z</time>
      </trkpt>
      <trkpt lat="45.65382" lon="6.5784">
        <ele>1463.73</ele>
        <time>2019-10-14T08:21:08.000Z</time>
      </trkpt>
      <trkpt lat="45.65363" lon="6.57841">
        <ele>1467.78</ele>
        <time>2019-10-14T08:21:13.000Z</time>
      </trkpt>
      <trkpt lat="45.6534" lon="6.57847">
        <ele>1464.85</ele>
        <time>2019-10-14T08:21:18.000Z</time>
      </trkpt>
      <trkpt lat="45.65322" lon="6.57853">
        <ele>1471.47</ele>
        <time>2019-10-14T08:21:23.000Z</time>
      </trkpt>
      <trkpt lat="45.65298" lon="6.57854">
        <ele>1473.57</ele>
        <time>2019-10-14T08:21:28.000Z</time>
      </trkpt>
      <trkpt lat="45.65279" lon="6.57858">
        <ele>1473.34</ele>
        <time>2019-10-14T08:21:33.000Z</time>
      </trkpt>
      <trkpt lat="45.65259" lon="6.57866">
        <ele>1472.86</ele>
        <time>2019-10-14T08:21:38.000Z</time>
      </trkpt>
      <trkpt lat="45.65244" lon="6.57879">
        <ele>1473.54</ele>
        <time>2019-10-14T08:21:43.000Z</time>
      </trkpt>
      <trkpt lat="45.65229" lon="6.57891">
        <ele>1478.11</ele>
        <time>2019-10-14T08:21:48.000Z</time>
      </trkpt>
      <trkpt lat="45.65208" lon="6.57897">
        <ele>1477.18</ele>
        <time>2019-10-14T08:21:53.000Z</time>
      </trkpt>
      <trkpt lat="45.65202" lon="6.57909">
        <ele>1476.69</ele>
        <time>2019-10-14T08:21:58.000Z</time>
      </trkpt>
      <trkpt lat="45.65227" lon="6.57902">
        <ele>1476.17</ele>
        <time>2019-10-14T08:22:03.000Z</time>
      </trkpt>
      <trkpt lat="45.65242" lon="6.57891">
        <ele>1476.5</ele>
        <time>2019-10-14T08:22:08.000Z</time>
      </trkpt>
      <trkpt lat="45.65259" lon="6.57889">
        <ele>1474.12</ele>
        <time>2019-10-14T08:22:13.000Z</time>
      </trkpt>
      <trkpt lat="45.6528" lon="6.5789">
        <ele>1478.86</ele>
        <time>2019-10-14T08:22:18.000Z</time>
      </trkpt>
      <trkpt lat="45.65298" lon="6.57891">
        <ele>1480.69</ele>
        <time>2019-10-14T08:22:23.000Z</time>
      </trkpt>
      <trkpt lat="45.65317" lon="6.57891">
        <ele>1483.72</ele>
        <time>2019-10-14T08:22:28.000Z</time>
      </trkpt>
      <trkpt lat="45.65332" lon="6.57894">
        <ele>1484.35</ele>
        <time>2019-10-14T08:22:33.000Z</time>
      </trkpt>
      <trkpt lat="45.65349" lon="6.57901">
        <ele>1484.49</ele>
        <time>2019-10-14T08:22:38.000Z</time>
      </trkpt>
      <trkpt lat="45.65376" lon="6.5791">
        <ele>1486.65</ele>
        <time>2019-10-14T08:22:43.000Z</time>
      </trkpt>
      <trkpt lat="45.65394" lon="6.57917">
        <ele>1489.92</ele>
        <time>2019-10-14T08:22:48.000Z</time>
      </trkpt>
      <trkpt lat="45.65405" lon="6.57919">
        <ele>1494.23</ele>
        <time>2019-10-14T08:22:56.000Z</time>
      </trkpt>
      <trkpt lat="45.6542" lon="6.57936">
        <ele>1496.91</ele>
        <time>2019-10-14T08:23:01.000Z</time>
      </trkpt>
      <trkpt lat="45.65432" lon="6.57944">
        <ele>1499.95</ele>
        <time>2019-10-14T08:23:06.000Z</time>
      </trkpt>
      <trkpt lat="45.65451" lon="6.57947">
        <ele>1505.17</ele>
        <time>2019-10-14T08:23:11.000Z</time>
      </trkpt>
      <trkpt lat="45.65471" lon="6.57951">
        <ele>1509.13</ele>
        <time>2019-10-14T08:23:16.000Z</time>
      </trkpt>
      <trkpt lat="45.65491" lon="6.57963">
        <ele>1513.23</ele>
        <time>2019-10-14T08:23:21.000Z</time>
      </trkpt>
      <trkpt lat="45.65508" lon="6.5797">
        <ele>1513.37</ele>
        <time>2019-10-14T08:23:26.000Z</time>
      </trkpt>
      <trkpt lat="45.65524" lon="6.57982">
        <ele>1515.06</ele>
        <time>2019-10-14T08:23:31.000Z</time>
      </trkpt>
      <trkpt lat="45.65537" lon="6.57991">
        <ele>1519.65</ele>
        <time>2019-10-14T08:23:36.000Z</time>
      </trkpt>
      <trkpt lat="45.65546" lon="6.58005">
        <ele>1519.66</ele>
        <time>2019-10-14T08:23:41.000Z</time>
      </trkpt>
      <trkpt lat="45.65556" lon="6.58017">
        <ele>1521.21</ele>
        <time>2019-10-14T08:23:46.000Z</time>
      </trkpt>
      <trkpt lat="45.65571" lon="6.58032">
        <ele>1523.27</ele>
        <time>2019-10-14T08:23:51.000Z</time>
      </trkpt>
      <trkpt lat="45.65581" lon="6.58048">
        <ele>1525.18</ele>
        <time>2019-10-14T08:23:56.000Z</time>
      </trkpt>
      <trkpt lat="45.65564" lon="6.58049">
        <ele>1526.31</ele>
        <time>2019-10-14T08:24:01.000Z</time>
      </trkpt>
      <trkpt lat="45.6555" lon="6.58035">
        <ele>1528.19</ele>
        <time>2019-10-14T08:24:06.000Z</time>
      </trkpt>
      <trkpt lat="45.65538" lon="6.5803">
        <ele>1531.59</ele>
        <time>2019-10-14T08:24:11.000Z</time>
      </trkpt>
      <trkpt lat="45.65527" lon="6.58024">
        <ele>1537.43</ele>
        <time>2019-10-14T08:24:16.000Z</time>
      </trkpt>
      <trkpt lat="45.65507" lon="6.58024">
        <ele>1539.08</ele>
        <time>2019-10-14T08:24:21.000Z</time>
      </trkpt>
      <trkpt lat="45.65485" lon="6.5802">
        <ele>1541.71</ele>
        <time>2019-10-14T08:24:26.000Z</time>
      </trkpt>
      <trkpt lat="45.65472" lon="6.58019">
        <ele>1541.17</ele>
        <time>2019-10-14T08:24:31.000Z</time>
      </trkpt>
      <trkpt lat="45.65454" lon="6.58015">
        <ele>1543.91</ele>
        <time>2019-10-14T08:24:36.000Z</time>
      </trkpt>
      <trkpt lat="45.65436" lon="6.5801">
        <ele>1542.44</ele>
        <time>2019-10-14T08:24:41.000Z</time>
      </trkpt>
      <trkpt lat="45.65421" lon="6.58006">
        <ele>1542.76</ele>
        <time>2019-10-14T08:24:46.000Z</time>
      </trkpt>
      <trkpt lat="45.65408" lon="6.58001">
        <ele>1545.48</ele>
        <time>2019-10-14T08:24:51.000Z</time>
      </trkpt>
      <trkpt lat="45.65395" lon="6.57994">
        <ele>1547.23</ele>
        <time>2019-10-14T08:24:56.000Z</time>
      </trkpt>
      <trkpt lat="45.65378" lon="6.5799">
        <ele>1548.4</ele>
        <time>2019-10-14T08:25:01.000Z</time>
      </trkpt>
      <trkpt lat="45.65361" lon="6.57991">
        <ele>1550.8</ele>
        <time>2019-10-14T08:25:06.000Z</time>
      </trkpt>
      <trkpt lat="45.65343" lon="6.57994">
        <ele>1552.24</ele>
        <time>2019-10-14T08:25:11.000Z</time>
      </trkpt>
      <trkpt lat="45.65326" lon="6.57989">
        <ele>1553.37</ele>
        <time>2019-10-14T08:25:16.000Z</time>
      </trkpt>
      <trkpt lat="45.65309" lon="6.57992">
        <ele>1553.42</ele>
        <time>2019-10-14T08:25:21.000Z</time>
      </trkpt>
      <trkpt lat="45.65293" lon="6.57998">
        <ele>1556.72</ele>
        <time>2019-10-14T08:25:26.000Z</time>
      </trkpt>
      <trkpt lat="45.65277" lon="6.58008">
        <ele>1554.3</ele>
        <time>2019-10-14T08:25:31.000Z</time>
      </trkpt>
      <trkpt lat="45.65263" lon="6.58013">
        <ele>1553.79</ele>
        <time>2019-10-14T08:25:36.000Z</time>
      </trkpt>
      <trkpt lat="45.65248" lon="6.58017">
        <ele>1556.13</ele>
        <time>2019-10-14T08:25:41.000Z</time>
      </trkpt>
      <trkpt lat="45.65231" lon="6.58025">
        <ele>1562.46</ele>
        <time>2019-10-14T08:25:46.000Z</time>
      </trkpt>
      <trkpt lat="45.65217" lon="6.58036">
        <ele>1566.4</ele>
        <time>2019-10-14T08:25:51.000Z</time>
      </trkpt>
      <trkpt lat="45.65202" lon="6.58048">
        <ele>1569.84</ele>
        <time>2019-10-14T08:25:56.000Z</time>
      </trkpt>
      <trkpt lat="45.65187" lon="6.58059">
        <ele>1570.53</ele>
        <time>2019-10-14T08:26:01.000Z</time>
      </trkpt>
      <trkpt lat="45.65173" lon="6.58071">
        <ele>1572.53</ele>
        <time>2019-10-14T08:26:06.000Z</time>
      </trkpt>
      <trkpt lat="45.6516" lon="6.58086">
        <ele>1570.02</ele>
        <time>2019-10-14T08:26:11.000Z</time>
      </trkpt>
      <trkpt lat="45.65144" lon="6.58093">
        <ele>1568.2</ele>
        <time>2019-10-14T08:26:16.000Z</time>
      </trkpt>
      <trkpt lat="45.65124" lon="6.58089">
        <ele>1570.13</ele>
        <time>2019-10-14T08:26:21.000Z</time>
      </trkpt>
      <trkpt lat="45.65108" lon="6.58088">
        <ele>1572.7</ele>
        <time>2019-10-14T08:26:26.000Z</time>
      </trkpt>
      <trkpt lat="45.65099" lon="6.58088">
        <ele>1574.32</ele>
        <time>2019-10-14T08:26:37.000Z</time>
      </trkpt>
      <trkpt lat="45.65108" lon="6.58095">
        <ele>1575.75</ele>
        <time>2019-10-14T08:29:14.000Z</time>
      </trkpt>
      <trkpt lat="45.65124" lon="6.58111">
        <ele>1576.09</ele>
        <time>2019-10-14T08:29:19.000Z</time>
      </trkpt>
      <trkpt lat="45.65134" lon="6.5813">
        <ele>1576.91</ele>
        <time>2019-10-14T08:29:24.000Z</time>
      </trkpt>
      <trkpt lat="45.65137" lon="6.58152">
        <ele>1582.67</ele>
        <time>2019-10-14T08:29:29.000Z</time>
      </trkpt>
      <trkpt lat="45.65136" lon="6.58176">
        <ele>1586.03</ele>
        <time>2019-10-14T08:29:34.000Z</time>
      </trkpt>
      <trkpt lat="45.65139" lon="6.582">
        <ele>1589.14</ele>
        <time>2019-10-14T08:29:39.000Z</time>
      </trkpt>
      <trkpt lat="45.65151" lon="6.58222">
        <ele>1591.96</ele>
        <time>2019-10-14T08:29:44.000Z</time>
      </trkpt>
      <trkpt lat="45.65161" lon="6.58243">
        <ele>1590.89</ele>
        <time>2019-10-14T08:29:49.000Z</time>
      </trkpt>
      <trkpt lat="45.65165" lon="6.58264">
        <ele>1595.55</ele>
        <time>2019-10-14T08:29:54.000Z</time>
      </trkpt>
      <trkpt lat="45.65165" lon="6.58288">
        <ele>1596.77</ele>
        <time>2019-10-14T08:29:59.000Z</time>
      </trkpt>
      <trkpt lat="45.6517" lon="6.58311">
        <ele>1599.25</ele>
        <time>2019-10-14T08:30:04.000Z</time>
      </trkpt>
      <trkpt lat="45.65174" lon="6.58334">
        <ele>1598.31</ele>
        <time>2019-10-14T08:30:09.000Z</time>
      </trkpt>
      <trkpt lat="45.65172" lon="6.58361">
        <ele>1599.74</ele>
        <time>2019-10-14T08:30:14.000Z</time>
      </trkpt>
      <trkpt lat="45.6517" lon="6.58388">
        <ele>1601.09</ele>
        <time>2019-10-14T08:30:19.000Z</time>
      </trkpt>
      <trkpt lat="45.65169" lon="6.58411">
        <ele>1600.84</ele>
        <time>2019-10-14T08:30:24.000Z</time>
      </trkpt>
      <trkpt lat="45.65165" lon="6.58429">
        <ele>1600.25</ele>
        <time>2019-10-14T08:30:29.000Z</time>
      </trkpt>
      <trkpt lat="45.65155" lon="6.58449">
        <ele>1603.28</ele>
        <time>2019-10-14T08:30:34.000Z</time>
      </trkpt>
      <trkpt lat="45.65144" lon="6.58469">
        <ele>1600.31</ele>
        <time>2019-10-14T08:30:39.000Z</time>
      </trkpt>
      <trkpt lat="45.65132" lon="6.58489">
        <ele>1602.43</ele>
        <time>2019-10-14T08:30:44.000Z</time>
      </trkpt>
      <trkpt lat="45.6511" lon="6.58515">
        <ele>1604.98</ele>
        <time>2019-10-14T08:30:49.000Z</time>
      </trkpt>
      <trkpt lat="45.651" lon="6.58526">
        <ele>1604.82</ele>
        <time>2019-10-14T08:30:55.000Z</time>
      </trkpt>
      <trkpt lat="45.65093" lon="6.58542">
        <ele>1607.16</ele>
        <time>2019-10-14T08:31:00.000Z</time>
      </trkpt>
      <trkpt lat="45.65091" lon="6.58565">
        <ele>1610.48</ele>
        <time>2019-10-14T08:31:05.000Z</time>
      </trkpt>
      <trkpt lat="45.65093" lon="6.5859">
        <ele>1610.19</ele>
        <time>2019-10-14T08:31:10.000Z</time>
      </trkpt>
      <trkpt lat="45.65095" lon="6.58615">
        <ele>1611.02</ele>
        <time>2019-10-14T08:31:15.000Z</time>
      </trkpt>
      <trkpt lat="45.65084" lon="6.58627">
        <ele>1608.81</ele>
        <time>2019-10-14T08:31:20.000Z</time>
      </trkpt>
      <trkpt lat="45.6507" lon="6.5862">
        <ele>1611.66</ele>
        <time>2019-10-14T08:31:25.000Z</time>
      </trkpt>
      <trkpt lat="45.65051" lon="6.58607">
        <ele>1615.69</ele>
        <time>2019-10-14T08:31:30.000Z</time>
      </trkpt>
      <trkpt lat="45.65037" lon="6.58601">
        <ele>1616.76</ele>
        <time>2019-10-14T08:31:35.000Z</time>
      </trkpt>
      <trkpt lat="45.65022" lon="6.58599">
        <ele>1618.7</ele>
        <time>2019-10-14T08:31:40.000Z</time>
      </trkpt>
      <trkpt lat="45.65008" lon="6.58609">
        <ele>1619.93</ele>
        <time>2019-10-14T08:31:45.000Z</time>
      </trkpt>
      <trkpt lat="45.65001" lon="6.5863">
        <ele>1619.59</ele>
        <time>2019-10-14T08:31:50.000Z</time>
      </trkpt>
      <trkpt lat="45.65" lon="6.58652">
        <ele>1620.25</ele>
        <time>2019-10-14T08:31:55.000Z</time>
      </trkpt>
      <trkpt lat="45.64991" lon="6.58672">
        <ele>1622.85</ele>
        <time>2019-10-14T08:32:00.000Z</time>
      </trkpt>
      <trkpt lat="45.64979" lon="6.58687">
        <ele>1625.14</ele>
        <time>2019-10-14T08:32:05.000Z</time>
      </trkpt>
      <trkpt lat="45.64969" lon="6.58709">
        <ele>1624.5</ele>
        <time>2019-10-14T08:32:10.000Z</time>
      </trkpt>
      <trkpt lat="45.64956" lon="6.58723">
        <ele>1624.73</ele>
        <time>2019-10-14T08:32:15.000Z</time>
      </trkpt>
      <trkpt lat="45.64943" lon="6.58735">
        <ele>1627.98</ele>
        <time>2019-10-14T08:32:20.000Z</time>
      </trkpt>
      <trkpt lat="45.64928" lon="6.58741">
        <ele>1628.68</ele>
        <time>2019-10-14T08:32:25.000Z</time>
      </trkpt>
      <trkpt lat="45.64912" lon="6.58741">
        <ele>1628.3</ele>
        <time>2019-10-14T08:32:30.000Z</time>
      </trkpt>
      <trkpt lat="45.64894" lon="6.58739">
        <ele>1628.53</ele>
        <time>2019-10-14T08:32:35.000Z</time>
      </trkpt>
      <trkpt lat="45.64874" lon="6.58735">
        <ele>1629.77</ele>
        <time>2019-10-14T08:32:40.000Z</time>
      </trkpt>
      <trkpt lat="45.64855" lon="6.58728">
        <ele>1632.45</ele>
        <time>2019-10-14T08:32:45.000Z</time>
      </trkpt>
      <trkpt lat="45.6484" lon="6.58717">
        <ele>1637.52</ele>
        <time>2019-10-14T08:32:50.000Z</time>
      </trkpt>
      <trkpt lat="45.64824" lon="6.58704">
        <ele>1638.99</ele>
        <time>2019-10-14T08:32:55.000Z</time>
      </trkpt>
      <trkpt lat="45.64808" lon="6.58694">
        <ele>1640.51</ele>
        <time>2019-10-14T08:33:00.000Z</time>
      </trkpt>
      <trkpt lat="45.64791" lon="6.58684">
        <ele>1642.64</ele>
        <time>2019-10-14T08:33:05.000Z</time>
      </trkpt>
      <trkpt lat="45.64776" lon="6.5867">
        <ele>1642.64</ele>
        <time>2019-10-14T08:33:10.000Z</time>
      </trkpt>
      <trkpt lat="45.6476" lon="6.58658">
        <ele>1642.46</ele>
        <time>2019-10-14T08:33:15.000Z</time>
      </trkpt>
      <trkpt lat="45.64744" lon="6.58651">
        <ele>1642.48</ele>
        <time>2019-10-14T08:33:20.000Z</time>
      </trkpt>
      <trkpt lat="45.64727" lon="6.58642">
        <ele>1642.39</ele>
        <time>2019-10-14T08:33:25.000Z</time>
      </trkpt>
      <trkpt lat="45.64709" lon="6.58632">
        <ele>1641.07</ele>
        <time>2019-10-14T08:33:30.000Z</time>
      </trkpt>
      <trkpt lat="45.6469" lon="6.58627">
        <ele>1641.2</ele>
        <time>2019-10-14T08:33:35.000Z</time>
      </trkpt>
      <trkpt lat="45.64676" lon="6.5862">
        <ele>1644.86</ele>
        <time>2019-10-14T08:33:40.000Z</time>
      </trkpt>
      <trkpt lat="45.64667" lon="6.58603">
        <ele>1648.91</ele>
        <time>2019-10-14T08:33:45.000Z</time>
      </trkpt>
      <trkpt lat="45.64656" lon="6.58583">
        <ele>1652.56</ele>
        <time>2019-10-14T08:33:50.000Z</time>
      </trkpt>
      <trkpt lat="45.64644" lon="6.58566">
        <ele>1654.73</ele>
        <time>2019-10-14T08:33:55.000Z</time>
      </trkpt>
      <trkpt lat="45.64629" lon="6.58548">
        <ele>1661.99</ele>
        <time>2019-10-14T08:34:00.000Z</time>
      </trkpt>
      <trkpt lat="45.64611" lon="6.58535">
        <ele>1660.83</ele>
        <time>2019-10-14T08:34:05.000Z</time>
      </trkpt>
      <trkpt lat="45.64589" lon="6.58521">
        <ele>1658.88</ele>
        <time>2019-10-14T08:34:10.000Z</time>
      </trkpt>
      <trkpt lat="45.64572" lon="6.58516">
        <ele>1659.02</ele>
        <time>2019-10-14T08:34:15.000Z</time>
      </trkpt>
      <trkpt lat="45.64555" lon="6.58507">
        <ele>1660.33</ele>
        <time>2019-10-14T08:34:20.000Z</time>
      </trkpt>
      <trkpt lat="45.64538" lon="6.58495">
        <ele>1663.31</ele>
        <time>2019-10-14T08:34:25.000Z</time>
      </trkpt>
      <trkpt lat="45.64522" lon="6.58479">
        <ele>1665.26</ele>
        <time>2019-10-14T08:34:30.000Z</time>
      </trkpt>
      <trkpt lat="45.64507" lon="6.5847">
        <ele>1667.85</ele>
        <time>2019-10-14T08:34:35.000Z</time>
      </trkpt>
      <trkpt lat="45.64491" lon="6.58464">
        <ele>1668.01</ele>
        <time>2019-10-14T08:34:40.000Z</time>
      </trkpt>
      <trkpt lat="45.64476" lon="6.58461">
        <ele>1667.37</ele>
        <time>2019-10-14T08:34:45.000Z</time>
      </trkpt>
      <trkpt lat="45.6446" lon="6.58457">
        <ele>1665.4</ele>
        <time>2019-10-14T08:34:50.000Z</time>
      </trkpt>
      <trkpt lat="45.64443" lon="6.58459">
        <ele>1666.04</ele>
        <time>2019-10-14T08:34:55.000Z</time>
      </trkpt>
      <trkpt lat="45.64427" lon="6.58467">
        <ele>1669.75</ele>
        <time>2019-10-14T08:35:00.000Z</time>
      </trkpt>
      <trkpt lat="45.64409" lon="6.58482">
        <ele>1667.17</ele>
        <time>2019-10-14T08:35:05.000Z</time>
      </trkpt>
      <trkpt lat="45.64396" lon="6.58495">
        <ele>1668.53</ele>
        <time>2019-10-14T08:35:10.000Z</time>
      </trkpt>
      <trkpt lat="45.64385" lon="6.585">
        <ele>1663.1</ele>
        <time>2019-10-14T08:36:13.000Z</time>
      </trkpt>
      <trkpt lat="45.64355" lon="6.58513">
        <ele>1665.27</ele>
        <time>2019-10-14T08:36:18.000Z</time>
      </trkpt>
      <trkpt lat="45.64327" lon="6.58524">
        <ele>1664.02</ele>
        <time>2019-10-14T08:36:23.000Z</time>
      </trkpt>
      <trkpt lat="45.64305" lon="6.58547">
        <ele>1662.4</ele>
        <time>2019-10-14T08:36:28.000Z</time>
      </trkpt>
      <trkpt lat="45.64284" lon="6.5858">
        <ele>1656.01</ele>
        <time>2019-10-14T08:36:33.000Z</time>
      </trkpt>
      <trkpt lat="45.64253" lon="6.58598">
        <ele>1655.72</ele>
        <time>2019-10-14T08:36:38.000Z</time>
      </trkpt>
      <trkpt lat="45.64221" lon="6.58615">
        <ele>1657.33</ele>
        <time>2019-10-14T08:36:43.000Z</time>
      </trkpt>
      <trkpt lat="45.64193" lon="6.58641">
        <ele>1654.5</ele>
        <time>2019-10-14T08:36:48.000Z</time>
      </trkpt>
      <trkpt lat="45.64163" lon="6.58653">
        <ele>1653.82</ele>
        <time>2019-10-14T08:36:53.000Z</time>
      </trkpt>
      <trkpt lat="45.64137" lon="6.58681">
        <ele>1649.94</ele>
        <time>2019-10-14T08:36:58.000Z</time>
      </trkpt>
      <trkpt lat="45.64105" lon="6.587">
        <ele>1649.57</ele>
        <time>2019-10-14T08:37:03.000Z</time>
      </trkpt>
      <trkpt lat="45.64072" lon="6.58707">
        <ele>1642.44</ele>
        <time>2019-10-14T08:37:08.000Z</time>
      </trkpt>
      <trkpt lat="45.64039" lon="6.58719">
        <ele>1638.42</ele>
        <time>2019-10-14T08:37:13.000Z</time>
      </trkpt>
      <trkpt lat="45.64007" lon="6.58716">
        <ele>1635.86</ele>
        <time>2019-10-14T08:37:18.000Z</time>
      </trkpt>
      <trkpt lat="45.63982" lon="6.58724">
        <ele>1638.28</ele>
        <time>2019-10-14T08:37:23.000Z</time>
      </trkpt>
      <trkpt lat="45.63958" lon="6.58731">
        <ele>1638.37</ele>
        <time>2019-10-14T08:37:28.000Z</time>
      </trkpt>
      <trkpt lat="45.63937" lon="6.58742">
        <ele>1638.09</ele>
        <time>2019-10-14T08:37:33.000Z</time>
      </trkpt>
      <trkpt lat="45.63914" lon="6.58744">
        <ele>1635.41</ele>
        <time>2019-10-14T08:37:38.000Z</time>
      </trkpt>
      <trkpt lat="45.63892" lon="6.58743">
        <ele>1637.1</ele>
        <time>2019-10-14T08:37:43.000Z</time>
      </trkpt>
      <trkpt lat="45.63868" lon="6.58745">
        <ele>1637.35</ele>
        <time>2019-10-14T08:37:48.000Z</time>
      </trkpt>
      <trkpt lat="45.63846" lon="6.58755">
        <ele>1636.55</ele>
        <time>2019-10-14T08:37:53.000Z</time>
      </trkpt>
      <trkpt lat="45.63826" lon="6.58764">
        <ele>1639.38</ele>
        <time>2019-10-14T08:37:58.000Z</time>
      </trkpt>
      <trkpt lat="45.63814" lon="6.58767">
        <ele>1640.83</ele>
        <time>2019-10-14T08:38:03.000Z</time>
      </trkpt>
      <trkpt lat="45.63798" lon="6.5878">
        <ele>1643.81</ele>
        <time>2019-10-14T08:38:08.000Z</time>
      </trkpt>
      <trkpt lat="45.63788" lon="6.588">
        <ele>1645.83</ele>
        <time>2019-10-14T08:38:13.000Z</time>
      </trkpt>
      <trkpt lat="45.63777" lon="6.58817">
        <ele>1644.68</ele>
        <time>2019-10-14T08:38:18.000Z</time>
      </trkpt>
      <trkpt lat="45.63761" lon="6.58813">
        <ele>1645.19</ele>
        <time>2019-10-14T08:38:23.000Z</time>
      </trkpt>
      <trkpt lat="45.63751" lon="6.58802">
        <ele>1647.04</ele>
        <time>2019-10-14T08:39:23.000Z</time>
      </trkpt>
      <trkpt lat="45.63731" lon="6.5879">
        <ele>1648.62</ele>
        <time>2019-10-14T08:39:28.000Z</time>
      </trkpt>
      <trkpt lat="45.63711" lon="6.58788">
        <ele>1649.46</ele>
        <time>2019-10-14T08:39:33.000Z</time>
      </trkpt>
      <trkpt lat="45.63694" lon="6.58795">
        <ele>1649.32</ele>
        <time>2019-10-14T08:39:38.000Z</time>
      </trkpt>
      <trkpt lat="45.63679" lon="6.588">
        <ele>1645.64</ele>
        <time>2019-10-14T08:39:43.000Z</time>
      </trkpt>
      <trkpt lat="45.63659" lon="6.58807">
        <ele>1647.01</ele>
        <time>2019-10-14T08:39:48.000Z</time>
      </trkpt>
      <trkpt lat="45.63642" lon="6.58815">
        <ele>1649.6</ele>
        <time>2019-10-14T08:39:53.000Z</time>
      </trkpt>
      <trkpt lat="45.63624" lon="6.58825">
        <ele>1651.3</ele>
        <time>2019-10-14T08:39:58.000Z</time>
      </trkpt>
      <trkpt lat="45.6361" lon="6.58837">
        <ele>1655.58</ele>
        <time>2019-10-14T08:40:03.000Z</time>
      </trkpt>
      <trkpt lat="45.63594" lon="6.58847">
        <ele>1660.8</ele>
        <time>2019-10-14T08:40:08.000Z</time>
      </trkpt>
      <trkpt lat="45.63579" lon="6.58857">
        <ele>1664.37</ele>
        <time>2019-10-14T08:40:13.000Z</time>
      </trkpt>
      <trkpt lat="45.63569" lon="6.58874">
        <ele>1666.11</ele>
        <time>2019-10-14T08:40:18.000Z</time>
      </trkpt>
      <trkpt lat="45.63588" lon="6.58884">
        <ele>1670.16</ele>
        <time>2019-10-14T08:40:23.000Z</time>
      </trkpt>
      <trkpt lat="45.63606" lon="6.58873">
        <ele>1673.27</ele>
        <time>2019-10-14T08:40:28.000Z</time>
      </trkpt>
      <trkpt lat="45.63625" lon="6.58869">
        <ele>1673.65</ele>
        <time>2019-10-14T08:40:33.000Z</time>
      </trkpt>
      <trkpt lat="45.63636" lon="6.58873">
        <ele>1679.03</ele>
        <time>2019-10-14T08:41:31.000Z</time>
      </trkpt>
      <trkpt lat="45.63653" lon="6.58877">
        <ele>1681.01</ele>
        <time>2019-10-14T08:41:36.000Z</time>
      </trkpt>
      <trkpt lat="45.63672" lon="6.58881">
        <ele>1688.07</ele>
        <time>2019-10-14T08:41:41.000Z</time>
      </trkpt>
      <trkpt lat="45.6369" lon="6.58887">
        <ele>1690.42</ele>
        <time>2019-10-14T08:41:46.000Z</time>
      </trkpt>
      <trkpt lat="45.63707" lon="6.58897">
        <ele>1691.19</ele>
        <time>2019-10-14T08:41:51.000Z</time>
      </trkpt>
      <trkpt lat="45.63705" lon="6.58917">
        <ele>1690.54</ele>
        <time>2019-10-14T08:41:56.000Z</time>
      </trkpt>
      <trkpt lat="45.63684" lon="6.58916">
        <ele>1690.37</ele>
        <time>2019-10-14T08:42:01.000Z</time>
      </trkpt>
      <trkpt lat="45.63665" lon="6.58919">
        <ele>1690.79</ele>
        <time>2019-10-14T08:42:06.000Z</time>
      </trkpt>
      <trkpt lat="45.63649" lon="6.58929">
        <ele>1689.67</ele>
        <time>2019-10-14T08:42:11.000Z</time>
      </trkpt>
      <trkpt lat="45.63632" lon="6.58938">
        <ele>1691.57</ele>
        <time>2019-10-14T08:42:16.000Z</time>
      </trkpt>
      <trkpt lat="45.63614" lon="6.58946">
        <ele>1691.86</ele>
        <time>2019-10-14T08:42:21.000Z</time>
      </trkpt>
      <trkpt lat="45.63602" lon="6.58962">
        <ele>1693.45</ele>
        <time>2019-10-14T08:42:26.000Z</time>
      </trkpt>
      <trkpt lat="45.63593" lon="6.58984">
        <ele>1693.46</ele>
        <time>2019-10-14T08:42:31.000Z</time>
      </trkpt>
      <trkpt lat="45.63581" lon="6.59002">
        <ele>1692.89</ele>
        <time>2019-10-14T08:42:36.000Z</time>
      </trkpt>
      <trkpt lat="45.63566" lon="6.59015">
        <ele>1695.21</ele>
        <time>2019-10-14T08:42:41.000Z</time>
      </trkpt>
      <trkpt lat="45.63552" lon="6.59029">
        <ele>1696.34</ele>
        <time>2019-10-14T08:42:46.000Z</time>
      </trkpt>
      <trkpt lat="45.63536" lon="6.59042">
        <ele>1698.87</ele>
        <time>2019-10-14T08:42:51.000Z</time>
      </trkpt>
      <trkpt lat="45.6352" lon="6.59051">
        <ele>1701.22</ele>
        <time>2019-10-14T08:42:56.000Z</time>
      </trkpt>
      <trkpt lat="45.63505" lon="6.59062">
        <ele>1700.48</ele>
        <time>2019-10-14T08:43:01.000Z</time>
      </trkpt>
      <trkpt lat="45.63492" lon="6.59076">
        <ele>1701.64</ele>
        <time>2019-10-14T08:43:06.000Z</time>
      </trkpt>
      <trkpt lat="45.63478" lon="6.59092">
        <ele>1706</ele>
        <time>2019-10-14T08:43:11.000Z</time>
      </trkpt>
      <trkpt lat="45.63462" lon="6.59101">
        <ele>1709.54</ele>
        <time>2019-10-14T08:43:16.000Z</time>
      </trkpt>
      <trkpt lat="45.63449" lon="6.591">
        <ele>1708.01</ele>
        <time>2019-10-14T08:43:21.000Z</time>
      </trkpt>
      <trkpt lat="45.63433" lon="6.59104">
        <ele>1707.82</ele>
        <time>2019-10-14T08:43:26.000Z</time>
      </trkpt>
      <trkpt lat="45.63419" lon="6.59114">
        <ele>1711.16</ele>
        <time>2019-10-14T08:43:31.000Z</time>
      </trkpt>
      <trkpt lat="45.63405" lon="6.59125">
        <ele>1710.99</ele>
        <time>2019-10-14T08:43:36.000Z</time>
      </trkpt>
      <trkpt lat="45.6339" lon="6.59134">
        <ele>1712.9</ele>
        <time>2019-10-14T08:43:41.000Z</time>
      </trkpt>
      <trkpt lat="45.63376" lon="6.59146">
        <ele>1715.64</ele>
        <time>2019-10-14T08:43:46.000Z</time>
      </trkpt>
      <trkpt lat="45.6336" lon="6.59159">
        <ele>1717.23</ele>
        <time>2019-10-14T08:43:51.000Z</time>
      </trkpt>
      <trkpt lat="45.63343" lon="6.59167">
        <ele>1720.08</ele>
        <time>2019-10-14T08:43:56.000Z</time>
      </trkpt>
      <trkpt lat="45.63327" lon="6.59174">
        <ele>1724.54</ele>
        <time>2019-10-14T08:44:01.000Z</time>
      </trkpt>
      <trkpt lat="45.63312" lon="6.59182">
        <ele>1725.71</ele>
        <time>2019-10-14T08:44:06.000Z</time>
      </trkpt>
      <trkpt lat="45.63295" lon="6.59188">
        <ele>1725.63</ele>
        <time>2019-10-14T08:44:11.000Z</time>
      </trkpt>
      <trkpt lat="45.63291" lon="6.59209">
        <ele>1727.44</ele>
        <time>2019-10-14T08:44:16.000Z</time>
      </trkpt>
      <trkpt lat="45.63309" lon="6.59221">
        <ele>1729.7</ele>
        <time>2019-10-14T08:44:21.000Z</time>
      </trkpt>
      <trkpt lat="45.63328" lon="6.5922">
        <ele>1732.45</ele>
        <time>2019-10-14T08:44:26.000Z</time>
      </trkpt>
      <trkpt lat="45.63346" lon="6.59221">
        <ele>1733.57</ele>
        <time>2019-10-14T08:44:31.000Z</time>
      </trkpt>
      <trkpt lat="45.63363" lon="6.59227">
        <ele>1732.35</ele>
        <time>2019-10-14T08:44:36.000Z</time>
      </trkpt>
      <trkpt lat="45.63379" lon="6.59227">
        <ele>1731.54</ele>
        <time>2019-10-14T08:44:41.000Z</time>
      </trkpt>
      <trkpt lat="45.63397" lon="6.59222">
        <ele>1733.27</ele>
        <time>2019-10-14T08:44:46.000Z</time>
      </trkpt>
      <trkpt lat="45.63414" lon="6.59215">
        <ele>1738.62</ele>
        <time>2019-10-14T08:44:51.000Z</time>
      </trkpt>
      <trkpt lat="45.63432" lon="6.59212">
        <ele>1737.53</ele>
        <time>2019-10-14T08:44:56.000Z</time>
      </trkpt>
      <trkpt lat="45.63448" lon="6.59216">
        <ele>1742.27</ele>
        <time>2019-10-14T08:45:01.000Z</time>
      </trkpt>
      <trkpt lat="45.63464" lon="6.59217">
        <ele>1741.98</ele>
        <time>2019-10-14T08:45:06.000Z</time>
      </trkpt>
      <trkpt lat="45.63481" lon="6.59207">
        <ele>1743.97</ele>
        <time>2019-10-14T08:45:11.000Z</time>
      </trkpt>
      <trkpt lat="45.63497" lon="6.592">
        <ele>1745.46</ele>
        <time>2019-10-14T08:45:16.000Z</time>
      </trkpt>
      <trkpt lat="45.63514" lon="6.59209">
        <ele>1750.17</ele>
        <time>2019-10-14T08:45:21.000Z</time>
      </trkpt>
      <trkpt lat="45.6353" lon="6.59218">
        <ele>1753.62</ele>
        <time>2019-10-14T08:45:26.000Z</time>
      </trkpt>
      <trkpt lat="45.63547" lon="6.59223">
        <ele>1756.99</ele>
        <time>2019-10-14T08:45:31.000Z</time>
      </trkpt>
      <trkpt lat="45.63564" lon="6.59229">
        <ele>1761.12</ele>
        <time>2019-10-14T08:45:36.000Z</time>
      </trkpt>
      <trkpt lat="45.63582" lon="6.59238">
        <ele>1760.59</ele>
        <time>2019-10-14T08:45:41.000Z</time>
      </trkpt>
      <trkpt lat="45.63584" lon="6.59255">
        <ele>1759.95</ele>
        <time>2019-10-14T08:45:46.000Z</time>
      </trkpt>
      <trkpt lat="45.63573" lon="6.59262">
        <ele>1758.61</ele>
        <time>2019-10-14T08:49:15.000Z</time>
      </trkpt>
      <trkpt lat="45.63556" lon="6.59261">
        <ele>1760.98</ele>
        <time>2019-10-14T08:49:20.000Z</time>
      </trkpt>
      <trkpt lat="45.63539" lon="6.59257">
        <ele>1761.76</ele>
        <time>2019-10-14T08:49:25.000Z</time>
      </trkpt>
      <trkpt lat="45.63521" lon="6.5926">
        <ele>1765.59</ele>
        <time>2019-10-14T08:49:30.000Z</time>
      </trkpt>
      <trkpt lat="45.63506" lon="6.59272">
        <ele>1766.2</ele>
        <time>2019-10-14T08:49:35.000Z</time>
      </trkpt>
      <trkpt lat="45.63493" lon="6.59288">
        <ele>1767.34</ele>
        <time>2019-10-14T08:49:40.000Z</time>
      </trkpt>
      <trkpt lat="45.63478" lon="6.59299">
        <ele>1767.12</ele>
        <time>2019-10-14T08:49:45.000Z</time>
      </trkpt>
      <trkpt lat="45.63462" lon="6.59302">
        <ele>1768.02</ele>
        <time>2019-10-14T08:49:50.000Z</time>
      </trkpt>
      <trkpt lat="45.63444" lon="6.59303">
        <ele>1770.79</ele>
        <time>2019-10-14T08:49:55.000Z</time>
      </trkpt>
      <trkpt lat="45.63426" lon="6.59305">
        <ele>1774.61</ele>
        <time>2019-10-14T08:50:00.000Z</time>
      </trkpt>
      <trkpt lat="45.63409" lon="6.59308">
        <ele>1777.96</ele>
        <time>2019-10-14T08:50:05.000Z</time>
      </trkpt>
      <trkpt lat="45.63392" lon="6.59309">
        <ele>1780.43</ele>
        <time>2019-10-14T08:50:10.000Z</time>
      </trkpt>
      <trkpt lat="45.63375" lon="6.59306">
        <ele>1781.51</ele>
        <time>2019-10-14T08:50:15.000Z</time>
      </trkpt>
      <trkpt lat="45.63358" lon="6.59308">
        <ele>1781.85</ele>
        <time>2019-10-14T08:50:20.000Z</time>
      </trkpt>
      <trkpt lat="45.63342" lon="6.59314">
        <ele>1784.91</ele>
        <time>2019-10-14T08:50:25.000Z</time>
      </trkpt>
      <trkpt lat="45.63328" lon="6.59326">
        <ele>1785.42</ele>
        <time>2019-10-14T08:50:30.000Z</time>
      </trkpt>
      <trkpt lat="45.63317" lon="6.59344">
        <ele>1787.51</ele>
        <time>2019-10-14T08:50:35.000Z</time>
      </trkpt>
      <trkpt lat="45.63306" lon="6.59367">
        <ele>1790.49</ele>
        <time>2019-10-14T08:50:40.000Z</time>
      </trkpt>
      <trkpt lat="45.63297" lon="6.59386">
        <ele>1793.35</ele>
        <time>2019-10-14T08:50:45.000Z</time>
      </trkpt>
      <trkpt lat="45.63287" lon="6.59403">
        <ele>1797.33</ele>
        <time>2019-10-14T08:50:50.000Z</time>
      </trkpt>
      <trkpt lat="45.63277" lon="6.59422">
        <ele>1796.98</ele>
        <time>2019-10-14T08:50:55.000Z</time>
      </trkpt>
      <trkpt lat="45.63266" lon="6.59438">
        <ele>1797.99</ele>
        <time>2019-10-14T08:51:00.000Z</time>
      </trkpt>
      <trkpt lat="45.63257" lon="6.59458">
        <ele>1801.03</ele>
        <time>2019-10-14T08:51:05.000Z</time>
      </trkpt>
      <trkpt lat="45.63267" lon="6.59472">
        <ele>1805.58</ele>
        <time>2019-10-14T08:51:10.000Z</time>
      </trkpt>
      <trkpt lat="45.63284" lon="6.59454">
        <ele>1807.79</ele>
        <time>2019-10-14T08:51:15.000Z</time>
      </trkpt>
      <trkpt lat="45.63297" lon="6.59434">
        <ele>1807.4</ele>
        <time>2019-10-14T08:51:20.000Z</time>
      </trkpt>
      <trkpt lat="45.63312" lon="6.59428">
        <ele>1809.78</ele>
        <time>2019-10-14T08:51:25.000Z</time>
      </trkpt>
      <trkpt lat="45.63302" lon="6.59451">
        <ele>1809.04</ele>
        <time>2019-10-14T08:51:30.000Z</time>
      </trkpt>
      <trkpt lat="45.6329" lon="6.59473">
        <ele>1810.18</ele>
        <time>2019-10-14T08:51:35.000Z</time>
      </trkpt>
      <trkpt lat="45.63283" lon="6.59499">
        <ele>1809.73</ele>
        <time>2019-10-14T08:51:40.000Z</time>
      </trkpt>
      <trkpt lat="45.63275" lon="6.59522">
        <ele>1808.37</ele>
        <time>2019-10-14T08:51:45.000Z</time>
      </trkpt>
      <trkpt lat="45.6326" lon="6.59538">
        <ele>1809.62</ele>
        <time>2019-10-14T08:51:50.000Z</time>
      </trkpt>
      <trkpt lat="45.63249" lon="6.59556">
        <ele>1811.34</ele>
        <time>2019-10-14T08:51:55.000Z</time>
      </trkpt>
      <trkpt lat="45.63238" lon="6.59575">
        <ele>1811.57</ele>
        <time>2019-10-14T08:52:00.000Z</time>
      </trkpt>
      <trkpt lat="45.63232" lon="6.59597">
        <ele>1814.26</ele>
        <time>2019-10-14T08:52:05.000Z</time>
      </trkpt>
      <trkpt lat="45.63225" lon="6.59618">
        <ele>1815.04</ele>
        <time>2019-10-14T08:52:10.000Z</time>
      </trkpt>
      <trkpt lat="45.63211" lon="6.59627">
        <ele>1815.81</ele>
        <time>2019-10-14T08:52:15.000Z</time>
      </trkpt>
      <trkpt lat="45.63196" lon="6.59637">
        <ele>1815.01</ele>
        <time>2019-10-14T08:52:20.000Z</time>
      </trkpt>
      <trkpt lat="45.63199" lon="6.59658">
        <ele>1820.77</ele>
        <time>2019-10-14T08:52:25.000Z</time>
      </trkpt>
      <trkpt lat="45.63196" lon="6.59684">
        <ele>1821.36</ele>
        <time>2019-10-14T08:52:30.000Z</time>
      </trkpt>
      <trkpt lat="45.63182" lon="6.59696">
        <ele>1820.51</ele>
        <time>2019-10-14T08:52:35.000Z</time>
      </trkpt>
      <trkpt lat="45.63166" lon="6.59699">
        <ele>1820.91</ele>
        <time>2019-10-14T08:52:40.000Z</time>
      </trkpt>
      <trkpt lat="45.63154" lon="6.59708">
        <ele>1820.23</ele>
        <time>2019-10-14T08:52:45.000Z</time>
      </trkpt>
      <trkpt lat="45.63142" lon="6.59722">
        <ele>1821.77</ele>
        <time>2019-10-14T08:52:50.000Z</time>
      </trkpt>
      <trkpt lat="45.63133" lon="6.59737">
        <ele>1823.48</ele>
        <time>2019-10-14T08:52:55.000Z</time>
      </trkpt>
      <trkpt lat="45.63122" lon="6.59754">
        <ele>1823.36</ele>
        <time>2019-10-14T08:53:00.000Z</time>
      </trkpt>
      <trkpt lat="45.6311" lon="6.59767">
        <ele>1823.51</ele>
        <time>2019-10-14T08:53:05.000Z</time>
      </trkpt>
      <trkpt lat="45.63098" lon="6.59779">
        <ele>1825.33</ele>
        <time>2019-10-14T08:53:10.000Z</time>
      </trkpt>
      <trkpt lat="45.63087" lon="6.59796">
        <ele>1828.44</ele>
        <time>2019-10-14T08:53:15.000Z</time>
      </trkpt>
      <trkpt lat="45.63079" lon="6.59812">
        <ele>1827.5</ele>
        <time>2019-10-14T08:53:20.000Z</time>
      </trkpt>
      <trkpt lat="45.63069" lon="6.59826">
        <ele>1829.34</ele>
        <time>2019-10-14T08:53:25.000Z</time>
      </trkpt>
      <trkpt lat="45.63054" lon="6.59835">
        <ele>1829.67</ele>
        <time>2019-10-14T08:53:30.000Z</time>
      </trkpt>
      <trkpt lat="45.6304" lon="6.59844">
        <ele>1832.63</ele>
        <time>2019-10-14T08:53:35.000Z</time>
      </trkpt>
      <trkpt lat="45.63026" lon="6.59852">
        <ele>1830.72</ele>
        <time>2019-10-14T08:53:40.000Z</time>
      </trkpt>
      <trkpt lat="45.63012" lon="6.59863">
        <ele>1832.76</ele>
        <time>2019-10-14T08:53:45.000Z</time>
      </trkpt>
      <trkpt lat="45.62999" lon="6.59874">
        <ele>1834.9</ele>
        <time>2019-10-14T08:53:50.000Z</time>
      </trkpt>
      <trkpt lat="45.62982" lon="6.59883">
        <ele>1838.16</ele>
        <time>2019-10-14T08:53:55.000Z</time>
      </trkpt>
      <trkpt lat="45.62965" lon="6.59893">
        <ele>1839.46</ele>
        <time>2019-10-14T08:54:00.000Z</time>
      </trkpt>
      <trkpt lat="45.62951" lon="6.59905">
        <ele>1840.4</ele>
        <time>2019-10-14T08:54:05.000Z</time>
      </trkpt>
      <trkpt lat="45.62939" lon="6.59917">
        <ele>1841.13</ele>
        <time>2019-10-14T08:54:10.000Z</time>
      </trkpt>
      <trkpt lat="45.62924" lon="6.59923">
        <ele>1846.52</ele>
        <time>2019-10-14T08:54:15.000Z</time>
      </trkpt>
      <trkpt lat="45.62911" lon="6.59927">
        <ele>1847.56</ele>
        <time>2019-10-14T08:54:20.000Z</time>
      </trkpt>
      <trkpt lat="45.62915" lon="6.59939">
        <ele>1848.54</ele>
        <time>2019-10-14T08:54:25.000Z</time>
      </trkpt>
      <trkpt lat="45.6293" lon="6.59936">
        <ele>1850.79</ele>
        <time>2019-10-14T08:54:30.000Z</time>
      </trkpt>
      <trkpt lat="45.62947" lon="6.59941">
        <ele>1852.65</ele>
        <time>2019-10-14T08:54:35.000Z</time>
      </trkpt>
      <trkpt lat="45.62964" lon="6.59942">
        <ele>1851.85</ele>
        <time>2019-10-14T08:54:40.000Z</time>
      </trkpt>
      <trkpt lat="45.62981" lon="6.59941">
        <ele>1851.24</ele>
        <time>2019-10-14T08:54:45.000Z</time>
      </trkpt>
      <trkpt lat="45.62995" lon="6.5994">
        <ele>1849.82</ele>
        <time>2019-10-14T08:54:50.000Z</time>
      </trkpt>
      <trkpt lat="45.63011" lon="6.59934">
        <ele>1851.6</ele>
        <time>2019-10-14T08:54:55.000Z</time>
      </trkpt>
      <trkpt lat="45.63025" lon="6.59928">
        <ele>1854.15</ele>
        <time>2019-10-14T08:55:00.000Z</time>
      </trkpt>
      <trkpt lat="45.6303" lon="6.59942">
        <ele>1855</ele>
        <time>2019-10-14T08:55:05.000Z</time>
      </trkpt>
      <trkpt lat="45.63021" lon="6.5994">
        <ele>1860.34</ele>
        <time>2019-10-14T08:55:41.000Z</time>
      </trkpt>
      <trkpt lat="45.63011" lon="6.59943">
        <ele>1863</ele>
        <time>2019-10-14T08:57:40.000Z</time>
      </trkpt>
      <trkpt lat="45.62996" lon="6.59955">
        <ele>1863.17</ele>
        <time>2019-10-14T08:57:45.000Z</time>
      </trkpt>
      <trkpt lat="45.62982" lon="6.59965">
        <ele>1865.35</ele>
        <time>2019-10-14T08:57:50.000Z</time>
      </trkpt>
      <trkpt lat="45.62971" lon="6.59974">
        <ele>1864.9</ele>
        <time>2019-10-14T08:57:55.000Z</time>
      </trkpt>
      <trkpt lat="45.62958" lon="6.5998">
        <ele>1868.35</ele>
        <time>2019-10-14T08:58:00.000Z</time>
      </trkpt>
      <trkpt lat="45.6295" lon="6.59992">
        <ele>1867.39</ele>
        <time>2019-10-14T08:58:05.000Z</time>
      </trkpt>
      <trkpt lat="45.62939" lon="6.60001">
        <ele>1870.61</ele>
        <time>2019-10-14T08:58:10.000Z</time>
      </trkpt>
      <trkpt lat="45.62928" lon="6.60009">
        <ele>1871.04</ele>
        <time>2019-10-14T08:58:15.000Z</time>
      </trkpt>
      <trkpt lat="45.62916" lon="6.60013">
        <ele>1873.72</ele>
        <time>2019-10-14T08:58:20.000Z</time>
      </trkpt>
      <trkpt lat="45.62904" lon="6.60016">
        <ele>1878.27</ele>
        <time>2019-10-14T08:58:25.000Z</time>
      </trkpt>
      <trkpt lat="45.62893" lon="6.60024">
        <ele>1878.75</ele>
        <time>2019-10-14T08:58:30.000Z</time>
      </trkpt>
      <trkpt lat="45.62886" lon="6.60038">
        <ele>1879.64</ele>
        <time>2019-10-14T08:58:35.000Z</time>
      </trkpt>
      <trkpt lat="45.62881" lon="6.60052">
        <ele>1878.38</ele>
        <time>2019-10-14T08:58:40.000Z</time>
      </trkpt>
      <trkpt lat="45.62877" lon="6.6007">
        <ele>1878.57</ele>
        <time>2019-10-14T08:58:45.000Z</time>
      </trkpt>
      <trkpt lat="45.62867" lon="6.60079">
        <ele>1879.26</ele>
        <time>2019-10-14T08:58:50.000Z</time>
      </trkpt>
      <trkpt lat="45.62853" lon="6.60078">
        <ele>1881</ele>
        <time>2019-10-14T08:58:55.000Z</time>
      </trkpt>
      <trkpt lat="45.62843" lon="6.60082">
        <ele>1883.7</ele>
        <time>2019-10-14T08:59:00.000Z</time>
      </trkpt>
      <trkpt lat="45.62829" lon="6.60083">
        <ele>1885.19</ele>
        <time>2019-10-14T08:59:05.000Z</time>
      </trkpt>
      <trkpt lat="45.62814" lon="6.60081">
        <ele>1887.25</ele>
        <time>2019-10-14T08:59:10.000Z</time>
      </trkpt>
      <trkpt lat="45.62802" lon="6.60079">
        <ele>1888.87</ele>
        <time>2019-10-14T08:59:15.000Z</time>
      </trkpt>
      <trkpt lat="45.6279" lon="6.60076">
        <ele>1889.36</ele>
        <time>2019-10-14T08:59:20.000Z</time>
      </trkpt>
      <trkpt lat="45.62778" lon="6.60075">
        <ele>1890.92</ele>
        <time>2019-10-14T08:59:25.000Z</time>
      </trkpt>
      <trkpt lat="45.62766" lon="6.6007">
        <ele>1893.74</ele>
        <time>2019-10-14T08:59:30.000Z</time>
      </trkpt>
      <trkpt lat="45.62753" lon="6.60067">
        <ele>1896.33</ele>
        <time>2019-10-14T08:59:35.000Z</time>
      </trkpt>
      <trkpt lat="45.6274" lon="6.60069">
        <ele>1895.44</ele>
        <time>2019-10-14T08:59:40.000Z</time>
      </trkpt>
      <trkpt lat="45.62727" lon="6.60068">
        <ele>1896.08</ele>
        <time>2019-10-14T08:59:45.000Z</time>
      </trkpt>
      <trkpt lat="45.62716" lon="6.60063">
        <ele>1896.6</ele>
        <time>2019-10-14T08:59:50.000Z</time>
      </trkpt>
      <trkpt lat="45.62704" lon="6.60049">
        <ele>1894.99</ele>
        <time>2019-10-14T08:59:55.000Z</time>
      </trkpt>
      <trkpt lat="45.62691" lon="6.60041">
        <ele>1895.33</ele>
        <time>2019-10-14T09:00:00.000Z</time>
      </trkpt>
      <trkpt lat="45.62677" lon="6.60036">
        <ele>1899.32</ele>
        <time>2019-10-14T09:00:05.000Z</time>
      </trkpt>
      <trkpt lat="45.62662" lon="6.6003">
        <ele>1899.08</ele>
        <time>2019-10-14T09:00:10.000Z</time>
      </trkpt>
      <trkpt lat="45.62647" lon="6.6003">
        <ele>1897.15</ele>
        <time>2019-10-14T09:00:15.000Z</time>
      </trkpt>
      <trkpt lat="45.62634" lon="6.60035">
        <ele>1898.9</ele>
        <time>2019-10-14T09:00:20.000Z</time>
      </trkpt>
      <trkpt lat="45.62621" lon="6.6004">
        <ele>1899.54</ele>
        <time>2019-10-14T09:00:25.000Z</time>
      </trkpt>
      <trkpt lat="45.62609" lon="6.60045">
        <ele>1899.71</ele>
        <time>2019-10-14T09:00:30.000Z</time>
      </trkpt>
      <trkpt lat="45.62602" lon="6.60062">
        <ele>1899.28</ele>
        <time>2019-10-14T09:00:35.000Z</time>
      </trkpt>
      <trkpt lat="45.62596" lon="6.60081">
        <ele>1900.58</ele>
        <time>2019-10-14T09:00:40.000Z</time>
      </trkpt>
      <trkpt lat="45.62593" lon="6.601">
        <ele>1901.65</ele>
        <time>2019-10-14T09:00:45.000Z</time>
      </trkpt>
      <trkpt lat="45.62585" lon="6.60116">
        <ele>1903.18</ele>
        <time>2019-10-14T09:00:50.000Z</time>
      </trkpt>
      <trkpt lat="45.62576" lon="6.60133">
        <ele>1904.18</ele>
        <time>2019-10-14T09:00:55.000Z</time>
      </trkpt>
      <trkpt lat="45.62571" lon="6.6015">
        <ele>1905.45</ele>
        <time>2019-10-14T09:01:00.000Z</time>
      </trkpt>
      <trkpt lat="45.62573" lon="6.60167">
        <ele>1907.13</ele>
        <time>2019-10-14T09:01:05.000Z</time>
      </trkpt>
      <trkpt lat="45.62579" lon="6.60186">
        <ele>1909.14</ele>
        <time>2019-10-14T09:01:10.000Z</time>
      </trkpt>
      <trkpt lat="45.62586" lon="6.60208">
        <ele>1907.88</ele>
        <time>2019-10-14T09:01:15.000Z</time>
      </trkpt>
      <trkpt lat="45.62594" lon="6.60232">
        <ele>1911.28</ele>
        <time>2019-10-14T09:01:20.000Z</time>
      </trkpt>
      <trkpt lat="45.626" lon="6.60249">
        <ele>1913.16</ele>
        <time>2019-10-14T09:01:25.000Z</time>
      </trkpt>
      <trkpt lat="45.62606" lon="6.60262">
        <ele>1915.92</ele>
        <time>2019-10-14T09:01:30.000Z</time>
      </trkpt>
      <trkpt lat="45.62594" lon="6.60269">
        <ele>1915.81</ele>
        <time>2019-10-14T09:01:35.000Z</time>
      </trkpt>
      <trkpt lat="45.6258" lon="6.60253">
        <ele>1918.58</ele>
        <time>2019-10-14T09:01:40.000Z</time>
      </trkpt>
      <trkpt lat="45.6257" lon="6.60234">
        <ele>1919.39</ele>
        <time>2019-10-14T09:01:45.000Z</time>
      </trkpt>
      <trkpt lat="45.62555" lon="6.60222">
        <ele>1918.23</ele>
        <time>2019-10-14T09:01:50.000Z</time>
      </trkpt>
      <trkpt lat="45.62541" lon="6.60212">
        <ele>1920.19</ele>
        <time>2019-10-14T09:01:55.000Z</time>
      </trkpt>
      <trkpt lat="45.62528" lon="6.60206">
        <ele>1924.41</ele>
        <time>2019-10-14T09:02:00.000Z</time>
      </trkpt>
      <trkpt lat="45.62517" lon="6.60218">
        <ele>1924.54</ele>
        <time>2019-10-14T09:02:05.000Z</time>
      </trkpt>
      <trkpt lat="45.62525" lon="6.60237">
        <ele>1927.5</ele>
        <time>2019-10-14T09:02:10.000Z</time>
      </trkpt>
      <trkpt lat="45.6254" lon="6.60249">
        <ele>1927.94</ele>
        <time>2019-10-14T09:02:15.000Z</time>
      </trkpt>
      <trkpt lat="45.62555" lon="6.60261">
        <ele>1930.8</ele>
        <time>2019-10-14T09:02:20.000Z</time>
      </trkpt>
      <trkpt lat="45.62567" lon="6.60275">
        <ele>1931.21</ele>
        <time>2019-10-14T09:02:25.000Z</time>
      </trkpt>
      <trkpt lat="45.62578" lon="6.60293">
        <ele>1932.58</ele>
        <time>2019-10-14T09:02:30.000Z</time>
      </trkpt>
      <trkpt lat="45.6259" lon="6.60311">
        <ele>1930.97</ele>
        <time>2019-10-14T09:02:35.000Z</time>
      </trkpt>
      <trkpt lat="45.62599" lon="6.60324">
        <ele>1929.96</ele>
        <time>2019-10-14T09:02:40.000Z</time>
      </trkpt>
      <trkpt lat="45.6261" lon="6.60338">
        <ele>1931.05</ele>
        <time>2019-10-14T09:02:45.000Z</time>
      </trkpt>
      <trkpt lat="45.62619" lon="6.60353">
        <ele>1934.52</ele>
        <time>2019-10-14T09:02:50.000Z</time>
      </trkpt>
      <trkpt lat="45.62628" lon="6.60368">
        <ele>1937.71</ele>
        <time>2019-10-14T09:02:55.000Z</time>
      </trkpt>
      <trkpt lat="45.62641" lon="6.60386">
        <ele>1939.12</ele>
        <time>2019-10-14T09:03:00.000Z</time>
      </trkpt>
      <trkpt lat="45.62652" lon="6.60398">
        <ele>1941.06</ele>
        <time>2019-10-14T09:03:05.000Z</time>
      </trkpt>
      <trkpt lat="45.62668" lon="6.60395">
        <ele>1943.14</ele>
        <time>2019-10-14T09:03:10.000Z</time>
      </trkpt>
      <trkpt lat="45.62681" lon="6.60385">
        <ele>1943.78</ele>
        <time>2019-10-14T09:03:15.000Z</time>
      </trkpt>
      <trkpt lat="45.62696" lon="6.6038">
        <ele>1937.29</ele>
        <time>2019-10-14T09:03:20.000Z</time>
      </trkpt>
      <trkpt lat="45.62712" lon="6.6038">
        <ele>1939.36</ele>
        <time>2019-10-14T09:03:25.000Z</time>
      </trkpt>
      <trkpt lat="45.62726" lon="6.60391">
        <ele>1940.59</ele>
        <time>2019-10-14T09:03:30.000Z</time>
      </trkpt>
      <trkpt lat="45.62717" lon="6.6039">
        <ele>1957.73</ele>
        <time>2019-10-14T09:06:50.000Z</time>
      </trkpt>
      <trkpt lat="45.62708" lon="6.60398">
        <ele>1960.24</ele>
        <time>2019-10-14T09:07:06.000Z</time>
      </trkpt>
      <trkpt lat="45.62696" lon="6.60402">
        <ele>1963.79</ele>
        <time>2019-10-14T09:07:11.000Z</time>
      </trkpt>
      <trkpt lat="45.62683" lon="6.604">
        <ele>1964.95</ele>
        <time>2019-10-14T09:07:16.000Z</time>
      </trkpt>
      <trkpt lat="45.62672" lon="6.60409">
        <ele>1963.52</ele>
        <time>2019-10-14T09:07:21.000Z</time>
      </trkpt>
      <trkpt lat="45.6266" lon="6.60426">
        <ele>1963.46</ele>
        <time>2019-10-14T09:07:26.000Z</time>
      </trkpt>
      <trkpt lat="45.6265" lon="6.60439">
        <ele>1962.1</ele>
        <time>2019-10-14T09:07:31.000Z</time>
      </trkpt>
      <trkpt lat="45.62641" lon="6.6045">
        <ele>1961.66</ele>
        <time>2019-10-14T09:07:36.000Z</time>
      </trkpt>
      <trkpt lat="45.62631" lon="6.60467">
        <ele>1962.61</ele>
        <time>2019-10-14T09:07:41.000Z</time>
      </trkpt>
      <trkpt lat="45.62622" lon="6.60479">
        <ele>1960.47</ele>
        <time>2019-10-14T09:07:46.000Z</time>
      </trkpt>
      <trkpt lat="45.62609" lon="6.60488">
        <ele>1962.49</ele>
        <time>2019-10-14T09:07:51.000Z</time>
      </trkpt>
      <trkpt lat="45.62596" lon="6.60491">
        <ele>1963.18</ele>
        <time>2019-10-14T09:07:56.000Z</time>
      </trkpt>
      <trkpt lat="45.62582" lon="6.60488">
        <ele>1964.81</ele>
        <time>2019-10-14T09:08:01.000Z</time>
      </trkpt>
      <trkpt lat="45.62568" lon="6.60484">
        <ele>1967.34</ele>
        <time>2019-10-14T09:08:06.000Z</time>
      </trkpt>
      <trkpt lat="45.62558" lon="6.60483">
        <ele>1968.68</ele>
        <time>2019-10-14T09:08:11.000Z</time>
      </trkpt>
      <trkpt lat="45.62547" lon="6.60492">
        <ele>1967.2</ele>
        <time>2019-10-14T09:08:16.000Z</time>
      </trkpt>
      <trkpt lat="45.62538" lon="6.60505">
        <ele>1970.88</ele>
        <time>2019-10-14T09:08:21.000Z</time>
      </trkpt>
      <trkpt lat="45.62525" lon="6.6051">
        <ele>1973.1</ele>
        <time>2019-10-14T09:08:26.000Z</time>
      </trkpt>
      <trkpt lat="45.62511" lon="6.6051">
        <ele>1976.18</ele>
        <time>2019-10-14T09:08:31.000Z</time>
      </trkpt>
      <trkpt lat="45.62497" lon="6.60507">
        <ele>1974.35</ele>
        <time>2019-10-14T09:08:36.000Z</time>
      </trkpt>
      <trkpt lat="45.62483" lon="6.60504">
        <ele>1974.35</ele>
        <time>2019-10-14T09:08:41.000Z</time>
      </trkpt>
      <trkpt lat="45.6247" lon="6.60511">
        <ele>1973.44</ele>
        <time>2019-10-14T09:08:46.000Z</time>
      </trkpt>
      <trkpt lat="45.62457" lon="6.60518">
        <ele>1972.82</ele>
        <time>2019-10-14T09:08:51.000Z</time>
      </trkpt>
      <trkpt lat="45.62441" lon="6.60519">
        <ele>1975.48</ele>
        <time>2019-10-14T09:08:56.000Z</time>
      </trkpt>
      <trkpt lat="45.62425" lon="6.60516">
        <ele>1975.52</ele>
        <time>2019-10-14T09:09:01.000Z</time>
      </trkpt>
      <trkpt lat="45.62411" lon="6.6051">
        <ele>1973.93</ele>
        <time>2019-10-14T09:09:06.000Z</time>
      </trkpt>
      <trkpt lat="45.62398" lon="6.60493">
        <ele>1984.14</ele>
        <time>2019-10-14T09:09:11.000Z</time>
      </trkpt>
      <trkpt lat="45.6239" lon="6.60472">
        <ele>1982.77</ele>
        <time>2019-10-14T09:09:16.000Z</time>
      </trkpt>
      <trkpt lat="45.62385" lon="6.60449">
        <ele>1984.02</ele>
        <time>2019-10-14T09:09:21.000Z</time>
      </trkpt>
      <trkpt lat="45.6238" lon="6.6043">
        <ele>1983.54</ele>
        <time>2019-10-14T09:09:26.000Z</time>
      </trkpt>
      <trkpt lat="45.62374" lon="6.60412">
        <ele>1983.39</ele>
        <time>2019-10-14T09:09:31.000Z</time>
      </trkpt>
      <trkpt lat="45.62374" lon="6.60397">
        <ele>1987.21</ele>
        <time>2019-10-14T09:09:36.000Z</time>
      </trkpt>
      <trkpt lat="45.62368" lon="6.60382">
        <ele>1987.62</ele>
        <time>2019-10-14T09:09:41.000Z</time>
      </trkpt>
      <trkpt lat="45.62357" lon="6.60368">
        <ele>1988.11</ele>
        <time>2019-10-14T09:09:46.000Z</time>
      </trkpt>
      <trkpt lat="45.62346" lon="6.60354">
        <ele>1990.62</ele>
        <time>2019-10-14T09:09:51.000Z</time>
      </trkpt>
      <trkpt lat="45.62339" lon="6.60339">
        <ele>1996.88</ele>
        <time>2019-10-14T09:09:56.000Z</time>
      </trkpt>
      <trkpt lat="45.62331" lon="6.60325">
        <ele>2000.68</ele>
        <time>2019-10-14T09:10:01.000Z</time>
      </trkpt>
      <trkpt lat="45.62318" lon="6.60318">
        <ele>2001.74</ele>
        <time>2019-10-14T09:10:06.000Z</time>
      </trkpt>
      <trkpt lat="45.62308" lon="6.60301">
        <ele>2003.16</ele>
        <time>2019-10-14T09:10:11.000Z</time>
      </trkpt>
      <trkpt lat="45.62302" lon="6.60282">
        <ele>2005.74</ele>
        <time>2019-10-14T09:10:16.000Z</time>
      </trkpt>
      <trkpt lat="45.62298" lon="6.6026">
        <ele>2008.11</ele>
        <time>2019-10-14T09:10:21.000Z</time>
      </trkpt>
      <trkpt lat="45.62298" lon="6.60239">
        <ele>2009.63</ele>
        <time>2019-10-14T09:10:26.000Z</time>
      </trkpt>
      <trkpt lat="45.62297" lon="6.60219">
        <ele>2010.43</ele>
        <time>2019-10-14T09:10:31.000Z</time>
      </trkpt>
      <trkpt lat="45.6229" lon="6.60202">
        <ele>2010.02</ele>
        <time>2019-10-14T09:10:36.000Z</time>
      </trkpt>
      <trkpt lat="45.62281" lon="6.60188">
        <ele>2014.71</ele>
        <time>2019-10-14T09:10:41.000Z</time>
      </trkpt>
      <trkpt lat="45.62271" lon="6.60176">
        <ele>2017.15</ele>
        <time>2019-10-14T09:10:46.000Z</time>
      </trkpt>
      <trkpt lat="45.62263" lon="6.60169">
        <ele>2019.63</ele>
        <time>2019-10-14T09:14:25.000Z</time>
      </trkpt>
      <trkpt lat="45.62255" lon="6.60177">
        <ele>2019.3</ele>
        <time>2019-10-14T09:14:31.000Z</time>
      </trkpt>
      <trkpt lat="45.62242" lon="6.60187">
        <ele>2019.97</ele>
        <time>2019-10-14T09:14:36.000Z</time>
      </trkpt>
      <trkpt lat="45.62231" lon="6.60199">
        <ele>2018.91</ele>
        <time>2019-10-14T09:14:41.000Z</time>
      </trkpt>
      <trkpt lat="45.6222" lon="6.60212">
        <ele>2018.76</ele>
        <time>2019-10-14T09:14:46.000Z</time>
      </trkpt>
      <trkpt lat="45.6221" lon="6.60223">
        <ele>2018.96</ele>
        <time>2019-10-14T09:14:51.000Z</time>
      </trkpt>
      <trkpt lat="45.62201" lon="6.60237">
        <ele>2020.14</ele>
        <time>2019-10-14T09:14:56.000Z</time>
      </trkpt>
      <trkpt lat="45.62189" lon="6.6025">
        <ele>2021.08</ele>
        <time>2019-10-14T09:15:01.000Z</time>
      </trkpt>
      <trkpt lat="45.62173" lon="6.60256">
        <ele>2025.81</ele>
        <time>2019-10-14T09:15:06.000Z</time>
      </trkpt>
      <trkpt lat="45.62157" lon="6.60263">
        <ele>2027.45</ele>
        <time>2019-10-14T09:15:11.000Z</time>
      </trkpt>
      <trkpt lat="45.62144" lon="6.60253">
        <ele>2027</ele>
        <time>2019-10-14T09:15:16.000Z</time>
      </trkpt>
      <trkpt lat="45.62132" lon="6.6024">
        <ele>2027.16</ele>
        <time>2019-10-14T09:15:21.000Z</time>
      </trkpt>
      <trkpt lat="45.62119" lon="6.60237">
        <ele>2030.71</ele>
        <time>2019-10-14T09:15:26.000Z</time>
      </trkpt>
      <trkpt lat="45.62105" lon="6.60231">
        <ele>2029.18</ele>
        <time>2019-10-14T09:15:31.000Z</time>
      </trkpt>
      <trkpt lat="45.62095" lon="6.6022">
        <ele>2028.33</ele>
        <time>2019-10-14T09:15:36.000Z</time>
      </trkpt>
      <trkpt lat="45.62084" lon="6.60207">
        <ele>2028.65</ele>
        <time>2019-10-14T09:15:41.000Z</time>
      </trkpt>
      <trkpt lat="45.62071" lon="6.60199">
        <ele>2029.23</ele>
        <time>2019-10-14T09:15:46.000Z</time>
      </trkpt>
      <trkpt lat="45.62064" lon="6.60177">
        <ele>2037.9</ele>
        <time>2019-10-14T09:15:51.000Z</time>
      </trkpt>
      <trkpt lat="45.62056" lon="6.60158">
        <ele>2038.14</ele>
        <time>2019-10-14T09:15:56.000Z</time>
      </trkpt>
      <trkpt lat="45.62043" lon="6.60145">
        <ele>2039.16</ele>
        <time>2019-10-14T09:16:01.000Z</time>
      </trkpt>
      <trkpt lat="45.62031" lon="6.6014">
        <ele>2039.87</ele>
        <time>2019-10-14T09:16:06.000Z</time>
      </trkpt>
      <trkpt lat="45.62019" lon="6.6013">
        <ele>2041.94</ele>
        <time>2019-10-14T09:16:11.000Z</time>
      </trkpt>
      <trkpt lat="45.62007" lon="6.60115">
        <ele>2043.6</ele>
        <time>2019-10-14T09:16:16.000Z</time>
      </trkpt>
      <trkpt lat="45.61992" lon="6.60109">
        <ele>2046.54</ele>
        <time>2019-10-14T09:16:21.000Z</time>
      </trkpt>
      <trkpt lat="45.61979" lon="6.60102">
        <ele>2049.82</ele>
        <time>2019-10-14T09:16:26.000Z</time>
      </trkpt>
      <trkpt lat="45.61969" lon="6.60087">
        <ele>2053.47</ele>
        <time>2019-10-14T09:16:31.000Z</time>
      </trkpt>
      <trkpt lat="45.61962" lon="6.60069">
        <ele>2054.71</ele>
        <time>2019-10-14T09:16:36.000Z</time>
      </trkpt>
      <trkpt lat="45.61958" lon="6.60047">
        <ele>2055.79</ele>
        <time>2019-10-14T09:16:41.000Z</time>
      </trkpt>
      <trkpt lat="45.61962" lon="6.60024">
        <ele>2058.26</ele>
        <time>2019-10-14T09:16:46.000Z</time>
      </trkpt>
      <trkpt lat="45.6197" lon="6.60003">
        <ele>2060.05</ele>
        <time>2019-10-14T09:16:51.000Z</time>
      </trkpt>
      <trkpt lat="45.61975" lon="6.59984">
        <ele>2061.06</ele>
        <time>2019-10-14T09:16:56.000Z</time>
      </trkpt>
      <trkpt lat="45.61974" lon="6.59965">
        <ele>2062.55</ele>
        <time>2019-10-14T09:17:01.000Z</time>
      </trkpt>
      <trkpt lat="45.6196" lon="6.59958">
        <ele>2061.91</ele>
        <time>2019-10-14T09:17:06.000Z</time>
      </trkpt>
      <trkpt lat="45.61945" lon="6.59969">
        <ele>2061.01</ele>
        <time>2019-10-14T09:17:11.000Z</time>
      </trkpt>
      <trkpt lat="45.61934" lon="6.59986">
        <ele>2061.55</ele>
        <time>2019-10-14T09:17:16.000Z</time>
      </trkpt>
      <trkpt lat="45.61921" lon="6.59998">
        <ele>2063.34</ele>
        <time>2019-10-14T09:17:21.000Z</time>
      </trkpt>
      <trkpt lat="45.61907" lon="6.60004">
        <ele>2068.82</ele>
        <time>2019-10-14T09:17:26.000Z</time>
      </trkpt>
      <trkpt lat="45.61893" lon="6.60008">
        <ele>2071.47</ele>
        <time>2019-10-14T09:17:31.000Z</time>
      </trkpt>
      <trkpt lat="45.6188" lon="6.60016">
        <ele>2073.6</ele>
        <time>2019-10-14T09:17:36.000Z</time>
      </trkpt>
      <trkpt lat="45.61868" lon="6.60025">
        <ele>2073.44</ele>
        <time>2019-10-14T09:17:41.000Z</time>
      </trkpt>
      <trkpt lat="45.61856" lon="6.60039">
        <ele>2073.51</ele>
        <time>2019-10-14T09:17:46.000Z</time>
      </trkpt>
      <trkpt lat="45.61847" lon="6.60055">
        <ele>2074.9</ele>
        <time>2019-10-14T09:17:51.000Z</time>
      </trkpt>
      <trkpt lat="45.6184" lon="6.60071">
        <ele>2068.46</ele>
        <time>2019-10-14T09:17:56.000Z</time>
      </trkpt>
      <trkpt lat="45.61832" lon="6.60087">
        <ele>2069.04</ele>
        <time>2019-10-14T09:18:01.000Z</time>
      </trkpt>
      <trkpt lat="45.61823" lon="6.60101">
        <ele>2070.08</ele>
        <time>2019-10-14T09:18:06.000Z</time>
      </trkpt>
      <trkpt lat="45.61815" lon="6.60117">
        <ele>2073.23</ele>
        <time>2019-10-14T09:18:11.000Z</time>
      </trkpt>
      <trkpt lat="45.61809" lon="6.60133">
        <ele>2073.88</ele>
        <time>2019-10-14T09:18:16.000Z</time>
      </trkpt>
      <trkpt lat="45.61802" lon="6.6015">
        <ele>2074.61</ele>
        <time>2019-10-14T09:18:21.000Z</time>
      </trkpt>
      <trkpt lat="45.61794" lon="6.60166">
        <ele>2077.4</ele>
        <time>2019-10-14T09:18:26.000Z</time>
      </trkpt>
      <trkpt lat="45.61783" lon="6.60181">
        <ele>2079.59</ele>
        <time>2019-10-14T09:18:31.000Z</time>
      </trkpt>
      <trkpt lat="45.61769" lon="6.6019">
        <ele>2083.46</ele>
        <time>2019-10-14T09:18:36.000Z</time>
      </trkpt>
      <trkpt lat="45.61758" lon="6.6021">
        <ele>2086.67</ele>
        <time>2019-10-14T09:18:41.000Z</time>
      </trkpt>
      <trkpt lat="45.61747" lon="6.60229">
        <ele>2093.1</ele>
        <time>2019-10-14T09:18:46.000Z</time>
      </trkpt>
      <trkpt lat="45.61735" lon="6.60247">
        <ele>2094.39</ele>
        <time>2019-10-14T09:18:51.000Z</time>
      </trkpt>
      <trkpt lat="45.61723" lon="6.60259">
        <ele>2092.14</ele>
        <time>2019-10-14T09:18:56.000Z</time>
      </trkpt>
      <trkpt lat="45.61715" lon="6.60276">
        <ele>2093.08</ele>
        <time>2019-10-14T09:19:01.000Z</time>
      </trkpt>
      <trkpt lat="45.61716" lon="6.60296">
        <ele>2094.62</ele>
        <time>2019-10-14T09:19:06.000Z</time>
      </trkpt>
      <trkpt lat="45.61723" lon="6.6031">
        <ele>2094.73</ele>
        <time>2019-10-14T09:19:11.000Z</time>
      </trkpt>
      <trkpt lat="45.61727" lon="6.60297">
        <ele>2105.08</ele>
        <time>2019-10-14T09:21:00.000Z</time>
      </trkpt>
      <trkpt lat="45.61731" lon="6.60283">
        <ele>2106.57</ele>
        <time>2019-10-14T09:21:05.000Z</time>
      </trkpt>
      <trkpt lat="45.61734" lon="6.60271">
        <ele>2105.73</ele>
        <time>2019-10-14T09:21:13.000Z</time>
      </trkpt>
      <trkpt lat="45.61734" lon="6.60257">
        <ele>2107.05</ele>
        <time>2019-10-14T09:21:23.000Z</time>
      </trkpt>
      <trkpt lat="45.6173" lon="6.60271">
        <ele>2111.28</ele>
        <time>2019-10-14T09:21:49.000Z</time>
      </trkpt>
      <trkpt lat="45.61725" lon="6.60283">
        <ele>2116.4</ele>
        <time>2019-10-14T09:21:56.000Z</time>
      </trkpt>
      <trkpt lat="45.61726" lon="6.60296">
        <ele>2111.85</ele>
        <time>2019-10-14T09:22:02.000Z</time>
      </trkpt>
      <trkpt lat="45.61729" lon="6.60309">
        <ele>2107.15</ele>
        <time>2019-10-14T09:22:12.000Z</time>
      </trkpt>
      <trkpt lat="45.61737" lon="6.60317">
        <ele>2107.71</ele>
        <time>2019-10-14T09:25:39.000Z</time>
      </trkpt>
      <trkpt lat="45.61744" lon="6.6033">
        <ele>2106.91</ele>
        <time>2019-10-14T09:25:44.000Z</time>
      </trkpt>
      <trkpt lat="45.61746" lon="6.60347">
        <ele>2107.24</ele>
        <time>2019-10-14T09:25:49.000Z</time>
      </trkpt>
      <trkpt lat="45.61745" lon="6.60366">
        <ele>2105.8</ele>
        <time>2019-10-14T09:25:54.000Z</time>
      </trkpt>
      <trkpt lat="45.61745" lon="6.6038">
        <ele>2108.02</ele>
        <time>2019-10-14T09:25:59.000Z</time>
      </trkpt>
      <trkpt lat="45.61749" lon="6.60395">
        <ele>2105.07</ele>
        <time>2019-10-14T09:26:04.000Z</time>
      </trkpt>
      <trkpt lat="45.61757" lon="6.6041">
        <ele>2102.61</ele>
        <time>2019-10-14T09:26:09.000Z</time>
      </trkpt>
      <trkpt lat="45.61768" lon="6.60421">
        <ele>2099.18</ele>
        <time>2019-10-14T09:26:14.000Z</time>
      </trkpt>
      <trkpt lat="45.61776" lon="6.60439">
        <ele>2097.79</ele>
        <time>2019-10-14T09:26:19.000Z</time>
      </trkpt>
      <trkpt lat="45.61777" lon="6.60461">
        <ele>2094.97</ele>
        <time>2019-10-14T09:26:24.000Z</time>
      </trkpt>
      <trkpt lat="45.61779" lon="6.60482">
        <ele>2094.19</ele>
        <time>2019-10-14T09:26:29.000Z</time>
      </trkpt>
      <trkpt lat="45.61782" lon="6.60503">
        <ele>2095.11</ele>
        <time>2019-10-14T09:26:34.000Z</time>
      </trkpt>
      <trkpt lat="45.61786" lon="6.60522">
        <ele>2097.67</ele>
        <time>2019-10-14T09:26:39.000Z</time>
      </trkpt>
      <trkpt lat="45.61798" lon="6.60535">
        <ele>2098.82</ele>
        <time>2019-10-14T09:26:44.000Z</time>
      </trkpt>
      <trkpt lat="45.61814" lon="6.60534">
        <ele>2103.14</ele>
        <time>2019-10-14T09:26:49.000Z</time>
      </trkpt>
      <trkpt lat="45.61826" lon="6.60538">
        <ele>2103.95</ele>
        <time>2019-10-14T09:26:54.000Z</time>
      </trkpt>
      <trkpt lat="45.61835" lon="6.60552">
        <ele>2102.21</ele>
        <time>2019-10-14T09:26:59.000Z</time>
      </trkpt>
      <trkpt lat="45.6184" lon="6.60568">
        <ele>2102.72</ele>
        <time>2019-10-14T09:27:04.000Z</time>
      </trkpt>
      <trkpt lat="45.61841" lon="6.60582">
        <ele>2101.97</ele>
        <time>2019-10-14T09:27:10.000Z</time>
      </trkpt>
      <trkpt lat="45.61849" lon="6.60593">
        <ele>2098.74</ele>
        <time>2019-10-14T09:28:45.000Z</time>
      </trkpt>
      <trkpt lat="45.61857" lon="6.60605">
        <ele>2094.68</ele>
        <time>2019-10-14T09:28:50.000Z</time>
      </trkpt>
      <trkpt lat="45.61862" lon="6.60618">
        <ele>2092.11</ele>
        <time>2019-10-14T09:28:55.000Z</time>
      </trkpt>
      <trkpt lat="45.61864" lon="6.60635">
        <ele>2090.82</ele>
        <time>2019-10-14T09:29:00.000Z</time>
      </trkpt>
      <trkpt lat="45.61868" lon="6.60651">
        <ele>2090.73</ele>
        <time>2019-10-14T09:29:05.000Z</time>
      </trkpt>
      <trkpt lat="45.61875" lon="6.60662">
        <ele>2088.02</ele>
        <time>2019-10-14T09:29:10.000Z</time>
      </trkpt>
      <trkpt lat="45.61881" lon="6.60683">
        <ele>2087.44</ele>
        <time>2019-10-14T09:29:15.000Z</time>
      </trkpt>
      <trkpt lat="45.61887" lon="6.60703">
        <ele>2085.49</ele>
        <time>2019-10-14T09:29:20.000Z</time>
      </trkpt>
      <trkpt lat="45.61895" lon="6.60721">
        <ele>2086.04</ele>
        <time>2019-10-14T09:29:25.000Z</time>
      </trkpt>
      <trkpt lat="45.61893" lon="6.60736">
        <ele>2089.36</ele>
        <time>2019-10-14T09:29:30.000Z</time>
      </trkpt>
      <trkpt lat="45.61884" lon="6.6073">
        <ele>2090.1</ele>
        <time>2019-10-14T09:29:36.000Z</time>
      </trkpt>
      <trkpt lat="45.61876" lon="6.60713">
        <ele>2089.67</ele>
        <time>2019-10-14T09:29:41.000Z</time>
      </trkpt>
      <trkpt lat="45.61866" lon="6.60702">
        <ele>2090.98</ele>
        <time>2019-10-14T09:29:46.000Z</time>
      </trkpt>
      <trkpt lat="45.61854" lon="6.60692">
        <ele>2090.06</ele>
        <time>2019-10-14T09:29:51.000Z</time>
      </trkpt>
      <trkpt lat="45.61843" lon="6.60683">
        <ele>2088.89</ele>
        <time>2019-10-14T09:29:56.000Z</time>
      </trkpt>
      <trkpt lat="45.6183" lon="6.60686">
        <ele>2086</ele>
        <time>2019-10-14T09:30:01.000Z</time>
      </trkpt>
      <trkpt lat="45.61819" lon="6.60692">
        <ele>2083.12</ele>
        <time>2019-10-14T09:30:06.000Z</time>
      </trkpt>
      <trkpt lat="45.6181" lon="6.60707">
        <ele>2082.6</ele>
        <time>2019-10-14T09:30:11.000Z</time>
      </trkpt>
      <trkpt lat="45.61804" lon="6.60726">
        <ele>2080.02</ele>
        <time>2019-10-14T09:30:16.000Z</time>
      </trkpt>
      <trkpt lat="45.61796" lon="6.60742">
        <ele>2079.49</ele>
        <time>2019-10-14T09:30:21.000Z</time>
      </trkpt>
      <trkpt lat="45.61786" lon="6.60751">
        <ele>2078.71</ele>
        <time>2019-10-14T09:30:26.000Z</time>
      </trkpt>
      <trkpt lat="45.61773" lon="6.60762">
        <ele>2076.06</ele>
        <time>2019-10-14T09:30:31.000Z</time>
      </trkpt>
      <trkpt lat="45.61762" lon="6.60772">
        <ele>2076.63</ele>
        <time>2019-10-14T09:30:36.000Z</time>
      </trkpt>
      <trkpt lat="45.61751" lon="6.60784">
        <ele>2077.42</ele>
        <time>2019-10-14T09:30:41.000Z</time>
      </trkpt>
      <trkpt lat="45.6176" lon="6.60791">
        <ele>2071.24</ele>
        <time>2019-10-14T09:31:35.000Z</time>
      </trkpt>
      <trkpt lat="45.6177" lon="6.60787">
        <ele>2070.18</ele>
        <time>2019-10-14T09:31:40.000Z</time>
      </trkpt>
      <trkpt lat="45.61781" lon="6.60792">
        <ele>2069.71</ele>
        <time>2019-10-14T09:31:46.000Z</time>
      </trkpt>
      <trkpt lat="45.61789" lon="6.60805">
        <ele>2067.8</ele>
        <time>2019-10-14T09:31:51.000Z</time>
      </trkpt>
      <trkpt lat="45.61799" lon="6.60812">
        <ele>2066.16</ele>
        <time>2019-10-14T09:31:56.000Z</time>
      </trkpt>
      <trkpt lat="45.61813" lon="6.60811">
        <ele>2063.89</ele>
        <time>2019-10-14T09:32:01.000Z</time>
      </trkpt>
      <trkpt lat="45.61826" lon="6.60803">
        <ele>2058.81</ele>
        <time>2019-10-14T09:32:06.000Z</time>
      </trkpt>
      <trkpt lat="45.61836" lon="6.60801">
        <ele>2056.29</ele>
        <time>2019-10-14T09:32:11.000Z</time>
      </trkpt>
      <trkpt lat="45.61847" lon="6.60809">
        <ele>2057.25</ele>
        <time>2019-10-14T09:32:16.000Z</time>
      </trkpt>
      <trkpt lat="45.61857" lon="6.60821">
        <ele>2054.61</ele>
        <time>2019-10-14T09:32:21.000Z</time>
      </trkpt>
      <trkpt lat="45.61864" lon="6.60832">
        <ele>2054.26</ele>
        <time>2019-10-14T09:32:26.000Z</time>
      </trkpt>
      <trkpt lat="45.61867" lon="6.60844">
        <ele>2051.28</ele>
        <time>2019-10-14T09:32:31.000Z</time>
      </trkpt>
      <trkpt lat="45.61868" lon="6.60862">
        <ele>2049.68</ele>
        <time>2019-10-14T09:32:36.000Z</time>
      </trkpt>
      <trkpt lat="45.61869" lon="6.6088">
        <ele>2047.09</ele>
        <time>2019-10-14T09:32:41.000Z</time>
      </trkpt>
      <trkpt lat="45.61872" lon="6.60898">
        <ele>2045.27</ele>
        <time>2019-10-14T09:32:46.000Z</time>
      </trkpt>
      <trkpt lat="45.61876" lon="6.60914">
        <ele>2043.99</ele>
        <time>2019-10-14T09:32:51.000Z</time>
      </trkpt>
      <trkpt lat="45.61882" lon="6.6093">
        <ele>2042.4</ele>
        <time>2019-10-14T09:32:56.000Z</time>
      </trkpt>
      <trkpt lat="45.61885" lon="6.60948">
        <ele>2041.55</ele>
        <time>2019-10-14T09:33:01.000Z</time>
      </trkpt>
      <trkpt lat="45.61887" lon="6.60962">
        <ele>2042.07</ele>
        <time>2019-10-14T09:33:06.000Z</time>
      </trkpt>
      <trkpt lat="45.61894" lon="6.60979">
        <ele>2043.91</ele>
        <time>2019-10-14T09:33:11.000Z</time>
      </trkpt>
      <trkpt lat="45.61904" lon="6.60994">
        <ele>2042.78</ele>
        <time>2019-10-14T09:33:16.000Z</time>
      </trkpt>
      <trkpt lat="45.61915" lon="6.61008">
        <ele>2044.89</ele>
        <time>2019-10-14T09:33:21.000Z</time>
      </trkpt>
      <trkpt lat="45.61926" lon="6.61018">
        <ele>2042.86</ele>
        <time>2019-10-14T09:33:26.000Z</time>
      </trkpt>
      <trkpt lat="45.61933" lon="6.6103">
        <ele>2038.49</ele>
        <time>2019-10-14T09:33:31.000Z</time>
      </trkpt>
      <trkpt lat="45.61941" lon="6.61045">
        <ele>2037.35</ele>
        <time>2019-10-14T09:33:36.000Z</time>
      </trkpt>
      <trkpt lat="45.61945" lon="6.61065">
        <ele>2036.28</ele>
        <time>2019-10-14T09:33:41.000Z</time>
      </trkpt>
      <trkpt lat="45.6195" lon="6.61086">
        <ele>2032.34</ele>
        <time>2019-10-14T09:33:46.000Z</time>
      </trkpt>
      <trkpt lat="45.61957" lon="6.61108">
        <ele>2032.39</ele>
        <time>2019-10-14T09:33:51.000Z</time>
      </trkpt>
      <trkpt lat="45.61963" lon="6.61128">
        <ele>2029.89</ele>
        <time>2019-10-14T09:33:56.000Z</time>
      </trkpt>
      <trkpt lat="45.61967" lon="6.61139">
        <ele>2028.97</ele>
        <time>2019-10-14T09:35:04.000Z</time>
      </trkpt>
      <trkpt lat="45.61975" lon="6.61152">
        <ele>2025.54</ele>
        <time>2019-10-14T09:35:09.000Z</time>
      </trkpt>
      <trkpt lat="45.61985" lon="6.61168">
        <ele>2026.25</ele>
        <time>2019-10-14T09:35:14.000Z</time>
      </trkpt>
      <trkpt lat="45.61993" lon="6.61186">
        <ele>2025.66</ele>
        <time>2019-10-14T09:35:19.000Z</time>
      </trkpt>
      <trkpt lat="45.62001" lon="6.61202">
        <ele>2023.92</ele>
        <time>2019-10-14T09:35:24.000Z</time>
      </trkpt>
      <trkpt lat="45.62007" lon="6.6122">
        <ele>2023.84</ele>
        <time>2019-10-14T09:35:29.000Z</time>
      </trkpt>
      <trkpt lat="45.62014" lon="6.6124">
        <ele>2021.72</ele>
        <time>2019-10-14T09:35:34.000Z</time>
      </trkpt>
      <trkpt lat="45.6202" lon="6.6126">
        <ele>2013.78</ele>
        <time>2019-10-14T09:35:39.000Z</time>
      </trkpt>
      <trkpt lat="45.62027" lon="6.61277">
        <ele>2014.15</ele>
        <time>2019-10-14T09:35:44.000Z</time>
      </trkpt>
      <trkpt lat="45.62033" lon="6.61291">
        <ele>2013.37</ele>
        <time>2019-10-14T09:35:49.000Z</time>
      </trkpt>
      <trkpt lat="45.6204" lon="6.61313">
        <ele>2013.87</ele>
        <time>2019-10-14T09:35:54.000Z</time>
      </trkpt>
      <trkpt lat="45.62045" lon="6.61337">
        <ele>2011.11</ele>
        <time>2019-10-14T09:35:59.000Z</time>
      </trkpt>
      <trkpt lat="45.62046" lon="6.61356">
        <ele>2010.75</ele>
        <time>2019-10-14T09:36:04.000Z</time>
      </trkpt>
      <trkpt lat="45.62048" lon="6.61376">
        <ele>2006.88</ele>
        <time>2019-10-14T09:36:09.000Z</time>
      </trkpt>
      <trkpt lat="45.62058" lon="6.61396">
        <ele>2001.86</ele>
        <time>2019-10-14T09:36:14.000Z</time>
      </trkpt>
      <trkpt lat="45.62065" lon="6.61415">
        <ele>2002.03</ele>
        <time>2019-10-14T09:36:19.000Z</time>
      </trkpt>
      <trkpt lat="45.6207" lon="6.61436">
        <ele>2000.89</ele>
        <time>2019-10-14T09:36:24.000Z</time>
      </trkpt>
      <trkpt lat="45.62073" lon="6.61456">
        <ele>1997.01</ele>
        <time>2019-10-14T09:36:29.000Z</time>
      </trkpt>
      <trkpt lat="45.62078" lon="6.61468">
        <ele>1987.21</ele>
        <time>2019-10-14T09:36:34.000Z</time>
      </trkpt>
      <trkpt lat="45.62083" lon="6.61484">
        <ele>1984.98</ele>
        <time>2019-10-14T09:36:39.000Z</time>
      </trkpt>
      <trkpt lat="45.62083" lon="6.61502">
        <ele>1986.02</ele>
        <time>2019-10-14T09:36:44.000Z</time>
      </trkpt>
      <trkpt lat="45.62079" lon="6.61519">
        <ele>1988.75</ele>
        <time>2019-10-14T09:36:49.000Z</time>
      </trkpt>
      <trkpt lat="45.62073" lon="6.61536">
        <ele>1989.21</ele>
        <time>2019-10-14T09:36:54.000Z</time>
      </trkpt>
      <trkpt lat="45.62066" lon="6.61551">
        <ele>1989.2</ele>
        <time>2019-10-14T09:36:59.000Z</time>
      </trkpt>
      <trkpt lat="45.6206" lon="6.61565">
        <ele>1987.54</ele>
        <time>2019-10-14T09:37:04.000Z</time>
      </trkpt>
      <trkpt lat="45.62051" lon="6.61584">
        <ele>1991.77</ele>
        <time>2019-10-14T09:37:09.000Z</time>
      </trkpt>
      <trkpt lat="45.62046" lon="6.61605">
        <ele>1990.81</ele>
        <time>2019-10-14T09:37:14.000Z</time>
      </trkpt>
      <trkpt lat="45.62043" lon="6.61632">
        <ele>1989.41</ele>
        <time>2019-10-14T09:37:19.000Z</time>
      </trkpt>
      <trkpt lat="45.62037" lon="6.61653">
        <ele>1986.58</ele>
        <time>2019-10-14T09:37:24.000Z</time>
      </trkpt>
      <trkpt lat="45.6203" lon="6.61675">
        <ele>1981.53</ele>
        <time>2019-10-14T09:37:29.000Z</time>
      </trkpt>
      <trkpt lat="45.62019" lon="6.61692">
        <ele>1980.85</ele>
        <time>2019-10-14T09:37:34.000Z</time>
      </trkpt>
      <trkpt lat="45.62005" lon="6.61704">
        <ele>1979.29</ele>
        <time>2019-10-14T09:37:39.000Z</time>
      </trkpt>
      <trkpt lat="45.6199" lon="6.61716">
        <ele>1976.13</ele>
        <time>2019-10-14T09:37:44.000Z</time>
      </trkpt>
      <trkpt lat="45.61978" lon="6.61729">
        <ele>1972.53</ele>
        <time>2019-10-14T09:37:49.000Z</time>
      </trkpt>
      <trkpt lat="45.61967" lon="6.61742">
        <ele>1969.5</ele>
        <time>2019-10-14T09:37:54.000Z</time>
      </trkpt>
      <trkpt lat="45.61956" lon="6.61756">
        <ele>1969.44</ele>
        <time>2019-10-14T09:37:59.000Z</time>
      </trkpt>
      <trkpt lat="45.61943" lon="6.61765">
        <ele>1971.5</ele>
        <time>2019-10-14T09:38:04.000Z</time>
      </trkpt>
      <trkpt lat="45.61931" lon="6.61777">
        <ele>1971.35</ele>
        <time>2019-10-14T09:38:09.000Z</time>
      </trkpt>
      <trkpt lat="45.61922" lon="6.61788">
        <ele>1969.06</ele>
        <time>2019-10-14T09:38:14.000Z</time>
      </trkpt>
      <trkpt lat="45.61909" lon="6.61794">
        <ele>1967.29</ele>
        <time>2019-10-14T09:38:19.000Z</time>
      </trkpt>
      <trkpt lat="45.61897" lon="6.61801">
        <ele>1967.58</ele>
        <time>2019-10-14T09:38:24.000Z</time>
      </trkpt>
      <trkpt lat="45.61887" lon="6.61808">
        <ele>1965.81</ele>
        <time>2019-10-14T09:38:29.000Z</time>
      </trkpt>
      <trkpt lat="45.61877" lon="6.61822">
        <ele>1965.03</ele>
        <time>2019-10-14T09:38:34.000Z</time>
      </trkpt>
      <trkpt lat="45.61866" lon="6.61835">
        <ele>1956.96</ele>
        <time>2019-10-14T09:38:39.000Z</time>
      </trkpt>
      <trkpt lat="45.61858" lon="6.61828">
        <ele>1966.35</ele>
        <time>2019-10-14T09:38:47.000Z</time>
      </trkpt>
      <trkpt lat="45.61848" lon="6.61829">
        <ele>1968.09</ele>
        <time>2019-10-14T09:38:58.000Z</time>
      </trkpt>
      <trkpt lat="45.6184" lon="6.61835">
        <ele>1966.44</ele>
        <time>2019-10-14T09:40:06.000Z</time>
      </trkpt>
      <trkpt lat="45.6183" lon="6.61834">
        <ele>1965.78</ele>
        <time>2019-10-14T09:40:13.000Z</time>
      </trkpt>
      <trkpt lat="45.6182" lon="6.61844">
        <ele>1960.38</ele>
        <time>2019-10-14T09:40:18.000Z</time>
      </trkpt>
      <trkpt lat="45.6181" lon="6.61861">
        <ele>1958.07</ele>
        <time>2019-10-14T09:40:23.000Z</time>
      </trkpt>
      <trkpt lat="45.61802" lon="6.61869">
        <ele>1957.89</ele>
        <time>2019-10-14T09:40:28.000Z</time>
      </trkpt>
      <trkpt lat="45.61794" lon="6.61859">
        <ele>1954.82</ele>
        <time>2019-10-14T09:40:33.000Z</time>
      </trkpt>
      <trkpt lat="45.61792" lon="6.61836">
        <ele>1953.28</ele>
        <time>2019-10-14T09:40:38.000Z</time>
      </trkpt>
      <trkpt lat="45.61789" lon="6.61813">
        <ele>1953.85</ele>
        <time>2019-10-14T09:40:43.000Z</time>
      </trkpt>
      <trkpt lat="45.61789" lon="6.6179">
        <ele>1950.04</ele>
        <time>2019-10-14T09:40:48.000Z</time>
      </trkpt>
      <trkpt lat="45.61786" lon="6.61772">
        <ele>1947.98</ele>
        <time>2019-10-14T09:40:53.000Z</time>
      </trkpt>
      <trkpt lat="45.61771" lon="6.61775">
        <ele>1948.77</ele>
        <time>2019-10-14T09:40:58.000Z</time>
      </trkpt>
      <trkpt lat="45.61757" lon="6.61787">
        <ele>1945.89</ele>
        <time>2019-10-14T09:41:03.000Z</time>
      </trkpt>
      <trkpt lat="45.61742" lon="6.61802">
        <ele>1945.75</ele>
        <time>2019-10-14T09:41:08.000Z</time>
      </trkpt>
      <trkpt lat="45.61729" lon="6.61814">
        <ele>1944.34</ele>
        <time>2019-10-14T09:41:13.000Z</time>
      </trkpt>
      <trkpt lat="45.61719" lon="6.61822">
        <ele>1941.31</ele>
        <time>2019-10-14T09:41:18.000Z</time>
      </trkpt>
      <trkpt lat="45.61711" lon="6.6183">
        <ele>1931.66</ele>
        <time>2019-10-14T09:41:47.000Z</time>
      </trkpt>
      <trkpt lat="45.61699" lon="6.61841">
        <ele>1932.93</ele>
        <time>2019-10-14T09:41:52.000Z</time>
      </trkpt>
      <trkpt lat="45.61691" lon="6.61855">
        <ele>1930.57</ele>
        <time>2019-10-14T09:41:57.000Z</time>
      </trkpt>
      <trkpt lat="45.61685" lon="6.6187">
        <ele>1928.19</ele>
        <time>2019-10-14T09:42:02.000Z</time>
      </trkpt>
      <trkpt lat="45.61676" lon="6.6189">
        <ele>1929.17</ele>
        <time>2019-10-14T09:42:07.000Z</time>
      </trkpt>
      <trkpt lat="45.61664" lon="6.61917">
        <ele>1929.93</ele>
        <time>2019-10-14T09:42:12.000Z</time>
      </trkpt>
      <trkpt lat="45.6165" lon="6.61941">
        <ele>1930.69</ele>
        <time>2019-10-14T09:42:17.000Z</time>
      </trkpt>
      <trkpt lat="45.61637" lon="6.61966">
        <ele>1928.5</ele>
        <time>2019-10-14T09:42:22.000Z</time>
      </trkpt>
      <trkpt lat="45.61623" lon="6.61994">
        <ele>1931.31</ele>
        <time>2019-10-14T09:42:27.000Z</time>
      </trkpt>
      <trkpt lat="45.61604" lon="6.62011">
        <ele>1929.3</ele>
        <time>2019-10-14T09:42:32.000Z</time>
      </trkpt>
      <trkpt lat="45.61584" lon="6.62031">
        <ele>1929.15</ele>
        <time>2019-10-14T09:42:37.000Z</time>
      </trkpt>
      <trkpt lat="45.61563" lon="6.62054">
        <ele>1927.14</ele>
        <time>2019-10-14T09:42:42.000Z</time>
      </trkpt>
      <trkpt lat="45.61546" lon="6.62074">
        <ele>1926.1</ele>
        <time>2019-10-14T09:42:47.000Z</time>
      </trkpt>
      <trkpt lat="45.61531" lon="6.62092">
        <ele>1925.98</ele>
        <time>2019-10-14T09:42:52.000Z</time>
      </trkpt>
      <trkpt lat="45.61518" lon="6.62113">
        <ele>1922.79</ele>
        <time>2019-10-14T09:42:57.000Z</time>
      </trkpt>
      <trkpt lat="45.61513" lon="6.6215">
        <ele>1925.61</ele>
        <time>2019-10-14T09:43:02.000Z</time>
      </trkpt>
      <trkpt lat="45.61497" lon="6.62157">
        <ele>1924.22</ele>
        <time>2019-10-14T09:43:07.000Z</time>
      </trkpt>
      <trkpt lat="45.61486" lon="6.62131">
        <ele>1919.3</ele>
        <time>2019-10-14T09:43:12.000Z</time>
      </trkpt>
      <trkpt lat="45.61481" lon="6.621">
        <ele>1914.62</ele>
        <time>2019-10-14T09:43:17.000Z</time>
      </trkpt>
      <trkpt lat="45.61464" lon="6.62077">
        <ele>1913.3</ele>
        <time>2019-10-14T09:43:22.000Z</time>
      </trkpt>
      <trkpt lat="45.6145" lon="6.62107">
        <ele>1908.44</ele>
        <time>2019-10-14T09:43:27.000Z</time>
      </trkpt>
      <trkpt lat="45.61448" lon="6.62144">
        <ele>1908.91</ele>
        <time>2019-10-14T09:43:32.000Z</time>
      </trkpt>
      <trkpt lat="45.61448" lon="6.62187">
        <ele>1906.92</ele>
        <time>2019-10-14T09:43:37.000Z</time>
      </trkpt>
      <trkpt lat="45.6142" lon="6.62211">
        <ele>1902.59</ele>
        <time>2019-10-14T09:43:42.000Z</time>
      </trkpt>
      <trkpt lat="45.61383" lon="6.62229">
        <ele>1897.03</ele>
        <time>2019-10-14T09:43:47.000Z</time>
      </trkpt>
      <trkpt lat="45.61347" lon="6.62246">
        <ele>1897.52</ele>
        <time>2019-10-14T09:43:52.000Z</time>
      </trkpt>
      <trkpt lat="45.61336" lon="6.6227">
        <ele>1892.96</ele>
        <time>2019-10-14T09:43:57.000Z</time>
      </trkpt>
      <trkpt lat="45.61338" lon="6.62309">
        <ele>1890.24</ele>
        <time>2019-10-14T09:44:02.000Z</time>
      </trkpt>
      <trkpt lat="45.61326" lon="6.62346">
        <ele>1888.95</ele>
        <time>2019-10-14T09:44:07.000Z</time>
      </trkpt>
      <trkpt lat="45.61311" lon="6.62388">
        <ele>1887.01</ele>
        <time>2019-10-14T09:44:12.000Z</time>
      </trkpt>
      <trkpt lat="45.61307" lon="6.62439">
        <ele>1884.14</ele>
        <time>2019-10-14T09:44:17.000Z</time>
      </trkpt>
      <trkpt lat="45.61269" lon="6.62452">
        <ele>1883.64</ele>
        <time>2019-10-14T09:44:22.000Z</time>
      </trkpt>
      <trkpt lat="45.61235" lon="6.6247">
        <ele>1879.8</ele>
        <time>2019-10-14T09:44:27.000Z</time>
      </trkpt>
      <trkpt lat="45.61205" lon="6.62514">
        <ele>1872.29</ele>
        <time>2019-10-14T09:44:32.000Z</time>
      </trkpt>
      <trkpt lat="45.61168" lon="6.62545">
        <ele>1870.09</ele>
        <time>2019-10-14T09:44:37.000Z</time>
      </trkpt>
      <trkpt lat="45.61141" lon="6.62567">
        <ele>1865.15</ele>
        <time>2019-10-14T09:44:42.000Z</time>
      </trkpt>
      <trkpt lat="45.61125" lon="6.62556">
        <ele>1862.19</ele>
        <time>2019-10-14T09:44:47.000Z</time>
      </trkpt>
      <trkpt lat="45.61147" lon="6.62531">
        <ele>1858.78</ele>
        <time>2019-10-14T09:44:52.000Z</time>
      </trkpt>
      <trkpt lat="45.61173" lon="6.62502">
        <ele>1857.56</ele>
        <time>2019-10-14T09:44:57.000Z</time>
      </trkpt>
      <trkpt lat="45.6119" lon="6.62458">
        <ele>1854.17</ele>
        <time>2019-10-14T09:45:02.000Z</time>
      </trkpt>
      <trkpt lat="45.61195" lon="6.62428">
        <ele>1853.92</ele>
        <time>2019-10-14T09:45:07.000Z</time>
      </trkpt>
      <trkpt lat="45.61218" lon="6.62405">
        <ele>1848.64</ele>
        <time>2019-10-14T09:45:12.000Z</time>
      </trkpt>
      <trkpt lat="45.61194" lon="6.62397">
        <ele>1847.96</ele>
        <time>2019-10-14T09:45:17.000Z</time>
      </trkpt>
      <trkpt lat="45.61176" lon="6.62446">
        <ele>1846.88</ele>
        <time>2019-10-14T09:45:22.000Z</time>
      </trkpt>
      <trkpt lat="45.61151" lon="6.62478">
        <ele>1842.88</ele>
        <time>2019-10-14T09:45:27.000Z</time>
      </trkpt>
      <trkpt lat="45.61115" lon="6.62504">
        <ele>1837.54</ele>
        <time>2019-10-14T09:45:32.000Z</time>
      </trkpt>
      <trkpt lat="45.61081" lon="6.62529">
        <ele>1830.33</ele>
        <time>2019-10-14T09:45:37.000Z</time>
      </trkpt>
      <trkpt lat="45.61044" lon="6.62552">
        <ele>1826.77</ele>
        <time>2019-10-14T09:45:42.000Z</time>
      </trkpt>
      <trkpt lat="45.61012" lon="6.6258">
        <ele>1825.49</ele>
        <time>2019-10-14T09:45:47.000Z</time>
      </trkpt>
      <trkpt lat="45.60987" lon="6.62617">
        <ele>1822.26</ele>
        <time>2019-10-14T09:45:52.000Z</time>
      </trkpt>
      <trkpt lat="45.60961" lon="6.62639">
        <ele>1819.36</ele>
        <time>2019-10-14T09:45:57.000Z</time>
      </trkpt>
      <trkpt lat="45.6096" lon="6.6261">
        <ele>1817.29</ele>
        <time>2019-10-14T09:46:02.000Z</time>
      </trkpt>
      <trkpt lat="45.60963" lon="6.62597">
        <ele>1822.03</ele>
        <time>2019-10-14T09:47:30.000Z</time>
      </trkpt>
      <trkpt lat="45.60976" lon="6.62566">
        <ele>1820.14</ele>
        <time>2019-10-14T09:47:35.000Z</time>
      </trkpt>
      <trkpt lat="45.60993" lon="6.62529">
        <ele>1818.42</ele>
        <time>2019-10-14T09:47:40.000Z</time>
      </trkpt>
      <trkpt lat="45.61018" lon="6.62491">
        <ele>1815.15</ele>
        <time>2019-10-14T09:47:45.000Z</time>
      </trkpt>
      <trkpt lat="45.61037" lon="6.62467">
        <ele>1810.54</ele>
        <time>2019-10-14T09:47:50.000Z</time>
      </trkpt>
      <trkpt lat="45.61063" lon="6.62444">
        <ele>1811.43</ele>
        <time>2019-10-14T09:47:55.000Z</time>
      </trkpt>
      <trkpt lat="45.61066" lon="6.62416">
        <ele>1807.65</ele>
        <time>2019-10-14T09:48:00.000Z</time>
      </trkpt>
      <trkpt lat="45.61049" lon="6.62425">
        <ele>1804.93</ele>
        <time>2019-10-14T09:48:05.000Z</time>
      </trkpt>
      <trkpt lat="45.61025" lon="6.62444">
        <ele>1802.23</ele>
        <time>2019-10-14T09:48:10.000Z</time>
      </trkpt>
      <trkpt lat="45.60991" lon="6.62461">
        <ele>1802.28</ele>
        <time>2019-10-14T09:48:15.000Z</time>
      </trkpt>
      <trkpt lat="45.60965" lon="6.62477">
        <ele>1796.77</ele>
        <time>2019-10-14T09:48:20.000Z</time>
      </trkpt>
      <trkpt lat="45.60953" lon="6.62477">
        <ele>1797.42</ele>
        <time>2019-10-14T09:48:25.000Z</time>
      </trkpt>
      <trkpt lat="45.60975" lon="6.62448">
        <ele>1795.35</ele>
        <time>2019-10-14T09:48:30.000Z</time>
      </trkpt>
      <trkpt lat="45.61007" lon="6.6241">
        <ele>1787.36</ele>
        <time>2019-10-14T09:48:35.000Z</time>
      </trkpt>
      <trkpt lat="45.61019" lon="6.62368">
        <ele>1782.65</ele>
        <time>2019-10-14T09:48:40.000Z</time>
      </trkpt>
      <trkpt lat="45.60998" lon="6.62342">
        <ele>1785.36</ele>
        <time>2019-10-14T09:48:45.000Z</time>
      </trkpt>
      <trkpt lat="45.60976" lon="6.62344">
        <ele>1780.07</ele>
        <time>2019-10-14T09:48:50.000Z</time>
      </trkpt>
      <trkpt lat="45.60941" lon="6.62357">
        <ele>1779.79</ele>
        <time>2019-10-14T09:48:55.000Z</time>
      </trkpt>
      <trkpt lat="45.60911" lon="6.6239">
        <ele>1776.66</ele>
        <time>2019-10-14T09:49:00.000Z</time>
      </trkpt>
      <trkpt lat="45.60888" lon="6.62415">
        <ele>1771.17</ele>
        <time>2019-10-14T09:49:05.000Z</time>
      </trkpt>
      <trkpt lat="45.60866" lon="6.62438">
        <ele>1767.17</ele>
        <time>2019-10-14T09:49:10.000Z</time>
      </trkpt>
      <trkpt lat="45.60841" lon="6.62471">
        <ele>1765.15</ele>
        <time>2019-10-14T09:49:15.000Z</time>
      </trkpt>
      <trkpt lat="45.60813" lon="6.62498">
        <ele>1761.16</ele>
        <time>2019-10-14T09:49:20.000Z</time>
      </trkpt>
      <trkpt lat="45.60784" lon="6.62533">
        <ele>1762.61</ele>
        <time>2019-10-14T09:49:25.000Z</time>
      </trkpt>
      <trkpt lat="45.60772" lon="6.62548">
        <ele>1759.77</ele>
        <time>2019-10-14T09:49:30.000Z</time>
      </trkpt>
      <trkpt lat="45.60771" lon="6.62564">
        <ele>1753.71</ele>
        <time>2019-10-14T09:50:43.000Z</time>
      </trkpt>
      <trkpt lat="45.60742" lon="6.6259">
        <ele>1746.4</ele>
        <time>2019-10-14T09:50:48.000Z</time>
      </trkpt>
      <trkpt lat="45.60714" lon="6.62619">
        <ele>1747.87</ele>
        <time>2019-10-14T09:50:53.000Z</time>
      </trkpt>
      <trkpt lat="45.60686" lon="6.6265">
        <ele>1737.49</ele>
        <time>2019-10-14T09:50:58.000Z</time>
      </trkpt>
      <trkpt lat="45.60657" lon="6.62677">
        <ele>1731.39</ele>
        <time>2019-10-14T09:51:03.000Z</time>
      </trkpt>
      <trkpt lat="45.60633" lon="6.62716">
        <ele>1718.81</ele>
        <time>2019-10-14T09:51:08.000Z</time>
      </trkpt>
      <trkpt lat="45.60611" lon="6.62756">
        <ele>1716.85</ele>
        <time>2019-10-14T09:51:13.000Z</time>
      </trkpt>
      <trkpt lat="45.60575" lon="6.62777">
        <ele>1713.56</ele>
        <time>2019-10-14T09:51:18.000Z</time>
      </trkpt>
      <trkpt lat="45.6055" lon="6.62811">
        <ele>1704.97</ele>
        <time>2019-10-14T09:51:23.000Z</time>
      </trkpt>
      <trkpt lat="45.60562" lon="6.6283">
        <ele>1704.65</ele>
        <time>2019-10-14T09:51:28.000Z</time>
      </trkpt>
      <trkpt lat="45.60605" lon="6.62822">
        <ele>1707.07</ele>
        <time>2019-10-14T09:51:33.000Z</time>
      </trkpt>
      <trkpt lat="45.60632" lon="6.62837">
        <ele>1704.4</ele>
        <time>2019-10-14T09:51:38.000Z</time>
      </trkpt>
      <trkpt lat="45.60604" lon="6.62849">
        <ele>1698.47</ele>
        <time>2019-10-14T09:51:43.000Z</time>
      </trkpt>
      <trkpt lat="45.60573" lon="6.62868">
        <ele>1694.69</ele>
        <time>2019-10-14T09:51:48.000Z</time>
      </trkpt>
      <trkpt lat="45.60544" lon="6.62909">
        <ele>1689.85</ele>
        <time>2019-10-14T09:51:53.000Z</time>
      </trkpt>
      <trkpt lat="45.60521" lon="6.62944">
        <ele>1685.93</ele>
        <time>2019-10-14T09:51:58.000Z</time>
      </trkpt>
      <trkpt lat="45.60524" lon="6.62958">
        <ele>1685.46</ele>
        <time>2019-10-14T09:52:03.000Z</time>
      </trkpt>
      <trkpt lat="45.60514" lon="6.62962">
        <ele>1685.37</ele>
        <time>2019-10-14T09:53:24.000Z</time>
      </trkpt>
      <trkpt lat="45.60496" lon="6.62987">
        <ele>1679.71</ele>
        <time>2019-10-14T09:53:29.000Z</time>
      </trkpt>
      <trkpt lat="45.60482" lon="6.63001">
        <ele>1674.7</ele>
        <time>2019-10-14T09:53:34.000Z</time>
      </trkpt>
      <trkpt lat="45.60464" lon="6.63026">
        <ele>1672.96</ele>
        <time>2019-10-14T09:53:39.000Z</time>
      </trkpt>
      <trkpt lat="45.60443" lon="6.63063">
        <ele>1672.89</ele>
        <time>2019-10-14T09:53:44.000Z</time>
      </trkpt>
      <trkpt lat="45.60421" lon="6.63098">
        <ele>1666.65</ele>
        <time>2019-10-14T09:53:49.000Z</time>
      </trkpt>
      <trkpt lat="45.60388" lon="6.63137">
        <ele>1661.36</ele>
        <time>2019-10-14T09:53:54.000Z</time>
      </trkpt>
      <trkpt lat="45.6035" lon="6.63176">
        <ele>1660.02</ele>
        <time>2019-10-14T09:53:59.000Z</time>
      </trkpt>
      <trkpt lat="45.60318" lon="6.6322">
        <ele>1656.17</ele>
        <time>2019-10-14T09:54:04.000Z</time>
      </trkpt>
      <trkpt lat="45.60304" lon="6.63269">
        <ele>1654.15</ele>
        <time>2019-10-14T09:54:09.000Z</time>
      </trkpt>
      <trkpt lat="45.60314" lon="6.63308">
        <ele>1650.9</ele>
        <time>2019-10-14T09:54:14.000Z</time>
      </trkpt>
      <trkpt lat="45.60331" lon="6.63341">
        <ele>1650.44</ele>
        <time>2019-10-14T09:54:19.000Z</time>
      </trkpt>
      <trkpt lat="45.60328" lon="6.63375">
        <ele>1649.41</ele>
        <time>2019-10-14T09:54:24.000Z</time>
      </trkpt>
      <trkpt lat="45.6031" lon="6.63404">
        <ele>1646.06</ele>
        <time>2019-10-14T09:54:29.000Z</time>
      </trkpt>
      <trkpt lat="45.60292" lon="6.63433">
        <ele>1646.3</ele>
        <time>2019-10-14T09:54:34.000Z</time>
      </trkpt>
      <trkpt lat="45.60289" lon="6.63466">
        <ele>1650.27</ele>
        <time>2019-10-14T09:54:39.000Z</time>
      </trkpt>
      <trkpt lat="45.60283" lon="6.63513">
        <ele>1645.96</ele>
        <time>2019-10-14T09:54:44.000Z</time>
      </trkpt>
      <trkpt lat="45.60274" lon="6.63559">
        <ele>1641.52</ele>
        <time>2019-10-14T09:54:49.000Z</time>
      </trkpt>
      <trkpt lat="45.60279" lon="6.63592">
        <ele>1640.21</ele>
        <time>2019-10-14T09:54:54.000Z</time>
      </trkpt>
      <trkpt lat="45.6029" lon="6.63618">
        <ele>1640.96</ele>
        <time>2019-10-14T09:54:59.000Z</time>
      </trkpt>
      <trkpt lat="45.60277" lon="6.6365">
        <ele>1635.98</ele>
        <time>2019-10-14T09:55:04.000Z</time>
      </trkpt>
      <trkpt lat="45.60258" lon="6.63682">
        <ele>1631.31</ele>
        <time>2019-10-14T09:55:09.000Z</time>
      </trkpt>
      <trkpt lat="45.60243" lon="6.63698">
        <ele>1628.65</ele>
        <time>2019-10-14T09:55:14.000Z</time>
      </trkpt>
      <trkpt lat="45.60238" lon="6.63709">
        <ele>1628.17</ele>
        <time>2019-10-14T09:56:40.000Z</time>
      </trkpt>
      <trkpt lat="45.60222" lon="6.63735">
        <ele>1624.78</ele>
        <time>2019-10-14T09:56:45.000Z</time>
      </trkpt>
      <trkpt lat="45.60197" lon="6.6372">
        <ele>1618.96</ele>
        <time>2019-10-14T09:56:50.000Z</time>
      </trkpt>
      <trkpt lat="45.60177" lon="6.6371">
        <ele>1614.34</ele>
        <time>2019-10-14T09:56:55.000Z</time>
      </trkpt>
      <trkpt lat="45.60164" lon="6.63749">
        <ele>1610.94</ele>
        <time>2019-10-14T09:57:00.000Z</time>
      </trkpt>
      <trkpt lat="45.60146" lon="6.63803">
        <ele>1605.37</ele>
        <time>2019-10-14T09:57:05.000Z</time>
      </trkpt>
      <trkpt lat="45.60114" lon="6.63859">
        <ele>1602.03</ele>
        <time>2019-10-14T09:57:10.000Z</time>
      </trkpt>
      <trkpt lat="45.60086" lon="6.63895">
        <ele>1588.47</ele>
        <time>2019-10-14T09:57:15.000Z</time>
      </trkpt>
      <trkpt lat="45.60077" lon="6.63954">
        <ele>1584.29</ele>
        <time>2019-10-14T09:57:20.000Z</time>
      </trkpt>
      <trkpt lat="45.60061" lon="6.63999">
        <ele>1582.61</ele>
        <time>2019-10-14T09:57:25.000Z</time>
      </trkpt>
      <trkpt lat="45.60015" lon="6.64031">
        <ele>1579.16</ele>
        <time>2019-10-14T09:57:30.000Z</time>
      </trkpt>
      <trkpt lat="45.59973" lon="6.64066">
        <ele>1575.67</ele>
        <time>2019-10-14T09:57:35.000Z</time>
      </trkpt>
      <trkpt lat="45.59934" lon="6.64111">
        <ele>1574.32</ele>
        <time>2019-10-14T09:57:40.000Z</time>
      </trkpt>
      <trkpt lat="45.59907" lon="6.6416">
        <ele>1570.95</ele>
        <time>2019-10-14T09:57:45.000Z</time>
      </trkpt>
      <trkpt lat="45.59881" lon="6.64208">
        <ele>1570.33</ele>
        <time>2019-10-14T09:57:50.000Z</time>
      </trkpt>
      <trkpt lat="45.59855" lon="6.64264">
        <ele>1571.36</ele>
        <time>2019-10-14T09:57:55.000Z</time>
      </trkpt>
      <trkpt lat="45.59818" lon="6.64298">
        <ele>1569.86</ele>
        <time>2019-10-14T09:58:00.000Z</time>
      </trkpt>
      <trkpt lat="45.59783" lon="6.64326">
        <ele>1563.58</ele>
        <time>2019-10-14T09:58:05.000Z</time>
      </trkpt>
      <trkpt lat="45.59743" lon="6.6435">
        <ele>1556.79</ele>
        <time>2019-10-14T09:58:10.000Z</time>
      </trkpt>
      <trkpt lat="45.59717" lon="6.64384">
        <ele>1551.23</ele>
        <time>2019-10-14T09:58:15.000Z</time>
      </trkpt>
      <trkpt lat="45.59683" lon="6.64403">
        <ele>1553.59</ele>
        <time>2019-10-14T09:58:20.000Z</time>
      </trkpt>
      <trkpt lat="45.59647" lon="6.64446">
        <ele>1545.64</ele>
        <time>2019-10-14T09:58:25.000Z</time>
      </trkpt>
      <trkpt lat="45.59623" lon="6.64497">
        <ele>1542.35</ele>
        <time>2019-10-14T09:58:30.000Z</time>
      </trkpt>
      <trkpt lat="45.59616" lon="6.64554">
        <ele>1535.49</ele>
        <time>2019-10-14T09:58:35.000Z</time>
      </trkpt>
      <trkpt lat="45.59597" lon="6.64561">
        <ele>1531.5</ele>
        <time>2019-10-14T09:58:40.000Z</time>
      </trkpt>
      <trkpt lat="45.59594" lon="6.64494">
        <ele>1527.59</ele>
        <time>2019-10-14T09:58:45.000Z</time>
      </trkpt>
      <trkpt lat="45.59589" lon="6.64452">
        <ele>1525.46</ele>
        <time>2019-10-14T09:58:50.000Z</time>
      </trkpt>
      <trkpt lat="45.59577" lon="6.6448">
        <ele>1519.32</ele>
        <time>2019-10-14T09:58:55.000Z</time>
      </trkpt>
      <trkpt lat="45.59568" lon="6.64499">
        <ele>1517.59</ele>
        <time>2019-10-14T09:59:26.000Z</time>
      </trkpt>
      <trkpt lat="45.59553" lon="6.64547">
        <ele>1514.52</ele>
        <time>2019-10-14T09:59:31.000Z</time>
      </trkpt>
      <trkpt lat="45.59551" lon="6.64519">
        <ele>1509.39</ele>
        <time>2019-10-14T09:59:36.000Z</time>
      </trkpt>
      <trkpt lat="45.59537" lon="6.64488">
        <ele>1509.73</ele>
        <time>2019-10-14T09:59:41.000Z</time>
      </trkpt>
      <trkpt lat="45.59525" lon="6.64551">
        <ele>1505.22</ele>
        <time>2019-10-14T09:59:46.000Z</time>
      </trkpt>
      <trkpt lat="45.59504" lon="6.64595">
        <ele>1506.67</ele>
        <time>2019-10-14T09:59:51.000Z</time>
      </trkpt>
      <trkpt lat="45.59486" lon="6.64625">
        <ele>1505.41</ele>
        <time>2019-10-14T09:59:56.000Z</time>
      </trkpt>
      <trkpt lat="45.5947" lon="6.64678">
        <ele>1504.62</ele>
        <time>2019-10-14T10:00:01.000Z</time>
      </trkpt>
      <trkpt lat="45.59436" lon="6.64724">
        <ele>1497.78</ele>
        <time>2019-10-14T10:00:06.000Z</time>
      </trkpt>
      <trkpt lat="45.59391" lon="6.64766">
        <ele>1497.05</ele>
        <time>2019-10-14T10:00:11.000Z</time>
      </trkpt>
      <trkpt lat="45.5935" lon="6.648">
        <ele>1497.78</ele>
        <time>2019-10-14T10:00:16.000Z</time>
      </trkpt>
      <trkpt lat="45.59306" lon="6.64844">
        <ele>1498.88</ele>
        <time>2019-10-14T10:00:21.000Z</time>
      </trkpt>
      <trkpt lat="45.59253" lon="6.64863">
        <ele>1492.45</ele>
        <time>2019-10-14T10:00:26.000Z</time>
      </trkpt>
      <trkpt lat="45.59209" lon="6.64884">
        <ele>1485.96</ele>
        <time>2019-10-14T10:00:31.000Z</time>
      </trkpt>
      <trkpt lat="45.59168" lon="6.64936">
        <ele>1484.51</ele>
        <time>2019-10-14T10:00:36.000Z</time>
      </trkpt>
      <trkpt lat="45.59147" lon="6.65014">
        <ele>1476.62</ele>
        <time>2019-10-14T10:00:41.000Z</time>
      </trkpt>
      <trkpt lat="45.5909" lon="6.65068">
        <ele>1458.17</ele>
        <time>2019-10-14T10:00:46.000Z</time>
      </trkpt>
      <trkpt lat="45.59065" lon="6.65096">
        <ele>1449.33</ele>
        <time>2019-10-14T10:00:51.000Z</time>
      </trkpt>
      <trkpt lat="45.5903" lon="6.65126">
        <ele>1445.43</ele>
        <time>2019-10-14T10:00:56.000Z</time>
      </trkpt>
      <trkpt lat="45.58987" lon="6.65152">
        <ele>1437.07</ele>
        <time>2019-10-14T10:01:01.000Z</time>
      </trkpt>
      <trkpt lat="45.58951" lon="6.65196">
        <ele>1427.65</ele>
        <time>2019-10-14T10:01:06.000Z</time>
      </trkpt>
      <trkpt lat="45.58916" lon="6.65246">
        <ele>1426.18</ele>
        <time>2019-10-14T10:01:11.000Z</time>
      </trkpt>
      <trkpt lat="45.58863" lon="6.65269">
        <ele>1427.44</ele>
        <time>2019-10-14T10:01:16.000Z</time>
      </trkpt>
      <trkpt lat="45.5882" lon="6.65289">
        <ele>1429.24</ele>
        <time>2019-10-14T10:01:21.000Z</time>
      </trkpt>
      <trkpt lat="45.5879" lon="6.65321">
        <ele>1431.17</ele>
        <time>2019-10-14T10:01:26.000Z</time>
      </trkpt>
      <trkpt lat="45.58764" lon="6.6534">
        <ele>1429.68</ele>
        <time>2019-10-14T10:01:31.000Z</time>
      </trkpt>
      <trkpt lat="45.58705" lon="6.65347">
        <ele>1423.18</ele>
        <time>2019-10-14T10:01:41.000Z</time>
      </trkpt>
      <trkpt lat="45.58678" lon="6.65363">
        <ele>1415.71</ele>
        <time>2019-10-14T10:01:46.000Z</time>
      </trkpt>
      <trkpt lat="45.58651" lon="6.65369">
        <ele>1414.21</ele>
        <time>2019-10-14T10:01:51.000Z</time>
      </trkpt>
      <trkpt lat="45.58625" lon="6.65386">
        <ele>1415.47</ele>
        <time>2019-10-14T10:01:56.000Z</time>
      </trkpt>
      <trkpt lat="45.58606" lon="6.65393">
        <ele>1414.65</ele>
        <time>2019-10-14T10:02:01.000Z</time>
      </trkpt>
      <trkpt lat="45.5858" lon="6.65399">
        <ele>1416.56</ele>
        <time>2019-10-14T10:02:06.000Z</time>
      </trkpt>
      <trkpt lat="45.58551" lon="6.65397">
        <ele>1416.54</ele>
        <time>2019-10-14T10:02:11.000Z</time>
      </trkpt>
      <trkpt lat="45.58526" lon="6.65401">
        <ele>1414.93</ele>
        <time>2019-10-14T10:02:16.000Z</time>
      </trkpt>
      <trkpt lat="45.58464" lon="6.65378">
        <ele>1425.12</ele>
        <time>2019-10-14T10:02:37.000Z</time>
      </trkpt>
      <trkpt lat="45.58455" lon="6.65377">
        <ele>1418.12</ele>
        <time>2019-10-14T10:04:10.000Z</time>
      </trkpt>
      <trkpt lat="45.58464" lon="6.65379">
        <ele>1419.22</ele>
        <time>2019-10-14T10:04:35.000Z</time>
      </trkpt>
      <trkpt lat="45.58456" lon="6.65372">
        <ele>1418.9</ele>
        <time>2019-10-14T10:06:14.000Z</time>
      </trkpt>
      <trkpt lat="45.58434" lon="6.65368">
        <ele>1413.41</ele>
        <time>2019-10-14T10:06:19.000Z</time>
      </trkpt>
      <trkpt lat="45.58407" lon="6.65345">
        <ele>1407.85</ele>
        <time>2019-10-14T10:06:24.000Z</time>
      </trkpt>
      <trkpt lat="45.58384" lon="6.6533">
        <ele>1409.23</ele>
        <time>2019-10-14T10:06:29.000Z</time>
      </trkpt>
      <trkpt lat="45.58363" lon="6.65315">
        <ele>1410.48</ele>
        <time>2019-10-14T10:06:34.000Z</time>
      </trkpt>
      <trkpt lat="45.58348" lon="6.65289">
        <ele>1410.59</ele>
        <time>2019-10-14T10:06:39.000Z</time>
      </trkpt>
      <trkpt lat="45.58328" lon="6.65272">
        <ele>1413.16</ele>
        <time>2019-10-14T10:06:44.000Z</time>
      </trkpt>
      <trkpt lat="45.58307" lon="6.6527">
        <ele>1415.96</ele>
        <time>2019-10-14T10:06:49.000Z</time>
      </trkpt>
      <trkpt lat="45.58285" lon="6.65253">
        <ele>1413.79</ele>
        <time>2019-10-14T10:06:54.000Z</time>
      </trkpt>
      <trkpt lat="45.58262" lon="6.65241">
        <ele>1414.1</ele>
        <time>2019-10-14T10:06:59.000Z</time>
      </trkpt>
      <trkpt lat="45.58243" lon="6.65234">
        <ele>1414.09</ele>
        <time>2019-10-14T10:07:04.000Z</time>
      </trkpt>
      <trkpt lat="45.5822" lon="6.6522">
        <ele>1413.85</ele>
        <time>2019-10-14T10:07:09.000Z</time>
      </trkpt>
      <trkpt lat="45.58193" lon="6.65214">
        <ele>1416.48</ele>
        <time>2019-10-14T10:07:14.000Z</time>
      </trkpt>
      <trkpt lat="45.58168" lon="6.65206">
        <ele>1417.84</ele>
        <time>2019-10-14T10:07:19.000Z</time>
      </trkpt>
      <trkpt lat="45.58146" lon="6.65201">
        <ele>1416.69</ele>
        <time>2019-10-14T10:07:24.000Z</time>
      </trkpt>
      <trkpt lat="45.58121" lon="6.65205">
        <ele>1412.74</ele>
        <time>2019-10-14T10:07:29.000Z</time>
      </trkpt>
      <trkpt lat="45.58091" lon="6.65221">
        <ele>1410.91</ele>
        <time>2019-10-14T10:07:34.000Z</time>
      </trkpt>
      <trkpt lat="45.58064" lon="6.65231">
        <ele>1410.4</ele>
        <time>2019-10-14T10:07:39.000Z</time>
      </trkpt>
      <trkpt lat="45.58051" lon="6.65238">
        <ele>1411.34</ele>
        <time>2019-10-14T10:07:44.000Z</time>
      </trkpt>
      <trkpt lat="45.58036" lon="6.6524">
        <ele>1410.62</ele>
        <time>2019-10-14T10:07:49.000Z</time>
      </trkpt>
      <trkpt lat="45.58001" lon="6.65254">
        <ele>1407.28</ele>
        <time>2019-10-14T10:07:54.000Z</time>
      </trkpt>
      <trkpt lat="45.57965" lon="6.65257">
        <ele>1405.14</ele>
        <time>2019-10-14T10:07:59.000Z</time>
      </trkpt>
      <trkpt lat="45.57918" lon="6.65252">
        <ele>1403.78</ele>
        <time>2019-10-14T10:08:04.000Z</time>
      </trkpt>
      <trkpt lat="45.57863" lon="6.65238">
        <ele>1399.79</ele>
        <time>2019-10-14T10:08:09.000Z</time>
      </trkpt>
      <trkpt lat="45.57817" lon="6.65224">
        <ele>1397.14</ele>
        <time>2019-10-14T10:08:14.000Z</time>
      </trkpt>
      <trkpt lat="45.57778" lon="6.65201">
        <ele>1388.52</ele>
        <time>2019-10-14T10:08:19.000Z</time>
      </trkpt>
      <trkpt lat="45.57739" lon="6.65174">
        <ele>1384.05</ele>
        <time>2019-10-14T10:08:24.000Z</time>
      </trkpt>
      <trkpt lat="45.57687" lon="6.65163">
        <ele>1382.53</ele>
        <time>2019-10-14T10:08:29.000Z</time>
      </trkpt>
      <trkpt lat="45.5763" lon="6.6516">
        <ele>1377.42</ele>
        <time>2019-10-14T10:08:34.000Z</time>
      </trkpt>
      <trkpt lat="45.57586" lon="6.65108">
        <ele>1371.64</ele>
        <time>2019-10-14T10:08:39.000Z</time>
      </trkpt>
      <trkpt lat="45.57546" lon="6.65059">
        <ele>1364.01</ele>
        <time>2019-10-14T10:08:44.000Z</time>
      </trkpt>
      <trkpt lat="45.57509" lon="6.65004">
        <ele>1358.93</ele>
        <time>2019-10-14T10:08:49.000Z</time>
      </trkpt>
      <trkpt lat="45.57489" lon="6.64922">
        <ele>1354.85</ele>
        <time>2019-10-14T10:08:54.000Z</time>
      </trkpt>
      <trkpt lat="45.57466" lon="6.64859">
        <ele>1350.29</ele>
        <time>2019-10-14T10:08:59.000Z</time>
      </trkpt>
      <trkpt lat="45.57434" lon="6.64789">
        <ele>1343.25</ele>
        <time>2019-10-14T10:09:04.000Z</time>
      </trkpt>
      <trkpt lat="45.57399" lon="6.6473">
        <ele>1337.59</ele>
        <time>2019-10-14T10:09:09.000Z</time>
      </trkpt>
      <trkpt lat="45.57357" lon="6.6468">
        <ele>1333.5</ele>
        <time>2019-10-14T10:09:14.000Z</time>
      </trkpt>
      <trkpt lat="45.57303" lon="6.64634">
        <ele>1328.83</ele>
        <time>2019-10-14T10:09:19.000Z</time>
      </trkpt>
      <trkpt lat="45.57244" lon="6.64589">
        <ele>1324.92</ele>
        <time>2019-10-14T10:09:24.000Z</time>
      </trkpt>
      <trkpt lat="45.57185" lon="6.64535">
        <ele>1319.01</ele>
        <time>2019-10-14T10:09:29.000Z</time>
      </trkpt>
      <trkpt lat="45.57143" lon="6.64492">
        <ele>1314.9</ele>
        <time>2019-10-14T10:09:34.000Z</time>
      </trkpt>
      <trkpt lat="45.57128" lon="6.64505">
        <ele>1309.63</ele>
        <time>2019-10-14T10:09:39.000Z</time>
      </trkpt>
      <trkpt lat="45.57142" lon="6.64532">
        <ele>1309.93</ele>
        <time>2019-10-14T10:09:44.000Z</time>
      </trkpt>
      <trkpt lat="45.57163" lon="6.64566">
        <ele>1307.2</ele>
        <time>2019-10-14T10:09:49.000Z</time>
      </trkpt>
      <trkpt lat="45.57194" lon="6.64611">
        <ele>1303.3</ele>
        <time>2019-10-14T10:09:54.000Z</time>
      </trkpt>
      <trkpt lat="45.5723" lon="6.6467">
        <ele>1297.92</ele>
        <time>2019-10-14T10:09:59.000Z</time>
      </trkpt>
      <trkpt lat="45.57261" lon="6.6474">
        <ele>1294.8</ele>
        <time>2019-10-14T10:10:04.000Z</time>
      </trkpt>
      <trkpt lat="45.5728" lon="6.64808">
        <ele>1290.66</ele>
        <time>2019-10-14T10:10:09.000Z</time>
      </trkpt>
      <trkpt lat="45.57281" lon="6.6485">
        <ele>1291.24</ele>
        <time>2019-10-14T10:10:14.000Z</time>
      </trkpt>
      <trkpt lat="45.57289" lon="6.6487">
        <ele>1289.06</ele>
        <time>2019-10-14T10:10:19.000Z</time>
      </trkpt>
      <trkpt lat="45.57296" lon="6.64883">
        <ele>1284.99</ele>
        <time>2019-10-14T10:10:44.000Z</time>
      </trkpt>
      <trkpt lat="45.57307" lon="6.64919">
        <ele>1280.33</ele>
        <time>2019-10-14T10:10:49.000Z</time>
      </trkpt>
      <trkpt lat="45.57314" lon="6.64958">
        <ele>1278.64</ele>
        <time>2019-10-14T10:10:54.000Z</time>
      </trkpt>
      <trkpt lat="45.57324" lon="6.64979">
        <ele>1279.23</ele>
        <time>2019-10-14T10:10:59.000Z</time>
      </trkpt>
      <trkpt lat="45.57328" lon="6.65012">
        <ele>1272.13</ele>
        <time>2019-10-14T10:11:04.000Z</time>
      </trkpt>
      <trkpt lat="45.57331" lon="6.65059">
        <ele>1271.57</ele>
        <time>2019-10-14T10:11:09.000Z</time>
      </trkpt>
      <trkpt lat="45.57343" lon="6.65101">
        <ele>1271.8</ele>
        <time>2019-10-14T10:11:14.000Z</time>
      </trkpt>
      <trkpt lat="45.57354" lon="6.65146">
        <ele>1266.74</ele>
        <time>2019-10-14T10:11:19.000Z</time>
      </trkpt>
      <trkpt lat="45.5736" lon="6.65183">
        <ele>1262.65</ele>
        <time>2019-10-14T10:11:24.000Z</time>
      </trkpt>
      <trkpt lat="45.57337" lon="6.65179">
        <ele>1259.59</ele>
        <time>2019-10-14T10:11:29.000Z</time>
      </trkpt>
      <trkpt lat="45.57322" lon="6.6516">
        <ele>1256.51</ele>
        <time>2019-10-14T10:11:34.000Z</time>
      </trkpt>
      <trkpt lat="45.57307" lon="6.65147">
        <ele>1254.06</ele>
        <time>2019-10-14T10:11:39.000Z</time>
      </trkpt>
      <trkpt lat="45.57296" lon="6.65136">
        <ele>1253.53</ele>
        <time>2019-10-14T10:11:44.000Z</time>
      </trkpt>
      <trkpt lat="45.57289" lon="6.65124">
        <ele>1254.59</ele>
        <time>2019-10-14T10:11:49.000Z</time>
      </trkpt>
      <trkpt lat="45.57276" lon="6.65098">
        <ele>1254.02</ele>
        <time>2019-10-14T10:11:54.000Z</time>
      </trkpt>
      <trkpt lat="45.57265" lon="6.65081">
        <ele>1248.48</ele>
        <time>2019-10-14T10:11:59.000Z</time>
      </trkpt>
      <trkpt lat="45.57266" lon="6.65107">
        <ele>1243.75</ele>
        <time>2019-10-14T10:12:04.000Z</time>
      </trkpt>
      <trkpt lat="45.57269" lon="6.65146">
        <ele>1251.46</ele>
        <time>2019-10-14T10:12:09.000Z</time>
      </trkpt>
      <trkpt lat="45.57285" lon="6.65184">
        <ele>1255.11</ele>
        <time>2019-10-14T10:12:14.000Z</time>
      </trkpt>
      <trkpt lat="45.57305" lon="6.6522">
        <ele>1255.93</ele>
        <time>2019-10-14T10:12:19.000Z</time>
      </trkpt>
      <trkpt lat="45.5733" lon="6.6525">
        <ele>1251.49</ele>
        <time>2019-10-14T10:12:24.000Z</time>
      </trkpt>
      <trkpt lat="45.57354" lon="6.65277">
        <ele>1246.58</ele>
        <time>2019-10-14T10:12:29.000Z</time>
      </trkpt>
      <trkpt lat="45.57366" lon="6.65321">
        <ele>1249.45</ele>
        <time>2019-10-14T10:12:34.000Z</time>
      </trkpt>
      <trkpt lat="45.57381" lon="6.65358">
        <ele>1245.81</ele>
        <time>2019-10-14T10:12:39.000Z</time>
      </trkpt>
      <trkpt lat="45.57397" lon="6.65401">
        <ele>1244.41</ele>
        <time>2019-10-14T10:12:44.000Z</time>
      </trkpt>
      <trkpt lat="45.57419" lon="6.65437">
        <ele>1245.44</ele>
        <time>2019-10-14T10:12:49.000Z</time>
      </trkpt>
      <trkpt lat="45.57439" lon="6.65469">
        <ele>1241.27</ele>
        <time>2019-10-14T10:12:54.000Z</time>
      </trkpt>
      <trkpt lat="45.57457" lon="6.65508">
        <ele>1242.19</ele>
        <time>2019-10-14T10:12:59.000Z</time>
      </trkpt>
      <trkpt lat="45.5748" lon="6.65534">
        <ele>1242.88</ele>
        <time>2019-10-14T10:13:04.000Z</time>
      </trkpt>
      <trkpt lat="45.57499" lon="6.65561">
        <ele>1247.15</ele>
        <time>2019-10-14T10:13:09.000Z</time>
      </trkpt>
      <trkpt lat="45.57518" lon="6.65588">
        <ele>1243.59</ele>
        <time>2019-10-14T10:13:14.000Z</time>
      </trkpt>
      <trkpt lat="45.5754" lon="6.65607">
        <ele>1246.27</ele>
        <time>2019-10-14T10:13:19.000Z</time>
      </trkpt>
      <trkpt lat="45.57561" lon="6.65627">
        <ele>1246.51</ele>
        <time>2019-10-14T10:13:24.000Z</time>
      </trkpt>
      <trkpt lat="45.57582" lon="6.65644">
        <ele>1244.9</ele>
        <time>2019-10-14T10:13:29.000Z</time>
      </trkpt>
      <trkpt lat="45.57609" lon="6.65666">
        <ele>1247.99</ele>
        <time>2019-10-14T10:13:34.000Z</time>
      </trkpt>
      <trkpt lat="45.5763" lon="6.65683">
        <ele>1248.05</ele>
        <time>2019-10-14T10:13:39.000Z</time>
      </trkpt>
      <trkpt lat="45.57647" lon="6.65683">
        <ele>1242.69</ele>
        <time>2019-10-14T10:13:44.000Z</time>
      </trkpt>
      <trkpt lat="45.57655" lon="6.65677">
        <ele>1236.76</ele>
        <time>2019-10-14T10:15:09.000Z</time>
      </trkpt>
      <trkpt lat="45.57667" lon="6.65667">
        <ele>1242.47</ele>
        <time>2019-10-14T10:15:52.000Z</time>
      </trkpt>
      <trkpt lat="45.57691" lon="6.65633">
        <ele>1242.65</ele>
        <time>2019-10-14T10:15:57.000Z</time>
      </trkpt>
      <trkpt lat="45.57721" lon="6.65616">
        <ele>1241.64</ele>
        <time>2019-10-14T10:16:02.000Z</time>
      </trkpt>
      <trkpt lat="45.57751" lon="6.65637">
        <ele>1239.04</ele>
        <time>2019-10-14T10:16:07.000Z</time>
      </trkpt>
      <trkpt lat="45.57783" lon="6.65645">
        <ele>1241.34</ele>
        <time>2019-10-14T10:16:12.000Z</time>
      </trkpt>
      <trkpt lat="45.57817" lon="6.65636">
        <ele>1241.82</ele>
        <time>2019-10-14T10:16:17.000Z</time>
      </trkpt>
      <trkpt lat="45.57844" lon="6.65679">
        <ele>1242.85</ele>
        <time>2019-10-14T10:16:22.000Z</time>
      </trkpt>
      <trkpt lat="45.57873" lon="6.65703">
        <ele>1240.42</ele>
        <time>2019-10-14T10:16:27.000Z</time>
      </trkpt>
      <trkpt lat="45.57908" lon="6.65726">
        <ele>1238.7</ele>
        <time>2019-10-14T10:16:32.000Z</time>
      </trkpt>
      <trkpt lat="45.57915" lon="6.65787">
        <ele>1240.84</ele>
        <time>2019-10-14T10:16:37.000Z</time>
      </trkpt>
      <trkpt lat="45.57942" lon="6.65815">
        <ele>1242.01</ele>
        <time>2019-10-14T10:16:42.000Z</time>
      </trkpt>
      <trkpt lat="45.57977" lon="6.65817">
        <ele>1239.26</ele>
        <time>2019-10-14T10:16:47.000Z</time>
      </trkpt>
      <trkpt lat="45.58012" lon="6.65826">
        <ele>1235.19</ele>
        <time>2019-10-14T10:16:52.000Z</time>
      </trkpt>
      <trkpt lat="45.58051" lon="6.65811">
        <ele>1229.98</ele>
        <time>2019-10-14T10:16:57.000Z</time>
      </trkpt>
      <trkpt lat="45.58087" lon="6.65803">
        <ele>1226.99</ele>
        <time>2019-10-14T10:17:02.000Z</time>
      </trkpt>
      <trkpt lat="45.58119" lon="6.65773">
        <ele>1226.81</ele>
        <time>2019-10-14T10:17:07.000Z</time>
      </trkpt>
      <trkpt lat="45.5816" lon="6.65776">
        <ele>1225.24</ele>
        <time>2019-10-14T10:17:12.000Z</time>
      </trkpt>
      <trkpt lat="45.58188" lon="6.65798">
        <ele>1227.62</ele>
        <time>2019-10-14T10:17:17.000Z</time>
      </trkpt>
      <trkpt lat="45.58212" lon="6.65842">
        <ele>1224.2</ele>
        <time>2019-10-14T10:17:22.000Z</time>
      </trkpt>
      <trkpt lat="45.58243" lon="6.65876">
        <ele>1217.65</ele>
        <time>2019-10-14T10:17:27.000Z</time>
      </trkpt>
      <trkpt lat="45.58277" lon="6.65911">
        <ele>1220.89</ele>
        <time>2019-10-14T10:17:32.000Z</time>
      </trkpt>
      <trkpt lat="45.58319" lon="6.6593">
        <ele>1217.74</ele>
        <time>2019-10-14T10:17:37.000Z</time>
      </trkpt>
      <trkpt lat="45.58362" lon="6.65936">
        <ele>1216.7</ele>
        <time>2019-10-14T10:17:42.000Z</time>
      </trkpt>
      <trkpt lat="45.58406" lon="6.65948">
        <ele>1213.75</ele>
        <time>2019-10-14T10:17:47.000Z</time>
      </trkpt>
      <trkpt lat="45.58448" lon="6.65962">
        <ele>1216.64</ele>
        <time>2019-10-14T10:17:52.000Z</time>
      </trkpt>
      <trkpt lat="45.5849" lon="6.65974">
        <ele>1213.72</ele>
        <time>2019-10-14T10:17:57.000Z</time>
      </trkpt>
      <trkpt lat="45.58528" lon="6.65986">
        <ele>1214.04</ele>
        <time>2019-10-14T10:18:02.000Z</time>
      </trkpt>
      <trkpt lat="45.58536" lon="6.6603">
        <ele>1211.28</ele>
        <time>2019-10-14T10:18:07.000Z</time>
      </trkpt>
      <trkpt lat="45.58519" lon="6.66082">
        <ele>1209.14</ele>
        <time>2019-10-14T10:18:12.000Z</time>
      </trkpt>
      <trkpt lat="45.58489" lon="6.66122">
        <ele>1203.75</ele>
        <time>2019-10-14T10:18:17.000Z</time>
      </trkpt>
      <trkpt lat="45.5846" lon="6.66157">
        <ele>1199.15</ele>
        <time>2019-10-14T10:18:22.000Z</time>
      </trkpt>
      <trkpt lat="45.58462" lon="6.66208">
        <ele>1193.08</ele>
        <time>2019-10-14T10:18:27.000Z</time>
      </trkpt>
      <trkpt lat="45.58493" lon="6.66246">
        <ele>1190.21</ele>
        <time>2019-10-14T10:18:32.000Z</time>
      </trkpt>
      <trkpt lat="45.58524" lon="6.66273">
        <ele>1190.72</ele>
        <time>2019-10-14T10:18:37.000Z</time>
      </trkpt>
      <trkpt lat="45.58519" lon="6.66306">
        <ele>1191.43</ele>
        <time>2019-10-14T10:18:42.000Z</time>
      </trkpt>
      <trkpt lat="45.58482" lon="6.66289">
        <ele>1189.56</ele>
        <time>2019-10-14T10:18:47.000Z</time>
      </trkpt>
      <trkpt lat="45.58434" lon="6.66272">
        <ele>1188.89</ele>
        <time>2019-10-14T10:18:52.000Z</time>
      </trkpt>
      <trkpt lat="45.58386" lon="6.66244">
        <ele>1188.38</ele>
        <time>2019-10-14T10:18:57.000Z</time>
      </trkpt>
      <trkpt lat="45.58336" lon="6.66238">
        <ele>1184.24</ele>
        <time>2019-10-14T10:19:02.000Z</time>
      </trkpt>
      <trkpt lat="45.58283" lon="6.6624">
        <ele>1183.75</ele>
        <time>2019-10-14T10:19:07.000Z</time>
      </trkpt>
      <trkpt lat="45.5822" lon="6.66242">
        <ele>1180.16</ele>
        <time>2019-10-14T10:19:12.000Z</time>
      </trkpt>
      <trkpt lat="45.58171" lon="6.66247">
        <ele>1176.04</ele>
        <time>2019-10-14T10:19:17.000Z</time>
      </trkpt>
      <trkpt lat="45.58126" lon="6.66261">
        <ele>1169.96</ele>
        <time>2019-10-14T10:19:22.000Z</time>
      </trkpt>
      <trkpt lat="45.58074" lon="6.66285">
        <ele>1162.29</ele>
        <time>2019-10-14T10:19:27.000Z</time>
      </trkpt>
      <trkpt lat="45.58024" lon="6.66319">
        <ele>1156.21</ele>
        <time>2019-10-14T10:19:32.000Z</time>
      </trkpt>
      <trkpt lat="45.5799" lon="6.66386">
        <ele>1149.29</ele>
        <time>2019-10-14T10:19:37.000Z</time>
      </trkpt>
      <trkpt lat="45.57937" lon="6.66421">
        <ele>1147.27</ele>
        <time>2019-10-14T10:19:42.000Z</time>
      </trkpt>
      <trkpt lat="45.57879" lon="6.66456">
        <ele>1144.39</ele>
        <time>2019-10-14T10:19:47.000Z</time>
      </trkpt>
      <trkpt lat="45.57835" lon="6.66512">
        <ele>1138.52</ele>
        <time>2019-10-14T10:19:52.000Z</time>
      </trkpt>
      <trkpt lat="45.57827" lon="6.66566">
        <ele>1135</ele>
        <time>2019-10-14T10:19:57.000Z</time>
      </trkpt>
      <trkpt lat="45.57836" lon="6.66636">
        <ele>1133.96</ele>
        <time>2019-10-14T10:20:02.000Z</time>
      </trkpt>
      <trkpt lat="45.57802" lon="6.66644">
        <ele>1133.12</ele>
        <time>2019-10-14T10:20:07.000Z</time>
      </trkpt>
      <trkpt lat="45.5775" lon="6.66628">
        <ele>1134.52</ele>
        <time>2019-10-14T10:20:12.000Z</time>
      </trkpt>
      <trkpt lat="45.57704" lon="6.66596">
        <ele>1129.96</ele>
        <time>2019-10-14T10:20:17.000Z</time>
      </trkpt>
      <trkpt lat="45.57658" lon="6.66621">
        <ele>1125.68</ele>
        <time>2019-10-14T10:20:22.000Z</time>
      </trkpt>
      <trkpt lat="45.57627" lon="6.66654">
        <ele>1119.69</ele>
        <time>2019-10-14T10:20:27.000Z</time>
      </trkpt>
      <trkpt lat="45.5759" lon="6.66667">
        <ele>1113.45</ele>
        <time>2019-10-14T10:20:32.000Z</time>
      </trkpt>
      <trkpt lat="45.57541" lon="6.66704">
        <ele>1112.11</ele>
        <time>2019-10-14T10:20:37.000Z</time>
      </trkpt>
      <trkpt lat="45.57488" lon="6.66717">
        <ele>1105.38</ele>
        <time>2019-10-14T10:20:42.000Z</time>
      </trkpt>
      <trkpt lat="45.57438" lon="6.66715">
        <ele>1106.42</ele>
        <time>2019-10-14T10:20:47.000Z</time>
      </trkpt>
      <trkpt lat="45.57394" lon="6.6675">
        <ele>1100.59</ele>
        <time>2019-10-14T10:20:52.000Z</time>
      </trkpt>
      <trkpt lat="45.57353" lon="6.66736">
        <ele>1091.23</ele>
        <time>2019-10-14T10:20:57.000Z</time>
      </trkpt>
      <trkpt lat="45.57315" lon="6.66759">
        <ele>1091</ele>
        <time>2019-10-14T10:21:02.000Z</time>
      </trkpt>
      <trkpt lat="45.57295" lon="6.66804">
        <ele>1086.21</ele>
        <time>2019-10-14T10:21:07.000Z</time>
      </trkpt>
      <trkpt lat="45.57283" lon="6.6684">
        <ele>1084.99</ele>
        <time>2019-10-14T10:21:12.000Z</time>
      </trkpt>
      <trkpt lat="45.57281" lon="6.66889">
        <ele>1081.68</ele>
        <time>2019-10-14T10:21:17.000Z</time>
      </trkpt>
      <trkpt lat="45.57294" lon="6.66925">
        <ele>1080.7</ele>
        <time>2019-10-14T10:21:22.000Z</time>
      </trkpt>
      <trkpt lat="45.57327" lon="6.66951">
        <ele>1077.97</ele>
        <time>2019-10-14T10:21:27.000Z</time>
      </trkpt>
      <trkpt lat="45.5733" lon="6.66987">
        <ele>1079.45</ele>
        <time>2019-10-14T10:21:32.000Z</time>
      </trkpt>
      <trkpt lat="45.57294" lon="6.66974">
        <ele>1080.04</ele>
        <time>2019-10-14T10:21:37.000Z</time>
      </trkpt>
      <trkpt lat="45.57259" lon="6.66972">
        <ele>1078.74</ele>
        <time>2019-10-14T10:21:42.000Z</time>
      </trkpt>
      <trkpt lat="45.57217" lon="6.66976">
        <ele>1072.36</ele>
        <time>2019-10-14T10:21:47.000Z</time>
      </trkpt>
      <trkpt lat="45.57189" lon="6.6699">
        <ele>1065.96</ele>
        <time>2019-10-14T10:21:52.000Z</time>
      </trkpt>
      <trkpt lat="45.5716" lon="6.67008">
        <ele>1064.95</ele>
        <time>2019-10-14T10:21:57.000Z</time>
      </trkpt>
      <trkpt lat="45.57137" lon="6.67038">
        <ele>1066.14</ele>
        <time>2019-10-14T10:22:02.000Z</time>
      </trkpt>
      <trkpt lat="45.57123" lon="6.67064">
        <ele>1064.81</ele>
        <time>2019-10-14T10:22:07.000Z</time>
      </trkpt>
      <trkpt lat="45.57115" lon="6.67075">
        <ele>1064.16</ele>
        <time>2019-10-14T10:22:12.000Z</time>
      </trkpt>
      <trkpt lat="45.5711" lon="6.67089">
        <ele>1062.13</ele>
        <time>2019-10-14T10:23:12.000Z</time>
      </trkpt>
      <trkpt lat="45.57104" lon="6.67118">
        <ele>1064.28</ele>
        <time>2019-10-14T10:23:17.000Z</time>
      </trkpt>
      <trkpt lat="45.57095" lon="6.67145">
        <ele>1064.03</ele>
        <time>2019-10-14T10:23:22.000Z</time>
      </trkpt>
      <trkpt lat="45.57094" lon="6.67186">
        <ele>1067.34</ele>
        <time>2019-10-14T10:23:27.000Z</time>
      </trkpt>
      <trkpt lat="45.571" lon="6.67208">
        <ele>1066.53</ele>
        <time>2019-10-14T10:23:32.000Z</time>
      </trkpt>
      <trkpt lat="45.57101" lon="6.67234">
        <ele>1065.88</ele>
        <time>2019-10-14T10:23:37.000Z</time>
      </trkpt>
      <trkpt lat="45.57103" lon="6.67261">
        <ele>1069.93</ele>
        <time>2019-10-14T10:23:42.000Z</time>
      </trkpt>
      <trkpt lat="45.57106" lon="6.6729">
        <ele>1069.75</ele>
        <time>2019-10-14T10:23:47.000Z</time>
      </trkpt>
      <trkpt lat="45.5711" lon="6.67318">
        <ele>1070.84</ele>
        <time>2019-10-14T10:23:52.000Z</time>
      </trkpt>
      <trkpt lat="45.57124" lon="6.67347">
        <ele>1074.73</ele>
        <time>2019-10-14T10:23:57.000Z</time>
      </trkpt>
      <trkpt lat="45.57131" lon="6.67365">
        <ele>1073.48</ele>
        <time>2019-10-14T10:24:02.000Z</time>
      </trkpt>
      <trkpt lat="45.57141" lon="6.67392">
        <ele>1074.39</ele>
        <time>2019-10-14T10:24:07.000Z</time>
      </trkpt>
      <trkpt lat="45.57153" lon="6.67419">
        <ele>1072.39</ele>
        <time>2019-10-14T10:24:12.000Z</time>
      </trkpt>
      <trkpt lat="45.57161" lon="6.67447">
        <ele>1073.66</ele>
        <time>2019-10-14T10:24:17.000Z</time>
      </trkpt>
      <trkpt lat="45.57163" lon="6.67474">
        <ele>1073.43</ele>
        <time>2019-10-14T10:24:22.000Z</time>
      </trkpt>
      <trkpt lat="45.57163" lon="6.67497">
        <ele>1077.01</ele>
        <time>2019-10-14T10:24:27.000Z</time>
      </trkpt>
      <trkpt lat="45.57163" lon="6.67514">
        <ele>1079.33</ele>
        <time>2019-10-14T10:24:32.000Z</time>
      </trkpt>
      <trkpt lat="45.57164" lon="6.67538">
        <ele>1085.77</ele>
        <time>2019-10-14T10:24:37.000Z</time>
      </trkpt>
      <trkpt lat="45.57166" lon="6.67564">
        <ele>1087.14</ele>
        <time>2019-10-14T10:24:42.000Z</time>
      </trkpt>
      <trkpt lat="45.57167" lon="6.67587">
        <ele>1093.54</ele>
        <time>2019-10-14T10:24:47.000Z</time>
      </trkpt>
      <trkpt lat="45.57172" lon="6.67608">
        <ele>1098.72</ele>
        <time>2019-10-14T10:24:52.000Z</time>
      </trkpt>
      <trkpt lat="45.57185" lon="6.67629">
        <ele>1102.94</ele>
        <time>2019-10-14T10:24:57.000Z</time>
      </trkpt>
      <trkpt lat="45.57198" lon="6.67631">
        <ele>1102.97</ele>
        <time>2019-10-14T10:25:02.000Z</time>
      </trkpt>
      <trkpt lat="45.57216" lon="6.67636">
        <ele>1104.43</ele>
        <time>2019-10-14T10:25:07.000Z</time>
      </trkpt>
      <trkpt lat="45.57235" lon="6.67641">
        <ele>1107.61</ele>
        <time>2019-10-14T10:25:12.000Z</time>
      </trkpt>
      <trkpt lat="45.57249" lon="6.67654">
        <ele>1107.85</ele>
        <time>2019-10-14T10:25:17.000Z</time>
      </trkpt>
      <trkpt lat="45.57259" lon="6.67679">
        <ele>1106.5</ele>
        <time>2019-10-14T10:25:22.000Z</time>
      </trkpt>
      <trkpt lat="45.57271" lon="6.67695">
        <ele>1103.58</ele>
        <time>2019-10-14T10:25:27.000Z</time>
      </trkpt>
      <trkpt lat="45.57275" lon="6.67725">
        <ele>1105.28</ele>
        <time>2019-10-14T10:25:32.000Z</time>
      </trkpt>
      <trkpt lat="45.57283" lon="6.67754">
        <ele>1105.8</ele>
        <time>2019-10-14T10:25:37.000Z</time>
      </trkpt>
      <trkpt lat="45.57294" lon="6.67775">
        <ele>1108.51</ele>
        <time>2019-10-14T10:25:42.000Z</time>
      </trkpt>
      <trkpt lat="45.57308" lon="6.67788">
        <ele>1109.53</ele>
        <time>2019-10-14T10:25:47.000Z</time>
      </trkpt>
      <trkpt lat="45.57327" lon="6.67794">
        <ele>1111.53</ele>
        <time>2019-10-14T10:25:52.000Z</time>
      </trkpt>
      <trkpt lat="45.57343" lon="6.67811">
        <ele>1113.33</ele>
        <time>2019-10-14T10:25:57.000Z</time>
      </trkpt>
      <trkpt lat="45.57352" lon="6.67838">
        <ele>1114.34</ele>
        <time>2019-10-14T10:26:02.000Z</time>
      </trkpt>
      <trkpt lat="45.5736" lon="6.67865">
        <ele>1120.53</ele>
        <time>2019-10-14T10:26:07.000Z</time>
      </trkpt>
      <trkpt lat="45.57363" lon="6.67891">
        <ele>1121.79</ele>
        <time>2019-10-14T10:26:12.000Z</time>
      </trkpt>
      <trkpt lat="45.57364" lon="6.67918">
        <ele>1124.32</ele>
        <time>2019-10-14T10:26:17.000Z</time>
      </trkpt>
      <trkpt lat="45.57366" lon="6.6795">
        <ele>1127.04</ele>
        <time>2019-10-14T10:26:22.000Z</time>
      </trkpt>
      <trkpt lat="45.57372" lon="6.67977">
        <ele>1127.15</ele>
        <time>2019-10-14T10:26:27.000Z</time>
      </trkpt>
      <trkpt lat="45.57377" lon="6.68">
        <ele>1128.14</ele>
        <time>2019-10-14T10:26:32.000Z</time>
      </trkpt>
      <trkpt lat="45.57387" lon="6.68023">
        <ele>1130.41</ele>
        <time>2019-10-14T10:26:37.000Z</time>
      </trkpt>
      <trkpt lat="45.57406" lon="6.68034">
        <ele>1133.4</ele>
        <time>2019-10-14T10:26:42.000Z</time>
      </trkpt>
      <trkpt lat="45.57427" lon="6.68036">
        <ele>1135.76</ele>
        <time>2019-10-14T10:26:47.000Z</time>
      </trkpt>
      <trkpt lat="45.57446" lon="6.68039">
        <ele>1137.25</ele>
        <time>2019-10-14T10:26:52.000Z</time>
      </trkpt>
      <trkpt lat="45.57458" lon="6.68046">
        <ele>1138.45</ele>
        <time>2019-10-14T10:26:57.000Z</time>
      </trkpt>
      <trkpt lat="45.57449" lon="6.68073">
        <ele>1139.36</ele>
        <time>2019-10-14T10:27:02.000Z</time>
      </trkpt>
      <trkpt lat="45.57435" lon="6.68096">
        <ele>1137.93</ele>
        <time>2019-10-14T10:27:07.000Z</time>
      </trkpt>
      <trkpt lat="45.57416" lon="6.68122">
        <ele>1133.49</ele>
        <time>2019-10-14T10:27:12.000Z</time>
      </trkpt>
      <trkpt lat="45.57407" lon="6.68161">
        <ele>1133.59</ele>
        <time>2019-10-14T10:27:17.000Z</time>
      </trkpt>
      <trkpt lat="45.57399" lon="6.682">
        <ele>1139.24</ele>
        <time>2019-10-14T10:27:22.000Z</time>
      </trkpt>
      <trkpt lat="45.574" lon="6.68234">
        <ele>1140.14</ele>
        <time>2019-10-14T10:27:27.000Z</time>
      </trkpt>
      <trkpt lat="45.5741" lon="6.68264">
        <ele>1141.55</ele>
        <time>2019-10-14T10:27:32.000Z</time>
      </trkpt>
      <trkpt lat="45.57419" lon="6.68301">
        <ele>1150.5</ele>
        <time>2019-10-14T10:27:37.000Z</time>
      </trkpt>
      <trkpt lat="45.5743" lon="6.68335">
        <ele>1147.42</ele>
        <time>2019-10-14T10:27:42.000Z</time>
      </trkpt>
      <trkpt lat="45.57444" lon="6.68366">
        <ele>1144.57</ele>
        <time>2019-10-14T10:27:47.000Z</time>
      </trkpt>
      <trkpt lat="45.57457" lon="6.68397">
        <ele>1141.97</ele>
        <time>2019-10-14T10:27:52.000Z</time>
      </trkpt>
      <trkpt lat="45.57482" lon="6.68423">
        <ele>1141.3</ele>
        <time>2019-10-14T10:27:57.000Z</time>
      </trkpt>
      <trkpt lat="45.57507" lon="6.68448">
        <ele>1136.44</ele>
        <time>2019-10-14T10:28:02.000Z</time>
      </trkpt>
      <trkpt lat="45.57527" lon="6.68475">
        <ele>1131.87</ele>
        <time>2019-10-14T10:28:07.000Z</time>
      </trkpt>
      <trkpt lat="45.57527" lon="6.68521">
        <ele>1132.25</ele>
        <time>2019-10-14T10:28:12.000Z</time>
      </trkpt>
      <trkpt lat="45.57514" lon="6.68561">
        <ele>1133.63</ele>
        <time>2019-10-14T10:28:17.000Z</time>
      </trkpt>
      <trkpt lat="45.57524" lon="6.6861">
        <ele>1137.87</ele>
        <time>2019-10-14T10:28:22.000Z</time>
      </trkpt>
      <trkpt lat="45.57552" lon="6.68631">
        <ele>1138.31</ele>
        <time>2019-10-14T10:28:27.000Z</time>
      </trkpt>
      <trkpt lat="45.57578" lon="6.68638">
        <ele>1139.13</ele>
        <time>2019-10-14T10:28:32.000Z</time>
      </trkpt>
      <trkpt lat="45.57605" lon="6.68645">
        <ele>1142.48</ele>
        <time>2019-10-14T10:28:37.000Z</time>
      </trkpt>
      <trkpt lat="45.57628" lon="6.68655">
        <ele>1147.53</ele>
        <time>2019-10-14T10:28:42.000Z</time>
      </trkpt>
      <trkpt lat="45.57655" lon="6.68678">
        <ele>1147.47</ele>
        <time>2019-10-14T10:28:47.000Z</time>
      </trkpt>
      <trkpt lat="45.57673" lon="6.68695">
        <ele>1147.65</ele>
        <time>2019-10-14T10:28:52.000Z</time>
      </trkpt>
      <trkpt lat="45.57695" lon="6.68692">
        <ele>1147.94</ele>
        <time>2019-10-14T10:28:57.000Z</time>
      </trkpt>
      <trkpt lat="45.57719" lon="6.68687">
        <ele>1151.16</ele>
        <time>2019-10-14T10:29:02.000Z</time>
      </trkpt>
      <trkpt lat="45.57743" lon="6.68689">
        <ele>1152.66</ele>
        <time>2019-10-14T10:29:07.000Z</time>
      </trkpt>
      <trkpt lat="45.57767" lon="6.68687">
        <ele>1153.73</ele>
        <time>2019-10-14T10:29:12.000Z</time>
      </trkpt>
      <trkpt lat="45.57787" lon="6.68708">
        <ele>1154.86</ele>
        <time>2019-10-14T10:29:17.000Z</time>
      </trkpt>
      <trkpt lat="45.57777" lon="6.68741">
        <ele>1155.16</ele>
        <time>2019-10-14T10:29:22.000Z</time>
      </trkpt>
      <trkpt lat="45.57767" lon="6.68773">
        <ele>1155.28</ele>
        <time>2019-10-14T10:29:27.000Z</time>
      </trkpt>
      <trkpt lat="45.57757" lon="6.68798">
        <ele>1155.3</ele>
        <time>2019-10-14T10:29:32.000Z</time>
      </trkpt>
      <trkpt lat="45.57741" lon="6.68829">
        <ele>1152.82</ele>
        <time>2019-10-14T10:29:37.000Z</time>
      </trkpt>
      <trkpt lat="45.57724" lon="6.68853">
        <ele>1157.27</ele>
        <time>2019-10-14T10:29:42.000Z</time>
      </trkpt>
      <trkpt lat="45.57718" lon="6.68878">
        <ele>1158.69</ele>
        <time>2019-10-14T10:29:47.000Z</time>
      </trkpt>
      <trkpt lat="45.57711" lon="6.68912">
        <ele>1161.02</ele>
        <time>2019-10-14T10:29:52.000Z</time>
      </trkpt>
      <trkpt lat="45.57705" lon="6.68943">
        <ele>1159.64</ele>
        <time>2019-10-14T10:29:57.000Z</time>
      </trkpt>
      <trkpt lat="45.57694" lon="6.68979">
        <ele>1166.37</ele>
        <time>2019-10-14T10:30:02.000Z</time>
      </trkpt>
      <trkpt lat="45.57687" lon="6.69007">
        <ele>1167.27</ele>
        <time>2019-10-14T10:30:07.000Z</time>
      </trkpt>
      <trkpt lat="45.57679" lon="6.69037">
        <ele>1168.31</ele>
        <time>2019-10-14T10:30:12.000Z</time>
      </trkpt>
      <trkpt lat="45.57671" lon="6.69064">
        <ele>1172.62</ele>
        <time>2019-10-14T10:30:17.000Z</time>
      </trkpt>
      <trkpt lat="45.5765" lon="6.6907">
        <ele>1174.67</ele>
        <time>2019-10-14T10:30:22.000Z</time>
      </trkpt>
      <trkpt lat="45.57626" lon="6.69073">
        <ele>1178.5</ele>
        <time>2019-10-14T10:30:27.000Z</time>
      </trkpt>
      <trkpt lat="45.57608" lon="6.69091">
        <ele>1178.28</ele>
        <time>2019-10-14T10:30:32.000Z</time>
      </trkpt>
      <trkpt lat="45.57593" lon="6.69116">
        <ele>1178.05</ele>
        <time>2019-10-14T10:30:37.000Z</time>
      </trkpt>
      <trkpt lat="45.57586" lon="6.69137">
        <ele>1180.9</ele>
        <time>2019-10-14T10:30:42.000Z</time>
      </trkpt>
      <trkpt lat="45.57573" lon="6.69154">
        <ele>1181.22</ele>
        <time>2019-10-14T10:30:47.000Z</time>
      </trkpt>
      <trkpt lat="45.57553" lon="6.69179">
        <ele>1181.84</ele>
        <time>2019-10-14T10:30:52.000Z</time>
      </trkpt>
      <trkpt lat="45.57543" lon="6.69209">
        <ele>1183.13</ele>
        <time>2019-10-14T10:30:57.000Z</time>
      </trkpt>
      <trkpt lat="45.57532" lon="6.69236">
        <ele>1184</ele>
        <time>2019-10-14T10:31:02.000Z</time>
      </trkpt>
      <trkpt lat="45.57524" lon="6.69265">
        <ele>1184.54</ele>
        <time>2019-10-14T10:31:07.000Z</time>
      </trkpt>
      <trkpt lat="45.57523" lon="6.69294">
        <ele>1186.33</ele>
        <time>2019-10-14T10:31:12.000Z</time>
      </trkpt>
      <trkpt lat="45.57532" lon="6.69324">
        <ele>1188.98</ele>
        <time>2019-10-14T10:31:17.000Z</time>
      </trkpt>
      <trkpt lat="45.5754" lon="6.69349">
        <ele>1190.97</ele>
        <time>2019-10-14T10:31:22.000Z</time>
      </trkpt>
      <trkpt lat="45.57554" lon="6.69373">
        <ele>1193.22</ele>
        <time>2019-10-14T10:31:27.000Z</time>
      </trkpt>
      <trkpt lat="45.57563" lon="6.69401">
        <ele>1193.85</ele>
        <time>2019-10-14T10:31:32.000Z</time>
      </trkpt>
      <trkpt lat="45.57572" lon="6.69433">
        <ele>1200.93</ele>
        <time>2019-10-14T10:31:37.000Z</time>
      </trkpt>
      <trkpt lat="45.57578" lon="6.69465">
        <ele>1195.96</ele>
        <time>2019-10-14T10:31:42.000Z</time>
      </trkpt>
      <trkpt lat="45.57583" lon="6.69494">
        <ele>1195.86</ele>
        <time>2019-10-14T10:31:47.000Z</time>
      </trkpt>
      <trkpt lat="45.57595" lon="6.69525">
        <ele>1199.09</ele>
        <time>2019-10-14T10:31:52.000Z</time>
      </trkpt>
      <trkpt lat="45.57607" lon="6.69548">
        <ele>1201.42</ele>
        <time>2019-10-14T10:31:57.000Z</time>
      </trkpt>
      <trkpt lat="45.5762" lon="6.69574">
        <ele>1201.97</ele>
        <time>2019-10-14T10:32:02.000Z</time>
      </trkpt>
      <trkpt lat="45.57633" lon="6.69602">
        <ele>1202.8</ele>
        <time>2019-10-14T10:32:07.000Z</time>
      </trkpt>
      <trkpt lat="45.57642" lon="6.69632">
        <ele>1203.1</ele>
        <time>2019-10-14T10:32:12.000Z</time>
      </trkpt>
      <trkpt lat="45.57649" lon="6.69659">
        <ele>1202.64</ele>
        <time>2019-10-14T10:32:17.000Z</time>
      </trkpt>
      <trkpt lat="45.5766" lon="6.69689">
        <ele>1202.35</ele>
        <time>2019-10-14T10:32:22.000Z</time>
      </trkpt>
      <trkpt lat="45.57667" lon="6.69719">
        <ele>1206.83</ele>
        <time>2019-10-14T10:32:27.000Z</time>
      </trkpt>
      <trkpt lat="45.57664" lon="6.6975">
        <ele>1202.39</ele>
        <time>2019-10-14T10:32:32.000Z</time>
      </trkpt>
      <trkpt lat="45.57658" lon="6.69772">
        <ele>1202.98</ele>
        <time>2019-10-14T10:32:37.000Z</time>
      </trkpt>
      <trkpt lat="45.57663" lon="6.69785">
        <ele>1206.75</ele>
        <time>2019-10-14T10:33:18.000Z</time>
      </trkpt>
      <trkpt lat="45.57669" lon="6.69819">
        <ele>1200.82</ele>
        <time>2019-10-14T10:33:23.000Z</time>
      </trkpt>
      <trkpt lat="45.57677" lon="6.69856">
        <ele>1198.71</ele>
        <time>2019-10-14T10:33:28.000Z</time>
      </trkpt>
      <trkpt lat="45.5768" lon="6.69885">
        <ele>1199.11</ele>
        <time>2019-10-14T10:33:33.000Z</time>
      </trkpt>
      <trkpt lat="45.57672" lon="6.69916">
        <ele>1201.24</ele>
        <time>2019-10-14T10:33:38.000Z</time>
      </trkpt>
      <trkpt lat="45.57669" lon="6.69957">
        <ele>1204.82</ele>
        <time>2019-10-14T10:33:43.000Z</time>
      </trkpt>
      <trkpt lat="45.57679" lon="6.69997">
        <ele>1204.69</ele>
        <time>2019-10-14T10:33:48.000Z</time>
      </trkpt>
      <trkpt lat="45.57674" lon="6.70039">
        <ele>1206.99</ele>
        <time>2019-10-14T10:33:53.000Z</time>
      </trkpt>
      <trkpt lat="45.57669" lon="6.70075">
        <ele>1202.83</ele>
        <time>2019-10-14T10:33:58.000Z</time>
      </trkpt>
      <trkpt lat="45.57655" lon="6.70109">
        <ele>1205.5</ele>
        <time>2019-10-14T10:34:03.000Z</time>
      </trkpt>
      <trkpt lat="45.57666" lon="6.70142">
        <ele>1205.57</ele>
        <time>2019-10-14T10:34:08.000Z</time>
      </trkpt>
      <trkpt lat="45.57681" lon="6.70175">
        <ele>1206.29</ele>
        <time>2019-10-14T10:34:13.000Z</time>
      </trkpt>
      <trkpt lat="45.57699" lon="6.70207">
        <ele>1208.42</ele>
        <time>2019-10-14T10:34:18.000Z</time>
      </trkpt>
      <trkpt lat="45.57719" lon="6.70232">
        <ele>1208.73</ele>
        <time>2019-10-14T10:34:23.000Z</time>
      </trkpt>
      <trkpt lat="45.57739" lon="6.7026">
        <ele>1207.99</ele>
        <time>2019-10-14T10:34:28.000Z</time>
      </trkpt>
      <trkpt lat="45.57755" lon="6.7029">
        <ele>1214.54</ele>
        <time>2019-10-14T10:34:33.000Z</time>
      </trkpt>
      <trkpt lat="45.57769" lon="6.70323">
        <ele>1212.52</ele>
        <time>2019-10-14T10:34:38.000Z</time>
      </trkpt>
      <trkpt lat="45.57788" lon="6.70339">
        <ele>1208.86</ele>
        <time>2019-10-14T10:34:43.000Z</time>
      </trkpt>
      <trkpt lat="45.57818" lon="6.70353">
        <ele>1206.6</ele>
        <time>2019-10-14T10:34:48.000Z</time>
      </trkpt>
      <trkpt lat="45.57835" lon="6.70371">
        <ele>1208.68</ele>
        <time>2019-10-14T10:34:53.000Z</time>
      </trkpt>
      <trkpt lat="45.57853" lon="6.7039">
        <ele>1212.02</ele>
        <time>2019-10-14T10:34:58.000Z</time>
      </trkpt>
      <trkpt lat="45.57873" lon="6.70409">
        <ele>1207.68</ele>
        <time>2019-10-14T10:35:03.000Z</time>
      </trkpt>
      <trkpt lat="45.57895" lon="6.7042">
        <ele>1212.87</ele>
        <time>2019-10-14T10:35:08.000Z</time>
      </trkpt>
      <trkpt lat="45.57919" lon="6.70412">
        <ele>1212.19</ele>
        <time>2019-10-14T10:35:13.000Z</time>
      </trkpt>
      <trkpt lat="45.57942" lon="6.70425">
        <ele>1213.94</ele>
        <time>2019-10-14T10:35:18.000Z</time>
      </trkpt>
      <trkpt lat="45.5796" lon="6.70454">
        <ele>1215.72</ele>
        <time>2019-10-14T10:35:23.000Z</time>
      </trkpt>
      <trkpt lat="45.57974" lon="6.70494">
        <ele>1216.2</ele>
        <time>2019-10-14T10:35:28.000Z</time>
      </trkpt>
      <trkpt lat="45.57986" lon="6.70534">
        <ele>1214.07</ele>
        <time>2019-10-14T10:35:33.000Z</time>
      </trkpt>
      <trkpt lat="45.57999" lon="6.70579">
        <ele>1212.74</ele>
        <time>2019-10-14T10:35:38.000Z</time>
      </trkpt>
      <trkpt lat="45.58006" lon="6.70619">
        <ele>1211.07</ele>
        <time>2019-10-14T10:35:43.000Z</time>
      </trkpt>
      <trkpt lat="45.58011" lon="6.70658">
        <ele>1213.92</ele>
        <time>2019-10-14T10:35:48.000Z</time>
      </trkpt>
      <trkpt lat="45.5802" lon="6.70699">
        <ele>1217.44</ele>
        <time>2019-10-14T10:35:53.000Z</time>
      </trkpt>
      <trkpt lat="45.58035" lon="6.70733">
        <ele>1218.4</ele>
        <time>2019-10-14T10:35:58.000Z</time>
      </trkpt>
      <trkpt lat="45.58055" lon="6.70761">
        <ele>1217.61</ele>
        <time>2019-10-14T10:36:03.000Z</time>
      </trkpt>
      <trkpt lat="45.58074" lon="6.70785">
        <ele>1220.11</ele>
        <time>2019-10-14T10:36:08.000Z</time>
      </trkpt>
      <trkpt lat="45.58092" lon="6.70807">
        <ele>1220.1</ele>
        <time>2019-10-14T10:36:13.000Z</time>
      </trkpt>
      <trkpt lat="45.58109" lon="6.70823">
        <ele>1218.64</ele>
        <time>2019-10-14T10:36:18.000Z</time>
      </trkpt>
      <trkpt lat="45.58125" lon="6.70846">
        <ele>1216.49</ele>
        <time>2019-10-14T10:36:23.000Z</time>
      </trkpt>
      <trkpt lat="45.58138" lon="6.70876">
        <ele>1217.52</ele>
        <time>2019-10-14T10:36:28.000Z</time>
      </trkpt>
      <trkpt lat="45.58157" lon="6.70903">
        <ele>1217.47</ele>
        <time>2019-10-14T10:36:33.000Z</time>
      </trkpt>
      <trkpt lat="45.58177" lon="6.70935">
        <ele>1220.27</ele>
        <time>2019-10-14T10:36:38.000Z</time>
      </trkpt>
      <trkpt lat="45.58187" lon="6.70971">
        <ele>1219.31</ele>
        <time>2019-10-14T10:36:43.000Z</time>
      </trkpt>
      <trkpt lat="45.58192" lon="6.71007">
        <ele>1219.03</ele>
        <time>2019-10-14T10:36:48.000Z</time>
      </trkpt>
      <trkpt lat="45.58199" lon="6.7105">
        <ele>1216.64</ele>
        <time>2019-10-14T10:36:53.000Z</time>
      </trkpt>
      <trkpt lat="45.58213" lon="6.71077">
        <ele>1219.54</ele>
        <time>2019-10-14T10:36:58.000Z</time>
      </trkpt>
      <trkpt lat="45.58229" lon="6.71094">
        <ele>1219.82</ele>
        <time>2019-10-14T10:37:03.000Z</time>
      </trkpt>
      <trkpt lat="45.58236" lon="6.71127">
        <ele>1218.85</ele>
        <time>2019-10-14T10:37:08.000Z</time>
      </trkpt>
      <trkpt lat="45.58241" lon="6.71159">
        <ele>1221.1</ele>
        <time>2019-10-14T10:37:13.000Z</time>
      </trkpt>
      <trkpt lat="45.58242" lon="6.71188">
        <ele>1222.81</ele>
        <time>2019-10-14T10:37:18.000Z</time>
      </trkpt>
      <trkpt lat="45.58239" lon="6.71225">
        <ele>1226.13</ele>
        <time>2019-10-14T10:37:23.000Z</time>
      </trkpt>
      <trkpt lat="45.58237" lon="6.71267">
        <ele>1227.84</ele>
        <time>2019-10-14T10:37:28.000Z</time>
      </trkpt>
      <trkpt lat="45.58235" lon="6.71294">
        <ele>1237.63</ele>
        <time>2019-10-14T10:37:33.000Z</time>
      </trkpt>
      <trkpt lat="45.58238" lon="6.71316">
        <ele>1236.32</ele>
        <time>2019-10-14T10:37:38.000Z</time>
      </trkpt>
      <trkpt lat="45.5824" lon="6.7133">
        <ele>1235.1</ele>
        <time>2019-10-14T10:37:48.000Z</time>
      </trkpt>
      <trkpt lat="45.58243" lon="6.71347">
        <ele>1231.88</ele>
        <time>2019-10-14T10:37:53.000Z</time>
      </trkpt>
      <trkpt lat="45.5826" lon="6.71376">
        <ele>1231.23</ele>
        <time>2019-10-14T10:37:58.000Z</time>
      </trkpt>
      <trkpt lat="45.58263" lon="6.71404">
        <ele>1229.08</ele>
        <time>2019-10-14T10:38:03.000Z</time>
      </trkpt>
      <trkpt lat="45.58253" lon="6.71431">
        <ele>1228.5</ele>
        <time>2019-10-14T10:38:08.000Z</time>
      </trkpt>
      <trkpt lat="45.58248" lon="6.71453">
        <ele>1223.03</ele>
        <time>2019-10-14T10:38:13.000Z</time>
      </trkpt>
      <trkpt lat="45.58245" lon="6.71474">
        <ele>1223.07</ele>
        <time>2019-10-14T10:38:18.000Z</time>
      </trkpt>
      <trkpt lat="45.58234" lon="6.71505">
        <ele>1220.4</ele>
        <time>2019-10-14T10:38:23.000Z</time>
      </trkpt>
      <trkpt lat="45.58225" lon="6.71523">
        <ele>1217.28</ele>
        <time>2019-10-14T10:38:28.000Z</time>
      </trkpt>
      <trkpt lat="45.58222" lon="6.71538">
        <ele>1220.88</ele>
        <time>2019-10-14T10:39:12.000Z</time>
      </trkpt>
      <trkpt lat="45.58216" lon="6.71569">
        <ele>1219.68</ele>
        <time>2019-10-14T10:39:17.000Z</time>
      </trkpt>
      <trkpt lat="45.58217" lon="6.71614">
        <ele>1219.33</ele>
        <time>2019-10-14T10:39:22.000Z</time>
      </trkpt>
      <trkpt lat="45.58227" lon="6.71662">
        <ele>1218.82</ele>
        <time>2019-10-14T10:39:27.000Z</time>
      </trkpt>
      <trkpt lat="45.58241" lon="6.71705">
        <ele>1213.87</ele>
        <time>2019-10-14T10:39:32.000Z</time>
      </trkpt>
      <trkpt lat="45.58253" lon="6.71752">
        <ele>1213.86</ele>
        <time>2019-10-14T10:39:37.000Z</time>
      </trkpt>
      <trkpt lat="45.58254" lon="6.71806">
        <ele>1212.68</ele>
        <time>2019-10-14T10:39:42.000Z</time>
      </trkpt>
      <trkpt lat="45.58256" lon="6.71858">
        <ele>1210.47</ele>
        <time>2019-10-14T10:39:47.000Z</time>
      </trkpt>
      <trkpt lat="45.58269" lon="6.71912">
        <ele>1207.7</ele>
        <time>2019-10-14T10:39:52.000Z</time>
      </trkpt>
      <trkpt lat="45.58284" lon="6.71964">
        <ele>1207.97</ele>
        <time>2019-10-14T10:39:57.000Z</time>
      </trkpt>
      <trkpt lat="45.58297" lon="6.72019">
        <ele>1203.55</ele>
        <time>2019-10-14T10:40:02.000Z</time>
      </trkpt>
      <trkpt lat="45.58314" lon="6.72084">
        <ele>1204.12</ele>
        <time>2019-10-14T10:40:07.000Z</time>
      </trkpt>
      <trkpt lat="45.58329" lon="6.72142">
        <ele>1200.64</ele>
        <time>2019-10-14T10:40:12.000Z</time>
      </trkpt>
      <trkpt lat="45.58322" lon="6.72208">
        <ele>1200.51</ele>
        <time>2019-10-14T10:40:17.000Z</time>
      </trkpt>
      <trkpt lat="45.5833" lon="6.72268">
        <ele>1203.07</ele>
        <time>2019-10-14T10:40:22.000Z</time>
      </trkpt>
      <trkpt lat="45.58334" lon="6.72332">
        <ele>1203.02</ele>
        <time>2019-10-14T10:40:27.000Z</time>
      </trkpt>
      <trkpt lat="45.58324" lon="6.72394">
        <ele>1200.46</ele>
        <time>2019-10-14T10:40:32.000Z</time>
      </trkpt>
      <trkpt lat="45.58313" lon="6.72445">
        <ele>1196.42</ele>
        <time>2019-10-14T10:40:37.000Z</time>
      </trkpt>
      <trkpt lat="45.58338" lon="6.72475">
        <ele>1195</ele>
        <time>2019-10-14T10:40:42.000Z</time>
      </trkpt>
      <trkpt lat="45.58366" lon="6.72502">
        <ele>1191.1</ele>
        <time>2019-10-14T10:40:47.000Z</time>
      </trkpt>
      <trkpt lat="45.58387" lon="6.72548">
        <ele>1189.27</ele>
        <time>2019-10-14T10:40:52.000Z</time>
      </trkpt>
      <trkpt lat="45.58402" lon="6.72601">
        <ele>1190.1</ele>
        <time>2019-10-14T10:40:57.000Z</time>
      </trkpt>
      <trkpt lat="45.58424" lon="6.72645">
        <ele>1188.01</ele>
        <time>2019-10-14T10:41:02.000Z</time>
      </trkpt>
      <trkpt lat="45.58446" lon="6.72685">
        <ele>1187.38</ele>
        <time>2019-10-14T10:41:07.000Z</time>
      </trkpt>
      <trkpt lat="45.58466" lon="6.72732">
        <ele>1186.64</ele>
        <time>2019-10-14T10:41:12.000Z</time>
      </trkpt>
      <trkpt lat="45.58485" lon="6.72775">
        <ele>1181.99</ele>
        <time>2019-10-14T10:41:17.000Z</time>
      </trkpt>
      <trkpt lat="45.58515" lon="6.7281">
        <ele>1181.18</ele>
        <time>2019-10-14T10:41:22.000Z</time>
      </trkpt>
      <trkpt lat="45.58544" lon="6.72845">
        <ele>1182.78</ele>
        <time>2019-10-14T10:41:27.000Z</time>
      </trkpt>
      <trkpt lat="45.58555" lon="6.72894">
        <ele>1183.41</ele>
        <time>2019-10-14T10:41:32.000Z</time>
      </trkpt>
      <trkpt lat="45.58556" lon="6.72955">
        <ele>1183.89</ele>
        <time>2019-10-14T10:41:37.000Z</time>
      </trkpt>
      <trkpt lat="45.5858" lon="6.73002">
        <ele>1184.51</ele>
        <time>2019-10-14T10:41:42.000Z</time>
      </trkpt>
      <trkpt lat="45.5861" lon="6.73046">
        <ele>1178.56</ele>
        <time>2019-10-14T10:41:47.000Z</time>
      </trkpt>
      <trkpt lat="45.5863" lon="6.73086">
        <ele>1175.83</ele>
        <time>2019-10-14T10:41:52.000Z</time>
      </trkpt>
      <trkpt lat="45.58646" lon="6.7314">
        <ele>1175.98</ele>
        <time>2019-10-14T10:41:57.000Z</time>
      </trkpt>
      <trkpt lat="45.5866" lon="6.7318">
        <ele>1175.83</ele>
        <time>2019-10-14T10:42:02.000Z</time>
      </trkpt>
      <trkpt lat="45.58675" lon="6.73212">
        <ele>1172.15</ele>
        <time>2019-10-14T10:42:07.000Z</time>
      </trkpt>
      <trkpt lat="45.58696" lon="6.73241">
        <ele>1172.49</ele>
        <time>2019-10-14T10:42:12.000Z</time>
      </trkpt>
      <trkpt lat="45.58717" lon="6.73258">
        <ele>1171.85</ele>
        <time>2019-10-14T10:42:17.000Z</time>
      </trkpt>
      <trkpt lat="45.58745" lon="6.73274">
        <ele>1172.79</ele>
        <time>2019-10-14T10:42:22.000Z</time>
      </trkpt>
      <trkpt lat="45.58781" lon="6.7329">
        <ele>1173.07</ele>
        <time>2019-10-14T10:42:27.000Z</time>
      </trkpt>
      <trkpt lat="45.58804" lon="6.73303">
        <ele>1168.19</ele>
        <time>2019-10-14T10:42:32.000Z</time>
      </trkpt>
      <trkpt lat="45.58837" lon="6.73311">
        <ele>1166.16</ele>
        <time>2019-10-14T10:42:37.000Z</time>
      </trkpt>
      <trkpt lat="45.58871" lon="6.733">
        <ele>1164.53</ele>
        <time>2019-10-14T10:42:42.000Z</time>
      </trkpt>
      <trkpt lat="45.58898" lon="6.73313">
        <ele>1164.19</ele>
        <time>2019-10-14T10:42:47.000Z</time>
      </trkpt>
      <trkpt lat="45.58906" lon="6.73356">
        <ele>1166.08</ele>
        <time>2019-10-14T10:42:52.000Z</time>
      </trkpt>
      <trkpt lat="45.58928" lon="6.73375">
        <ele>1167.21</ele>
        <time>2019-10-14T10:42:57.000Z</time>
      </trkpt>
      <trkpt lat="45.58952" lon="6.73344">
        <ele>1166.24</ele>
        <time>2019-10-14T10:43:02.000Z</time>
      </trkpt>
      <trkpt lat="45.58981" lon="6.73324">
        <ele>1168.04</ele>
        <time>2019-10-14T10:43:07.000Z</time>
      </trkpt>
      <trkpt lat="45.58996" lon="6.73363">
        <ele>1169.54</ele>
        <time>2019-10-14T10:43:12.000Z</time>
      </trkpt>
      <trkpt lat="45.59006" lon="6.73396">
        <ele>1167.32</ele>
        <time>2019-10-14T10:43:17.000Z</time>
      </trkpt>
      <trkpt lat="45.59025" lon="6.73425">
        <ele>1172.45</ele>
        <time>2019-10-14T10:43:22.000Z</time>
      </trkpt>
      <trkpt lat="45.59046" lon="6.73452">
        <ele>1168.29</ele>
        <time>2019-10-14T10:43:27.000Z</time>
      </trkpt>
      <trkpt lat="45.59061" lon="6.73481">
        <ele>1169.65</ele>
        <time>2019-10-14T10:43:32.000Z</time>
      </trkpt>
      <trkpt lat="45.59088" lon="6.73499">
        <ele>1172.36</ele>
        <time>2019-10-14T10:43:37.000Z</time>
      </trkpt>
      <trkpt lat="45.59115" lon="6.73521">
        <ele>1175.82</ele>
        <time>2019-10-14T10:43:42.000Z</time>
      </trkpt>
      <trkpt lat="45.59134" lon="6.73551">
        <ele>1178.28</ele>
        <time>2019-10-14T10:43:47.000Z</time>
      </trkpt>
      <trkpt lat="45.59149" lon="6.73569">
        <ele>1180.09</ele>
        <time>2019-10-14T10:44:17.000Z</time>
      </trkpt>
      <trkpt lat="45.59179" lon="6.73599">
        <ele>1183.89</ele>
        <time>2019-10-14T10:44:22.000Z</time>
      </trkpt>
      <trkpt lat="45.59196" lon="6.73627">
        <ele>1184.02</ele>
        <time>2019-10-14T10:44:27.000Z</time>
      </trkpt>
      <trkpt lat="45.59206" lon="6.73653">
        <ele>1183.14</ele>
        <time>2019-10-14T10:44:32.000Z</time>
      </trkpt>
      <trkpt lat="45.5922" lon="6.73694">
        <ele>1182.27</ele>
        <time>2019-10-14T10:44:37.000Z</time>
      </trkpt>
      <trkpt lat="45.59222" lon="6.73737">
        <ele>1183</ele>
        <time>2019-10-14T10:44:42.000Z</time>
      </trkpt>
      <trkpt lat="45.5924" lon="6.73794">
        <ele>1183.87</ele>
        <time>2019-10-14T10:44:47.000Z</time>
      </trkpt>
      <trkpt lat="45.59265" lon="6.73822">
        <ele>1184.12</ele>
        <time>2019-10-14T10:44:52.000Z</time>
      </trkpt>
      <trkpt lat="45.59288" lon="6.73856">
        <ele>1177.48</ele>
        <time>2019-10-14T10:44:57.000Z</time>
      </trkpt>
      <trkpt lat="45.59318" lon="6.73899">
        <ele>1177.59</ele>
        <time>2019-10-14T10:45:02.000Z</time>
      </trkpt>
      <trkpt lat="45.59341" lon="6.73942">
        <ele>1176.87</ele>
        <time>2019-10-14T10:45:07.000Z</time>
      </trkpt>
      <trkpt lat="45.59366" lon="6.73976">
        <ele>1173.12</ele>
        <time>2019-10-14T10:45:12.000Z</time>
      </trkpt>
      <trkpt lat="45.59396" lon="6.74018">
        <ele>1168.49</ele>
        <time>2019-10-14T10:45:17.000Z</time>
      </trkpt>
      <trkpt lat="45.59438" lon="6.74055">
        <ele>1161.18</ele>
        <time>2019-10-14T10:45:22.000Z</time>
      </trkpt>
      <trkpt lat="45.59477" lon="6.74101">
        <ele>1158.17</ele>
        <time>2019-10-14T10:45:27.000Z</time>
      </trkpt>
      <trkpt lat="45.59518" lon="6.74143">
        <ele>1156.93</ele>
        <time>2019-10-14T10:45:32.000Z</time>
      </trkpt>
      <trkpt lat="45.59558" lon="6.74176">
        <ele>1147.79</ele>
        <time>2019-10-14T10:45:37.000Z</time>
      </trkpt>
      <trkpt lat="45.59608" lon="6.7422">
        <ele>1140.12</ele>
        <time>2019-10-14T10:45:42.000Z</time>
      </trkpt>
      <trkpt lat="45.59643" lon="6.74264">
        <ele>1137.21</ele>
        <time>2019-10-14T10:45:47.000Z</time>
      </trkpt>
      <trkpt lat="45.59687" lon="6.74245">
        <ele>1132.47</ele>
        <time>2019-10-14T10:45:52.000Z</time>
      </trkpt>
      <trkpt lat="45.59729" lon="6.74246">
        <ele>1127.63</ele>
        <time>2019-10-14T10:45:57.000Z</time>
      </trkpt>
      <trkpt lat="45.59749" lon="6.743">
        <ele>1122.94</ele>
        <time>2019-10-14T10:46:02.000Z</time>
      </trkpt>
      <trkpt lat="45.59775" lon="6.74345">
        <ele>1117.97</ele>
        <time>2019-10-14T10:46:07.000Z</time>
      </trkpt>
      <trkpt lat="45.59813" lon="6.74344">
        <ele>1112.94</ele>
        <time>2019-10-14T10:46:12.000Z</time>
      </trkpt>
      <trkpt lat="45.59859" lon="6.74363">
        <ele>1109.22</ele>
        <time>2019-10-14T10:46:17.000Z</time>
      </trkpt>
      <trkpt lat="45.599" lon="6.744">
        <ele>1111.07</ele>
        <time>2019-10-14T10:46:22.000Z</time>
      </trkpt>
      <trkpt lat="45.59947" lon="6.74424">
        <ele>1112.95</ele>
        <time>2019-10-14T10:46:27.000Z</time>
      </trkpt>
      <trkpt lat="45.60001" lon="6.74446">
        <ele>1103.99</ele>
        <time>2019-10-14T10:46:32.000Z</time>
      </trkpt>
      <trkpt lat="45.6005" lon="6.74479">
        <ele>1100.67</ele>
        <time>2019-10-14T10:46:37.000Z</time>
      </trkpt>
      <trkpt lat="45.601" lon="6.74521">
        <ele>1093.66</ele>
        <time>2019-10-14T10:46:42.000Z</time>
      </trkpt>
      <trkpt lat="45.60127" lon="6.74546">
        <ele>1091.16</ele>
        <time>2019-10-14T10:46:47.000Z</time>
      </trkpt>
      <trkpt lat="45.60162" lon="6.74561">
        <ele>1087.68</ele>
        <time>2019-10-14T10:46:52.000Z</time>
      </trkpt>
      <trkpt lat="45.60206" lon="6.74588">
        <ele>1085.4</ele>
        <time>2019-10-14T10:46:57.000Z</time>
      </trkpt>
      <trkpt lat="45.60233" lon="6.74652">
        <ele>1085.15</ele>
        <time>2019-10-14T10:47:02.000Z</time>
      </trkpt>
      <trkpt lat="45.60264" lon="6.74703">
        <ele>1086.68</ele>
        <time>2019-10-14T10:47:07.000Z</time>
      </trkpt>
      <trkpt lat="45.60303" lon="6.74733">
        <ele>1084.67</ele>
        <time>2019-10-14T10:47:12.000Z</time>
      </trkpt>
      <trkpt lat="45.60331" lon="6.74745">
        <ele>1082.36</ele>
        <time>2019-10-14T10:47:17.000Z</time>
      </trkpt>
      <trkpt lat="45.60365" lon="6.74756">
        <ele>1073.57</ele>
        <time>2019-10-14T10:47:22.000Z</time>
      </trkpt>
      <trkpt lat="45.60393" lon="6.7479">
        <ele>1075.81</ele>
        <time>2019-10-14T10:47:27.000Z</time>
      </trkpt>
      <trkpt lat="45.60425" lon="6.74807">
        <ele>1068.22</ele>
        <time>2019-10-14T10:47:32.000Z</time>
      </trkpt>
      <trkpt lat="45.60448" lon="6.74782">
        <ele>1065.15</ele>
        <time>2019-10-14T10:47:37.000Z</time>
      </trkpt>
      <trkpt lat="45.60462" lon="6.74737">
        <ele>1056.2</ele>
        <time>2019-10-14T10:47:42.000Z</time>
      </trkpt>
      <trkpt lat="45.60483" lon="6.7469">
        <ele>1050.84</ele>
        <time>2019-10-14T10:47:47.000Z</time>
      </trkpt>
      <trkpt lat="45.60507" lon="6.74646">
        <ele>1049.51</ele>
        <time>2019-10-14T10:47:52.000Z</time>
      </trkpt>
      <trkpt lat="45.60526" lon="6.7468">
        <ele>1049.43</ele>
        <time>2019-10-14T10:47:57.000Z</time>
      </trkpt>
      <trkpt lat="45.60541" lon="6.7473">
        <ele>1045.86</ele>
        <time>2019-10-14T10:48:02.000Z</time>
      </trkpt>
      <trkpt lat="45.60537" lon="6.74786">
        <ele>1043.9</ele>
        <time>2019-10-14T10:48:07.000Z</time>
      </trkpt>
      <trkpt lat="45.60529" lon="6.74852">
        <ele>1042.64</ele>
        <time>2019-10-14T10:48:12.000Z</time>
      </trkpt>
      <trkpt lat="45.60567" lon="6.74865">
        <ele>1044.25</ele>
        <time>2019-10-14T10:48:17.000Z</time>
      </trkpt>
      <trkpt lat="45.60616" lon="6.74898">
        <ele>1044.72</ele>
        <time>2019-10-14T10:48:22.000Z</time>
      </trkpt>
      <trkpt lat="45.60665" lon="6.74923">
        <ele>1042.09</ele>
        <time>2019-10-14T10:48:27.000Z</time>
      </trkpt>
      <trkpt lat="45.60712" lon="6.74958">
        <ele>1037.01</ele>
        <time>2019-10-14T10:48:32.000Z</time>
      </trkpt>
      <trkpt lat="45.60766" lon="6.74994">
        <ele>1037.82</ele>
        <time>2019-10-14T10:48:37.000Z</time>
      </trkpt>
      <trkpt lat="45.60801" lon="6.7503">
        <ele>1038.88</ele>
        <time>2019-10-14T10:48:42.000Z</time>
      </trkpt>
      <trkpt lat="45.60826" lon="6.75055">
        <ele>1035.39</ele>
        <time>2019-10-14T10:48:47.000Z</time>
      </trkpt>
      <trkpt lat="45.60853" lon="6.75099">
        <ele>1028.95</ele>
        <time>2019-10-14T10:48:52.000Z</time>
      </trkpt>
      <trkpt lat="45.60868" lon="6.75146">
        <ele>1027.98</ele>
        <time>2019-10-14T10:48:57.000Z</time>
      </trkpt>
      <trkpt lat="45.60879" lon="6.75195">
        <ele>1032.77</ele>
        <time>2019-10-14T10:49:02.000Z</time>
      </trkpt>
      <trkpt lat="45.60874" lon="6.75234">
        <ele>1034.44</ele>
        <time>2019-10-14T10:49:07.000Z</time>
      </trkpt>
      <trkpt lat="45.60858" lon="6.7524">
        <ele>1033.42</ele>
        <time>2019-10-14T10:49:12.000Z</time>
      </trkpt>
      <trkpt lat="45.60831" lon="6.75248">
        <ele>1029.75</ele>
        <time>2019-10-14T10:49:17.000Z</time>
      </trkpt>
      <trkpt lat="45.60794" lon="6.75249">
        <ele>1029.98</ele>
        <time>2019-10-14T10:49:22.000Z</time>
      </trkpt>
      <trkpt lat="45.60763" lon="6.75227">
        <ele>1026.93</ele>
        <time>2019-10-14T10:49:27.000Z</time>
      </trkpt>
      <trkpt lat="45.60733" lon="6.75217">
        <ele>1016.98</ele>
        <time>2019-10-14T10:49:32.000Z</time>
      </trkpt>
      <trkpt lat="45.607" lon="6.75255">
        <ele>1012.88</ele>
        <time>2019-10-14T10:49:37.000Z</time>
      </trkpt>
      <trkpt lat="45.60678" lon="6.75317">
        <ele>1007.37</ele>
        <time>2019-10-14T10:49:42.000Z</time>
      </trkpt>
      <trkpt lat="45.60672" lon="6.75389">
        <ele>1000.87</ele>
        <time>2019-10-14T10:49:47.000Z</time>
      </trkpt>
      <trkpt lat="45.6069" lon="6.75453">
        <ele>995.24</ele>
        <time>2019-10-14T10:49:52.000Z</time>
      </trkpt>
      <trkpt lat="45.60718" lon="6.75516">
        <ele>994.47</ele>
        <time>2019-10-14T10:49:57.000Z</time>
      </trkpt>
      <trkpt lat="45.60763" lon="6.75564">
        <ele>993.55</ele>
        <time>2019-10-14T10:50:02.000Z</time>
      </trkpt>
      <trkpt lat="45.60803" lon="6.75596">
        <ele>984.89</ele>
        <time>2019-10-14T10:50:07.000Z</time>
      </trkpt>
      <trkpt lat="45.60852" lon="6.75636">
        <ele>983.29</ele>
        <time>2019-10-14T10:50:12.000Z</time>
      </trkpt>
      <trkpt lat="45.60886" lon="6.75692">
        <ele>983.54</ele>
        <time>2019-10-14T10:50:17.000Z</time>
      </trkpt>
      <trkpt lat="45.60928" lon="6.7573">
        <ele>980.08</ele>
        <time>2019-10-14T10:50:22.000Z</time>
      </trkpt>
      <trkpt lat="45.60981" lon="6.75759">
        <ele>979.42</ele>
        <time>2019-10-14T10:50:27.000Z</time>
      </trkpt>
      <trkpt lat="45.61024" lon="6.75792">
        <ele>976.5</ele>
        <time>2019-10-14T10:50:32.000Z</time>
      </trkpt>
      <trkpt lat="45.61069" lon="6.75831">
        <ele>971.31</ele>
        <time>2019-10-14T10:50:37.000Z</time>
      </trkpt>
      <trkpt lat="45.61114" lon="6.7587">
        <ele>965.44</ele>
        <time>2019-10-14T10:50:42.000Z</time>
      </trkpt>
      <trkpt lat="45.61155" lon="6.75893">
        <ele>963.28</ele>
        <time>2019-10-14T10:50:47.000Z</time>
      </trkpt>
      <trkpt lat="45.61188" lon="6.75864">
        <ele>960.72</ele>
        <time>2019-10-14T10:50:52.000Z</time>
      </trkpt>
      <trkpt lat="45.61221" lon="6.75827">
        <ele>959.49</ele>
        <time>2019-10-14T10:50:57.000Z</time>
      </trkpt>
      <trkpt lat="45.61273" lon="6.75783">
        <ele>953.85</ele>
        <time>2019-10-14T10:51:02.000Z</time>
      </trkpt>
      <trkpt lat="45.61328" lon="6.75759">
        <ele>949.33</ele>
        <time>2019-10-14T10:51:07.000Z</time>
      </trkpt>
      <trkpt lat="45.61378" lon="6.75727">
        <ele>947.32</ele>
        <time>2019-10-14T10:51:12.000Z</time>
      </trkpt>
      <trkpt lat="45.61427" lon="6.75697">
        <ele>945.47</ele>
        <time>2019-10-14T10:51:17.000Z</time>
      </trkpt>
      <trkpt lat="45.6148" lon="6.75724">
        <ele>946.06</ele>
        <time>2019-10-14T10:51:22.000Z</time>
      </trkpt>
      <trkpt lat="45.61518" lon="6.75744">
        <ele>940.76</ele>
        <time>2019-10-14T10:51:27.000Z</time>
      </trkpt>
      <trkpt lat="45.61522" lon="6.75789">
        <ele>933.33</ele>
        <time>2019-10-14T10:51:32.000Z</time>
      </trkpt>
      <trkpt lat="45.61503" lon="6.75813">
        <ele>928.17</ele>
        <time>2019-10-14T10:51:37.000Z</time>
      </trkpt>
      <trkpt lat="45.61487" lon="6.7586">
        <ele>924.49</ele>
        <time>2019-10-14T10:51:42.000Z</time>
      </trkpt>
      <trkpt lat="45.61464" lon="6.75918">
        <ele>919.81</ele>
        <time>2019-10-14T10:51:47.000Z</time>
      </trkpt>
      <trkpt lat="45.61442" lon="6.75991">
        <ele>915.23</ele>
        <time>2019-10-14T10:51:52.000Z</time>
      </trkpt>
      <trkpt lat="45.61409" lon="6.76054">
        <ele>913.12</ele>
        <time>2019-10-14T10:51:57.000Z</time>
      </trkpt>
      <trkpt lat="45.61367" lon="6.76123">
        <ele>908.49</ele>
        <time>2019-10-14T10:52:02.000Z</time>
      </trkpt>
      <trkpt lat="45.61342" lon="6.76168">
        <ele>906.53</ele>
        <time>2019-10-14T10:52:07.000Z</time>
      </trkpt>
      <trkpt lat="45.61351" lon="6.76182">
        <ele>904.94</ele>
        <time>2019-10-14T10:52:12.000Z</time>
      </trkpt>
      <trkpt lat="45.61361" lon="6.76186">
        <ele>898.38</ele>
        <time>2019-10-14T10:52:17.000Z</time>
      </trkpt>
      <trkpt lat="45.61377" lon="6.7619">
        <ele>896.31</ele>
        <time>2019-10-14T10:52:22.000Z</time>
      </trkpt>
      <trkpt lat="45.61387" lon="6.76186">
        <ele>897.4</ele>
        <time>2019-10-14T10:52:28.000Z</time>
      </trkpt>
      <trkpt lat="45.61408" lon="6.76188">
        <ele>895.98</ele>
        <time>2019-10-14T10:52:33.000Z</time>
      </trkpt>
      <trkpt lat="45.61438" lon="6.76217">
        <ele>895.8</ele>
        <time>2019-10-14T10:52:38.000Z</time>
      </trkpt>
      <trkpt lat="45.61465" lon="6.76233">
        <ele>894.89</ele>
        <time>2019-10-14T10:52:43.000Z</time>
      </trkpt>
      <trkpt lat="45.61488" lon="6.76235">
        <ele>899.48</ele>
        <time>2019-10-14T10:52:48.000Z</time>
      </trkpt>
      <trkpt lat="45.61511" lon="6.7624">
        <ele>897.48</ele>
        <time>2019-10-14T10:52:53.000Z</time>
      </trkpt>
      <trkpt lat="45.61526" lon="6.76283">
        <ele>893.05</ele>
        <time>2019-10-14T10:52:58.000Z</time>
      </trkpt>
      <trkpt lat="45.61522" lon="6.76333">
        <ele>890.27</ele>
        <time>2019-10-14T10:53:03.000Z</time>
      </trkpt>
      <trkpt lat="45.61516" lon="6.76382">
        <ele>889.73</ele>
        <time>2019-10-14T10:53:08.000Z</time>
      </trkpt>
      <trkpt lat="45.615" lon="6.76428">
        <ele>887.82</ele>
        <time>2019-10-14T10:53:13.000Z</time>
      </trkpt>
      <trkpt lat="45.61484" lon="6.76475">
        <ele>880.47</ele>
        <time>2019-10-14T10:53:18.000Z</time>
      </trkpt>
      <trkpt lat="45.61488" lon="6.76506">
        <ele>881.67</ele>
        <time>2019-10-14T10:53:23.000Z</time>
      </trkpt>
      <trkpt lat="45.61508" lon="6.76541">
        <ele>883.17</ele>
        <time>2019-10-14T10:53:28.000Z</time>
      </trkpt>
      <trkpt lat="45.61545" lon="6.76555">
        <ele>883.16</ele>
        <time>2019-10-14T10:53:33.000Z</time>
      </trkpt>
      <trkpt lat="45.61573" lon="6.7659">
        <ele>880.63</ele>
        <time>2019-10-14T10:53:38.000Z</time>
      </trkpt>
      <trkpt lat="45.61585" lon="6.76619">
        <ele>875.07</ele>
        <time>2019-10-14T10:53:43.000Z</time>
      </trkpt>
      <trkpt lat="45.61594" lon="6.76651">
        <ele>869.53</ele>
        <time>2019-10-14T10:53:48.000Z</time>
      </trkpt>
      <trkpt lat="45.61596" lon="6.76673">
        <ele>863.16</ele>
        <time>2019-10-14T10:53:53.000Z</time>
      </trkpt>
      <trkpt lat="45.61597" lon="6.76686">
        <ele>851.41</ele>
        <time>2019-10-14T10:55:04.000Z</time>
      </trkpt>
      <trkpt lat="45.61605" lon="6.7668">
        <ele>850.44</ele>
        <time>2019-10-14T10:55:09.000Z</time>
      </trkpt>
      <trkpt lat="45.61618" lon="6.76678">
        <ele>851.63</ele>
        <time>2019-10-14T10:55:14.000Z</time>
      </trkpt>
      <trkpt lat="45.61644" lon="6.76682">
        <ele>847.1</ele>
        <time>2019-10-14T10:55:19.000Z</time>
      </trkpt>
      <trkpt lat="45.61672" lon="6.76695">
        <ele>846.85</ele>
        <time>2019-10-14T10:55:24.000Z</time>
      </trkpt>
      <trkpt lat="45.61689" lon="6.7671">
        <ele>847.96</ele>
        <time>2019-10-14T10:55:29.000Z</time>
      </trkpt>
      <trkpt lat="45.61684" lon="6.7673">
        <ele>850.36</ele>
        <time>2019-10-14T10:55:34.000Z</time>
      </trkpt>
      <trkpt lat="45.6167" lon="6.76751">
        <ele>850.3</ele>
        <time>2019-10-14T10:55:39.000Z</time>
      </trkpt>
      <trkpt lat="45.61656" lon="6.76774">
        <ele>851.97</ele>
        <time>2019-10-14T10:55:44.000Z</time>
      </trkpt>
      <trkpt lat="45.61679" lon="6.76793">
        <ele>848.42</ele>
        <time>2019-10-14T10:55:49.000Z</time>
      </trkpt>
      <trkpt lat="45.61704" lon="6.76815">
        <ele>846.74</ele>
        <time>2019-10-14T10:55:54.000Z</time>
      </trkpt>
      <trkpt lat="45.61727" lon="6.76834">
        <ele>845.44</ele>
        <time>2019-10-14T10:55:59.000Z</time>
      </trkpt>
      <trkpt lat="45.61745" lon="6.76852">
        <ele>847.34</ele>
        <time>2019-10-14T10:56:04.000Z</time>
      </trkpt>
      <trkpt lat="45.61768" lon="6.76875">
        <ele>844.31</ele>
        <time>2019-10-14T10:56:09.000Z</time>
      </trkpt>
      <trkpt lat="45.61791" lon="6.76906">
        <ele>841.65</ele>
        <time>2019-10-14T10:56:14.000Z</time>
      </trkpt>
      <trkpt lat="45.61789" lon="6.76937">
        <ele>836.21</ele>
        <time>2019-10-14T10:56:19.000Z</time>
      </trkpt>
      <trkpt lat="45.61784" lon="6.76953">
        <ele>831.84</ele>
        <time>2019-10-14T10:56:24.000Z</time>
      </trkpt>
      <trkpt lat="45.61786" lon="6.76968">
        <ele>830.45</ele>
        <time>2019-10-14T10:56:30.000Z</time>
      </trkpt>
      <trkpt lat="45.61801" lon="6.76977">
        <ele>830.97</ele>
        <time>2019-10-14T10:56:35.000Z</time>
      </trkpt>
      <trkpt lat="45.61827" lon="6.76974">
        <ele>830.79</ele>
        <time>2019-10-14T10:56:40.000Z</time>
      </trkpt>
      <trkpt lat="45.61842" lon="6.76989">
        <ele>830.33</ele>
        <time>2019-10-14T10:56:45.000Z</time>
      </trkpt>
      <trkpt lat="45.6185" lon="6.77026">
        <ele>826.65</ele>
        <time>2019-10-14T10:56:50.000Z</time>
      </trkpt>
      <trkpt lat="45.61847" lon="6.77069">
        <ele>824.24</ele>
        <time>2019-10-14T10:56:55.000Z</time>
      </trkpt>
      <trkpt lat="45.61841" lon="6.77081">
        <ele>823.17</ele>
        <time>2019-10-14T10:57:00.000Z</time>
      </trkpt>
      <trkpt lat="45.61852" lon="6.77089">
        <ele>823.41</ele>
        <time>2019-10-14T10:57:05.000Z</time>
      </trkpt>
      <trkpt lat="45.61874" lon="6.77093">
        <ele>824.15</ele>
        <time>2019-10-14T10:57:10.000Z</time>
      </trkpt>
      <trkpt lat="45.61898" lon="6.77092">
        <ele>822.07</ele>
        <time>2019-10-14T10:57:15.000Z</time>
      </trkpt>
      <trkpt lat="45.61921" lon="6.7709">
        <ele>822.66</ele>
        <time>2019-10-14T10:57:20.000Z</time>
      </trkpt>
      <trkpt lat="45.61941" lon="6.77094">
        <ele>818.16</ele>
        <time>2019-10-14T10:57:25.000Z</time>
      </trkpt>
      <trkpt lat="45.61963" lon="6.77098">
        <ele>815.3</ele>
        <time>2019-10-14T10:57:30.000Z</time>
      </trkpt>
      <trkpt lat="45.61987" lon="6.77102">
        <ele>814.78</ele>
        <time>2019-10-14T10:57:35.000Z</time>
      </trkpt>
      <trkpt lat="45.62013" lon="6.77114">
        <ele>815.76</ele>
        <time>2019-10-14T10:57:40.000Z</time>
      </trkpt>
      <trkpt lat="45.62015" lon="6.77143">
        <ele>817.48</ele>
        <time>2019-10-14T10:57:45.000Z</time>
      </trkpt>
      <trkpt lat="45.62004" lon="6.77175">
        <ele>815.45</ele>
        <time>2019-10-14T10:57:50.000Z</time>
      </trkpt>
      <trkpt lat="45.61976" lon="6.77195">
        <ele>810.54</ele>
        <time>2019-10-14T10:57:55.000Z</time>
      </trkpt>
      <trkpt lat="45.6195" lon="6.77218">
        <ele>811.45</ele>
        <time>2019-10-14T10:58:00.000Z</time>
      </trkpt>
      <trkpt lat="45.61924" lon="6.77239">
        <ele>809.3</ele>
        <time>2019-10-14T10:58:05.000Z</time>
      </trkpt>
      <trkpt lat="45.61907" lon="6.77265">
        <ele>809.58</ele>
        <time>2019-10-14T10:58:10.000Z</time>
      </trkpt>
      <trkpt lat="45.61902" lon="6.77281">
        <ele>808.16</ele>
        <time>2019-10-14T10:58:15.000Z</time>
      </trkpt>
      <trkpt lat="45.61907" lon="6.77297">
        <ele>805.92</ele>
        <time>2019-10-14T10:58:20.000Z</time>
      </trkpt>
      <trkpt lat="45.61922" lon="6.77308">
        <ele>808.33</ele>
        <time>2019-10-14T10:58:25.000Z</time>
      </trkpt>
      <trkpt lat="45.61935" lon="6.77318">
        <ele>809.46</ele>
        <time>2019-10-14T10:58:30.000Z</time>
      </trkpt>
      <trkpt lat="45.61948" lon="6.77335">
        <ele>807.92</ele>
        <time>2019-10-14T10:58:35.000Z</time>
      </trkpt>
      <trkpt lat="45.61965" lon="6.77361">
        <ele>808.5</ele>
        <time>2019-10-14T10:58:40.000Z</time>
      </trkpt>
      <trkpt lat="45.61975" lon="6.77382">
        <ele>808.96</ele>
        <time>2019-10-14T10:58:45.000Z</time>
      </trkpt>
      <trkpt lat="45.61972" lon="6.77402">
        <ele>810.61</ele>
        <time>2019-10-14T10:58:50.000Z</time>
      </trkpt>
      <trkpt lat="45.61959" lon="6.77422">
        <ele>811.7</ele>
        <time>2019-10-14T10:58:55.000Z</time>
      </trkpt>
      <trkpt lat="45.61946" lon="6.77445">
        <ele>809.55</ele>
        <time>2019-10-14T10:59:00.000Z</time>
      </trkpt>
      <trkpt lat="45.6195" lon="6.77464">
        <ele>810.03</ele>
        <time>2019-10-14T10:59:05.000Z</time>
      </trkpt>
      <trkpt lat="45.61958" lon="6.77472">
        <ele>809.1</ele>
        <time>2019-10-14T10:59:10.000Z</time>
      </trkpt>
      <trkpt lat="45.61951" lon="6.77461">
        <ele>809.3</ele>
        <time>2019-10-14T10:59:19.000Z</time>
      </trkpt>
      <trkpt lat="45.61958" lon="6.77429">
        <ele>809.86</ele>
        <time>2019-10-14T10:59:24.000Z</time>
      </trkpt>
      <trkpt lat="45.61976" lon="6.77402">
        <ele>809.71</ele>
        <time>2019-10-14T10:59:29.000Z</time>
      </trkpt>
      <trkpt lat="45.61991" lon="6.7737">
        <ele>807.94</ele>
        <time>2019-10-14T10:59:34.000Z</time>
      </trkpt>
      <trkpt lat="45.62007" lon="6.77346">
        <ele>807.57</ele>
        <time>2019-10-14T10:59:39.000Z</time>
      </trkpt>
      <trkpt lat="45.62024" lon="6.7732">
        <ele>808.11</ele>
        <time>2019-10-14T10:59:44.000Z</time>
      </trkpt>
      <trkpt lat="45.62039" lon="6.77298">
        <ele>810.64</ele>
        <time>2019-10-14T10:59:49.000Z</time>
      </trkpt>
      <trkpt lat="45.62054" lon="6.77272">
        <ele>812.19</ele>
        <time>2019-10-14T10:59:54.000Z</time>
      </trkpt>
      <trkpt lat="45.62062" lon="6.77239">
        <ele>812.78</ele>
        <time>2019-10-14T10:59:59.000Z</time>
      </trkpt>
      <trkpt lat="45.62065" lon="6.77207">
        <ele>812.75</ele>
        <time>2019-10-14T11:00:04.000Z</time>
      </trkpt>
      <trkpt lat="45.62063" lon="6.77195">
        <ele>816.37</ele>
        <time>2019-10-14T11:00:09.000Z</time>
      </trkpt>
      <trkpt lat="45.62071" lon="6.77202">
        <ele>828.26</ele>
        <time>2019-10-14T11:01:06.000Z</time>
      </trkpt>
      <trkpt lat="45.6209" lon="6.77241">
        <ele>828.68</ele>
        <time>2019-10-14T11:01:11.000Z</time>
      </trkpt>
      <trkpt lat="45.62106" lon="6.77272">
        <ele>828.33</ele>
        <time>2019-10-14T11:01:16.000Z</time>
      </trkpt>
      <trkpt lat="45.62122" lon="6.77318">
        <ele>827</ele>
        <time>2019-10-14T11:01:21.000Z</time>
      </trkpt>
      <trkpt lat="45.62137" lon="6.77359">
        <ele>823.52</ele>
        <time>2019-10-14T11:01:26.000Z</time>
      </trkpt>
      <trkpt lat="45.62149" lon="6.77398">
        <ele>821.27</ele>
        <time>2019-10-14T11:01:31.000Z</time>
      </trkpt>
      <trkpt lat="45.62164" lon="6.77443">
        <ele>820.45</ele>
        <time>2019-10-14T11:01:36.000Z</time>
      </trkpt>
      <trkpt lat="45.62176" lon="6.77477">
        <ele>818.79</ele>
        <time>2019-10-14T11:01:41.000Z</time>
      </trkpt>
      <trkpt lat="45.62191" lon="6.77515">
        <ele>817.63</ele>
        <time>2019-10-14T11:01:46.000Z</time>
      </trkpt>
      <trkpt lat="45.62208" lon="6.77554">
        <ele>819.28</ele>
        <time>2019-10-14T11:01:51.000Z</time>
      </trkpt>
      <trkpt lat="45.62225" lon="6.77589">
        <ele>816.25</ele>
        <time>2019-10-14T11:01:56.000Z</time>
      </trkpt>
      <trkpt lat="45.6224" lon="6.77621">
        <ele>815.95</ele>
        <time>2019-10-14T11:02:01.000Z</time>
      </trkpt>
      <trkpt lat="45.62256" lon="6.77649">
        <ele>817.06</ele>
        <time>2019-10-14T11:02:06.000Z</time>
      </trkpt>
      <trkpt lat="45.62272" lon="6.77686">
        <ele>814.51</ele>
        <time>2019-10-14T11:02:11.000Z</time>
      </trkpt>
      <trkpt lat="45.62287" lon="6.77722">
        <ele>814.32</ele>
        <time>2019-10-14T11:02:16.000Z</time>
      </trkpt>
      <trkpt lat="45.62296" lon="6.77758">
        <ele>811.91</ele>
        <time>2019-10-14T11:02:21.000Z</time>
      </trkpt>
      <trkpt lat="45.62316" lon="6.77794">
        <ele>814.15</ele>
        <time>2019-10-14T11:02:26.000Z</time>
      </trkpt>
      <trkpt lat="45.62325" lon="6.77827">
        <ele>812.88</ele>
        <time>2019-10-14T11:02:31.000Z</time>
      </trkpt>
      <trkpt lat="45.6233" lon="6.77863">
        <ele>813.43</ele>
        <time>2019-10-14T11:02:36.000Z</time>
      </trkpt>
      <trkpt lat="45.62328" lon="6.77899">
        <ele>813.55</ele>
        <time>2019-10-14T11:02:41.000Z</time>
      </trkpt>
      <trkpt lat="45.62322" lon="6.7793">
        <ele>814.42</ele>
        <time>2019-10-14T11:02:46.000Z</time>
      </trkpt>
      <trkpt lat="45.62321" lon="6.77955">
        <ele>815.75</ele>
        <time>2019-10-14T11:02:51.000Z</time>
      </trkpt>
      <trkpt lat="45.62323" lon="6.77988">
        <ele>815.89</ele>
        <time>2019-10-14T11:02:56.000Z</time>
      </trkpt>
      <trkpt lat="45.62324" lon="6.78019">
        <ele>814.23</ele>
        <time>2019-10-14T11:03:01.000Z</time>
      </trkpt>
      <trkpt lat="45.62332" lon="6.78023">
        <ele>813.9</ele>
        <time>2019-10-14T11:03:15.000Z</time>
      </trkpt>
      <trkpt lat="45.62341" lon="6.78028">
        <ele>808.25</ele>
        <time>2019-10-14T11:03:23.000Z</time>
      </trkpt>
      <trkpt lat="45.62347" lon="6.78041">
        <ele>812.62</ele>
        <time>2019-10-14T11:03:40.000Z</time>
      </trkpt>
      <trkpt lat="45.62363" lon="6.78082">
        <ele>815.05</ele>
        <time>2019-10-14T11:03:45.000Z</time>
      </trkpt>
      <trkpt lat="45.62378" lon="6.78112">
        <ele>817.16</ele>
        <time>2019-10-14T11:03:50.000Z</time>
      </trkpt>
      <trkpt lat="45.62393" lon="6.78135">
        <ele>817.41</ele>
        <time>2019-10-14T11:03:55.000Z</time>
      </trkpt>
      <trkpt lat="45.62402" lon="6.7815">
        <ele>826.16</ele>
        <time>2019-10-14T11:04:00.000Z</time>
      </trkpt>
      <trkpt lat="45.62413" lon="6.78143">
        <ele>830.43</ele>
        <time>2019-10-14T11:04:06.000Z</time>
      </trkpt>
      <trkpt lat="45.62427" lon="6.7812">
        <ele>826.09</ele>
        <time>2019-10-14T11:04:11.000Z</time>
      </trkpt>
      <trkpt lat="45.6244" lon="6.78107">
        <ele>826.78</ele>
        <time>2019-10-14T11:04:16.000Z</time>
      </trkpt>
      <trkpt lat="45.62432" lon="6.78116">
        <ele>830.56</ele>
        <time>2019-10-14T11:04:28.000Z</time>
      </trkpt>
      <trkpt lat="45.6242" lon="6.78134">
        <ele>830.62</ele>
        <time>2019-10-14T11:04:33.000Z</time>
      </trkpt>
      <trkpt lat="45.62413" lon="6.78153">
        <ele>826.02</ele>
        <time>2019-10-14T11:04:38.000Z</time>
      </trkpt>
      <trkpt lat="45.62421" lon="6.78172">
        <ele>828.29</ele>
        <time>2019-10-14T11:04:43.000Z</time>
      </trkpt>
      <trkpt lat="45.62437" lon="6.78192">
        <ele>826.38</ele>
        <time>2019-10-14T11:04:48.000Z</time>
      </trkpt>
      <trkpt lat="45.62443" lon="6.78202">
        <ele>824.93</ele>
        <time>2019-10-14T11:04:53.000Z</time>
      </trkpt>
      <trkpt lat="45.62438" lon="6.78191">
        <ele>821.74</ele>
        <time>2019-10-14T11:05:00.000Z</time>
      </trkpt>
      <trkpt lat="45.62424" lon="6.78172">
        <ele>819.32</ele>
        <time>2019-10-14T11:05:05.000Z</time>
      </trkpt>
      <trkpt lat="45.62412" lon="6.78159">
        <ele>822.45</ele>
        <time>2019-10-14T11:05:10.000Z</time>
      </trkpt>
      <trkpt lat="45.62414" lon="6.78146">
        <ele>823.02</ele>
        <time>2019-10-14T11:05:17.000Z</time>
      </trkpt>
      <trkpt lat="45.62428" lon="6.78122">
        <ele>821.64</ele>
        <time>2019-10-14T11:05:22.000Z</time>
      </trkpt>
      <trkpt lat="45.62441" lon="6.781">
        <ele>819.92</ele>
        <time>2019-10-14T11:05:27.000Z</time>
      </trkpt>
      <trkpt lat="45.62453" lon="6.78095">
        <ele>817.76</ele>
        <time>2019-10-14T11:05:32.000Z</time>
      </trkpt>
      <trkpt lat="45.62448" lon="6.78084">
        <ele>814.5</ele>
        <time>2019-10-14T11:05:37.000Z</time>
      </trkpt>
      <trkpt lat="45.62434" lon="6.78066">
        <ele>813.71</ele>
        <time>2019-10-14T11:05:42.000Z</time>
      </trkpt>
      <trkpt lat="45.6242" lon="6.78042">
        <ele>815.52</ele>
        <time>2019-10-14T11:05:47.000Z</time>
      </trkpt>
      <trkpt lat="45.62408" lon="6.78035">
        <ele>815.67</ele>
        <time>2019-10-14T11:05:52.000Z</time>
      </trkpt>
      <trkpt lat="45.62386" lon="6.78053">
        <ele>815.29</ele>
        <time>2019-10-14T11:05:57.000Z</time>
      </trkpt>
      <trkpt lat="45.62367" lon="6.78067">
        <ele>814.27</ele>
        <time>2019-10-14T11:06:02.000Z</time>
      </trkpt>
      <trkpt lat="45.6236" lon="6.78053">
        <ele>816.06</ele>
        <time>2019-10-14T11:06:07.000Z</time>
      </trkpt>
      <trkpt lat="45.62352" lon="6.7803">
        <ele>811.8</ele>
        <time>2019-10-14T11:06:12.000Z</time>
      </trkpt>
      <trkpt lat="45.62339" lon="6.78007">
        <ele>811.35</ele>
        <time>2019-10-14T11:06:17.000Z</time>
      </trkpt>
      <trkpt lat="45.62331" lon="6.77974">
        <ele>808.73</ele>
        <time>2019-10-14T11:06:22.000Z</time>
      </trkpt>
      <trkpt lat="45.62333" lon="6.77933">
        <ele>810.72</ele>
        <time>2019-10-14T11:06:27.000Z</time>
      </trkpt>
      <trkpt lat="45.62335" lon="6.7789">
        <ele>809.49</ele>
        <time>2019-10-14T11:06:32.000Z</time>
      </trkpt>
      <trkpt lat="45.62354" lon="6.77855">
        <ele>808.16</ele>
        <time>2019-10-14T11:06:37.000Z</time>
      </trkpt>
      <trkpt lat="45.62344" lon="6.77824">
        <ele>814.03</ele>
        <time>2019-10-14T11:06:42.000Z</time>
      </trkpt>
      <trkpt lat="45.62323" lon="6.77788">
        <ele>817.97</ele>
        <time>2019-10-14T11:06:47.000Z</time>
      </trkpt>
      <trkpt lat="45.62306" lon="6.77746">
        <ele>818.08</ele>
        <time>2019-10-14T11:06:52.000Z</time>
      </trkpt>
      <trkpt lat="45.62293" lon="6.77708">
        <ele>817.67</ele>
        <time>2019-10-14T11:06:57.000Z</time>
      </trkpt>
      <trkpt lat="45.62273" lon="6.77668">
        <ele>813.54</ele>
        <time>2019-10-14T11:07:02.000Z</time>
      </trkpt>
      <trkpt lat="45.62258" lon="6.77638">
        <ele>809.35</ele>
        <time>2019-10-14T11:07:07.000Z</time>
      </trkpt>
      <trkpt lat="45.62245" lon="6.77609">
        <ele>809.1</ele>
        <time>2019-10-14T11:07:12.000Z</time>
      </trkpt>
      <trkpt lat="45.62229" lon="6.77573">
        <ele>809.42</ele>
        <time>2019-10-14T11:07:17.000Z</time>
      </trkpt>
      <trkpt lat="45.6221" lon="6.77536">
        <ele>810.12</ele>
        <time>2019-10-14T11:07:22.000Z</time>
      </trkpt>
      <trkpt lat="45.62191" lon="6.77495">
        <ele>810.86</ele>
        <time>2019-10-14T11:07:27.000Z</time>
      </trkpt>
      <trkpt lat="45.62172" lon="6.77451">
        <ele>809.9</ele>
        <time>2019-10-14T11:07:32.000Z</time>
      </trkpt>
      <trkpt lat="45.62159" lon="6.77414">
        <ele>808.49</ele>
        <time>2019-10-14T11:07:37.000Z</time>
      </trkpt>
      <trkpt lat="45.62166" lon="6.77405">
        <ele>813.59</ele>
        <time>2019-10-14T11:09:31.000Z</time>
      </trkpt>
      <trkpt lat="45.62173" lon="6.77415">
        <ele>817.53</ele>
        <time>2019-10-14T11:12:32.000Z</time>
      </trkpt>
      <trkpt lat="45.62163" lon="6.77408">
        <ele>817.12</ele>
        <time>2019-10-14T11:12:42.000Z</time>
      </trkpt>
      <trkpt lat="45.62151" lon="6.77399">
        <ele>816.94</ele>
        <time>2019-10-14T11:12:47.000Z</time>
      </trkpt>
      <trkpt lat="45.62142" lon="6.77385">
        <ele>816.77</ele>
        <time>2019-10-14T11:12:52.000Z</time>
      </trkpt>
      <trkpt lat="45.62167" lon="6.77416">
        <ele>816.5</ele>
        <time>2019-10-14T11:13:16.000Z</time>
      </trkpt>
      <trkpt lat="45.62148" lon="6.7743">
        <ele>808.04</ele>
        <time>2019-10-14T11:13:57.000Z</time>
      </trkpt>
      <trkpt lat="45.62157" lon="6.77423">
        <ele>810.33</ele>
        <time>2019-10-14T11:14:06.000Z</time>
      </trkpt>
      <trkpt lat="45.62151" lon="6.77433">
        <ele>809.07</ele>
        <time>2019-10-14T11:14:18.000Z</time>
      </trkpt>
      <trkpt lat="45.62162" lon="6.77421">
        <ele>818.37</ele>
        <time>2019-10-14T11:19:09.000Z</time>
      </trkpt>
      <trkpt lat="45.62155" lon="6.77432">
        <ele>809.76</ele>
        <time>2019-10-14T11:19:36.000Z</time>
      </trkpt>
      <trkpt lat="45.62157" lon="6.77419">
        <ele>832.06</ele>
        <time>2019-10-14T12:10:49.000Z</time>
      </trkpt>
      <trkpt lat="45.62163" lon="6.77407">
        <ele>826.37</ele>
        <time>2019-10-14T12:10:55.000Z</time>
      </trkpt>
      <trkpt lat="45.62171" lon="6.774">
        <ele>814.15</ele>
        <time>2019-10-14T12:11:38.000Z</time>
      </trkpt>
      <trkpt lat="45.62164" lon="6.77409">
        <ele>811.48</ele>
        <time>2019-10-14T12:13:40.000Z</time>
      </trkpt>
      <trkpt lat="45.62157" lon="6.77417">
        <ele>813.09</ele>
        <time>2019-10-14T12:13:47.000Z</time>
      </trkpt>
      <trkpt lat="45.62161" lon="6.77429">
        <ele>812.38</ele>
        <time>2019-10-14T12:14:23.000Z</time>
      </trkpt>
      <trkpt lat="45.62168" lon="6.77442">
        <ele>810.99</ele>
        <time>2019-10-14T12:14:28.000Z</time>
      </trkpt>
      <trkpt lat="45.62175" lon="6.7746">
        <ele>813.47</ele>
        <time>2019-10-14T12:14:33.000Z</time>
      </trkpt>
      <trkpt lat="45.62183" lon="6.77481">
        <ele>817.32</ele>
        <time>2019-10-14T12:14:38.000Z</time>
      </trkpt>
      <trkpt lat="45.62191" lon="6.77503">
        <ele>815.49</ele>
        <time>2019-10-14T12:14:43.000Z</time>
      </trkpt>
      <trkpt lat="45.62201" lon="6.77526">
        <ele>816.04</ele>
        <time>2019-10-14T12:14:48.000Z</time>
      </trkpt>
      <trkpt lat="45.62214" lon="6.77549">
        <ele>816.12</ele>
        <time>2019-10-14T12:14:53.000Z</time>
      </trkpt>
      <trkpt lat="45.62225" lon="6.77572">
        <ele>815.39</ele>
        <time>2019-10-14T12:14:58.000Z</time>
      </trkpt>
      <trkpt lat="45.62235" lon="6.77595">
        <ele>815.12</ele>
        <time>2019-10-14T12:15:03.000Z</time>
      </trkpt>
      <trkpt lat="45.62246" lon="6.77618">
        <ele>812.93</ele>
        <time>2019-10-14T12:15:08.000Z</time>
      </trkpt>
      <trkpt lat="45.62258" lon="6.77642">
        <ele>814.9</ele>
        <time>2019-10-14T12:15:13.000Z</time>
      </trkpt>
      <trkpt lat="45.62269" lon="6.77664">
        <ele>814.87</ele>
        <time>2019-10-14T12:15:18.000Z</time>
      </trkpt>
      <trkpt lat="45.6228" lon="6.77686">
        <ele>816.61</ele>
        <time>2019-10-14T12:15:23.000Z</time>
      </trkpt>
      <trkpt lat="45.62292" lon="6.77708">
        <ele>819.22</ele>
        <time>2019-10-14T12:15:28.000Z</time>
      </trkpt>
      <trkpt lat="45.62302" lon="6.77731">
        <ele>817.75</ele>
        <time>2019-10-14T12:15:33.000Z</time>
      </trkpt>
      <trkpt lat="45.6231" lon="6.77755">
        <ele>817.01</ele>
        <time>2019-10-14T12:15:38.000Z</time>
      </trkpt>
      <trkpt lat="45.62319" lon="6.77779">
        <ele>816.93</ele>
        <time>2019-10-14T12:15:43.000Z</time>
      </trkpt>
      <trkpt lat="45.62328" lon="6.77803">
        <ele>817.17</ele>
        <time>2019-10-14T12:15:48.000Z</time>
      </trkpt>
      <trkpt lat="45.62334" lon="6.77828">
        <ele>815.32</ele>
        <time>2019-10-14T12:15:53.000Z</time>
      </trkpt>
      <trkpt lat="45.62337" lon="6.77852">
        <ele>813.77</ele>
        <time>2019-10-14T12:15:58.000Z</time>
      </trkpt>
      <trkpt lat="45.62335" lon="6.77876">
        <ele>810.99</ele>
        <time>2019-10-14T12:16:03.000Z</time>
      </trkpt>
      <trkpt lat="45.62335" lon="6.77899">
        <ele>812.26</ele>
        <time>2019-10-14T12:16:08.000Z</time>
      </trkpt>
      <trkpt lat="45.62338" lon="6.77922">
        <ele>811.91</ele>
        <time>2019-10-14T12:16:13.000Z</time>
      </trkpt>
      <trkpt lat="45.62339" lon="6.77944">
        <ele>811.42</ele>
        <time>2019-10-14T12:16:18.000Z</time>
      </trkpt>
      <trkpt lat="45.62338" lon="6.77963">
        <ele>812.52</ele>
        <time>2019-10-14T12:16:23.000Z</time>
      </trkpt>
      <trkpt lat="45.62339" lon="6.77983">
        <ele>812.98</ele>
        <time>2019-10-14T12:16:28.000Z</time>
      </trkpt>
      <trkpt lat="45.6234" lon="6.78005">
        <ele>812.04</ele>
        <time>2019-10-14T12:16:33.000Z</time>
      </trkpt>
      <trkpt lat="45.62348" lon="6.78027">
        <ele>811.09</ele>
        <time>2019-10-14T12:16:38.000Z</time>
      </trkpt>
      <trkpt lat="45.62359" lon="6.78051">
        <ele>810.82</ele>
        <time>2019-10-14T12:16:43.000Z</time>
      </trkpt>
      <trkpt lat="45.62369" lon="6.78075">
        <ele>811.32</ele>
        <time>2019-10-14T12:16:48.000Z</time>
      </trkpt>
      <trkpt lat="45.62378" lon="6.78095">
        <ele>811.39</ele>
        <time>2019-10-14T12:16:53.000Z</time>
      </trkpt>
      <trkpt lat="45.6239" lon="6.78114">
        <ele>813.15</ele>
        <time>2019-10-14T12:16:58.000Z</time>
      </trkpt>
      <trkpt lat="45.62401" lon="6.78129">
        <ele>815.48</ele>
        <time>2019-10-14T12:17:03.000Z</time>
      </trkpt>
      <trkpt lat="45.62414" lon="6.7815">
        <ele>817.1</ele>
        <time>2019-10-14T12:17:08.000Z</time>
      </trkpt>
      <trkpt lat="45.62427" lon="6.78169">
        <ele>816.74</ele>
        <time>2019-10-14T12:17:13.000Z</time>
      </trkpt>
      <trkpt lat="45.62438" lon="6.78184">
        <ele>818.5</ele>
        <time>2019-10-14T12:17:18.000Z</time>
      </trkpt>
      <trkpt lat="45.62445" lon="6.78192">
        <ele>816.09</ele>
        <time>2019-10-14T12:17:23.000Z</time>
      </trkpt>
      <trkpt lat="45.62437" lon="6.78183">
        <ele>815.08</ele>
        <time>2019-10-14T12:17:35.000Z</time>
      </trkpt>
      <trkpt lat="45.62421" lon="6.78168">
        <ele>818.34</ele>
        <time>2019-10-14T12:17:40.000Z</time>
      </trkpt>
      <trkpt lat="45.62409" lon="6.78151">
        <ele>820.93</ele>
        <time>2019-10-14T12:17:45.000Z</time>
      </trkpt>
      <trkpt lat="45.6241" lon="6.78137">
        <ele>818.05</ele>
        <time>2019-10-14T12:17:52.000Z</time>
      </trkpt>
      <trkpt lat="45.62419" lon="6.78134">
        <ele>811.38</ele>
        <time>2019-10-14T12:20:30.000Z</time>
      </trkpt>
      <trkpt lat="45.62428" lon="6.78131">
        <ele>812.04</ele>
        <time>2019-10-14T12:20:43.000Z</time>
      </trkpt>
      <trkpt lat="45.62465" lon="6.78133">
        <ele>812.52</ele>
        <time>2019-10-14T12:20:48.000Z</time>
      </trkpt>
      <trkpt lat="45.62473" lon="6.78141">
        <ele>813.97</ele>
        <time>2019-10-14T12:20:53.000Z</time>
      </trkpt>
      <trkpt lat="45.62477" lon="6.78161">
        <ele>814.24</ele>
        <time>2019-10-14T12:20:58.000Z</time>
      </trkpt>
      <trkpt lat="45.6245" lon="6.78163">
        <ele>814.04</ele>
        <time>2019-10-14T12:21:08.000Z</time>
      </trkpt>
      <trkpt lat="45.6245" lon="6.7813">
        <ele>812.6</ele>
        <time>2019-10-14T12:21:13.000Z</time>
      </trkpt>
      <trkpt lat="45.62454" lon="6.78118">
        <ele>812.69</ele>
        <time>2019-10-14T12:21:19.000Z</time>
      </trkpt>
      <trkpt lat="45.62465" lon="6.78116">
        <ele>809.94</ele>
        <time>2019-10-14T12:21:29.000Z</time>
      </trkpt>
      <trkpt lat="45.6247" lon="6.78105">
        <ele>809.39</ele>
        <time>2019-10-14T12:21:55.000Z</time>
      </trkpt>
      <trkpt lat="45.6246" lon="6.78103">
        <ele>807.87</ele>
        <time>2019-10-14T12:22:03.000Z</time>
      </trkpt>
      <trkpt lat="45.6245" lon="6.78103">
        <ele>807.51</ele>
        <time>2019-10-14T12:22:10.000Z</time>
      </trkpt>
      <trkpt lat="45.62444" lon="6.78142">
        <ele>807.33</ele>
        <time>2019-10-14T12:22:15.000Z</time>
      </trkpt>
      <trkpt lat="45.62435" lon="6.78141">
        <ele>811.02</ele>
        <time>2019-10-14T12:22:31.000Z</time>
      </trkpt>
      <trkpt lat="45.62434" lon="6.78155">
        <ele>813.25</ele>
        <time>2019-10-14T12:22:40.000Z</time>
      </trkpt>
      <trkpt lat="45.62417" lon="6.78136">
        <ele>812.14</ele>
        <time>2019-10-14T12:22:45.000Z</time>
      </trkpt>
      <trkpt lat="45.62416" lon="6.78151">
        <ele>822.91</ele>
        <time>2019-10-14T12:26:23.000Z</time>
      </trkpt>
      <trkpt lat="45.62406" lon="6.78148">
        <ele>824.99</ele>
        <time>2019-10-14T12:26:30.000Z</time>
      </trkpt>
      <trkpt lat="45.62398" lon="6.78134">
        <ele>829.69</ele>
        <time>2019-10-14T12:26:35.000Z</time>
      </trkpt>
      <trkpt lat="45.62389" lon="6.78123">
        <ele>831.91</ele>
        <time>2019-10-14T12:26:40.000Z</time>
      </trkpt>
      <trkpt lat="45.62378" lon="6.78116">
        <ele>828.82</ele>
        <time>2019-10-14T12:26:45.000Z</time>
      </trkpt>
      <trkpt lat="45.62369" lon="6.78113">
        <ele>828.14</ele>
        <time>2019-10-14T12:26:53.000Z</time>
      </trkpt>
      <trkpt lat="45.62358" lon="6.78116">
        <ele>830.63</ele>
        <time>2019-10-14T12:26:58.000Z</time>
      </trkpt>
      <trkpt lat="45.62349" lon="6.78124">
        <ele>824.83</ele>
        <time>2019-10-14T12:27:03.000Z</time>
      </trkpt>
      <trkpt lat="45.62346" lon="6.78139">
        <ele>822.12</ele>
        <time>2019-10-14T12:27:08.000Z</time>
      </trkpt>
      <trkpt lat="45.62356" lon="6.78135">
        <ele>820.05</ele>
        <time>2019-10-14T12:27:16.000Z</time>
      </trkpt>
      <trkpt lat="45.62366" lon="6.78124">
        <ele>819.61</ele>
        <time>2019-10-14T12:27:21.000Z</time>
      </trkpt>
      <trkpt lat="45.62357" lon="6.7813">
        <ele>820.21</ele>
        <time>2019-10-14T12:29:12.000Z</time>
      </trkpt>
      <trkpt lat="45.62361" lon="6.78141">
        <ele>812.63</ele>
        <time>2019-10-14T12:31:38.000Z</time>
      </trkpt>
      <trkpt lat="45.62367" lon="6.78131">
        <ele>821</ele>
        <time>2019-10-14T12:31:50.000Z</time>
      </trkpt>
      <trkpt lat="45.62375" lon="6.78124">
        <ele>817.1</ele>
        <time>2019-10-14T12:31:57.000Z</time>
      </trkpt>
      <trkpt lat="45.62382" lon="6.78116">
        <ele>821.52</ele>
        <time>2019-10-14T12:32:04.000Z</time>
      </trkpt>
      <trkpt lat="45.62372" lon="6.78115">
        <ele>832.05</ele>
        <time>2019-10-14T12:32:26.000Z</time>
      </trkpt>
      <trkpt lat="45.62363" lon="6.78109">
        <ele>837.57</ele>
        <time>2019-10-14T12:32:32.000Z</time>
      </trkpt>
      <trkpt lat="45.62394" lon="6.78112">
        <ele>832.94</ele>
        <time>2019-10-14T12:33:17.000Z</time>
      </trkpt>
      <trkpt lat="45.62426" lon="6.78119">
        <ele>826</ele>
        <time>2019-10-14T12:33:22.000Z</time>
      </trkpt>
      <trkpt lat="45.6243" lon="6.78095">
        <ele>812.48</ele>
        <time>2019-10-14T12:33:27.000Z</time>
      </trkpt>
      <trkpt lat="45.62428" lon="6.78081">
        <ele>813.78</ele>
        <time>2019-10-14T12:33:41.000Z</time>
      </trkpt>
      <trkpt lat="45.62436" lon="6.78074">
        <ele>808.13</ele>
        <time>2019-10-14T12:47:49.000Z</time>
      </trkpt>
      <trkpt lat="45.62433" lon="6.78087">
        <ele>816.75</ele>
        <time>2019-10-14T12:47:57.000Z</time>
      </trkpt>
      <trkpt lat="45.62427" lon="6.78097">
        <ele>816.03</ele>
        <time>2019-10-14T12:48:10.000Z</time>
      </trkpt>
      <trkpt lat="45.62436" lon="6.78118">
        <ele>815.19</ele>
        <time>2019-10-14T12:48:39.000Z</time>
      </trkpt>
      <trkpt lat="45.62436" lon="6.78143">
        <ele>817.5</ele>
        <time>2019-10-14T12:48:44.000Z</time>
      </trkpt>
      <trkpt lat="45.62435" lon="6.78101">
        <ele>814.38</ele>
        <time>2019-10-14T12:48:49.000Z</time>
      </trkpt>
      <trkpt lat="45.62438" lon="6.78085">
        <ele>816.63</ele>
        <time>2019-10-14T12:48:54.000Z</time>
      </trkpt>
      <trkpt lat="45.6243" lon="6.78053">
        <ele>823.13</ele>
        <time>2019-10-14T12:48:59.000Z</time>
      </trkpt>
      <trkpt lat="45.62429" lon="6.78038">
        <ele>819.91</ele>
        <time>2019-10-14T12:49:05.000Z</time>
      </trkpt>
      <trkpt lat="45.62442" lon="6.7806">
        <ele>823.59</ele>
        <time>2019-10-14T12:49:10.000Z</time>
      </trkpt>
      <trkpt lat="45.62431" lon="6.78055">
        <ele>829.23</ele>
        <time>2019-10-14T12:49:15.000Z</time>
      </trkpt>
      <trkpt lat="45.6243" lon="6.78068">
        <ele>829.75</ele>
        <time>2019-10-14T12:49:23.000Z</time>
      </trkpt>
      <trkpt lat="45.62423" lon="6.78114">
        <ele>828.95</ele>
        <time>2019-10-14T12:53:34.000Z</time>
      </trkpt>
      <trkpt lat="45.6241" lon="6.78122">
        <ele>827.68</ele>
        <time>2019-10-14T12:53:39.000Z</time>
      </trkpt>
      <trkpt lat="45.6241" lon="6.78109">
        <ele>823.3</ele>
        <time>2019-10-14T12:53:54.000Z</time>
      </trkpt>
      <trkpt lat="45.62353" lon="6.78144">
        <ele>814.75</ele>
        <time>2019-10-14T13:02:38.000Z</time>
      </trkpt>
      <trkpt lat="45.62361" lon="6.78137">
        <ele>821.21</ele>
        <time>2019-10-14T13:02:51.000Z</time>
      </trkpt>
      <trkpt lat="45.62368" lon="6.7813">
        <ele>820.3</ele>
        <time>2019-10-14T13:03:03.000Z</time>
      </trkpt>
      <trkpt lat="45.62377" lon="6.78123">
        <ele>817.58</ele>
        <time>2019-10-14T13:03:13.000Z</time>
      </trkpt>
      <trkpt lat="45.6238" lon="6.78111">
        <ele>819.51</ele>
        <time>2019-10-14T13:03:30.000Z</time>
      </trkpt>
      <trkpt lat="45.62378" lon="6.78098">
        <ele>825.89</ele>
        <time>2019-10-14T13:03:37.000Z</time>
      </trkpt>
      <trkpt lat="45.62381" lon="6.78085">
        <ele>822.23</ele>
        <time>2019-10-14T13:03:47.000Z</time>
      </trkpt>
      <trkpt lat="45.62378" lon="6.7807">
        <ele>821.86</ele>
        <time>2019-10-14T13:03:54.000Z</time>
      </trkpt>
      <trkpt lat="45.62364" lon="6.78058">
        <ele>818.41</ele>
        <time>2019-10-14T13:03:59.000Z</time>
      </trkpt>
      <trkpt lat="45.62361" lon="6.78044">
        <ele>812.34</ele>
        <time>2019-10-14T13:04:08.000Z</time>
      </trkpt>
      <trkpt lat="45.62354" lon="6.78035">
        <ele>809.26</ele>
        <time>2019-10-14T13:04:15.000Z</time>
      </trkpt>
      <trkpt lat="45.62346" lon="6.78026">
        <ele>812.37</ele>
        <time>2019-10-14T13:04:24.000Z</time>
      </trkpt>
      <trkpt lat="45.62337" lon="6.78023">
        <ele>812</ele>
        <time>2019-10-14T13:04:31.000Z</time>
      </trkpt>
      <trkpt lat="45.62327" lon="6.78023">
        <ele>807.14</ele>
        <time>2019-10-14T13:04:38.000Z</time>
      </trkpt>
      <trkpt lat="45.62317" lon="6.78025">
        <ele>804.72</ele>
        <time>2019-10-14T13:04:45.000Z</time>
      </trkpt>
      <trkpt lat="45.62308" lon="6.78025">
        <ele>807.44</ele>
        <time>2019-10-14T13:04:54.000Z</time>
      </trkpt>
      <trkpt lat="45.62299" lon="6.78017">
        <ele>806.75</ele>
        <time>2019-10-14T13:05:04.000Z</time>
      </trkpt>
      <trkpt lat="45.62294" lon="6.78006">
        <ele>807.43</ele>
        <time>2019-10-14T13:05:16.000Z</time>
      </trkpt>
      <trkpt lat="45.62284" lon="6.78008">
        <ele>808.72</ele>
        <time>2019-10-14T13:05:24.000Z</time>
      </trkpt>
      <trkpt lat="45.62275" lon="6.78007">
        <ele>803.75</ele>
        <time>2019-10-14T13:05:32.000Z</time>
      </trkpt>
      <trkpt lat="45.62265" lon="6.78003">
        <ele>804.34</ele>
        <time>2019-10-14T13:05:37.000Z</time>
      </trkpt>
      <trkpt lat="45.62255" lon="6.78001">
        <ele>805.42</ele>
        <time>2019-10-14T13:05:42.000Z</time>
      </trkpt>
      <trkpt lat="45.62249" lon="6.7801">
        <ele>806.38</ele>
        <time>2019-10-14T13:05:51.000Z</time>
      </trkpt>
      <trkpt lat="45.62241" lon="6.7802">
        <ele>810</ele>
        <time>2019-10-14T13:05:58.000Z</time>
      </trkpt>
      <trkpt lat="45.62233" lon="6.78023">
        <ele>809.35</ele>
        <time>2019-10-14T13:06:06.000Z</time>
      </trkpt>
      <trkpt lat="45.62226" lon="6.78033">
        <ele>807.01</ele>
        <time>2019-10-14T13:06:14.000Z</time>
      </trkpt>
      <trkpt lat="45.62219" lon="6.78042">
        <ele>807.74</ele>
        <time>2019-10-14T13:06:21.000Z</time>
      </trkpt>
      <trkpt lat="45.62213" lon="6.78053">
        <ele>807.11</ele>
        <time>2019-10-14T13:06:27.000Z</time>
      </trkpt>
      <trkpt lat="45.62207" lon="6.78065">
        <ele>809.17</ele>
        <time>2019-10-14T13:06:34.000Z</time>
      </trkpt>
      <trkpt lat="45.62205" lon="6.78052">
        <ele>802.65</ele>
        <time>2019-10-14T13:07:08.000Z</time>
      </trkpt>
      <trkpt lat="45.62202" lon="6.78038">
        <ele>809.66</ele>
        <time>2019-10-14T13:07:18.000Z</time>
      </trkpt>
      <trkpt lat="45.62196" lon="6.78027">
        <ele>812.25</ele>
        <time>2019-10-14T13:07:27.000Z</time>
      </trkpt>
      <trkpt lat="45.62187" lon="6.7802">
        <ele>809.61</ele>
        <time>2019-10-14T13:07:32.000Z</time>
      </trkpt>
      <trkpt lat="45.6218" lon="6.78009">
        <ele>812.42</ele>
        <time>2019-10-14T13:07:41.000Z</time>
      </trkpt>
      <trkpt lat="45.62174" lon="6.77998">
        <ele>812.21</ele>
        <time>2019-10-14T13:07:49.000Z</time>
      </trkpt>
      <trkpt lat="45.62168" lon="6.77988">
        <ele>806.75</ele>
        <time>2019-10-14T13:08:00.000Z</time>
      </trkpt>
      <trkpt lat="45.62161" lon="6.77978">
        <ele>806.02</ele>
        <time>2019-10-14T13:08:09.000Z</time>
      </trkpt>
      <trkpt lat="45.62153" lon="6.77969">
        <ele>800.82</ele>
        <time>2019-10-14T13:08:16.000Z</time>
      </trkpt>
      <trkpt lat="45.62147" lon="6.7796">
        <ele>797.83</ele>
        <time>2019-10-14T13:08:25.000Z</time>
      </trkpt>
      <trkpt lat="45.62139" lon="6.7795">
        <ele>796.75</ele>
        <time>2019-10-14T13:08:36.000Z</time>
      </trkpt>
      <trkpt lat="45.62131" lon="6.77944">
        <ele>796.4</ele>
        <time>2019-10-14T13:08:42.000Z</time>
      </trkpt>
      <trkpt lat="45.62123" lon="6.77937">
        <ele>794.12</ele>
        <time>2019-10-14T13:08:51.000Z</time>
      </trkpt>
      <trkpt lat="45.62114" lon="6.77931">
        <ele>797.72</ele>
        <time>2019-10-14T13:09:01.000Z</time>
      </trkpt>
      <trkpt lat="45.62106" lon="6.77927">
        <ele>797.4</ele>
        <time>2019-10-14T13:09:09.000Z</time>
      </trkpt>
      <trkpt lat="45.62096" lon="6.77922">
        <ele>794.77</ele>
        <time>2019-10-14T13:09:18.000Z</time>
      </trkpt>
      <trkpt lat="45.62087" lon="6.77918">
        <ele>794.97</ele>
        <time>2019-10-14T13:09:26.000Z</time>
      </trkpt>
      <trkpt lat="45.62078" lon="6.77913">
        <ele>792.9</ele>
        <time>2019-10-14T13:09:34.000Z</time>
      </trkpt>
      <trkpt lat="45.62068" lon="6.77909">
        <ele>789.97</ele>
        <time>2019-10-14T13:09:45.000Z</time>
      </trkpt>
      <trkpt lat="45.6206" lon="6.77914">
        <ele>792.8</ele>
        <time>2019-10-14T13:09:52.000Z</time>
      </trkpt>
      <trkpt lat="45.62052" lon="6.7792">
        <ele>792.88</ele>
        <time>2019-10-14T13:09:59.000Z</time>
      </trkpt>
      <trkpt lat="45.62045" lon="6.7793">
        <ele>791.66</ele>
        <time>2019-10-14T13:10:05.000Z</time>
      </trkpt>
      <trkpt lat="45.62037" lon="6.77939">
        <ele>797.1</ele>
        <time>2019-10-14T13:10:13.000Z</time>
      </trkpt>
      <trkpt lat="45.62029" lon="6.77947">
        <ele>799.94</ele>
        <time>2019-10-14T13:10:23.000Z</time>
      </trkpt>
      <trkpt lat="45.62023" lon="6.77955">
        <ele>799.78</ele>
        <time>2019-10-14T13:10:36.000Z</time>
      </trkpt>
      <trkpt lat="45.62012" lon="6.77958">
        <ele>803.89</ele>
        <time>2019-10-14T13:10:53.000Z</time>
      </trkpt>
      <trkpt lat="45.62003" lon="6.77957">
        <ele>806.31</ele>
        <time>2019-10-14T13:11:01.000Z</time>
      </trkpt>
      <trkpt lat="45.61993" lon="6.7796">
        <ele>799.56</ele>
        <time>2019-10-14T13:11:32.000Z</time>
      </trkpt>
      <trkpt lat="45.61984" lon="6.77955">
        <ele>800.11</ele>
        <time>2019-10-14T13:11:39.000Z</time>
      </trkpt>
      <trkpt lat="45.61974" lon="6.77952">
        <ele>799.98</ele>
        <time>2019-10-14T13:11:45.000Z</time>
      </trkpt>
      <trkpt lat="45.61965" lon="6.77948">
        <ele>802.74</ele>
        <time>2019-10-14T13:11:52.000Z</time>
      </trkpt>
      <trkpt lat="45.61957" lon="6.77943">
        <ele>797.53</ele>
        <time>2019-10-14T13:12:07.000Z</time>
      </trkpt>
      <trkpt lat="45.61948" lon="6.77939">
        <ele>793.38</ele>
        <time>2019-10-14T13:12:15.000Z</time>
      </trkpt>
      <trkpt lat="45.61938" lon="6.77935">
        <ele>790.29</ele>
        <time>2019-10-14T13:12:21.000Z</time>
      </trkpt>
      <trkpt lat="45.61929" lon="6.7793">
        <ele>797.27</ele>
        <time>2019-10-14T13:12:28.000Z</time>
      </trkpt>
      <trkpt lat="45.61919" lon="6.77927">
        <ele>800.68</ele>
        <time>2019-10-14T13:12:37.000Z</time>
      </trkpt>
      <trkpt lat="45.6191" lon="6.77923">
        <ele>800.26</ele>
        <time>2019-10-14T13:12:43.000Z</time>
      </trkpt>
      <trkpt lat="45.619" lon="6.77918">
        <ele>798.71</ele>
        <time>2019-10-14T13:12:49.000Z</time>
      </trkpt>
      <trkpt lat="45.61893" lon="6.77909">
        <ele>798.7</ele>
        <time>2019-10-14T13:12:57.000Z</time>
      </trkpt>
      <trkpt lat="45.61885" lon="6.779">
        <ele>797.25</ele>
        <time>2019-10-14T13:13:06.000Z</time>
      </trkpt>
      <trkpt lat="45.61878" lon="6.7789">
        <ele>795.58</ele>
        <time>2019-10-14T13:13:15.000Z</time>
      </trkpt>
      <trkpt lat="45.61871" lon="6.77881">
        <ele>798.5</ele>
        <time>2019-10-14T13:13:24.000Z</time>
      </trkpt>
      <trkpt lat="45.61865" lon="6.77872">
        <ele>796.44</ele>
        <time>2019-10-14T13:13:32.000Z</time>
      </trkpt>
      <trkpt lat="45.6186" lon="6.77861">
        <ele>798.61</ele>
        <time>2019-10-14T13:13:40.000Z</time>
      </trkpt>
      <trkpt lat="45.61852" lon="6.77853">
        <ele>799.34</ele>
        <time>2019-10-14T13:13:48.000Z</time>
      </trkpt>
      <trkpt lat="45.61845" lon="6.77844">
        <ele>800.37</ele>
        <time>2019-10-14T13:13:55.000Z</time>
      </trkpt>
      <trkpt lat="45.61838" lon="6.77834">
        <ele>803.42</ele>
        <time>2019-10-14T13:14:03.000Z</time>
      </trkpt>
      <trkpt lat="45.61838" lon="6.7782">
        <ele>802.02</ele>
        <time>2019-10-14T13:14:14.000Z</time>
      </trkpt>
      <trkpt lat="45.61832" lon="6.77809">
        <ele>799.62</ele>
        <time>2019-10-14T13:14:26.000Z</time>
      </trkpt>
      <trkpt lat="45.61835" lon="6.77796">
        <ele>799.11</ele>
        <time>2019-10-14T13:15:00.000Z</time>
      </trkpt>
      <trkpt lat="45.61839" lon="6.77783">
        <ele>803.54</ele>
        <time>2019-10-14T13:15:07.000Z</time>
      </trkpt>
      <trkpt lat="45.61844" lon="6.77773">
        <ele>809.05</ele>
        <time>2019-10-14T13:15:15.000Z</time>
      </trkpt>
      <trkpt lat="45.61844" lon="6.77759">
        <ele>805.93</ele>
        <time>2019-10-14T13:15:23.000Z</time>
      </trkpt>
      <trkpt lat="45.61842" lon="6.77745">
        <ele>806.44</ele>
        <time>2019-10-14T13:15:29.000Z</time>
      </trkpt>
      <trkpt lat="45.6184" lon="6.77731">
        <ele>804.98</ele>
        <time>2019-10-14T13:15:37.000Z</time>
      </trkpt>
      <trkpt lat="45.61844" lon="6.77719">
        <ele>808.57</ele>
        <time>2019-10-14T13:15:45.000Z</time>
      </trkpt>
      <trkpt lat="45.6184" lon="6.77706">
        <ele>802.17</ele>
        <time>2019-10-14T13:15:54.000Z</time>
      </trkpt>
      <trkpt lat="45.61841" lon="6.77692">
        <ele>800.7</ele>
        <time>2019-10-14T13:16:14.000Z</time>
      </trkpt>
      <trkpt lat="45.61847" lon="6.77682">
        <ele>801.34</ele>
        <time>2019-10-14T13:16:25.000Z</time>
      </trkpt>
      <trkpt lat="45.61851" lon="6.77669">
        <ele>805.19</ele>
        <time>2019-10-14T13:16:36.000Z</time>
      </trkpt>
      <trkpt lat="45.61855" lon="6.77657">
        <ele>807.13</ele>
        <time>2019-10-14T13:16:46.000Z</time>
      </trkpt>
      <trkpt lat="45.61858" lon="6.77644">
        <ele>807.79</ele>
        <time>2019-10-14T13:16:52.000Z</time>
      </trkpt>
      <trkpt lat="45.61861" lon="6.77631">
        <ele>809.55</ele>
        <time>2019-10-14T13:16:57.000Z</time>
      </trkpt>
      <trkpt lat="45.61862" lon="6.77618">
        <ele>811.11</ele>
        <time>2019-10-14T13:17:06.000Z</time>
      </trkpt>
      <trkpt lat="45.61864" lon="6.77604">
        <ele>808.86</ele>
        <time>2019-10-14T13:17:15.000Z</time>
      </trkpt>
      <trkpt lat="45.61864" lon="6.7759">
        <ele>806.44</ele>
        <time>2019-10-14T13:17:24.000Z</time>
      </trkpt>
      <trkpt lat="45.61867" lon="6.77577">
        <ele>807.98</ele>
        <time>2019-10-14T13:17:33.000Z</time>
      </trkpt>
      <trkpt lat="45.61872" lon="6.77566">
        <ele>807.29</ele>
        <time>2019-10-14T13:17:41.000Z</time>
      </trkpt>
      <trkpt lat="45.61878" lon="6.77555">
        <ele>808.34</ele>
        <time>2019-10-14T13:17:52.000Z</time>
      </trkpt>
      <trkpt lat="45.61884" lon="6.77545">
        <ele>806.03</ele>
        <time>2019-10-14T13:18:01.000Z</time>
      </trkpt>
      <trkpt lat="45.6189" lon="6.77534">
        <ele>807.7</ele>
        <time>2019-10-14T13:18:08.000Z</time>
      </trkpt>
      <trkpt lat="45.61896" lon="6.77523">
        <ele>807.58</ele>
        <time>2019-10-14T13:18:16.000Z</time>
      </trkpt>
      <trkpt lat="45.61903" lon="6.77515">
        <ele>805.15</ele>
        <time>2019-10-14T13:18:22.000Z</time>
      </trkpt>
      <trkpt lat="45.61911" lon="6.77506">
        <ele>807.74</ele>
        <time>2019-10-14T13:18:29.000Z</time>
      </trkpt>
      <trkpt lat="45.61917" lon="6.77497">
        <ele>807.88</ele>
        <time>2019-10-14T13:18:36.000Z</time>
      </trkpt>
      <trkpt lat="45.61925" lon="6.77491">
        <ele>812.98</ele>
        <time>2019-10-14T13:18:45.000Z</time>
      </trkpt>
      <trkpt lat="45.61933" lon="6.77482">
        <ele>813.51</ele>
        <time>2019-10-14T13:18:55.000Z</time>
      </trkpt>
      <trkpt lat="45.61935" lon="6.77468">
        <ele>808.94</ele>
        <time>2019-10-14T13:19:04.000Z</time>
      </trkpt>
      <trkpt lat="45.61941" lon="6.77457">
        <ele>811.01</ele>
        <time>2019-10-14T13:19:10.000Z</time>
      </trkpt>
      <trkpt lat="45.61946" lon="6.77445">
        <ele>811</ele>
        <time>2019-10-14T13:19:16.000Z</time>
      </trkpt>
      <trkpt lat="45.61951" lon="6.77433">
        <ele>812.32</ele>
        <time>2019-10-14T13:19:25.000Z</time>
      </trkpt>
      <trkpt lat="45.61957" lon="6.77421">
        <ele>812.98</ele>
        <time>2019-10-14T13:19:34.000Z</time>
      </trkpt>
      <trkpt lat="45.61963" lon="6.77411">
        <ele>814.35</ele>
        <time>2019-10-14T13:19:40.000Z</time>
      </trkpt>
      <trkpt lat="45.61969" lon="6.77399">
        <ele>812.81</ele>
        <time>2019-10-14T13:19:47.000Z</time>
      </trkpt>
      <trkpt lat="45.61975" lon="6.77388">
        <ele>812.89</ele>
        <time>2019-10-14T13:19:55.000Z</time>
      </trkpt>
      <trkpt lat="45.61982" lon="6.77378">
        <ele>812.05</ele>
        <time>2019-10-14T13:20:02.000Z</time>
      </trkpt>
      <trkpt lat="45.6199" lon="6.77368">
        <ele>812.51</ele>
        <time>2019-10-14T13:20:10.000Z</time>
      </trkpt>
      <trkpt lat="45.61997" lon="6.77358">
        <ele>810.05</ele>
        <time>2019-10-14T13:20:19.000Z</time>
      </trkpt>
      <trkpt lat="45.62005" lon="6.77349">
        <ele>806.33</ele>
        <time>2019-10-14T13:20:26.000Z</time>
      </trkpt>
      <trkpt lat="45.62013" lon="6.77339">
        <ele>805.57</ele>
        <time>2019-10-14T13:20:32.000Z</time>
      </trkpt>
      <trkpt lat="45.6202" lon="6.7733">
        <ele>808.03</ele>
        <time>2019-10-14T13:20:39.000Z</time>
      </trkpt>
      <trkpt lat="45.62028" lon="6.77321">
        <ele>811.12</ele>
        <time>2019-10-14T13:20:47.000Z</time>
      </trkpt>
      <trkpt lat="45.62034" lon="6.77312">
        <ele>808.76</ele>
        <time>2019-10-14T13:20:57.000Z</time>
      </trkpt>
      <trkpt lat="45.62042" lon="6.77301">
        <ele>810.6</ele>
        <time>2019-10-14T13:21:02.000Z</time>
      </trkpt>
      <trkpt lat="45.6205" lon="6.77285">
        <ele>810.28</ele>
        <time>2019-10-14T13:21:07.000Z</time>
      </trkpt>
      <trkpt lat="45.62058" lon="6.77277">
        <ele>807.68</ele>
        <time>2019-10-14T13:21:14.000Z</time>
      </trkpt>
      <trkpt lat="45.62064" lon="6.77267">
        <ele>811.1</ele>
        <time>2019-10-14T13:21:24.000Z</time>
      </trkpt>
      <trkpt lat="45.6207" lon="6.77255">
        <ele>812.96</ele>
        <time>2019-10-14T13:21:32.000Z</time>
      </trkpt>
      <trkpt lat="45.6207" lon="6.77242">
        <ele>812.96</ele>
        <time>2019-10-14T13:21:40.000Z</time>
      </trkpt>
      <trkpt lat="45.62068" lon="6.77229">
        <ele>817.93</ele>
        <time>2019-10-14T13:21:49.000Z</time>
      </trkpt>
      <trkpt lat="45.62075" lon="6.77219">
        <ele>823.16</ele>
        <time>2019-10-14T13:21:59.000Z</time>
      </trkpt>
      <trkpt lat="45.62078" lon="6.77206">
        <ele>820.58</ele>
        <time>2019-10-14T13:22:06.000Z</time>
      </trkpt>
      <trkpt lat="45.6208" lon="6.77192">
        <ele>815.68</ele>
        <time>2019-10-14T13:22:14.000Z</time>
      </trkpt>
      <trkpt lat="45.62076" lon="6.77179">
        <ele>818.2</ele>
        <time>2019-10-14T13:22:20.000Z</time>
      </trkpt>
      <trkpt lat="45.6207" lon="6.77167">
        <ele>817.18</ele>
        <time>2019-10-14T13:22:26.000Z</time>
      </trkpt>
      <trkpt lat="45.6206" lon="6.77156">
        <ele>813.48</ele>
        <time>2019-10-14T13:22:31.000Z</time>
      </trkpt>
      <trkpt lat="45.62053" lon="6.77147">
        <ele>813.12</ele>
        <time>2019-10-14T13:22:37.000Z</time>
      </trkpt>
      <trkpt lat="45.62045" lon="6.77138">
        <ele>811.25</ele>
        <time>2019-10-14T13:22:45.000Z</time>
      </trkpt>
      <trkpt lat="45.62036" lon="6.77133">
        <ele>807.29</ele>
        <time>2019-10-14T13:22:53.000Z</time>
      </trkpt>
      <trkpt lat="45.62028" lon="6.77126">
        <ele>809.16</ele>
        <time>2019-10-14T13:23:03.000Z</time>
      </trkpt>
      <trkpt lat="45.6202" lon="6.77118">
        <ele>809.42</ele>
        <time>2019-10-14T13:23:11.000Z</time>
      </trkpt>
      <trkpt lat="45.62012" lon="6.77112">
        <ele>809.24</ele>
        <time>2019-10-14T13:23:17.000Z</time>
      </trkpt>
      <trkpt lat="45.62002" lon="6.77108">
        <ele>809.19</ele>
        <time>2019-10-14T13:23:24.000Z</time>
      </trkpt>
      <trkpt lat="45.61993" lon="6.77101">
        <ele>811.23</ele>
        <time>2019-10-14T13:23:41.000Z</time>
      </trkpt>
      <trkpt lat="45.61995" lon="6.77087">
        <ele>808.95</ele>
        <time>2019-10-14T13:23:49.000Z</time>
      </trkpt>
      <trkpt lat="45.61992" lon="6.77072">
        <ele>810.01</ele>
        <time>2019-10-14T13:23:57.000Z</time>
      </trkpt>
      <trkpt lat="45.61988" lon="6.77061">
        <ele>812.01</ele>
        <time>2019-10-14T13:24:07.000Z</time>
      </trkpt>
      <trkpt lat="45.62015" lon="6.77028">
        <ele>811.11</ele>
        <time>2019-10-14T13:24:27.000Z</time>
      </trkpt>
      <trkpt lat="45.62023" lon="6.77019">
        <ele>811.27</ele>
        <time>2019-10-14T13:24:35.000Z</time>
      </trkpt>
      <trkpt lat="45.62019" lon="6.77036">
        <ele>811.11</ele>
        <time>2019-10-14T13:24:54.000Z</time>
      </trkpt>
      <trkpt lat="45.62013" lon="6.77052">
        <ele>816.75</ele>
        <time>2019-10-14T13:24:59.000Z</time>
      </trkpt>
      <trkpt lat="45.61969" lon="6.76998">
        <ele>813.24</ele>
        <time>2019-10-14T13:27:07.000Z</time>
      </trkpt>
      <trkpt lat="45.61993" lon="6.76986">
        <ele>812.13</ele>
        <time>2019-10-14T13:27:17.000Z</time>
      </trkpt>
      <trkpt lat="45.61993" lon="6.77074">
        <ele>810.42</ele>
        <time>2019-10-14T13:27:33.000Z</time>
      </trkpt>
      <trkpt lat="45.62005" lon="6.77067">
        <ele>809.2</ele>
        <time>2019-10-14T13:27:38.000Z</time>
      </trkpt>
      <trkpt lat="45.62005" lon="6.7708">
        <ele>815.31</ele>
        <time>2019-10-14T13:39:07.000Z</time>
      </trkpt>
      <trkpt lat="45.62015" lon="6.77081">
        <ele>813.91</ele>
        <time>2019-10-14T13:39:16.000Z</time>
      </trkpt>
      <trkpt lat="45.62025" lon="6.77079">
        <ele>809.99</ele>
        <time>2019-10-14T13:39:22.000Z</time>
      </trkpt>
      <trkpt lat="45.62035" lon="6.77085">
        <ele>810.05</ele>
        <time>2019-10-14T13:39:30.000Z</time>
      </trkpt>
      <trkpt lat="45.62044" lon="6.7709">
        <ele>810.78</ele>
        <time>2019-10-14T13:39:38.000Z</time>
      </trkpt>
      <trkpt lat="45.62054" lon="6.77091">
        <ele>807.18</ele>
        <time>2019-10-14T13:39:45.000Z</time>
      </trkpt>
      <trkpt lat="45.62062" lon="6.77099">
        <ele>804.21</ele>
        <time>2019-10-14T13:39:51.000Z</time>
      </trkpt>
      <trkpt lat="45.62068" lon="6.7711">
        <ele>802.67</ele>
        <time>2019-10-14T13:39:58.000Z</time>
      </trkpt>
      <trkpt lat="45.62062" lon="6.77121">
        <ele>808.2</ele>
        <time>2019-10-14T13:40:09.000Z</time>
      </trkpt>
      <trkpt lat="45.62059" lon="6.77134">
        <ele>808.16</ele>
        <time>2019-10-14T13:40:16.000Z</time>
      </trkpt>
      <trkpt lat="45.62062" lon="6.77148">
        <ele>808.15</ele>
        <time>2019-10-14T13:40:22.000Z</time>
      </trkpt>
      <trkpt lat="45.62066" lon="6.77161">
        <ele>808.68</ele>
        <time>2019-10-14T13:40:30.000Z</time>
      </trkpt>
      <trkpt lat="45.62071" lon="6.77173">
        <ele>810.19</ele>
        <time>2019-10-14T13:40:39.000Z</time>
      </trkpt>
      <trkpt lat="45.62078" lon="6.77183">
        <ele>808.5</ele>
        <time>2019-10-14T13:40:44.000Z</time>
      </trkpt>
      <trkpt lat="45.62084" lon="6.77193">
        <ele>810.32</ele>
        <time>2019-10-14T13:40:52.000Z</time>
      </trkpt>
      <trkpt lat="45.62088" lon="6.77207">
        <ele>813.42</ele>
        <time>2019-10-14T13:40:59.000Z</time>
      </trkpt>
      <trkpt lat="45.6209" lon="6.77221">
        <ele>814.54</ele>
        <time>2019-10-14T13:41:06.000Z</time>
      </trkpt>
      <trkpt lat="45.62093" lon="6.77234">
        <ele>809.48</ele>
        <time>2019-10-14T13:41:15.000Z</time>
      </trkpt>
      <trkpt lat="45.621" lon="6.77243">
        <ele>806.74</ele>
        <time>2019-10-14T13:41:21.000Z</time>
      </trkpt>
      <trkpt lat="45.62105" lon="6.77254">
        <ele>806.45</ele>
        <time>2019-10-14T13:41:26.000Z</time>
      </trkpt>
      <trkpt lat="45.62114" lon="6.7726">
        <ele>807</ele>
        <time>2019-10-14T13:41:32.000Z</time>
      </trkpt>
      <trkpt lat="45.62116" lon="6.77273">
        <ele>813.83</ele>
        <time>2019-10-14T13:41:49.000Z</time>
      </trkpt>
      <trkpt lat="45.62117" lon="6.77287">
        <ele>822.07</ele>
        <time>2019-10-14T13:41:57.000Z</time>
      </trkpt>
      <trkpt lat="45.62119" lon="6.773">
        <ele>821.32</ele>
        <time>2019-10-14T13:42:03.000Z</time>
      </trkpt>
      <trkpt lat="45.62125" lon="6.77313">
        <ele>815.8</ele>
        <time>2019-10-14T13:42:08.000Z</time>
      </trkpt>
      <trkpt lat="45.62131" lon="6.77323">
        <ele>812.57</ele>
        <time>2019-10-14T13:42:13.000Z</time>
      </trkpt>
      <trkpt lat="45.62137" lon="6.77335">
        <ele>811.21</ele>
        <time>2019-10-14T13:42:20.000Z</time>
      </trkpt>
      <trkpt lat="45.62144" lon="6.77343">
        <ele>809.27</ele>
        <time>2019-10-14T13:42:25.000Z</time>
      </trkpt>
      <trkpt lat="45.62146" lon="6.77357">
        <ele>813.73</ele>
        <time>2019-10-14T13:42:32.000Z</time>
      </trkpt>
      <trkpt lat="45.62149" lon="6.77371">
        <ele>814.7</ele>
        <time>2019-10-14T13:42:41.000Z</time>
      </trkpt>
      <trkpt lat="45.62152" lon="6.77385">
        <ele>817.74</ele>
        <time>2019-10-14T13:42:48.000Z</time>
      </trkpt>
      <trkpt lat="45.62155" lon="6.77399">
        <ele>818.28</ele>
        <time>2019-10-14T13:42:56.000Z</time>
      </trkpt>
      <trkpt lat="45.62157" lon="6.77412">
        <ele>823.64</ele>
        <time>2019-10-14T13:43:05.000Z</time>
      </trkpt>
      <trkpt lat="45.62159" lon="6.77426">
        <ele>823.94</ele>
        <time>2019-10-14T13:43:14.000Z</time>
      </trkpt>
      <trkpt lat="45.62165" lon="6.77435">
        <ele>823.18</ele>
        <time>2019-10-14T13:43:20.000Z</time>
      </trkpt>
      <trkpt lat="45.62172" lon="6.77446">
        <ele>821.4</ele>
        <time>2019-10-14T13:43:29.000Z</time>
      </trkpt>
      <trkpt lat="45.62178" lon="6.77458">
        <ele>819.99</ele>
        <time>2019-10-14T13:43:35.000Z</time>
      </trkpt>
      <trkpt lat="45.62182" lon="6.77472">
        <ele>818.27</ele>
        <time>2019-10-14T13:43:43.000Z</time>
      </trkpt>
      <trkpt lat="45.62188" lon="6.77484">
        <ele>815.7</ele>
        <time>2019-10-14T13:43:49.000Z</time>
      </trkpt>
      <trkpt lat="45.62193" lon="6.77495">
        <ele>817.56</ele>
        <time>2019-10-14T13:44:02.000Z</time>
      </trkpt>
      <trkpt lat="45.62201" lon="6.77507">
        <ele>816.63</ele>
        <time>2019-10-14T13:44:07.000Z</time>
      </trkpt>
      <trkpt lat="45.62206" lon="6.7752">
        <ele>817.73</ele>
        <time>2019-10-14T13:44:17.000Z</time>
      </trkpt>
      <trkpt lat="45.62212" lon="6.77531">
        <ele>817.56</ele>
        <time>2019-10-14T13:44:25.000Z</time>
      </trkpt>
      <trkpt lat="45.62215" lon="6.77546">
        <ele>815.37</ele>
        <time>2019-10-14T13:44:32.000Z</time>
      </trkpt>
      <trkpt lat="45.62219" lon="6.77558">
        <ele>815.37</ele>
        <time>2019-10-14T13:44:38.000Z</time>
      </trkpt>
      <trkpt lat="45.62227" lon="6.77567">
        <ele>814.06</ele>
        <time>2019-10-14T13:44:44.000Z</time>
      </trkpt>
      <trkpt lat="45.62232" lon="6.77579">
        <ele>812.81</ele>
        <time>2019-10-14T13:44:49.000Z</time>
      </trkpt>
      <trkpt lat="45.62238" lon="6.7759">
        <ele>814.12</ele>
        <time>2019-10-14T13:44:55.000Z</time>
      </trkpt>
      <trkpt lat="45.62245" lon="6.77601">
        <ele>811.92</ele>
        <time>2019-10-14T13:45:02.000Z</time>
      </trkpt>
      <trkpt lat="45.62254" lon="6.77608">
        <ele>806.34</ele>
        <time>2019-10-14T13:45:07.000Z</time>
      </trkpt>
      <trkpt lat="45.62258" lon="6.77619">
        <ele>806.4</ele>
        <time>2019-10-14T13:45:12.000Z</time>
      </trkpt>
      <trkpt lat="45.62262" lon="6.77633">
        <ele>809.64</ele>
        <time>2019-10-14T13:45:20.000Z</time>
      </trkpt>
      <trkpt lat="45.62268" lon="6.77644">
        <ele>814.62</ele>
        <time>2019-10-14T13:45:28.000Z</time>
      </trkpt>
      <trkpt lat="45.62272" lon="6.77657">
        <ele>815.17</ele>
        <time>2019-10-14T13:45:35.000Z</time>
      </trkpt>
      <trkpt lat="45.62278" lon="6.77668">
        <ele>813.51</ele>
        <time>2019-10-14T13:45:43.000Z</time>
      </trkpt>
      <trkpt lat="45.62283" lon="6.7768">
        <ele>812.54</ele>
        <time>2019-10-14T13:45:50.000Z</time>
      </trkpt>
      <trkpt lat="45.62288" lon="6.77691">
        <ele>812.81</ele>
        <time>2019-10-14T13:45:58.000Z</time>
      </trkpt>
      <trkpt lat="45.62292" lon="6.77704">
        <ele>814.76</ele>
        <time>2019-10-14T13:46:06.000Z</time>
      </trkpt>
      <trkpt lat="45.62297" lon="6.77715">
        <ele>813.9</ele>
        <time>2019-10-14T13:46:12.000Z</time>
      </trkpt>
      <trkpt lat="45.623" lon="6.77728">
        <ele>814.75</ele>
        <time>2019-10-14T13:46:19.000Z</time>
      </trkpt>
      <trkpt lat="45.62305" lon="6.7774">
        <ele>814.44</ele>
        <time>2019-10-14T13:46:26.000Z</time>
      </trkpt>
      <trkpt lat="45.6231" lon="6.77751">
        <ele>813.71</ele>
        <time>2019-10-14T13:46:33.000Z</time>
      </trkpt>
      <trkpt lat="45.62313" lon="6.77764">
        <ele>816.88</ele>
        <time>2019-10-14T13:46:41.000Z</time>
      </trkpt>
      <trkpt lat="45.6232" lon="6.77773">
        <ele>817.79</ele>
        <time>2019-10-14T13:46:48.000Z</time>
      </trkpt>
      <trkpt lat="45.62326" lon="6.77784">
        <ele>816.19</ele>
        <time>2019-10-14T13:46:56.000Z</time>
      </trkpt>
      <trkpt lat="45.62331" lon="6.77795">
        <ele>815.66</ele>
        <time>2019-10-14T13:47:04.000Z</time>
      </trkpt>
      <trkpt lat="45.62339" lon="6.77805">
        <ele>811.68</ele>
        <time>2019-10-14T13:47:11.000Z</time>
      </trkpt>
      <trkpt lat="45.62348" lon="6.77814">
        <ele>806.13</ele>
        <time>2019-10-14T13:47:16.000Z</time>
      </trkpt>
      <trkpt lat="45.62357" lon="6.7782">
        <ele>804.56</ele>
        <time>2019-10-14T13:47:22.000Z</time>
      </trkpt>
      <trkpt lat="45.62363" lon="6.77831">
        <ele>806.05</ele>
        <time>2019-10-14T13:47:28.000Z</time>
      </trkpt>
      <trkpt lat="45.62367" lon="6.77842">
        <ele>806.81</ele>
        <time>2019-10-14T13:47:35.000Z</time>
      </trkpt>
      <trkpt lat="45.62366" lon="6.77855">
        <ele>812.73</ele>
        <time>2019-10-14T13:47:43.000Z</time>
      </trkpt>
      <trkpt lat="45.62366" lon="6.77869">
        <ele>810.24</ele>
        <time>2019-10-14T13:47:52.000Z</time>
      </trkpt>
      <trkpt lat="45.62361" lon="6.77881">
        <ele>810.95</ele>
        <time>2019-10-14T13:47:59.000Z</time>
      </trkpt>
      <trkpt lat="45.62355" lon="6.77892">
        <ele>807.99</ele>
        <time>2019-10-14T13:48:06.000Z</time>
      </trkpt>
      <trkpt lat="45.62349" lon="6.77904">
        <ele>810.54</ele>
        <time>2019-10-14T13:48:14.000Z</time>
      </trkpt>
      <trkpt lat="45.62348" lon="6.77916">
        <ele>811.41</ele>
        <time>2019-10-14T13:48:23.000Z</time>
      </trkpt>
      <trkpt lat="45.62349" lon="6.7793">
        <ele>814.14</ele>
        <time>2019-10-14T13:48:30.000Z</time>
      </trkpt>
      <trkpt lat="45.62351" lon="6.77944">
        <ele>818.05</ele>
        <time>2019-10-14T13:48:39.000Z</time>
      </trkpt>
      <trkpt lat="45.62354" lon="6.77958">
        <ele>817.78</ele>
        <time>2019-10-14T13:48:47.000Z</time>
      </trkpt>
      <trkpt lat="45.62358" lon="6.77972">
        <ele>815.87</ele>
        <time>2019-10-14T13:48:54.000Z</time>
      </trkpt>
      <trkpt lat="45.62363" lon="6.77983">
        <ele>814.52</ele>
        <time>2019-10-14T13:49:00.000Z</time>
      </trkpt>
      <trkpt lat="45.6236" lon="6.77996">
        <ele>818.13</ele>
        <time>2019-10-14T13:49:15.000Z</time>
      </trkpt>
      <trkpt lat="45.6236" lon="6.78011">
        <ele>818.28</ele>
        <time>2019-10-14T13:49:25.000Z</time>
      </trkpt>
      <trkpt lat="45.62362" lon="6.78024">
        <ele>816.01</ele>
        <time>2019-10-14T13:49:31.000Z</time>
      </trkpt>
      <trkpt lat="45.62362" lon="6.78039">
        <ele>817.26</ele>
        <time>2019-10-14T13:49:38.000Z</time>
      </trkpt>
      <trkpt lat="45.62364" lon="6.78053">
        <ele>818.67</ele>
        <time>2019-10-14T13:49:46.000Z</time>
      </trkpt>
      <trkpt lat="45.62367" lon="6.78067">
        <ele>817.07</ele>
        <time>2019-10-14T13:49:54.000Z</time>
      </trkpt>
      <trkpt lat="45.6237" lon="6.7808">
        <ele>817.18</ele>
        <time>2019-10-14T13:50:01.000Z</time>
      </trkpt>
      <trkpt lat="45.62377" lon="6.7809">
        <ele>815.79</ele>
        <time>2019-10-14T13:50:07.000Z</time>
      </trkpt>
      <trkpt lat="45.62376" lon="6.78103">
        <ele>820.37</ele>
        <time>2019-10-14T13:50:16.000Z</time>
      </trkpt>
      <trkpt lat="45.62383" lon="6.78113">
        <ele>821.61</ele>
        <time>2019-10-14T13:50:26.000Z</time>
      </trkpt>
      <trkpt lat="45.62395" lon="6.7812">
        <ele>812.38</ele>
        <time>2019-10-14T13:50:31.000Z</time>
      </trkpt>
      <trkpt lat="45.62396" lon="6.78134">
        <ele>827.72</ele>
        <time>2019-10-14T13:50:44.000Z</time>
      </trkpt>
      <trkpt lat="45.624" lon="6.78147">
        <ele>834.89</ele>
        <time>2019-10-14T13:50:51.000Z</time>
      </trkpt>
      <trkpt lat="45.62409" lon="6.78143">
        <ele>833.75</ele>
        <time>2019-10-14T13:51:02.000Z</time>
      </trkpt>
      <trkpt lat="45.62418" lon="6.78141">
        <ele>832.72</ele>
        <time>2019-10-14T13:51:18.000Z</time>
      </trkpt>
      <trkpt lat="45.62427" lon="6.78146">
        <ele>833.23</ele>
        <time>2019-10-14T13:51:26.000Z</time>
      </trkpt>
      <trkpt lat="45.62438" lon="6.78119">
        <ele>796.31</ele>
        <time>2019-10-14T14:02:15.000Z</time>
      </trkpt>
      <trkpt lat="45.6243" lon="6.7813">
        <ele>813.4</ele>
        <time>2019-10-14T14:04:13.000Z</time>
      </trkpt>
      <trkpt lat="45.6242" lon="6.78135">
        <ele>822.94</ele>
        <time>2019-10-14T14:05:21.000Z</time>
      </trkpt>
      <trkpt lat="45.62411" lon="6.78131">
        <ele>818.63</ele>
        <time>2019-10-14T14:05:42.000Z</time>
      </trkpt>
      <trkpt lat="45.62404" lon="6.78123">
        <ele>819.48</ele>
        <time>2019-10-14T14:05:51.000Z</time>
      </trkpt>
      <trkpt lat="45.62395" lon="6.78118">
        <ele>820.01</ele>
        <time>2019-10-14T14:05:58.000Z</time>
      </trkpt>
      <trkpt lat="45.62386" lon="6.78121">
        <ele>825.22</ele>
        <time>2019-10-14T14:06:03.000Z</time>
      </trkpt>
      <trkpt lat="45.62378" lon="6.78126">
        <ele>830.19</ele>
        <time>2019-10-14T14:06:09.000Z</time>
      </trkpt>
      <trkpt lat="45.62371" lon="6.78136">
        <ele>824.42</ele>
        <time>2019-10-14T14:06:19.000Z</time>
      </trkpt>
      <trkpt lat="45.62362" lon="6.78134">
        <ele>829.6</ele>
        <time>2019-10-14T14:07:23.000Z</time>
      </trkpt>
      <trkpt lat="45.62372" lon="6.78132">
        <ele>818.88</ele>
        <time>2019-10-14T14:10:26.000Z</time>
      </trkpt>
      <trkpt lat="45.6238" lon="6.78122">
        <ele>815.59</ele>
        <time>2019-10-14T14:10:34.000Z</time>
      </trkpt>
      <trkpt lat="45.62377" lon="6.78098">
        <ele>812.57</ele>
        <time>2019-10-14T14:10:39.000Z</time>
      </trkpt>
      <trkpt lat="45.62362" lon="6.78066">
        <ele>810.6</ele>
        <time>2019-10-14T14:10:44.000Z</time>
      </trkpt>
      <trkpt lat="45.62358" lon="6.78034">
        <ele>807.64</ele>
        <time>2019-10-14T14:10:49.000Z</time>
      </trkpt>
      <trkpt lat="45.6235" lon="6.78004">
        <ele>803.5</ele>
        <time>2019-10-14T14:10:54.000Z</time>
      </trkpt>
      <trkpt lat="45.62342" lon="6.77976">
        <ele>807.29</ele>
        <time>2019-10-14T14:10:59.000Z</time>
      </trkpt>
      <trkpt lat="45.62343" lon="6.77933">
        <ele>806.87</ele>
        <time>2019-10-14T14:11:04.000Z</time>
      </trkpt>
      <trkpt lat="45.62345" lon="6.77892">
        <ele>806.26</ele>
        <time>2019-10-14T14:11:09.000Z</time>
      </trkpt>
      <trkpt lat="45.62351" lon="6.7786">
        <ele>806.03</ele>
        <time>2019-10-14T14:11:14.000Z</time>
      </trkpt>
      <trkpt lat="45.62361" lon="6.77829">
        <ele>806.53</ele>
        <time>2019-10-14T14:11:19.000Z</time>
      </trkpt>
      <trkpt lat="45.62341" lon="6.778">
        <ele>808.33</ele>
        <time>2019-10-14T14:11:24.000Z</time>
      </trkpt>
      <trkpt lat="45.62324" lon="6.77766">
        <ele>814.12</ele>
        <time>2019-10-14T14:11:29.000Z</time>
      </trkpt>
      <trkpt lat="45.62307" lon="6.77728">
        <ele>812.12</ele>
        <time>2019-10-14T14:11:34.000Z</time>
      </trkpt>
      <trkpt lat="45.62288" lon="6.77688">
        <ele>806.64</ele>
        <time>2019-10-14T14:11:39.000Z</time>
      </trkpt>
      <trkpt lat="45.62261" lon="6.77643">
        <ele>804.66</ele>
        <time>2019-10-14T14:11:44.000Z</time>
      </trkpt>
      <trkpt lat="45.62243" lon="6.77598">
        <ele>802.83</ele>
        <time>2019-10-14T14:11:49.000Z</time>
      </trkpt>
      <trkpt lat="45.62225" lon="6.77561">
        <ele>801.91</ele>
        <time>2019-10-14T14:11:54.000Z</time>
      </trkpt>
      <trkpt lat="45.62218" lon="6.77542">
        <ele>802.76</ele>
        <time>2019-10-14T14:11:59.000Z</time>
      </trkpt>
      <trkpt lat="45.62222" lon="6.77529">
        <ele>796.75</ele>
        <time>2019-10-14T14:12:43.000Z</time>
      </trkpt>
      <trkpt lat="45.62215" lon="6.77513">
        <ele>796.45</ele>
        <time>2019-10-14T14:12:48.000Z</time>
      </trkpt>
      <trkpt lat="45.62204" lon="6.77493">
        <ele>795.55</ele>
        <time>2019-10-14T14:12:53.000Z</time>
      </trkpt>
      <trkpt lat="45.62195" lon="6.77467">
        <ele>795.92</ele>
        <time>2019-10-14T14:12:58.000Z</time>
      </trkpt>
      <trkpt lat="45.62182" lon="6.7744">
        <ele>795.88</ele>
        <time>2019-10-14T14:13:03.000Z</time>
      </trkpt>
      <trkpt lat="45.62174" lon="6.77409">
        <ele>795.2</ele>
        <time>2019-10-14T14:13:08.000Z</time>
      </trkpt>
      <trkpt lat="45.62162" lon="6.77383">
        <ele>796.02</ele>
        <time>2019-10-14T14:13:13.000Z</time>
      </trkpt>
      <trkpt lat="45.62155" lon="6.77354">
        <ele>796.05</ele>
        <time>2019-10-14T14:13:18.000Z</time>
      </trkpt>
      <trkpt lat="45.62141" lon="6.7733">
        <ele>795.57</ele>
        <time>2019-10-14T14:13:23.000Z</time>
      </trkpt>
      <trkpt lat="45.62129" lon="6.77305">
        <ele>796.87</ele>
        <time>2019-10-14T14:13:28.000Z</time>
      </trkpt>
      <trkpt lat="45.62119" lon="6.77284">
        <ele>800.74</ele>
        <time>2019-10-14T14:13:33.000Z</time>
      </trkpt>
      <trkpt lat="45.62112" lon="6.77257">
        <ele>800.46</ele>
        <time>2019-10-14T14:13:38.000Z</time>
      </trkpt>
      <trkpt lat="45.621" lon="6.77234">
        <ele>802.75</ele>
        <time>2019-10-14T14:13:43.000Z</time>
      </trkpt>
      <trkpt lat="45.62089" lon="6.77211">
        <ele>803.57</ele>
        <time>2019-10-14T14:13:48.000Z</time>
      </trkpt>
      <trkpt lat="45.62076" lon="6.77188">
        <ele>806.8</ele>
        <time>2019-10-14T14:13:53.000Z</time>
      </trkpt>
      <trkpt lat="45.62064" lon="6.77155">
        <ele>805.95</ele>
        <time>2019-10-14T14:13:58.000Z</time>
      </trkpt>
      <trkpt lat="45.62054" lon="6.77129">
        <ele>805.25</ele>
        <time>2019-10-14T14:14:03.000Z</time>
      </trkpt>
      <trkpt lat="45.62056" lon="6.77106">
        <ele>804.01</ele>
        <time>2019-10-14T14:14:08.000Z</time>
      </trkpt>
      <trkpt lat="45.62073" lon="6.77093">
        <ele>803.11</ele>
        <time>2019-10-14T14:14:13.000Z</time>
      </trkpt>
      <trkpt lat="45.62093" lon="6.77091">
        <ele>805.18</ele>
        <time>2019-10-14T14:14:18.000Z</time>
      </trkpt>
      <trkpt lat="45.62114" lon="6.77091">
        <ele>804.06</ele>
        <time>2019-10-14T14:14:23.000Z</time>
      </trkpt>
      <trkpt lat="45.62134" lon="6.77091">
        <ele>804.44</ele>
        <time>2019-10-14T14:14:28.000Z</time>
      </trkpt>
      <trkpt lat="45.62152" lon="6.77096">
        <ele>807.52</ele>
        <time>2019-10-14T14:14:33.000Z</time>
      </trkpt>
      <trkpt lat="45.62178" lon="6.77095">
        <ele>812.2</ele>
        <time>2019-10-14T14:14:38.000Z</time>
      </trkpt>
      <trkpt lat="45.62202" lon="6.77092">
        <ele>814.19</ele>
        <time>2019-10-14T14:14:43.000Z</time>
      </trkpt>
      <trkpt lat="45.62221" lon="6.77098">
        <ele>816.77</ele>
        <time>2019-10-14T14:14:48.000Z</time>
      </trkpt>
      <trkpt lat="45.62244" lon="6.77103">
        <ele>819.98</ele>
        <time>2019-10-14T14:14:53.000Z</time>
      </trkpt>
      <trkpt lat="45.62268" lon="6.77113">
        <ele>823.51</ele>
        <time>2019-10-14T14:14:58.000Z</time>
      </trkpt>
      <trkpt lat="45.62291" lon="6.77126">
        <ele>823.14</ele>
        <time>2019-10-14T14:15:03.000Z</time>
      </trkpt>
      <trkpt lat="45.62314" lon="6.77137">
        <ele>823.57</ele>
        <time>2019-10-14T14:15:08.000Z</time>
      </trkpt>
      <trkpt lat="45.62334" lon="6.77152">
        <ele>826.08</ele>
        <time>2019-10-14T14:15:13.000Z</time>
      </trkpt>
      <trkpt lat="45.62345" lon="6.77171">
        <ele>827.25</ele>
        <time>2019-10-14T14:15:18.000Z</time>
      </trkpt>
      <trkpt lat="45.62354" lon="6.77173">
        <ele>824.93</ele>
        <time>2019-10-14T14:16:31.000Z</time>
      </trkpt>
      <trkpt lat="45.62365" lon="6.77187">
        <ele>818.88</ele>
        <time>2019-10-14T14:16:36.000Z</time>
      </trkpt>
      <trkpt lat="45.62377" lon="6.77209">
        <ele>821.82</ele>
        <time>2019-10-14T14:16:41.000Z</time>
      </trkpt>
      <trkpt lat="45.62389" lon="6.77227">
        <ele>820.46</ele>
        <time>2019-10-14T14:16:46.000Z</time>
      </trkpt>
      <trkpt lat="45.624" lon="6.77248">
        <ele>816.35</ele>
        <time>2019-10-14T14:16:51.000Z</time>
      </trkpt>
      <trkpt lat="45.62409" lon="6.77273">
        <ele>818.42</ele>
        <time>2019-10-14T14:16:56.000Z</time>
      </trkpt>
      <trkpt lat="45.62418" lon="6.77297">
        <ele>817.36</ele>
        <time>2019-10-14T14:17:01.000Z</time>
      </trkpt>
      <trkpt lat="45.62426" lon="6.77321">
        <ele>818.3</ele>
        <time>2019-10-14T14:17:06.000Z</time>
      </trkpt>
      <trkpt lat="45.62437" lon="6.77344">
        <ele>820.99</ele>
        <time>2019-10-14T14:17:11.000Z</time>
      </trkpt>
      <trkpt lat="45.62446" lon="6.77367">
        <ele>821.4</ele>
        <time>2019-10-14T14:17:16.000Z</time>
      </trkpt>
      <trkpt lat="45.62453" lon="6.77391">
        <ele>824.17</ele>
        <time>2019-10-14T14:17:21.000Z</time>
      </trkpt>
      <trkpt lat="45.62459" lon="6.77414">
        <ele>825.94</ele>
        <time>2019-10-14T14:17:26.000Z</time>
      </trkpt>
      <trkpt lat="45.62469" lon="6.77437">
        <ele>819.13</ele>
        <time>2019-10-14T14:17:31.000Z</time>
      </trkpt>
      <trkpt lat="45.62478" lon="6.7746">
        <ele>820.25</ele>
        <time>2019-10-14T14:17:36.000Z</time>
      </trkpt>
      <trkpt lat="45.62486" lon="6.77485">
        <ele>822.41</ele>
        <time>2019-10-14T14:17:41.000Z</time>
      </trkpt>
      <trkpt lat="45.62497" lon="6.77507">
        <ele>822.69</ele>
        <time>2019-10-14T14:17:46.000Z</time>
      </trkpt>
      <trkpt lat="45.62507" lon="6.77527">
        <ele>826.88</ele>
        <time>2019-10-14T14:17:51.000Z</time>
      </trkpt>
      <trkpt lat="45.62515" lon="6.77549">
        <ele>827.4</ele>
        <time>2019-10-14T14:17:56.000Z</time>
      </trkpt>
      <trkpt lat="45.62519" lon="6.77572">
        <ele>828.04</ele>
        <time>2019-10-14T14:18:01.000Z</time>
      </trkpt>
      <trkpt lat="45.62514" lon="6.77595">
        <ele>828.11</ele>
        <time>2019-10-14T14:18:06.000Z</time>
      </trkpt>
      <trkpt lat="45.62508" lon="6.77624">
        <ele>827.85</ele>
        <time>2019-10-14T14:18:11.000Z</time>
      </trkpt>
      <trkpt lat="45.62506" lon="6.77655">
        <ele>830.2</ele>
        <time>2019-10-14T14:18:16.000Z</time>
      </trkpt>
      <trkpt lat="45.62508" lon="6.77681">
        <ele>834.73</ele>
        <time>2019-10-14T14:18:21.000Z</time>
      </trkpt>
      <trkpt lat="45.6251" lon="6.77708">
        <ele>842.01</ele>
        <time>2019-10-14T14:18:26.000Z</time>
      </trkpt>
      <trkpt lat="45.6252" lon="6.7773">
        <ele>839.8</ele>
        <time>2019-10-14T14:18:31.000Z</time>
      </trkpt>
      <trkpt lat="45.62531" lon="6.77751">
        <ele>841.73</ele>
        <time>2019-10-14T14:18:36.000Z</time>
      </trkpt>
      <trkpt lat="45.6254" lon="6.77772">
        <ele>841.19</ele>
        <time>2019-10-14T14:18:41.000Z</time>
      </trkpt>
      <trkpt lat="45.62555" lon="6.77785">
        <ele>844.44</ele>
        <time>2019-10-14T14:18:46.000Z</time>
      </trkpt>
      <trkpt lat="45.62572" lon="6.77779">
        <ele>846.42</ele>
        <time>2019-10-14T14:18:51.000Z</time>
      </trkpt>
      <trkpt lat="45.62589" lon="6.77776">
        <ele>846.2</ele>
        <time>2019-10-14T14:18:56.000Z</time>
      </trkpt>
      <trkpt lat="45.62608" lon="6.77777">
        <ele>843.18</ele>
        <time>2019-10-14T14:19:01.000Z</time>
      </trkpt>
      <trkpt lat="45.62625" lon="6.77784">
        <ele>841.68</ele>
        <time>2019-10-14T14:19:06.000Z</time>
      </trkpt>
      <trkpt lat="45.62631" lon="6.77809">
        <ele>844.88</ele>
        <time>2019-10-14T14:19:11.000Z</time>
      </trkpt>
      <trkpt lat="45.62628" lon="6.77833">
        <ele>845.04</ele>
        <time>2019-10-14T14:19:16.000Z</time>
      </trkpt>
      <trkpt lat="45.6262" lon="6.77861">
        <ele>853.07</ele>
        <time>2019-10-14T14:19:21.000Z</time>
      </trkpt>
      <trkpt lat="45.62617" lon="6.77891">
        <ele>854.91</ele>
        <time>2019-10-14T14:19:26.000Z</time>
      </trkpt>
      <trkpt lat="45.6262" lon="6.77917">
        <ele>856.84</ele>
        <time>2019-10-14T14:19:31.000Z</time>
      </trkpt>
      <trkpt lat="45.62635" lon="6.77935">
        <ele>859.03</ele>
        <time>2019-10-14T14:19:36.000Z</time>
      </trkpt>
      <trkpt lat="45.62649" lon="6.77951">
        <ele>866.6</ele>
        <time>2019-10-14T14:19:41.000Z</time>
      </trkpt>
      <trkpt lat="45.62663" lon="6.77969">
        <ele>866.55</ele>
        <time>2019-10-14T14:19:46.000Z</time>
      </trkpt>
      <trkpt lat="45.62673" lon="6.7799">
        <ele>868.07</ele>
        <time>2019-10-14T14:19:51.000Z</time>
      </trkpt>
      <trkpt lat="45.62681" lon="6.78014">
        <ele>869.4</ele>
        <time>2019-10-14T14:19:56.000Z</time>
      </trkpt>
      <trkpt lat="45.62687" lon="6.78039">
        <ele>871.62</ele>
        <time>2019-10-14T14:20:01.000Z</time>
      </trkpt>
      <trkpt lat="45.62693" lon="6.78063">
        <ele>872.63</ele>
        <time>2019-10-14T14:20:06.000Z</time>
      </trkpt>
      <trkpt lat="45.62701" lon="6.78086">
        <ele>875.35</ele>
        <time>2019-10-14T14:20:11.000Z</time>
      </trkpt>
      <trkpt lat="45.62709" lon="6.78108">
        <ele>878.96</ele>
        <time>2019-10-14T14:20:16.000Z</time>
      </trkpt>
      <trkpt lat="45.62718" lon="6.78128">
        <ele>881.67</ele>
        <time>2019-10-14T14:20:21.000Z</time>
      </trkpt>
      <trkpt lat="45.62727" lon="6.78149">
        <ele>883.58</ele>
        <time>2019-10-14T14:20:26.000Z</time>
      </trkpt>
      <trkpt lat="45.62737" lon="6.78171">
        <ele>887.49</ele>
        <time>2019-10-14T14:20:31.000Z</time>
      </trkpt>
      <trkpt lat="45.62748" lon="6.78189">
        <ele>886.16</ele>
        <time>2019-10-14T14:20:36.000Z</time>
      </trkpt>
      <trkpt lat="45.62753" lon="6.78212">
        <ele>886.79</ele>
        <time>2019-10-14T14:20:41.000Z</time>
      </trkpt>
      <trkpt lat="45.62759" lon="6.78237">
        <ele>887.03</ele>
        <time>2019-10-14T14:20:46.000Z</time>
      </trkpt>
      <trkpt lat="45.62764" lon="6.78262">
        <ele>887.09</ele>
        <time>2019-10-14T14:20:51.000Z</time>
      </trkpt>
      <trkpt lat="45.62768" lon="6.78284">
        <ele>890.66</ele>
        <time>2019-10-14T14:20:56.000Z</time>
      </trkpt>
      <trkpt lat="45.62772" lon="6.78308">
        <ele>889.61</ele>
        <time>2019-10-14T14:21:01.000Z</time>
      </trkpt>
      <trkpt lat="45.62779" lon="6.78332">
        <ele>887.99</ele>
        <time>2019-10-14T14:21:06.000Z</time>
      </trkpt>
      <trkpt lat="45.62788" lon="6.78352">
        <ele>886.84</ele>
        <time>2019-10-14T14:21:11.000Z</time>
      </trkpt>
      <trkpt lat="45.628" lon="6.78373">
        <ele>885.05</ele>
        <time>2019-10-14T14:21:16.000Z</time>
      </trkpt>
      <trkpt lat="45.62815" lon="6.78389">
        <ele>881.12</ele>
        <time>2019-10-14T14:21:21.000Z</time>
      </trkpt>
      <trkpt lat="45.62832" lon="6.78407">
        <ele>875.13</ele>
        <time>2019-10-14T14:21:26.000Z</time>
      </trkpt>
      <trkpt lat="45.62843" lon="6.78428">
        <ele>880.13</ele>
        <time>2019-10-14T14:21:31.000Z</time>
      </trkpt>
      <trkpt lat="45.62853" lon="6.78451">
        <ele>879.89</ele>
        <time>2019-10-14T14:21:36.000Z</time>
      </trkpt>
      <trkpt lat="45.62865" lon="6.78471">
        <ele>883.21</ele>
        <time>2019-10-14T14:21:41.000Z</time>
      </trkpt>
      <trkpt lat="45.62875" lon="6.7849">
        <ele>897.42</ele>
        <time>2019-10-14T14:21:46.000Z</time>
      </trkpt>
      <trkpt lat="45.62887" lon="6.78509">
        <ele>900.41</ele>
        <time>2019-10-14T14:21:51.000Z</time>
      </trkpt>
      <trkpt lat="45.62902" lon="6.78524">
        <ele>905.18</ele>
        <time>2019-10-14T14:21:56.000Z</time>
      </trkpt>
      <trkpt lat="45.62918" lon="6.78532">
        <ele>906.12</ele>
        <time>2019-10-14T14:22:01.000Z</time>
      </trkpt>
      <trkpt lat="45.62937" lon="6.78535">
        <ele>907.44</ele>
        <time>2019-10-14T14:22:06.000Z</time>
      </trkpt>
      <trkpt lat="45.62956" lon="6.78538">
        <ele>905.7</ele>
        <time>2019-10-14T14:22:11.000Z</time>
      </trkpt>
      <trkpt lat="45.62973" lon="6.78548">
        <ele>907.7</ele>
        <time>2019-10-14T14:22:16.000Z</time>
      </trkpt>
      <trkpt lat="45.62989" lon="6.78559">
        <ele>908.31</ele>
        <time>2019-10-14T14:22:21.000Z</time>
      </trkpt>
      <trkpt lat="45.63005" lon="6.78555">
        <ele>907.66</ele>
        <time>2019-10-14T14:22:26.000Z</time>
      </trkpt>
      <trkpt lat="45.63002" lon="6.78529">
        <ele>909.23</ele>
        <time>2019-10-14T14:22:31.000Z</time>
      </trkpt>
      <trkpt lat="45.62983" lon="6.78518">
        <ele>911.17</ele>
        <time>2019-10-14T14:22:36.000Z</time>
      </trkpt>
      <trkpt lat="45.62965" lon="6.78511">
        <ele>913.56</ele>
        <time>2019-10-14T14:22:41.000Z</time>
      </trkpt>
      <trkpt lat="45.62948" lon="6.78502">
        <ele>915.66</ele>
        <time>2019-10-14T14:22:46.000Z</time>
      </trkpt>
      <trkpt lat="45.62932" lon="6.7849">
        <ele>917.07</ele>
        <time>2019-10-14T14:22:51.000Z</time>
      </trkpt>
      <trkpt lat="45.62915" lon="6.78477">
        <ele>916.58</ele>
        <time>2019-10-14T14:22:56.000Z</time>
      </trkpt>
      <trkpt lat="45.629" lon="6.78462">
        <ele>918.59</ele>
        <time>2019-10-14T14:23:01.000Z</time>
      </trkpt>
      <trkpt lat="45.6289" lon="6.7844">
        <ele>921.73</ele>
        <time>2019-10-14T14:23:06.000Z</time>
      </trkpt>
      <trkpt lat="45.62886" lon="6.78416">
        <ele>926.82</ele>
        <time>2019-10-14T14:23:11.000Z</time>
      </trkpt>
      <trkpt lat="45.62882" lon="6.78391">
        <ele>928.09</ele>
        <time>2019-10-14T14:23:16.000Z</time>
      </trkpt>
      <trkpt lat="45.62882" lon="6.78366">
        <ele>924.44</ele>
        <time>2019-10-14T14:23:21.000Z</time>
      </trkpt>
      <trkpt lat="45.62884" lon="6.78339">
        <ele>924.68</ele>
        <time>2019-10-14T14:23:26.000Z</time>
      </trkpt>
      <trkpt lat="45.6289" lon="6.78314">
        <ele>925.57</ele>
        <time>2019-10-14T14:23:31.000Z</time>
      </trkpt>
      <trkpt lat="45.62904" lon="6.783">
        <ele>926.35</ele>
        <time>2019-10-14T14:23:36.000Z</time>
      </trkpt>
      <trkpt lat="45.62918" lon="6.78293">
        <ele>926.62</ele>
        <time>2019-10-14T14:23:41.000Z</time>
      </trkpt>
      <trkpt lat="45.62933" lon="6.78306">
        <ele>929.63</ele>
        <time>2019-10-14T14:23:46.000Z</time>
      </trkpt>
      <trkpt lat="45.62949" lon="6.78321">
        <ele>928.95</ele>
        <time>2019-10-14T14:23:51.000Z</time>
      </trkpt>
      <trkpt lat="45.62965" lon="6.78337">
        <ele>929.68</ele>
        <time>2019-10-14T14:23:56.000Z</time>
      </trkpt>
      <trkpt lat="45.62979" lon="6.78353">
        <ele>930.79</ele>
        <time>2019-10-14T14:24:01.000Z</time>
      </trkpt>
      <trkpt lat="45.62993" lon="6.78368">
        <ele>935.11</ele>
        <time>2019-10-14T14:24:06.000Z</time>
      </trkpt>
      <trkpt lat="45.63007" lon="6.78379">
        <ele>934.59</ele>
        <time>2019-10-14T14:24:11.000Z</time>
      </trkpt>
      <trkpt lat="45.63023" lon="6.78388">
        <ele>937.17</ele>
        <time>2019-10-14T14:24:16.000Z</time>
      </trkpt>
      <trkpt lat="45.63041" lon="6.78398">
        <ele>941.25</ele>
        <time>2019-10-14T14:24:21.000Z</time>
      </trkpt>
      <trkpt lat="45.6306" lon="6.78405">
        <ele>944.18</ele>
        <time>2019-10-14T14:24:26.000Z</time>
      </trkpt>
      <trkpt lat="45.63078" lon="6.7841">
        <ele>943.25</ele>
        <time>2019-10-14T14:24:31.000Z</time>
      </trkpt>
      <trkpt lat="45.63101" lon="6.78421">
        <ele>945.95</ele>
        <time>2019-10-14T14:24:36.000Z</time>
      </trkpt>
      <trkpt lat="45.63126" lon="6.78426">
        <ele>948.96</ele>
        <time>2019-10-14T14:24:41.000Z</time>
      </trkpt>
      <trkpt lat="45.63152" lon="6.78422">
        <ele>949.05</ele>
        <time>2019-10-14T14:24:46.000Z</time>
      </trkpt>
      <trkpt lat="45.63177" lon="6.78419">
        <ele>948.78</ele>
        <time>2019-10-14T14:24:51.000Z</time>
      </trkpt>
      <trkpt lat="45.63204" lon="6.78417">
        <ele>947.63</ele>
        <time>2019-10-14T14:24:56.000Z</time>
      </trkpt>
      <trkpt lat="45.63232" lon="6.78415">
        <ele>944.61</ele>
        <time>2019-10-14T14:25:01.000Z</time>
      </trkpt>
      <trkpt lat="45.63259" lon="6.78428">
        <ele>938.96</ele>
        <time>2019-10-14T14:25:06.000Z</time>
      </trkpt>
      <trkpt lat="45.63284" lon="6.78457">
        <ele>938.59</ele>
        <time>2019-10-14T14:25:11.000Z</time>
      </trkpt>
      <trkpt lat="45.63315" lon="6.78483">
        <ele>938.53</ele>
        <time>2019-10-14T14:25:16.000Z</time>
      </trkpt>
      <trkpt lat="45.63341" lon="6.785">
        <ele>940.03</ele>
        <time>2019-10-14T14:25:21.000Z</time>
      </trkpt>
      <trkpt lat="45.63374" lon="6.78517">
        <ele>939.53</ele>
        <time>2019-10-14T14:25:26.000Z</time>
      </trkpt>
      <trkpt lat="45.63398" lon="6.78531">
        <ele>935.34</ele>
        <time>2019-10-14T14:25:31.000Z</time>
      </trkpt>
      <trkpt lat="45.63423" lon="6.78541">
        <ele>934.77</ele>
        <time>2019-10-14T14:25:36.000Z</time>
      </trkpt>
      <trkpt lat="45.63452" lon="6.78532">
        <ele>935.81</ele>
        <time>2019-10-14T14:25:41.000Z</time>
      </trkpt>
      <trkpt lat="45.63484" lon="6.78532">
        <ele>932.87</ele>
        <time>2019-10-14T14:25:46.000Z</time>
      </trkpt>
      <trkpt lat="45.63521" lon="6.7854">
        <ele>933.55</ele>
        <time>2019-10-14T14:25:51.000Z</time>
      </trkpt>
      <trkpt lat="45.63549" lon="6.78549">
        <ele>938.49</ele>
        <time>2019-10-14T14:25:56.000Z</time>
      </trkpt>
      <trkpt lat="45.63578" lon="6.78539">
        <ele>941.46</ele>
        <time>2019-10-14T14:26:01.000Z</time>
      </trkpt>
      <trkpt lat="45.6361" lon="6.78522">
        <ele>938.55</ele>
        <time>2019-10-14T14:26:06.000Z</time>
      </trkpt>
      <trkpt lat="45.63632" lon="6.78523">
        <ele>939.13</ele>
        <time>2019-10-14T14:26:11.000Z</time>
      </trkpt>
      <trkpt lat="45.63655" lon="6.7852">
        <ele>943.34</ele>
        <time>2019-10-14T14:26:16.000Z</time>
      </trkpt>
      <trkpt lat="45.63676" lon="6.78506">
        <ele>946.58</ele>
        <time>2019-10-14T14:26:21.000Z</time>
      </trkpt>
      <trkpt lat="45.637" lon="6.78484">
        <ele>942.6</ele>
        <time>2019-10-14T14:26:26.000Z</time>
      </trkpt>
      <trkpt lat="45.63726" lon="6.78463">
        <ele>939.77</ele>
        <time>2019-10-14T14:26:31.000Z</time>
      </trkpt>
      <trkpt lat="45.63761" lon="6.78457">
        <ele>939.72</ele>
        <time>2019-10-14T14:26:36.000Z</time>
      </trkpt>
      <trkpt lat="45.63791" lon="6.78441">
        <ele>941.31</ele>
        <time>2019-10-14T14:26:41.000Z</time>
      </trkpt>
      <trkpt lat="45.63821" lon="6.78442">
        <ele>943.41</ele>
        <time>2019-10-14T14:26:46.000Z</time>
      </trkpt>
      <trkpt lat="45.6385" lon="6.78447">
        <ele>944.22</ele>
        <time>2019-10-14T14:26:51.000Z</time>
      </trkpt>
      <trkpt lat="45.63878" lon="6.78441">
        <ele>942.6</ele>
        <time>2019-10-14T14:26:56.000Z</time>
      </trkpt>
      <trkpt lat="45.63902" lon="6.7843">
        <ele>944.24</ele>
        <time>2019-10-14T14:27:01.000Z</time>
      </trkpt>
      <trkpt lat="45.63929" lon="6.78441">
        <ele>945.73</ele>
        <time>2019-10-14T14:27:06.000Z</time>
      </trkpt>
      <trkpt lat="45.63952" lon="6.78468">
        <ele>940.81</ele>
        <time>2019-10-14T14:27:11.000Z</time>
      </trkpt>
      <trkpt lat="45.63983" lon="6.78499">
        <ele>941.79</ele>
        <time>2019-10-14T14:27:16.000Z</time>
      </trkpt>
      <trkpt lat="45.64011" lon="6.7851">
        <ele>939.36</ele>
        <time>2019-10-14T14:27:21.000Z</time>
      </trkpt>
      <trkpt lat="45.64041" lon="6.78513">
        <ele>939.35</ele>
        <time>2019-10-14T14:27:26.000Z</time>
      </trkpt>
      <trkpt lat="45.64075" lon="6.78527">
        <ele>938.06</ele>
        <time>2019-10-14T14:27:31.000Z</time>
      </trkpt>
      <trkpt lat="45.64104" lon="6.78542">
        <ele>935.73</ele>
        <time>2019-10-14T14:27:36.000Z</time>
      </trkpt>
      <trkpt lat="45.64134" lon="6.7856">
        <ele>938.98</ele>
        <time>2019-10-14T14:27:41.000Z</time>
      </trkpt>
      <trkpt lat="45.64161" lon="6.78581">
        <ele>937.87</ele>
        <time>2019-10-14T14:27:46.000Z</time>
      </trkpt>
      <trkpt lat="45.64188" lon="6.78602">
        <ele>937.46</ele>
        <time>2019-10-14T14:27:51.000Z</time>
      </trkpt>
      <trkpt lat="45.64215" lon="6.78619">
        <ele>939.09</ele>
        <time>2019-10-14T14:27:56.000Z</time>
      </trkpt>
      <trkpt lat="45.64242" lon="6.78621">
        <ele>937.93</ele>
        <time>2019-10-14T14:28:01.000Z</time>
      </trkpt>
      <trkpt lat="45.64272" lon="6.7862">
        <ele>939.11</ele>
        <time>2019-10-14T14:28:06.000Z</time>
      </trkpt>
      <trkpt lat="45.64299" lon="6.78616">
        <ele>939.01</ele>
        <time>2019-10-14T14:28:11.000Z</time>
      </trkpt>
      <trkpt lat="45.64324" lon="6.78616">
        <ele>941.81</ele>
        <time>2019-10-14T14:28:16.000Z</time>
      </trkpt>
      <trkpt lat="45.6435" lon="6.78613">
        <ele>940.31</ele>
        <time>2019-10-14T14:28:21.000Z</time>
      </trkpt>
      <trkpt lat="45.64378" lon="6.7861">
        <ele>936.76</ele>
        <time>2019-10-14T14:28:26.000Z</time>
      </trkpt>
      <trkpt lat="45.64403" lon="6.78603">
        <ele>938.44</ele>
        <time>2019-10-14T14:28:31.000Z</time>
      </trkpt>
      <trkpt lat="45.64431" lon="6.78602">
        <ele>939.24</ele>
        <time>2019-10-14T14:28:36.000Z</time>
      </trkpt>
      <trkpt lat="45.64455" lon="6.78602">
        <ele>940.43</ele>
        <time>2019-10-14T14:28:41.000Z</time>
      </trkpt>
      <trkpt lat="45.64484" lon="6.78602">
        <ele>940.62</ele>
        <time>2019-10-14T14:28:46.000Z</time>
      </trkpt>
      <trkpt lat="45.64509" lon="6.786">
        <ele>943.86</ele>
        <time>2019-10-14T14:28:51.000Z</time>
      </trkpt>
      <trkpt lat="45.64538" lon="6.78594">
        <ele>947.25</ele>
        <time>2019-10-14T14:28:56.000Z</time>
      </trkpt>
      <trkpt lat="45.64565" lon="6.78582">
        <ele>945.72</ele>
        <time>2019-10-14T14:29:01.000Z</time>
      </trkpt>
      <trkpt lat="45.64591" lon="6.78583">
        <ele>948.69</ele>
        <time>2019-10-14T14:29:06.000Z</time>
      </trkpt>
      <trkpt lat="45.64624" lon="6.78589">
        <ele>950.53</ele>
        <time>2019-10-14T14:29:11.000Z</time>
      </trkpt>
      <trkpt lat="45.64651" lon="6.78596">
        <ele>951.39</ele>
        <time>2019-10-14T14:29:16.000Z</time>
      </trkpt>
      <trkpt lat="45.64673" lon="6.78601">
        <ele>954.83</ele>
        <time>2019-10-14T14:29:21.000Z</time>
      </trkpt>
      <trkpt lat="45.64702" lon="6.78595">
        <ele>959.62</ele>
        <time>2019-10-14T14:29:26.000Z</time>
      </trkpt>
      <trkpt lat="45.64731" lon="6.78597">
        <ele>961.35</ele>
        <time>2019-10-14T14:29:31.000Z</time>
      </trkpt>
      <trkpt lat="45.64756" lon="6.78602">
        <ele>962.79</ele>
        <time>2019-10-14T14:29:36.000Z</time>
      </trkpt>
      <trkpt lat="45.64777" lon="6.78612">
        <ele>964.54</ele>
        <time>2019-10-14T14:29:41.000Z</time>
      </trkpt>
      <trkpt lat="45.64798" lon="6.78623">
        <ele>965.11</ele>
        <time>2019-10-14T14:29:46.000Z</time>
      </trkpt>
      <trkpt lat="45.64817" lon="6.78635">
        <ele>970.78</ele>
        <time>2019-10-14T14:29:51.000Z</time>
      </trkpt>
      <trkpt lat="45.64837" lon="6.78649">
        <ele>976.35</ele>
        <time>2019-10-14T14:29:56.000Z</time>
      </trkpt>
      <trkpt lat="45.64855" lon="6.78662">
        <ele>975.74</ele>
        <time>2019-10-14T14:30:01.000Z</time>
      </trkpt>
      <trkpt lat="45.64873" lon="6.78675">
        <ele>974.42</ele>
        <time>2019-10-14T14:30:06.000Z</time>
      </trkpt>
      <trkpt lat="45.64891" lon="6.78685">
        <ele>973.99</ele>
        <time>2019-10-14T14:30:11.000Z</time>
      </trkpt>
      <trkpt lat="45.64904" lon="6.78699">
        <ele>975.23</ele>
        <time>2019-10-14T14:30:16.000Z</time>
      </trkpt>
      <trkpt lat="45.64914" lon="6.78715">
        <ele>970.27</ele>
        <time>2019-10-14T14:30:21.000Z</time>
      </trkpt>
      <trkpt lat="45.64931" lon="6.78728">
        <ele>972.28</ele>
        <time>2019-10-14T14:30:26.000Z</time>
      </trkpt>
      <trkpt lat="45.64949" lon="6.78738">
        <ele>975.98</ele>
        <time>2019-10-14T14:30:31.000Z</time>
      </trkpt>
      <trkpt lat="45.64964" lon="6.7875">
        <ele>978.06</ele>
        <time>2019-10-14T14:30:36.000Z</time>
      </trkpt>
      <trkpt lat="45.64982" lon="6.78761">
        <ele>977.31</ele>
        <time>2019-10-14T14:30:41.000Z</time>
      </trkpt>
      <trkpt lat="45.65001" lon="6.78772">
        <ele>976.61</ele>
        <time>2019-10-14T14:30:46.000Z</time>
      </trkpt>
      <trkpt lat="45.65017" lon="6.78779">
        <ele>979.24</ele>
        <time>2019-10-14T14:30:51.000Z</time>
      </trkpt>
      <trkpt lat="45.65034" lon="6.78781">
        <ele>978.84</ele>
        <time>2019-10-14T14:30:56.000Z</time>
      </trkpt>
      <trkpt lat="45.65051" lon="6.78778">
        <ele>981.98</ele>
        <time>2019-10-14T14:31:01.000Z</time>
      </trkpt>
      <trkpt lat="45.6507" lon="6.7877">
        <ele>983.36</ele>
        <time>2019-10-14T14:31:06.000Z</time>
      </trkpt>
      <trkpt lat="45.65087" lon="6.78768">
        <ele>986.97</ele>
        <time>2019-10-14T14:31:11.000Z</time>
      </trkpt>
      <trkpt lat="45.65104" lon="6.78766">
        <ele>985.94</ele>
        <time>2019-10-14T14:31:16.000Z</time>
      </trkpt>
      <trkpt lat="45.65123" lon="6.78762">
        <ele>987.64</ele>
        <time>2019-10-14T14:31:21.000Z</time>
      </trkpt>
      <trkpt lat="45.65141" lon="6.78759">
        <ele>988.65</ele>
        <time>2019-10-14T14:31:26.000Z</time>
      </trkpt>
      <trkpt lat="45.65158" lon="6.78753">
        <ele>991.83</ele>
        <time>2019-10-14T14:31:31.000Z</time>
      </trkpt>
      <trkpt lat="45.65175" lon="6.78744">
        <ele>994.29</ele>
        <time>2019-10-14T14:31:36.000Z</time>
      </trkpt>
      <trkpt lat="45.65191" lon="6.78732">
        <ele>996.8</ele>
        <time>2019-10-14T14:31:41.000Z</time>
      </trkpt>
      <trkpt lat="45.65208" lon="6.78719">
        <ele>996.69</ele>
        <time>2019-10-14T14:31:46.000Z</time>
      </trkpt>
      <trkpt lat="45.65222" lon="6.78705">
        <ele>999.9</ele>
        <time>2019-10-14T14:31:51.000Z</time>
      </trkpt>
      <trkpt lat="45.65239" lon="6.78693">
        <ele>1000.59</ele>
        <time>2019-10-14T14:31:56.000Z</time>
      </trkpt>
      <trkpt lat="45.65257" lon="6.78686">
        <ele>1000.82</ele>
        <time>2019-10-14T14:32:01.000Z</time>
      </trkpt>
      <trkpt lat="45.65273" lon="6.78675">
        <ele>1003.89</ele>
        <time>2019-10-14T14:32:06.000Z</time>
      </trkpt>
      <trkpt lat="45.65294" lon="6.78672">
        <ele>1002.86</ele>
        <time>2019-10-14T14:32:11.000Z</time>
      </trkpt>
      <trkpt lat="45.6531" lon="6.78677">
        <ele>1002.74</ele>
        <time>2019-10-14T14:32:16.000Z</time>
      </trkpt>
      <trkpt lat="45.65328" lon="6.7868">
        <ele>1005.65</ele>
        <time>2019-10-14T14:32:21.000Z</time>
      </trkpt>
      <trkpt lat="45.65352" lon="6.78677">
        <ele>1008.04</ele>
        <time>2019-10-14T14:32:26.000Z</time>
      </trkpt>
      <trkpt lat="45.65376" lon="6.78671">
        <ele>1007.11</ele>
        <time>2019-10-14T14:32:31.000Z</time>
      </trkpt>
      <trkpt lat="45.65395" lon="6.78664">
        <ele>1008.13</ele>
        <time>2019-10-14T14:32:36.000Z</time>
      </trkpt>
      <trkpt lat="45.65408" lon="6.78657">
        <ele>1009.96</ele>
        <time>2019-10-14T14:32:41.000Z</time>
      </trkpt>
      <trkpt lat="45.6542" lon="6.78647">
        <ele>1013.62</ele>
        <time>2019-10-14T14:32:46.000Z</time>
      </trkpt>
      <trkpt lat="45.65433" lon="6.7863">
        <ele>1016.02</ele>
        <time>2019-10-14T14:32:51.000Z</time>
      </trkpt>
      <trkpt lat="45.6545" lon="6.78614">
        <ele>1015.98</ele>
        <time>2019-10-14T14:32:56.000Z</time>
      </trkpt>
      <trkpt lat="45.65467" lon="6.78602">
        <ele>1015.7</ele>
        <time>2019-10-14T14:33:01.000Z</time>
      </trkpt>
      <trkpt lat="45.65475" lon="6.7858">
        <ele>1017.45</ele>
        <time>2019-10-14T14:33:06.000Z</time>
      </trkpt>
      <trkpt lat="45.65492" lon="6.78559">
        <ele>1015.16</ele>
        <time>2019-10-14T14:33:11.000Z</time>
      </trkpt>
      <trkpt lat="45.65504" lon="6.78544">
        <ele>1014.22</ele>
        <time>2019-10-14T14:33:16.000Z</time>
      </trkpt>
      <trkpt lat="45.6552" lon="6.78528">
        <ele>1018.57</ele>
        <time>2019-10-14T14:33:21.000Z</time>
      </trkpt>
      <trkpt lat="45.65534" lon="6.78513">
        <ele>1018.48</ele>
        <time>2019-10-14T14:33:26.000Z</time>
      </trkpt>
      <trkpt lat="45.65551" lon="6.78501">
        <ele>1017.93</ele>
        <time>2019-10-14T14:33:31.000Z</time>
      </trkpt>
      <trkpt lat="45.65567" lon="6.78485">
        <ele>1015.21</ele>
        <time>2019-10-14T14:33:36.000Z</time>
      </trkpt>
      <trkpt lat="45.65585" lon="6.78472">
        <ele>1014.81</ele>
        <time>2019-10-14T14:33:41.000Z</time>
      </trkpt>
      <trkpt lat="45.65598" lon="6.78456">
        <ele>1016.33</ele>
        <time>2019-10-14T14:33:46.000Z</time>
      </trkpt>
      <trkpt lat="45.65614" lon="6.7844">
        <ele>1015.79</ele>
        <time>2019-10-14T14:33:51.000Z</time>
      </trkpt>
      <trkpt lat="45.65625" lon="6.78419">
        <ele>1020.89</ele>
        <time>2019-10-14T14:33:56.000Z</time>
      </trkpt>
      <trkpt lat="45.65634" lon="6.78401">
        <ele>1020.92</ele>
        <time>2019-10-14T14:34:01.000Z</time>
      </trkpt>
      <trkpt lat="45.65649" lon="6.78392">
        <ele>1020.77</ele>
        <time>2019-10-14T14:34:06.000Z</time>
      </trkpt>
      <trkpt lat="45.65662" lon="6.7838">
        <ele>1023.62</ele>
        <time>2019-10-14T14:34:11.000Z</time>
      </trkpt>
      <trkpt lat="45.6568" lon="6.78373">
        <ele>1025.29</ele>
        <time>2019-10-14T14:34:16.000Z</time>
      </trkpt>
      <trkpt lat="45.65695" lon="6.78356">
        <ele>1031.31</ele>
        <time>2019-10-14T14:34:21.000Z</time>
      </trkpt>
      <trkpt lat="45.65713" lon="6.78343">
        <ele>1034.19</ele>
        <time>2019-10-14T14:34:26.000Z</time>
      </trkpt>
      <trkpt lat="45.65727" lon="6.7833">
        <ele>1036.41</ele>
        <time>2019-10-14T14:34:31.000Z</time>
      </trkpt>
      <trkpt lat="45.65743" lon="6.78313">
        <ele>1037.43</ele>
        <time>2019-10-14T14:34:36.000Z</time>
      </trkpt>
      <trkpt lat="45.6576" lon="6.78305">
        <ele>1037.64</ele>
        <time>2019-10-14T14:34:41.000Z</time>
      </trkpt>
      <trkpt lat="45.65773" lon="6.78298">
        <ele>1039.52</ele>
        <time>2019-10-14T14:34:46.000Z</time>
      </trkpt>
      <trkpt lat="45.65791" lon="6.78286">
        <ele>1042.16</ele>
        <time>2019-10-14T14:34:51.000Z</time>
      </trkpt>
      <trkpt lat="45.65809" lon="6.78279">
        <ele>1046.18</ele>
        <time>2019-10-14T14:34:56.000Z</time>
      </trkpt>
      <trkpt lat="45.65829" lon="6.78272">
        <ele>1051.51</ele>
        <time>2019-10-14T14:35:01.000Z</time>
      </trkpt>
      <trkpt lat="45.65847" lon="6.78269">
        <ele>1057.01</ele>
        <time>2019-10-14T14:35:06.000Z</time>
      </trkpt>
      <trkpt lat="45.65863" lon="6.78266">
        <ele>1062.33</ele>
        <time>2019-10-14T14:35:11.000Z</time>
      </trkpt>
      <trkpt lat="45.65881" lon="6.78261">
        <ele>1062.38</ele>
        <time>2019-10-14T14:35:16.000Z</time>
      </trkpt>
      <trkpt lat="45.65896" lon="6.78247">
        <ele>1061.97</ele>
        <time>2019-10-14T14:35:21.000Z</time>
      </trkpt>
      <trkpt lat="45.65904" lon="6.78229">
        <ele>1064.01</ele>
        <time>2019-10-14T14:35:26.000Z</time>
      </trkpt>
      <trkpt lat="45.65919" lon="6.78212">
        <ele>1062.13</ele>
        <time>2019-10-14T14:35:31.000Z</time>
      </trkpt>
      <trkpt lat="45.65932" lon="6.78193">
        <ele>1062.47</ele>
        <time>2019-10-14T14:35:36.000Z</time>
      </trkpt>
      <trkpt lat="45.65946" lon="6.78178">
        <ele>1063.66</ele>
        <time>2019-10-14T14:35:41.000Z</time>
      </trkpt>
      <trkpt lat="45.65963" lon="6.7817">
        <ele>1063.43</ele>
        <time>2019-10-14T14:35:46.000Z</time>
      </trkpt>
      <trkpt lat="45.65985" lon="6.78168">
        <ele>1062.01</ele>
        <time>2019-10-14T14:35:51.000Z</time>
      </trkpt>
      <trkpt lat="45.66003" lon="6.78168">
        <ele>1063.12</ele>
        <time>2019-10-14T14:35:56.000Z</time>
      </trkpt>
      <trkpt lat="45.66021" lon="6.78174">
        <ele>1069.01</ele>
        <time>2019-10-14T14:36:01.000Z</time>
      </trkpt>
      <trkpt lat="45.6604" lon="6.78177">
        <ele>1070.73</ele>
        <time>2019-10-14T14:36:06.000Z</time>
      </trkpt>
      <trkpt lat="45.66059" lon="6.78166">
        <ele>1072.42</ele>
        <time>2019-10-14T14:36:11.000Z</time>
      </trkpt>
      <trkpt lat="45.66076" lon="6.78153">
        <ele>1072.3</ele>
        <time>2019-10-14T14:36:16.000Z</time>
      </trkpt>
      <trkpt lat="45.66084" lon="6.78127">
        <ele>1074.15</ele>
        <time>2019-10-14T14:36:21.000Z</time>
      </trkpt>
      <trkpt lat="45.66094" lon="6.78105">
        <ele>1077.82</ele>
        <time>2019-10-14T14:36:26.000Z</time>
      </trkpt>
      <trkpt lat="45.66108" lon="6.78088">
        <ele>1076.7</ele>
        <time>2019-10-14T14:36:31.000Z</time>
      </trkpt>
      <trkpt lat="45.66123" lon="6.78077">
        <ele>1075.36</ele>
        <time>2019-10-14T14:36:36.000Z</time>
      </trkpt>
      <trkpt lat="45.6614" lon="6.78066">
        <ele>1078.44</ele>
        <time>2019-10-14T14:36:41.000Z</time>
      </trkpt>
      <trkpt lat="45.66154" lon="6.78055">
        <ele>1079.49</ele>
        <time>2019-10-14T14:36:46.000Z</time>
      </trkpt>
      <trkpt lat="45.66171" lon="6.7804">
        <ele>1081.39</ele>
        <time>2019-10-14T14:36:51.000Z</time>
      </trkpt>
      <trkpt lat="45.66189" lon="6.78024">
        <ele>1080.91</ele>
        <time>2019-10-14T14:36:56.000Z</time>
      </trkpt>
      <trkpt lat="45.66207" lon="6.78007">
        <ele>1084.33</ele>
        <time>2019-10-14T14:37:01.000Z</time>
      </trkpt>
      <trkpt lat="45.66224" lon="6.77987">
        <ele>1081.07</ele>
        <time>2019-10-14T14:37:06.000Z</time>
      </trkpt>
      <trkpt lat="45.66236" lon="6.77973">
        <ele>1078.93</ele>
        <time>2019-10-14T14:37:11.000Z</time>
      </trkpt>
      <trkpt lat="45.66249" lon="6.77956">
        <ele>1079.31</ele>
        <time>2019-10-14T14:37:16.000Z</time>
      </trkpt>
      <trkpt lat="45.66264" lon="6.77945">
        <ele>1082.2</ele>
        <time>2019-10-14T14:37:21.000Z</time>
      </trkpt>
      <trkpt lat="45.66279" lon="6.77936">
        <ele>1089.84</ele>
        <time>2019-10-14T14:37:26.000Z</time>
      </trkpt>
      <trkpt lat="45.66293" lon="6.77936">
        <ele>1098.81</ele>
        <time>2019-10-14T14:37:31.000Z</time>
      </trkpt>
      <trkpt lat="45.66312" lon="6.77936">
        <ele>1109.48</ele>
        <time>2019-10-14T14:37:36.000Z</time>
      </trkpt>
      <trkpt lat="45.66327" lon="6.77925">
        <ele>1119.27</ele>
        <time>2019-10-14T14:37:41.000Z</time>
      </trkpt>
      <trkpt lat="45.66339" lon="6.77906">
        <ele>1124.25</ele>
        <time>2019-10-14T14:37:46.000Z</time>
      </trkpt>
      <trkpt lat="45.66348" lon="6.77889">
        <ele>1126.26</ele>
        <time>2019-10-14T14:37:51.000Z</time>
      </trkpt>
      <trkpt lat="45.66359" lon="6.77863">
        <ele>1130.14</ele>
        <time>2019-10-14T14:37:56.000Z</time>
      </trkpt>
      <trkpt lat="45.66375" lon="6.77848">
        <ele>1131.11</ele>
        <time>2019-10-14T14:38:01.000Z</time>
      </trkpt>
      <trkpt lat="45.6639" lon="6.77835">
        <ele>1133.14</ele>
        <time>2019-10-14T14:38:06.000Z</time>
      </trkpt>
      <trkpt lat="45.66401" lon="6.77817">
        <ele>1133.39</ele>
        <time>2019-10-14T14:38:11.000Z</time>
      </trkpt>
      <trkpt lat="45.66417" lon="6.77798">
        <ele>1133.11</ele>
        <time>2019-10-14T14:38:16.000Z</time>
      </trkpt>
      <trkpt lat="45.66435" lon="6.77786">
        <ele>1130.64</ele>
        <time>2019-10-14T14:38:21.000Z</time>
      </trkpt>
      <trkpt lat="45.66453" lon="6.77774">
        <ele>1135.45</ele>
        <time>2019-10-14T14:38:26.000Z</time>
      </trkpt>
      <trkpt lat="45.66466" lon="6.77759">
        <ele>1137.62</ele>
        <time>2019-10-14T14:38:31.000Z</time>
      </trkpt>
      <trkpt lat="45.66483" lon="6.77743">
        <ele>1136.6</ele>
        <time>2019-10-14T14:38:36.000Z</time>
      </trkpt>
      <trkpt lat="45.66497" lon="6.77726">
        <ele>1137.26</ele>
        <time>2019-10-14T14:38:41.000Z</time>
      </trkpt>
      <trkpt lat="45.66508" lon="6.77706">
        <ele>1135.74</ele>
        <time>2019-10-14T14:38:46.000Z</time>
      </trkpt>
      <trkpt lat="45.66514" lon="6.77682">
        <ele>1135.07</ele>
        <time>2019-10-14T14:38:51.000Z</time>
      </trkpt>
      <trkpt lat="45.66515" lon="6.77651">
        <ele>1135.24</ele>
        <time>2019-10-14T14:38:56.000Z</time>
      </trkpt>
      <trkpt lat="45.66519" lon="6.77621">
        <ele>1131.71</ele>
        <time>2019-10-14T14:39:01.000Z</time>
      </trkpt>
      <trkpt lat="45.66525" lon="6.77595">
        <ele>1130.26</ele>
        <time>2019-10-14T14:39:06.000Z</time>
      </trkpt>
      <trkpt lat="45.66529" lon="6.77568">
        <ele>1131.43</ele>
        <time>2019-10-14T14:39:11.000Z</time>
      </trkpt>
      <trkpt lat="45.66535" lon="6.77541">
        <ele>1138.83</ele>
        <time>2019-10-14T14:39:16.000Z</time>
      </trkpt>
      <trkpt lat="45.66547" lon="6.77519">
        <ele>1143.92</ele>
        <time>2019-10-14T14:39:21.000Z</time>
      </trkpt>
      <trkpt lat="45.66563" lon="6.77506">
        <ele>1150.12</ele>
        <time>2019-10-14T14:39:26.000Z</time>
      </trkpt>
      <trkpt lat="45.66572" lon="6.77489">
        <ele>1151.04</ele>
        <time>2019-10-14T14:39:31.000Z</time>
      </trkpt>
      <trkpt lat="45.66584" lon="6.77471">
        <ele>1153.37</ele>
        <time>2019-10-14T14:39:36.000Z</time>
      </trkpt>
      <trkpt lat="45.66597" lon="6.7745">
        <ele>1155.24</ele>
        <time>2019-10-14T14:39:41.000Z</time>
      </trkpt>
      <trkpt lat="45.66614" lon="6.77433">
        <ele>1162.64</ele>
        <time>2019-10-14T14:39:46.000Z</time>
      </trkpt>
      <trkpt lat="45.6663" lon="6.77452">
        <ele>1162.16</ele>
        <time>2019-10-14T14:39:51.000Z</time>
      </trkpt>
      <trkpt lat="45.66621" lon="6.77481">
        <ele>1159.69</ele>
        <time>2019-10-14T14:39:56.000Z</time>
      </trkpt>
      <trkpt lat="45.66614" lon="6.77508">
        <ele>1161.53</ele>
        <time>2019-10-14T14:40:01.000Z</time>
      </trkpt>
      <trkpt lat="45.66623" lon="6.77532">
        <ele>1164.17</ele>
        <time>2019-10-14T14:40:06.000Z</time>
      </trkpt>
      <trkpt lat="45.66638" lon="6.77554">
        <ele>1169.47</ele>
        <time>2019-10-14T14:40:11.000Z</time>
      </trkpt>
      <trkpt lat="45.66649" lon="6.77585">
        <ele>1170.2</ele>
        <time>2019-10-14T14:40:16.000Z</time>
      </trkpt>
      <trkpt lat="45.66651" lon="6.77608">
        <ele>1169.31</ele>
        <time>2019-10-14T14:40:21.000Z</time>
      </trkpt>
      <trkpt lat="45.66665" lon="6.77609">
        <ele>1171.28</ele>
        <time>2019-10-14T14:40:26.000Z</time>
      </trkpt>
      <trkpt lat="45.66674" lon="6.77588">
        <ele>1171.3</ele>
        <time>2019-10-14T14:40:31.000Z</time>
      </trkpt>
      <trkpt lat="45.66675" lon="6.77559">
        <ele>1172.19</ele>
        <time>2019-10-14T14:40:36.000Z</time>
      </trkpt>
      <trkpt lat="45.66682" lon="6.77539">
        <ele>1171.76</ele>
        <time>2019-10-14T14:40:41.000Z</time>
      </trkpt>
      <trkpt lat="45.66688" lon="6.77518">
        <ele>1172.81</ele>
        <time>2019-10-14T14:40:46.000Z</time>
      </trkpt>
      <trkpt lat="45.66699" lon="6.77481">
        <ele>1173.75</ele>
        <time>2019-10-14T14:40:51.000Z</time>
      </trkpt>
      <trkpt lat="45.66712" lon="6.77456">
        <ele>1176.66</ele>
        <time>2019-10-14T14:40:56.000Z</time>
      </trkpt>
      <trkpt lat="45.66718" lon="6.77431">
        <ele>1179.87</ele>
        <time>2019-10-14T14:41:01.000Z</time>
      </trkpt>
      <trkpt lat="45.66715" lon="6.77412">
        <ele>1177.86</ele>
        <time>2019-10-14T14:41:06.000Z</time>
      </trkpt>
      <trkpt lat="45.6671" lon="6.77382">
        <ele>1177.11</ele>
        <time>2019-10-14T14:41:11.000Z</time>
      </trkpt>
      <trkpt lat="45.66702" lon="6.7736">
        <ele>1180.81</ele>
        <time>2019-10-14T14:41:16.000Z</time>
      </trkpt>
      <trkpt lat="45.66691" lon="6.77344">
        <ele>1182.16</ele>
        <time>2019-10-14T14:41:21.000Z</time>
      </trkpt>
      <trkpt lat="45.66683" lon="6.77322">
        <ele>1180.86</ele>
        <time>2019-10-14T14:41:26.000Z</time>
      </trkpt>
      <trkpt lat="45.66686" lon="6.77299">
        <ele>1183.93</ele>
        <time>2019-10-14T14:41:31.000Z</time>
      </trkpt>
      <trkpt lat="45.66698" lon="6.7727">
        <ele>1186.67</ele>
        <time>2019-10-14T14:41:36.000Z</time>
      </trkpt>
      <trkpt lat="45.66704" lon="6.77239">
        <ele>1181.86</ele>
        <time>2019-10-14T14:41:41.000Z</time>
      </trkpt>
      <trkpt lat="45.66709" lon="6.77206">
        <ele>1183.76</ele>
        <time>2019-10-14T14:41:46.000Z</time>
      </trkpt>
      <trkpt lat="45.66714" lon="6.7719">
        <ele>1184.87</ele>
        <time>2019-10-14T14:41:51.000Z</time>
      </trkpt>
      <trkpt lat="45.6671" lon="6.77222">
        <ele>1187.26</ele>
        <time>2019-10-14T14:41:56.000Z</time>
      </trkpt>
      <trkpt lat="45.66707" lon="6.7725">
        <ele>1192.41</ele>
        <time>2019-10-14T14:42:01.000Z</time>
      </trkpt>
      <trkpt lat="45.66714" lon="6.77273">
        <ele>1193.09</ele>
        <time>2019-10-14T14:42:06.000Z</time>
      </trkpt>
      <trkpt lat="45.66731" lon="6.77291">
        <ele>1192.4</ele>
        <time>2019-10-14T14:42:11.000Z</time>
      </trkpt>
      <trkpt lat="45.66743" lon="6.77314">
        <ele>1195.38</ele>
        <time>2019-10-14T14:42:16.000Z</time>
      </trkpt>
      <trkpt lat="45.66741" lon="6.77337">
        <ele>1194.09</ele>
        <time>2019-10-14T14:42:21.000Z</time>
      </trkpt>
      <trkpt lat="45.66738" lon="6.77365">
        <ele>1196.86</ele>
        <time>2019-10-14T14:42:26.000Z</time>
      </trkpt>
      <trkpt lat="45.66747" lon="6.77391">
        <ele>1198.33</ele>
        <time>2019-10-14T14:42:31.000Z</time>
      </trkpt>
      <trkpt lat="45.66761" lon="6.77409">
        <ele>1203.12</ele>
        <time>2019-10-14T14:42:36.000Z</time>
      </trkpt>
      <trkpt lat="45.66774" lon="6.77431">
        <ele>1201.44</ele>
        <time>2019-10-14T14:42:41.000Z</time>
      </trkpt>
      <trkpt lat="45.66781" lon="6.77454">
        <ele>1200.36</ele>
        <time>2019-10-14T14:42:46.000Z</time>
      </trkpt>
      <trkpt lat="45.66787" lon="6.77481">
        <ele>1199.72</ele>
        <time>2019-10-14T14:42:51.000Z</time>
      </trkpt>
      <trkpt lat="45.668" lon="6.7749">
        <ele>1201.19</ele>
        <time>2019-10-14T14:42:56.000Z</time>
      </trkpt>
      <trkpt lat="45.66803" lon="6.77461">
        <ele>1197.79</ele>
        <time>2019-10-14T14:43:01.000Z</time>
      </trkpt>
      <trkpt lat="45.66793" lon="6.77428">
        <ele>1195.88</ele>
        <time>2019-10-14T14:43:06.000Z</time>
      </trkpt>
      <trkpt lat="45.66788" lon="6.774">
        <ele>1197.65</ele>
        <time>2019-10-14T14:43:11.000Z</time>
      </trkpt>
      <trkpt lat="45.66783" lon="6.77379">
        <ele>1196.93</ele>
        <time>2019-10-14T14:43:16.000Z</time>
      </trkpt>
      <trkpt lat="45.66775" lon="6.77354">
        <ele>1198.56</ele>
        <time>2019-10-14T14:43:21.000Z</time>
      </trkpt>
      <trkpt lat="45.66772" lon="6.7733">
        <ele>1201.66</ele>
        <time>2019-10-14T14:43:26.000Z</time>
      </trkpt>
      <trkpt lat="45.66772" lon="6.77303">
        <ele>1204.25</ele>
        <time>2019-10-14T14:43:31.000Z</time>
      </trkpt>
      <trkpt lat="45.66776" lon="6.77273">
        <ele>1206.13</ele>
        <time>2019-10-14T14:43:36.000Z</time>
      </trkpt>
      <trkpt lat="45.66773" lon="6.77249">
        <ele>1207.64</ele>
        <time>2019-10-14T14:43:41.000Z</time>
      </trkpt>
      <trkpt lat="45.66779" lon="6.77222">
        <ele>1206.2</ele>
        <time>2019-10-14T14:43:46.000Z</time>
      </trkpt>
      <trkpt lat="45.66804" lon="6.77214">
        <ele>1204.79</ele>
        <time>2019-10-14T14:43:51.000Z</time>
      </trkpt>
      <trkpt lat="45.66814" lon="6.77211">
        <ele>1209.56</ele>
        <time>2019-10-14T14:43:56.000Z</time>
      </trkpt>
      <trkpt lat="45.66821" lon="6.77202">
        <ele>1210.06</ele>
        <time>2019-10-14T14:44:01.000Z</time>
      </trkpt>
      <trkpt lat="45.66823" lon="6.77171">
        <ele>1214.5</ele>
        <time>2019-10-14T14:44:06.000Z</time>
      </trkpt>
      <trkpt lat="45.66831" lon="6.77161">
        <ele>1219.66</ele>
        <time>2019-10-14T14:44:11.000Z</time>
      </trkpt>
      <trkpt lat="45.66832" lon="6.77193">
        <ele>1218.05</ele>
        <time>2019-10-14T14:44:16.000Z</time>
      </trkpt>
      <trkpt lat="45.66827" lon="6.77221">
        <ele>1216.48</ele>
        <time>2019-10-14T14:44:21.000Z</time>
      </trkpt>
      <trkpt lat="45.66817" lon="6.77244">
        <ele>1221.87</ele>
        <time>2019-10-14T14:44:26.000Z</time>
      </trkpt>
      <trkpt lat="45.66805" lon="6.77264">
        <ele>1221.84</ele>
        <time>2019-10-14T14:44:31.000Z</time>
      </trkpt>
      <trkpt lat="45.66814" lon="6.77293">
        <ele>1224.73</ele>
        <time>2019-10-14T14:44:36.000Z</time>
      </trkpt>
      <trkpt lat="45.66822" lon="6.77311">
        <ele>1228.82</ele>
        <time>2019-10-14T14:44:41.000Z</time>
      </trkpt>
      <trkpt lat="45.66828" lon="6.77337">
        <ele>1231.85</ele>
        <time>2019-10-14T14:44:46.000Z</time>
      </trkpt>
      <trkpt lat="45.66832" lon="6.7736">
        <ele>1229.65</ele>
        <time>2019-10-14T14:44:51.000Z</time>
      </trkpt>
      <trkpt lat="45.66836" lon="6.77383">
        <ele>1230.52</ele>
        <time>2019-10-14T14:44:56.000Z</time>
      </trkpt>
      <trkpt lat="45.6684" lon="6.7741">
        <ele>1234.55</ele>
        <time>2019-10-14T14:45:01.000Z</time>
      </trkpt>
      <trkpt lat="45.66848" lon="6.77436">
        <ele>1237.72</ele>
        <time>2019-10-14T14:45:06.000Z</time>
      </trkpt>
      <trkpt lat="45.6686" lon="6.77457">
        <ele>1238.48</ele>
        <time>2019-10-14T14:45:11.000Z</time>
      </trkpt>
      <trkpt lat="45.66872" lon="6.7747">
        <ele>1241.24</ele>
        <time>2019-10-14T14:45:16.000Z</time>
      </trkpt>
      <trkpt lat="45.66875" lon="6.77493">
        <ele>1239.67</ele>
        <time>2019-10-14T14:45:21.000Z</time>
      </trkpt>
      <trkpt lat="45.66867" lon="6.77514">
        <ele>1242.63</ele>
        <time>2019-10-14T14:45:26.000Z</time>
      </trkpt>
      <trkpt lat="45.66859" lon="6.77539">
        <ele>1244.73</ele>
        <time>2019-10-14T14:45:31.000Z</time>
      </trkpt>
      <trkpt lat="45.66875" lon="6.77545">
        <ele>1247.43</ele>
        <time>2019-10-14T14:45:36.000Z</time>
      </trkpt>
      <trkpt lat="45.66884" lon="6.77529">
        <ele>1254.44</ele>
        <time>2019-10-14T14:45:41.000Z</time>
      </trkpt>
      <trkpt lat="45.66887" lon="6.77502">
        <ele>1259.47</ele>
        <time>2019-10-14T14:45:46.000Z</time>
      </trkpt>
      <trkpt lat="45.66892" lon="6.77472">
        <ele>1261.63</ele>
        <time>2019-10-14T14:45:51.000Z</time>
      </trkpt>
      <trkpt lat="45.66883" lon="6.77442">
        <ele>1264.61</ele>
        <time>2019-10-14T14:45:56.000Z</time>
      </trkpt>
      <trkpt lat="45.66874" lon="6.77419">
        <ele>1266.87</ele>
        <time>2019-10-14T14:46:01.000Z</time>
      </trkpt>
      <trkpt lat="45.66877" lon="6.77392">
        <ele>1270.21</ele>
        <time>2019-10-14T14:46:06.000Z</time>
      </trkpt>
      <trkpt lat="45.66879" lon="6.7737">
        <ele>1276.48</ele>
        <time>2019-10-14T14:46:11.000Z</time>
      </trkpt>
      <trkpt lat="45.66876" lon="6.77348">
        <ele>1278.67</ele>
        <time>2019-10-14T14:46:16.000Z</time>
      </trkpt>
      <trkpt lat="45.66874" lon="6.77321">
        <ele>1281.47</ele>
        <time>2019-10-14T14:46:21.000Z</time>
      </trkpt>
      <trkpt lat="45.66873" lon="6.77296">
        <ele>1287.71</ele>
        <time>2019-10-14T14:46:26.000Z</time>
      </trkpt>
      <trkpt lat="45.66876" lon="6.77271">
        <ele>1293.41</ele>
        <time>2019-10-14T14:46:31.000Z</time>
      </trkpt>
      <trkpt lat="45.6688" lon="6.77242">
        <ele>1297.92</ele>
        <time>2019-10-14T14:46:36.000Z</time>
      </trkpt>
      <trkpt lat="45.66882" lon="6.77214">
        <ele>1296.7</ele>
        <time>2019-10-14T14:46:41.000Z</time>
      </trkpt>
      <trkpt lat="45.6688" lon="6.77196">
        <ele>1296.97</ele>
        <time>2019-10-14T14:46:46.000Z</time>
      </trkpt>
      <trkpt lat="45.66887" lon="6.77178">
        <ele>1298.27</ele>
        <time>2019-10-14T14:46:51.000Z</time>
      </trkpt>
      <trkpt lat="45.66883" lon="6.77191">
        <ele>1306.83</ele>
        <time>2019-10-14T14:47:54.000Z</time>
      </trkpt>
      <trkpt lat="45.66883" lon="6.77205">
        <ele>1306.55</ele>
        <time>2019-10-14T14:48:05.000Z</time>
      </trkpt>
      <trkpt lat="45.66887" lon="6.77192">
        <ele>1295.72</ele>
        <time>2019-10-14T14:48:25.000Z</time>
      </trkpt>
      <trkpt lat="45.6689" lon="6.7718">
        <ele>1299.84</ele>
        <time>2019-10-14T14:48:33.000Z</time>
      </trkpt>
      <trkpt lat="45.6689" lon="6.77193">
        <ele>1301.02</ele>
        <time>2019-10-14T14:50:25.000Z</time>
      </trkpt>
      <trkpt lat="45.6689" lon="6.77225">
        <ele>1304.04</ele>
        <time>2019-10-14T14:50:30.000Z</time>
      </trkpt>
      <trkpt lat="45.66889" lon="6.77253">
        <ele>1306.48</ele>
        <time>2019-10-14T14:50:35.000Z</time>
      </trkpt>
      <trkpt lat="45.66892" lon="6.77283">
        <ele>1307.59</ele>
        <time>2019-10-14T14:50:40.000Z</time>
      </trkpt>
      <trkpt lat="45.66895" lon="6.7731">
        <ele>1309.36</ele>
        <time>2019-10-14T14:50:45.000Z</time>
      </trkpt>
      <trkpt lat="45.66897" lon="6.77334">
        <ele>1312.93</ele>
        <time>2019-10-14T14:50:50.000Z</time>
      </trkpt>
      <trkpt lat="45.66906" lon="6.7736">
        <ele>1313.32</ele>
        <time>2019-10-14T14:50:55.000Z</time>
      </trkpt>
      <trkpt lat="45.66919" lon="6.77383">
        <ele>1314.33</ele>
        <time>2019-10-14T14:51:00.000Z</time>
      </trkpt>
      <trkpt lat="45.66921" lon="6.77413">
        <ele>1313.76</ele>
        <time>2019-10-14T14:51:05.000Z</time>
      </trkpt>
      <trkpt lat="45.66931" lon="6.7743">
        <ele>1311.61</ele>
        <time>2019-10-14T14:51:10.000Z</time>
      </trkpt>
      <trkpt lat="45.66939" lon="6.77405">
        <ele>1314.58</ele>
        <time>2019-10-14T14:51:15.000Z</time>
      </trkpt>
      <trkpt lat="45.66931" lon="6.77371">
        <ele>1318.07</ele>
        <time>2019-10-14T14:51:20.000Z</time>
      </trkpt>
      <trkpt lat="45.66929" lon="6.7734">
        <ele>1317.19</ele>
        <time>2019-10-14T14:51:25.000Z</time>
      </trkpt>
      <trkpt lat="45.66932" lon="6.77307">
        <ele>1317.33</ele>
        <time>2019-10-14T14:51:30.000Z</time>
      </trkpt>
      <trkpt lat="45.66932" lon="6.77281">
        <ele>1318.45</ele>
        <time>2019-10-14T14:51:35.000Z</time>
      </trkpt>
      <trkpt lat="45.66934" lon="6.77257">
        <ele>1318.86</ele>
        <time>2019-10-14T14:51:40.000Z</time>
      </trkpt>
      <trkpt lat="45.66938" lon="6.77233">
        <ele>1320.36</ele>
        <time>2019-10-14T14:51:45.000Z</time>
      </trkpt>
      <trkpt lat="45.66947" lon="6.77216">
        <ele>1321.61</ele>
        <time>2019-10-14T14:51:50.000Z</time>
      </trkpt>
      <trkpt lat="45.66958" lon="6.77192">
        <ele>1323.6</ele>
        <time>2019-10-14T14:51:55.000Z</time>
      </trkpt>
      <trkpt lat="45.66959" lon="6.77163">
        <ele>1324.94</ele>
        <time>2019-10-14T14:52:00.000Z</time>
      </trkpt>
      <trkpt lat="45.66975" lon="6.77158">
        <ele>1327.71</ele>
        <time>2019-10-14T14:52:05.000Z</time>
      </trkpt>
      <trkpt lat="45.66974" lon="6.77186">
        <ele>1330.24</ele>
        <time>2019-10-14T14:52:10.000Z</time>
      </trkpt>
      <trkpt lat="45.66967" lon="6.77218">
        <ele>1328.43</ele>
        <time>2019-10-14T14:52:15.000Z</time>
      </trkpt>
      <trkpt lat="45.66969" lon="6.77249">
        <ele>1330.52</ele>
        <time>2019-10-14T14:52:20.000Z</time>
      </trkpt>
      <trkpt lat="45.66972" lon="6.77279">
        <ele>1332.85</ele>
        <time>2019-10-14T14:52:25.000Z</time>
      </trkpt>
      <trkpt lat="45.66973" lon="6.77304">
        <ele>1338.82</ele>
        <time>2019-10-14T14:52:30.000Z</time>
      </trkpt>
      <trkpt lat="45.66975" lon="6.77328">
        <ele>1337.85</ele>
        <time>2019-10-14T14:52:35.000Z</time>
      </trkpt>
      <trkpt lat="45.66977" lon="6.77354">
        <ele>1337.94</ele>
        <time>2019-10-14T14:52:40.000Z</time>
      </trkpt>
      <trkpt lat="45.66981" lon="6.7738">
        <ele>1338.65</ele>
        <time>2019-10-14T14:52:45.000Z</time>
      </trkpt>
      <trkpt lat="45.66983" lon="6.77408">
        <ele>1336.59</ele>
        <time>2019-10-14T14:52:50.000Z</time>
      </trkpt>
      <trkpt lat="45.66978" lon="6.77432">
        <ele>1340.75</ele>
        <time>2019-10-14T14:52:55.000Z</time>
      </trkpt>
      <trkpt lat="45.66981" lon="6.77458">
        <ele>1342.35</ele>
        <time>2019-10-14T14:53:00.000Z</time>
      </trkpt>
      <trkpt lat="45.66992" lon="6.77443">
        <ele>1341.54</ele>
        <time>2019-10-14T14:53:05.000Z</time>
      </trkpt>
      <trkpt lat="45.66998" lon="6.77414">
        <ele>1342.28</ele>
        <time>2019-10-14T14:53:10.000Z</time>
      </trkpt>
      <trkpt lat="45.67007" lon="6.7739">
        <ele>1345.94</ele>
        <time>2019-10-14T14:53:15.000Z</time>
      </trkpt>
      <trkpt lat="45.67013" lon="6.7736">
        <ele>1348.66</ele>
        <time>2019-10-14T14:53:20.000Z</time>
      </trkpt>
      <trkpt lat="45.67017" lon="6.77331">
        <ele>1350.14</ele>
        <time>2019-10-14T14:53:25.000Z</time>
      </trkpt>
      <trkpt lat="45.67018" lon="6.77302">
        <ele>1352.72</ele>
        <time>2019-10-14T14:53:30.000Z</time>
      </trkpt>
      <trkpt lat="45.67017" lon="6.77274">
        <ele>1353.25</ele>
        <time>2019-10-14T14:53:35.000Z</time>
      </trkpt>
      <trkpt lat="45.67015" lon="6.77249">
        <ele>1353.75</ele>
        <time>2019-10-14T14:53:40.000Z</time>
      </trkpt>
      <trkpt lat="45.67015" lon="6.77224">
        <ele>1352.86</ele>
        <time>2019-10-14T14:53:45.000Z</time>
      </trkpt>
      <trkpt lat="45.67016" lon="6.77201">
        <ele>1354.5</ele>
        <time>2019-10-14T14:53:50.000Z</time>
      </trkpt>
      <trkpt lat="45.67019" lon="6.77186">
        <ele>1355.17</ele>
        <time>2019-10-14T14:53:55.000Z</time>
      </trkpt>
      <trkpt lat="45.67021" lon="6.77165">
        <ele>1357.97</ele>
        <time>2019-10-14T14:54:00.000Z</time>
      </trkpt>
      <trkpt lat="45.67029" lon="6.77142">
        <ele>1355.08</ele>
        <time>2019-10-14T14:54:05.000Z</time>
      </trkpt>
      <trkpt lat="45.67035" lon="6.7712">
        <ele>1357.1</ele>
        <time>2019-10-14T14:54:10.000Z</time>
      </trkpt>
      <trkpt lat="45.6705" lon="6.77092">
        <ele>1361.6</ele>
        <time>2019-10-14T14:54:15.000Z</time>
      </trkpt>
      <trkpt lat="45.67042" lon="6.77065">
        <ele>1366.17</ele>
        <time>2019-10-14T14:54:20.000Z</time>
      </trkpt>
      <trkpt lat="45.67029" lon="6.77038">
        <ele>1365.04</ele>
        <time>2019-10-14T14:54:25.000Z</time>
      </trkpt>
      <trkpt lat="45.6703" lon="6.7701">
        <ele>1365.17</ele>
        <time>2019-10-14T14:54:30.000Z</time>
      </trkpt>
      <trkpt lat="45.67038" lon="6.76996">
        <ele>1365.98</ele>
        <time>2019-10-14T14:54:35.000Z</time>
      </trkpt>
      <trkpt lat="45.67048" lon="6.76973">
        <ele>1367.84</ele>
        <time>2019-10-14T14:54:40.000Z</time>
      </trkpt>
      <trkpt lat="45.67061" lon="6.76961">
        <ele>1369.5</ele>
        <time>2019-10-14T14:54:45.000Z</time>
      </trkpt>
      <trkpt lat="45.67071" lon="6.76945">
        <ele>1367.39</ele>
        <time>2019-10-14T14:54:50.000Z</time>
      </trkpt>
      <trkpt lat="45.67077" lon="6.76921">
        <ele>1369.39</ele>
        <time>2019-10-14T14:54:55.000Z</time>
      </trkpt>
      <trkpt lat="45.67088" lon="6.769">
        <ele>1369.18</ele>
        <time>2019-10-14T14:55:00.000Z</time>
      </trkpt>
      <trkpt lat="45.67096" lon="6.76879">
        <ele>1374.89</ele>
        <time>2019-10-14T14:55:05.000Z</time>
      </trkpt>
      <trkpt lat="45.67099" lon="6.76854">
        <ele>1376.77</ele>
        <time>2019-10-14T14:55:10.000Z</time>
      </trkpt>
      <trkpt lat="45.671" lon="6.76832">
        <ele>1378.78</ele>
        <time>2019-10-14T14:55:15.000Z</time>
      </trkpt>
      <trkpt lat="45.67101" lon="6.76815">
        <ele>1380.53</ele>
        <time>2019-10-14T14:55:20.000Z</time>
      </trkpt>
      <trkpt lat="45.6711" lon="6.76786">
        <ele>1379.22</ele>
        <time>2019-10-14T14:55:25.000Z</time>
      </trkpt>
      <trkpt lat="45.67113" lon="6.76761">
        <ele>1376.33</ele>
        <time>2019-10-14T14:55:30.000Z</time>
      </trkpt>
      <trkpt lat="45.67105" lon="6.76735">
        <ele>1379.36</ele>
        <time>2019-10-14T14:55:35.000Z</time>
      </trkpt>
      <trkpt lat="45.67101" lon="6.76706">
        <ele>1385.08</ele>
        <time>2019-10-14T14:55:40.000Z</time>
      </trkpt>
      <trkpt lat="45.67104" lon="6.7669">
        <ele>1386.32</ele>
        <time>2019-10-14T14:55:45.000Z</time>
      </trkpt>
      <trkpt lat="45.67109" lon="6.76664">
        <ele>1385.7</ele>
        <time>2019-10-14T14:55:50.000Z</time>
      </trkpt>
      <trkpt lat="45.6711" lon="6.76641">
        <ele>1385.02</ele>
        <time>2019-10-14T14:55:55.000Z</time>
      </trkpt>
      <trkpt lat="45.67111" lon="6.76612">
        <ele>1388.03</ele>
        <time>2019-10-14T14:56:00.000Z</time>
      </trkpt>
      <trkpt lat="45.67112" lon="6.76582">
        <ele>1382.07</ele>
        <time>2019-10-14T14:56:05.000Z</time>
      </trkpt>
      <trkpt lat="45.67113" lon="6.76556">
        <ele>1384.23</ele>
        <time>2019-10-14T14:56:10.000Z</time>
      </trkpt>
      <trkpt lat="45.67109" lon="6.76527">
        <ele>1387.85</ele>
        <time>2019-10-14T14:56:15.000Z</time>
      </trkpt>
      <trkpt lat="45.67117" lon="6.76508">
        <ele>1384.08</ele>
        <time>2019-10-14T14:56:20.000Z</time>
      </trkpt>
      <trkpt lat="45.67131" lon="6.76489">
        <ele>1385.13</ele>
        <time>2019-10-14T14:56:25.000Z</time>
      </trkpt>
      <trkpt lat="45.67134" lon="6.76458">
        <ele>1383.55</ele>
        <time>2019-10-14T14:56:30.000Z</time>
      </trkpt>
      <trkpt lat="45.6713" lon="6.76429">
        <ele>1379.43</ele>
        <time>2019-10-14T14:56:35.000Z</time>
      </trkpt>
      <trkpt lat="45.67125" lon="6.76406">
        <ele>1380.43</ele>
        <time>2019-10-14T14:56:40.000Z</time>
      </trkpt>
      <trkpt lat="45.67121" lon="6.76385">
        <ele>1377.06</ele>
        <time>2019-10-14T14:56:45.000Z</time>
      </trkpt>
      <trkpt lat="45.67117" lon="6.76364">
        <ele>1378.91</ele>
        <time>2019-10-14T14:56:50.000Z</time>
      </trkpt>
      <trkpt lat="45.67116" lon="6.76342">
        <ele>1380.73</ele>
        <time>2019-10-14T14:56:55.000Z</time>
      </trkpt>
      <trkpt lat="45.67123" lon="6.76319">
        <ele>1383.98</ele>
        <time>2019-10-14T14:57:00.000Z</time>
      </trkpt>
      <trkpt lat="45.67127" lon="6.76296">
        <ele>1387.58</ele>
        <time>2019-10-14T14:57:05.000Z</time>
      </trkpt>
      <trkpt lat="45.67127" lon="6.76275">
        <ele>1392.76</ele>
        <time>2019-10-14T14:57:10.000Z</time>
      </trkpt>
      <trkpt lat="45.67126" lon="6.7625">
        <ele>1397.07</ele>
        <time>2019-10-14T14:57:15.000Z</time>
      </trkpt>
      <trkpt lat="45.67128" lon="6.76226">
        <ele>1398.1</ele>
        <time>2019-10-14T14:57:20.000Z</time>
      </trkpt>
      <trkpt lat="45.6713" lon="6.76199">
        <ele>1402.56</ele>
        <time>2019-10-14T14:57:25.000Z</time>
      </trkpt>
      <trkpt lat="45.67128" lon="6.76178">
        <ele>1402.03</ele>
        <time>2019-10-14T14:57:30.000Z</time>
      </trkpt>
      <trkpt lat="45.67127" lon="6.76153">
        <ele>1402.24</ele>
        <time>2019-10-14T14:57:35.000Z</time>
      </trkpt>
      <trkpt lat="45.67128" lon="6.76135">
        <ele>1403.09</ele>
        <time>2019-10-14T14:57:40.000Z</time>
      </trkpt>
      <trkpt lat="45.6713" lon="6.7611">
        <ele>1401.65</ele>
        <time>2019-10-14T14:57:45.000Z</time>
      </trkpt>
      <trkpt lat="45.67132" lon="6.76081">
        <ele>1398.21</ele>
        <time>2019-10-14T14:57:50.000Z</time>
      </trkpt>
      <trkpt lat="45.67125" lon="6.76061">
        <ele>1397.65</ele>
        <time>2019-10-14T14:57:55.000Z</time>
      </trkpt>
      <trkpt lat="45.67119" lon="6.76042">
        <ele>1393.77</ele>
        <time>2019-10-14T14:58:00.000Z</time>
      </trkpt>
      <trkpt lat="45.6712" lon="6.76017">
        <ele>1392.14</ele>
        <time>2019-10-14T14:58:05.000Z</time>
      </trkpt>
      <trkpt lat="45.67118" lon="6.75993">
        <ele>1389.06</ele>
        <time>2019-10-14T14:58:10.000Z</time>
      </trkpt>
      <trkpt lat="45.67107" lon="6.75964">
        <ele>1389.73</ele>
        <time>2019-10-14T14:58:15.000Z</time>
      </trkpt>
      <trkpt lat="45.67094" lon="6.75949">
        <ele>1387.86</ele>
        <time>2019-10-14T14:58:20.000Z</time>
      </trkpt>
      <trkpt lat="45.67079" lon="6.75934">
        <ele>1386.98</ele>
        <time>2019-10-14T14:58:25.000Z</time>
      </trkpt>
      <trkpt lat="45.6707" lon="6.75916">
        <ele>1388.97</ele>
        <time>2019-10-14T14:58:30.000Z</time>
      </trkpt>
      <trkpt lat="45.67063" lon="6.75893">
        <ele>1391.28</ele>
        <time>2019-10-14T14:58:35.000Z</time>
      </trkpt>
      <trkpt lat="45.6707" lon="6.7587">
        <ele>1400.95</ele>
        <time>2019-10-14T14:58:40.000Z</time>
      </trkpt>
      <trkpt lat="45.67082" lon="6.75854">
        <ele>1407.68</ele>
        <time>2019-10-14T14:58:45.000Z</time>
      </trkpt>
      <trkpt lat="45.67093" lon="6.75818">
        <ele>1413.55</ele>
        <time>2019-10-14T14:58:50.000Z</time>
      </trkpt>
      <trkpt lat="45.67103" lon="6.75783">
        <ele>1417.75</ele>
        <time>2019-10-14T14:58:55.000Z</time>
      </trkpt>
      <trkpt lat="45.67124" lon="6.75756">
        <ele>1424.77</ele>
        <time>2019-10-14T14:59:00.000Z</time>
      </trkpt>
      <trkpt lat="45.67152" lon="6.75758">
        <ele>1430.05</ele>
        <time>2019-10-14T14:59:05.000Z</time>
      </trkpt>
      <trkpt lat="45.67179" lon="6.75764">
        <ele>1435.52</ele>
        <time>2019-10-14T14:59:10.000Z</time>
      </trkpt>
      <trkpt lat="45.67211" lon="6.7575">
        <ele>1437.73</ele>
        <time>2019-10-14T14:59:15.000Z</time>
      </trkpt>
      <trkpt lat="45.67238" lon="6.75731">
        <ele>1439.26</ele>
        <time>2019-10-14T14:59:20.000Z</time>
      </trkpt>
      <trkpt lat="45.67264" lon="6.75699">
        <ele>1438.62</ele>
        <time>2019-10-14T14:59:25.000Z</time>
      </trkpt>
      <trkpt lat="45.67287" lon="6.75663">
        <ele>1443.57</ele>
        <time>2019-10-14T14:59:30.000Z</time>
      </trkpt>
      <trkpt lat="45.67302" lon="6.75625">
        <ele>1447.29</ele>
        <time>2019-10-14T14:59:35.000Z</time>
      </trkpt>
      <trkpt lat="45.67317" lon="6.75585">
        <ele>1450.6</ele>
        <time>2019-10-14T14:59:40.000Z</time>
      </trkpt>
      <trkpt lat="45.67327" lon="6.75542">
        <ele>1452.05</ele>
        <time>2019-10-14T14:59:45.000Z</time>
      </trkpt>
      <trkpt lat="45.67349" lon="6.7551">
        <ele>1451.6</ele>
        <time>2019-10-14T14:59:50.000Z</time>
      </trkpt>
      <trkpt lat="45.67377" lon="6.75483">
        <ele>1454.07</ele>
        <time>2019-10-14T14:59:55.000Z</time>
      </trkpt>
      <trkpt lat="45.67401" lon="6.75447">
        <ele>1454.1</ele>
        <time>2019-10-14T15:00:00.000Z</time>
      </trkpt>
      <trkpt lat="45.67414" lon="6.75406">
        <ele>1450.45</ele>
        <time>2019-10-14T15:00:05.000Z</time>
      </trkpt>
      <trkpt lat="45.67423" lon="6.75365">
        <ele>1445.46</ele>
        <time>2019-10-14T15:00:10.000Z</time>
      </trkpt>
      <trkpt lat="45.67416" lon="6.75327">
        <ele>1443.01</ele>
        <time>2019-10-14T15:00:15.000Z</time>
      </trkpt>
      <trkpt lat="45.67412" lon="6.75292">
        <ele>1441.87</ele>
        <time>2019-10-14T15:00:20.000Z</time>
      </trkpt>
      <trkpt lat="45.6741" lon="6.75262">
        <ele>1435.27</ele>
        <time>2019-10-14T15:00:25.000Z</time>
      </trkpt>
      <trkpt lat="45.67413" lon="6.75248">
        <ele>1434.34</ele>
        <time>2019-10-14T15:00:31.000Z</time>
      </trkpt>
      <trkpt lat="45.67416" lon="6.75234">
        <ele>1425.53</ele>
        <time>2019-10-14T15:01:21.000Z</time>
      </trkpt>
      <trkpt lat="45.67419" lon="6.75206">
        <ele>1426.01</ele>
        <time>2019-10-14T15:01:26.000Z</time>
      </trkpt>
      <trkpt lat="45.67421" lon="6.75182">
        <ele>1424.46</ele>
        <time>2019-10-14T15:01:31.000Z</time>
      </trkpt>
      <trkpt lat="45.67431" lon="6.75155">
        <ele>1428.16</ele>
        <time>2019-10-14T15:01:36.000Z</time>
      </trkpt>
      <trkpt lat="45.67448" lon="6.75136">
        <ele>1432.09</ele>
        <time>2019-10-14T15:01:41.000Z</time>
      </trkpt>
      <trkpt lat="45.67468" lon="6.75116">
        <ele>1432.77</ele>
        <time>2019-10-14T15:01:46.000Z</time>
      </trkpt>
      <trkpt lat="45.67484" lon="6.75091">
        <ele>1436.98</ele>
        <time>2019-10-14T15:01:51.000Z</time>
      </trkpt>
      <trkpt lat="45.675" lon="6.75071">
        <ele>1441.11</ele>
        <time>2019-10-14T15:01:56.000Z</time>
      </trkpt>
      <trkpt lat="45.67521" lon="6.75052">
        <ele>1445.1</ele>
        <time>2019-10-14T15:02:01.000Z</time>
      </trkpt>
      <trkpt lat="45.67542" lon="6.75029">
        <ele>1447.89</ele>
        <time>2019-10-14T15:02:06.000Z</time>
      </trkpt>
      <trkpt lat="45.67558" lon="6.75002">
        <ele>1449.78</ele>
        <time>2019-10-14T15:02:11.000Z</time>
      </trkpt>
      <trkpt lat="45.67567" lon="6.74975">
        <ele>1449.38</ele>
        <time>2019-10-14T15:02:16.000Z</time>
      </trkpt>
      <trkpt lat="45.67572" lon="6.74947">
        <ele>1449.5</ele>
        <time>2019-10-14T15:02:21.000Z</time>
      </trkpt>
      <trkpt lat="45.67574" lon="6.74922">
        <ele>1446.06</ele>
        <time>2019-10-14T15:02:26.000Z</time>
      </trkpt>
      <trkpt lat="45.67572" lon="6.7489">
        <ele>1448.06</ele>
        <time>2019-10-14T15:02:31.000Z</time>
      </trkpt>
      <trkpt lat="45.67572" lon="6.74861">
        <ele>1447.52</ele>
        <time>2019-10-14T15:02:36.000Z</time>
      </trkpt>
      <trkpt lat="45.67581" lon="6.74837">
        <ele>1448.52</ele>
        <time>2019-10-14T15:02:41.000Z</time>
      </trkpt>
      <trkpt lat="45.67593" lon="6.74815">
        <ele>1443.43</ele>
        <time>2019-10-14T15:02:46.000Z</time>
      </trkpt>
      <trkpt lat="45.67602" lon="6.74789">
        <ele>1444.54</ele>
        <time>2019-10-14T15:02:51.000Z</time>
      </trkpt>
      <trkpt lat="45.6761" lon="6.74763">
        <ele>1448.15</ele>
        <time>2019-10-14T15:02:56.000Z</time>
      </trkpt>
      <trkpt lat="45.67623" lon="6.74736">
        <ele>1448.99</ele>
        <time>2019-10-14T15:03:01.000Z</time>
      </trkpt>
      <trkpt lat="45.67638" lon="6.74714">
        <ele>1452.7</ele>
        <time>2019-10-14T15:03:06.000Z</time>
      </trkpt>
      <trkpt lat="45.67659" lon="6.74699">
        <ele>1457.68</ele>
        <time>2019-10-14T15:03:11.000Z</time>
      </trkpt>
      <trkpt lat="45.67678" lon="6.74687">
        <ele>1456.56</ele>
        <time>2019-10-14T15:03:16.000Z</time>
      </trkpt>
      <trkpt lat="45.677" lon="6.74669">
        <ele>1459.51</ele>
        <time>2019-10-14T15:03:21.000Z</time>
      </trkpt>
      <trkpt lat="45.67717" lon="6.74652">
        <ele>1459.82</ele>
        <time>2019-10-14T15:03:26.000Z</time>
      </trkpt>
      <trkpt lat="45.67726" lon="6.74626">
        <ele>1460.9</ele>
        <time>2019-10-14T15:03:31.000Z</time>
      </trkpt>
      <trkpt lat="45.67741" lon="6.74596">
        <ele>1456.26</ele>
        <time>2019-10-14T15:03:36.000Z</time>
      </trkpt>
      <trkpt lat="45.6775" lon="6.74575">
        <ele>1450.39</ele>
        <time>2019-10-14T15:03:41.000Z</time>
      </trkpt>
      <trkpt lat="45.67758" lon="6.74546">
        <ele>1447.4</ele>
        <time>2019-10-14T15:03:46.000Z</time>
      </trkpt>
      <trkpt lat="45.67768" lon="6.74522">
        <ele>1450.25</ele>
        <time>2019-10-14T15:03:51.000Z</time>
      </trkpt>
      <trkpt lat="45.67777" lon="6.74496">
        <ele>1450.96</ele>
        <time>2019-10-14T15:03:56.000Z</time>
      </trkpt>
      <trkpt lat="45.67786" lon="6.74469">
        <ele>1454.67</ele>
        <time>2019-10-14T15:04:01.000Z</time>
      </trkpt>
      <trkpt lat="45.67795" lon="6.74436">
        <ele>1456.44</ele>
        <time>2019-10-14T15:04:06.000Z</time>
      </trkpt>
      <trkpt lat="45.67806" lon="6.74407">
        <ele>1458.47</ele>
        <time>2019-10-14T15:04:11.000Z</time>
      </trkpt>
      <trkpt lat="45.67818" lon="6.74383">
        <ele>1460.04</ele>
        <time>2019-10-14T15:04:16.000Z</time>
      </trkpt>
      <trkpt lat="45.67826" lon="6.74359">
        <ele>1458.78</ele>
        <time>2019-10-14T15:04:21.000Z</time>
      </trkpt>
      <trkpt lat="45.67838" lon="6.74338">
        <ele>1463.8</ele>
        <time>2019-10-14T15:04:26.000Z</time>
      </trkpt>
      <trkpt lat="45.67851" lon="6.7432">
        <ele>1465.19</ele>
        <time>2019-10-14T15:04:31.000Z</time>
      </trkpt>
      <trkpt lat="45.67862" lon="6.74301">
        <ele>1466.11</ele>
        <time>2019-10-14T15:04:36.000Z</time>
      </trkpt>
      <trkpt lat="45.67879" lon="6.74284">
        <ele>1471.31</ele>
        <time>2019-10-14T15:04:41.000Z</time>
      </trkpt>
      <trkpt lat="45.67893" lon="6.74265">
        <ele>1474.52</ele>
        <time>2019-10-14T15:04:46.000Z</time>
      </trkpt>
      <trkpt lat="45.67908" lon="6.74246">
        <ele>1476.63</ele>
        <time>2019-10-14T15:04:51.000Z</time>
      </trkpt>
      <trkpt lat="45.67924" lon="6.74229">
        <ele>1481.48</ele>
        <time>2019-10-14T15:04:56.000Z</time>
      </trkpt>
      <trkpt lat="45.67937" lon="6.74211">
        <ele>1483.57</ele>
        <time>2019-10-14T15:05:01.000Z</time>
      </trkpt>
      <trkpt lat="45.67953" lon="6.74193">
        <ele>1485.95</ele>
        <time>2019-10-14T15:05:06.000Z</time>
      </trkpt>
      <trkpt lat="45.67966" lon="6.74175">
        <ele>1489.18</ele>
        <time>2019-10-14T15:05:11.000Z</time>
      </trkpt>
      <trkpt lat="45.67979" lon="6.74156">
        <ele>1491.4</ele>
        <time>2019-10-14T15:05:16.000Z</time>
      </trkpt>
      <trkpt lat="45.67993" lon="6.74138">
        <ele>1497.04</ele>
        <time>2019-10-14T15:05:21.000Z</time>
      </trkpt>
      <trkpt lat="45.6801" lon="6.74121">
        <ele>1499.35</ele>
        <time>2019-10-14T15:05:26.000Z</time>
      </trkpt>
      <trkpt lat="45.68023" lon="6.74104">
        <ele>1502.2</ele>
        <time>2019-10-14T15:05:31.000Z</time>
      </trkpt>
      <trkpt lat="45.68038" lon="6.74086">
        <ele>1501.12</ele>
        <time>2019-10-14T15:05:36.000Z</time>
      </trkpt>
      <trkpt lat="45.68053" lon="6.7407">
        <ele>1500.21</ele>
        <time>2019-10-14T15:05:41.000Z</time>
      </trkpt>
      <trkpt lat="45.68069" lon="6.74056">
        <ele>1502.07</ele>
        <time>2019-10-14T15:05:46.000Z</time>
      </trkpt>
      <trkpt lat="45.68079" lon="6.74038">
        <ele>1503.15</ele>
        <time>2019-10-14T15:05:51.000Z</time>
      </trkpt>
      <trkpt lat="45.68092" lon="6.74022">
        <ele>1504.75</ele>
        <time>2019-10-14T15:05:56.000Z</time>
      </trkpt>
      <trkpt lat="45.68106" lon="6.74005">
        <ele>1504.49</ele>
        <time>2019-10-14T15:06:01.000Z</time>
      </trkpt>
      <trkpt lat="45.6812" lon="6.73993">
        <ele>1503.69</ele>
        <time>2019-10-14T15:06:06.000Z</time>
      </trkpt>
      <trkpt lat="45.68138" lon="6.73978">
        <ele>1506.09</ele>
        <time>2019-10-14T15:06:11.000Z</time>
      </trkpt>
      <trkpt lat="45.68157" lon="6.73968">
        <ele>1510.72</ele>
        <time>2019-10-14T15:06:16.000Z</time>
      </trkpt>
      <trkpt lat="45.68174" lon="6.73959">
        <ele>1510.82</ele>
        <time>2019-10-14T15:06:21.000Z</time>
      </trkpt>
      <trkpt lat="45.68191" lon="6.73946">
        <ele>1517.41</ele>
        <time>2019-10-14T15:06:26.000Z</time>
      </trkpt>
      <trkpt lat="45.68208" lon="6.73937">
        <ele>1514.57</ele>
        <time>2019-10-14T15:06:31.000Z</time>
      </trkpt>
      <trkpt lat="45.68221" lon="6.73918">
        <ele>1510.51</ele>
        <time>2019-10-14T15:06:36.000Z</time>
      </trkpt>
      <trkpt lat="45.68229" lon="6.73901">
        <ele>1507.74</ele>
        <time>2019-10-14T15:06:41.000Z</time>
      </trkpt>
      <trkpt lat="45.68244" lon="6.73877">
        <ele>1508.06</ele>
        <time>2019-10-14T15:06:46.000Z</time>
      </trkpt>
      <trkpt lat="45.68255" lon="6.73853">
        <ele>1505.58</ele>
        <time>2019-10-14T15:06:51.000Z</time>
      </trkpt>
      <trkpt lat="45.6827" lon="6.73829">
        <ele>1503.35</ele>
        <time>2019-10-14T15:06:56.000Z</time>
      </trkpt>
      <trkpt lat="45.68286" lon="6.73798">
        <ele>1508.13</ele>
        <time>2019-10-14T15:07:01.000Z</time>
      </trkpt>
      <trkpt lat="45.68314" lon="6.73774">
        <ele>1514.62</ele>
        <time>2019-10-14T15:07:06.000Z</time>
      </trkpt>
      <trkpt lat="45.68338" lon="6.73752">
        <ele>1512.18</ele>
        <time>2019-10-14T15:07:11.000Z</time>
      </trkpt>
      <trkpt lat="45.68368" lon="6.73736">
        <ele>1515.78</ele>
        <time>2019-10-14T15:07:16.000Z</time>
      </trkpt>
      <trkpt lat="45.68396" lon="6.73734">
        <ele>1518.46</ele>
        <time>2019-10-14T15:07:21.000Z</time>
      </trkpt>
      <trkpt lat="45.68424" lon="6.73729">
        <ele>1518.72</ele>
        <time>2019-10-14T15:07:26.000Z</time>
      </trkpt>
      <trkpt lat="45.68449" lon="6.73716">
        <ele>1515.27</ele>
        <time>2019-10-14T15:07:31.000Z</time>
      </trkpt>
      <trkpt lat="45.68475" lon="6.73701">
        <ele>1514.1</ele>
        <time>2019-10-14T15:07:36.000Z</time>
      </trkpt>
      <trkpt lat="45.68501" lon="6.7368">
        <ele>1518.26</ele>
        <time>2019-10-14T15:07:41.000Z</time>
      </trkpt>
      <trkpt lat="45.68524" lon="6.73664">
        <ele>1516.85</ele>
        <time>2019-10-14T15:07:46.000Z</time>
      </trkpt>
      <trkpt lat="45.68516" lon="6.73674">
        <ele>1525.59</ele>
        <time>2019-10-14T15:08:04.000Z</time>
      </trkpt>
      <trkpt lat="45.68517" lon="6.7366">
        <ele>1515.39</ele>
        <time>2019-10-14T15:11:12.000Z</time>
      </trkpt>
      <trkpt lat="45.6853" lon="6.73642">
        <ele>1515.49</ele>
        <time>2019-10-14T15:11:17.000Z</time>
      </trkpt>
      <trkpt lat="45.68543" lon="6.73623">
        <ele>1512.45</ele>
        <time>2019-10-14T15:11:22.000Z</time>
      </trkpt>
      <trkpt lat="45.68553" lon="6.73602">
        <ele>1507</ele>
        <time>2019-10-14T15:11:27.000Z</time>
      </trkpt>
      <trkpt lat="45.68564" lon="6.73579">
        <ele>1508.3</ele>
        <time>2019-10-14T15:11:32.000Z</time>
      </trkpt>
      <trkpt lat="45.68573" lon="6.73547">
        <ele>1508.6</ele>
        <time>2019-10-14T15:11:37.000Z</time>
      </trkpt>
      <trkpt lat="45.68577" lon="6.73519">
        <ele>1512.41</ele>
        <time>2019-10-14T15:11:42.000Z</time>
      </trkpt>
      <trkpt lat="45.6858" lon="6.73486">
        <ele>1519.1</ele>
        <time>2019-10-14T15:11:47.000Z</time>
      </trkpt>
      <trkpt lat="45.68579" lon="6.73454">
        <ele>1520.36</ele>
        <time>2019-10-14T15:11:52.000Z</time>
      </trkpt>
      <trkpt lat="45.68581" lon="6.7342">
        <ele>1524.14</ele>
        <time>2019-10-14T15:11:57.000Z</time>
      </trkpt>
      <trkpt lat="45.68585" lon="6.73388">
        <ele>1527.36</ele>
        <time>2019-10-14T15:12:02.000Z</time>
      </trkpt>
      <trkpt lat="45.68597" lon="6.7336">
        <ele>1532.03</ele>
        <time>2019-10-14T15:12:07.000Z</time>
      </trkpt>
      <trkpt lat="45.68612" lon="6.73334">
        <ele>1539.83</ele>
        <time>2019-10-14T15:12:12.000Z</time>
      </trkpt>
      <trkpt lat="45.6863" lon="6.7332">
        <ele>1542.16</ele>
        <time>2019-10-14T15:12:17.000Z</time>
      </trkpt>
      <trkpt lat="45.6865" lon="6.73308">
        <ele>1544.01</ele>
        <time>2019-10-14T15:12:22.000Z</time>
      </trkpt>
      <trkpt lat="45.68667" lon="6.73302">
        <ele>1546.13</ele>
        <time>2019-10-14T15:12:27.000Z</time>
      </trkpt>
      <trkpt lat="45.68687" lon="6.73296">
        <ele>1545.15</ele>
        <time>2019-10-14T15:12:32.000Z</time>
      </trkpt>
      <trkpt lat="45.68704" lon="6.7329">
        <ele>1543.13</ele>
        <time>2019-10-14T15:12:37.000Z</time>
      </trkpt>
      <trkpt lat="45.68722" lon="6.73284">
        <ele>1547.78</ele>
        <time>2019-10-14T15:12:42.000Z</time>
      </trkpt>
      <trkpt lat="45.6874" lon="6.73278">
        <ele>1548.3</ele>
        <time>2019-10-14T15:12:47.000Z</time>
      </trkpt>
      <trkpt lat="45.68753" lon="6.73277">
        <ele>1550.99</ele>
        <time>2019-10-14T15:12:52.000Z</time>
      </trkpt>
      <trkpt lat="45.68753" lon="6.7329">
        <ele>1561.76</ele>
        <time>2019-10-14T15:13:46.000Z</time>
      </trkpt>
      <trkpt lat="45.68762" lon="6.73285">
        <ele>1556.79</ele>
        <time>2019-10-14T15:14:56.000Z</time>
      </trkpt>
      <trkpt lat="45.68778" lon="6.73276">
        <ele>1557.9</ele>
        <time>2019-10-14T15:15:01.000Z</time>
      </trkpt>
      <trkpt lat="45.68797" lon="6.73267">
        <ele>1559.23</ele>
        <time>2019-10-14T15:15:06.000Z</time>
      </trkpt>
      <trkpt lat="45.68815" lon="6.7327">
        <ele>1561.75</ele>
        <time>2019-10-14T15:15:11.000Z</time>
      </trkpt>
      <trkpt lat="45.68835" lon="6.73277">
        <ele>1567.18</ele>
        <time>2019-10-14T15:15:16.000Z</time>
      </trkpt>
      <trkpt lat="45.68854" lon="6.73283">
        <ele>1568.96</ele>
        <time>2019-10-14T15:15:21.000Z</time>
      </trkpt>
      <trkpt lat="45.68873" lon="6.73292">
        <ele>1569.5</ele>
        <time>2019-10-14T15:15:26.000Z</time>
      </trkpt>
      <trkpt lat="45.68893" lon="6.73296">
        <ele>1569.99</ele>
        <time>2019-10-14T15:15:31.000Z</time>
      </trkpt>
      <trkpt lat="45.68914" lon="6.73295">
        <ele>1569.62</ele>
        <time>2019-10-14T15:15:36.000Z</time>
      </trkpt>
      <trkpt lat="45.68933" lon="6.73293">
        <ele>1573.62</ele>
        <time>2019-10-14T15:15:41.000Z</time>
      </trkpt>
      <trkpt lat="45.6895" lon="6.73289">
        <ele>1576.89</ele>
        <time>2019-10-14T15:15:46.000Z</time>
      </trkpt>
      <trkpt lat="45.68964" lon="6.73283">
        <ele>1576.87</ele>
        <time>2019-10-14T15:15:51.000Z</time>
      </trkpt>
      <trkpt lat="45.68982" lon="6.73276">
        <ele>1579.01</ele>
        <time>2019-10-14T15:15:56.000Z</time>
      </trkpt>
      <trkpt lat="45.69002" lon="6.73271">
        <ele>1585.43</ele>
        <time>2019-10-14T15:16:01.000Z</time>
      </trkpt>
      <trkpt lat="45.6902" lon="6.73269">
        <ele>1586.24</ele>
        <time>2019-10-14T15:16:06.000Z</time>
      </trkpt>
      <trkpt lat="45.69037" lon="6.73265">
        <ele>1584.47</ele>
        <time>2019-10-14T15:16:11.000Z</time>
      </trkpt>
      <trkpt lat="45.69054" lon="6.73253">
        <ele>1583.04</ele>
        <time>2019-10-14T15:16:16.000Z</time>
      </trkpt>
      <trkpt lat="45.69072" lon="6.73244">
        <ele>1583.39</ele>
        <time>2019-10-14T15:16:21.000Z</time>
      </trkpt>
      <trkpt lat="45.69089" lon="6.73241">
        <ele>1579.95</ele>
        <time>2019-10-14T15:16:26.000Z</time>
      </trkpt>
      <trkpt lat="45.69106" lon="6.73243">
        <ele>1587.48</ele>
        <time>2019-10-14T15:16:31.000Z</time>
      </trkpt>
      <trkpt lat="45.69125" lon="6.73243">
        <ele>1587.73</ele>
        <time>2019-10-14T15:16:36.000Z</time>
      </trkpt>
      <trkpt lat="45.69144" lon="6.73242">
        <ele>1589.86</ele>
        <time>2019-10-14T15:16:41.000Z</time>
      </trkpt>
      <trkpt lat="45.69164" lon="6.73237">
        <ele>1591.24</ele>
        <time>2019-10-14T15:16:46.000Z</time>
      </trkpt>
      <trkpt lat="45.69184" lon="6.73231">
        <ele>1592.4</ele>
        <time>2019-10-14T15:16:51.000Z</time>
      </trkpt>
      <trkpt lat="45.69201" lon="6.7323">
        <ele>1596.17</ele>
        <time>2019-10-14T15:16:56.000Z</time>
      </trkpt>
      <trkpt lat="45.69214" lon="6.7323">
        <ele>1595.73</ele>
        <time>2019-10-14T15:17:01.000Z</time>
      </trkpt>
      <trkpt lat="45.69234" lon="6.73219">
        <ele>1598.91</ele>
        <time>2019-10-14T15:17:06.000Z</time>
      </trkpt>
      <trkpt lat="45.6925" lon="6.73218">
        <ele>1599.05</ele>
        <time>2019-10-14T15:17:11.000Z</time>
      </trkpt>
      <trkpt lat="45.69268" lon="6.73216">
        <ele>1598.09</ele>
        <time>2019-10-14T15:17:16.000Z</time>
      </trkpt>
      <trkpt lat="45.69285" lon="6.73211">
        <ele>1596.33</ele>
        <time>2019-10-14T15:17:21.000Z</time>
      </trkpt>
      <trkpt lat="45.69301" lon="6.73202">
        <ele>1597.44</ele>
        <time>2019-10-14T15:17:26.000Z</time>
      </trkpt>
      <trkpt lat="45.69318" lon="6.7319">
        <ele>1596.07</ele>
        <time>2019-10-14T15:17:31.000Z</time>
      </trkpt>
      <trkpt lat="45.69334" lon="6.73175">
        <ele>1598.91</ele>
        <time>2019-10-14T15:17:36.000Z</time>
      </trkpt>
      <trkpt lat="45.69343" lon="6.73165">
        <ele>1603.5</ele>
        <time>2019-10-14T15:17:41.000Z</time>
      </trkpt>
      <trkpt lat="45.6934" lon="6.73146">
        <ele>1604.72</ele>
        <time>2019-10-14T15:17:46.000Z</time>
      </trkpt>
      <trkpt lat="45.69328" lon="6.73121">
        <ele>1606.09</ele>
        <time>2019-10-14T15:17:51.000Z</time>
      </trkpt>
      <trkpt lat="45.69328" lon="6.7309">
        <ele>1608.16</ele>
        <time>2019-10-14T15:17:56.000Z</time>
      </trkpt>
      <trkpt lat="45.69333" lon="6.73067">
        <ele>1606.64</ele>
        <time>2019-10-14T15:18:01.000Z</time>
      </trkpt>
      <trkpt lat="45.69338" lon="6.73043">
        <ele>1609.9</ele>
        <time>2019-10-14T15:18:06.000Z</time>
      </trkpt>
      <trkpt lat="45.69343" lon="6.73019">
        <ele>1611.01</ele>
        <time>2019-10-14T15:18:11.000Z</time>
      </trkpt>
      <trkpt lat="45.69346" lon="6.72995">
        <ele>1613.58</ele>
        <time>2019-10-14T15:18:16.000Z</time>
      </trkpt>
      <trkpt lat="45.69354" lon="6.72974">
        <ele>1614.49</ele>
        <time>2019-10-14T15:18:21.000Z</time>
      </trkpt>
      <trkpt lat="45.69359" lon="6.72949">
        <ele>1617.52</ele>
        <time>2019-10-14T15:18:26.000Z</time>
      </trkpt>
      <trkpt lat="45.69359" lon="6.72924">
        <ele>1619.96</ele>
        <time>2019-10-14T15:18:31.000Z</time>
      </trkpt>
      <trkpt lat="45.69362" lon="6.72899">
        <ele>1624.41</ele>
        <time>2019-10-14T15:18:36.000Z</time>
      </trkpt>
      <trkpt lat="45.69365" lon="6.72873">
        <ele>1626.01</ele>
        <time>2019-10-14T15:18:41.000Z</time>
      </trkpt>
      <trkpt lat="45.69369" lon="6.72847">
        <ele>1626.91</ele>
        <time>2019-10-14T15:18:46.000Z</time>
      </trkpt>
      <trkpt lat="45.69374" lon="6.72824">
        <ele>1627.88</ele>
        <time>2019-10-14T15:18:51.000Z</time>
      </trkpt>
      <trkpt lat="45.6938" lon="6.728">
        <ele>1628.02</ele>
        <time>2019-10-14T15:18:56.000Z</time>
      </trkpt>
      <trkpt lat="45.69384" lon="6.72777">
        <ele>1635.14</ele>
        <time>2019-10-14T15:19:01.000Z</time>
      </trkpt>
      <trkpt lat="45.69389" lon="6.72752">
        <ele>1632.82</ele>
        <time>2019-10-14T15:19:06.000Z</time>
      </trkpt>
      <trkpt lat="45.69392" lon="6.72725">
        <ele>1632.11</ele>
        <time>2019-10-14T15:19:11.000Z</time>
      </trkpt>
      <trkpt lat="45.69395" lon="6.72698">
        <ele>1630.89</ele>
        <time>2019-10-14T15:19:16.000Z</time>
      </trkpt>
      <trkpt lat="45.69398" lon="6.72672">
        <ele>1632.91</ele>
        <time>2019-10-14T15:19:21.000Z</time>
      </trkpt>
      <trkpt lat="45.694" lon="6.72648">
        <ele>1634.69</ele>
        <time>2019-10-14T15:19:26.000Z</time>
      </trkpt>
      <trkpt lat="45.69401" lon="6.72625">
        <ele>1637.88</ele>
        <time>2019-10-14T15:19:31.000Z</time>
      </trkpt>
      <trkpt lat="45.69401" lon="6.726">
        <ele>1639.37</ele>
        <time>2019-10-14T15:19:36.000Z</time>
      </trkpt>
      <trkpt lat="45.69402" lon="6.72575">
        <ele>1638.28</ele>
        <time>2019-10-14T15:19:41.000Z</time>
      </trkpt>
      <trkpt lat="45.694" lon="6.72549">
        <ele>1638.73</ele>
        <time>2019-10-14T15:19:46.000Z</time>
      </trkpt>
      <trkpt lat="45.69399" lon="6.72523">
        <ele>1640.67</ele>
        <time>2019-10-14T15:19:51.000Z</time>
      </trkpt>
      <trkpt lat="45.69399" lon="6.72498">
        <ele>1655.41</ele>
        <time>2019-10-14T15:19:56.000Z</time>
      </trkpt>
      <trkpt lat="45.69398" lon="6.72475">
        <ele>1656.76</ele>
        <time>2019-10-14T15:20:01.000Z</time>
      </trkpt>
      <trkpt lat="45.69397" lon="6.72451">
        <ele>1658.08</ele>
        <time>2019-10-14T15:20:06.000Z</time>
      </trkpt>
      <trkpt lat="45.69394" lon="6.72428">
        <ele>1658.35</ele>
        <time>2019-10-14T15:20:11.000Z</time>
      </trkpt>
      <trkpt lat="45.69388" lon="6.72402">
        <ele>1656.74</ele>
        <time>2019-10-14T15:20:16.000Z</time>
      </trkpt>
      <trkpt lat="45.6939" lon="6.72378">
        <ele>1667.56</ele>
        <time>2019-10-14T15:20:21.000Z</time>
      </trkpt>
      <trkpt lat="45.69392" lon="6.72354">
        <ele>1671.34</ele>
        <time>2019-10-14T15:20:26.000Z</time>
      </trkpt>
      <trkpt lat="45.69398" lon="6.7233">
        <ele>1668.9</ele>
        <time>2019-10-14T15:20:31.000Z</time>
      </trkpt>
      <trkpt lat="45.69409" lon="6.72307">
        <ele>1672.48</ele>
        <time>2019-10-14T15:20:36.000Z</time>
      </trkpt>
      <trkpt lat="45.6942" lon="6.72284">
        <ele>1673.24</ele>
        <time>2019-10-14T15:20:41.000Z</time>
      </trkpt>
      <trkpt lat="45.6943" lon="6.72261">
        <ele>1674.76</ele>
        <time>2019-10-14T15:20:46.000Z</time>
      </trkpt>
      <trkpt lat="45.69444" lon="6.72243">
        <ele>1676.44</ele>
        <time>2019-10-14T15:20:51.000Z</time>
      </trkpt>
      <trkpt lat="45.69457" lon="6.72221">
        <ele>1678.29</ele>
        <time>2019-10-14T15:20:56.000Z</time>
      </trkpt>
      <trkpt lat="45.69471" lon="6.72203">
        <ele>1679.51</ele>
        <time>2019-10-14T15:21:01.000Z</time>
      </trkpt>
      <trkpt lat="45.69487" lon="6.72193">
        <ele>1679.17</ele>
        <time>2019-10-14T15:21:06.000Z</time>
      </trkpt>
      <trkpt lat="45.69504" lon="6.72203">
        <ele>1681.27</ele>
        <time>2019-10-14T15:21:11.000Z</time>
      </trkpt>
      <trkpt lat="45.69519" lon="6.72228">
        <ele>1683.24</ele>
        <time>2019-10-14T15:21:16.000Z</time>
      </trkpt>
      <trkpt lat="45.69526" lon="6.72252">
        <ele>1686.9</ele>
        <time>2019-10-14T15:21:21.000Z</time>
      </trkpt>
      <trkpt lat="45.69531" lon="6.72273">
        <ele>1689.67</ele>
        <time>2019-10-14T15:21:26.000Z</time>
      </trkpt>
      <trkpt lat="45.69533" lon="6.72301">
        <ele>1688.48</ele>
        <time>2019-10-14T15:21:31.000Z</time>
      </trkpt>
      <trkpt lat="45.69532" lon="6.72328">
        <ele>1685.88</ele>
        <time>2019-10-14T15:21:36.000Z</time>
      </trkpt>
      <trkpt lat="45.69529" lon="6.72354">
        <ele>1685.35</ele>
        <time>2019-10-14T15:21:41.000Z</time>
      </trkpt>
      <trkpt lat="45.69522" lon="6.7238">
        <ele>1683.95</ele>
        <time>2019-10-14T15:21:46.000Z</time>
      </trkpt>
      <trkpt lat="45.69518" lon="6.72404">
        <ele>1685.65</ele>
        <time>2019-10-14T15:21:51.000Z</time>
      </trkpt>
      <trkpt lat="45.69526" lon="6.72433">
        <ele>1687.99</ele>
        <time>2019-10-14T15:21:56.000Z</time>
      </trkpt>
      <trkpt lat="45.69544" lon="6.72459">
        <ele>1693.26</ele>
        <time>2019-10-14T15:22:01.000Z</time>
      </trkpt>
      <trkpt lat="45.69561" lon="6.72487">
        <ele>1695.76</ele>
        <time>2019-10-14T15:22:06.000Z</time>
      </trkpt>
      <trkpt lat="45.69576" lon="6.7252">
        <ele>1695.01</ele>
        <time>2019-10-14T15:22:11.000Z</time>
      </trkpt>
      <trkpt lat="45.69588" lon="6.72551">
        <ele>1696.58</ele>
        <time>2019-10-14T15:22:16.000Z</time>
      </trkpt>
      <trkpt lat="45.69597" lon="6.7259">
        <ele>1693.72</ele>
        <time>2019-10-14T15:22:21.000Z</time>
      </trkpt>
      <trkpt lat="45.69606" lon="6.72627">
        <ele>1695.99</ele>
        <time>2019-10-14T15:22:26.000Z</time>
      </trkpt>
      <trkpt lat="45.6961" lon="6.72666">
        <ele>1696.14</ele>
        <time>2019-10-14T15:22:31.000Z</time>
      </trkpt>
      <trkpt lat="45.69627" lon="6.7268">
        <ele>1699.01</ele>
        <time>2019-10-14T15:22:36.000Z</time>
      </trkpt>
      <trkpt lat="45.69618" lon="6.72682">
        <ele>1708.68</ele>
        <time>2019-10-14T15:23:27.000Z</time>
      </trkpt>
      <trkpt lat="45.69627" lon="6.7268">
        <ele>1704.2</ele>
        <time>2019-10-14T15:27:36.000Z</time>
      </trkpt>
      <trkpt lat="45.69634" lon="6.72669">
        <ele>1700</ele>
        <time>2019-10-14T15:28:23.000Z</time>
      </trkpt>
      <trkpt lat="45.69642" lon="6.72644">
        <ele>1704.47</ele>
        <time>2019-10-14T15:28:28.000Z</time>
      </trkpt>
      <trkpt lat="45.69639" lon="6.7262">
        <ele>1696.79</ele>
        <time>2019-10-14T15:28:33.000Z</time>
      </trkpt>
      <trkpt lat="45.69633" lon="6.72595">
        <ele>1698.45</ele>
        <time>2019-10-14T15:28:38.000Z</time>
      </trkpt>
      <trkpt lat="45.69625" lon="6.72567">
        <ele>1703.92</ele>
        <time>2019-10-14T15:28:43.000Z</time>
      </trkpt>
      <trkpt lat="45.69618" lon="6.72538">
        <ele>1707.96</ele>
        <time>2019-10-14T15:28:48.000Z</time>
      </trkpt>
      <trkpt lat="45.69617" lon="6.72509">
        <ele>1709.77</ele>
        <time>2019-10-14T15:28:53.000Z</time>
      </trkpt>
      <trkpt lat="45.69615" lon="6.72484">
        <ele>1713.7</ele>
        <time>2019-10-14T15:28:58.000Z</time>
      </trkpt>
      <trkpt lat="45.69616" lon="6.7246">
        <ele>1711.78</ele>
        <time>2019-10-14T15:29:03.000Z</time>
      </trkpt>
      <trkpt lat="45.69618" lon="6.72437">
        <ele>1712.56</ele>
        <time>2019-10-14T15:29:08.000Z</time>
      </trkpt>
      <trkpt lat="45.69617" lon="6.7241">
        <ele>1711.75</ele>
        <time>2019-10-14T15:29:13.000Z</time>
      </trkpt>
      <trkpt lat="45.69616" lon="6.72386">
        <ele>1711.7</ele>
        <time>2019-10-14T15:29:18.000Z</time>
      </trkpt>
      <trkpt lat="45.69616" lon="6.72362">
        <ele>1713.4</ele>
        <time>2019-10-14T15:29:23.000Z</time>
      </trkpt>
      <trkpt lat="45.69614" lon="6.72338">
        <ele>1714.66</ele>
        <time>2019-10-14T15:29:28.000Z</time>
      </trkpt>
      <trkpt lat="45.69611" lon="6.72318">
        <ele>1719.45</ele>
        <time>2019-10-14T15:29:33.000Z</time>
      </trkpt>
      <trkpt lat="45.69603" lon="6.72297">
        <ele>1723.42</ele>
        <time>2019-10-14T15:29:38.000Z</time>
      </trkpt>
      <trkpt lat="45.69592" lon="6.72278">
        <ele>1723.73</ele>
        <time>2019-10-14T15:29:43.000Z</time>
      </trkpt>
      <trkpt lat="45.6959" lon="6.72256">
        <ele>1723.63</ele>
        <time>2019-10-14T15:29:48.000Z</time>
      </trkpt>
      <trkpt lat="45.69609" lon="6.7226">
        <ele>1726.72</ele>
        <time>2019-10-14T15:29:53.000Z</time>
      </trkpt>
      <trkpt lat="45.69621" lon="6.72288">
        <ele>1728.37</ele>
        <time>2019-10-14T15:29:58.000Z</time>
      </trkpt>
      <trkpt lat="45.69633" lon="6.72312">
        <ele>1733.24</ele>
        <time>2019-10-14T15:30:03.000Z</time>
      </trkpt>
      <trkpt lat="45.69644" lon="6.72332">
        <ele>1737.6</ele>
        <time>2019-10-14T15:30:08.000Z</time>
      </trkpt>
      <trkpt lat="45.69651" lon="6.72354">
        <ele>1737.54</ele>
        <time>2019-10-14T15:30:13.000Z</time>
      </trkpt>
      <trkpt lat="45.69659" lon="6.72375">
        <ele>1739.41</ele>
        <time>2019-10-14T15:30:18.000Z</time>
      </trkpt>
      <trkpt lat="45.69669" lon="6.72395">
        <ele>1741.17</ele>
        <time>2019-10-14T15:30:23.000Z</time>
      </trkpt>
      <trkpt lat="45.69678" lon="6.72413">
        <ele>1747.54</ele>
        <time>2019-10-14T15:30:28.000Z</time>
      </trkpt>
      <trkpt lat="45.69688" lon="6.72432">
        <ele>1752.43</ele>
        <time>2019-10-14T15:30:33.000Z</time>
      </trkpt>
      <trkpt lat="45.69697" lon="6.72451">
        <ele>1751.81</ele>
        <time>2019-10-14T15:30:38.000Z</time>
      </trkpt>
      <trkpt lat="45.69703" lon="6.72474">
        <ele>1753.52</ele>
        <time>2019-10-14T15:30:43.000Z</time>
      </trkpt>
      <trkpt lat="45.6971" lon="6.72491">
        <ele>1760.22</ele>
        <time>2019-10-14T15:30:48.000Z</time>
      </trkpt>
      <trkpt lat="45.69721" lon="6.72508">
        <ele>1760.66</ele>
        <time>2019-10-14T15:30:53.000Z</time>
      </trkpt>
      <trkpt lat="45.69739" lon="6.72516">
        <ele>1761.72</ele>
        <time>2019-10-14T15:30:58.000Z</time>
      </trkpt>
      <trkpt lat="45.69759" lon="6.72519">
        <ele>1768.24</ele>
        <time>2019-10-14T15:31:03.000Z</time>
      </trkpt>
      <trkpt lat="45.69777" lon="6.72527">
        <ele>1768.28</ele>
        <time>2019-10-14T15:31:08.000Z</time>
      </trkpt>
      <trkpt lat="45.69797" lon="6.72533">
        <ele>1771.61</ele>
        <time>2019-10-14T15:31:13.000Z</time>
      </trkpt>
      <trkpt lat="45.69813" lon="6.72525">
        <ele>1774.11</ele>
        <time>2019-10-14T15:31:18.000Z</time>
      </trkpt>
      <trkpt lat="45.6982" lon="6.72502">
        <ele>1772.35</ele>
        <time>2019-10-14T15:31:23.000Z</time>
      </trkpt>
      <trkpt lat="45.69816" lon="6.72475">
        <ele>1771.49</ele>
        <time>2019-10-14T15:31:28.000Z</time>
      </trkpt>
      <trkpt lat="45.69798" lon="6.7245">
        <ele>1769.74</ele>
        <time>2019-10-14T15:31:33.000Z</time>
      </trkpt>
      <trkpt lat="45.69777" lon="6.72427">
        <ele>1769.6</ele>
        <time>2019-10-14T15:31:38.000Z</time>
      </trkpt>
      <trkpt lat="45.69756" lon="6.72407">
        <ele>1764.49</ele>
        <time>2019-10-14T15:31:43.000Z</time>
      </trkpt>
      <trkpt lat="45.69746" lon="6.72382">
        <ele>1765.71</ele>
        <time>2019-10-14T15:31:48.000Z</time>
      </trkpt>
      <trkpt lat="45.69748" lon="6.72352">
        <ele>1773.19</ele>
        <time>2019-10-14T15:31:53.000Z</time>
      </trkpt>
      <trkpt lat="45.69757" lon="6.72322">
        <ele>1777.47</ele>
        <time>2019-10-14T15:31:58.000Z</time>
      </trkpt>
      <trkpt lat="45.69765" lon="6.72286">
        <ele>1780.45</ele>
        <time>2019-10-14T15:32:03.000Z</time>
      </trkpt>
      <trkpt lat="45.69777" lon="6.72247">
        <ele>1777.59</ele>
        <time>2019-10-14T15:32:08.000Z</time>
      </trkpt>
      <trkpt lat="45.69769" lon="6.72206">
        <ele>1778.04</ele>
        <time>2019-10-14T15:32:13.000Z</time>
      </trkpt>
      <trkpt lat="45.69754" lon="6.72187">
        <ele>1770.63</ele>
        <time>2019-10-14T15:32:18.000Z</time>
      </trkpt>
      <trkpt lat="45.69739" lon="6.72169">
        <ele>1770.9</ele>
        <time>2019-10-14T15:32:23.000Z</time>
      </trkpt>
      <trkpt lat="45.69735" lon="6.72143">
        <ele>1771.86</ele>
        <time>2019-10-14T15:32:28.000Z</time>
      </trkpt>
      <trkpt lat="45.69735" lon="6.72115">
        <ele>1774.24</ele>
        <time>2019-10-14T15:32:33.000Z</time>
      </trkpt>
      <trkpt lat="45.6974" lon="6.72087">
        <ele>1774.1</ele>
        <time>2019-10-14T15:32:38.000Z</time>
      </trkpt>
      <trkpt lat="45.69744" lon="6.72055">
        <ele>1774.15</ele>
        <time>2019-10-14T15:32:43.000Z</time>
      </trkpt>
      <trkpt lat="45.69749" lon="6.72025">
        <ele>1771.17</ele>
        <time>2019-10-14T15:32:48.000Z</time>
      </trkpt>
      <trkpt lat="45.69748" lon="6.71995">
        <ele>1769.28</ele>
        <time>2019-10-14T15:32:53.000Z</time>
      </trkpt>
      <trkpt lat="45.69744" lon="6.71966">
        <ele>1768.91</ele>
        <time>2019-10-14T15:32:58.000Z</time>
      </trkpt>
      <trkpt lat="45.69734" lon="6.71942">
        <ele>1774.21</ele>
        <time>2019-10-14T15:33:03.000Z</time>
      </trkpt>
      <trkpt lat="45.69714" lon="6.71927">
        <ele>1779.64</ele>
        <time>2019-10-14T15:33:08.000Z</time>
      </trkpt>
      <trkpt lat="45.69696" lon="6.71916">
        <ele>1779.92</ele>
        <time>2019-10-14T15:33:13.000Z</time>
      </trkpt>
      <trkpt lat="45.69678" lon="6.71906">
        <ele>1780.77</ele>
        <time>2019-10-14T15:33:18.000Z</time>
      </trkpt>
      <trkpt lat="45.69664" lon="6.71884">
        <ele>1779.89</ele>
        <time>2019-10-14T15:33:23.000Z</time>
      </trkpt>
      <trkpt lat="45.69648" lon="6.71871">
        <ele>1782.21</ele>
        <time>2019-10-14T15:33:28.000Z</time>
      </trkpt>
      <trkpt lat="45.69631" lon="6.71861">
        <ele>1782.96</ele>
        <time>2019-10-14T15:33:33.000Z</time>
      </trkpt>
      <trkpt lat="45.69612" lon="6.71851">
        <ele>1788.43</ele>
        <time>2019-10-14T15:33:38.000Z</time>
      </trkpt>
      <trkpt lat="45.69595" lon="6.7184">
        <ele>1788.6</ele>
        <time>2019-10-14T15:33:43.000Z</time>
      </trkpt>
      <trkpt lat="45.6958" lon="6.71821">
        <ele>1786.23</ele>
        <time>2019-10-14T15:33:48.000Z</time>
      </trkpt>
      <trkpt lat="45.69573" lon="6.71797">
        <ele>1784.86</ele>
        <time>2019-10-14T15:33:53.000Z</time>
      </trkpt>
      <trkpt lat="45.69575" lon="6.71767">
        <ele>1786.47</ele>
        <time>2019-10-14T15:33:58.000Z</time>
      </trkpt>
      <trkpt lat="45.69573" lon="6.71735">
        <ele>1788.56</ele>
        <time>2019-10-14T15:34:03.000Z</time>
      </trkpt>
      <trkpt lat="45.69581" lon="6.71707">
        <ele>1789.94</ele>
        <time>2019-10-14T15:34:08.000Z</time>
      </trkpt>
      <trkpt lat="45.69587" lon="6.7168">
        <ele>1786.17</ele>
        <time>2019-10-14T15:34:13.000Z</time>
      </trkpt>
      <trkpt lat="45.69581" lon="6.7165">
        <ele>1787.36</ele>
        <time>2019-10-14T15:34:18.000Z</time>
      </trkpt>
      <trkpt lat="45.69563" lon="6.71632">
        <ele>1788.71</ele>
        <time>2019-10-14T15:34:23.000Z</time>
      </trkpt>
      <trkpt lat="45.69542" lon="6.7163">
        <ele>1793.17</ele>
        <time>2019-10-14T15:34:28.000Z</time>
      </trkpt>
      <trkpt lat="45.69522" lon="6.71639">
        <ele>1793.97</ele>
        <time>2019-10-14T15:34:33.000Z</time>
      </trkpt>
      <trkpt lat="45.69503" lon="6.7165">
        <ele>1799.13</ele>
        <time>2019-10-14T15:34:38.000Z</time>
      </trkpt>
      <trkpt lat="45.69487" lon="6.71662">
        <ele>1802.27</ele>
        <time>2019-10-14T15:34:43.000Z</time>
      </trkpt>
      <trkpt lat="45.6947" lon="6.71665">
        <ele>1802.69</ele>
        <time>2019-10-14T15:34:48.000Z</time>
      </trkpt>
      <trkpt lat="45.69457" lon="6.71669">
        <ele>1800.21</ele>
        <time>2019-10-14T15:34:53.000Z</time>
      </trkpt>
      <trkpt lat="45.69464" lon="6.7166">
        <ele>1805.93</ele>
        <time>2019-10-14T15:36:23.000Z</time>
      </trkpt>
      <trkpt lat="45.69457" lon="6.7165">
        <ele>1806.22</ele>
        <time>2019-10-14T15:36:43.000Z</time>
      </trkpt>
      <trkpt lat="45.69446" lon="6.71628">
        <ele>1805.39</ele>
        <time>2019-10-14T15:36:48.000Z</time>
      </trkpt>
      <trkpt lat="45.69436" lon="6.71598">
        <ele>1804.79</ele>
        <time>2019-10-14T15:36:53.000Z</time>
      </trkpt>
      <trkpt lat="45.69442" lon="6.71567">
        <ele>1804.57</ele>
        <time>2019-10-14T15:36:58.000Z</time>
      </trkpt>
      <trkpt lat="45.69451" lon="6.71538">
        <ele>1805.99</ele>
        <time>2019-10-14T15:37:03.000Z</time>
      </trkpt>
      <trkpt lat="45.69452" lon="6.71507">
        <ele>1802.29</ele>
        <time>2019-10-14T15:37:08.000Z</time>
      </trkpt>
      <trkpt lat="45.69455" lon="6.71477">
        <ele>1801.18</ele>
        <time>2019-10-14T15:37:13.000Z</time>
      </trkpt>
      <trkpt lat="45.69451" lon="6.71442">
        <ele>1809.6</ele>
        <time>2019-10-14T15:37:18.000Z</time>
      </trkpt>
      <trkpt lat="45.69441" lon="6.71414">
        <ele>1808.66</ele>
        <time>2019-10-14T15:37:23.000Z</time>
      </trkpt>
      <trkpt lat="45.69429" lon="6.71384">
        <ele>1808.01</ele>
        <time>2019-10-14T15:37:28.000Z</time>
      </trkpt>
      <trkpt lat="45.6942" lon="6.71356">
        <ele>1806.74</ele>
        <time>2019-10-14T15:37:33.000Z</time>
      </trkpt>
      <trkpt lat="45.69406" lon="6.71323">
        <ele>1804.66</ele>
        <time>2019-10-14T15:37:38.000Z</time>
      </trkpt>
      <trkpt lat="45.69399" lon="6.71295">
        <ele>1807.59</ele>
        <time>2019-10-14T15:37:43.000Z</time>
      </trkpt>
      <trkpt lat="45.69396" lon="6.71265">
        <ele>1816.36</ele>
        <time>2019-10-14T15:37:48.000Z</time>
      </trkpt>
      <trkpt lat="45.69392" lon="6.71234">
        <ele>1817.64</ele>
        <time>2019-10-14T15:37:53.000Z</time>
      </trkpt>
      <trkpt lat="45.6939" lon="6.71205">
        <ele>1818.43</ele>
        <time>2019-10-14T15:37:58.000Z</time>
      </trkpt>
      <trkpt lat="45.69389" lon="6.71175">
        <ele>1818.13</ele>
        <time>2019-10-14T15:38:03.000Z</time>
      </trkpt>
      <trkpt lat="45.69385" lon="6.71149">
        <ele>1817.45</ele>
        <time>2019-10-14T15:38:08.000Z</time>
      </trkpt>
      <trkpt lat="45.69382" lon="6.71119">
        <ele>1819.4</ele>
        <time>2019-10-14T15:38:13.000Z</time>
      </trkpt>
      <trkpt lat="45.69379" lon="6.7109">
        <ele>1820.98</ele>
        <time>2019-10-14T15:38:18.000Z</time>
      </trkpt>
      <trkpt lat="45.69375" lon="6.7106">
        <ele>1825.09</ele>
        <time>2019-10-14T15:38:23.000Z</time>
      </trkpt>
      <trkpt lat="45.69372" lon="6.71034">
        <ele>1827.5</ele>
        <time>2019-10-14T15:38:28.000Z</time>
      </trkpt>
      <trkpt lat="45.69368" lon="6.71023">
        <ele>1822.76</ele>
        <time>2019-10-14T15:40:20.000Z</time>
      </trkpt>
      <trkpt lat="45.69363" lon="6.71008">
        <ele>1832.29</ele>
        <time>2019-10-14T15:40:37.000Z</time>
      </trkpt>
      <trkpt lat="45.69362" lon="6.70981">
        <ele>1837.3</ele>
        <time>2019-10-14T15:40:42.000Z</time>
      </trkpt>
      <trkpt lat="45.69362" lon="6.70954">
        <ele>1838.25</ele>
        <time>2019-10-14T15:40:47.000Z</time>
      </trkpt>
      <trkpt lat="45.69359" lon="6.70928">
        <ele>1837.61</ele>
        <time>2019-10-14T15:40:52.000Z</time>
      </trkpt>
      <trkpt lat="45.69355" lon="6.70903">
        <ele>1842.13</ele>
        <time>2019-10-14T15:40:57.000Z</time>
      </trkpt>
      <trkpt lat="45.69353" lon="6.70878">
        <ele>1842.97</ele>
        <time>2019-10-14T15:41:02.000Z</time>
      </trkpt>
      <trkpt lat="45.6935" lon="6.70856">
        <ele>1846.64</ele>
        <time>2019-10-14T15:41:07.000Z</time>
      </trkpt>
      <trkpt lat="45.69351" lon="6.70833">
        <ele>1846.62</ele>
        <time>2019-10-14T15:41:12.000Z</time>
      </trkpt>
      <trkpt lat="45.69347" lon="6.7081">
        <ele>1842.27</ele>
        <time>2019-10-14T15:41:17.000Z</time>
      </trkpt>
      <trkpt lat="45.69343" lon="6.70784">
        <ele>1842.04</ele>
        <time>2019-10-14T15:41:22.000Z</time>
      </trkpt>
      <trkpt lat="45.6934" lon="6.7076">
        <ele>1840.73</ele>
        <time>2019-10-14T15:41:27.000Z</time>
      </trkpt>
      <trkpt lat="45.69335" lon="6.70735">
        <ele>1845.61</ele>
        <time>2019-10-14T15:41:32.000Z</time>
      </trkpt>
      <trkpt lat="45.69331" lon="6.70707">
        <ele>1844.56</ele>
        <time>2019-10-14T15:41:37.000Z</time>
      </trkpt>
      <trkpt lat="45.69328" lon="6.70681">
        <ele>1848.23</ele>
        <time>2019-10-14T15:41:42.000Z</time>
      </trkpt>
      <trkpt lat="45.69326" lon="6.70658">
        <ele>1848.92</ele>
        <time>2019-10-14T15:41:47.000Z</time>
      </trkpt>
      <trkpt lat="45.69322" lon="6.70633">
        <ele>1849.29</ele>
        <time>2019-10-14T15:41:52.000Z</time>
      </trkpt>
      <trkpt lat="45.6932" lon="6.70606">
        <ele>1848.07</ele>
        <time>2019-10-14T15:41:57.000Z</time>
      </trkpt>
      <trkpt lat="45.69316" lon="6.7058">
        <ele>1845.8</ele>
        <time>2019-10-14T15:42:02.000Z</time>
      </trkpt>
      <trkpt lat="45.69313" lon="6.70548">
        <ele>1848.28</ele>
        <time>2019-10-14T15:42:07.000Z</time>
      </trkpt>
      <trkpt lat="45.69307" lon="6.70519">
        <ele>1845.75</ele>
        <time>2019-10-14T15:42:12.000Z</time>
      </trkpt>
      <trkpt lat="45.69302" lon="6.70489">
        <ele>1840.67</ele>
        <time>2019-10-14T15:42:17.000Z</time>
      </trkpt>
      <trkpt lat="45.69297" lon="6.70457">
        <ele>1838.85</ele>
        <time>2019-10-14T15:42:22.000Z</time>
      </trkpt>
      <trkpt lat="45.6929" lon="6.70426">
        <ele>1837.74</ele>
        <time>2019-10-14T15:42:27.000Z</time>
      </trkpt>
      <trkpt lat="45.69283" lon="6.70397">
        <ele>1838.13</ele>
        <time>2019-10-14T15:42:32.000Z</time>
      </trkpt>
      <trkpt lat="45.69278" lon="6.70372">
        <ele>1842.44</ele>
        <time>2019-10-14T15:42:37.000Z</time>
      </trkpt>
      <trkpt lat="45.6927" lon="6.70344">
        <ele>1846.02</ele>
        <time>2019-10-14T15:42:42.000Z</time>
      </trkpt>
      <trkpt lat="45.69265" lon="6.7032">
        <ele>1847.07</ele>
        <time>2019-10-14T15:42:47.000Z</time>
      </trkpt>
      <trkpt lat="45.69256" lon="6.70299">
        <ele>1847.35</ele>
        <time>2019-10-14T15:42:52.000Z</time>
      </trkpt>
      <trkpt lat="45.69247" lon="6.70279">
        <ele>1855.73</ele>
        <time>2019-10-14T15:42:57.000Z</time>
      </trkpt>
      <trkpt lat="45.69238" lon="6.70258">
        <ele>1859.94</ele>
        <time>2019-10-14T15:43:02.000Z</time>
      </trkpt>
      <trkpt lat="45.69231" lon="6.70236">
        <ele>1860.63</ele>
        <time>2019-10-14T15:43:07.000Z</time>
      </trkpt>
      <trkpt lat="45.69223" lon="6.70212">
        <ele>1860.99</ele>
        <time>2019-10-14T15:43:12.000Z</time>
      </trkpt>
      <trkpt lat="45.69219" lon="6.70186">
        <ele>1862.05</ele>
        <time>2019-10-14T15:43:17.000Z</time>
      </trkpt>
      <trkpt lat="45.69218" lon="6.7016">
        <ele>1860.77</ele>
        <time>2019-10-14T15:43:22.000Z</time>
      </trkpt>
      <trkpt lat="45.69217" lon="6.70136">
        <ele>1859.32</ele>
        <time>2019-10-14T15:43:27.000Z</time>
      </trkpt>
      <trkpt lat="45.69219" lon="6.70107">
        <ele>1864.45</ele>
        <time>2019-10-14T15:43:32.000Z</time>
      </trkpt>
      <trkpt lat="45.69224" lon="6.7008">
        <ele>1865.11</ele>
        <time>2019-10-14T15:43:37.000Z</time>
      </trkpt>
      <trkpt lat="45.69231" lon="6.70055">
        <ele>1862.26</ele>
        <time>2019-10-14T15:43:42.000Z</time>
      </trkpt>
      <trkpt lat="45.69242" lon="6.7003">
        <ele>1862.45</ele>
        <time>2019-10-14T15:43:47.000Z</time>
      </trkpt>
      <trkpt lat="45.69253" lon="6.70005">
        <ele>1865.99</ele>
        <time>2019-10-14T15:43:52.000Z</time>
      </trkpt>
      <trkpt lat="45.6926" lon="6.69982">
        <ele>1872.61</ele>
        <time>2019-10-14T15:43:57.000Z</time>
      </trkpt>
      <trkpt lat="45.6927" lon="6.69959">
        <ele>1875.87</ele>
        <time>2019-10-14T15:44:02.000Z</time>
      </trkpt>
      <trkpt lat="45.69277" lon="6.69936">
        <ele>1879.9</ele>
        <time>2019-10-14T15:44:07.000Z</time>
      </trkpt>
      <trkpt lat="45.69287" lon="6.69914">
        <ele>1883.11</ele>
        <time>2019-10-14T15:44:12.000Z</time>
      </trkpt>
      <trkpt lat="45.69295" lon="6.69892">
        <ele>1885.82</ele>
        <time>2019-10-14T15:44:17.000Z</time>
      </trkpt>
      <trkpt lat="45.69303" lon="6.69871">
        <ele>1888.48</ele>
        <time>2019-10-14T15:44:22.000Z</time>
      </trkpt>
      <trkpt lat="45.69313" lon="6.69849">
        <ele>1887.44</ele>
        <time>2019-10-14T15:44:27.000Z</time>
      </trkpt>
      <trkpt lat="45.69321" lon="6.69828">
        <ele>1888.72</ele>
        <time>2019-10-14T15:44:32.000Z</time>
      </trkpt>
      <trkpt lat="45.6933" lon="6.6981">
        <ele>1891.37</ele>
        <time>2019-10-14T15:44:37.000Z</time>
      </trkpt>
      <trkpt lat="45.69341" lon="6.6979">
        <ele>1894.02</ele>
        <time>2019-10-14T15:44:42.000Z</time>
      </trkpt>
      <trkpt lat="45.6935" lon="6.69768">
        <ele>1897.16</ele>
        <time>2019-10-14T15:44:47.000Z</time>
      </trkpt>
      <trkpt lat="45.69358" lon="6.69744">
        <ele>1899.23</ele>
        <time>2019-10-14T15:44:52.000Z</time>
      </trkpt>
      <trkpt lat="45.69366" lon="6.69721">
        <ele>1900.61</ele>
        <time>2019-10-14T15:44:57.000Z</time>
      </trkpt>
      <trkpt lat="45.69373" lon="6.69696">
        <ele>1901.42</ele>
        <time>2019-10-14T15:45:02.000Z</time>
      </trkpt>
      <trkpt lat="45.69379" lon="6.69671">
        <ele>1907.81</ele>
        <time>2019-10-14T15:45:07.000Z</time>
      </trkpt>
      <trkpt lat="45.69385" lon="6.69643">
        <ele>1905.02</ele>
        <time>2019-10-14T15:45:12.000Z</time>
      </trkpt>
      <trkpt lat="45.69388" lon="6.69617">
        <ele>1908.47</ele>
        <time>2019-10-14T15:45:17.000Z</time>
      </trkpt>
      <trkpt lat="45.6939" lon="6.69592">
        <ele>1913.03</ele>
        <time>2019-10-14T15:45:22.000Z</time>
      </trkpt>
      <trkpt lat="45.69391" lon="6.69566">
        <ele>1916.28</ele>
        <time>2019-10-14T15:45:27.000Z</time>
      </trkpt>
      <trkpt lat="45.69394" lon="6.69538">
        <ele>1919.01</ele>
        <time>2019-10-14T15:45:32.000Z</time>
      </trkpt>
      <trkpt lat="45.69397" lon="6.69511">
        <ele>1920.18</ele>
        <time>2019-10-14T15:45:37.000Z</time>
      </trkpt>
      <trkpt lat="45.69396" lon="6.69485">
        <ele>1917.39</ele>
        <time>2019-10-14T15:45:42.000Z</time>
      </trkpt>
      <trkpt lat="45.69394" lon="6.69457">
        <ele>1925.62</ele>
        <time>2019-10-14T15:45:47.000Z</time>
      </trkpt>
      <trkpt lat="45.69392" lon="6.69428">
        <ele>1926.1</ele>
        <time>2019-10-14T15:45:52.000Z</time>
      </trkpt>
      <trkpt lat="45.69387" lon="6.69402">
        <ele>1930.54</ele>
        <time>2019-10-14T15:45:57.000Z</time>
      </trkpt>
      <trkpt lat="45.69378" lon="6.69379">
        <ele>1933.87</ele>
        <time>2019-10-14T15:46:02.000Z</time>
      </trkpt>
      <trkpt lat="45.69366" lon="6.69351">
        <ele>1933.04</ele>
        <time>2019-10-14T15:46:07.000Z</time>
      </trkpt>
      <trkpt lat="45.69356" lon="6.69334">
        <ele>1926.51</ele>
        <time>2019-10-14T15:46:12.000Z</time>
      </trkpt>
      <trkpt lat="45.69346" lon="6.69311">
        <ele>1927.24</ele>
        <time>2019-10-14T15:46:17.000Z</time>
      </trkpt>
      <trkpt lat="45.69334" lon="6.69289">
        <ele>1932.1</ele>
        <time>2019-10-14T15:46:22.000Z</time>
      </trkpt>
      <trkpt lat="45.69315" lon="6.69269">
        <ele>1936.68</ele>
        <time>2019-10-14T15:46:27.000Z</time>
      </trkpt>
      <trkpt lat="45.69296" lon="6.6925">
        <ele>1942.03</ele>
        <time>2019-10-14T15:46:32.000Z</time>
      </trkpt>
      <trkpt lat="45.69276" lon="6.6924">
        <ele>1948.73</ele>
        <time>2019-10-14T15:46:37.000Z</time>
      </trkpt>
      <trkpt lat="45.69252" lon="6.69233">
        <ele>1951.22</ele>
        <time>2019-10-14T15:46:42.000Z</time>
      </trkpt>
      <trkpt lat="45.69231" lon="6.69235">
        <ele>1952.07</ele>
        <time>2019-10-14T15:46:47.000Z</time>
      </trkpt>
      <trkpt lat="45.69214" lon="6.69237">
        <ele>1954.87</ele>
        <time>2019-10-14T15:46:52.000Z</time>
      </trkpt>
      <trkpt lat="45.69195" lon="6.69233">
        <ele>1955.86</ele>
        <time>2019-10-14T15:46:57.000Z</time>
      </trkpt>
      <trkpt lat="45.69177" lon="6.69223">
        <ele>1955.98</ele>
        <time>2019-10-14T15:47:02.000Z</time>
      </trkpt>
      <trkpt lat="45.69162" lon="6.69206">
        <ele>1954.73</ele>
        <time>2019-10-14T15:47:07.000Z</time>
      </trkpt>
      <trkpt lat="45.69155" lon="6.69182">
        <ele>1957.47</ele>
        <time>2019-10-14T15:47:12.000Z</time>
      </trkpt>
      <trkpt lat="45.69149" lon="6.69155">
        <ele>1957.17</ele>
        <time>2019-10-14T15:47:17.000Z</time>
      </trkpt>
      <trkpt lat="45.69144" lon="6.69127">
        <ele>1959.2</ele>
        <time>2019-10-14T15:47:22.000Z</time>
      </trkpt>
      <trkpt lat="45.6914" lon="6.69097">
        <ele>1960.27</ele>
        <time>2019-10-14T15:47:27.000Z</time>
      </trkpt>
      <trkpt lat="45.69133" lon="6.69076">
        <ele>1958.5</ele>
        <time>2019-10-14T15:47:32.000Z</time>
      </trkpt>
      <trkpt lat="45.69128" lon="6.69051">
        <ele>1957.58</ele>
        <time>2019-10-14T15:47:37.000Z</time>
      </trkpt>
      <trkpt lat="45.69128" lon="6.69033">
        <ele>1952.32</ele>
        <time>2019-10-14T15:47:42.000Z</time>
      </trkpt>
      <trkpt lat="45.69118" lon="6.69033">
        <ele>1964.22</ele>
        <time>2019-10-14T15:48:47.000Z</time>
      </trkpt>
      <trkpt lat="45.69124" lon="6.69044">
        <ele>1968.8</ele>
        <time>2019-10-14T15:51:24.000Z</time>
      </trkpt>
      <trkpt lat="45.69133" lon="6.6905">
        <ele>1962.83</ele>
        <time>2019-10-14T15:53:16.000Z</time>
      </trkpt>
      <trkpt lat="45.69132" lon="6.69063">
        <ele>1963.59</ele>
        <time>2019-10-14T15:53:25.000Z</time>
      </trkpt>
      <trkpt lat="45.69127" lon="6.69051">
        <ele>1965.15</ele>
        <time>2019-10-14T15:53:48.000Z</time>
      </trkpt>
      <trkpt lat="45.69125" lon="6.69037">
        <ele>1965.74</ele>
        <time>2019-10-14T15:53:53.000Z</time>
      </trkpt>
      <trkpt lat="45.6912" lon="6.69025">
        <ele>1968.32</ele>
        <time>2019-10-14T15:54:38.000Z</time>
      </trkpt>
      <trkpt lat="45.69116" lon="6.69012">
        <ele>1968.96</ele>
        <time>2019-10-14T15:54:45.000Z</time>
      </trkpt>
      <trkpt lat="45.69115" lon="6.69026">
        <ele>1969.96</ele>
        <time>2019-10-14T15:55:10.000Z</time>
      </trkpt>
      <trkpt lat="45.69123" lon="6.69019">
        <ele>1965.39</ele>
        <time>2019-10-14T15:55:51.000Z</time>
      </trkpt>
      <trkpt lat="45.69127" lon="6.69">
        <ele>1962.85</ele>
        <time>2019-10-14T15:55:56.000Z</time>
      </trkpt>
      <trkpt lat="45.69124" lon="6.68977">
        <ele>1964.94</ele>
        <time>2019-10-14T15:56:01.000Z</time>
      </trkpt>
      <trkpt lat="45.69124" lon="6.68964">
        <ele>1963.26</ele>
        <time>2019-10-14T15:56:59.000Z</time>
      </trkpt>
      <trkpt lat="45.69129" lon="6.68938">
        <ele>1962.65</ele>
        <time>2019-10-14T15:57:04.000Z</time>
      </trkpt>
      <trkpt lat="45.69135" lon="6.68906">
        <ele>1963</ele>
        <time>2019-10-14T15:57:09.000Z</time>
      </trkpt>
      <trkpt lat="45.69139" lon="6.68874">
        <ele>1962.2</ele>
        <time>2019-10-14T15:57:14.000Z</time>
      </trkpt>
      <trkpt lat="45.69137" lon="6.68842">
        <ele>1963.01</ele>
        <time>2019-10-14T15:57:19.000Z</time>
      </trkpt>
      <trkpt lat="45.69143" lon="6.68808">
        <ele>1961.92</ele>
        <time>2019-10-14T15:57:24.000Z</time>
      </trkpt>
      <trkpt lat="45.6915" lon="6.68772">
        <ele>1959.5</ele>
        <time>2019-10-14T15:57:29.000Z</time>
      </trkpt>
      <trkpt lat="45.69142" lon="6.68738">
        <ele>1959.21</ele>
        <time>2019-10-14T15:57:34.000Z</time>
      </trkpt>
      <trkpt lat="45.69124" lon="6.68716">
        <ele>1961.52</ele>
        <time>2019-10-14T15:57:39.000Z</time>
      </trkpt>
      <trkpt lat="45.69113" lon="6.68676">
        <ele>1962.06</ele>
        <time>2019-10-14T15:57:44.000Z</time>
      </trkpt>
      <trkpt lat="45.69116" lon="6.68632">
        <ele>1960.2</ele>
        <time>2019-10-14T15:57:49.000Z</time>
      </trkpt>
      <trkpt lat="45.69118" lon="6.6858">
        <ele>1957.28</ele>
        <time>2019-10-14T15:57:54.000Z</time>
      </trkpt>
      <trkpt lat="45.69117" lon="6.68523">
        <ele>1955.84</ele>
        <time>2019-10-14T15:57:59.000Z</time>
      </trkpt>
      <trkpt lat="45.69136" lon="6.68465">
        <ele>1952.25</ele>
        <time>2019-10-14T15:58:04.000Z</time>
      </trkpt>
      <trkpt lat="45.69162" lon="6.68415">
        <ele>1945.9</ele>
        <time>2019-10-14T15:58:09.000Z</time>
      </trkpt>
      <trkpt lat="45.69145" lon="6.68365">
        <ele>1945.28</ele>
        <time>2019-10-14T15:58:14.000Z</time>
      </trkpt>
      <trkpt lat="45.6912" lon="6.68322">
        <ele>1944.31</ele>
        <time>2019-10-14T15:58:19.000Z</time>
      </trkpt>
      <trkpt lat="45.691" lon="6.68271">
        <ele>1939.58</ele>
        <time>2019-10-14T15:58:24.000Z</time>
      </trkpt>
      <trkpt lat="45.6907" lon="6.68228">
        <ele>1934.52</ele>
        <time>2019-10-14T15:58:29.000Z</time>
      </trkpt>
      <trkpt lat="45.69036" lon="6.682">
        <ele>1933.24</ele>
        <time>2019-10-14T15:58:34.000Z</time>
      </trkpt>
      <trkpt lat="45.6901" lon="6.68159">
        <ele>1930.48</ele>
        <time>2019-10-14T15:58:39.000Z</time>
      </trkpt>
      <trkpt lat="45.69008" lon="6.68106">
        <ele>1923.94</ele>
        <time>2019-10-14T15:58:44.000Z</time>
      </trkpt>
      <trkpt lat="45.69017" lon="6.68057">
        <ele>1919.1</ele>
        <time>2019-10-14T15:58:49.000Z</time>
      </trkpt>
      <trkpt lat="45.69039" lon="6.68019">
        <ele>1916.79</ele>
        <time>2019-10-14T15:58:54.000Z</time>
      </trkpt>
      <trkpt lat="45.69069" lon="6.67997">
        <ele>1914.29</ele>
        <time>2019-10-14T15:58:59.000Z</time>
      </trkpt>
      <trkpt lat="45.69103" lon="6.68001">
        <ele>1916.58</ele>
        <time>2019-10-14T15:59:04.000Z</time>
      </trkpt>
      <trkpt lat="45.69138" lon="6.68036">
        <ele>1919.13</ele>
        <time>2019-10-14T15:59:09.000Z</time>
      </trkpt>
      <trkpt lat="45.6918" lon="6.6808">
        <ele>1919.14</ele>
        <time>2019-10-14T15:59:14.000Z</time>
      </trkpt>
      <trkpt lat="45.69221" lon="6.68132">
        <ele>1917.42</ele>
        <time>2019-10-14T15:59:19.000Z</time>
      </trkpt>
      <trkpt lat="45.69257" lon="6.68185">
        <ele>1914.06</ele>
        <time>2019-10-14T15:59:24.000Z</time>
      </trkpt>
      <trkpt lat="45.69302" lon="6.68212">
        <ele>1911.98</ele>
        <time>2019-10-14T15:59:29.000Z</time>
      </trkpt>
      <trkpt lat="45.69345" lon="6.68235">
        <ele>1908.24</ele>
        <time>2019-10-14T15:59:34.000Z</time>
      </trkpt>
      <trkpt lat="45.69389" lon="6.68265">
        <ele>1907.06</ele>
        <time>2019-10-14T15:59:39.000Z</time>
      </trkpt>
      <trkpt lat="45.6942" lon="6.68285">
        <ele>1906.83</ele>
        <time>2019-10-14T15:59:44.000Z</time>
      </trkpt>
      <trkpt lat="45.69425" lon="6.6825">
        <ele>1901.72</ele>
        <time>2019-10-14T15:59:49.000Z</time>
      </trkpt>
      <trkpt lat="45.69401" lon="6.68226">
        <ele>1901.59</ele>
        <time>2019-10-14T15:59:54.000Z</time>
      </trkpt>
      <trkpt lat="45.69368" lon="6.68197">
        <ele>1895.34</ele>
        <time>2019-10-14T15:59:59.000Z</time>
      </trkpt>
      <trkpt lat="45.69335" lon="6.6816">
        <ele>1894.55</ele>
        <time>2019-10-14T16:00:04.000Z</time>
      </trkpt>
      <trkpt lat="45.69325" lon="6.68103">
        <ele>1890.54</ele>
        <time>2019-10-14T16:00:09.000Z</time>
      </trkpt>
      <trkpt lat="45.69315" lon="6.68042">
        <ele>1890.05</ele>
        <time>2019-10-14T16:00:14.000Z</time>
      </trkpt>
      <trkpt lat="45.69297" lon="6.67981">
        <ele>1886.38</ele>
        <time>2019-10-14T16:00:19.000Z</time>
      </trkpt>
      <trkpt lat="45.69263" lon="6.67944">
        <ele>1881.24</ele>
        <time>2019-10-14T16:00:24.000Z</time>
      </trkpt>
      <trkpt lat="45.69217" lon="6.67909">
        <ele>1880.54</ele>
        <time>2019-10-14T16:00:29.000Z</time>
      </trkpt>
      <trkpt lat="45.6919" lon="6.67858">
        <ele>1878.05</ele>
        <time>2019-10-14T16:00:34.000Z</time>
      </trkpt>
      <trkpt lat="45.69181" lon="6.67836">
        <ele>1873.98</ele>
        <time>2019-10-14T16:00:39.000Z</time>
      </trkpt>
      <trkpt lat="45.69184" lon="6.67823">
        <ele>1873.33</ele>
        <time>2019-10-14T16:01:31.000Z</time>
      </trkpt>
      <trkpt lat="45.69168" lon="6.67805">
        <ele>1873.66</ele>
        <time>2019-10-14T16:01:36.000Z</time>
      </trkpt>
      <trkpt lat="45.69143" lon="6.67768">
        <ele>1870.84</ele>
        <time>2019-10-14T16:01:41.000Z</time>
      </trkpt>
      <trkpt lat="45.69117" lon="6.67718">
        <ele>1870.38</ele>
        <time>2019-10-14T16:01:46.000Z</time>
      </trkpt>
      <trkpt lat="45.69108" lon="6.67659">
        <ele>1866.93</ele>
        <time>2019-10-14T16:01:51.000Z</time>
      </trkpt>
      <trkpt lat="45.69093" lon="6.67595">
        <ele>1862.05</ele>
        <time>2019-10-14T16:01:56.000Z</time>
      </trkpt>
      <trkpt lat="45.69087" lon="6.67523">
        <ele>1858.23</ele>
        <time>2019-10-14T16:02:01.000Z</time>
      </trkpt>
      <trkpt lat="45.69094" lon="6.67447">
        <ele>1854.77</ele>
        <time>2019-10-14T16:02:06.000Z</time>
      </trkpt>
      <trkpt lat="45.69111" lon="6.67396">
        <ele>1855.24</ele>
        <time>2019-10-14T16:02:11.000Z</time>
      </trkpt>
      <trkpt lat="45.69117" lon="6.67331">
        <ele>1850.14</ele>
        <time>2019-10-14T16:02:16.000Z</time>
      </trkpt>
      <trkpt lat="45.69154" lon="6.67287">
        <ele>1842.7</ele>
        <time>2019-10-14T16:02:21.000Z</time>
      </trkpt>
      <trkpt lat="45.69188" lon="6.67246">
        <ele>1837.18</ele>
        <time>2019-10-14T16:02:26.000Z</time>
      </trkpt>
      <trkpt lat="45.69217" lon="6.67183">
        <ele>1830.41</ele>
        <time>2019-10-14T16:02:31.000Z</time>
      </trkpt>
      <trkpt lat="45.69248" lon="6.67144">
        <ele>1825.39</ele>
        <time>2019-10-14T16:02:36.000Z</time>
      </trkpt>
      <trkpt lat="45.69257" lon="6.67089">
        <ele>1818.3</ele>
        <time>2019-10-14T16:02:41.000Z</time>
      </trkpt>
      <trkpt lat="45.69279" lon="6.67052">
        <ele>1818.63</ele>
        <time>2019-10-14T16:02:46.000Z</time>
      </trkpt>
      <trkpt lat="45.69295" lon="6.67025">
        <ele>1817.65</ele>
        <time>2019-10-14T16:02:51.000Z</time>
      </trkpt>
      <trkpt lat="45.69305" lon="6.67002">
        <ele>1810.81</ele>
        <time>2019-10-14T16:02:56.000Z</time>
      </trkpt>
      <trkpt lat="45.69308" lon="6.67016">
        <ele>1807.32</ele>
        <time>2019-10-14T16:03:03.000Z</time>
      </trkpt>
      <trkpt lat="45.69307" lon="6.67039">
        <ele>1814.46</ele>
        <time>2019-10-14T16:03:08.000Z</time>
      </trkpt>
      <trkpt lat="45.69312" lon="6.67061">
        <ele>1812.26</ele>
        <time>2019-10-14T16:03:13.000Z</time>
      </trkpt>
      <trkpt lat="45.69315" lon="6.67074">
        <ele>1812.98</ele>
        <time>2019-10-14T16:03:18.000Z</time>
      </trkpt>
      <trkpt lat="45.69316" lon="6.67087">
        <ele>1817.36</ele>
        <time>2019-10-14T16:04:03.000Z</time>
      </trkpt>
      <trkpt lat="45.69311" lon="6.67098">
        <ele>1812.93</ele>
        <time>2019-10-14T16:04:28.000Z</time>
      </trkpt>
      <trkpt lat="45.69316" lon="6.67086">
        <ele>1814.11</ele>
        <time>2019-10-14T16:04:51.000Z</time>
      </trkpt>
      <trkpt lat="45.69322" lon="6.67076">
        <ele>1815.16</ele>
        <time>2019-10-14T16:05:00.000Z</time>
      </trkpt>
      <trkpt lat="45.69313" lon="6.67072">
        <ele>1812.25</ele>
        <time>2019-10-14T16:05:43.000Z</time>
      </trkpt>
      <trkpt lat="45.69316" lon="6.67057">
        <ele>1807.35</ele>
        <time>2019-10-14T16:05:55.000Z</time>
      </trkpt>
      <trkpt lat="45.69313" lon="6.67041">
        <ele>1809.98</ele>
        <time>2019-10-14T16:06:00.000Z</time>
      </trkpt>
      <trkpt lat="45.69307" lon="6.67021">
        <ele>1809.78</ele>
        <time>2019-10-14T16:06:05.000Z</time>
      </trkpt>
      <trkpt lat="45.69306" lon="6.66998">
        <ele>1810.52</ele>
        <time>2019-10-14T16:06:10.000Z</time>
      </trkpt>
      <trkpt lat="45.69305" lon="6.6698">
        <ele>1812.03</ele>
        <time>2019-10-14T16:06:15.000Z</time>
      </trkpt>
      <trkpt lat="45.69313" lon="6.66959">
        <ele>1813.17</ele>
        <time>2019-10-14T16:06:20.000Z</time>
      </trkpt>
      <trkpt lat="45.69319" lon="6.66942">
        <ele>1813.28</ele>
        <time>2019-10-14T16:06:25.000Z</time>
      </trkpt>
      <trkpt lat="45.69319" lon="6.66926">
        <ele>1814.81</ele>
        <time>2019-10-14T16:07:08.000Z</time>
      </trkpt>
      <trkpt lat="45.69325" lon="6.66903">
        <ele>1814.45</ele>
        <time>2019-10-14T16:07:13.000Z</time>
      </trkpt>
      <trkpt lat="45.69334" lon="6.66871">
        <ele>1814.69</ele>
        <time>2019-10-14T16:07:18.000Z</time>
      </trkpt>
      <trkpt lat="45.69342" lon="6.66833">
        <ele>1811.41</ele>
        <time>2019-10-14T16:07:23.000Z</time>
      </trkpt>
      <trkpt lat="45.69355" lon="6.66786">
        <ele>1808.93</ele>
        <time>2019-10-14T16:07:28.000Z</time>
      </trkpt>
      <trkpt lat="45.69355" lon="6.66739">
        <ele>1805.93</ele>
        <time>2019-10-14T16:07:33.000Z</time>
      </trkpt>
      <trkpt lat="45.69352" lon="6.66686">
        <ele>1802.94</ele>
        <time>2019-10-14T16:07:38.000Z</time>
      </trkpt>
      <trkpt lat="45.6936" lon="6.66626">
        <ele>1800.02</ele>
        <time>2019-10-14T16:07:43.000Z</time>
      </trkpt>
      <trkpt lat="45.69377" lon="6.66572">
        <ele>1800.51</ele>
        <time>2019-10-14T16:07:48.000Z</time>
      </trkpt>
      <trkpt lat="45.69408" lon="6.66529">
        <ele>1802.95</ele>
        <time>2019-10-14T16:07:53.000Z</time>
      </trkpt>
      <trkpt lat="45.6945" lon="6.66496">
        <ele>1800.07</ele>
        <time>2019-10-14T16:07:58.000Z</time>
      </trkpt>
      <trkpt lat="45.69504" lon="6.66493">
        <ele>1795.57</ele>
        <time>2019-10-14T16:08:03.000Z</time>
      </trkpt>
      <trkpt lat="45.69543" lon="6.66521">
        <ele>1795.73</ele>
        <time>2019-10-14T16:08:08.000Z</time>
      </trkpt>
      <trkpt lat="45.69573" lon="6.66493">
        <ele>1795.96</ele>
        <time>2019-10-14T16:08:13.000Z</time>
      </trkpt>
      <trkpt lat="45.696" lon="6.6643">
        <ele>1792.24</ele>
        <time>2019-10-14T16:08:18.000Z</time>
      </trkpt>
      <trkpt lat="45.69631" lon="6.6638">
        <ele>1782.21</ele>
        <time>2019-10-14T16:08:23.000Z</time>
      </trkpt>
      <trkpt lat="45.69633" lon="6.66317">
        <ele>1779.26</ele>
        <time>2019-10-14T16:08:28.000Z</time>
      </trkpt>
      <trkpt lat="45.69628" lon="6.66269">
        <ele>1777.64</ele>
        <time>2019-10-14T16:08:33.000Z</time>
      </trkpt>
      <trkpt lat="45.6962" lon="6.66225">
        <ele>1775.31</ele>
        <time>2019-10-14T16:08:38.000Z</time>
      </trkpt>
      <trkpt lat="45.69607" lon="6.66183">
        <ele>1769.96</ele>
        <time>2019-10-14T16:08:43.000Z</time>
      </trkpt>
      <trkpt lat="45.69592" lon="6.66149">
        <ele>1768.24</ele>
        <time>2019-10-14T16:08:48.000Z</time>
      </trkpt>
      <trkpt lat="45.69592" lon="6.66134">
        <ele>1772.47</ele>
        <time>2019-10-14T16:10:30.000Z</time>
      </trkpt>
      <trkpt lat="45.69577" lon="6.66112">
        <ele>1772.73</ele>
        <time>2019-10-14T16:10:35.000Z</time>
      </trkpt>
      <trkpt lat="45.6956" lon="6.66079">
        <ele>1770.94</ele>
        <time>2019-10-14T16:10:40.000Z</time>
      </trkpt>
      <trkpt lat="45.69539" lon="6.66042">
        <ele>1766.24</ele>
        <time>2019-10-14T16:10:45.000Z</time>
      </trkpt>
      <trkpt lat="45.6951" lon="6.6601">
        <ele>1760.87</ele>
        <time>2019-10-14T16:10:50.000Z</time>
      </trkpt>
      <trkpt lat="45.69471" lon="6.65979">
        <ele>1754.16</ele>
        <time>2019-10-14T16:10:55.000Z</time>
      </trkpt>
      <trkpt lat="45.6943" lon="6.65939">
        <ele>1749.44</ele>
        <time>2019-10-14T16:11:00.000Z</time>
      </trkpt>
      <trkpt lat="45.69395" lon="6.65889">
        <ele>1746.18</ele>
        <time>2019-10-14T16:11:05.000Z</time>
      </trkpt>
      <trkpt lat="45.69362" lon="6.65835">
        <ele>1738.64</ele>
        <time>2019-10-14T16:11:10.000Z</time>
      </trkpt>
      <trkpt lat="45.69319" lon="6.65789">
        <ele>1730.69</ele>
        <time>2019-10-14T16:11:15.000Z</time>
      </trkpt>
      <trkpt lat="45.69287" lon="6.65717">
        <ele>1726.85</ele>
        <time>2019-10-14T16:11:20.000Z</time>
      </trkpt>
      <trkpt lat="45.69244" lon="6.6564">
        <ele>1724.8</ele>
        <time>2019-10-14T16:11:25.000Z</time>
      </trkpt>
      <trkpt lat="45.69206" lon="6.65558">
        <ele>1719.76</ele>
        <time>2019-10-14T16:11:30.000Z</time>
      </trkpt>
      <trkpt lat="45.69185" lon="6.65491">
        <ele>1716.19</ele>
        <time>2019-10-14T16:11:35.000Z</time>
      </trkpt>
      <trkpt lat="45.69161" lon="6.6545">
        <ele>1709.68</ele>
        <time>2019-10-14T16:11:40.000Z</time>
      </trkpt>
      <trkpt lat="45.69129" lon="6.65399">
        <ele>1707.12</ele>
        <time>2019-10-14T16:11:45.000Z</time>
      </trkpt>
      <trkpt lat="45.69111" lon="6.65367">
        <ele>1701.41</ele>
        <time>2019-10-14T16:11:50.000Z</time>
      </trkpt>
      <trkpt lat="45.69128" lon="6.65375">
        <ele>1698.42</ele>
        <time>2019-10-14T16:11:55.000Z</time>
      </trkpt>
      <trkpt lat="45.69135" lon="6.65385">
        <ele>1699.2</ele>
        <time>2019-10-14T16:12:00.000Z</time>
      </trkpt>
      <trkpt lat="45.69126" lon="6.65379">
        <ele>1696.6</ele>
        <time>2019-10-14T16:12:07.000Z</time>
      </trkpt>
      <trkpt lat="45.69119" lon="6.65371">
        <ele>1695.59</ele>
        <time>2019-10-14T16:12:13.000Z</time>
      </trkpt>
      <trkpt lat="45.69116" lon="6.65358">
        <ele>1692.94</ele>
        <time>2019-10-14T16:12:27.000Z</time>
      </trkpt>
      <trkpt lat="45.69124" lon="6.65355">
        <ele>1696.59</ele>
        <time>2019-10-14T16:13:33.000Z</time>
      </trkpt>
      <trkpt lat="45.69131" lon="6.65367">
        <ele>1693.09</ele>
        <time>2019-10-14T16:14:33.000Z</time>
      </trkpt>
      <trkpt lat="45.69143" lon="6.6539">
        <ele>1691.21</ele>
        <time>2019-10-14T16:14:38.000Z</time>
      </trkpt>
      <trkpt lat="45.69163" lon="6.65415">
        <ele>1690.1</ele>
        <time>2019-10-14T16:14:43.000Z</time>
      </trkpt>
      <trkpt lat="45.69189" lon="6.65443">
        <ele>1688.84</ele>
        <time>2019-10-14T16:14:48.000Z</time>
      </trkpt>
      <trkpt lat="45.69211" lon="6.65474">
        <ele>1686.7</ele>
        <time>2019-10-14T16:14:53.000Z</time>
      </trkpt>
      <trkpt lat="45.69236" lon="6.65514">
        <ele>1685.97</ele>
        <time>2019-10-14T16:14:58.000Z</time>
      </trkpt>
      <trkpt lat="45.69266" lon="6.65554">
        <ele>1684.53</ele>
        <time>2019-10-14T16:15:03.000Z</time>
      </trkpt>
      <trkpt lat="45.69302" lon="6.65591">
        <ele>1680.76</ele>
        <time>2019-10-14T16:15:08.000Z</time>
      </trkpt>
      <trkpt lat="45.69341" lon="6.65635">
        <ele>1675.01</ele>
        <time>2019-10-14T16:15:13.000Z</time>
      </trkpt>
      <trkpt lat="45.69381" lon="6.65678">
        <ele>1676.58</ele>
        <time>2019-10-14T16:15:18.000Z</time>
      </trkpt>
      <trkpt lat="45.69404" lon="6.65727">
        <ele>1670.87</ele>
        <time>2019-10-14T16:15:23.000Z</time>
      </trkpt>
      <trkpt lat="45.6944" lon="6.6577">
        <ele>1667.12</ele>
        <time>2019-10-14T16:15:28.000Z</time>
      </trkpt>
      <trkpt lat="45.69493" lon="6.65781">
        <ele>1666.81</ele>
        <time>2019-10-14T16:15:33.000Z</time>
      </trkpt>
      <trkpt lat="45.69552" lon="6.65788">
        <ele>1665.16</ele>
        <time>2019-10-14T16:15:38.000Z</time>
      </trkpt>
      <trkpt lat="45.69592" lon="6.65777">
        <ele>1657.51</ele>
        <time>2019-10-14T16:15:43.000Z</time>
      </trkpt>
      <trkpt lat="45.69608" lon="6.65718">
        <ele>1652.71</ele>
        <time>2019-10-14T16:15:48.000Z</time>
      </trkpt>
      <trkpt lat="45.69571" lon="6.65673">
        <ele>1644.18</ele>
        <time>2019-10-14T16:15:53.000Z</time>
      </trkpt>
      <trkpt lat="45.6952" lon="6.65674">
        <ele>1640.31</ele>
        <time>2019-10-14T16:15:58.000Z</time>
      </trkpt>
      <trkpt lat="45.69473" lon="6.65671">
        <ele>1635.78</ele>
        <time>2019-10-14T16:16:03.000Z</time>
      </trkpt>
      <trkpt lat="45.69444" lon="6.65617">
        <ele>1629.34</ele>
        <time>2019-10-14T16:16:08.000Z</time>
      </trkpt>
      <trkpt lat="45.6946" lon="6.65553">
        <ele>1622.22</ele>
        <time>2019-10-14T16:16:13.000Z</time>
      </trkpt>
      <trkpt lat="45.69515" lon="6.65544">
        <ele>1626.59</ele>
        <time>2019-10-14T16:16:18.000Z</time>
      </trkpt>
      <trkpt lat="45.6957" lon="6.65571">
        <ele>1621.36</ele>
        <time>2019-10-14T16:16:23.000Z</time>
      </trkpt>
      <trkpt lat="45.69629" lon="6.65598">
        <ele>1616.65</ele>
        <time>2019-10-14T16:16:28.000Z</time>
      </trkpt>
      <trkpt lat="45.69688" lon="6.65624">
        <ele>1614.23</ele>
        <time>2019-10-14T16:16:33.000Z</time>
      </trkpt>
      <trkpt lat="45.6975" lon="6.65643">
        <ele>1607.67</ele>
        <time>2019-10-14T16:16:38.000Z</time>
      </trkpt>
      <trkpt lat="45.69803" lon="6.65625">
        <ele>1602.34</ele>
        <time>2019-10-14T16:16:43.000Z</time>
      </trkpt>
      <trkpt lat="45.69851" lon="6.65571">
        <ele>1599.5</ele>
        <time>2019-10-14T16:16:48.000Z</time>
      </trkpt>
      <trkpt lat="45.69902" lon="6.6553">
        <ele>1596.14</ele>
        <time>2019-10-14T16:16:53.000Z</time>
      </trkpt>
      <trkpt lat="45.69958" lon="6.65506">
        <ele>1595.49</ele>
        <time>2019-10-14T16:16:58.000Z</time>
      </trkpt>
      <trkpt lat="45.69979" lon="6.65446">
        <ele>1593.94</ele>
        <time>2019-10-14T16:17:03.000Z</time>
      </trkpt>
      <trkpt lat="45.69997" lon="6.65394">
        <ele>1594.94</ele>
        <time>2019-10-14T16:17:08.000Z</time>
      </trkpt>
      <trkpt lat="45.70017" lon="6.65352">
        <ele>1590.52</ele>
        <time>2019-10-14T16:17:13.000Z</time>
      </trkpt>
      <trkpt lat="45.7004" lon="6.65308">
        <ele>1593.05</ele>
        <time>2019-10-14T16:17:18.000Z</time>
      </trkpt>
      <trkpt lat="45.70041" lon="6.6526">
        <ele>1591.16</ele>
        <time>2019-10-14T16:17:23.000Z</time>
      </trkpt>
      <trkpt lat="45.70036" lon="6.65211">
        <ele>1593.94</ele>
        <time>2019-10-14T16:17:28.000Z</time>
      </trkpt>
      <trkpt lat="45.70041" lon="6.65166">
        <ele>1589.67</ele>
        <time>2019-10-14T16:17:33.000Z</time>
      </trkpt>
      <trkpt lat="45.70043" lon="6.65136">
        <ele>1587.03</ele>
        <time>2019-10-14T16:17:38.000Z</time>
      </trkpt>
      <trkpt lat="45.70039" lon="6.65104">
        <ele>1585.23</ele>
        <time>2019-10-14T16:17:43.000Z</time>
      </trkpt>
      <trkpt lat="45.70034" lon="6.65074">
        <ele>1586.19</ele>
        <time>2019-10-14T16:17:48.000Z</time>
      </trkpt>
      <trkpt lat="45.70023" lon="6.65052">
        <ele>1591.47</ele>
        <time>2019-10-14T16:17:53.000Z</time>
      </trkpt>
      <trkpt lat="45.70023" lon="6.65033">
        <ele>1598.36</ele>
        <time>2019-10-14T16:17:58.000Z</time>
      </trkpt>
      <trkpt lat="45.70029" lon="6.6502">
        <ele>1602.03</ele>
        <time>2019-10-14T16:18:43.000Z</time>
      </trkpt>
      <trkpt lat="45.70045" lon="6.65003">
        <ele>1604.09</ele>
        <time>2019-10-14T16:18:48.000Z</time>
      </trkpt>
      <trkpt lat="45.70069" lon="6.64989">
        <ele>1609.56</ele>
        <time>2019-10-14T16:18:53.000Z</time>
      </trkpt>
      <trkpt lat="45.70088" lon="6.64968">
        <ele>1608.59</ele>
        <time>2019-10-14T16:18:58.000Z</time>
      </trkpt>
      <trkpt lat="45.70104" lon="6.64938">
        <ele>1606.19</ele>
        <time>2019-10-14T16:19:03.000Z</time>
      </trkpt>
      <trkpt lat="45.70112" lon="6.64903">
        <ele>1603.43</ele>
        <time>2019-10-14T16:19:08.000Z</time>
      </trkpt>
      <trkpt lat="45.70112" lon="6.64868">
        <ele>1601.61</ele>
        <time>2019-10-14T16:19:13.000Z</time>
      </trkpt>
      <trkpt lat="45.70099" lon="6.64832">
        <ele>1604.27</ele>
        <time>2019-10-14T16:19:18.000Z</time>
      </trkpt>
      <trkpt lat="45.7008" lon="6.64804">
        <ele>1608.43</ele>
        <time>2019-10-14T16:19:23.000Z</time>
      </trkpt>
      <trkpt lat="45.70062" lon="6.64774">
        <ele>1605.73</ele>
        <time>2019-10-14T16:19:28.000Z</time>
      </trkpt>
      <trkpt lat="45.70041" lon="6.64741">
        <ele>1609.14</ele>
        <time>2019-10-14T16:19:33.000Z</time>
      </trkpt>
      <trkpt lat="45.70032" lon="6.64701">
        <ele>1610.65</ele>
        <time>2019-10-14T16:19:38.000Z</time>
      </trkpt>
      <trkpt lat="45.7001" lon="6.64677">
        <ele>1614.41</ele>
        <time>2019-10-14T16:19:43.000Z</time>
      </trkpt>
      <trkpt lat="45.69996" lon="6.64632">
        <ele>1613</ele>
        <time>2019-10-14T16:19:48.000Z</time>
      </trkpt>
      <trkpt lat="45.69979" lon="6.64596">
        <ele>1613.86</ele>
        <time>2019-10-14T16:19:53.000Z</time>
      </trkpt>
      <trkpt lat="45.69987" lon="6.64552">
        <ele>1613</ele>
        <time>2019-10-14T16:19:58.000Z</time>
      </trkpt>
      <trkpt lat="45.70007" lon="6.64528">
        <ele>1614.94</ele>
        <time>2019-10-14T16:20:03.000Z</time>
      </trkpt>
      <trkpt lat="45.70038" lon="6.64508">
        <ele>1612.07</ele>
        <time>2019-10-14T16:20:08.000Z</time>
      </trkpt>
      <trkpt lat="45.70067" lon="6.64474">
        <ele>1614.14</ele>
        <time>2019-10-14T16:20:13.000Z</time>
      </trkpt>
      <trkpt lat="45.70078" lon="6.64409">
        <ele>1613.86</ele>
        <time>2019-10-14T16:20:18.000Z</time>
      </trkpt>
      <trkpt lat="45.70067" lon="6.64365">
        <ele>1611.65</ele>
        <time>2019-10-14T16:20:23.000Z</time>
      </trkpt>
      <trkpt lat="45.70052" lon="6.64331">
        <ele>1612.22</ele>
        <time>2019-10-14T16:20:28.000Z</time>
      </trkpt>
      <trkpt lat="45.70046" lon="6.64287">
        <ele>1606.2</ele>
        <time>2019-10-14T16:20:33.000Z</time>
      </trkpt>
      <trkpt lat="45.70036" lon="6.64242">
        <ele>1608.67</ele>
        <time>2019-10-14T16:20:38.000Z</time>
      </trkpt>
      <trkpt lat="45.70021" lon="6.64198">
        <ele>1611.18</ele>
        <time>2019-10-14T16:20:43.000Z</time>
      </trkpt>
      <trkpt lat="45.70006" lon="6.64152">
        <ele>1609.64</ele>
        <time>2019-10-14T16:20:48.000Z</time>
      </trkpt>
      <trkpt lat="45.6999" lon="6.64104">
        <ele>1608.93</ele>
        <time>2019-10-14T16:20:53.000Z</time>
      </trkpt>
      <trkpt lat="45.69966" lon="6.6406">
        <ele>1605.15</ele>
        <time>2019-10-14T16:20:58.000Z</time>
      </trkpt>
      <trkpt lat="45.69942" lon="6.6402">
        <ele>1608.65</ele>
        <time>2019-10-14T16:21:03.000Z</time>
      </trkpt>
      <trkpt lat="45.69912" lon="6.63988">
        <ele>1608.2</ele>
        <time>2019-10-14T16:21:08.000Z</time>
      </trkpt>
      <trkpt lat="45.6988" lon="6.6396">
        <ele>1613.85</ele>
        <time>2019-10-14T16:21:13.000Z</time>
      </trkpt>
      <trkpt lat="45.69849" lon="6.63927">
        <ele>1615.92</ele>
        <time>2019-10-14T16:21:18.000Z</time>
      </trkpt>
      <trkpt lat="45.6983" lon="6.63882">
        <ele>1613.66</ele>
        <time>2019-10-14T16:21:23.000Z</time>
      </trkpt>
      <trkpt lat="45.69805" lon="6.63845">
        <ele>1612.45</ele>
        <time>2019-10-14T16:21:28.000Z</time>
      </trkpt>
      <trkpt lat="45.69772" lon="6.63818">
        <ele>1614.39</ele>
        <time>2019-10-14T16:21:33.000Z</time>
      </trkpt>
      <trkpt lat="45.69736" lon="6.63798">
        <ele>1615.83</ele>
        <time>2019-10-14T16:21:38.000Z</time>
      </trkpt>
      <trkpt lat="45.69701" lon="6.63772">
        <ele>1614.18</ele>
        <time>2019-10-14T16:21:43.000Z</time>
      </trkpt>
      <trkpt lat="45.69676" lon="6.63744">
        <ele>1611.03</ele>
        <time>2019-10-14T16:21:48.000Z</time>
      </trkpt>
      <trkpt lat="45.69669" lon="6.63728">
        <ele>1608.6</ele>
        <time>2019-10-14T16:21:53.000Z</time>
      </trkpt>
      <trkpt lat="45.69661" lon="6.63734">
        <ele>1611.74</ele>
        <time>2019-10-14T16:22:07.000Z</time>
      </trkpt>
      <trkpt lat="45.69663" lon="6.6372">
        <ele>1611.42</ele>
        <time>2019-10-14T16:25:01.000Z</time>
      </trkpt>
      <trkpt lat="45.69654" lon="6.63697">
        <ele>1609.3</ele>
        <time>2019-10-14T16:25:06.000Z</time>
      </trkpt>
      <trkpt lat="45.69639" lon="6.63671">
        <ele>1607.22</ele>
        <time>2019-10-14T16:25:11.000Z</time>
      </trkpt>
      <trkpt lat="45.69618" lon="6.6365">
        <ele>1607.76</ele>
        <time>2019-10-14T16:25:16.000Z</time>
      </trkpt>
      <trkpt lat="45.69596" lon="6.63623">
        <ele>1607</ele>
        <time>2019-10-14T16:25:21.000Z</time>
      </trkpt>
      <trkpt lat="45.69575" lon="6.63598">
        <ele>1607.12</ele>
        <time>2019-10-14T16:25:26.000Z</time>
      </trkpt>
      <trkpt lat="45.69563" lon="6.63566">
        <ele>1607.3</ele>
        <time>2019-10-14T16:25:31.000Z</time>
      </trkpt>
      <trkpt lat="45.69553" lon="6.63536">
        <ele>1607.54</ele>
        <time>2019-10-14T16:25:36.000Z</time>
      </trkpt>
      <trkpt lat="45.6953" lon="6.6352">
        <ele>1612.58</ele>
        <time>2019-10-14T16:25:41.000Z</time>
      </trkpt>
      <trkpt lat="45.69514" lon="6.63499">
        <ele>1615.91</ele>
        <time>2019-10-14T16:25:46.000Z</time>
      </trkpt>
      <trkpt lat="45.69505" lon="6.63494">
        <ele>1612.51</ele>
        <time>2019-10-14T16:25:52.000Z</time>
      </trkpt>
      <trkpt lat="45.69505" lon="6.63478">
        <ele>1609.97</ele>
        <time>2019-10-14T16:28:29.000Z</time>
      </trkpt>
      <trkpt lat="45.69503" lon="6.63455">
        <ele>1611.92</ele>
        <time>2019-10-14T16:28:34.000Z</time>
      </trkpt>
      <trkpt lat="45.69501" lon="6.63438">
        <ele>1610.87</ele>
        <time>2019-10-14T16:28:39.000Z</time>
      </trkpt>
      <trkpt lat="45.69501" lon="6.63421">
        <ele>1613.92</ele>
        <time>2019-10-14T16:28:44.000Z</time>
      </trkpt>
      <trkpt lat="45.69498" lon="6.63397">
        <ele>1614.81</ele>
        <time>2019-10-14T16:28:49.000Z</time>
      </trkpt>
      <trkpt lat="45.69498" lon="6.63373">
        <ele>1613.67</ele>
        <time>2019-10-14T16:28:54.000Z</time>
      </trkpt>
      <trkpt lat="45.69484" lon="6.63347">
        <ele>1614.39</ele>
        <time>2019-10-14T16:28:59.000Z</time>
      </trkpt>
      <trkpt lat="45.69462" lon="6.63322">
        <ele>1613.03</ele>
        <time>2019-10-14T16:29:04.000Z</time>
      </trkpt>
      <trkpt lat="45.69433" lon="6.63286">
        <ele>1612.01</ele>
        <time>2019-10-14T16:29:09.000Z</time>
      </trkpt>
      <trkpt lat="45.69413" lon="6.63217">
        <ele>1608.51</ele>
        <time>2019-10-14T16:29:14.000Z</time>
      </trkpt>
      <trkpt lat="45.69411" lon="6.63169">
        <ele>1607.11</ele>
        <time>2019-10-14T16:29:19.000Z</time>
      </trkpt>
      <trkpt lat="45.69387" lon="6.6313">
        <ele>1605.84</ele>
        <time>2019-10-14T16:29:24.000Z</time>
      </trkpt>
      <trkpt lat="45.69361" lon="6.6312">
        <ele>1603.46</ele>
        <time>2019-10-14T16:29:29.000Z</time>
      </trkpt>
      <trkpt lat="45.69321" lon="6.63086">
        <ele>1597.11</ele>
        <time>2019-10-14T16:29:34.000Z</time>
      </trkpt>
      <trkpt lat="45.69274" lon="6.63062">
        <ele>1591.57</ele>
        <time>2019-10-14T16:29:39.000Z</time>
      </trkpt>
      <trkpt lat="45.69216" lon="6.63041">
        <ele>1590.68</ele>
        <time>2019-10-14T16:29:44.000Z</time>
      </trkpt>
      <trkpt lat="45.69165" lon="6.62996">
        <ele>1588.21</ele>
        <time>2019-10-14T16:29:49.000Z</time>
      </trkpt>
      <trkpt lat="45.69138" lon="6.62948">
        <ele>1585.31</ele>
        <time>2019-10-14T16:29:54.000Z</time>
      </trkpt>
      <trkpt lat="45.69097" lon="6.6292">
        <ele>1588.19</ele>
        <time>2019-10-14T16:29:59.000Z</time>
      </trkpt>
      <trkpt lat="45.6906" lon="6.6288">
        <ele>1586.11</ele>
        <time>2019-10-14T16:30:04.000Z</time>
      </trkpt>
      <trkpt lat="45.69013" lon="6.62865">
        <ele>1587.71</ele>
        <time>2019-10-14T16:30:09.000Z</time>
      </trkpt>
      <trkpt lat="45.68989" lon="6.62819">
        <ele>1584.52</ele>
        <time>2019-10-14T16:30:14.000Z</time>
      </trkpt>
      <trkpt lat="45.68956" lon="6.62781">
        <ele>1583.29</ele>
        <time>2019-10-14T16:30:19.000Z</time>
      </trkpt>
      <trkpt lat="45.68925" lon="6.62752">
        <ele>1583.42</ele>
        <time>2019-10-14T16:30:24.000Z</time>
      </trkpt>
      <trkpt lat="45.68905" lon="6.62704">
        <ele>1581.41</ele>
        <time>2019-10-14T16:30:29.000Z</time>
      </trkpt>
      <trkpt lat="45.68886" lon="6.62658">
        <ele>1578.55</ele>
        <time>2019-10-14T16:30:34.000Z</time>
      </trkpt>
      <trkpt lat="45.68866" lon="6.62629">
        <ele>1578.92</ele>
        <time>2019-10-14T16:30:39.000Z</time>
      </trkpt>
      <trkpt lat="45.68846" lon="6.62601">
        <ele>1581.25</ele>
        <time>2019-10-14T16:30:44.000Z</time>
      </trkpt>
      <trkpt lat="45.68837" lon="6.62571">
        <ele>1574.94</ele>
        <time>2019-10-14T16:30:49.000Z</time>
      </trkpt>
      <trkpt lat="45.68828" lon="6.62547">
        <ele>1572.49</ele>
        <time>2019-10-14T16:30:54.000Z</time>
      </trkpt>
      <trkpt lat="45.68796" lon="6.62519">
        <ele>1573.87</ele>
        <time>2019-10-14T16:30:59.000Z</time>
      </trkpt>
      <trkpt lat="45.68772" lon="6.62477">
        <ele>1573.62</ele>
        <time>2019-10-14T16:31:04.000Z</time>
      </trkpt>
      <trkpt lat="45.68755" lon="6.62448">
        <ele>1569.17</ele>
        <time>2019-10-14T16:31:09.000Z</time>
      </trkpt>
      <trkpt lat="45.68729" lon="6.62435">
        <ele>1566.79</ele>
        <time>2019-10-14T16:31:14.000Z</time>
      </trkpt>
      <trkpt lat="45.68699" lon="6.62419">
        <ele>1566.61</ele>
        <time>2019-10-14T16:31:19.000Z</time>
      </trkpt>
      <trkpt lat="45.68684" lon="6.6241">
        <ele>1564.4</ele>
        <time>2019-10-14T16:31:24.000Z</time>
      </trkpt>
      <trkpt lat="45.68672" lon="6.62402">
        <ele>1557.54</ele>
        <time>2019-10-14T16:35:18.000Z</time>
      </trkpt>
      <trkpt lat="45.68656" lon="6.62388">
        <ele>1557.89</ele>
        <time>2019-10-14T16:35:23.000Z</time>
      </trkpt>
      <trkpt lat="45.68636" lon="6.62371">
        <ele>1559.38</ele>
        <time>2019-10-14T16:35:28.000Z</time>
      </trkpt>
      <trkpt lat="45.68619" lon="6.62353">
        <ele>1557.79</ele>
        <time>2019-10-14T16:35:33.000Z</time>
      </trkpt>
      <trkpt lat="45.68597" lon="6.62325">
        <ele>1557.65</ele>
        <time>2019-10-14T16:35:38.000Z</time>
      </trkpt>
      <trkpt lat="45.68574" lon="6.62294">
        <ele>1559.48</ele>
        <time>2019-10-14T16:35:43.000Z</time>
      </trkpt>
      <trkpt lat="45.6855" lon="6.62258">
        <ele>1558.97</ele>
        <time>2019-10-14T16:35:48.000Z</time>
      </trkpt>
      <trkpt lat="45.68528" lon="6.62223">
        <ele>1562.38</ele>
        <time>2019-10-14T16:35:53.000Z</time>
      </trkpt>
      <trkpt lat="45.68506" lon="6.62183">
        <ele>1562.48</ele>
        <time>2019-10-14T16:35:58.000Z</time>
      </trkpt>
      <trkpt lat="45.68486" lon="6.6214">
        <ele>1565.69</ele>
        <time>2019-10-14T16:36:03.000Z</time>
      </trkpt>
      <trkpt lat="45.68467" lon="6.62096">
        <ele>1567.31</ele>
        <time>2019-10-14T16:36:08.000Z</time>
      </trkpt>
      <trkpt lat="45.68449" lon="6.62058">
        <ele>1565.15</ele>
        <time>2019-10-14T16:36:13.000Z</time>
      </trkpt>
      <trkpt lat="45.68427" lon="6.62015">
        <ele>1563.85</ele>
        <time>2019-10-14T16:36:18.000Z</time>
      </trkpt>
      <trkpt lat="45.68411" lon="6.61972">
        <ele>1563.03</ele>
        <time>2019-10-14T16:36:23.000Z</time>
      </trkpt>
      <trkpt lat="45.68391" lon="6.6193">
        <ele>1563.61</ele>
        <time>2019-10-14T16:36:28.000Z</time>
      </trkpt>
      <trkpt lat="45.68373" lon="6.61888">
        <ele>1565.18</ele>
        <time>2019-10-14T16:36:33.000Z</time>
      </trkpt>
      <trkpt lat="45.68355" lon="6.61844">
        <ele>1562.61</ele>
        <time>2019-10-14T16:36:38.000Z</time>
      </trkpt>
      <trkpt lat="45.68333" lon="6.618">
        <ele>1562.52</ele>
        <time>2019-10-14T16:36:43.000Z</time>
      </trkpt>
      <trkpt lat="45.68313" lon="6.61765">
        <ele>1561.46</ele>
        <time>2019-10-14T16:36:48.000Z</time>
      </trkpt>
      <trkpt lat="45.6829" lon="6.6172">
        <ele>1560.34</ele>
        <time>2019-10-14T16:36:53.000Z</time>
      </trkpt>
      <trkpt lat="45.68269" lon="6.61686">
        <ele>1559.36</ele>
        <time>2019-10-14T16:36:58.000Z</time>
      </trkpt>
      <trkpt lat="45.6825" lon="6.61663">
        <ele>1560.62</ele>
        <time>2019-10-14T16:37:03.000Z</time>
      </trkpt>
      <trkpt lat="45.68227" lon="6.61644">
        <ele>1564</ele>
        <time>2019-10-14T16:37:08.000Z</time>
      </trkpt>
      <trkpt lat="45.68211" lon="6.61633">
        <ele>1564.64</ele>
        <time>2019-10-14T16:37:13.000Z</time>
      </trkpt>
      <trkpt lat="45.68195" lon="6.61615">
        <ele>1566.07</ele>
        <time>2019-10-14T16:37:18.000Z</time>
      </trkpt>
      <trkpt lat="45.68178" lon="6.61597">
        <ele>1567.54</ele>
        <time>2019-10-14T16:37:23.000Z</time>
      </trkpt>
      <trkpt lat="45.68162" lon="6.61581">
        <ele>1566.68</ele>
        <time>2019-10-14T16:37:28.000Z</time>
      </trkpt>
      <trkpt lat="45.68144" lon="6.61568">
        <ele>1566.55</ele>
        <time>2019-10-14T16:37:33.000Z</time>
      </trkpt>
      <trkpt lat="45.68127" lon="6.61562">
        <ele>1568.88</ele>
        <time>2019-10-14T16:37:38.000Z</time>
      </trkpt>
      <trkpt lat="45.68135" lon="6.6157">
        <ele>1578.06</ele>
        <time>2019-10-14T16:38:39.000Z</time>
      </trkpt>
      <trkpt lat="45.68143" lon="6.61578">
        <ele>1576.09</ele>
        <time>2019-10-14T16:38:45.000Z</time>
      </trkpt>
      <trkpt lat="45.6815" lon="6.61585">
        <ele>1576.33</ele>
        <time>2019-10-14T16:38:51.000Z</time>
      </trkpt>
      <trkpt lat="45.68159" lon="6.6159">
        <ele>1574.76</ele>
        <time>2019-10-14T16:38:56.000Z</time>
      </trkpt>
      <trkpt lat="45.68168" lon="6.61596">
        <ele>1576.29</ele>
        <time>2019-10-14T16:39:01.000Z</time>
      </trkpt>
      <trkpt lat="45.68175" lon="6.61604">
        <ele>1572.82</ele>
        <time>2019-10-14T16:39:07.000Z</time>
      </trkpt>
      <trkpt lat="45.68183" lon="6.6161">
        <ele>1573.65</ele>
        <time>2019-10-14T16:39:12.000Z</time>
      </trkpt>
      <trkpt lat="45.68187" lon="6.61623">
        <ele>1570.88</ele>
        <time>2019-10-14T16:39:21.000Z</time>
      </trkpt>
      <trkpt lat="45.68178" lon="6.61616">
        <ele>1572.49</ele>
        <time>2019-10-14T16:39:45.000Z</time>
      </trkpt>
      <trkpt lat="45.68172" lon="6.61607">
        <ele>1566.35</ele>
        <time>2019-10-14T16:39:51.000Z</time>
      </trkpt>
      <trkpt lat="45.68163" lon="6.616">
        <ele>1567.79</ele>
        <time>2019-10-14T16:39:58.000Z</time>
      </trkpt>
      <trkpt lat="45.68157" lon="6.6159">
        <ele>1565.44</ele>
        <time>2019-10-14T16:40:04.000Z</time>
      </trkpt>
      <trkpt lat="45.6815" lon="6.61582">
        <ele>1562.55</ele>
        <time>2019-10-14T16:40:11.000Z</time>
      </trkpt>
      <trkpt lat="45.68142" lon="6.61574">
        <ele>1560.9</ele>
        <time>2019-10-14T16:40:20.000Z</time>
      </trkpt>
      <trkpt lat="45.68136" lon="6.61562">
        <ele>1565.89</ele>
        <time>2019-10-14T16:40:30.000Z</time>
      </trkpt>
      <trkpt lat="45.68126" lon="6.61552">
        <ele>1568.79</ele>
        <time>2019-10-14T16:41:02.000Z</time>
      </trkpt>
      <trkpt lat="45.68105" lon="6.61542">
        <ele>1569.33</ele>
        <time>2019-10-14T16:41:07.000Z</time>
      </trkpt>
      <trkpt lat="45.68088" lon="6.61533">
        <ele>1567.77</ele>
        <time>2019-10-14T16:41:12.000Z</time>
      </trkpt>
      <trkpt lat="45.68072" lon="6.61525">
        <ele>1571.26</ele>
        <time>2019-10-14T16:41:17.000Z</time>
      </trkpt>
      <trkpt lat="45.6806" lon="6.61508">
        <ele>1571.79</ele>
        <time>2019-10-14T16:41:22.000Z</time>
      </trkpt>
      <trkpt lat="45.68072" lon="6.61502">
        <ele>1571.46</ele>
        <time>2019-10-14T16:41:27.000Z</time>
      </trkpt>
      <trkpt lat="45.68105" lon="6.61511">
        <ele>1577</ele>
        <time>2019-10-14T16:41:35.000Z</time>
      </trkpt>
      <trkpt lat="45.68123" lon="6.61512">
        <ele>1575.84</ele>
        <time>2019-10-14T16:41:40.000Z</time>
      </trkpt>
      <trkpt lat="45.68142" lon="6.61516">
        <ele>1576.91</ele>
        <time>2019-10-14T16:41:45.000Z</time>
      </trkpt>
      <trkpt lat="45.68157" lon="6.61522">
        <ele>1574.49</ele>
        <time>2019-10-14T16:41:50.000Z</time>
      </trkpt>
      <trkpt lat="45.68176" lon="6.61524">
        <ele>1575.99</ele>
        <time>2019-10-14T16:41:55.000Z</time>
      </trkpt>
      <trkpt lat="45.68193" lon="6.61528">
        <ele>1578.46</ele>
        <time>2019-10-14T16:42:00.000Z</time>
      </trkpt>
      <trkpt lat="45.6821" lon="6.6153">
        <ele>1579.18</ele>
        <time>2019-10-14T16:42:05.000Z</time>
      </trkpt>
      <trkpt lat="45.68229" lon="6.61535">
        <ele>1584.45</ele>
        <time>2019-10-14T16:42:10.000Z</time>
      </trkpt>
      <trkpt lat="45.68247" lon="6.61545">
        <ele>1585.9</ele>
        <time>2019-10-14T16:42:15.000Z</time>
      </trkpt>
      <trkpt lat="45.68264" lon="6.61556">
        <ele>1585.45</ele>
        <time>2019-10-14T16:42:20.000Z</time>
      </trkpt>
      <trkpt lat="45.68278" lon="6.6157">
        <ele>1590.61</ele>
        <time>2019-10-14T16:42:25.000Z</time>
      </trkpt>
      <trkpt lat="45.68288" lon="6.61591">
        <ele>1592.83</ele>
        <time>2019-10-14T16:42:30.000Z</time>
      </trkpt>
      <trkpt lat="45.68297" lon="6.61606">
        <ele>1599.88</ele>
        <time>2019-10-14T16:42:35.000Z</time>
      </trkpt>
      <trkpt lat="45.68306" lon="6.61627">
        <ele>1602.04</ele>
        <time>2019-10-14T16:42:40.000Z</time>
      </trkpt>
      <trkpt lat="45.68313" lon="6.6165">
        <ele>1603.74</ele>
        <time>2019-10-14T16:42:45.000Z</time>
      </trkpt>
      <trkpt lat="45.6833" lon="6.61663">
        <ele>1604.29</ele>
        <time>2019-10-14T16:42:50.000Z</time>
      </trkpt>
      <trkpt lat="45.68348" lon="6.61669">
        <ele>1609.6</ele>
        <time>2019-10-14T16:42:55.000Z</time>
      </trkpt>
      <trkpt lat="45.68345" lon="6.61656">
        <ele>1616.07</ele>
        <time>2019-10-14T16:44:54.000Z</time>
      </trkpt>
      <trkpt lat="45.68331" lon="6.61631">
        <ele>1618.41</ele>
        <time>2019-10-14T16:44:59.000Z</time>
      </trkpt>
      <trkpt lat="45.68321" lon="6.61606">
        <ele>1613.45</ele>
        <time>2019-10-14T16:45:04.000Z</time>
      </trkpt>
      <trkpt lat="45.68319" lon="6.61582">
        <ele>1612.72</ele>
        <time>2019-10-14T16:45:09.000Z</time>
      </trkpt>
      <trkpt lat="45.68341" lon="6.61572">
        <ele>1614.94</ele>
        <time>2019-10-14T16:45:14.000Z</time>
      </trkpt>
      <trkpt lat="45.68366" lon="6.61566">
        <ele>1613.67</ele>
        <time>2019-10-14T16:45:19.000Z</time>
      </trkpt>
      <trkpt lat="45.68385" lon="6.61551">
        <ele>1614.89</ele>
        <time>2019-10-14T16:45:24.000Z</time>
      </trkpt>
      <trkpt lat="45.68399" lon="6.61536">
        <ele>1615.07</ele>
        <time>2019-10-14T16:45:29.000Z</time>
      </trkpt>
      <trkpt lat="45.68412" lon="6.61513">
        <ele>1615.2</ele>
        <time>2019-10-14T16:45:34.000Z</time>
      </trkpt>
      <trkpt lat="45.68416" lon="6.6149">
        <ele>1617.01</ele>
        <time>2019-10-14T16:45:39.000Z</time>
      </trkpt>
      <trkpt lat="45.68408" lon="6.61466">
        <ele>1616.51</ele>
        <time>2019-10-14T16:45:44.000Z</time>
      </trkpt>
      <trkpt lat="45.68396" lon="6.61449">
        <ele>1614.84</ele>
        <time>2019-10-14T16:45:49.000Z</time>
      </trkpt>
      <trkpt lat="45.68384" lon="6.61431">
        <ele>1617.66</ele>
        <time>2019-10-14T16:45:54.000Z</time>
      </trkpt>
      <trkpt lat="45.68374" lon="6.61406">
        <ele>1622.97</ele>
        <time>2019-10-14T16:45:59.000Z</time>
      </trkpt>
      <trkpt lat="45.68367" lon="6.61381">
        <ele>1625.35</ele>
        <time>2019-10-14T16:46:04.000Z</time>
      </trkpt>
      <trkpt lat="45.68363" lon="6.61355">
        <ele>1625.2</ele>
        <time>2019-10-14T16:46:09.000Z</time>
      </trkpt>
      <trkpt lat="45.68357" lon="6.61331">
        <ele>1625.31</ele>
        <time>2019-10-14T16:46:14.000Z</time>
      </trkpt>
      <trkpt lat="45.68346" lon="6.6131">
        <ele>1628.3</ele>
        <time>2019-10-14T16:46:19.000Z</time>
      </trkpt>
      <trkpt lat="45.68327" lon="6.61302">
        <ele>1630.88</ele>
        <time>2019-10-14T16:46:24.000Z</time>
      </trkpt>
      <trkpt lat="45.68309" lon="6.61303">
        <ele>1632.63</ele>
        <time>2019-10-14T16:46:29.000Z</time>
      </trkpt>
      <trkpt lat="45.68291" lon="6.61304">
        <ele>1636.73</ele>
        <time>2019-10-14T16:46:34.000Z</time>
      </trkpt>
      <trkpt lat="45.68274" lon="6.61303">
        <ele>1639.03</ele>
        <time>2019-10-14T16:46:39.000Z</time>
      </trkpt>
      <trkpt lat="45.68254" lon="6.61301">
        <ele>1641.89</ele>
        <time>2019-10-14T16:46:44.000Z</time>
      </trkpt>
      <trkpt lat="45.68238" lon="6.61299">
        <ele>1640.55</ele>
        <time>2019-10-14T16:46:49.000Z</time>
      </trkpt>
      <trkpt lat="45.68221" lon="6.61297">
        <ele>1648.77</ele>
        <time>2019-10-14T16:46:54.000Z</time>
      </trkpt>
      <trkpt lat="45.68202" lon="6.61296">
        <ele>1647.75</ele>
        <time>2019-10-14T16:46:59.000Z</time>
      </trkpt>
      <trkpt lat="45.68189" lon="6.61285">
        <ele>1646.23</ele>
        <time>2019-10-14T16:47:04.000Z</time>
      </trkpt>
      <trkpt lat="45.68201" lon="6.61275">
        <ele>1646.81</ele>
        <time>2019-10-14T16:47:09.000Z</time>
      </trkpt>
      <trkpt lat="45.68222" lon="6.6127">
        <ele>1650.53</ele>
        <time>2019-10-14T16:47:14.000Z</time>
      </trkpt>
      <trkpt lat="45.6824" lon="6.61263">
        <ele>1647.74</ele>
        <time>2019-10-14T16:47:19.000Z</time>
      </trkpt>
      <trkpt lat="45.68256" lon="6.61253">
        <ele>1646.21</ele>
        <time>2019-10-14T16:47:24.000Z</time>
      </trkpt>
      <trkpt lat="45.68273" lon="6.61243">
        <ele>1647.84</ele>
        <time>2019-10-14T16:47:29.000Z</time>
      </trkpt>
      <trkpt lat="45.68288" lon="6.61234">
        <ele>1650.76</ele>
        <time>2019-10-14T16:47:34.000Z</time>
      </trkpt>
      <trkpt lat="45.68302" lon="6.61224">
        <ele>1652.62</ele>
        <time>2019-10-14T16:47:39.000Z</time>
      </trkpt>
      <trkpt lat="45.68315" lon="6.61212">
        <ele>1658.24</ele>
        <time>2019-10-14T16:47:44.000Z</time>
      </trkpt>
      <trkpt lat="45.6833" lon="6.61206">
        <ele>1658.37</ele>
        <time>2019-10-14T16:47:49.000Z</time>
      </trkpt>
      <trkpt lat="45.68348" lon="6.61199">
        <ele>1657.89</ele>
        <time>2019-10-14T16:47:54.000Z</time>
      </trkpt>
      <trkpt lat="45.68364" lon="6.61189">
        <ele>1657.97</ele>
        <time>2019-10-14T16:47:59.000Z</time>
      </trkpt>
      <trkpt lat="45.68379" lon="6.61192">
        <ele>1661.08</ele>
        <time>2019-10-14T16:48:04.000Z</time>
      </trkpt>
      <trkpt lat="45.68395" lon="6.61201">
        <ele>1662.16</ele>
        <time>2019-10-14T16:48:09.000Z</time>
      </trkpt>
      <trkpt lat="45.68412" lon="6.61199">
        <ele>1663.43</ele>
        <time>2019-10-14T16:48:14.000Z</time>
      </trkpt>
      <trkpt lat="45.68435" lon="6.61194">
        <ele>1666.92</ele>
        <time>2019-10-14T16:48:19.000Z</time>
      </trkpt>
      <trkpt lat="45.68414" lon="6.61185">
        <ele>1667.9</ele>
        <time>2019-10-14T16:48:24.000Z</time>
      </trkpt>
      <trkpt lat="45.68393" lon="6.61183">
        <ele>1670.19</ele>
        <time>2019-10-14T16:48:29.000Z</time>
      </trkpt>
      <trkpt lat="45.68379" lon="6.61169">
        <ele>1671.9</ele>
        <time>2019-10-14T16:48:34.000Z</time>
      </trkpt>
      <trkpt lat="45.68366" lon="6.61155">
        <ele>1674.38</ele>
        <time>2019-10-14T16:48:39.000Z</time>
      </trkpt>
      <trkpt lat="45.6835" lon="6.6116">
        <ele>1674.71</ele>
        <time>2019-10-14T16:48:44.000Z</time>
      </trkpt>
      <trkpt lat="45.68333" lon="6.61161">
        <ele>1675.64</ele>
        <time>2019-10-14T16:48:49.000Z</time>
      </trkpt>
      <trkpt lat="45.68317" lon="6.61153">
        <ele>1680.7</ele>
        <time>2019-10-14T16:48:54.000Z</time>
      </trkpt>
      <trkpt lat="45.683" lon="6.61152">
        <ele>1683.7</ele>
        <time>2019-10-14T16:48:59.000Z</time>
      </trkpt>
      <trkpt lat="45.68286" lon="6.61148">
        <ele>1689.72</ele>
        <time>2019-10-14T16:49:04.000Z</time>
      </trkpt>
      <trkpt lat="45.6827" lon="6.61145">
        <ele>1693.45</ele>
        <time>2019-10-14T16:49:09.000Z</time>
      </trkpt>
      <trkpt lat="45.68252" lon="6.61143">
        <ele>1692.69</ele>
        <time>2019-10-14T16:49:14.000Z</time>
      </trkpt>
      <trkpt lat="45.68234" lon="6.61142">
        <ele>1691.94</ele>
        <time>2019-10-14T16:49:19.000Z</time>
      </trkpt>
      <trkpt lat="45.68216" lon="6.61141">
        <ele>1694.45</ele>
        <time>2019-10-14T16:49:24.000Z</time>
      </trkpt>
      <trkpt lat="45.68211" lon="6.6113">
        <ele>1692.14</ele>
        <time>2019-10-14T16:49:29.000Z</time>
      </trkpt>
      <trkpt lat="45.68219" lon="6.6112">
        <ele>1689.65</ele>
        <time>2019-10-14T16:49:37.000Z</time>
      </trkpt>
      <trkpt lat="45.68213" lon="6.61129">
        <ele>1688.18</ele>
        <time>2019-10-14T16:50:20.000Z</time>
      </trkpt>
      <trkpt lat="45.68218" lon="6.61141">
        <ele>1689.78</ele>
        <time>2019-10-14T16:50:31.000Z</time>
      </trkpt>
      <trkpt lat="45.68226" lon="6.61136">
        <ele>1696.45</ele>
        <time>2019-10-14T16:51:43.000Z</time>
      </trkpt>
      <trkpt lat="45.68217" lon="6.61133">
        <ele>1694.66</ele>
        <time>2019-10-14T16:51:54.000Z</time>
      </trkpt>
      <trkpt lat="45.68227" lon="6.61125">
        <ele>1694.1</ele>
        <time>2019-10-14T16:52:13.000Z</time>
      </trkpt>
      <trkpt lat="45.68247" lon="6.61119">
        <ele>1695.85</ele>
        <time>2019-10-14T16:52:18.000Z</time>
      </trkpt>
      <trkpt lat="45.68267" lon="6.6111">
        <ele>1695.75</ele>
        <time>2019-10-14T16:52:23.000Z</time>
      </trkpt>
      <trkpt lat="45.68283" lon="6.61098">
        <ele>1699.47</ele>
        <time>2019-10-14T16:52:28.000Z</time>
      </trkpt>
      <trkpt lat="45.68295" lon="6.61085">
        <ele>1699.71</ele>
        <time>2019-10-14T16:52:33.000Z</time>
      </trkpt>
      <trkpt lat="45.68309" lon="6.6107">
        <ele>1698.94</ele>
        <time>2019-10-14T16:52:38.000Z</time>
      </trkpt>
      <trkpt lat="45.68323" lon="6.61056">
        <ele>1697.77</ele>
        <time>2019-10-14T16:52:43.000Z</time>
      </trkpt>
      <trkpt lat="45.68338" lon="6.61038">
        <ele>1702.85</ele>
        <time>2019-10-14T16:52:48.000Z</time>
      </trkpt>
      <trkpt lat="45.68347" lon="6.61017">
        <ele>1707.17</ele>
        <time>2019-10-14T16:52:53.000Z</time>
      </trkpt>
      <trkpt lat="45.68362" lon="6.61002">
        <ele>1709.9</ele>
        <time>2019-10-14T16:52:58.000Z</time>
      </trkpt>
      <trkpt lat="45.68381" lon="6.60997">
        <ele>1714.03</ele>
        <time>2019-10-14T16:53:03.000Z</time>
      </trkpt>
      <trkpt lat="45.68398" lon="6.61003">
        <ele>1717.74</ele>
        <time>2019-10-14T16:53:08.000Z</time>
      </trkpt>
      <trkpt lat="45.68416" lon="6.60996">
        <ele>1717.46</ele>
        <time>2019-10-14T16:53:13.000Z</time>
      </trkpt>
      <trkpt lat="45.68433" lon="6.60979">
        <ele>1714.63</ele>
        <time>2019-10-14T16:53:18.000Z</time>
      </trkpt>
      <trkpt lat="45.68448" lon="6.60959">
        <ele>1703.93</ele>
        <time>2019-10-14T16:53:23.000Z</time>
      </trkpt>
      <trkpt lat="45.68454" lon="6.60937">
        <ele>1704.71</ele>
        <time>2019-10-14T16:53:28.000Z</time>
      </trkpt>
      <trkpt lat="45.68454" lon="6.60911">
        <ele>1708.36</ele>
        <time>2019-10-14T16:53:33.000Z</time>
      </trkpt>
      <trkpt lat="45.68455" lon="6.60884">
        <ele>1709.13</ele>
        <time>2019-10-14T16:53:38.000Z</time>
      </trkpt>
      <trkpt lat="45.68464" lon="6.60857">
        <ele>1711.48</ele>
        <time>2019-10-14T16:53:43.000Z</time>
      </trkpt>
      <trkpt lat="45.6848" lon="6.60837">
        <ele>1714.64</ele>
        <time>2019-10-14T16:53:48.000Z</time>
      </trkpt>
      <trkpt lat="45.68502" lon="6.60833">
        <ele>1716.32</ele>
        <time>2019-10-14T16:53:53.000Z</time>
      </trkpt>
      <trkpt lat="45.68519" lon="6.60842">
        <ele>1720.07</ele>
        <time>2019-10-14T16:53:58.000Z</time>
      </trkpt>
      <trkpt lat="45.68535" lon="6.60849">
        <ele>1726.98</ele>
        <time>2019-10-14T16:54:03.000Z</time>
      </trkpt>
      <trkpt lat="45.68553" lon="6.60845">
        <ele>1728.04</ele>
        <time>2019-10-14T16:54:08.000Z</time>
      </trkpt>
      <trkpt lat="45.68574" lon="6.60827">
        <ele>1728.19</ele>
        <time>2019-10-14T16:54:13.000Z</time>
      </trkpt>
      <trkpt lat="45.6859" lon="6.60806">
        <ele>1728.61</ele>
        <time>2019-10-14T16:54:18.000Z</time>
      </trkpt>
      <trkpt lat="45.68613" lon="6.60784">
        <ele>1727.27</ele>
        <time>2019-10-14T16:54:23.000Z</time>
      </trkpt>
      <trkpt lat="45.68625" lon="6.60756">
        <ele>1729.56</ele>
        <time>2019-10-14T16:54:28.000Z</time>
      </trkpt>
      <trkpt lat="45.68653" lon="6.60725">
        <ele>1727.24</ele>
        <time>2019-10-14T16:54:33.000Z</time>
      </trkpt>
      <trkpt lat="45.68661" lon="6.60689">
        <ele>1725.53</ele>
        <time>2019-10-14T16:54:38.000Z</time>
      </trkpt>
      <trkpt lat="45.68679" lon="6.60653">
        <ele>1731.75</ele>
        <time>2019-10-14T16:54:43.000Z</time>
      </trkpt>
      <trkpt lat="45.68702" lon="6.60627">
        <ele>1728.44</ele>
        <time>2019-10-14T16:54:48.000Z</time>
      </trkpt>
      <trkpt lat="45.68717" lon="6.60595">
        <ele>1729.41</ele>
        <time>2019-10-14T16:54:53.000Z</time>
      </trkpt>
      <trkpt lat="45.68728" lon="6.60562">
        <ele>1730.41</ele>
        <time>2019-10-14T16:54:58.000Z</time>
      </trkpt>
      <trkpt lat="45.68734" lon="6.60537">
        <ele>1732.43</ele>
        <time>2019-10-14T16:55:03.000Z</time>
      </trkpt>
      <trkpt lat="45.6874" lon="6.60526">
        <ele>1734.17</ele>
        <time>2019-10-14T16:55:09.000Z</time>
      </trkpt>
      <trkpt lat="45.68734" lon="6.60515">
        <ele>1736.65</ele>
        <time>2019-10-14T16:57:17.000Z</time>
      </trkpt>
      <trkpt lat="45.68733" lon="6.6049">
        <ele>1735.1</ele>
        <time>2019-10-14T16:57:22.000Z</time>
      </trkpt>
      <trkpt lat="45.68736" lon="6.60455">
        <ele>1734.58</ele>
        <time>2019-10-14T16:57:27.000Z</time>
      </trkpt>
      <trkpt lat="45.68748" lon="6.60417">
        <ele>1734.22</ele>
        <time>2019-10-14T16:57:32.000Z</time>
      </trkpt>
      <trkpt lat="45.68771" lon="6.60392">
        <ele>1730</ele>
        <time>2019-10-14T16:57:37.000Z</time>
      </trkpt>
      <trkpt lat="45.68807" lon="6.60373">
        <ele>1726.71</ele>
        <time>2019-10-14T16:57:42.000Z</time>
      </trkpt>
      <trkpt lat="45.68822" lon="6.60325">
        <ele>1724.16</ele>
        <time>2019-10-14T16:57:47.000Z</time>
      </trkpt>
      <trkpt lat="45.68844" lon="6.60285">
        <ele>1726.31</ele>
        <time>2019-10-14T16:57:52.000Z</time>
      </trkpt>
      <trkpt lat="45.68866" lon="6.60258">
        <ele>1727.04</ele>
        <time>2019-10-14T16:57:57.000Z</time>
      </trkpt>
      <trkpt lat="45.68878" lon="6.6022">
        <ele>1729.11</ele>
        <time>2019-10-14T16:58:02.000Z</time>
      </trkpt>
      <trkpt lat="45.68886" lon="6.60177">
        <ele>1725.3</ele>
        <time>2019-10-14T16:58:07.000Z</time>
      </trkpt>
      <trkpt lat="45.68895" lon="6.6013">
        <ele>1726.74</ele>
        <time>2019-10-14T16:58:12.000Z</time>
      </trkpt>
      <trkpt lat="45.68906" lon="6.60086">
        <ele>1726.23</ele>
        <time>2019-10-14T16:58:17.000Z</time>
      </trkpt>
      <trkpt lat="45.68923" lon="6.60062">
        <ele>1722.18</ele>
        <time>2019-10-14T16:58:22.000Z</time>
      </trkpt>
      <trkpt lat="45.68953" lon="6.60041">
        <ele>1719.34</ele>
        <time>2019-10-14T16:58:27.000Z</time>
      </trkpt>
      <trkpt lat="45.6896" lon="6.60034">
        <ele>1714.28</ele>
        <time>2019-10-14T16:58:44.000Z</time>
      </trkpt>
      <trkpt lat="45.68964" lon="6.6002">
        <ele>1714.67</ele>
        <time>2019-10-14T16:59:04.000Z</time>
      </trkpt>
      <trkpt lat="45.68981" lon="6.59987">
        <ele>1715.13</ele>
        <time>2019-10-14T16:59:09.000Z</time>
      </trkpt>
      <trkpt lat="45.68992" lon="6.59946">
        <ele>1711.29</ele>
        <time>2019-10-14T16:59:14.000Z</time>
      </trkpt>
      <trkpt lat="45.68996" lon="6.59897">
        <ele>1706.57</ele>
        <time>2019-10-14T16:59:19.000Z</time>
      </trkpt>
      <trkpt lat="45.68991" lon="6.59852">
        <ele>1701.56</ele>
        <time>2019-10-14T16:59:24.000Z</time>
      </trkpt>
      <trkpt lat="45.6901" lon="6.59817">
        <ele>1699.75</ele>
        <time>2019-10-14T16:59:29.000Z</time>
      </trkpt>
      <trkpt lat="45.69034" lon="6.59788">
        <ele>1696.15</ele>
        <time>2019-10-14T16:59:34.000Z</time>
      </trkpt>
      <trkpt lat="45.69031" lon="6.59741">
        <ele>1690.55</ele>
        <time>2019-10-14T16:59:39.000Z</time>
      </trkpt>
      <trkpt lat="45.69009" lon="6.59695">
        <ele>1687.95</ele>
        <time>2019-10-14T16:59:44.000Z</time>
      </trkpt>
      <trkpt lat="45.68988" lon="6.59651">
        <ele>1681.13</ele>
        <time>2019-10-14T16:59:49.000Z</time>
      </trkpt>
      <trkpt lat="45.68968" lon="6.59613">
        <ele>1682.85</ele>
        <time>2019-10-14T16:59:54.000Z</time>
      </trkpt>
      <trkpt lat="45.68949" lon="6.59571">
        <ele>1680.36</ele>
        <time>2019-10-14T16:59:59.000Z</time>
      </trkpt>
      <trkpt lat="45.68922" lon="6.59539">
        <ele>1678.46</ele>
        <time>2019-10-14T17:00:04.000Z</time>
      </trkpt>
      <trkpt lat="45.68906" lon="6.59509">
        <ele>1678.56</ele>
        <time>2019-10-14T17:00:09.000Z</time>
      </trkpt>
      <trkpt lat="45.68928" lon="6.59481">
        <ele>1678.57</ele>
        <time>2019-10-14T17:00:14.000Z</time>
      </trkpt>
      <trkpt lat="45.68934" lon="6.59468">
        <ele>1678.82</ele>
        <time>2019-10-14T17:00:50.000Z</time>
      </trkpt>
      <trkpt lat="45.68936" lon="6.59438">
        <ele>1675.59</ele>
        <time>2019-10-14T17:00:55.000Z</time>
      </trkpt>
      <trkpt lat="45.68932" lon="6.59385">
        <ele>1674.72</ele>
        <time>2019-10-14T17:01:00.000Z</time>
      </trkpt>
      <trkpt lat="45.68915" lon="6.5933">
        <ele>1667.64</ele>
        <time>2019-10-14T17:01:05.000Z</time>
      </trkpt>
      <trkpt lat="45.68915" lon="6.59268">
        <ele>1662.8</ele>
        <time>2019-10-14T17:01:10.000Z</time>
      </trkpt>
      <trkpt lat="45.68904" lon="6.59211">
        <ele>1658.49</ele>
        <time>2019-10-14T17:01:15.000Z</time>
      </trkpt>
      <trkpt lat="45.68906" lon="6.59152">
        <ele>1657.82</ele>
        <time>2019-10-14T17:01:20.000Z</time>
      </trkpt>
      <trkpt lat="45.6891" lon="6.59083">
        <ele>1658.98</ele>
        <time>2019-10-14T17:01:25.000Z</time>
      </trkpt>
      <trkpt lat="45.68908" lon="6.5902">
        <ele>1658.95</ele>
        <time>2019-10-14T17:01:30.000Z</time>
      </trkpt>
      <trkpt lat="45.6892" lon="6.58957">
        <ele>1649.94</ele>
        <time>2019-10-14T17:01:35.000Z</time>
      </trkpt>
      <trkpt lat="45.68934" lon="6.58896">
        <ele>1643.7</ele>
        <time>2019-10-14T17:01:40.000Z</time>
      </trkpt>
      <trkpt lat="45.68949" lon="6.58832">
        <ele>1643.88</ele>
        <time>2019-10-14T17:01:45.000Z</time>
      </trkpt>
      <trkpt lat="45.68965" lon="6.58767">
        <ele>1639.14</ele>
        <time>2019-10-14T17:01:50.000Z</time>
      </trkpt>
      <trkpt lat="45.68962" lon="6.58692">
        <ele>1636.43</ele>
        <time>2019-10-14T17:01:55.000Z</time>
      </trkpt>
      <trkpt lat="45.68957" lon="6.58628">
        <ele>1628.07</ele>
        <time>2019-10-14T17:02:00.000Z</time>
      </trkpt>
      <trkpt lat="45.6896" lon="6.58563">
        <ele>1622.37</ele>
        <time>2019-10-14T17:02:05.000Z</time>
      </trkpt>
      <trkpt lat="45.68981" lon="6.58499">
        <ele>1619.39</ele>
        <time>2019-10-14T17:02:10.000Z</time>
      </trkpt>
      <trkpt lat="45.68993" lon="6.58435">
        <ele>1608.89</ele>
        <time>2019-10-14T17:02:15.000Z</time>
      </trkpt>
      <trkpt lat="45.69" lon="6.5837">
        <ele>1605.95</ele>
        <time>2019-10-14T17:02:20.000Z</time>
      </trkpt>
      <trkpt lat="45.6903" lon="6.58315">
        <ele>1598.34</ele>
        <time>2019-10-14T17:02:25.000Z</time>
      </trkpt>
      <trkpt lat="45.69054" lon="6.58261">
        <ele>1589.29</ele>
        <time>2019-10-14T17:02:30.000Z</time>
      </trkpt>
      <trkpt lat="45.69052" lon="6.58196">
        <ele>1582.98</ele>
        <time>2019-10-14T17:02:35.000Z</time>
      </trkpt>
      <trkpt lat="45.69067" lon="6.58142">
        <ele>1578.79</ele>
        <time>2019-10-14T17:02:40.000Z</time>
      </trkpt>
      <trkpt lat="45.69086" lon="6.5809">
        <ele>1571.23</ele>
        <time>2019-10-14T17:02:45.000Z</time>
      </trkpt>
      <trkpt lat="45.69111" lon="6.58052">
        <ele>1566.53</ele>
        <time>2019-10-14T17:02:50.000Z</time>
      </trkpt>
      <trkpt lat="45.691" lon="6.58051">
        <ele>1561.61</ele>
        <time>2019-10-14T17:02:56.000Z</time>
      </trkpt>
      <trkpt lat="45.6907" lon="6.58083">
        <ele>1559.85</ele>
        <time>2019-10-14T17:03:01.000Z</time>
      </trkpt>
      <trkpt lat="45.69045" lon="6.58123">
        <ele>1552.89</ele>
        <time>2019-10-14T17:03:06.000Z</time>
      </trkpt>
      <trkpt lat="45.69012" lon="6.58171">
        <ele>1546.82</ele>
        <time>2019-10-14T17:03:11.000Z</time>
      </trkpt>
      <trkpt lat="45.68997" lon="6.58236">
        <ele>1536.67</ele>
        <time>2019-10-14T17:03:16.000Z</time>
      </trkpt>
      <trkpt lat="45.68971" lon="6.58283">
        <ele>1535.24</ele>
        <time>2019-10-14T17:03:21.000Z</time>
      </trkpt>
      <trkpt lat="45.68934" lon="6.58303">
        <ele>1535.58</ele>
        <time>2019-10-14T17:03:26.000Z</time>
      </trkpt>
      <trkpt lat="45.68899" lon="6.58326">
        <ele>1527.96</ele>
        <time>2019-10-14T17:03:31.000Z</time>
      </trkpt>
      <trkpt lat="45.68874" lon="6.58378">
        <ele>1521.61</ele>
        <time>2019-10-14T17:03:36.000Z</time>
      </trkpt>
      <trkpt lat="45.68847" lon="6.58432">
        <ele>1518.47</ele>
        <time>2019-10-14T17:03:41.000Z</time>
      </trkpt>
      <trkpt lat="45.68829" lon="6.58488">
        <ele>1516.91</ele>
        <time>2019-10-14T17:03:46.000Z</time>
      </trkpt>
      <trkpt lat="45.68818" lon="6.58546">
        <ele>1512.94</ele>
        <time>2019-10-14T17:03:51.000Z</time>
      </trkpt>
      <trkpt lat="45.68813" lon="6.58606">
        <ele>1508.9</ele>
        <time>2019-10-14T17:03:56.000Z</time>
      </trkpt>
      <trkpt lat="45.68801" lon="6.58663">
        <ele>1505.46</ele>
        <time>2019-10-14T17:04:01.000Z</time>
      </trkpt>
      <trkpt lat="45.68801" lon="6.58646">
        <ele>1499.11</ele>
        <time>2019-10-14T17:04:10.000Z</time>
      </trkpt>
      <trkpt lat="45.688" lon="6.58601">
        <ele>1494.95</ele>
        <time>2019-10-14T17:04:15.000Z</time>
      </trkpt>
      <trkpt lat="45.68796" lon="6.58555">
        <ele>1486.89</ele>
        <time>2019-10-14T17:04:20.000Z</time>
      </trkpt>
      <trkpt lat="45.68795" lon="6.58493">
        <ele>1478.94</ele>
        <time>2019-10-14T17:04:25.000Z</time>
      </trkpt>
      <trkpt lat="45.68794" lon="6.58432">
        <ele>1474.35</ele>
        <time>2019-10-14T17:04:30.000Z</time>
      </trkpt>
      <trkpt lat="45.68797" lon="6.58372">
        <ele>1470.49</ele>
        <time>2019-10-14T17:04:35.000Z</time>
      </trkpt>
      <trkpt lat="45.68806" lon="6.5831">
        <ele>1468.4</ele>
        <time>2019-10-14T17:04:40.000Z</time>
      </trkpt>
      <trkpt lat="45.68831" lon="6.58252">
        <ele>1467.55</ele>
        <time>2019-10-14T17:04:45.000Z</time>
      </trkpt>
      <trkpt lat="45.68858" lon="6.58221">
        <ele>1463.19</ele>
        <time>2019-10-14T17:04:50.000Z</time>
      </trkpt>
      <trkpt lat="45.68872" lon="6.58163">
        <ele>1460.12</ele>
        <time>2019-10-14T17:04:55.000Z</time>
      </trkpt>
      <trkpt lat="45.68849" lon="6.58105">
        <ele>1461.89</ele>
        <time>2019-10-14T17:05:00.000Z</time>
      </trkpt>
      <trkpt lat="45.68845" lon="6.58046">
        <ele>1455.88</ele>
        <time>2019-10-14T17:05:05.000Z</time>
      </trkpt>
      <trkpt lat="45.68843" lon="6.57984">
        <ele>1449.08</ele>
        <time>2019-10-14T17:05:10.000Z</time>
      </trkpt>
      <trkpt lat="45.68829" lon="6.5793">
        <ele>1444.39</ele>
        <time>2019-10-14T17:05:15.000Z</time>
      </trkpt>
      <trkpt lat="45.68817" lon="6.57882">
        <ele>1435.69</ele>
        <time>2019-10-14T17:05:20.000Z</time>
      </trkpt>
      <trkpt lat="45.68822" lon="6.57834">
        <ele>1430.55</ele>
        <time>2019-10-14T17:05:25.000Z</time>
      </trkpt>
      <trkpt lat="45.68847" lon="6.57812">
        <ele>1425.97</ele>
        <time>2019-10-14T17:05:30.000Z</time>
      </trkpt>
      <trkpt lat="45.6885" lon="6.57794">
        <ele>1424.01</ele>
        <time>2019-10-14T17:05:35.000Z</time>
      </trkpt>
      <trkpt lat="45.68822" lon="6.57803">
        <ele>1417.61</ele>
        <time>2019-10-14T17:05:40.000Z</time>
      </trkpt>
      <trkpt lat="45.68793" lon="6.57828">
        <ele>1410.21</ele>
        <time>2019-10-14T17:05:45.000Z</time>
      </trkpt>
      <trkpt lat="45.68775" lon="6.57872">
        <ele>1408.42</ele>
        <time>2019-10-14T17:05:50.000Z</time>
      </trkpt>
      <trkpt lat="45.68789" lon="6.57925">
        <ele>1406.98</ele>
        <time>2019-10-14T17:05:55.000Z</time>
      </trkpt>
      <trkpt lat="45.6878" lon="6.57993">
        <ele>1404.24</ele>
        <time>2019-10-14T17:06:00.000Z</time>
      </trkpt>
      <trkpt lat="45.68765" lon="6.58061">
        <ele>1404.92</ele>
        <time>2019-10-14T17:06:05.000Z</time>
      </trkpt>
      <trkpt lat="45.68771" lon="6.58121">
        <ele>1396.61</ele>
        <time>2019-10-14T17:06:10.000Z</time>
      </trkpt>
      <trkpt lat="45.68757" lon="6.58134">
        <ele>1392.58</ele>
        <time>2019-10-14T17:06:15.000Z</time>
      </trkpt>
      <trkpt lat="45.68755" lon="6.58081">
        <ele>1391.73</ele>
        <time>2019-10-14T17:06:20.000Z</time>
      </trkpt>
      <trkpt lat="45.68739" lon="6.58023">
        <ele>1388.41</ele>
        <time>2019-10-14T17:06:25.000Z</time>
      </trkpt>
      <trkpt lat="45.68715" lon="6.5796">
        <ele>1381.56</ele>
        <time>2019-10-14T17:06:30.000Z</time>
      </trkpt>
      <trkpt lat="45.68691" lon="6.57898">
        <ele>1373.53</ele>
        <time>2019-10-14T17:06:35.000Z</time>
      </trkpt>
      <trkpt lat="45.6866" lon="6.57853">
        <ele>1371.12</ele>
        <time>2019-10-14T17:06:40.000Z</time>
      </trkpt>
      <trkpt lat="45.68657" lon="6.5779">
        <ele>1363.27</ele>
        <time>2019-10-14T17:06:45.000Z</time>
      </trkpt>
      <trkpt lat="45.68673" lon="6.57726">
        <ele>1355.79</ele>
        <time>2019-10-14T17:06:50.000Z</time>
      </trkpt>
      <trkpt lat="45.68689" lon="6.5767">
        <ele>1355.31</ele>
        <time>2019-10-14T17:06:55.000Z</time>
      </trkpt>
      <trkpt lat="45.68724" lon="6.57653">
        <ele>1348.21</ele>
        <time>2019-10-14T17:07:00.000Z</time>
      </trkpt>
      <trkpt lat="45.68693" lon="6.57661">
        <ele>1343.99</ele>
        <time>2019-10-14T17:07:05.000Z</time>
      </trkpt>
      <trkpt lat="45.68664" lon="6.57694">
        <ele>1343.2</ele>
        <time>2019-10-14T17:07:10.000Z</time>
      </trkpt>
      <trkpt lat="45.68635" lon="6.57728">
        <ele>1338.39</ele>
        <time>2019-10-14T17:07:15.000Z</time>
      </trkpt>
      <trkpt lat="45.68613" lon="6.57772">
        <ele>1335.77</ele>
        <time>2019-10-14T17:07:20.000Z</time>
      </trkpt>
      <trkpt lat="45.68602" lon="6.5782">
        <ele>1334.29</ele>
        <time>2019-10-14T17:07:25.000Z</time>
      </trkpt>
      <trkpt lat="45.68579" lon="6.5786">
        <ele>1327.81</ele>
        <time>2019-10-14T17:07:30.000Z</time>
      </trkpt>
      <trkpt lat="45.68583" lon="6.57891">
        <ele>1325.15</ele>
        <time>2019-10-14T17:07:35.000Z</time>
      </trkpt>
      <trkpt lat="45.68597" lon="6.57946">
        <ele>1321.15</ele>
        <time>2019-10-14T17:07:40.000Z</time>
      </trkpt>
      <trkpt lat="45.68611" lon="6.5801">
        <ele>1319.34</ele>
        <time>2019-10-14T17:07:45.000Z</time>
      </trkpt>
      <trkpt lat="45.68611" lon="6.58054">
        <ele>1319.94</ele>
        <time>2019-10-14T17:07:50.000Z</time>
      </trkpt>
      <trkpt lat="45.68599" lon="6.58026">
        <ele>1312.11</ele>
        <time>2019-10-14T17:07:55.000Z</time>
      </trkpt>
      <trkpt lat="45.68582" lon="6.57969">
        <ele>1306.75</ele>
        <time>2019-10-14T17:08:00.000Z</time>
      </trkpt>
      <trkpt lat="45.6855" lon="6.57914">
        <ele>1301.75</ele>
        <time>2019-10-14T17:08:05.000Z</time>
      </trkpt>
      <trkpt lat="45.68529" lon="6.57861">
        <ele>1297.99</ele>
        <time>2019-10-14T17:08:10.000Z</time>
      </trkpt>
      <trkpt lat="45.68512" lon="6.57803">
        <ele>1290.7</ele>
        <time>2019-10-14T17:08:15.000Z</time>
      </trkpt>
      <trkpt lat="45.68514" lon="6.57749">
        <ele>1285.04</ele>
        <time>2019-10-14T17:08:20.000Z</time>
      </trkpt>
      <trkpt lat="45.68532" lon="6.57684">
        <ele>1281.73</ele>
        <time>2019-10-14T17:08:25.000Z</time>
      </trkpt>
      <trkpt lat="45.6856" lon="6.5763">
        <ele>1275.18</ele>
        <time>2019-10-14T17:08:30.000Z</time>
      </trkpt>
      <trkpt lat="45.6859" lon="6.57582">
        <ele>1269.91</ele>
        <time>2019-10-14T17:08:35.000Z</time>
      </trkpt>
      <trkpt lat="45.68607" lon="6.57544">
        <ele>1261.93</ele>
        <time>2019-10-14T17:08:40.000Z</time>
      </trkpt>
      <trkpt lat="45.68595" lon="6.57571">
        <ele>1257.69</ele>
        <time>2019-10-14T17:08:45.000Z</time>
      </trkpt>
      <trkpt lat="45.68558" lon="6.57611">
        <ele>1254.73</ele>
        <time>2019-10-14T17:08:50.000Z</time>
      </trkpt>
      <trkpt lat="45.68516" lon="6.57648">
        <ele>1250.55</ele>
        <time>2019-10-14T17:08:55.000Z</time>
      </trkpt>
      <trkpt lat="45.68471" lon="6.5768">
        <ele>1244.35</ele>
        <time>2019-10-14T17:09:00.000Z</time>
      </trkpt>
      <trkpt lat="45.68437" lon="6.57712">
        <ele>1239.46</ele>
        <time>2019-10-14T17:09:05.000Z</time>
      </trkpt>
      <trkpt lat="45.68429" lon="6.57763">
        <ele>1237.85</ele>
        <time>2019-10-14T17:09:10.000Z</time>
      </trkpt>
      <trkpt lat="45.6842" lon="6.57762">
        <ele>1233.27</ele>
        <time>2019-10-14T17:09:15.000Z</time>
      </trkpt>
      <trkpt lat="45.68421" lon="6.57714">
        <ele>1229.29</ele>
        <time>2019-10-14T17:09:20.000Z</time>
      </trkpt>
      <trkpt lat="45.68437" lon="6.57659">
        <ele>1222.63</ele>
        <time>2019-10-14T17:09:25.000Z</time>
      </trkpt>
      <trkpt lat="45.68468" lon="6.57617">
        <ele>1218.09</ele>
        <time>2019-10-14T17:09:30.000Z</time>
      </trkpt>
      <trkpt lat="45.68499" lon="6.57585">
        <ele>1212.38</ele>
        <time>2019-10-14T17:09:35.000Z</time>
      </trkpt>
      <trkpt lat="45.68473" lon="6.57577">
        <ele>1211.4</ele>
        <time>2019-10-14T17:09:40.000Z</time>
      </trkpt>
      <trkpt lat="45.68441" lon="6.57599">
        <ele>1209.28</ele>
        <time>2019-10-14T17:09:45.000Z</time>
      </trkpt>
      <trkpt lat="45.68412" lon="6.57633">
        <ele>1206.09</ele>
        <time>2019-10-14T17:09:50.000Z</time>
      </trkpt>
      <trkpt lat="45.6839" lon="6.57648">
        <ele>1203.64</ele>
        <time>2019-10-14T17:09:55.000Z</time>
      </trkpt>
      <trkpt lat="45.68354" lon="6.57681">
        <ele>1200.14</ele>
        <time>2019-10-14T17:10:00.000Z</time>
      </trkpt>
      <trkpt lat="45.68331" lon="6.57715">
        <ele>1199.75</ele>
        <time>2019-10-14T17:10:05.000Z</time>
      </trkpt>
      <trkpt lat="45.68318" lon="6.57702">
        <ele>1199.07</ele>
        <time>2019-10-14T17:10:10.000Z</time>
      </trkpt>
      <trkpt lat="45.68333" lon="6.57666">
        <ele>1191.38</ele>
        <time>2019-10-14T17:10:15.000Z</time>
      </trkpt>
      <trkpt lat="45.68355" lon="6.57614">
        <ele>1187.53</ele>
        <time>2019-10-14T17:10:20.000Z</time>
      </trkpt>
      <trkpt lat="45.68372" lon="6.57559">
        <ele>1184.68</ele>
        <time>2019-10-14T17:10:25.000Z</time>
      </trkpt>
      <trkpt lat="45.68383" lon="6.57501">
        <ele>1183.55</ele>
        <time>2019-10-14T17:10:30.000Z</time>
      </trkpt>
      <trkpt lat="45.68405" lon="6.57467">
        <ele>1179.76</ele>
        <time>2019-10-14T17:10:35.000Z</time>
      </trkpt>
      <trkpt lat="45.6843" lon="6.57458">
        <ele>1173.33</ele>
        <time>2019-10-14T17:10:40.000Z</time>
      </trkpt>
      <trkpt lat="45.68407" lon="6.5744">
        <ele>1171.91</ele>
        <time>2019-10-14T17:10:45.000Z</time>
      </trkpt>
      <trkpt lat="45.68371" lon="6.57432">
        <ele>1167.64</ele>
        <time>2019-10-14T17:10:50.000Z</time>
      </trkpt>
      <trkpt lat="45.68348" lon="6.57448">
        <ele>1165.23</ele>
        <time>2019-10-14T17:10:55.000Z</time>
      </trkpt>
      <trkpt lat="45.68331" lon="6.57506">
        <ele>1163.38</ele>
        <time>2019-10-14T17:11:00.000Z</time>
      </trkpt>
      <trkpt lat="45.68326" lon="6.57548">
        <ele>1160.27</ele>
        <time>2019-10-14T17:11:05.000Z</time>
      </trkpt>
      <trkpt lat="45.6831" lon="6.57583">
        <ele>1152.99</ele>
        <time>2019-10-14T17:11:10.000Z</time>
      </trkpt>
      <trkpt lat="45.68303" lon="6.57613">
        <ele>1152.22</ele>
        <time>2019-10-14T17:11:15.000Z</time>
      </trkpt>
      <trkpt lat="45.68292" lon="6.57639">
        <ele>1151.17</ele>
        <time>2019-10-14T17:11:20.000Z</time>
      </trkpt>
      <trkpt lat="45.68272" lon="6.57642">
        <ele>1148.93</ele>
        <time>2019-10-14T17:11:25.000Z</time>
      </trkpt>
      <trkpt lat="45.68257" lon="6.57623">
        <ele>1148.87</ele>
        <time>2019-10-14T17:11:30.000Z</time>
      </trkpt>
      <trkpt lat="45.68235" lon="6.57603">
        <ele>1152.04</ele>
        <time>2019-10-14T17:11:35.000Z</time>
      </trkpt>
      <trkpt lat="45.68222" lon="6.57579">
        <ele>1150.99</ele>
        <time>2019-10-14T17:11:40.000Z</time>
      </trkpt>
      <trkpt lat="45.6821" lon="6.57563">
        <ele>1153.56</ele>
        <time>2019-10-14T17:11:45.000Z</time>
      </trkpt>
      <trkpt lat="45.68191" lon="6.57562">
        <ele>1157.5</ele>
        <time>2019-10-14T17:11:50.000Z</time>
      </trkpt>
      <trkpt lat="45.68171" lon="6.57558">
        <ele>1157.39</ele>
        <time>2019-10-14T17:11:55.000Z</time>
      </trkpt>
      <trkpt lat="45.68154" lon="6.57553">
        <ele>1156.34</ele>
        <time>2019-10-14T17:12:00.000Z</time>
      </trkpt>
      <trkpt lat="45.68137" lon="6.57543">
        <ele>1157.15</ele>
        <time>2019-10-14T17:12:05.000Z</time>
      </trkpt>
      <trkpt lat="45.68121" lon="6.57527">
        <ele>1161.32</ele>
        <time>2019-10-14T17:12:10.000Z</time>
      </trkpt>
      <trkpt lat="45.68104" lon="6.57524">
        <ele>1161.33</ele>
        <time>2019-10-14T17:12:15.000Z</time>
      </trkpt>
      <trkpt lat="45.68087" lon="6.57534">
        <ele>1161.38</ele>
        <time>2019-10-14T17:12:20.000Z</time>
      </trkpt>
      <trkpt lat="45.68074" lon="6.57546">
        <ele>1163.34</ele>
        <time>2019-10-14T17:12:25.000Z</time>
      </trkpt>
      <trkpt lat="45.68061" lon="6.57563">
        <ele>1164.21</ele>
        <time>2019-10-14T17:12:30.000Z</time>
      </trkpt>
      <trkpt lat="45.68045" lon="6.57566">
        <ele>1165.51</ele>
        <time>2019-10-14T17:12:35.000Z</time>
      </trkpt>
      <trkpt lat="45.6803" lon="6.57564">
        <ele>1167.14</ele>
        <time>2019-10-14T17:12:40.000Z</time>
      </trkpt>
      <trkpt lat="45.68015" lon="6.57559">
        <ele>1168.25</ele>
        <time>2019-10-14T17:12:45.000Z</time>
      </trkpt>
      <trkpt lat="45.67998" lon="6.57555">
        <ele>1173.91</ele>
        <time>2019-10-14T17:12:50.000Z</time>
      </trkpt>
      <trkpt lat="45.67987" lon="6.57565">
        <ele>1173.36</ele>
        <time>2019-10-14T17:12:55.000Z</time>
      </trkpt>
      <trkpt lat="45.68004" lon="6.57578">
        <ele>1173.81</ele>
        <time>2019-10-14T17:13:00.000Z</time>
      </trkpt>
      <trkpt lat="45.68023" lon="6.57585">
        <ele>1177.09</ele>
        <time>2019-10-14T17:13:05.000Z</time>
      </trkpt>
      <trkpt lat="45.68039" lon="6.57599">
        <ele>1180.16</ele>
        <time>2019-10-14T17:13:10.000Z</time>
      </trkpt>
      <trkpt lat="45.68052" lon="6.57612">
        <ele>1181.93</ele>
        <time>2019-10-14T17:13:15.000Z</time>
      </trkpt>
      <trkpt lat="45.68051" lon="6.57621">
        <ele>1187.32</ele>
        <time>2019-10-14T17:17:18.000Z</time>
      </trkpt>
    </trkseg>
  </trk>
  <trk>
    <name><![CDATA[Col de l'Arpettaz + route des Aravis]]></name>
    <extensions>
      <line xmlns="http://www.topografix.com/GPX/gpx_style/0/2">
        <color>e06500</color>
        <width>4</width>
      </line>
    </extensions>
    <trkseg>
      <trkpt lat="45.76311" lon="6.34246">
        <ele>463.60000610352</ele>
        <time>2020-07-05T05:13:19.000Z</time>
        <extensions>
          <gpxtpx:TrackPointExtension xmlns:gpxtpx="http://www.garmin.com/xmlschemas/TrackPointExtension/v1">
            <gpxtpx:hr>107</gpxtpx:hr>
          </gpxtpx:TrackPointExtension>
        </extensions>
      </trkpt>
      <trkpt lat="45.76311" lon="6.34246">
        <ele>463.60000610352</ele>
        <time>2020-07-05T05:13:19.000Z</time>
        <extensions>
          <gpxtpx:TrackPointExtension xmlns:gpxtpx="http://www.garmin.com/xmlschemas/TrackPointExtension/v1">
            <gpxtpx:hr>107</gpxtpx:hr>
          </gpxtpx:TrackPointExtension>
        </extensions>
      </trkpt>
      <trkpt lat="45.76311" lon="6.34246">
        <ele>463.60000610352</ele>
        <time>2020-07-05T05:13:19.000Z</time>
        <extensions>
          <gpxtpx:TrackPointExtension xmlns:gpxtpx="http://www.garmin.com/xmlschemas/TrackPointExtension/v1">
            <gpxtpx:hr>107</gpxtpx:hr>
          </gpxtpx:TrackPointExtension>
        </extensions>
      </trkpt>
      <trkpt lat="45.7631" lon="6.34271">
        <ele>463.60000610352</ele>
        <time>2020-07-05T05:13:21.000Z</time>
        <extensions>
          <gpxtpx:TrackPointExtension xmlns:gpxtpx="http://www.garmin.com/xmlschemas/TrackPointExtension/v1">
            <gpxtpx:hr>107</gpxtpx:hr>
          </gpxtpx:TrackPointExtension>
        </extensions>
      </trkpt>
      <trkpt lat="45.7631" lon="6.34283">
        <ele>463.39999389648</ele>
        <time>2020-07-05T05:13:22.000Z</time>
        <extensions>
          <gpxtpx:TrackPointExtension xmlns:gpxtpx="http://www.garmin.com/xmlschemas/TrackPointExtension/v1">
            <gpxtpx:hr>106</gpxtpx:hr>
          </gpxtpx:TrackPointExtension>
        </extensions>
      </trkpt>
      <trkpt lat="45.76312" lon="6.3431">
        <ele>462.20001220703</ele>
        <time>2020-07-05T05:13:24.000Z</time>
        <extensions>
          <gpxtpx:TrackPointExtension xmlns:gpxtpx="http://www.garmin.com/xmlschemas/TrackPointExtension/v1">
            <gpxtpx:hr>105</gpxtpx:hr>
          </gpxtpx:TrackPointExtension>
        </extensions>
      </trkpt>
      <trkpt lat="45.76314" lon="6.34322">
        <ele>461.79998779297</ele>
        <time>2020-07-05T05:13:25.000Z</time>
        <extensions>
          <gpxtpx:TrackPointExtension xmlns:gpxtpx="http://www.garmin.com/xmlschemas/TrackPointExtension/v1">
            <gpxtpx:hr>106</gpxtpx:hr>
          </gpxtpx:TrackPointExtension>
        </extensions>
      </trkpt>
      <trkpt lat="45.76322" lon="6.34345">
        <ele>461.39999389648</ele>
        <time>2020-07-05T05:13:27.000Z</time>
        <extensions>
          <gpxtpx:TrackPointExtension xmlns:gpxtpx="http://www.garmin.com/xmlschemas/TrackPointExtension/v1">
            <gpxtpx:hr>107</gpxtpx:hr>
          </gpxtpx:TrackPointExtension>
        </extensions>
      </trkpt>
      <trkpt lat="45.76328" lon="6.34354">
        <ele>461.39999389648</ele>
        <time>2020-07-05T05:13:28.000Z</time>
        <extensions>
          <gpxtpx:TrackPointExtension xmlns:gpxtpx="http://www.garmin.com/xmlschemas/TrackPointExtension/v1">
            <gpxtpx:hr>109</gpxtpx:hr>
          </gpxtpx:TrackPointExtension>
        </extensions>
      </trkpt>
      <trkpt lat="45.76335" lon="6.34363">
        <ele>461.39999389648</ele>
        <time>2020-07-05T05:13:29.000Z</time>
        <extensions>
          <gpxtpx:TrackPointExtension xmlns:gpxtpx="http://www.garmin.com/xmlschemas/TrackPointExtension/v1">
            <gpxtpx:hr>110</gpxtpx:hr>
          </gpxtpx:TrackPointExtension>
        </extensions>
      </trkpt>
      <trkpt lat="45.76344" lon="6.34386">
        <ele>461.39999389648</ele>
        <time>2020-07-05T05:13:31.000Z</time>
        <extensions>
          <gpxtpx:TrackPointExtension xmlns:gpxtpx="http://www.garmin.com/xmlschemas/TrackPointExtension/v1">
            <gpxtpx:hr>111</gpxtpx:hr>
          </gpxtpx:TrackPointExtension>
        </extensions>
      </trkpt>
      <trkpt lat="45.76348" lon="6.3441">
        <ele>461.20001220703</ele>
        <time>2020-07-05T05:13:33.000Z</time>
        <extensions>
          <gpxtpx:TrackPointExtension xmlns:gpxtpx="http://www.garmin.com/xmlschemas/TrackPointExtension/v1">
            <gpxtpx:hr>109</gpxtpx:hr>
          </gpxtpx:TrackPointExtension>
        </extensions>
      </trkpt>
      <trkpt lat="45.76355" lon="6.34448">
        <ele>460.79998779297</ele>
        <time>2020-07-05T05:13:36.000Z</time>
        <extensions>
          <gpxtpx:TrackPointExtension xmlns:gpxtpx="http://www.garmin.com/xmlschemas/TrackPointExtension/v1">
            <gpxtpx:hr>112</gpxtpx:hr>
          </gpxtpx:TrackPointExtension>
        </extensions>
      </trkpt>
      <trkpt lat="45.7636" lon="6.34472">
        <ele>460.79998779297</ele>
        <time>2020-07-05T05:13:38.000Z</time>
        <extensions>
          <gpxtpx:TrackPointExtension xmlns:gpxtpx="http://www.garmin.com/xmlschemas/TrackPointExtension/v1">
            <gpxtpx:hr>115</gpxtpx:hr>
          </gpxtpx:TrackPointExtension>
        </extensions>
      </trkpt>
      <trkpt lat="45.76362" lon="6.34484">
        <ele>461.20001220703</ele>
        <time>2020-07-05T05:13:39.000Z</time>
        <extensions>
          <gpxtpx:TrackPointExtension xmlns:gpxtpx="http://www.garmin.com/xmlschemas/TrackPointExtension/v1">
            <gpxtpx:hr>115</gpxtpx:hr>
          </gpxtpx:TrackPointExtension>
        </extensions>
      </trkpt>
      <trkpt lat="45.76367" lon="6.34508">
        <ele>462</ele>
        <time>2020-07-05T05:13:41.000Z</time>
        <extensions>
          <gpxtpx:TrackPointExtension xmlns:gpxtpx="http://www.garmin.com/xmlschemas/TrackPointExtension/v1">
            <gpxtpx:hr>118</gpxtpx:hr>
          </gpxtpx:TrackPointExtension>
        </extensions>
      </trkpt>
      <trkpt lat="45.76376" lon="6.34557">
        <ele>461.79998779297</ele>
        <time>2020-07-05T05:13:45.000Z</time>
        <extensions>
          <gpxtpx:TrackPointExtension xmlns:gpxtpx="http://www.garmin.com/xmlschemas/TrackPointExtension/v1">
            <gpxtpx:hr>115</gpxtpx:hr>
          </gpxtpx:TrackPointExtension>
        </extensions>
      </trkpt>
      <trkpt lat="45.76381" lon="6.34581">
        <ele>461.60000610352</ele>
        <time>2020-07-05T05:13:47.000Z</time>
        <extensions>
          <gpxtpx:TrackPointExtension xmlns:gpxtpx="http://www.garmin.com/xmlschemas/TrackPointExtension/v1">
            <gpxtpx:hr>112</gpxtpx:hr>
          </gpxtpx:TrackPointExtension>
        </extensions>
      </trkpt>
      <trkpt lat="45.76392" lon="6.3464">
        <ele>461.20001220703</ele>
        <time>2020-07-05T05:13:52.000Z</time>
        <extensions>
          <gpxtpx:TrackPointExtension xmlns:gpxtpx="http://www.garmin.com/xmlschemas/TrackPointExtension/v1">
            <gpxtpx:hr>112</gpxtpx:hr>
          </gpxtpx:TrackPointExtension>
        </extensions>
      </trkpt>
      <trkpt lat="45.76404" lon="6.34699">
        <ele>460.60000610352</ele>
        <time>2020-07-05T05:13:57.000Z</time>
        <extensions>
          <gpxtpx:TrackPointExtension xmlns:gpxtpx="http://www.garmin.com/xmlschemas/TrackPointExtension/v1">
            <gpxtpx:hr>109</gpxtpx:hr>
          </gpxtpx:TrackPointExtension>
        </extensions>
      </trkpt>
      <trkpt lat="45.76417" lon="6.34769">
        <ele>460.39999389648</ele>
        <time>2020-07-05T05:14:03.000Z</time>
        <extensions>
          <gpxtpx:TrackPointExtension xmlns:gpxtpx="http://www.garmin.com/xmlschemas/TrackPointExtension/v1">
            <gpxtpx:hr>108</gpxtpx:hr>
          </gpxtpx:TrackPointExtension>
        </extensions>
      </trkpt>
      <trkpt lat="45.76422" lon="6.34793">
        <ele>460.20001220703</ele>
        <time>2020-07-05T05:14:05.000Z</time>
        <extensions>
          <gpxtpx:TrackPointExtension xmlns:gpxtpx="http://www.garmin.com/xmlschemas/TrackPointExtension/v1">
            <gpxtpx:hr>106</gpxtpx:hr>
          </gpxtpx:TrackPointExtension>
        </extensions>
      </trkpt>
      <trkpt lat="45.7643" lon="6.34838">
        <ele>459</ele>
        <time>2020-07-05T05:14:09.000Z</time>
        <extensions>
          <gpxtpx:TrackPointExtension xmlns:gpxtpx="http://www.garmin.com/xmlschemas/TrackPointExtension/v1">
            <gpxtpx:hr>104</gpxtpx:hr>
          </gpxtpx:TrackPointExtension>
        </extensions>
      </trkpt>
      <trkpt lat="45.76436" lon="6.34867">
        <ele>458.39999389648</ele>
        <time>2020-07-05T05:14:12.000Z</time>
        <extensions>
          <gpxtpx:TrackPointExtension xmlns:gpxtpx="http://www.garmin.com/xmlschemas/TrackPointExtension/v1">
            <gpxtpx:hr>102</gpxtpx:hr>
          </gpxtpx:TrackPointExtension>
        </extensions>
      </trkpt>
      <trkpt lat="45.76439" lon="6.34884">
        <ele>458.20001220703</ele>
        <time>2020-07-05T05:14:14.000Z</time>
        <extensions>
          <gpxtpx:TrackPointExtension xmlns:gpxtpx="http://www.garmin.com/xmlschemas/TrackPointExtension/v1">
            <gpxtpx:hr>102</gpxtpx:hr>
          </gpxtpx:TrackPointExtension>
        </extensions>
      </trkpt>
      <trkpt lat="45.76441" lon="6.34899">
        <ele>458.20001220703</ele>
        <time>2020-07-05T05:14:16.000Z</time>
        <extensions>
          <gpxtpx:TrackPointExtension xmlns:gpxtpx="http://www.garmin.com/xmlschemas/TrackPointExtension/v1">
            <gpxtpx:hr>101</gpxtpx:hr>
          </gpxtpx:TrackPointExtension>
        </extensions>
      </trkpt>
      <trkpt lat="45.76443" lon="6.34907">
        <ele>458</ele>
        <time>2020-07-05T05:14:17.000Z</time>
        <extensions>
          <gpxtpx:TrackPointExtension xmlns:gpxtpx="http://www.garmin.com/xmlschemas/TrackPointExtension/v1">
            <gpxtpx:hr>101</gpxtpx:hr>
          </gpxtpx:TrackPointExtension>
        </extensions>
      </trkpt>
      <trkpt lat="45.76445" lon="6.34923">
        <ele>458</ele>
        <time>2020-07-05T05:14:19.000Z</time>
        <extensions>
          <gpxtpx:TrackPointExtension xmlns:gpxtpx="http://www.garmin.com/xmlschemas/TrackPointExtension/v1">
            <gpxtpx:hr>100</gpxtpx:hr>
          </gpxtpx:TrackPointExtension>
        </extensions>
      </trkpt>
      <trkpt lat="45.76447" lon="6.34933">
        <ele>458</ele>
        <time>2020-07-05T05:14:20.000Z</time>
        <extensions>
          <gpxtpx:TrackPointExtension xmlns:gpxtpx="http://www.garmin.com/xmlschemas/TrackPointExtension/v1">
            <gpxtpx:hr>100</gpxtpx:hr>
          </gpxtpx:TrackPointExtension>
        </extensions>
      </trkpt>
      <trkpt lat="45.76457" lon="6.3498">
        <ele>457.39999389648</ele>
        <time>2020-07-05T05:14:24.000Z</time>
        <extensions>
          <gpxtpx:TrackPointExtension xmlns:gpxtpx="http://www.garmin.com/xmlschemas/TrackPointExtension/v1">
            <gpxtpx:hr>98</gpxtpx:hr>
          </gpxtpx:TrackPointExtension>
        </extensions>
      </trkpt>
      <trkpt lat="45.76464" lon="6.35019">
        <ele>456.79998779297</ele>
        <time>2020-07-05T05:14:27.000Z</time>
        <extensions>
          <gpxtpx:TrackPointExtension xmlns:gpxtpx="http://www.garmin.com/xmlschemas/TrackPointExtension/v1">
            <gpxtpx:hr>96</gpxtpx:hr>
          </gpxtpx:TrackPointExtension>
        </extensions>
      </trkpt>
      <trkpt lat="45.76469" lon="6.35045">
        <ele>455.79998779297</ele>
        <time>2020-07-05T05:14:29.000Z</time>
        <extensions>
          <gpxtpx:TrackPointExtension xmlns:gpxtpx="http://www.garmin.com/xmlschemas/TrackPointExtension/v1">
            <gpxtpx:hr>92</gpxtpx:hr>
          </gpxtpx:TrackPointExtension>
        </extensions>
      </trkpt>
      <trkpt lat="45.76472" lon="6.35058">
        <ele>455.60000610352</ele>
        <time>2020-07-05T05:14:30.000Z</time>
        <extensions>
          <gpxtpx:TrackPointExtension xmlns:gpxtpx="http://www.garmin.com/xmlschemas/TrackPointExtension/v1">
            <gpxtpx:hr>91</gpxtpx:hr>
          </gpxtpx:TrackPointExtension>
        </extensions>
      </trkpt>
      <trkpt lat="45.76479" lon="6.35099">
        <ele>454.79998779297</ele>
        <time>2020-07-05T05:14:33.000Z</time>
        <extensions>
          <gpxtpx:TrackPointExtension xmlns:gpxtpx="http://www.garmin.com/xmlschemas/TrackPointExtension/v1">
            <gpxtpx:hr>88</gpxtpx:hr>
          </gpxtpx:TrackPointExtension>
        </extensions>
      </trkpt>
      <trkpt lat="45.76494" lon="6.35175">
        <ele>454.79998779297</ele>
        <time>2020-07-05T05:14:39.000Z</time>
        <extensions>
          <gpxtpx:TrackPointExtension xmlns:gpxtpx="http://www.garmin.com/xmlschemas/TrackPointExtension/v1">
            <gpxtpx:hr>85</gpxtpx:hr>
          </gpxtpx:TrackPointExtension>
        </extensions>
      </trkpt>
      <trkpt lat="45.76508" lon="6.35251">
        <ele>455.79998779297</ele>
        <time>2020-07-05T05:14:45.000Z</time>
        <extensions>
          <gpxtpx:TrackPointExtension xmlns:gpxtpx="http://www.garmin.com/xmlschemas/TrackPointExtension/v1">
            <gpxtpx:hr>86</gpxtpx:hr>
          </gpxtpx:TrackPointExtension>
        </extensions>
      </trkpt>
      <trkpt lat="45.76515" lon="6.35289">
        <ele>455.79998779297</ele>
        <time>2020-07-05T05:14:48.000Z</time>
        <extensions>
          <gpxtpx:TrackPointExtension xmlns:gpxtpx="http://www.garmin.com/xmlschemas/TrackPointExtension/v1">
            <gpxtpx:hr>86</gpxtpx:hr>
          </gpxtpx:TrackPointExtension>
        </extensions>
      </trkpt>
      <trkpt lat="45.76517" lon="6.35301">
        <ele>455.60000610352</ele>
        <time>2020-07-05T05:14:49.000Z</time>
        <extensions>
          <gpxtpx:TrackPointExtension xmlns:gpxtpx="http://www.garmin.com/xmlschemas/TrackPointExtension/v1">
            <gpxtpx:hr>89</gpxtpx:hr>
          </gpxtpx:TrackPointExtension>
        </extensions>
      </trkpt>
      <trkpt lat="45.7652" lon="6.35314">
        <ele>455.60000610352</ele>
        <time>2020-07-05T05:14:50.000Z</time>
        <extensions>
          <gpxtpx:TrackPointExtension xmlns:gpxtpx="http://www.garmin.com/xmlschemas/TrackPointExtension/v1">
            <gpxtpx:hr>92</gpxtpx:hr>
          </gpxtpx:TrackPointExtension>
        </extensions>
      </trkpt>
      <trkpt lat="45.76523" lon="6.35339">
        <ele>455.60000610352</ele>
        <time>2020-07-05T05:14:52.000Z</time>
        <extensions>
          <gpxtpx:TrackPointExtension xmlns:gpxtpx="http://www.garmin.com/xmlschemas/TrackPointExtension/v1">
            <gpxtpx:hr>97</gpxtpx:hr>
          </gpxtpx:TrackPointExtension>
        </extensions>
      </trkpt>
      <trkpt lat="45.76527" lon="6.35375">
        <ele>455.60000610352</ele>
        <time>2020-07-05T05:14:55.000Z</time>
        <extensions>
          <gpxtpx:TrackPointExtension xmlns:gpxtpx="http://www.garmin.com/xmlschemas/TrackPointExtension/v1">
            <gpxtpx:hr>98</gpxtpx:hr>
          </gpxtpx:TrackPointExtension>
        </extensions>
      </trkpt>
      <trkpt lat="45.76529" lon="6.354">
        <ele>455.60000610352</ele>
        <time>2020-07-05T05:14:57.000Z</time>
        <extensions>
          <gpxtpx:TrackPointExtension xmlns:gpxtpx="http://www.garmin.com/xmlschemas/TrackPointExtension/v1">
            <gpxtpx:hr>97</gpxtpx:hr>
          </gpxtpx:TrackPointExtension>
        </extensions>
      </trkpt>
      <trkpt lat="45.7653" lon="6.35438">
        <ele>455.20001220703</ele>
        <time>2020-07-05T05:15:00.000Z</time>
        <extensions>
          <gpxtpx:TrackPointExtension xmlns:gpxtpx="http://www.garmin.com/xmlschemas/TrackPointExtension/v1">
            <gpxtpx:hr>102</gpxtpx:hr>
          </gpxtpx:TrackPointExtension>
        </extensions>
      </trkpt>
      <trkpt lat="45.7653" lon="6.35464">
        <ele>455</ele>
        <time>2020-07-05T05:15:02.000Z</time>
        <extensions>
          <gpxtpx:TrackPointExtension xmlns:gpxtpx="http://www.garmin.com/xmlschemas/TrackPointExtension/v1">
            <gpxtpx:hr>106</gpxtpx:hr>
          </gpxtpx:TrackPointExtension>
        </extensions>
      </trkpt>
      <trkpt lat="45.76528" lon="6.35539">
        <ele>455.39999389648</ele>
        <time>2020-07-05T05:15:08.000Z</time>
        <extensions>
          <gpxtpx:TrackPointExtension xmlns:gpxtpx="http://www.garmin.com/xmlschemas/TrackPointExtension/v1">
            <gpxtpx:hr>109</gpxtpx:hr>
          </gpxtpx:TrackPointExtension>
        </extensions>
      </trkpt>
      <trkpt lat="45.76528" lon="6.35565">
        <ele>454.79998779297</ele>
        <time>2020-07-05T05:15:10.000Z</time>
        <extensions>
          <gpxtpx:TrackPointExtension xmlns:gpxtpx="http://www.garmin.com/xmlschemas/TrackPointExtension/v1">
            <gpxtpx:hr>111</gpxtpx:hr>
          </gpxtpx:TrackPointExtension>
        </extensions>
      </trkpt>
      <trkpt lat="45.76527" lon="6.35578">
        <ele>454.39999389648</ele>
        <time>2020-07-05T05:15:11.000Z</time>
        <extensions>
          <gpxtpx:TrackPointExtension xmlns:gpxtpx="http://www.garmin.com/xmlschemas/TrackPointExtension/v1">
            <gpxtpx:hr>112</gpxtpx:hr>
          </gpxtpx:TrackPointExtension>
        </extensions>
      </trkpt>
      <trkpt lat="45.76525" lon="6.35641">
        <ele>453.39999389648</ele>
        <time>2020-07-05T05:15:16.000Z</time>
        <extensions>
          <gpxtpx:TrackPointExtension xmlns:gpxtpx="http://www.garmin.com/xmlschemas/TrackPointExtension/v1">
            <gpxtpx:hr>112</gpxtpx:hr>
          </gpxtpx:TrackPointExtension>
        </extensions>
      </trkpt>
      <trkpt lat="45.76524" lon="6.35679">
        <ele>453.20001220703</ele>
        <time>2020-07-05T05:15:19.000Z</time>
        <extensions>
          <gpxtpx:TrackPointExtension xmlns:gpxtpx="http://www.garmin.com/xmlschemas/TrackPointExtension/v1">
            <gpxtpx:hr>114</gpxtpx:hr>
          </gpxtpx:TrackPointExtension>
        </extensions>
      </trkpt>
      <trkpt lat="45.76523" lon="6.35717">
        <ele>453.39999389648</ele>
        <time>2020-07-05T05:15:22.000Z</time>
        <extensions>
          <gpxtpx:TrackPointExtension xmlns:gpxtpx="http://www.garmin.com/xmlschemas/TrackPointExtension/v1">
            <gpxtpx:hr>117</gpxtpx:hr>
          </gpxtpx:TrackPointExtension>
        </extensions>
      </trkpt>
      <trkpt lat="45.76521" lon="6.35788">
        <ele>453.79998779297</ele>
        <time>2020-07-05T05:15:28.000Z</time>
        <extensions>
          <gpxtpx:TrackPointExtension xmlns:gpxtpx="http://www.garmin.com/xmlschemas/TrackPointExtension/v1">
            <gpxtpx:hr>115</gpxtpx:hr>
          </gpxtpx:TrackPointExtension>
        </extensions>
      </trkpt>
      <trkpt lat="45.76522" lon="6.35875">
        <ele>453.79998779297</ele>
        <time>2020-07-05T05:15:35.000Z</time>
        <extensions>
          <gpxtpx:TrackPointExtension xmlns:gpxtpx="http://www.garmin.com/xmlschemas/TrackPointExtension/v1">
            <gpxtpx:hr>117</gpxtpx:hr>
          </gpxtpx:TrackPointExtension>
        </extensions>
      </trkpt>
      <trkpt lat="45.76524" lon="6.35964">
        <ele>453.79998779297</ele>
        <time>2020-07-05T05:15:42.000Z</time>
        <extensions>
          <gpxtpx:TrackPointExtension xmlns:gpxtpx="http://www.garmin.com/xmlschemas/TrackPointExtension/v1">
            <gpxtpx:hr>118</gpxtpx:hr>
          </gpxtpx:TrackPointExtension>
        </extensions>
      </trkpt>
      <trkpt lat="45.76525" lon="6.36027">
        <ele>452.79998779297</ele>
        <time>2020-07-05T05:15:47.000Z</time>
        <extensions>
          <gpxtpx:TrackPointExtension xmlns:gpxtpx="http://www.garmin.com/xmlschemas/TrackPointExtension/v1">
            <gpxtpx:hr>121</gpxtpx:hr>
          </gpxtpx:TrackPointExtension>
        </extensions>
      </trkpt>
      <trkpt lat="45.76525" lon="6.36104">
        <ele>452.39999389648</ele>
        <time>2020-07-05T05:15:53.000Z</time>
        <extensions>
          <gpxtpx:TrackPointExtension xmlns:gpxtpx="http://www.garmin.com/xmlschemas/TrackPointExtension/v1">
            <gpxtpx:hr>118</gpxtpx:hr>
          </gpxtpx:TrackPointExtension>
        </extensions>
      </trkpt>
      <trkpt lat="45.76525" lon="6.36117">
        <ele>452.20001220703</ele>
        <time>2020-07-05T05:15:54.000Z</time>
        <extensions>
          <gpxtpx:TrackPointExtension xmlns:gpxtpx="http://www.garmin.com/xmlschemas/TrackPointExtension/v1">
            <gpxtpx:hr>118</gpxtpx:hr>
          </gpxtpx:TrackPointExtension>
        </extensions>
      </trkpt>
      <trkpt lat="45.76526" lon="6.36142">
        <ele>451.79998779297</ele>
        <time>2020-07-05T05:15:56.000Z</time>
        <extensions>
          <gpxtpx:TrackPointExtension xmlns:gpxtpx="http://www.garmin.com/xmlschemas/TrackPointExtension/v1">
            <gpxtpx:hr>114</gpxtpx:hr>
          </gpxtpx:TrackPointExtension>
        </extensions>
      </trkpt>
      <trkpt lat="45.76528" lon="6.36167">
        <ele>451.60000610352</ele>
        <time>2020-07-05T05:15:58.000Z</time>
        <extensions>
          <gpxtpx:TrackPointExtension xmlns:gpxtpx="http://www.garmin.com/xmlschemas/TrackPointExtension/v1">
            <gpxtpx:hr>111</gpxtpx:hr>
          </gpxtpx:TrackPointExtension>
        </extensions>
      </trkpt>
      <trkpt lat="45.76532" lon="6.36205">
        <ele>451.39999389648</ele>
        <time>2020-07-05T05:16:01.000Z</time>
        <extensions>
          <gpxtpx:TrackPointExtension xmlns:gpxtpx="http://www.garmin.com/xmlschemas/TrackPointExtension/v1">
            <gpxtpx:hr>108</gpxtpx:hr>
          </gpxtpx:TrackPointExtension>
        </extensions>
      </trkpt>
      <trkpt lat="45.76533" lon="6.36217">
        <ele>451.20001220703</ele>
        <time>2020-07-05T05:16:02.000Z</time>
        <extensions>
          <gpxtpx:TrackPointExtension xmlns:gpxtpx="http://www.garmin.com/xmlschemas/TrackPointExtension/v1">
            <gpxtpx:hr>108</gpxtpx:hr>
          </gpxtpx:TrackPointExtension>
        </extensions>
      </trkpt>
      <trkpt lat="45.76539" lon="6.36254">
        <ele>450.60000610352</ele>
        <time>2020-07-05T05:16:05.000Z</time>
        <extensions>
          <gpxtpx:TrackPointExtension xmlns:gpxtpx="http://www.garmin.com/xmlschemas/TrackPointExtension/v1">
            <gpxtpx:hr>105</gpxtpx:hr>
          </gpxtpx:TrackPointExtension>
        </extensions>
      </trkpt>
      <trkpt lat="45.76549" lon="6.36302">
        <ele>450.20001220703</ele>
        <time>2020-07-05T05:16:09.000Z</time>
        <extensions>
          <gpxtpx:TrackPointExtension xmlns:gpxtpx="http://www.garmin.com/xmlschemas/TrackPointExtension/v1">
            <gpxtpx:hr>106</gpxtpx:hr>
          </gpxtpx:TrackPointExtension>
        </extensions>
      </trkpt>
      <trkpt lat="45.7657" lon="6.36375">
        <ele>449.20001220703</ele>
        <time>2020-07-05T05:16:15.000Z</time>
        <extensions>
          <gpxtpx:TrackPointExtension xmlns:gpxtpx="http://www.garmin.com/xmlschemas/TrackPointExtension/v1">
            <gpxtpx:hr>109</gpxtpx:hr>
          </gpxtpx:TrackPointExtension>
        </extensions>
      </trkpt>
      <trkpt lat="45.76573" lon="6.36386">
        <ele>449</ele>
        <time>2020-07-05T05:16:16.000Z</time>
        <extensions>
          <gpxtpx:TrackPointExtension xmlns:gpxtpx="http://www.garmin.com/xmlschemas/TrackPointExtension/v1">
            <gpxtpx:hr>110</gpxtpx:hr>
          </gpxtpx:TrackPointExtension>
        </extensions>
      </trkpt>
      <trkpt lat="45.76595" lon="6.36444">
        <ele>449.20001220703</ele>
        <time>2020-07-05T05:16:21.000Z</time>
        <extensions>
          <gpxtpx:TrackPointExtension xmlns:gpxtpx="http://www.garmin.com/xmlschemas/TrackPointExtension/v1">
            <gpxtpx:hr>109</gpxtpx:hr>
          </gpxtpx:TrackPointExtension>
        </extensions>
      </trkpt>
      <trkpt lat="45.76604" lon="6.36467">
        <ele>448.39999389648</ele>
        <time>2020-07-05T05:16:23.000Z</time>
        <extensions>
          <gpxtpx:TrackPointExtension xmlns:gpxtpx="http://www.garmin.com/xmlschemas/TrackPointExtension/v1">
            <gpxtpx:hr>106</gpxtpx:hr>
          </gpxtpx:TrackPointExtension>
        </extensions>
      </trkpt>
      <trkpt lat="45.76621" lon="6.36514">
        <ele>448.20001220703</ele>
        <time>2020-07-05T05:16:27.000Z</time>
        <extensions>
          <gpxtpx:TrackPointExtension xmlns:gpxtpx="http://www.garmin.com/xmlschemas/TrackPointExtension/v1">
            <gpxtpx:hr>106</gpxtpx:hr>
          </gpxtpx:TrackPointExtension>
        </extensions>
      </trkpt>
      <trkpt lat="45.76625" lon="6.36525">
        <ele>448</ele>
        <time>2020-07-05T05:16:28.000Z</time>
        <extensions>
          <gpxtpx:TrackPointExtension xmlns:gpxtpx="http://www.garmin.com/xmlschemas/TrackPointExtension/v1">
            <gpxtpx:hr>107</gpxtpx:hr>
          </gpxtpx:TrackPointExtension>
        </extensions>
      </trkpt>
      <trkpt lat="45.7665" lon="6.36594">
        <ele>447.39999389648</ele>
        <time>2020-07-05T05:16:34.000Z</time>
        <extensions>
          <gpxtpx:TrackPointExtension xmlns:gpxtpx="http://www.garmin.com/xmlschemas/TrackPointExtension/v1">
            <gpxtpx:hr>110</gpxtpx:hr>
          </gpxtpx:TrackPointExtension>
        </extensions>
      </trkpt>
      <trkpt lat="45.76653" lon="6.36606">
        <ele>447.39999389648</ele>
        <time>2020-07-05T05:16:35.000Z</time>
        <extensions>
          <gpxtpx:TrackPointExtension xmlns:gpxtpx="http://www.garmin.com/xmlschemas/TrackPointExtension/v1">
            <gpxtpx:hr>110</gpxtpx:hr>
          </gpxtpx:TrackPointExtension>
        </extensions>
      </trkpt>
      <trkpt lat="45.76664" lon="6.36655">
        <ele>447</ele>
        <time>2020-07-05T05:16:39.000Z</time>
        <extensions>
          <gpxtpx:TrackPointExtension xmlns:gpxtpx="http://www.garmin.com/xmlschemas/TrackPointExtension/v1">
            <gpxtpx:hr>111</gpxtpx:hr>
          </gpxtpx:TrackPointExtension>
        </extensions>
      </trkpt>
      <trkpt lat="45.76672" lon="6.36692">
        <ele>446.39999389648</ele>
        <time>2020-07-05T05:16:42.000Z</time>
        <extensions>
          <gpxtpx:TrackPointExtension xmlns:gpxtpx="http://www.garmin.com/xmlschemas/TrackPointExtension/v1">
            <gpxtpx:hr>111</gpxtpx:hr>
          </gpxtpx:TrackPointExtension>
        </extensions>
      </trkpt>
      <trkpt lat="45.76677" lon="6.36718">
        <ele>446</ele>
        <time>2020-07-05T05:16:44.000Z</time>
        <extensions>
          <gpxtpx:TrackPointExtension xmlns:gpxtpx="http://www.garmin.com/xmlschemas/TrackPointExtension/v1">
            <gpxtpx:hr>111</gpxtpx:hr>
          </gpxtpx:TrackPointExtension>
        </extensions>
      </trkpt>
      <trkpt lat="45.76684" lon="6.36768">
        <ele>445.39999389648</ele>
        <time>2020-07-05T05:16:48.000Z</time>
        <extensions>
          <gpxtpx:TrackPointExtension xmlns:gpxtpx="http://www.garmin.com/xmlschemas/TrackPointExtension/v1">
            <gpxtpx:hr>112</gpxtpx:hr>
          </gpxtpx:TrackPointExtension>
        </extensions>
      </trkpt>
      <trkpt lat="45.76687" lon="6.36807">
        <ele>445</ele>
        <time>2020-07-05T05:16:51.000Z</time>
        <extensions>
          <gpxtpx:TrackPointExtension xmlns:gpxtpx="http://www.garmin.com/xmlschemas/TrackPointExtension/v1">
            <gpxtpx:hr>113</gpxtpx:hr>
          </gpxtpx:TrackPointExtension>
        </extensions>
      </trkpt>
      <trkpt lat="45.76689" lon="6.36847">
        <ele>444.60000610352</ele>
        <time>2020-07-05T05:16:54.000Z</time>
        <extensions>
          <gpxtpx:TrackPointExtension xmlns:gpxtpx="http://www.garmin.com/xmlschemas/TrackPointExtension/v1">
            <gpxtpx:hr>115</gpxtpx:hr>
          </gpxtpx:TrackPointExtension>
        </extensions>
      </trkpt>
      <trkpt lat="45.76689" lon="6.36886">
        <ele>444.60000610352</ele>
        <time>2020-07-05T05:16:57.000Z</time>
        <extensions>
          <gpxtpx:TrackPointExtension xmlns:gpxtpx="http://www.garmin.com/xmlschemas/TrackPointExtension/v1">
            <gpxtpx:hr>118</gpxtpx:hr>
          </gpxtpx:TrackPointExtension>
        </extensions>
      </trkpt>
      <trkpt lat="45.76688" lon="6.36939">
        <ele>444.60000610352</ele>
        <time>2020-07-05T05:17:01.000Z</time>
        <extensions>
          <gpxtpx:TrackPointExtension xmlns:gpxtpx="http://www.garmin.com/xmlschemas/TrackPointExtension/v1">
            <gpxtpx:hr>119</gpxtpx:hr>
          </gpxtpx:TrackPointExtension>
        </extensions>
      </trkpt>
      <trkpt lat="45.76686" lon="6.37019">
        <ele>444.20001220703</ele>
        <time>2020-07-05T05:17:07.000Z</time>
        <extensions>
          <gpxtpx:TrackPointExtension xmlns:gpxtpx="http://www.garmin.com/xmlschemas/TrackPointExtension/v1">
            <gpxtpx:hr>120</gpxtpx:hr>
          </gpxtpx:TrackPointExtension>
        </extensions>
      </trkpt>
      <trkpt lat="45.76686" lon="6.37045">
        <ele>444.20001220703</ele>
        <time>2020-07-05T05:17:09.000Z</time>
        <extensions>
          <gpxtpx:TrackPointExtension xmlns:gpxtpx="http://www.garmin.com/xmlschemas/TrackPointExtension/v1">
            <gpxtpx:hr>120</gpxtpx:hr>
          </gpxtpx:TrackPointExtension>
        </extensions>
      </trkpt>
      <trkpt lat="45.76685" lon="6.37084">
        <ele>443.79998779297</ele>
        <time>2020-07-05T05:17:12.000Z</time>
        <extensions>
          <gpxtpx:TrackPointExtension xmlns:gpxtpx="http://www.garmin.com/xmlschemas/TrackPointExtension/v1">
            <gpxtpx:hr>119</gpxtpx:hr>
          </gpxtpx:TrackPointExtension>
        </extensions>
      </trkpt>
      <trkpt lat="45.76685" lon="6.37112">
        <ele>443.39999389648</ele>
        <time>2020-07-05T05:17:14.000Z</time>
        <extensions>
          <gpxtpx:TrackPointExtension xmlns:gpxtpx="http://www.garmin.com/xmlschemas/TrackPointExtension/v1">
            <gpxtpx:hr>117</gpxtpx:hr>
          </gpxtpx:TrackPointExtension>
        </extensions>
      </trkpt>
      <trkpt lat="45.76685" lon="6.37138">
        <ele>443.20001220703</ele>
        <time>2020-07-05T05:17:16.000Z</time>
        <extensions>
          <gpxtpx:TrackPointExtension xmlns:gpxtpx="http://www.garmin.com/xmlschemas/TrackPointExtension/v1">
            <gpxtpx:hr>117</gpxtpx:hr>
          </gpxtpx:TrackPointExtension>
        </extensions>
      </trkpt>
      <trkpt lat="45.76682" lon="6.37205">
        <ele>443.39999389648</ele>
        <time>2020-07-05T05:17:21.000Z</time>
        <extensions>
          <gpxtpx:TrackPointExtension xmlns:gpxtpx="http://www.garmin.com/xmlschemas/TrackPointExtension/v1">
            <gpxtpx:hr>113</gpxtpx:hr>
          </gpxtpx:TrackPointExtension>
        </extensions>
      </trkpt>
      <trkpt lat="45.76682" lon="6.37231">
        <ele>443.20001220703</ele>
        <time>2020-07-05T05:17:23.000Z</time>
        <extensions>
          <gpxtpx:TrackPointExtension xmlns:gpxtpx="http://www.garmin.com/xmlschemas/TrackPointExtension/v1">
            <gpxtpx:hr>110</gpxtpx:hr>
          </gpxtpx:TrackPointExtension>
        </extensions>
      </trkpt>
      <trkpt lat="45.76682" lon="6.37258">
        <ele>443</ele>
        <time>2020-07-05T05:17:25.000Z</time>
        <extensions>
          <gpxtpx:TrackPointExtension xmlns:gpxtpx="http://www.garmin.com/xmlschemas/TrackPointExtension/v1">
            <gpxtpx:hr>108</gpxtpx:hr>
          </gpxtpx:TrackPointExtension>
        </extensions>
      </trkpt>
      <trkpt lat="45.76681" lon="6.37298">
        <ele>442.60000610352</ele>
        <time>2020-07-05T05:17:28.000Z</time>
        <extensions>
          <gpxtpx:TrackPointExtension xmlns:gpxtpx="http://www.garmin.com/xmlschemas/TrackPointExtension/v1">
            <gpxtpx:hr>105</gpxtpx:hr>
          </gpxtpx:TrackPointExtension>
        </extensions>
      </trkpt>
      <trkpt lat="45.76681" lon="6.37337">
        <ele>442.20001220703</ele>
        <time>2020-07-05T05:17:31.000Z</time>
        <extensions>
          <gpxtpx:TrackPointExtension xmlns:gpxtpx="http://www.garmin.com/xmlschemas/TrackPointExtension/v1">
            <gpxtpx:hr>108</gpxtpx:hr>
          </gpxtpx:TrackPointExtension>
        </extensions>
      </trkpt>
      <trkpt lat="45.76681" lon="6.37363">
        <ele>441.20001220703</ele>
        <time>2020-07-05T05:17:33.000Z</time>
        <extensions>
          <gpxtpx:TrackPointExtension xmlns:gpxtpx="http://www.garmin.com/xmlschemas/TrackPointExtension/v1">
            <gpxtpx:hr>107</gpxtpx:hr>
          </gpxtpx:TrackPointExtension>
        </extensions>
      </trkpt>
      <trkpt lat="45.76681" lon="6.37377">
        <ele>441.20001220703</ele>
        <time>2020-07-05T05:17:34.000Z</time>
        <extensions>
          <gpxtpx:TrackPointExtension xmlns:gpxtpx="http://www.garmin.com/xmlschemas/TrackPointExtension/v1">
            <gpxtpx:hr>106</gpxtpx:hr>
          </gpxtpx:TrackPointExtension>
        </extensions>
      </trkpt>
      <trkpt lat="45.7668" lon="6.37455">
        <ele>441</ele>
        <time>2020-07-05T05:17:40.000Z</time>
        <extensions>
          <gpxtpx:TrackPointExtension xmlns:gpxtpx="http://www.garmin.com/xmlschemas/TrackPointExtension/v1">
            <gpxtpx:hr>104</gpxtpx:hr>
          </gpxtpx:TrackPointExtension>
        </extensions>
      </trkpt>
      <trkpt lat="45.76681" lon="6.37493">
        <ele>440.60000610352</ele>
        <time>2020-07-05T05:17:43.000Z</time>
        <extensions>
          <gpxtpx:TrackPointExtension xmlns:gpxtpx="http://www.garmin.com/xmlschemas/TrackPointExtension/v1">
            <gpxtpx:hr>102</gpxtpx:hr>
          </gpxtpx:TrackPointExtension>
        </extensions>
      </trkpt>
      <trkpt lat="45.7668" lon="6.37519">
        <ele>440.60000610352</ele>
        <time>2020-07-05T05:17:45.000Z</time>
        <extensions>
          <gpxtpx:TrackPointExtension xmlns:gpxtpx="http://www.garmin.com/xmlschemas/TrackPointExtension/v1">
            <gpxtpx:hr>105</gpxtpx:hr>
          </gpxtpx:TrackPointExtension>
        </extensions>
      </trkpt>
      <trkpt lat="45.76679" lon="6.37559">
        <ele>440.20001220703</ele>
        <time>2020-07-05T05:17:48.000Z</time>
        <extensions>
          <gpxtpx:TrackPointExtension xmlns:gpxtpx="http://www.garmin.com/xmlschemas/TrackPointExtension/v1">
            <gpxtpx:hr>108</gpxtpx:hr>
          </gpxtpx:TrackPointExtension>
        </extensions>
      </trkpt>
      <trkpt lat="45.76679" lon="6.37598">
        <ele>439.79998779297</ele>
        <time>2020-07-05T05:17:51.000Z</time>
        <extensions>
          <gpxtpx:TrackPointExtension xmlns:gpxtpx="http://www.garmin.com/xmlschemas/TrackPointExtension/v1">
            <gpxtpx:hr>111</gpxtpx:hr>
          </gpxtpx:TrackPointExtension>
        </extensions>
      </trkpt>
      <trkpt lat="45.76677" lon="6.37664">
        <ele>439.39999389648</ele>
        <time>2020-07-05T05:17:56.000Z</time>
        <extensions>
          <gpxtpx:TrackPointExtension xmlns:gpxtpx="http://www.garmin.com/xmlschemas/TrackPointExtension/v1">
            <gpxtpx:hr>112</gpxtpx:hr>
          </gpxtpx:TrackPointExtension>
        </extensions>
      </trkpt>
      <trkpt lat="45.76676" lon="6.3769">
        <ele>439.20001220703</ele>
        <time>2020-07-05T05:17:58.000Z</time>
        <extensions>
          <gpxtpx:TrackPointExtension xmlns:gpxtpx="http://www.garmin.com/xmlschemas/TrackPointExtension/v1">
            <gpxtpx:hr>112</gpxtpx:hr>
          </gpxtpx:TrackPointExtension>
        </extensions>
      </trkpt>
      <trkpt lat="45.76672" lon="6.37755">
        <ele>440</ele>
        <time>2020-07-05T05:18:03.000Z</time>
        <extensions>
          <gpxtpx:TrackPointExtension xmlns:gpxtpx="http://www.garmin.com/xmlschemas/TrackPointExtension/v1">
            <gpxtpx:hr>108</gpxtpx:hr>
          </gpxtpx:TrackPointExtension>
        </extensions>
      </trkpt>
      <trkpt lat="45.76671" lon="6.37768">
        <ele>440.20001220703</ele>
        <time>2020-07-05T05:18:04.000Z</time>
        <extensions>
          <gpxtpx:TrackPointExtension xmlns:gpxtpx="http://www.garmin.com/xmlschemas/TrackPointExtension/v1">
            <gpxtpx:hr>109</gpxtpx:hr>
          </gpxtpx:TrackPointExtension>
        </extensions>
      </trkpt>
      <trkpt lat="45.76665" lon="6.37822">
        <ele>438.20001220703</ele>
        <time>2020-07-05T05:18:08.000Z</time>
        <extensions>
          <gpxtpx:TrackPointExtension xmlns:gpxtpx="http://www.garmin.com/xmlschemas/TrackPointExtension/v1">
            <gpxtpx:hr>112</gpxtpx:hr>
          </gpxtpx:TrackPointExtension>
        </extensions>
      </trkpt>
      <trkpt lat="45.76663" lon="6.37835">
        <ele>438</ele>
        <time>2020-07-05T05:18:09.000Z</time>
        <extensions>
          <gpxtpx:TrackPointExtension xmlns:gpxtpx="http://www.garmin.com/xmlschemas/TrackPointExtension/v1">
            <gpxtpx:hr>112</gpxtpx:hr>
          </gpxtpx:TrackPointExtension>
        </extensions>
      </trkpt>
      <trkpt lat="45.7666" lon="6.37861">
        <ele>438</ele>
        <time>2020-07-05T05:18:11.000Z</time>
        <extensions>
          <gpxtpx:TrackPointExtension xmlns:gpxtpx="http://www.garmin.com/xmlschemas/TrackPointExtension/v1">
            <gpxtpx:hr>113</gpxtpx:hr>
          </gpxtpx:TrackPointExtension>
        </extensions>
      </trkpt>
      <trkpt lat="45.76647" lon="6.37925">
        <ele>438.20001220703</ele>
        <time>2020-07-05T05:18:16.000Z</time>
        <extensions>
          <gpxtpx:TrackPointExtension xmlns:gpxtpx="http://www.garmin.com/xmlschemas/TrackPointExtension/v1">
            <gpxtpx:hr>116</gpxtpx:hr>
          </gpxtpx:TrackPointExtension>
        </extensions>
      </trkpt>
      <trkpt lat="45.76641" lon="6.3795">
        <ele>438</ele>
        <time>2020-07-05T05:18:18.000Z</time>
        <extensions>
          <gpxtpx:TrackPointExtension xmlns:gpxtpx="http://www.garmin.com/xmlschemas/TrackPointExtension/v1">
            <gpxtpx:hr>117</gpxtpx:hr>
          </gpxtpx:TrackPointExtension>
        </extensions>
      </trkpt>
      <trkpt lat="45.76629" lon="6.38">
        <ele>437.79998779297</ele>
        <time>2020-07-05T05:18:22.000Z</time>
        <extensions>
          <gpxtpx:TrackPointExtension xmlns:gpxtpx="http://www.garmin.com/xmlschemas/TrackPointExtension/v1">
            <gpxtpx:hr>120</gpxtpx:hr>
          </gpxtpx:TrackPointExtension>
        </extensions>
      </trkpt>
      <trkpt lat="45.76611" lon="6.38059">
        <ele>437.39999389648</ele>
        <time>2020-07-05T05:18:27.000Z</time>
        <extensions>
          <gpxtpx:TrackPointExtension xmlns:gpxtpx="http://www.garmin.com/xmlschemas/TrackPointExtension/v1">
            <gpxtpx:hr>120</gpxtpx:hr>
          </gpxtpx:TrackPointExtension>
        </extensions>
      </trkpt>
      <trkpt lat="45.76603" lon="6.38084">
        <ele>437.39999389648</ele>
        <time>2020-07-05T05:18:29.000Z</time>
        <extensions>
          <gpxtpx:TrackPointExtension xmlns:gpxtpx="http://www.garmin.com/xmlschemas/TrackPointExtension/v1">
            <gpxtpx:hr>117</gpxtpx:hr>
          </gpxtpx:TrackPointExtension>
        </extensions>
      </trkpt>
      <trkpt lat="45.76594" lon="6.38108">
        <ele>438</ele>
        <time>2020-07-05T05:18:31.000Z</time>
        <extensions>
          <gpxtpx:TrackPointExtension xmlns:gpxtpx="http://www.garmin.com/xmlschemas/TrackPointExtension/v1">
            <gpxtpx:hr>114</gpxtpx:hr>
          </gpxtpx:TrackPointExtension>
        </extensions>
      </trkpt>
      <trkpt lat="45.76576" lon="6.38157">
        <ele>438.20001220703</ele>
        <time>2020-07-05T05:18:36.000Z</time>
        <extensions>
          <gpxtpx:TrackPointExtension xmlns:gpxtpx="http://www.garmin.com/xmlschemas/TrackPointExtension/v1">
            <gpxtpx:hr>111</gpxtpx:hr>
          </gpxtpx:TrackPointExtension>
        </extensions>
      </trkpt>
      <trkpt lat="45.76574" lon="6.38163">
        <ele>438.39999389648</ele>
        <time>2020-07-05T05:18:37.000Z</time>
        <extensions>
          <gpxtpx:TrackPointExtension xmlns:gpxtpx="http://www.garmin.com/xmlschemas/TrackPointExtension/v1">
            <gpxtpx:hr>110</gpxtpx:hr>
          </gpxtpx:TrackPointExtension>
        </extensions>
      </trkpt>
      <trkpt lat="45.76573" lon="6.38169">
        <ele>438.39999389648</ele>
        <time>2020-07-05T05:18:38.000Z</time>
        <extensions>
          <gpxtpx:TrackPointExtension xmlns:gpxtpx="http://www.garmin.com/xmlschemas/TrackPointExtension/v1">
            <gpxtpx:hr>109</gpxtpx:hr>
          </gpxtpx:TrackPointExtension>
        </extensions>
      </trkpt>
      <trkpt lat="45.76573" lon="6.38174">
        <ele>438.39999389648</ele>
        <time>2020-07-05T05:18:39.000Z</time>
        <extensions>
          <gpxtpx:TrackPointExtension xmlns:gpxtpx="http://www.garmin.com/xmlschemas/TrackPointExtension/v1">
            <gpxtpx:hr>108</gpxtpx:hr>
          </gpxtpx:TrackPointExtension>
        </extensions>
      </trkpt>
      <trkpt lat="45.76582" lon="6.38183">
        <ele>438.39999389648</ele>
        <time>2020-07-05T05:18:42.000Z</time>
        <extensions>
          <gpxtpx:TrackPointExtension xmlns:gpxtpx="http://www.garmin.com/xmlschemas/TrackPointExtension/v1">
            <gpxtpx:hr>106</gpxtpx:hr>
          </gpxtpx:TrackPointExtension>
        </extensions>
      </trkpt>
      <trkpt lat="45.76607" lon="6.38204">
        <ele>438</ele>
        <time>2020-07-05T05:18:48.000Z</time>
        <extensions>
          <gpxtpx:TrackPointExtension xmlns:gpxtpx="http://www.garmin.com/xmlschemas/TrackPointExtension/v1">
            <gpxtpx:hr>107</gpxtpx:hr>
          </gpxtpx:TrackPointExtension>
        </extensions>
      </trkpt>
      <trkpt lat="45.76608" lon="6.38205">
        <ele>438</ele>
        <time>2020-07-05T05:18:49.000Z</time>
        <extensions>
          <gpxtpx:TrackPointExtension xmlns:gpxtpx="http://www.garmin.com/xmlschemas/TrackPointExtension/v1">
            <gpxtpx:hr>106</gpxtpx:hr>
          </gpxtpx:TrackPointExtension>
        </extensions>
      </trkpt>
      <trkpt lat="45.76608" lon="6.38204">
        <ele>439.20001220703</ele>
        <time>2020-07-05T05:18:53.000Z</time>
        <extensions>
          <gpxtpx:TrackPointExtension xmlns:gpxtpx="http://www.garmin.com/xmlschemas/TrackPointExtension/v1">
            <gpxtpx:hr>104</gpxtpx:hr>
          </gpxtpx:TrackPointExtension>
        </extensions>
      </trkpt>
      <trkpt lat="45.76609" lon="6.38206">
        <ele>439.60000610352</ele>
        <time>2020-07-05T05:18:57.000Z</time>
        <extensions>
          <gpxtpx:TrackPointExtension xmlns:gpxtpx="http://www.garmin.com/xmlschemas/TrackPointExtension/v1">
            <gpxtpx:hr>101</gpxtpx:hr>
          </gpxtpx:TrackPointExtension>
        </extensions>
      </trkpt>
      <trkpt lat="45.76609" lon="6.38206">
        <ele>439.60000610352</ele>
        <time>2020-07-05T05:18:59.000Z</time>
        <extensions>
          <gpxtpx:TrackPointExtension xmlns:gpxtpx="http://www.garmin.com/xmlschemas/TrackPointExtension/v1">
            <gpxtpx:hr>101</gpxtpx:hr>
          </gpxtpx:TrackPointExtension>
        </extensions>
      </trkpt>
      <trkpt lat="45.7661" lon="6.38206">
        <ele>439.39999389648</ele>
        <time>2020-07-05T05:19:05.000Z</time>
        <extensions>
          <gpxtpx:TrackPointExtension xmlns:gpxtpx="http://www.garmin.com/xmlschemas/TrackPointExtension/v1">
            <gpxtpx:hr>98</gpxtpx:hr>
          </gpxtpx:TrackPointExtension>
        </extensions>
      </trkpt>
      <trkpt lat="45.7661" lon="6.38206">
        <ele>439.39999389648</ele>
        <time>2020-07-05T05:19:09.000Z</time>
        <extensions>
          <gpxtpx:TrackPointExtension xmlns:gpxtpx="http://www.garmin.com/xmlschemas/TrackPointExtension/v1">
            <gpxtpx:hr>94</gpxtpx:hr>
          </gpxtpx:TrackPointExtension>
        </extensions>
      </trkpt>
      <trkpt lat="45.7661" lon="6.38206">
        <ele>439.39999389648</ele>
        <time>2020-07-05T05:19:11.000Z</time>
        <extensions>
          <gpxtpx:TrackPointExtension xmlns:gpxtpx="http://www.garmin.com/xmlschemas/TrackPointExtension/v1">
            <gpxtpx:hr>94</gpxtpx:hr>
          </gpxtpx:TrackPointExtension>
        </extensions>
      </trkpt>
      <trkpt lat="45.7661" lon="6.38205">
        <ele>439.20001220703</ele>
        <time>2020-07-05T05:19:37.000Z</time>
        <extensions>
          <gpxtpx:TrackPointExtension xmlns:gpxtpx="http://www.garmin.com/xmlschemas/TrackPointExtension/v1">
            <gpxtpx:hr>91</gpxtpx:hr>
          </gpxtpx:TrackPointExtension>
        </extensions>
      </trkpt>
      <trkpt lat="45.7661" lon="6.38206">
        <ele>439.39999389648</ele>
        <time>2020-07-05T05:19:43.000Z</time>
        <extensions>
          <gpxtpx:TrackPointExtension xmlns:gpxtpx="http://www.garmin.com/xmlschemas/TrackPointExtension/v1">
            <gpxtpx:hr>90</gpxtpx:hr>
          </gpxtpx:TrackPointExtension>
        </extensions>
      </trkpt>
      <trkpt lat="45.7661" lon="6.38206">
        <ele>439.39999389648</ele>
        <time>2020-07-05T05:19:50.000Z</time>
        <extensions>
          <gpxtpx:TrackPointExtension xmlns:gpxtpx="http://www.garmin.com/xmlschemas/TrackPointExtension/v1">
            <gpxtpx:hr>94</gpxtpx:hr>
          </gpxtpx:TrackPointExtension>
        </extensions>
      </trkpt>
      <trkpt lat="45.7661" lon="6.38207">
        <ele>439.39999389648</ele>
        <time>2020-07-05T05:19:55.000Z</time>
        <extensions>
          <gpxtpx:TrackPointExtension xmlns:gpxtpx="http://www.garmin.com/xmlschemas/TrackPointExtension/v1">
            <gpxtpx:hr>97</gpxtpx:hr>
          </gpxtpx:TrackPointExtension>
        </extensions>
      </trkpt>
      <trkpt lat="45.76611" lon="6.38207">
        <ele>439.39999389648</ele>
        <time>2020-07-05T05:20:11.000Z</time>
        <extensions>
          <gpxtpx:TrackPointExtension xmlns:gpxtpx="http://www.garmin.com/xmlschemas/TrackPointExtension/v1">
            <gpxtpx:hr>95</gpxtpx:hr>
          </gpxtpx:TrackPointExtension>
        </extensions>
      </trkpt>
      <trkpt lat="45.76611" lon="6.38207">
        <ele>439.39999389648</ele>
        <time>2020-07-05T05:20:18.000Z</time>
        <extensions>
          <gpxtpx:TrackPointExtension xmlns:gpxtpx="http://www.garmin.com/xmlschemas/TrackPointExtension/v1">
            <gpxtpx:hr>94</gpxtpx:hr>
          </gpxtpx:TrackPointExtension>
        </extensions>
      </trkpt>
      <trkpt lat="45.76612" lon="6.38207">
        <ele>439.39999389648</ele>
        <time>2020-07-05T05:20:30.000Z</time>
        <extensions>
          <gpxtpx:TrackPointExtension xmlns:gpxtpx="http://www.garmin.com/xmlschemas/TrackPointExtension/v1">
            <gpxtpx:hr>97</gpxtpx:hr>
          </gpxtpx:TrackPointExtension>
        </extensions>
      </trkpt>
      <trkpt lat="45.76612" lon="6.38207">
        <ele>439.39999389648</ele>
        <time>2020-07-05T05:20:32.000Z</time>
        <extensions>
          <gpxtpx:TrackPointExtension xmlns:gpxtpx="http://www.garmin.com/xmlschemas/TrackPointExtension/v1">
            <gpxtpx:hr>99</gpxtpx:hr>
          </gpxtpx:TrackPointExtension>
        </extensions>
      </trkpt>
      <trkpt lat="45.76617" lon="6.38209">
        <ele>439.39999389648</ele>
        <time>2020-07-05T05:20:34.000Z</time>
        <extensions>
          <gpxtpx:TrackPointExtension xmlns:gpxtpx="http://www.garmin.com/xmlschemas/TrackPointExtension/v1">
            <gpxtpx:hr>98</gpxtpx:hr>
          </gpxtpx:TrackPointExtension>
        </extensions>
      </trkpt>
      <trkpt lat="45.76633" lon="6.38226">
        <ele>439.60000610352</ele>
        <time>2020-07-05T05:20:40.000Z</time>
        <extensions>
          <gpxtpx:TrackPointExtension xmlns:gpxtpx="http://www.garmin.com/xmlschemas/TrackPointExtension/v1">
            <gpxtpx:hr>96</gpxtpx:hr>
          </gpxtpx:TrackPointExtension>
        </extensions>
      </trkpt>
      <trkpt lat="45.76644" lon="6.38238">
        <ele>440.20001220703</ele>
        <time>2020-07-05T05:20:44.000Z</time>
        <extensions>
          <gpxtpx:TrackPointExtension xmlns:gpxtpx="http://www.garmin.com/xmlschemas/TrackPointExtension/v1">
            <gpxtpx:hr>94</gpxtpx:hr>
          </gpxtpx:TrackPointExtension>
        </extensions>
      </trkpt>
      <trkpt lat="45.7665" lon="6.38245">
        <ele>440.39999389648</ele>
        <time>2020-07-05T05:20:46.000Z</time>
        <extensions>
          <gpxtpx:TrackPointExtension xmlns:gpxtpx="http://www.garmin.com/xmlschemas/TrackPointExtension/v1">
            <gpxtpx:hr>95</gpxtpx:hr>
          </gpxtpx:TrackPointExtension>
        </extensions>
      </trkpt>
      <trkpt lat="45.76656" lon="6.38253">
        <ele>440.79998779297</ele>
        <time>2020-07-05T05:20:48.000Z</time>
        <extensions>
          <gpxtpx:TrackPointExtension xmlns:gpxtpx="http://www.garmin.com/xmlschemas/TrackPointExtension/v1">
            <gpxtpx:hr>99</gpxtpx:hr>
          </gpxtpx:TrackPointExtension>
        </extensions>
      </trkpt>
      <trkpt lat="45.76659" lon="6.38256">
        <ele>441</ele>
        <time>2020-07-05T05:20:49.000Z</time>
        <extensions>
          <gpxtpx:TrackPointExtension xmlns:gpxtpx="http://www.garmin.com/xmlschemas/TrackPointExtension/v1">
            <gpxtpx:hr>102</gpxtpx:hr>
          </gpxtpx:TrackPointExtension>
        </extensions>
      </trkpt>
      <trkpt lat="45.76662" lon="6.38259">
        <ele>441.39999389648</ele>
        <time>2020-07-05T05:20:50.000Z</time>
        <extensions>
          <gpxtpx:TrackPointExtension xmlns:gpxtpx="http://www.garmin.com/xmlschemas/TrackPointExtension/v1">
            <gpxtpx:hr>104</gpxtpx:hr>
          </gpxtpx:TrackPointExtension>
        </extensions>
      </trkpt>
      <trkpt lat="45.76668" lon="6.38266">
        <ele>442.20001220703</ele>
        <time>2020-07-05T05:20:52.000Z</time>
        <extensions>
          <gpxtpx:TrackPointExtension xmlns:gpxtpx="http://www.garmin.com/xmlschemas/TrackPointExtension/v1">
            <gpxtpx:hr>108</gpxtpx:hr>
          </gpxtpx:TrackPointExtension>
        </extensions>
      </trkpt>
      <trkpt lat="45.76673" lon="6.38274">
        <ele>442.39999389648</ele>
        <time>2020-07-05T05:20:54.000Z</time>
        <extensions>
          <gpxtpx:TrackPointExtension xmlns:gpxtpx="http://www.garmin.com/xmlschemas/TrackPointExtension/v1">
            <gpxtpx:hr>110</gpxtpx:hr>
          </gpxtpx:TrackPointExtension>
        </extensions>
      </trkpt>
      <trkpt lat="45.76676" lon="6.38278">
        <ele>442.60000610352</ele>
        <time>2020-07-05T05:20:55.000Z</time>
        <extensions>
          <gpxtpx:TrackPointExtension xmlns:gpxtpx="http://www.garmin.com/xmlschemas/TrackPointExtension/v1">
            <gpxtpx:hr>113</gpxtpx:hr>
          </gpxtpx:TrackPointExtension>
        </extensions>
      </trkpt>
      <trkpt lat="45.76682" lon="6.38286">
        <ele>443.20001220703</ele>
        <time>2020-07-05T05:20:57.000Z</time>
        <extensions>
          <gpxtpx:TrackPointExtension xmlns:gpxtpx="http://www.garmin.com/xmlschemas/TrackPointExtension/v1">
            <gpxtpx:hr>117</gpxtpx:hr>
          </gpxtpx:TrackPointExtension>
        </extensions>
      </trkpt>
      <trkpt lat="45.76685" lon="6.3829">
        <ele>443.60000610352</ele>
        <time>2020-07-05T05:20:58.000Z</time>
        <extensions>
          <gpxtpx:TrackPointExtension xmlns:gpxtpx="http://www.garmin.com/xmlschemas/TrackPointExtension/v1">
            <gpxtpx:hr>119</gpxtpx:hr>
          </gpxtpx:TrackPointExtension>
        </extensions>
      </trkpt>
      <trkpt lat="45.76693" lon="6.38301">
        <ele>444.39999389648</ele>
        <time>2020-07-05T05:21:01.000Z</time>
        <extensions>
          <gpxtpx:TrackPointExtension xmlns:gpxtpx="http://www.garmin.com/xmlschemas/TrackPointExtension/v1">
            <gpxtpx:hr>123</gpxtpx:hr>
          </gpxtpx:TrackPointExtension>
        </extensions>
      </trkpt>
      <trkpt lat="45.76696" lon="6.38305">
        <ele>444.79998779297</ele>
        <time>2020-07-05T05:21:02.000Z</time>
        <extensions>
          <gpxtpx:TrackPointExtension xmlns:gpxtpx="http://www.garmin.com/xmlschemas/TrackPointExtension/v1">
            <gpxtpx:hr>124</gpxtpx:hr>
          </gpxtpx:TrackPointExtension>
        </extensions>
      </trkpt>
      <trkpt lat="45.76704" lon="6.38317">
        <ele>445.79998779297</ele>
        <time>2020-07-05T05:21:05.000Z</time>
        <extensions>
          <gpxtpx:TrackPointExtension xmlns:gpxtpx="http://www.garmin.com/xmlschemas/TrackPointExtension/v1">
            <gpxtpx:hr>126</gpxtpx:hr>
          </gpxtpx:TrackPointExtension>
        </extensions>
      </trkpt>
      <trkpt lat="45.76706" lon="6.3832">
        <ele>446.20001220703</ele>
        <time>2020-07-05T05:21:06.000Z</time>
        <extensions>
          <gpxtpx:TrackPointExtension xmlns:gpxtpx="http://www.garmin.com/xmlschemas/TrackPointExtension/v1">
            <gpxtpx:hr>127</gpxtpx:hr>
          </gpxtpx:TrackPointExtension>
        </extensions>
      </trkpt>
      <trkpt lat="45.76717" lon="6.38335">
        <ele>447.20001220703</ele>
        <time>2020-07-05T05:21:10.000Z</time>
        <extensions>
          <gpxtpx:TrackPointExtension xmlns:gpxtpx="http://www.garmin.com/xmlschemas/TrackPointExtension/v1">
            <gpxtpx:hr>129</gpxtpx:hr>
          </gpxtpx:TrackPointExtension>
        </extensions>
      </trkpt>
      <trkpt lat="45.76728" lon="6.38349">
        <ele>448.60000610352</ele>
        <time>2020-07-05T05:21:14.000Z</time>
        <extensions>
          <gpxtpx:TrackPointExtension xmlns:gpxtpx="http://www.garmin.com/xmlschemas/TrackPointExtension/v1">
            <gpxtpx:hr>130</gpxtpx:hr>
          </gpxtpx:TrackPointExtension>
        </extensions>
      </trkpt>
      <trkpt lat="45.7673" lon="6.38352">
        <ele>449</ele>
        <time>2020-07-05T05:21:15.000Z</time>
        <extensions>
          <gpxtpx:TrackPointExtension xmlns:gpxtpx="http://www.garmin.com/xmlschemas/TrackPointExtension/v1">
            <gpxtpx:hr>130</gpxtpx:hr>
          </gpxtpx:TrackPointExtension>
        </extensions>
      </trkpt>
      <trkpt lat="45.76736" lon="6.38359">
        <ele>449.60000610352</ele>
        <time>2020-07-05T05:21:17.000Z</time>
        <extensions>
          <gpxtpx:TrackPointExtension xmlns:gpxtpx="http://www.garmin.com/xmlschemas/TrackPointExtension/v1">
            <gpxtpx:hr>131</gpxtpx:hr>
          </gpxtpx:TrackPointExtension>
        </extensions>
      </trkpt>
      <trkpt lat="45.76748" lon="6.38377">
        <ele>450.60000610352</ele>
        <time>2020-07-05T05:21:22.000Z</time>
        <extensions>
          <gpxtpx:TrackPointExtension xmlns:gpxtpx="http://www.garmin.com/xmlschemas/TrackPointExtension/v1">
            <gpxtpx:hr>131</gpxtpx:hr>
          </gpxtpx:TrackPointExtension>
        </extensions>
      </trkpt>
      <trkpt lat="45.76756" lon="6.38393">
        <ele>452</ele>
        <time>2020-07-05T05:21:26.000Z</time>
        <extensions>
          <gpxtpx:TrackPointExtension xmlns:gpxtpx="http://www.garmin.com/xmlschemas/TrackPointExtension/v1">
            <gpxtpx:hr>133</gpxtpx:hr>
          </gpxtpx:TrackPointExtension>
        </extensions>
      </trkpt>
      <trkpt lat="45.76759" lon="6.38399">
        <ele>452.79998779297</ele>
        <time>2020-07-05T05:21:28.000Z</time>
        <extensions>
          <gpxtpx:TrackPointExtension xmlns:gpxtpx="http://www.garmin.com/xmlschemas/TrackPointExtension/v1">
            <gpxtpx:hr>136</gpxtpx:hr>
          </gpxtpx:TrackPointExtension>
        </extensions>
      </trkpt>
      <trkpt lat="45.7676" lon="6.38402">
        <ele>453.20001220703</ele>
        <time>2020-07-05T05:21:29.000Z</time>
        <extensions>
          <gpxtpx:TrackPointExtension xmlns:gpxtpx="http://www.garmin.com/xmlschemas/TrackPointExtension/v1">
            <gpxtpx:hr>134</gpxtpx:hr>
          </gpxtpx:TrackPointExtension>
        </extensions>
      </trkpt>
      <trkpt lat="45.76767" lon="6.38416">
        <ele>454.39999389648</ele>
        <time>2020-07-05T05:21:33.000Z</time>
        <extensions>
          <gpxtpx:TrackPointExtension xmlns:gpxtpx="http://www.garmin.com/xmlschemas/TrackPointExtension/v1">
            <gpxtpx:hr>135</gpxtpx:hr>
          </gpxtpx:TrackPointExtension>
        </extensions>
      </trkpt>
      <trkpt lat="45.76773" lon="6.3843">
        <ele>455.60000610352</ele>
        <time>2020-07-05T05:21:37.000Z</time>
        <extensions>
          <gpxtpx:TrackPointExtension xmlns:gpxtpx="http://www.garmin.com/xmlschemas/TrackPointExtension/v1">
            <gpxtpx:hr>137</gpxtpx:hr>
          </gpxtpx:TrackPointExtension>
        </extensions>
      </trkpt>
      <trkpt lat="45.76774" lon="6.38434">
        <ele>456</ele>
        <time>2020-07-05T05:21:38.000Z</time>
        <extensions>
          <gpxtpx:TrackPointExtension xmlns:gpxtpx="http://www.garmin.com/xmlschemas/TrackPointExtension/v1">
            <gpxtpx:hr>137</gpxtpx:hr>
          </gpxtpx:TrackPointExtension>
        </extensions>
      </trkpt>
      <trkpt lat="45.76777" lon="6.38441">
        <ele>456.79998779297</ele>
        <time>2020-07-05T05:21:40.000Z</time>
        <extensions>
          <gpxtpx:TrackPointExtension xmlns:gpxtpx="http://www.garmin.com/xmlschemas/TrackPointExtension/v1">
            <gpxtpx:hr>138</gpxtpx:hr>
          </gpxtpx:TrackPointExtension>
        </extensions>
      </trkpt>
      <trkpt lat="45.7678" lon="6.3845">
        <ele>458</ele>
        <time>2020-07-05T05:21:43.000Z</time>
        <extensions>
          <gpxtpx:TrackPointExtension xmlns:gpxtpx="http://www.garmin.com/xmlschemas/TrackPointExtension/v1">
            <gpxtpx:hr>140</gpxtpx:hr>
          </gpxtpx:TrackPointExtension>
        </extensions>
      </trkpt>
      <trkpt lat="45.76784" lon="6.38459">
        <ele>458.79998779297</ele>
        <time>2020-07-05T05:21:46.000Z</time>
        <extensions>
          <gpxtpx:TrackPointExtension xmlns:gpxtpx="http://www.garmin.com/xmlschemas/TrackPointExtension/v1">
            <gpxtpx:hr>137</gpxtpx:hr>
          </gpxtpx:TrackPointExtension>
        </extensions>
      </trkpt>
      <trkpt lat="45.76786" lon="6.38462">
        <ele>459.20001220703</ele>
        <time>2020-07-05T05:21:47.000Z</time>
        <extensions>
          <gpxtpx:TrackPointExtension xmlns:gpxtpx="http://www.garmin.com/xmlschemas/TrackPointExtension/v1">
            <gpxtpx:hr>136</gpxtpx:hr>
          </gpxtpx:TrackPointExtension>
        </extensions>
      </trkpt>
      <trkpt lat="45.76791" lon="6.38475">
        <ele>460.39999389648</ele>
        <time>2020-07-05T05:21:51.000Z</time>
        <extensions>
          <gpxtpx:TrackPointExtension xmlns:gpxtpx="http://www.garmin.com/xmlschemas/TrackPointExtension/v1">
            <gpxtpx:hr>135</gpxtpx:hr>
          </gpxtpx:TrackPointExtension>
        </extensions>
      </trkpt>
      <trkpt lat="45.76796" lon="6.38488">
        <ele>461.60000610352</ele>
        <time>2020-07-05T05:21:55.000Z</time>
        <extensions>
          <gpxtpx:TrackPointExtension xmlns:gpxtpx="http://www.garmin.com/xmlschemas/TrackPointExtension/v1">
            <gpxtpx:hr>133</gpxtpx:hr>
          </gpxtpx:TrackPointExtension>
        </extensions>
      </trkpt>
      <trkpt lat="45.76801" lon="6.385">
        <ele>462.39999389648</ele>
        <time>2020-07-05T05:21:59.000Z</time>
        <extensions>
          <gpxtpx:TrackPointExtension xmlns:gpxtpx="http://www.garmin.com/xmlschemas/TrackPointExtension/v1">
            <gpxtpx:hr>132</gpxtpx:hr>
          </gpxtpx:TrackPointExtension>
        </extensions>
      </trkpt>
      <trkpt lat="45.76803" lon="6.38503">
        <ele>462.79998779297</ele>
        <time>2020-07-05T05:22:00.000Z</time>
        <extensions>
          <gpxtpx:TrackPointExtension xmlns:gpxtpx="http://www.garmin.com/xmlschemas/TrackPointExtension/v1">
            <gpxtpx:hr>132</gpxtpx:hr>
          </gpxtpx:TrackPointExtension>
        </extensions>
      </trkpt>
      <trkpt lat="45.76808" lon="6.38516">
        <ele>464</ele>
        <time>2020-07-05T05:22:04.000Z</time>
        <extensions>
          <gpxtpx:TrackPointExtension xmlns:gpxtpx="http://www.garmin.com/xmlschemas/TrackPointExtension/v1">
            <gpxtpx:hr>132</gpxtpx:hr>
          </gpxtpx:TrackPointExtension>
        </extensions>
      </trkpt>
      <trkpt lat="45.76812" lon="6.38526">
        <ele>464.60000610352</ele>
        <time>2020-07-05T05:22:07.000Z</time>
        <extensions>
          <gpxtpx:TrackPointExtension xmlns:gpxtpx="http://www.garmin.com/xmlschemas/TrackPointExtension/v1">
            <gpxtpx:hr>132</gpxtpx:hr>
          </gpxtpx:TrackPointExtension>
        </extensions>
      </trkpt>
      <trkpt lat="45.76813" lon="6.3853">
        <ele>465</ele>
        <time>2020-07-05T05:22:08.000Z</time>
        <extensions>
          <gpxtpx:TrackPointExtension xmlns:gpxtpx="http://www.garmin.com/xmlschemas/TrackPointExtension/v1">
            <gpxtpx:hr>132</gpxtpx:hr>
          </gpxtpx:TrackPointExtension>
        </extensions>
      </trkpt>
      <trkpt lat="45.76818" lon="6.38543">
        <ele>466.20001220703</ele>
        <time>2020-07-05T05:22:12.000Z</time>
        <extensions>
          <gpxtpx:TrackPointExtension xmlns:gpxtpx="http://www.garmin.com/xmlschemas/TrackPointExtension/v1">
            <gpxtpx:hr>133</gpxtpx:hr>
          </gpxtpx:TrackPointExtension>
        </extensions>
      </trkpt>
      <trkpt lat="45.76821" lon="6.38553">
        <ele>467.20001220703</ele>
        <time>2020-07-05T05:22:15.000Z</time>
        <extensions>
          <gpxtpx:TrackPointExtension xmlns:gpxtpx="http://www.garmin.com/xmlschemas/TrackPointExtension/v1">
            <gpxtpx:hr>134</gpxtpx:hr>
          </gpxtpx:TrackPointExtension>
        </extensions>
      </trkpt>
      <trkpt lat="45.76822" lon="6.38557">
        <ele>467.39999389648</ele>
        <time>2020-07-05T05:22:16.000Z</time>
        <extensions>
          <gpxtpx:TrackPointExtension xmlns:gpxtpx="http://www.garmin.com/xmlschemas/TrackPointExtension/v1">
            <gpxtpx:hr>134</gpxtpx:hr>
          </gpxtpx:TrackPointExtension>
        </extensions>
      </trkpt>
      <trkpt lat="45.76825" lon="6.38568">
        <ele>468.39999389648</ele>
        <time>2020-07-05T05:22:19.000Z</time>
        <extensions>
          <gpxtpx:TrackPointExtension xmlns:gpxtpx="http://www.garmin.com/xmlschemas/TrackPointExtension/v1">
            <gpxtpx:hr>137</gpxtpx:hr>
          </gpxtpx:TrackPointExtension>
        </extensions>
      </trkpt>
      <trkpt lat="45.76825" lon="6.38571">
        <ele>468.60000610352</ele>
        <time>2020-07-05T05:22:20.000Z</time>
        <extensions>
          <gpxtpx:TrackPointExtension xmlns:gpxtpx="http://www.garmin.com/xmlschemas/TrackPointExtension/v1">
            <gpxtpx:hr>137</gpxtpx:hr>
          </gpxtpx:TrackPointExtension>
        </extensions>
      </trkpt>
      <trkpt lat="45.76826" lon="6.38579">
        <ele>469</ele>
        <time>2020-07-05T05:22:22.000Z</time>
        <extensions>
          <gpxtpx:TrackPointExtension xmlns:gpxtpx="http://www.garmin.com/xmlschemas/TrackPointExtension/v1">
            <gpxtpx:hr>136</gpxtpx:hr>
          </gpxtpx:TrackPointExtension>
        </extensions>
      </trkpt>
      <trkpt lat="45.76827" lon="6.3859">
        <ele>469.79998779297</ele>
        <time>2020-07-05T05:22:25.000Z</time>
        <extensions>
          <gpxtpx:TrackPointExtension xmlns:gpxtpx="http://www.garmin.com/xmlschemas/TrackPointExtension/v1">
            <gpxtpx:hr>137</gpxtpx:hr>
          </gpxtpx:TrackPointExtension>
        </extensions>
      </trkpt>
      <trkpt lat="45.76827" lon="6.38604">
        <ele>470.79998779297</ele>
        <time>2020-07-05T05:22:29.000Z</time>
        <extensions>
          <gpxtpx:TrackPointExtension xmlns:gpxtpx="http://www.garmin.com/xmlschemas/TrackPointExtension/v1">
            <gpxtpx:hr>140</gpxtpx:hr>
          </gpxtpx:TrackPointExtension>
        </extensions>
      </trkpt>
      <trkpt lat="45.76827" lon="6.38609">
        <ele>471.20001220703</ele>
        <time>2020-07-05T05:22:30.000Z</time>
        <extensions>
          <gpxtpx:TrackPointExtension xmlns:gpxtpx="http://www.garmin.com/xmlschemas/TrackPointExtension/v1">
            <gpxtpx:hr>141</gpxtpx:hr>
          </gpxtpx:TrackPointExtension>
        </extensions>
      </trkpt>
      <trkpt lat="45.76823" lon="6.38623">
        <ele>472.20001220703</ele>
        <time>2020-07-05T05:22:34.000Z</time>
        <extensions>
          <gpxtpx:TrackPointExtension xmlns:gpxtpx="http://www.garmin.com/xmlschemas/TrackPointExtension/v1">
            <gpxtpx:hr>141</gpxtpx:hr>
          </gpxtpx:TrackPointExtension>
        </extensions>
      </trkpt>
      <trkpt lat="45.76821" lon="6.3863">
        <ele>472.79998779297</ele>
        <time>2020-07-05T05:22:36.000Z</time>
        <extensions>
          <gpxtpx:TrackPointExtension xmlns:gpxtpx="http://www.garmin.com/xmlschemas/TrackPointExtension/v1">
            <gpxtpx:hr>141</gpxtpx:hr>
          </gpxtpx:TrackPointExtension>
        </extensions>
      </trkpt>
      <trkpt lat="45.76818" lon="6.38641">
        <ele>473.39999389648</ele>
        <time>2020-07-05T05:22:39.000Z</time>
        <extensions>
          <gpxtpx:TrackPointExtension xmlns:gpxtpx="http://www.garmin.com/xmlschemas/TrackPointExtension/v1">
            <gpxtpx:hr>140</gpxtpx:hr>
          </gpxtpx:TrackPointExtension>
        </extensions>
      </trkpt>
      <trkpt lat="45.76811" lon="6.38654">
        <ele>474.60000610352</ele>
        <time>2020-07-05T05:22:43.000Z</time>
        <extensions>
          <gpxtpx:TrackPointExtension xmlns:gpxtpx="http://www.garmin.com/xmlschemas/TrackPointExtension/v1">
            <gpxtpx:hr>140</gpxtpx:hr>
          </gpxtpx:TrackPointExtension>
        </extensions>
      </trkpt>
      <trkpt lat="45.768" lon="6.38668">
        <ele>475.60000610352</ele>
        <time>2020-07-05T05:22:48.000Z</time>
        <extensions>
          <gpxtpx:TrackPointExtension xmlns:gpxtpx="http://www.garmin.com/xmlschemas/TrackPointExtension/v1">
            <gpxtpx:hr>140</gpxtpx:hr>
          </gpxtpx:TrackPointExtension>
        </extensions>
      </trkpt>
      <trkpt lat="45.76794" lon="6.38678">
        <ele>476.20001220703</ele>
        <time>2020-07-05T05:22:51.000Z</time>
        <extensions>
          <gpxtpx:TrackPointExtension xmlns:gpxtpx="http://www.garmin.com/xmlschemas/TrackPointExtension/v1">
            <gpxtpx:hr>138</gpxtpx:hr>
          </gpxtpx:TrackPointExtension>
        </extensions>
      </trkpt>
      <trkpt lat="45.76787" lon="6.38688">
        <ele>476.79998779297</ele>
        <time>2020-07-05T05:22:54.000Z</time>
        <extensions>
          <gpxtpx:TrackPointExtension xmlns:gpxtpx="http://www.garmin.com/xmlschemas/TrackPointExtension/v1">
            <gpxtpx:hr>137</gpxtpx:hr>
          </gpxtpx:TrackPointExtension>
        </extensions>
      </trkpt>
      <trkpt lat="45.76777" lon="6.38704">
        <ele>477.79998779297</ele>
        <time>2020-07-05T05:22:59.000Z</time>
        <extensions>
          <gpxtpx:TrackPointExtension xmlns:gpxtpx="http://www.garmin.com/xmlschemas/TrackPointExtension/v1">
            <gpxtpx:hr>137</gpxtpx:hr>
          </gpxtpx:TrackPointExtension>
        </extensions>
      </trkpt>
      <trkpt lat="45.76767" lon="6.38719">
        <ele>478.79998779297</ele>
        <time>2020-07-05T05:23:04.000Z</time>
        <extensions>
          <gpxtpx:TrackPointExtension xmlns:gpxtpx="http://www.garmin.com/xmlschemas/TrackPointExtension/v1">
            <gpxtpx:hr>140</gpxtpx:hr>
          </gpxtpx:TrackPointExtension>
        </extensions>
      </trkpt>
      <trkpt lat="45.76765" lon="6.38723">
        <ele>478.79998779297</ele>
        <time>2020-07-05T05:23:05.000Z</time>
        <extensions>
          <gpxtpx:TrackPointExtension xmlns:gpxtpx="http://www.garmin.com/xmlschemas/TrackPointExtension/v1">
            <gpxtpx:hr>137</gpxtpx:hr>
          </gpxtpx:TrackPointExtension>
        </extensions>
      </trkpt>
      <trkpt lat="45.76763" lon="6.38727">
        <ele>478.79998779297</ele>
        <time>2020-07-05T05:23:06.000Z</time>
        <extensions>
          <gpxtpx:TrackPointExtension xmlns:gpxtpx="http://www.garmin.com/xmlschemas/TrackPointExtension/v1">
            <gpxtpx:hr>136</gpxtpx:hr>
          </gpxtpx:TrackPointExtension>
        </extensions>
      </trkpt>
      <trkpt lat="45.76757" lon="6.38738">
        <ele>479.20001220703</ele>
        <time>2020-07-05T05:23:09.000Z</time>
        <extensions>
          <gpxtpx:TrackPointExtension xmlns:gpxtpx="http://www.garmin.com/xmlschemas/TrackPointExtension/v1">
            <gpxtpx:hr>137</gpxtpx:hr>
          </gpxtpx:TrackPointExtension>
        </extensions>
      </trkpt>
      <trkpt lat="45.76748" lon="6.38753">
        <ele>480</ele>
        <time>2020-07-05T05:23:13.000Z</time>
        <extensions>
          <gpxtpx:TrackPointExtension xmlns:gpxtpx="http://www.garmin.com/xmlschemas/TrackPointExtension/v1">
            <gpxtpx:hr>137</gpxtpx:hr>
          </gpxtpx:TrackPointExtension>
        </extensions>
      </trkpt>
      <trkpt lat="45.76733" lon="6.38781">
        <ele>481.20001220703</ele>
        <time>2020-07-05T05:23:20.000Z</time>
        <extensions>
          <gpxtpx:TrackPointExtension xmlns:gpxtpx="http://www.garmin.com/xmlschemas/TrackPointExtension/v1">
            <gpxtpx:hr>136</gpxtpx:hr>
          </gpxtpx:TrackPointExtension>
        </extensions>
      </trkpt>
      <trkpt lat="45.76722" lon="6.38801">
        <ele>482.20001220703</ele>
        <time>2020-07-05T05:23:25.000Z</time>
        <extensions>
          <gpxtpx:TrackPointExtension xmlns:gpxtpx="http://www.garmin.com/xmlschemas/TrackPointExtension/v1">
            <gpxtpx:hr>136</gpxtpx:hr>
          </gpxtpx:TrackPointExtension>
        </extensions>
      </trkpt>
      <trkpt lat="45.76716" lon="6.38813">
        <ele>482.60000610352</ele>
        <time>2020-07-05T05:23:28.000Z</time>
        <extensions>
          <gpxtpx:TrackPointExtension xmlns:gpxtpx="http://www.garmin.com/xmlschemas/TrackPointExtension/v1">
            <gpxtpx:hr>133</gpxtpx:hr>
          </gpxtpx:TrackPointExtension>
        </extensions>
      </trkpt>
      <trkpt lat="45.7671" lon="6.38825">
        <ele>483.39999389648</ele>
        <time>2020-07-05T05:23:31.000Z</time>
        <extensions>
          <gpxtpx:TrackPointExtension xmlns:gpxtpx="http://www.garmin.com/xmlschemas/TrackPointExtension/v1">
            <gpxtpx:hr>131</gpxtpx:hr>
          </gpxtpx:TrackPointExtension>
        </extensions>
      </trkpt>
      <trkpt lat="45.76704" lon="6.38838">
        <ele>484.20001220703</ele>
        <time>2020-07-05T05:23:34.000Z</time>
        <extensions>
          <gpxtpx:TrackPointExtension xmlns:gpxtpx="http://www.garmin.com/xmlschemas/TrackPointExtension/v1">
            <gpxtpx:hr>128</gpxtpx:hr>
          </gpxtpx:TrackPointExtension>
        </extensions>
      </trkpt>
      <trkpt lat="45.76702" lon="6.38842">
        <ele>484.60000610352</ele>
        <time>2020-07-05T05:23:35.000Z</time>
        <extensions>
          <gpxtpx:TrackPointExtension xmlns:gpxtpx="http://www.garmin.com/xmlschemas/TrackPointExtension/v1">
            <gpxtpx:hr>126</gpxtpx:hr>
          </gpxtpx:TrackPointExtension>
        </extensions>
      </trkpt>
      <trkpt lat="45.76693" lon="6.38858">
        <ele>485.20001220703</ele>
        <time>2020-07-05T05:23:39.000Z</time>
        <extensions>
          <gpxtpx:TrackPointExtension xmlns:gpxtpx="http://www.garmin.com/xmlschemas/TrackPointExtension/v1">
            <gpxtpx:hr>124</gpxtpx:hr>
          </gpxtpx:TrackPointExtension>
        </extensions>
      </trkpt>
      <trkpt lat="45.76686" lon="6.38871">
        <ele>485.60000610352</ele>
        <time>2020-07-05T05:23:42.000Z</time>
        <extensions>
          <gpxtpx:TrackPointExtension xmlns:gpxtpx="http://www.garmin.com/xmlschemas/TrackPointExtension/v1">
            <gpxtpx:hr>125</gpxtpx:hr>
          </gpxtpx:TrackPointExtension>
        </extensions>
      </trkpt>
      <trkpt lat="45.76672" lon="6.38897">
        <ele>486.60000610352</ele>
        <time>2020-07-05T05:23:48.000Z</time>
        <extensions>
          <gpxtpx:TrackPointExtension xmlns:gpxtpx="http://www.garmin.com/xmlschemas/TrackPointExtension/v1">
            <gpxtpx:hr>125</gpxtpx:hr>
          </gpxtpx:TrackPointExtension>
        </extensions>
      </trkpt>
      <trkpt lat="45.76668" lon="6.38908">
        <ele>487</ele>
        <time>2020-07-05T05:23:50.000Z</time>
        <extensions>
          <gpxtpx:TrackPointExtension xmlns:gpxtpx="http://www.garmin.com/xmlschemas/TrackPointExtension/v1">
            <gpxtpx:hr>125</gpxtpx:hr>
          </gpxtpx:TrackPointExtension>
        </extensions>
      </trkpt>
      <trkpt lat="45.76663" lon="6.38926">
        <ele>487.20001220703</ele>
        <time>2020-07-05T05:23:53.000Z</time>
        <extensions>
          <gpxtpx:TrackPointExtension xmlns:gpxtpx="http://www.garmin.com/xmlschemas/TrackPointExtension/v1">
            <gpxtpx:hr>126</gpxtpx:hr>
          </gpxtpx:TrackPointExtension>
        </extensions>
      </trkpt>
      <trkpt lat="45.76662" lon="6.38932">
        <ele>487.20001220703</ele>
        <time>2020-07-05T05:23:54.000Z</time>
        <extensions>
          <gpxtpx:TrackPointExtension xmlns:gpxtpx="http://www.garmin.com/xmlschemas/TrackPointExtension/v1">
            <gpxtpx:hr>127</gpxtpx:hr>
          </gpxtpx:TrackPointExtension>
        </extensions>
      </trkpt>
      <trkpt lat="45.76659" lon="6.38949">
        <ele>487.79998779297</ele>
        <time>2020-07-05T05:23:57.000Z</time>
        <extensions>
          <gpxtpx:TrackPointExtension xmlns:gpxtpx="http://www.garmin.com/xmlschemas/TrackPointExtension/v1">
            <gpxtpx:hr>129</gpxtpx:hr>
          </gpxtpx:TrackPointExtension>
        </extensions>
      </trkpt>
      <trkpt lat="45.76656" lon="6.3896">
        <ele>488.20001220703</ele>
        <time>2020-07-05T05:23:59.000Z</time>
        <extensions>
          <gpxtpx:TrackPointExtension xmlns:gpxtpx="http://www.garmin.com/xmlschemas/TrackPointExtension/v1">
            <gpxtpx:hr>130</gpxtpx:hr>
          </gpxtpx:TrackPointExtension>
        </extensions>
      </trkpt>
      <trkpt lat="45.76654" lon="6.38972">
        <ele>488.79998779297</ele>
        <time>2020-07-05T05:24:01.000Z</time>
        <extensions>
          <gpxtpx:TrackPointExtension xmlns:gpxtpx="http://www.garmin.com/xmlschemas/TrackPointExtension/v1">
            <gpxtpx:hr>133</gpxtpx:hr>
          </gpxtpx:TrackPointExtension>
        </extensions>
      </trkpt>
      <trkpt lat="45.76653" lon="6.38977">
        <ele>489</ele>
        <time>2020-07-05T05:24:02.000Z</time>
        <extensions>
          <gpxtpx:TrackPointExtension xmlns:gpxtpx="http://www.garmin.com/xmlschemas/TrackPointExtension/v1">
            <gpxtpx:hr>134</gpxtpx:hr>
          </gpxtpx:TrackPointExtension>
        </extensions>
      </trkpt>
      <trkpt lat="45.7665" lon="6.38993">
        <ele>489.79998779297</ele>
        <time>2020-07-05T05:24:05.000Z</time>
        <extensions>
          <gpxtpx:TrackPointExtension xmlns:gpxtpx="http://www.garmin.com/xmlschemas/TrackPointExtension/v1">
            <gpxtpx:hr>136</gpxtpx:hr>
          </gpxtpx:TrackPointExtension>
        </extensions>
      </trkpt>
      <trkpt lat="45.7665" lon="6.38998">
        <ele>490.20001220703</ele>
        <time>2020-07-05T05:24:06.000Z</time>
        <extensions>
          <gpxtpx:TrackPointExtension xmlns:gpxtpx="http://www.garmin.com/xmlschemas/TrackPointExtension/v1">
            <gpxtpx:hr>136</gpxtpx:hr>
          </gpxtpx:TrackPointExtension>
        </extensions>
      </trkpt>
      <trkpt lat="45.76646" lon="6.39019">
        <ele>491.39999389648</ele>
        <time>2020-07-05T05:24:10.000Z</time>
        <extensions>
          <gpxtpx:TrackPointExtension xmlns:gpxtpx="http://www.garmin.com/xmlschemas/TrackPointExtension/v1">
            <gpxtpx:hr>137</gpxtpx:hr>
          </gpxtpx:TrackPointExtension>
        </extensions>
      </trkpt>
      <trkpt lat="45.76643" lon="6.39033">
        <ele>491.60000610352</ele>
        <time>2020-07-05T05:24:13.000Z</time>
        <extensions>
          <gpxtpx:TrackPointExtension xmlns:gpxtpx="http://www.garmin.com/xmlschemas/TrackPointExtension/v1">
            <gpxtpx:hr>136</gpxtpx:hr>
          </gpxtpx:TrackPointExtension>
        </extensions>
      </trkpt>
      <trkpt lat="45.7664" lon="6.39055">
        <ele>492.60000610352</ele>
        <time>2020-07-05T05:24:17.000Z</time>
        <extensions>
          <gpxtpx:TrackPointExtension xmlns:gpxtpx="http://www.garmin.com/xmlschemas/TrackPointExtension/v1">
            <gpxtpx:hr>136</gpxtpx:hr>
          </gpxtpx:TrackPointExtension>
        </extensions>
      </trkpt>
      <trkpt lat="45.76639" lon="6.3907">
        <ele>493.60000610352</ele>
        <time>2020-07-05T05:24:20.000Z</time>
        <extensions>
          <gpxtpx:TrackPointExtension xmlns:gpxtpx="http://www.garmin.com/xmlschemas/TrackPointExtension/v1">
            <gpxtpx:hr>135</gpxtpx:hr>
          </gpxtpx:TrackPointExtension>
        </extensions>
      </trkpt>
      <trkpt lat="45.76638" lon="6.39075">
        <ele>493.79998779297</ele>
        <time>2020-07-05T05:24:21.000Z</time>
        <extensions>
          <gpxtpx:TrackPointExtension xmlns:gpxtpx="http://www.garmin.com/xmlschemas/TrackPointExtension/v1">
            <gpxtpx:hr>135</gpxtpx:hr>
          </gpxtpx:TrackPointExtension>
        </extensions>
      </trkpt>
      <trkpt lat="45.76632" lon="6.39097">
        <ele>494.79998779297</ele>
        <time>2020-07-05T05:24:26.000Z</time>
        <extensions>
          <gpxtpx:TrackPointExtension xmlns:gpxtpx="http://www.garmin.com/xmlschemas/TrackPointExtension/v1">
            <gpxtpx:hr>135</gpxtpx:hr>
          </gpxtpx:TrackPointExtension>
        </extensions>
      </trkpt>
      <trkpt lat="45.76631" lon="6.39101">
        <ele>495</ele>
        <time>2020-07-05T05:24:27.000Z</time>
        <extensions>
          <gpxtpx:TrackPointExtension xmlns:gpxtpx="http://www.garmin.com/xmlschemas/TrackPointExtension/v1">
            <gpxtpx:hr>135</gpxtpx:hr>
          </gpxtpx:TrackPointExtension>
        </extensions>
      </trkpt>
      <trkpt lat="45.76627" lon="6.3912">
        <ele>495.79998779297</ele>
        <time>2020-07-05T05:24:31.000Z</time>
        <extensions>
          <gpxtpx:TrackPointExtension xmlns:gpxtpx="http://www.garmin.com/xmlschemas/TrackPointExtension/v1">
            <gpxtpx:hr>134</gpxtpx:hr>
          </gpxtpx:TrackPointExtension>
        </extensions>
      </trkpt>
      <trkpt lat="45.76623" lon="6.39144">
        <ele>497.20001220703</ele>
        <time>2020-07-05T05:24:36.000Z</time>
        <extensions>
          <gpxtpx:TrackPointExtension xmlns:gpxtpx="http://www.garmin.com/xmlschemas/TrackPointExtension/v1">
            <gpxtpx:hr>135</gpxtpx:hr>
          </gpxtpx:TrackPointExtension>
        </extensions>
      </trkpt>
      <trkpt lat="45.7662" lon="6.39164">
        <ele>498.39999389648</ele>
        <time>2020-07-05T05:24:40.000Z</time>
        <extensions>
          <gpxtpx:TrackPointExtension xmlns:gpxtpx="http://www.garmin.com/xmlschemas/TrackPointExtension/v1">
            <gpxtpx:hr>134</gpxtpx:hr>
          </gpxtpx:TrackPointExtension>
        </extensions>
      </trkpt>
      <trkpt lat="45.76618" lon="6.39188">
        <ele>499.39999389648</ele>
        <time>2020-07-05T05:24:45.000Z</time>
        <extensions>
          <gpxtpx:TrackPointExtension xmlns:gpxtpx="http://www.garmin.com/xmlschemas/TrackPointExtension/v1">
            <gpxtpx:hr>133</gpxtpx:hr>
          </gpxtpx:TrackPointExtension>
        </extensions>
      </trkpt>
      <trkpt lat="45.76616" lon="6.39208">
        <ele>500.20001220703</ele>
        <time>2020-07-05T05:24:49.000Z</time>
        <extensions>
          <gpxtpx:TrackPointExtension xmlns:gpxtpx="http://www.garmin.com/xmlschemas/TrackPointExtension/v1">
            <gpxtpx:hr>132</gpxtpx:hr>
          </gpxtpx:TrackPointExtension>
        </extensions>
      </trkpt>
      <trkpt lat="45.76615" lon="6.39217">
        <ele>500.60000610352</ele>
        <time>2020-07-05T05:24:51.000Z</time>
        <extensions>
          <gpxtpx:TrackPointExtension xmlns:gpxtpx="http://www.garmin.com/xmlschemas/TrackPointExtension/v1">
            <gpxtpx:hr>131</gpxtpx:hr>
          </gpxtpx:TrackPointExtension>
        </extensions>
      </trkpt>
      <trkpt lat="45.76613" lon="6.39241">
        <ele>501.60000610352</ele>
        <time>2020-07-05T05:24:56.000Z</time>
        <extensions>
          <gpxtpx:TrackPointExtension xmlns:gpxtpx="http://www.garmin.com/xmlschemas/TrackPointExtension/v1">
            <gpxtpx:hr>131</gpxtpx:hr>
          </gpxtpx:TrackPointExtension>
        </extensions>
      </trkpt>
      <trkpt lat="45.76612" lon="6.39251">
        <ele>502</ele>
        <time>2020-07-05T05:24:58.000Z</time>
        <extensions>
          <gpxtpx:TrackPointExtension xmlns:gpxtpx="http://www.garmin.com/xmlschemas/TrackPointExtension/v1">
            <gpxtpx:hr>132</gpxtpx:hr>
          </gpxtpx:TrackPointExtension>
        </extensions>
      </trkpt>
      <trkpt lat="45.7661" lon="6.39265">
        <ele>502.79998779297</ele>
        <time>2020-07-05T05:25:01.000Z</time>
        <extensions>
          <gpxtpx:TrackPointExtension xmlns:gpxtpx="http://www.garmin.com/xmlschemas/TrackPointExtension/v1">
            <gpxtpx:hr>132</gpxtpx:hr>
          </gpxtpx:TrackPointExtension>
        </extensions>
      </trkpt>
      <trkpt lat="45.76609" lon="6.39282">
        <ele>504</ele>
        <time>2020-07-05T05:25:05.000Z</time>
        <extensions>
          <gpxtpx:TrackPointExtension xmlns:gpxtpx="http://www.garmin.com/xmlschemas/TrackPointExtension/v1">
            <gpxtpx:hr>132</gpxtpx:hr>
          </gpxtpx:TrackPointExtension>
        </extensions>
      </trkpt>
      <trkpt lat="45.76608" lon="6.39291">
        <ele>504.60000610352</ele>
        <time>2020-07-05T05:25:07.000Z</time>
        <extensions>
          <gpxtpx:TrackPointExtension xmlns:gpxtpx="http://www.garmin.com/xmlschemas/TrackPointExtension/v1">
            <gpxtpx:hr>132</gpxtpx:hr>
          </gpxtpx:TrackPointExtension>
        </extensions>
      </trkpt>
      <trkpt lat="45.76607" lon="6.393">
        <ele>505.20001220703</ele>
        <time>2020-07-05T05:25:09.000Z</time>
        <extensions>
          <gpxtpx:TrackPointExtension xmlns:gpxtpx="http://www.garmin.com/xmlschemas/TrackPointExtension/v1">
            <gpxtpx:hr>132</gpxtpx:hr>
          </gpxtpx:TrackPointExtension>
        </extensions>
      </trkpt>
      <trkpt lat="45.76607" lon="6.39318">
        <ele>506.20001220703</ele>
        <time>2020-07-05T05:25:13.000Z</time>
        <extensions>
          <gpxtpx:TrackPointExtension xmlns:gpxtpx="http://www.garmin.com/xmlschemas/TrackPointExtension/v1">
            <gpxtpx:hr>132</gpxtpx:hr>
          </gpxtpx:TrackPointExtension>
        </extensions>
      </trkpt>
      <trkpt lat="45.76605" lon="6.3933">
        <ele>507</ele>
        <time>2020-07-05T05:25:16.000Z</time>
        <extensions>
          <gpxtpx:TrackPointExtension xmlns:gpxtpx="http://www.garmin.com/xmlschemas/TrackPointExtension/v1">
            <gpxtpx:hr>133</gpxtpx:hr>
          </gpxtpx:TrackPointExtension>
        </extensions>
      </trkpt>
      <trkpt lat="45.76606" lon="6.39335">
        <ele>507.20001220703</ele>
        <time>2020-07-05T05:25:17.000Z</time>
        <extensions>
          <gpxtpx:TrackPointExtension xmlns:gpxtpx="http://www.garmin.com/xmlschemas/TrackPointExtension/v1">
            <gpxtpx:hr>134</gpxtpx:hr>
          </gpxtpx:TrackPointExtension>
        </extensions>
      </trkpt>
      <trkpt lat="45.76607" lon="6.39352">
        <ele>508.39999389648</ele>
        <time>2020-07-05T05:25:21.000Z</time>
        <extensions>
          <gpxtpx:TrackPointExtension xmlns:gpxtpx="http://www.garmin.com/xmlschemas/TrackPointExtension/v1">
            <gpxtpx:hr>134</gpxtpx:hr>
          </gpxtpx:TrackPointExtension>
        </extensions>
      </trkpt>
      <trkpt lat="45.76608" lon="6.39364">
        <ele>509.20001220703</ele>
        <time>2020-07-05T05:25:24.000Z</time>
        <extensions>
          <gpxtpx:TrackPointExtension xmlns:gpxtpx="http://www.garmin.com/xmlschemas/TrackPointExtension/v1">
            <gpxtpx:hr>132</gpxtpx:hr>
          </gpxtpx:TrackPointExtension>
        </extensions>
      </trkpt>
      <trkpt lat="45.76608" lon="6.39368">
        <ele>509.39999389648</ele>
        <time>2020-07-05T05:25:25.000Z</time>
        <extensions>
          <gpxtpx:TrackPointExtension xmlns:gpxtpx="http://www.garmin.com/xmlschemas/TrackPointExtension/v1">
            <gpxtpx:hr>135</gpxtpx:hr>
          </gpxtpx:TrackPointExtension>
        </extensions>
      </trkpt>
      <trkpt lat="45.76609" lon="6.39372">
        <ele>509.60000610352</ele>
        <time>2020-07-05T05:25:26.000Z</time>
        <extensions>
          <gpxtpx:TrackPointExtension xmlns:gpxtpx="http://www.garmin.com/xmlschemas/TrackPointExtension/v1">
            <gpxtpx:hr>135</gpxtpx:hr>
          </gpxtpx:TrackPointExtension>
        </extensions>
      </trkpt>
      <trkpt lat="45.76612" lon="6.39389">
        <ele>510.60000610352</ele>
        <time>2020-07-05T05:25:30.000Z</time>
        <extensions>
          <gpxtpx:TrackPointExtension xmlns:gpxtpx="http://www.garmin.com/xmlschemas/TrackPointExtension/v1">
            <gpxtpx:hr>137</gpxtpx:hr>
          </gpxtpx:TrackPointExtension>
        </extensions>
      </trkpt>
      <trkpt lat="45.76616" lon="6.39411">
        <ele>511.79998779297</ele>
        <time>2020-07-05T05:25:35.000Z</time>
        <extensions>
          <gpxtpx:TrackPointExtension xmlns:gpxtpx="http://www.garmin.com/xmlschemas/TrackPointExtension/v1">
            <gpxtpx:hr>138</gpxtpx:hr>
          </gpxtpx:TrackPointExtension>
        </extensions>
      </trkpt>
      <trkpt lat="45.76615" lon="6.39424">
        <ele>512.40002441406</ele>
        <time>2020-07-05T05:25:38.000Z</time>
        <extensions>
          <gpxtpx:TrackPointExtension xmlns:gpxtpx="http://www.garmin.com/xmlschemas/TrackPointExtension/v1">
            <gpxtpx:hr>135</gpxtpx:hr>
          </gpxtpx:TrackPointExtension>
        </extensions>
      </trkpt>
      <trkpt lat="45.76615" lon="6.39433">
        <ele>513</ele>
        <time>2020-07-05T05:25:40.000Z</time>
        <extensions>
          <gpxtpx:TrackPointExtension xmlns:gpxtpx="http://www.garmin.com/xmlschemas/TrackPointExtension/v1">
            <gpxtpx:hr>136</gpxtpx:hr>
          </gpxtpx:TrackPointExtension>
        </extensions>
      </trkpt>
      <trkpt lat="45.76617" lon="6.39454">
        <ele>514.20001220703</ele>
        <time>2020-07-05T05:25:45.000Z</time>
        <extensions>
          <gpxtpx:TrackPointExtension xmlns:gpxtpx="http://www.garmin.com/xmlschemas/TrackPointExtension/v1">
            <gpxtpx:hr>137</gpxtpx:hr>
          </gpxtpx:TrackPointExtension>
        </extensions>
      </trkpt>
      <trkpt lat="45.7662" lon="6.3946">
        <ele>514.59997558594</ele>
        <time>2020-07-05T05:25:47.000Z</time>
        <extensions>
          <gpxtpx:TrackPointExtension xmlns:gpxtpx="http://www.garmin.com/xmlschemas/TrackPointExtension/v1">
            <gpxtpx:hr>138</gpxtpx:hr>
          </gpxtpx:TrackPointExtension>
        </extensions>
      </trkpt>
      <trkpt lat="45.76626" lon="6.39461">
        <ele>515</ele>
        <time>2020-07-05T05:25:49.000Z</time>
        <extensions>
          <gpxtpx:TrackPointExtension xmlns:gpxtpx="http://www.garmin.com/xmlschemas/TrackPointExtension/v1">
            <gpxtpx:hr>139</gpxtpx:hr>
          </gpxtpx:TrackPointExtension>
        </extensions>
      </trkpt>
      <trkpt lat="45.76629" lon="6.39461">
        <ele>515.40002441406</ele>
        <time>2020-07-05T05:25:50.000Z</time>
        <extensions>
          <gpxtpx:TrackPointExtension xmlns:gpxtpx="http://www.garmin.com/xmlschemas/TrackPointExtension/v1">
            <gpxtpx:hr>139</gpxtpx:hr>
          </gpxtpx:TrackPointExtension>
        </extensions>
      </trkpt>
      <trkpt lat="45.76639" lon="6.39452">
        <ele>516.40002441406</ele>
        <time>2020-07-05T05:25:54.000Z</time>
        <extensions>
          <gpxtpx:TrackPointExtension xmlns:gpxtpx="http://www.garmin.com/xmlschemas/TrackPointExtension/v1">
            <gpxtpx:hr>141</gpxtpx:hr>
          </gpxtpx:TrackPointExtension>
        </extensions>
      </trkpt>
      <trkpt lat="45.76648" lon="6.39438">
        <ele>517.40002441406</ele>
        <time>2020-07-05T05:25:58.000Z</time>
        <extensions>
          <gpxtpx:TrackPointExtension xmlns:gpxtpx="http://www.garmin.com/xmlschemas/TrackPointExtension/v1">
            <gpxtpx:hr>140</gpxtpx:hr>
          </gpxtpx:TrackPointExtension>
        </extensions>
      </trkpt>
      <trkpt lat="45.76655" lon="6.39426">
        <ele>518</ele>
        <time>2020-07-05T05:26:01.000Z</time>
        <extensions>
          <gpxtpx:TrackPointExtension xmlns:gpxtpx="http://www.garmin.com/xmlschemas/TrackPointExtension/v1">
            <gpxtpx:hr>140</gpxtpx:hr>
          </gpxtpx:TrackPointExtension>
        </extensions>
      </trkpt>
      <trkpt lat="45.76662" lon="6.39415">
        <ele>518.59997558594</ele>
        <time>2020-07-05T05:26:04.000Z</time>
        <extensions>
          <gpxtpx:TrackPointExtension xmlns:gpxtpx="http://www.garmin.com/xmlschemas/TrackPointExtension/v1">
            <gpxtpx:hr>140</gpxtpx:hr>
          </gpxtpx:TrackPointExtension>
        </extensions>
      </trkpt>
      <trkpt lat="45.76673" lon="6.39396">
        <ele>519.59997558594</ele>
        <time>2020-07-05T05:26:09.000Z</time>
        <extensions>
          <gpxtpx:TrackPointExtension xmlns:gpxtpx="http://www.garmin.com/xmlschemas/TrackPointExtension/v1">
            <gpxtpx:hr>139</gpxtpx:hr>
          </gpxtpx:TrackPointExtension>
        </extensions>
      </trkpt>
      <trkpt lat="45.76681" lon="6.3938">
        <ele>520.40002441406</ele>
        <time>2020-07-05T05:26:13.000Z</time>
        <extensions>
          <gpxtpx:TrackPointExtension xmlns:gpxtpx="http://www.garmin.com/xmlschemas/TrackPointExtension/v1">
            <gpxtpx:hr>138</gpxtpx:hr>
          </gpxtpx:TrackPointExtension>
        </extensions>
      </trkpt>
      <trkpt lat="45.76686" lon="6.39372">
        <ele>520.79998779297</ele>
        <time>2020-07-05T05:26:15.000Z</time>
        <extensions>
          <gpxtpx:TrackPointExtension xmlns:gpxtpx="http://www.garmin.com/xmlschemas/TrackPointExtension/v1">
            <gpxtpx:hr>137</gpxtpx:hr>
          </gpxtpx:TrackPointExtension>
        </extensions>
      </trkpt>
      <trkpt lat="45.76702" lon="6.39348">
        <ele>521.79998779297</ele>
        <time>2020-07-05T05:26:21.000Z</time>
        <extensions>
          <gpxtpx:TrackPointExtension xmlns:gpxtpx="http://www.garmin.com/xmlschemas/TrackPointExtension/v1">
            <gpxtpx:hr>136</gpxtpx:hr>
          </gpxtpx:TrackPointExtension>
        </extensions>
      </trkpt>
      <trkpt lat="45.76705" lon="6.39345">
        <ele>522</ele>
        <time>2020-07-05T05:26:22.000Z</time>
        <extensions>
          <gpxtpx:TrackPointExtension xmlns:gpxtpx="http://www.garmin.com/xmlschemas/TrackPointExtension/v1">
            <gpxtpx:hr>136</gpxtpx:hr>
          </gpxtpx:TrackPointExtension>
        </extensions>
      </trkpt>
      <trkpt lat="45.7672" lon="6.3933">
        <ele>522.79998779297</ele>
        <time>2020-07-05T05:26:27.000Z</time>
        <extensions>
          <gpxtpx:TrackPointExtension xmlns:gpxtpx="http://www.garmin.com/xmlschemas/TrackPointExtension/v1">
            <gpxtpx:hr>135</gpxtpx:hr>
          </gpxtpx:TrackPointExtension>
        </extensions>
      </trkpt>
      <trkpt lat="45.76723" lon="6.39327">
        <ele>523</ele>
        <time>2020-07-05T05:26:28.000Z</time>
        <extensions>
          <gpxtpx:TrackPointExtension xmlns:gpxtpx="http://www.garmin.com/xmlschemas/TrackPointExtension/v1">
            <gpxtpx:hr>135</gpxtpx:hr>
          </gpxtpx:TrackPointExtension>
        </extensions>
      </trkpt>
      <trkpt lat="45.76736" lon="6.39318">
        <ele>524.40002441406</ele>
        <time>2020-07-05T05:26:32.000Z</time>
        <extensions>
          <gpxtpx:TrackPointExtension xmlns:gpxtpx="http://www.garmin.com/xmlschemas/TrackPointExtension/v1">
            <gpxtpx:hr>135</gpxtpx:hr>
          </gpxtpx:TrackPointExtension>
        </extensions>
      </trkpt>
      <trkpt lat="45.76746" lon="6.39312">
        <ele>525.20001220703</ele>
        <time>2020-07-05T05:26:35.000Z</time>
        <extensions>
          <gpxtpx:TrackPointExtension xmlns:gpxtpx="http://www.garmin.com/xmlschemas/TrackPointExtension/v1">
            <gpxtpx:hr>135</gpxtpx:hr>
          </gpxtpx:TrackPointExtension>
        </extensions>
      </trkpt>
      <trkpt lat="45.76754" lon="6.39308">
        <ele>525.40002441406</ele>
        <time>2020-07-05T05:26:37.000Z</time>
        <extensions>
          <gpxtpx:TrackPointExtension xmlns:gpxtpx="http://www.garmin.com/xmlschemas/TrackPointExtension/v1">
            <gpxtpx:hr>133</gpxtpx:hr>
          </gpxtpx:TrackPointExtension>
        </extensions>
      </trkpt>
      <trkpt lat="45.76772" lon="6.39296">
        <ele>526.40002441406</ele>
        <time>2020-07-05T05:26:42.000Z</time>
        <extensions>
          <gpxtpx:TrackPointExtension xmlns:gpxtpx="http://www.garmin.com/xmlschemas/TrackPointExtension/v1">
            <gpxtpx:hr>132</gpxtpx:hr>
          </gpxtpx:TrackPointExtension>
        </extensions>
      </trkpt>
      <trkpt lat="45.76776" lon="6.39293">
        <ele>526.59997558594</ele>
        <time>2020-07-05T05:26:43.000Z</time>
        <extensions>
          <gpxtpx:TrackPointExtension xmlns:gpxtpx="http://www.garmin.com/xmlschemas/TrackPointExtension/v1">
            <gpxtpx:hr>132</gpxtpx:hr>
          </gpxtpx:TrackPointExtension>
        </extensions>
      </trkpt>
      <trkpt lat="45.76798" lon="6.39278">
        <ele>527.59997558594</ele>
        <time>2020-07-05T05:26:49.000Z</time>
        <extensions>
          <gpxtpx:TrackPointExtension xmlns:gpxtpx="http://www.garmin.com/xmlschemas/TrackPointExtension/v1">
            <gpxtpx:hr>135</gpxtpx:hr>
          </gpxtpx:TrackPointExtension>
        </extensions>
      </trkpt>
      <trkpt lat="45.76802" lon="6.39275">
        <ele>527.59997558594</ele>
        <time>2020-07-05T05:26:50.000Z</time>
        <extensions>
          <gpxtpx:TrackPointExtension xmlns:gpxtpx="http://www.garmin.com/xmlschemas/TrackPointExtension/v1">
            <gpxtpx:hr>133</gpxtpx:hr>
          </gpxtpx:TrackPointExtension>
        </extensions>
      </trkpt>
      <trkpt lat="45.76818" lon="6.39266">
        <ele>528</ele>
        <time>2020-07-05T05:26:54.000Z</time>
        <extensions>
          <gpxtpx:TrackPointExtension xmlns:gpxtpx="http://www.garmin.com/xmlschemas/TrackPointExtension/v1">
            <gpxtpx:hr>136</gpxtpx:hr>
          </gpxtpx:TrackPointExtension>
        </extensions>
      </trkpt>
      <trkpt lat="45.76828" lon="6.39258">
        <ele>528.59997558594</ele>
        <time>2020-07-05T05:26:57.000Z</time>
        <extensions>
          <gpxtpx:TrackPointExtension xmlns:gpxtpx="http://www.garmin.com/xmlschemas/TrackPointExtension/v1">
            <gpxtpx:hr>137</gpxtpx:hr>
          </gpxtpx:TrackPointExtension>
        </extensions>
      </trkpt>
      <trkpt lat="45.76834" lon="6.39254">
        <ele>529.59997558594</ele>
        <time>2020-07-05T05:26:59.000Z</time>
        <extensions>
          <gpxtpx:TrackPointExtension xmlns:gpxtpx="http://www.garmin.com/xmlschemas/TrackPointExtension/v1">
            <gpxtpx:hr>137</gpxtpx:hr>
          </gpxtpx:TrackPointExtension>
        </extensions>
      </trkpt>
      <trkpt lat="45.76837" lon="6.39252">
        <ele>530.20001220703</ele>
        <time>2020-07-05T05:27:00.000Z</time>
        <extensions>
          <gpxtpx:TrackPointExtension xmlns:gpxtpx="http://www.garmin.com/xmlschemas/TrackPointExtension/v1">
            <gpxtpx:hr>137</gpxtpx:hr>
          </gpxtpx:TrackPointExtension>
        </extensions>
      </trkpt>
      <trkpt lat="45.76843" lon="6.39247">
        <ele>531.20001220703</ele>
        <time>2020-07-05T05:27:02.000Z</time>
        <extensions>
          <gpxtpx:TrackPointExtension xmlns:gpxtpx="http://www.garmin.com/xmlschemas/TrackPointExtension/v1">
            <gpxtpx:hr>138</gpxtpx:hr>
          </gpxtpx:TrackPointExtension>
        </extensions>
      </trkpt>
      <trkpt lat="45.76852" lon="6.39241">
        <ele>532.20001220703</ele>
        <time>2020-07-05T05:27:05.000Z</time>
        <extensions>
          <gpxtpx:TrackPointExtension xmlns:gpxtpx="http://www.garmin.com/xmlschemas/TrackPointExtension/v1">
            <gpxtpx:hr>139</gpxtpx:hr>
          </gpxtpx:TrackPointExtension>
        </extensions>
      </trkpt>
      <trkpt lat="45.76855" lon="6.39239">
        <ele>532.40002441406</ele>
        <time>2020-07-05T05:27:06.000Z</time>
        <extensions>
          <gpxtpx:TrackPointExtension xmlns:gpxtpx="http://www.garmin.com/xmlschemas/TrackPointExtension/v1">
            <gpxtpx:hr>139</gpxtpx:hr>
          </gpxtpx:TrackPointExtension>
        </extensions>
      </trkpt>
      <trkpt lat="45.76871" lon="6.39236">
        <ele>533.20001220703</ele>
        <time>2020-07-05T05:27:10.000Z</time>
        <extensions>
          <gpxtpx:TrackPointExtension xmlns:gpxtpx="http://www.garmin.com/xmlschemas/TrackPointExtension/v1">
            <gpxtpx:hr>140</gpxtpx:hr>
          </gpxtpx:TrackPointExtension>
        </extensions>
      </trkpt>
      <trkpt lat="45.76874" lon="6.39236">
        <ele>533.40002441406</ele>
        <time>2020-07-05T05:27:11.000Z</time>
        <extensions>
          <gpxtpx:TrackPointExtension xmlns:gpxtpx="http://www.garmin.com/xmlschemas/TrackPointExtension/v1">
            <gpxtpx:hr>140</gpxtpx:hr>
          </gpxtpx:TrackPointExtension>
        </extensions>
      </trkpt>
      <trkpt lat="45.76892" lon="6.39233">
        <ele>534.40002441406</ele>
        <time>2020-07-05T05:27:16.000Z</time>
        <extensions>
          <gpxtpx:TrackPointExtension xmlns:gpxtpx="http://www.garmin.com/xmlschemas/TrackPointExtension/v1">
            <gpxtpx:hr>140</gpxtpx:hr>
          </gpxtpx:TrackPointExtension>
        </extensions>
      </trkpt>
      <trkpt lat="45.76895" lon="6.39233">
        <ele>534.40002441406</ele>
        <time>2020-07-05T05:27:17.000Z</time>
        <extensions>
          <gpxtpx:TrackPointExtension xmlns:gpxtpx="http://www.garmin.com/xmlschemas/TrackPointExtension/v1">
            <gpxtpx:hr>140</gpxtpx:hr>
          </gpxtpx:TrackPointExtension>
        </extensions>
      </trkpt>
      <trkpt lat="45.76907" lon="6.39232">
        <ele>535.20001220703</ele>
        <time>2020-07-05T05:27:21.000Z</time>
        <extensions>
          <gpxtpx:TrackPointExtension xmlns:gpxtpx="http://www.garmin.com/xmlschemas/TrackPointExtension/v1">
            <gpxtpx:hr>137</gpxtpx:hr>
          </gpxtpx:TrackPointExtension>
        </extensions>
      </trkpt>
      <trkpt lat="45.76913" lon="6.39231">
        <ele>535.59997558594</ele>
        <time>2020-07-05T05:27:23.000Z</time>
        <extensions>
          <gpxtpx:TrackPointExtension xmlns:gpxtpx="http://www.garmin.com/xmlschemas/TrackPointExtension/v1">
            <gpxtpx:hr>136</gpxtpx:hr>
          </gpxtpx:TrackPointExtension>
        </extensions>
      </trkpt>
      <trkpt lat="45.76924" lon="6.39232">
        <ele>536.20001220703</ele>
        <time>2020-07-05T05:27:26.000Z</time>
        <extensions>
          <gpxtpx:TrackPointExtension xmlns:gpxtpx="http://www.garmin.com/xmlschemas/TrackPointExtension/v1">
            <gpxtpx:hr>133</gpxtpx:hr>
          </gpxtpx:TrackPointExtension>
        </extensions>
      </trkpt>
      <trkpt lat="45.7693" lon="6.39233">
        <ele>536.59997558594</ele>
        <time>2020-07-05T05:27:28.000Z</time>
        <extensions>
          <gpxtpx:TrackPointExtension xmlns:gpxtpx="http://www.garmin.com/xmlschemas/TrackPointExtension/v1">
            <gpxtpx:hr>132</gpxtpx:hr>
          </gpxtpx:TrackPointExtension>
        </extensions>
      </trkpt>
      <trkpt lat="45.76936" lon="6.39233">
        <ele>537.20001220703</ele>
        <time>2020-07-05T05:27:30.000Z</time>
        <extensions>
          <gpxtpx:TrackPointExtension xmlns:gpxtpx="http://www.garmin.com/xmlschemas/TrackPointExtension/v1">
            <gpxtpx:hr>133</gpxtpx:hr>
          </gpxtpx:TrackPointExtension>
        </extensions>
      </trkpt>
      <trkpt lat="45.76942" lon="6.39233">
        <ele>537.79998779297</ele>
        <time>2020-07-05T05:27:32.000Z</time>
        <extensions>
          <gpxtpx:TrackPointExtension xmlns:gpxtpx="http://www.garmin.com/xmlschemas/TrackPointExtension/v1">
            <gpxtpx:hr>133</gpxtpx:hr>
          </gpxtpx:TrackPointExtension>
        </extensions>
      </trkpt>
      <trkpt lat="45.76951" lon="6.39231">
        <ele>538.59997558594</ele>
        <time>2020-07-05T05:27:35.000Z</time>
        <extensions>
          <gpxtpx:TrackPointExtension xmlns:gpxtpx="http://www.garmin.com/xmlschemas/TrackPointExtension/v1">
            <gpxtpx:hr>134</gpxtpx:hr>
          </gpxtpx:TrackPointExtension>
        </extensions>
      </trkpt>
      <trkpt lat="45.76954" lon="6.39231">
        <ele>538.79998779297</ele>
        <time>2020-07-05T05:27:36.000Z</time>
        <extensions>
          <gpxtpx:TrackPointExtension xmlns:gpxtpx="http://www.garmin.com/xmlschemas/TrackPointExtension/v1">
            <gpxtpx:hr>135</gpxtpx:hr>
          </gpxtpx:TrackPointExtension>
        </extensions>
      </trkpt>
      <trkpt lat="45.76968" lon="6.3923">
        <ele>540</ele>
        <time>2020-07-05T05:27:41.000Z</time>
        <extensions>
          <gpxtpx:TrackPointExtension xmlns:gpxtpx="http://www.garmin.com/xmlschemas/TrackPointExtension/v1">
            <gpxtpx:hr>133</gpxtpx:hr>
          </gpxtpx:TrackPointExtension>
        </extensions>
      </trkpt>
      <trkpt lat="45.76971" lon="6.39228">
        <ele>540.40002441406</ele>
        <time>2020-07-05T05:27:42.000Z</time>
        <extensions>
          <gpxtpx:TrackPointExtension xmlns:gpxtpx="http://www.garmin.com/xmlschemas/TrackPointExtension/v1">
            <gpxtpx:hr>133</gpxtpx:hr>
          </gpxtpx:TrackPointExtension>
        </extensions>
      </trkpt>
      <trkpt lat="45.76978" lon="6.39224">
        <ele>541</ele>
        <time>2020-07-05T05:27:45.000Z</time>
        <extensions>
          <gpxtpx:TrackPointExtension xmlns:gpxtpx="http://www.garmin.com/xmlschemas/TrackPointExtension/v1">
            <gpxtpx:hr>134</gpxtpx:hr>
          </gpxtpx:TrackPointExtension>
        </extensions>
      </trkpt>
      <trkpt lat="45.7698" lon="6.39223">
        <ele>541.40002441406</ele>
        <time>2020-07-05T05:27:46.000Z</time>
        <extensions>
          <gpxtpx:TrackPointExtension xmlns:gpxtpx="http://www.garmin.com/xmlschemas/TrackPointExtension/v1">
            <gpxtpx:hr>131</gpxtpx:hr>
          </gpxtpx:TrackPointExtension>
        </extensions>
      </trkpt>
      <trkpt lat="45.76983" lon="6.39222">
        <ele>541.59997558594</ele>
        <time>2020-07-05T05:27:47.000Z</time>
        <extensions>
          <gpxtpx:TrackPointExtension xmlns:gpxtpx="http://www.garmin.com/xmlschemas/TrackPointExtension/v1">
            <gpxtpx:hr>132</gpxtpx:hr>
          </gpxtpx:TrackPointExtension>
        </extensions>
      </trkpt>
      <trkpt lat="45.76991" lon="6.39218">
        <ele>542.20001220703</ele>
        <time>2020-07-05T05:27:50.000Z</time>
        <extensions>
          <gpxtpx:TrackPointExtension xmlns:gpxtpx="http://www.garmin.com/xmlschemas/TrackPointExtension/v1">
            <gpxtpx:hr>134</gpxtpx:hr>
          </gpxtpx:TrackPointExtension>
        </extensions>
      </trkpt>
      <trkpt lat="45.77003" lon="6.39215">
        <ele>543.20001220703</ele>
        <time>2020-07-05T05:27:54.000Z</time>
        <extensions>
          <gpxtpx:TrackPointExtension xmlns:gpxtpx="http://www.garmin.com/xmlschemas/TrackPointExtension/v1">
            <gpxtpx:hr>136</gpxtpx:hr>
          </gpxtpx:TrackPointExtension>
        </extensions>
      </trkpt>
      <trkpt lat="45.77005" lon="6.39215">
        <ele>543.59997558594</ele>
        <time>2020-07-05T05:27:55.000Z</time>
        <extensions>
          <gpxtpx:TrackPointExtension xmlns:gpxtpx="http://www.garmin.com/xmlschemas/TrackPointExtension/v1">
            <gpxtpx:hr>136</gpxtpx:hr>
          </gpxtpx:TrackPointExtension>
        </extensions>
      </trkpt>
      <trkpt lat="45.7701" lon="6.39219">
        <ele>544.59997558594</ele>
        <time>2020-07-05T05:27:57.000Z</time>
        <extensions>
          <gpxtpx:TrackPointExtension xmlns:gpxtpx="http://www.garmin.com/xmlschemas/TrackPointExtension/v1">
            <gpxtpx:hr>137</gpxtpx:hr>
          </gpxtpx:TrackPointExtension>
        </extensions>
      </trkpt>
      <trkpt lat="45.77012" lon="6.39221">
        <ele>545</ele>
        <time>2020-07-05T05:27:58.000Z</time>
        <extensions>
          <gpxtpx:TrackPointExtension xmlns:gpxtpx="http://www.garmin.com/xmlschemas/TrackPointExtension/v1">
            <gpxtpx:hr>137</gpxtpx:hr>
          </gpxtpx:TrackPointExtension>
        </extensions>
      </trkpt>
      <trkpt lat="45.77013" lon="6.39225">
        <ele>545.59997558594</ele>
        <time>2020-07-05T05:27:59.000Z</time>
        <extensions>
          <gpxtpx:TrackPointExtension xmlns:gpxtpx="http://www.garmin.com/xmlschemas/TrackPointExtension/v1">
            <gpxtpx:hr>137</gpxtpx:hr>
          </gpxtpx:TrackPointExtension>
        </extensions>
      </trkpt>
      <trkpt lat="45.77013" lon="6.39234">
        <ele>546.20001220703</ele>
        <time>2020-07-05T05:28:01.000Z</time>
        <extensions>
          <gpxtpx:TrackPointExtension xmlns:gpxtpx="http://www.garmin.com/xmlschemas/TrackPointExtension/v1">
            <gpxtpx:hr>139</gpxtpx:hr>
          </gpxtpx:TrackPointExtension>
        </extensions>
      </trkpt>
      <trkpt lat="45.7701" lon="6.39242">
        <ele>546.59997558594</ele>
        <time>2020-07-05T05:28:03.000Z</time>
        <extensions>
          <gpxtpx:TrackPointExtension xmlns:gpxtpx="http://www.garmin.com/xmlschemas/TrackPointExtension/v1">
            <gpxtpx:hr>139</gpxtpx:hr>
          </gpxtpx:TrackPointExtension>
        </extensions>
      </trkpt>
      <trkpt lat="45.77009" lon="6.39246">
        <ele>546.79998779297</ele>
        <time>2020-07-05T05:28:04.000Z</time>
        <extensions>
          <gpxtpx:TrackPointExtension xmlns:gpxtpx="http://www.garmin.com/xmlschemas/TrackPointExtension/v1">
            <gpxtpx:hr>137</gpxtpx:hr>
          </gpxtpx:TrackPointExtension>
        </extensions>
      </trkpt>
      <trkpt lat="45.77007" lon="6.39249">
        <ele>547</ele>
        <time>2020-07-05T05:28:05.000Z</time>
        <extensions>
          <gpxtpx:TrackPointExtension xmlns:gpxtpx="http://www.garmin.com/xmlschemas/TrackPointExtension/v1">
            <gpxtpx:hr>140</gpxtpx:hr>
          </gpxtpx:TrackPointExtension>
        </extensions>
      </trkpt>
      <trkpt lat="45.77002" lon="6.39261">
        <ele>547.79998779297</ele>
        <time>2020-07-05T05:28:08.000Z</time>
        <extensions>
          <gpxtpx:TrackPointExtension xmlns:gpxtpx="http://www.garmin.com/xmlschemas/TrackPointExtension/v1">
            <gpxtpx:hr>137</gpxtpx:hr>
          </gpxtpx:TrackPointExtension>
        </extensions>
      </trkpt>
      <trkpt lat="45.77" lon="6.39266">
        <ele>548</ele>
        <time>2020-07-05T05:28:09.000Z</time>
        <extensions>
          <gpxtpx:TrackPointExtension xmlns:gpxtpx="http://www.garmin.com/xmlschemas/TrackPointExtension/v1">
            <gpxtpx:hr>137</gpxtpx:hr>
          </gpxtpx:TrackPointExtension>
        </extensions>
      </trkpt>
      <trkpt lat="45.76998" lon="6.3927">
        <ele>548.20001220703</ele>
        <time>2020-07-05T05:28:10.000Z</time>
        <extensions>
          <gpxtpx:TrackPointExtension xmlns:gpxtpx="http://www.garmin.com/xmlschemas/TrackPointExtension/v1">
            <gpxtpx:hr>137</gpxtpx:hr>
          </gpxtpx:TrackPointExtension>
        </extensions>
      </trkpt>
      <trkpt lat="45.76993" lon="6.3928">
        <ele>549.20001220703</ele>
        <time>2020-07-05T05:28:13.000Z</time>
        <extensions>
          <gpxtpx:TrackPointExtension xmlns:gpxtpx="http://www.garmin.com/xmlschemas/TrackPointExtension/v1">
            <gpxtpx:hr>136</gpxtpx:hr>
          </gpxtpx:TrackPointExtension>
        </extensions>
      </trkpt>
      <trkpt lat="45.76988" lon="6.39292">
        <ele>549.79998779297</ele>
        <time>2020-07-05T05:28:16.000Z</time>
        <extensions>
          <gpxtpx:TrackPointExtension xmlns:gpxtpx="http://www.garmin.com/xmlschemas/TrackPointExtension/v1">
            <gpxtpx:hr>137</gpxtpx:hr>
          </gpxtpx:TrackPointExtension>
        </extensions>
      </trkpt>
      <trkpt lat="45.76986" lon="6.39298">
        <ele>550.20001220703</ele>
        <time>2020-07-05T05:28:18.000Z</time>
        <extensions>
          <gpxtpx:TrackPointExtension xmlns:gpxtpx="http://www.garmin.com/xmlschemas/TrackPointExtension/v1">
            <gpxtpx:hr>137</gpxtpx:hr>
          </gpxtpx:TrackPointExtension>
        </extensions>
      </trkpt>
      <trkpt lat="45.76984" lon="6.39307">
        <ele>551.20001220703</ele>
        <time>2020-07-05T05:28:21.000Z</time>
        <extensions>
          <gpxtpx:TrackPointExtension xmlns:gpxtpx="http://www.garmin.com/xmlschemas/TrackPointExtension/v1">
            <gpxtpx:hr>136</gpxtpx:hr>
          </gpxtpx:TrackPointExtension>
        </extensions>
      </trkpt>
      <trkpt lat="45.76983" lon="6.3931">
        <ele>551.40002441406</ele>
        <time>2020-07-05T05:28:22.000Z</time>
        <extensions>
          <gpxtpx:TrackPointExtension xmlns:gpxtpx="http://www.garmin.com/xmlschemas/TrackPointExtension/v1">
            <gpxtpx:hr>135</gpxtpx:hr>
          </gpxtpx:TrackPointExtension>
        </extensions>
      </trkpt>
      <trkpt lat="45.76977" lon="6.39325">
        <ele>552.59997558594</ele>
        <time>2020-07-05T05:28:26.000Z</time>
        <extensions>
          <gpxtpx:TrackPointExtension xmlns:gpxtpx="http://www.garmin.com/xmlschemas/TrackPointExtension/v1">
            <gpxtpx:hr>135</gpxtpx:hr>
          </gpxtpx:TrackPointExtension>
        </extensions>
      </trkpt>
      <trkpt lat="45.76972" lon="6.39338">
        <ele>553.20001220703</ele>
        <time>2020-07-05T05:28:29.000Z</time>
        <extensions>
          <gpxtpx:TrackPointExtension xmlns:gpxtpx="http://www.garmin.com/xmlschemas/TrackPointExtension/v1">
            <gpxtpx:hr>135</gpxtpx:hr>
          </gpxtpx:TrackPointExtension>
        </extensions>
      </trkpt>
      <trkpt lat="45.7697" lon="6.39346">
        <ele>553.79998779297</ele>
        <time>2020-07-05T05:28:31.000Z</time>
        <extensions>
          <gpxtpx:TrackPointExtension xmlns:gpxtpx="http://www.garmin.com/xmlschemas/TrackPointExtension/v1">
            <gpxtpx:hr>137</gpxtpx:hr>
          </gpxtpx:TrackPointExtension>
        </extensions>
      </trkpt>
      <trkpt lat="45.76963" lon="6.39367">
        <ele>554.79998779297</ele>
        <time>2020-07-05T05:28:36.000Z</time>
        <extensions>
          <gpxtpx:TrackPointExtension xmlns:gpxtpx="http://www.garmin.com/xmlschemas/TrackPointExtension/v1">
            <gpxtpx:hr>139</gpxtpx:hr>
          </gpxtpx:TrackPointExtension>
        </extensions>
      </trkpt>
      <trkpt lat="45.7696" lon="6.39375">
        <ele>555.40002441406</ele>
        <time>2020-07-05T05:28:38.000Z</time>
        <extensions>
          <gpxtpx:TrackPointExtension xmlns:gpxtpx="http://www.garmin.com/xmlschemas/TrackPointExtension/v1">
            <gpxtpx:hr>141</gpxtpx:hr>
          </gpxtpx:TrackPointExtension>
        </extensions>
      </trkpt>
      <trkpt lat="45.76958" lon="6.39384">
        <ele>555.79998779297</ele>
        <time>2020-07-05T05:28:40.000Z</time>
        <extensions>
          <gpxtpx:TrackPointExtension xmlns:gpxtpx="http://www.garmin.com/xmlschemas/TrackPointExtension/v1">
            <gpxtpx:hr>141</gpxtpx:hr>
          </gpxtpx:TrackPointExtension>
        </extensions>
      </trkpt>
      <trkpt lat="45.76952" lon="6.39405">
        <ele>557</ele>
        <time>2020-07-05T05:28:45.000Z</time>
        <extensions>
          <gpxtpx:TrackPointExtension xmlns:gpxtpx="http://www.garmin.com/xmlschemas/TrackPointExtension/v1">
            <gpxtpx:hr>144</gpxtpx:hr>
          </gpxtpx:TrackPointExtension>
        </extensions>
      </trkpt>
      <trkpt lat="45.7695" lon="6.39412">
        <ele>557.40002441406</ele>
        <time>2020-07-05T05:28:47.000Z</time>
        <extensions>
          <gpxtpx:TrackPointExtension xmlns:gpxtpx="http://www.garmin.com/xmlschemas/TrackPointExtension/v1">
            <gpxtpx:hr>141</gpxtpx:hr>
          </gpxtpx:TrackPointExtension>
        </extensions>
      </trkpt>
      <trkpt lat="45.76947" lon="6.3942">
        <ele>558</ele>
        <time>2020-07-05T05:28:49.000Z</time>
        <extensions>
          <gpxtpx:TrackPointExtension xmlns:gpxtpx="http://www.garmin.com/xmlschemas/TrackPointExtension/v1">
            <gpxtpx:hr>140</gpxtpx:hr>
          </gpxtpx:TrackPointExtension>
        </extensions>
      </trkpt>
      <trkpt lat="45.76943" lon="6.39436">
        <ele>559</ele>
        <time>2020-07-05T05:28:53.000Z</time>
        <extensions>
          <gpxtpx:TrackPointExtension xmlns:gpxtpx="http://www.garmin.com/xmlschemas/TrackPointExtension/v1">
            <gpxtpx:hr>141</gpxtpx:hr>
          </gpxtpx:TrackPointExtension>
        </extensions>
      </trkpt>
      <trkpt lat="45.76942" lon="6.3944">
        <ele>559.20001220703</ele>
        <time>2020-07-05T05:28:54.000Z</time>
        <extensions>
          <gpxtpx:TrackPointExtension xmlns:gpxtpx="http://www.garmin.com/xmlschemas/TrackPointExtension/v1">
            <gpxtpx:hr>140</gpxtpx:hr>
          </gpxtpx:TrackPointExtension>
        </extensions>
      </trkpt>
      <trkpt lat="45.76938" lon="6.39456">
        <ele>560.20001220703</ele>
        <time>2020-07-05T05:28:58.000Z</time>
        <extensions>
          <gpxtpx:TrackPointExtension xmlns:gpxtpx="http://www.garmin.com/xmlschemas/TrackPointExtension/v1">
            <gpxtpx:hr>139</gpxtpx:hr>
          </gpxtpx:TrackPointExtension>
        </extensions>
      </trkpt>
      <trkpt lat="45.76937" lon="6.3946">
        <ele>560.59997558594</ele>
        <time>2020-07-05T05:28:59.000Z</time>
        <extensions>
          <gpxtpx:TrackPointExtension xmlns:gpxtpx="http://www.garmin.com/xmlschemas/TrackPointExtension/v1">
            <gpxtpx:hr>139</gpxtpx:hr>
          </gpxtpx:TrackPointExtension>
        </extensions>
      </trkpt>
      <trkpt lat="45.76933" lon="6.39476">
        <ele>561.20001220703</ele>
        <time>2020-07-05T05:29:03.000Z</time>
        <extensions>
          <gpxtpx:TrackPointExtension xmlns:gpxtpx="http://www.garmin.com/xmlschemas/TrackPointExtension/v1">
            <gpxtpx:hr>138</gpxtpx:hr>
          </gpxtpx:TrackPointExtension>
        </extensions>
      </trkpt>
      <trkpt lat="45.76928" lon="6.39491">
        <ele>562.40002441406</ele>
        <time>2020-07-05T05:29:07.000Z</time>
        <extensions>
          <gpxtpx:TrackPointExtension xmlns:gpxtpx="http://www.garmin.com/xmlschemas/TrackPointExtension/v1">
            <gpxtpx:hr>137</gpxtpx:hr>
          </gpxtpx:TrackPointExtension>
        </extensions>
      </trkpt>
      <trkpt lat="45.76923" lon="6.3951">
        <ele>563.59997558594</ele>
        <time>2020-07-05T05:29:12.000Z</time>
        <extensions>
          <gpxtpx:TrackPointExtension xmlns:gpxtpx="http://www.garmin.com/xmlschemas/TrackPointExtension/v1">
            <gpxtpx:hr>135</gpxtpx:hr>
          </gpxtpx:TrackPointExtension>
        </extensions>
      </trkpt>
      <trkpt lat="45.76919" lon="6.39527">
        <ele>564.40002441406</ele>
        <time>2020-07-05T05:29:16.000Z</time>
        <extensions>
          <gpxtpx:TrackPointExtension xmlns:gpxtpx="http://www.garmin.com/xmlschemas/TrackPointExtension/v1">
            <gpxtpx:hr>135</gpxtpx:hr>
          </gpxtpx:TrackPointExtension>
        </extensions>
      </trkpt>
      <trkpt lat="45.76918" lon="6.39531">
        <ele>564.59997558594</ele>
        <time>2020-07-05T05:29:17.000Z</time>
        <extensions>
          <gpxtpx:TrackPointExtension xmlns:gpxtpx="http://www.garmin.com/xmlschemas/TrackPointExtension/v1">
            <gpxtpx:hr>135</gpxtpx:hr>
          </gpxtpx:TrackPointExtension>
        </extensions>
      </trkpt>
      <trkpt lat="45.76919" lon="6.39547">
        <ele>565.40002441406</ele>
        <time>2020-07-05T05:29:21.000Z</time>
        <extensions>
          <gpxtpx:TrackPointExtension xmlns:gpxtpx="http://www.garmin.com/xmlschemas/TrackPointExtension/v1">
            <gpxtpx:hr>137</gpxtpx:hr>
          </gpxtpx:TrackPointExtension>
        </extensions>
      </trkpt>
      <trkpt lat="45.76921" lon="6.39552">
        <ele>565.59997558594</ele>
        <time>2020-07-05T05:29:22.000Z</time>
        <extensions>
          <gpxtpx:TrackPointExtension xmlns:gpxtpx="http://www.garmin.com/xmlschemas/TrackPointExtension/v1">
            <gpxtpx:hr>138</gpxtpx:hr>
          </gpxtpx:TrackPointExtension>
        </extensions>
      </trkpt>
      <trkpt lat="45.76926" lon="6.39554">
        <ele>566.20001220703</ele>
        <time>2020-07-05T05:29:24.000Z</time>
        <extensions>
          <gpxtpx:TrackPointExtension xmlns:gpxtpx="http://www.garmin.com/xmlschemas/TrackPointExtension/v1">
            <gpxtpx:hr>139</gpxtpx:hr>
          </gpxtpx:TrackPointExtension>
        </extensions>
      </trkpt>
      <trkpt lat="45.76932" lon="6.39553">
        <ele>566.79998779297</ele>
        <time>2020-07-05T05:29:26.000Z</time>
        <extensions>
          <gpxtpx:TrackPointExtension xmlns:gpxtpx="http://www.garmin.com/xmlschemas/TrackPointExtension/v1">
            <gpxtpx:hr>139</gpxtpx:hr>
          </gpxtpx:TrackPointExtension>
        </extensions>
      </trkpt>
      <trkpt lat="45.76941" lon="6.39548">
        <ele>567.59997558594</ele>
        <time>2020-07-05T05:29:29.000Z</time>
        <extensions>
          <gpxtpx:TrackPointExtension xmlns:gpxtpx="http://www.garmin.com/xmlschemas/TrackPointExtension/v1">
            <gpxtpx:hr>139</gpxtpx:hr>
          </gpxtpx:TrackPointExtension>
        </extensions>
      </trkpt>
      <trkpt lat="45.76944" lon="6.39546">
        <ele>568</ele>
        <time>2020-07-05T05:29:30.000Z</time>
        <extensions>
          <gpxtpx:TrackPointExtension xmlns:gpxtpx="http://www.garmin.com/xmlschemas/TrackPointExtension/v1">
            <gpxtpx:hr>138</gpxtpx:hr>
          </gpxtpx:TrackPointExtension>
        </extensions>
      </trkpt>
      <trkpt lat="45.76955" lon="6.39539">
        <ele>569.20001220703</ele>
        <time>2020-07-05T05:29:34.000Z</time>
        <extensions>
          <gpxtpx:TrackPointExtension xmlns:gpxtpx="http://www.garmin.com/xmlschemas/TrackPointExtension/v1">
            <gpxtpx:hr>137</gpxtpx:hr>
          </gpxtpx:TrackPointExtension>
        </extensions>
      </trkpt>
      <trkpt lat="45.76963" lon="6.39534">
        <ele>570</ele>
        <time>2020-07-05T05:29:37.000Z</time>
        <extensions>
          <gpxtpx:TrackPointExtension xmlns:gpxtpx="http://www.garmin.com/xmlschemas/TrackPointExtension/v1">
            <gpxtpx:hr>136</gpxtpx:hr>
          </gpxtpx:TrackPointExtension>
        </extensions>
      </trkpt>
      <trkpt lat="45.76965" lon="6.39532">
        <ele>570.20001220703</ele>
        <time>2020-07-05T05:29:38.000Z</time>
        <extensions>
          <gpxtpx:TrackPointExtension xmlns:gpxtpx="http://www.garmin.com/xmlschemas/TrackPointExtension/v1">
            <gpxtpx:hr>136</gpxtpx:hr>
          </gpxtpx:TrackPointExtension>
        </extensions>
      </trkpt>
      <trkpt lat="45.76976" lon="6.39524">
        <ele>571.40002441406</ele>
        <time>2020-07-05T05:29:42.000Z</time>
        <extensions>
          <gpxtpx:TrackPointExtension xmlns:gpxtpx="http://www.garmin.com/xmlschemas/TrackPointExtension/v1">
            <gpxtpx:hr>138</gpxtpx:hr>
          </gpxtpx:TrackPointExtension>
        </extensions>
      </trkpt>
      <trkpt lat="45.7699" lon="6.39515">
        <ele>572.59997558594</ele>
        <time>2020-07-05T05:29:47.000Z</time>
        <extensions>
          <gpxtpx:TrackPointExtension xmlns:gpxtpx="http://www.garmin.com/xmlschemas/TrackPointExtension/v1">
            <gpxtpx:hr>136</gpxtpx:hr>
          </gpxtpx:TrackPointExtension>
        </extensions>
      </trkpt>
      <trkpt lat="45.76995" lon="6.39512">
        <ele>573.40002441406</ele>
        <time>2020-07-05T05:29:49.000Z</time>
        <extensions>
          <gpxtpx:TrackPointExtension xmlns:gpxtpx="http://www.garmin.com/xmlschemas/TrackPointExtension/v1">
            <gpxtpx:hr>136</gpxtpx:hr>
          </gpxtpx:TrackPointExtension>
        </extensions>
      </trkpt>
      <trkpt lat="45.76997" lon="6.39511">
        <ele>573.79998779297</ele>
        <time>2020-07-05T05:29:50.000Z</time>
        <extensions>
          <gpxtpx:TrackPointExtension xmlns:gpxtpx="http://www.garmin.com/xmlschemas/TrackPointExtension/v1">
            <gpxtpx:hr>137</gpxtpx:hr>
          </gpxtpx:TrackPointExtension>
        </extensions>
      </trkpt>
      <trkpt lat="45.77007" lon="6.39507">
        <ele>574.79998779297</ele>
        <time>2020-07-05T05:29:54.000Z</time>
        <extensions>
          <gpxtpx:TrackPointExtension xmlns:gpxtpx="http://www.garmin.com/xmlschemas/TrackPointExtension/v1">
            <gpxtpx:hr>135</gpxtpx:hr>
          </gpxtpx:TrackPointExtension>
        </extensions>
      </trkpt>
      <trkpt lat="45.77017" lon="6.39503">
        <ele>576.20001220703</ele>
        <time>2020-07-05T05:29:58.000Z</time>
        <extensions>
          <gpxtpx:TrackPointExtension xmlns:gpxtpx="http://www.garmin.com/xmlschemas/TrackPointExtension/v1">
            <gpxtpx:hr>134</gpxtpx:hr>
          </gpxtpx:TrackPointExtension>
        </extensions>
      </trkpt>
      <trkpt lat="45.77023" lon="6.39502">
        <ele>576.59997558594</ele>
        <time>2020-07-05T05:30:00.000Z</time>
        <extensions>
          <gpxtpx:TrackPointExtension xmlns:gpxtpx="http://www.garmin.com/xmlschemas/TrackPointExtension/v1">
            <gpxtpx:hr>134</gpxtpx:hr>
          </gpxtpx:TrackPointExtension>
        </extensions>
      </trkpt>
      <trkpt lat="45.77028" lon="6.39503">
        <ele>577.40002441406</ele>
        <time>2020-07-05T05:30:02.000Z</time>
        <extensions>
          <gpxtpx:TrackPointExtension xmlns:gpxtpx="http://www.garmin.com/xmlschemas/TrackPointExtension/v1">
            <gpxtpx:hr>135</gpxtpx:hr>
          </gpxtpx:TrackPointExtension>
        </extensions>
      </trkpt>
      <trkpt lat="45.77036" lon="6.39503">
        <ele>578.20001220703</ele>
        <time>2020-07-05T05:30:05.000Z</time>
        <extensions>
          <gpxtpx:TrackPointExtension xmlns:gpxtpx="http://www.garmin.com/xmlschemas/TrackPointExtension/v1">
            <gpxtpx:hr>139</gpxtpx:hr>
          </gpxtpx:TrackPointExtension>
        </extensions>
      </trkpt>
      <trkpt lat="45.77039" lon="6.39502">
        <ele>578.59997558594</ele>
        <time>2020-07-05T05:30:06.000Z</time>
        <extensions>
          <gpxtpx:TrackPointExtension xmlns:gpxtpx="http://www.garmin.com/xmlschemas/TrackPointExtension/v1">
            <gpxtpx:hr>139</gpxtpx:hr>
          </gpxtpx:TrackPointExtension>
        </extensions>
      </trkpt>
      <trkpt lat="45.77049" lon="6.39499">
        <ele>579.59997558594</ele>
        <time>2020-07-05T05:30:10.000Z</time>
        <extensions>
          <gpxtpx:TrackPointExtension xmlns:gpxtpx="http://www.garmin.com/xmlschemas/TrackPointExtension/v1">
            <gpxtpx:hr>139</gpxtpx:hr>
          </gpxtpx:TrackPointExtension>
        </extensions>
      </trkpt>
      <trkpt lat="45.77061" lon="6.39493">
        <ele>580.79998779297</ele>
        <time>2020-07-05T05:30:15.000Z</time>
        <extensions>
          <gpxtpx:TrackPointExtension xmlns:gpxtpx="http://www.garmin.com/xmlschemas/TrackPointExtension/v1">
            <gpxtpx:hr>139</gpxtpx:hr>
          </gpxtpx:TrackPointExtension>
        </extensions>
      </trkpt>
      <trkpt lat="45.77074" lon="6.39484">
        <ele>581.79998779297</ele>
        <time>2020-07-05T05:30:20.000Z</time>
        <extensions>
          <gpxtpx:TrackPointExtension xmlns:gpxtpx="http://www.garmin.com/xmlschemas/TrackPointExtension/v1">
            <gpxtpx:hr>140</gpxtpx:hr>
          </gpxtpx:TrackPointExtension>
        </extensions>
      </trkpt>
      <trkpt lat="45.7709" lon="6.39472">
        <ele>582.79998779297</ele>
        <time>2020-07-05T05:30:26.000Z</time>
        <extensions>
          <gpxtpx:TrackPointExtension xmlns:gpxtpx="http://www.garmin.com/xmlschemas/TrackPointExtension/v1">
            <gpxtpx:hr>142</gpxtpx:hr>
          </gpxtpx:TrackPointExtension>
        </extensions>
      </trkpt>
      <trkpt lat="45.77092" lon="6.39471">
        <ele>583</ele>
        <time>2020-07-05T05:30:27.000Z</time>
        <extensions>
          <gpxtpx:TrackPointExtension xmlns:gpxtpx="http://www.garmin.com/xmlschemas/TrackPointExtension/v1">
            <gpxtpx:hr>142</gpxtpx:hr>
          </gpxtpx:TrackPointExtension>
        </extensions>
      </trkpt>
      <trkpt lat="45.77106" lon="6.39463">
        <ele>584</ele>
        <time>2020-07-05T05:30:32.000Z</time>
        <extensions>
          <gpxtpx:TrackPointExtension xmlns:gpxtpx="http://www.garmin.com/xmlschemas/TrackPointExtension/v1">
            <gpxtpx:hr>142</gpxtpx:hr>
          </gpxtpx:TrackPointExtension>
        </extensions>
      </trkpt>
      <trkpt lat="45.77108" lon="6.39461">
        <ele>584.20001220703</ele>
        <time>2020-07-05T05:30:33.000Z</time>
        <extensions>
          <gpxtpx:TrackPointExtension xmlns:gpxtpx="http://www.garmin.com/xmlschemas/TrackPointExtension/v1">
            <gpxtpx:hr>142</gpxtpx:hr>
          </gpxtpx:TrackPointExtension>
        </extensions>
      </trkpt>
      <trkpt lat="45.77111" lon="6.39459">
        <ele>584.40002441406</ele>
        <time>2020-07-05T05:30:34.000Z</time>
        <extensions>
          <gpxtpx:TrackPointExtension xmlns:gpxtpx="http://www.garmin.com/xmlschemas/TrackPointExtension/v1">
            <gpxtpx:hr>139</gpxtpx:hr>
          </gpxtpx:TrackPointExtension>
        </extensions>
      </trkpt>
      <trkpt lat="45.77117" lon="6.39453">
        <ele>585.20001220703</ele>
        <time>2020-07-05T05:30:37.000Z</time>
        <extensions>
          <gpxtpx:TrackPointExtension xmlns:gpxtpx="http://www.garmin.com/xmlschemas/TrackPointExtension/v1">
            <gpxtpx:hr>139</gpxtpx:hr>
          </gpxtpx:TrackPointExtension>
        </extensions>
      </trkpt>
      <trkpt lat="45.77123" lon="6.39445">
        <ele>586</ele>
        <time>2020-07-05T05:30:40.000Z</time>
        <extensions>
          <gpxtpx:TrackPointExtension xmlns:gpxtpx="http://www.garmin.com/xmlschemas/TrackPointExtension/v1">
            <gpxtpx:hr>135</gpxtpx:hr>
          </gpxtpx:TrackPointExtension>
        </extensions>
      </trkpt>
      <trkpt lat="45.77125" lon="6.39442">
        <ele>586.20001220703</ele>
        <time>2020-07-05T05:30:41.000Z</time>
        <extensions>
          <gpxtpx:TrackPointExtension xmlns:gpxtpx="http://www.garmin.com/xmlschemas/TrackPointExtension/v1">
            <gpxtpx:hr>135</gpxtpx:hr>
          </gpxtpx:TrackPointExtension>
        </extensions>
      </trkpt>
      <trkpt lat="45.77131" lon="6.3943">
        <ele>587.20001220703</ele>
        <time>2020-07-05T05:30:45.000Z</time>
        <extensions>
          <gpxtpx:TrackPointExtension xmlns:gpxtpx="http://www.garmin.com/xmlschemas/TrackPointExtension/v1">
            <gpxtpx:hr>135</gpxtpx:hr>
          </gpxtpx:TrackPointExtension>
        </extensions>
      </trkpt>
      <trkpt lat="45.77136" lon="6.39418">
        <ele>588.20001220703</ele>
        <time>2020-07-05T05:30:49.000Z</time>
        <extensions>
          <gpxtpx:TrackPointExtension xmlns:gpxtpx="http://www.garmin.com/xmlschemas/TrackPointExtension/v1">
            <gpxtpx:hr>140</gpxtpx:hr>
          </gpxtpx:TrackPointExtension>
        </extensions>
      </trkpt>
      <trkpt lat="45.77138" lon="6.39415">
        <ele>588.40002441406</ele>
        <time>2020-07-05T05:30:50.000Z</time>
        <extensions>
          <gpxtpx:TrackPointExtension xmlns:gpxtpx="http://www.garmin.com/xmlschemas/TrackPointExtension/v1">
            <gpxtpx:hr>140</gpxtpx:hr>
          </gpxtpx:TrackPointExtension>
        </extensions>
      </trkpt>
      <trkpt lat="45.7714" lon="6.39412">
        <ele>588.59997558594</ele>
        <time>2020-07-05T05:30:51.000Z</time>
        <extensions>
          <gpxtpx:TrackPointExtension xmlns:gpxtpx="http://www.garmin.com/xmlschemas/TrackPointExtension/v1">
            <gpxtpx:hr>140</gpxtpx:hr>
          </gpxtpx:TrackPointExtension>
        </extensions>
      </trkpt>
      <trkpt lat="45.77147" lon="6.39406">
        <ele>589.40002441406</ele>
        <time>2020-07-05T05:30:54.000Z</time>
        <extensions>
          <gpxtpx:TrackPointExtension xmlns:gpxtpx="http://www.garmin.com/xmlschemas/TrackPointExtension/v1">
            <gpxtpx:hr>139</gpxtpx:hr>
          </gpxtpx:TrackPointExtension>
        </extensions>
      </trkpt>
      <trkpt lat="45.77149" lon="6.39407">
        <ele>589.59997558594</ele>
        <time>2020-07-05T05:30:55.000Z</time>
        <extensions>
          <gpxtpx:TrackPointExtension xmlns:gpxtpx="http://www.garmin.com/xmlschemas/TrackPointExtension/v1">
            <gpxtpx:hr>139</gpxtpx:hr>
          </gpxtpx:TrackPointExtension>
        </extensions>
      </trkpt>
      <trkpt lat="45.77158" lon="6.39418">
        <ele>590.59997558594</ele>
        <time>2020-07-05T05:30:59.000Z</time>
        <extensions>
          <gpxtpx:TrackPointExtension xmlns:gpxtpx="http://www.garmin.com/xmlschemas/TrackPointExtension/v1">
            <gpxtpx:hr>139</gpxtpx:hr>
          </gpxtpx:TrackPointExtension>
        </extensions>
      </trkpt>
      <trkpt lat="45.77157" lon="6.39434">
        <ele>591.59997558594</ele>
        <time>2020-07-05T05:31:03.000Z</time>
        <extensions>
          <gpxtpx:TrackPointExtension xmlns:gpxtpx="http://www.garmin.com/xmlschemas/TrackPointExtension/v1">
            <gpxtpx:hr>140</gpxtpx:hr>
          </gpxtpx:TrackPointExtension>
        </extensions>
      </trkpt>
      <trkpt lat="45.77157" lon="6.39438">
        <ele>591.79998779297</ele>
        <time>2020-07-05T05:31:04.000Z</time>
        <extensions>
          <gpxtpx:TrackPointExtension xmlns:gpxtpx="http://www.garmin.com/xmlschemas/TrackPointExtension/v1">
            <gpxtpx:hr>140</gpxtpx:hr>
          </gpxtpx:TrackPointExtension>
        </extensions>
      </trkpt>
      <trkpt lat="45.77155" lon="6.39444">
        <ele>592.40002441406</ele>
        <time>2020-07-05T05:31:06.000Z</time>
        <extensions>
          <gpxtpx:TrackPointExtension xmlns:gpxtpx="http://www.garmin.com/xmlschemas/TrackPointExtension/v1">
            <gpxtpx:hr>137</gpxtpx:hr>
          </gpxtpx:TrackPointExtension>
        </extensions>
      </trkpt>
      <trkpt lat="45.77155" lon="6.39448">
        <ele>592.79998779297</ele>
        <time>2020-07-05T05:31:07.000Z</time>
        <extensions>
          <gpxtpx:TrackPointExtension xmlns:gpxtpx="http://www.garmin.com/xmlschemas/TrackPointExtension/v1">
            <gpxtpx:hr>137</gpxtpx:hr>
          </gpxtpx:TrackPointExtension>
        </extensions>
      </trkpt>
      <trkpt lat="45.77154" lon="6.39464">
        <ele>593.79998779297</ele>
        <time>2020-07-05T05:31:11.000Z</time>
        <extensions>
          <gpxtpx:TrackPointExtension xmlns:gpxtpx="http://www.garmin.com/xmlschemas/TrackPointExtension/v1">
            <gpxtpx:hr>134</gpxtpx:hr>
          </gpxtpx:TrackPointExtension>
        </extensions>
      </trkpt>
      <trkpt lat="45.77153" lon="6.39468">
        <ele>594</ele>
        <time>2020-07-05T05:31:12.000Z</time>
        <extensions>
          <gpxtpx:TrackPointExtension xmlns:gpxtpx="http://www.garmin.com/xmlschemas/TrackPointExtension/v1">
            <gpxtpx:hr>136</gpxtpx:hr>
          </gpxtpx:TrackPointExtension>
        </extensions>
      </trkpt>
      <trkpt lat="45.77152" lon="6.39484">
        <ele>595</ele>
        <time>2020-07-05T05:31:16.000Z</time>
        <extensions>
          <gpxtpx:TrackPointExtension xmlns:gpxtpx="http://www.garmin.com/xmlschemas/TrackPointExtension/v1">
            <gpxtpx:hr>138</gpxtpx:hr>
          </gpxtpx:TrackPointExtension>
        </extensions>
      </trkpt>
      <trkpt lat="45.7715" lon="6.39497">
        <ele>595.79998779297</ele>
        <time>2020-07-05T05:31:19.000Z</time>
        <extensions>
          <gpxtpx:TrackPointExtension xmlns:gpxtpx="http://www.garmin.com/xmlschemas/TrackPointExtension/v1">
            <gpxtpx:hr>142</gpxtpx:hr>
          </gpxtpx:TrackPointExtension>
        </extensions>
      </trkpt>
      <trkpt lat="45.7715" lon="6.39502">
        <ele>596</ele>
        <time>2020-07-05T05:31:20.000Z</time>
        <extensions>
          <gpxtpx:TrackPointExtension xmlns:gpxtpx="http://www.garmin.com/xmlschemas/TrackPointExtension/v1">
            <gpxtpx:hr>142</gpxtpx:hr>
          </gpxtpx:TrackPointExtension>
        </extensions>
      </trkpt>
      <trkpt lat="45.7715" lon="6.39506">
        <ele>596.40002441406</ele>
        <time>2020-07-05T05:31:21.000Z</time>
        <extensions>
          <gpxtpx:TrackPointExtension xmlns:gpxtpx="http://www.garmin.com/xmlschemas/TrackPointExtension/v1">
            <gpxtpx:hr>139</gpxtpx:hr>
          </gpxtpx:TrackPointExtension>
        </extensions>
      </trkpt>
      <trkpt lat="45.77149" lon="6.39517">
        <ele>597.20001220703</ele>
        <time>2020-07-05T05:31:24.000Z</time>
        <extensions>
          <gpxtpx:TrackPointExtension xmlns:gpxtpx="http://www.garmin.com/xmlschemas/TrackPointExtension/v1">
            <gpxtpx:hr>138</gpxtpx:hr>
          </gpxtpx:TrackPointExtension>
        </extensions>
      </trkpt>
      <trkpt lat="45.77147" lon="6.39533">
        <ele>598.20001220703</ele>
        <time>2020-07-05T05:31:28.000Z</time>
        <extensions>
          <gpxtpx:TrackPointExtension xmlns:gpxtpx="http://www.garmin.com/xmlschemas/TrackPointExtension/v1">
            <gpxtpx:hr>137</gpxtpx:hr>
          </gpxtpx:TrackPointExtension>
        </extensions>
      </trkpt>
      <trkpt lat="45.77146" lon="6.39536">
        <ele>598.40002441406</ele>
        <time>2020-07-05T05:31:29.000Z</time>
        <extensions>
          <gpxtpx:TrackPointExtension xmlns:gpxtpx="http://www.garmin.com/xmlschemas/TrackPointExtension/v1">
            <gpxtpx:hr>137</gpxtpx:hr>
          </gpxtpx:TrackPointExtension>
        </extensions>
      </trkpt>
      <trkpt lat="45.77144" lon="6.39546">
        <ele>599.40002441406</ele>
        <time>2020-07-05T05:31:32.000Z</time>
        <extensions>
          <gpxtpx:TrackPointExtension xmlns:gpxtpx="http://www.garmin.com/xmlschemas/TrackPointExtension/v1">
            <gpxtpx:hr>136</gpxtpx:hr>
          </gpxtpx:TrackPointExtension>
        </extensions>
      </trkpt>
      <trkpt lat="45.77142" lon="6.39565">
        <ele>600.40002441406</ele>
        <time>2020-07-05T05:31:37.000Z</time>
        <extensions>
          <gpxtpx:TrackPointExtension xmlns:gpxtpx="http://www.garmin.com/xmlschemas/TrackPointExtension/v1">
            <gpxtpx:hr>137</gpxtpx:hr>
          </gpxtpx:TrackPointExtension>
        </extensions>
      </trkpt>
      <trkpt lat="45.77141" lon="6.39569">
        <ele>600.59997558594</ele>
        <time>2020-07-05T05:31:38.000Z</time>
        <extensions>
          <gpxtpx:TrackPointExtension xmlns:gpxtpx="http://www.garmin.com/xmlschemas/TrackPointExtension/v1">
            <gpxtpx:hr>137</gpxtpx:hr>
          </gpxtpx:TrackPointExtension>
        </extensions>
      </trkpt>
      <trkpt lat="45.77138" lon="6.39583">
        <ele>601.59997558594</ele>
        <time>2020-07-05T05:31:42.000Z</time>
        <extensions>
          <gpxtpx:TrackPointExtension xmlns:gpxtpx="http://www.garmin.com/xmlschemas/TrackPointExtension/v1">
            <gpxtpx:hr>139</gpxtpx:hr>
          </gpxtpx:TrackPointExtension>
        </extensions>
      </trkpt>
      <trkpt lat="45.77137" lon="6.3959">
        <ele>602.40002441406</ele>
        <time>2020-07-05T05:31:44.000Z</time>
        <extensions>
          <gpxtpx:TrackPointExtension xmlns:gpxtpx="http://www.garmin.com/xmlschemas/TrackPointExtension/v1">
            <gpxtpx:hr>138</gpxtpx:hr>
          </gpxtpx:TrackPointExtension>
        </extensions>
      </trkpt>
      <trkpt lat="45.77135" lon="6.39597">
        <ele>603</ele>
        <time>2020-07-05T05:31:46.000Z</time>
        <extensions>
          <gpxtpx:TrackPointExtension xmlns:gpxtpx="http://www.garmin.com/xmlschemas/TrackPointExtension/v1">
            <gpxtpx:hr>138</gpxtpx:hr>
          </gpxtpx:TrackPointExtension>
        </extensions>
      </trkpt>
      <trkpt lat="45.77134" lon="6.3961">
        <ele>604</ele>
        <time>2020-07-05T05:31:49.000Z</time>
        <extensions>
          <gpxtpx:TrackPointExtension xmlns:gpxtpx="http://www.garmin.com/xmlschemas/TrackPointExtension/v1">
            <gpxtpx:hr>140</gpxtpx:hr>
          </gpxtpx:TrackPointExtension>
        </extensions>
      </trkpt>
      <trkpt lat="45.77133" lon="6.39619">
        <ele>604.20001220703</ele>
        <time>2020-07-05T05:31:51.000Z</time>
        <extensions>
          <gpxtpx:TrackPointExtension xmlns:gpxtpx="http://www.garmin.com/xmlschemas/TrackPointExtension/v1">
            <gpxtpx:hr>142</gpxtpx:hr>
          </gpxtpx:TrackPointExtension>
        </extensions>
      </trkpt>
      <trkpt lat="45.77129" lon="6.39642">
        <ele>605.20001220703</ele>
        <time>2020-07-05T05:31:57.000Z</time>
        <extensions>
          <gpxtpx:TrackPointExtension xmlns:gpxtpx="http://www.garmin.com/xmlschemas/TrackPointExtension/v1">
            <gpxtpx:hr>141</gpxtpx:hr>
          </gpxtpx:TrackPointExtension>
        </extensions>
      </trkpt>
      <trkpt lat="45.77128" lon="6.39646">
        <ele>605.40002441406</ele>
        <time>2020-07-05T05:31:58.000Z</time>
        <extensions>
          <gpxtpx:TrackPointExtension xmlns:gpxtpx="http://www.garmin.com/xmlschemas/TrackPointExtension/v1">
            <gpxtpx:hr>140</gpxtpx:hr>
          </gpxtpx:TrackPointExtension>
        </extensions>
      </trkpt>
      <trkpt lat="45.77126" lon="6.39657">
        <ele>606.20001220703</ele>
        <time>2020-07-05T05:32:01.000Z</time>
        <extensions>
          <gpxtpx:TrackPointExtension xmlns:gpxtpx="http://www.garmin.com/xmlschemas/TrackPointExtension/v1">
            <gpxtpx:hr>139</gpxtpx:hr>
          </gpxtpx:TrackPointExtension>
        </extensions>
      </trkpt>
      <trkpt lat="45.77125" lon="6.39669">
        <ele>606.79998779297</ele>
        <time>2020-07-05T05:32:04.000Z</time>
        <extensions>
          <gpxtpx:TrackPointExtension xmlns:gpxtpx="http://www.garmin.com/xmlschemas/TrackPointExtension/v1">
            <gpxtpx:hr>138</gpxtpx:hr>
          </gpxtpx:TrackPointExtension>
        </extensions>
      </trkpt>
      <trkpt lat="45.77123" lon="6.39677">
        <ele>607.40002441406</ele>
        <time>2020-07-05T05:32:06.000Z</time>
        <extensions>
          <gpxtpx:TrackPointExtension xmlns:gpxtpx="http://www.garmin.com/xmlschemas/TrackPointExtension/v1">
            <gpxtpx:hr>137</gpxtpx:hr>
          </gpxtpx:TrackPointExtension>
        </extensions>
      </trkpt>
      <trkpt lat="45.7712" lon="6.39697">
        <ele>608.40002441406</ele>
        <time>2020-07-05T05:32:11.000Z</time>
        <extensions>
          <gpxtpx:TrackPointExtension xmlns:gpxtpx="http://www.garmin.com/xmlschemas/TrackPointExtension/v1">
            <gpxtpx:hr>135</gpxtpx:hr>
          </gpxtpx:TrackPointExtension>
        </extensions>
      </trkpt>
      <trkpt lat="45.77119" lon="6.397">
        <ele>608.59997558594</ele>
        <time>2020-07-05T05:32:12.000Z</time>
        <extensions>
          <gpxtpx:TrackPointExtension xmlns:gpxtpx="http://www.garmin.com/xmlschemas/TrackPointExtension/v1">
            <gpxtpx:hr>135</gpxtpx:hr>
          </gpxtpx:TrackPointExtension>
        </extensions>
      </trkpt>
      <trkpt lat="45.77115" lon="6.39715">
        <ele>609.59997558594</ele>
        <time>2020-07-05T05:32:16.000Z</time>
        <extensions>
          <gpxtpx:TrackPointExtension xmlns:gpxtpx="http://www.garmin.com/xmlschemas/TrackPointExtension/v1">
            <gpxtpx:hr>132</gpxtpx:hr>
          </gpxtpx:TrackPointExtension>
        </extensions>
      </trkpt>
      <trkpt lat="45.77115" lon="6.39719">
        <ele>609.79998779297</ele>
        <time>2020-07-05T05:32:17.000Z</time>
        <extensions>
          <gpxtpx:TrackPointExtension xmlns:gpxtpx="http://www.garmin.com/xmlschemas/TrackPointExtension/v1">
            <gpxtpx:hr>132</gpxtpx:hr>
          </gpxtpx:TrackPointExtension>
        </extensions>
      </trkpt>
      <trkpt lat="45.77111" lon="6.39738">
        <ele>611</ele>
        <time>2020-07-05T05:32:22.000Z</time>
        <extensions>
          <gpxtpx:TrackPointExtension xmlns:gpxtpx="http://www.garmin.com/xmlschemas/TrackPointExtension/v1">
            <gpxtpx:hr>130</gpxtpx:hr>
          </gpxtpx:TrackPointExtension>
        </extensions>
      </trkpt>
      <trkpt lat="45.7711" lon="6.39742">
        <ele>611.20001220703</ele>
        <time>2020-07-05T05:32:23.000Z</time>
        <extensions>
          <gpxtpx:TrackPointExtension xmlns:gpxtpx="http://www.garmin.com/xmlschemas/TrackPointExtension/v1">
            <gpxtpx:hr>130</gpxtpx:hr>
          </gpxtpx:TrackPointExtension>
        </extensions>
      </trkpt>
      <trkpt lat="45.77105" lon="6.39753">
        <ele>612</ele>
        <time>2020-07-05T05:32:26.000Z</time>
        <extensions>
          <gpxtpx:TrackPointExtension xmlns:gpxtpx="http://www.garmin.com/xmlschemas/TrackPointExtension/v1">
            <gpxtpx:hr>130</gpxtpx:hr>
          </gpxtpx:TrackPointExtension>
        </extensions>
      </trkpt>
      <trkpt lat="45.77101" lon="6.39773">
        <ele>613.20001220703</ele>
        <time>2020-07-05T05:32:31.000Z</time>
        <extensions>
          <gpxtpx:TrackPointExtension xmlns:gpxtpx="http://www.garmin.com/xmlschemas/TrackPointExtension/v1">
            <gpxtpx:hr>132</gpxtpx:hr>
          </gpxtpx:TrackPointExtension>
        </extensions>
      </trkpt>
      <trkpt lat="45.771" lon="6.39777">
        <ele>613.40002441406</ele>
        <time>2020-07-05T05:32:32.000Z</time>
        <extensions>
          <gpxtpx:TrackPointExtension xmlns:gpxtpx="http://www.garmin.com/xmlschemas/TrackPointExtension/v1">
            <gpxtpx:hr>132</gpxtpx:hr>
          </gpxtpx:TrackPointExtension>
        </extensions>
      </trkpt>
      <trkpt lat="45.77097" lon="6.39789">
        <ele>614.40002441406</ele>
        <time>2020-07-05T05:32:35.000Z</time>
        <extensions>
          <gpxtpx:TrackPointExtension xmlns:gpxtpx="http://www.garmin.com/xmlschemas/TrackPointExtension/v1">
            <gpxtpx:hr>132</gpxtpx:hr>
          </gpxtpx:TrackPointExtension>
        </extensions>
      </trkpt>
      <trkpt lat="45.77094" lon="6.39805">
        <ele>615.20001220703</ele>
        <time>2020-07-05T05:32:39.000Z</time>
        <extensions>
          <gpxtpx:TrackPointExtension xmlns:gpxtpx="http://www.garmin.com/xmlschemas/TrackPointExtension/v1">
            <gpxtpx:hr>132</gpxtpx:hr>
          </gpxtpx:TrackPointExtension>
        </extensions>
      </trkpt>
      <trkpt lat="45.77093" lon="6.39809">
        <ele>615.40002441406</ele>
        <time>2020-07-05T05:32:40.000Z</time>
        <extensions>
          <gpxtpx:TrackPointExtension xmlns:gpxtpx="http://www.garmin.com/xmlschemas/TrackPointExtension/v1">
            <gpxtpx:hr>132</gpxtpx:hr>
          </gpxtpx:TrackPointExtension>
        </extensions>
      </trkpt>
      <trkpt lat="45.77084" lon="6.39832">
        <ele>616.40002441406</ele>
        <time>2020-07-05T05:32:46.000Z</time>
        <extensions>
          <gpxtpx:TrackPointExtension xmlns:gpxtpx="http://www.garmin.com/xmlschemas/TrackPointExtension/v1">
            <gpxtpx:hr>135</gpxtpx:hr>
          </gpxtpx:TrackPointExtension>
        </extensions>
      </trkpt>
      <trkpt lat="45.77083" lon="6.39836">
        <ele>616.59997558594</ele>
        <time>2020-07-05T05:32:47.000Z</time>
        <extensions>
          <gpxtpx:TrackPointExtension xmlns:gpxtpx="http://www.garmin.com/xmlschemas/TrackPointExtension/v1">
            <gpxtpx:hr>135</gpxtpx:hr>
          </gpxtpx:TrackPointExtension>
        </extensions>
      </trkpt>
      <trkpt lat="45.77079" lon="6.39848">
        <ele>617.59997558594</ele>
        <time>2020-07-05T05:32:50.000Z</time>
        <extensions>
          <gpxtpx:TrackPointExtension xmlns:gpxtpx="http://www.garmin.com/xmlschemas/TrackPointExtension/v1">
            <gpxtpx:hr>137</gpxtpx:hr>
          </gpxtpx:TrackPointExtension>
        </extensions>
      </trkpt>
      <trkpt lat="45.77073" lon="6.39864">
        <ele>618.20001220703</ele>
        <time>2020-07-05T05:32:54.000Z</time>
        <extensions>
          <gpxtpx:TrackPointExtension xmlns:gpxtpx="http://www.garmin.com/xmlschemas/TrackPointExtension/v1">
            <gpxtpx:hr>138</gpxtpx:hr>
          </gpxtpx:TrackPointExtension>
        </extensions>
      </trkpt>
      <trkpt lat="45.7707" lon="6.39873">
        <ele>618.40002441406</ele>
        <time>2020-07-05T05:32:56.000Z</time>
        <extensions>
          <gpxtpx:TrackPointExtension xmlns:gpxtpx="http://www.garmin.com/xmlschemas/TrackPointExtension/v1">
            <gpxtpx:hr>135</gpxtpx:hr>
          </gpxtpx:TrackPointExtension>
        </extensions>
      </trkpt>
      <trkpt lat="45.77065" lon="6.39889">
        <ele>618.20001220703</ele>
        <time>2020-07-05T05:32:59.000Z</time>
        <extensions>
          <gpxtpx:TrackPointExtension xmlns:gpxtpx="http://www.garmin.com/xmlschemas/TrackPointExtension/v1">
            <gpxtpx:hr>132</gpxtpx:hr>
          </gpxtpx:TrackPointExtension>
        </extensions>
      </trkpt>
      <trkpt lat="45.7706" lon="6.39896">
        <ele>618</ele>
        <time>2020-07-05T05:33:01.000Z</time>
        <extensions>
          <gpxtpx:TrackPointExtension xmlns:gpxtpx="http://www.garmin.com/xmlschemas/TrackPointExtension/v1">
            <gpxtpx:hr>130</gpxtpx:hr>
          </gpxtpx:TrackPointExtension>
        </extensions>
      </trkpt>
      <trkpt lat="45.77054" lon="6.39904">
        <ele>618</ele>
        <time>2020-07-05T05:33:03.000Z</time>
        <extensions>
          <gpxtpx:TrackPointExtension xmlns:gpxtpx="http://www.garmin.com/xmlschemas/TrackPointExtension/v1">
            <gpxtpx:hr>127</gpxtpx:hr>
          </gpxtpx:TrackPointExtension>
        </extensions>
      </trkpt>
      <trkpt lat="45.7704" lon="6.39923">
        <ele>617.59997558594</ele>
        <time>2020-07-05T05:33:07.000Z</time>
        <extensions>
          <gpxtpx:TrackPointExtension xmlns:gpxtpx="http://www.garmin.com/xmlschemas/TrackPointExtension/v1">
            <gpxtpx:hr>125</gpxtpx:hr>
          </gpxtpx:TrackPointExtension>
        </extensions>
      </trkpt>
      <trkpt lat="45.77028" lon="6.39939">
        <ele>617.20001220703</ele>
        <time>2020-07-05T05:33:10.000Z</time>
        <extensions>
          <gpxtpx:TrackPointExtension xmlns:gpxtpx="http://www.garmin.com/xmlschemas/TrackPointExtension/v1">
            <gpxtpx:hr>122</gpxtpx:hr>
          </gpxtpx:TrackPointExtension>
        </extensions>
      </trkpt>
      <trkpt lat="45.7702" lon="6.39952">
        <ele>617</ele>
        <time>2020-07-05T05:33:12.000Z</time>
        <extensions>
          <gpxtpx:TrackPointExtension xmlns:gpxtpx="http://www.garmin.com/xmlschemas/TrackPointExtension/v1">
            <gpxtpx:hr>122</gpxtpx:hr>
          </gpxtpx:TrackPointExtension>
        </extensions>
      </trkpt>
      <trkpt lat="45.7699" lon="6.39998">
        <ele>616.40002441406</ele>
        <time>2020-07-05T05:33:19.000Z</time>
        <extensions>
          <gpxtpx:TrackPointExtension xmlns:gpxtpx="http://www.garmin.com/xmlschemas/TrackPointExtension/v1">
            <gpxtpx:hr>121</gpxtpx:hr>
          </gpxtpx:TrackPointExtension>
        </extensions>
      </trkpt>
      <trkpt lat="45.76986" lon="6.40005">
        <ele>616.20001220703</ele>
        <time>2020-07-05T05:33:20.000Z</time>
        <extensions>
          <gpxtpx:TrackPointExtension xmlns:gpxtpx="http://www.garmin.com/xmlschemas/TrackPointExtension/v1">
            <gpxtpx:hr>120</gpxtpx:hr>
          </gpxtpx:TrackPointExtension>
        </extensions>
      </trkpt>
      <trkpt lat="45.76973" lon="6.40026">
        <ele>615.40002441406</ele>
        <time>2020-07-05T05:33:23.000Z</time>
        <extensions>
          <gpxtpx:TrackPointExtension xmlns:gpxtpx="http://www.garmin.com/xmlschemas/TrackPointExtension/v1">
            <gpxtpx:hr>119</gpxtpx:hr>
          </gpxtpx:TrackPointExtension>
        </extensions>
      </trkpt>
      <trkpt lat="45.76964" lon="6.40035">
        <ele>615</ele>
        <time>2020-07-05T05:33:25.000Z</time>
        <extensions>
          <gpxtpx:TrackPointExtension xmlns:gpxtpx="http://www.garmin.com/xmlschemas/TrackPointExtension/v1">
            <gpxtpx:hr>116</gpxtpx:hr>
          </gpxtpx:TrackPointExtension>
        </extensions>
      </trkpt>
      <trkpt lat="45.76958" lon="6.40035">
        <ele>614.79998779297</ele>
        <time>2020-07-05T05:33:26.000Z</time>
        <extensions>
          <gpxtpx:TrackPointExtension xmlns:gpxtpx="http://www.garmin.com/xmlschemas/TrackPointExtension/v1">
            <gpxtpx:hr>115</gpxtpx:hr>
          </gpxtpx:TrackPointExtension>
        </extensions>
      </trkpt>
      <trkpt lat="45.7695" lon="6.40032">
        <ele>614.59997558594</ele>
        <time>2020-07-05T05:33:27.000Z</time>
        <extensions>
          <gpxtpx:TrackPointExtension xmlns:gpxtpx="http://www.garmin.com/xmlschemas/TrackPointExtension/v1">
            <gpxtpx:hr>114</gpxtpx:hr>
          </gpxtpx:TrackPointExtension>
        </extensions>
      </trkpt>
      <trkpt lat="45.76938" lon="6.40027">
        <ele>614</ele>
        <time>2020-07-05T05:33:29.000Z</time>
        <extensions>
          <gpxtpx:TrackPointExtension xmlns:gpxtpx="http://www.garmin.com/xmlschemas/TrackPointExtension/v1">
            <gpxtpx:hr>115</gpxtpx:hr>
          </gpxtpx:TrackPointExtension>
        </extensions>
      </trkpt>
      <trkpt lat="45.76932" lon="6.40027">
        <ele>613.79998779297</ele>
        <time>2020-07-05T05:33:30.000Z</time>
        <extensions>
          <gpxtpx:TrackPointExtension xmlns:gpxtpx="http://www.garmin.com/xmlschemas/TrackPointExtension/v1">
            <gpxtpx:hr>114</gpxtpx:hr>
          </gpxtpx:TrackPointExtension>
        </extensions>
      </trkpt>
      <trkpt lat="45.76919" lon="6.40034">
        <ele>613</ele>
        <time>2020-07-05T05:33:32.000Z</time>
        <extensions>
          <gpxtpx:TrackPointExtension xmlns:gpxtpx="http://www.garmin.com/xmlschemas/TrackPointExtension/v1">
            <gpxtpx:hr>113</gpxtpx:hr>
          </gpxtpx:TrackPointExtension>
        </extensions>
      </trkpt>
      <trkpt lat="45.76912" lon="6.40038">
        <ele>612.59997558594</ele>
        <time>2020-07-05T05:33:33.000Z</time>
        <extensions>
          <gpxtpx:TrackPointExtension xmlns:gpxtpx="http://www.garmin.com/xmlschemas/TrackPointExtension/v1">
            <gpxtpx:hr>112</gpxtpx:hr>
          </gpxtpx:TrackPointExtension>
        </extensions>
      </trkpt>
      <trkpt lat="45.76898" lon="6.40046">
        <ele>612</ele>
        <time>2020-07-05T05:33:35.000Z</time>
        <extensions>
          <gpxtpx:TrackPointExtension xmlns:gpxtpx="http://www.garmin.com/xmlschemas/TrackPointExtension/v1">
            <gpxtpx:hr>111</gpxtpx:hr>
          </gpxtpx:TrackPointExtension>
        </extensions>
      </trkpt>
      <trkpt lat="45.7689" lon="6.40048">
        <ele>611.59997558594</ele>
        <time>2020-07-05T05:33:36.000Z</time>
        <extensions>
          <gpxtpx:TrackPointExtension xmlns:gpxtpx="http://www.garmin.com/xmlschemas/TrackPointExtension/v1">
            <gpxtpx:hr>110</gpxtpx:hr>
          </gpxtpx:TrackPointExtension>
        </extensions>
      </trkpt>
      <trkpt lat="45.76882" lon="6.40051">
        <ele>611.40002441406</ele>
        <time>2020-07-05T05:33:37.000Z</time>
        <extensions>
          <gpxtpx:TrackPointExtension xmlns:gpxtpx="http://www.garmin.com/xmlschemas/TrackPointExtension/v1">
            <gpxtpx:hr>109</gpxtpx:hr>
          </gpxtpx:TrackPointExtension>
        </extensions>
      </trkpt>
      <trkpt lat="45.76869" lon="6.40062">
        <ele>611</ele>
        <time>2020-07-05T05:33:39.000Z</time>
        <extensions>
          <gpxtpx:TrackPointExtension xmlns:gpxtpx="http://www.garmin.com/xmlschemas/TrackPointExtension/v1">
            <gpxtpx:hr>108</gpxtpx:hr>
          </gpxtpx:TrackPointExtension>
        </extensions>
      </trkpt>
      <trkpt lat="45.76859" lon="6.4007">
        <ele>611.20001220703</ele>
        <time>2020-07-05T05:33:41.000Z</time>
        <extensions>
          <gpxtpx:TrackPointExtension xmlns:gpxtpx="http://www.garmin.com/xmlschemas/TrackPointExtension/v1">
            <gpxtpx:hr>107</gpxtpx:hr>
          </gpxtpx:TrackPointExtension>
        </extensions>
      </trkpt>
      <trkpt lat="45.76847" lon="6.40077">
        <ele>611.40002441406</ele>
        <time>2020-07-05T05:33:43.000Z</time>
        <extensions>
          <gpxtpx:TrackPointExtension xmlns:gpxtpx="http://www.garmin.com/xmlschemas/TrackPointExtension/v1">
            <gpxtpx:hr>105</gpxtpx:hr>
          </gpxtpx:TrackPointExtension>
        </extensions>
      </trkpt>
      <trkpt lat="45.76837" lon="6.40084">
        <ele>611.40002441406</ele>
        <time>2020-07-05T05:33:45.000Z</time>
        <extensions>
          <gpxtpx:TrackPointExtension xmlns:gpxtpx="http://www.garmin.com/xmlschemas/TrackPointExtension/v1">
            <gpxtpx:hr>104</gpxtpx:hr>
          </gpxtpx:TrackPointExtension>
        </extensions>
      </trkpt>
      <trkpt lat="45.76823" lon="6.40104">
        <ele>611.59997558594</ele>
        <time>2020-07-05T05:33:48.000Z</time>
        <extensions>
          <gpxtpx:TrackPointExtension xmlns:gpxtpx="http://www.garmin.com/xmlschemas/TrackPointExtension/v1">
            <gpxtpx:hr>102</gpxtpx:hr>
          </gpxtpx:TrackPointExtension>
        </extensions>
      </trkpt>
      <trkpt lat="45.7682" lon="6.40111">
        <ele>611.59997558594</ele>
        <time>2020-07-05T05:33:49.000Z</time>
        <extensions>
          <gpxtpx:TrackPointExtension xmlns:gpxtpx="http://www.garmin.com/xmlschemas/TrackPointExtension/v1">
            <gpxtpx:hr>102</gpxtpx:hr>
          </gpxtpx:TrackPointExtension>
        </extensions>
      </trkpt>
      <trkpt lat="45.76802" lon="6.40149">
        <ele>611.40002441406</ele>
        <time>2020-07-05T05:33:54.000Z</time>
        <extensions>
          <gpxtpx:TrackPointExtension xmlns:gpxtpx="http://www.garmin.com/xmlschemas/TrackPointExtension/v1">
            <gpxtpx:hr>101</gpxtpx:hr>
          </gpxtpx:TrackPointExtension>
        </extensions>
      </trkpt>
      <trkpt lat="45.76783" lon="6.40178">
        <ele>610.40002441406</ele>
        <time>2020-07-05T05:33:58.000Z</time>
        <extensions>
          <gpxtpx:TrackPointExtension xmlns:gpxtpx="http://www.garmin.com/xmlschemas/TrackPointExtension/v1">
            <gpxtpx:hr>99</gpxtpx:hr>
          </gpxtpx:TrackPointExtension>
        </extensions>
      </trkpt>
      <trkpt lat="45.76766" lon="6.40202">
        <ele>609.79998779297</ele>
        <time>2020-07-05T05:34:01.000Z</time>
        <extensions>
          <gpxtpx:TrackPointExtension xmlns:gpxtpx="http://www.garmin.com/xmlschemas/TrackPointExtension/v1">
            <gpxtpx:hr>98</gpxtpx:hr>
          </gpxtpx:TrackPointExtension>
        </extensions>
      </trkpt>
      <trkpt lat="45.76755" lon="6.40217">
        <ele>609.40002441406</ele>
        <time>2020-07-05T05:34:03.000Z</time>
        <extensions>
          <gpxtpx:TrackPointExtension xmlns:gpxtpx="http://www.garmin.com/xmlschemas/TrackPointExtension/v1">
            <gpxtpx:hr>99</gpxtpx:hr>
          </gpxtpx:TrackPointExtension>
        </extensions>
      </trkpt>
      <trkpt lat="45.76728" lon="6.40256">
        <ele>608.20001220703</ele>
        <time>2020-07-05T05:34:08.000Z</time>
        <extensions>
          <gpxtpx:TrackPointExtension xmlns:gpxtpx="http://www.garmin.com/xmlschemas/TrackPointExtension/v1">
            <gpxtpx:hr>97</gpxtpx:hr>
          </gpxtpx:TrackPointExtension>
        </extensions>
      </trkpt>
      <trkpt lat="45.76723" lon="6.40265">
        <ele>608</ele>
        <time>2020-07-05T05:34:09.000Z</time>
        <extensions>
          <gpxtpx:TrackPointExtension xmlns:gpxtpx="http://www.garmin.com/xmlschemas/TrackPointExtension/v1">
            <gpxtpx:hr>97</gpxtpx:hr>
          </gpxtpx:TrackPointExtension>
        </extensions>
      </trkpt>
      <trkpt lat="45.76719" lon="6.40273">
        <ele>608</ele>
        <time>2020-07-05T05:34:10.000Z</time>
        <extensions>
          <gpxtpx:TrackPointExtension xmlns:gpxtpx="http://www.garmin.com/xmlschemas/TrackPointExtension/v1">
            <gpxtpx:hr>97</gpxtpx:hr>
          </gpxtpx:TrackPointExtension>
        </extensions>
      </trkpt>
      <trkpt lat="45.76709" lon="6.40301">
        <ele>607.59997558594</ele>
        <time>2020-07-05T05:34:13.000Z</time>
        <extensions>
          <gpxtpx:TrackPointExtension xmlns:gpxtpx="http://www.garmin.com/xmlschemas/TrackPointExtension/v1">
            <gpxtpx:hr>95</gpxtpx:hr>
          </gpxtpx:TrackPointExtension>
        </extensions>
      </trkpt>
      <trkpt lat="45.76698" lon="6.4033">
        <ele>606.59997558594</ele>
        <time>2020-07-05T05:34:16.000Z</time>
        <extensions>
          <gpxtpx:TrackPointExtension xmlns:gpxtpx="http://www.garmin.com/xmlschemas/TrackPointExtension/v1">
            <gpxtpx:hr>95</gpxtpx:hr>
          </gpxtpx:TrackPointExtension>
        </extensions>
      </trkpt>
      <trkpt lat="45.76691" lon="6.40349">
        <ele>605.59997558594</ele>
        <time>2020-07-05T05:34:18.000Z</time>
        <extensions>
          <gpxtpx:TrackPointExtension xmlns:gpxtpx="http://www.garmin.com/xmlschemas/TrackPointExtension/v1">
            <gpxtpx:hr>95</gpxtpx:hr>
          </gpxtpx:TrackPointExtension>
        </extensions>
      </trkpt>
      <trkpt lat="45.76688" lon="6.40358">
        <ele>605.20001220703</ele>
        <time>2020-07-05T05:34:19.000Z</time>
        <extensions>
          <gpxtpx:TrackPointExtension xmlns:gpxtpx="http://www.garmin.com/xmlschemas/TrackPointExtension/v1">
            <gpxtpx:hr>95</gpxtpx:hr>
          </gpxtpx:TrackPointExtension>
        </extensions>
      </trkpt>
      <trkpt lat="45.76684" lon="6.40366">
        <ele>604.59997558594</ele>
        <time>2020-07-05T05:34:20.000Z</time>
        <extensions>
          <gpxtpx:TrackPointExtension xmlns:gpxtpx="http://www.garmin.com/xmlschemas/TrackPointExtension/v1">
            <gpxtpx:hr>95</gpxtpx:hr>
          </gpxtpx:TrackPointExtension>
        </extensions>
      </trkpt>
      <trkpt lat="45.76675" lon="6.40394">
        <ele>603.79998779297</ele>
        <time>2020-07-05T05:34:24.000Z</time>
        <extensions>
          <gpxtpx:TrackPointExtension xmlns:gpxtpx="http://www.garmin.com/xmlschemas/TrackPointExtension/v1">
            <gpxtpx:hr>94</gpxtpx:hr>
          </gpxtpx:TrackPointExtension>
        </extensions>
      </trkpt>
      <trkpt lat="45.76674" lon="6.40399">
        <ele>603.79998779297</ele>
        <time>2020-07-05T05:34:25.000Z</time>
        <extensions>
          <gpxtpx:TrackPointExtension xmlns:gpxtpx="http://www.garmin.com/xmlschemas/TrackPointExtension/v1">
            <gpxtpx:hr>94</gpxtpx:hr>
          </gpxtpx:TrackPointExtension>
        </extensions>
      </trkpt>
      <trkpt lat="45.76677" lon="6.40404">
        <ele>603.79998779297</ele>
        <time>2020-07-05T05:34:27.000Z</time>
        <extensions>
          <gpxtpx:TrackPointExtension xmlns:gpxtpx="http://www.garmin.com/xmlschemas/TrackPointExtension/v1">
            <gpxtpx:hr>93</gpxtpx:hr>
          </gpxtpx:TrackPointExtension>
        </extensions>
      </trkpt>
      <trkpt lat="45.7668" lon="6.40402">
        <ele>604</ele>
        <time>2020-07-05T05:34:29.000Z</time>
        <extensions>
          <gpxtpx:TrackPointExtension xmlns:gpxtpx="http://www.garmin.com/xmlschemas/TrackPointExtension/v1">
            <gpxtpx:hr>92</gpxtpx:hr>
          </gpxtpx:TrackPointExtension>
        </extensions>
      </trkpt>
      <trkpt lat="45.76682" lon="6.40398">
        <ele>604</ele>
        <time>2020-07-05T05:34:30.000Z</time>
        <extensions>
          <gpxtpx:TrackPointExtension xmlns:gpxtpx="http://www.garmin.com/xmlschemas/TrackPointExtension/v1">
            <gpxtpx:hr>92</gpxtpx:hr>
          </gpxtpx:TrackPointExtension>
        </extensions>
      </trkpt>
      <trkpt lat="45.76696" lon="6.40371">
        <ele>605.20001220703</ele>
        <time>2020-07-05T05:34:36.000Z</time>
        <extensions>
          <gpxtpx:TrackPointExtension xmlns:gpxtpx="http://www.garmin.com/xmlschemas/TrackPointExtension/v1">
            <gpxtpx:hr>94</gpxtpx:hr>
          </gpxtpx:TrackPointExtension>
        </extensions>
      </trkpt>
      <trkpt lat="45.76701" lon="6.40362">
        <ele>605.79998779297</ele>
        <time>2020-07-05T05:34:38.000Z</time>
        <extensions>
          <gpxtpx:TrackPointExtension xmlns:gpxtpx="http://www.garmin.com/xmlschemas/TrackPointExtension/v1">
            <gpxtpx:hr>94</gpxtpx:hr>
          </gpxtpx:TrackPointExtension>
        </extensions>
      </trkpt>
      <trkpt lat="45.76711" lon="6.40344">
        <ele>606.79998779297</ele>
        <time>2020-07-05T05:34:42.000Z</time>
        <extensions>
          <gpxtpx:TrackPointExtension xmlns:gpxtpx="http://www.garmin.com/xmlschemas/TrackPointExtension/v1">
            <gpxtpx:hr>93</gpxtpx:hr>
          </gpxtpx:TrackPointExtension>
        </extensions>
      </trkpt>
      <trkpt lat="45.76718" lon="6.4033">
        <ele>607.79998779297</ele>
        <time>2020-07-05T05:34:45.000Z</time>
        <extensions>
          <gpxtpx:TrackPointExtension xmlns:gpxtpx="http://www.garmin.com/xmlschemas/TrackPointExtension/v1">
            <gpxtpx:hr>94</gpxtpx:hr>
          </gpxtpx:TrackPointExtension>
        </extensions>
      </trkpt>
      <trkpt lat="45.76727" lon="6.40313">
        <ele>608.59997558594</ele>
        <time>2020-07-05T05:34:49.000Z</time>
        <extensions>
          <gpxtpx:TrackPointExtension xmlns:gpxtpx="http://www.garmin.com/xmlschemas/TrackPointExtension/v1">
            <gpxtpx:hr>97</gpxtpx:hr>
          </gpxtpx:TrackPointExtension>
        </extensions>
      </trkpt>
      <trkpt lat="45.76732" lon="6.40305">
        <ele>609</ele>
        <time>2020-07-05T05:34:51.000Z</time>
        <extensions>
          <gpxtpx:TrackPointExtension xmlns:gpxtpx="http://www.garmin.com/xmlschemas/TrackPointExtension/v1">
            <gpxtpx:hr>99</gpxtpx:hr>
          </gpxtpx:TrackPointExtension>
        </extensions>
      </trkpt>
      <trkpt lat="45.76742" lon="6.40292">
        <ele>610.40002441406</ele>
        <time>2020-07-05T05:34:55.000Z</time>
        <extensions>
          <gpxtpx:TrackPointExtension xmlns:gpxtpx="http://www.garmin.com/xmlschemas/TrackPointExtension/v1">
            <gpxtpx:hr>102</gpxtpx:hr>
          </gpxtpx:TrackPointExtension>
        </extensions>
      </trkpt>
      <trkpt lat="45.76745" lon="6.40289">
        <ele>610.59997558594</ele>
        <time>2020-07-05T05:34:56.000Z</time>
        <extensions>
          <gpxtpx:TrackPointExtension xmlns:gpxtpx="http://www.garmin.com/xmlschemas/TrackPointExtension/v1">
            <gpxtpx:hr>99</gpxtpx:hr>
          </gpxtpx:TrackPointExtension>
        </extensions>
      </trkpt>
      <trkpt lat="45.76747" lon="6.40286">
        <ele>611</ele>
        <time>2020-07-05T05:34:57.000Z</time>
        <extensions>
          <gpxtpx:TrackPointExtension xmlns:gpxtpx="http://www.garmin.com/xmlschemas/TrackPointExtension/v1">
            <gpxtpx:hr>102</gpxtpx:hr>
          </gpxtpx:TrackPointExtension>
        </extensions>
      </trkpt>
      <trkpt lat="45.76753" lon="6.4028">
        <ele>611.59997558594</ele>
        <time>2020-07-05T05:34:59.000Z</time>
        <extensions>
          <gpxtpx:TrackPointExtension xmlns:gpxtpx="http://www.garmin.com/xmlschemas/TrackPointExtension/v1">
            <gpxtpx:hr>101</gpxtpx:hr>
          </gpxtpx:TrackPointExtension>
        </extensions>
      </trkpt>
      <trkpt lat="45.76756" lon="6.40278">
        <ele>611.79998779297</ele>
        <time>2020-07-05T05:35:00.000Z</time>
        <extensions>
          <gpxtpx:TrackPointExtension xmlns:gpxtpx="http://www.garmin.com/xmlschemas/TrackPointExtension/v1">
            <gpxtpx:hr>106</gpxtpx:hr>
          </gpxtpx:TrackPointExtension>
        </extensions>
      </trkpt>
      <trkpt lat="45.76759" lon="6.40275">
        <ele>612</ele>
        <time>2020-07-05T05:35:01.000Z</time>
        <extensions>
          <gpxtpx:TrackPointExtension xmlns:gpxtpx="http://www.garmin.com/xmlschemas/TrackPointExtension/v1">
            <gpxtpx:hr>106</gpxtpx:hr>
          </gpxtpx:TrackPointExtension>
        </extensions>
      </trkpt>
      <trkpt lat="45.76767" lon="6.40267">
        <ele>612.79998779297</ele>
        <time>2020-07-05T05:35:04.000Z</time>
        <extensions>
          <gpxtpx:TrackPointExtension xmlns:gpxtpx="http://www.garmin.com/xmlschemas/TrackPointExtension/v1">
            <gpxtpx:hr>108</gpxtpx:hr>
          </gpxtpx:TrackPointExtension>
        </extensions>
      </trkpt>
      <trkpt lat="45.76776" lon="6.40259">
        <ele>613.59997558594</ele>
        <time>2020-07-05T05:35:07.000Z</time>
        <extensions>
          <gpxtpx:TrackPointExtension xmlns:gpxtpx="http://www.garmin.com/xmlschemas/TrackPointExtension/v1">
            <gpxtpx:hr>111</gpxtpx:hr>
          </gpxtpx:TrackPointExtension>
        </extensions>
      </trkpt>
      <trkpt lat="45.76779" lon="6.40256">
        <ele>614</ele>
        <time>2020-07-05T05:35:08.000Z</time>
        <extensions>
          <gpxtpx:TrackPointExtension xmlns:gpxtpx="http://www.garmin.com/xmlschemas/TrackPointExtension/v1">
            <gpxtpx:hr>111</gpxtpx:hr>
          </gpxtpx:TrackPointExtension>
        </extensions>
      </trkpt>
      <trkpt lat="45.76788" lon="6.40248">
        <ele>614.59997558594</ele>
        <time>2020-07-05T05:35:11.000Z</time>
        <extensions>
          <gpxtpx:TrackPointExtension xmlns:gpxtpx="http://www.garmin.com/xmlschemas/TrackPointExtension/v1">
            <gpxtpx:hr>114</gpxtpx:hr>
          </gpxtpx:TrackPointExtension>
        </extensions>
      </trkpt>
      <trkpt lat="45.76793" lon="6.40242">
        <ele>615.40002441406</ele>
        <time>2020-07-05T05:35:13.000Z</time>
        <extensions>
          <gpxtpx:TrackPointExtension xmlns:gpxtpx="http://www.garmin.com/xmlschemas/TrackPointExtension/v1">
            <gpxtpx:hr>115</gpxtpx:hr>
          </gpxtpx:TrackPointExtension>
        </extensions>
      </trkpt>
      <trkpt lat="45.768" lon="6.40237">
        <ele>616.59997558594</ele>
        <time>2020-07-05T05:35:16.000Z</time>
        <extensions>
          <gpxtpx:TrackPointExtension xmlns:gpxtpx="http://www.garmin.com/xmlschemas/TrackPointExtension/v1">
            <gpxtpx:hr>117</gpxtpx:hr>
          </gpxtpx:TrackPointExtension>
        </extensions>
      </trkpt>
      <trkpt lat="45.76808" lon="6.40232">
        <ele>617.59997558594</ele>
        <time>2020-07-05T05:35:19.000Z</time>
        <extensions>
          <gpxtpx:TrackPointExtension xmlns:gpxtpx="http://www.garmin.com/xmlschemas/TrackPointExtension/v1">
            <gpxtpx:hr>114</gpxtpx:hr>
          </gpxtpx:TrackPointExtension>
        </extensions>
      </trkpt>
      <trkpt lat="45.76822" lon="6.40224">
        <ele>618.79998779297</ele>
        <time>2020-07-05T05:35:24.000Z</time>
        <extensions>
          <gpxtpx:TrackPointExtension xmlns:gpxtpx="http://www.garmin.com/xmlschemas/TrackPointExtension/v1">
            <gpxtpx:hr>115</gpxtpx:hr>
          </gpxtpx:TrackPointExtension>
        </extensions>
      </trkpt>
      <trkpt lat="45.76827" lon="6.4022">
        <ele>619.40002441406</ele>
        <time>2020-07-05T05:35:26.000Z</time>
        <extensions>
          <gpxtpx:TrackPointExtension xmlns:gpxtpx="http://www.garmin.com/xmlschemas/TrackPointExtension/v1">
            <gpxtpx:hr>116</gpxtpx:hr>
          </gpxtpx:TrackPointExtension>
        </extensions>
      </trkpt>
      <trkpt lat="45.76832" lon="6.40216">
        <ele>619.79998779297</ele>
        <time>2020-07-05T05:35:28.000Z</time>
        <extensions>
          <gpxtpx:TrackPointExtension xmlns:gpxtpx="http://www.garmin.com/xmlschemas/TrackPointExtension/v1">
            <gpxtpx:hr>116</gpxtpx:hr>
          </gpxtpx:TrackPointExtension>
        </extensions>
      </trkpt>
      <trkpt lat="45.7684" lon="6.40205">
        <ele>621</ele>
        <time>2020-07-05T05:35:32.000Z</time>
        <extensions>
          <gpxtpx:TrackPointExtension xmlns:gpxtpx="http://www.garmin.com/xmlschemas/TrackPointExtension/v1">
            <gpxtpx:hr>116</gpxtpx:hr>
          </gpxtpx:TrackPointExtension>
        </extensions>
      </trkpt>
      <trkpt lat="45.76843" lon="6.40203">
        <ele>621.20001220703</ele>
        <time>2020-07-05T05:35:33.000Z</time>
        <extensions>
          <gpxtpx:TrackPointExtension xmlns:gpxtpx="http://www.garmin.com/xmlschemas/TrackPointExtension/v1">
            <gpxtpx:hr>116</gpxtpx:hr>
          </gpxtpx:TrackPointExtension>
        </extensions>
      </trkpt>
      <trkpt lat="45.76849" lon="6.40194">
        <ele>622.20001220703</ele>
        <time>2020-07-05T05:35:36.000Z</time>
        <extensions>
          <gpxtpx:TrackPointExtension xmlns:gpxtpx="http://www.garmin.com/xmlschemas/TrackPointExtension/v1">
            <gpxtpx:hr>116</gpxtpx:hr>
          </gpxtpx:TrackPointExtension>
        </extensions>
      </trkpt>
      <trkpt lat="45.76858" lon="6.4018">
        <ele>623.20001220703</ele>
        <time>2020-07-05T05:35:41.000Z</time>
        <extensions>
          <gpxtpx:TrackPointExtension xmlns:gpxtpx="http://www.garmin.com/xmlschemas/TrackPointExtension/v1">
            <gpxtpx:hr>117</gpxtpx:hr>
          </gpxtpx:TrackPointExtension>
        </extensions>
      </trkpt>
      <trkpt lat="45.76867" lon="6.4017">
        <ele>624.40002441406</ele>
        <time>2020-07-05T05:35:45.000Z</time>
        <extensions>
          <gpxtpx:TrackPointExtension xmlns:gpxtpx="http://www.garmin.com/xmlschemas/TrackPointExtension/v1">
            <gpxtpx:hr>119</gpxtpx:hr>
          </gpxtpx:TrackPointExtension>
        </extensions>
      </trkpt>
      <trkpt lat="45.76877" lon="6.40161">
        <ele>625.59997558594</ele>
        <time>2020-07-05T05:35:49.000Z</time>
        <extensions>
          <gpxtpx:TrackPointExtension xmlns:gpxtpx="http://www.garmin.com/xmlschemas/TrackPointExtension/v1">
            <gpxtpx:hr>120</gpxtpx:hr>
          </gpxtpx:TrackPointExtension>
        </extensions>
      </trkpt>
      <trkpt lat="45.76884" lon="6.40157">
        <ele>626.59997558594</ele>
        <time>2020-07-05T05:35:52.000Z</time>
        <extensions>
          <gpxtpx:TrackPointExtension xmlns:gpxtpx="http://www.garmin.com/xmlschemas/TrackPointExtension/v1">
            <gpxtpx:hr>121</gpxtpx:hr>
          </gpxtpx:TrackPointExtension>
        </extensions>
      </trkpt>
      <trkpt lat="45.76887" lon="6.40156">
        <ele>626.79998779297</ele>
        <time>2020-07-05T05:35:53.000Z</time>
        <extensions>
          <gpxtpx:TrackPointExtension xmlns:gpxtpx="http://www.garmin.com/xmlschemas/TrackPointExtension/v1">
            <gpxtpx:hr>121</gpxtpx:hr>
          </gpxtpx:TrackPointExtension>
        </extensions>
      </trkpt>
      <trkpt lat="45.76898" lon="6.40153">
        <ele>627.79998779297</ele>
        <time>2020-07-05T05:35:57.000Z</time>
        <extensions>
          <gpxtpx:TrackPointExtension xmlns:gpxtpx="http://www.garmin.com/xmlschemas/TrackPointExtension/v1">
            <gpxtpx:hr>123</gpxtpx:hr>
          </gpxtpx:TrackPointExtension>
        </extensions>
      </trkpt>
      <trkpt lat="45.76908" lon="6.40152">
        <ele>628.79998779297</ele>
        <time>2020-07-05T05:36:01.000Z</time>
        <extensions>
          <gpxtpx:TrackPointExtension xmlns:gpxtpx="http://www.garmin.com/xmlschemas/TrackPointExtension/v1">
            <gpxtpx:hr>124</gpxtpx:hr>
          </gpxtpx:TrackPointExtension>
        </extensions>
      </trkpt>
      <trkpt lat="45.76913" lon="6.40152">
        <ele>629.20001220703</ele>
        <time>2020-07-05T05:36:03.000Z</time>
        <extensions>
          <gpxtpx:TrackPointExtension xmlns:gpxtpx="http://www.garmin.com/xmlschemas/TrackPointExtension/v1">
            <gpxtpx:hr>124</gpxtpx:hr>
          </gpxtpx:TrackPointExtension>
        </extensions>
      </trkpt>
      <trkpt lat="45.76918" lon="6.40152">
        <ele>629.79998779297</ele>
        <time>2020-07-05T05:36:05.000Z</time>
        <extensions>
          <gpxtpx:TrackPointExtension xmlns:gpxtpx="http://www.garmin.com/xmlschemas/TrackPointExtension/v1">
            <gpxtpx:hr>124</gpxtpx:hr>
          </gpxtpx:TrackPointExtension>
        </extensions>
      </trkpt>
      <trkpt lat="45.76921" lon="6.40152">
        <ele>630</ele>
        <time>2020-07-05T05:36:06.000Z</time>
        <extensions>
          <gpxtpx:TrackPointExtension xmlns:gpxtpx="http://www.garmin.com/xmlschemas/TrackPointExtension/v1">
            <gpxtpx:hr>127</gpxtpx:hr>
          </gpxtpx:TrackPointExtension>
        </extensions>
      </trkpt>
      <trkpt lat="45.7693" lon="6.40154">
        <ele>630.79998779297</ele>
        <time>2020-07-05T05:36:09.000Z</time>
        <extensions>
          <gpxtpx:TrackPointExtension xmlns:gpxtpx="http://www.garmin.com/xmlschemas/TrackPointExtension/v1">
            <gpxtpx:hr>131</gpxtpx:hr>
          </gpxtpx:TrackPointExtension>
        </extensions>
      </trkpt>
      <trkpt lat="45.76933" lon="6.40155">
        <ele>631</ele>
        <time>2020-07-05T05:36:10.000Z</time>
        <extensions>
          <gpxtpx:TrackPointExtension xmlns:gpxtpx="http://www.garmin.com/xmlschemas/TrackPointExtension/v1">
            <gpxtpx:hr>133</gpxtpx:hr>
          </gpxtpx:TrackPointExtension>
        </extensions>
      </trkpt>
      <trkpt lat="45.76944" lon="6.40156">
        <ele>632.20001220703</ele>
        <time>2020-07-05T05:36:14.000Z</time>
        <extensions>
          <gpxtpx:TrackPointExtension xmlns:gpxtpx="http://www.garmin.com/xmlschemas/TrackPointExtension/v1">
            <gpxtpx:hr>133</gpxtpx:hr>
          </gpxtpx:TrackPointExtension>
        </extensions>
      </trkpt>
      <trkpt lat="45.76948" lon="6.40156">
        <ele>632.59997558594</ele>
        <time>2020-07-05T05:36:16.000Z</time>
        <extensions>
          <gpxtpx:TrackPointExtension xmlns:gpxtpx="http://www.garmin.com/xmlschemas/TrackPointExtension/v1">
            <gpxtpx:hr>129</gpxtpx:hr>
          </gpxtpx:TrackPointExtension>
        </extensions>
      </trkpt>
      <trkpt lat="45.76954" lon="6.40155">
        <ele>633.20001220703</ele>
        <time>2020-07-05T05:36:18.000Z</time>
        <extensions>
          <gpxtpx:TrackPointExtension xmlns:gpxtpx="http://www.garmin.com/xmlschemas/TrackPointExtension/v1">
            <gpxtpx:hr>125</gpxtpx:hr>
          </gpxtpx:TrackPointExtension>
        </extensions>
      </trkpt>
      <trkpt lat="45.76957" lon="6.40154">
        <ele>633.40002441406</ele>
        <time>2020-07-05T05:36:19.000Z</time>
        <extensions>
          <gpxtpx:TrackPointExtension xmlns:gpxtpx="http://www.garmin.com/xmlschemas/TrackPointExtension/v1">
            <gpxtpx:hr>126</gpxtpx:hr>
          </gpxtpx:TrackPointExtension>
        </extensions>
      </trkpt>
      <trkpt lat="45.76959" lon="6.40153">
        <ele>633.59997558594</ele>
        <time>2020-07-05T05:36:20.000Z</time>
        <extensions>
          <gpxtpx:TrackPointExtension xmlns:gpxtpx="http://www.garmin.com/xmlschemas/TrackPointExtension/v1">
            <gpxtpx:hr>125</gpxtpx:hr>
          </gpxtpx:TrackPointExtension>
        </extensions>
      </trkpt>
      <trkpt lat="45.76969" lon="6.40148">
        <ele>634.40002441406</ele>
        <time>2020-07-05T05:36:24.000Z</time>
        <extensions>
          <gpxtpx:TrackPointExtension xmlns:gpxtpx="http://www.garmin.com/xmlschemas/TrackPointExtension/v1">
            <gpxtpx:hr>128</gpxtpx:hr>
          </gpxtpx:TrackPointExtension>
        </extensions>
      </trkpt>
      <trkpt lat="45.76976" lon="6.40143">
        <ele>635.20001220703</ele>
        <time>2020-07-05T05:36:27.000Z</time>
        <extensions>
          <gpxtpx:TrackPointExtension xmlns:gpxtpx="http://www.garmin.com/xmlschemas/TrackPointExtension/v1">
            <gpxtpx:hr>129</gpxtpx:hr>
          </gpxtpx:TrackPointExtension>
        </extensions>
      </trkpt>
      <trkpt lat="45.76981" lon="6.40139">
        <ele>635.59997558594</ele>
        <time>2020-07-05T05:36:29.000Z</time>
        <extensions>
          <gpxtpx:TrackPointExtension xmlns:gpxtpx="http://www.garmin.com/xmlschemas/TrackPointExtension/v1">
            <gpxtpx:hr>130</gpxtpx:hr>
          </gpxtpx:TrackPointExtension>
        </extensions>
      </trkpt>
      <trkpt lat="45.76989" lon="6.40131">
        <ele>636.79998779297</ele>
        <time>2020-07-05T05:36:33.000Z</time>
        <extensions>
          <gpxtpx:TrackPointExtension xmlns:gpxtpx="http://www.garmin.com/xmlschemas/TrackPointExtension/v1">
            <gpxtpx:hr>130</gpxtpx:hr>
          </gpxtpx:TrackPointExtension>
        </extensions>
      </trkpt>
      <trkpt lat="45.76993" lon="6.40126">
        <ele>637.20001220703</ele>
        <time>2020-07-05T05:36:35.000Z</time>
        <extensions>
          <gpxtpx:TrackPointExtension xmlns:gpxtpx="http://www.garmin.com/xmlschemas/TrackPointExtension/v1">
            <gpxtpx:hr>129</gpxtpx:hr>
          </gpxtpx:TrackPointExtension>
        </extensions>
      </trkpt>
      <trkpt lat="45.76998" lon="6.40122">
        <ele>637.79998779297</ele>
        <time>2020-07-05T05:36:37.000Z</time>
        <extensions>
          <gpxtpx:TrackPointExtension xmlns:gpxtpx="http://www.garmin.com/xmlschemas/TrackPointExtension/v1">
            <gpxtpx:hr>131</gpxtpx:hr>
          </gpxtpx:TrackPointExtension>
        </extensions>
      </trkpt>
      <trkpt lat="45.77009" lon="6.40112">
        <ele>639</ele>
        <time>2020-07-05T05:36:42.000Z</time>
        <extensions>
          <gpxtpx:TrackPointExtension xmlns:gpxtpx="http://www.garmin.com/xmlschemas/TrackPointExtension/v1">
            <gpxtpx:hr>130</gpxtpx:hr>
          </gpxtpx:TrackPointExtension>
        </extensions>
      </trkpt>
      <trkpt lat="45.77014" lon="6.40109">
        <ele>639.59997558594</ele>
        <time>2020-07-05T05:36:44.000Z</time>
        <extensions>
          <gpxtpx:TrackPointExtension xmlns:gpxtpx="http://www.garmin.com/xmlschemas/TrackPointExtension/v1">
            <gpxtpx:hr>130</gpxtpx:hr>
          </gpxtpx:TrackPointExtension>
        </extensions>
      </trkpt>
      <trkpt lat="45.77019" lon="6.40107">
        <ele>640.20001220703</ele>
        <time>2020-07-05T05:36:46.000Z</time>
        <extensions>
          <gpxtpx:TrackPointExtension xmlns:gpxtpx="http://www.garmin.com/xmlschemas/TrackPointExtension/v1">
            <gpxtpx:hr>131</gpxtpx:hr>
          </gpxtpx:TrackPointExtension>
        </extensions>
      </trkpt>
      <trkpt lat="45.7703" lon="6.401">
        <ele>641.40002441406</ele>
        <time>2020-07-05T05:36:51.000Z</time>
        <extensions>
          <gpxtpx:TrackPointExtension xmlns:gpxtpx="http://www.garmin.com/xmlschemas/TrackPointExtension/v1">
            <gpxtpx:hr>131</gpxtpx:hr>
          </gpxtpx:TrackPointExtension>
        </extensions>
      </trkpt>
      <trkpt lat="45.77036" lon="6.40097">
        <ele>642</ele>
        <time>2020-07-05T05:36:53.000Z</time>
        <extensions>
          <gpxtpx:TrackPointExtension xmlns:gpxtpx="http://www.garmin.com/xmlschemas/TrackPointExtension/v1">
            <gpxtpx:hr>131</gpxtpx:hr>
          </gpxtpx:TrackPointExtension>
        </extensions>
      </trkpt>
      <trkpt lat="45.7704" lon="6.40094">
        <ele>642.40002441406</ele>
        <time>2020-07-05T05:36:55.000Z</time>
        <extensions>
          <gpxtpx:TrackPointExtension xmlns:gpxtpx="http://www.garmin.com/xmlschemas/TrackPointExtension/v1">
            <gpxtpx:hr>131</gpxtpx:hr>
          </gpxtpx:TrackPointExtension>
        </extensions>
      </trkpt>
      <trkpt lat="45.77047" lon="6.40091">
        <ele>643.59997558594</ele>
        <time>2020-07-05T05:36:58.000Z</time>
        <extensions>
          <gpxtpx:TrackPointExtension xmlns:gpxtpx="http://www.garmin.com/xmlschemas/TrackPointExtension/v1">
            <gpxtpx:hr>131</gpxtpx:hr>
          </gpxtpx:TrackPointExtension>
        </extensions>
      </trkpt>
      <trkpt lat="45.77054" lon="6.40092">
        <ele>644.40002441406</ele>
        <time>2020-07-05T05:37:01.000Z</time>
        <extensions>
          <gpxtpx:TrackPointExtension xmlns:gpxtpx="http://www.garmin.com/xmlschemas/TrackPointExtension/v1">
            <gpxtpx:hr>131</gpxtpx:hr>
          </gpxtpx:TrackPointExtension>
        </extensions>
      </trkpt>
      <trkpt lat="45.77057" lon="6.40094">
        <ele>644.59997558594</ele>
        <time>2020-07-05T05:37:02.000Z</time>
        <extensions>
          <gpxtpx:TrackPointExtension xmlns:gpxtpx="http://www.garmin.com/xmlschemas/TrackPointExtension/v1">
            <gpxtpx:hr>132</gpxtpx:hr>
          </gpxtpx:TrackPointExtension>
        </extensions>
      </trkpt>
      <trkpt lat="45.77061" lon="6.40105">
        <ele>645.40002441406</ele>
        <time>2020-07-05T05:37:05.000Z</time>
        <extensions>
          <gpxtpx:TrackPointExtension xmlns:gpxtpx="http://www.garmin.com/xmlschemas/TrackPointExtension/v1">
            <gpxtpx:hr>133</gpxtpx:hr>
          </gpxtpx:TrackPointExtension>
        </extensions>
      </trkpt>
      <trkpt lat="45.77061" lon="6.40113">
        <ele>645.79998779297</ele>
        <time>2020-07-05T05:37:07.000Z</time>
        <extensions>
          <gpxtpx:TrackPointExtension xmlns:gpxtpx="http://www.garmin.com/xmlschemas/TrackPointExtension/v1">
            <gpxtpx:hr>133</gpxtpx:hr>
          </gpxtpx:TrackPointExtension>
        </extensions>
      </trkpt>
      <trkpt lat="45.77059" lon="6.4012">
        <ele>646.40002441406</ele>
        <time>2020-07-05T05:37:09.000Z</time>
        <extensions>
          <gpxtpx:TrackPointExtension xmlns:gpxtpx="http://www.garmin.com/xmlschemas/TrackPointExtension/v1">
            <gpxtpx:hr>133</gpxtpx:hr>
          </gpxtpx:TrackPointExtension>
        </extensions>
      </trkpt>
      <trkpt lat="45.77056" lon="6.40126">
        <ele>647</ele>
        <time>2020-07-05T05:37:11.000Z</time>
        <extensions>
          <gpxtpx:TrackPointExtension xmlns:gpxtpx="http://www.garmin.com/xmlschemas/TrackPointExtension/v1">
            <gpxtpx:hr>133</gpxtpx:hr>
          </gpxtpx:TrackPointExtension>
        </extensions>
      </trkpt>
      <trkpt lat="45.77048" lon="6.40135">
        <ele>648</ele>
        <time>2020-07-05T05:37:15.000Z</time>
        <extensions>
          <gpxtpx:TrackPointExtension xmlns:gpxtpx="http://www.garmin.com/xmlschemas/TrackPointExtension/v1">
            <gpxtpx:hr>133</gpxtpx:hr>
          </gpxtpx:TrackPointExtension>
        </extensions>
      </trkpt>
      <trkpt lat="45.7704" lon="6.40144">
        <ele>649.40002441406</ele>
        <time>2020-07-05T05:37:19.000Z</time>
        <extensions>
          <gpxtpx:TrackPointExtension xmlns:gpxtpx="http://www.garmin.com/xmlschemas/TrackPointExtension/v1">
            <gpxtpx:hr>132</gpxtpx:hr>
          </gpxtpx:TrackPointExtension>
        </extensions>
      </trkpt>
      <trkpt lat="45.7703" lon="6.40156">
        <ele>650.59997558594</ele>
        <time>2020-07-05T05:37:24.000Z</time>
        <extensions>
          <gpxtpx:TrackPointExtension xmlns:gpxtpx="http://www.garmin.com/xmlschemas/TrackPointExtension/v1">
            <gpxtpx:hr>128</gpxtpx:hr>
          </gpxtpx:TrackPointExtension>
        </extensions>
      </trkpt>
      <trkpt lat="45.77027" lon="6.40162">
        <ele>651</ele>
        <time>2020-07-05T05:37:26.000Z</time>
        <extensions>
          <gpxtpx:TrackPointExtension xmlns:gpxtpx="http://www.garmin.com/xmlschemas/TrackPointExtension/v1">
            <gpxtpx:hr>126</gpxtpx:hr>
          </gpxtpx:TrackPointExtension>
        </extensions>
      </trkpt>
      <trkpt lat="45.77022" lon="6.40172">
        <ele>651.79998779297</ele>
        <time>2020-07-05T05:37:29.000Z</time>
        <extensions>
          <gpxtpx:TrackPointExtension xmlns:gpxtpx="http://www.garmin.com/xmlschemas/TrackPointExtension/v1">
            <gpxtpx:hr>127</gpxtpx:hr>
          </gpxtpx:TrackPointExtension>
        </extensions>
      </trkpt>
      <trkpt lat="45.77016" lon="6.40187">
        <ele>652.79998779297</ele>
        <time>2020-07-05T05:37:33.000Z</time>
        <extensions>
          <gpxtpx:TrackPointExtension xmlns:gpxtpx="http://www.garmin.com/xmlschemas/TrackPointExtension/v1">
            <gpxtpx:hr>127</gpxtpx:hr>
          </gpxtpx:TrackPointExtension>
        </extensions>
      </trkpt>
      <trkpt lat="45.77009" lon="6.4021">
        <ele>654</ele>
        <time>2020-07-05T05:37:39.000Z</time>
        <extensions>
          <gpxtpx:TrackPointExtension xmlns:gpxtpx="http://www.garmin.com/xmlschemas/TrackPointExtension/v1">
            <gpxtpx:hr>127</gpxtpx:hr>
          </gpxtpx:TrackPointExtension>
        </extensions>
      </trkpt>
      <trkpt lat="45.77008" lon="6.40219">
        <ele>654.40002441406</ele>
        <time>2020-07-05T05:37:41.000Z</time>
        <extensions>
          <gpxtpx:TrackPointExtension xmlns:gpxtpx="http://www.garmin.com/xmlschemas/TrackPointExtension/v1">
            <gpxtpx:hr>126</gpxtpx:hr>
          </gpxtpx:TrackPointExtension>
        </extensions>
      </trkpt>
      <trkpt lat="45.77011" lon="6.40231">
        <ele>655</ele>
        <time>2020-07-05T05:37:44.000Z</time>
        <extensions>
          <gpxtpx:TrackPointExtension xmlns:gpxtpx="http://www.garmin.com/xmlschemas/TrackPointExtension/v1">
            <gpxtpx:hr>126</gpxtpx:hr>
          </gpxtpx:TrackPointExtension>
        </extensions>
      </trkpt>
      <trkpt lat="45.77014" lon="6.40239">
        <ele>655.59997558594</ele>
        <time>2020-07-05T05:37:46.000Z</time>
        <extensions>
          <gpxtpx:TrackPointExtension xmlns:gpxtpx="http://www.garmin.com/xmlschemas/TrackPointExtension/v1">
            <gpxtpx:hr>128</gpxtpx:hr>
          </gpxtpx:TrackPointExtension>
        </extensions>
      </trkpt>
      <trkpt lat="45.7702" lon="6.40257">
        <ele>656.20001220703</ele>
        <time>2020-07-05T05:37:50.000Z</time>
        <extensions>
          <gpxtpx:TrackPointExtension xmlns:gpxtpx="http://www.garmin.com/xmlschemas/TrackPointExtension/v1">
            <gpxtpx:hr>128</gpxtpx:hr>
          </gpxtpx:TrackPointExtension>
        </extensions>
      </trkpt>
      <trkpt lat="45.77026" lon="6.40275">
        <ele>656.59997558594</ele>
        <time>2020-07-05T05:37:54.000Z</time>
        <extensions>
          <gpxtpx:TrackPointExtension xmlns:gpxtpx="http://www.garmin.com/xmlschemas/TrackPointExtension/v1">
            <gpxtpx:hr>128</gpxtpx:hr>
          </gpxtpx:TrackPointExtension>
        </extensions>
      </trkpt>
      <trkpt lat="45.77025" lon="6.40293">
        <ele>657.20001220703</ele>
        <time>2020-07-05T05:37:58.000Z</time>
        <extensions>
          <gpxtpx:TrackPointExtension xmlns:gpxtpx="http://www.garmin.com/xmlschemas/TrackPointExtension/v1">
            <gpxtpx:hr>128</gpxtpx:hr>
          </gpxtpx:TrackPointExtension>
        </extensions>
      </trkpt>
      <trkpt lat="45.77025" lon="6.40297">
        <ele>657.40002441406</ele>
        <time>2020-07-05T05:37:59.000Z</time>
        <extensions>
          <gpxtpx:TrackPointExtension xmlns:gpxtpx="http://www.garmin.com/xmlschemas/TrackPointExtension/v1">
            <gpxtpx:hr>128</gpxtpx:hr>
          </gpxtpx:TrackPointExtension>
        </extensions>
      </trkpt>
      <trkpt lat="45.77021" lon="6.40313">
        <ele>658.40002441406</ele>
        <time>2020-07-05T05:38:03.000Z</time>
        <extensions>
          <gpxtpx:TrackPointExtension xmlns:gpxtpx="http://www.garmin.com/xmlschemas/TrackPointExtension/v1">
            <gpxtpx:hr>128</gpxtpx:hr>
          </gpxtpx:TrackPointExtension>
        </extensions>
      </trkpt>
      <trkpt lat="45.77019" lon="6.40327">
        <ele>659.59997558594</ele>
        <time>2020-07-05T05:38:07.000Z</time>
        <extensions>
          <gpxtpx:TrackPointExtension xmlns:gpxtpx="http://www.garmin.com/xmlschemas/TrackPointExtension/v1">
            <gpxtpx:hr>128</gpxtpx:hr>
          </gpxtpx:TrackPointExtension>
        </extensions>
      </trkpt>
      <trkpt lat="45.77015" lon="6.40341">
        <ele>660.79998779297</ele>
        <time>2020-07-05T05:38:11.000Z</time>
        <extensions>
          <gpxtpx:TrackPointExtension xmlns:gpxtpx="http://www.garmin.com/xmlschemas/TrackPointExtension/v1">
            <gpxtpx:hr>127</gpxtpx:hr>
          </gpxtpx:TrackPointExtension>
        </extensions>
      </trkpt>
      <trkpt lat="45.77014" lon="6.40352">
        <ele>662</ele>
        <time>2020-07-05T05:38:14.000Z</time>
        <extensions>
          <gpxtpx:TrackPointExtension xmlns:gpxtpx="http://www.garmin.com/xmlschemas/TrackPointExtension/v1">
            <gpxtpx:hr>127</gpxtpx:hr>
          </gpxtpx:TrackPointExtension>
        </extensions>
      </trkpt>
      <trkpt lat="45.77013" lon="6.40363">
        <ele>663</ele>
        <time>2020-07-05T05:38:17.000Z</time>
        <extensions>
          <gpxtpx:TrackPointExtension xmlns:gpxtpx="http://www.garmin.com/xmlschemas/TrackPointExtension/v1">
            <gpxtpx:hr>127</gpxtpx:hr>
          </gpxtpx:TrackPointExtension>
        </extensions>
      </trkpt>
      <trkpt lat="45.77008" lon="6.40382">
        <ele>664.20001220703</ele>
        <time>2020-07-05T05:38:22.000Z</time>
        <extensions>
          <gpxtpx:TrackPointExtension xmlns:gpxtpx="http://www.garmin.com/xmlschemas/TrackPointExtension/v1">
            <gpxtpx:hr>127</gpxtpx:hr>
          </gpxtpx:TrackPointExtension>
        </extensions>
      </trkpt>
      <trkpt lat="45.77007" lon="6.40386">
        <ele>664.40002441406</ele>
        <time>2020-07-05T05:38:23.000Z</time>
        <extensions>
          <gpxtpx:TrackPointExtension xmlns:gpxtpx="http://www.garmin.com/xmlschemas/TrackPointExtension/v1">
            <gpxtpx:hr>126</gpxtpx:hr>
          </gpxtpx:TrackPointExtension>
        </extensions>
      </trkpt>
      <trkpt lat="45.77003" lon="6.404">
        <ele>665.59997558594</ele>
        <time>2020-07-05T05:38:27.000Z</time>
        <extensions>
          <gpxtpx:TrackPointExtension xmlns:gpxtpx="http://www.garmin.com/xmlschemas/TrackPointExtension/v1">
            <gpxtpx:hr>127</gpxtpx:hr>
          </gpxtpx:TrackPointExtension>
        </extensions>
      </trkpt>
      <trkpt lat="45.76996" lon="6.40413">
        <ele>666.79998779297</ele>
        <time>2020-07-05T05:38:31.000Z</time>
        <extensions>
          <gpxtpx:TrackPointExtension xmlns:gpxtpx="http://www.garmin.com/xmlschemas/TrackPointExtension/v1">
            <gpxtpx:hr>130</gpxtpx:hr>
          </gpxtpx:TrackPointExtension>
        </extensions>
      </trkpt>
      <trkpt lat="45.76991" lon="6.40422">
        <ele>667.79998779297</ele>
        <time>2020-07-05T05:38:34.000Z</time>
        <extensions>
          <gpxtpx:TrackPointExtension xmlns:gpxtpx="http://www.garmin.com/xmlschemas/TrackPointExtension/v1">
            <gpxtpx:hr>133</gpxtpx:hr>
          </gpxtpx:TrackPointExtension>
        </extensions>
      </trkpt>
      <trkpt lat="45.76985" lon="6.40436">
        <ele>669</ele>
        <time>2020-07-05T05:38:38.000Z</time>
        <extensions>
          <gpxtpx:TrackPointExtension xmlns:gpxtpx="http://www.garmin.com/xmlschemas/TrackPointExtension/v1">
            <gpxtpx:hr>135</gpxtpx:hr>
          </gpxtpx:TrackPointExtension>
        </extensions>
      </trkpt>
      <trkpt lat="45.7698" lon="6.40446">
        <ele>670.40002441406</ele>
        <time>2020-07-05T05:38:41.000Z</time>
        <extensions>
          <gpxtpx:TrackPointExtension xmlns:gpxtpx="http://www.garmin.com/xmlschemas/TrackPointExtension/v1">
            <gpxtpx:hr>136</gpxtpx:hr>
          </gpxtpx:TrackPointExtension>
        </extensions>
      </trkpt>
      <trkpt lat="45.76974" lon="6.4046">
        <ele>671.59997558594</ele>
        <time>2020-07-05T05:38:45.000Z</time>
        <extensions>
          <gpxtpx:TrackPointExtension xmlns:gpxtpx="http://www.garmin.com/xmlschemas/TrackPointExtension/v1">
            <gpxtpx:hr>137</gpxtpx:hr>
          </gpxtpx:TrackPointExtension>
        </extensions>
      </trkpt>
      <trkpt lat="45.76972" lon="6.40463">
        <ele>671.79998779297</ele>
        <time>2020-07-05T05:38:46.000Z</time>
        <extensions>
          <gpxtpx:TrackPointExtension xmlns:gpxtpx="http://www.garmin.com/xmlschemas/TrackPointExtension/v1">
            <gpxtpx:hr>137</gpxtpx:hr>
          </gpxtpx:TrackPointExtension>
        </extensions>
      </trkpt>
      <trkpt lat="45.76966" lon="6.40476">
        <ele>672.59997558594</ele>
        <time>2020-07-05T05:38:50.000Z</time>
        <extensions>
          <gpxtpx:TrackPointExtension xmlns:gpxtpx="http://www.garmin.com/xmlschemas/TrackPointExtension/v1">
            <gpxtpx:hr>136</gpxtpx:hr>
          </gpxtpx:TrackPointExtension>
        </extensions>
      </trkpt>
      <trkpt lat="45.76964" lon="6.40479">
        <ele>673</ele>
        <time>2020-07-05T05:38:51.000Z</time>
        <extensions>
          <gpxtpx:TrackPointExtension xmlns:gpxtpx="http://www.garmin.com/xmlschemas/TrackPointExtension/v1">
            <gpxtpx:hr>133</gpxtpx:hr>
          </gpxtpx:TrackPointExtension>
        </extensions>
      </trkpt>
      <trkpt lat="45.7696" lon="6.4049">
        <ele>673.79998779297</ele>
        <time>2020-07-05T05:38:54.000Z</time>
        <extensions>
          <gpxtpx:TrackPointExtension xmlns:gpxtpx="http://www.garmin.com/xmlschemas/TrackPointExtension/v1">
            <gpxtpx:hr>137</gpxtpx:hr>
          </gpxtpx:TrackPointExtension>
        </extensions>
      </trkpt>
      <trkpt lat="45.76955" lon="6.40499">
        <ele>674.20001220703</ele>
        <time>2020-07-05T05:38:57.000Z</time>
        <extensions>
          <gpxtpx:TrackPointExtension xmlns:gpxtpx="http://www.garmin.com/xmlschemas/TrackPointExtension/v1">
            <gpxtpx:hr>134</gpxtpx:hr>
          </gpxtpx:TrackPointExtension>
        </extensions>
      </trkpt>
      <trkpt lat="45.76954" lon="6.40502">
        <ele>674.40002441406</ele>
        <time>2020-07-05T05:38:58.000Z</time>
        <extensions>
          <gpxtpx:TrackPointExtension xmlns:gpxtpx="http://www.garmin.com/xmlschemas/TrackPointExtension/v1">
            <gpxtpx:hr>134</gpxtpx:hr>
          </gpxtpx:TrackPointExtension>
        </extensions>
      </trkpt>
      <trkpt lat="45.76951" lon="6.40509">
        <ele>675</ele>
        <time>2020-07-05T05:39:00.000Z</time>
        <extensions>
          <gpxtpx:TrackPointExtension xmlns:gpxtpx="http://www.garmin.com/xmlschemas/TrackPointExtension/v1">
            <gpxtpx:hr>133</gpxtpx:hr>
          </gpxtpx:TrackPointExtension>
        </extensions>
      </trkpt>
      <trkpt lat="45.76946" lon="6.40522">
        <ele>676</ele>
        <time>2020-07-05T05:39:04.000Z</time>
        <extensions>
          <gpxtpx:TrackPointExtension xmlns:gpxtpx="http://www.garmin.com/xmlschemas/TrackPointExtension/v1">
            <gpxtpx:hr>132</gpxtpx:hr>
          </gpxtpx:TrackPointExtension>
        </extensions>
      </trkpt>
      <trkpt lat="45.76938" lon="6.40541">
        <ele>677.20001220703</ele>
        <time>2020-07-05T05:39:09.000Z</time>
        <extensions>
          <gpxtpx:TrackPointExtension xmlns:gpxtpx="http://www.garmin.com/xmlschemas/TrackPointExtension/v1">
            <gpxtpx:hr>130</gpxtpx:hr>
          </gpxtpx:TrackPointExtension>
        </extensions>
      </trkpt>
      <trkpt lat="45.76931" lon="6.4056">
        <ele>678.20001220703</ele>
        <time>2020-07-05T05:39:14.000Z</time>
        <extensions>
          <gpxtpx:TrackPointExtension xmlns:gpxtpx="http://www.garmin.com/xmlschemas/TrackPointExtension/v1">
            <gpxtpx:hr>129</gpxtpx:hr>
          </gpxtpx:TrackPointExtension>
        </extensions>
      </trkpt>
      <trkpt lat="45.76924" lon="6.4058">
        <ele>679.20001220703</ele>
        <time>2020-07-05T05:39:19.000Z</time>
        <extensions>
          <gpxtpx:TrackPointExtension xmlns:gpxtpx="http://www.garmin.com/xmlschemas/TrackPointExtension/v1">
            <gpxtpx:hr>129</gpxtpx:hr>
          </gpxtpx:TrackPointExtension>
        </extensions>
      </trkpt>
      <trkpt lat="45.76914" lon="6.40604">
        <ele>680.40002441406</ele>
        <time>2020-07-05T05:39:25.000Z</time>
        <extensions>
          <gpxtpx:TrackPointExtension xmlns:gpxtpx="http://www.garmin.com/xmlschemas/TrackPointExtension/v1">
            <gpxtpx:hr>128</gpxtpx:hr>
          </gpxtpx:TrackPointExtension>
        </extensions>
      </trkpt>
      <trkpt lat="45.7691" lon="6.40618">
        <ele>680.79998779297</ele>
        <time>2020-07-05T05:39:28.000Z</time>
        <extensions>
          <gpxtpx:TrackPointExtension xmlns:gpxtpx="http://www.garmin.com/xmlschemas/TrackPointExtension/v1">
            <gpxtpx:hr>128</gpxtpx:hr>
          </gpxtpx:TrackPointExtension>
        </extensions>
      </trkpt>
      <trkpt lat="45.7691" lon="6.40632">
        <ele>681.40002441406</ele>
        <time>2020-07-05T05:39:31.000Z</time>
        <extensions>
          <gpxtpx:TrackPointExtension xmlns:gpxtpx="http://www.garmin.com/xmlschemas/TrackPointExtension/v1">
            <gpxtpx:hr>127</gpxtpx:hr>
          </gpxtpx:TrackPointExtension>
        </extensions>
      </trkpt>
      <trkpt lat="45.76912" lon="6.40646">
        <ele>682.20001220703</ele>
        <time>2020-07-05T05:39:34.000Z</time>
        <extensions>
          <gpxtpx:TrackPointExtension xmlns:gpxtpx="http://www.garmin.com/xmlschemas/TrackPointExtension/v1">
            <gpxtpx:hr>127</gpxtpx:hr>
          </gpxtpx:TrackPointExtension>
        </extensions>
      </trkpt>
      <trkpt lat="45.76913" lon="6.40656">
        <ele>682.40002441406</ele>
        <time>2020-07-05T05:39:36.000Z</time>
        <extensions>
          <gpxtpx:TrackPointExtension xmlns:gpxtpx="http://www.garmin.com/xmlschemas/TrackPointExtension/v1">
            <gpxtpx:hr>126</gpxtpx:hr>
          </gpxtpx:TrackPointExtension>
        </extensions>
      </trkpt>
      <trkpt lat="45.76918" lon="6.40667">
        <ele>682.79998779297</ele>
        <time>2020-07-05T05:39:39.000Z</time>
        <extensions>
          <gpxtpx:TrackPointExtension xmlns:gpxtpx="http://www.garmin.com/xmlschemas/TrackPointExtension/v1">
            <gpxtpx:hr>125</gpxtpx:hr>
          </gpxtpx:TrackPointExtension>
        </extensions>
      </trkpt>
      <trkpt lat="45.76925" lon="6.40668">
        <ele>683.20001220703</ele>
        <time>2020-07-05T05:39:41.000Z</time>
        <extensions>
          <gpxtpx:TrackPointExtension xmlns:gpxtpx="http://www.garmin.com/xmlschemas/TrackPointExtension/v1">
            <gpxtpx:hr>125</gpxtpx:hr>
          </gpxtpx:TrackPointExtension>
        </extensions>
      </trkpt>
      <trkpt lat="45.76927" lon="6.40665">
        <ele>683.59997558594</ele>
        <time>2020-07-05T05:39:42.000Z</time>
        <extensions>
          <gpxtpx:TrackPointExtension xmlns:gpxtpx="http://www.garmin.com/xmlschemas/TrackPointExtension/v1">
            <gpxtpx:hr>125</gpxtpx:hr>
          </gpxtpx:TrackPointExtension>
        </extensions>
      </trkpt>
      <trkpt lat="45.7693" lon="6.40662">
        <ele>683.79998779297</ele>
        <time>2020-07-05T05:39:43.000Z</time>
        <extensions>
          <gpxtpx:TrackPointExtension xmlns:gpxtpx="http://www.garmin.com/xmlschemas/TrackPointExtension/v1">
            <gpxtpx:hr>126</gpxtpx:hr>
          </gpxtpx:TrackPointExtension>
        </extensions>
      </trkpt>
      <trkpt lat="45.76934" lon="6.40655">
        <ele>684.59997558594</ele>
        <time>2020-07-05T05:39:45.000Z</time>
        <extensions>
          <gpxtpx:TrackPointExtension xmlns:gpxtpx="http://www.garmin.com/xmlschemas/TrackPointExtension/v1">
            <gpxtpx:hr>127</gpxtpx:hr>
          </gpxtpx:TrackPointExtension>
        </extensions>
      </trkpt>
      <trkpt lat="45.76939" lon="6.40646">
        <ele>685.79998779297</ele>
        <time>2020-07-05T05:39:48.000Z</time>
        <extensions>
          <gpxtpx:TrackPointExtension xmlns:gpxtpx="http://www.garmin.com/xmlschemas/TrackPointExtension/v1">
            <gpxtpx:hr>126</gpxtpx:hr>
          </gpxtpx:TrackPointExtension>
        </extensions>
      </trkpt>
      <trkpt lat="45.76941" lon="6.40643">
        <ele>686.20001220703</ele>
        <time>2020-07-05T05:39:49.000Z</time>
        <extensions>
          <gpxtpx:TrackPointExtension xmlns:gpxtpx="http://www.garmin.com/xmlschemas/TrackPointExtension/v1">
            <gpxtpx:hr>126</gpxtpx:hr>
          </gpxtpx:TrackPointExtension>
        </extensions>
      </trkpt>
      <trkpt lat="45.76944" lon="6.40636">
        <ele>686.79998779297</ele>
        <time>2020-07-05T05:39:51.000Z</time>
        <extensions>
          <gpxtpx:TrackPointExtension xmlns:gpxtpx="http://www.garmin.com/xmlschemas/TrackPointExtension/v1">
            <gpxtpx:hr>126</gpxtpx:hr>
          </gpxtpx:TrackPointExtension>
        </extensions>
      </trkpt>
      <trkpt lat="45.76953" lon="6.40621">
        <ele>688.20001220703</ele>
        <time>2020-07-05T05:39:56.000Z</time>
        <extensions>
          <gpxtpx:TrackPointExtension xmlns:gpxtpx="http://www.garmin.com/xmlschemas/TrackPointExtension/v1">
            <gpxtpx:hr>126</gpxtpx:hr>
          </gpxtpx:TrackPointExtension>
        </extensions>
      </trkpt>
      <trkpt lat="45.76955" lon="6.40619">
        <ele>688.40002441406</ele>
        <time>2020-07-05T05:39:57.000Z</time>
        <extensions>
          <gpxtpx:TrackPointExtension xmlns:gpxtpx="http://www.garmin.com/xmlschemas/TrackPointExtension/v1">
            <gpxtpx:hr>126</gpxtpx:hr>
          </gpxtpx:TrackPointExtension>
        </extensions>
      </trkpt>
      <trkpt lat="45.76961" lon="6.40611">
        <ele>689.20001220703</ele>
        <time>2020-07-05T05:40:00.000Z</time>
        <extensions>
          <gpxtpx:TrackPointExtension xmlns:gpxtpx="http://www.garmin.com/xmlschemas/TrackPointExtension/v1">
            <gpxtpx:hr>125</gpxtpx:hr>
          </gpxtpx:TrackPointExtension>
        </extensions>
      </trkpt>
      <trkpt lat="45.76969" lon="6.40601">
        <ele>690.40002441406</ele>
        <time>2020-07-05T05:40:04.000Z</time>
        <extensions>
          <gpxtpx:TrackPointExtension xmlns:gpxtpx="http://www.garmin.com/xmlschemas/TrackPointExtension/v1">
            <gpxtpx:hr>125</gpxtpx:hr>
          </gpxtpx:TrackPointExtension>
        </extensions>
      </trkpt>
      <trkpt lat="45.76973" lon="6.40596">
        <ele>691</ele>
        <time>2020-07-05T05:40:06.000Z</time>
        <extensions>
          <gpxtpx:TrackPointExtension xmlns:gpxtpx="http://www.garmin.com/xmlschemas/TrackPointExtension/v1">
            <gpxtpx:hr>124</gpxtpx:hr>
          </gpxtpx:TrackPointExtension>
        </extensions>
      </trkpt>
      <trkpt lat="45.76977" lon="6.40592">
        <ele>691.59997558594</ele>
        <time>2020-07-05T05:40:08.000Z</time>
        <extensions>
          <gpxtpx:TrackPointExtension xmlns:gpxtpx="http://www.garmin.com/xmlschemas/TrackPointExtension/v1">
            <gpxtpx:hr>125</gpxtpx:hr>
          </gpxtpx:TrackPointExtension>
        </extensions>
      </trkpt>
      <trkpt lat="45.76984" lon="6.40581">
        <ele>692.59997558594</ele>
        <time>2020-07-05T05:40:12.000Z</time>
        <extensions>
          <gpxtpx:TrackPointExtension xmlns:gpxtpx="http://www.garmin.com/xmlschemas/TrackPointExtension/v1">
            <gpxtpx:hr>126</gpxtpx:hr>
          </gpxtpx:TrackPointExtension>
        </extensions>
      </trkpt>
      <trkpt lat="45.7699" lon="6.40572">
        <ele>693.40002441406</ele>
        <time>2020-07-05T05:40:15.000Z</time>
        <extensions>
          <gpxtpx:TrackPointExtension xmlns:gpxtpx="http://www.garmin.com/xmlschemas/TrackPointExtension/v1">
            <gpxtpx:hr>127</gpxtpx:hr>
          </gpxtpx:TrackPointExtension>
        </extensions>
      </trkpt>
      <trkpt lat="45.76995" lon="6.40567">
        <ele>693.59997558594</ele>
        <time>2020-07-05T05:40:17.000Z</time>
        <extensions>
          <gpxtpx:TrackPointExtension xmlns:gpxtpx="http://www.garmin.com/xmlschemas/TrackPointExtension/v1">
            <gpxtpx:hr>127</gpxtpx:hr>
          </gpxtpx:TrackPointExtension>
        </extensions>
      </trkpt>
      <trkpt lat="45.77005" lon="6.40555">
        <ele>694.79998779297</ele>
        <time>2020-07-05T05:40:22.000Z</time>
        <extensions>
          <gpxtpx:TrackPointExtension xmlns:gpxtpx="http://www.garmin.com/xmlschemas/TrackPointExtension/v1">
            <gpxtpx:hr>128</gpxtpx:hr>
          </gpxtpx:TrackPointExtension>
        </extensions>
      </trkpt>
      <trkpt lat="45.77008" lon="6.40552">
        <ele>695</ele>
        <time>2020-07-05T05:40:23.000Z</time>
        <extensions>
          <gpxtpx:TrackPointExtension xmlns:gpxtpx="http://www.garmin.com/xmlschemas/TrackPointExtension/v1">
            <gpxtpx:hr>128</gpxtpx:hr>
          </gpxtpx:TrackPointExtension>
        </extensions>
      </trkpt>
      <trkpt lat="45.77014" lon="6.40545">
        <ele>695.79998779297</ele>
        <time>2020-07-05T05:40:26.000Z</time>
        <extensions>
          <gpxtpx:TrackPointExtension xmlns:gpxtpx="http://www.garmin.com/xmlschemas/TrackPointExtension/v1">
            <gpxtpx:hr>129</gpxtpx:hr>
          </gpxtpx:TrackPointExtension>
        </extensions>
      </trkpt>
      <trkpt lat="45.77023" lon="6.40541">
        <ele>696.20001220703</ele>
        <time>2020-07-05T05:40:29.000Z</time>
        <extensions>
          <gpxtpx:TrackPointExtension xmlns:gpxtpx="http://www.garmin.com/xmlschemas/TrackPointExtension/v1">
            <gpxtpx:hr>129</gpxtpx:hr>
          </gpxtpx:TrackPointExtension>
        </extensions>
      </trkpt>
      <trkpt lat="45.77026" lon="6.40542">
        <ele>696.59997558594</ele>
        <time>2020-07-05T05:40:30.000Z</time>
        <extensions>
          <gpxtpx:TrackPointExtension xmlns:gpxtpx="http://www.garmin.com/xmlschemas/TrackPointExtension/v1">
            <gpxtpx:hr>128</gpxtpx:hr>
          </gpxtpx:TrackPointExtension>
        </extensions>
      </trkpt>
      <trkpt lat="45.77029" lon="6.40544">
        <ele>697</ele>
        <time>2020-07-05T05:40:31.000Z</time>
        <extensions>
          <gpxtpx:TrackPointExtension xmlns:gpxtpx="http://www.garmin.com/xmlschemas/TrackPointExtension/v1">
            <gpxtpx:hr>127</gpxtpx:hr>
          </gpxtpx:TrackPointExtension>
        </extensions>
      </trkpt>
      <trkpt lat="45.7703" lon="6.40547">
        <ele>697.20001220703</ele>
        <time>2020-07-05T05:40:32.000Z</time>
        <extensions>
          <gpxtpx:TrackPointExtension xmlns:gpxtpx="http://www.garmin.com/xmlschemas/TrackPointExtension/v1">
            <gpxtpx:hr>127</gpxtpx:hr>
          </gpxtpx:TrackPointExtension>
        </extensions>
      </trkpt>
      <trkpt lat="45.77031" lon="6.4056">
        <ele>697.79998779297</ele>
        <time>2020-07-05T05:40:35.000Z</time>
        <extensions>
          <gpxtpx:TrackPointExtension xmlns:gpxtpx="http://www.garmin.com/xmlschemas/TrackPointExtension/v1">
            <gpxtpx:hr>123</gpxtpx:hr>
          </gpxtpx:TrackPointExtension>
        </extensions>
      </trkpt>
      <trkpt lat="45.7703" lon="6.40564">
        <ele>698.20001220703</ele>
        <time>2020-07-05T05:40:36.000Z</time>
        <extensions>
          <gpxtpx:TrackPointExtension xmlns:gpxtpx="http://www.garmin.com/xmlschemas/TrackPointExtension/v1">
            <gpxtpx:hr>123</gpxtpx:hr>
          </gpxtpx:TrackPointExtension>
        </extensions>
      </trkpt>
      <trkpt lat="45.77029" lon="6.40576">
        <ele>699.20001220703</ele>
        <time>2020-07-05T05:40:39.000Z</time>
        <extensions>
          <gpxtpx:TrackPointExtension xmlns:gpxtpx="http://www.garmin.com/xmlschemas/TrackPointExtension/v1">
            <gpxtpx:hr>124</gpxtpx:hr>
          </gpxtpx:TrackPointExtension>
        </extensions>
      </trkpt>
      <trkpt lat="45.77025" lon="6.40596">
        <ele>700.40002441406</ele>
        <time>2020-07-05T05:40:44.000Z</time>
        <extensions>
          <gpxtpx:TrackPointExtension xmlns:gpxtpx="http://www.garmin.com/xmlschemas/TrackPointExtension/v1">
            <gpxtpx:hr>125</gpxtpx:hr>
          </gpxtpx:TrackPointExtension>
        </extensions>
      </trkpt>
      <trkpt lat="45.77025" lon="6.406">
        <ele>700.59997558594</ele>
        <time>2020-07-05T05:40:45.000Z</time>
        <extensions>
          <gpxtpx:TrackPointExtension xmlns:gpxtpx="http://www.garmin.com/xmlschemas/TrackPointExtension/v1">
            <gpxtpx:hr>125</gpxtpx:hr>
          </gpxtpx:TrackPointExtension>
        </extensions>
      </trkpt>
      <trkpt lat="45.77024" lon="6.40613">
        <ele>701.40002441406</ele>
        <time>2020-07-05T05:40:48.000Z</time>
        <extensions>
          <gpxtpx:TrackPointExtension xmlns:gpxtpx="http://www.garmin.com/xmlschemas/TrackPointExtension/v1">
            <gpxtpx:hr>126</gpxtpx:hr>
          </gpxtpx:TrackPointExtension>
        </extensions>
      </trkpt>
      <trkpt lat="45.77024" lon="6.40627">
        <ele>702</ele>
        <time>2020-07-05T05:40:51.000Z</time>
        <extensions>
          <gpxtpx:TrackPointExtension xmlns:gpxtpx="http://www.garmin.com/xmlschemas/TrackPointExtension/v1">
            <gpxtpx:hr>126</gpxtpx:hr>
          </gpxtpx:TrackPointExtension>
        </extensions>
      </trkpt>
      <trkpt lat="45.77028" lon="6.40645">
        <ele>702.59997558594</ele>
        <time>2020-07-05T05:40:55.000Z</time>
        <extensions>
          <gpxtpx:TrackPointExtension xmlns:gpxtpx="http://www.garmin.com/xmlschemas/TrackPointExtension/v1">
            <gpxtpx:hr>127</gpxtpx:hr>
          </gpxtpx:TrackPointExtension>
        </extensions>
      </trkpt>
      <trkpt lat="45.77033" lon="6.40661">
        <ele>703.79998779297</ele>
        <time>2020-07-05T05:40:59.000Z</time>
        <extensions>
          <gpxtpx:TrackPointExtension xmlns:gpxtpx="http://www.garmin.com/xmlschemas/TrackPointExtension/v1">
            <gpxtpx:hr>130</gpxtpx:hr>
          </gpxtpx:TrackPointExtension>
        </extensions>
      </trkpt>
      <trkpt lat="45.77039" lon="6.4068">
        <ele>704.79998779297</ele>
        <time>2020-07-05T05:41:04.000Z</time>
        <extensions>
          <gpxtpx:TrackPointExtension xmlns:gpxtpx="http://www.garmin.com/xmlschemas/TrackPointExtension/v1">
            <gpxtpx:hr>130</gpxtpx:hr>
          </gpxtpx:TrackPointExtension>
        </extensions>
      </trkpt>
      <trkpt lat="45.77044" lon="6.40699">
        <ele>706</ele>
        <time>2020-07-05T05:41:09.000Z</time>
        <extensions>
          <gpxtpx:TrackPointExtension xmlns:gpxtpx="http://www.garmin.com/xmlschemas/TrackPointExtension/v1">
            <gpxtpx:hr>130</gpxtpx:hr>
          </gpxtpx:TrackPointExtension>
        </extensions>
      </trkpt>
      <trkpt lat="45.77046" lon="6.40706">
        <ele>706.59997558594</ele>
        <time>2020-07-05T05:41:11.000Z</time>
        <extensions>
          <gpxtpx:TrackPointExtension xmlns:gpxtpx="http://www.garmin.com/xmlschemas/TrackPointExtension/v1">
            <gpxtpx:hr>130</gpxtpx:hr>
          </gpxtpx:TrackPointExtension>
        </extensions>
      </trkpt>
      <trkpt lat="45.77047" lon="6.4071">
        <ele>707</ele>
        <time>2020-07-05T05:41:12.000Z</time>
        <extensions>
          <gpxtpx:TrackPointExtension xmlns:gpxtpx="http://www.garmin.com/xmlschemas/TrackPointExtension/v1">
            <gpxtpx:hr>130</gpxtpx:hr>
          </gpxtpx:TrackPointExtension>
        </extensions>
      </trkpt>
      <trkpt lat="45.77052" lon="6.40728">
        <ele>708</ele>
        <time>2020-07-05T05:41:17.000Z</time>
        <extensions>
          <gpxtpx:TrackPointExtension xmlns:gpxtpx="http://www.garmin.com/xmlschemas/TrackPointExtension/v1">
            <gpxtpx:hr>130</gpxtpx:hr>
          </gpxtpx:TrackPointExtension>
        </extensions>
      </trkpt>
      <trkpt lat="45.77058" lon="6.40747">
        <ele>709.20001220703</ele>
        <time>2020-07-05T05:41:22.000Z</time>
        <extensions>
          <gpxtpx:TrackPointExtension xmlns:gpxtpx="http://www.garmin.com/xmlschemas/TrackPointExtension/v1">
            <gpxtpx:hr>131</gpxtpx:hr>
          </gpxtpx:TrackPointExtension>
        </extensions>
      </trkpt>
      <trkpt lat="45.77061" lon="6.40754">
        <ele>709.59997558594</ele>
        <time>2020-07-05T05:41:24.000Z</time>
        <extensions>
          <gpxtpx:TrackPointExtension xmlns:gpxtpx="http://www.garmin.com/xmlschemas/TrackPointExtension/v1">
            <gpxtpx:hr>130</gpxtpx:hr>
          </gpxtpx:TrackPointExtension>
        </extensions>
      </trkpt>
      <trkpt lat="45.77064" lon="6.40766">
        <ele>710.40002441406</ele>
        <time>2020-07-05T05:41:27.000Z</time>
        <extensions>
          <gpxtpx:TrackPointExtension xmlns:gpxtpx="http://www.garmin.com/xmlschemas/TrackPointExtension/v1">
            <gpxtpx:hr>131</gpxtpx:hr>
          </gpxtpx:TrackPointExtension>
        </extensions>
      </trkpt>
      <trkpt lat="45.77069" lon="6.40782">
        <ele>711.40002441406</ele>
        <time>2020-07-05T05:41:31.000Z</time>
        <extensions>
          <gpxtpx:TrackPointExtension xmlns:gpxtpx="http://www.garmin.com/xmlschemas/TrackPointExtension/v1">
            <gpxtpx:hr>132</gpxtpx:hr>
          </gpxtpx:TrackPointExtension>
        </extensions>
      </trkpt>
      <trkpt lat="45.77075" lon="6.40801">
        <ele>712.59997558594</ele>
        <time>2020-07-05T05:41:36.000Z</time>
        <extensions>
          <gpxtpx:TrackPointExtension xmlns:gpxtpx="http://www.garmin.com/xmlschemas/TrackPointExtension/v1">
            <gpxtpx:hr>133</gpxtpx:hr>
          </gpxtpx:TrackPointExtension>
        </extensions>
      </trkpt>
      <trkpt lat="45.77078" lon="6.40811">
        <ele>713.59997558594</ele>
        <time>2020-07-05T05:41:39.000Z</time>
        <extensions>
          <gpxtpx:TrackPointExtension xmlns:gpxtpx="http://www.garmin.com/xmlschemas/TrackPointExtension/v1">
            <gpxtpx:hr>133</gpxtpx:hr>
          </gpxtpx:TrackPointExtension>
        </extensions>
      </trkpt>
      <trkpt lat="45.77086" lon="6.40838">
        <ele>714.79998779297</ele>
        <time>2020-07-05T05:41:46.000Z</time>
        <extensions>
          <gpxtpx:TrackPointExtension xmlns:gpxtpx="http://www.garmin.com/xmlschemas/TrackPointExtension/v1">
            <gpxtpx:hr>132</gpxtpx:hr>
          </gpxtpx:TrackPointExtension>
        </extensions>
      </trkpt>
      <trkpt lat="45.77088" lon="6.40845">
        <ele>715.59997558594</ele>
        <time>2020-07-05T05:41:48.000Z</time>
        <extensions>
          <gpxtpx:TrackPointExtension xmlns:gpxtpx="http://www.garmin.com/xmlschemas/TrackPointExtension/v1">
            <gpxtpx:hr>130</gpxtpx:hr>
          </gpxtpx:TrackPointExtension>
        </extensions>
      </trkpt>
      <trkpt lat="45.77089" lon="6.40849">
        <ele>716</ele>
        <time>2020-07-05T05:41:49.000Z</time>
        <extensions>
          <gpxtpx:TrackPointExtension xmlns:gpxtpx="http://www.garmin.com/xmlschemas/TrackPointExtension/v1">
            <gpxtpx:hr>131</gpxtpx:hr>
          </gpxtpx:TrackPointExtension>
        </extensions>
      </trkpt>
      <trkpt lat="45.77093" lon="6.40868">
        <ele>717</ele>
        <time>2020-07-05T05:41:54.000Z</time>
        <extensions>
          <gpxtpx:TrackPointExtension xmlns:gpxtpx="http://www.garmin.com/xmlschemas/TrackPointExtension/v1">
            <gpxtpx:hr>131</gpxtpx:hr>
          </gpxtpx:TrackPointExtension>
        </extensions>
      </trkpt>
      <trkpt lat="45.77093" lon="6.40876">
        <ele>717.40002441406</ele>
        <time>2020-07-05T05:41:56.000Z</time>
        <extensions>
          <gpxtpx:TrackPointExtension xmlns:gpxtpx="http://www.garmin.com/xmlschemas/TrackPointExtension/v1">
            <gpxtpx:hr>131</gpxtpx:hr>
          </gpxtpx:TrackPointExtension>
        </extensions>
      </trkpt>
      <trkpt lat="45.77094" lon="6.40884">
        <ele>718</ele>
        <time>2020-07-05T05:41:58.000Z</time>
        <extensions>
          <gpxtpx:TrackPointExtension xmlns:gpxtpx="http://www.garmin.com/xmlschemas/TrackPointExtension/v1">
            <gpxtpx:hr>130</gpxtpx:hr>
          </gpxtpx:TrackPointExtension>
        </extensions>
      </trkpt>
      <trkpt lat="45.77094" lon="6.40895">
        <ele>719</ele>
        <time>2020-07-05T05:42:01.000Z</time>
        <extensions>
          <gpxtpx:TrackPointExtension xmlns:gpxtpx="http://www.garmin.com/xmlschemas/TrackPointExtension/v1">
            <gpxtpx:hr>129</gpxtpx:hr>
          </gpxtpx:TrackPointExtension>
        </extensions>
      </trkpt>
      <trkpt lat="45.77093" lon="6.40905">
        <ele>720.20001220703</ele>
        <time>2020-07-05T05:42:04.000Z</time>
        <extensions>
          <gpxtpx:TrackPointExtension xmlns:gpxtpx="http://www.garmin.com/xmlschemas/TrackPointExtension/v1">
            <gpxtpx:hr>129</gpxtpx:hr>
          </gpxtpx:TrackPointExtension>
        </extensions>
      </trkpt>
      <trkpt lat="45.77091" lon="6.4092">
        <ele>721.40002441406</ele>
        <time>2020-07-05T05:42:08.000Z</time>
        <extensions>
          <gpxtpx:TrackPointExtension xmlns:gpxtpx="http://www.garmin.com/xmlschemas/TrackPointExtension/v1">
            <gpxtpx:hr>127</gpxtpx:hr>
          </gpxtpx:TrackPointExtension>
        </extensions>
      </trkpt>
      <trkpt lat="45.77094" lon="6.40931">
        <ele>722.20001220703</ele>
        <time>2020-07-05T05:42:11.000Z</time>
        <extensions>
          <gpxtpx:TrackPointExtension xmlns:gpxtpx="http://www.garmin.com/xmlschemas/TrackPointExtension/v1">
            <gpxtpx:hr>127</gpxtpx:hr>
          </gpxtpx:TrackPointExtension>
        </extensions>
      </trkpt>
      <trkpt lat="45.77099" lon="6.40938">
        <ele>722.59997558594</ele>
        <time>2020-07-05T05:42:13.000Z</time>
        <extensions>
          <gpxtpx:TrackPointExtension xmlns:gpxtpx="http://www.garmin.com/xmlschemas/TrackPointExtension/v1">
            <gpxtpx:hr>126</gpxtpx:hr>
          </gpxtpx:TrackPointExtension>
        </extensions>
      </trkpt>
      <trkpt lat="45.77109" lon="6.40955">
        <ele>723.79998779297</ele>
        <time>2020-07-05T05:42:19.000Z</time>
        <extensions>
          <gpxtpx:TrackPointExtension xmlns:gpxtpx="http://www.garmin.com/xmlschemas/TrackPointExtension/v1">
            <gpxtpx:hr>125</gpxtpx:hr>
          </gpxtpx:TrackPointExtension>
        </extensions>
      </trkpt>
      <trkpt lat="45.77111" lon="6.40958">
        <ele>724</ele>
        <time>2020-07-05T05:42:20.000Z</time>
        <extensions>
          <gpxtpx:TrackPointExtension xmlns:gpxtpx="http://www.garmin.com/xmlschemas/TrackPointExtension/v1">
            <gpxtpx:hr>125</gpxtpx:hr>
          </gpxtpx:TrackPointExtension>
        </extensions>
      </trkpt>
      <trkpt lat="45.77115" lon="6.40966">
        <ele>724.79998779297</ele>
        <time>2020-07-05T05:42:23.000Z</time>
        <extensions>
          <gpxtpx:TrackPointExtension xmlns:gpxtpx="http://www.garmin.com/xmlschemas/TrackPointExtension/v1">
            <gpxtpx:hr>124</gpxtpx:hr>
          </gpxtpx:TrackPointExtension>
        </extensions>
      </trkpt>
      <trkpt lat="45.77119" lon="6.40978">
        <ele>726.20001220703</ele>
        <time>2020-07-05T05:42:27.000Z</time>
        <extensions>
          <gpxtpx:TrackPointExtension xmlns:gpxtpx="http://www.garmin.com/xmlschemas/TrackPointExtension/v1">
            <gpxtpx:hr>122</gpxtpx:hr>
          </gpxtpx:TrackPointExtension>
        </extensions>
      </trkpt>
      <trkpt lat="45.7712" lon="6.4099">
        <ele>727.20001220703</ele>
        <time>2020-07-05T05:42:30.000Z</time>
        <extensions>
          <gpxtpx:TrackPointExtension xmlns:gpxtpx="http://www.garmin.com/xmlschemas/TrackPointExtension/v1">
            <gpxtpx:hr>123</gpxtpx:hr>
          </gpxtpx:TrackPointExtension>
        </extensions>
      </trkpt>
      <trkpt lat="45.77121" lon="6.41005">
        <ele>728</ele>
        <time>2020-07-05T05:42:34.000Z</time>
        <extensions>
          <gpxtpx:TrackPointExtension xmlns:gpxtpx="http://www.garmin.com/xmlschemas/TrackPointExtension/v1">
            <gpxtpx:hr>124</gpxtpx:hr>
          </gpxtpx:TrackPointExtension>
        </extensions>
      </trkpt>
      <trkpt lat="45.77121" lon="6.4101">
        <ele>728.20001220703</ele>
        <time>2020-07-05T05:42:35.000Z</time>
        <extensions>
          <gpxtpx:TrackPointExtension xmlns:gpxtpx="http://www.garmin.com/xmlschemas/TrackPointExtension/v1">
            <gpxtpx:hr>124</gpxtpx:hr>
          </gpxtpx:TrackPointExtension>
        </extensions>
      </trkpt>
      <trkpt lat="45.77121" lon="6.41026">
        <ele>729.40002441406</ele>
        <time>2020-07-05T05:42:39.000Z</time>
        <extensions>
          <gpxtpx:TrackPointExtension xmlns:gpxtpx="http://www.garmin.com/xmlschemas/TrackPointExtension/v1">
            <gpxtpx:hr>126</gpxtpx:hr>
          </gpxtpx:TrackPointExtension>
        </extensions>
      </trkpt>
      <trkpt lat="45.77122" lon="6.41033">
        <ele>730.20001220703</ele>
        <time>2020-07-05T05:42:41.000Z</time>
        <extensions>
          <gpxtpx:TrackPointExtension xmlns:gpxtpx="http://www.garmin.com/xmlschemas/TrackPointExtension/v1">
            <gpxtpx:hr>127</gpxtpx:hr>
          </gpxtpx:TrackPointExtension>
        </extensions>
      </trkpt>
      <trkpt lat="45.77123" lon="6.41037">
        <ele>730.59997558594</ele>
        <time>2020-07-05T05:42:42.000Z</time>
        <extensions>
          <gpxtpx:TrackPointExtension xmlns:gpxtpx="http://www.garmin.com/xmlschemas/TrackPointExtension/v1">
            <gpxtpx:hr>128</gpxtpx:hr>
          </gpxtpx:TrackPointExtension>
        </extensions>
      </trkpt>
      <trkpt lat="45.77126" lon="6.41052">
        <ele>731.59997558594</ele>
        <time>2020-07-05T05:42:46.000Z</time>
        <extensions>
          <gpxtpx:TrackPointExtension xmlns:gpxtpx="http://www.garmin.com/xmlschemas/TrackPointExtension/v1">
            <gpxtpx:hr>127</gpxtpx:hr>
          </gpxtpx:TrackPointExtension>
        </extensions>
      </trkpt>
      <trkpt lat="45.77127" lon="6.4106">
        <ele>732</ele>
        <time>2020-07-05T05:42:48.000Z</time>
        <extensions>
          <gpxtpx:TrackPointExtension xmlns:gpxtpx="http://www.garmin.com/xmlschemas/TrackPointExtension/v1">
            <gpxtpx:hr>128</gpxtpx:hr>
          </gpxtpx:TrackPointExtension>
        </extensions>
      </trkpt>
      <trkpt lat="45.77127" lon="6.41075">
        <ele>732.59997558594</ele>
        <time>2020-07-05T05:42:52.000Z</time>
        <extensions>
          <gpxtpx:TrackPointExtension xmlns:gpxtpx="http://www.garmin.com/xmlschemas/TrackPointExtension/v1">
            <gpxtpx:hr>127</gpxtpx:hr>
          </gpxtpx:TrackPointExtension>
        </extensions>
      </trkpt>
      <trkpt lat="45.77127" lon="6.41089">
        <ele>733.79998779297</ele>
        <time>2020-07-05T05:42:56.000Z</time>
        <extensions>
          <gpxtpx:TrackPointExtension xmlns:gpxtpx="http://www.garmin.com/xmlschemas/TrackPointExtension/v1">
            <gpxtpx:hr>129</gpxtpx:hr>
          </gpxtpx:TrackPointExtension>
        </extensions>
      </trkpt>
      <trkpt lat="45.77126" lon="6.41104">
        <ele>734.79998779297</ele>
        <time>2020-07-05T05:43:00.000Z</time>
        <extensions>
          <gpxtpx:TrackPointExtension xmlns:gpxtpx="http://www.garmin.com/xmlschemas/TrackPointExtension/v1">
            <gpxtpx:hr>130</gpxtpx:hr>
          </gpxtpx:TrackPointExtension>
        </extensions>
      </trkpt>
      <trkpt lat="45.77126" lon="6.41108">
        <ele>735</ele>
        <time>2020-07-05T05:43:01.000Z</time>
        <extensions>
          <gpxtpx:TrackPointExtension xmlns:gpxtpx="http://www.garmin.com/xmlschemas/TrackPointExtension/v1">
            <gpxtpx:hr>130</gpxtpx:hr>
          </gpxtpx:TrackPointExtension>
        </extensions>
      </trkpt>
      <trkpt lat="45.77127" lon="6.41123">
        <ele>736.20001220703</ele>
        <time>2020-07-05T05:43:05.000Z</time>
        <extensions>
          <gpxtpx:TrackPointExtension xmlns:gpxtpx="http://www.garmin.com/xmlschemas/TrackPointExtension/v1">
            <gpxtpx:hr>131</gpxtpx:hr>
          </gpxtpx:TrackPointExtension>
        </extensions>
      </trkpt>
      <trkpt lat="45.77129" lon="6.41141">
        <ele>737.40002441406</ele>
        <time>2020-07-05T05:43:10.000Z</time>
        <extensions>
          <gpxtpx:TrackPointExtension xmlns:gpxtpx="http://www.garmin.com/xmlschemas/TrackPointExtension/v1">
            <gpxtpx:hr>130</gpxtpx:hr>
          </gpxtpx:TrackPointExtension>
        </extensions>
      </trkpt>
      <trkpt lat="45.77129" lon="6.41145">
        <ele>737.59997558594</ele>
        <time>2020-07-05T05:43:11.000Z</time>
        <extensions>
          <gpxtpx:TrackPointExtension xmlns:gpxtpx="http://www.garmin.com/xmlschemas/TrackPointExtension/v1">
            <gpxtpx:hr>130</gpxtpx:hr>
          </gpxtpx:TrackPointExtension>
        </extensions>
      </trkpt>
      <trkpt lat="45.7713" lon="6.41152">
        <ele>738.20001220703</ele>
        <time>2020-07-05T05:43:13.000Z</time>
        <extensions>
          <gpxtpx:TrackPointExtension xmlns:gpxtpx="http://www.garmin.com/xmlschemas/TrackPointExtension/v1">
            <gpxtpx:hr>125</gpxtpx:hr>
          </gpxtpx:TrackPointExtension>
        </extensions>
      </trkpt>
      <trkpt lat="45.7713" lon="6.41156">
        <ele>738.40002441406</ele>
        <time>2020-07-05T05:43:14.000Z</time>
        <extensions>
          <gpxtpx:TrackPointExtension xmlns:gpxtpx="http://www.garmin.com/xmlschemas/TrackPointExtension/v1">
            <gpxtpx:hr>130</gpxtpx:hr>
          </gpxtpx:TrackPointExtension>
        </extensions>
      </trkpt>
      <trkpt lat="45.77132" lon="6.41178">
        <ele>739.59997558594</ele>
        <time>2020-07-05T05:43:20.000Z</time>
        <extensions>
          <gpxtpx:TrackPointExtension xmlns:gpxtpx="http://www.garmin.com/xmlschemas/TrackPointExtension/v1">
            <gpxtpx:hr>130</gpxtpx:hr>
          </gpxtpx:TrackPointExtension>
        </extensions>
      </trkpt>
      <trkpt lat="45.77133" lon="6.41185">
        <ele>740.20001220703</ele>
        <time>2020-07-05T05:43:22.000Z</time>
        <extensions>
          <gpxtpx:TrackPointExtension xmlns:gpxtpx="http://www.garmin.com/xmlschemas/TrackPointExtension/v1">
            <gpxtpx:hr>130</gpxtpx:hr>
          </gpxtpx:TrackPointExtension>
        </extensions>
      </trkpt>
      <trkpt lat="45.77133" lon="6.41192">
        <ele>740.79998779297</ele>
        <time>2020-07-05T05:43:24.000Z</time>
        <extensions>
          <gpxtpx:TrackPointExtension xmlns:gpxtpx="http://www.garmin.com/xmlschemas/TrackPointExtension/v1">
            <gpxtpx:hr>130</gpxtpx:hr>
          </gpxtpx:TrackPointExtension>
        </extensions>
      </trkpt>
      <trkpt lat="45.77132" lon="6.41207">
        <ele>741.79998779297</ele>
        <time>2020-07-05T05:43:28.000Z</time>
        <extensions>
          <gpxtpx:TrackPointExtension xmlns:gpxtpx="http://www.garmin.com/xmlschemas/TrackPointExtension/v1">
            <gpxtpx:hr>131</gpxtpx:hr>
          </gpxtpx:TrackPointExtension>
        </extensions>
      </trkpt>
      <trkpt lat="45.77131" lon="6.41222">
        <ele>742.79998779297</ele>
        <time>2020-07-05T05:43:32.000Z</time>
        <extensions>
          <gpxtpx:TrackPointExtension xmlns:gpxtpx="http://www.garmin.com/xmlschemas/TrackPointExtension/v1">
            <gpxtpx:hr>133</gpxtpx:hr>
          </gpxtpx:TrackPointExtension>
        </extensions>
      </trkpt>
      <trkpt lat="45.77131" lon="6.41225">
        <ele>743</ele>
        <time>2020-07-05T05:43:33.000Z</time>
        <extensions>
          <gpxtpx:TrackPointExtension xmlns:gpxtpx="http://www.garmin.com/xmlschemas/TrackPointExtension/v1">
            <gpxtpx:hr>133</gpxtpx:hr>
          </gpxtpx:TrackPointExtension>
        </extensions>
      </trkpt>
      <trkpt lat="45.77128" lon="6.41244">
        <ele>744.20001220703</ele>
        <time>2020-07-05T05:43:38.000Z</time>
        <extensions>
          <gpxtpx:TrackPointExtension xmlns:gpxtpx="http://www.garmin.com/xmlschemas/TrackPointExtension/v1">
            <gpxtpx:hr>132</gpxtpx:hr>
          </gpxtpx:TrackPointExtension>
        </extensions>
      </trkpt>
      <trkpt lat="45.77128" lon="6.41252">
        <ele>744.59997558594</ele>
        <time>2020-07-05T05:43:40.000Z</time>
        <extensions>
          <gpxtpx:TrackPointExtension xmlns:gpxtpx="http://www.garmin.com/xmlschemas/TrackPointExtension/v1">
            <gpxtpx:hr>132</gpxtpx:hr>
          </gpxtpx:TrackPointExtension>
        </extensions>
      </trkpt>
      <trkpt lat="45.7713" lon="6.41261">
        <ele>745.40002441406</ele>
        <time>2020-07-05T05:43:43.000Z</time>
        <extensions>
          <gpxtpx:TrackPointExtension xmlns:gpxtpx="http://www.garmin.com/xmlschemas/TrackPointExtension/v1">
            <gpxtpx:hr>131</gpxtpx:hr>
          </gpxtpx:TrackPointExtension>
        </extensions>
      </trkpt>
      <trkpt lat="45.77133" lon="6.41262">
        <ele>745.59997558594</ele>
        <time>2020-07-05T05:43:44.000Z</time>
        <extensions>
          <gpxtpx:TrackPointExtension xmlns:gpxtpx="http://www.garmin.com/xmlschemas/TrackPointExtension/v1">
            <gpxtpx:hr>131</gpxtpx:hr>
          </gpxtpx:TrackPointExtension>
        </extensions>
      </trkpt>
      <trkpt lat="45.77135" lon="6.41262">
        <ele>745.79998779297</ele>
        <time>2020-07-05T05:43:45.000Z</time>
        <extensions>
          <gpxtpx:TrackPointExtension xmlns:gpxtpx="http://www.garmin.com/xmlschemas/TrackPointExtension/v1">
            <gpxtpx:hr>131</gpxtpx:hr>
          </gpxtpx:TrackPointExtension>
        </extensions>
      </trkpt>
      <trkpt lat="45.77139" lon="6.41257">
        <ele>746.40002441406</ele>
        <time>2020-07-05T05:43:47.000Z</time>
        <extensions>
          <gpxtpx:TrackPointExtension xmlns:gpxtpx="http://www.garmin.com/xmlschemas/TrackPointExtension/v1">
            <gpxtpx:hr>131</gpxtpx:hr>
          </gpxtpx:TrackPointExtension>
        </extensions>
      </trkpt>
      <trkpt lat="45.7714" lon="6.41253">
        <ele>746.59997558594</ele>
        <time>2020-07-05T05:43:48.000Z</time>
        <extensions>
          <gpxtpx:TrackPointExtension xmlns:gpxtpx="http://www.garmin.com/xmlschemas/TrackPointExtension/v1">
            <gpxtpx:hr>131</gpxtpx:hr>
          </gpxtpx:TrackPointExtension>
        </extensions>
      </trkpt>
      <trkpt lat="45.77144" lon="6.41233">
        <ele>747.79998779297</ele>
        <time>2020-07-05T05:43:53.000Z</time>
        <extensions>
          <gpxtpx:TrackPointExtension xmlns:gpxtpx="http://www.garmin.com/xmlschemas/TrackPointExtension/v1">
            <gpxtpx:hr>131</gpxtpx:hr>
          </gpxtpx:TrackPointExtension>
        </extensions>
      </trkpt>
      <trkpt lat="45.77147" lon="6.41216">
        <ele>749</ele>
        <time>2020-07-05T05:43:57.000Z</time>
        <extensions>
          <gpxtpx:TrackPointExtension xmlns:gpxtpx="http://www.garmin.com/xmlschemas/TrackPointExtension/v1">
            <gpxtpx:hr>132</gpxtpx:hr>
          </gpxtpx:TrackPointExtension>
        </extensions>
      </trkpt>
      <trkpt lat="45.77152" lon="6.41201">
        <ele>749.79998779297</ele>
        <time>2020-07-05T05:44:01.000Z</time>
        <extensions>
          <gpxtpx:TrackPointExtension xmlns:gpxtpx="http://www.garmin.com/xmlschemas/TrackPointExtension/v1">
            <gpxtpx:hr>132</gpxtpx:hr>
          </gpxtpx:TrackPointExtension>
        </extensions>
      </trkpt>
      <trkpt lat="45.77153" lon="6.41197">
        <ele>750</ele>
        <time>2020-07-05T05:44:02.000Z</time>
        <extensions>
          <gpxtpx:TrackPointExtension xmlns:gpxtpx="http://www.garmin.com/xmlschemas/TrackPointExtension/v1">
            <gpxtpx:hr>132</gpxtpx:hr>
          </gpxtpx:TrackPointExtension>
        </extensions>
      </trkpt>
      <trkpt lat="45.77159" lon="6.4118">
        <ele>751.20001220703</ele>
        <time>2020-07-05T05:44:07.000Z</time>
        <extensions>
          <gpxtpx:TrackPointExtension xmlns:gpxtpx="http://www.garmin.com/xmlschemas/TrackPointExtension/v1">
            <gpxtpx:hr>132</gpxtpx:hr>
          </gpxtpx:TrackPointExtension>
        </extensions>
      </trkpt>
      <trkpt lat="45.77162" lon="6.4117">
        <ele>752.20001220703</ele>
        <time>2020-07-05T05:44:10.000Z</time>
        <extensions>
          <gpxtpx:TrackPointExtension xmlns:gpxtpx="http://www.garmin.com/xmlschemas/TrackPointExtension/v1">
            <gpxtpx:hr>132</gpxtpx:hr>
          </gpxtpx:TrackPointExtension>
        </extensions>
      </trkpt>
      <trkpt lat="45.77164" lon="6.41167">
        <ele>752.40002441406</ele>
        <time>2020-07-05T05:44:11.000Z</time>
        <extensions>
          <gpxtpx:TrackPointExtension xmlns:gpxtpx="http://www.garmin.com/xmlschemas/TrackPointExtension/v1">
            <gpxtpx:hr>132</gpxtpx:hr>
          </gpxtpx:TrackPointExtension>
        </extensions>
      </trkpt>
      <trkpt lat="45.7717" lon="6.41153">
        <ele>753.79998779297</ele>
        <time>2020-07-05T05:44:15.000Z</time>
        <extensions>
          <gpxtpx:TrackPointExtension xmlns:gpxtpx="http://www.garmin.com/xmlschemas/TrackPointExtension/v1">
            <gpxtpx:hr>131</gpxtpx:hr>
          </gpxtpx:TrackPointExtension>
        </extensions>
      </trkpt>
      <trkpt lat="45.77175" lon="6.41144">
        <ele>754.40002441406</ele>
        <time>2020-07-05T05:44:18.000Z</time>
        <extensions>
          <gpxtpx:TrackPointExtension xmlns:gpxtpx="http://www.garmin.com/xmlschemas/TrackPointExtension/v1">
            <gpxtpx:hr>131</gpxtpx:hr>
          </gpxtpx:TrackPointExtension>
        </extensions>
      </trkpt>
      <trkpt lat="45.77179" lon="6.41139">
        <ele>755</ele>
        <time>2020-07-05T05:44:20.000Z</time>
        <extensions>
          <gpxtpx:TrackPointExtension xmlns:gpxtpx="http://www.garmin.com/xmlschemas/TrackPointExtension/v1">
            <gpxtpx:hr>131</gpxtpx:hr>
          </gpxtpx:TrackPointExtension>
        </extensions>
      </trkpt>
      <trkpt lat="45.77186" lon="6.41127">
        <ele>756</ele>
        <time>2020-07-05T05:44:24.000Z</time>
        <extensions>
          <gpxtpx:TrackPointExtension xmlns:gpxtpx="http://www.garmin.com/xmlschemas/TrackPointExtension/v1">
            <gpxtpx:hr>131</gpxtpx:hr>
          </gpxtpx:TrackPointExtension>
        </extensions>
      </trkpt>
      <trkpt lat="45.77189" lon="6.41124">
        <ele>756.20001220703</ele>
        <time>2020-07-05T05:44:25.000Z</time>
        <extensions>
          <gpxtpx:TrackPointExtension xmlns:gpxtpx="http://www.garmin.com/xmlschemas/TrackPointExtension/v1">
            <gpxtpx:hr>131</gpxtpx:hr>
          </gpxtpx:TrackPointExtension>
        </extensions>
      </trkpt>
      <trkpt lat="45.77201" lon="6.41112">
        <ele>757.59997558594</ele>
        <time>2020-07-05T05:44:30.000Z</time>
        <extensions>
          <gpxtpx:TrackPointExtension xmlns:gpxtpx="http://www.garmin.com/xmlschemas/TrackPointExtension/v1">
            <gpxtpx:hr>132</gpxtpx:hr>
          </gpxtpx:TrackPointExtension>
        </extensions>
      </trkpt>
      <trkpt lat="45.77204" lon="6.4111">
        <ele>757.79998779297</ele>
        <time>2020-07-05T05:44:31.000Z</time>
        <extensions>
          <gpxtpx:TrackPointExtension xmlns:gpxtpx="http://www.garmin.com/xmlschemas/TrackPointExtension/v1">
            <gpxtpx:hr>132</gpxtpx:hr>
          </gpxtpx:TrackPointExtension>
        </extensions>
      </trkpt>
      <trkpt lat="45.77217" lon="6.41103">
        <ele>758.79998779297</ele>
        <time>2020-07-05T05:44:36.000Z</time>
        <extensions>
          <gpxtpx:TrackPointExtension xmlns:gpxtpx="http://www.garmin.com/xmlschemas/TrackPointExtension/v1">
            <gpxtpx:hr>133</gpxtpx:hr>
          </gpxtpx:TrackPointExtension>
        </extensions>
      </trkpt>
      <trkpt lat="45.77222" lon="6.411">
        <ele>759.20001220703</ele>
        <time>2020-07-05T05:44:38.000Z</time>
        <extensions>
          <gpxtpx:TrackPointExtension xmlns:gpxtpx="http://www.garmin.com/xmlschemas/TrackPointExtension/v1">
            <gpxtpx:hr>132</gpxtpx:hr>
          </gpxtpx:TrackPointExtension>
        </extensions>
      </trkpt>
      <trkpt lat="45.77227" lon="6.41096">
        <ele>759.79998779297</ele>
        <time>2020-07-05T05:44:40.000Z</time>
        <extensions>
          <gpxtpx:TrackPointExtension xmlns:gpxtpx="http://www.garmin.com/xmlschemas/TrackPointExtension/v1">
            <gpxtpx:hr>132</gpxtpx:hr>
          </gpxtpx:TrackPointExtension>
        </extensions>
      </trkpt>
      <trkpt lat="45.77236" lon="6.4109">
        <ele>760.79998779297</ele>
        <time>2020-07-05T05:44:44.000Z</time>
        <extensions>
          <gpxtpx:TrackPointExtension xmlns:gpxtpx="http://www.garmin.com/xmlschemas/TrackPointExtension/v1">
            <gpxtpx:hr>132</gpxtpx:hr>
          </gpxtpx:TrackPointExtension>
        </extensions>
      </trkpt>
      <trkpt lat="45.77242" lon="6.41089">
        <ele>761.40002441406</ele>
        <time>2020-07-05T05:44:46.000Z</time>
        <extensions>
          <gpxtpx:TrackPointExtension xmlns:gpxtpx="http://www.garmin.com/xmlschemas/TrackPointExtension/v1">
            <gpxtpx:hr>132</gpxtpx:hr>
          </gpxtpx:TrackPointExtension>
        </extensions>
      </trkpt>
      <trkpt lat="45.77246" lon="6.41087">
        <ele>762</ele>
        <time>2020-07-05T05:44:48.000Z</time>
        <extensions>
          <gpxtpx:TrackPointExtension xmlns:gpxtpx="http://www.garmin.com/xmlschemas/TrackPointExtension/v1">
            <gpxtpx:hr>132</gpxtpx:hr>
          </gpxtpx:TrackPointExtension>
        </extensions>
      </trkpt>
      <trkpt lat="45.77253" lon="6.41085">
        <ele>763.59997558594</ele>
        <time>2020-07-05T05:44:51.000Z</time>
        <extensions>
          <gpxtpx:TrackPointExtension xmlns:gpxtpx="http://www.garmin.com/xmlschemas/TrackPointExtension/v1">
            <gpxtpx:hr>133</gpxtpx:hr>
          </gpxtpx:TrackPointExtension>
        </extensions>
      </trkpt>
      <trkpt lat="45.77256" lon="6.41084">
        <ele>764.20001220703</ele>
        <time>2020-07-05T05:44:52.000Z</time>
        <extensions>
          <gpxtpx:TrackPointExtension xmlns:gpxtpx="http://www.garmin.com/xmlschemas/TrackPointExtension/v1">
            <gpxtpx:hr>133</gpxtpx:hr>
          </gpxtpx:TrackPointExtension>
        </extensions>
      </trkpt>
      <trkpt lat="45.77259" lon="6.41083">
        <ele>764.79998779297</ele>
        <time>2020-07-05T05:44:54.000Z</time>
        <extensions>
          <gpxtpx:TrackPointExtension xmlns:gpxtpx="http://www.garmin.com/xmlschemas/TrackPointExtension/v1">
            <gpxtpx:hr>133</gpxtpx:hr>
          </gpxtpx:TrackPointExtension>
        </extensions>
      </trkpt>
      <trkpt lat="45.77269" lon="6.41087">
        <ele>766</ele>
        <time>2020-07-05T05:44:58.000Z</time>
        <extensions>
          <gpxtpx:TrackPointExtension xmlns:gpxtpx="http://www.garmin.com/xmlschemas/TrackPointExtension/v1">
            <gpxtpx:hr>134</gpxtpx:hr>
          </gpxtpx:TrackPointExtension>
        </extensions>
      </trkpt>
      <trkpt lat="45.77277" lon="6.41095">
        <ele>767.20001220703</ele>
        <time>2020-07-05T05:45:02.000Z</time>
        <extensions>
          <gpxtpx:TrackPointExtension xmlns:gpxtpx="http://www.garmin.com/xmlschemas/TrackPointExtension/v1">
            <gpxtpx:hr>135</gpxtpx:hr>
          </gpxtpx:TrackPointExtension>
        </extensions>
      </trkpt>
      <trkpt lat="45.7728" lon="6.41098">
        <ele>767.59997558594</ele>
        <time>2020-07-05T05:45:04.000Z</time>
        <extensions>
          <gpxtpx:TrackPointExtension xmlns:gpxtpx="http://www.garmin.com/xmlschemas/TrackPointExtension/v1">
            <gpxtpx:hr>135</gpxtpx:hr>
          </gpxtpx:TrackPointExtension>
        </extensions>
      </trkpt>
      <trkpt lat="45.77288" lon="6.41103">
        <ele>768.20001220703</ele>
        <time>2020-07-05T05:45:07.000Z</time>
        <extensions>
          <gpxtpx:TrackPointExtension xmlns:gpxtpx="http://www.garmin.com/xmlschemas/TrackPointExtension/v1">
            <gpxtpx:hr>136</gpxtpx:hr>
          </gpxtpx:TrackPointExtension>
        </extensions>
      </trkpt>
      <trkpt lat="45.77296" lon="6.41104">
        <ele>769.20001220703</ele>
        <time>2020-07-05T05:45:10.000Z</time>
        <extensions>
          <gpxtpx:TrackPointExtension xmlns:gpxtpx="http://www.garmin.com/xmlschemas/TrackPointExtension/v1">
            <gpxtpx:hr>137</gpxtpx:hr>
          </gpxtpx:TrackPointExtension>
        </extensions>
      </trkpt>
      <trkpt lat="45.77302" lon="6.41102">
        <ele>769.40002441406</ele>
        <time>2020-07-05T05:45:12.000Z</time>
        <extensions>
          <gpxtpx:TrackPointExtension xmlns:gpxtpx="http://www.garmin.com/xmlschemas/TrackPointExtension/v1">
            <gpxtpx:hr>137</gpxtpx:hr>
          </gpxtpx:TrackPointExtension>
        </extensions>
      </trkpt>
      <trkpt lat="45.77311" lon="6.41096">
        <ele>770</ele>
        <time>2020-07-05T05:45:16.000Z</time>
        <extensions>
          <gpxtpx:TrackPointExtension xmlns:gpxtpx="http://www.garmin.com/xmlschemas/TrackPointExtension/v1">
            <gpxtpx:hr>139</gpxtpx:hr>
          </gpxtpx:TrackPointExtension>
        </extensions>
      </trkpt>
      <trkpt lat="45.77313" lon="6.4109">
        <ele>770.59997558594</ele>
        <time>2020-07-05T05:45:18.000Z</time>
        <extensions>
          <gpxtpx:TrackPointExtension xmlns:gpxtpx="http://www.garmin.com/xmlschemas/TrackPointExtension/v1">
            <gpxtpx:hr>140</gpxtpx:hr>
          </gpxtpx:TrackPointExtension>
        </extensions>
      </trkpt>
      <trkpt lat="45.77316" lon="6.4108">
        <ele>771.59997558594</ele>
        <time>2020-07-05T05:45:21.000Z</time>
        <extensions>
          <gpxtpx:TrackPointExtension xmlns:gpxtpx="http://www.garmin.com/xmlschemas/TrackPointExtension/v1">
            <gpxtpx:hr>141</gpxtpx:hr>
          </gpxtpx:TrackPointExtension>
        </extensions>
      </trkpt>
      <trkpt lat="45.77319" lon="6.41077">
        <ele>771.79998779297</ele>
        <time>2020-07-05T05:45:22.000Z</time>
        <extensions>
          <gpxtpx:TrackPointExtension xmlns:gpxtpx="http://www.garmin.com/xmlschemas/TrackPointExtension/v1">
            <gpxtpx:hr>141</gpxtpx:hr>
          </gpxtpx:TrackPointExtension>
        </extensions>
      </trkpt>
      <trkpt lat="45.77322" lon="6.4106">
        <ele>772.59997558594</ele>
        <time>2020-07-05T05:45:26.000Z</time>
        <extensions>
          <gpxtpx:TrackPointExtension xmlns:gpxtpx="http://www.garmin.com/xmlschemas/TrackPointExtension/v1">
            <gpxtpx:hr>142</gpxtpx:hr>
          </gpxtpx:TrackPointExtension>
        </extensions>
      </trkpt>
      <trkpt lat="45.77322" lon="6.41056">
        <ele>772.79998779297</ele>
        <time>2020-07-05T05:45:27.000Z</time>
        <extensions>
          <gpxtpx:TrackPointExtension xmlns:gpxtpx="http://www.garmin.com/xmlschemas/TrackPointExtension/v1">
            <gpxtpx:hr>140</gpxtpx:hr>
          </gpxtpx:TrackPointExtension>
        </extensions>
      </trkpt>
      <trkpt lat="45.77322" lon="6.4104">
        <ele>773.79998779297</ele>
        <time>2020-07-05T05:45:31.000Z</time>
        <extensions>
          <gpxtpx:TrackPointExtension xmlns:gpxtpx="http://www.garmin.com/xmlschemas/TrackPointExtension/v1">
            <gpxtpx:hr>138</gpxtpx:hr>
          </gpxtpx:TrackPointExtension>
        </extensions>
      </trkpt>
      <trkpt lat="45.77322" lon="6.41036">
        <ele>774.20001220703</ele>
        <time>2020-07-05T05:45:32.000Z</time>
        <extensions>
          <gpxtpx:TrackPointExtension xmlns:gpxtpx="http://www.garmin.com/xmlschemas/TrackPointExtension/v1">
            <gpxtpx:hr>138</gpxtpx:hr>
          </gpxtpx:TrackPointExtension>
        </extensions>
      </trkpt>
      <trkpt lat="45.77321" lon="6.41029">
        <ele>775.20001220703</ele>
        <time>2020-07-05T05:45:34.000Z</time>
        <extensions>
          <gpxtpx:TrackPointExtension xmlns:gpxtpx="http://www.garmin.com/xmlschemas/TrackPointExtension/v1">
            <gpxtpx:hr>137</gpxtpx:hr>
          </gpxtpx:TrackPointExtension>
        </extensions>
      </trkpt>
      <trkpt lat="45.77321" lon="6.41014">
        <ele>776.20001220703</ele>
        <time>2020-07-05T05:45:38.000Z</time>
        <extensions>
          <gpxtpx:TrackPointExtension xmlns:gpxtpx="http://www.garmin.com/xmlschemas/TrackPointExtension/v1">
            <gpxtpx:hr>135</gpxtpx:hr>
          </gpxtpx:TrackPointExtension>
        </extensions>
      </trkpt>
      <trkpt lat="45.77322" lon="6.4101">
        <ele>776.40002441406</ele>
        <time>2020-07-05T05:45:39.000Z</time>
        <extensions>
          <gpxtpx:TrackPointExtension xmlns:gpxtpx="http://www.garmin.com/xmlschemas/TrackPointExtension/v1">
            <gpxtpx:hr>135</gpxtpx:hr>
          </gpxtpx:TrackPointExtension>
        </extensions>
      </trkpt>
      <trkpt lat="45.77323" lon="6.40994">
        <ele>777.59997558594</ele>
        <time>2020-07-05T05:45:43.000Z</time>
        <extensions>
          <gpxtpx:TrackPointExtension xmlns:gpxtpx="http://www.garmin.com/xmlschemas/TrackPointExtension/v1">
            <gpxtpx:hr>135</gpxtpx:hr>
          </gpxtpx:TrackPointExtension>
        </extensions>
      </trkpt>
      <trkpt lat="45.77323" lon="6.40991">
        <ele>777.79998779297</ele>
        <time>2020-07-05T05:45:44.000Z</time>
        <extensions>
          <gpxtpx:TrackPointExtension xmlns:gpxtpx="http://www.garmin.com/xmlschemas/TrackPointExtension/v1">
            <gpxtpx:hr>136</gpxtpx:hr>
          </gpxtpx:TrackPointExtension>
        </extensions>
      </trkpt>
      <trkpt lat="45.77321" lon="6.4098">
        <ele>778.59997558594</ele>
        <time>2020-07-05T05:45:47.000Z</time>
        <extensions>
          <gpxtpx:TrackPointExtension xmlns:gpxtpx="http://www.garmin.com/xmlschemas/TrackPointExtension/v1">
            <gpxtpx:hr>136</gpxtpx:hr>
          </gpxtpx:TrackPointExtension>
        </extensions>
      </trkpt>
      <trkpt lat="45.77319" lon="6.40973">
        <ele>779.20001220703</ele>
        <time>2020-07-05T05:45:49.000Z</time>
        <extensions>
          <gpxtpx:TrackPointExtension xmlns:gpxtpx="http://www.garmin.com/xmlschemas/TrackPointExtension/v1">
            <gpxtpx:hr>136</gpxtpx:hr>
          </gpxtpx:TrackPointExtension>
        </extensions>
      </trkpt>
      <trkpt lat="45.77317" lon="6.40966">
        <ele>779.79998779297</ele>
        <time>2020-07-05T05:45:51.000Z</time>
        <extensions>
          <gpxtpx:TrackPointExtension xmlns:gpxtpx="http://www.garmin.com/xmlschemas/TrackPointExtension/v1">
            <gpxtpx:hr>136</gpxtpx:hr>
          </gpxtpx:TrackPointExtension>
        </extensions>
      </trkpt>
      <trkpt lat="45.77314" lon="6.40953">
        <ele>781</ele>
        <time>2020-07-05T05:45:55.000Z</time>
        <extensions>
          <gpxtpx:TrackPointExtension xmlns:gpxtpx="http://www.garmin.com/xmlschemas/TrackPointExtension/v1">
            <gpxtpx:hr>136</gpxtpx:hr>
          </gpxtpx:TrackPointExtension>
        </extensions>
      </trkpt>
      <trkpt lat="45.77314" lon="6.4094">
        <ele>782.20001220703</ele>
        <time>2020-07-05T05:45:59.000Z</time>
        <extensions>
          <gpxtpx:TrackPointExtension xmlns:gpxtpx="http://www.garmin.com/xmlschemas/TrackPointExtension/v1">
            <gpxtpx:hr>135</gpxtpx:hr>
          </gpxtpx:TrackPointExtension>
        </extensions>
      </trkpt>
      <trkpt lat="45.77316" lon="6.40929">
        <ele>783</ele>
        <time>2020-07-05T05:46:02.000Z</time>
        <extensions>
          <gpxtpx:TrackPointExtension xmlns:gpxtpx="http://www.garmin.com/xmlschemas/TrackPointExtension/v1">
            <gpxtpx:hr>135</gpxtpx:hr>
          </gpxtpx:TrackPointExtension>
        </extensions>
      </trkpt>
      <trkpt lat="45.77318" lon="6.40922">
        <ele>783.40002441406</ele>
        <time>2020-07-05T05:46:04.000Z</time>
        <extensions>
          <gpxtpx:TrackPointExtension xmlns:gpxtpx="http://www.garmin.com/xmlschemas/TrackPointExtension/v1">
            <gpxtpx:hr>135</gpxtpx:hr>
          </gpxtpx:TrackPointExtension>
        </extensions>
      </trkpt>
      <trkpt lat="45.77324" lon="6.40903">
        <ele>784.20001220703</ele>
        <time>2020-07-05T05:46:09.000Z</time>
        <extensions>
          <gpxtpx:TrackPointExtension xmlns:gpxtpx="http://www.garmin.com/xmlschemas/TrackPointExtension/v1">
            <gpxtpx:hr>135</gpxtpx:hr>
          </gpxtpx:TrackPointExtension>
        </extensions>
      </trkpt>
      <trkpt lat="45.77326" lon="6.40899">
        <ele>784.40002441406</ele>
        <time>2020-07-05T05:46:10.000Z</time>
        <extensions>
          <gpxtpx:TrackPointExtension xmlns:gpxtpx="http://www.garmin.com/xmlschemas/TrackPointExtension/v1">
            <gpxtpx:hr>135</gpxtpx:hr>
          </gpxtpx:TrackPointExtension>
        </extensions>
      </trkpt>
      <trkpt lat="45.77331" lon="6.40878">
        <ele>785.40002441406</ele>
        <time>2020-07-05T05:46:15.000Z</time>
        <extensions>
          <gpxtpx:TrackPointExtension xmlns:gpxtpx="http://www.garmin.com/xmlschemas/TrackPointExtension/v1">
            <gpxtpx:hr>134</gpxtpx:hr>
          </gpxtpx:TrackPointExtension>
        </extensions>
      </trkpt>
      <trkpt lat="45.77333" lon="6.4087">
        <ele>785.79998779297</ele>
        <time>2020-07-05T05:46:17.000Z</time>
        <extensions>
          <gpxtpx:TrackPointExtension xmlns:gpxtpx="http://www.garmin.com/xmlschemas/TrackPointExtension/v1">
            <gpxtpx:hr>133</gpxtpx:hr>
          </gpxtpx:TrackPointExtension>
        </extensions>
      </trkpt>
      <trkpt lat="45.77335" lon="6.40862">
        <ele>786</ele>
        <time>2020-07-05T05:46:19.000Z</time>
        <extensions>
          <gpxtpx:TrackPointExtension xmlns:gpxtpx="http://www.garmin.com/xmlschemas/TrackPointExtension/v1">
            <gpxtpx:hr>133</gpxtpx:hr>
          </gpxtpx:TrackPointExtension>
        </extensions>
      </trkpt>
      <trkpt lat="45.77337" lon="6.40854">
        <ele>786.59997558594</ele>
        <time>2020-07-05T05:46:21.000Z</time>
        <extensions>
          <gpxtpx:TrackPointExtension xmlns:gpxtpx="http://www.garmin.com/xmlschemas/TrackPointExtension/v1">
            <gpxtpx:hr>133</gpxtpx:hr>
          </gpxtpx:TrackPointExtension>
        </extensions>
      </trkpt>
      <trkpt lat="45.7734" lon="6.4084">
        <ele>787.59997558594</ele>
        <time>2020-07-05T05:46:25.000Z</time>
        <extensions>
          <gpxtpx:TrackPointExtension xmlns:gpxtpx="http://www.garmin.com/xmlschemas/TrackPointExtension/v1">
            <gpxtpx:hr>133</gpxtpx:hr>
          </gpxtpx:TrackPointExtension>
        </extensions>
      </trkpt>
      <trkpt lat="45.7734" lon="6.40836">
        <ele>787.79998779297</ele>
        <time>2020-07-05T05:46:26.000Z</time>
        <extensions>
          <gpxtpx:TrackPointExtension xmlns:gpxtpx="http://www.garmin.com/xmlschemas/TrackPointExtension/v1">
            <gpxtpx:hr>133</gpxtpx:hr>
          </gpxtpx:TrackPointExtension>
        </extensions>
      </trkpt>
      <trkpt lat="45.77341" lon="6.40833">
        <ele>788.40002441406</ele>
        <time>2020-07-05T05:46:27.000Z</time>
        <extensions>
          <gpxtpx:TrackPointExtension xmlns:gpxtpx="http://www.garmin.com/xmlschemas/TrackPointExtension/v1">
            <gpxtpx:hr>133</gpxtpx:hr>
          </gpxtpx:TrackPointExtension>
        </extensions>
      </trkpt>
      <trkpt lat="45.77342" lon="6.4083">
        <ele>789</ele>
        <time>2020-07-05T05:46:28.000Z</time>
        <extensions>
          <gpxtpx:TrackPointExtension xmlns:gpxtpx="http://www.garmin.com/xmlschemas/TrackPointExtension/v1">
            <gpxtpx:hr>133</gpxtpx:hr>
          </gpxtpx:TrackPointExtension>
        </extensions>
      </trkpt>
      <trkpt lat="45.77343" lon="6.40825">
        <ele>790</ele>
        <time>2020-07-05T05:46:30.000Z</time>
        <extensions>
          <gpxtpx:TrackPointExtension xmlns:gpxtpx="http://www.garmin.com/xmlschemas/TrackPointExtension/v1">
            <gpxtpx:hr>134</gpxtpx:hr>
          </gpxtpx:TrackPointExtension>
        </extensions>
      </trkpt>
      <trkpt lat="45.77343" lon="6.40815">
        <ele>791.40002441406</ele>
        <time>2020-07-05T05:46:33.000Z</time>
        <extensions>
          <gpxtpx:TrackPointExtension xmlns:gpxtpx="http://www.garmin.com/xmlschemas/TrackPointExtension/v1">
            <gpxtpx:hr>134</gpxtpx:hr>
          </gpxtpx:TrackPointExtension>
        </extensions>
      </trkpt>
      <trkpt lat="45.77344" lon="6.40804">
        <ele>792.20001220703</ele>
        <time>2020-07-05T05:46:36.000Z</time>
        <extensions>
          <gpxtpx:TrackPointExtension xmlns:gpxtpx="http://www.garmin.com/xmlschemas/TrackPointExtension/v1">
            <gpxtpx:hr>135</gpxtpx:hr>
          </gpxtpx:TrackPointExtension>
        </extensions>
      </trkpt>
      <trkpt lat="45.77346" lon="6.40796">
        <ele>792.59997558594</ele>
        <time>2020-07-05T05:46:38.000Z</time>
        <extensions>
          <gpxtpx:TrackPointExtension xmlns:gpxtpx="http://www.garmin.com/xmlschemas/TrackPointExtension/v1">
            <gpxtpx:hr>134</gpxtpx:hr>
          </gpxtpx:TrackPointExtension>
        </extensions>
      </trkpt>
      <trkpt lat="45.77351" lon="6.40783">
        <ele>793.59997558594</ele>
        <time>2020-07-05T05:46:42.000Z</time>
        <extensions>
          <gpxtpx:TrackPointExtension xmlns:gpxtpx="http://www.garmin.com/xmlschemas/TrackPointExtension/v1">
            <gpxtpx:hr>134</gpxtpx:hr>
          </gpxtpx:TrackPointExtension>
        </extensions>
      </trkpt>
      <trkpt lat="45.77359" lon="6.40777">
        <ele>794.59997558594</ele>
        <time>2020-07-05T05:46:46.000Z</time>
        <extensions>
          <gpxtpx:TrackPointExtension xmlns:gpxtpx="http://www.garmin.com/xmlschemas/TrackPointExtension/v1">
            <gpxtpx:hr>135</gpxtpx:hr>
          </gpxtpx:TrackPointExtension>
        </extensions>
      </trkpt>
      <trkpt lat="45.77362" lon="6.40777">
        <ele>795</ele>
        <time>2020-07-05T05:46:47.000Z</time>
        <extensions>
          <gpxtpx:TrackPointExtension xmlns:gpxtpx="http://www.garmin.com/xmlschemas/TrackPointExtension/v1">
            <gpxtpx:hr>136</gpxtpx:hr>
          </gpxtpx:TrackPointExtension>
        </extensions>
      </trkpt>
      <trkpt lat="45.7737" lon="6.40772">
        <ele>795.59997558594</ele>
        <time>2020-07-05T05:46:50.000Z</time>
        <extensions>
          <gpxtpx:TrackPointExtension xmlns:gpxtpx="http://www.garmin.com/xmlschemas/TrackPointExtension/v1">
            <gpxtpx:hr>138</gpxtpx:hr>
          </gpxtpx:TrackPointExtension>
        </extensions>
      </trkpt>
      <trkpt lat="45.77378" lon="6.40765">
        <ele>796</ele>
        <time>2020-07-05T05:46:53.000Z</time>
        <extensions>
          <gpxtpx:TrackPointExtension xmlns:gpxtpx="http://www.garmin.com/xmlschemas/TrackPointExtension/v1">
            <gpxtpx:hr>140</gpxtpx:hr>
          </gpxtpx:TrackPointExtension>
        </extensions>
      </trkpt>
      <trkpt lat="45.7738" lon="6.40763">
        <ele>796.20001220703</ele>
        <time>2020-07-05T05:46:54.000Z</time>
        <extensions>
          <gpxtpx:TrackPointExtension xmlns:gpxtpx="http://www.garmin.com/xmlschemas/TrackPointExtension/v1">
            <gpxtpx:hr>143</gpxtpx:hr>
          </gpxtpx:TrackPointExtension>
        </extensions>
      </trkpt>
      <trkpt lat="45.77385" lon="6.40757">
        <ele>796.79998779297</ele>
        <time>2020-07-05T05:46:56.000Z</time>
        <extensions>
          <gpxtpx:TrackPointExtension xmlns:gpxtpx="http://www.garmin.com/xmlschemas/TrackPointExtension/v1">
            <gpxtpx:hr>140</gpxtpx:hr>
          </gpxtpx:TrackPointExtension>
        </extensions>
      </trkpt>
      <trkpt lat="45.77388" lon="6.40755">
        <ele>797</ele>
        <time>2020-07-05T05:46:57.000Z</time>
        <extensions>
          <gpxtpx:TrackPointExtension xmlns:gpxtpx="http://www.garmin.com/xmlschemas/TrackPointExtension/v1">
            <gpxtpx:hr>140</gpxtpx:hr>
          </gpxtpx:TrackPointExtension>
        </extensions>
      </trkpt>
      <trkpt lat="45.77395" lon="6.40745">
        <ele>797.79998779297</ele>
        <time>2020-07-05T05:47:01.000Z</time>
        <extensions>
          <gpxtpx:TrackPointExtension xmlns:gpxtpx="http://www.garmin.com/xmlschemas/TrackPointExtension/v1">
            <gpxtpx:hr>138</gpxtpx:hr>
          </gpxtpx:TrackPointExtension>
        </extensions>
      </trkpt>
      <trkpt lat="45.77397" lon="6.40743">
        <ele>798.20001220703</ele>
        <time>2020-07-05T05:47:02.000Z</time>
        <extensions>
          <gpxtpx:TrackPointExtension xmlns:gpxtpx="http://www.garmin.com/xmlschemas/TrackPointExtension/v1">
            <gpxtpx:hr>136</gpxtpx:hr>
          </gpxtpx:TrackPointExtension>
        </extensions>
      </trkpt>
      <trkpt lat="45.77404" lon="6.40739">
        <ele>799</ele>
        <time>2020-07-05T05:47:05.000Z</time>
        <extensions>
          <gpxtpx:TrackPointExtension xmlns:gpxtpx="http://www.garmin.com/xmlschemas/TrackPointExtension/v1">
            <gpxtpx:hr>140</gpxtpx:hr>
          </gpxtpx:TrackPointExtension>
        </extensions>
      </trkpt>
      <trkpt lat="45.77409" lon="6.40733">
        <ele>799.59997558594</ele>
        <time>2020-07-05T05:47:08.000Z</time>
        <extensions>
          <gpxtpx:TrackPointExtension xmlns:gpxtpx="http://www.garmin.com/xmlschemas/TrackPointExtension/v1">
            <gpxtpx:hr>140</gpxtpx:hr>
          </gpxtpx:TrackPointExtension>
        </extensions>
      </trkpt>
      <trkpt lat="45.77414" lon="6.4073">
        <ele>800</ele>
        <time>2020-07-05T05:47:10.000Z</time>
        <extensions>
          <gpxtpx:TrackPointExtension xmlns:gpxtpx="http://www.garmin.com/xmlschemas/TrackPointExtension/v1">
            <gpxtpx:hr>140</gpxtpx:hr>
          </gpxtpx:TrackPointExtension>
        </extensions>
      </trkpt>
      <trkpt lat="45.77419" lon="6.40725">
        <ele>800.59997558594</ele>
        <time>2020-07-05T05:47:12.000Z</time>
        <extensions>
          <gpxtpx:TrackPointExtension xmlns:gpxtpx="http://www.garmin.com/xmlschemas/TrackPointExtension/v1">
            <gpxtpx:hr>141</gpxtpx:hr>
          </gpxtpx:TrackPointExtension>
        </extensions>
      </trkpt>
      <trkpt lat="45.77421" lon="6.40724">
        <ele>800.79998779297</ele>
        <time>2020-07-05T05:47:13.000Z</time>
        <extensions>
          <gpxtpx:TrackPointExtension xmlns:gpxtpx="http://www.garmin.com/xmlschemas/TrackPointExtension/v1">
            <gpxtpx:hr>139</gpxtpx:hr>
          </gpxtpx:TrackPointExtension>
        </extensions>
      </trkpt>
      <trkpt lat="45.77425" lon="6.40721">
        <ele>801.20001220703</ele>
        <time>2020-07-05T05:47:15.000Z</time>
        <extensions>
          <gpxtpx:TrackPointExtension xmlns:gpxtpx="http://www.garmin.com/xmlschemas/TrackPointExtension/v1">
            <gpxtpx:hr>139</gpxtpx:hr>
          </gpxtpx:TrackPointExtension>
        </extensions>
      </trkpt>
      <trkpt lat="45.77435" lon="6.40719">
        <ele>802.20001220703</ele>
        <time>2020-07-05T05:47:19.000Z</time>
        <extensions>
          <gpxtpx:TrackPointExtension xmlns:gpxtpx="http://www.garmin.com/xmlschemas/TrackPointExtension/v1">
            <gpxtpx:hr>138</gpxtpx:hr>
          </gpxtpx:TrackPointExtension>
        </extensions>
      </trkpt>
      <trkpt lat="45.77438" lon="6.40718">
        <ele>802.59997558594</ele>
        <time>2020-07-05T05:47:20.000Z</time>
        <extensions>
          <gpxtpx:TrackPointExtension xmlns:gpxtpx="http://www.garmin.com/xmlschemas/TrackPointExtension/v1">
            <gpxtpx:hr>138</gpxtpx:hr>
          </gpxtpx:TrackPointExtension>
        </extensions>
      </trkpt>
      <trkpt lat="45.77444" lon="6.40715">
        <ele>803.40002441406</ele>
        <time>2020-07-05T05:47:23.000Z</time>
        <extensions>
          <gpxtpx:TrackPointExtension xmlns:gpxtpx="http://www.garmin.com/xmlschemas/TrackPointExtension/v1">
            <gpxtpx:hr>137</gpxtpx:hr>
          </gpxtpx:TrackPointExtension>
        </extensions>
      </trkpt>
      <trkpt lat="45.7745" lon="6.4071">
        <ele>804</ele>
        <time>2020-07-05T05:47:26.000Z</time>
        <extensions>
          <gpxtpx:TrackPointExtension xmlns:gpxtpx="http://www.garmin.com/xmlschemas/TrackPointExtension/v1">
            <gpxtpx:hr>136</gpxtpx:hr>
          </gpxtpx:TrackPointExtension>
        </extensions>
      </trkpt>
      <trkpt lat="45.77455" lon="6.40707">
        <ele>804.40002441406</ele>
        <time>2020-07-05T05:47:28.000Z</time>
        <extensions>
          <gpxtpx:TrackPointExtension xmlns:gpxtpx="http://www.garmin.com/xmlschemas/TrackPointExtension/v1">
            <gpxtpx:hr>136</gpxtpx:hr>
          </gpxtpx:TrackPointExtension>
        </extensions>
      </trkpt>
      <trkpt lat="45.77461" lon="6.40702">
        <ele>805.59997558594</ele>
        <time>2020-07-05T05:47:31.000Z</time>
        <extensions>
          <gpxtpx:TrackPointExtension xmlns:gpxtpx="http://www.garmin.com/xmlschemas/TrackPointExtension/v1">
            <gpxtpx:hr>135</gpxtpx:hr>
          </gpxtpx:TrackPointExtension>
        </extensions>
      </trkpt>
      <trkpt lat="45.77466" lon="6.40698">
        <ele>806</ele>
        <time>2020-07-05T05:47:33.000Z</time>
        <extensions>
          <gpxtpx:TrackPointExtension xmlns:gpxtpx="http://www.garmin.com/xmlschemas/TrackPointExtension/v1">
            <gpxtpx:hr>134</gpxtpx:hr>
          </gpxtpx:TrackPointExtension>
        </extensions>
      </trkpt>
      <trkpt lat="45.77475" lon="6.40691">
        <ele>806.59997558594</ele>
        <time>2020-07-05T05:47:37.000Z</time>
        <extensions>
          <gpxtpx:TrackPointExtension xmlns:gpxtpx="http://www.garmin.com/xmlschemas/TrackPointExtension/v1">
            <gpxtpx:hr>132</gpxtpx:hr>
          </gpxtpx:TrackPointExtension>
        </extensions>
      </trkpt>
      <trkpt lat="45.77479" lon="6.40685">
        <ele>807</ele>
        <time>2020-07-05T05:47:39.000Z</time>
        <extensions>
          <gpxtpx:TrackPointExtension xmlns:gpxtpx="http://www.garmin.com/xmlschemas/TrackPointExtension/v1">
            <gpxtpx:hr>131</gpxtpx:hr>
          </gpxtpx:TrackPointExtension>
        </extensions>
      </trkpt>
      <trkpt lat="45.77484" lon="6.40678">
        <ele>807.79998779297</ele>
        <time>2020-07-05T05:47:42.000Z</time>
        <extensions>
          <gpxtpx:TrackPointExtension xmlns:gpxtpx="http://www.garmin.com/xmlschemas/TrackPointExtension/v1">
            <gpxtpx:hr>131</gpxtpx:hr>
          </gpxtpx:TrackPointExtension>
        </extensions>
      </trkpt>
      <trkpt lat="45.7749" lon="6.40673">
        <ele>808.59997558594</ele>
        <time>2020-07-05T05:47:45.000Z</time>
        <extensions>
          <gpxtpx:TrackPointExtension xmlns:gpxtpx="http://www.garmin.com/xmlschemas/TrackPointExtension/v1">
            <gpxtpx:hr>131</gpxtpx:hr>
          </gpxtpx:TrackPointExtension>
        </extensions>
      </trkpt>
      <trkpt lat="45.77493" lon="6.40673">
        <ele>808.79998779297</ele>
        <time>2020-07-05T05:47:46.000Z</time>
        <extensions>
          <gpxtpx:TrackPointExtension xmlns:gpxtpx="http://www.garmin.com/xmlschemas/TrackPointExtension/v1">
            <gpxtpx:hr>131</gpxtpx:hr>
          </gpxtpx:TrackPointExtension>
        </extensions>
      </trkpt>
      <trkpt lat="45.77496" lon="6.40674">
        <ele>809.20001220703</ele>
        <time>2020-07-05T05:47:47.000Z</time>
        <extensions>
          <gpxtpx:TrackPointExtension xmlns:gpxtpx="http://www.garmin.com/xmlschemas/TrackPointExtension/v1">
            <gpxtpx:hr>131</gpxtpx:hr>
          </gpxtpx:TrackPointExtension>
        </extensions>
      </trkpt>
      <trkpt lat="45.77498" lon="6.40677">
        <ele>809.59997558594</ele>
        <time>2020-07-05T05:47:48.000Z</time>
        <extensions>
          <gpxtpx:TrackPointExtension xmlns:gpxtpx="http://www.garmin.com/xmlschemas/TrackPointExtension/v1">
            <gpxtpx:hr>131</gpxtpx:hr>
          </gpxtpx:TrackPointExtension>
        </extensions>
      </trkpt>
      <trkpt lat="45.775" lon="6.4068">
        <ele>809.79998779297</ele>
        <time>2020-07-05T05:47:49.000Z</time>
        <extensions>
          <gpxtpx:TrackPointExtension xmlns:gpxtpx="http://www.garmin.com/xmlschemas/TrackPointExtension/v1">
            <gpxtpx:hr>131</gpxtpx:hr>
          </gpxtpx:TrackPointExtension>
        </extensions>
      </trkpt>
      <trkpt lat="45.775" lon="6.40687">
        <ele>810.20001220703</ele>
        <time>2020-07-05T05:47:51.000Z</time>
        <extensions>
          <gpxtpx:TrackPointExtension xmlns:gpxtpx="http://www.garmin.com/xmlschemas/TrackPointExtension/v1">
            <gpxtpx:hr>131</gpxtpx:hr>
          </gpxtpx:TrackPointExtension>
        </extensions>
      </trkpt>
      <trkpt lat="45.77499" lon="6.40691">
        <ele>810.40002441406</ele>
        <time>2020-07-05T05:47:52.000Z</time>
        <extensions>
          <gpxtpx:TrackPointExtension xmlns:gpxtpx="http://www.garmin.com/xmlschemas/TrackPointExtension/v1">
            <gpxtpx:hr>131</gpxtpx:hr>
          </gpxtpx:TrackPointExtension>
        </extensions>
      </trkpt>
      <trkpt lat="45.77495" lon="6.40696">
        <ele>811</ele>
        <time>2020-07-05T05:47:54.000Z</time>
        <extensions>
          <gpxtpx:TrackPointExtension xmlns:gpxtpx="http://www.garmin.com/xmlschemas/TrackPointExtension/v1">
            <gpxtpx:hr>136</gpxtpx:hr>
          </gpxtpx:TrackPointExtension>
        </extensions>
      </trkpt>
      <trkpt lat="45.77493" lon="6.40699">
        <ele>811.40002441406</ele>
        <time>2020-07-05T05:47:55.000Z</time>
        <extensions>
          <gpxtpx:TrackPointExtension xmlns:gpxtpx="http://www.garmin.com/xmlschemas/TrackPointExtension/v1">
            <gpxtpx:hr>136</gpxtpx:hr>
          </gpxtpx:TrackPointExtension>
        </extensions>
      </trkpt>
      <trkpt lat="45.77491" lon="6.40702">
        <ele>811.59997558594</ele>
        <time>2020-07-05T05:47:56.000Z</time>
        <extensions>
          <gpxtpx:TrackPointExtension xmlns:gpxtpx="http://www.garmin.com/xmlschemas/TrackPointExtension/v1">
            <gpxtpx:hr>136</gpxtpx:hr>
          </gpxtpx:TrackPointExtension>
        </extensions>
      </trkpt>
      <trkpt lat="45.77489" lon="6.40704">
        <ele>811.79998779297</ele>
        <time>2020-07-05T05:47:57.000Z</time>
        <extensions>
          <gpxtpx:TrackPointExtension xmlns:gpxtpx="http://www.garmin.com/xmlschemas/TrackPointExtension/v1">
            <gpxtpx:hr>132</gpxtpx:hr>
          </gpxtpx:TrackPointExtension>
        </extensions>
      </trkpt>
      <trkpt lat="45.77482" lon="6.40713">
        <ele>812.79998779297</ele>
        <time>2020-07-05T05:48:01.000Z</time>
        <extensions>
          <gpxtpx:TrackPointExtension xmlns:gpxtpx="http://www.garmin.com/xmlschemas/TrackPointExtension/v1">
            <gpxtpx:hr>133</gpxtpx:hr>
          </gpxtpx:TrackPointExtension>
        </extensions>
      </trkpt>
      <trkpt lat="45.77477" lon="6.40721">
        <ele>813.40002441406</ele>
        <time>2020-07-05T05:48:04.000Z</time>
        <extensions>
          <gpxtpx:TrackPointExtension xmlns:gpxtpx="http://www.garmin.com/xmlschemas/TrackPointExtension/v1">
            <gpxtpx:hr>134</gpxtpx:hr>
          </gpxtpx:TrackPointExtension>
        </extensions>
      </trkpt>
      <trkpt lat="45.77473" lon="6.40724">
        <ele>813.79998779297</ele>
        <time>2020-07-05T05:48:06.000Z</time>
        <extensions>
          <gpxtpx:TrackPointExtension xmlns:gpxtpx="http://www.garmin.com/xmlschemas/TrackPointExtension/v1">
            <gpxtpx:hr>134</gpxtpx:hr>
          </gpxtpx:TrackPointExtension>
        </extensions>
      </trkpt>
      <trkpt lat="45.77472" lon="6.40726">
        <ele>814</ele>
        <time>2020-07-05T05:48:07.000Z</time>
        <extensions>
          <gpxtpx:TrackPointExtension xmlns:gpxtpx="http://www.garmin.com/xmlschemas/TrackPointExtension/v1">
            <gpxtpx:hr>135</gpxtpx:hr>
          </gpxtpx:TrackPointExtension>
        </extensions>
      </trkpt>
      <trkpt lat="45.77467" lon="6.40736">
        <ele>815</ele>
        <time>2020-07-05T05:48:11.000Z</time>
        <extensions>
          <gpxtpx:TrackPointExtension xmlns:gpxtpx="http://www.garmin.com/xmlschemas/TrackPointExtension/v1">
            <gpxtpx:hr>136</gpxtpx:hr>
          </gpxtpx:TrackPointExtension>
        </extensions>
      </trkpt>
      <trkpt lat="45.7746" lon="6.40747">
        <ele>816</ele>
        <time>2020-07-05T05:48:15.000Z</time>
        <extensions>
          <gpxtpx:TrackPointExtension xmlns:gpxtpx="http://www.garmin.com/xmlschemas/TrackPointExtension/v1">
            <gpxtpx:hr>135</gpxtpx:hr>
          </gpxtpx:TrackPointExtension>
        </extensions>
      </trkpt>
      <trkpt lat="45.77458" lon="6.40749">
        <ele>816</ele>
        <time>2020-07-05T05:48:16.000Z</time>
        <extensions>
          <gpxtpx:TrackPointExtension xmlns:gpxtpx="http://www.garmin.com/xmlschemas/TrackPointExtension/v1">
            <gpxtpx:hr>135</gpxtpx:hr>
          </gpxtpx:TrackPointExtension>
        </extensions>
      </trkpt>
      <trkpt lat="45.77457" lon="6.40751">
        <ele>816.20001220703</ele>
        <time>2020-07-05T05:48:17.000Z</time>
        <extensions>
          <gpxtpx:TrackPointExtension xmlns:gpxtpx="http://www.garmin.com/xmlschemas/TrackPointExtension/v1">
            <gpxtpx:hr>135</gpxtpx:hr>
          </gpxtpx:TrackPointExtension>
        </extensions>
      </trkpt>
      <trkpt lat="45.77449" lon="6.4076">
        <ele>816.79998779297</ele>
        <time>2020-07-05T05:48:20.000Z</time>
        <extensions>
          <gpxtpx:TrackPointExtension xmlns:gpxtpx="http://www.garmin.com/xmlschemas/TrackPointExtension/v1">
            <gpxtpx:hr>134</gpxtpx:hr>
          </gpxtpx:TrackPointExtension>
        </extensions>
      </trkpt>
      <trkpt lat="45.77446" lon="6.40769">
        <ele>817.20001220703</ele>
        <time>2020-07-05T05:48:22.000Z</time>
        <extensions>
          <gpxtpx:TrackPointExtension xmlns:gpxtpx="http://www.garmin.com/xmlschemas/TrackPointExtension/v1">
            <gpxtpx:hr>133</gpxtpx:hr>
          </gpxtpx:TrackPointExtension>
        </extensions>
      </trkpt>
      <trkpt lat="45.77444" lon="6.40779">
        <ele>817.59997558594</ele>
        <time>2020-07-05T05:48:24.000Z</time>
        <extensions>
          <gpxtpx:TrackPointExtension xmlns:gpxtpx="http://www.garmin.com/xmlschemas/TrackPointExtension/v1">
            <gpxtpx:hr>133</gpxtpx:hr>
          </gpxtpx:TrackPointExtension>
        </extensions>
      </trkpt>
      <trkpt lat="45.77445" lon="6.40784">
        <ele>818</ele>
        <time>2020-07-05T05:48:25.000Z</time>
        <extensions>
          <gpxtpx:TrackPointExtension xmlns:gpxtpx="http://www.garmin.com/xmlschemas/TrackPointExtension/v1">
            <gpxtpx:hr>133</gpxtpx:hr>
          </gpxtpx:TrackPointExtension>
        </extensions>
      </trkpt>
      <trkpt lat="45.77446" lon="6.4079">
        <ele>818.40002441406</ele>
        <time>2020-07-05T05:48:26.000Z</time>
        <extensions>
          <gpxtpx:TrackPointExtension xmlns:gpxtpx="http://www.garmin.com/xmlschemas/TrackPointExtension/v1">
            <gpxtpx:hr>133</gpxtpx:hr>
          </gpxtpx:TrackPointExtension>
        </extensions>
      </trkpt>
      <trkpt lat="45.7745" lon="6.40804">
        <ele>819.59997558594</ele>
        <time>2020-07-05T05:48:30.000Z</time>
        <extensions>
          <gpxtpx:TrackPointExtension xmlns:gpxtpx="http://www.garmin.com/xmlschemas/TrackPointExtension/v1">
            <gpxtpx:hr>133</gpxtpx:hr>
          </gpxtpx:TrackPointExtension>
        </extensions>
      </trkpt>
      <trkpt lat="45.77451" lon="6.40808">
        <ele>820</ele>
        <time>2020-07-05T05:48:31.000Z</time>
        <extensions>
          <gpxtpx:TrackPointExtension xmlns:gpxtpx="http://www.garmin.com/xmlschemas/TrackPointExtension/v1">
            <gpxtpx:hr>133</gpxtpx:hr>
          </gpxtpx:TrackPointExtension>
        </extensions>
      </trkpt>
      <trkpt lat="45.77452" lon="6.40812">
        <ele>820.40002441406</ele>
        <time>2020-07-05T05:48:32.000Z</time>
        <extensions>
          <gpxtpx:TrackPointExtension xmlns:gpxtpx="http://www.garmin.com/xmlschemas/TrackPointExtension/v1">
            <gpxtpx:hr>130</gpxtpx:hr>
          </gpxtpx:TrackPointExtension>
        </extensions>
      </trkpt>
      <trkpt lat="45.77455" lon="6.40819">
        <ele>820.79998779297</ele>
        <time>2020-07-05T05:48:34.000Z</time>
        <extensions>
          <gpxtpx:TrackPointExtension xmlns:gpxtpx="http://www.garmin.com/xmlschemas/TrackPointExtension/v1">
            <gpxtpx:hr>128</gpxtpx:hr>
          </gpxtpx:TrackPointExtension>
        </extensions>
      </trkpt>
      <trkpt lat="45.77456" lon="6.40827">
        <ele>821</ele>
        <time>2020-07-05T05:48:36.000Z</time>
        <extensions>
          <gpxtpx:TrackPointExtension xmlns:gpxtpx="http://www.garmin.com/xmlschemas/TrackPointExtension/v1">
            <gpxtpx:hr>125</gpxtpx:hr>
          </gpxtpx:TrackPointExtension>
        </extensions>
      </trkpt>
      <trkpt lat="45.77448" lon="6.40838">
        <ele>822</ele>
        <time>2020-07-05T05:48:39.000Z</time>
        <extensions>
          <gpxtpx:TrackPointExtension xmlns:gpxtpx="http://www.garmin.com/xmlschemas/TrackPointExtension/v1">
            <gpxtpx:hr>126</gpxtpx:hr>
          </gpxtpx:TrackPointExtension>
        </extensions>
      </trkpt>
      <trkpt lat="45.77443" lon="6.40847">
        <ele>822.79998779297</ele>
        <time>2020-07-05T05:48:42.000Z</time>
        <extensions>
          <gpxtpx:TrackPointExtension xmlns:gpxtpx="http://www.garmin.com/xmlschemas/TrackPointExtension/v1">
            <gpxtpx:hr>127</gpxtpx:hr>
          </gpxtpx:TrackPointExtension>
        </extensions>
      </trkpt>
      <trkpt lat="45.77442" lon="6.4085">
        <ele>823.20001220703</ele>
        <time>2020-07-05T05:48:43.000Z</time>
        <extensions>
          <gpxtpx:TrackPointExtension xmlns:gpxtpx="http://www.garmin.com/xmlschemas/TrackPointExtension/v1">
            <gpxtpx:hr>128</gpxtpx:hr>
          </gpxtpx:TrackPointExtension>
        </extensions>
      </trkpt>
      <trkpt lat="45.77442" lon="6.4086">
        <ele>823.79998779297</ele>
        <time>2020-07-05T05:48:46.000Z</time>
        <extensions>
          <gpxtpx:TrackPointExtension xmlns:gpxtpx="http://www.garmin.com/xmlschemas/TrackPointExtension/v1">
            <gpxtpx:hr>129</gpxtpx:hr>
          </gpxtpx:TrackPointExtension>
        </extensions>
      </trkpt>
      <trkpt lat="45.77444" lon="6.40863">
        <ele>823.79998779297</ele>
        <time>2020-07-05T05:48:47.000Z</time>
        <extensions>
          <gpxtpx:TrackPointExtension xmlns:gpxtpx="http://www.garmin.com/xmlschemas/TrackPointExtension/v1">
            <gpxtpx:hr>129</gpxtpx:hr>
          </gpxtpx:TrackPointExtension>
        </extensions>
      </trkpt>
      <trkpt lat="45.77446" lon="6.40864">
        <ele>824</ele>
        <time>2020-07-05T05:48:48.000Z</time>
        <extensions>
          <gpxtpx:TrackPointExtension xmlns:gpxtpx="http://www.garmin.com/xmlschemas/TrackPointExtension/v1">
            <gpxtpx:hr>129</gpxtpx:hr>
          </gpxtpx:TrackPointExtension>
        </extensions>
      </trkpt>
      <trkpt lat="45.77448" lon="6.40865">
        <ele>824.40002441406</ele>
        <time>2020-07-05T05:48:49.000Z</time>
        <extensions>
          <gpxtpx:TrackPointExtension xmlns:gpxtpx="http://www.garmin.com/xmlschemas/TrackPointExtension/v1">
            <gpxtpx:hr>130</gpxtpx:hr>
          </gpxtpx:TrackPointExtension>
        </extensions>
      </trkpt>
      <trkpt lat="45.77457" lon="6.40864">
        <ele>825.20001220703</ele>
        <time>2020-07-05T05:48:52.000Z</time>
        <extensions>
          <gpxtpx:TrackPointExtension xmlns:gpxtpx="http://www.garmin.com/xmlschemas/TrackPointExtension/v1">
            <gpxtpx:hr>130</gpxtpx:hr>
          </gpxtpx:TrackPointExtension>
        </extensions>
      </trkpt>
      <trkpt lat="45.7746" lon="6.40864">
        <ele>825.59997558594</ele>
        <time>2020-07-05T05:48:53.000Z</time>
        <extensions>
          <gpxtpx:TrackPointExtension xmlns:gpxtpx="http://www.garmin.com/xmlschemas/TrackPointExtension/v1">
            <gpxtpx:hr>130</gpxtpx:hr>
          </gpxtpx:TrackPointExtension>
        </extensions>
      </trkpt>
      <trkpt lat="45.77466" lon="6.40862">
        <ele>826.59997558594</ele>
        <time>2020-07-05T05:48:56.000Z</time>
        <extensions>
          <gpxtpx:TrackPointExtension xmlns:gpxtpx="http://www.garmin.com/xmlschemas/TrackPointExtension/v1">
            <gpxtpx:hr>131</gpxtpx:hr>
          </gpxtpx:TrackPointExtension>
        </extensions>
      </trkpt>
      <trkpt lat="45.77472" lon="6.40861">
        <ele>827</ele>
        <time>2020-07-05T05:48:58.000Z</time>
        <extensions>
          <gpxtpx:TrackPointExtension xmlns:gpxtpx="http://www.garmin.com/xmlschemas/TrackPointExtension/v1">
            <gpxtpx:hr>131</gpxtpx:hr>
          </gpxtpx:TrackPointExtension>
        </extensions>
      </trkpt>
      <trkpt lat="45.77483" lon="6.40857">
        <ele>827.79998779297</ele>
        <time>2020-07-05T05:49:02.000Z</time>
        <extensions>
          <gpxtpx:TrackPointExtension xmlns:gpxtpx="http://www.garmin.com/xmlschemas/TrackPointExtension/v1">
            <gpxtpx:hr>132</gpxtpx:hr>
          </gpxtpx:TrackPointExtension>
        </extensions>
      </trkpt>
      <trkpt lat="45.77488" lon="6.40852">
        <ele>828</ele>
        <time>2020-07-05T05:49:04.000Z</time>
        <extensions>
          <gpxtpx:TrackPointExtension xmlns:gpxtpx="http://www.garmin.com/xmlschemas/TrackPointExtension/v1">
            <gpxtpx:hr>132</gpxtpx:hr>
          </gpxtpx:TrackPointExtension>
        </extensions>
      </trkpt>
      <trkpt lat="45.77494" lon="6.40843">
        <ele>828.79998779297</ele>
        <time>2020-07-05T05:49:07.000Z</time>
        <extensions>
          <gpxtpx:TrackPointExtension xmlns:gpxtpx="http://www.garmin.com/xmlschemas/TrackPointExtension/v1">
            <gpxtpx:hr>131</gpxtpx:hr>
          </gpxtpx:TrackPointExtension>
        </extensions>
      </trkpt>
      <trkpt lat="45.77496" lon="6.4084">
        <ele>829</ele>
        <time>2020-07-05T05:49:08.000Z</time>
        <extensions>
          <gpxtpx:TrackPointExtension xmlns:gpxtpx="http://www.garmin.com/xmlschemas/TrackPointExtension/v1">
            <gpxtpx:hr>131</gpxtpx:hr>
          </gpxtpx:TrackPointExtension>
        </extensions>
      </trkpt>
      <trkpt lat="45.77501" lon="6.4083">
        <ele>830</ele>
        <time>2020-07-05T05:49:11.000Z</time>
        <extensions>
          <gpxtpx:TrackPointExtension xmlns:gpxtpx="http://www.garmin.com/xmlschemas/TrackPointExtension/v1">
            <gpxtpx:hr>130</gpxtpx:hr>
          </gpxtpx:TrackPointExtension>
        </extensions>
      </trkpt>
      <trkpt lat="45.77507" lon="6.4082">
        <ele>830.79998779297</ele>
        <time>2020-07-05T05:49:14.000Z</time>
        <extensions>
          <gpxtpx:TrackPointExtension xmlns:gpxtpx="http://www.garmin.com/xmlschemas/TrackPointExtension/v1">
            <gpxtpx:hr>131</gpxtpx:hr>
          </gpxtpx:TrackPointExtension>
        </extensions>
      </trkpt>
      <trkpt lat="45.77508" lon="6.40818">
        <ele>831</ele>
        <time>2020-07-05T05:49:15.000Z</time>
        <extensions>
          <gpxtpx:TrackPointExtension xmlns:gpxtpx="http://www.garmin.com/xmlschemas/TrackPointExtension/v1">
            <gpxtpx:hr>131</gpxtpx:hr>
          </gpxtpx:TrackPointExtension>
        </extensions>
      </trkpt>
      <trkpt lat="45.77517" lon="6.40811">
        <ele>832.40002441406</ele>
        <time>2020-07-05T05:49:19.000Z</time>
        <extensions>
          <gpxtpx:TrackPointExtension xmlns:gpxtpx="http://www.garmin.com/xmlschemas/TrackPointExtension/v1">
            <gpxtpx:hr>132</gpxtpx:hr>
          </gpxtpx:TrackPointExtension>
        </extensions>
      </trkpt>
      <trkpt lat="45.77519" lon="6.40809">
        <ele>832.79998779297</ele>
        <time>2020-07-05T05:49:20.000Z</time>
        <extensions>
          <gpxtpx:TrackPointExtension xmlns:gpxtpx="http://www.garmin.com/xmlschemas/TrackPointExtension/v1">
            <gpxtpx:hr>132</gpxtpx:hr>
          </gpxtpx:TrackPointExtension>
        </extensions>
      </trkpt>
      <trkpt lat="45.77524" lon="6.40807">
        <ele>833.40002441406</ele>
        <time>2020-07-05T05:49:22.000Z</time>
        <extensions>
          <gpxtpx:TrackPointExtension xmlns:gpxtpx="http://www.garmin.com/xmlschemas/TrackPointExtension/v1">
            <gpxtpx:hr>132</gpxtpx:hr>
          </gpxtpx:TrackPointExtension>
        </extensions>
      </trkpt>
      <trkpt lat="45.77534" lon="6.40803">
        <ele>834.59997558594</ele>
        <time>2020-07-05T05:49:26.000Z</time>
        <extensions>
          <gpxtpx:TrackPointExtension xmlns:gpxtpx="http://www.garmin.com/xmlschemas/TrackPointExtension/v1">
            <gpxtpx:hr>133</gpxtpx:hr>
          </gpxtpx:TrackPointExtension>
        </extensions>
      </trkpt>
      <trkpt lat="45.77544" lon="6.40799">
        <ele>835.40002441406</ele>
        <time>2020-07-05T05:49:30.000Z</time>
        <extensions>
          <gpxtpx:TrackPointExtension xmlns:gpxtpx="http://www.garmin.com/xmlschemas/TrackPointExtension/v1">
            <gpxtpx:hr>133</gpxtpx:hr>
          </gpxtpx:TrackPointExtension>
        </extensions>
      </trkpt>
      <trkpt lat="45.77546" lon="6.40797">
        <ele>835.59997558594</ele>
        <time>2020-07-05T05:49:31.000Z</time>
        <extensions>
          <gpxtpx:TrackPointExtension xmlns:gpxtpx="http://www.garmin.com/xmlschemas/TrackPointExtension/v1">
            <gpxtpx:hr>133</gpxtpx:hr>
          </gpxtpx:TrackPointExtension>
        </extensions>
      </trkpt>
      <trkpt lat="45.77548" lon="6.40794">
        <ele>835.79998779297</ele>
        <time>2020-07-05T05:49:32.000Z</time>
        <extensions>
          <gpxtpx:TrackPointExtension xmlns:gpxtpx="http://www.garmin.com/xmlschemas/TrackPointExtension/v1">
            <gpxtpx:hr>134</gpxtpx:hr>
          </gpxtpx:TrackPointExtension>
        </extensions>
      </trkpt>
      <trkpt lat="45.77556" lon="6.40781">
        <ele>836.79998779297</ele>
        <time>2020-07-05T05:49:37.000Z</time>
        <extensions>
          <gpxtpx:TrackPointExtension xmlns:gpxtpx="http://www.garmin.com/xmlschemas/TrackPointExtension/v1">
            <gpxtpx:hr>133</gpxtpx:hr>
          </gpxtpx:TrackPointExtension>
        </extensions>
      </trkpt>
      <trkpt lat="45.77557" lon="6.40777">
        <ele>837.20001220703</ele>
        <time>2020-07-05T05:49:38.000Z</time>
        <extensions>
          <gpxtpx:TrackPointExtension xmlns:gpxtpx="http://www.garmin.com/xmlschemas/TrackPointExtension/v1">
            <gpxtpx:hr>132</gpxtpx:hr>
          </gpxtpx:TrackPointExtension>
        </extensions>
      </trkpt>
      <trkpt lat="45.77561" lon="6.40761">
        <ele>838</ele>
        <time>2020-07-05T05:49:42.000Z</time>
        <extensions>
          <gpxtpx:TrackPointExtension xmlns:gpxtpx="http://www.garmin.com/xmlschemas/TrackPointExtension/v1">
            <gpxtpx:hr>131</gpxtpx:hr>
          </gpxtpx:TrackPointExtension>
        </extensions>
      </trkpt>
      <trkpt lat="45.77564" lon="6.40748">
        <ele>838.79998779297</ele>
        <time>2020-07-05T05:49:46.000Z</time>
        <extensions>
          <gpxtpx:TrackPointExtension xmlns:gpxtpx="http://www.garmin.com/xmlschemas/TrackPointExtension/v1">
            <gpxtpx:hr>131</gpxtpx:hr>
          </gpxtpx:TrackPointExtension>
        </extensions>
      </trkpt>
      <trkpt lat="45.77566" lon="6.40746">
        <ele>839</ele>
        <time>2020-07-05T05:49:47.000Z</time>
        <extensions>
          <gpxtpx:TrackPointExtension xmlns:gpxtpx="http://www.garmin.com/xmlschemas/TrackPointExtension/v1">
            <gpxtpx:hr>131</gpxtpx:hr>
          </gpxtpx:TrackPointExtension>
        </extensions>
      </trkpt>
      <trkpt lat="45.77573" lon="6.40744">
        <ele>840.20001220703</ele>
        <time>2020-07-05T05:49:50.000Z</time>
        <extensions>
          <gpxtpx:TrackPointExtension xmlns:gpxtpx="http://www.garmin.com/xmlschemas/TrackPointExtension/v1">
            <gpxtpx:hr>131</gpxtpx:hr>
          </gpxtpx:TrackPointExtension>
        </extensions>
      </trkpt>
      <trkpt lat="45.77575" lon="6.40747">
        <ele>840.59997558594</ele>
        <time>2020-07-05T05:49:51.000Z</time>
        <extensions>
          <gpxtpx:TrackPointExtension xmlns:gpxtpx="http://www.garmin.com/xmlschemas/TrackPointExtension/v1">
            <gpxtpx:hr>131</gpxtpx:hr>
          </gpxtpx:TrackPointExtension>
        </extensions>
      </trkpt>
      <trkpt lat="45.77577" lon="6.40753">
        <ele>841.20001220703</ele>
        <time>2020-07-05T05:49:53.000Z</time>
        <extensions>
          <gpxtpx:TrackPointExtension xmlns:gpxtpx="http://www.garmin.com/xmlschemas/TrackPointExtension/v1">
            <gpxtpx:hr>131</gpxtpx:hr>
          </gpxtpx:TrackPointExtension>
        </extensions>
      </trkpt>
      <trkpt lat="45.77578" lon="6.40757">
        <ele>841.40002441406</ele>
        <time>2020-07-05T05:49:54.000Z</time>
        <extensions>
          <gpxtpx:TrackPointExtension xmlns:gpxtpx="http://www.garmin.com/xmlschemas/TrackPointExtension/v1">
            <gpxtpx:hr>131</gpxtpx:hr>
          </gpxtpx:TrackPointExtension>
        </extensions>
      </trkpt>
      <trkpt lat="45.77576" lon="6.40765">
        <ele>842.40002441406</ele>
        <time>2020-07-05T05:49:57.000Z</time>
        <extensions>
          <gpxtpx:TrackPointExtension xmlns:gpxtpx="http://www.garmin.com/xmlschemas/TrackPointExtension/v1">
            <gpxtpx:hr>131</gpxtpx:hr>
          </gpxtpx:TrackPointExtension>
        </extensions>
      </trkpt>
      <trkpt lat="45.77575" lon="6.40769">
        <ele>842.59997558594</ele>
        <time>2020-07-05T05:49:58.000Z</time>
        <extensions>
          <gpxtpx:TrackPointExtension xmlns:gpxtpx="http://www.garmin.com/xmlschemas/TrackPointExtension/v1">
            <gpxtpx:hr>131</gpxtpx:hr>
          </gpxtpx:TrackPointExtension>
        </extensions>
      </trkpt>
      <trkpt lat="45.77574" lon="6.40783">
        <ele>843.59997558594</ele>
        <time>2020-07-05T05:50:02.000Z</time>
        <extensions>
          <gpxtpx:TrackPointExtension xmlns:gpxtpx="http://www.garmin.com/xmlschemas/TrackPointExtension/v1">
            <gpxtpx:hr>131</gpxtpx:hr>
          </gpxtpx:TrackPointExtension>
        </extensions>
      </trkpt>
      <trkpt lat="45.77574" lon="6.40786">
        <ele>843.59997558594</ele>
        <time>2020-07-05T05:50:03.000Z</time>
        <extensions>
          <gpxtpx:TrackPointExtension xmlns:gpxtpx="http://www.garmin.com/xmlschemas/TrackPointExtension/v1">
            <gpxtpx:hr>131</gpxtpx:hr>
          </gpxtpx:TrackPointExtension>
        </extensions>
      </trkpt>
      <trkpt lat="45.77578" lon="6.408">
        <ele>844.40002441406</ele>
        <time>2020-07-05T05:50:07.000Z</time>
        <extensions>
          <gpxtpx:TrackPointExtension xmlns:gpxtpx="http://www.garmin.com/xmlschemas/TrackPointExtension/v1">
            <gpxtpx:hr>131</gpxtpx:hr>
          </gpxtpx:TrackPointExtension>
        </extensions>
      </trkpt>
      <trkpt lat="45.77581" lon="6.40808">
        <ele>844.79998779297</ele>
        <time>2020-07-05T05:50:09.000Z</time>
        <extensions>
          <gpxtpx:TrackPointExtension xmlns:gpxtpx="http://www.garmin.com/xmlschemas/TrackPointExtension/v1">
            <gpxtpx:hr>131</gpxtpx:hr>
          </gpxtpx:TrackPointExtension>
        </extensions>
      </trkpt>
      <trkpt lat="45.77581" lon="6.40818">
        <ele>845.20001220703</ele>
        <time>2020-07-05T05:50:12.000Z</time>
        <extensions>
          <gpxtpx:TrackPointExtension xmlns:gpxtpx="http://www.garmin.com/xmlschemas/TrackPointExtension/v1">
            <gpxtpx:hr>131</gpxtpx:hr>
          </gpxtpx:TrackPointExtension>
        </extensions>
      </trkpt>
      <trkpt lat="45.77582" lon="6.40824">
        <ele>845.59997558594</ele>
        <time>2020-07-05T05:50:14.000Z</time>
        <extensions>
          <gpxtpx:TrackPointExtension xmlns:gpxtpx="http://www.garmin.com/xmlschemas/TrackPointExtension/v1">
            <gpxtpx:hr>131</gpxtpx:hr>
          </gpxtpx:TrackPointExtension>
        </extensions>
      </trkpt>
      <trkpt lat="45.77584" lon="6.40829">
        <ele>845.79998779297</ele>
        <time>2020-07-05T05:50:15.000Z</time>
        <extensions>
          <gpxtpx:TrackPointExtension xmlns:gpxtpx="http://www.garmin.com/xmlschemas/TrackPointExtension/v1">
            <gpxtpx:hr>131</gpxtpx:hr>
          </gpxtpx:TrackPointExtension>
        </extensions>
      </trkpt>
      <trkpt lat="45.77582" lon="6.40844">
        <ele>846.79998779297</ele>
        <time>2020-07-05T05:50:19.000Z</time>
        <extensions>
          <gpxtpx:TrackPointExtension xmlns:gpxtpx="http://www.garmin.com/xmlschemas/TrackPointExtension/v1">
            <gpxtpx:hr>131</gpxtpx:hr>
          </gpxtpx:TrackPointExtension>
        </extensions>
      </trkpt>
      <trkpt lat="45.77579" lon="6.40848">
        <ele>847</ele>
        <time>2020-07-05T05:50:20.000Z</time>
        <extensions>
          <gpxtpx:TrackPointExtension xmlns:gpxtpx="http://www.garmin.com/xmlschemas/TrackPointExtension/v1">
            <gpxtpx:hr>132</gpxtpx:hr>
          </gpxtpx:TrackPointExtension>
        </extensions>
      </trkpt>
      <trkpt lat="45.77573" lon="6.4086">
        <ele>847.59997558594</ele>
        <time>2020-07-05T05:50:23.000Z</time>
        <extensions>
          <gpxtpx:TrackPointExtension xmlns:gpxtpx="http://www.garmin.com/xmlschemas/TrackPointExtension/v1">
            <gpxtpx:hr>135</gpxtpx:hr>
          </gpxtpx:TrackPointExtension>
        </extensions>
      </trkpt>
      <trkpt lat="45.77571" lon="6.40866">
        <ele>848.20001220703</ele>
        <time>2020-07-05T05:50:25.000Z</time>
        <extensions>
          <gpxtpx:TrackPointExtension xmlns:gpxtpx="http://www.garmin.com/xmlschemas/TrackPointExtension/v1">
            <gpxtpx:hr>136</gpxtpx:hr>
          </gpxtpx:TrackPointExtension>
        </extensions>
      </trkpt>
      <trkpt lat="45.77561" lon="6.4088">
        <ele>849.59997558594</ele>
        <time>2020-07-05T05:50:30.000Z</time>
        <extensions>
          <gpxtpx:TrackPointExtension xmlns:gpxtpx="http://www.garmin.com/xmlschemas/TrackPointExtension/v1">
            <gpxtpx:hr>139</gpxtpx:hr>
          </gpxtpx:TrackPointExtension>
        </extensions>
      </trkpt>
      <trkpt lat="45.77554" lon="6.40886">
        <ele>850.59997558594</ele>
        <time>2020-07-05T05:50:34.000Z</time>
        <extensions>
          <gpxtpx:TrackPointExtension xmlns:gpxtpx="http://www.garmin.com/xmlschemas/TrackPointExtension/v1">
            <gpxtpx:hr>140</gpxtpx:hr>
          </gpxtpx:TrackPointExtension>
        </extensions>
      </trkpt>
      <trkpt lat="45.77553" lon="6.40889">
        <ele>850.79998779297</ele>
        <time>2020-07-05T05:50:35.000Z</time>
        <extensions>
          <gpxtpx:TrackPointExtension xmlns:gpxtpx="http://www.garmin.com/xmlschemas/TrackPointExtension/v1">
            <gpxtpx:hr>140</gpxtpx:hr>
          </gpxtpx:TrackPointExtension>
        </extensions>
      </trkpt>
      <trkpt lat="45.77549" lon="6.40899">
        <ele>851.79998779297</ele>
        <time>2020-07-05T05:50:38.000Z</time>
        <extensions>
          <gpxtpx:TrackPointExtension xmlns:gpxtpx="http://www.garmin.com/xmlschemas/TrackPointExtension/v1">
            <gpxtpx:hr>140</gpxtpx:hr>
          </gpxtpx:TrackPointExtension>
        </extensions>
      </trkpt>
      <trkpt lat="45.77547" lon="6.40917">
        <ele>852.79998779297</ele>
        <time>2020-07-05T05:50:42.000Z</time>
        <extensions>
          <gpxtpx:TrackPointExtension xmlns:gpxtpx="http://www.garmin.com/xmlschemas/TrackPointExtension/v1">
            <gpxtpx:hr>139</gpxtpx:hr>
          </gpxtpx:TrackPointExtension>
        </extensions>
      </trkpt>
      <trkpt lat="45.77546" lon="6.40919">
        <ele>853</ele>
        <time>2020-07-05T05:50:43.000Z</time>
        <extensions>
          <gpxtpx:TrackPointExtension xmlns:gpxtpx="http://www.garmin.com/xmlschemas/TrackPointExtension/v1">
            <gpxtpx:hr>139</gpxtpx:hr>
          </gpxtpx:TrackPointExtension>
        </extensions>
      </trkpt>
      <trkpt lat="45.77544" lon="6.4092">
        <ele>853.40002441406</ele>
        <time>2020-07-05T05:50:44.000Z</time>
        <extensions>
          <gpxtpx:TrackPointExtension xmlns:gpxtpx="http://www.garmin.com/xmlschemas/TrackPointExtension/v1">
            <gpxtpx:hr>139</gpxtpx:hr>
          </gpxtpx:TrackPointExtension>
        </extensions>
      </trkpt>
      <trkpt lat="45.77537" lon="6.40925">
        <ele>854</ele>
        <time>2020-07-05T05:50:46.000Z</time>
        <extensions>
          <gpxtpx:TrackPointExtension xmlns:gpxtpx="http://www.garmin.com/xmlschemas/TrackPointExtension/v1">
            <gpxtpx:hr>139</gpxtpx:hr>
          </gpxtpx:TrackPointExtension>
        </extensions>
      </trkpt>
      <trkpt lat="45.77532" lon="6.40933">
        <ele>854.79998779297</ele>
        <time>2020-07-05T05:50:49.000Z</time>
        <extensions>
          <gpxtpx:TrackPointExtension xmlns:gpxtpx="http://www.garmin.com/xmlschemas/TrackPointExtension/v1">
            <gpxtpx:hr>139</gpxtpx:hr>
          </gpxtpx:TrackPointExtension>
        </extensions>
      </trkpt>
      <trkpt lat="45.7753" lon="6.40936">
        <ele>855</ele>
        <time>2020-07-05T05:50:50.000Z</time>
        <extensions>
          <gpxtpx:TrackPointExtension xmlns:gpxtpx="http://www.garmin.com/xmlschemas/TrackPointExtension/v1">
            <gpxtpx:hr>138</gpxtpx:hr>
          </gpxtpx:TrackPointExtension>
        </extensions>
      </trkpt>
      <trkpt lat="45.77524" lon="6.40944">
        <ele>855.79998779297</ele>
        <time>2020-07-05T05:50:53.000Z</time>
        <extensions>
          <gpxtpx:TrackPointExtension xmlns:gpxtpx="http://www.garmin.com/xmlschemas/TrackPointExtension/v1">
            <gpxtpx:hr>135</gpxtpx:hr>
          </gpxtpx:TrackPointExtension>
        </extensions>
      </trkpt>
      <trkpt lat="45.7752" lon="6.40951">
        <ele>856.20001220703</ele>
        <time>2020-07-05T05:50:55.000Z</time>
        <extensions>
          <gpxtpx:TrackPointExtension xmlns:gpxtpx="http://www.garmin.com/xmlschemas/TrackPointExtension/v1">
            <gpxtpx:hr>134</gpxtpx:hr>
          </gpxtpx:TrackPointExtension>
        </extensions>
      </trkpt>
      <trkpt lat="45.77517" lon="6.4096">
        <ele>856.40002441406</ele>
        <time>2020-07-05T05:50:57.000Z</time>
        <extensions>
          <gpxtpx:TrackPointExtension xmlns:gpxtpx="http://www.garmin.com/xmlschemas/TrackPointExtension/v1">
            <gpxtpx:hr>132</gpxtpx:hr>
          </gpxtpx:TrackPointExtension>
        </extensions>
      </trkpt>
      <trkpt lat="45.77517" lon="6.40972">
        <ele>857</ele>
        <time>2020-07-05T05:51:00.000Z</time>
        <extensions>
          <gpxtpx:TrackPointExtension xmlns:gpxtpx="http://www.garmin.com/xmlschemas/TrackPointExtension/v1">
            <gpxtpx:hr>129</gpxtpx:hr>
          </gpxtpx:TrackPointExtension>
        </extensions>
      </trkpt>
      <trkpt lat="45.77518" lon="6.40976">
        <ele>857.20001220703</ele>
        <time>2020-07-05T05:51:01.000Z</time>
        <extensions>
          <gpxtpx:TrackPointExtension xmlns:gpxtpx="http://www.garmin.com/xmlschemas/TrackPointExtension/v1">
            <gpxtpx:hr>129</gpxtpx:hr>
          </gpxtpx:TrackPointExtension>
        </extensions>
      </trkpt>
      <trkpt lat="45.77519" lon="6.40978">
        <ele>857.40002441406</ele>
        <time>2020-07-05T05:51:02.000Z</time>
        <extensions>
          <gpxtpx:TrackPointExtension xmlns:gpxtpx="http://www.garmin.com/xmlschemas/TrackPointExtension/v1">
            <gpxtpx:hr>129</gpxtpx:hr>
          </gpxtpx:TrackPointExtension>
        </extensions>
      </trkpt>
      <trkpt lat="45.77522" lon="6.4098">
        <ele>857.59997558594</ele>
        <time>2020-07-05T05:51:03.000Z</time>
        <extensions>
          <gpxtpx:TrackPointExtension xmlns:gpxtpx="http://www.garmin.com/xmlschemas/TrackPointExtension/v1">
            <gpxtpx:hr>129</gpxtpx:hr>
          </gpxtpx:TrackPointExtension>
        </extensions>
      </trkpt>
      <trkpt lat="45.77524" lon="6.40981">
        <ele>858</ele>
        <time>2020-07-05T05:51:04.000Z</time>
        <extensions>
          <gpxtpx:TrackPointExtension xmlns:gpxtpx="http://www.garmin.com/xmlschemas/TrackPointExtension/v1">
            <gpxtpx:hr>129</gpxtpx:hr>
          </gpxtpx:TrackPointExtension>
        </extensions>
      </trkpt>
      <trkpt lat="45.77529" lon="6.40978">
        <ele>858.40002441406</ele>
        <time>2020-07-05T05:51:06.000Z</time>
        <extensions>
          <gpxtpx:TrackPointExtension xmlns:gpxtpx="http://www.garmin.com/xmlschemas/TrackPointExtension/v1">
            <gpxtpx:hr>129</gpxtpx:hr>
          </gpxtpx:TrackPointExtension>
        </extensions>
      </trkpt>
      <trkpt lat="45.7753" lon="6.40976">
        <ele>858.79998779297</ele>
        <time>2020-07-05T05:51:07.000Z</time>
        <extensions>
          <gpxtpx:TrackPointExtension xmlns:gpxtpx="http://www.garmin.com/xmlschemas/TrackPointExtension/v1">
            <gpxtpx:hr>129</gpxtpx:hr>
          </gpxtpx:TrackPointExtension>
        </extensions>
      </trkpt>
      <trkpt lat="45.77534" lon="6.40973">
        <ele>859.40002441406</ele>
        <time>2020-07-05T05:51:09.000Z</time>
        <extensions>
          <gpxtpx:TrackPointExtension xmlns:gpxtpx="http://www.garmin.com/xmlschemas/TrackPointExtension/v1">
            <gpxtpx:hr>129</gpxtpx:hr>
          </gpxtpx:TrackPointExtension>
        </extensions>
      </trkpt>
      <trkpt lat="45.77542" lon="6.40964">
        <ele>860.59997558594</ele>
        <time>2020-07-05T05:51:13.000Z</time>
        <extensions>
          <gpxtpx:TrackPointExtension xmlns:gpxtpx="http://www.garmin.com/xmlschemas/TrackPointExtension/v1">
            <gpxtpx:hr>129</gpxtpx:hr>
          </gpxtpx:TrackPointExtension>
        </extensions>
      </trkpt>
      <trkpt lat="45.77554" lon="6.40955">
        <ele>861.59997558594</ele>
        <time>2020-07-05T05:51:19.000Z</time>
        <extensions>
          <gpxtpx:TrackPointExtension xmlns:gpxtpx="http://www.garmin.com/xmlschemas/TrackPointExtension/v1">
            <gpxtpx:hr>130</gpxtpx:hr>
          </gpxtpx:TrackPointExtension>
        </extensions>
      </trkpt>
      <trkpt lat="45.77561" lon="6.4095">
        <ele>862.59997558594</ele>
        <time>2020-07-05T05:51:22.000Z</time>
        <extensions>
          <gpxtpx:TrackPointExtension xmlns:gpxtpx="http://www.garmin.com/xmlschemas/TrackPointExtension/v1">
            <gpxtpx:hr>130</gpxtpx:hr>
          </gpxtpx:TrackPointExtension>
        </extensions>
      </trkpt>
      <trkpt lat="45.77562" lon="6.40947">
        <ele>862.79998779297</ele>
        <time>2020-07-05T05:51:23.000Z</time>
        <extensions>
          <gpxtpx:TrackPointExtension xmlns:gpxtpx="http://www.garmin.com/xmlschemas/TrackPointExtension/v1">
            <gpxtpx:hr>129</gpxtpx:hr>
          </gpxtpx:TrackPointExtension>
        </extensions>
      </trkpt>
      <trkpt lat="45.77563" lon="6.40945">
        <ele>863</ele>
        <time>2020-07-05T05:51:24.000Z</time>
        <extensions>
          <gpxtpx:TrackPointExtension xmlns:gpxtpx="http://www.garmin.com/xmlschemas/TrackPointExtension/v1">
            <gpxtpx:hr>130</gpxtpx:hr>
          </gpxtpx:TrackPointExtension>
        </extensions>
      </trkpt>
      <trkpt lat="45.77563" lon="6.40941">
        <ele>863.40002441406</ele>
        <time>2020-07-05T05:51:25.000Z</time>
        <extensions>
          <gpxtpx:TrackPointExtension xmlns:gpxtpx="http://www.garmin.com/xmlschemas/TrackPointExtension/v1">
            <gpxtpx:hr>130</gpxtpx:hr>
          </gpxtpx:TrackPointExtension>
        </extensions>
      </trkpt>
      <trkpt lat="45.77564" lon="6.40935">
        <ele>864</ele>
        <time>2020-07-05T05:51:27.000Z</time>
        <extensions>
          <gpxtpx:TrackPointExtension xmlns:gpxtpx="http://www.garmin.com/xmlschemas/TrackPointExtension/v1">
            <gpxtpx:hr>130</gpxtpx:hr>
          </gpxtpx:TrackPointExtension>
        </extensions>
      </trkpt>
      <trkpt lat="45.77567" lon="6.40928">
        <ele>864.40002441406</ele>
        <time>2020-07-05T05:51:29.000Z</time>
        <extensions>
          <gpxtpx:TrackPointExtension xmlns:gpxtpx="http://www.garmin.com/xmlschemas/TrackPointExtension/v1">
            <gpxtpx:hr>130</gpxtpx:hr>
          </gpxtpx:TrackPointExtension>
        </extensions>
      </trkpt>
      <trkpt lat="45.77572" lon="6.40912">
        <ele>865.20001220703</ele>
        <time>2020-07-05T05:51:33.000Z</time>
        <extensions>
          <gpxtpx:TrackPointExtension xmlns:gpxtpx="http://www.garmin.com/xmlschemas/TrackPointExtension/v1">
            <gpxtpx:hr>130</gpxtpx:hr>
          </gpxtpx:TrackPointExtension>
        </extensions>
      </trkpt>
      <trkpt lat="45.77576" lon="6.40909">
        <ele>865.79998779297</ele>
        <time>2020-07-05T05:51:35.000Z</time>
        <extensions>
          <gpxtpx:TrackPointExtension xmlns:gpxtpx="http://www.garmin.com/xmlschemas/TrackPointExtension/v1">
            <gpxtpx:hr>131</gpxtpx:hr>
          </gpxtpx:TrackPointExtension>
        </extensions>
      </trkpt>
      <trkpt lat="45.77583" lon="6.40909">
        <ele>866.40002441406</ele>
        <time>2020-07-05T05:51:37.000Z</time>
        <extensions>
          <gpxtpx:TrackPointExtension xmlns:gpxtpx="http://www.garmin.com/xmlschemas/TrackPointExtension/v1">
            <gpxtpx:hr>130</gpxtpx:hr>
          </gpxtpx:TrackPointExtension>
        </extensions>
      </trkpt>
      <trkpt lat="45.77591" lon="6.40911">
        <ele>867.20001220703</ele>
        <time>2020-07-05T05:51:40.000Z</time>
        <extensions>
          <gpxtpx:TrackPointExtension xmlns:gpxtpx="http://www.garmin.com/xmlschemas/TrackPointExtension/v1">
            <gpxtpx:hr>130</gpxtpx:hr>
          </gpxtpx:TrackPointExtension>
        </extensions>
      </trkpt>
      <trkpt lat="45.77594" lon="6.40912">
        <ele>867.40002441406</ele>
        <time>2020-07-05T05:51:41.000Z</time>
        <extensions>
          <gpxtpx:TrackPointExtension xmlns:gpxtpx="http://www.garmin.com/xmlschemas/TrackPointExtension/v1">
            <gpxtpx:hr>130</gpxtpx:hr>
          </gpxtpx:TrackPointExtension>
        </extensions>
      </trkpt>
      <trkpt lat="45.77606" lon="6.40918">
        <ele>868.40002441406</ele>
        <time>2020-07-05T05:51:46.000Z</time>
        <extensions>
          <gpxtpx:TrackPointExtension xmlns:gpxtpx="http://www.garmin.com/xmlschemas/TrackPointExtension/v1">
            <gpxtpx:hr>131</gpxtpx:hr>
          </gpxtpx:TrackPointExtension>
        </extensions>
      </trkpt>
      <trkpt lat="45.77615" lon="6.40921">
        <ele>869.59997558594</ele>
        <time>2020-07-05T05:51:50.000Z</time>
        <extensions>
          <gpxtpx:TrackPointExtension xmlns:gpxtpx="http://www.garmin.com/xmlschemas/TrackPointExtension/v1">
            <gpxtpx:hr>130</gpxtpx:hr>
          </gpxtpx:TrackPointExtension>
        </extensions>
      </trkpt>
      <trkpt lat="45.7762" lon="6.40919">
        <ele>870.40002441406</ele>
        <time>2020-07-05T05:51:52.000Z</time>
        <extensions>
          <gpxtpx:TrackPointExtension xmlns:gpxtpx="http://www.garmin.com/xmlschemas/TrackPointExtension/v1">
            <gpxtpx:hr>129</gpxtpx:hr>
          </gpxtpx:TrackPointExtension>
        </extensions>
      </trkpt>
      <trkpt lat="45.77622" lon="6.40918">
        <ele>870.79998779297</ele>
        <time>2020-07-05T05:51:53.000Z</time>
        <extensions>
          <gpxtpx:TrackPointExtension xmlns:gpxtpx="http://www.garmin.com/xmlschemas/TrackPointExtension/v1">
            <gpxtpx:hr>129</gpxtpx:hr>
          </gpxtpx:TrackPointExtension>
        </extensions>
      </trkpt>
      <trkpt lat="45.7763" lon="6.40913">
        <ele>871.79998779297</ele>
        <time>2020-07-05T05:51:57.000Z</time>
        <extensions>
          <gpxtpx:TrackPointExtension xmlns:gpxtpx="http://www.garmin.com/xmlschemas/TrackPointExtension/v1">
            <gpxtpx:hr>130</gpxtpx:hr>
          </gpxtpx:TrackPointExtension>
        </extensions>
      </trkpt>
      <trkpt lat="45.77634" lon="6.40908">
        <ele>872.40002441406</ele>
        <time>2020-07-05T05:51:59.000Z</time>
        <extensions>
          <gpxtpx:TrackPointExtension xmlns:gpxtpx="http://www.garmin.com/xmlschemas/TrackPointExtension/v1">
            <gpxtpx:hr>131</gpxtpx:hr>
          </gpxtpx:TrackPointExtension>
        </extensions>
      </trkpt>
      <trkpt lat="45.77637" lon="6.40903">
        <ele>873</ele>
        <time>2020-07-05T05:52:01.000Z</time>
        <extensions>
          <gpxtpx:TrackPointExtension xmlns:gpxtpx="http://www.garmin.com/xmlschemas/TrackPointExtension/v1">
            <gpxtpx:hr>131</gpxtpx:hr>
          </gpxtpx:TrackPointExtension>
        </extensions>
      </trkpt>
      <trkpt lat="45.77641" lon="6.40894">
        <ele>874.40002441406</ele>
        <time>2020-07-05T05:52:04.000Z</time>
        <extensions>
          <gpxtpx:TrackPointExtension xmlns:gpxtpx="http://www.garmin.com/xmlschemas/TrackPointExtension/v1">
            <gpxtpx:hr>133</gpxtpx:hr>
          </gpxtpx:TrackPointExtension>
        </extensions>
      </trkpt>
      <trkpt lat="45.77642" lon="6.40887">
        <ele>875.20001220703</ele>
        <time>2020-07-05T05:52:06.000Z</time>
        <extensions>
          <gpxtpx:TrackPointExtension xmlns:gpxtpx="http://www.garmin.com/xmlschemas/TrackPointExtension/v1">
            <gpxtpx:hr>133</gpxtpx:hr>
          </gpxtpx:TrackPointExtension>
        </extensions>
      </trkpt>
      <trkpt lat="45.77643" lon="6.40884">
        <ele>875.40002441406</ele>
        <time>2020-07-05T05:52:07.000Z</time>
        <extensions>
          <gpxtpx:TrackPointExtension xmlns:gpxtpx="http://www.garmin.com/xmlschemas/TrackPointExtension/v1">
            <gpxtpx:hr>133</gpxtpx:hr>
          </gpxtpx:TrackPointExtension>
        </extensions>
      </trkpt>
      <trkpt lat="45.77647" lon="6.40871">
        <ele>876.59997558594</ele>
        <time>2020-07-05T05:52:11.000Z</time>
        <extensions>
          <gpxtpx:TrackPointExtension xmlns:gpxtpx="http://www.garmin.com/xmlschemas/TrackPointExtension/v1">
            <gpxtpx:hr>133</gpxtpx:hr>
          </gpxtpx:TrackPointExtension>
        </extensions>
      </trkpt>
      <trkpt lat="45.77649" lon="6.40861">
        <ele>877.59997558594</ele>
        <time>2020-07-05T05:52:14.000Z</time>
        <extensions>
          <gpxtpx:TrackPointExtension xmlns:gpxtpx="http://www.garmin.com/xmlschemas/TrackPointExtension/v1">
            <gpxtpx:hr>134</gpxtpx:hr>
          </gpxtpx:TrackPointExtension>
        </extensions>
      </trkpt>
      <trkpt lat="45.7765" lon="6.40858">
        <ele>877.79998779297</ele>
        <time>2020-07-05T05:52:15.000Z</time>
        <extensions>
          <gpxtpx:TrackPointExtension xmlns:gpxtpx="http://www.garmin.com/xmlschemas/TrackPointExtension/v1">
            <gpxtpx:hr>134</gpxtpx:hr>
          </gpxtpx:TrackPointExtension>
        </extensions>
      </trkpt>
      <trkpt lat="45.77655" lon="6.40845">
        <ele>879</ele>
        <time>2020-07-05T05:52:19.000Z</time>
        <extensions>
          <gpxtpx:TrackPointExtension xmlns:gpxtpx="http://www.garmin.com/xmlschemas/TrackPointExtension/v1">
            <gpxtpx:hr>134</gpxtpx:hr>
          </gpxtpx:TrackPointExtension>
        </extensions>
      </trkpt>
      <trkpt lat="45.77658" lon="6.40843">
        <ele>879</ele>
        <time>2020-07-05T05:52:20.000Z</time>
        <extensions>
          <gpxtpx:TrackPointExtension xmlns:gpxtpx="http://www.garmin.com/xmlschemas/TrackPointExtension/v1">
            <gpxtpx:hr>134</gpxtpx:hr>
          </gpxtpx:TrackPointExtension>
        </extensions>
      </trkpt>
      <trkpt lat="45.77664" lon="6.40844">
        <ele>879.40002441406</ele>
        <time>2020-07-05T05:52:22.000Z</time>
        <extensions>
          <gpxtpx:TrackPointExtension xmlns:gpxtpx="http://www.garmin.com/xmlschemas/TrackPointExtension/v1">
            <gpxtpx:hr>134</gpxtpx:hr>
          </gpxtpx:TrackPointExtension>
        </extensions>
      </trkpt>
      <trkpt lat="45.77665" lon="6.40848">
        <ele>879.59997558594</ele>
        <time>2020-07-05T05:52:23.000Z</time>
        <extensions>
          <gpxtpx:TrackPointExtension xmlns:gpxtpx="http://www.garmin.com/xmlschemas/TrackPointExtension/v1">
            <gpxtpx:hr>134</gpxtpx:hr>
          </gpxtpx:TrackPointExtension>
        </extensions>
      </trkpt>
      <trkpt lat="45.77667" lon="6.4086">
        <ele>880</ele>
        <time>2020-07-05T05:52:26.000Z</time>
        <extensions>
          <gpxtpx:TrackPointExtension xmlns:gpxtpx="http://www.garmin.com/xmlschemas/TrackPointExtension/v1">
            <gpxtpx:hr>134</gpxtpx:hr>
          </gpxtpx:TrackPointExtension>
        </extensions>
      </trkpt>
      <trkpt lat="45.77667" lon="6.40868">
        <ele>880.40002441406</ele>
        <time>2020-07-05T05:52:28.000Z</time>
        <extensions>
          <gpxtpx:TrackPointExtension xmlns:gpxtpx="http://www.garmin.com/xmlschemas/TrackPointExtension/v1">
            <gpxtpx:hr>134</gpxtpx:hr>
          </gpxtpx:TrackPointExtension>
        </extensions>
      </trkpt>
      <trkpt lat="45.77665" lon="6.40879">
        <ele>881.20001220703</ele>
        <time>2020-07-05T05:52:31.000Z</time>
        <extensions>
          <gpxtpx:TrackPointExtension xmlns:gpxtpx="http://www.garmin.com/xmlschemas/TrackPointExtension/v1">
            <gpxtpx:hr>134</gpxtpx:hr>
          </gpxtpx:TrackPointExtension>
        </extensions>
      </trkpt>
      <trkpt lat="45.77665" lon="6.40883">
        <ele>881.40002441406</ele>
        <time>2020-07-05T05:52:32.000Z</time>
        <extensions>
          <gpxtpx:TrackPointExtension xmlns:gpxtpx="http://www.garmin.com/xmlschemas/TrackPointExtension/v1">
            <gpxtpx:hr>134</gpxtpx:hr>
          </gpxtpx:TrackPointExtension>
        </extensions>
      </trkpt>
      <trkpt lat="45.77665" lon="6.40899">
        <ele>882.20001220703</ele>
        <time>2020-07-05T05:52:36.000Z</time>
        <extensions>
          <gpxtpx:TrackPointExtension xmlns:gpxtpx="http://www.garmin.com/xmlschemas/TrackPointExtension/v1">
            <gpxtpx:hr>135</gpxtpx:hr>
          </gpxtpx:TrackPointExtension>
        </extensions>
      </trkpt>
      <trkpt lat="45.77664" lon="6.4091">
        <ele>883</ele>
        <time>2020-07-05T05:52:39.000Z</time>
        <extensions>
          <gpxtpx:TrackPointExtension xmlns:gpxtpx="http://www.garmin.com/xmlschemas/TrackPointExtension/v1">
            <gpxtpx:hr>135</gpxtpx:hr>
          </gpxtpx:TrackPointExtension>
        </extensions>
      </trkpt>
      <trkpt lat="45.77665" lon="6.4092">
        <ele>883.40002441406</ele>
        <time>2020-07-05T05:52:42.000Z</time>
        <extensions>
          <gpxtpx:TrackPointExtension xmlns:gpxtpx="http://www.garmin.com/xmlschemas/TrackPointExtension/v1">
            <gpxtpx:hr>136</gpxtpx:hr>
          </gpxtpx:TrackPointExtension>
        </extensions>
      </trkpt>
      <trkpt lat="45.77666" lon="6.40938">
        <ele>884.40002441406</ele>
        <time>2020-07-05T05:52:47.000Z</time>
        <extensions>
          <gpxtpx:TrackPointExtension xmlns:gpxtpx="http://www.garmin.com/xmlschemas/TrackPointExtension/v1">
            <gpxtpx:hr>135</gpxtpx:hr>
          </gpxtpx:TrackPointExtension>
        </extensions>
      </trkpt>
      <trkpt lat="45.77666" lon="6.40942">
        <ele>884.59997558594</ele>
        <time>2020-07-05T05:52:48.000Z</time>
        <extensions>
          <gpxtpx:TrackPointExtension xmlns:gpxtpx="http://www.garmin.com/xmlschemas/TrackPointExtension/v1">
            <gpxtpx:hr>134</gpxtpx:hr>
          </gpxtpx:TrackPointExtension>
        </extensions>
      </trkpt>
      <trkpt lat="45.77666" lon="6.40949">
        <ele>885</ele>
        <time>2020-07-05T05:52:50.000Z</time>
        <extensions>
          <gpxtpx:TrackPointExtension xmlns:gpxtpx="http://www.garmin.com/xmlschemas/TrackPointExtension/v1">
            <gpxtpx:hr>137</gpxtpx:hr>
          </gpxtpx:TrackPointExtension>
        </extensions>
      </trkpt>
      <trkpt lat="45.77665" lon="6.4096">
        <ele>885.59997558594</ele>
        <time>2020-07-05T05:52:53.000Z</time>
        <extensions>
          <gpxtpx:TrackPointExtension xmlns:gpxtpx="http://www.garmin.com/xmlschemas/TrackPointExtension/v1">
            <gpxtpx:hr>136</gpxtpx:hr>
          </gpxtpx:TrackPointExtension>
        </extensions>
      </trkpt>
      <trkpt lat="45.77663" lon="6.40971">
        <ele>886.40002441406</ele>
        <time>2020-07-05T05:52:56.000Z</time>
        <extensions>
          <gpxtpx:TrackPointExtension xmlns:gpxtpx="http://www.garmin.com/xmlschemas/TrackPointExtension/v1">
            <gpxtpx:hr>133</gpxtpx:hr>
          </gpxtpx:TrackPointExtension>
        </extensions>
      </trkpt>
      <trkpt lat="45.77662" lon="6.40974">
        <ele>886.79998779297</ele>
        <time>2020-07-05T05:52:57.000Z</time>
        <extensions>
          <gpxtpx:TrackPointExtension xmlns:gpxtpx="http://www.garmin.com/xmlschemas/TrackPointExtension/v1">
            <gpxtpx:hr>133</gpxtpx:hr>
          </gpxtpx:TrackPointExtension>
        </extensions>
      </trkpt>
      <trkpt lat="45.77657" lon="6.40993">
        <ele>887.79998779297</ele>
        <time>2020-07-05T05:53:02.000Z</time>
        <extensions>
          <gpxtpx:TrackPointExtension xmlns:gpxtpx="http://www.garmin.com/xmlschemas/TrackPointExtension/v1">
            <gpxtpx:hr>133</gpxtpx:hr>
          </gpxtpx:TrackPointExtension>
        </extensions>
      </trkpt>
      <trkpt lat="45.77654" lon="6.41003">
        <ele>888.59997558594</ele>
        <time>2020-07-05T05:53:05.000Z</time>
        <extensions>
          <gpxtpx:TrackPointExtension xmlns:gpxtpx="http://www.garmin.com/xmlschemas/TrackPointExtension/v1">
            <gpxtpx:hr>133</gpxtpx:hr>
          </gpxtpx:TrackPointExtension>
        </extensions>
      </trkpt>
      <trkpt lat="45.77652" lon="6.4101">
        <ele>889.20001220703</ele>
        <time>2020-07-05T05:53:07.000Z</time>
        <extensions>
          <gpxtpx:TrackPointExtension xmlns:gpxtpx="http://www.garmin.com/xmlschemas/TrackPointExtension/v1">
            <gpxtpx:hr>133</gpxtpx:hr>
          </gpxtpx:TrackPointExtension>
        </extensions>
      </trkpt>
      <trkpt lat="45.77649" lon="6.41023">
        <ele>890.40002441406</ele>
        <time>2020-07-05T05:53:11.000Z</time>
        <extensions>
          <gpxtpx:TrackPointExtension xmlns:gpxtpx="http://www.garmin.com/xmlschemas/TrackPointExtension/v1">
            <gpxtpx:hr>133</gpxtpx:hr>
          </gpxtpx:TrackPointExtension>
        </extensions>
      </trkpt>
      <trkpt lat="45.77649" lon="6.41027">
        <ele>890.79998779297</ele>
        <time>2020-07-05T05:53:12.000Z</time>
        <extensions>
          <gpxtpx:TrackPointExtension xmlns:gpxtpx="http://www.garmin.com/xmlschemas/TrackPointExtension/v1">
            <gpxtpx:hr>133</gpxtpx:hr>
          </gpxtpx:TrackPointExtension>
        </extensions>
      </trkpt>
      <trkpt lat="45.77648" lon="6.41038">
        <ele>891.40002441406</ele>
        <time>2020-07-05T05:53:15.000Z</time>
        <extensions>
          <gpxtpx:TrackPointExtension xmlns:gpxtpx="http://www.garmin.com/xmlschemas/TrackPointExtension/v1">
            <gpxtpx:hr>134</gpxtpx:hr>
          </gpxtpx:TrackPointExtension>
        </extensions>
      </trkpt>
      <trkpt lat="45.77643" lon="6.41056">
        <ele>892.59997558594</ele>
        <time>2020-07-05T05:53:20.000Z</time>
        <extensions>
          <gpxtpx:TrackPointExtension xmlns:gpxtpx="http://www.garmin.com/xmlschemas/TrackPointExtension/v1">
            <gpxtpx:hr>133</gpxtpx:hr>
          </gpxtpx:TrackPointExtension>
        </extensions>
      </trkpt>
      <trkpt lat="45.77642" lon="6.41059">
        <ele>892.79998779297</ele>
        <time>2020-07-05T05:53:21.000Z</time>
        <extensions>
          <gpxtpx:TrackPointExtension xmlns:gpxtpx="http://www.garmin.com/xmlschemas/TrackPointExtension/v1">
            <gpxtpx:hr>133</gpxtpx:hr>
          </gpxtpx:TrackPointExtension>
        </extensions>
      </trkpt>
      <trkpt lat="45.77641" lon="6.41073">
        <ele>893.79998779297</ele>
        <time>2020-07-05T05:53:25.000Z</time>
        <extensions>
          <gpxtpx:TrackPointExtension xmlns:gpxtpx="http://www.garmin.com/xmlschemas/TrackPointExtension/v1">
            <gpxtpx:hr>133</gpxtpx:hr>
          </gpxtpx:TrackPointExtension>
        </extensions>
      </trkpt>
      <trkpt lat="45.77638" lon="6.4109">
        <ele>895</ele>
        <time>2020-07-05T05:53:30.000Z</time>
        <extensions>
          <gpxtpx:TrackPointExtension xmlns:gpxtpx="http://www.garmin.com/xmlschemas/TrackPointExtension/v1">
            <gpxtpx:hr>133</gpxtpx:hr>
          </gpxtpx:TrackPointExtension>
        </extensions>
      </trkpt>
      <trkpt lat="45.77636" lon="6.41093">
        <ele>895.40002441406</ele>
        <time>2020-07-05T05:53:31.000Z</time>
        <extensions>
          <gpxtpx:TrackPointExtension xmlns:gpxtpx="http://www.garmin.com/xmlschemas/TrackPointExtension/v1">
            <gpxtpx:hr>133</gpxtpx:hr>
          </gpxtpx:TrackPointExtension>
        </extensions>
      </trkpt>
      <trkpt lat="45.77632" lon="6.41098">
        <ele>896</ele>
        <time>2020-07-05T05:53:33.000Z</time>
        <extensions>
          <gpxtpx:TrackPointExtension xmlns:gpxtpx="http://www.garmin.com/xmlschemas/TrackPointExtension/v1">
            <gpxtpx:hr>134</gpxtpx:hr>
          </gpxtpx:TrackPointExtension>
        </extensions>
      </trkpt>
      <trkpt lat="45.77627" lon="6.41104">
        <ele>896.79998779297</ele>
        <time>2020-07-05T05:53:36.000Z</time>
        <extensions>
          <gpxtpx:TrackPointExtension xmlns:gpxtpx="http://www.garmin.com/xmlschemas/TrackPointExtension/v1">
            <gpxtpx:hr>133</gpxtpx:hr>
          </gpxtpx:TrackPointExtension>
        </extensions>
      </trkpt>
      <trkpt lat="45.77625" lon="6.41111">
        <ele>897.20001220703</ele>
        <time>2020-07-05T05:53:38.000Z</time>
        <extensions>
          <gpxtpx:TrackPointExtension xmlns:gpxtpx="http://www.garmin.com/xmlschemas/TrackPointExtension/v1">
            <gpxtpx:hr>131</gpxtpx:hr>
          </gpxtpx:TrackPointExtension>
        </extensions>
      </trkpt>
      <trkpt lat="45.77622" lon="6.4112">
        <ele>897.79998779297</ele>
        <time>2020-07-05T05:53:41.000Z</time>
        <extensions>
          <gpxtpx:TrackPointExtension xmlns:gpxtpx="http://www.garmin.com/xmlschemas/TrackPointExtension/v1">
            <gpxtpx:hr>128</gpxtpx:hr>
          </gpxtpx:TrackPointExtension>
        </extensions>
      </trkpt>
      <trkpt lat="45.77618" lon="6.41127">
        <ele>898.40002441406</ele>
        <time>2020-07-05T05:53:43.000Z</time>
        <extensions>
          <gpxtpx:TrackPointExtension xmlns:gpxtpx="http://www.garmin.com/xmlschemas/TrackPointExtension/v1">
            <gpxtpx:hr>128</gpxtpx:hr>
          </gpxtpx:TrackPointExtension>
        </extensions>
      </trkpt>
      <trkpt lat="45.77613" lon="6.41142">
        <ele>899.59997558594</ele>
        <time>2020-07-05T05:53:47.000Z</time>
        <extensions>
          <gpxtpx:TrackPointExtension xmlns:gpxtpx="http://www.garmin.com/xmlschemas/TrackPointExtension/v1">
            <gpxtpx:hr>127</gpxtpx:hr>
          </gpxtpx:TrackPointExtension>
        </extensions>
      </trkpt>
      <trkpt lat="45.7761" lon="6.41153">
        <ele>900.40002441406</ele>
        <time>2020-07-05T05:53:50.000Z</time>
        <extensions>
          <gpxtpx:TrackPointExtension xmlns:gpxtpx="http://www.garmin.com/xmlschemas/TrackPointExtension/v1">
            <gpxtpx:hr>129</gpxtpx:hr>
          </gpxtpx:TrackPointExtension>
        </extensions>
      </trkpt>
      <trkpt lat="45.77609" lon="6.41156">
        <ele>900.79998779297</ele>
        <time>2020-07-05T05:53:51.000Z</time>
        <extensions>
          <gpxtpx:TrackPointExtension xmlns:gpxtpx="http://www.garmin.com/xmlschemas/TrackPointExtension/v1">
            <gpxtpx:hr>129</gpxtpx:hr>
          </gpxtpx:TrackPointExtension>
        </extensions>
      </trkpt>
      <trkpt lat="45.77609" lon="6.41166">
        <ele>902</ele>
        <time>2020-07-05T05:53:54.000Z</time>
        <extensions>
          <gpxtpx:TrackPointExtension xmlns:gpxtpx="http://www.garmin.com/xmlschemas/TrackPointExtension/v1">
            <gpxtpx:hr>130</gpxtpx:hr>
          </gpxtpx:TrackPointExtension>
        </extensions>
      </trkpt>
      <trkpt lat="45.7761" lon="6.4117">
        <ele>902.20001220703</ele>
        <time>2020-07-05T05:53:55.000Z</time>
        <extensions>
          <gpxtpx:TrackPointExtension xmlns:gpxtpx="http://www.garmin.com/xmlschemas/TrackPointExtension/v1">
            <gpxtpx:hr>130</gpxtpx:hr>
          </gpxtpx:TrackPointExtension>
        </extensions>
      </trkpt>
      <trkpt lat="45.77613" lon="6.41176">
        <ele>903</ele>
        <time>2020-07-05T05:53:58.000Z</time>
        <extensions>
          <gpxtpx:TrackPointExtension xmlns:gpxtpx="http://www.garmin.com/xmlschemas/TrackPointExtension/v1">
            <gpxtpx:hr>130</gpxtpx:hr>
          </gpxtpx:TrackPointExtension>
        </extensions>
      </trkpt>
      <trkpt lat="45.77617" lon="6.41175">
        <ele>903.59997558594</ele>
        <time>2020-07-05T05:54:00.000Z</time>
        <extensions>
          <gpxtpx:TrackPointExtension xmlns:gpxtpx="http://www.garmin.com/xmlschemas/TrackPointExtension/v1">
            <gpxtpx:hr>130</gpxtpx:hr>
          </gpxtpx:TrackPointExtension>
        </extensions>
      </trkpt>
      <trkpt lat="45.77622" lon="6.41172">
        <ele>904.20001220703</ele>
        <time>2020-07-05T05:54:02.000Z</time>
        <extensions>
          <gpxtpx:TrackPointExtension xmlns:gpxtpx="http://www.garmin.com/xmlschemas/TrackPointExtension/v1">
            <gpxtpx:hr>131</gpxtpx:hr>
          </gpxtpx:TrackPointExtension>
        </extensions>
      </trkpt>
      <trkpt lat="45.77625" lon="6.41162">
        <ele>905.20001220703</ele>
        <time>2020-07-05T05:54:05.000Z</time>
        <extensions>
          <gpxtpx:TrackPointExtension xmlns:gpxtpx="http://www.garmin.com/xmlschemas/TrackPointExtension/v1">
            <gpxtpx:hr>131</gpxtpx:hr>
          </gpxtpx:TrackPointExtension>
        </extensions>
      </trkpt>
      <trkpt lat="45.77628" lon="6.41159">
        <ele>905.40002441406</ele>
        <time>2020-07-05T05:54:06.000Z</time>
        <extensions>
          <gpxtpx:TrackPointExtension xmlns:gpxtpx="http://www.garmin.com/xmlschemas/TrackPointExtension/v1">
            <gpxtpx:hr>131</gpxtpx:hr>
          </gpxtpx:TrackPointExtension>
        </extensions>
      </trkpt>
      <trkpt lat="45.77633" lon="6.41152">
        <ele>905.59997558594</ele>
        <time>2020-07-05T05:54:08.000Z</time>
        <extensions>
          <gpxtpx:TrackPointExtension xmlns:gpxtpx="http://www.garmin.com/xmlschemas/TrackPointExtension/v1">
            <gpxtpx:hr>131</gpxtpx:hr>
          </gpxtpx:TrackPointExtension>
        </extensions>
      </trkpt>
      <trkpt lat="45.77642" lon="6.41133">
        <ele>905.79998779297</ele>
        <time>2020-07-05T05:54:13.000Z</time>
        <extensions>
          <gpxtpx:TrackPointExtension xmlns:gpxtpx="http://www.garmin.com/xmlschemas/TrackPointExtension/v1">
            <gpxtpx:hr>130</gpxtpx:hr>
          </gpxtpx:TrackPointExtension>
        </extensions>
      </trkpt>
      <trkpt lat="45.77648" lon="6.41123">
        <ele>906.59997558594</ele>
        <time>2020-07-05T05:54:16.000Z</time>
        <extensions>
          <gpxtpx:TrackPointExtension xmlns:gpxtpx="http://www.garmin.com/xmlschemas/TrackPointExtension/v1">
            <gpxtpx:hr>131</gpxtpx:hr>
          </gpxtpx:TrackPointExtension>
        </extensions>
      </trkpt>
      <trkpt lat="45.77653" lon="6.41116">
        <ele>907.40002441406</ele>
        <time>2020-07-05T05:54:19.000Z</time>
        <extensions>
          <gpxtpx:TrackPointExtension xmlns:gpxtpx="http://www.garmin.com/xmlschemas/TrackPointExtension/v1">
            <gpxtpx:hr>132</gpxtpx:hr>
          </gpxtpx:TrackPointExtension>
        </extensions>
      </trkpt>
      <trkpt lat="45.77655" lon="6.41115">
        <ele>907.59997558594</ele>
        <time>2020-07-05T05:54:20.000Z</time>
        <extensions>
          <gpxtpx:TrackPointExtension xmlns:gpxtpx="http://www.garmin.com/xmlschemas/TrackPointExtension/v1">
            <gpxtpx:hr>132</gpxtpx:hr>
          </gpxtpx:TrackPointExtension>
        </extensions>
      </trkpt>
      <trkpt lat="45.77664" lon="6.41105">
        <ele>908.79998779297</ele>
        <time>2020-07-05T05:54:25.000Z</time>
        <extensions>
          <gpxtpx:TrackPointExtension xmlns:gpxtpx="http://www.garmin.com/xmlschemas/TrackPointExtension/v1">
            <gpxtpx:hr>133</gpxtpx:hr>
          </gpxtpx:TrackPointExtension>
        </extensions>
      </trkpt>
      <trkpt lat="45.77671" lon="6.41094">
        <ele>910</ele>
        <time>2020-07-05T05:54:29.000Z</time>
        <extensions>
          <gpxtpx:TrackPointExtension xmlns:gpxtpx="http://www.garmin.com/xmlschemas/TrackPointExtension/v1">
            <gpxtpx:hr>132</gpxtpx:hr>
          </gpxtpx:TrackPointExtension>
        </extensions>
      </trkpt>
      <trkpt lat="45.77676" lon="6.41086">
        <ele>910.79998779297</ele>
        <time>2020-07-05T05:54:32.000Z</time>
        <extensions>
          <gpxtpx:TrackPointExtension xmlns:gpxtpx="http://www.garmin.com/xmlschemas/TrackPointExtension/v1">
            <gpxtpx:hr>132</gpxtpx:hr>
          </gpxtpx:TrackPointExtension>
        </extensions>
      </trkpt>
      <trkpt lat="45.77679" lon="6.41082">
        <ele>911</ele>
        <time>2020-07-05T05:54:33.000Z</time>
        <extensions>
          <gpxtpx:TrackPointExtension xmlns:gpxtpx="http://www.garmin.com/xmlschemas/TrackPointExtension/v1">
            <gpxtpx:hr>132</gpxtpx:hr>
          </gpxtpx:TrackPointExtension>
        </extensions>
      </trkpt>
      <trkpt lat="45.77691" lon="6.41077">
        <ele>912.20001220703</ele>
        <time>2020-07-05T05:54:38.000Z</time>
        <extensions>
          <gpxtpx:TrackPointExtension xmlns:gpxtpx="http://www.garmin.com/xmlschemas/TrackPointExtension/v1">
            <gpxtpx:hr>131</gpxtpx:hr>
          </gpxtpx:TrackPointExtension>
        </extensions>
      </trkpt>
      <trkpt lat="45.77699" lon="6.41075">
        <ele>913.40002441406</ele>
        <time>2020-07-05T05:54:42.000Z</time>
        <extensions>
          <gpxtpx:TrackPointExtension xmlns:gpxtpx="http://www.garmin.com/xmlschemas/TrackPointExtension/v1">
            <gpxtpx:hr>130</gpxtpx:hr>
          </gpxtpx:TrackPointExtension>
        </extensions>
      </trkpt>
      <trkpt lat="45.77705" lon="6.41074">
        <ele>914.20001220703</ele>
        <time>2020-07-05T05:54:45.000Z</time>
        <extensions>
          <gpxtpx:TrackPointExtension xmlns:gpxtpx="http://www.garmin.com/xmlschemas/TrackPointExtension/v1">
            <gpxtpx:hr>130</gpxtpx:hr>
          </gpxtpx:TrackPointExtension>
        </extensions>
      </trkpt>
      <trkpt lat="45.77708" lon="6.41073">
        <ele>914.40002441406</ele>
        <time>2020-07-05T05:54:46.000Z</time>
        <extensions>
          <gpxtpx:TrackPointExtension xmlns:gpxtpx="http://www.garmin.com/xmlschemas/TrackPointExtension/v1">
            <gpxtpx:hr>130</gpxtpx:hr>
          </gpxtpx:TrackPointExtension>
        </extensions>
      </trkpt>
      <trkpt lat="45.77716" lon="6.41067">
        <ele>915.59997558594</ele>
        <time>2020-07-05T05:54:50.000Z</time>
        <extensions>
          <gpxtpx:TrackPointExtension xmlns:gpxtpx="http://www.garmin.com/xmlschemas/TrackPointExtension/v1">
            <gpxtpx:hr>130</gpxtpx:hr>
          </gpxtpx:TrackPointExtension>
        </extensions>
      </trkpt>
      <trkpt lat="45.77718" lon="6.41064">
        <ele>915.79998779297</ele>
        <time>2020-07-05T05:54:51.000Z</time>
        <extensions>
          <gpxtpx:TrackPointExtension xmlns:gpxtpx="http://www.garmin.com/xmlschemas/TrackPointExtension/v1">
            <gpxtpx:hr>131</gpxtpx:hr>
          </gpxtpx:TrackPointExtension>
        </extensions>
      </trkpt>
      <trkpt lat="45.77725" lon="6.41054">
        <ele>916.59997558594</ele>
        <time>2020-07-05T05:54:54.000Z</time>
        <extensions>
          <gpxtpx:TrackPointExtension xmlns:gpxtpx="http://www.garmin.com/xmlschemas/TrackPointExtension/v1">
            <gpxtpx:hr>131</gpxtpx:hr>
          </gpxtpx:TrackPointExtension>
        </extensions>
      </trkpt>
      <trkpt lat="45.77729" lon="6.41044">
        <ele>917.59997558594</ele>
        <time>2020-07-05T05:54:57.000Z</time>
        <extensions>
          <gpxtpx:TrackPointExtension xmlns:gpxtpx="http://www.garmin.com/xmlschemas/TrackPointExtension/v1">
            <gpxtpx:hr>131</gpxtpx:hr>
          </gpxtpx:TrackPointExtension>
        </extensions>
      </trkpt>
      <trkpt lat="45.7773" lon="6.41041">
        <ele>917.79998779297</ele>
        <time>2020-07-05T05:54:58.000Z</time>
        <extensions>
          <gpxtpx:TrackPointExtension xmlns:gpxtpx="http://www.garmin.com/xmlschemas/TrackPointExtension/v1">
            <gpxtpx:hr>132</gpxtpx:hr>
          </gpxtpx:TrackPointExtension>
        </extensions>
      </trkpt>
      <trkpt lat="45.77733" lon="6.41026">
        <ele>919</ele>
        <time>2020-07-05T05:55:02.000Z</time>
        <extensions>
          <gpxtpx:TrackPointExtension xmlns:gpxtpx="http://www.garmin.com/xmlschemas/TrackPointExtension/v1">
            <gpxtpx:hr>132</gpxtpx:hr>
          </gpxtpx:TrackPointExtension>
        </extensions>
      </trkpt>
      <trkpt lat="45.77735" lon="6.4101">
        <ele>920</ele>
        <time>2020-07-05T05:55:06.000Z</time>
        <extensions>
          <gpxtpx:TrackPointExtension xmlns:gpxtpx="http://www.garmin.com/xmlschemas/TrackPointExtension/v1">
            <gpxtpx:hr>132</gpxtpx:hr>
          </gpxtpx:TrackPointExtension>
        </extensions>
      </trkpt>
      <trkpt lat="45.77736" lon="6.41004">
        <ele>920.59997558594</ele>
        <time>2020-07-05T05:55:08.000Z</time>
        <extensions>
          <gpxtpx:TrackPointExtension xmlns:gpxtpx="http://www.garmin.com/xmlschemas/TrackPointExtension/v1">
            <gpxtpx:hr>132</gpxtpx:hr>
          </gpxtpx:TrackPointExtension>
        </extensions>
      </trkpt>
      <trkpt lat="45.77738" lon="6.40997">
        <ele>921</ele>
        <time>2020-07-05T05:55:10.000Z</time>
        <extensions>
          <gpxtpx:TrackPointExtension xmlns:gpxtpx="http://www.garmin.com/xmlschemas/TrackPointExtension/v1">
            <gpxtpx:hr>132</gpxtpx:hr>
          </gpxtpx:TrackPointExtension>
        </extensions>
      </trkpt>
      <trkpt lat="45.77742" lon="6.40993">
        <ele>921.40002441406</ele>
        <time>2020-07-05T05:55:12.000Z</time>
        <extensions>
          <gpxtpx:TrackPointExtension xmlns:gpxtpx="http://www.garmin.com/xmlschemas/TrackPointExtension/v1">
            <gpxtpx:hr>132</gpxtpx:hr>
          </gpxtpx:TrackPointExtension>
        </extensions>
      </trkpt>
      <trkpt lat="45.77744" lon="6.40993">
        <ele>921.59997558594</ele>
        <time>2020-07-05T05:55:13.000Z</time>
        <extensions>
          <gpxtpx:TrackPointExtension xmlns:gpxtpx="http://www.garmin.com/xmlschemas/TrackPointExtension/v1">
            <gpxtpx:hr>132</gpxtpx:hr>
          </gpxtpx:TrackPointExtension>
        </extensions>
      </trkpt>
      <trkpt lat="45.77749" lon="6.40997">
        <ele>922.20001220703</ele>
        <time>2020-07-05T05:55:15.000Z</time>
        <extensions>
          <gpxtpx:TrackPointExtension xmlns:gpxtpx="http://www.garmin.com/xmlschemas/TrackPointExtension/v1">
            <gpxtpx:hr>132</gpxtpx:hr>
          </gpxtpx:TrackPointExtension>
        </extensions>
      </trkpt>
      <trkpt lat="45.77752" lon="6.41003">
        <ele>922.59997558594</ele>
        <time>2020-07-05T05:55:17.000Z</time>
        <extensions>
          <gpxtpx:TrackPointExtension xmlns:gpxtpx="http://www.garmin.com/xmlschemas/TrackPointExtension/v1">
            <gpxtpx:hr>133</gpxtpx:hr>
          </gpxtpx:TrackPointExtension>
        </extensions>
      </trkpt>
      <trkpt lat="45.77753" lon="6.4101">
        <ele>923.20001220703</ele>
        <time>2020-07-05T05:55:19.000Z</time>
        <extensions>
          <gpxtpx:TrackPointExtension xmlns:gpxtpx="http://www.garmin.com/xmlschemas/TrackPointExtension/v1">
            <gpxtpx:hr>132</gpxtpx:hr>
          </gpxtpx:TrackPointExtension>
        </extensions>
      </trkpt>
      <trkpt lat="45.77753" lon="6.41014">
        <ele>923.59997558594</ele>
        <time>2020-07-05T05:55:20.000Z</time>
        <extensions>
          <gpxtpx:TrackPointExtension xmlns:gpxtpx="http://www.garmin.com/xmlschemas/TrackPointExtension/v1">
            <gpxtpx:hr>132</gpxtpx:hr>
          </gpxtpx:TrackPointExtension>
        </extensions>
      </trkpt>
      <trkpt lat="45.77754" lon="6.41017">
        <ele>923.79998779297</ele>
        <time>2020-07-05T05:55:21.000Z</time>
        <extensions>
          <gpxtpx:TrackPointExtension xmlns:gpxtpx="http://www.garmin.com/xmlschemas/TrackPointExtension/v1">
            <gpxtpx:hr>132</gpxtpx:hr>
          </gpxtpx:TrackPointExtension>
        </extensions>
      </trkpt>
      <trkpt lat="45.77755" lon="6.41021">
        <ele>924</ele>
        <time>2020-07-05T05:55:22.000Z</time>
        <extensions>
          <gpxtpx:TrackPointExtension xmlns:gpxtpx="http://www.garmin.com/xmlschemas/TrackPointExtension/v1">
            <gpxtpx:hr>132</gpxtpx:hr>
          </gpxtpx:TrackPointExtension>
        </extensions>
      </trkpt>
      <trkpt lat="45.77754" lon="6.41033">
        <ele>924.59997558594</ele>
        <time>2020-07-05T05:55:25.000Z</time>
        <extensions>
          <gpxtpx:TrackPointExtension xmlns:gpxtpx="http://www.garmin.com/xmlschemas/TrackPointExtension/v1">
            <gpxtpx:hr>132</gpxtpx:hr>
          </gpxtpx:TrackPointExtension>
        </extensions>
      </trkpt>
      <trkpt lat="45.77757" lon="6.41052">
        <ele>925.79998779297</ele>
        <time>2020-07-05T05:55:30.000Z</time>
        <extensions>
          <gpxtpx:TrackPointExtension xmlns:gpxtpx="http://www.garmin.com/xmlschemas/TrackPointExtension/v1">
            <gpxtpx:hr>133</gpxtpx:hr>
          </gpxtpx:TrackPointExtension>
        </extensions>
      </trkpt>
      <trkpt lat="45.77759" lon="6.41066">
        <ele>927</ele>
        <time>2020-07-05T05:55:34.000Z</time>
        <extensions>
          <gpxtpx:TrackPointExtension xmlns:gpxtpx="http://www.garmin.com/xmlschemas/TrackPointExtension/v1">
            <gpxtpx:hr>134</gpxtpx:hr>
          </gpxtpx:TrackPointExtension>
        </extensions>
      </trkpt>
      <trkpt lat="45.77759" lon="6.41072">
        <ele>927.40002441406</ele>
        <time>2020-07-05T05:55:36.000Z</time>
        <extensions>
          <gpxtpx:TrackPointExtension xmlns:gpxtpx="http://www.garmin.com/xmlschemas/TrackPointExtension/v1">
            <gpxtpx:hr>134</gpxtpx:hr>
          </gpxtpx:TrackPointExtension>
        </extensions>
      </trkpt>
      <trkpt lat="45.77757" lon="6.41075">
        <ele>927.59997558594</ele>
        <time>2020-07-05T05:55:37.000Z</time>
        <extensions>
          <gpxtpx:TrackPointExtension xmlns:gpxtpx="http://www.garmin.com/xmlschemas/TrackPointExtension/v1">
            <gpxtpx:hr>135</gpxtpx:hr>
          </gpxtpx:TrackPointExtension>
        </extensions>
      </trkpt>
      <trkpt lat="45.77757" lon="6.41085">
        <ele>928.20001220703</ele>
        <time>2020-07-05T05:55:40.000Z</time>
        <extensions>
          <gpxtpx:TrackPointExtension xmlns:gpxtpx="http://www.garmin.com/xmlschemas/TrackPointExtension/v1">
            <gpxtpx:hr>134</gpxtpx:hr>
          </gpxtpx:TrackPointExtension>
        </extensions>
      </trkpt>
      <trkpt lat="45.77757" lon="6.41095">
        <ele>929</ele>
        <time>2020-07-05T05:55:43.000Z</time>
        <extensions>
          <gpxtpx:TrackPointExtension xmlns:gpxtpx="http://www.garmin.com/xmlschemas/TrackPointExtension/v1">
            <gpxtpx:hr>134</gpxtpx:hr>
          </gpxtpx:TrackPointExtension>
        </extensions>
      </trkpt>
      <trkpt lat="45.77756" lon="6.41099">
        <ele>929.20001220703</ele>
        <time>2020-07-05T05:55:44.000Z</time>
        <extensions>
          <gpxtpx:TrackPointExtension xmlns:gpxtpx="http://www.garmin.com/xmlschemas/TrackPointExtension/v1">
            <gpxtpx:hr>134</gpxtpx:hr>
          </gpxtpx:TrackPointExtension>
        </extensions>
      </trkpt>
      <trkpt lat="45.77753" lon="6.41119">
        <ele>930.20001220703</ele>
        <time>2020-07-05T05:55:49.000Z</time>
        <extensions>
          <gpxtpx:TrackPointExtension xmlns:gpxtpx="http://www.garmin.com/xmlschemas/TrackPointExtension/v1">
            <gpxtpx:hr>132</gpxtpx:hr>
          </gpxtpx:TrackPointExtension>
        </extensions>
      </trkpt>
      <trkpt lat="45.77749" lon="6.41128">
        <ele>931.40002441406</ele>
        <time>2020-07-05T05:55:52.000Z</time>
        <extensions>
          <gpxtpx:TrackPointExtension xmlns:gpxtpx="http://www.garmin.com/xmlschemas/TrackPointExtension/v1">
            <gpxtpx:hr>132</gpxtpx:hr>
          </gpxtpx:TrackPointExtension>
        </extensions>
      </trkpt>
      <trkpt lat="45.77744" lon="6.41142">
        <ele>932.40002441406</ele>
        <time>2020-07-05T05:55:56.000Z</time>
        <extensions>
          <gpxtpx:TrackPointExtension xmlns:gpxtpx="http://www.garmin.com/xmlschemas/TrackPointExtension/v1">
            <gpxtpx:hr>132</gpxtpx:hr>
          </gpxtpx:TrackPointExtension>
        </extensions>
      </trkpt>
      <trkpt lat="45.77742" lon="6.41145">
        <ele>932.79998779297</ele>
        <time>2020-07-05T05:55:57.000Z</time>
        <extensions>
          <gpxtpx:TrackPointExtension xmlns:gpxtpx="http://www.garmin.com/xmlschemas/TrackPointExtension/v1">
            <gpxtpx:hr>132</gpxtpx:hr>
          </gpxtpx:TrackPointExtension>
        </extensions>
      </trkpt>
      <trkpt lat="45.7774" lon="6.41159">
        <ele>933.79998779297</ele>
        <time>2020-07-05T05:56:01.000Z</time>
        <extensions>
          <gpxtpx:TrackPointExtension xmlns:gpxtpx="http://www.garmin.com/xmlschemas/TrackPointExtension/v1">
            <gpxtpx:hr>133</gpxtpx:hr>
          </gpxtpx:TrackPointExtension>
        </extensions>
      </trkpt>
      <trkpt lat="45.7774" lon="6.41166">
        <ele>934.40002441406</ele>
        <time>2020-07-05T05:56:03.000Z</time>
        <extensions>
          <gpxtpx:TrackPointExtension xmlns:gpxtpx="http://www.garmin.com/xmlschemas/TrackPointExtension/v1">
            <gpxtpx:hr>133</gpxtpx:hr>
          </gpxtpx:TrackPointExtension>
        </extensions>
      </trkpt>
      <trkpt lat="45.77743" lon="6.41177">
        <ele>935</ele>
        <time>2020-07-05T05:56:06.000Z</time>
        <extensions>
          <gpxtpx:TrackPointExtension xmlns:gpxtpx="http://www.garmin.com/xmlschemas/TrackPointExtension/v1">
            <gpxtpx:hr>133</gpxtpx:hr>
          </gpxtpx:TrackPointExtension>
        </extensions>
      </trkpt>
      <trkpt lat="45.77743" lon="6.41189">
        <ele>935.59997558594</ele>
        <time>2020-07-05T05:56:09.000Z</time>
        <extensions>
          <gpxtpx:TrackPointExtension xmlns:gpxtpx="http://www.garmin.com/xmlschemas/TrackPointExtension/v1">
            <gpxtpx:hr>133</gpxtpx:hr>
          </gpxtpx:TrackPointExtension>
        </extensions>
      </trkpt>
      <trkpt lat="45.77745" lon="6.41205">
        <ele>936.20001220703</ele>
        <time>2020-07-05T05:56:13.000Z</time>
        <extensions>
          <gpxtpx:TrackPointExtension xmlns:gpxtpx="http://www.garmin.com/xmlschemas/TrackPointExtension/v1">
            <gpxtpx:hr>132</gpxtpx:hr>
          </gpxtpx:TrackPointExtension>
        </extensions>
      </trkpt>
      <trkpt lat="45.77741" lon="6.41212">
        <ele>936.59997558594</ele>
        <time>2020-07-05T05:56:15.000Z</time>
        <extensions>
          <gpxtpx:TrackPointExtension xmlns:gpxtpx="http://www.garmin.com/xmlschemas/TrackPointExtension/v1">
            <gpxtpx:hr>132</gpxtpx:hr>
          </gpxtpx:TrackPointExtension>
        </extensions>
      </trkpt>
      <trkpt lat="45.77738" lon="6.41224">
        <ele>937.20001220703</ele>
        <time>2020-07-05T05:56:18.000Z</time>
        <extensions>
          <gpxtpx:TrackPointExtension xmlns:gpxtpx="http://www.garmin.com/xmlschemas/TrackPointExtension/v1">
            <gpxtpx:hr>131</gpxtpx:hr>
          </gpxtpx:TrackPointExtension>
        </extensions>
      </trkpt>
      <trkpt lat="45.77732" lon="6.4124">
        <ele>938</ele>
        <time>2020-07-05T05:56:23.000Z</time>
        <extensions>
          <gpxtpx:TrackPointExtension xmlns:gpxtpx="http://www.garmin.com/xmlschemas/TrackPointExtension/v1">
            <gpxtpx:hr>129</gpxtpx:hr>
          </gpxtpx:TrackPointExtension>
        </extensions>
      </trkpt>
      <trkpt lat="45.7773" lon="6.41246">
        <ele>938.40002441406</ele>
        <time>2020-07-05T05:56:25.000Z</time>
        <extensions>
          <gpxtpx:TrackPointExtension xmlns:gpxtpx="http://www.garmin.com/xmlschemas/TrackPointExtension/v1">
            <gpxtpx:hr>129</gpxtpx:hr>
          </gpxtpx:TrackPointExtension>
        </extensions>
      </trkpt>
      <trkpt lat="45.77728" lon="6.41252">
        <ele>939.40002441406</ele>
        <time>2020-07-05T05:56:27.000Z</time>
        <extensions>
          <gpxtpx:TrackPointExtension xmlns:gpxtpx="http://www.garmin.com/xmlschemas/TrackPointExtension/v1">
            <gpxtpx:hr>129</gpxtpx:hr>
          </gpxtpx:TrackPointExtension>
        </extensions>
      </trkpt>
      <trkpt lat="45.77728" lon="6.41255">
        <ele>939.79998779297</ele>
        <time>2020-07-05T05:56:28.000Z</time>
        <extensions>
          <gpxtpx:TrackPointExtension xmlns:gpxtpx="http://www.garmin.com/xmlschemas/TrackPointExtension/v1">
            <gpxtpx:hr>129</gpxtpx:hr>
          </gpxtpx:TrackPointExtension>
        </extensions>
      </trkpt>
      <trkpt lat="45.77725" lon="6.41263">
        <ele>940.79998779297</ele>
        <time>2020-07-05T05:56:31.000Z</time>
        <extensions>
          <gpxtpx:TrackPointExtension xmlns:gpxtpx="http://www.garmin.com/xmlschemas/TrackPointExtension/v1">
            <gpxtpx:hr>129</gpxtpx:hr>
          </gpxtpx:TrackPointExtension>
        </extensions>
      </trkpt>
      <trkpt lat="45.77722" lon="6.41267">
        <ele>941.59997558594</ele>
        <time>2020-07-05T05:56:33.000Z</time>
        <extensions>
          <gpxtpx:TrackPointExtension xmlns:gpxtpx="http://www.garmin.com/xmlschemas/TrackPointExtension/v1">
            <gpxtpx:hr>129</gpxtpx:hr>
          </gpxtpx:TrackPointExtension>
        </extensions>
      </trkpt>
      <trkpt lat="45.7772" lon="6.4127">
        <ele>942.20001220703</ele>
        <time>2020-07-05T05:56:34.000Z</time>
        <extensions>
          <gpxtpx:TrackPointExtension xmlns:gpxtpx="http://www.garmin.com/xmlschemas/TrackPointExtension/v1">
            <gpxtpx:hr>129</gpxtpx:hr>
          </gpxtpx:TrackPointExtension>
        </extensions>
      </trkpt>
      <trkpt lat="45.77716" lon="6.41274">
        <ele>943.40002441406</ele>
        <time>2020-07-05T05:56:36.000Z</time>
        <extensions>
          <gpxtpx:TrackPointExtension xmlns:gpxtpx="http://www.garmin.com/xmlschemas/TrackPointExtension/v1">
            <gpxtpx:hr>129</gpxtpx:hr>
          </gpxtpx:TrackPointExtension>
        </extensions>
      </trkpt>
      <trkpt lat="45.7771" lon="6.41277">
        <ele>944.40002441406</ele>
        <time>2020-07-05T05:56:39.000Z</time>
        <extensions>
          <gpxtpx:TrackPointExtension xmlns:gpxtpx="http://www.garmin.com/xmlschemas/TrackPointExtension/v1">
            <gpxtpx:hr>130</gpxtpx:hr>
          </gpxtpx:TrackPointExtension>
        </extensions>
      </trkpt>
      <trkpt lat="45.777" lon="6.41279">
        <ele>945.59997558594</ele>
        <time>2020-07-05T05:56:43.000Z</time>
        <extensions>
          <gpxtpx:TrackPointExtension xmlns:gpxtpx="http://www.garmin.com/xmlschemas/TrackPointExtension/v1">
            <gpxtpx:hr>131</gpxtpx:hr>
          </gpxtpx:TrackPointExtension>
        </extensions>
      </trkpt>
      <trkpt lat="45.77691" lon="6.41281">
        <ele>946.20001220703</ele>
        <time>2020-07-05T05:56:46.000Z</time>
        <extensions>
          <gpxtpx:TrackPointExtension xmlns:gpxtpx="http://www.garmin.com/xmlschemas/TrackPointExtension/v1">
            <gpxtpx:hr>132</gpxtpx:hr>
          </gpxtpx:TrackPointExtension>
        </extensions>
      </trkpt>
      <trkpt lat="45.77683" lon="6.41288">
        <ele>946.79998779297</ele>
        <time>2020-07-05T05:56:49.000Z</time>
        <extensions>
          <gpxtpx:TrackPointExtension xmlns:gpxtpx="http://www.garmin.com/xmlschemas/TrackPointExtension/v1">
            <gpxtpx:hr>133</gpxtpx:hr>
          </gpxtpx:TrackPointExtension>
        </extensions>
      </trkpt>
      <trkpt lat="45.77676" lon="6.41295">
        <ele>947.59997558594</ele>
        <time>2020-07-05T05:56:52.000Z</time>
        <extensions>
          <gpxtpx:TrackPointExtension xmlns:gpxtpx="http://www.garmin.com/xmlschemas/TrackPointExtension/v1">
            <gpxtpx:hr>131</gpxtpx:hr>
          </gpxtpx:TrackPointExtension>
        </extensions>
      </trkpt>
      <trkpt lat="45.77674" lon="6.41297">
        <ele>947.79998779297</ele>
        <time>2020-07-05T05:56:53.000Z</time>
        <extensions>
          <gpxtpx:TrackPointExtension xmlns:gpxtpx="http://www.garmin.com/xmlschemas/TrackPointExtension/v1">
            <gpxtpx:hr>131</gpxtpx:hr>
          </gpxtpx:TrackPointExtension>
        </extensions>
      </trkpt>
      <trkpt lat="45.77664" lon="6.41305">
        <ele>948.79998779297</ele>
        <time>2020-07-05T05:56:57.000Z</time>
        <extensions>
          <gpxtpx:TrackPointExtension xmlns:gpxtpx="http://www.garmin.com/xmlschemas/TrackPointExtension/v1">
            <gpxtpx:hr>131</gpxtpx:hr>
          </gpxtpx:TrackPointExtension>
        </extensions>
      </trkpt>
      <trkpt lat="45.77659" lon="6.4131">
        <ele>949</ele>
        <time>2020-07-05T05:56:59.000Z</time>
        <extensions>
          <gpxtpx:TrackPointExtension xmlns:gpxtpx="http://www.garmin.com/xmlschemas/TrackPointExtension/v1">
            <gpxtpx:hr>131</gpxtpx:hr>
          </gpxtpx:TrackPointExtension>
        </extensions>
      </trkpt>
      <trkpt lat="45.77657" lon="6.41312">
        <ele>949.20001220703</ele>
        <time>2020-07-05T05:57:00.000Z</time>
        <extensions>
          <gpxtpx:TrackPointExtension xmlns:gpxtpx="http://www.garmin.com/xmlschemas/TrackPointExtension/v1">
            <gpxtpx:hr>131</gpxtpx:hr>
          </gpxtpx:TrackPointExtension>
        </extensions>
      </trkpt>
      <trkpt lat="45.77655" lon="6.41317">
        <ele>949.79998779297</ele>
        <time>2020-07-05T05:57:02.000Z</time>
        <extensions>
          <gpxtpx:TrackPointExtension xmlns:gpxtpx="http://www.garmin.com/xmlschemas/TrackPointExtension/v1">
            <gpxtpx:hr>132</gpxtpx:hr>
          </gpxtpx:TrackPointExtension>
        </extensions>
      </trkpt>
      <trkpt lat="45.77655" lon="6.4132">
        <ele>950</ele>
        <time>2020-07-05T05:57:03.000Z</time>
        <extensions>
          <gpxtpx:TrackPointExtension xmlns:gpxtpx="http://www.garmin.com/xmlschemas/TrackPointExtension/v1">
            <gpxtpx:hr>131</gpxtpx:hr>
          </gpxtpx:TrackPointExtension>
        </extensions>
      </trkpt>
      <trkpt lat="45.77655" lon="6.41323">
        <ele>950.20001220703</ele>
        <time>2020-07-05T05:57:04.000Z</time>
        <extensions>
          <gpxtpx:TrackPointExtension xmlns:gpxtpx="http://www.garmin.com/xmlschemas/TrackPointExtension/v1">
            <gpxtpx:hr>130</gpxtpx:hr>
          </gpxtpx:TrackPointExtension>
        </extensions>
      </trkpt>
      <trkpt lat="45.77657" lon="6.4133">
        <ele>950.59997558594</ele>
        <time>2020-07-05T05:57:06.000Z</time>
        <extensions>
          <gpxtpx:TrackPointExtension xmlns:gpxtpx="http://www.garmin.com/xmlschemas/TrackPointExtension/v1">
            <gpxtpx:hr>132</gpxtpx:hr>
          </gpxtpx:TrackPointExtension>
        </extensions>
      </trkpt>
      <trkpt lat="45.77659" lon="6.41331">
        <ele>950.79998779297</ele>
        <time>2020-07-05T05:57:07.000Z</time>
        <extensions>
          <gpxtpx:TrackPointExtension xmlns:gpxtpx="http://www.garmin.com/xmlschemas/TrackPointExtension/v1">
            <gpxtpx:hr>132</gpxtpx:hr>
          </gpxtpx:TrackPointExtension>
        </extensions>
      </trkpt>
      <trkpt lat="45.77665" lon="6.4133">
        <ele>951.40002441406</ele>
        <time>2020-07-05T05:57:10.000Z</time>
        <extensions>
          <gpxtpx:TrackPointExtension xmlns:gpxtpx="http://www.garmin.com/xmlschemas/TrackPointExtension/v1">
            <gpxtpx:hr>133</gpxtpx:hr>
          </gpxtpx:TrackPointExtension>
        </extensions>
      </trkpt>
      <trkpt lat="45.77674" lon="6.4132">
        <ele>952.59997558594</ele>
        <time>2020-07-05T05:57:15.000Z</time>
        <extensions>
          <gpxtpx:TrackPointExtension xmlns:gpxtpx="http://www.garmin.com/xmlschemas/TrackPointExtension/v1">
            <gpxtpx:hr>135</gpxtpx:hr>
          </gpxtpx:TrackPointExtension>
        </extensions>
      </trkpt>
      <trkpt lat="45.77676" lon="6.41317">
        <ele>953</ele>
        <time>2020-07-05T05:57:16.000Z</time>
        <extensions>
          <gpxtpx:TrackPointExtension xmlns:gpxtpx="http://www.garmin.com/xmlschemas/TrackPointExtension/v1">
            <gpxtpx:hr>135</gpxtpx:hr>
          </gpxtpx:TrackPointExtension>
        </extensions>
      </trkpt>
      <trkpt lat="45.77687" lon="6.41308">
        <ele>953.79998779297</ele>
        <time>2020-07-05T05:57:21.000Z</time>
        <extensions>
          <gpxtpx:TrackPointExtension xmlns:gpxtpx="http://www.garmin.com/xmlschemas/TrackPointExtension/v1">
            <gpxtpx:hr>134</gpxtpx:hr>
          </gpxtpx:TrackPointExtension>
        </extensions>
      </trkpt>
      <trkpt lat="45.7769" lon="6.41308">
        <ele>954.20001220703</ele>
        <time>2020-07-05T05:57:22.000Z</time>
        <extensions>
          <gpxtpx:TrackPointExtension xmlns:gpxtpx="http://www.garmin.com/xmlschemas/TrackPointExtension/v1">
            <gpxtpx:hr>134</gpxtpx:hr>
          </gpxtpx:TrackPointExtension>
        </extensions>
      </trkpt>
      <trkpt lat="45.77705" lon="6.4131">
        <ele>955.20001220703</ele>
        <time>2020-07-05T05:57:28.000Z</time>
        <extensions>
          <gpxtpx:TrackPointExtension xmlns:gpxtpx="http://www.garmin.com/xmlschemas/TrackPointExtension/v1">
            <gpxtpx:hr>132</gpxtpx:hr>
          </gpxtpx:TrackPointExtension>
        </extensions>
      </trkpt>
      <trkpt lat="45.77708" lon="6.41311">
        <ele>955.40002441406</ele>
        <time>2020-07-05T05:57:29.000Z</time>
        <extensions>
          <gpxtpx:TrackPointExtension xmlns:gpxtpx="http://www.garmin.com/xmlschemas/TrackPointExtension/v1">
            <gpxtpx:hr>132</gpxtpx:hr>
          </gpxtpx:TrackPointExtension>
        </extensions>
      </trkpt>
      <trkpt lat="45.77715" lon="6.41313">
        <ele>956.20001220703</ele>
        <time>2020-07-05T05:57:32.000Z</time>
        <extensions>
          <gpxtpx:TrackPointExtension xmlns:gpxtpx="http://www.garmin.com/xmlschemas/TrackPointExtension/v1">
            <gpxtpx:hr>131</gpxtpx:hr>
          </gpxtpx:TrackPointExtension>
        </extensions>
      </trkpt>
      <trkpt lat="45.77727" lon="6.41316">
        <ele>957.40002441406</ele>
        <time>2020-07-05T05:57:37.000Z</time>
        <extensions>
          <gpxtpx:TrackPointExtension xmlns:gpxtpx="http://www.garmin.com/xmlschemas/TrackPointExtension/v1">
            <gpxtpx:hr>130</gpxtpx:hr>
          </gpxtpx:TrackPointExtension>
        </extensions>
      </trkpt>
      <trkpt lat="45.7774" lon="6.41317">
        <ele>958.59997558594</ele>
        <time>2020-07-05T05:57:42.000Z</time>
        <extensions>
          <gpxtpx:TrackPointExtension xmlns:gpxtpx="http://www.garmin.com/xmlschemas/TrackPointExtension/v1">
            <gpxtpx:hr>131</gpxtpx:hr>
          </gpxtpx:TrackPointExtension>
        </extensions>
      </trkpt>
      <trkpt lat="45.77746" lon="6.41317">
        <ele>959.20001220703</ele>
        <time>2020-07-05T05:57:44.000Z</time>
        <extensions>
          <gpxtpx:TrackPointExtension xmlns:gpxtpx="http://www.garmin.com/xmlschemas/TrackPointExtension/v1">
            <gpxtpx:hr>132</gpxtpx:hr>
          </gpxtpx:TrackPointExtension>
        </extensions>
      </trkpt>
      <trkpt lat="45.77751" lon="6.41317">
        <ele>959.79998779297</ele>
        <time>2020-07-05T05:57:46.000Z</time>
        <extensions>
          <gpxtpx:TrackPointExtension xmlns:gpxtpx="http://www.garmin.com/xmlschemas/TrackPointExtension/v1">
            <gpxtpx:hr>132</gpxtpx:hr>
          </gpxtpx:TrackPointExtension>
        </extensions>
      </trkpt>
      <trkpt lat="45.77763" lon="6.41314">
        <ele>960.79998779297</ele>
        <time>2020-07-05T05:57:50.000Z</time>
        <extensions>
          <gpxtpx:TrackPointExtension xmlns:gpxtpx="http://www.garmin.com/xmlschemas/TrackPointExtension/v1">
            <gpxtpx:hr>132</gpxtpx:hr>
          </gpxtpx:TrackPointExtension>
        </extensions>
      </trkpt>
      <trkpt lat="45.77774" lon="6.41312">
        <ele>961.79998779297</ele>
        <time>2020-07-05T05:57:54.000Z</time>
        <extensions>
          <gpxtpx:TrackPointExtension xmlns:gpxtpx="http://www.garmin.com/xmlschemas/TrackPointExtension/v1">
            <gpxtpx:hr>133</gpxtpx:hr>
          </gpxtpx:TrackPointExtension>
        </extensions>
      </trkpt>
      <trkpt lat="45.77778" lon="6.41309">
        <ele>962.40002441406</ele>
        <time>2020-07-05T05:57:56.000Z</time>
        <extensions>
          <gpxtpx:TrackPointExtension xmlns:gpxtpx="http://www.garmin.com/xmlschemas/TrackPointExtension/v1">
            <gpxtpx:hr>133</gpxtpx:hr>
          </gpxtpx:TrackPointExtension>
        </extensions>
      </trkpt>
      <trkpt lat="45.77785" lon="6.41305">
        <ele>963</ele>
        <time>2020-07-05T05:57:59.000Z</time>
        <extensions>
          <gpxtpx:TrackPointExtension xmlns:gpxtpx="http://www.garmin.com/xmlschemas/TrackPointExtension/v1">
            <gpxtpx:hr>133</gpxtpx:hr>
          </gpxtpx:TrackPointExtension>
        </extensions>
      </trkpt>
      <trkpt lat="45.77794" lon="6.41303">
        <ele>964</ele>
        <time>2020-07-05T05:58:03.000Z</time>
        <extensions>
          <gpxtpx:TrackPointExtension xmlns:gpxtpx="http://www.garmin.com/xmlschemas/TrackPointExtension/v1">
            <gpxtpx:hr>133</gpxtpx:hr>
          </gpxtpx:TrackPointExtension>
        </extensions>
      </trkpt>
      <trkpt lat="45.77799" lon="6.41301">
        <ele>964.59997558594</ele>
        <time>2020-07-05T05:58:05.000Z</time>
        <extensions>
          <gpxtpx:TrackPointExtension xmlns:gpxtpx="http://www.garmin.com/xmlschemas/TrackPointExtension/v1">
            <gpxtpx:hr>133</gpxtpx:hr>
          </gpxtpx:TrackPointExtension>
        </extensions>
      </trkpt>
      <trkpt lat="45.77804" lon="6.41299">
        <ele>965</ele>
        <time>2020-07-05T05:58:07.000Z</time>
        <extensions>
          <gpxtpx:TrackPointExtension xmlns:gpxtpx="http://www.garmin.com/xmlschemas/TrackPointExtension/v1">
            <gpxtpx:hr>133</gpxtpx:hr>
          </gpxtpx:TrackPointExtension>
        </extensions>
      </trkpt>
      <trkpt lat="45.7781" lon="6.41295">
        <ele>965.79998779297</ele>
        <time>2020-07-05T05:58:10.000Z</time>
        <extensions>
          <gpxtpx:TrackPointExtension xmlns:gpxtpx="http://www.garmin.com/xmlschemas/TrackPointExtension/v1">
            <gpxtpx:hr>132</gpxtpx:hr>
          </gpxtpx:TrackPointExtension>
        </extensions>
      </trkpt>
      <trkpt lat="45.77815" lon="6.41291">
        <ele>966.20001220703</ele>
        <time>2020-07-05T05:58:12.000Z</time>
        <extensions>
          <gpxtpx:TrackPointExtension xmlns:gpxtpx="http://www.garmin.com/xmlschemas/TrackPointExtension/v1">
            <gpxtpx:hr>132</gpxtpx:hr>
          </gpxtpx:TrackPointExtension>
        </extensions>
      </trkpt>
      <trkpt lat="45.7782" lon="6.41289">
        <ele>966.79998779297</ele>
        <time>2020-07-05T05:58:14.000Z</time>
        <extensions>
          <gpxtpx:TrackPointExtension xmlns:gpxtpx="http://www.garmin.com/xmlschemas/TrackPointExtension/v1">
            <gpxtpx:hr>132</gpxtpx:hr>
          </gpxtpx:TrackPointExtension>
        </extensions>
      </trkpt>
      <trkpt lat="45.77824" lon="6.41287">
        <ele>967.20001220703</ele>
        <time>2020-07-05T05:58:16.000Z</time>
        <extensions>
          <gpxtpx:TrackPointExtension xmlns:gpxtpx="http://www.garmin.com/xmlschemas/TrackPointExtension/v1">
            <gpxtpx:hr>132</gpxtpx:hr>
          </gpxtpx:TrackPointExtension>
        </extensions>
      </trkpt>
      <trkpt lat="45.77836" lon="6.41284">
        <ele>968.40002441406</ele>
        <time>2020-07-05T05:58:21.000Z</time>
        <extensions>
          <gpxtpx:TrackPointExtension xmlns:gpxtpx="http://www.garmin.com/xmlschemas/TrackPointExtension/v1">
            <gpxtpx:hr>133</gpxtpx:hr>
          </gpxtpx:TrackPointExtension>
        </extensions>
      </trkpt>
      <trkpt lat="45.77839" lon="6.41283">
        <ele>968.59997558594</ele>
        <time>2020-07-05T05:58:22.000Z</time>
        <extensions>
          <gpxtpx:TrackPointExtension xmlns:gpxtpx="http://www.garmin.com/xmlschemas/TrackPointExtension/v1">
            <gpxtpx:hr>133</gpxtpx:hr>
          </gpxtpx:TrackPointExtension>
        </extensions>
      </trkpt>
      <trkpt lat="45.77846" lon="6.4128">
        <ele>969.59997558594</ele>
        <time>2020-07-05T05:58:25.000Z</time>
        <extensions>
          <gpxtpx:TrackPointExtension xmlns:gpxtpx="http://www.garmin.com/xmlschemas/TrackPointExtension/v1">
            <gpxtpx:hr>133</gpxtpx:hr>
          </gpxtpx:TrackPointExtension>
        </extensions>
      </trkpt>
      <trkpt lat="45.77854" lon="6.41279">
        <ele>970.40002441406</ele>
        <time>2020-07-05T05:58:28.000Z</time>
        <extensions>
          <gpxtpx:TrackPointExtension xmlns:gpxtpx="http://www.garmin.com/xmlschemas/TrackPointExtension/v1">
            <gpxtpx:hr>133</gpxtpx:hr>
          </gpxtpx:TrackPointExtension>
        </extensions>
      </trkpt>
      <trkpt lat="45.77856" lon="6.41278">
        <ele>970.59997558594</ele>
        <time>2020-07-05T05:58:29.000Z</time>
        <extensions>
          <gpxtpx:TrackPointExtension xmlns:gpxtpx="http://www.garmin.com/xmlschemas/TrackPointExtension/v1">
            <gpxtpx:hr>132</gpxtpx:hr>
          </gpxtpx:TrackPointExtension>
        </extensions>
      </trkpt>
      <trkpt lat="45.77862" lon="6.41275">
        <ele>971.59997558594</ele>
        <time>2020-07-05T05:58:32.000Z</time>
        <extensions>
          <gpxtpx:TrackPointExtension xmlns:gpxtpx="http://www.garmin.com/xmlschemas/TrackPointExtension/v1">
            <gpxtpx:hr>131</gpxtpx:hr>
          </gpxtpx:TrackPointExtension>
        </extensions>
      </trkpt>
      <trkpt lat="45.77864" lon="6.41274">
        <ele>971.79998779297</ele>
        <time>2020-07-05T05:58:33.000Z</time>
        <extensions>
          <gpxtpx:TrackPointExtension xmlns:gpxtpx="http://www.garmin.com/xmlschemas/TrackPointExtension/v1">
            <gpxtpx:hr>131</gpxtpx:hr>
          </gpxtpx:TrackPointExtension>
        </extensions>
      </trkpt>
      <trkpt lat="45.77869" lon="6.41269">
        <ele>973</ele>
        <time>2020-07-05T05:58:37.000Z</time>
        <extensions>
          <gpxtpx:TrackPointExtension xmlns:gpxtpx="http://www.garmin.com/xmlschemas/TrackPointExtension/v1">
            <gpxtpx:hr>132</gpxtpx:hr>
          </gpxtpx:TrackPointExtension>
        </extensions>
      </trkpt>
      <trkpt lat="45.77871" lon="6.41267">
        <ele>973.40002441406</ele>
        <time>2020-07-05T05:58:38.000Z</time>
        <extensions>
          <gpxtpx:TrackPointExtension xmlns:gpxtpx="http://www.garmin.com/xmlschemas/TrackPointExtension/v1">
            <gpxtpx:hr>132</gpxtpx:hr>
          </gpxtpx:TrackPointExtension>
        </extensions>
      </trkpt>
      <trkpt lat="45.77875" lon="6.41267">
        <ele>973.79998779297</ele>
        <time>2020-07-05T05:58:40.000Z</time>
        <extensions>
          <gpxtpx:TrackPointExtension xmlns:gpxtpx="http://www.garmin.com/xmlschemas/TrackPointExtension/v1">
            <gpxtpx:hr>132</gpxtpx:hr>
          </gpxtpx:TrackPointExtension>
        </extensions>
      </trkpt>
      <trkpt lat="45.77879" lon="6.41269">
        <ele>974.20001220703</ele>
        <time>2020-07-05T05:58:42.000Z</time>
        <extensions>
          <gpxtpx:TrackPointExtension xmlns:gpxtpx="http://www.garmin.com/xmlschemas/TrackPointExtension/v1">
            <gpxtpx:hr>132</gpxtpx:hr>
          </gpxtpx:TrackPointExtension>
        </extensions>
      </trkpt>
      <trkpt lat="45.7788" lon="6.41279">
        <ele>975.20001220703</ele>
        <time>2020-07-05T05:58:46.000Z</time>
        <extensions>
          <gpxtpx:TrackPointExtension xmlns:gpxtpx="http://www.garmin.com/xmlschemas/TrackPointExtension/v1">
            <gpxtpx:hr>132</gpxtpx:hr>
          </gpxtpx:TrackPointExtension>
        </extensions>
      </trkpt>
      <trkpt lat="45.77879" lon="6.41282">
        <ele>975.40002441406</ele>
        <time>2020-07-05T05:58:47.000Z</time>
        <extensions>
          <gpxtpx:TrackPointExtension xmlns:gpxtpx="http://www.garmin.com/xmlschemas/TrackPointExtension/v1">
            <gpxtpx:hr>132</gpxtpx:hr>
          </gpxtpx:TrackPointExtension>
        </extensions>
      </trkpt>
      <trkpt lat="45.77875" lon="6.41293">
        <ele>976.40002441406</ele>
        <time>2020-07-05T05:58:50.000Z</time>
        <extensions>
          <gpxtpx:TrackPointExtension xmlns:gpxtpx="http://www.garmin.com/xmlschemas/TrackPointExtension/v1">
            <gpxtpx:hr>132</gpxtpx:hr>
          </gpxtpx:TrackPointExtension>
        </extensions>
      </trkpt>
      <trkpt lat="45.77871" lon="6.41301">
        <ele>976.79998779297</ele>
        <time>2020-07-05T05:58:53.000Z</time>
        <extensions>
          <gpxtpx:TrackPointExtension xmlns:gpxtpx="http://www.garmin.com/xmlschemas/TrackPointExtension/v1">
            <gpxtpx:hr>132</gpxtpx:hr>
          </gpxtpx:TrackPointExtension>
        </extensions>
      </trkpt>
      <trkpt lat="45.77866" lon="6.41309">
        <ele>977.59997558594</ele>
        <time>2020-07-05T05:58:56.000Z</time>
        <extensions>
          <gpxtpx:TrackPointExtension xmlns:gpxtpx="http://www.garmin.com/xmlschemas/TrackPointExtension/v1">
            <gpxtpx:hr>132</gpxtpx:hr>
          </gpxtpx:TrackPointExtension>
        </extensions>
      </trkpt>
      <trkpt lat="45.77858" lon="6.41317">
        <ele>978.40002441406</ele>
        <time>2020-07-05T05:59:00.000Z</time>
        <extensions>
          <gpxtpx:TrackPointExtension xmlns:gpxtpx="http://www.garmin.com/xmlschemas/TrackPointExtension/v1">
            <gpxtpx:hr>131</gpxtpx:hr>
          </gpxtpx:TrackPointExtension>
        </extensions>
      </trkpt>
      <trkpt lat="45.77853" lon="6.41319">
        <ele>978.79998779297</ele>
        <time>2020-07-05T05:59:02.000Z</time>
        <extensions>
          <gpxtpx:TrackPointExtension xmlns:gpxtpx="http://www.garmin.com/xmlschemas/TrackPointExtension/v1">
            <gpxtpx:hr>130</gpxtpx:hr>
          </gpxtpx:TrackPointExtension>
        </extensions>
      </trkpt>
      <trkpt lat="45.77847" lon="6.41326">
        <ele>980</ele>
        <time>2020-07-05T05:59:05.000Z</time>
        <extensions>
          <gpxtpx:TrackPointExtension xmlns:gpxtpx="http://www.garmin.com/xmlschemas/TrackPointExtension/v1">
            <gpxtpx:hr>130</gpxtpx:hr>
          </gpxtpx:TrackPointExtension>
        </extensions>
      </trkpt>
      <trkpt lat="45.77841" lon="6.41333">
        <ele>980.79998779297</ele>
        <time>2020-07-05T05:59:08.000Z</time>
        <extensions>
          <gpxtpx:TrackPointExtension xmlns:gpxtpx="http://www.garmin.com/xmlschemas/TrackPointExtension/v1">
            <gpxtpx:hr>130</gpxtpx:hr>
          </gpxtpx:TrackPointExtension>
        </extensions>
      </trkpt>
      <trkpt lat="45.77839" lon="6.41342">
        <ele>981.20001220703</ele>
        <time>2020-07-05T05:59:10.000Z</time>
        <extensions>
          <gpxtpx:TrackPointExtension xmlns:gpxtpx="http://www.garmin.com/xmlschemas/TrackPointExtension/v1">
            <gpxtpx:hr>130</gpxtpx:hr>
          </gpxtpx:TrackPointExtension>
        </extensions>
      </trkpt>
      <trkpt lat="45.77826" lon="6.4136">
        <ele>982.40002441406</ele>
        <time>2020-07-05T05:59:16.000Z</time>
        <extensions>
          <gpxtpx:TrackPointExtension xmlns:gpxtpx="http://www.garmin.com/xmlschemas/TrackPointExtension/v1">
            <gpxtpx:hr>129</gpxtpx:hr>
          </gpxtpx:TrackPointExtension>
        </extensions>
      </trkpt>
      <trkpt lat="45.77815" lon="6.41368">
        <ele>983.59997558594</ele>
        <time>2020-07-05T05:59:21.000Z</time>
        <extensions>
          <gpxtpx:TrackPointExtension xmlns:gpxtpx="http://www.garmin.com/xmlschemas/TrackPointExtension/v1">
            <gpxtpx:hr>127</gpxtpx:hr>
          </gpxtpx:TrackPointExtension>
        </extensions>
      </trkpt>
      <trkpt lat="45.77809" lon="6.41373">
        <ele>984.20001220703</ele>
        <time>2020-07-05T05:59:24.000Z</time>
        <extensions>
          <gpxtpx:TrackPointExtension xmlns:gpxtpx="http://www.garmin.com/xmlschemas/TrackPointExtension/v1">
            <gpxtpx:hr>127</gpxtpx:hr>
          </gpxtpx:TrackPointExtension>
        </extensions>
      </trkpt>
      <trkpt lat="45.77807" lon="6.41378">
        <ele>984.79998779297</ele>
        <time>2020-07-05T05:59:26.000Z</time>
        <extensions>
          <gpxtpx:TrackPointExtension xmlns:gpxtpx="http://www.garmin.com/xmlschemas/TrackPointExtension/v1">
            <gpxtpx:hr>127</gpxtpx:hr>
          </gpxtpx:TrackPointExtension>
        </extensions>
      </trkpt>
      <trkpt lat="45.77805" lon="6.41387">
        <ele>985.59997558594</ele>
        <time>2020-07-05T05:59:29.000Z</time>
        <extensions>
          <gpxtpx:TrackPointExtension xmlns:gpxtpx="http://www.garmin.com/xmlschemas/TrackPointExtension/v1">
            <gpxtpx:hr>127</gpxtpx:hr>
          </gpxtpx:TrackPointExtension>
        </extensions>
      </trkpt>
      <trkpt lat="45.77808" lon="6.41392">
        <ele>986</ele>
        <time>2020-07-05T05:59:31.000Z</time>
        <extensions>
          <gpxtpx:TrackPointExtension xmlns:gpxtpx="http://www.garmin.com/xmlschemas/TrackPointExtension/v1">
            <gpxtpx:hr>127</gpxtpx:hr>
          </gpxtpx:TrackPointExtension>
        </extensions>
      </trkpt>
      <trkpt lat="45.77812" lon="6.41392">
        <ele>986.59997558594</ele>
        <time>2020-07-05T05:59:33.000Z</time>
        <extensions>
          <gpxtpx:TrackPointExtension xmlns:gpxtpx="http://www.garmin.com/xmlschemas/TrackPointExtension/v1">
            <gpxtpx:hr>127</gpxtpx:hr>
          </gpxtpx:TrackPointExtension>
        </extensions>
      </trkpt>
      <trkpt lat="45.77817" lon="6.41389">
        <ele>987.40002441406</ele>
        <time>2020-07-05T05:59:35.000Z</time>
        <extensions>
          <gpxtpx:TrackPointExtension xmlns:gpxtpx="http://www.garmin.com/xmlschemas/TrackPointExtension/v1">
            <gpxtpx:hr>127</gpxtpx:hr>
          </gpxtpx:TrackPointExtension>
        </extensions>
      </trkpt>
      <trkpt lat="45.77831" lon="6.41382">
        <ele>988.59997558594</ele>
        <time>2020-07-05T05:59:40.000Z</time>
        <extensions>
          <gpxtpx:TrackPointExtension xmlns:gpxtpx="http://www.garmin.com/xmlschemas/TrackPointExtension/v1">
            <gpxtpx:hr>127</gpxtpx:hr>
          </gpxtpx:TrackPointExtension>
        </extensions>
      </trkpt>
      <trkpt lat="45.77834" lon="6.41382">
        <ele>988.79998779297</ele>
        <time>2020-07-05T05:59:41.000Z</time>
        <extensions>
          <gpxtpx:TrackPointExtension xmlns:gpxtpx="http://www.garmin.com/xmlschemas/TrackPointExtension/v1">
            <gpxtpx:hr>127</gpxtpx:hr>
          </gpxtpx:TrackPointExtension>
        </extensions>
      </trkpt>
      <trkpt lat="45.77846" lon="6.41379">
        <ele>989.59997558594</ele>
        <time>2020-07-05T05:59:46.000Z</time>
        <extensions>
          <gpxtpx:TrackPointExtension xmlns:gpxtpx="http://www.garmin.com/xmlschemas/TrackPointExtension/v1">
            <gpxtpx:hr>127</gpxtpx:hr>
          </gpxtpx:TrackPointExtension>
        </extensions>
      </trkpt>
      <trkpt lat="45.77849" lon="6.41378">
        <ele>989.79998779297</ele>
        <time>2020-07-05T05:59:47.000Z</time>
        <extensions>
          <gpxtpx:TrackPointExtension xmlns:gpxtpx="http://www.garmin.com/xmlschemas/TrackPointExtension/v1">
            <gpxtpx:hr>127</gpxtpx:hr>
          </gpxtpx:TrackPointExtension>
        </extensions>
      </trkpt>
      <trkpt lat="45.77858" lon="6.41368">
        <ele>990.59997558594</ele>
        <time>2020-07-05T05:59:51.000Z</time>
        <extensions>
          <gpxtpx:TrackPointExtension xmlns:gpxtpx="http://www.garmin.com/xmlschemas/TrackPointExtension/v1">
            <gpxtpx:hr>127</gpxtpx:hr>
          </gpxtpx:TrackPointExtension>
        </extensions>
      </trkpt>
      <trkpt lat="45.7786" lon="6.41366">
        <ele>990.79998779297</ele>
        <time>2020-07-05T05:59:52.000Z</time>
        <extensions>
          <gpxtpx:TrackPointExtension xmlns:gpxtpx="http://www.garmin.com/xmlschemas/TrackPointExtension/v1">
            <gpxtpx:hr>127</gpxtpx:hr>
          </gpxtpx:TrackPointExtension>
        </extensions>
      </trkpt>
      <trkpt lat="45.77869" lon="6.41358">
        <ele>991.59997558594</ele>
        <time>2020-07-05T05:59:56.000Z</time>
        <extensions>
          <gpxtpx:TrackPointExtension xmlns:gpxtpx="http://www.garmin.com/xmlschemas/TrackPointExtension/v1">
            <gpxtpx:hr>127</gpxtpx:hr>
          </gpxtpx:TrackPointExtension>
        </extensions>
      </trkpt>
      <trkpt lat="45.77872" lon="6.41352">
        <ele>992</ele>
        <time>2020-07-05T05:59:58.000Z</time>
        <extensions>
          <gpxtpx:TrackPointExtension xmlns:gpxtpx="http://www.garmin.com/xmlschemas/TrackPointExtension/v1">
            <gpxtpx:hr>127</gpxtpx:hr>
          </gpxtpx:TrackPointExtension>
        </extensions>
      </trkpt>
      <trkpt lat="45.77875" lon="6.4135">
        <ele>992.20001220703</ele>
        <time>2020-07-05T05:59:59.000Z</time>
        <extensions>
          <gpxtpx:TrackPointExtension xmlns:gpxtpx="http://www.garmin.com/xmlschemas/TrackPointExtension/v1">
            <gpxtpx:hr>127</gpxtpx:hr>
          </gpxtpx:TrackPointExtension>
        </extensions>
      </trkpt>
      <trkpt lat="45.77877" lon="6.41347">
        <ele>992.40002441406</ele>
        <time>2020-07-05T06:00:00.000Z</time>
        <extensions>
          <gpxtpx:TrackPointExtension xmlns:gpxtpx="http://www.garmin.com/xmlschemas/TrackPointExtension/v1">
            <gpxtpx:hr>127</gpxtpx:hr>
          </gpxtpx:TrackPointExtension>
        </extensions>
      </trkpt>
      <trkpt lat="45.77884" lon="6.41335">
        <ele>993</ele>
        <time>2020-07-05T06:00:03.000Z</time>
        <extensions>
          <gpxtpx:TrackPointExtension xmlns:gpxtpx="http://www.garmin.com/xmlschemas/TrackPointExtension/v1">
            <gpxtpx:hr>127</gpxtpx:hr>
          </gpxtpx:TrackPointExtension>
        </extensions>
      </trkpt>
      <trkpt lat="45.77892" lon="6.41332">
        <ele>993.40002441406</ele>
        <time>2020-07-05T06:00:06.000Z</time>
        <extensions>
          <gpxtpx:TrackPointExtension xmlns:gpxtpx="http://www.garmin.com/xmlschemas/TrackPointExtension/v1">
            <gpxtpx:hr>126</gpxtpx:hr>
          </gpxtpx:TrackPointExtension>
        </extensions>
      </trkpt>
      <trkpt lat="45.77897" lon="6.41335">
        <ele>993.59997558594</ele>
        <time>2020-07-05T06:00:08.000Z</time>
        <extensions>
          <gpxtpx:TrackPointExtension xmlns:gpxtpx="http://www.garmin.com/xmlschemas/TrackPointExtension/v1">
            <gpxtpx:hr>125</gpxtpx:hr>
          </gpxtpx:TrackPointExtension>
        </extensions>
      </trkpt>
      <trkpt lat="45.779" lon="6.41345">
        <ele>994</ele>
        <time>2020-07-05T06:00:10.000Z</time>
        <extensions>
          <gpxtpx:TrackPointExtension xmlns:gpxtpx="http://www.garmin.com/xmlschemas/TrackPointExtension/v1">
            <gpxtpx:hr>125</gpxtpx:hr>
          </gpxtpx:TrackPointExtension>
        </extensions>
      </trkpt>
      <trkpt lat="45.77898" lon="6.41351">
        <ele>994.40002441406</ele>
        <time>2020-07-05T06:00:11.000Z</time>
        <extensions>
          <gpxtpx:TrackPointExtension xmlns:gpxtpx="http://www.garmin.com/xmlschemas/TrackPointExtension/v1">
            <gpxtpx:hr>125</gpxtpx:hr>
          </gpxtpx:TrackPointExtension>
        </extensions>
      </trkpt>
      <trkpt lat="45.77897" lon="6.41365">
        <ele>995.59997558594</ele>
        <time>2020-07-05T06:00:14.000Z</time>
        <extensions>
          <gpxtpx:TrackPointExtension xmlns:gpxtpx="http://www.garmin.com/xmlschemas/TrackPointExtension/v1">
            <gpxtpx:hr>124</gpxtpx:hr>
          </gpxtpx:TrackPointExtension>
        </extensions>
      </trkpt>
      <trkpt lat="45.77896" lon="6.41367">
        <ele>996</ele>
        <time>2020-07-05T06:00:15.000Z</time>
        <extensions>
          <gpxtpx:TrackPointExtension xmlns:gpxtpx="http://www.garmin.com/xmlschemas/TrackPointExtension/v1">
            <gpxtpx:hr>124</gpxtpx:hr>
          </gpxtpx:TrackPointExtension>
        </extensions>
      </trkpt>
      <trkpt lat="45.77891" lon="6.41371">
        <ele>996.79998779297</ele>
        <time>2020-07-05T06:00:18.000Z</time>
        <extensions>
          <gpxtpx:TrackPointExtension xmlns:gpxtpx="http://www.garmin.com/xmlschemas/TrackPointExtension/v1">
            <gpxtpx:hr>124</gpxtpx:hr>
          </gpxtpx:TrackPointExtension>
        </extensions>
      </trkpt>
      <trkpt lat="45.77888" lon="6.4138">
        <ele>997.40002441406</ele>
        <time>2020-07-05T06:00:21.000Z</time>
        <extensions>
          <gpxtpx:TrackPointExtension xmlns:gpxtpx="http://www.garmin.com/xmlschemas/TrackPointExtension/v1">
            <gpxtpx:hr>124</gpxtpx:hr>
          </gpxtpx:TrackPointExtension>
        </extensions>
      </trkpt>
      <trkpt lat="45.77884" lon="6.41386">
        <ele>998</ele>
        <time>2020-07-05T06:00:23.000Z</time>
        <extensions>
          <gpxtpx:TrackPointExtension xmlns:gpxtpx="http://www.garmin.com/xmlschemas/TrackPointExtension/v1">
            <gpxtpx:hr>124</gpxtpx:hr>
          </gpxtpx:TrackPointExtension>
        </extensions>
      </trkpt>
      <trkpt lat="45.77879" lon="6.41395">
        <ele>998.59997558594</ele>
        <time>2020-07-05T06:00:26.000Z</time>
        <extensions>
          <gpxtpx:TrackPointExtension xmlns:gpxtpx="http://www.garmin.com/xmlschemas/TrackPointExtension/v1">
            <gpxtpx:hr>124</gpxtpx:hr>
          </gpxtpx:TrackPointExtension>
        </extensions>
      </trkpt>
      <trkpt lat="45.77877" lon="6.41399">
        <ele>999</ele>
        <time>2020-07-05T06:00:28.000Z</time>
        <extensions>
          <gpxtpx:TrackPointExtension xmlns:gpxtpx="http://www.garmin.com/xmlschemas/TrackPointExtension/v1">
            <gpxtpx:hr>124</gpxtpx:hr>
          </gpxtpx:TrackPointExtension>
        </extensions>
      </trkpt>
      <trkpt lat="45.77871" lon="6.41407">
        <ele>1000</ele>
        <time>2020-07-05T06:00:31.000Z</time>
        <extensions>
          <gpxtpx:TrackPointExtension xmlns:gpxtpx="http://www.garmin.com/xmlschemas/TrackPointExtension/v1">
            <gpxtpx:hr>121</gpxtpx:hr>
          </gpxtpx:TrackPointExtension>
        </extensions>
      </trkpt>
      <trkpt lat="45.77869" lon="6.41411">
        <ele>1000.200012207</ele>
        <time>2020-07-05T06:00:32.000Z</time>
        <extensions>
          <gpxtpx:TrackPointExtension xmlns:gpxtpx="http://www.garmin.com/xmlschemas/TrackPointExtension/v1">
            <gpxtpx:hr>120</gpxtpx:hr>
          </gpxtpx:TrackPointExtension>
        </extensions>
      </trkpt>
      <trkpt lat="45.77863" lon="6.41419">
        <ele>1001</ele>
        <time>2020-07-05T06:00:35.000Z</time>
        <extensions>
          <gpxtpx:TrackPointExtension xmlns:gpxtpx="http://www.garmin.com/xmlschemas/TrackPointExtension/v1">
            <gpxtpx:hr>119</gpxtpx:hr>
          </gpxtpx:TrackPointExtension>
        </extensions>
      </trkpt>
      <trkpt lat="45.77859" lon="6.41422">
        <ele>1001.4000244141</ele>
        <time>2020-07-05T06:00:36.000Z</time>
        <extensions>
          <gpxtpx:TrackPointExtension xmlns:gpxtpx="http://www.garmin.com/xmlschemas/TrackPointExtension/v1">
            <gpxtpx:hr>119</gpxtpx:hr>
          </gpxtpx:TrackPointExtension>
        </extensions>
      </trkpt>
      <trkpt lat="45.77849" lon="6.41434">
        <ele>1002.4000244141</ele>
        <time>2020-07-05T06:00:41.000Z</time>
        <extensions>
          <gpxtpx:TrackPointExtension xmlns:gpxtpx="http://www.garmin.com/xmlschemas/TrackPointExtension/v1">
            <gpxtpx:hr>121</gpxtpx:hr>
          </gpxtpx:TrackPointExtension>
        </extensions>
      </trkpt>
      <trkpt lat="45.77841" lon="6.41445">
        <ele>1003.4000244141</ele>
        <time>2020-07-05T06:00:45.000Z</time>
        <extensions>
          <gpxtpx:TrackPointExtension xmlns:gpxtpx="http://www.garmin.com/xmlschemas/TrackPointExtension/v1">
            <gpxtpx:hr>123</gpxtpx:hr>
          </gpxtpx:TrackPointExtension>
        </extensions>
      </trkpt>
      <trkpt lat="45.7783" lon="6.41456">
        <ele>1004.799987793</ele>
        <time>2020-07-05T06:00:50.000Z</time>
        <extensions>
          <gpxtpx:TrackPointExtension xmlns:gpxtpx="http://www.garmin.com/xmlschemas/TrackPointExtension/v1">
            <gpxtpx:hr>124</gpxtpx:hr>
          </gpxtpx:TrackPointExtension>
        </extensions>
      </trkpt>
      <trkpt lat="45.77822" lon="6.41464">
        <ele>1005.799987793</ele>
        <time>2020-07-05T06:00:54.000Z</time>
        <extensions>
          <gpxtpx:TrackPointExtension xmlns:gpxtpx="http://www.garmin.com/xmlschemas/TrackPointExtension/v1">
            <gpxtpx:hr>125</gpxtpx:hr>
          </gpxtpx:TrackPointExtension>
        </extensions>
      </trkpt>
      <trkpt lat="45.77816" lon="6.41468">
        <ele>1006.799987793</ele>
        <time>2020-07-05T06:00:57.000Z</time>
        <extensions>
          <gpxtpx:TrackPointExtension xmlns:gpxtpx="http://www.garmin.com/xmlschemas/TrackPointExtension/v1">
            <gpxtpx:hr>125</gpxtpx:hr>
          </gpxtpx:TrackPointExtension>
        </extensions>
      </trkpt>
      <trkpt lat="45.77809" lon="6.41472">
        <ele>1008</ele>
        <time>2020-07-05T06:01:00.000Z</time>
        <extensions>
          <gpxtpx:TrackPointExtension xmlns:gpxtpx="http://www.garmin.com/xmlschemas/TrackPointExtension/v1">
            <gpxtpx:hr>125</gpxtpx:hr>
          </gpxtpx:TrackPointExtension>
        </extensions>
      </trkpt>
      <trkpt lat="45.77803" lon="6.41475">
        <ele>1008.4000244141</ele>
        <time>2020-07-05T06:01:02.000Z</time>
        <extensions>
          <gpxtpx:TrackPointExtension xmlns:gpxtpx="http://www.garmin.com/xmlschemas/TrackPointExtension/v1">
            <gpxtpx:hr>125</gpxtpx:hr>
          </gpxtpx:TrackPointExtension>
        </extensions>
      </trkpt>
      <trkpt lat="45.77798" lon="6.41478">
        <ele>1009</ele>
        <time>2020-07-05T06:01:04.000Z</time>
        <extensions>
          <gpxtpx:TrackPointExtension xmlns:gpxtpx="http://www.garmin.com/xmlschemas/TrackPointExtension/v1">
            <gpxtpx:hr>125</gpxtpx:hr>
          </gpxtpx:TrackPointExtension>
        </extensions>
      </trkpt>
      <trkpt lat="45.77791" lon="6.41481">
        <ele>1010</ele>
        <time>2020-07-05T06:01:07.000Z</time>
        <extensions>
          <gpxtpx:TrackPointExtension xmlns:gpxtpx="http://www.garmin.com/xmlschemas/TrackPointExtension/v1">
            <gpxtpx:hr>125</gpxtpx:hr>
          </gpxtpx:TrackPointExtension>
        </extensions>
      </trkpt>
      <trkpt lat="45.77782" lon="6.41481">
        <ele>1010.799987793</ele>
        <time>2020-07-05T06:01:10.000Z</time>
        <extensions>
          <gpxtpx:TrackPointExtension xmlns:gpxtpx="http://www.garmin.com/xmlschemas/TrackPointExtension/v1">
            <gpxtpx:hr>125</gpxtpx:hr>
          </gpxtpx:TrackPointExtension>
        </extensions>
      </trkpt>
      <trkpt lat="45.77778" lon="6.41482">
        <ele>1011.4000244141</ele>
        <time>2020-07-05T06:01:12.000Z</time>
        <extensions>
          <gpxtpx:TrackPointExtension xmlns:gpxtpx="http://www.garmin.com/xmlschemas/TrackPointExtension/v1">
            <gpxtpx:hr>125</gpxtpx:hr>
          </gpxtpx:TrackPointExtension>
        </extensions>
      </trkpt>
      <trkpt lat="45.77772" lon="6.41486">
        <ele>1012.200012207</ele>
        <time>2020-07-05T06:01:15.000Z</time>
        <extensions>
          <gpxtpx:TrackPointExtension xmlns:gpxtpx="http://www.garmin.com/xmlschemas/TrackPointExtension/v1">
            <gpxtpx:hr>126</gpxtpx:hr>
          </gpxtpx:TrackPointExtension>
        </extensions>
      </trkpt>
      <trkpt lat="45.77771" lon="6.41489">
        <ele>1012.4000244141</ele>
        <time>2020-07-05T06:01:16.000Z</time>
        <extensions>
          <gpxtpx:TrackPointExtension xmlns:gpxtpx="http://www.garmin.com/xmlschemas/TrackPointExtension/v1">
            <gpxtpx:hr>125</gpxtpx:hr>
          </gpxtpx:TrackPointExtension>
        </extensions>
      </trkpt>
      <trkpt lat="45.7777" lon="6.41493">
        <ele>1012.799987793</ele>
        <time>2020-07-05T06:01:17.000Z</time>
        <extensions>
          <gpxtpx:TrackPointExtension xmlns:gpxtpx="http://www.garmin.com/xmlschemas/TrackPointExtension/v1">
            <gpxtpx:hr>127</gpxtpx:hr>
          </gpxtpx:TrackPointExtension>
        </extensions>
      </trkpt>
      <trkpt lat="45.77772" lon="6.41501">
        <ele>1013.4000244141</ele>
        <time>2020-07-05T06:01:19.000Z</time>
        <extensions>
          <gpxtpx:TrackPointExtension xmlns:gpxtpx="http://www.garmin.com/xmlschemas/TrackPointExtension/v1">
            <gpxtpx:hr>126</gpxtpx:hr>
          </gpxtpx:TrackPointExtension>
        </extensions>
      </trkpt>
      <trkpt lat="45.77774" lon="6.41505">
        <ele>1013.5999755859</ele>
        <time>2020-07-05T06:01:20.000Z</time>
        <extensions>
          <gpxtpx:TrackPointExtension xmlns:gpxtpx="http://www.garmin.com/xmlschemas/TrackPointExtension/v1">
            <gpxtpx:hr>129</gpxtpx:hr>
          </gpxtpx:TrackPointExtension>
        </extensions>
      </trkpt>
      <trkpt lat="45.77778" lon="6.41519">
        <ele>1014.5999755859</ele>
        <time>2020-07-05T06:01:23.000Z</time>
        <extensions>
          <gpxtpx:TrackPointExtension xmlns:gpxtpx="http://www.garmin.com/xmlschemas/TrackPointExtension/v1">
            <gpxtpx:hr>129</gpxtpx:hr>
          </gpxtpx:TrackPointExtension>
        </extensions>
      </trkpt>
      <trkpt lat="45.7778" lon="6.41523">
        <ele>1014.5999755859</ele>
        <time>2020-07-05T06:01:24.000Z</time>
        <extensions>
          <gpxtpx:TrackPointExtension xmlns:gpxtpx="http://www.garmin.com/xmlschemas/TrackPointExtension/v1">
            <gpxtpx:hr>127</gpxtpx:hr>
          </gpxtpx:TrackPointExtension>
        </extensions>
      </trkpt>
      <trkpt lat="45.77783" lon="6.41544">
        <ele>1015.5999755859</ele>
        <time>2020-07-05T06:01:30.000Z</time>
        <extensions>
          <gpxtpx:TrackPointExtension xmlns:gpxtpx="http://www.garmin.com/xmlschemas/TrackPointExtension/v1">
            <gpxtpx:hr>129</gpxtpx:hr>
          </gpxtpx:TrackPointExtension>
        </extensions>
      </trkpt>
      <trkpt lat="45.77784" lon="6.41548">
        <ele>1015.799987793</ele>
        <time>2020-07-05T06:01:31.000Z</time>
        <extensions>
          <gpxtpx:TrackPointExtension xmlns:gpxtpx="http://www.garmin.com/xmlschemas/TrackPointExtension/v1">
            <gpxtpx:hr>129</gpxtpx:hr>
          </gpxtpx:TrackPointExtension>
        </extensions>
      </trkpt>
      <trkpt lat="45.77785" lon="6.41555">
        <ele>1016</ele>
        <time>2020-07-05T06:01:33.000Z</time>
        <extensions>
          <gpxtpx:TrackPointExtension xmlns:gpxtpx="http://www.garmin.com/xmlschemas/TrackPointExtension/v1">
            <gpxtpx:hr>129</gpxtpx:hr>
          </gpxtpx:TrackPointExtension>
        </extensions>
      </trkpt>
      <trkpt lat="45.77789" lon="6.41569">
        <ele>1016.799987793</ele>
        <time>2020-07-05T06:01:37.000Z</time>
        <extensions>
          <gpxtpx:TrackPointExtension xmlns:gpxtpx="http://www.garmin.com/xmlschemas/TrackPointExtension/v1">
            <gpxtpx:hr>131</gpxtpx:hr>
          </gpxtpx:TrackPointExtension>
        </extensions>
      </trkpt>
      <trkpt lat="45.77793" lon="6.41582">
        <ele>1017.799987793</ele>
        <time>2020-07-05T06:01:41.000Z</time>
        <extensions>
          <gpxtpx:TrackPointExtension xmlns:gpxtpx="http://www.garmin.com/xmlschemas/TrackPointExtension/v1">
            <gpxtpx:hr>133</gpxtpx:hr>
          </gpxtpx:TrackPointExtension>
        </extensions>
      </trkpt>
      <trkpt lat="45.77793" lon="6.41585">
        <ele>1018</ele>
        <time>2020-07-05T06:01:42.000Z</time>
        <extensions>
          <gpxtpx:TrackPointExtension xmlns:gpxtpx="http://www.garmin.com/xmlschemas/TrackPointExtension/v1">
            <gpxtpx:hr>133</gpxtpx:hr>
          </gpxtpx:TrackPointExtension>
        </extensions>
      </trkpt>
      <trkpt lat="45.778" lon="6.41605">
        <ele>1019.200012207</ele>
        <time>2020-07-05T06:01:48.000Z</time>
        <extensions>
          <gpxtpx:TrackPointExtension xmlns:gpxtpx="http://www.garmin.com/xmlschemas/TrackPointExtension/v1">
            <gpxtpx:hr>134</gpxtpx:hr>
          </gpxtpx:TrackPointExtension>
        </extensions>
      </trkpt>
      <trkpt lat="45.77803" lon="6.41614">
        <ele>1019.799987793</ele>
        <time>2020-07-05T06:01:51.000Z</time>
        <extensions>
          <gpxtpx:TrackPointExtension xmlns:gpxtpx="http://www.garmin.com/xmlschemas/TrackPointExtension/v1">
            <gpxtpx:hr>133</gpxtpx:hr>
          </gpxtpx:TrackPointExtension>
        </extensions>
      </trkpt>
      <trkpt lat="45.77805" lon="6.4162">
        <ele>1020.200012207</ele>
        <time>2020-07-05T06:01:53.000Z</time>
        <extensions>
          <gpxtpx:TrackPointExtension xmlns:gpxtpx="http://www.garmin.com/xmlschemas/TrackPointExtension/v1">
            <gpxtpx:hr>133</gpxtpx:hr>
          </gpxtpx:TrackPointExtension>
        </extensions>
      </trkpt>
      <trkpt lat="45.7781" lon="6.41633">
        <ele>1021</ele>
        <time>2020-07-05T06:01:57.000Z</time>
        <extensions>
          <gpxtpx:TrackPointExtension xmlns:gpxtpx="http://www.garmin.com/xmlschemas/TrackPointExtension/v1">
            <gpxtpx:hr>134</gpxtpx:hr>
          </gpxtpx:TrackPointExtension>
        </extensions>
      </trkpt>
      <trkpt lat="45.77811" lon="6.41636">
        <ele>1021.200012207</ele>
        <time>2020-07-05T06:01:58.000Z</time>
        <extensions>
          <gpxtpx:TrackPointExtension xmlns:gpxtpx="http://www.garmin.com/xmlschemas/TrackPointExtension/v1">
            <gpxtpx:hr>133</gpxtpx:hr>
          </gpxtpx:TrackPointExtension>
        </extensions>
      </trkpt>
      <trkpt lat="45.77816" lon="6.41648">
        <ele>1022.200012207</ele>
        <time>2020-07-05T06:02:02.000Z</time>
        <extensions>
          <gpxtpx:TrackPointExtension xmlns:gpxtpx="http://www.garmin.com/xmlschemas/TrackPointExtension/v1">
            <gpxtpx:hr>132</gpxtpx:hr>
          </gpxtpx:TrackPointExtension>
        </extensions>
      </trkpt>
      <trkpt lat="45.7782" lon="6.41661">
        <ele>1023</ele>
        <time>2020-07-05T06:02:06.000Z</time>
        <extensions>
          <gpxtpx:TrackPointExtension xmlns:gpxtpx="http://www.garmin.com/xmlschemas/TrackPointExtension/v1">
            <gpxtpx:hr>131</gpxtpx:hr>
          </gpxtpx:TrackPointExtension>
        </extensions>
      </trkpt>
      <trkpt lat="45.77822" lon="6.41667">
        <ele>1023.4000244141</ele>
        <time>2020-07-05T06:02:08.000Z</time>
        <extensions>
          <gpxtpx:TrackPointExtension xmlns:gpxtpx="http://www.garmin.com/xmlschemas/TrackPointExtension/v1">
            <gpxtpx:hr>131</gpxtpx:hr>
          </gpxtpx:TrackPointExtension>
        </extensions>
      </trkpt>
      <trkpt lat="45.77827" lon="6.41678">
        <ele>1024.5999755859</ele>
        <time>2020-07-05T06:02:12.000Z</time>
        <extensions>
          <gpxtpx:TrackPointExtension xmlns:gpxtpx="http://www.garmin.com/xmlschemas/TrackPointExtension/v1">
            <gpxtpx:hr>132</gpxtpx:hr>
          </gpxtpx:TrackPointExtension>
        </extensions>
      </trkpt>
      <trkpt lat="45.77834" lon="6.41691">
        <ele>1025.5999755859</ele>
        <time>2020-07-05T06:02:17.000Z</time>
        <extensions>
          <gpxtpx:TrackPointExtension xmlns:gpxtpx="http://www.garmin.com/xmlschemas/TrackPointExtension/v1">
            <gpxtpx:hr>131</gpxtpx:hr>
          </gpxtpx:TrackPointExtension>
        </extensions>
      </trkpt>
      <trkpt lat="45.77837" lon="6.41707">
        <ele>1026.8000488281</ele>
        <time>2020-07-05T06:02:22.000Z</time>
        <extensions>
          <gpxtpx:TrackPointExtension xmlns:gpxtpx="http://www.garmin.com/xmlschemas/TrackPointExtension/v1">
            <gpxtpx:hr>130</gpxtpx:hr>
          </gpxtpx:TrackPointExtension>
        </extensions>
      </trkpt>
      <trkpt lat="45.77835" lon="6.41719">
        <ele>1027.8000488281</ele>
        <time>2020-07-05T06:02:26.000Z</time>
        <extensions>
          <gpxtpx:TrackPointExtension xmlns:gpxtpx="http://www.garmin.com/xmlschemas/TrackPointExtension/v1">
            <gpxtpx:hr>127</gpxtpx:hr>
          </gpxtpx:TrackPointExtension>
        </extensions>
      </trkpt>
      <trkpt lat="45.77831" lon="6.4173">
        <ele>1029</ele>
        <time>2020-07-05T06:02:30.000Z</time>
        <extensions>
          <gpxtpx:TrackPointExtension xmlns:gpxtpx="http://www.garmin.com/xmlschemas/TrackPointExtension/v1">
            <gpxtpx:hr>127</gpxtpx:hr>
          </gpxtpx:TrackPointExtension>
        </extensions>
      </trkpt>
      <trkpt lat="45.77831" lon="6.41737">
        <ele>1029.1999511719</ele>
        <time>2020-07-05T06:02:32.000Z</time>
        <extensions>
          <gpxtpx:TrackPointExtension xmlns:gpxtpx="http://www.garmin.com/xmlschemas/TrackPointExtension/v1">
            <gpxtpx:hr>126</gpxtpx:hr>
          </gpxtpx:TrackPointExtension>
        </extensions>
      </trkpt>
      <trkpt lat="45.77832" lon="6.41746">
        <ele>1030</ele>
        <time>2020-07-05T06:02:35.000Z</time>
        <extensions>
          <gpxtpx:TrackPointExtension xmlns:gpxtpx="http://www.garmin.com/xmlschemas/TrackPointExtension/v1">
            <gpxtpx:hr>125</gpxtpx:hr>
          </gpxtpx:TrackPointExtension>
        </extensions>
      </trkpt>
      <trkpt lat="45.77833" lon="6.41759">
        <ele>1030.8000488281</ele>
        <time>2020-07-05T06:02:39.000Z</time>
        <extensions>
          <gpxtpx:TrackPointExtension xmlns:gpxtpx="http://www.garmin.com/xmlschemas/TrackPointExtension/v1">
            <gpxtpx:hr>125</gpxtpx:hr>
          </gpxtpx:TrackPointExtension>
        </extensions>
      </trkpt>
      <trkpt lat="45.77834" lon="6.41762">
        <ele>1031</ele>
        <time>2020-07-05T06:02:40.000Z</time>
        <extensions>
          <gpxtpx:TrackPointExtension xmlns:gpxtpx="http://www.garmin.com/xmlschemas/TrackPointExtension/v1">
            <gpxtpx:hr>126</gpxtpx:hr>
          </gpxtpx:TrackPointExtension>
        </extensions>
      </trkpt>
      <trkpt lat="45.77837" lon="6.41776">
        <ele>1032</ele>
        <time>2020-07-05T06:02:44.000Z</time>
        <extensions>
          <gpxtpx:TrackPointExtension xmlns:gpxtpx="http://www.garmin.com/xmlschemas/TrackPointExtension/v1">
            <gpxtpx:hr>125</gpxtpx:hr>
          </gpxtpx:TrackPointExtension>
        </extensions>
      </trkpt>
      <trkpt lat="45.77837" lon="6.4178">
        <ele>1032.4000244141</ele>
        <time>2020-07-05T06:02:45.000Z</time>
        <extensions>
          <gpxtpx:TrackPointExtension xmlns:gpxtpx="http://www.garmin.com/xmlschemas/TrackPointExtension/v1">
            <gpxtpx:hr>126</gpxtpx:hr>
          </gpxtpx:TrackPointExtension>
        </extensions>
      </trkpt>
      <trkpt lat="45.77838" lon="6.41792">
        <ele>1033.1999511719</ele>
        <time>2020-07-05T06:02:48.000Z</time>
        <extensions>
          <gpxtpx:TrackPointExtension xmlns:gpxtpx="http://www.garmin.com/xmlschemas/TrackPointExtension/v1">
            <gpxtpx:hr>125</gpxtpx:hr>
          </gpxtpx:TrackPointExtension>
        </extensions>
      </trkpt>
      <trkpt lat="45.7784" lon="6.41802">
        <ele>1034</ele>
        <time>2020-07-05T06:02:51.000Z</time>
        <extensions>
          <gpxtpx:TrackPointExtension xmlns:gpxtpx="http://www.garmin.com/xmlschemas/TrackPointExtension/v1">
            <gpxtpx:hr>125</gpxtpx:hr>
          </gpxtpx:TrackPointExtension>
        </extensions>
      </trkpt>
      <trkpt lat="45.77843" lon="6.41806">
        <ele>1034.1999511719</ele>
        <time>2020-07-05T06:02:52.000Z</time>
        <extensions>
          <gpxtpx:TrackPointExtension xmlns:gpxtpx="http://www.garmin.com/xmlschemas/TrackPointExtension/v1">
            <gpxtpx:hr>125</gpxtpx:hr>
          </gpxtpx:TrackPointExtension>
        </extensions>
      </trkpt>
      <trkpt lat="45.7785" lon="6.41822">
        <ele>1035.4000244141</ele>
        <time>2020-07-05T06:02:57.000Z</time>
        <extensions>
          <gpxtpx:TrackPointExtension xmlns:gpxtpx="http://www.garmin.com/xmlschemas/TrackPointExtension/v1">
            <gpxtpx:hr>125</gpxtpx:hr>
          </gpxtpx:TrackPointExtension>
        </extensions>
      </trkpt>
      <trkpt lat="45.77853" lon="6.41825">
        <ele>1035.5999755859</ele>
        <time>2020-07-05T06:02:58.000Z</time>
        <extensions>
          <gpxtpx:TrackPointExtension xmlns:gpxtpx="http://www.garmin.com/xmlschemas/TrackPointExtension/v1">
            <gpxtpx:hr>125</gpxtpx:hr>
          </gpxtpx:TrackPointExtension>
        </extensions>
      </trkpt>
      <trkpt lat="45.77857" lon="6.41833">
        <ele>1036.1999511719</ele>
        <time>2020-07-05T06:03:01.000Z</time>
        <extensions>
          <gpxtpx:TrackPointExtension xmlns:gpxtpx="http://www.garmin.com/xmlschemas/TrackPointExtension/v1">
            <gpxtpx:hr>126</gpxtpx:hr>
          </gpxtpx:TrackPointExtension>
        </extensions>
      </trkpt>
      <trkpt lat="45.77858" lon="6.41836">
        <ele>1036.4000244141</ele>
        <time>2020-07-05T06:03:02.000Z</time>
        <extensions>
          <gpxtpx:TrackPointExtension xmlns:gpxtpx="http://www.garmin.com/xmlschemas/TrackPointExtension/v1">
            <gpxtpx:hr>126</gpxtpx:hr>
          </gpxtpx:TrackPointExtension>
        </extensions>
      </trkpt>
      <trkpt lat="45.7786" lon="6.41847">
        <ele>1037.1999511719</ele>
        <time>2020-07-05T06:03:05.000Z</time>
        <extensions>
          <gpxtpx:TrackPointExtension xmlns:gpxtpx="http://www.garmin.com/xmlschemas/TrackPointExtension/v1">
            <gpxtpx:hr>125</gpxtpx:hr>
          </gpxtpx:TrackPointExtension>
        </extensions>
      </trkpt>
      <trkpt lat="45.7786" lon="6.4185">
        <ele>1037.4000244141</ele>
        <time>2020-07-05T06:03:06.000Z</time>
        <extensions>
          <gpxtpx:TrackPointExtension xmlns:gpxtpx="http://www.garmin.com/xmlschemas/TrackPointExtension/v1">
            <gpxtpx:hr>125</gpxtpx:hr>
          </gpxtpx:TrackPointExtension>
        </extensions>
      </trkpt>
      <trkpt lat="45.7786" lon="6.41854">
        <ele>1037.5999755859</ele>
        <time>2020-07-05T06:03:07.000Z</time>
        <extensions>
          <gpxtpx:TrackPointExtension xmlns:gpxtpx="http://www.garmin.com/xmlschemas/TrackPointExtension/v1">
            <gpxtpx:hr>125</gpxtpx:hr>
          </gpxtpx:TrackPointExtension>
        </extensions>
      </trkpt>
      <trkpt lat="45.77857" lon="6.41869">
        <ele>1038.5999755859</ele>
        <time>2020-07-05T06:03:12.000Z</time>
        <extensions>
          <gpxtpx:TrackPointExtension xmlns:gpxtpx="http://www.garmin.com/xmlschemas/TrackPointExtension/v1">
            <gpxtpx:hr>126</gpxtpx:hr>
          </gpxtpx:TrackPointExtension>
        </extensions>
      </trkpt>
      <trkpt lat="45.77858" lon="6.41872">
        <ele>1038.8000488281</ele>
        <time>2020-07-05T06:03:13.000Z</time>
        <extensions>
          <gpxtpx:TrackPointExtension xmlns:gpxtpx="http://www.garmin.com/xmlschemas/TrackPointExtension/v1">
            <gpxtpx:hr>126</gpxtpx:hr>
          </gpxtpx:TrackPointExtension>
        </extensions>
      </trkpt>
      <trkpt lat="45.7786" lon="6.41876">
        <ele>1039</ele>
        <time>2020-07-05T06:03:15.000Z</time>
        <extensions>
          <gpxtpx:TrackPointExtension xmlns:gpxtpx="http://www.garmin.com/xmlschemas/TrackPointExtension/v1">
            <gpxtpx:hr>126</gpxtpx:hr>
          </gpxtpx:TrackPointExtension>
        </extensions>
      </trkpt>
      <trkpt lat="45.77861" lon="6.41877">
        <ele>1039.1999511719</ele>
        <time>2020-07-05T06:03:16.000Z</time>
        <extensions>
          <gpxtpx:TrackPointExtension xmlns:gpxtpx="http://www.garmin.com/xmlschemas/TrackPointExtension/v1">
            <gpxtpx:hr>126</gpxtpx:hr>
          </gpxtpx:TrackPointExtension>
        </extensions>
      </trkpt>
      <trkpt lat="45.77863" lon="6.41877">
        <ele>1039.5999755859</ele>
        <time>2020-07-05T06:03:17.000Z</time>
        <extensions>
          <gpxtpx:TrackPointExtension xmlns:gpxtpx="http://www.garmin.com/xmlschemas/TrackPointExtension/v1">
            <gpxtpx:hr>126</gpxtpx:hr>
          </gpxtpx:TrackPointExtension>
        </extensions>
      </trkpt>
      <trkpt lat="45.77865" lon="6.41876">
        <ele>1039.8000488281</ele>
        <time>2020-07-05T06:03:18.000Z</time>
        <extensions>
          <gpxtpx:TrackPointExtension xmlns:gpxtpx="http://www.garmin.com/xmlschemas/TrackPointExtension/v1">
            <gpxtpx:hr>126</gpxtpx:hr>
          </gpxtpx:TrackPointExtension>
        </extensions>
      </trkpt>
      <trkpt lat="45.77869" lon="6.41872">
        <ele>1040.4000244141</ele>
        <time>2020-07-05T06:03:20.000Z</time>
        <extensions>
          <gpxtpx:TrackPointExtension xmlns:gpxtpx="http://www.garmin.com/xmlschemas/TrackPointExtension/v1">
            <gpxtpx:hr>126</gpxtpx:hr>
          </gpxtpx:TrackPointExtension>
        </extensions>
      </trkpt>
      <trkpt lat="45.77871" lon="6.41866">
        <ele>1041</ele>
        <time>2020-07-05T06:03:22.000Z</time>
        <extensions>
          <gpxtpx:TrackPointExtension xmlns:gpxtpx="http://www.garmin.com/xmlschemas/TrackPointExtension/v1">
            <gpxtpx:hr>127</gpxtpx:hr>
          </gpxtpx:TrackPointExtension>
        </extensions>
      </trkpt>
      <trkpt lat="45.77874" lon="6.41854">
        <ele>1042</ele>
        <time>2020-07-05T06:03:26.000Z</time>
        <extensions>
          <gpxtpx:TrackPointExtension xmlns:gpxtpx="http://www.garmin.com/xmlschemas/TrackPointExtension/v1">
            <gpxtpx:hr>126</gpxtpx:hr>
          </gpxtpx:TrackPointExtension>
        </extensions>
      </trkpt>
      <trkpt lat="45.77875" lon="6.41838">
        <ele>1043.1999511719</ele>
        <time>2020-07-05T06:03:31.000Z</time>
        <extensions>
          <gpxtpx:TrackPointExtension xmlns:gpxtpx="http://www.garmin.com/xmlschemas/TrackPointExtension/v1">
            <gpxtpx:hr>126</gpxtpx:hr>
          </gpxtpx:TrackPointExtension>
        </extensions>
      </trkpt>
      <trkpt lat="45.77874" lon="6.41832">
        <ele>1043.8000488281</ele>
        <time>2020-07-05T06:03:33.000Z</time>
        <extensions>
          <gpxtpx:TrackPointExtension xmlns:gpxtpx="http://www.garmin.com/xmlschemas/TrackPointExtension/v1">
            <gpxtpx:hr>125</gpxtpx:hr>
          </gpxtpx:TrackPointExtension>
        </extensions>
      </trkpt>
      <trkpt lat="45.77871" lon="6.41821">
        <ele>1044.1999511719</ele>
        <time>2020-07-05T06:03:36.000Z</time>
        <extensions>
          <gpxtpx:TrackPointExtension xmlns:gpxtpx="http://www.garmin.com/xmlschemas/TrackPointExtension/v1">
            <gpxtpx:hr>124</gpxtpx:hr>
          </gpxtpx:TrackPointExtension>
        </extensions>
      </trkpt>
      <trkpt lat="45.77868" lon="6.41811">
        <ele>1045</ele>
        <time>2020-07-05T06:03:39.000Z</time>
        <extensions>
          <gpxtpx:TrackPointExtension xmlns:gpxtpx="http://www.garmin.com/xmlschemas/TrackPointExtension/v1">
            <gpxtpx:hr>124</gpxtpx:hr>
          </gpxtpx:TrackPointExtension>
        </extensions>
      </trkpt>
      <trkpt lat="45.77867" lon="6.41807">
        <ele>1045.4000244141</ele>
        <time>2020-07-05T06:03:40.000Z</time>
        <extensions>
          <gpxtpx:TrackPointExtension xmlns:gpxtpx="http://www.garmin.com/xmlschemas/TrackPointExtension/v1">
            <gpxtpx:hr>124</gpxtpx:hr>
          </gpxtpx:TrackPointExtension>
        </extensions>
      </trkpt>
      <trkpt lat="45.77866" lon="6.41794">
        <ele>1046.8000488281</ele>
        <time>2020-07-05T06:03:43.000Z</time>
        <extensions>
          <gpxtpx:TrackPointExtension xmlns:gpxtpx="http://www.garmin.com/xmlschemas/TrackPointExtension/v1">
            <gpxtpx:hr>124</gpxtpx:hr>
          </gpxtpx:TrackPointExtension>
        </extensions>
      </trkpt>
      <trkpt lat="45.77869" lon="6.41784">
        <ele>1047.4000244141</ele>
        <time>2020-07-05T06:03:46.000Z</time>
        <extensions>
          <gpxtpx:TrackPointExtension xmlns:gpxtpx="http://www.garmin.com/xmlschemas/TrackPointExtension/v1">
            <gpxtpx:hr>124</gpxtpx:hr>
          </gpxtpx:TrackPointExtension>
        </extensions>
      </trkpt>
      <trkpt lat="45.77868" lon="6.41775">
        <ele>1048</ele>
        <time>2020-07-05T06:03:48.000Z</time>
        <extensions>
          <gpxtpx:TrackPointExtension xmlns:gpxtpx="http://www.garmin.com/xmlschemas/TrackPointExtension/v1">
            <gpxtpx:hr>125</gpxtpx:hr>
          </gpxtpx:TrackPointExtension>
        </extensions>
      </trkpt>
      <trkpt lat="45.77872" lon="6.41762">
        <ele>1049</ele>
        <time>2020-07-05T06:03:51.000Z</time>
        <extensions>
          <gpxtpx:TrackPointExtension xmlns:gpxtpx="http://www.garmin.com/xmlschemas/TrackPointExtension/v1">
            <gpxtpx:hr>125</gpxtpx:hr>
          </gpxtpx:TrackPointExtension>
        </extensions>
      </trkpt>
      <trkpt lat="45.77887" lon="6.41751">
        <ele>1050</ele>
        <time>2020-07-05T06:03:56.000Z</time>
        <extensions>
          <gpxtpx:TrackPointExtension xmlns:gpxtpx="http://www.garmin.com/xmlschemas/TrackPointExtension/v1">
            <gpxtpx:hr>125</gpxtpx:hr>
          </gpxtpx:TrackPointExtension>
        </extensions>
      </trkpt>
      <trkpt lat="45.77887" lon="6.41747">
        <ele>1050.5999755859</ele>
        <time>2020-07-05T06:03:57.000Z</time>
        <extensions>
          <gpxtpx:TrackPointExtension xmlns:gpxtpx="http://www.garmin.com/xmlschemas/TrackPointExtension/v1">
            <gpxtpx:hr>125</gpxtpx:hr>
          </gpxtpx:TrackPointExtension>
        </extensions>
      </trkpt>
      <trkpt lat="45.77888" lon="6.41739">
        <ele>1051.1999511719</ele>
        <time>2020-07-05T06:03:59.000Z</time>
        <extensions>
          <gpxtpx:TrackPointExtension xmlns:gpxtpx="http://www.garmin.com/xmlschemas/TrackPointExtension/v1">
            <gpxtpx:hr>126</gpxtpx:hr>
          </gpxtpx:TrackPointExtension>
        </extensions>
      </trkpt>
      <trkpt lat="45.77891" lon="6.41717">
        <ele>1052</ele>
        <time>2020-07-05T06:04:04.000Z</time>
        <extensions>
          <gpxtpx:TrackPointExtension xmlns:gpxtpx="http://www.garmin.com/xmlschemas/TrackPointExtension/v1">
            <gpxtpx:hr>125</gpxtpx:hr>
          </gpxtpx:TrackPointExtension>
        </extensions>
      </trkpt>
      <trkpt lat="45.77891" lon="6.41713">
        <ele>1052.4000244141</ele>
        <time>2020-07-05T06:04:05.000Z</time>
        <extensions>
          <gpxtpx:TrackPointExtension xmlns:gpxtpx="http://www.garmin.com/xmlschemas/TrackPointExtension/v1">
            <gpxtpx:hr>125</gpxtpx:hr>
          </gpxtpx:TrackPointExtension>
        </extensions>
      </trkpt>
      <trkpt lat="45.77897" lon="6.41706">
        <ele>1053</ele>
        <time>2020-07-05T06:04:08.000Z</time>
        <extensions>
          <gpxtpx:TrackPointExtension xmlns:gpxtpx="http://www.garmin.com/xmlschemas/TrackPointExtension/v1">
            <gpxtpx:hr>124</gpxtpx:hr>
          </gpxtpx:TrackPointExtension>
        </extensions>
      </trkpt>
      <trkpt lat="45.77898" lon="6.41702">
        <ele>1053</ele>
        <time>2020-07-05T06:04:09.000Z</time>
        <extensions>
          <gpxtpx:TrackPointExtension xmlns:gpxtpx="http://www.garmin.com/xmlschemas/TrackPointExtension/v1">
            <gpxtpx:hr>124</gpxtpx:hr>
          </gpxtpx:TrackPointExtension>
        </extensions>
      </trkpt>
      <trkpt lat="45.77901" lon="6.41698">
        <ele>1053.4000244141</ele>
        <time>2020-07-05T06:04:11.000Z</time>
        <extensions>
          <gpxtpx:TrackPointExtension xmlns:gpxtpx="http://www.garmin.com/xmlschemas/TrackPointExtension/v1">
            <gpxtpx:hr>122</gpxtpx:hr>
          </gpxtpx:TrackPointExtension>
        </extensions>
      </trkpt>
      <trkpt lat="45.77907" lon="6.41685">
        <ele>1054.5999755859</ele>
        <time>2020-07-05T06:04:16.000Z</time>
        <extensions>
          <gpxtpx:TrackPointExtension xmlns:gpxtpx="http://www.garmin.com/xmlschemas/TrackPointExtension/v1">
            <gpxtpx:hr>124</gpxtpx:hr>
          </gpxtpx:TrackPointExtension>
        </extensions>
      </trkpt>
      <trkpt lat="45.77908" lon="6.41682">
        <ele>1054.8000488281</ele>
        <time>2020-07-05T06:04:17.000Z</time>
        <extensions>
          <gpxtpx:TrackPointExtension xmlns:gpxtpx="http://www.garmin.com/xmlschemas/TrackPointExtension/v1">
            <gpxtpx:hr>124</gpxtpx:hr>
          </gpxtpx:TrackPointExtension>
        </extensions>
      </trkpt>
      <trkpt lat="45.7791" lon="6.41669">
        <ele>1055.5999755859</ele>
        <time>2020-07-05T06:04:21.000Z</time>
        <extensions>
          <gpxtpx:TrackPointExtension xmlns:gpxtpx="http://www.garmin.com/xmlschemas/TrackPointExtension/v1">
            <gpxtpx:hr>127</gpxtpx:hr>
          </gpxtpx:TrackPointExtension>
        </extensions>
      </trkpt>
      <trkpt lat="45.77911" lon="6.41665">
        <ele>1055.8000488281</ele>
        <time>2020-07-05T06:04:22.000Z</time>
        <extensions>
          <gpxtpx:TrackPointExtension xmlns:gpxtpx="http://www.garmin.com/xmlschemas/TrackPointExtension/v1">
            <gpxtpx:hr>123</gpxtpx:hr>
          </gpxtpx:TrackPointExtension>
        </extensions>
      </trkpt>
      <trkpt lat="45.77915" lon="6.41655">
        <ele>1056.4000244141</ele>
        <time>2020-07-05T06:04:25.000Z</time>
        <extensions>
          <gpxtpx:TrackPointExtension xmlns:gpxtpx="http://www.garmin.com/xmlschemas/TrackPointExtension/v1">
            <gpxtpx:hr>124</gpxtpx:hr>
          </gpxtpx:TrackPointExtension>
        </extensions>
      </trkpt>
      <trkpt lat="45.77915" lon="6.41648">
        <ele>1056.8000488281</ele>
        <time>2020-07-05T06:04:27.000Z</time>
        <extensions>
          <gpxtpx:TrackPointExtension xmlns:gpxtpx="http://www.garmin.com/xmlschemas/TrackPointExtension/v1">
            <gpxtpx:hr>124</gpxtpx:hr>
          </gpxtpx:TrackPointExtension>
        </extensions>
      </trkpt>
      <trkpt lat="45.77916" lon="6.41635">
        <ele>1057.8000488281</ele>
        <time>2020-07-05T06:04:31.000Z</time>
        <extensions>
          <gpxtpx:TrackPointExtension xmlns:gpxtpx="http://www.garmin.com/xmlschemas/TrackPointExtension/v1">
            <gpxtpx:hr>126</gpxtpx:hr>
          </gpxtpx:TrackPointExtension>
        </extensions>
      </trkpt>
      <trkpt lat="45.77916" lon="6.41618">
        <ele>1059</ele>
        <time>2020-07-05T06:04:36.000Z</time>
        <extensions>
          <gpxtpx:TrackPointExtension xmlns:gpxtpx="http://www.garmin.com/xmlschemas/TrackPointExtension/v1">
            <gpxtpx:hr>127</gpxtpx:hr>
          </gpxtpx:TrackPointExtension>
        </extensions>
      </trkpt>
      <trkpt lat="45.77917" lon="6.41601">
        <ele>1060</ele>
        <time>2020-07-05T06:04:41.000Z</time>
        <extensions>
          <gpxtpx:TrackPointExtension xmlns:gpxtpx="http://www.garmin.com/xmlschemas/TrackPointExtension/v1">
            <gpxtpx:hr>128</gpxtpx:hr>
          </gpxtpx:TrackPointExtension>
        </extensions>
      </trkpt>
      <trkpt lat="45.77918" lon="6.41598">
        <ele>1060.1999511719</ele>
        <time>2020-07-05T06:04:42.000Z</time>
        <extensions>
          <gpxtpx:TrackPointExtension xmlns:gpxtpx="http://www.garmin.com/xmlschemas/TrackPointExtension/v1">
            <gpxtpx:hr>128</gpxtpx:hr>
          </gpxtpx:TrackPointExtension>
        </extensions>
      </trkpt>
      <trkpt lat="45.77926" lon="6.41592">
        <ele>1060.8000488281</ele>
        <time>2020-07-05T06:04:46.000Z</time>
        <extensions>
          <gpxtpx:TrackPointExtension xmlns:gpxtpx="http://www.garmin.com/xmlschemas/TrackPointExtension/v1">
            <gpxtpx:hr>128</gpxtpx:hr>
          </gpxtpx:TrackPointExtension>
        </extensions>
      </trkpt>
      <trkpt lat="45.77928" lon="6.41593">
        <ele>1061</ele>
        <time>2020-07-05T06:04:47.000Z</time>
        <extensions>
          <gpxtpx:TrackPointExtension xmlns:gpxtpx="http://www.garmin.com/xmlschemas/TrackPointExtension/v1">
            <gpxtpx:hr>128</gpxtpx:hr>
          </gpxtpx:TrackPointExtension>
        </extensions>
      </trkpt>
      <trkpt lat="45.77931" lon="6.416">
        <ele>1062</ele>
        <time>2020-07-05T06:04:49.000Z</time>
        <extensions>
          <gpxtpx:TrackPointExtension xmlns:gpxtpx="http://www.garmin.com/xmlschemas/TrackPointExtension/v1">
            <gpxtpx:hr>128</gpxtpx:hr>
          </gpxtpx:TrackPointExtension>
        </extensions>
      </trkpt>
      <trkpt lat="45.77931" lon="6.41603">
        <ele>1062.1999511719</ele>
        <time>2020-07-05T06:04:50.000Z</time>
        <extensions>
          <gpxtpx:TrackPointExtension xmlns:gpxtpx="http://www.garmin.com/xmlschemas/TrackPointExtension/v1">
            <gpxtpx:hr>128</gpxtpx:hr>
          </gpxtpx:TrackPointExtension>
        </extensions>
      </trkpt>
      <trkpt lat="45.77933" lon="6.41618">
        <ele>1063.4000244141</ele>
        <time>2020-07-05T06:04:54.000Z</time>
        <extensions>
          <gpxtpx:TrackPointExtension xmlns:gpxtpx="http://www.garmin.com/xmlschemas/TrackPointExtension/v1">
            <gpxtpx:hr>128</gpxtpx:hr>
          </gpxtpx:TrackPointExtension>
        </extensions>
      </trkpt>
      <trkpt lat="45.77935" lon="6.41638">
        <ele>1064.1999511719</ele>
        <time>2020-07-05T06:04:59.000Z</time>
        <extensions>
          <gpxtpx:TrackPointExtension xmlns:gpxtpx="http://www.garmin.com/xmlschemas/TrackPointExtension/v1">
            <gpxtpx:hr>128</gpxtpx:hr>
          </gpxtpx:TrackPointExtension>
        </extensions>
      </trkpt>
      <trkpt lat="45.77935" lon="6.41641">
        <ele>1064.4000244141</ele>
        <time>2020-07-05T06:05:00.000Z</time>
        <extensions>
          <gpxtpx:TrackPointExtension xmlns:gpxtpx="http://www.garmin.com/xmlschemas/TrackPointExtension/v1">
            <gpxtpx:hr>127</gpxtpx:hr>
          </gpxtpx:TrackPointExtension>
        </extensions>
      </trkpt>
      <trkpt lat="45.77938" lon="6.41665">
        <ele>1065.5999755859</ele>
        <time>2020-07-05T06:05:06.000Z</time>
        <extensions>
          <gpxtpx:TrackPointExtension xmlns:gpxtpx="http://www.garmin.com/xmlschemas/TrackPointExtension/v1">
            <gpxtpx:hr>127</gpxtpx:hr>
          </gpxtpx:TrackPointExtension>
        </extensions>
      </trkpt>
      <trkpt lat="45.77942" lon="6.41685">
        <ele>1066.5999755859</ele>
        <time>2020-07-05T06:05:12.000Z</time>
        <extensions>
          <gpxtpx:TrackPointExtension xmlns:gpxtpx="http://www.garmin.com/xmlschemas/TrackPointExtension/v1">
            <gpxtpx:hr>126</gpxtpx:hr>
          </gpxtpx:TrackPointExtension>
        </extensions>
      </trkpt>
      <trkpt lat="45.77944" lon="6.41691">
        <ele>1067.1999511719</ele>
        <time>2020-07-05T06:05:14.000Z</time>
        <extensions>
          <gpxtpx:TrackPointExtension xmlns:gpxtpx="http://www.garmin.com/xmlschemas/TrackPointExtension/v1">
            <gpxtpx:hr>126</gpxtpx:hr>
          </gpxtpx:TrackPointExtension>
        </extensions>
      </trkpt>
      <trkpt lat="45.77946" lon="6.41698">
        <ele>1067.5999755859</ele>
        <time>2020-07-05T06:05:16.000Z</time>
        <extensions>
          <gpxtpx:TrackPointExtension xmlns:gpxtpx="http://www.garmin.com/xmlschemas/TrackPointExtension/v1">
            <gpxtpx:hr>126</gpxtpx:hr>
          </gpxtpx:TrackPointExtension>
        </extensions>
      </trkpt>
      <trkpt lat="45.77951" lon="6.41715">
        <ele>1068.8000488281</ele>
        <time>2020-07-05T06:05:21.000Z</time>
        <extensions>
          <gpxtpx:TrackPointExtension xmlns:gpxtpx="http://www.garmin.com/xmlschemas/TrackPointExtension/v1">
            <gpxtpx:hr>126</gpxtpx:hr>
          </gpxtpx:TrackPointExtension>
        </extensions>
      </trkpt>
      <trkpt lat="45.77953" lon="6.41721">
        <ele>1069.1999511719</ele>
        <time>2020-07-05T06:05:23.000Z</time>
        <extensions>
          <gpxtpx:TrackPointExtension xmlns:gpxtpx="http://www.garmin.com/xmlschemas/TrackPointExtension/v1">
            <gpxtpx:hr>126</gpxtpx:hr>
          </gpxtpx:TrackPointExtension>
        </extensions>
      </trkpt>
      <trkpt lat="45.77956" lon="6.41731">
        <ele>1070</ele>
        <time>2020-07-05T06:05:26.000Z</time>
        <extensions>
          <gpxtpx:TrackPointExtension xmlns:gpxtpx="http://www.garmin.com/xmlschemas/TrackPointExtension/v1">
            <gpxtpx:hr>126</gpxtpx:hr>
          </gpxtpx:TrackPointExtension>
        </extensions>
      </trkpt>
      <trkpt lat="45.77962" lon="6.41741">
        <ele>1071.1999511719</ele>
        <time>2020-07-05T06:05:30.000Z</time>
        <extensions>
          <gpxtpx:TrackPointExtension xmlns:gpxtpx="http://www.garmin.com/xmlschemas/TrackPointExtension/v1">
            <gpxtpx:hr>127</gpxtpx:hr>
          </gpxtpx:TrackPointExtension>
        </extensions>
      </trkpt>
      <trkpt lat="45.77964" lon="6.41744">
        <ele>1071.5999755859</ele>
        <time>2020-07-05T06:05:31.000Z</time>
        <extensions>
          <gpxtpx:TrackPointExtension xmlns:gpxtpx="http://www.garmin.com/xmlschemas/TrackPointExtension/v1">
            <gpxtpx:hr>127</gpxtpx:hr>
          </gpxtpx:TrackPointExtension>
        </extensions>
      </trkpt>
      <trkpt lat="45.77968" lon="6.41748">
        <ele>1072.1999511719</ele>
        <time>2020-07-05T06:05:33.000Z</time>
        <extensions>
          <gpxtpx:TrackPointExtension xmlns:gpxtpx="http://www.garmin.com/xmlschemas/TrackPointExtension/v1">
            <gpxtpx:hr>127</gpxtpx:hr>
          </gpxtpx:TrackPointExtension>
        </extensions>
      </trkpt>
      <trkpt lat="45.77975" lon="6.41763">
        <ele>1073.1999511719</ele>
        <time>2020-07-05T06:05:38.000Z</time>
        <extensions>
          <gpxtpx:TrackPointExtension xmlns:gpxtpx="http://www.garmin.com/xmlschemas/TrackPointExtension/v1">
            <gpxtpx:hr>127</gpxtpx:hr>
          </gpxtpx:TrackPointExtension>
        </extensions>
      </trkpt>
      <trkpt lat="45.7798" lon="6.41776">
        <ele>1074.4000244141</ele>
        <time>2020-07-05T06:05:42.000Z</time>
        <extensions>
          <gpxtpx:TrackPointExtension xmlns:gpxtpx="http://www.garmin.com/xmlschemas/TrackPointExtension/v1">
            <gpxtpx:hr>127</gpxtpx:hr>
          </gpxtpx:TrackPointExtension>
        </extensions>
      </trkpt>
      <trkpt lat="45.77981" lon="6.41782">
        <ele>1074.8000488281</ele>
        <time>2020-07-05T06:05:44.000Z</time>
        <extensions>
          <gpxtpx:TrackPointExtension xmlns:gpxtpx="http://www.garmin.com/xmlschemas/TrackPointExtension/v1">
            <gpxtpx:hr>128</gpxtpx:hr>
          </gpxtpx:TrackPointExtension>
        </extensions>
      </trkpt>
      <trkpt lat="45.77985" lon="6.41791">
        <ele>1075.5999755859</ele>
        <time>2020-07-05T06:05:47.000Z</time>
        <extensions>
          <gpxtpx:TrackPointExtension xmlns:gpxtpx="http://www.garmin.com/xmlschemas/TrackPointExtension/v1">
            <gpxtpx:hr>129</gpxtpx:hr>
          </gpxtpx:TrackPointExtension>
        </extensions>
      </trkpt>
      <trkpt lat="45.77987" lon="6.41801">
        <ele>1076.1999511719</ele>
        <time>2020-07-05T06:05:50.000Z</time>
        <extensions>
          <gpxtpx:TrackPointExtension xmlns:gpxtpx="http://www.garmin.com/xmlschemas/TrackPointExtension/v1">
            <gpxtpx:hr>129</gpxtpx:hr>
          </gpxtpx:TrackPointExtension>
        </extensions>
      </trkpt>
      <trkpt lat="45.77988" lon="6.41804">
        <ele>1076.4000244141</ele>
        <time>2020-07-05T06:05:51.000Z</time>
        <extensions>
          <gpxtpx:TrackPointExtension xmlns:gpxtpx="http://www.garmin.com/xmlschemas/TrackPointExtension/v1">
            <gpxtpx:hr>129</gpxtpx:hr>
          </gpxtpx:TrackPointExtension>
        </extensions>
      </trkpt>
      <trkpt lat="45.7799" lon="6.41807">
        <ele>1076.5999755859</ele>
        <time>2020-07-05T06:05:52.000Z</time>
        <extensions>
          <gpxtpx:TrackPointExtension xmlns:gpxtpx="http://www.garmin.com/xmlschemas/TrackPointExtension/v1">
            <gpxtpx:hr>129</gpxtpx:hr>
          </gpxtpx:TrackPointExtension>
        </extensions>
      </trkpt>
      <trkpt lat="45.77999" lon="6.41825">
        <ele>1077.5999755859</ele>
        <time>2020-07-05T06:05:58.000Z</time>
        <extensions>
          <gpxtpx:TrackPointExtension xmlns:gpxtpx="http://www.garmin.com/xmlschemas/TrackPointExtension/v1">
            <gpxtpx:hr>129</gpxtpx:hr>
          </gpxtpx:TrackPointExtension>
        </extensions>
      </trkpt>
      <trkpt lat="45.78" lon="6.41828">
        <ele>1077.8000488281</ele>
        <time>2020-07-05T06:05:59.000Z</time>
        <extensions>
          <gpxtpx:TrackPointExtension xmlns:gpxtpx="http://www.garmin.com/xmlschemas/TrackPointExtension/v1">
            <gpxtpx:hr>128</gpxtpx:hr>
          </gpxtpx:TrackPointExtension>
        </extensions>
      </trkpt>
      <trkpt lat="45.78004" lon="6.41841">
        <ele>1078.5999755859</ele>
        <time>2020-07-05T06:06:03.000Z</time>
        <extensions>
          <gpxtpx:TrackPointExtension xmlns:gpxtpx="http://www.garmin.com/xmlschemas/TrackPointExtension/v1">
            <gpxtpx:hr>127</gpxtpx:hr>
          </gpxtpx:TrackPointExtension>
        </extensions>
      </trkpt>
      <trkpt lat="45.78005" lon="6.4185">
        <ele>1079.4000244141</ele>
        <time>2020-07-05T06:06:06.000Z</time>
        <extensions>
          <gpxtpx:TrackPointExtension xmlns:gpxtpx="http://www.garmin.com/xmlschemas/TrackPointExtension/v1">
            <gpxtpx:hr>126</gpxtpx:hr>
          </gpxtpx:TrackPointExtension>
        </extensions>
      </trkpt>
      <trkpt lat="45.78005" lon="6.41857">
        <ele>1080</ele>
        <time>2020-07-05T06:06:08.000Z</time>
        <extensions>
          <gpxtpx:TrackPointExtension xmlns:gpxtpx="http://www.garmin.com/xmlschemas/TrackPointExtension/v1">
            <gpxtpx:hr>126</gpxtpx:hr>
          </gpxtpx:TrackPointExtension>
        </extensions>
      </trkpt>
      <trkpt lat="45.7801" lon="6.41869">
        <ele>1080.5999755859</ele>
        <time>2020-07-05T06:06:12.000Z</time>
        <extensions>
          <gpxtpx:TrackPointExtension xmlns:gpxtpx="http://www.garmin.com/xmlschemas/TrackPointExtension/v1">
            <gpxtpx:hr>125</gpxtpx:hr>
          </gpxtpx:TrackPointExtension>
        </extensions>
      </trkpt>
      <trkpt lat="45.78012" lon="6.41874">
        <ele>1081.1999511719</ele>
        <time>2020-07-05T06:06:14.000Z</time>
        <extensions>
          <gpxtpx:TrackPointExtension xmlns:gpxtpx="http://www.garmin.com/xmlschemas/TrackPointExtension/v1">
            <gpxtpx:hr>125</gpxtpx:hr>
          </gpxtpx:TrackPointExtension>
        </extensions>
      </trkpt>
      <trkpt lat="45.78018" lon="6.41875">
        <ele>1081.8000488281</ele>
        <time>2020-07-05T06:06:17.000Z</time>
        <extensions>
          <gpxtpx:TrackPointExtension xmlns:gpxtpx="http://www.garmin.com/xmlschemas/TrackPointExtension/v1">
            <gpxtpx:hr>125</gpxtpx:hr>
          </gpxtpx:TrackPointExtension>
        </extensions>
      </trkpt>
      <trkpt lat="45.7802" lon="6.41873">
        <ele>1082</ele>
        <time>2020-07-05T06:06:18.000Z</time>
        <extensions>
          <gpxtpx:TrackPointExtension xmlns:gpxtpx="http://www.garmin.com/xmlschemas/TrackPointExtension/v1">
            <gpxtpx:hr>124</gpxtpx:hr>
          </gpxtpx:TrackPointExtension>
        </extensions>
      </trkpt>
      <trkpt lat="45.78021" lon="6.41866">
        <ele>1082.1999511719</ele>
        <time>2020-07-05T06:06:20.000Z</time>
        <extensions>
          <gpxtpx:TrackPointExtension xmlns:gpxtpx="http://www.garmin.com/xmlschemas/TrackPointExtension/v1">
            <gpxtpx:hr>124</gpxtpx:hr>
          </gpxtpx:TrackPointExtension>
        </extensions>
      </trkpt>
      <trkpt lat="45.78019" lon="6.41844">
        <ele>1083.4000244141</ele>
        <time>2020-07-05T06:06:25.000Z</time>
        <extensions>
          <gpxtpx:TrackPointExtension xmlns:gpxtpx="http://www.garmin.com/xmlschemas/TrackPointExtension/v1">
            <gpxtpx:hr>124</gpxtpx:hr>
          </gpxtpx:TrackPointExtension>
        </extensions>
      </trkpt>
      <trkpt lat="45.7802" lon="6.41836">
        <ele>1083.8000488281</ele>
        <time>2020-07-05T06:06:27.000Z</time>
        <extensions>
          <gpxtpx:TrackPointExtension xmlns:gpxtpx="http://www.garmin.com/xmlschemas/TrackPointExtension/v1">
            <gpxtpx:hr>124</gpxtpx:hr>
          </gpxtpx:TrackPointExtension>
        </extensions>
      </trkpt>
      <trkpt lat="45.78021" lon="6.41824">
        <ele>1084.4000244141</ele>
        <time>2020-07-05T06:06:30.000Z</time>
        <extensions>
          <gpxtpx:TrackPointExtension xmlns:gpxtpx="http://www.garmin.com/xmlschemas/TrackPointExtension/v1">
            <gpxtpx:hr>125</gpxtpx:hr>
          </gpxtpx:TrackPointExtension>
        </extensions>
      </trkpt>
      <trkpt lat="45.78024" lon="6.41811">
        <ele>1085.4000244141</ele>
        <time>2020-07-05T06:06:34.000Z</time>
        <extensions>
          <gpxtpx:TrackPointExtension xmlns:gpxtpx="http://www.garmin.com/xmlschemas/TrackPointExtension/v1">
            <gpxtpx:hr>125</gpxtpx:hr>
          </gpxtpx:TrackPointExtension>
        </extensions>
      </trkpt>
      <trkpt lat="45.78028" lon="6.41793">
        <ele>1086.5999755859</ele>
        <time>2020-07-05T06:06:39.000Z</time>
        <extensions>
          <gpxtpx:TrackPointExtension xmlns:gpxtpx="http://www.garmin.com/xmlschemas/TrackPointExtension/v1">
            <gpxtpx:hr>124</gpxtpx:hr>
          </gpxtpx:TrackPointExtension>
        </extensions>
      </trkpt>
      <trkpt lat="45.78025" lon="6.41776">
        <ele>1087.8000488281</ele>
        <time>2020-07-05T06:06:44.000Z</time>
        <extensions>
          <gpxtpx:TrackPointExtension xmlns:gpxtpx="http://www.garmin.com/xmlschemas/TrackPointExtension/v1">
            <gpxtpx:hr>124</gpxtpx:hr>
          </gpxtpx:TrackPointExtension>
        </extensions>
      </trkpt>
      <trkpt lat="45.78022" lon="6.41765">
        <ele>1088.8000488281</ele>
        <time>2020-07-05T06:06:47.000Z</time>
        <extensions>
          <gpxtpx:TrackPointExtension xmlns:gpxtpx="http://www.garmin.com/xmlschemas/TrackPointExtension/v1">
            <gpxtpx:hr>124</gpxtpx:hr>
          </gpxtpx:TrackPointExtension>
        </extensions>
      </trkpt>
      <trkpt lat="45.78017" lon="6.41754">
        <ele>1090.1999511719</ele>
        <time>2020-07-05T06:06:51.000Z</time>
        <extensions>
          <gpxtpx:TrackPointExtension xmlns:gpxtpx="http://www.garmin.com/xmlschemas/TrackPointExtension/v1">
            <gpxtpx:hr>125</gpxtpx:hr>
          </gpxtpx:TrackPointExtension>
        </extensions>
      </trkpt>
      <trkpt lat="45.78016" lon="6.41749">
        <ele>1091.4000244141</ele>
        <time>2020-07-05T06:06:53.000Z</time>
        <extensions>
          <gpxtpx:TrackPointExtension xmlns:gpxtpx="http://www.garmin.com/xmlschemas/TrackPointExtension/v1">
            <gpxtpx:hr>125</gpxtpx:hr>
          </gpxtpx:TrackPointExtension>
        </extensions>
      </trkpt>
      <trkpt lat="45.78013" lon="6.41739">
        <ele>1092.5999755859</ele>
        <time>2020-07-05T06:06:56.000Z</time>
        <extensions>
          <gpxtpx:TrackPointExtension xmlns:gpxtpx="http://www.garmin.com/xmlschemas/TrackPointExtension/v1">
            <gpxtpx:hr>126</gpxtpx:hr>
          </gpxtpx:TrackPointExtension>
        </extensions>
      </trkpt>
      <trkpt lat="45.78014" lon="6.41736">
        <ele>1092.8000488281</ele>
        <time>2020-07-05T06:06:57.000Z</time>
        <extensions>
          <gpxtpx:TrackPointExtension xmlns:gpxtpx="http://www.garmin.com/xmlschemas/TrackPointExtension/v1">
            <gpxtpx:hr>126</gpxtpx:hr>
          </gpxtpx:TrackPointExtension>
        </extensions>
      </trkpt>
      <trkpt lat="45.78015" lon="6.41732">
        <ele>1093</ele>
        <time>2020-07-05T06:06:58.000Z</time>
        <extensions>
          <gpxtpx:TrackPointExtension xmlns:gpxtpx="http://www.garmin.com/xmlschemas/TrackPointExtension/v1">
            <gpxtpx:hr>126</gpxtpx:hr>
          </gpxtpx:TrackPointExtension>
        </extensions>
      </trkpt>
      <trkpt lat="45.78017" lon="6.41721">
        <ele>1093.8000488281</ele>
        <time>2020-07-05T06:07:01.000Z</time>
        <extensions>
          <gpxtpx:TrackPointExtension xmlns:gpxtpx="http://www.garmin.com/xmlschemas/TrackPointExtension/v1">
            <gpxtpx:hr>126</gpxtpx:hr>
          </gpxtpx:TrackPointExtension>
        </extensions>
      </trkpt>
      <trkpt lat="45.78019" lon="6.41708">
        <ele>1094.5999755859</ele>
        <time>2020-07-05T06:07:04.000Z</time>
        <extensions>
          <gpxtpx:TrackPointExtension xmlns:gpxtpx="http://www.garmin.com/xmlschemas/TrackPointExtension/v1">
            <gpxtpx:hr>125</gpxtpx:hr>
          </gpxtpx:TrackPointExtension>
        </extensions>
      </trkpt>
      <trkpt lat="45.78019" lon="6.41703">
        <ele>1095</ele>
        <time>2020-07-05T06:07:05.000Z</time>
        <extensions>
          <gpxtpx:TrackPointExtension xmlns:gpxtpx="http://www.garmin.com/xmlschemas/TrackPointExtension/v1">
            <gpxtpx:hr>125</gpxtpx:hr>
          </gpxtpx:TrackPointExtension>
        </extensions>
      </trkpt>
      <trkpt lat="45.7803" lon="6.41669">
        <ele>1096</ele>
        <time>2020-07-05T06:07:13.000Z</time>
        <extensions>
          <gpxtpx:TrackPointExtension xmlns:gpxtpx="http://www.garmin.com/xmlschemas/TrackPointExtension/v1">
            <gpxtpx:hr>126</gpxtpx:hr>
          </gpxtpx:TrackPointExtension>
        </extensions>
      </trkpt>
      <trkpt lat="45.78032" lon="6.41666">
        <ele>1096</ele>
        <time>2020-07-05T06:07:14.000Z</time>
        <extensions>
          <gpxtpx:TrackPointExtension xmlns:gpxtpx="http://www.garmin.com/xmlschemas/TrackPointExtension/v1">
            <gpxtpx:hr>126</gpxtpx:hr>
          </gpxtpx:TrackPointExtension>
        </extensions>
      </trkpt>
      <trkpt lat="45.78035" lon="6.41659">
        <ele>1096.4000244141</ele>
        <time>2020-07-05T06:07:16.000Z</time>
        <extensions>
          <gpxtpx:TrackPointExtension xmlns:gpxtpx="http://www.garmin.com/xmlschemas/TrackPointExtension/v1">
            <gpxtpx:hr>126</gpxtpx:hr>
          </gpxtpx:TrackPointExtension>
        </extensions>
      </trkpt>
      <trkpt lat="45.78039" lon="6.41652">
        <ele>1097</ele>
        <time>2020-07-05T06:07:18.000Z</time>
        <extensions>
          <gpxtpx:TrackPointExtension xmlns:gpxtpx="http://www.garmin.com/xmlschemas/TrackPointExtension/v1">
            <gpxtpx:hr>126</gpxtpx:hr>
          </gpxtpx:TrackPointExtension>
        </extensions>
      </trkpt>
      <trkpt lat="45.78041" lon="6.41644">
        <ele>1097.5999755859</ele>
        <time>2020-07-05T06:07:20.000Z</time>
        <extensions>
          <gpxtpx:TrackPointExtension xmlns:gpxtpx="http://www.garmin.com/xmlschemas/TrackPointExtension/v1">
            <gpxtpx:hr>126</gpxtpx:hr>
          </gpxtpx:TrackPointExtension>
        </extensions>
      </trkpt>
      <trkpt lat="45.78045" lon="6.4164">
        <ele>1098.1999511719</ele>
        <time>2020-07-05T06:07:22.000Z</time>
        <extensions>
          <gpxtpx:TrackPointExtension xmlns:gpxtpx="http://www.garmin.com/xmlschemas/TrackPointExtension/v1">
            <gpxtpx:hr>126</gpxtpx:hr>
          </gpxtpx:TrackPointExtension>
        </extensions>
      </trkpt>
      <trkpt lat="45.78049" lon="6.41636">
        <ele>1099</ele>
        <time>2020-07-05T06:07:24.000Z</time>
        <extensions>
          <gpxtpx:TrackPointExtension xmlns:gpxtpx="http://www.garmin.com/xmlschemas/TrackPointExtension/v1">
            <gpxtpx:hr>126</gpxtpx:hr>
          </gpxtpx:TrackPointExtension>
        </extensions>
      </trkpt>
      <trkpt lat="45.78051" lon="6.41634">
        <ele>1099.4000244141</ele>
        <time>2020-07-05T06:07:25.000Z</time>
        <extensions>
          <gpxtpx:TrackPointExtension xmlns:gpxtpx="http://www.garmin.com/xmlschemas/TrackPointExtension/v1">
            <gpxtpx:hr>126</gpxtpx:hr>
          </gpxtpx:TrackPointExtension>
        </extensions>
      </trkpt>
      <trkpt lat="45.78056" lon="6.41626">
        <ele>1100.4000244141</ele>
        <time>2020-07-05T06:07:28.000Z</time>
        <extensions>
          <gpxtpx:TrackPointExtension xmlns:gpxtpx="http://www.garmin.com/xmlschemas/TrackPointExtension/v1">
            <gpxtpx:hr>126</gpxtpx:hr>
          </gpxtpx:TrackPointExtension>
        </extensions>
      </trkpt>
      <trkpt lat="45.78062" lon="6.41618">
        <ele>1101.5999755859</ele>
        <time>2020-07-05T06:07:32.000Z</time>
        <extensions>
          <gpxtpx:TrackPointExtension xmlns:gpxtpx="http://www.garmin.com/xmlschemas/TrackPointExtension/v1">
            <gpxtpx:hr>128</gpxtpx:hr>
          </gpxtpx:TrackPointExtension>
        </extensions>
      </trkpt>
      <trkpt lat="45.78066" lon="6.41613">
        <ele>1102</ele>
        <time>2020-07-05T06:07:34.000Z</time>
        <extensions>
          <gpxtpx:TrackPointExtension xmlns:gpxtpx="http://www.garmin.com/xmlschemas/TrackPointExtension/v1">
            <gpxtpx:hr>129</gpxtpx:hr>
          </gpxtpx:TrackPointExtension>
        </extensions>
      </trkpt>
      <trkpt lat="45.78069" lon="6.4161">
        <ele>1102.5999755859</ele>
        <time>2020-07-05T06:07:36.000Z</time>
        <extensions>
          <gpxtpx:TrackPointExtension xmlns:gpxtpx="http://www.garmin.com/xmlschemas/TrackPointExtension/v1">
            <gpxtpx:hr>130</gpxtpx:hr>
          </gpxtpx:TrackPointExtension>
        </extensions>
      </trkpt>
      <trkpt lat="45.78071" lon="6.41608">
        <ele>1102.8000488281</ele>
        <time>2020-07-05T06:07:37.000Z</time>
        <extensions>
          <gpxtpx:TrackPointExtension xmlns:gpxtpx="http://www.garmin.com/xmlschemas/TrackPointExtension/v1">
            <gpxtpx:hr>130</gpxtpx:hr>
          </gpxtpx:TrackPointExtension>
        </extensions>
      </trkpt>
      <trkpt lat="45.78072" lon="6.41606">
        <ele>1103</ele>
        <time>2020-07-05T06:07:38.000Z</time>
        <extensions>
          <gpxtpx:TrackPointExtension xmlns:gpxtpx="http://www.garmin.com/xmlschemas/TrackPointExtension/v1">
            <gpxtpx:hr>131</gpxtpx:hr>
          </gpxtpx:TrackPointExtension>
        </extensions>
      </trkpt>
      <trkpt lat="45.78074" lon="6.41604">
        <ele>1103.1999511719</ele>
        <time>2020-07-05T06:07:39.000Z</time>
        <extensions>
          <gpxtpx:TrackPointExtension xmlns:gpxtpx="http://www.garmin.com/xmlschemas/TrackPointExtension/v1">
            <gpxtpx:hr>132</gpxtpx:hr>
          </gpxtpx:TrackPointExtension>
        </extensions>
      </trkpt>
      <trkpt lat="45.78076" lon="6.41601">
        <ele>1103.8000488281</ele>
        <time>2020-07-05T06:07:41.000Z</time>
        <extensions>
          <gpxtpx:TrackPointExtension xmlns:gpxtpx="http://www.garmin.com/xmlschemas/TrackPointExtension/v1">
            <gpxtpx:hr>132</gpxtpx:hr>
          </gpxtpx:TrackPointExtension>
        </extensions>
      </trkpt>
      <trkpt lat="45.78078" lon="6.41601">
        <ele>1104</ele>
        <time>2020-07-05T06:07:42.000Z</time>
        <extensions>
          <gpxtpx:TrackPointExtension xmlns:gpxtpx="http://www.garmin.com/xmlschemas/TrackPointExtension/v1">
            <gpxtpx:hr>133</gpxtpx:hr>
          </gpxtpx:TrackPointExtension>
        </extensions>
      </trkpt>
      <trkpt lat="45.78083" lon="6.41599">
        <ele>1104.4000244141</ele>
        <time>2020-07-05T06:07:44.000Z</time>
        <extensions>
          <gpxtpx:TrackPointExtension xmlns:gpxtpx="http://www.garmin.com/xmlschemas/TrackPointExtension/v1">
            <gpxtpx:hr>133</gpxtpx:hr>
          </gpxtpx:TrackPointExtension>
        </extensions>
      </trkpt>
      <trkpt lat="45.78086" lon="6.41602">
        <ele>1104.8000488281</ele>
        <time>2020-07-05T06:07:46.000Z</time>
        <extensions>
          <gpxtpx:TrackPointExtension xmlns:gpxtpx="http://www.garmin.com/xmlschemas/TrackPointExtension/v1">
            <gpxtpx:hr>133</gpxtpx:hr>
          </gpxtpx:TrackPointExtension>
        </extensions>
      </trkpt>
      <trkpt lat="45.78087" lon="6.41605">
        <ele>1105</ele>
        <time>2020-07-05T06:07:47.000Z</time>
        <extensions>
          <gpxtpx:TrackPointExtension xmlns:gpxtpx="http://www.garmin.com/xmlschemas/TrackPointExtension/v1">
            <gpxtpx:hr>133</gpxtpx:hr>
          </gpxtpx:TrackPointExtension>
        </extensions>
      </trkpt>
      <trkpt lat="45.78087" lon="6.41607">
        <ele>1105.1999511719</ele>
        <time>2020-07-05T06:07:48.000Z</time>
        <extensions>
          <gpxtpx:TrackPointExtension xmlns:gpxtpx="http://www.garmin.com/xmlschemas/TrackPointExtension/v1">
            <gpxtpx:hr>134</gpxtpx:hr>
          </gpxtpx:TrackPointExtension>
        </extensions>
      </trkpt>
      <trkpt lat="45.78086" lon="6.4161">
        <ele>1105.5999755859</ele>
        <time>2020-07-05T06:07:49.000Z</time>
        <extensions>
          <gpxtpx:TrackPointExtension xmlns:gpxtpx="http://www.garmin.com/xmlschemas/TrackPointExtension/v1">
            <gpxtpx:hr>134</gpxtpx:hr>
          </gpxtpx:TrackPointExtension>
        </extensions>
      </trkpt>
      <trkpt lat="45.78085" lon="6.41615">
        <ele>1106</ele>
        <time>2020-07-05T06:07:51.000Z</time>
        <extensions>
          <gpxtpx:TrackPointExtension xmlns:gpxtpx="http://www.garmin.com/xmlschemas/TrackPointExtension/v1">
            <gpxtpx:hr>134</gpxtpx:hr>
          </gpxtpx:TrackPointExtension>
        </extensions>
      </trkpt>
      <trkpt lat="45.78084" lon="6.41618">
        <ele>1106.4000244141</ele>
        <time>2020-07-05T06:07:52.000Z</time>
        <extensions>
          <gpxtpx:TrackPointExtension xmlns:gpxtpx="http://www.garmin.com/xmlschemas/TrackPointExtension/v1">
            <gpxtpx:hr>133</gpxtpx:hr>
          </gpxtpx:TrackPointExtension>
        </extensions>
      </trkpt>
      <trkpt lat="45.78079" lon="6.41625">
        <ele>1107.1999511719</ele>
        <time>2020-07-05T06:07:55.000Z</time>
        <extensions>
          <gpxtpx:TrackPointExtension xmlns:gpxtpx="http://www.garmin.com/xmlschemas/TrackPointExtension/v1">
            <gpxtpx:hr>133</gpxtpx:hr>
          </gpxtpx:TrackPointExtension>
        </extensions>
      </trkpt>
      <trkpt lat="45.78071" lon="6.41636">
        <ele>1108.1999511719</ele>
        <time>2020-07-05T06:08:00.000Z</time>
        <extensions>
          <gpxtpx:TrackPointExtension xmlns:gpxtpx="http://www.garmin.com/xmlschemas/TrackPointExtension/v1">
            <gpxtpx:hr>132</gpxtpx:hr>
          </gpxtpx:TrackPointExtension>
        </extensions>
      </trkpt>
      <trkpt lat="45.78062" lon="6.41652">
        <ele>1109.4000244141</ele>
        <time>2020-07-05T06:08:06.000Z</time>
        <extensions>
          <gpxtpx:TrackPointExtension xmlns:gpxtpx="http://www.garmin.com/xmlschemas/TrackPointExtension/v1">
            <gpxtpx:hr>131</gpxtpx:hr>
          </gpxtpx:TrackPointExtension>
        </extensions>
      </trkpt>
      <trkpt lat="45.7806" lon="6.41655">
        <ele>1109.5999755859</ele>
        <time>2020-07-05T06:08:07.000Z</time>
        <extensions>
          <gpxtpx:TrackPointExtension xmlns:gpxtpx="http://www.garmin.com/xmlschemas/TrackPointExtension/v1">
            <gpxtpx:hr>131</gpxtpx:hr>
          </gpxtpx:TrackPointExtension>
        </extensions>
      </trkpt>
      <trkpt lat="45.78056" lon="6.41659">
        <ele>1110</ele>
        <time>2020-07-05T06:08:09.000Z</time>
        <extensions>
          <gpxtpx:TrackPointExtension xmlns:gpxtpx="http://www.garmin.com/xmlschemas/TrackPointExtension/v1">
            <gpxtpx:hr>131</gpxtpx:hr>
          </gpxtpx:TrackPointExtension>
        </extensions>
      </trkpt>
      <trkpt lat="45.78057" lon="6.41665">
        <ele>1110.4000244141</ele>
        <time>2020-07-05T06:08:11.000Z</time>
        <extensions>
          <gpxtpx:TrackPointExtension xmlns:gpxtpx="http://www.garmin.com/xmlschemas/TrackPointExtension/v1">
            <gpxtpx:hr>130</gpxtpx:hr>
          </gpxtpx:TrackPointExtension>
        </extensions>
      </trkpt>
      <trkpt lat="45.78059" lon="6.41668">
        <ele>1110.5999755859</ele>
        <time>2020-07-05T06:08:12.000Z</time>
        <extensions>
          <gpxtpx:TrackPointExtension xmlns:gpxtpx="http://www.garmin.com/xmlschemas/TrackPointExtension/v1">
            <gpxtpx:hr>130</gpxtpx:hr>
          </gpxtpx:TrackPointExtension>
        </extensions>
      </trkpt>
      <trkpt lat="45.7806" lon="6.41671">
        <ele>1110.8000488281</ele>
        <time>2020-07-05T06:08:13.000Z</time>
        <extensions>
          <gpxtpx:TrackPointExtension xmlns:gpxtpx="http://www.garmin.com/xmlschemas/TrackPointExtension/v1">
            <gpxtpx:hr>130</gpxtpx:hr>
          </gpxtpx:TrackPointExtension>
        </extensions>
      </trkpt>
      <trkpt lat="45.78064" lon="6.41685">
        <ele>1111.8000488281</ele>
        <time>2020-07-05T06:08:17.000Z</time>
        <extensions>
          <gpxtpx:TrackPointExtension xmlns:gpxtpx="http://www.garmin.com/xmlschemas/TrackPointExtension/v1">
            <gpxtpx:hr>129</gpxtpx:hr>
          </gpxtpx:TrackPointExtension>
        </extensions>
      </trkpt>
      <trkpt lat="45.78071" lon="6.41696">
        <ele>1112.8000488281</ele>
        <time>2020-07-05T06:08:21.000Z</time>
        <extensions>
          <gpxtpx:TrackPointExtension xmlns:gpxtpx="http://www.garmin.com/xmlschemas/TrackPointExtension/v1">
            <gpxtpx:hr>128</gpxtpx:hr>
          </gpxtpx:TrackPointExtension>
        </extensions>
      </trkpt>
      <trkpt lat="45.78077" lon="6.41708">
        <ele>1114</ele>
        <time>2020-07-05T06:08:26.000Z</time>
        <extensions>
          <gpxtpx:TrackPointExtension xmlns:gpxtpx="http://www.garmin.com/xmlschemas/TrackPointExtension/v1">
            <gpxtpx:hr>128</gpxtpx:hr>
          </gpxtpx:TrackPointExtension>
        </extensions>
      </trkpt>
      <trkpt lat="45.78083" lon="6.41723">
        <ele>1115.1999511719</ele>
        <time>2020-07-05T06:08:31.000Z</time>
        <extensions>
          <gpxtpx:TrackPointExtension xmlns:gpxtpx="http://www.garmin.com/xmlschemas/TrackPointExtension/v1">
            <gpxtpx:hr>129</gpxtpx:hr>
          </gpxtpx:TrackPointExtension>
        </extensions>
      </trkpt>
      <trkpt lat="45.78085" lon="6.4173">
        <ele>1115.8000488281</ele>
        <time>2020-07-05T06:08:33.000Z</time>
        <extensions>
          <gpxtpx:TrackPointExtension xmlns:gpxtpx="http://www.garmin.com/xmlschemas/TrackPointExtension/v1">
            <gpxtpx:hr>129</gpxtpx:hr>
          </gpxtpx:TrackPointExtension>
        </extensions>
      </trkpt>
      <trkpt lat="45.78085" lon="6.41733">
        <ele>1116</ele>
        <time>2020-07-05T06:08:34.000Z</time>
        <extensions>
          <gpxtpx:TrackPointExtension xmlns:gpxtpx="http://www.garmin.com/xmlschemas/TrackPointExtension/v1">
            <gpxtpx:hr>130</gpxtpx:hr>
          </gpxtpx:TrackPointExtension>
        </extensions>
      </trkpt>
      <trkpt lat="45.78087" lon="6.4174">
        <ele>1116.4000244141</ele>
        <time>2020-07-05T06:08:36.000Z</time>
        <extensions>
          <gpxtpx:TrackPointExtension xmlns:gpxtpx="http://www.garmin.com/xmlschemas/TrackPointExtension/v1">
            <gpxtpx:hr>130</gpxtpx:hr>
          </gpxtpx:TrackPointExtension>
        </extensions>
      </trkpt>
      <trkpt lat="45.78088" lon="6.41744">
        <ele>1116.4000244141</ele>
        <time>2020-07-05T06:08:37.000Z</time>
        <extensions>
          <gpxtpx:TrackPointExtension xmlns:gpxtpx="http://www.garmin.com/xmlschemas/TrackPointExtension/v1">
            <gpxtpx:hr>130</gpxtpx:hr>
          </gpxtpx:TrackPointExtension>
        </extensions>
      </trkpt>
      <trkpt lat="45.78091" lon="6.4176">
        <ele>1117.4000244141</ele>
        <time>2020-07-05T06:08:42.000Z</time>
        <extensions>
          <gpxtpx:TrackPointExtension xmlns:gpxtpx="http://www.garmin.com/xmlschemas/TrackPointExtension/v1">
            <gpxtpx:hr>130</gpxtpx:hr>
          </gpxtpx:TrackPointExtension>
        </extensions>
      </trkpt>
      <trkpt lat="45.78092" lon="6.41763">
        <ele>1117.5999755859</ele>
        <time>2020-07-05T06:08:43.000Z</time>
        <extensions>
          <gpxtpx:TrackPointExtension xmlns:gpxtpx="http://www.garmin.com/xmlschemas/TrackPointExtension/v1">
            <gpxtpx:hr>130</gpxtpx:hr>
          </gpxtpx:TrackPointExtension>
        </extensions>
      </trkpt>
      <trkpt lat="45.78095" lon="6.41775">
        <ele>1118.5999755859</ele>
        <time>2020-07-05T06:08:46.000Z</time>
        <extensions>
          <gpxtpx:TrackPointExtension xmlns:gpxtpx="http://www.garmin.com/xmlschemas/TrackPointExtension/v1">
            <gpxtpx:hr>129</gpxtpx:hr>
          </gpxtpx:TrackPointExtension>
        </extensions>
      </trkpt>
      <trkpt lat="45.78098" lon="6.41786">
        <ele>1119.4000244141</ele>
        <time>2020-07-05T06:08:49.000Z</time>
        <extensions>
          <gpxtpx:TrackPointExtension xmlns:gpxtpx="http://www.garmin.com/xmlschemas/TrackPointExtension/v1">
            <gpxtpx:hr>128</gpxtpx:hr>
          </gpxtpx:TrackPointExtension>
        </extensions>
      </trkpt>
      <trkpt lat="45.781" lon="6.4179">
        <ele>1119.5999755859</ele>
        <time>2020-07-05T06:08:50.000Z</time>
        <extensions>
          <gpxtpx:TrackPointExtension xmlns:gpxtpx="http://www.garmin.com/xmlschemas/TrackPointExtension/v1">
            <gpxtpx:hr>128</gpxtpx:hr>
          </gpxtpx:TrackPointExtension>
        </extensions>
      </trkpt>
      <trkpt lat="45.78105" lon="6.41802">
        <ele>1120.8000488281</ele>
        <time>2020-07-05T06:08:54.000Z</time>
        <extensions>
          <gpxtpx:TrackPointExtension xmlns:gpxtpx="http://www.garmin.com/xmlschemas/TrackPointExtension/v1">
            <gpxtpx:hr>128</gpxtpx:hr>
          </gpxtpx:TrackPointExtension>
        </extensions>
      </trkpt>
      <trkpt lat="45.78115" lon="6.41819">
        <ele>1121.4000244141</ele>
        <time>2020-07-05T06:08:59.000Z</time>
        <extensions>
          <gpxtpx:TrackPointExtension xmlns:gpxtpx="http://www.garmin.com/xmlschemas/TrackPointExtension/v1">
            <gpxtpx:hr>128</gpxtpx:hr>
          </gpxtpx:TrackPointExtension>
        </extensions>
      </trkpt>
      <trkpt lat="45.7812" lon="6.41831">
        <ele>1122</ele>
        <time>2020-07-05T06:09:02.000Z</time>
        <extensions>
          <gpxtpx:TrackPointExtension xmlns:gpxtpx="http://www.garmin.com/xmlschemas/TrackPointExtension/v1">
            <gpxtpx:hr>128</gpxtpx:hr>
          </gpxtpx:TrackPointExtension>
        </extensions>
      </trkpt>
      <trkpt lat="45.78126" lon="6.41847">
        <ele>1123</ele>
        <time>2020-07-05T06:09:06.000Z</time>
        <extensions>
          <gpxtpx:TrackPointExtension xmlns:gpxtpx="http://www.garmin.com/xmlschemas/TrackPointExtension/v1">
            <gpxtpx:hr>128</gpxtpx:hr>
          </gpxtpx:TrackPointExtension>
        </extensions>
      </trkpt>
      <trkpt lat="45.78132" lon="6.41859">
        <ele>1124.1999511719</ele>
        <time>2020-07-05T06:09:10.000Z</time>
        <extensions>
          <gpxtpx:TrackPointExtension xmlns:gpxtpx="http://www.garmin.com/xmlschemas/TrackPointExtension/v1">
            <gpxtpx:hr>128</gpxtpx:hr>
          </gpxtpx:TrackPointExtension>
        </extensions>
      </trkpt>
      <trkpt lat="45.7813" lon="6.41866">
        <ele>1125</ele>
        <time>2020-07-05T06:09:12.000Z</time>
        <extensions>
          <gpxtpx:TrackPointExtension xmlns:gpxtpx="http://www.garmin.com/xmlschemas/TrackPointExtension/v1">
            <gpxtpx:hr>127</gpxtpx:hr>
          </gpxtpx:TrackPointExtension>
        </extensions>
      </trkpt>
      <trkpt lat="45.78131" lon="6.41869">
        <ele>1125.1999511719</ele>
        <time>2020-07-05T06:09:13.000Z</time>
        <extensions>
          <gpxtpx:TrackPointExtension xmlns:gpxtpx="http://www.garmin.com/xmlschemas/TrackPointExtension/v1">
            <gpxtpx:hr>127</gpxtpx:hr>
          </gpxtpx:TrackPointExtension>
        </extensions>
      </trkpt>
      <trkpt lat="45.78137" lon="6.41885">
        <ele>1126.1999511719</ele>
        <time>2020-07-05T06:09:18.000Z</time>
        <extensions>
          <gpxtpx:TrackPointExtension xmlns:gpxtpx="http://www.garmin.com/xmlschemas/TrackPointExtension/v1">
            <gpxtpx:hr>127</gpxtpx:hr>
          </gpxtpx:TrackPointExtension>
        </extensions>
      </trkpt>
      <trkpt lat="45.78139" lon="6.41888">
        <ele>1126.5999755859</ele>
        <time>2020-07-05T06:09:19.000Z</time>
        <extensions>
          <gpxtpx:TrackPointExtension xmlns:gpxtpx="http://www.garmin.com/xmlschemas/TrackPointExtension/v1">
            <gpxtpx:hr>127</gpxtpx:hr>
          </gpxtpx:TrackPointExtension>
        </extensions>
      </trkpt>
      <trkpt lat="45.78141" lon="6.41893">
        <ele>1127.1999511719</ele>
        <time>2020-07-05T06:09:21.000Z</time>
        <extensions>
          <gpxtpx:TrackPointExtension xmlns:gpxtpx="http://www.garmin.com/xmlschemas/TrackPointExtension/v1">
            <gpxtpx:hr>126</gpxtpx:hr>
          </gpxtpx:TrackPointExtension>
        </extensions>
      </trkpt>
      <trkpt lat="45.78141" lon="6.41896">
        <ele>1127.5999755859</ele>
        <time>2020-07-05T06:09:22.000Z</time>
        <extensions>
          <gpxtpx:TrackPointExtension xmlns:gpxtpx="http://www.garmin.com/xmlschemas/TrackPointExtension/v1">
            <gpxtpx:hr>126</gpxtpx:hr>
          </gpxtpx:TrackPointExtension>
        </extensions>
      </trkpt>
      <trkpt lat="45.78142" lon="6.41899">
        <ele>1128</ele>
        <time>2020-07-05T06:09:23.000Z</time>
        <extensions>
          <gpxtpx:TrackPointExtension xmlns:gpxtpx="http://www.garmin.com/xmlschemas/TrackPointExtension/v1">
            <gpxtpx:hr>125</gpxtpx:hr>
          </gpxtpx:TrackPointExtension>
        </extensions>
      </trkpt>
      <trkpt lat="45.78144" lon="6.41906">
        <ele>1128.8000488281</ele>
        <time>2020-07-05T06:09:26.000Z</time>
        <extensions>
          <gpxtpx:TrackPointExtension xmlns:gpxtpx="http://www.garmin.com/xmlschemas/TrackPointExtension/v1">
            <gpxtpx:hr>124</gpxtpx:hr>
          </gpxtpx:TrackPointExtension>
        </extensions>
      </trkpt>
      <trkpt lat="45.78145" lon="6.41908">
        <ele>1129</ele>
        <time>2020-07-05T06:09:27.000Z</time>
        <extensions>
          <gpxtpx:TrackPointExtension xmlns:gpxtpx="http://www.garmin.com/xmlschemas/TrackPointExtension/v1">
            <gpxtpx:hr>124</gpxtpx:hr>
          </gpxtpx:TrackPointExtension>
        </extensions>
      </trkpt>
      <trkpt lat="45.78147" lon="6.41913">
        <ele>1129.5999755859</ele>
        <time>2020-07-05T06:09:29.000Z</time>
        <extensions>
          <gpxtpx:TrackPointExtension xmlns:gpxtpx="http://www.garmin.com/xmlschemas/TrackPointExtension/v1">
            <gpxtpx:hr>124</gpxtpx:hr>
          </gpxtpx:TrackPointExtension>
        </extensions>
      </trkpt>
      <trkpt lat="45.78148" lon="6.41916">
        <ele>1129.8000488281</ele>
        <time>2020-07-05T06:09:30.000Z</time>
        <extensions>
          <gpxtpx:TrackPointExtension xmlns:gpxtpx="http://www.garmin.com/xmlschemas/TrackPointExtension/v1">
            <gpxtpx:hr>124</gpxtpx:hr>
          </gpxtpx:TrackPointExtension>
        </extensions>
      </trkpt>
      <trkpt lat="45.7815" lon="6.41919">
        <ele>1130.1999511719</ele>
        <time>2020-07-05T06:09:31.000Z</time>
        <extensions>
          <gpxtpx:TrackPointExtension xmlns:gpxtpx="http://www.garmin.com/xmlschemas/TrackPointExtension/v1">
            <gpxtpx:hr>124</gpxtpx:hr>
          </gpxtpx:TrackPointExtension>
        </extensions>
      </trkpt>
      <trkpt lat="45.78153" lon="6.41927">
        <ele>1130.5999755859</ele>
        <time>2020-07-05T06:09:33.000Z</time>
        <extensions>
          <gpxtpx:TrackPointExtension xmlns:gpxtpx="http://www.garmin.com/xmlschemas/TrackPointExtension/v1">
            <gpxtpx:hr>124</gpxtpx:hr>
          </gpxtpx:TrackPointExtension>
        </extensions>
      </trkpt>
      <trkpt lat="45.78154" lon="6.4193">
        <ele>1131</ele>
        <time>2020-07-05T06:09:34.000Z</time>
        <extensions>
          <gpxtpx:TrackPointExtension xmlns:gpxtpx="http://www.garmin.com/xmlschemas/TrackPointExtension/v1">
            <gpxtpx:hr>125</gpxtpx:hr>
          </gpxtpx:TrackPointExtension>
        </extensions>
      </trkpt>
      <trkpt lat="45.78159" lon="6.41941">
        <ele>1132.1999511719</ele>
        <time>2020-07-05T06:09:37.000Z</time>
        <extensions>
          <gpxtpx:TrackPointExtension xmlns:gpxtpx="http://www.garmin.com/xmlschemas/TrackPointExtension/v1">
            <gpxtpx:hr>125</gpxtpx:hr>
          </gpxtpx:TrackPointExtension>
        </extensions>
      </trkpt>
      <trkpt lat="45.78165" lon="6.41951">
        <ele>1133.4000244141</ele>
        <time>2020-07-05T06:09:40.000Z</time>
        <extensions>
          <gpxtpx:TrackPointExtension xmlns:gpxtpx="http://www.garmin.com/xmlschemas/TrackPointExtension/v1">
            <gpxtpx:hr>126</gpxtpx:hr>
          </gpxtpx:TrackPointExtension>
        </extensions>
      </trkpt>
      <trkpt lat="45.78166" lon="6.41954">
        <ele>1133.5999755859</ele>
        <time>2020-07-05T06:09:41.000Z</time>
        <extensions>
          <gpxtpx:TrackPointExtension xmlns:gpxtpx="http://www.garmin.com/xmlschemas/TrackPointExtension/v1">
            <gpxtpx:hr>126</gpxtpx:hr>
          </gpxtpx:TrackPointExtension>
        </extensions>
      </trkpt>
      <trkpt lat="45.78171" lon="6.41961">
        <ele>1134.4000244141</ele>
        <time>2020-07-05T06:09:43.000Z</time>
        <extensions>
          <gpxtpx:TrackPointExtension xmlns:gpxtpx="http://www.garmin.com/xmlschemas/TrackPointExtension/v1">
            <gpxtpx:hr>126</gpxtpx:hr>
          </gpxtpx:TrackPointExtension>
        </extensions>
      </trkpt>
      <trkpt lat="45.78173" lon="6.41963">
        <ele>1134.8000488281</ele>
        <time>2020-07-05T06:09:44.000Z</time>
        <extensions>
          <gpxtpx:TrackPointExtension xmlns:gpxtpx="http://www.garmin.com/xmlschemas/TrackPointExtension/v1">
            <gpxtpx:hr>126</gpxtpx:hr>
          </gpxtpx:TrackPointExtension>
        </extensions>
      </trkpt>
      <trkpt lat="45.78176" lon="6.41964">
        <ele>1135.5999755859</ele>
        <time>2020-07-05T06:09:46.000Z</time>
        <extensions>
          <gpxtpx:TrackPointExtension xmlns:gpxtpx="http://www.garmin.com/xmlschemas/TrackPointExtension/v1">
            <gpxtpx:hr>125</gpxtpx:hr>
          </gpxtpx:TrackPointExtension>
        </extensions>
      </trkpt>
      <trkpt lat="45.78178" lon="6.41957">
        <ele>1136.5999755859</ele>
        <time>2020-07-05T06:09:49.000Z</time>
        <extensions>
          <gpxtpx:TrackPointExtension xmlns:gpxtpx="http://www.garmin.com/xmlschemas/TrackPointExtension/v1">
            <gpxtpx:hr>125</gpxtpx:hr>
          </gpxtpx:TrackPointExtension>
        </extensions>
      </trkpt>
      <trkpt lat="45.78176" lon="6.41954">
        <ele>1136.8000488281</ele>
        <time>2020-07-05T06:09:50.000Z</time>
        <extensions>
          <gpxtpx:TrackPointExtension xmlns:gpxtpx="http://www.garmin.com/xmlschemas/TrackPointExtension/v1">
            <gpxtpx:hr>125</gpxtpx:hr>
          </gpxtpx:TrackPointExtension>
        </extensions>
      </trkpt>
      <trkpt lat="45.7817" lon="6.41936">
        <ele>1137.5999755859</ele>
        <time>2020-07-05T06:09:56.000Z</time>
        <extensions>
          <gpxtpx:TrackPointExtension xmlns:gpxtpx="http://www.garmin.com/xmlschemas/TrackPointExtension/v1">
            <gpxtpx:hr>123</gpxtpx:hr>
          </gpxtpx:TrackPointExtension>
        </extensions>
      </trkpt>
      <trkpt lat="45.7817" lon="6.41933">
        <ele>1137.8000488281</ele>
        <time>2020-07-05T06:09:57.000Z</time>
        <extensions>
          <gpxtpx:TrackPointExtension xmlns:gpxtpx="http://www.garmin.com/xmlschemas/TrackPointExtension/v1">
            <gpxtpx:hr>122</gpxtpx:hr>
          </gpxtpx:TrackPointExtension>
        </extensions>
      </trkpt>
      <trkpt lat="45.78167" lon="6.41914">
        <ele>1138.1999511719</ele>
        <time>2020-07-05T06:10:01.000Z</time>
        <extensions>
          <gpxtpx:TrackPointExtension xmlns:gpxtpx="http://www.garmin.com/xmlschemas/TrackPointExtension/v1">
            <gpxtpx:hr>121</gpxtpx:hr>
          </gpxtpx:TrackPointExtension>
        </extensions>
      </trkpt>
      <trkpt lat="45.78164" lon="6.41899">
        <ele>1138.8000488281</ele>
        <time>2020-07-05T06:10:05.000Z</time>
        <extensions>
          <gpxtpx:TrackPointExtension xmlns:gpxtpx="http://www.garmin.com/xmlschemas/TrackPointExtension/v1">
            <gpxtpx:hr>121</gpxtpx:hr>
          </gpxtpx:TrackPointExtension>
        </extensions>
      </trkpt>
      <trkpt lat="45.78162" lon="6.41888">
        <ele>1139.5999755859</ele>
        <time>2020-07-05T06:10:08.000Z</time>
        <extensions>
          <gpxtpx:TrackPointExtension xmlns:gpxtpx="http://www.garmin.com/xmlschemas/TrackPointExtension/v1">
            <gpxtpx:hr>122</gpxtpx:hr>
          </gpxtpx:TrackPointExtension>
        </extensions>
      </trkpt>
      <trkpt lat="45.78161" lon="6.41885">
        <ele>1140</ele>
        <time>2020-07-05T06:10:09.000Z</time>
        <extensions>
          <gpxtpx:TrackPointExtension xmlns:gpxtpx="http://www.garmin.com/xmlschemas/TrackPointExtension/v1">
            <gpxtpx:hr>122</gpxtpx:hr>
          </gpxtpx:TrackPointExtension>
        </extensions>
      </trkpt>
      <trkpt lat="45.78158" lon="6.41875">
        <ele>1141</ele>
        <time>2020-07-05T06:10:12.000Z</time>
        <extensions>
          <gpxtpx:TrackPointExtension xmlns:gpxtpx="http://www.garmin.com/xmlschemas/TrackPointExtension/v1">
            <gpxtpx:hr>123</gpxtpx:hr>
          </gpxtpx:TrackPointExtension>
        </extensions>
      </trkpt>
      <trkpt lat="45.78155" lon="6.4187">
        <ele>1141.8000488281</ele>
        <time>2020-07-05T06:10:14.000Z</time>
        <extensions>
          <gpxtpx:TrackPointExtension xmlns:gpxtpx="http://www.garmin.com/xmlschemas/TrackPointExtension/v1">
            <gpxtpx:hr>124</gpxtpx:hr>
          </gpxtpx:TrackPointExtension>
        </extensions>
      </trkpt>
      <trkpt lat="45.78154" lon="6.41867">
        <ele>1142.4000244141</ele>
        <time>2020-07-05T06:10:15.000Z</time>
        <extensions>
          <gpxtpx:TrackPointExtension xmlns:gpxtpx="http://www.garmin.com/xmlschemas/TrackPointExtension/v1">
            <gpxtpx:hr>125</gpxtpx:hr>
          </gpxtpx:TrackPointExtension>
        </extensions>
      </trkpt>
      <trkpt lat="45.78151" lon="6.41859">
        <ele>1143.5999755859</ele>
        <time>2020-07-05T06:10:18.000Z</time>
        <extensions>
          <gpxtpx:TrackPointExtension xmlns:gpxtpx="http://www.garmin.com/xmlschemas/TrackPointExtension/v1">
            <gpxtpx:hr>126</gpxtpx:hr>
          </gpxtpx:TrackPointExtension>
        </extensions>
      </trkpt>
      <trkpt lat="45.7815" lon="6.41856">
        <ele>1144</ele>
        <time>2020-07-05T06:10:19.000Z</time>
        <extensions>
          <gpxtpx:TrackPointExtension xmlns:gpxtpx="http://www.garmin.com/xmlschemas/TrackPointExtension/v1">
            <gpxtpx:hr>127</gpxtpx:hr>
          </gpxtpx:TrackPointExtension>
        </extensions>
      </trkpt>
      <trkpt lat="45.78148" lon="6.41845">
        <ele>1144.8000488281</ele>
        <time>2020-07-05T06:10:22.000Z</time>
        <extensions>
          <gpxtpx:TrackPointExtension xmlns:gpxtpx="http://www.garmin.com/xmlschemas/TrackPointExtension/v1">
            <gpxtpx:hr>128</gpxtpx:hr>
          </gpxtpx:TrackPointExtension>
        </extensions>
      </trkpt>
      <trkpt lat="45.78147" lon="6.41828">
        <ele>1145.5999755859</ele>
        <time>2020-07-05T06:10:26.000Z</time>
        <extensions>
          <gpxtpx:TrackPointExtension xmlns:gpxtpx="http://www.garmin.com/xmlschemas/TrackPointExtension/v1">
            <gpxtpx:hr>127</gpxtpx:hr>
          </gpxtpx:TrackPointExtension>
        </extensions>
      </trkpt>
      <trkpt lat="45.78147" lon="6.41819">
        <ele>1146</ele>
        <time>2020-07-05T06:10:28.000Z</time>
        <extensions>
          <gpxtpx:TrackPointExtension xmlns:gpxtpx="http://www.garmin.com/xmlschemas/TrackPointExtension/v1">
            <gpxtpx:hr>126</gpxtpx:hr>
          </gpxtpx:TrackPointExtension>
        </extensions>
      </trkpt>
      <trkpt lat="45.78148" lon="6.41812">
        <ele>1146.1999511719</ele>
        <time>2020-07-05T06:10:30.000Z</time>
        <extensions>
          <gpxtpx:TrackPointExtension xmlns:gpxtpx="http://www.garmin.com/xmlschemas/TrackPointExtension/v1">
            <gpxtpx:hr>123</gpxtpx:hr>
          </gpxtpx:TrackPointExtension>
        </extensions>
      </trkpt>
      <trkpt lat="45.78149" lon="6.41801">
        <ele>1146.5999755859</ele>
        <time>2020-07-05T06:10:33.000Z</time>
        <extensions>
          <gpxtpx:TrackPointExtension xmlns:gpxtpx="http://www.garmin.com/xmlschemas/TrackPointExtension/v1">
            <gpxtpx:hr>122</gpxtpx:hr>
          </gpxtpx:TrackPointExtension>
        </extensions>
      </trkpt>
      <trkpt lat="45.78149" lon="6.41795">
        <ele>1147.1999511719</ele>
        <time>2020-07-05T06:10:35.000Z</time>
        <extensions>
          <gpxtpx:TrackPointExtension xmlns:gpxtpx="http://www.garmin.com/xmlschemas/TrackPointExtension/v1">
            <gpxtpx:hr>121</gpxtpx:hr>
          </gpxtpx:TrackPointExtension>
        </extensions>
      </trkpt>
      <trkpt lat="45.78149" lon="6.4178">
        <ele>1148.4000244141</ele>
        <time>2020-07-05T06:10:39.000Z</time>
        <extensions>
          <gpxtpx:TrackPointExtension xmlns:gpxtpx="http://www.garmin.com/xmlschemas/TrackPointExtension/v1">
            <gpxtpx:hr>121</gpxtpx:hr>
          </gpxtpx:TrackPointExtension>
        </extensions>
      </trkpt>
      <trkpt lat="45.78149" lon="6.41765">
        <ele>1149.4000244141</ele>
        <time>2020-07-05T06:10:43.000Z</time>
        <extensions>
          <gpxtpx:TrackPointExtension xmlns:gpxtpx="http://www.garmin.com/xmlschemas/TrackPointExtension/v1">
            <gpxtpx:hr>123</gpxtpx:hr>
          </gpxtpx:TrackPointExtension>
        </extensions>
      </trkpt>
      <trkpt lat="45.78148" lon="6.41751">
        <ele>1150</ele>
        <time>2020-07-05T06:10:46.000Z</time>
        <extensions>
          <gpxtpx:TrackPointExtension xmlns:gpxtpx="http://www.garmin.com/xmlschemas/TrackPointExtension/v1">
            <gpxtpx:hr>124</gpxtpx:hr>
          </gpxtpx:TrackPointExtension>
        </extensions>
      </trkpt>
      <trkpt lat="45.78147" lon="6.41744">
        <ele>1150.5999755859</ele>
        <time>2020-07-05T06:10:48.000Z</time>
        <extensions>
          <gpxtpx:TrackPointExtension xmlns:gpxtpx="http://www.garmin.com/xmlschemas/TrackPointExtension/v1">
            <gpxtpx:hr>121</gpxtpx:hr>
          </gpxtpx:TrackPointExtension>
        </extensions>
      </trkpt>
      <trkpt lat="45.78148" lon="6.41732">
        <ele>1151.4000244141</ele>
        <time>2020-07-05T06:10:52.000Z</time>
        <extensions>
          <gpxtpx:TrackPointExtension xmlns:gpxtpx="http://www.garmin.com/xmlschemas/TrackPointExtension/v1">
            <gpxtpx:hr>122</gpxtpx:hr>
          </gpxtpx:TrackPointExtension>
        </extensions>
      </trkpt>
      <trkpt lat="45.78146" lon="6.41725">
        <ele>1151.8000488281</ele>
        <time>2020-07-05T06:10:54.000Z</time>
        <extensions>
          <gpxtpx:TrackPointExtension xmlns:gpxtpx="http://www.garmin.com/xmlschemas/TrackPointExtension/v1">
            <gpxtpx:hr>122</gpxtpx:hr>
          </gpxtpx:TrackPointExtension>
        </extensions>
      </trkpt>
      <trkpt lat="45.78148" lon="6.41716">
        <ele>1152.5999755859</ele>
        <time>2020-07-05T06:10:57.000Z</time>
        <extensions>
          <gpxtpx:TrackPointExtension xmlns:gpxtpx="http://www.garmin.com/xmlschemas/TrackPointExtension/v1">
            <gpxtpx:hr>124</gpxtpx:hr>
          </gpxtpx:TrackPointExtension>
        </extensions>
      </trkpt>
      <trkpt lat="45.78149" lon="6.41713">
        <ele>1152.8000488281</ele>
        <time>2020-07-05T06:10:58.000Z</time>
        <extensions>
          <gpxtpx:TrackPointExtension xmlns:gpxtpx="http://www.garmin.com/xmlschemas/TrackPointExtension/v1">
            <gpxtpx:hr>124</gpxtpx:hr>
          </gpxtpx:TrackPointExtension>
        </extensions>
      </trkpt>
      <trkpt lat="45.78151" lon="6.41701">
        <ele>1153.4000244141</ele>
        <time>2020-07-05T06:11:02.000Z</time>
        <extensions>
          <gpxtpx:TrackPointExtension xmlns:gpxtpx="http://www.garmin.com/xmlschemas/TrackPointExtension/v1">
            <gpxtpx:hr>127</gpxtpx:hr>
          </gpxtpx:TrackPointExtension>
        </extensions>
      </trkpt>
      <trkpt lat="45.78152" lon="6.41698">
        <ele>1153.8000488281</ele>
        <time>2020-07-05T06:11:03.000Z</time>
        <extensions>
          <gpxtpx:TrackPointExtension xmlns:gpxtpx="http://www.garmin.com/xmlschemas/TrackPointExtension/v1">
            <gpxtpx:hr>127</gpxtpx:hr>
          </gpxtpx:TrackPointExtension>
        </extensions>
      </trkpt>
      <trkpt lat="45.78153" lon="6.41695">
        <ele>1154</ele>
        <time>2020-07-05T06:11:04.000Z</time>
        <extensions>
          <gpxtpx:TrackPointExtension xmlns:gpxtpx="http://www.garmin.com/xmlschemas/TrackPointExtension/v1">
            <gpxtpx:hr>128</gpxtpx:hr>
          </gpxtpx:TrackPointExtension>
        </extensions>
      </trkpt>
      <trkpt lat="45.78157" lon="6.41682">
        <ele>1155</ele>
        <time>2020-07-05T06:11:08.000Z</time>
        <extensions>
          <gpxtpx:TrackPointExtension xmlns:gpxtpx="http://www.garmin.com/xmlschemas/TrackPointExtension/v1">
            <gpxtpx:hr>129</gpxtpx:hr>
          </gpxtpx:TrackPointExtension>
        </extensions>
      </trkpt>
      <trkpt lat="45.78159" lon="6.41675">
        <ele>1155.4000244141</ele>
        <time>2020-07-05T06:11:10.000Z</time>
        <extensions>
          <gpxtpx:TrackPointExtension xmlns:gpxtpx="http://www.garmin.com/xmlschemas/TrackPointExtension/v1">
            <gpxtpx:hr>129</gpxtpx:hr>
          </gpxtpx:TrackPointExtension>
        </extensions>
      </trkpt>
      <trkpt lat="45.78163" lon="6.41665">
        <ele>1156.1999511719</ele>
        <time>2020-07-05T06:11:14.000Z</time>
        <extensions>
          <gpxtpx:TrackPointExtension xmlns:gpxtpx="http://www.garmin.com/xmlschemas/TrackPointExtension/v1">
            <gpxtpx:hr>129</gpxtpx:hr>
          </gpxtpx:TrackPointExtension>
        </extensions>
      </trkpt>
      <trkpt lat="45.78166" lon="6.41655">
        <ele>1157.1999511719</ele>
        <time>2020-07-05T06:11:17.000Z</time>
        <extensions>
          <gpxtpx:TrackPointExtension xmlns:gpxtpx="http://www.garmin.com/xmlschemas/TrackPointExtension/v1">
            <gpxtpx:hr>130</gpxtpx:hr>
          </gpxtpx:TrackPointExtension>
        </extensions>
      </trkpt>
      <trkpt lat="45.78166" lon="6.41652">
        <ele>1157.4000244141</ele>
        <time>2020-07-05T06:11:18.000Z</time>
        <extensions>
          <gpxtpx:TrackPointExtension xmlns:gpxtpx="http://www.garmin.com/xmlschemas/TrackPointExtension/v1">
            <gpxtpx:hr>130</gpxtpx:hr>
          </gpxtpx:TrackPointExtension>
        </extensions>
      </trkpt>
      <trkpt lat="45.78169" lon="6.4163">
        <ele>1158.1999511719</ele>
        <time>2020-07-05T06:11:23.000Z</time>
        <extensions>
          <gpxtpx:TrackPointExtension xmlns:gpxtpx="http://www.garmin.com/xmlschemas/TrackPointExtension/v1">
            <gpxtpx:hr>130</gpxtpx:hr>
          </gpxtpx:TrackPointExtension>
        </extensions>
      </trkpt>
      <trkpt lat="45.7817" lon="6.41626">
        <ele>1158.4000244141</ele>
        <time>2020-07-05T06:11:24.000Z</time>
        <extensions>
          <gpxtpx:TrackPointExtension xmlns:gpxtpx="http://www.garmin.com/xmlschemas/TrackPointExtension/v1">
            <gpxtpx:hr>130</gpxtpx:hr>
          </gpxtpx:TrackPointExtension>
        </extensions>
      </trkpt>
      <trkpt lat="45.78171" lon="6.41622">
        <ele>1158.8000488281</ele>
        <time>2020-07-05T06:11:25.000Z</time>
        <extensions>
          <gpxtpx:TrackPointExtension xmlns:gpxtpx="http://www.garmin.com/xmlschemas/TrackPointExtension/v1">
            <gpxtpx:hr>130</gpxtpx:hr>
          </gpxtpx:TrackPointExtension>
        </extensions>
      </trkpt>
      <trkpt lat="45.7817" lon="6.41609">
        <ele>1159.5999755859</ele>
        <time>2020-07-05T06:11:28.000Z</time>
        <extensions>
          <gpxtpx:TrackPointExtension xmlns:gpxtpx="http://www.garmin.com/xmlschemas/TrackPointExtension/v1">
            <gpxtpx:hr>130</gpxtpx:hr>
          </gpxtpx:TrackPointExtension>
        </extensions>
      </trkpt>
      <trkpt lat="45.78171" lon="6.41592">
        <ele>1160.5999755859</ele>
        <time>2020-07-05T06:11:32.000Z</time>
        <extensions>
          <gpxtpx:TrackPointExtension xmlns:gpxtpx="http://www.garmin.com/xmlschemas/TrackPointExtension/v1">
            <gpxtpx:hr>130</gpxtpx:hr>
          </gpxtpx:TrackPointExtension>
        </extensions>
      </trkpt>
      <trkpt lat="45.78171" lon="6.41581">
        <ele>1161.5999755859</ele>
        <time>2020-07-05T06:11:35.000Z</time>
        <extensions>
          <gpxtpx:TrackPointExtension xmlns:gpxtpx="http://www.garmin.com/xmlschemas/TrackPointExtension/v1">
            <gpxtpx:hr>130</gpxtpx:hr>
          </gpxtpx:TrackPointExtension>
        </extensions>
      </trkpt>
      <trkpt lat="45.78176" lon="6.41571">
        <ele>1162.8000488281</ele>
        <time>2020-07-05T06:11:39.000Z</time>
        <extensions>
          <gpxtpx:TrackPointExtension xmlns:gpxtpx="http://www.garmin.com/xmlschemas/TrackPointExtension/v1">
            <gpxtpx:hr>130</gpxtpx:hr>
          </gpxtpx:TrackPointExtension>
        </extensions>
      </trkpt>
      <trkpt lat="45.78179" lon="6.4156">
        <ele>1163.8000488281</ele>
        <time>2020-07-05T06:11:43.000Z</time>
        <extensions>
          <gpxtpx:TrackPointExtension xmlns:gpxtpx="http://www.garmin.com/xmlschemas/TrackPointExtension/v1">
            <gpxtpx:hr>129</gpxtpx:hr>
          </gpxtpx:TrackPointExtension>
        </extensions>
      </trkpt>
      <trkpt lat="45.78186" lon="6.41548">
        <ele>1164.8000488281</ele>
        <time>2020-07-05T06:11:48.000Z</time>
        <extensions>
          <gpxtpx:TrackPointExtension xmlns:gpxtpx="http://www.garmin.com/xmlschemas/TrackPointExtension/v1">
            <gpxtpx:hr>127</gpxtpx:hr>
          </gpxtpx:TrackPointExtension>
        </extensions>
      </trkpt>
      <trkpt lat="45.78189" lon="6.41544">
        <ele>1165.1999511719</ele>
        <time>2020-07-05T06:11:50.000Z</time>
        <extensions>
          <gpxtpx:TrackPointExtension xmlns:gpxtpx="http://www.garmin.com/xmlschemas/TrackPointExtension/v1">
            <gpxtpx:hr>126</gpxtpx:hr>
          </gpxtpx:TrackPointExtension>
        </extensions>
      </trkpt>
      <trkpt lat="45.78194" lon="6.41537">
        <ele>1166</ele>
        <time>2020-07-05T06:11:53.000Z</time>
        <extensions>
          <gpxtpx:TrackPointExtension xmlns:gpxtpx="http://www.garmin.com/xmlschemas/TrackPointExtension/v1">
            <gpxtpx:hr>126</gpxtpx:hr>
          </gpxtpx:TrackPointExtension>
        </extensions>
      </trkpt>
      <trkpt lat="45.78201" lon="6.4153">
        <ele>1167</ele>
        <time>2020-07-05T06:11:57.000Z</time>
        <extensions>
          <gpxtpx:TrackPointExtension xmlns:gpxtpx="http://www.garmin.com/xmlschemas/TrackPointExtension/v1">
            <gpxtpx:hr>126</gpxtpx:hr>
          </gpxtpx:TrackPointExtension>
        </extensions>
      </trkpt>
      <trkpt lat="45.78203" lon="6.41529">
        <ele>1167.1999511719</ele>
        <time>2020-07-05T06:11:58.000Z</time>
        <extensions>
          <gpxtpx:TrackPointExtension xmlns:gpxtpx="http://www.garmin.com/xmlschemas/TrackPointExtension/v1">
            <gpxtpx:hr>126</gpxtpx:hr>
          </gpxtpx:TrackPointExtension>
        </extensions>
      </trkpt>
      <trkpt lat="45.78215" lon="6.41524">
        <ele>1168.1999511719</ele>
        <time>2020-07-05T06:12:03.000Z</time>
        <extensions>
          <gpxtpx:TrackPointExtension xmlns:gpxtpx="http://www.garmin.com/xmlschemas/TrackPointExtension/v1">
            <gpxtpx:hr>125</gpxtpx:hr>
          </gpxtpx:TrackPointExtension>
        </extensions>
      </trkpt>
      <trkpt lat="45.78219" lon="6.4152">
        <ele>1168.8000488281</ele>
        <time>2020-07-05T06:12:05.000Z</time>
        <extensions>
          <gpxtpx:TrackPointExtension xmlns:gpxtpx="http://www.garmin.com/xmlschemas/TrackPointExtension/v1">
            <gpxtpx:hr>125</gpxtpx:hr>
          </gpxtpx:TrackPointExtension>
        </extensions>
      </trkpt>
      <trkpt lat="45.78222" lon="6.41517">
        <ele>1169.4000244141</ele>
        <time>2020-07-05T06:12:07.000Z</time>
        <extensions>
          <gpxtpx:TrackPointExtension xmlns:gpxtpx="http://www.garmin.com/xmlschemas/TrackPointExtension/v1">
            <gpxtpx:hr>126</gpxtpx:hr>
          </gpxtpx:TrackPointExtension>
        </extensions>
      </trkpt>
      <trkpt lat="45.78233" lon="6.41508">
        <ele>1170.4000244141</ele>
        <time>2020-07-05T06:12:12.000Z</time>
        <extensions>
          <gpxtpx:TrackPointExtension xmlns:gpxtpx="http://www.garmin.com/xmlschemas/TrackPointExtension/v1">
            <gpxtpx:hr>126</gpxtpx:hr>
          </gpxtpx:TrackPointExtension>
        </extensions>
      </trkpt>
      <trkpt lat="45.78235" lon="6.41505">
        <ele>1170.5999755859</ele>
        <time>2020-07-05T06:12:13.000Z</time>
        <extensions>
          <gpxtpx:TrackPointExtension xmlns:gpxtpx="http://www.garmin.com/xmlschemas/TrackPointExtension/v1">
            <gpxtpx:hr>126</gpxtpx:hr>
          </gpxtpx:TrackPointExtension>
        </extensions>
      </trkpt>
      <trkpt lat="45.78243" lon="6.41499">
        <ele>1171.5999755859</ele>
        <time>2020-07-05T06:12:16.000Z</time>
        <extensions>
          <gpxtpx:TrackPointExtension xmlns:gpxtpx="http://www.garmin.com/xmlschemas/TrackPointExtension/v1">
            <gpxtpx:hr>127</gpxtpx:hr>
          </gpxtpx:TrackPointExtension>
        </extensions>
      </trkpt>
      <trkpt lat="45.78252" lon="6.41496">
        <ele>1172.1999511719</ele>
        <time>2020-07-05T06:12:19.000Z</time>
        <extensions>
          <gpxtpx:TrackPointExtension xmlns:gpxtpx="http://www.garmin.com/xmlschemas/TrackPointExtension/v1">
            <gpxtpx:hr>128</gpxtpx:hr>
          </gpxtpx:TrackPointExtension>
        </extensions>
      </trkpt>
      <trkpt lat="45.78257" lon="6.41492">
        <ele>1172.8000488281</ele>
        <time>2020-07-05T06:12:21.000Z</time>
        <extensions>
          <gpxtpx:TrackPointExtension xmlns:gpxtpx="http://www.garmin.com/xmlschemas/TrackPointExtension/v1">
            <gpxtpx:hr>128</gpxtpx:hr>
          </gpxtpx:TrackPointExtension>
        </extensions>
      </trkpt>
      <trkpt lat="45.7826" lon="6.4149">
        <ele>1173</ele>
        <time>2020-07-05T06:12:22.000Z</time>
        <extensions>
          <gpxtpx:TrackPointExtension xmlns:gpxtpx="http://www.garmin.com/xmlschemas/TrackPointExtension/v1">
            <gpxtpx:hr>128</gpxtpx:hr>
          </gpxtpx:TrackPointExtension>
        </extensions>
      </trkpt>
      <trkpt lat="45.78262" lon="6.41489">
        <ele>1173.1999511719</ele>
        <time>2020-07-05T06:12:23.000Z</time>
        <extensions>
          <gpxtpx:TrackPointExtension xmlns:gpxtpx="http://www.garmin.com/xmlschemas/TrackPointExtension/v1">
            <gpxtpx:hr>128</gpxtpx:hr>
          </gpxtpx:TrackPointExtension>
        </extensions>
      </trkpt>
      <trkpt lat="45.78267" lon="6.41487">
        <ele>1173.8000488281</ele>
        <time>2020-07-05T06:12:25.000Z</time>
        <extensions>
          <gpxtpx:TrackPointExtension xmlns:gpxtpx="http://www.garmin.com/xmlschemas/TrackPointExtension/v1">
            <gpxtpx:hr>128</gpxtpx:hr>
          </gpxtpx:TrackPointExtension>
        </extensions>
      </trkpt>
      <trkpt lat="45.78278" lon="6.41486">
        <ele>1174.8000488281</ele>
        <time>2020-07-05T06:12:29.000Z</time>
        <extensions>
          <gpxtpx:TrackPointExtension xmlns:gpxtpx="http://www.garmin.com/xmlschemas/TrackPointExtension/v1">
            <gpxtpx:hr>128</gpxtpx:hr>
          </gpxtpx:TrackPointExtension>
        </extensions>
      </trkpt>
      <trkpt lat="45.7828" lon="6.41486">
        <ele>1175</ele>
        <time>2020-07-05T06:12:30.000Z</time>
        <extensions>
          <gpxtpx:TrackPointExtension xmlns:gpxtpx="http://www.garmin.com/xmlschemas/TrackPointExtension/v1">
            <gpxtpx:hr>128</gpxtpx:hr>
          </gpxtpx:TrackPointExtension>
        </extensions>
      </trkpt>
      <trkpt lat="45.78282" lon="6.41485">
        <ele>1175.1999511719</ele>
        <time>2020-07-05T06:12:31.000Z</time>
        <extensions>
          <gpxtpx:TrackPointExtension xmlns:gpxtpx="http://www.garmin.com/xmlschemas/TrackPointExtension/v1">
            <gpxtpx:hr>127</gpxtpx:hr>
          </gpxtpx:TrackPointExtension>
        </extensions>
      </trkpt>
      <trkpt lat="45.78286" lon="6.41483">
        <ele>1175.5999755859</ele>
        <time>2020-07-05T06:12:33.000Z</time>
        <extensions>
          <gpxtpx:TrackPointExtension xmlns:gpxtpx="http://www.garmin.com/xmlschemas/TrackPointExtension/v1">
            <gpxtpx:hr>126</gpxtpx:hr>
          </gpxtpx:TrackPointExtension>
        </extensions>
      </trkpt>
      <trkpt lat="45.78294" lon="6.4148">
        <ele>1176</ele>
        <time>2020-07-05T06:12:36.000Z</time>
        <extensions>
          <gpxtpx:TrackPointExtension xmlns:gpxtpx="http://www.garmin.com/xmlschemas/TrackPointExtension/v1">
            <gpxtpx:hr>126</gpxtpx:hr>
          </gpxtpx:TrackPointExtension>
        </extensions>
      </trkpt>
      <trkpt lat="45.78302" lon="6.41472">
        <ele>1176.8000488281</ele>
        <time>2020-07-05T06:12:40.000Z</time>
        <extensions>
          <gpxtpx:TrackPointExtension xmlns:gpxtpx="http://www.garmin.com/xmlschemas/TrackPointExtension/v1">
            <gpxtpx:hr>125</gpxtpx:hr>
          </gpxtpx:TrackPointExtension>
        </extensions>
      </trkpt>
      <trkpt lat="45.78304" lon="6.4147">
        <ele>1176.8000488281</ele>
        <time>2020-07-05T06:12:41.000Z</time>
        <extensions>
          <gpxtpx:TrackPointExtension xmlns:gpxtpx="http://www.garmin.com/xmlschemas/TrackPointExtension/v1">
            <gpxtpx:hr>125</gpxtpx:hr>
          </gpxtpx:TrackPointExtension>
        </extensions>
      </trkpt>
      <trkpt lat="45.78307" lon="6.41468">
        <ele>1177.1999511719</ele>
        <time>2020-07-05T06:12:42.000Z</time>
        <extensions>
          <gpxtpx:TrackPointExtension xmlns:gpxtpx="http://www.garmin.com/xmlschemas/TrackPointExtension/v1">
            <gpxtpx:hr>124</gpxtpx:hr>
          </gpxtpx:TrackPointExtension>
        </extensions>
      </trkpt>
      <trkpt lat="45.78311" lon="6.41465">
        <ele>1177.4000244141</ele>
        <time>2020-07-05T06:12:44.000Z</time>
        <extensions>
          <gpxtpx:TrackPointExtension xmlns:gpxtpx="http://www.garmin.com/xmlschemas/TrackPointExtension/v1">
            <gpxtpx:hr>124</gpxtpx:hr>
          </gpxtpx:TrackPointExtension>
        </extensions>
      </trkpt>
      <trkpt lat="45.78319" lon="6.41458">
        <ele>1178.1999511719</ele>
        <time>2020-07-05T06:12:48.000Z</time>
        <extensions>
          <gpxtpx:TrackPointExtension xmlns:gpxtpx="http://www.garmin.com/xmlschemas/TrackPointExtension/v1">
            <gpxtpx:hr>123</gpxtpx:hr>
          </gpxtpx:TrackPointExtension>
        </extensions>
      </trkpt>
      <trkpt lat="45.7833" lon="6.41452">
        <ele>1178.4000244141</ele>
        <time>2020-07-05T06:12:52.000Z</time>
        <extensions>
          <gpxtpx:TrackPointExtension xmlns:gpxtpx="http://www.garmin.com/xmlschemas/TrackPointExtension/v1">
            <gpxtpx:hr>123</gpxtpx:hr>
          </gpxtpx:TrackPointExtension>
        </extensions>
      </trkpt>
      <trkpt lat="45.78342" lon="6.41433">
        <ele>1179.1999511719</ele>
        <time>2020-07-05T06:12:57.000Z</time>
        <extensions>
          <gpxtpx:TrackPointExtension xmlns:gpxtpx="http://www.garmin.com/xmlschemas/TrackPointExtension/v1">
            <gpxtpx:hr>123</gpxtpx:hr>
          </gpxtpx:TrackPointExtension>
        </extensions>
      </trkpt>
      <trkpt lat="45.78344" lon="6.41431">
        <ele>1179.4000244141</ele>
        <time>2020-07-05T06:12:58.000Z</time>
        <extensions>
          <gpxtpx:TrackPointExtension xmlns:gpxtpx="http://www.garmin.com/xmlschemas/TrackPointExtension/v1">
            <gpxtpx:hr>122</gpxtpx:hr>
          </gpxtpx:TrackPointExtension>
        </extensions>
      </trkpt>
      <trkpt lat="45.78346" lon="6.4143">
        <ele>1179.5999755859</ele>
        <time>2020-07-05T06:12:59.000Z</time>
        <extensions>
          <gpxtpx:TrackPointExtension xmlns:gpxtpx="http://www.garmin.com/xmlschemas/TrackPointExtension/v1">
            <gpxtpx:hr>122</gpxtpx:hr>
          </gpxtpx:TrackPointExtension>
        </extensions>
      </trkpt>
      <trkpt lat="45.7835" lon="6.41431">
        <ele>1180</ele>
        <time>2020-07-05T06:13:02.000Z</time>
        <extensions>
          <gpxtpx:TrackPointExtension xmlns:gpxtpx="http://www.garmin.com/xmlschemas/TrackPointExtension/v1">
            <gpxtpx:hr>121</gpxtpx:hr>
          </gpxtpx:TrackPointExtension>
        </extensions>
      </trkpt>
      <trkpt lat="45.7835" lon="6.41431">
        <ele>1180.1999511719</ele>
        <time>2020-07-05T06:13:03.000Z</time>
        <extensions>
          <gpxtpx:TrackPointExtension xmlns:gpxtpx="http://www.garmin.com/xmlschemas/TrackPointExtension/v1">
            <gpxtpx:hr>121</gpxtpx:hr>
          </gpxtpx:TrackPointExtension>
        </extensions>
      </trkpt>
      <trkpt lat="45.78349" lon="6.41432">
        <ele>1180.8000488281</ele>
        <time>2020-07-05T06:13:04.000Z</time>
        <extensions>
          <gpxtpx:TrackPointExtension xmlns:gpxtpx="http://www.garmin.com/xmlschemas/TrackPointExtension/v1">
            <gpxtpx:hr>121</gpxtpx:hr>
          </gpxtpx:TrackPointExtension>
        </extensions>
      </trkpt>
      <trkpt lat="45.78347" lon="6.41438">
        <ele>1181.4000244141</ele>
        <time>2020-07-05T06:13:06.000Z</time>
        <extensions>
          <gpxtpx:TrackPointExtension xmlns:gpxtpx="http://www.garmin.com/xmlschemas/TrackPointExtension/v1">
            <gpxtpx:hr>121</gpxtpx:hr>
          </gpxtpx:TrackPointExtension>
        </extensions>
      </trkpt>
      <trkpt lat="45.78339" lon="6.41457">
        <ele>1182.4000244141</ele>
        <time>2020-07-05T06:13:10.000Z</time>
        <extensions>
          <gpxtpx:TrackPointExtension xmlns:gpxtpx="http://www.garmin.com/xmlschemas/TrackPointExtension/v1">
            <gpxtpx:hr>119</gpxtpx:hr>
          </gpxtpx:TrackPointExtension>
        </extensions>
      </trkpt>
      <trkpt lat="45.78338" lon="6.41461">
        <ele>1182.5999755859</ele>
        <time>2020-07-05T06:13:11.000Z</time>
        <extensions>
          <gpxtpx:TrackPointExtension xmlns:gpxtpx="http://www.garmin.com/xmlschemas/TrackPointExtension/v1">
            <gpxtpx:hr>119</gpxtpx:hr>
          </gpxtpx:TrackPointExtension>
        </extensions>
      </trkpt>
      <trkpt lat="45.78336" lon="6.41464">
        <ele>1182.8000488281</ele>
        <time>2020-07-05T06:13:12.000Z</time>
        <extensions>
          <gpxtpx:TrackPointExtension xmlns:gpxtpx="http://www.garmin.com/xmlschemas/TrackPointExtension/v1">
            <gpxtpx:hr>119</gpxtpx:hr>
          </gpxtpx:TrackPointExtension>
        </extensions>
      </trkpt>
      <trkpt lat="45.78334" lon="6.41467">
        <ele>1183</ele>
        <time>2020-07-05T06:13:13.000Z</time>
        <extensions>
          <gpxtpx:TrackPointExtension xmlns:gpxtpx="http://www.garmin.com/xmlschemas/TrackPointExtension/v1">
            <gpxtpx:hr>119</gpxtpx:hr>
          </gpxtpx:TrackPointExtension>
        </extensions>
      </trkpt>
      <trkpt lat="45.78327" lon="6.4148">
        <ele>1183.8000488281</ele>
        <time>2020-07-05T06:13:17.000Z</time>
        <extensions>
          <gpxtpx:TrackPointExtension xmlns:gpxtpx="http://www.garmin.com/xmlschemas/TrackPointExtension/v1">
            <gpxtpx:hr>119</gpxtpx:hr>
          </gpxtpx:TrackPointExtension>
        </extensions>
      </trkpt>
      <trkpt lat="45.7832" lon="6.4149">
        <ele>1185</ele>
        <time>2020-07-05T06:13:22.000Z</time>
        <extensions>
          <gpxtpx:TrackPointExtension xmlns:gpxtpx="http://www.garmin.com/xmlschemas/TrackPointExtension/v1">
            <gpxtpx:hr>120</gpxtpx:hr>
          </gpxtpx:TrackPointExtension>
        </extensions>
      </trkpt>
      <trkpt lat="45.78316" lon="6.41498">
        <ele>1185.4000244141</ele>
        <time>2020-07-05T06:13:24.000Z</time>
        <extensions>
          <gpxtpx:TrackPointExtension xmlns:gpxtpx="http://www.garmin.com/xmlschemas/TrackPointExtension/v1">
            <gpxtpx:hr>121</gpxtpx:hr>
          </gpxtpx:TrackPointExtension>
        </extensions>
      </trkpt>
      <trkpt lat="45.78311" lon="6.41513">
        <ele>1186</ele>
        <time>2020-07-05T06:13:28.000Z</time>
        <extensions>
          <gpxtpx:TrackPointExtension xmlns:gpxtpx="http://www.garmin.com/xmlschemas/TrackPointExtension/v1">
            <gpxtpx:hr>121</gpxtpx:hr>
          </gpxtpx:TrackPointExtension>
        </extensions>
      </trkpt>
      <trkpt lat="45.78309" lon="6.41515">
        <ele>1186.1999511719</ele>
        <time>2020-07-05T06:13:29.000Z</time>
        <extensions>
          <gpxtpx:TrackPointExtension xmlns:gpxtpx="http://www.garmin.com/xmlschemas/TrackPointExtension/v1">
            <gpxtpx:hr>121</gpxtpx:hr>
          </gpxtpx:TrackPointExtension>
        </extensions>
      </trkpt>
      <trkpt lat="45.78297" lon="6.41523">
        <ele>1187.1999511719</ele>
        <time>2020-07-05T06:13:31.000Z</time>
        <extensions>
          <gpxtpx:TrackPointExtension xmlns:gpxtpx="http://www.garmin.com/xmlschemas/TrackPointExtension/v1">
            <gpxtpx:hr>120</gpxtpx:hr>
          </gpxtpx:TrackPointExtension>
        </extensions>
      </trkpt>
      <trkpt lat="45.78286" lon="6.41532">
        <ele>1188.1999511719</ele>
        <time>2020-07-05T06:13:35.000Z</time>
        <extensions>
          <gpxtpx:TrackPointExtension xmlns:gpxtpx="http://www.garmin.com/xmlschemas/TrackPointExtension/v1">
            <gpxtpx:hr>119</gpxtpx:hr>
          </gpxtpx:TrackPointExtension>
        </extensions>
      </trkpt>
      <trkpt lat="45.78277" lon="6.41539">
        <ele>1189.1999511719</ele>
        <time>2020-07-05T06:13:39.000Z</time>
        <extensions>
          <gpxtpx:TrackPointExtension xmlns:gpxtpx="http://www.garmin.com/xmlschemas/TrackPointExtension/v1">
            <gpxtpx:hr>119</gpxtpx:hr>
          </gpxtpx:TrackPointExtension>
        </extensions>
      </trkpt>
      <trkpt lat="45.78265" lon="6.41549">
        <ele>1190.4000244141</ele>
        <time>2020-07-05T06:13:44.000Z</time>
        <extensions>
          <gpxtpx:TrackPointExtension xmlns:gpxtpx="http://www.garmin.com/xmlschemas/TrackPointExtension/v1">
            <gpxtpx:hr>119</gpxtpx:hr>
          </gpxtpx:TrackPointExtension>
        </extensions>
      </trkpt>
      <trkpt lat="45.78257" lon="6.41554">
        <ele>1191.4000244141</ele>
        <time>2020-07-05T06:13:48.000Z</time>
        <extensions>
          <gpxtpx:TrackPointExtension xmlns:gpxtpx="http://www.garmin.com/xmlschemas/TrackPointExtension/v1">
            <gpxtpx:hr>119</gpxtpx:hr>
          </gpxtpx:TrackPointExtension>
        </extensions>
      </trkpt>
      <trkpt lat="45.78256" lon="6.41555">
        <ele>1191.8000488281</ele>
        <time>2020-07-05T06:13:49.000Z</time>
        <extensions>
          <gpxtpx:TrackPointExtension xmlns:gpxtpx="http://www.garmin.com/xmlschemas/TrackPointExtension/v1">
            <gpxtpx:hr>119</gpxtpx:hr>
          </gpxtpx:TrackPointExtension>
        </extensions>
      </trkpt>
      <trkpt lat="45.78247" lon="6.41567">
        <ele>1192.4000244141</ele>
        <time>2020-07-05T06:13:53.000Z</time>
        <extensions>
          <gpxtpx:TrackPointExtension xmlns:gpxtpx="http://www.garmin.com/xmlschemas/TrackPointExtension/v1">
            <gpxtpx:hr>120</gpxtpx:hr>
          </gpxtpx:TrackPointExtension>
        </extensions>
      </trkpt>
      <trkpt lat="45.78244" lon="6.4157">
        <ele>1193</ele>
        <time>2020-07-05T06:13:55.000Z</time>
        <extensions>
          <gpxtpx:TrackPointExtension xmlns:gpxtpx="http://www.garmin.com/xmlschemas/TrackPointExtension/v1">
            <gpxtpx:hr>121</gpxtpx:hr>
          </gpxtpx:TrackPointExtension>
        </extensions>
      </trkpt>
      <trkpt lat="45.7824" lon="6.41572">
        <ele>1193.5999755859</ele>
        <time>2020-07-05T06:13:58.000Z</time>
        <extensions>
          <gpxtpx:TrackPointExtension xmlns:gpxtpx="http://www.garmin.com/xmlschemas/TrackPointExtension/v1">
            <gpxtpx:hr>122</gpxtpx:hr>
          </gpxtpx:TrackPointExtension>
        </extensions>
      </trkpt>
      <trkpt lat="45.78236" lon="6.41576">
        <ele>1194.4000244141</ele>
        <time>2020-07-05T06:14:01.000Z</time>
        <extensions>
          <gpxtpx:TrackPointExtension xmlns:gpxtpx="http://www.garmin.com/xmlschemas/TrackPointExtension/v1">
            <gpxtpx:hr>125</gpxtpx:hr>
          </gpxtpx:TrackPointExtension>
        </extensions>
      </trkpt>
      <trkpt lat="45.78234" lon="6.41578">
        <ele>1194.5999755859</ele>
        <time>2020-07-05T06:14:02.000Z</time>
        <extensions>
          <gpxtpx:TrackPointExtension xmlns:gpxtpx="http://www.garmin.com/xmlschemas/TrackPointExtension/v1">
            <gpxtpx:hr>125</gpxtpx:hr>
          </gpxtpx:TrackPointExtension>
        </extensions>
      </trkpt>
      <trkpt lat="45.78233" lon="6.4158">
        <ele>1195</ele>
        <time>2020-07-05T06:14:03.000Z</time>
        <extensions>
          <gpxtpx:TrackPointExtension xmlns:gpxtpx="http://www.garmin.com/xmlschemas/TrackPointExtension/v1">
            <gpxtpx:hr>127</gpxtpx:hr>
          </gpxtpx:TrackPointExtension>
        </extensions>
      </trkpt>
      <trkpt lat="45.78229" lon="6.41587">
        <ele>1195.5999755859</ele>
        <time>2020-07-05T06:14:06.000Z</time>
        <extensions>
          <gpxtpx:TrackPointExtension xmlns:gpxtpx="http://www.garmin.com/xmlschemas/TrackPointExtension/v1">
            <gpxtpx:hr>130</gpxtpx:hr>
          </gpxtpx:TrackPointExtension>
        </extensions>
      </trkpt>
      <trkpt lat="45.78226" lon="6.41594">
        <ele>1196.1999511719</ele>
        <time>2020-07-05T06:14:09.000Z</time>
        <extensions>
          <gpxtpx:TrackPointExtension xmlns:gpxtpx="http://www.garmin.com/xmlschemas/TrackPointExtension/v1">
            <gpxtpx:hr>132</gpxtpx:hr>
          </gpxtpx:TrackPointExtension>
        </extensions>
      </trkpt>
      <trkpt lat="45.78225" lon="6.41597">
        <ele>1196.5999755859</ele>
        <time>2020-07-05T06:14:10.000Z</time>
        <extensions>
          <gpxtpx:TrackPointExtension xmlns:gpxtpx="http://www.garmin.com/xmlschemas/TrackPointExtension/v1">
            <gpxtpx:hr>132</gpxtpx:hr>
          </gpxtpx:TrackPointExtension>
        </extensions>
      </trkpt>
      <trkpt lat="45.78224" lon="6.416">
        <ele>1197</ele>
        <time>2020-07-05T06:14:11.000Z</time>
        <extensions>
          <gpxtpx:TrackPointExtension xmlns:gpxtpx="http://www.garmin.com/xmlschemas/TrackPointExtension/v1">
            <gpxtpx:hr>132</gpxtpx:hr>
          </gpxtpx:TrackPointExtension>
        </extensions>
      </trkpt>
      <trkpt lat="45.78222" lon="6.41611">
        <ele>1198</ele>
        <time>2020-07-05T06:14:15.000Z</time>
        <extensions>
          <gpxtpx:TrackPointExtension xmlns:gpxtpx="http://www.garmin.com/xmlschemas/TrackPointExtension/v1">
            <gpxtpx:hr>132</gpxtpx:hr>
          </gpxtpx:TrackPointExtension>
        </extensions>
      </trkpt>
      <trkpt lat="45.78222" lon="6.41622">
        <ele>1198.5999755859</ele>
        <time>2020-07-05T06:14:18.000Z</time>
        <extensions>
          <gpxtpx:TrackPointExtension xmlns:gpxtpx="http://www.garmin.com/xmlschemas/TrackPointExtension/v1">
            <gpxtpx:hr>131</gpxtpx:hr>
          </gpxtpx:TrackPointExtension>
        </extensions>
      </trkpt>
      <trkpt lat="45.78223" lon="6.41626">
        <ele>1199</ele>
        <time>2020-07-05T06:14:19.000Z</time>
        <extensions>
          <gpxtpx:TrackPointExtension xmlns:gpxtpx="http://www.garmin.com/xmlschemas/TrackPointExtension/v1">
            <gpxtpx:hr>130</gpxtpx:hr>
          </gpxtpx:TrackPointExtension>
        </extensions>
      </trkpt>
      <trkpt lat="45.78218" lon="6.41643">
        <ele>1200.1999511719</ele>
        <time>2020-07-05T06:14:24.000Z</time>
        <extensions>
          <gpxtpx:TrackPointExtension xmlns:gpxtpx="http://www.garmin.com/xmlschemas/TrackPointExtension/v1">
            <gpxtpx:hr>128</gpxtpx:hr>
          </gpxtpx:TrackPointExtension>
        </extensions>
      </trkpt>
      <trkpt lat="45.78219" lon="6.41647">
        <ele>1200.4000244141</ele>
        <time>2020-07-05T06:14:25.000Z</time>
        <extensions>
          <gpxtpx:TrackPointExtension xmlns:gpxtpx="http://www.garmin.com/xmlschemas/TrackPointExtension/v1">
            <gpxtpx:hr>128</gpxtpx:hr>
          </gpxtpx:TrackPointExtension>
        </extensions>
      </trkpt>
      <trkpt lat="45.78222" lon="6.41656">
        <ele>1201.1999511719</ele>
        <time>2020-07-05T06:14:28.000Z</time>
        <extensions>
          <gpxtpx:TrackPointExtension xmlns:gpxtpx="http://www.garmin.com/xmlschemas/TrackPointExtension/v1">
            <gpxtpx:hr>127</gpxtpx:hr>
          </gpxtpx:TrackPointExtension>
        </extensions>
      </trkpt>
      <trkpt lat="45.78221" lon="6.41659">
        <ele>1201.4000244141</ele>
        <time>2020-07-05T06:14:29.000Z</time>
        <extensions>
          <gpxtpx:TrackPointExtension xmlns:gpxtpx="http://www.garmin.com/xmlschemas/TrackPointExtension/v1">
            <gpxtpx:hr>127</gpxtpx:hr>
          </gpxtpx:TrackPointExtension>
        </extensions>
      </trkpt>
      <trkpt lat="45.78221" lon="6.41662">
        <ele>1201.4000244141</ele>
        <time>2020-07-05T06:14:30.000Z</time>
        <extensions>
          <gpxtpx:TrackPointExtension xmlns:gpxtpx="http://www.garmin.com/xmlschemas/TrackPointExtension/v1">
            <gpxtpx:hr>127</gpxtpx:hr>
          </gpxtpx:TrackPointExtension>
        </extensions>
      </trkpt>
      <trkpt lat="45.7822" lon="6.41691">
        <ele>1202.4000244141</ele>
        <time>2020-07-05T06:14:35.000Z</time>
        <extensions>
          <gpxtpx:TrackPointExtension xmlns:gpxtpx="http://www.garmin.com/xmlschemas/TrackPointExtension/v1">
            <gpxtpx:hr>127</gpxtpx:hr>
          </gpxtpx:TrackPointExtension>
        </extensions>
      </trkpt>
      <trkpt lat="45.7822" lon="6.41695">
        <ele>1202.5999755859</ele>
        <time>2020-07-05T06:14:36.000Z</time>
        <extensions>
          <gpxtpx:TrackPointExtension xmlns:gpxtpx="http://www.garmin.com/xmlschemas/TrackPointExtension/v1">
            <gpxtpx:hr>127</gpxtpx:hr>
          </gpxtpx:TrackPointExtension>
        </extensions>
      </trkpt>
      <trkpt lat="45.78218" lon="6.417">
        <ele>1203</ele>
        <time>2020-07-05T06:14:37.000Z</time>
        <extensions>
          <gpxtpx:TrackPointExtension xmlns:gpxtpx="http://www.garmin.com/xmlschemas/TrackPointExtension/v1">
            <gpxtpx:hr>127</gpxtpx:hr>
          </gpxtpx:TrackPointExtension>
        </extensions>
      </trkpt>
      <trkpt lat="45.78213" lon="6.41714">
        <ele>1203.4000244141</ele>
        <time>2020-07-05T06:14:39.000Z</time>
        <extensions>
          <gpxtpx:TrackPointExtension xmlns:gpxtpx="http://www.garmin.com/xmlschemas/TrackPointExtension/v1">
            <gpxtpx:hr>127</gpxtpx:hr>
          </gpxtpx:TrackPointExtension>
        </extensions>
      </trkpt>
      <trkpt lat="45.78216" lon="6.41726">
        <ele>1204.1999511719</ele>
        <time>2020-07-05T06:14:42.000Z</time>
        <extensions>
          <gpxtpx:TrackPointExtension xmlns:gpxtpx="http://www.garmin.com/xmlschemas/TrackPointExtension/v1">
            <gpxtpx:hr>127</gpxtpx:hr>
          </gpxtpx:TrackPointExtension>
        </extensions>
      </trkpt>
      <trkpt lat="45.78217" lon="6.41734">
        <ele>1204.4000244141</ele>
        <time>2020-07-05T06:14:44.000Z</time>
        <extensions>
          <gpxtpx:TrackPointExtension xmlns:gpxtpx="http://www.garmin.com/xmlschemas/TrackPointExtension/v1">
            <gpxtpx:hr>127</gpxtpx:hr>
          </gpxtpx:TrackPointExtension>
        </extensions>
      </trkpt>
      <trkpt lat="45.78226" lon="6.41745">
        <ele>1205.5999755859</ele>
        <time>2020-07-05T06:14:49.000Z</time>
        <extensions>
          <gpxtpx:TrackPointExtension xmlns:gpxtpx="http://www.garmin.com/xmlschemas/TrackPointExtension/v1">
            <gpxtpx:hr>126</gpxtpx:hr>
          </gpxtpx:TrackPointExtension>
        </extensions>
      </trkpt>
      <trkpt lat="45.78229" lon="6.41746">
        <ele>1206</ele>
        <time>2020-07-05T06:14:51.000Z</time>
        <extensions>
          <gpxtpx:TrackPointExtension xmlns:gpxtpx="http://www.garmin.com/xmlschemas/TrackPointExtension/v1">
            <gpxtpx:hr>126</gpxtpx:hr>
          </gpxtpx:TrackPointExtension>
        </extensions>
      </trkpt>
      <trkpt lat="45.78236" lon="6.41753">
        <ele>1206.8000488281</ele>
        <time>2020-07-05T06:14:54.000Z</time>
        <extensions>
          <gpxtpx:TrackPointExtension xmlns:gpxtpx="http://www.garmin.com/xmlschemas/TrackPointExtension/v1">
            <gpxtpx:hr>126</gpxtpx:hr>
          </gpxtpx:TrackPointExtension>
        </extensions>
      </trkpt>
      <trkpt lat="45.78245" lon="6.41767">
        <ele>1207.8000488281</ele>
        <time>2020-07-05T06:14:59.000Z</time>
        <extensions>
          <gpxtpx:TrackPointExtension xmlns:gpxtpx="http://www.garmin.com/xmlschemas/TrackPointExtension/v1">
            <gpxtpx:hr>125</gpxtpx:hr>
          </gpxtpx:TrackPointExtension>
        </extensions>
      </trkpt>
      <trkpt lat="45.78247" lon="6.4177">
        <ele>1208</ele>
        <time>2020-07-05T06:15:00.000Z</time>
        <extensions>
          <gpxtpx:TrackPointExtension xmlns:gpxtpx="http://www.garmin.com/xmlschemas/TrackPointExtension/v1">
            <gpxtpx:hr>125</gpxtpx:hr>
          </gpxtpx:TrackPointExtension>
        </extensions>
      </trkpt>
      <trkpt lat="45.78253" lon="6.41779">
        <ele>1208.8000488281</ele>
        <time>2020-07-05T06:15:03.000Z</time>
        <extensions>
          <gpxtpx:TrackPointExtension xmlns:gpxtpx="http://www.garmin.com/xmlschemas/TrackPointExtension/v1">
            <gpxtpx:hr>125</gpxtpx:hr>
          </gpxtpx:TrackPointExtension>
        </extensions>
      </trkpt>
      <trkpt lat="45.78257" lon="6.41792">
        <ele>1210</ele>
        <time>2020-07-05T06:15:08.000Z</time>
        <extensions>
          <gpxtpx:TrackPointExtension xmlns:gpxtpx="http://www.garmin.com/xmlschemas/TrackPointExtension/v1">
            <gpxtpx:hr>125</gpxtpx:hr>
          </gpxtpx:TrackPointExtension>
        </extensions>
      </trkpt>
      <trkpt lat="45.78259" lon="6.41794">
        <ele>1210.1999511719</ele>
        <time>2020-07-05T06:15:09.000Z</time>
        <extensions>
          <gpxtpx:TrackPointExtension xmlns:gpxtpx="http://www.garmin.com/xmlschemas/TrackPointExtension/v1">
            <gpxtpx:hr>125</gpxtpx:hr>
          </gpxtpx:TrackPointExtension>
        </extensions>
      </trkpt>
      <trkpt lat="45.78264" lon="6.418">
        <ele>1211.1999511719</ele>
        <time>2020-07-05T06:15:12.000Z</time>
        <extensions>
          <gpxtpx:TrackPointExtension xmlns:gpxtpx="http://www.garmin.com/xmlschemas/TrackPointExtension/v1">
            <gpxtpx:hr>125</gpxtpx:hr>
          </gpxtpx:TrackPointExtension>
        </extensions>
      </trkpt>
      <trkpt lat="45.78273" lon="6.41808">
        <ele>1212</ele>
        <time>2020-07-05T06:15:16.000Z</time>
        <extensions>
          <gpxtpx:TrackPointExtension xmlns:gpxtpx="http://www.garmin.com/xmlschemas/TrackPointExtension/v1">
            <gpxtpx:hr>126</gpxtpx:hr>
          </gpxtpx:TrackPointExtension>
        </extensions>
      </trkpt>
      <trkpt lat="45.78277" lon="6.41811">
        <ele>1212.4000244141</ele>
        <time>2020-07-05T06:15:18.000Z</time>
        <extensions>
          <gpxtpx:TrackPointExtension xmlns:gpxtpx="http://www.garmin.com/xmlschemas/TrackPointExtension/v1">
            <gpxtpx:hr>125</gpxtpx:hr>
          </gpxtpx:TrackPointExtension>
        </extensions>
      </trkpt>
      <trkpt lat="45.78291" lon="6.41818">
        <ele>1213.4000244141</ele>
        <time>2020-07-05T06:15:24.000Z</time>
        <extensions>
          <gpxtpx:TrackPointExtension xmlns:gpxtpx="http://www.garmin.com/xmlschemas/TrackPointExtension/v1">
            <gpxtpx:hr>125</gpxtpx:hr>
          </gpxtpx:TrackPointExtension>
        </extensions>
      </trkpt>
      <trkpt lat="45.78294" lon="6.4182">
        <ele>1213.5999755859</ele>
        <time>2020-07-05T06:15:25.000Z</time>
        <extensions>
          <gpxtpx:TrackPointExtension xmlns:gpxtpx="http://www.garmin.com/xmlschemas/TrackPointExtension/v1">
            <gpxtpx:hr>125</gpxtpx:hr>
          </gpxtpx:TrackPointExtension>
        </extensions>
      </trkpt>
      <trkpt lat="45.78301" lon="6.41822">
        <ele>1214.5999755859</ele>
        <time>2020-07-05T06:15:28.000Z</time>
        <extensions>
          <gpxtpx:TrackPointExtension xmlns:gpxtpx="http://www.garmin.com/xmlschemas/TrackPointExtension/v1">
            <gpxtpx:hr>126</gpxtpx:hr>
          </gpxtpx:TrackPointExtension>
        </extensions>
      </trkpt>
      <trkpt lat="45.78316" lon="6.41827">
        <ele>1215.5999755859</ele>
        <time>2020-07-05T06:15:34.000Z</time>
        <extensions>
          <gpxtpx:TrackPointExtension xmlns:gpxtpx="http://www.garmin.com/xmlschemas/TrackPointExtension/v1">
            <gpxtpx:hr>127</gpxtpx:hr>
          </gpxtpx:TrackPointExtension>
        </extensions>
      </trkpt>
      <trkpt lat="45.7832" lon="6.41829">
        <ele>1216</ele>
        <time>2020-07-05T06:15:36.000Z</time>
        <extensions>
          <gpxtpx:TrackPointExtension xmlns:gpxtpx="http://www.garmin.com/xmlschemas/TrackPointExtension/v1">
            <gpxtpx:hr>128</gpxtpx:hr>
          </gpxtpx:TrackPointExtension>
        </extensions>
      </trkpt>
      <trkpt lat="45.78326" lon="6.41833">
        <ele>1216.8000488281</ele>
        <time>2020-07-05T06:15:39.000Z</time>
        <extensions>
          <gpxtpx:TrackPointExtension xmlns:gpxtpx="http://www.garmin.com/xmlschemas/TrackPointExtension/v1">
            <gpxtpx:hr>128</gpxtpx:hr>
          </gpxtpx:TrackPointExtension>
        </extensions>
      </trkpt>
      <trkpt lat="45.78337" lon="6.41842">
        <ele>1217.8000488281</ele>
        <time>2020-07-05T06:15:44.000Z</time>
        <extensions>
          <gpxtpx:TrackPointExtension xmlns:gpxtpx="http://www.garmin.com/xmlschemas/TrackPointExtension/v1">
            <gpxtpx:hr>128</gpxtpx:hr>
          </gpxtpx:TrackPointExtension>
        </extensions>
      </trkpt>
      <trkpt lat="45.78339" lon="6.41845">
        <ele>1218</ele>
        <time>2020-07-05T06:15:45.000Z</time>
        <extensions>
          <gpxtpx:TrackPointExtension xmlns:gpxtpx="http://www.garmin.com/xmlschemas/TrackPointExtension/v1">
            <gpxtpx:hr>127</gpxtpx:hr>
          </gpxtpx:TrackPointExtension>
        </extensions>
      </trkpt>
      <trkpt lat="45.78342" lon="6.41849">
        <ele>1218.4000244141</ele>
        <time>2020-07-05T06:15:47.000Z</time>
        <extensions>
          <gpxtpx:TrackPointExtension xmlns:gpxtpx="http://www.garmin.com/xmlschemas/TrackPointExtension/v1">
            <gpxtpx:hr>126</gpxtpx:hr>
          </gpxtpx:TrackPointExtension>
        </extensions>
      </trkpt>
      <trkpt lat="45.78348" lon="6.41856">
        <ele>1218.8000488281</ele>
        <time>2020-07-05T06:15:50.000Z</time>
        <extensions>
          <gpxtpx:TrackPointExtension xmlns:gpxtpx="http://www.garmin.com/xmlschemas/TrackPointExtension/v1">
            <gpxtpx:hr>127</gpxtpx:hr>
          </gpxtpx:TrackPointExtension>
        </extensions>
      </trkpt>
      <trkpt lat="45.78355" lon="6.41865">
        <ele>1220</ele>
        <time>2020-07-05T06:15:54.000Z</time>
        <extensions>
          <gpxtpx:TrackPointExtension xmlns:gpxtpx="http://www.garmin.com/xmlschemas/TrackPointExtension/v1">
            <gpxtpx:hr>126</gpxtpx:hr>
          </gpxtpx:TrackPointExtension>
        </extensions>
      </trkpt>
      <trkpt lat="45.78362" lon="6.41874">
        <ele>1221</ele>
        <time>2020-07-05T06:15:58.000Z</time>
        <extensions>
          <gpxtpx:TrackPointExtension xmlns:gpxtpx="http://www.garmin.com/xmlschemas/TrackPointExtension/v1">
            <gpxtpx:hr>126</gpxtpx:hr>
          </gpxtpx:TrackPointExtension>
        </extensions>
      </trkpt>
      <trkpt lat="45.7837" lon="6.41883">
        <ele>1222</ele>
        <time>2020-07-05T06:16:02.000Z</time>
        <extensions>
          <gpxtpx:TrackPointExtension xmlns:gpxtpx="http://www.garmin.com/xmlschemas/TrackPointExtension/v1">
            <gpxtpx:hr>126</gpxtpx:hr>
          </gpxtpx:TrackPointExtension>
        </extensions>
      </trkpt>
      <trkpt lat="45.78378" lon="6.41891">
        <ele>1223.1999511719</ele>
        <time>2020-07-05T06:16:06.000Z</time>
        <extensions>
          <gpxtpx:TrackPointExtension xmlns:gpxtpx="http://www.garmin.com/xmlschemas/TrackPointExtension/v1">
            <gpxtpx:hr>126</gpxtpx:hr>
          </gpxtpx:TrackPointExtension>
        </extensions>
      </trkpt>
      <trkpt lat="45.78383" lon="6.41897">
        <ele>1224</ele>
        <time>2020-07-05T06:16:09.000Z</time>
        <extensions>
          <gpxtpx:TrackPointExtension xmlns:gpxtpx="http://www.garmin.com/xmlschemas/TrackPointExtension/v1">
            <gpxtpx:hr>126</gpxtpx:hr>
          </gpxtpx:TrackPointExtension>
        </extensions>
      </trkpt>
      <trkpt lat="45.78385" lon="6.41899">
        <ele>1224.1999511719</ele>
        <time>2020-07-05T06:16:10.000Z</time>
        <extensions>
          <gpxtpx:TrackPointExtension xmlns:gpxtpx="http://www.garmin.com/xmlschemas/TrackPointExtension/v1">
            <gpxtpx:hr>126</gpxtpx:hr>
          </gpxtpx:TrackPointExtension>
        </extensions>
      </trkpt>
      <trkpt lat="45.78392" lon="6.41913">
        <ele>1225</ele>
        <time>2020-07-05T06:16:15.000Z</time>
        <extensions>
          <gpxtpx:TrackPointExtension xmlns:gpxtpx="http://www.garmin.com/xmlschemas/TrackPointExtension/v1">
            <gpxtpx:hr>125</gpxtpx:hr>
          </gpxtpx:TrackPointExtension>
        </extensions>
      </trkpt>
      <trkpt lat="45.78393" lon="6.41919">
        <ele>1225.4000244141</ele>
        <time>2020-07-05T06:16:17.000Z</time>
        <extensions>
          <gpxtpx:TrackPointExtension xmlns:gpxtpx="http://www.garmin.com/xmlschemas/TrackPointExtension/v1">
            <gpxtpx:hr>125</gpxtpx:hr>
          </gpxtpx:TrackPointExtension>
        </extensions>
      </trkpt>
      <trkpt lat="45.78395" lon="6.41929">
        <ele>1226</ele>
        <time>2020-07-05T06:16:20.000Z</time>
        <extensions>
          <gpxtpx:TrackPointExtension xmlns:gpxtpx="http://www.garmin.com/xmlschemas/TrackPointExtension/v1">
            <gpxtpx:hr>126</gpxtpx:hr>
          </gpxtpx:TrackPointExtension>
        </extensions>
      </trkpt>
      <trkpt lat="45.78398" lon="6.41934">
        <ele>1226.5999755859</ele>
        <time>2020-07-05T06:16:22.000Z</time>
        <extensions>
          <gpxtpx:TrackPointExtension xmlns:gpxtpx="http://www.garmin.com/xmlschemas/TrackPointExtension/v1">
            <gpxtpx:hr>127</gpxtpx:hr>
          </gpxtpx:TrackPointExtension>
        </extensions>
      </trkpt>
      <trkpt lat="45.78403" lon="6.41943">
        <ele>1227.4000244141</ele>
        <time>2020-07-05T06:16:26.000Z</time>
        <extensions>
          <gpxtpx:TrackPointExtension xmlns:gpxtpx="http://www.garmin.com/xmlschemas/TrackPointExtension/v1">
            <gpxtpx:hr>127</gpxtpx:hr>
          </gpxtpx:TrackPointExtension>
        </extensions>
      </trkpt>
      <trkpt lat="45.78404" lon="6.41945">
        <ele>1227.8000488281</ele>
        <time>2020-07-05T06:16:27.000Z</time>
        <extensions>
          <gpxtpx:TrackPointExtension xmlns:gpxtpx="http://www.garmin.com/xmlschemas/TrackPointExtension/v1">
            <gpxtpx:hr>127</gpxtpx:hr>
          </gpxtpx:TrackPointExtension>
        </extensions>
      </trkpt>
      <trkpt lat="45.78405" lon="6.4195">
        <ele>1228.4000244141</ele>
        <time>2020-07-05T06:16:29.000Z</time>
        <extensions>
          <gpxtpx:TrackPointExtension xmlns:gpxtpx="http://www.garmin.com/xmlschemas/TrackPointExtension/v1">
            <gpxtpx:hr>127</gpxtpx:hr>
          </gpxtpx:TrackPointExtension>
        </extensions>
      </trkpt>
      <trkpt lat="45.78407" lon="6.41955">
        <ele>1229</ele>
        <time>2020-07-05T06:16:31.000Z</time>
        <extensions>
          <gpxtpx:TrackPointExtension xmlns:gpxtpx="http://www.garmin.com/xmlschemas/TrackPointExtension/v1">
            <gpxtpx:hr>128</gpxtpx:hr>
          </gpxtpx:TrackPointExtension>
        </extensions>
      </trkpt>
      <trkpt lat="45.7841" lon="6.41964">
        <ele>1229.5999755859</ele>
        <time>2020-07-05T06:16:34.000Z</time>
        <extensions>
          <gpxtpx:TrackPointExtension xmlns:gpxtpx="http://www.garmin.com/xmlschemas/TrackPointExtension/v1">
            <gpxtpx:hr>128</gpxtpx:hr>
          </gpxtpx:TrackPointExtension>
        </extensions>
      </trkpt>
      <trkpt lat="45.78412" lon="6.41968">
        <ele>1229.8000488281</ele>
        <time>2020-07-05T06:16:35.000Z</time>
        <extensions>
          <gpxtpx:TrackPointExtension xmlns:gpxtpx="http://www.garmin.com/xmlschemas/TrackPointExtension/v1">
            <gpxtpx:hr>128</gpxtpx:hr>
          </gpxtpx:TrackPointExtension>
        </extensions>
      </trkpt>
      <trkpt lat="45.78413" lon="6.41972">
        <ele>1230</ele>
        <time>2020-07-05T06:16:36.000Z</time>
        <extensions>
          <gpxtpx:TrackPointExtension xmlns:gpxtpx="http://www.garmin.com/xmlschemas/TrackPointExtension/v1">
            <gpxtpx:hr>128</gpxtpx:hr>
          </gpxtpx:TrackPointExtension>
        </extensions>
      </trkpt>
      <trkpt lat="45.78414" lon="6.41976">
        <ele>1230.4000244141</ele>
        <time>2020-07-05T06:16:37.000Z</time>
        <extensions>
          <gpxtpx:TrackPointExtension xmlns:gpxtpx="http://www.garmin.com/xmlschemas/TrackPointExtension/v1">
            <gpxtpx:hr>128</gpxtpx:hr>
          </gpxtpx:TrackPointExtension>
        </extensions>
      </trkpt>
      <trkpt lat="45.78419" lon="6.41984">
        <ele>1231.1999511719</ele>
        <time>2020-07-05T06:16:40.000Z</time>
        <extensions>
          <gpxtpx:TrackPointExtension xmlns:gpxtpx="http://www.garmin.com/xmlschemas/TrackPointExtension/v1">
            <gpxtpx:hr>128</gpxtpx:hr>
          </gpxtpx:TrackPointExtension>
        </extensions>
      </trkpt>
      <trkpt lat="45.78428" lon="6.42007">
        <ele>1232.4000244141</ele>
        <time>2020-07-05T06:16:46.000Z</time>
        <extensions>
          <gpxtpx:TrackPointExtension xmlns:gpxtpx="http://www.garmin.com/xmlschemas/TrackPointExtension/v1">
            <gpxtpx:hr>128</gpxtpx:hr>
          </gpxtpx:TrackPointExtension>
        </extensions>
      </trkpt>
      <trkpt lat="45.78431" lon="6.4201">
        <ele>1233</ele>
        <time>2020-07-05T06:16:48.000Z</time>
        <extensions>
          <gpxtpx:TrackPointExtension xmlns:gpxtpx="http://www.garmin.com/xmlschemas/TrackPointExtension/v1">
            <gpxtpx:hr>128</gpxtpx:hr>
          </gpxtpx:TrackPointExtension>
        </extensions>
      </trkpt>
      <trkpt lat="45.78434" lon="6.42015">
        <ele>1233.5999755859</ele>
        <time>2020-07-05T06:16:50.000Z</time>
        <extensions>
          <gpxtpx:TrackPointExtension xmlns:gpxtpx="http://www.garmin.com/xmlschemas/TrackPointExtension/v1">
            <gpxtpx:hr>128</gpxtpx:hr>
          </gpxtpx:TrackPointExtension>
        </extensions>
      </trkpt>
      <trkpt lat="45.78436" lon="6.42017">
        <ele>1234</ele>
        <time>2020-07-05T06:16:51.000Z</time>
        <extensions>
          <gpxtpx:TrackPointExtension xmlns:gpxtpx="http://www.garmin.com/xmlschemas/TrackPointExtension/v1">
            <gpxtpx:hr>128</gpxtpx:hr>
          </gpxtpx:TrackPointExtension>
        </extensions>
      </trkpt>
      <trkpt lat="45.78438" lon="6.42031">
        <ele>1234.4000244141</ele>
        <time>2020-07-05T06:16:53.000Z</time>
        <extensions>
          <gpxtpx:TrackPointExtension xmlns:gpxtpx="http://www.garmin.com/xmlschemas/TrackPointExtension/v1">
            <gpxtpx:hr>128</gpxtpx:hr>
          </gpxtpx:TrackPointExtension>
        </extensions>
      </trkpt>
      <trkpt lat="45.78437" lon="6.42037">
        <ele>1234.5999755859</ele>
        <time>2020-07-05T06:16:54.000Z</time>
        <extensions>
          <gpxtpx:TrackPointExtension xmlns:gpxtpx="http://www.garmin.com/xmlschemas/TrackPointExtension/v1">
            <gpxtpx:hr>127</gpxtpx:hr>
          </gpxtpx:TrackPointExtension>
        </extensions>
      </trkpt>
      <trkpt lat="45.7843" lon="6.4206">
        <ele>1235.8000488281</ele>
        <time>2020-07-05T06:17:00.000Z</time>
        <extensions>
          <gpxtpx:TrackPointExtension xmlns:gpxtpx="http://www.garmin.com/xmlschemas/TrackPointExtension/v1">
            <gpxtpx:hr>127</gpxtpx:hr>
          </gpxtpx:TrackPointExtension>
        </extensions>
      </trkpt>
      <trkpt lat="45.7843" lon="6.42076">
        <ele>1237</ele>
        <time>2020-07-05T06:17:04.000Z</time>
        <extensions>
          <gpxtpx:TrackPointExtension xmlns:gpxtpx="http://www.garmin.com/xmlschemas/TrackPointExtension/v1">
            <gpxtpx:hr>127</gpxtpx:hr>
          </gpxtpx:TrackPointExtension>
        </extensions>
      </trkpt>
      <trkpt lat="45.78429" lon="6.42082">
        <ele>1237.4000244141</ele>
        <time>2020-07-05T06:17:06.000Z</time>
        <extensions>
          <gpxtpx:TrackPointExtension xmlns:gpxtpx="http://www.garmin.com/xmlschemas/TrackPointExtension/v1">
            <gpxtpx:hr>128</gpxtpx:hr>
          </gpxtpx:TrackPointExtension>
        </extensions>
      </trkpt>
      <trkpt lat="45.78426" lon="6.42095">
        <ele>1238</ele>
        <time>2020-07-05T06:17:10.000Z</time>
        <extensions>
          <gpxtpx:TrackPointExtension xmlns:gpxtpx="http://www.garmin.com/xmlschemas/TrackPointExtension/v1">
            <gpxtpx:hr>129</gpxtpx:hr>
          </gpxtpx:TrackPointExtension>
        </extensions>
      </trkpt>
      <trkpt lat="45.78422" lon="6.42107">
        <ele>1238.4000244141</ele>
        <time>2020-07-05T06:17:13.000Z</time>
        <extensions>
          <gpxtpx:TrackPointExtension xmlns:gpxtpx="http://www.garmin.com/xmlschemas/TrackPointExtension/v1">
            <gpxtpx:hr>128</gpxtpx:hr>
          </gpxtpx:TrackPointExtension>
        </extensions>
      </trkpt>
      <trkpt lat="45.78423" lon="6.42123">
        <ele>1239</ele>
        <time>2020-07-05T06:17:17.000Z</time>
        <extensions>
          <gpxtpx:TrackPointExtension xmlns:gpxtpx="http://www.garmin.com/xmlschemas/TrackPointExtension/v1">
            <gpxtpx:hr>127</gpxtpx:hr>
          </gpxtpx:TrackPointExtension>
        </extensions>
      </trkpt>
      <trkpt lat="45.78425" lon="6.42124">
        <ele>1239.1999511719</ele>
        <time>2020-07-05T06:17:18.000Z</time>
        <extensions>
          <gpxtpx:TrackPointExtension xmlns:gpxtpx="http://www.garmin.com/xmlschemas/TrackPointExtension/v1">
            <gpxtpx:hr>127</gpxtpx:hr>
          </gpxtpx:TrackPointExtension>
        </extensions>
      </trkpt>
      <trkpt lat="45.78427" lon="6.42124">
        <ele>1239.4000244141</ele>
        <time>2020-07-05T06:17:19.000Z</time>
        <extensions>
          <gpxtpx:TrackPointExtension xmlns:gpxtpx="http://www.garmin.com/xmlschemas/TrackPointExtension/v1">
            <gpxtpx:hr>126</gpxtpx:hr>
          </gpxtpx:TrackPointExtension>
        </extensions>
      </trkpt>
      <trkpt lat="45.78433" lon="6.42119">
        <ele>1240.1999511719</ele>
        <time>2020-07-05T06:17:22.000Z</time>
        <extensions>
          <gpxtpx:TrackPointExtension xmlns:gpxtpx="http://www.garmin.com/xmlschemas/TrackPointExtension/v1">
            <gpxtpx:hr>126</gpxtpx:hr>
          </gpxtpx:TrackPointExtension>
        </extensions>
      </trkpt>
      <trkpt lat="45.78437" lon="6.42106">
        <ele>1241.4000244141</ele>
        <time>2020-07-05T06:17:26.000Z</time>
        <extensions>
          <gpxtpx:TrackPointExtension xmlns:gpxtpx="http://www.garmin.com/xmlschemas/TrackPointExtension/v1">
            <gpxtpx:hr>126</gpxtpx:hr>
          </gpxtpx:TrackPointExtension>
        </extensions>
      </trkpt>
      <trkpt lat="45.78439" lon="6.42098">
        <ele>1242</ele>
        <time>2020-07-05T06:17:29.000Z</time>
        <extensions>
          <gpxtpx:TrackPointExtension xmlns:gpxtpx="http://www.garmin.com/xmlschemas/TrackPointExtension/v1">
            <gpxtpx:hr>127</gpxtpx:hr>
          </gpxtpx:TrackPointExtension>
        </extensions>
      </trkpt>
      <trkpt lat="45.7844" lon="6.42088">
        <ele>1242.5999755859</ele>
        <time>2020-07-05T06:17:32.000Z</time>
        <extensions>
          <gpxtpx:TrackPointExtension xmlns:gpxtpx="http://www.garmin.com/xmlschemas/TrackPointExtension/v1">
            <gpxtpx:hr>126</gpxtpx:hr>
          </gpxtpx:TrackPointExtension>
        </extensions>
      </trkpt>
      <trkpt lat="45.78441" lon="6.42085">
        <ele>1242.5999755859</ele>
        <time>2020-07-05T06:17:33.000Z</time>
        <extensions>
          <gpxtpx:TrackPointExtension xmlns:gpxtpx="http://www.garmin.com/xmlschemas/TrackPointExtension/v1">
            <gpxtpx:hr>126</gpxtpx:hr>
          </gpxtpx:TrackPointExtension>
        </extensions>
      </trkpt>
      <trkpt lat="45.78445" lon="6.4207">
        <ele>1243.5999755859</ele>
        <time>2020-07-05T06:17:38.000Z</time>
        <extensions>
          <gpxtpx:TrackPointExtension xmlns:gpxtpx="http://www.garmin.com/xmlschemas/TrackPointExtension/v1">
            <gpxtpx:hr>126</gpxtpx:hr>
          </gpxtpx:TrackPointExtension>
        </extensions>
      </trkpt>
      <trkpt lat="45.78447" lon="6.42068">
        <ele>1243.8000488281</ele>
        <time>2020-07-05T06:17:39.000Z</time>
        <extensions>
          <gpxtpx:TrackPointExtension xmlns:gpxtpx="http://www.garmin.com/xmlschemas/TrackPointExtension/v1">
            <gpxtpx:hr>126</gpxtpx:hr>
          </gpxtpx:TrackPointExtension>
        </extensions>
      </trkpt>
      <trkpt lat="45.78449" lon="6.42063">
        <ele>1244.1999511719</ele>
        <time>2020-07-05T06:17:41.000Z</time>
        <extensions>
          <gpxtpx:TrackPointExtension xmlns:gpxtpx="http://www.garmin.com/xmlschemas/TrackPointExtension/v1">
            <gpxtpx:hr>126</gpxtpx:hr>
          </gpxtpx:TrackPointExtension>
        </extensions>
      </trkpt>
      <trkpt lat="45.78451" lon="6.42057">
        <ele>1244.5999755859</ele>
        <time>2020-07-05T06:17:43.000Z</time>
        <extensions>
          <gpxtpx:TrackPointExtension xmlns:gpxtpx="http://www.garmin.com/xmlschemas/TrackPointExtension/v1">
            <gpxtpx:hr>124</gpxtpx:hr>
          </gpxtpx:TrackPointExtension>
        </extensions>
      </trkpt>
      <trkpt lat="45.78451" lon="6.42053">
        <ele>1244.8000488281</ele>
        <time>2020-07-05T06:17:44.000Z</time>
        <extensions>
          <gpxtpx:TrackPointExtension xmlns:gpxtpx="http://www.garmin.com/xmlschemas/TrackPointExtension/v1">
            <gpxtpx:hr>126</gpxtpx:hr>
          </gpxtpx:TrackPointExtension>
        </extensions>
      </trkpt>
      <trkpt lat="45.78452" lon="6.42045">
        <ele>1245.4000244141</ele>
        <time>2020-07-05T06:17:46.000Z</time>
        <extensions>
          <gpxtpx:TrackPointExtension xmlns:gpxtpx="http://www.garmin.com/xmlschemas/TrackPointExtension/v1">
            <gpxtpx:hr>126</gpxtpx:hr>
          </gpxtpx:TrackPointExtension>
        </extensions>
      </trkpt>
      <trkpt lat="45.78452" lon="6.42038">
        <ele>1246.1999511719</ele>
        <time>2020-07-05T06:17:48.000Z</time>
        <extensions>
          <gpxtpx:TrackPointExtension xmlns:gpxtpx="http://www.garmin.com/xmlschemas/TrackPointExtension/v1">
            <gpxtpx:hr>125</gpxtpx:hr>
          </gpxtpx:TrackPointExtension>
        </extensions>
      </trkpt>
      <trkpt lat="45.78452" lon="6.42021">
        <ele>1247.1999511719</ele>
        <time>2020-07-05T06:17:52.000Z</time>
        <extensions>
          <gpxtpx:TrackPointExtension xmlns:gpxtpx="http://www.garmin.com/xmlschemas/TrackPointExtension/v1">
            <gpxtpx:hr>125</gpxtpx:hr>
          </gpxtpx:TrackPointExtension>
        </extensions>
      </trkpt>
      <trkpt lat="45.78453" lon="6.42017">
        <ele>1247.4000244141</ele>
        <time>2020-07-05T06:17:53.000Z</time>
        <extensions>
          <gpxtpx:TrackPointExtension xmlns:gpxtpx="http://www.garmin.com/xmlschemas/TrackPointExtension/v1">
            <gpxtpx:hr>125</gpxtpx:hr>
          </gpxtpx:TrackPointExtension>
        </extensions>
      </trkpt>
      <trkpt lat="45.78453" lon="6.42013">
        <ele>1247.8000488281</ele>
        <time>2020-07-05T06:17:54.000Z</time>
        <extensions>
          <gpxtpx:TrackPointExtension xmlns:gpxtpx="http://www.garmin.com/xmlschemas/TrackPointExtension/v1">
            <gpxtpx:hr>125</gpxtpx:hr>
          </gpxtpx:TrackPointExtension>
        </extensions>
      </trkpt>
      <trkpt lat="45.78452" lon="6.42004">
        <ele>1248.4000244141</ele>
        <time>2020-07-05T06:17:57.000Z</time>
        <extensions>
          <gpxtpx:TrackPointExtension xmlns:gpxtpx="http://www.garmin.com/xmlschemas/TrackPointExtension/v1">
            <gpxtpx:hr>125</gpxtpx:hr>
          </gpxtpx:TrackPointExtension>
        </extensions>
      </trkpt>
      <trkpt lat="45.78449" lon="6.41993">
        <ele>1249.4000244141</ele>
        <time>2020-07-05T06:18:00.000Z</time>
        <extensions>
          <gpxtpx:TrackPointExtension xmlns:gpxtpx="http://www.garmin.com/xmlschemas/TrackPointExtension/v1">
            <gpxtpx:hr>125</gpxtpx:hr>
          </gpxtpx:TrackPointExtension>
        </extensions>
      </trkpt>
      <trkpt lat="45.78447" lon="6.41984">
        <ele>1249.8000488281</ele>
        <time>2020-07-05T06:18:02.000Z</time>
        <extensions>
          <gpxtpx:TrackPointExtension xmlns:gpxtpx="http://www.garmin.com/xmlschemas/TrackPointExtension/v1">
            <gpxtpx:hr>125</gpxtpx:hr>
          </gpxtpx:TrackPointExtension>
        </extensions>
      </trkpt>
      <trkpt lat="45.78444" lon="6.41973">
        <ele>1250.5999755859</ele>
        <time>2020-07-05T06:18:05.000Z</time>
        <extensions>
          <gpxtpx:TrackPointExtension xmlns:gpxtpx="http://www.garmin.com/xmlschemas/TrackPointExtension/v1">
            <gpxtpx:hr>125</gpxtpx:hr>
          </gpxtpx:TrackPointExtension>
        </extensions>
      </trkpt>
      <trkpt lat="45.7844" lon="6.41957">
        <ele>1251.5999755859</ele>
        <time>2020-07-05T06:18:09.000Z</time>
        <extensions>
          <gpxtpx:TrackPointExtension xmlns:gpxtpx="http://www.garmin.com/xmlschemas/TrackPointExtension/v1">
            <gpxtpx:hr>126</gpxtpx:hr>
          </gpxtpx:TrackPointExtension>
        </extensions>
      </trkpt>
      <trkpt lat="45.7844" lon="6.41945">
        <ele>1252.5999755859</ele>
        <time>2020-07-05T06:18:13.000Z</time>
        <extensions>
          <gpxtpx:TrackPointExtension xmlns:gpxtpx="http://www.garmin.com/xmlschemas/TrackPointExtension/v1">
            <gpxtpx:hr>128</gpxtpx:hr>
          </gpxtpx:TrackPointExtension>
        </extensions>
      </trkpt>
      <trkpt lat="45.78441" lon="6.41936">
        <ele>1253.1999511719</ele>
        <time>2020-07-05T06:18:16.000Z</time>
        <extensions>
          <gpxtpx:TrackPointExtension xmlns:gpxtpx="http://www.garmin.com/xmlschemas/TrackPointExtension/v1">
            <gpxtpx:hr>127</gpxtpx:hr>
          </gpxtpx:TrackPointExtension>
        </extensions>
      </trkpt>
      <trkpt lat="45.7844" lon="6.41929">
        <ele>1253.8000488281</ele>
        <time>2020-07-05T06:18:19.000Z</time>
        <extensions>
          <gpxtpx:TrackPointExtension xmlns:gpxtpx="http://www.garmin.com/xmlschemas/TrackPointExtension/v1">
            <gpxtpx:hr>127</gpxtpx:hr>
          </gpxtpx:TrackPointExtension>
        </extensions>
      </trkpt>
      <trkpt lat="45.78441" lon="6.41921">
        <ele>1254.5999755859</ele>
        <time>2020-07-05T06:18:22.000Z</time>
        <extensions>
          <gpxtpx:TrackPointExtension xmlns:gpxtpx="http://www.garmin.com/xmlschemas/TrackPointExtension/v1">
            <gpxtpx:hr>127</gpxtpx:hr>
          </gpxtpx:TrackPointExtension>
        </extensions>
      </trkpt>
      <trkpt lat="45.78441" lon="6.41919">
        <ele>1254.8000488281</ele>
        <time>2020-07-05T06:18:23.000Z</time>
        <extensions>
          <gpxtpx:TrackPointExtension xmlns:gpxtpx="http://www.garmin.com/xmlschemas/TrackPointExtension/v1">
            <gpxtpx:hr>127</gpxtpx:hr>
          </gpxtpx:TrackPointExtension>
        </extensions>
      </trkpt>
      <trkpt lat="45.78442" lon="6.41917">
        <ele>1255</ele>
        <time>2020-07-05T06:18:24.000Z</time>
        <extensions>
          <gpxtpx:TrackPointExtension xmlns:gpxtpx="http://www.garmin.com/xmlschemas/TrackPointExtension/v1">
            <gpxtpx:hr>126</gpxtpx:hr>
          </gpxtpx:TrackPointExtension>
        </extensions>
      </trkpt>
      <trkpt lat="45.78446" lon="6.41905">
        <ele>1256</ele>
        <time>2020-07-05T06:18:28.000Z</time>
        <extensions>
          <gpxtpx:TrackPointExtension xmlns:gpxtpx="http://www.garmin.com/xmlschemas/TrackPointExtension/v1">
            <gpxtpx:hr>127</gpxtpx:hr>
          </gpxtpx:TrackPointExtension>
        </extensions>
      </trkpt>
      <trkpt lat="45.78452" lon="6.41891">
        <ele>1257.1999511719</ele>
        <time>2020-07-05T06:18:33.000Z</time>
        <extensions>
          <gpxtpx:TrackPointExtension xmlns:gpxtpx="http://www.garmin.com/xmlschemas/TrackPointExtension/v1">
            <gpxtpx:hr>126</gpxtpx:hr>
          </gpxtpx:TrackPointExtension>
        </extensions>
      </trkpt>
      <trkpt lat="45.78456" lon="6.41887">
        <ele>1257.5999755859</ele>
        <time>2020-07-05T06:18:35.000Z</time>
        <extensions>
          <gpxtpx:TrackPointExtension xmlns:gpxtpx="http://www.garmin.com/xmlschemas/TrackPointExtension/v1">
            <gpxtpx:hr>126</gpxtpx:hr>
          </gpxtpx:TrackPointExtension>
        </extensions>
      </trkpt>
      <trkpt lat="45.78457" lon="6.41881">
        <ele>1258.4000244141</ele>
        <time>2020-07-05T06:18:37.000Z</time>
        <extensions>
          <gpxtpx:TrackPointExtension xmlns:gpxtpx="http://www.garmin.com/xmlschemas/TrackPointExtension/v1">
            <gpxtpx:hr>126</gpxtpx:hr>
          </gpxtpx:TrackPointExtension>
        </extensions>
      </trkpt>
      <trkpt lat="45.78461" lon="6.41868">
        <ele>1259.4000244141</ele>
        <time>2020-07-05T06:18:41.000Z</time>
        <extensions>
          <gpxtpx:TrackPointExtension xmlns:gpxtpx="http://www.garmin.com/xmlschemas/TrackPointExtension/v1">
            <gpxtpx:hr>127</gpxtpx:hr>
          </gpxtpx:TrackPointExtension>
        </extensions>
      </trkpt>
      <trkpt lat="45.78461" lon="6.41864">
        <ele>1259.5999755859</ele>
        <time>2020-07-05T06:18:42.000Z</time>
        <extensions>
          <gpxtpx:TrackPointExtension xmlns:gpxtpx="http://www.garmin.com/xmlschemas/TrackPointExtension/v1">
            <gpxtpx:hr>127</gpxtpx:hr>
          </gpxtpx:TrackPointExtension>
        </extensions>
      </trkpt>
      <trkpt lat="45.78466" lon="6.41848">
        <ele>1260.8000488281</ele>
        <time>2020-07-05T06:18:46.000Z</time>
        <extensions>
          <gpxtpx:TrackPointExtension xmlns:gpxtpx="http://www.garmin.com/xmlschemas/TrackPointExtension/v1">
            <gpxtpx:hr>127</gpxtpx:hr>
          </gpxtpx:TrackPointExtension>
        </extensions>
      </trkpt>
      <trkpt lat="45.78469" lon="6.4184">
        <ele>1261</ele>
        <time>2020-07-05T06:18:48.000Z</time>
        <extensions>
          <gpxtpx:TrackPointExtension xmlns:gpxtpx="http://www.garmin.com/xmlschemas/TrackPointExtension/v1">
            <gpxtpx:hr>127</gpxtpx:hr>
          </gpxtpx:TrackPointExtension>
        </extensions>
      </trkpt>
      <trkpt lat="45.7847" lon="6.41838">
        <ele>1261.4000244141</ele>
        <time>2020-07-05T06:18:49.000Z</time>
        <extensions>
          <gpxtpx:TrackPointExtension xmlns:gpxtpx="http://www.garmin.com/xmlschemas/TrackPointExtension/v1">
            <gpxtpx:hr>127</gpxtpx:hr>
          </gpxtpx:TrackPointExtension>
        </extensions>
      </trkpt>
      <trkpt lat="45.78473" lon="6.41823">
        <ele>1262</ele>
        <time>2020-07-05T06:18:52.000Z</time>
        <extensions>
          <gpxtpx:TrackPointExtension xmlns:gpxtpx="http://www.garmin.com/xmlschemas/TrackPointExtension/v1">
            <gpxtpx:hr>128</gpxtpx:hr>
          </gpxtpx:TrackPointExtension>
        </extensions>
      </trkpt>
      <trkpt lat="45.78477" lon="6.41813">
        <ele>1262.8000488281</ele>
        <time>2020-07-05T06:18:55.000Z</time>
        <extensions>
          <gpxtpx:TrackPointExtension xmlns:gpxtpx="http://www.garmin.com/xmlschemas/TrackPointExtension/v1">
            <gpxtpx:hr>128</gpxtpx:hr>
          </gpxtpx:TrackPointExtension>
        </extensions>
      </trkpt>
      <trkpt lat="45.78479" lon="6.4181">
        <ele>1263</ele>
        <time>2020-07-05T06:18:56.000Z</time>
        <extensions>
          <gpxtpx:TrackPointExtension xmlns:gpxtpx="http://www.garmin.com/xmlschemas/TrackPointExtension/v1">
            <gpxtpx:hr>128</gpxtpx:hr>
          </gpxtpx:TrackPointExtension>
        </extensions>
      </trkpt>
      <trkpt lat="45.7848" lon="6.41806">
        <ele>1263.1999511719</ele>
        <time>2020-07-05T06:18:57.000Z</time>
        <extensions>
          <gpxtpx:TrackPointExtension xmlns:gpxtpx="http://www.garmin.com/xmlschemas/TrackPointExtension/v1">
            <gpxtpx:hr>127</gpxtpx:hr>
          </gpxtpx:TrackPointExtension>
        </extensions>
      </trkpt>
      <trkpt lat="45.78478" lon="6.41801">
        <ele>1263.1999511719</ele>
        <time>2020-07-05T06:18:58.000Z</time>
        <extensions>
          <gpxtpx:TrackPointExtension xmlns:gpxtpx="http://www.garmin.com/xmlschemas/TrackPointExtension/v1">
            <gpxtpx:hr>127</gpxtpx:hr>
          </gpxtpx:TrackPointExtension>
        </extensions>
      </trkpt>
      <trkpt lat="45.78478" lon="6.4179">
        <ele>1264.1999511719</ele>
        <time>2020-07-05T06:19:01.000Z</time>
        <extensions>
          <gpxtpx:TrackPointExtension xmlns:gpxtpx="http://www.garmin.com/xmlschemas/TrackPointExtension/v1">
            <gpxtpx:hr>127</gpxtpx:hr>
          </gpxtpx:TrackPointExtension>
        </extensions>
      </trkpt>
      <trkpt lat="45.78477" lon="6.41773">
        <ele>1265.4000244141</ele>
        <time>2020-07-05T06:19:06.000Z</time>
        <extensions>
          <gpxtpx:TrackPointExtension xmlns:gpxtpx="http://www.garmin.com/xmlschemas/TrackPointExtension/v1">
            <gpxtpx:hr>128</gpxtpx:hr>
          </gpxtpx:TrackPointExtension>
        </extensions>
      </trkpt>
      <trkpt lat="45.78477" lon="6.41766">
        <ele>1266</ele>
        <time>2020-07-05T06:19:08.000Z</time>
        <extensions>
          <gpxtpx:TrackPointExtension xmlns:gpxtpx="http://www.garmin.com/xmlschemas/TrackPointExtension/v1">
            <gpxtpx:hr>128</gpxtpx:hr>
          </gpxtpx:TrackPointExtension>
        </extensions>
      </trkpt>
      <trkpt lat="45.78478" lon="6.41759">
        <ele>1266.4000244141</ele>
        <time>2020-07-05T06:19:10.000Z</time>
        <extensions>
          <gpxtpx:TrackPointExtension xmlns:gpxtpx="http://www.garmin.com/xmlschemas/TrackPointExtension/v1">
            <gpxtpx:hr>128</gpxtpx:hr>
          </gpxtpx:TrackPointExtension>
        </extensions>
      </trkpt>
      <trkpt lat="45.78481" lon="6.41746">
        <ele>1267.4000244141</ele>
        <time>2020-07-05T06:19:14.000Z</time>
        <extensions>
          <gpxtpx:TrackPointExtension xmlns:gpxtpx="http://www.garmin.com/xmlschemas/TrackPointExtension/v1">
            <gpxtpx:hr>129</gpxtpx:hr>
          </gpxtpx:TrackPointExtension>
        </extensions>
      </trkpt>
      <trkpt lat="45.78482" lon="6.41743">
        <ele>1267.8000488281</ele>
        <time>2020-07-05T06:19:15.000Z</time>
        <extensions>
          <gpxtpx:TrackPointExtension xmlns:gpxtpx="http://www.garmin.com/xmlschemas/TrackPointExtension/v1">
            <gpxtpx:hr>129</gpxtpx:hr>
          </gpxtpx:TrackPointExtension>
        </extensions>
      </trkpt>
      <trkpt lat="45.78485" lon="6.41735">
        <ele>1268.5999755859</ele>
        <time>2020-07-05T06:19:18.000Z</time>
        <extensions>
          <gpxtpx:TrackPointExtension xmlns:gpxtpx="http://www.garmin.com/xmlschemas/TrackPointExtension/v1">
            <gpxtpx:hr>129</gpxtpx:hr>
          </gpxtpx:TrackPointExtension>
        </extensions>
      </trkpt>
      <trkpt lat="45.78489" lon="6.41722">
        <ele>1269.5999755859</ele>
        <time>2020-07-05T06:19:22.000Z</time>
        <extensions>
          <gpxtpx:TrackPointExtension xmlns:gpxtpx="http://www.garmin.com/xmlschemas/TrackPointExtension/v1">
            <gpxtpx:hr>129</gpxtpx:hr>
          </gpxtpx:TrackPointExtension>
        </extensions>
      </trkpt>
      <trkpt lat="45.7849" lon="6.41719">
        <ele>1269.8000488281</ele>
        <time>2020-07-05T06:19:23.000Z</time>
        <extensions>
          <gpxtpx:TrackPointExtension xmlns:gpxtpx="http://www.garmin.com/xmlschemas/TrackPointExtension/v1">
            <gpxtpx:hr>129</gpxtpx:hr>
          </gpxtpx:TrackPointExtension>
        </extensions>
      </trkpt>
      <trkpt lat="45.78495" lon="6.41708">
        <ele>1270.8000488281</ele>
        <time>2020-07-05T06:19:27.000Z</time>
        <extensions>
          <gpxtpx:TrackPointExtension xmlns:gpxtpx="http://www.garmin.com/xmlschemas/TrackPointExtension/v1">
            <gpxtpx:hr>129</gpxtpx:hr>
          </gpxtpx:TrackPointExtension>
        </extensions>
      </trkpt>
      <trkpt lat="45.78502" lon="6.41701">
        <ele>1271.4000244141</ele>
        <time>2020-07-05T06:19:30.000Z</time>
        <extensions>
          <gpxtpx:TrackPointExtension xmlns:gpxtpx="http://www.garmin.com/xmlschemas/TrackPointExtension/v1">
            <gpxtpx:hr>130</gpxtpx:hr>
          </gpxtpx:TrackPointExtension>
        </extensions>
      </trkpt>
      <trkpt lat="45.78506" lon="6.417">
        <ele>1272</ele>
        <time>2020-07-05T06:19:32.000Z</time>
        <extensions>
          <gpxtpx:TrackPointExtension xmlns:gpxtpx="http://www.garmin.com/xmlschemas/TrackPointExtension/v1">
            <gpxtpx:hr>130</gpxtpx:hr>
          </gpxtpx:TrackPointExtension>
        </extensions>
      </trkpt>
      <trkpt lat="45.78518" lon="6.41694">
        <ele>1273</ele>
        <time>2020-07-05T06:19:37.000Z</time>
        <extensions>
          <gpxtpx:TrackPointExtension xmlns:gpxtpx="http://www.garmin.com/xmlschemas/TrackPointExtension/v1">
            <gpxtpx:hr>132</gpxtpx:hr>
          </gpxtpx:TrackPointExtension>
        </extensions>
      </trkpt>
      <trkpt lat="45.7852" lon="6.41693">
        <ele>1273.1999511719</ele>
        <time>2020-07-05T06:19:38.000Z</time>
        <extensions>
          <gpxtpx:TrackPointExtension xmlns:gpxtpx="http://www.garmin.com/xmlschemas/TrackPointExtension/v1">
            <gpxtpx:hr>132</gpxtpx:hr>
          </gpxtpx:TrackPointExtension>
        </extensions>
      </trkpt>
      <trkpt lat="45.78528" lon="6.41684">
        <ele>1274.1999511719</ele>
        <time>2020-07-05T06:19:42.000Z</time>
        <extensions>
          <gpxtpx:TrackPointExtension xmlns:gpxtpx="http://www.garmin.com/xmlschemas/TrackPointExtension/v1">
            <gpxtpx:hr>132</gpxtpx:hr>
          </gpxtpx:TrackPointExtension>
        </extensions>
      </trkpt>
      <trkpt lat="45.78534" lon="6.41677">
        <ele>1274.8000488281</ele>
        <time>2020-07-05T06:19:45.000Z</time>
        <extensions>
          <gpxtpx:TrackPointExtension xmlns:gpxtpx="http://www.garmin.com/xmlschemas/TrackPointExtension/v1">
            <gpxtpx:hr>131</gpxtpx:hr>
          </gpxtpx:TrackPointExtension>
        </extensions>
      </trkpt>
      <trkpt lat="45.78538" lon="6.41671">
        <ele>1275</ele>
        <time>2020-07-05T06:19:47.000Z</time>
        <extensions>
          <gpxtpx:TrackPointExtension xmlns:gpxtpx="http://www.garmin.com/xmlschemas/TrackPointExtension/v1">
            <gpxtpx:hr>128</gpxtpx:hr>
          </gpxtpx:TrackPointExtension>
        </extensions>
      </trkpt>
      <trkpt lat="45.7854" lon="6.41669">
        <ele>1275.1999511719</ele>
        <time>2020-07-05T06:19:48.000Z</time>
        <extensions>
          <gpxtpx:TrackPointExtension xmlns:gpxtpx="http://www.garmin.com/xmlschemas/TrackPointExtension/v1">
            <gpxtpx:hr>127</gpxtpx:hr>
          </gpxtpx:TrackPointExtension>
        </extensions>
      </trkpt>
      <trkpt lat="45.78549" lon="6.41654">
        <ele>1276.1999511719</ele>
        <time>2020-07-05T06:19:53.000Z</time>
        <extensions>
          <gpxtpx:TrackPointExtension xmlns:gpxtpx="http://www.garmin.com/xmlschemas/TrackPointExtension/v1">
            <gpxtpx:hr>128</gpxtpx:hr>
          </gpxtpx:TrackPointExtension>
        </extensions>
      </trkpt>
      <trkpt lat="45.78551" lon="6.41652">
        <ele>1276.4000244141</ele>
        <time>2020-07-05T06:19:54.000Z</time>
        <extensions>
          <gpxtpx:TrackPointExtension xmlns:gpxtpx="http://www.garmin.com/xmlschemas/TrackPointExtension/v1">
            <gpxtpx:hr>128</gpxtpx:hr>
          </gpxtpx:TrackPointExtension>
        </extensions>
      </trkpt>
      <trkpt lat="45.78561" lon="6.41637">
        <ele>1277.4000244141</ele>
        <time>2020-07-05T06:19:59.000Z</time>
        <extensions>
          <gpxtpx:TrackPointExtension xmlns:gpxtpx="http://www.garmin.com/xmlschemas/TrackPointExtension/v1">
            <gpxtpx:hr>129</gpxtpx:hr>
          </gpxtpx:TrackPointExtension>
        </extensions>
      </trkpt>
      <trkpt lat="45.78566" lon="6.41629">
        <ele>1278</ele>
        <time>2020-07-05T06:20:02.000Z</time>
        <extensions>
          <gpxtpx:TrackPointExtension xmlns:gpxtpx="http://www.garmin.com/xmlschemas/TrackPointExtension/v1">
            <gpxtpx:hr>129</gpxtpx:hr>
          </gpxtpx:TrackPointExtension>
        </extensions>
      </trkpt>
      <trkpt lat="45.78572" lon="6.41621">
        <ele>1278.4000244141</ele>
        <time>2020-07-05T06:20:05.000Z</time>
        <extensions>
          <gpxtpx:TrackPointExtension xmlns:gpxtpx="http://www.garmin.com/xmlschemas/TrackPointExtension/v1">
            <gpxtpx:hr>128</gpxtpx:hr>
          </gpxtpx:TrackPointExtension>
        </extensions>
      </trkpt>
      <trkpt lat="45.78581" lon="6.41607">
        <ele>1279.4000244141</ele>
        <time>2020-07-05T06:20:10.000Z</time>
        <extensions>
          <gpxtpx:TrackPointExtension xmlns:gpxtpx="http://www.garmin.com/xmlschemas/TrackPointExtension/v1">
            <gpxtpx:hr>128</gpxtpx:hr>
          </gpxtpx:TrackPointExtension>
        </extensions>
      </trkpt>
      <trkpt lat="45.78583" lon="6.41605">
        <ele>1279.5999755859</ele>
        <time>2020-07-05T06:20:11.000Z</time>
        <extensions>
          <gpxtpx:TrackPointExtension xmlns:gpxtpx="http://www.garmin.com/xmlschemas/TrackPointExtension/v1">
            <gpxtpx:hr>128</gpxtpx:hr>
          </gpxtpx:TrackPointExtension>
        </extensions>
      </trkpt>
      <trkpt lat="45.78591" lon="6.41588">
        <ele>1280.8000488281</ele>
        <time>2020-07-05T06:20:17.000Z</time>
        <extensions>
          <gpxtpx:TrackPointExtension xmlns:gpxtpx="http://www.garmin.com/xmlschemas/TrackPointExtension/v1">
            <gpxtpx:hr>127</gpxtpx:hr>
          </gpxtpx:TrackPointExtension>
        </extensions>
      </trkpt>
      <trkpt lat="45.78597" lon="6.41579">
        <ele>1282</ele>
        <time>2020-07-05T06:20:21.000Z</time>
        <extensions>
          <gpxtpx:TrackPointExtension xmlns:gpxtpx="http://www.garmin.com/xmlschemas/TrackPointExtension/v1">
            <gpxtpx:hr>128</gpxtpx:hr>
          </gpxtpx:TrackPointExtension>
        </extensions>
      </trkpt>
      <trkpt lat="45.78599" lon="6.41576">
        <ele>1282.1999511719</ele>
        <time>2020-07-05T06:20:22.000Z</time>
        <extensions>
          <gpxtpx:TrackPointExtension xmlns:gpxtpx="http://www.garmin.com/xmlschemas/TrackPointExtension/v1">
            <gpxtpx:hr>128</gpxtpx:hr>
          </gpxtpx:TrackPointExtension>
        </extensions>
      </trkpt>
      <trkpt lat="45.78606" lon="6.41567">
        <ele>1283.1999511719</ele>
        <time>2020-07-05T06:20:26.000Z</time>
        <extensions>
          <gpxtpx:TrackPointExtension xmlns:gpxtpx="http://www.garmin.com/xmlschemas/TrackPointExtension/v1">
            <gpxtpx:hr>128</gpxtpx:hr>
          </gpxtpx:TrackPointExtension>
        </extensions>
      </trkpt>
      <trkpt lat="45.78608" lon="6.41566">
        <ele>1283.4000244141</ele>
        <time>2020-07-05T06:20:27.000Z</time>
        <extensions>
          <gpxtpx:TrackPointExtension xmlns:gpxtpx="http://www.garmin.com/xmlschemas/TrackPointExtension/v1">
            <gpxtpx:hr>128</gpxtpx:hr>
          </gpxtpx:TrackPointExtension>
        </extensions>
      </trkpt>
      <trkpt lat="45.78617" lon="6.41567">
        <ele>1284.4000244141</ele>
        <time>2020-07-05T06:20:31.000Z</time>
        <extensions>
          <gpxtpx:TrackPointExtension xmlns:gpxtpx="http://www.garmin.com/xmlschemas/TrackPointExtension/v1">
            <gpxtpx:hr>130</gpxtpx:hr>
          </gpxtpx:TrackPointExtension>
        </extensions>
      </trkpt>
      <trkpt lat="45.78621" lon="6.41571">
        <ele>1285.1999511719</ele>
        <time>2020-07-05T06:20:33.000Z</time>
        <extensions>
          <gpxtpx:TrackPointExtension xmlns:gpxtpx="http://www.garmin.com/xmlschemas/TrackPointExtension/v1">
            <gpxtpx:hr>131</gpxtpx:hr>
          </gpxtpx:TrackPointExtension>
        </extensions>
      </trkpt>
      <trkpt lat="45.78622" lon="6.41574">
        <ele>1285.5999755859</ele>
        <time>2020-07-05T06:20:34.000Z</time>
        <extensions>
          <gpxtpx:TrackPointExtension xmlns:gpxtpx="http://www.garmin.com/xmlschemas/TrackPointExtension/v1">
            <gpxtpx:hr>132</gpxtpx:hr>
          </gpxtpx:TrackPointExtension>
        </extensions>
      </trkpt>
      <trkpt lat="45.78623" lon="6.41582">
        <ele>1286.1999511719</ele>
        <time>2020-07-05T06:20:36.000Z</time>
        <extensions>
          <gpxtpx:TrackPointExtension xmlns:gpxtpx="http://www.garmin.com/xmlschemas/TrackPointExtension/v1">
            <gpxtpx:hr>133</gpxtpx:hr>
          </gpxtpx:TrackPointExtension>
        </extensions>
      </trkpt>
      <trkpt lat="45.78622" lon="6.41587">
        <ele>1286.4000244141</ele>
        <time>2020-07-05T06:20:37.000Z</time>
        <extensions>
          <gpxtpx:TrackPointExtension xmlns:gpxtpx="http://www.garmin.com/xmlschemas/TrackPointExtension/v1">
            <gpxtpx:hr>134</gpxtpx:hr>
          </gpxtpx:TrackPointExtension>
        </extensions>
      </trkpt>
      <trkpt lat="45.78621" lon="6.41591">
        <ele>1286.4000244141</ele>
        <time>2020-07-05T06:20:38.000Z</time>
        <extensions>
          <gpxtpx:TrackPointExtension xmlns:gpxtpx="http://www.garmin.com/xmlschemas/TrackPointExtension/v1">
            <gpxtpx:hr>134</gpxtpx:hr>
          </gpxtpx:TrackPointExtension>
        </extensions>
      </trkpt>
      <trkpt lat="45.78619" lon="6.41594">
        <ele>1286.4000244141</ele>
        <time>2020-07-05T06:20:39.000Z</time>
        <extensions>
          <gpxtpx:TrackPointExtension xmlns:gpxtpx="http://www.garmin.com/xmlschemas/TrackPointExtension/v1">
            <gpxtpx:hr>135</gpxtpx:hr>
          </gpxtpx:TrackPointExtension>
        </extensions>
      </trkpt>
      <trkpt lat="45.78614" lon="6.41602">
        <ele>1286.4000244141</ele>
        <time>2020-07-05T06:20:41.000Z</time>
        <extensions>
          <gpxtpx:TrackPointExtension xmlns:gpxtpx="http://www.garmin.com/xmlschemas/TrackPointExtension/v1">
            <gpxtpx:hr>135</gpxtpx:hr>
          </gpxtpx:TrackPointExtension>
        </extensions>
      </trkpt>
      <trkpt lat="45.7861" lon="6.41616">
        <ele>1286.4000244141</ele>
        <time>2020-07-05T06:20:44.000Z</time>
        <extensions>
          <gpxtpx:TrackPointExtension xmlns:gpxtpx="http://www.garmin.com/xmlschemas/TrackPointExtension/v1">
            <gpxtpx:hr>136</gpxtpx:hr>
          </gpxtpx:TrackPointExtension>
        </extensions>
      </trkpt>
      <trkpt lat="45.78606" lon="6.41624">
        <ele>1286.4000244141</ele>
        <time>2020-07-05T06:20:46.000Z</time>
        <extensions>
          <gpxtpx:TrackPointExtension xmlns:gpxtpx="http://www.garmin.com/xmlschemas/TrackPointExtension/v1">
            <gpxtpx:hr>134</gpxtpx:hr>
          </gpxtpx:TrackPointExtension>
        </extensions>
      </trkpt>
      <trkpt lat="45.78597" lon="6.41656">
        <ele>1286.4000244141</ele>
        <time>2020-07-05T06:20:52.000Z</time>
        <extensions>
          <gpxtpx:TrackPointExtension xmlns:gpxtpx="http://www.garmin.com/xmlschemas/TrackPointExtension/v1">
            <gpxtpx:hr>133</gpxtpx:hr>
          </gpxtpx:TrackPointExtension>
        </extensions>
      </trkpt>
      <trkpt lat="45.78599" lon="6.41682">
        <ele>1286.4000244141</ele>
        <time>2020-07-05T06:20:56.000Z</time>
        <extensions>
          <gpxtpx:TrackPointExtension xmlns:gpxtpx="http://www.garmin.com/xmlschemas/TrackPointExtension/v1">
            <gpxtpx:hr>132</gpxtpx:hr>
          </gpxtpx:TrackPointExtension>
        </extensions>
      </trkpt>
      <trkpt lat="45.786" lon="6.41693">
        <ele>1286.8000488281</ele>
        <time>2020-07-05T06:20:58.000Z</time>
        <extensions>
          <gpxtpx:TrackPointExtension xmlns:gpxtpx="http://www.garmin.com/xmlschemas/TrackPointExtension/v1">
            <gpxtpx:hr>130</gpxtpx:hr>
          </gpxtpx:TrackPointExtension>
        </extensions>
      </trkpt>
      <trkpt lat="45.78606" lon="6.41709">
        <ele>1287.4000244141</ele>
        <time>2020-07-05T06:21:01.000Z</time>
        <extensions>
          <gpxtpx:TrackPointExtension xmlns:gpxtpx="http://www.garmin.com/xmlschemas/TrackPointExtension/v1">
            <gpxtpx:hr>127</gpxtpx:hr>
          </gpxtpx:TrackPointExtension>
        </extensions>
      </trkpt>
      <trkpt lat="45.78609" lon="6.4172">
        <ele>1288</ele>
        <time>2020-07-05T06:21:03.000Z</time>
        <extensions>
          <gpxtpx:TrackPointExtension xmlns:gpxtpx="http://www.garmin.com/xmlschemas/TrackPointExtension/v1">
            <gpxtpx:hr>126</gpxtpx:hr>
          </gpxtpx:TrackPointExtension>
        </extensions>
      </trkpt>
      <trkpt lat="45.78614" lon="6.41733">
        <ele>1289.4000244141</ele>
        <time>2020-07-05T06:21:06.000Z</time>
        <extensions>
          <gpxtpx:TrackPointExtension xmlns:gpxtpx="http://www.garmin.com/xmlschemas/TrackPointExtension/v1">
            <gpxtpx:hr>125</gpxtpx:hr>
          </gpxtpx:TrackPointExtension>
        </extensions>
      </trkpt>
      <trkpt lat="45.78622" lon="6.4175">
        <ele>1290.5999755859</ele>
        <time>2020-07-05T06:21:11.000Z</time>
        <extensions>
          <gpxtpx:TrackPointExtension xmlns:gpxtpx="http://www.garmin.com/xmlschemas/TrackPointExtension/v1">
            <gpxtpx:hr>125</gpxtpx:hr>
          </gpxtpx:TrackPointExtension>
        </extensions>
      </trkpt>
      <trkpt lat="45.78624" lon="6.41757">
        <ele>1291.4000244141</ele>
        <time>2020-07-05T06:21:13.000Z</time>
        <extensions>
          <gpxtpx:TrackPointExtension xmlns:gpxtpx="http://www.garmin.com/xmlschemas/TrackPointExtension/v1">
            <gpxtpx:hr>125</gpxtpx:hr>
          </gpxtpx:TrackPointExtension>
        </extensions>
      </trkpt>
      <trkpt lat="45.78624" lon="6.41761">
        <ele>1291.8000488281</ele>
        <time>2020-07-05T06:21:14.000Z</time>
        <extensions>
          <gpxtpx:TrackPointExtension xmlns:gpxtpx="http://www.garmin.com/xmlschemas/TrackPointExtension/v1">
            <gpxtpx:hr>125</gpxtpx:hr>
          </gpxtpx:TrackPointExtension>
        </extensions>
      </trkpt>
      <trkpt lat="45.78631" lon="6.41783">
        <ele>1293.1999511719</ele>
        <time>2020-07-05T06:21:20.000Z</time>
        <extensions>
          <gpxtpx:TrackPointExtension xmlns:gpxtpx="http://www.garmin.com/xmlschemas/TrackPointExtension/v1">
            <gpxtpx:hr>126</gpxtpx:hr>
          </gpxtpx:TrackPointExtension>
        </extensions>
      </trkpt>
      <trkpt lat="45.78632" lon="6.41787">
        <ele>1293.4000244141</ele>
        <time>2020-07-05T06:21:21.000Z</time>
        <extensions>
          <gpxtpx:TrackPointExtension xmlns:gpxtpx="http://www.garmin.com/xmlschemas/TrackPointExtension/v1">
            <gpxtpx:hr>126</gpxtpx:hr>
          </gpxtpx:TrackPointExtension>
        </extensions>
      </trkpt>
      <trkpt lat="45.78636" lon="6.41799">
        <ele>1294.1999511719</ele>
        <time>2020-07-05T06:21:24.000Z</time>
        <extensions>
          <gpxtpx:TrackPointExtension xmlns:gpxtpx="http://www.garmin.com/xmlschemas/TrackPointExtension/v1">
            <gpxtpx:hr>126</gpxtpx:hr>
          </gpxtpx:TrackPointExtension>
        </extensions>
      </trkpt>
      <trkpt lat="45.78637" lon="6.41801">
        <ele>1294.4000244141</ele>
        <time>2020-07-05T06:21:25.000Z</time>
        <extensions>
          <gpxtpx:TrackPointExtension xmlns:gpxtpx="http://www.garmin.com/xmlschemas/TrackPointExtension/v1">
            <gpxtpx:hr>126</gpxtpx:hr>
          </gpxtpx:TrackPointExtension>
        </extensions>
      </trkpt>
      <trkpt lat="45.78638" lon="6.41805">
        <ele>1294.5999755859</ele>
        <time>2020-07-05T06:21:26.000Z</time>
        <extensions>
          <gpxtpx:TrackPointExtension xmlns:gpxtpx="http://www.garmin.com/xmlschemas/TrackPointExtension/v1">
            <gpxtpx:hr>125</gpxtpx:hr>
          </gpxtpx:TrackPointExtension>
        </extensions>
      </trkpt>
      <trkpt lat="45.78639" lon="6.41815">
        <ele>1295.1999511719</ele>
        <time>2020-07-05T06:21:29.000Z</time>
        <extensions>
          <gpxtpx:TrackPointExtension xmlns:gpxtpx="http://www.garmin.com/xmlschemas/TrackPointExtension/v1">
            <gpxtpx:hr>126</gpxtpx:hr>
          </gpxtpx:TrackPointExtension>
        </extensions>
      </trkpt>
      <trkpt lat="45.78641" lon="6.4182">
        <ele>1295.4000244141</ele>
        <time>2020-07-05T06:21:30.000Z</time>
        <extensions>
          <gpxtpx:TrackPointExtension xmlns:gpxtpx="http://www.garmin.com/xmlschemas/TrackPointExtension/v1">
            <gpxtpx:hr>126</gpxtpx:hr>
          </gpxtpx:TrackPointExtension>
        </extensions>
      </trkpt>
      <trkpt lat="45.78637" lon="6.41833">
        <ele>1296.4000244141</ele>
        <time>2020-07-05T06:21:34.000Z</time>
        <extensions>
          <gpxtpx:TrackPointExtension xmlns:gpxtpx="http://www.garmin.com/xmlschemas/TrackPointExtension/v1">
            <gpxtpx:hr>126</gpxtpx:hr>
          </gpxtpx:TrackPointExtension>
        </extensions>
      </trkpt>
      <trkpt lat="45.78637" lon="6.41836">
        <ele>1296.5999755859</ele>
        <time>2020-07-05T06:21:35.000Z</time>
        <extensions>
          <gpxtpx:TrackPointExtension xmlns:gpxtpx="http://www.garmin.com/xmlschemas/TrackPointExtension/v1">
            <gpxtpx:hr>126</gpxtpx:hr>
          </gpxtpx:TrackPointExtension>
        </extensions>
      </trkpt>
      <trkpt lat="45.78638" lon="6.41846">
        <ele>1297.4000244141</ele>
        <time>2020-07-05T06:21:38.000Z</time>
        <extensions>
          <gpxtpx:TrackPointExtension xmlns:gpxtpx="http://www.garmin.com/xmlschemas/TrackPointExtension/v1">
            <gpxtpx:hr>126</gpxtpx:hr>
          </gpxtpx:TrackPointExtension>
        </extensions>
      </trkpt>
      <trkpt lat="45.78636" lon="6.41854">
        <ele>1298</ele>
        <time>2020-07-05T06:21:41.000Z</time>
        <extensions>
          <gpxtpx:TrackPointExtension xmlns:gpxtpx="http://www.garmin.com/xmlschemas/TrackPointExtension/v1">
            <gpxtpx:hr>127</gpxtpx:hr>
          </gpxtpx:TrackPointExtension>
        </extensions>
      </trkpt>
      <trkpt lat="45.78637" lon="6.41857">
        <ele>1298.1999511719</ele>
        <time>2020-07-05T06:21:42.000Z</time>
        <extensions>
          <gpxtpx:TrackPointExtension xmlns:gpxtpx="http://www.garmin.com/xmlschemas/TrackPointExtension/v1">
            <gpxtpx:hr>127</gpxtpx:hr>
          </gpxtpx:TrackPointExtension>
        </extensions>
      </trkpt>
      <trkpt lat="45.78635" lon="6.41863">
        <ele>1298.5999755859</ele>
        <time>2020-07-05T06:21:44.000Z</time>
        <extensions>
          <gpxtpx:TrackPointExtension xmlns:gpxtpx="http://www.garmin.com/xmlschemas/TrackPointExtension/v1">
            <gpxtpx:hr>127</gpxtpx:hr>
          </gpxtpx:TrackPointExtension>
        </extensions>
      </trkpt>
      <trkpt lat="45.78634" lon="6.41866">
        <ele>1298.8000488281</ele>
        <time>2020-07-05T06:21:45.000Z</time>
        <extensions>
          <gpxtpx:TrackPointExtension xmlns:gpxtpx="http://www.garmin.com/xmlschemas/TrackPointExtension/v1">
            <gpxtpx:hr>127</gpxtpx:hr>
          </gpxtpx:TrackPointExtension>
        </extensions>
      </trkpt>
      <trkpt lat="45.78633" lon="6.4187">
        <ele>1299.4000244141</ele>
        <time>2020-07-05T06:21:47.000Z</time>
        <extensions>
          <gpxtpx:TrackPointExtension xmlns:gpxtpx="http://www.garmin.com/xmlschemas/TrackPointExtension/v1">
            <gpxtpx:hr>127</gpxtpx:hr>
          </gpxtpx:TrackPointExtension>
        </extensions>
      </trkpt>
      <trkpt lat="45.78633" lon="6.41872">
        <ele>1299.5999755859</ele>
        <time>2020-07-05T06:21:48.000Z</time>
        <extensions>
          <gpxtpx:TrackPointExtension xmlns:gpxtpx="http://www.garmin.com/xmlschemas/TrackPointExtension/v1">
            <gpxtpx:hr>127</gpxtpx:hr>
          </gpxtpx:TrackPointExtension>
        </extensions>
      </trkpt>
      <trkpt lat="45.78632" lon="6.41874">
        <ele>1299.8000488281</ele>
        <time>2020-07-05T06:21:49.000Z</time>
        <extensions>
          <gpxtpx:TrackPointExtension xmlns:gpxtpx="http://www.garmin.com/xmlschemas/TrackPointExtension/v1">
            <gpxtpx:hr>127</gpxtpx:hr>
          </gpxtpx:TrackPointExtension>
        </extensions>
      </trkpt>
      <trkpt lat="45.78626" lon="6.41886">
        <ele>1301</ele>
        <time>2020-07-05T06:21:53.000Z</time>
        <extensions>
          <gpxtpx:TrackPointExtension xmlns:gpxtpx="http://www.garmin.com/xmlschemas/TrackPointExtension/v1">
            <gpxtpx:hr>127</gpxtpx:hr>
          </gpxtpx:TrackPointExtension>
        </extensions>
      </trkpt>
      <trkpt lat="45.78626" lon="6.41896">
        <ele>1301.4000244141</ele>
        <time>2020-07-05T06:21:55.000Z</time>
        <extensions>
          <gpxtpx:TrackPointExtension xmlns:gpxtpx="http://www.garmin.com/xmlschemas/TrackPointExtension/v1">
            <gpxtpx:hr>127</gpxtpx:hr>
          </gpxtpx:TrackPointExtension>
        </extensions>
      </trkpt>
      <trkpt lat="45.78623" lon="6.41903">
        <ele>1302</ele>
        <time>2020-07-05T06:21:57.000Z</time>
        <extensions>
          <gpxtpx:TrackPointExtension xmlns:gpxtpx="http://www.garmin.com/xmlschemas/TrackPointExtension/v1">
            <gpxtpx:hr>126</gpxtpx:hr>
          </gpxtpx:TrackPointExtension>
        </extensions>
      </trkpt>
      <trkpt lat="45.78618" lon="6.4192">
        <ele>1303</ele>
        <time>2020-07-05T06:22:01.000Z</time>
        <extensions>
          <gpxtpx:TrackPointExtension xmlns:gpxtpx="http://www.garmin.com/xmlschemas/TrackPointExtension/v1">
            <gpxtpx:hr>125</gpxtpx:hr>
          </gpxtpx:TrackPointExtension>
        </extensions>
      </trkpt>
      <trkpt lat="45.78618" lon="6.41935">
        <ele>1303.5999755859</ele>
        <time>2020-07-05T06:22:04.000Z</time>
        <extensions>
          <gpxtpx:TrackPointExtension xmlns:gpxtpx="http://www.garmin.com/xmlschemas/TrackPointExtension/v1">
            <gpxtpx:hr>125</gpxtpx:hr>
          </gpxtpx:TrackPointExtension>
        </extensions>
      </trkpt>
      <trkpt lat="45.78615" lon="6.41941">
        <ele>1304.1999511719</ele>
        <time>2020-07-05T06:22:06.000Z</time>
        <extensions>
          <gpxtpx:TrackPointExtension xmlns:gpxtpx="http://www.garmin.com/xmlschemas/TrackPointExtension/v1">
            <gpxtpx:hr>125</gpxtpx:hr>
          </gpxtpx:TrackPointExtension>
        </extensions>
      </trkpt>
      <trkpt lat="45.78613" lon="6.41956">
        <ele>1305.1999511719</ele>
        <time>2020-07-05T06:22:10.000Z</time>
        <extensions>
          <gpxtpx:TrackPointExtension xmlns:gpxtpx="http://www.garmin.com/xmlschemas/TrackPointExtension/v1">
            <gpxtpx:hr>125</gpxtpx:hr>
          </gpxtpx:TrackPointExtension>
        </extensions>
      </trkpt>
      <trkpt lat="45.78613" lon="6.4196">
        <ele>1305.4000244141</ele>
        <time>2020-07-05T06:22:11.000Z</time>
        <extensions>
          <gpxtpx:TrackPointExtension xmlns:gpxtpx="http://www.garmin.com/xmlschemas/TrackPointExtension/v1">
            <gpxtpx:hr>125</gpxtpx:hr>
          </gpxtpx:TrackPointExtension>
        </extensions>
      </trkpt>
      <trkpt lat="45.78613" lon="6.41966">
        <ele>1305.5999755859</ele>
        <time>2020-07-05T06:22:12.000Z</time>
        <extensions>
          <gpxtpx:TrackPointExtension xmlns:gpxtpx="http://www.garmin.com/xmlschemas/TrackPointExtension/v1">
            <gpxtpx:hr>125</gpxtpx:hr>
          </gpxtpx:TrackPointExtension>
        </extensions>
      </trkpt>
      <trkpt lat="45.78608" lon="6.41978">
        <ele>1306.4000244141</ele>
        <time>2020-07-05T06:22:15.000Z</time>
        <extensions>
          <gpxtpx:TrackPointExtension xmlns:gpxtpx="http://www.garmin.com/xmlschemas/TrackPointExtension/v1">
            <gpxtpx:hr>126</gpxtpx:hr>
          </gpxtpx:TrackPointExtension>
        </extensions>
      </trkpt>
      <trkpt lat="45.78603" lon="6.41989">
        <ele>1307.1999511719</ele>
        <time>2020-07-05T06:22:18.000Z</time>
        <extensions>
          <gpxtpx:TrackPointExtension xmlns:gpxtpx="http://www.garmin.com/xmlschemas/TrackPointExtension/v1">
            <gpxtpx:hr>125</gpxtpx:hr>
          </gpxtpx:TrackPointExtension>
        </extensions>
      </trkpt>
      <trkpt lat="45.78603" lon="6.41994">
        <ele>1307.4000244141</ele>
        <time>2020-07-05T06:22:19.000Z</time>
        <extensions>
          <gpxtpx:TrackPointExtension xmlns:gpxtpx="http://www.garmin.com/xmlschemas/TrackPointExtension/v1">
            <gpxtpx:hr>125</gpxtpx:hr>
          </gpxtpx:TrackPointExtension>
        </extensions>
      </trkpt>
      <trkpt lat="45.78603" lon="6.42014">
        <ele>1308.4000244141</ele>
        <time>2020-07-05T06:22:23.000Z</time>
        <extensions>
          <gpxtpx:TrackPointExtension xmlns:gpxtpx="http://www.garmin.com/xmlschemas/TrackPointExtension/v1">
            <gpxtpx:hr>126</gpxtpx:hr>
          </gpxtpx:TrackPointExtension>
        </extensions>
      </trkpt>
      <trkpt lat="45.78603" lon="6.42017">
        <ele>1308.8000488281</ele>
        <time>2020-07-05T06:22:24.000Z</time>
        <extensions>
          <gpxtpx:TrackPointExtension xmlns:gpxtpx="http://www.garmin.com/xmlschemas/TrackPointExtension/v1">
            <gpxtpx:hr>126</gpxtpx:hr>
          </gpxtpx:TrackPointExtension>
        </extensions>
      </trkpt>
      <trkpt lat="45.78604" lon="6.42027">
        <ele>1309.5999755859</ele>
        <time>2020-07-05T06:22:27.000Z</time>
        <extensions>
          <gpxtpx:TrackPointExtension xmlns:gpxtpx="http://www.garmin.com/xmlschemas/TrackPointExtension/v1">
            <gpxtpx:hr>128</gpxtpx:hr>
          </gpxtpx:TrackPointExtension>
        </extensions>
      </trkpt>
      <trkpt lat="45.78602" lon="6.42037">
        <ele>1310.1999511719</ele>
        <time>2020-07-05T06:22:30.000Z</time>
        <extensions>
          <gpxtpx:TrackPointExtension xmlns:gpxtpx="http://www.garmin.com/xmlschemas/TrackPointExtension/v1">
            <gpxtpx:hr>130</gpxtpx:hr>
          </gpxtpx:TrackPointExtension>
        </extensions>
      </trkpt>
      <trkpt lat="45.78601" lon="6.42044">
        <ele>1310.8000488281</ele>
        <time>2020-07-05T06:22:32.000Z</time>
        <extensions>
          <gpxtpx:TrackPointExtension xmlns:gpxtpx="http://www.garmin.com/xmlschemas/TrackPointExtension/v1">
            <gpxtpx:hr>132</gpxtpx:hr>
          </gpxtpx:TrackPointExtension>
        </extensions>
      </trkpt>
      <trkpt lat="45.78595" lon="6.42053">
        <ele>1311.1999511719</ele>
        <time>2020-07-05T06:22:34.000Z</time>
        <extensions>
          <gpxtpx:TrackPointExtension xmlns:gpxtpx="http://www.garmin.com/xmlschemas/TrackPointExtension/v1">
            <gpxtpx:hr>132</gpxtpx:hr>
          </gpxtpx:TrackPointExtension>
        </extensions>
      </trkpt>
      <trkpt lat="45.78595" lon="6.42058">
        <ele>1311.4000244141</ele>
        <time>2020-07-05T06:22:35.000Z</time>
        <extensions>
          <gpxtpx:TrackPointExtension xmlns:gpxtpx="http://www.garmin.com/xmlschemas/TrackPointExtension/v1">
            <gpxtpx:hr>133</gpxtpx:hr>
          </gpxtpx:TrackPointExtension>
        </extensions>
      </trkpt>
      <trkpt lat="45.78594" lon="6.42067">
        <ele>1312</ele>
        <time>2020-07-05T06:22:38.000Z</time>
        <extensions>
          <gpxtpx:TrackPointExtension xmlns:gpxtpx="http://www.garmin.com/xmlschemas/TrackPointExtension/v1">
            <gpxtpx:hr>133</gpxtpx:hr>
          </gpxtpx:TrackPointExtension>
        </extensions>
      </trkpt>
      <trkpt lat="45.78595" lon="6.42076">
        <ele>1312.4000244141</ele>
        <time>2020-07-05T06:22:40.000Z</time>
        <extensions>
          <gpxtpx:TrackPointExtension xmlns:gpxtpx="http://www.garmin.com/xmlschemas/TrackPointExtension/v1">
            <gpxtpx:hr>134</gpxtpx:hr>
          </gpxtpx:TrackPointExtension>
        </extensions>
      </trkpt>
      <trkpt lat="45.78597" lon="6.42085">
        <ele>1313</ele>
        <time>2020-07-05T06:22:42.000Z</time>
        <extensions>
          <gpxtpx:TrackPointExtension xmlns:gpxtpx="http://www.garmin.com/xmlschemas/TrackPointExtension/v1">
            <gpxtpx:hr>134</gpxtpx:hr>
          </gpxtpx:TrackPointExtension>
        </extensions>
      </trkpt>
      <trkpt lat="45.78598" lon="6.42102">
        <ele>1313.8000488281</ele>
        <time>2020-07-05T06:22:46.000Z</time>
        <extensions>
          <gpxtpx:TrackPointExtension xmlns:gpxtpx="http://www.garmin.com/xmlschemas/TrackPointExtension/v1">
            <gpxtpx:hr>134</gpxtpx:hr>
          </gpxtpx:TrackPointExtension>
        </extensions>
      </trkpt>
      <trkpt lat="45.78599" lon="6.42106">
        <ele>1314</ele>
        <time>2020-07-05T06:22:47.000Z</time>
        <extensions>
          <gpxtpx:TrackPointExtension xmlns:gpxtpx="http://www.garmin.com/xmlschemas/TrackPointExtension/v1">
            <gpxtpx:hr>134</gpxtpx:hr>
          </gpxtpx:TrackPointExtension>
        </extensions>
      </trkpt>
      <trkpt lat="45.78605" lon="6.42124">
        <ele>1315.1999511719</ele>
        <time>2020-07-05T06:22:51.000Z</time>
        <extensions>
          <gpxtpx:TrackPointExtension xmlns:gpxtpx="http://www.garmin.com/xmlschemas/TrackPointExtension/v1">
            <gpxtpx:hr>136</gpxtpx:hr>
          </gpxtpx:TrackPointExtension>
        </extensions>
      </trkpt>
      <trkpt lat="45.78606" lon="6.42128">
        <ele>1315.4000244141</ele>
        <time>2020-07-05T06:22:52.000Z</time>
        <extensions>
          <gpxtpx:TrackPointExtension xmlns:gpxtpx="http://www.garmin.com/xmlschemas/TrackPointExtension/v1">
            <gpxtpx:hr>136</gpxtpx:hr>
          </gpxtpx:TrackPointExtension>
        </extensions>
      </trkpt>
      <trkpt lat="45.78612" lon="6.42144">
        <ele>1316.1999511719</ele>
        <time>2020-07-05T06:22:56.000Z</time>
        <extensions>
          <gpxtpx:TrackPointExtension xmlns:gpxtpx="http://www.garmin.com/xmlschemas/TrackPointExtension/v1">
            <gpxtpx:hr>135</gpxtpx:hr>
          </gpxtpx:TrackPointExtension>
        </extensions>
      </trkpt>
      <trkpt lat="45.78613" lon="6.42146">
        <ele>1316.5999755859</ele>
        <time>2020-07-05T06:22:57.000Z</time>
        <extensions>
          <gpxtpx:TrackPointExtension xmlns:gpxtpx="http://www.garmin.com/xmlschemas/TrackPointExtension/v1">
            <gpxtpx:hr>134</gpxtpx:hr>
          </gpxtpx:TrackPointExtension>
        </extensions>
      </trkpt>
      <trkpt lat="45.78615" lon="6.42147">
        <ele>1317</ele>
        <time>2020-07-05T06:22:58.000Z</time>
        <extensions>
          <gpxtpx:TrackPointExtension xmlns:gpxtpx="http://www.garmin.com/xmlschemas/TrackPointExtension/v1">
            <gpxtpx:hr>134</gpxtpx:hr>
          </gpxtpx:TrackPointExtension>
        </extensions>
      </trkpt>
      <trkpt lat="45.78619" lon="6.42147">
        <ele>1317.4000244141</ele>
        <time>2020-07-05T06:23:00.000Z</time>
        <extensions>
          <gpxtpx:TrackPointExtension xmlns:gpxtpx="http://www.garmin.com/xmlschemas/TrackPointExtension/v1">
            <gpxtpx:hr>133</gpxtpx:hr>
          </gpxtpx:TrackPointExtension>
        </extensions>
      </trkpt>
      <trkpt lat="45.78625" lon="6.42143">
        <ele>1318.4000244141</ele>
        <time>2020-07-05T06:23:03.000Z</time>
        <extensions>
          <gpxtpx:TrackPointExtension xmlns:gpxtpx="http://www.garmin.com/xmlschemas/TrackPointExtension/v1">
            <gpxtpx:hr>128</gpxtpx:hr>
          </gpxtpx:TrackPointExtension>
        </extensions>
      </trkpt>
      <trkpt lat="45.78626" lon="6.4214">
        <ele>1318.8000488281</ele>
        <time>2020-07-05T06:23:04.000Z</time>
        <extensions>
          <gpxtpx:TrackPointExtension xmlns:gpxtpx="http://www.garmin.com/xmlschemas/TrackPointExtension/v1">
            <gpxtpx:hr>127</gpxtpx:hr>
          </gpxtpx:TrackPointExtension>
        </extensions>
      </trkpt>
      <trkpt lat="45.78625" lon="6.42138">
        <ele>1319.1999511719</ele>
        <time>2020-07-05T06:23:05.000Z</time>
        <extensions>
          <gpxtpx:TrackPointExtension xmlns:gpxtpx="http://www.garmin.com/xmlschemas/TrackPointExtension/v1">
            <gpxtpx:hr>128</gpxtpx:hr>
          </gpxtpx:TrackPointExtension>
        </extensions>
      </trkpt>
      <trkpt lat="45.78622" lon="6.42132">
        <ele>1319.5999755859</ele>
        <time>2020-07-05T06:23:07.000Z</time>
        <extensions>
          <gpxtpx:TrackPointExtension xmlns:gpxtpx="http://www.garmin.com/xmlschemas/TrackPointExtension/v1">
            <gpxtpx:hr>128</gpxtpx:hr>
          </gpxtpx:TrackPointExtension>
        </extensions>
      </trkpt>
      <trkpt lat="45.78621" lon="6.42129">
        <ele>1320</ele>
        <time>2020-07-05T06:23:08.000Z</time>
        <extensions>
          <gpxtpx:TrackPointExtension xmlns:gpxtpx="http://www.garmin.com/xmlschemas/TrackPointExtension/v1">
            <gpxtpx:hr>128</gpxtpx:hr>
          </gpxtpx:TrackPointExtension>
        </extensions>
      </trkpt>
      <trkpt lat="45.7862" lon="6.42126">
        <ele>1320.1999511719</ele>
        <time>2020-07-05T06:23:09.000Z</time>
        <extensions>
          <gpxtpx:TrackPointExtension xmlns:gpxtpx="http://www.garmin.com/xmlschemas/TrackPointExtension/v1">
            <gpxtpx:hr>128</gpxtpx:hr>
          </gpxtpx:TrackPointExtension>
        </extensions>
      </trkpt>
      <trkpt lat="45.78617" lon="6.42119">
        <ele>1321</ele>
        <time>2020-07-05T06:23:12.000Z</time>
        <extensions>
          <gpxtpx:TrackPointExtension xmlns:gpxtpx="http://www.garmin.com/xmlschemas/TrackPointExtension/v1">
            <gpxtpx:hr>129</gpxtpx:hr>
          </gpxtpx:TrackPointExtension>
        </extensions>
      </trkpt>
      <trkpt lat="45.78614" lon="6.42115">
        <ele>1321.1999511719</ele>
        <time>2020-07-05T06:23:14.000Z</time>
        <extensions>
          <gpxtpx:TrackPointExtension xmlns:gpxtpx="http://www.garmin.com/xmlschemas/TrackPointExtension/v1">
            <gpxtpx:hr>129</gpxtpx:hr>
          </gpxtpx:TrackPointExtension>
        </extensions>
      </trkpt>
      <trkpt lat="45.78612" lon="6.42102">
        <ele>1321.8000488281</ele>
        <time>2020-07-05T06:23:18.000Z</time>
        <extensions>
          <gpxtpx:TrackPointExtension xmlns:gpxtpx="http://www.garmin.com/xmlschemas/TrackPointExtension/v1">
            <gpxtpx:hr>129</gpxtpx:hr>
          </gpxtpx:TrackPointExtension>
        </extensions>
      </trkpt>
      <trkpt lat="45.78612" lon="6.42098">
        <ele>1322</ele>
        <time>2020-07-05T06:23:19.000Z</time>
        <extensions>
          <gpxtpx:TrackPointExtension xmlns:gpxtpx="http://www.garmin.com/xmlschemas/TrackPointExtension/v1">
            <gpxtpx:hr>129</gpxtpx:hr>
          </gpxtpx:TrackPointExtension>
        </extensions>
      </trkpt>
      <trkpt lat="45.78613" lon="6.42095">
        <ele>1322</ele>
        <time>2020-07-05T06:23:20.000Z</time>
        <extensions>
          <gpxtpx:TrackPointExtension xmlns:gpxtpx="http://www.garmin.com/xmlschemas/TrackPointExtension/v1">
            <gpxtpx:hr>129</gpxtpx:hr>
          </gpxtpx:TrackPointExtension>
        </extensions>
      </trkpt>
      <trkpt lat="45.78622" lon="6.4208">
        <ele>1322.5999755859</ele>
        <time>2020-07-05T06:23:25.000Z</time>
        <extensions>
          <gpxtpx:TrackPointExtension xmlns:gpxtpx="http://www.garmin.com/xmlschemas/TrackPointExtension/v1">
            <gpxtpx:hr>128</gpxtpx:hr>
          </gpxtpx:TrackPointExtension>
        </extensions>
      </trkpt>
      <trkpt lat="45.78625" lon="6.42079">
        <ele>1322.8000488281</ele>
        <time>2020-07-05T06:23:26.000Z</time>
        <extensions>
          <gpxtpx:TrackPointExtension xmlns:gpxtpx="http://www.garmin.com/xmlschemas/TrackPointExtension/v1">
            <gpxtpx:hr>128</gpxtpx:hr>
          </gpxtpx:TrackPointExtension>
        </extensions>
      </trkpt>
      <trkpt lat="45.78631" lon="6.42075">
        <ele>1323</ele>
        <time>2020-07-05T06:23:28.000Z</time>
        <extensions>
          <gpxtpx:TrackPointExtension xmlns:gpxtpx="http://www.garmin.com/xmlschemas/TrackPointExtension/v1">
            <gpxtpx:hr>127</gpxtpx:hr>
          </gpxtpx:TrackPointExtension>
        </extensions>
      </trkpt>
      <trkpt lat="45.78635" lon="6.42069">
        <ele>1323.1999511719</ele>
        <time>2020-07-05T06:23:30.000Z</time>
        <extensions>
          <gpxtpx:TrackPointExtension xmlns:gpxtpx="http://www.garmin.com/xmlschemas/TrackPointExtension/v1">
            <gpxtpx:hr>127</gpxtpx:hr>
          </gpxtpx:TrackPointExtension>
        </extensions>
      </trkpt>
      <trkpt lat="45.78637" lon="6.42065">
        <ele>1323.4000244141</ele>
        <time>2020-07-05T06:23:31.000Z</time>
        <extensions>
          <gpxtpx:TrackPointExtension xmlns:gpxtpx="http://www.garmin.com/xmlschemas/TrackPointExtension/v1">
            <gpxtpx:hr>127</gpxtpx:hr>
          </gpxtpx:TrackPointExtension>
        </extensions>
      </trkpt>
      <trkpt lat="45.78643" lon="6.42053">
        <ele>1324</ele>
        <time>2020-07-05T06:23:34.000Z</time>
        <extensions>
          <gpxtpx:TrackPointExtension xmlns:gpxtpx="http://www.garmin.com/xmlschemas/TrackPointExtension/v1">
            <gpxtpx:hr>126</gpxtpx:hr>
          </gpxtpx:TrackPointExtension>
        </extensions>
      </trkpt>
      <trkpt lat="45.78648" lon="6.42043">
        <ele>1324.5999755859</ele>
        <time>2020-07-05T06:23:37.000Z</time>
        <extensions>
          <gpxtpx:TrackPointExtension xmlns:gpxtpx="http://www.garmin.com/xmlschemas/TrackPointExtension/v1">
            <gpxtpx:hr>126</gpxtpx:hr>
          </gpxtpx:TrackPointExtension>
        </extensions>
      </trkpt>
      <trkpt lat="45.78651" lon="6.42037">
        <ele>1325</ele>
        <time>2020-07-05T06:23:39.000Z</time>
        <extensions>
          <gpxtpx:TrackPointExtension xmlns:gpxtpx="http://www.garmin.com/xmlschemas/TrackPointExtension/v1">
            <gpxtpx:hr>126</gpxtpx:hr>
          </gpxtpx:TrackPointExtension>
        </extensions>
      </trkpt>
      <trkpt lat="45.78656" lon="6.42024">
        <ele>1326.1999511719</ele>
        <time>2020-07-05T06:23:43.000Z</time>
        <extensions>
          <gpxtpx:TrackPointExtension xmlns:gpxtpx="http://www.garmin.com/xmlschemas/TrackPointExtension/v1">
            <gpxtpx:hr>127</gpxtpx:hr>
          </gpxtpx:TrackPointExtension>
        </extensions>
      </trkpt>
      <trkpt lat="45.78661" lon="6.42015">
        <ele>1327.5999755859</ele>
        <time>2020-07-05T06:23:46.000Z</time>
        <extensions>
          <gpxtpx:TrackPointExtension xmlns:gpxtpx="http://www.garmin.com/xmlschemas/TrackPointExtension/v1">
            <gpxtpx:hr>128</gpxtpx:hr>
          </gpxtpx:TrackPointExtension>
        </extensions>
      </trkpt>
      <trkpt lat="45.78665" lon="6.42011">
        <ele>1328.1999511719</ele>
        <time>2020-07-05T06:23:48.000Z</time>
        <extensions>
          <gpxtpx:TrackPointExtension xmlns:gpxtpx="http://www.garmin.com/xmlschemas/TrackPointExtension/v1">
            <gpxtpx:hr>128</gpxtpx:hr>
          </gpxtpx:TrackPointExtension>
        </extensions>
      </trkpt>
      <trkpt lat="45.78672" lon="6.42002">
        <ele>1328.5999755859</ele>
        <time>2020-07-05T06:23:51.000Z</time>
        <extensions>
          <gpxtpx:TrackPointExtension xmlns:gpxtpx="http://www.garmin.com/xmlschemas/TrackPointExtension/v1">
            <gpxtpx:hr>130</gpxtpx:hr>
          </gpxtpx:TrackPointExtension>
        </extensions>
      </trkpt>
      <trkpt lat="45.78674" lon="6.41995">
        <ele>1329.1999511719</ele>
        <time>2020-07-05T06:23:53.000Z</time>
        <extensions>
          <gpxtpx:TrackPointExtension xmlns:gpxtpx="http://www.garmin.com/xmlschemas/TrackPointExtension/v1">
            <gpxtpx:hr>131</gpxtpx:hr>
          </gpxtpx:TrackPointExtension>
        </extensions>
      </trkpt>
      <trkpt lat="45.78674" lon="6.41991">
        <ele>1329.5999755859</ele>
        <time>2020-07-05T06:23:54.000Z</time>
        <extensions>
          <gpxtpx:TrackPointExtension xmlns:gpxtpx="http://www.garmin.com/xmlschemas/TrackPointExtension/v1">
            <gpxtpx:hr>131</gpxtpx:hr>
          </gpxtpx:TrackPointExtension>
        </extensions>
      </trkpt>
      <trkpt lat="45.78674" lon="6.41988">
        <ele>1329.8000488281</ele>
        <time>2020-07-05T06:23:55.000Z</time>
        <extensions>
          <gpxtpx:TrackPointExtension xmlns:gpxtpx="http://www.garmin.com/xmlschemas/TrackPointExtension/v1">
            <gpxtpx:hr>132</gpxtpx:hr>
          </gpxtpx:TrackPointExtension>
        </extensions>
      </trkpt>
      <trkpt lat="45.78683" lon="6.41973">
        <ele>1330.8000488281</ele>
        <time>2020-07-05T06:24:00.000Z</time>
        <extensions>
          <gpxtpx:TrackPointExtension xmlns:gpxtpx="http://www.garmin.com/xmlschemas/TrackPointExtension/v1">
            <gpxtpx:hr>133</gpxtpx:hr>
          </gpxtpx:TrackPointExtension>
        </extensions>
      </trkpt>
      <trkpt lat="45.78686" lon="6.41964">
        <ele>1331.1999511719</ele>
        <time>2020-07-05T06:24:02.000Z</time>
        <extensions>
          <gpxtpx:TrackPointExtension xmlns:gpxtpx="http://www.garmin.com/xmlschemas/TrackPointExtension/v1">
            <gpxtpx:hr>133</gpxtpx:hr>
          </gpxtpx:TrackPointExtension>
        </extensions>
      </trkpt>
      <trkpt lat="45.78694" lon="6.41955">
        <ele>1331.8000488281</ele>
        <time>2020-07-05T06:24:05.000Z</time>
        <extensions>
          <gpxtpx:TrackPointExtension xmlns:gpxtpx="http://www.garmin.com/xmlschemas/TrackPointExtension/v1">
            <gpxtpx:hr>132</gpxtpx:hr>
          </gpxtpx:TrackPointExtension>
        </extensions>
      </trkpt>
      <trkpt lat="45.78705" lon="6.41949">
        <ele>1332.1999511719</ele>
        <time>2020-07-05T06:24:09.000Z</time>
        <extensions>
          <gpxtpx:TrackPointExtension xmlns:gpxtpx="http://www.garmin.com/xmlschemas/TrackPointExtension/v1">
            <gpxtpx:hr>130</gpxtpx:hr>
          </gpxtpx:TrackPointExtension>
        </extensions>
      </trkpt>
      <trkpt lat="45.78714" lon="6.41944">
        <ele>1332.8000488281</ele>
        <time>2020-07-05T06:24:13.000Z</time>
        <extensions>
          <gpxtpx:TrackPointExtension xmlns:gpxtpx="http://www.garmin.com/xmlschemas/TrackPointExtension/v1">
            <gpxtpx:hr>129</gpxtpx:hr>
          </gpxtpx:TrackPointExtension>
        </extensions>
      </trkpt>
      <trkpt lat="45.7872" lon="6.41942">
        <ele>1333.4000244141</ele>
        <time>2020-07-05T06:24:16.000Z</time>
        <extensions>
          <gpxtpx:TrackPointExtension xmlns:gpxtpx="http://www.garmin.com/xmlschemas/TrackPointExtension/v1">
            <gpxtpx:hr>128</gpxtpx:hr>
          </gpxtpx:TrackPointExtension>
        </extensions>
      </trkpt>
      <trkpt lat="45.78727" lon="6.41938">
        <ele>1334</ele>
        <time>2020-07-05T06:24:19.000Z</time>
        <extensions>
          <gpxtpx:TrackPointExtension xmlns:gpxtpx="http://www.garmin.com/xmlschemas/TrackPointExtension/v1">
            <gpxtpx:hr>130</gpxtpx:hr>
          </gpxtpx:TrackPointExtension>
        </extensions>
      </trkpt>
      <trkpt lat="45.78731" lon="6.41934">
        <ele>1334.5999755859</ele>
        <time>2020-07-05T06:24:21.000Z</time>
        <extensions>
          <gpxtpx:TrackPointExtension xmlns:gpxtpx="http://www.garmin.com/xmlschemas/TrackPointExtension/v1">
            <gpxtpx:hr>127</gpxtpx:hr>
          </gpxtpx:TrackPointExtension>
        </extensions>
      </trkpt>
      <trkpt lat="45.78732" lon="6.41933">
        <ele>1334.8000488281</ele>
        <time>2020-07-05T06:24:22.000Z</time>
        <extensions>
          <gpxtpx:TrackPointExtension xmlns:gpxtpx="http://www.garmin.com/xmlschemas/TrackPointExtension/v1">
            <gpxtpx:hr>124</gpxtpx:hr>
          </gpxtpx:TrackPointExtension>
        </extensions>
      </trkpt>
      <trkpt lat="45.78734" lon="6.41931">
        <ele>1335</ele>
        <time>2020-07-05T06:24:23.000Z</time>
        <extensions>
          <gpxtpx:TrackPointExtension xmlns:gpxtpx="http://www.garmin.com/xmlschemas/TrackPointExtension/v1">
            <gpxtpx:hr>127</gpxtpx:hr>
          </gpxtpx:TrackPointExtension>
        </extensions>
      </trkpt>
      <trkpt lat="45.78736" lon="6.41929">
        <ele>1335.1999511719</ele>
        <time>2020-07-05T06:24:24.000Z</time>
        <extensions>
          <gpxtpx:TrackPointExtension xmlns:gpxtpx="http://www.garmin.com/xmlschemas/TrackPointExtension/v1">
            <gpxtpx:hr>127</gpxtpx:hr>
          </gpxtpx:TrackPointExtension>
        </extensions>
      </trkpt>
      <trkpt lat="45.78749" lon="6.4192">
        <ele>1336.4000244141</ele>
        <time>2020-07-05T06:24:30.000Z</time>
        <extensions>
          <gpxtpx:TrackPointExtension xmlns:gpxtpx="http://www.garmin.com/xmlschemas/TrackPointExtension/v1">
            <gpxtpx:hr>128</gpxtpx:hr>
          </gpxtpx:TrackPointExtension>
        </extensions>
      </trkpt>
      <trkpt lat="45.78751" lon="6.41918">
        <ele>1336.5999755859</ele>
        <time>2020-07-05T06:24:31.000Z</time>
        <extensions>
          <gpxtpx:TrackPointExtension xmlns:gpxtpx="http://www.garmin.com/xmlschemas/TrackPointExtension/v1">
            <gpxtpx:hr>129</gpxtpx:hr>
          </gpxtpx:TrackPointExtension>
        </extensions>
      </trkpt>
      <trkpt lat="45.78756" lon="6.41911">
        <ele>1337.1999511719</ele>
        <time>2020-07-05T06:24:34.000Z</time>
        <extensions>
          <gpxtpx:TrackPointExtension xmlns:gpxtpx="http://www.garmin.com/xmlschemas/TrackPointExtension/v1">
            <gpxtpx:hr>130</gpxtpx:hr>
          </gpxtpx:TrackPointExtension>
        </extensions>
      </trkpt>
      <trkpt lat="45.7876" lon="6.41903">
        <ele>1337.4000244141</ele>
        <time>2020-07-05T06:24:36.000Z</time>
        <extensions>
          <gpxtpx:TrackPointExtension xmlns:gpxtpx="http://www.garmin.com/xmlschemas/TrackPointExtension/v1">
            <gpxtpx:hr>128</gpxtpx:hr>
          </gpxtpx:TrackPointExtension>
        </extensions>
      </trkpt>
      <trkpt lat="45.78763" lon="6.41898">
        <ele>1337.5999755859</ele>
        <time>2020-07-05T06:24:37.000Z</time>
        <extensions>
          <gpxtpx:TrackPointExtension xmlns:gpxtpx="http://www.garmin.com/xmlschemas/TrackPointExtension/v1">
            <gpxtpx:hr>128</gpxtpx:hr>
          </gpxtpx:TrackPointExtension>
        </extensions>
      </trkpt>
      <trkpt lat="45.78767" lon="6.41876">
        <ele>1338.4000244141</ele>
        <time>2020-07-05T06:24:42.000Z</time>
        <extensions>
          <gpxtpx:TrackPointExtension xmlns:gpxtpx="http://www.garmin.com/xmlschemas/TrackPointExtension/v1">
            <gpxtpx:hr>126</gpxtpx:hr>
          </gpxtpx:TrackPointExtension>
        </extensions>
      </trkpt>
      <trkpt lat="45.78768" lon="6.41871">
        <ele>1338.4000244141</ele>
        <time>2020-07-05T06:24:43.000Z</time>
        <extensions>
          <gpxtpx:TrackPointExtension xmlns:gpxtpx="http://www.garmin.com/xmlschemas/TrackPointExtension/v1">
            <gpxtpx:hr>126</gpxtpx:hr>
          </gpxtpx:TrackPointExtension>
        </extensions>
      </trkpt>
      <trkpt lat="45.78769" lon="6.41862">
        <ele>1338.8000488281</ele>
        <time>2020-07-05T06:24:45.000Z</time>
        <extensions>
          <gpxtpx:TrackPointExtension xmlns:gpxtpx="http://www.garmin.com/xmlschemas/TrackPointExtension/v1">
            <gpxtpx:hr>126</gpxtpx:hr>
          </gpxtpx:TrackPointExtension>
        </extensions>
      </trkpt>
      <trkpt lat="45.7877" lon="6.41845">
        <ele>1339.8000488281</ele>
        <time>2020-07-05T06:24:50.000Z</time>
        <extensions>
          <gpxtpx:TrackPointExtension xmlns:gpxtpx="http://www.garmin.com/xmlschemas/TrackPointExtension/v1">
            <gpxtpx:hr>125</gpxtpx:hr>
          </gpxtpx:TrackPointExtension>
        </extensions>
      </trkpt>
      <trkpt lat="45.78778" lon="6.41839">
        <ele>1340.5999755859</ele>
        <time>2020-07-05T06:24:54.000Z</time>
        <extensions>
          <gpxtpx:TrackPointExtension xmlns:gpxtpx="http://www.garmin.com/xmlschemas/TrackPointExtension/v1">
            <gpxtpx:hr>125</gpxtpx:hr>
          </gpxtpx:TrackPointExtension>
        </extensions>
      </trkpt>
      <trkpt lat="45.7878" lon="6.41839">
        <ele>1341</ele>
        <time>2020-07-05T06:24:55.000Z</time>
        <extensions>
          <gpxtpx:TrackPointExtension xmlns:gpxtpx="http://www.garmin.com/xmlschemas/TrackPointExtension/v1">
            <gpxtpx:hr>126</gpxtpx:hr>
          </gpxtpx:TrackPointExtension>
        </extensions>
      </trkpt>
      <trkpt lat="45.78787" lon="6.41841">
        <ele>1342.4000244141</ele>
        <time>2020-07-05T06:24:58.000Z</time>
        <extensions>
          <gpxtpx:TrackPointExtension xmlns:gpxtpx="http://www.garmin.com/xmlschemas/TrackPointExtension/v1">
            <gpxtpx:hr>126</gpxtpx:hr>
          </gpxtpx:TrackPointExtension>
        </extensions>
      </trkpt>
      <trkpt lat="45.78788" lon="6.41843">
        <ele>1342.8000488281</ele>
        <time>2020-07-05T06:24:59.000Z</time>
        <extensions>
          <gpxtpx:TrackPointExtension xmlns:gpxtpx="http://www.garmin.com/xmlschemas/TrackPointExtension/v1">
            <gpxtpx:hr>126</gpxtpx:hr>
          </gpxtpx:TrackPointExtension>
        </extensions>
      </trkpt>
      <trkpt lat="45.78791" lon="6.41849">
        <ele>1343.5999755859</ele>
        <time>2020-07-05T06:25:01.000Z</time>
        <extensions>
          <gpxtpx:TrackPointExtension xmlns:gpxtpx="http://www.garmin.com/xmlschemas/TrackPointExtension/v1">
            <gpxtpx:hr>126</gpxtpx:hr>
          </gpxtpx:TrackPointExtension>
        </extensions>
      </trkpt>
      <trkpt lat="45.78794" lon="6.41857">
        <ele>1344.4000244141</ele>
        <time>2020-07-05T06:25:04.000Z</time>
        <extensions>
          <gpxtpx:TrackPointExtension xmlns:gpxtpx="http://www.garmin.com/xmlschemas/TrackPointExtension/v1">
            <gpxtpx:hr>127</gpxtpx:hr>
          </gpxtpx:TrackPointExtension>
        </extensions>
      </trkpt>
      <trkpt lat="45.78795" lon="6.4186">
        <ele>1344.8000488281</ele>
        <time>2020-07-05T06:25:05.000Z</time>
        <extensions>
          <gpxtpx:TrackPointExtension xmlns:gpxtpx="http://www.garmin.com/xmlschemas/TrackPointExtension/v1">
            <gpxtpx:hr>128</gpxtpx:hr>
          </gpxtpx:TrackPointExtension>
        </extensions>
      </trkpt>
      <trkpt lat="45.78799" lon="6.41873">
        <ele>1345.8000488281</ele>
        <time>2020-07-05T06:25:09.000Z</time>
        <extensions>
          <gpxtpx:TrackPointExtension xmlns:gpxtpx="http://www.garmin.com/xmlschemas/TrackPointExtension/v1">
            <gpxtpx:hr>129</gpxtpx:hr>
          </gpxtpx:TrackPointExtension>
        </extensions>
      </trkpt>
      <trkpt lat="45.78804" lon="6.4189">
        <ele>1347</ele>
        <time>2020-07-05T06:25:14.000Z</time>
        <extensions>
          <gpxtpx:TrackPointExtension xmlns:gpxtpx="http://www.garmin.com/xmlschemas/TrackPointExtension/v1">
            <gpxtpx:hr>130</gpxtpx:hr>
          </gpxtpx:TrackPointExtension>
        </extensions>
      </trkpt>
      <trkpt lat="45.78805" lon="6.41893">
        <ele>1347</ele>
        <time>2020-07-05T06:25:15.000Z</time>
        <extensions>
          <gpxtpx:TrackPointExtension xmlns:gpxtpx="http://www.garmin.com/xmlschemas/TrackPointExtension/v1">
            <gpxtpx:hr>130</gpxtpx:hr>
          </gpxtpx:TrackPointExtension>
        </extensions>
      </trkpt>
      <trkpt lat="45.78807" lon="6.41897">
        <ele>1347.1999511719</ele>
        <time>2020-07-05T06:25:16.000Z</time>
        <extensions>
          <gpxtpx:TrackPointExtension xmlns:gpxtpx="http://www.garmin.com/xmlschemas/TrackPointExtension/v1">
            <gpxtpx:hr>130</gpxtpx:hr>
          </gpxtpx:TrackPointExtension>
        </extensions>
      </trkpt>
      <trkpt lat="45.78811" lon="6.41908">
        <ele>1348</ele>
        <time>2020-07-05T06:25:19.000Z</time>
        <extensions>
          <gpxtpx:TrackPointExtension xmlns:gpxtpx="http://www.garmin.com/xmlschemas/TrackPointExtension/v1">
            <gpxtpx:hr>131</gpxtpx:hr>
          </gpxtpx:TrackPointExtension>
        </extensions>
      </trkpt>
      <trkpt lat="45.78814" lon="6.41914">
        <ele>1348.4000244141</ele>
        <time>2020-07-05T06:25:21.000Z</time>
        <extensions>
          <gpxtpx:TrackPointExtension xmlns:gpxtpx="http://www.garmin.com/xmlschemas/TrackPointExtension/v1">
            <gpxtpx:hr>131</gpxtpx:hr>
          </gpxtpx:TrackPointExtension>
        </extensions>
      </trkpt>
      <trkpt lat="45.78817" lon="6.4192">
        <ele>1348.8000488281</ele>
        <time>2020-07-05T06:25:23.000Z</time>
        <extensions>
          <gpxtpx:TrackPointExtension xmlns:gpxtpx="http://www.garmin.com/xmlschemas/TrackPointExtension/v1">
            <gpxtpx:hr>131</gpxtpx:hr>
          </gpxtpx:TrackPointExtension>
        </extensions>
      </trkpt>
      <trkpt lat="45.7882" lon="6.41929">
        <ele>1349.1999511719</ele>
        <time>2020-07-05T06:25:26.000Z</time>
        <extensions>
          <gpxtpx:TrackPointExtension xmlns:gpxtpx="http://www.garmin.com/xmlschemas/TrackPointExtension/v1">
            <gpxtpx:hr>131</gpxtpx:hr>
          </gpxtpx:TrackPointExtension>
        </extensions>
      </trkpt>
      <trkpt lat="45.7882" lon="6.41932">
        <ele>1349.4000244141</ele>
        <time>2020-07-05T06:25:27.000Z</time>
        <extensions>
          <gpxtpx:TrackPointExtension xmlns:gpxtpx="http://www.garmin.com/xmlschemas/TrackPointExtension/v1">
            <gpxtpx:hr>131</gpxtpx:hr>
          </gpxtpx:TrackPointExtension>
        </extensions>
      </trkpt>
      <trkpt lat="45.78819" lon="6.4194">
        <ele>1349.8000488281</ele>
        <time>2020-07-05T06:25:29.000Z</time>
        <extensions>
          <gpxtpx:TrackPointExtension xmlns:gpxtpx="http://www.garmin.com/xmlschemas/TrackPointExtension/v1">
            <gpxtpx:hr>131</gpxtpx:hr>
          </gpxtpx:TrackPointExtension>
        </extensions>
      </trkpt>
      <trkpt lat="45.78819" lon="6.41951">
        <ele>1350.4000244141</ele>
        <time>2020-07-05T06:25:32.000Z</time>
        <extensions>
          <gpxtpx:TrackPointExtension xmlns:gpxtpx="http://www.garmin.com/xmlschemas/TrackPointExtension/v1">
            <gpxtpx:hr>131</gpxtpx:hr>
          </gpxtpx:TrackPointExtension>
        </extensions>
      </trkpt>
      <trkpt lat="45.78817" lon="6.41966">
        <ele>1351</ele>
        <time>2020-07-05T06:25:35.000Z</time>
        <extensions>
          <gpxtpx:TrackPointExtension xmlns:gpxtpx="http://www.garmin.com/xmlschemas/TrackPointExtension/v1">
            <gpxtpx:hr>130</gpxtpx:hr>
          </gpxtpx:TrackPointExtension>
        </extensions>
      </trkpt>
      <trkpt lat="45.78815" lon="6.4198">
        <ele>1351.4000244141</ele>
        <time>2020-07-05T06:25:38.000Z</time>
        <extensions>
          <gpxtpx:TrackPointExtension xmlns:gpxtpx="http://www.garmin.com/xmlschemas/TrackPointExtension/v1">
            <gpxtpx:hr>129</gpxtpx:hr>
          </gpxtpx:TrackPointExtension>
        </extensions>
      </trkpt>
      <trkpt lat="45.78813" lon="6.41993">
        <ele>1352</ele>
        <time>2020-07-05T06:25:41.000Z</time>
        <extensions>
          <gpxtpx:TrackPointExtension xmlns:gpxtpx="http://www.garmin.com/xmlschemas/TrackPointExtension/v1">
            <gpxtpx:hr>129</gpxtpx:hr>
          </gpxtpx:TrackPointExtension>
        </extensions>
      </trkpt>
      <trkpt lat="45.78811" lon="6.42008">
        <ele>1352.5999755859</ele>
        <time>2020-07-05T06:25:45.000Z</time>
        <extensions>
          <gpxtpx:TrackPointExtension xmlns:gpxtpx="http://www.garmin.com/xmlschemas/TrackPointExtension/v1">
            <gpxtpx:hr>128</gpxtpx:hr>
          </gpxtpx:TrackPointExtension>
        </extensions>
      </trkpt>
      <trkpt lat="45.78812" lon="6.42011">
        <ele>1353</ele>
        <time>2020-07-05T06:25:46.000Z</time>
        <extensions>
          <gpxtpx:TrackPointExtension xmlns:gpxtpx="http://www.garmin.com/xmlschemas/TrackPointExtension/v1">
            <gpxtpx:hr>128</gpxtpx:hr>
          </gpxtpx:TrackPointExtension>
        </extensions>
      </trkpt>
      <trkpt lat="45.78808" lon="6.42026">
        <ele>1353.8000488281</ele>
        <time>2020-07-05T06:25:50.000Z</time>
        <extensions>
          <gpxtpx:TrackPointExtension xmlns:gpxtpx="http://www.garmin.com/xmlschemas/TrackPointExtension/v1">
            <gpxtpx:hr>128</gpxtpx:hr>
          </gpxtpx:TrackPointExtension>
        </extensions>
      </trkpt>
      <trkpt lat="45.78803" lon="6.42043">
        <ele>1354.5999755859</ele>
        <time>2020-07-05T06:25:55.000Z</time>
        <extensions>
          <gpxtpx:TrackPointExtension xmlns:gpxtpx="http://www.garmin.com/xmlschemas/TrackPointExtension/v1">
            <gpxtpx:hr>127</gpxtpx:hr>
          </gpxtpx:TrackPointExtension>
        </extensions>
      </trkpt>
      <trkpt lat="45.78802" lon="6.42046">
        <ele>1354.8000488281</ele>
        <time>2020-07-05T06:25:56.000Z</time>
        <extensions>
          <gpxtpx:TrackPointExtension xmlns:gpxtpx="http://www.garmin.com/xmlschemas/TrackPointExtension/v1">
            <gpxtpx:hr>127</gpxtpx:hr>
          </gpxtpx:TrackPointExtension>
        </extensions>
      </trkpt>
      <trkpt lat="45.78798" lon="6.42064">
        <ele>1356</ele>
        <time>2020-07-05T06:26:01.000Z</time>
        <extensions>
          <gpxtpx:TrackPointExtension xmlns:gpxtpx="http://www.garmin.com/xmlschemas/TrackPointExtension/v1">
            <gpxtpx:hr>126</gpxtpx:hr>
          </gpxtpx:TrackPointExtension>
        </extensions>
      </trkpt>
      <trkpt lat="45.78797" lon="6.42071">
        <ele>1356.4000244141</ele>
        <time>2020-07-05T06:26:03.000Z</time>
        <extensions>
          <gpxtpx:TrackPointExtension xmlns:gpxtpx="http://www.garmin.com/xmlschemas/TrackPointExtension/v1">
            <gpxtpx:hr>126</gpxtpx:hr>
          </gpxtpx:TrackPointExtension>
        </extensions>
      </trkpt>
      <trkpt lat="45.78797" lon="6.42075">
        <ele>1356.5999755859</ele>
        <time>2020-07-05T06:26:04.000Z</time>
        <extensions>
          <gpxtpx:TrackPointExtension xmlns:gpxtpx="http://www.garmin.com/xmlschemas/TrackPointExtension/v1">
            <gpxtpx:hr>126</gpxtpx:hr>
          </gpxtpx:TrackPointExtension>
        </extensions>
      </trkpt>
      <trkpt lat="45.78795" lon="6.42081">
        <ele>1357.1999511719</ele>
        <time>2020-07-05T06:26:06.000Z</time>
        <extensions>
          <gpxtpx:TrackPointExtension xmlns:gpxtpx="http://www.garmin.com/xmlschemas/TrackPointExtension/v1">
            <gpxtpx:hr>126</gpxtpx:hr>
          </gpxtpx:TrackPointExtension>
        </extensions>
      </trkpt>
      <trkpt lat="45.78792" lon="6.42098">
        <ele>1358.1999511719</ele>
        <time>2020-07-05T06:26:11.000Z</time>
        <extensions>
          <gpxtpx:TrackPointExtension xmlns:gpxtpx="http://www.garmin.com/xmlschemas/TrackPointExtension/v1">
            <gpxtpx:hr>126</gpxtpx:hr>
          </gpxtpx:TrackPointExtension>
        </extensions>
      </trkpt>
      <trkpt lat="45.78792" lon="6.42102">
        <ele>1358.4000244141</ele>
        <time>2020-07-05T06:26:12.000Z</time>
        <extensions>
          <gpxtpx:TrackPointExtension xmlns:gpxtpx="http://www.garmin.com/xmlschemas/TrackPointExtension/v1">
            <gpxtpx:hr>126</gpxtpx:hr>
          </gpxtpx:TrackPointExtension>
        </extensions>
      </trkpt>
      <trkpt lat="45.78784" lon="6.42118">
        <ele>1359.4000244141</ele>
        <time>2020-07-05T06:26:17.000Z</time>
        <extensions>
          <gpxtpx:TrackPointExtension xmlns:gpxtpx="http://www.garmin.com/xmlschemas/TrackPointExtension/v1">
            <gpxtpx:hr>126</gpxtpx:hr>
          </gpxtpx:TrackPointExtension>
        </extensions>
      </trkpt>
      <trkpt lat="45.78777" lon="6.42135">
        <ele>1360.5999755859</ele>
        <time>2020-07-05T06:26:23.000Z</time>
        <extensions>
          <gpxtpx:TrackPointExtension xmlns:gpxtpx="http://www.garmin.com/xmlschemas/TrackPointExtension/v1">
            <gpxtpx:hr>126</gpxtpx:hr>
          </gpxtpx:TrackPointExtension>
        </extensions>
      </trkpt>
      <trkpt lat="45.78776" lon="6.4214">
        <ele>1361.5999755859</ele>
        <time>2020-07-05T06:26:25.000Z</time>
        <extensions>
          <gpxtpx:TrackPointExtension xmlns:gpxtpx="http://www.garmin.com/xmlschemas/TrackPointExtension/v1">
            <gpxtpx:hr>125</gpxtpx:hr>
          </gpxtpx:TrackPointExtension>
        </extensions>
      </trkpt>
      <trkpt lat="45.78777" lon="6.42144">
        <ele>1361.8000488281</ele>
        <time>2020-07-05T06:26:26.000Z</time>
        <extensions>
          <gpxtpx:TrackPointExtension xmlns:gpxtpx="http://www.garmin.com/xmlschemas/TrackPointExtension/v1">
            <gpxtpx:hr>125</gpxtpx:hr>
          </gpxtpx:TrackPointExtension>
        </extensions>
      </trkpt>
      <trkpt lat="45.78777" lon="6.42147">
        <ele>1362.1999511719</ele>
        <time>2020-07-05T06:26:27.000Z</time>
        <extensions>
          <gpxtpx:TrackPointExtension xmlns:gpxtpx="http://www.garmin.com/xmlschemas/TrackPointExtension/v1">
            <gpxtpx:hr>126</gpxtpx:hr>
          </gpxtpx:TrackPointExtension>
        </extensions>
      </trkpt>
      <trkpt lat="45.78774" lon="6.42159">
        <ele>1363</ele>
        <time>2020-07-05T06:26:31.000Z</time>
        <extensions>
          <gpxtpx:TrackPointExtension xmlns:gpxtpx="http://www.garmin.com/xmlschemas/TrackPointExtension/v1">
            <gpxtpx:hr>127</gpxtpx:hr>
          </gpxtpx:TrackPointExtension>
        </extensions>
      </trkpt>
      <trkpt lat="45.78773" lon="6.42164">
        <ele>1363.4000244141</ele>
        <time>2020-07-05T06:26:33.000Z</time>
        <extensions>
          <gpxtpx:TrackPointExtension xmlns:gpxtpx="http://www.garmin.com/xmlschemas/TrackPointExtension/v1">
            <gpxtpx:hr>127</gpxtpx:hr>
          </gpxtpx:TrackPointExtension>
        </extensions>
      </trkpt>
      <trkpt lat="45.78772" lon="6.42167">
        <ele>1363.8000488281</ele>
        <time>2020-07-05T06:26:34.000Z</time>
        <extensions>
          <gpxtpx:TrackPointExtension xmlns:gpxtpx="http://www.garmin.com/xmlschemas/TrackPointExtension/v1">
            <gpxtpx:hr>127</gpxtpx:hr>
          </gpxtpx:TrackPointExtension>
        </extensions>
      </trkpt>
      <trkpt lat="45.78773" lon="6.4217">
        <ele>1364</ele>
        <time>2020-07-05T06:26:35.000Z</time>
        <extensions>
          <gpxtpx:TrackPointExtension xmlns:gpxtpx="http://www.garmin.com/xmlschemas/TrackPointExtension/v1">
            <gpxtpx:hr>127</gpxtpx:hr>
          </gpxtpx:TrackPointExtension>
        </extensions>
      </trkpt>
      <trkpt lat="45.78772" lon="6.42184">
        <ele>1364.8000488281</ele>
        <time>2020-07-05T06:26:39.000Z</time>
        <extensions>
          <gpxtpx:TrackPointExtension xmlns:gpxtpx="http://www.garmin.com/xmlschemas/TrackPointExtension/v1">
            <gpxtpx:hr>127</gpxtpx:hr>
          </gpxtpx:TrackPointExtension>
        </extensions>
      </trkpt>
      <trkpt lat="45.78771" lon="6.42187">
        <ele>1365.1999511719</ele>
        <time>2020-07-05T06:26:40.000Z</time>
        <extensions>
          <gpxtpx:TrackPointExtension xmlns:gpxtpx="http://www.garmin.com/xmlschemas/TrackPointExtension/v1">
            <gpxtpx:hr>127</gpxtpx:hr>
          </gpxtpx:TrackPointExtension>
        </extensions>
      </trkpt>
      <trkpt lat="45.78772" lon="6.42201">
        <ele>1366.1999511719</ele>
        <time>2020-07-05T06:26:44.000Z</time>
        <extensions>
          <gpxtpx:TrackPointExtension xmlns:gpxtpx="http://www.garmin.com/xmlschemas/TrackPointExtension/v1">
            <gpxtpx:hr>127</gpxtpx:hr>
          </gpxtpx:TrackPointExtension>
        </extensions>
      </trkpt>
      <trkpt lat="45.78771" lon="6.42206">
        <ele>1366.5999755859</ele>
        <time>2020-07-05T06:26:45.000Z</time>
        <extensions>
          <gpxtpx:TrackPointExtension xmlns:gpxtpx="http://www.garmin.com/xmlschemas/TrackPointExtension/v1">
            <gpxtpx:hr>127</gpxtpx:hr>
          </gpxtpx:TrackPointExtension>
        </extensions>
      </trkpt>
      <trkpt lat="45.78769" lon="6.42217">
        <ele>1367.4000244141</ele>
        <time>2020-07-05T06:26:48.000Z</time>
        <extensions>
          <gpxtpx:TrackPointExtension xmlns:gpxtpx="http://www.garmin.com/xmlschemas/TrackPointExtension/v1">
            <gpxtpx:hr>127</gpxtpx:hr>
          </gpxtpx:TrackPointExtension>
        </extensions>
      </trkpt>
      <trkpt lat="45.78769" lon="6.42227">
        <ele>1368</ele>
        <time>2020-07-05T06:26:51.000Z</time>
        <extensions>
          <gpxtpx:TrackPointExtension xmlns:gpxtpx="http://www.garmin.com/xmlschemas/TrackPointExtension/v1">
            <gpxtpx:hr>127</gpxtpx:hr>
          </gpxtpx:TrackPointExtension>
        </extensions>
      </trkpt>
      <trkpt lat="45.78768" lon="6.42235">
        <ele>1368.1999511719</ele>
        <time>2020-07-05T06:26:53.000Z</time>
        <extensions>
          <gpxtpx:TrackPointExtension xmlns:gpxtpx="http://www.garmin.com/xmlschemas/TrackPointExtension/v1">
            <gpxtpx:hr>127</gpxtpx:hr>
          </gpxtpx:TrackPointExtension>
        </extensions>
      </trkpt>
      <trkpt lat="45.78764" lon="6.42238">
        <ele>1368.4000244141</ele>
        <time>2020-07-05T06:26:54.000Z</time>
        <extensions>
          <gpxtpx:TrackPointExtension xmlns:gpxtpx="http://www.garmin.com/xmlschemas/TrackPointExtension/v1">
            <gpxtpx:hr>127</gpxtpx:hr>
          </gpxtpx:TrackPointExtension>
        </extensions>
      </trkpt>
      <trkpt lat="45.78757" lon="6.42245">
        <ele>1369</ele>
        <time>2020-07-05T06:26:56.000Z</time>
        <extensions>
          <gpxtpx:TrackPointExtension xmlns:gpxtpx="http://www.garmin.com/xmlschemas/TrackPointExtension/v1">
            <gpxtpx:hr>127</gpxtpx:hr>
          </gpxtpx:TrackPointExtension>
        </extensions>
      </trkpt>
      <trkpt lat="45.78759" lon="6.4225">
        <ele>1369.1999511719</ele>
        <time>2020-07-05T06:26:57.000Z</time>
        <extensions>
          <gpxtpx:TrackPointExtension xmlns:gpxtpx="http://www.garmin.com/xmlschemas/TrackPointExtension/v1">
            <gpxtpx:hr>127</gpxtpx:hr>
          </gpxtpx:TrackPointExtension>
        </extensions>
      </trkpt>
      <trkpt lat="45.78759" lon="6.42259">
        <ele>1369.4000244141</ele>
        <time>2020-07-05T06:26:59.000Z</time>
        <extensions>
          <gpxtpx:TrackPointExtension xmlns:gpxtpx="http://www.garmin.com/xmlschemas/TrackPointExtension/v1">
            <gpxtpx:hr>126</gpxtpx:hr>
          </gpxtpx:TrackPointExtension>
        </extensions>
      </trkpt>
      <trkpt lat="45.78759" lon="6.42264">
        <ele>1369.5999755859</ele>
        <time>2020-07-05T06:27:00.000Z</time>
        <extensions>
          <gpxtpx:TrackPointExtension xmlns:gpxtpx="http://www.garmin.com/xmlschemas/TrackPointExtension/v1">
            <gpxtpx:hr>126</gpxtpx:hr>
          </gpxtpx:TrackPointExtension>
        </extensions>
      </trkpt>
      <trkpt lat="45.78756" lon="6.42302">
        <ele>1370.1999511719</ele>
        <time>2020-07-05T06:27:08.000Z</time>
        <extensions>
          <gpxtpx:TrackPointExtension xmlns:gpxtpx="http://www.garmin.com/xmlschemas/TrackPointExtension/v1">
            <gpxtpx:hr>124</gpxtpx:hr>
          </gpxtpx:TrackPointExtension>
        </extensions>
      </trkpt>
      <trkpt lat="45.78755" lon="6.42324">
        <ele>1370.5999755859</ele>
        <time>2020-07-05T06:27:12.000Z</time>
        <extensions>
          <gpxtpx:TrackPointExtension xmlns:gpxtpx="http://www.garmin.com/xmlschemas/TrackPointExtension/v1">
            <gpxtpx:hr>124</gpxtpx:hr>
          </gpxtpx:TrackPointExtension>
        </extensions>
      </trkpt>
      <trkpt lat="45.78758" lon="6.42343">
        <ele>1370.5999755859</ele>
        <time>2020-07-05T06:27:15.000Z</time>
        <extensions>
          <gpxtpx:TrackPointExtension xmlns:gpxtpx="http://www.garmin.com/xmlschemas/TrackPointExtension/v1">
            <gpxtpx:hr>123</gpxtpx:hr>
          </gpxtpx:TrackPointExtension>
        </extensions>
      </trkpt>
      <trkpt lat="45.7876" lon="6.42355">
        <ele>1370.5999755859</ele>
        <time>2020-07-05T06:27:17.000Z</time>
        <extensions>
          <gpxtpx:TrackPointExtension xmlns:gpxtpx="http://www.garmin.com/xmlschemas/TrackPointExtension/v1">
            <gpxtpx:hr>122</gpxtpx:hr>
          </gpxtpx:TrackPointExtension>
        </extensions>
      </trkpt>
      <trkpt lat="45.78766" lon="6.42365">
        <ele>1370.4000244141</ele>
        <time>2020-07-05T06:27:19.000Z</time>
        <extensions>
          <gpxtpx:TrackPointExtension xmlns:gpxtpx="http://www.garmin.com/xmlschemas/TrackPointExtension/v1">
            <gpxtpx:hr>122</gpxtpx:hr>
          </gpxtpx:TrackPointExtension>
        </extensions>
      </trkpt>
      <trkpt lat="45.7877" lon="6.42369">
        <ele>1370.4000244141</ele>
        <time>2020-07-05T06:27:20.000Z</time>
        <extensions>
          <gpxtpx:TrackPointExtension xmlns:gpxtpx="http://www.garmin.com/xmlschemas/TrackPointExtension/v1">
            <gpxtpx:hr>121</gpxtpx:hr>
          </gpxtpx:TrackPointExtension>
        </extensions>
      </trkpt>
      <trkpt lat="45.78775" lon="6.42372">
        <ele>1370.1999511719</ele>
        <time>2020-07-05T06:27:21.000Z</time>
        <extensions>
          <gpxtpx:TrackPointExtension xmlns:gpxtpx="http://www.garmin.com/xmlschemas/TrackPointExtension/v1">
            <gpxtpx:hr>121</gpxtpx:hr>
          </gpxtpx:TrackPointExtension>
        </extensions>
      </trkpt>
      <trkpt lat="45.78784" lon="6.42371">
        <ele>1370.1999511719</ele>
        <time>2020-07-05T06:27:23.000Z</time>
        <extensions>
          <gpxtpx:TrackPointExtension xmlns:gpxtpx="http://www.garmin.com/xmlschemas/TrackPointExtension/v1">
            <gpxtpx:hr>122</gpxtpx:hr>
          </gpxtpx:TrackPointExtension>
        </extensions>
      </trkpt>
      <trkpt lat="45.78795" lon="6.4236">
        <ele>1371.4000244141</ele>
        <time>2020-07-05T06:27:27.000Z</time>
        <extensions>
          <gpxtpx:TrackPointExtension xmlns:gpxtpx="http://www.garmin.com/xmlschemas/TrackPointExtension/v1">
            <gpxtpx:hr>121</gpxtpx:hr>
          </gpxtpx:TrackPointExtension>
        </extensions>
      </trkpt>
      <trkpt lat="45.78797" lon="6.42356">
        <ele>1372</ele>
        <time>2020-07-05T06:27:28.000Z</time>
        <extensions>
          <gpxtpx:TrackPointExtension xmlns:gpxtpx="http://www.garmin.com/xmlschemas/TrackPointExtension/v1">
            <gpxtpx:hr>121</gpxtpx:hr>
          </gpxtpx:TrackPointExtension>
        </extensions>
      </trkpt>
      <trkpt lat="45.78799" lon="6.42338">
        <ele>1373.1999511719</ele>
        <time>2020-07-05T06:27:32.000Z</time>
        <extensions>
          <gpxtpx:TrackPointExtension xmlns:gpxtpx="http://www.garmin.com/xmlschemas/TrackPointExtension/v1">
            <gpxtpx:hr>121</gpxtpx:hr>
          </gpxtpx:TrackPointExtension>
        </extensions>
      </trkpt>
      <trkpt lat="45.78799" lon="6.42334">
        <ele>1373.4000244141</ele>
        <time>2020-07-05T06:27:33.000Z</time>
        <extensions>
          <gpxtpx:TrackPointExtension xmlns:gpxtpx="http://www.garmin.com/xmlschemas/TrackPointExtension/v1">
            <gpxtpx:hr>121</gpxtpx:hr>
          </gpxtpx:TrackPointExtension>
        </extensions>
      </trkpt>
      <trkpt lat="45.78798" lon="6.42317">
        <ele>1374.4000244141</ele>
        <time>2020-07-05T06:27:37.000Z</time>
        <extensions>
          <gpxtpx:TrackPointExtension xmlns:gpxtpx="http://www.garmin.com/xmlschemas/TrackPointExtension/v1">
            <gpxtpx:hr>121</gpxtpx:hr>
          </gpxtpx:TrackPointExtension>
        </extensions>
      </trkpt>
      <trkpt lat="45.78799" lon="6.42303">
        <ele>1375.1999511719</ele>
        <time>2020-07-05T06:27:40.000Z</time>
        <extensions>
          <gpxtpx:TrackPointExtension xmlns:gpxtpx="http://www.garmin.com/xmlschemas/TrackPointExtension/v1">
            <gpxtpx:hr>121</gpxtpx:hr>
          </gpxtpx:TrackPointExtension>
        </extensions>
      </trkpt>
      <trkpt lat="45.78799" lon="6.42298">
        <ele>1375.4000244141</ele>
        <time>2020-07-05T06:27:41.000Z</time>
        <extensions>
          <gpxtpx:TrackPointExtension xmlns:gpxtpx="http://www.garmin.com/xmlschemas/TrackPointExtension/v1">
            <gpxtpx:hr>121</gpxtpx:hr>
          </gpxtpx:TrackPointExtension>
        </extensions>
      </trkpt>
      <trkpt lat="45.78805" lon="6.42269">
        <ele>1376.4000244141</ele>
        <time>2020-07-05T06:27:48.000Z</time>
        <extensions>
          <gpxtpx:TrackPointExtension xmlns:gpxtpx="http://www.garmin.com/xmlschemas/TrackPointExtension/v1">
            <gpxtpx:hr>121</gpxtpx:hr>
          </gpxtpx:TrackPointExtension>
        </extensions>
      </trkpt>
      <trkpt lat="45.78806" lon="6.42265">
        <ele>1376.5999755859</ele>
        <time>2020-07-05T06:27:49.000Z</time>
        <extensions>
          <gpxtpx:TrackPointExtension xmlns:gpxtpx="http://www.garmin.com/xmlschemas/TrackPointExtension/v1">
            <gpxtpx:hr>121</gpxtpx:hr>
          </gpxtpx:TrackPointExtension>
        </extensions>
      </trkpt>
      <trkpt lat="45.78813" lon="6.42245">
        <ele>1377.8000488281</ele>
        <time>2020-07-05T06:27:54.000Z</time>
        <extensions>
          <gpxtpx:TrackPointExtension xmlns:gpxtpx="http://www.garmin.com/xmlschemas/TrackPointExtension/v1">
            <gpxtpx:hr>120</gpxtpx:hr>
          </gpxtpx:TrackPointExtension>
        </extensions>
      </trkpt>
      <trkpt lat="45.78819" lon="6.42235">
        <ele>1378.5999755859</ele>
        <time>2020-07-05T06:27:57.000Z</time>
        <extensions>
          <gpxtpx:TrackPointExtension xmlns:gpxtpx="http://www.garmin.com/xmlschemas/TrackPointExtension/v1">
            <gpxtpx:hr>121</gpxtpx:hr>
          </gpxtpx:TrackPointExtension>
        </extensions>
      </trkpt>
      <trkpt lat="45.78821" lon="6.42232">
        <ele>1378.8000488281</ele>
        <time>2020-07-05T06:27:58.000Z</time>
        <extensions>
          <gpxtpx:TrackPointExtension xmlns:gpxtpx="http://www.garmin.com/xmlschemas/TrackPointExtension/v1">
            <gpxtpx:hr>121</gpxtpx:hr>
          </gpxtpx:TrackPointExtension>
        </extensions>
      </trkpt>
      <trkpt lat="45.78834" lon="6.42213">
        <ele>1380.1999511719</ele>
        <time>2020-07-05T06:28:04.000Z</time>
        <extensions>
          <gpxtpx:TrackPointExtension xmlns:gpxtpx="http://www.garmin.com/xmlschemas/TrackPointExtension/v1">
            <gpxtpx:hr>122</gpxtpx:hr>
          </gpxtpx:TrackPointExtension>
        </extensions>
      </trkpt>
      <trkpt lat="45.78836" lon="6.42211">
        <ele>1380.4000244141</ele>
        <time>2020-07-05T06:28:05.000Z</time>
        <extensions>
          <gpxtpx:TrackPointExtension xmlns:gpxtpx="http://www.garmin.com/xmlschemas/TrackPointExtension/v1">
            <gpxtpx:hr>122</gpxtpx:hr>
          </gpxtpx:TrackPointExtension>
        </extensions>
      </trkpt>
      <trkpt lat="45.78844" lon="6.42203">
        <ele>1381.1999511719</ele>
        <time>2020-07-05T06:28:08.000Z</time>
        <extensions>
          <gpxtpx:TrackPointExtension xmlns:gpxtpx="http://www.garmin.com/xmlschemas/TrackPointExtension/v1">
            <gpxtpx:hr>122</gpxtpx:hr>
          </gpxtpx:TrackPointExtension>
        </extensions>
      </trkpt>
      <trkpt lat="45.7885" lon="6.42195">
        <ele>1381.8000488281</ele>
        <time>2020-07-05T06:28:11.000Z</time>
        <extensions>
          <gpxtpx:TrackPointExtension xmlns:gpxtpx="http://www.garmin.com/xmlschemas/TrackPointExtension/v1">
            <gpxtpx:hr>123</gpxtpx:hr>
          </gpxtpx:TrackPointExtension>
        </extensions>
      </trkpt>
      <trkpt lat="45.78855" lon="6.42189">
        <ele>1382.1999511719</ele>
        <time>2020-07-05T06:28:13.000Z</time>
        <extensions>
          <gpxtpx:TrackPointExtension xmlns:gpxtpx="http://www.garmin.com/xmlschemas/TrackPointExtension/v1">
            <gpxtpx:hr>122</gpxtpx:hr>
          </gpxtpx:TrackPointExtension>
        </extensions>
      </trkpt>
      <trkpt lat="45.78862" lon="6.42177">
        <ele>1383.4000244141</ele>
        <time>2020-07-05T06:28:17.000Z</time>
        <extensions>
          <gpxtpx:TrackPointExtension xmlns:gpxtpx="http://www.garmin.com/xmlschemas/TrackPointExtension/v1">
            <gpxtpx:hr>121</gpxtpx:hr>
          </gpxtpx:TrackPointExtension>
        </extensions>
      </trkpt>
      <trkpt lat="45.78863" lon="6.42173">
        <ele>1383.5999755859</ele>
        <time>2020-07-05T06:28:18.000Z</time>
        <extensions>
          <gpxtpx:TrackPointExtension xmlns:gpxtpx="http://www.garmin.com/xmlschemas/TrackPointExtension/v1">
            <gpxtpx:hr>121</gpxtpx:hr>
          </gpxtpx:TrackPointExtension>
        </extensions>
      </trkpt>
      <trkpt lat="45.78872" lon="6.42158">
        <ele>1384.4000244141</ele>
        <time>2020-07-05T06:28:22.000Z</time>
        <extensions>
          <gpxtpx:TrackPointExtension xmlns:gpxtpx="http://www.garmin.com/xmlschemas/TrackPointExtension/v1">
            <gpxtpx:hr>121</gpxtpx:hr>
          </gpxtpx:TrackPointExtension>
        </extensions>
      </trkpt>
      <trkpt lat="45.78874" lon="6.42154">
        <ele>1384.5999755859</ele>
        <time>2020-07-05T06:28:23.000Z</time>
        <extensions>
          <gpxtpx:TrackPointExtension xmlns:gpxtpx="http://www.garmin.com/xmlschemas/TrackPointExtension/v1">
            <gpxtpx:hr>121</gpxtpx:hr>
          </gpxtpx:TrackPointExtension>
        </extensions>
      </trkpt>
      <trkpt lat="45.78884" lon="6.42139">
        <ele>1385.5999755859</ele>
        <time>2020-07-05T06:28:28.000Z</time>
        <extensions>
          <gpxtpx:TrackPointExtension xmlns:gpxtpx="http://www.garmin.com/xmlschemas/TrackPointExtension/v1">
            <gpxtpx:hr>122</gpxtpx:hr>
          </gpxtpx:TrackPointExtension>
        </extensions>
      </trkpt>
      <trkpt lat="45.78886" lon="6.42136">
        <ele>1386</ele>
        <time>2020-07-05T06:28:29.000Z</time>
        <extensions>
          <gpxtpx:TrackPointExtension xmlns:gpxtpx="http://www.garmin.com/xmlschemas/TrackPointExtension/v1">
            <gpxtpx:hr>122</gpxtpx:hr>
          </gpxtpx:TrackPointExtension>
        </extensions>
      </trkpt>
      <trkpt lat="45.78896" lon="6.42121">
        <ele>1386.8000488281</ele>
        <time>2020-07-05T06:28:34.000Z</time>
        <extensions>
          <gpxtpx:TrackPointExtension xmlns:gpxtpx="http://www.garmin.com/xmlschemas/TrackPointExtension/v1">
            <gpxtpx:hr>122</gpxtpx:hr>
          </gpxtpx:TrackPointExtension>
        </extensions>
      </trkpt>
      <trkpt lat="45.78904" lon="6.42113">
        <ele>1387.4000244141</ele>
        <time>2020-07-05T06:28:37.000Z</time>
        <extensions>
          <gpxtpx:TrackPointExtension xmlns:gpxtpx="http://www.garmin.com/xmlschemas/TrackPointExtension/v1">
            <gpxtpx:hr>124</gpxtpx:hr>
          </gpxtpx:TrackPointExtension>
        </extensions>
      </trkpt>
      <trkpt lat="45.78909" lon="6.42108">
        <ele>1387.8000488281</ele>
        <time>2020-07-05T06:28:39.000Z</time>
        <extensions>
          <gpxtpx:TrackPointExtension xmlns:gpxtpx="http://www.garmin.com/xmlschemas/TrackPointExtension/v1">
            <gpxtpx:hr>125</gpxtpx:hr>
          </gpxtpx:TrackPointExtension>
        </extensions>
      </trkpt>
      <trkpt lat="45.78919" lon="6.42106">
        <ele>1389</ele>
        <time>2020-07-05T06:28:43.000Z</time>
        <extensions>
          <gpxtpx:TrackPointExtension xmlns:gpxtpx="http://www.garmin.com/xmlschemas/TrackPointExtension/v1">
            <gpxtpx:hr>126</gpxtpx:hr>
          </gpxtpx:TrackPointExtension>
        </extensions>
      </trkpt>
      <trkpt lat="45.78922" lon="6.42107">
        <ele>1389.4000244141</ele>
        <time>2020-07-05T06:28:44.000Z</time>
        <extensions>
          <gpxtpx:TrackPointExtension xmlns:gpxtpx="http://www.garmin.com/xmlschemas/TrackPointExtension/v1">
            <gpxtpx:hr>126</gpxtpx:hr>
          </gpxtpx:TrackPointExtension>
        </extensions>
      </trkpt>
      <trkpt lat="45.78926" lon="6.42111">
        <ele>1390</ele>
        <time>2020-07-05T06:28:46.000Z</time>
        <extensions>
          <gpxtpx:TrackPointExtension xmlns:gpxtpx="http://www.garmin.com/xmlschemas/TrackPointExtension/v1">
            <gpxtpx:hr>126</gpxtpx:hr>
          </gpxtpx:TrackPointExtension>
        </extensions>
      </trkpt>
      <trkpt lat="45.78927" lon="6.42113">
        <ele>1390.4000244141</ele>
        <time>2020-07-05T06:28:47.000Z</time>
        <extensions>
          <gpxtpx:TrackPointExtension xmlns:gpxtpx="http://www.garmin.com/xmlschemas/TrackPointExtension/v1">
            <gpxtpx:hr>126</gpxtpx:hr>
          </gpxtpx:TrackPointExtension>
        </extensions>
      </trkpt>
      <trkpt lat="45.7893" lon="6.42119">
        <ele>1391.1999511719</ele>
        <time>2020-07-05T06:28:49.000Z</time>
        <extensions>
          <gpxtpx:TrackPointExtension xmlns:gpxtpx="http://www.garmin.com/xmlschemas/TrackPointExtension/v1">
            <gpxtpx:hr>126</gpxtpx:hr>
          </gpxtpx:TrackPointExtension>
        </extensions>
      </trkpt>
      <trkpt lat="45.78931" lon="6.42126">
        <ele>1391.8000488281</ele>
        <time>2020-07-05T06:28:51.000Z</time>
        <extensions>
          <gpxtpx:TrackPointExtension xmlns:gpxtpx="http://www.garmin.com/xmlschemas/TrackPointExtension/v1">
            <gpxtpx:hr>126</gpxtpx:hr>
          </gpxtpx:TrackPointExtension>
        </extensions>
      </trkpt>
      <trkpt lat="45.7893" lon="6.42129">
        <ele>1392.1999511719</ele>
        <time>2020-07-05T06:28:52.000Z</time>
        <extensions>
          <gpxtpx:TrackPointExtension xmlns:gpxtpx="http://www.garmin.com/xmlschemas/TrackPointExtension/v1">
            <gpxtpx:hr>126</gpxtpx:hr>
          </gpxtpx:TrackPointExtension>
        </extensions>
      </trkpt>
      <trkpt lat="45.78929" lon="6.42133">
        <ele>1392.4000244141</ele>
        <time>2020-07-05T06:28:53.000Z</time>
        <extensions>
          <gpxtpx:TrackPointExtension xmlns:gpxtpx="http://www.garmin.com/xmlschemas/TrackPointExtension/v1">
            <gpxtpx:hr>126</gpxtpx:hr>
          </gpxtpx:TrackPointExtension>
        </extensions>
      </trkpt>
      <trkpt lat="45.78919" lon="6.42148">
        <ele>1392.5999755859</ele>
        <time>2020-07-05T06:28:57.000Z</time>
        <extensions>
          <gpxtpx:TrackPointExtension xmlns:gpxtpx="http://www.garmin.com/xmlschemas/TrackPointExtension/v1">
            <gpxtpx:hr>125</gpxtpx:hr>
          </gpxtpx:TrackPointExtension>
        </extensions>
      </trkpt>
      <trkpt lat="45.78911" lon="6.42168">
        <ele>1393.1999511719</ele>
        <time>2020-07-05T06:29:02.000Z</time>
        <extensions>
          <gpxtpx:TrackPointExtension xmlns:gpxtpx="http://www.garmin.com/xmlschemas/TrackPointExtension/v1">
            <gpxtpx:hr>124</gpxtpx:hr>
          </gpxtpx:TrackPointExtension>
        </extensions>
      </trkpt>
      <trkpt lat="45.7891" lon="6.42172">
        <ele>1393.4000244141</ele>
        <time>2020-07-05T06:29:03.000Z</time>
        <extensions>
          <gpxtpx:TrackPointExtension xmlns:gpxtpx="http://www.garmin.com/xmlschemas/TrackPointExtension/v1">
            <gpxtpx:hr>124</gpxtpx:hr>
          </gpxtpx:TrackPointExtension>
        </extensions>
      </trkpt>
      <trkpt lat="45.78906" lon="6.42189">
        <ele>1394.5999755859</ele>
        <time>2020-07-05T06:29:07.000Z</time>
        <extensions>
          <gpxtpx:TrackPointExtension xmlns:gpxtpx="http://www.garmin.com/xmlschemas/TrackPointExtension/v1">
            <gpxtpx:hr>124</gpxtpx:hr>
          </gpxtpx:TrackPointExtension>
        </extensions>
      </trkpt>
      <trkpt lat="45.78903" lon="6.422">
        <ele>1395.1999511719</ele>
        <time>2020-07-05T06:29:10.000Z</time>
        <extensions>
          <gpxtpx:TrackPointExtension xmlns:gpxtpx="http://www.garmin.com/xmlschemas/TrackPointExtension/v1">
            <gpxtpx:hr>124</gpxtpx:hr>
          </gpxtpx:TrackPointExtension>
        </extensions>
      </trkpt>
      <trkpt lat="45.78902" lon="6.42207">
        <ele>1395.8000488281</ele>
        <time>2020-07-05T06:29:12.000Z</time>
        <extensions>
          <gpxtpx:TrackPointExtension xmlns:gpxtpx="http://www.garmin.com/xmlschemas/TrackPointExtension/v1">
            <gpxtpx:hr>123</gpxtpx:hr>
          </gpxtpx:TrackPointExtension>
        </extensions>
      </trkpt>
      <trkpt lat="45.78897" lon="6.42226">
        <ele>1396.8000488281</ele>
        <time>2020-07-05T06:29:17.000Z</time>
        <extensions>
          <gpxtpx:TrackPointExtension xmlns:gpxtpx="http://www.garmin.com/xmlschemas/TrackPointExtension/v1">
            <gpxtpx:hr>125</gpxtpx:hr>
          </gpxtpx:TrackPointExtension>
        </extensions>
      </trkpt>
      <trkpt lat="45.78895" lon="6.42233">
        <ele>1397.1999511719</ele>
        <time>2020-07-05T06:29:19.000Z</time>
        <extensions>
          <gpxtpx:TrackPointExtension xmlns:gpxtpx="http://www.garmin.com/xmlschemas/TrackPointExtension/v1">
            <gpxtpx:hr>125</gpxtpx:hr>
          </gpxtpx:TrackPointExtension>
        </extensions>
      </trkpt>
      <trkpt lat="45.78892" lon="6.42247">
        <ele>1397.8000488281</ele>
        <time>2020-07-05T06:29:23.000Z</time>
        <extensions>
          <gpxtpx:TrackPointExtension xmlns:gpxtpx="http://www.garmin.com/xmlschemas/TrackPointExtension/v1">
            <gpxtpx:hr>126</gpxtpx:hr>
          </gpxtpx:TrackPointExtension>
        </extensions>
      </trkpt>
      <trkpt lat="45.78889" lon="6.42254">
        <ele>1398.4000244141</ele>
        <time>2020-07-05T06:29:25.000Z</time>
        <extensions>
          <gpxtpx:TrackPointExtension xmlns:gpxtpx="http://www.garmin.com/xmlschemas/TrackPointExtension/v1">
            <gpxtpx:hr>126</gpxtpx:hr>
          </gpxtpx:TrackPointExtension>
        </extensions>
      </trkpt>
      <trkpt lat="45.78888" lon="6.42261">
        <ele>1399</ele>
        <time>2020-07-05T06:29:27.000Z</time>
        <extensions>
          <gpxtpx:TrackPointExtension xmlns:gpxtpx="http://www.garmin.com/xmlschemas/TrackPointExtension/v1">
            <gpxtpx:hr>126</gpxtpx:hr>
          </gpxtpx:TrackPointExtension>
        </extensions>
      </trkpt>
      <trkpt lat="45.78885" lon="6.42274">
        <ele>1399.5999755859</ele>
        <time>2020-07-05T06:29:31.000Z</time>
        <extensions>
          <gpxtpx:TrackPointExtension xmlns:gpxtpx="http://www.garmin.com/xmlschemas/TrackPointExtension/v1">
            <gpxtpx:hr>125</gpxtpx:hr>
          </gpxtpx:TrackPointExtension>
        </extensions>
      </trkpt>
      <trkpt lat="45.78884" lon="6.42277">
        <ele>1400</ele>
        <time>2020-07-05T06:29:32.000Z</time>
        <extensions>
          <gpxtpx:TrackPointExtension xmlns:gpxtpx="http://www.garmin.com/xmlschemas/TrackPointExtension/v1">
            <gpxtpx:hr>125</gpxtpx:hr>
          </gpxtpx:TrackPointExtension>
        </extensions>
      </trkpt>
      <trkpt lat="45.78884" lon="6.4228">
        <ele>1400.1999511719</ele>
        <time>2020-07-05T06:29:33.000Z</time>
        <extensions>
          <gpxtpx:TrackPointExtension xmlns:gpxtpx="http://www.garmin.com/xmlschemas/TrackPointExtension/v1">
            <gpxtpx:hr>125</gpxtpx:hr>
          </gpxtpx:TrackPointExtension>
        </extensions>
      </trkpt>
      <trkpt lat="45.78881" lon="6.42292">
        <ele>1401.1999511719</ele>
        <time>2020-07-05T06:29:37.000Z</time>
        <extensions>
          <gpxtpx:TrackPointExtension xmlns:gpxtpx="http://www.garmin.com/xmlschemas/TrackPointExtension/v1">
            <gpxtpx:hr>126</gpxtpx:hr>
          </gpxtpx:TrackPointExtension>
        </extensions>
      </trkpt>
      <trkpt lat="45.7888" lon="6.42298">
        <ele>1401.8000488281</ele>
        <time>2020-07-05T06:29:39.000Z</time>
        <extensions>
          <gpxtpx:TrackPointExtension xmlns:gpxtpx="http://www.garmin.com/xmlschemas/TrackPointExtension/v1">
            <gpxtpx:hr>126</gpxtpx:hr>
          </gpxtpx:TrackPointExtension>
        </extensions>
      </trkpt>
      <trkpt lat="45.78879" lon="6.42304">
        <ele>1402.4000244141</ele>
        <time>2020-07-05T06:29:41.000Z</time>
        <extensions>
          <gpxtpx:TrackPointExtension xmlns:gpxtpx="http://www.garmin.com/xmlschemas/TrackPointExtension/v1">
            <gpxtpx:hr>126</gpxtpx:hr>
          </gpxtpx:TrackPointExtension>
        </extensions>
      </trkpt>
      <trkpt lat="45.78873" lon="6.42315">
        <ele>1403.4000244141</ele>
        <time>2020-07-05T06:29:45.000Z</time>
        <extensions>
          <gpxtpx:TrackPointExtension xmlns:gpxtpx="http://www.garmin.com/xmlschemas/TrackPointExtension/v1">
            <gpxtpx:hr>126</gpxtpx:hr>
          </gpxtpx:TrackPointExtension>
        </extensions>
      </trkpt>
      <trkpt lat="45.78872" lon="6.42318">
        <ele>1403.5999755859</ele>
        <time>2020-07-05T06:29:46.000Z</time>
        <extensions>
          <gpxtpx:TrackPointExtension xmlns:gpxtpx="http://www.garmin.com/xmlschemas/TrackPointExtension/v1">
            <gpxtpx:hr>125</gpxtpx:hr>
          </gpxtpx:TrackPointExtension>
        </extensions>
      </trkpt>
      <trkpt lat="45.7887" lon="6.42326">
        <ele>1404.1999511719</ele>
        <time>2020-07-05T06:29:49.000Z</time>
        <extensions>
          <gpxtpx:TrackPointExtension xmlns:gpxtpx="http://www.garmin.com/xmlschemas/TrackPointExtension/v1">
            <gpxtpx:hr>125</gpxtpx:hr>
          </gpxtpx:TrackPointExtension>
        </extensions>
      </trkpt>
      <trkpt lat="45.7887" lon="6.42328">
        <ele>1404.4000244141</ele>
        <time>2020-07-05T06:29:50.000Z</time>
        <extensions>
          <gpxtpx:TrackPointExtension xmlns:gpxtpx="http://www.garmin.com/xmlschemas/TrackPointExtension/v1">
            <gpxtpx:hr>125</gpxtpx:hr>
          </gpxtpx:TrackPointExtension>
        </extensions>
      </trkpt>
      <trkpt lat="45.7887" lon="6.42331">
        <ele>1404.5999755859</ele>
        <time>2020-07-05T06:29:51.000Z</time>
        <extensions>
          <gpxtpx:TrackPointExtension xmlns:gpxtpx="http://www.garmin.com/xmlschemas/TrackPointExtension/v1">
            <gpxtpx:hr>125</gpxtpx:hr>
          </gpxtpx:TrackPointExtension>
        </extensions>
      </trkpt>
      <trkpt lat="45.7887" lon="6.42333">
        <ele>1405</ele>
        <time>2020-07-05T06:29:52.000Z</time>
        <extensions>
          <gpxtpx:TrackPointExtension xmlns:gpxtpx="http://www.garmin.com/xmlschemas/TrackPointExtension/v1">
            <gpxtpx:hr>125</gpxtpx:hr>
          </gpxtpx:TrackPointExtension>
        </extensions>
      </trkpt>
      <trkpt lat="45.78872" lon="6.42342">
        <ele>1405.5999755859</ele>
        <time>2020-07-05T06:29:55.000Z</time>
        <extensions>
          <gpxtpx:TrackPointExtension xmlns:gpxtpx="http://www.garmin.com/xmlschemas/TrackPointExtension/v1">
            <gpxtpx:hr>125</gpxtpx:hr>
          </gpxtpx:TrackPointExtension>
        </extensions>
      </trkpt>
      <trkpt lat="45.78879" lon="6.42366">
        <ele>1406.8000488281</ele>
        <time>2020-07-05T06:30:01.000Z</time>
        <extensions>
          <gpxtpx:TrackPointExtension xmlns:gpxtpx="http://www.garmin.com/xmlschemas/TrackPointExtension/v1">
            <gpxtpx:hr>126</gpxtpx:hr>
          </gpxtpx:TrackPointExtension>
        </extensions>
      </trkpt>
      <trkpt lat="45.78888" lon="6.42389">
        <ele>1407.8000488281</ele>
        <time>2020-07-05T06:30:07.000Z</time>
        <extensions>
          <gpxtpx:TrackPointExtension xmlns:gpxtpx="http://www.garmin.com/xmlschemas/TrackPointExtension/v1">
            <gpxtpx:hr>126</gpxtpx:hr>
          </gpxtpx:TrackPointExtension>
        </extensions>
      </trkpt>
      <trkpt lat="45.7889" lon="6.42393">
        <ele>1407.8000488281</ele>
        <time>2020-07-05T06:30:08.000Z</time>
        <extensions>
          <gpxtpx:TrackPointExtension xmlns:gpxtpx="http://www.garmin.com/xmlschemas/TrackPointExtension/v1">
            <gpxtpx:hr>125</gpxtpx:hr>
          </gpxtpx:TrackPointExtension>
        </extensions>
      </trkpt>
      <trkpt lat="45.78899" lon="6.42419">
        <ele>1408.8000488281</ele>
        <time>2020-07-05T06:30:15.000Z</time>
        <extensions>
          <gpxtpx:TrackPointExtension xmlns:gpxtpx="http://www.garmin.com/xmlschemas/TrackPointExtension/v1">
            <gpxtpx:hr>125</gpxtpx:hr>
          </gpxtpx:TrackPointExtension>
        </extensions>
      </trkpt>
      <trkpt lat="45.78901" lon="6.42422">
        <ele>1409</ele>
        <time>2020-07-05T06:30:16.000Z</time>
        <extensions>
          <gpxtpx:TrackPointExtension xmlns:gpxtpx="http://www.garmin.com/xmlschemas/TrackPointExtension/v1">
            <gpxtpx:hr>125</gpxtpx:hr>
          </gpxtpx:TrackPointExtension>
        </extensions>
      </trkpt>
      <trkpt lat="45.78903" lon="6.42425">
        <ele>1409</ele>
        <time>2020-07-05T06:30:17.000Z</time>
        <extensions>
          <gpxtpx:TrackPointExtension xmlns:gpxtpx="http://www.garmin.com/xmlschemas/TrackPointExtension/v1">
            <gpxtpx:hr>125</gpxtpx:hr>
          </gpxtpx:TrackPointExtension>
        </extensions>
      </trkpt>
      <trkpt lat="45.78907" lon="6.42431">
        <ele>1409.5999755859</ele>
        <time>2020-07-05T06:30:20.000Z</time>
        <extensions>
          <gpxtpx:TrackPointExtension xmlns:gpxtpx="http://www.garmin.com/xmlschemas/TrackPointExtension/v1">
            <gpxtpx:hr>125</gpxtpx:hr>
          </gpxtpx:TrackPointExtension>
        </extensions>
      </trkpt>
      <trkpt lat="45.78912" lon="6.42432">
        <ele>1410</ele>
        <time>2020-07-05T06:30:22.000Z</time>
        <extensions>
          <gpxtpx:TrackPointExtension xmlns:gpxtpx="http://www.garmin.com/xmlschemas/TrackPointExtension/v1">
            <gpxtpx:hr>125</gpxtpx:hr>
          </gpxtpx:TrackPointExtension>
        </extensions>
      </trkpt>
      <trkpt lat="45.78919" lon="6.42429">
        <ele>1410.8000488281</ele>
        <time>2020-07-05T06:30:25.000Z</time>
        <extensions>
          <gpxtpx:TrackPointExtension xmlns:gpxtpx="http://www.garmin.com/xmlschemas/TrackPointExtension/v1">
            <gpxtpx:hr>125</gpxtpx:hr>
          </gpxtpx:TrackPointExtension>
        </extensions>
      </trkpt>
      <trkpt lat="45.78921" lon="6.42427">
        <ele>1411</ele>
        <time>2020-07-05T06:30:26.000Z</time>
        <extensions>
          <gpxtpx:TrackPointExtension xmlns:gpxtpx="http://www.garmin.com/xmlschemas/TrackPointExtension/v1">
            <gpxtpx:hr>125</gpxtpx:hr>
          </gpxtpx:TrackPointExtension>
        </extensions>
      </trkpt>
      <trkpt lat="45.78925" lon="6.42416">
        <ele>1412.1999511719</ele>
        <time>2020-07-05T06:30:30.000Z</time>
        <extensions>
          <gpxtpx:TrackPointExtension xmlns:gpxtpx="http://www.garmin.com/xmlschemas/TrackPointExtension/v1">
            <gpxtpx:hr>124</gpxtpx:hr>
          </gpxtpx:TrackPointExtension>
        </extensions>
      </trkpt>
      <trkpt lat="45.78927" lon="6.424">
        <ele>1413.1999511719</ele>
        <time>2020-07-05T06:30:34.000Z</time>
        <extensions>
          <gpxtpx:TrackPointExtension xmlns:gpxtpx="http://www.garmin.com/xmlschemas/TrackPointExtension/v1">
            <gpxtpx:hr>124</gpxtpx:hr>
          </gpxtpx:TrackPointExtension>
        </extensions>
      </trkpt>
      <trkpt lat="45.78927" lon="6.42384">
        <ele>1413.8000488281</ele>
        <time>2020-07-05T06:30:38.000Z</time>
        <extensions>
          <gpxtpx:TrackPointExtension xmlns:gpxtpx="http://www.garmin.com/xmlschemas/TrackPointExtension/v1">
            <gpxtpx:hr>124</gpxtpx:hr>
          </gpxtpx:TrackPointExtension>
        </extensions>
      </trkpt>
      <trkpt lat="45.78926" lon="6.42367">
        <ele>1414.1999511719</ele>
        <time>2020-07-05T06:30:42.000Z</time>
        <extensions>
          <gpxtpx:TrackPointExtension xmlns:gpxtpx="http://www.garmin.com/xmlschemas/TrackPointExtension/v1">
            <gpxtpx:hr>124</gpxtpx:hr>
          </gpxtpx:TrackPointExtension>
        </extensions>
      </trkpt>
      <trkpt lat="45.78927" lon="6.42353">
        <ele>1414.5999755859</ele>
        <time>2020-07-05T06:30:45.000Z</time>
        <extensions>
          <gpxtpx:TrackPointExtension xmlns:gpxtpx="http://www.garmin.com/xmlschemas/TrackPointExtension/v1">
            <gpxtpx:hr>124</gpxtpx:hr>
          </gpxtpx:TrackPointExtension>
        </extensions>
      </trkpt>
      <trkpt lat="45.78932" lon="6.42331">
        <ele>1415.1999511719</ele>
        <time>2020-07-05T06:30:50.000Z</time>
        <extensions>
          <gpxtpx:TrackPointExtension xmlns:gpxtpx="http://www.garmin.com/xmlschemas/TrackPointExtension/v1">
            <gpxtpx:hr>125</gpxtpx:hr>
          </gpxtpx:TrackPointExtension>
        </extensions>
      </trkpt>
      <trkpt lat="45.78933" lon="6.42327">
        <ele>1415.5999755859</ele>
        <time>2020-07-05T06:30:51.000Z</time>
        <extensions>
          <gpxtpx:TrackPointExtension xmlns:gpxtpx="http://www.garmin.com/xmlschemas/TrackPointExtension/v1">
            <gpxtpx:hr>125</gpxtpx:hr>
          </gpxtpx:TrackPointExtension>
        </extensions>
      </trkpt>
      <trkpt lat="45.7894" lon="6.42319">
        <ele>1416.4000244141</ele>
        <time>2020-07-05T06:30:54.000Z</time>
        <extensions>
          <gpxtpx:TrackPointExtension xmlns:gpxtpx="http://www.garmin.com/xmlschemas/TrackPointExtension/v1">
            <gpxtpx:hr>126</gpxtpx:hr>
          </gpxtpx:TrackPointExtension>
        </extensions>
      </trkpt>
      <trkpt lat="45.78945" lon="6.42317">
        <ele>1417</ele>
        <time>2020-07-05T06:30:56.000Z</time>
        <extensions>
          <gpxtpx:TrackPointExtension xmlns:gpxtpx="http://www.garmin.com/xmlschemas/TrackPointExtension/v1">
            <gpxtpx:hr>127</gpxtpx:hr>
          </gpxtpx:TrackPointExtension>
        </extensions>
      </trkpt>
      <trkpt lat="45.78949" lon="6.42319">
        <ele>1417.5999755859</ele>
        <time>2020-07-05T06:30:58.000Z</time>
        <extensions>
          <gpxtpx:TrackPointExtension xmlns:gpxtpx="http://www.garmin.com/xmlschemas/TrackPointExtension/v1">
            <gpxtpx:hr>127</gpxtpx:hr>
          </gpxtpx:TrackPointExtension>
        </extensions>
      </trkpt>
      <trkpt lat="45.78952" lon="6.42321">
        <ele>1418</ele>
        <time>2020-07-05T06:30:59.000Z</time>
        <extensions>
          <gpxtpx:TrackPointExtension xmlns:gpxtpx="http://www.garmin.com/xmlschemas/TrackPointExtension/v1">
            <gpxtpx:hr>127</gpxtpx:hr>
          </gpxtpx:TrackPointExtension>
        </extensions>
      </trkpt>
      <trkpt lat="45.78953" lon="6.42324">
        <ele>1418.4000244141</ele>
        <time>2020-07-05T06:31:00.000Z</time>
        <extensions>
          <gpxtpx:TrackPointExtension xmlns:gpxtpx="http://www.garmin.com/xmlschemas/TrackPointExtension/v1">
            <gpxtpx:hr>128</gpxtpx:hr>
          </gpxtpx:TrackPointExtension>
        </extensions>
      </trkpt>
      <trkpt lat="45.78954" lon="6.42327">
        <ele>1418.8000488281</ele>
        <time>2020-07-05T06:31:01.000Z</time>
        <extensions>
          <gpxtpx:TrackPointExtension xmlns:gpxtpx="http://www.garmin.com/xmlschemas/TrackPointExtension/v1">
            <gpxtpx:hr>128</gpxtpx:hr>
          </gpxtpx:TrackPointExtension>
        </extensions>
      </trkpt>
      <trkpt lat="45.78956" lon="6.42338">
        <ele>1420.1999511719</ele>
        <time>2020-07-05T06:31:04.000Z</time>
        <extensions>
          <gpxtpx:TrackPointExtension xmlns:gpxtpx="http://www.garmin.com/xmlschemas/TrackPointExtension/v1">
            <gpxtpx:hr>129</gpxtpx:hr>
          </gpxtpx:TrackPointExtension>
        </extensions>
      </trkpt>
      <trkpt lat="45.78956" lon="6.42342">
        <ele>1420.5999755859</ele>
        <time>2020-07-05T06:31:05.000Z</time>
        <extensions>
          <gpxtpx:TrackPointExtension xmlns:gpxtpx="http://www.garmin.com/xmlschemas/TrackPointExtension/v1">
            <gpxtpx:hr>129</gpxtpx:hr>
          </gpxtpx:TrackPointExtension>
        </extensions>
      </trkpt>
      <trkpt lat="45.78956" lon="6.42349">
        <ele>1421</ele>
        <time>2020-07-05T06:31:07.000Z</time>
        <extensions>
          <gpxtpx:TrackPointExtension xmlns:gpxtpx="http://www.garmin.com/xmlschemas/TrackPointExtension/v1">
            <gpxtpx:hr>129</gpxtpx:hr>
          </gpxtpx:TrackPointExtension>
        </extensions>
      </trkpt>
      <trkpt lat="45.78957" lon="6.42355">
        <ele>1421.1999511719</ele>
        <time>2020-07-05T06:31:09.000Z</time>
        <extensions>
          <gpxtpx:TrackPointExtension xmlns:gpxtpx="http://www.garmin.com/xmlschemas/TrackPointExtension/v1">
            <gpxtpx:hr>129</gpxtpx:hr>
          </gpxtpx:TrackPointExtension>
        </extensions>
      </trkpt>
      <trkpt lat="45.78957" lon="6.42366">
        <ele>1422.4000244141</ele>
        <time>2020-07-05T06:31:12.000Z</time>
        <extensions>
          <gpxtpx:TrackPointExtension xmlns:gpxtpx="http://www.garmin.com/xmlschemas/TrackPointExtension/v1">
            <gpxtpx:hr>130</gpxtpx:hr>
          </gpxtpx:TrackPointExtension>
        </extensions>
      </trkpt>
      <trkpt lat="45.78958" lon="6.42378">
        <ele>1423</ele>
        <time>2020-07-05T06:31:15.000Z</time>
        <extensions>
          <gpxtpx:TrackPointExtension xmlns:gpxtpx="http://www.garmin.com/xmlschemas/TrackPointExtension/v1">
            <gpxtpx:hr>132</gpxtpx:hr>
          </gpxtpx:TrackPointExtension>
        </extensions>
      </trkpt>
      <trkpt lat="45.78959" lon="6.42387">
        <ele>1423.5999755859</ele>
        <time>2020-07-05T06:31:17.000Z</time>
        <extensions>
          <gpxtpx:TrackPointExtension xmlns:gpxtpx="http://www.garmin.com/xmlschemas/TrackPointExtension/v1">
            <gpxtpx:hr>133</gpxtpx:hr>
          </gpxtpx:TrackPointExtension>
        </extensions>
      </trkpt>
      <trkpt lat="45.78962" lon="6.42405">
        <ele>1424.4000244141</ele>
        <time>2020-07-05T06:31:22.000Z</time>
        <extensions>
          <gpxtpx:TrackPointExtension xmlns:gpxtpx="http://www.garmin.com/xmlschemas/TrackPointExtension/v1">
            <gpxtpx:hr>133</gpxtpx:hr>
          </gpxtpx:TrackPointExtension>
        </extensions>
      </trkpt>
      <trkpt lat="45.78963" lon="6.42408">
        <ele>1424.5999755859</ele>
        <time>2020-07-05T06:31:23.000Z</time>
        <extensions>
          <gpxtpx:TrackPointExtension xmlns:gpxtpx="http://www.garmin.com/xmlschemas/TrackPointExtension/v1">
            <gpxtpx:hr>133</gpxtpx:hr>
          </gpxtpx:TrackPointExtension>
        </extensions>
      </trkpt>
      <trkpt lat="45.78971" lon="6.42415">
        <ele>1425.1999511719</ele>
        <time>2020-07-05T06:31:27.000Z</time>
        <extensions>
          <gpxtpx:TrackPointExtension xmlns:gpxtpx="http://www.garmin.com/xmlschemas/TrackPointExtension/v1">
            <gpxtpx:hr>133</gpxtpx:hr>
          </gpxtpx:TrackPointExtension>
        </extensions>
      </trkpt>
      <trkpt lat="45.78975" lon="6.42415">
        <ele>1425.8000488281</ele>
        <time>2020-07-05T06:31:29.000Z</time>
        <extensions>
          <gpxtpx:TrackPointExtension xmlns:gpxtpx="http://www.garmin.com/xmlschemas/TrackPointExtension/v1">
            <gpxtpx:hr>133</gpxtpx:hr>
          </gpxtpx:TrackPointExtension>
        </extensions>
      </trkpt>
      <trkpt lat="45.78981" lon="6.4241">
        <ele>1426.4000244141</ele>
        <time>2020-07-05T06:31:32.000Z</time>
        <extensions>
          <gpxtpx:TrackPointExtension xmlns:gpxtpx="http://www.garmin.com/xmlschemas/TrackPointExtension/v1">
            <gpxtpx:hr>132</gpxtpx:hr>
          </gpxtpx:TrackPointExtension>
        </extensions>
      </trkpt>
      <trkpt lat="45.78983" lon="6.42404">
        <ele>1427</ele>
        <time>2020-07-05T06:31:34.000Z</time>
        <extensions>
          <gpxtpx:TrackPointExtension xmlns:gpxtpx="http://www.garmin.com/xmlschemas/TrackPointExtension/v1">
            <gpxtpx:hr>132</gpxtpx:hr>
          </gpxtpx:TrackPointExtension>
        </extensions>
      </trkpt>
      <trkpt lat="45.78986" lon="6.42393">
        <ele>1427.8000488281</ele>
        <time>2020-07-05T06:31:37.000Z</time>
        <extensions>
          <gpxtpx:TrackPointExtension xmlns:gpxtpx="http://www.garmin.com/xmlschemas/TrackPointExtension/v1">
            <gpxtpx:hr>130</gpxtpx:hr>
          </gpxtpx:TrackPointExtension>
        </extensions>
      </trkpt>
      <trkpt lat="45.78986" lon="6.4239">
        <ele>1428.1999511719</ele>
        <time>2020-07-05T06:31:38.000Z</time>
        <extensions>
          <gpxtpx:TrackPointExtension xmlns:gpxtpx="http://www.garmin.com/xmlschemas/TrackPointExtension/v1">
            <gpxtpx:hr>130</gpxtpx:hr>
          </gpxtpx:TrackPointExtension>
        </extensions>
      </trkpt>
      <trkpt lat="45.7899" lon="6.42373">
        <ele>1429.4000244141</ele>
        <time>2020-07-05T06:31:43.000Z</time>
        <extensions>
          <gpxtpx:TrackPointExtension xmlns:gpxtpx="http://www.garmin.com/xmlschemas/TrackPointExtension/v1">
            <gpxtpx:hr>130</gpxtpx:hr>
          </gpxtpx:TrackPointExtension>
        </extensions>
      </trkpt>
      <trkpt lat="45.78995" lon="6.42358">
        <ele>1430.4000244141</ele>
        <time>2020-07-05T06:31:48.000Z</time>
        <extensions>
          <gpxtpx:TrackPointExtension xmlns:gpxtpx="http://www.garmin.com/xmlschemas/TrackPointExtension/v1">
            <gpxtpx:hr>130</gpxtpx:hr>
          </gpxtpx:TrackPointExtension>
        </extensions>
      </trkpt>
      <trkpt lat="45.78997" lon="6.42352">
        <ele>1431</ele>
        <time>2020-07-05T06:31:50.000Z</time>
        <extensions>
          <gpxtpx:TrackPointExtension xmlns:gpxtpx="http://www.garmin.com/xmlschemas/TrackPointExtension/v1">
            <gpxtpx:hr>130</gpxtpx:hr>
          </gpxtpx:TrackPointExtension>
        </extensions>
      </trkpt>
      <trkpt lat="45.79001" lon="6.42343">
        <ele>1431.5999755859</ele>
        <time>2020-07-05T06:31:53.000Z</time>
        <extensions>
          <gpxtpx:TrackPointExtension xmlns:gpxtpx="http://www.garmin.com/xmlschemas/TrackPointExtension/v1">
            <gpxtpx:hr>129</gpxtpx:hr>
          </gpxtpx:TrackPointExtension>
        </extensions>
      </trkpt>
      <trkpt lat="45.79005" lon="6.42331">
        <ele>1432.8000488281</ele>
        <time>2020-07-05T06:31:57.000Z</time>
        <extensions>
          <gpxtpx:TrackPointExtension xmlns:gpxtpx="http://www.garmin.com/xmlschemas/TrackPointExtension/v1">
            <gpxtpx:hr>129</gpxtpx:hr>
          </gpxtpx:TrackPointExtension>
        </extensions>
      </trkpt>
      <trkpt lat="45.79007" lon="6.42328">
        <ele>1433</ele>
        <time>2020-07-05T06:31:58.000Z</time>
        <extensions>
          <gpxtpx:TrackPointExtension xmlns:gpxtpx="http://www.garmin.com/xmlschemas/TrackPointExtension/v1">
            <gpxtpx:hr>129</gpxtpx:hr>
          </gpxtpx:TrackPointExtension>
        </extensions>
      </trkpt>
      <trkpt lat="45.79015" lon="6.42311">
        <ele>1433.8000488281</ele>
        <time>2020-07-05T06:32:04.000Z</time>
        <extensions>
          <gpxtpx:TrackPointExtension xmlns:gpxtpx="http://www.garmin.com/xmlschemas/TrackPointExtension/v1">
            <gpxtpx:hr>129</gpxtpx:hr>
          </gpxtpx:TrackPointExtension>
        </extensions>
      </trkpt>
      <trkpt lat="45.79017" lon="6.42309">
        <ele>1434</ele>
        <time>2020-07-05T06:32:05.000Z</time>
        <extensions>
          <gpxtpx:TrackPointExtension xmlns:gpxtpx="http://www.garmin.com/xmlschemas/TrackPointExtension/v1">
            <gpxtpx:hr>129</gpxtpx:hr>
          </gpxtpx:TrackPointExtension>
        </extensions>
      </trkpt>
      <trkpt lat="45.79023" lon="6.42303">
        <ele>1435</ele>
        <time>2020-07-05T06:32:08.000Z</time>
        <extensions>
          <gpxtpx:TrackPointExtension xmlns:gpxtpx="http://www.garmin.com/xmlschemas/TrackPointExtension/v1">
            <gpxtpx:hr>130</gpxtpx:hr>
          </gpxtpx:TrackPointExtension>
        </extensions>
      </trkpt>
      <trkpt lat="45.79029" lon="6.42303">
        <ele>1435.8000488281</ele>
        <time>2020-07-05T06:32:11.000Z</time>
        <extensions>
          <gpxtpx:TrackPointExtension xmlns:gpxtpx="http://www.garmin.com/xmlschemas/TrackPointExtension/v1">
            <gpxtpx:hr>130</gpxtpx:hr>
          </gpxtpx:TrackPointExtension>
        </extensions>
      </trkpt>
      <trkpt lat="45.79032" lon="6.42303">
        <ele>1436.1999511719</ele>
        <time>2020-07-05T06:32:12.000Z</time>
        <extensions>
          <gpxtpx:TrackPointExtension xmlns:gpxtpx="http://www.garmin.com/xmlschemas/TrackPointExtension/v1">
            <gpxtpx:hr>131</gpxtpx:hr>
          </gpxtpx:TrackPointExtension>
        </extensions>
      </trkpt>
      <trkpt lat="45.79037" lon="6.42308">
        <ele>1437.1999511719</ele>
        <time>2020-07-05T06:32:15.000Z</time>
        <extensions>
          <gpxtpx:TrackPointExtension xmlns:gpxtpx="http://www.garmin.com/xmlschemas/TrackPointExtension/v1">
            <gpxtpx:hr>131</gpxtpx:hr>
          </gpxtpx:TrackPointExtension>
        </extensions>
      </trkpt>
      <trkpt lat="45.79039" lon="6.42311">
        <ele>1437.5999755859</ele>
        <time>2020-07-05T06:32:16.000Z</time>
        <extensions>
          <gpxtpx:TrackPointExtension xmlns:gpxtpx="http://www.garmin.com/xmlschemas/TrackPointExtension/v1">
            <gpxtpx:hr>131</gpxtpx:hr>
          </gpxtpx:TrackPointExtension>
        </extensions>
      </trkpt>
      <trkpt lat="45.79039" lon="6.42314">
        <ele>1438</ele>
        <time>2020-07-05T06:32:17.000Z</time>
        <extensions>
          <gpxtpx:TrackPointExtension xmlns:gpxtpx="http://www.garmin.com/xmlschemas/TrackPointExtension/v1">
            <gpxtpx:hr>131</gpxtpx:hr>
          </gpxtpx:TrackPointExtension>
        </extensions>
      </trkpt>
      <trkpt lat="45.7904" lon="6.42317">
        <ele>1438.1999511719</ele>
        <time>2020-07-05T06:32:18.000Z</time>
        <extensions>
          <gpxtpx:TrackPointExtension xmlns:gpxtpx="http://www.garmin.com/xmlschemas/TrackPointExtension/v1">
            <gpxtpx:hr>131</gpxtpx:hr>
          </gpxtpx:TrackPointExtension>
        </extensions>
      </trkpt>
      <trkpt lat="45.79041" lon="6.42324">
        <ele>1438.8000488281</ele>
        <time>2020-07-05T06:32:20.000Z</time>
        <extensions>
          <gpxtpx:TrackPointExtension xmlns:gpxtpx="http://www.garmin.com/xmlschemas/TrackPointExtension/v1">
            <gpxtpx:hr>131</gpxtpx:hr>
          </gpxtpx:TrackPointExtension>
        </extensions>
      </trkpt>
      <trkpt lat="45.79041" lon="6.42331">
        <ele>1439.5999755859</ele>
        <time>2020-07-05T06:32:22.000Z</time>
        <extensions>
          <gpxtpx:TrackPointExtension xmlns:gpxtpx="http://www.garmin.com/xmlschemas/TrackPointExtension/v1">
            <gpxtpx:hr>132</gpxtpx:hr>
          </gpxtpx:TrackPointExtension>
        </extensions>
      </trkpt>
      <trkpt lat="45.79041" lon="6.42341">
        <ele>1440.5999755859</ele>
        <time>2020-07-05T06:32:25.000Z</time>
        <extensions>
          <gpxtpx:TrackPointExtension xmlns:gpxtpx="http://www.garmin.com/xmlschemas/TrackPointExtension/v1">
            <gpxtpx:hr>132</gpxtpx:hr>
          </gpxtpx:TrackPointExtension>
        </extensions>
      </trkpt>
      <trkpt lat="45.79041" lon="6.42345">
        <ele>1440.8000488281</ele>
        <time>2020-07-05T06:32:26.000Z</time>
        <extensions>
          <gpxtpx:TrackPointExtension xmlns:gpxtpx="http://www.garmin.com/xmlschemas/TrackPointExtension/v1">
            <gpxtpx:hr>132</gpxtpx:hr>
          </gpxtpx:TrackPointExtension>
        </extensions>
      </trkpt>
      <trkpt lat="45.79042" lon="6.42352">
        <ele>1441.1999511719</ele>
        <time>2020-07-05T06:32:28.000Z</time>
        <extensions>
          <gpxtpx:TrackPointExtension xmlns:gpxtpx="http://www.garmin.com/xmlschemas/TrackPointExtension/v1">
            <gpxtpx:hr>133</gpxtpx:hr>
          </gpxtpx:TrackPointExtension>
        </extensions>
      </trkpt>
      <trkpt lat="45.79042" lon="6.42359">
        <ele>1441.8000488281</ele>
        <time>2020-07-05T06:32:30.000Z</time>
        <extensions>
          <gpxtpx:TrackPointExtension xmlns:gpxtpx="http://www.garmin.com/xmlschemas/TrackPointExtension/v1">
            <gpxtpx:hr>133</gpxtpx:hr>
          </gpxtpx:TrackPointExtension>
        </extensions>
      </trkpt>
      <trkpt lat="45.79043" lon="6.4237">
        <ele>1443</ele>
        <time>2020-07-05T06:32:33.000Z</time>
        <extensions>
          <gpxtpx:TrackPointExtension xmlns:gpxtpx="http://www.garmin.com/xmlschemas/TrackPointExtension/v1">
            <gpxtpx:hr>131</gpxtpx:hr>
          </gpxtpx:TrackPointExtension>
        </extensions>
      </trkpt>
      <trkpt lat="45.79045" lon="6.42383">
        <ele>1443.5999755859</ele>
        <time>2020-07-05T06:32:37.000Z</time>
        <extensions>
          <gpxtpx:TrackPointExtension xmlns:gpxtpx="http://www.garmin.com/xmlschemas/TrackPointExtension/v1">
            <gpxtpx:hr>130</gpxtpx:hr>
          </gpxtpx:TrackPointExtension>
        </extensions>
      </trkpt>
      <trkpt lat="45.79047" lon="6.4239">
        <ele>1444</ele>
        <time>2020-07-05T06:32:39.000Z</time>
        <extensions>
          <gpxtpx:TrackPointExtension xmlns:gpxtpx="http://www.garmin.com/xmlschemas/TrackPointExtension/v1">
            <gpxtpx:hr>130</gpxtpx:hr>
          </gpxtpx:TrackPointExtension>
        </extensions>
      </trkpt>
      <trkpt lat="45.79047" lon="6.42393">
        <ele>1444.1999511719</ele>
        <time>2020-07-05T06:32:40.000Z</time>
        <extensions>
          <gpxtpx:TrackPointExtension xmlns:gpxtpx="http://www.garmin.com/xmlschemas/TrackPointExtension/v1">
            <gpxtpx:hr>130</gpxtpx:hr>
          </gpxtpx:TrackPointExtension>
        </extensions>
      </trkpt>
      <trkpt lat="45.7905" lon="6.42403">
        <ele>1444.8000488281</ele>
        <time>2020-07-05T06:32:43.000Z</time>
        <extensions>
          <gpxtpx:TrackPointExtension xmlns:gpxtpx="http://www.garmin.com/xmlschemas/TrackPointExtension/v1">
            <gpxtpx:hr>131</gpxtpx:hr>
          </gpxtpx:TrackPointExtension>
        </extensions>
      </trkpt>
      <trkpt lat="45.79052" lon="6.42409">
        <ele>1445.4000244141</ele>
        <time>2020-07-05T06:32:45.000Z</time>
        <extensions>
          <gpxtpx:TrackPointExtension xmlns:gpxtpx="http://www.garmin.com/xmlschemas/TrackPointExtension/v1">
            <gpxtpx:hr>132</gpxtpx:hr>
          </gpxtpx:TrackPointExtension>
        </extensions>
      </trkpt>
      <trkpt lat="45.79056" lon="6.42421">
        <ele>1446.4000244141</ele>
        <time>2020-07-05T06:32:49.000Z</time>
        <extensions>
          <gpxtpx:TrackPointExtension xmlns:gpxtpx="http://www.garmin.com/xmlschemas/TrackPointExtension/v1">
            <gpxtpx:hr>133</gpxtpx:hr>
          </gpxtpx:TrackPointExtension>
        </extensions>
      </trkpt>
      <trkpt lat="45.79057" lon="6.42427">
        <ele>1446.8000488281</ele>
        <time>2020-07-05T06:32:51.000Z</time>
        <extensions>
          <gpxtpx:TrackPointExtension xmlns:gpxtpx="http://www.garmin.com/xmlschemas/TrackPointExtension/v1">
            <gpxtpx:hr>133</gpxtpx:hr>
          </gpxtpx:TrackPointExtension>
        </extensions>
      </trkpt>
      <trkpt lat="45.7906" lon="6.42437">
        <ele>1447.4000244141</ele>
        <time>2020-07-05T06:32:54.000Z</time>
        <extensions>
          <gpxtpx:TrackPointExtension xmlns:gpxtpx="http://www.garmin.com/xmlschemas/TrackPointExtension/v1">
            <gpxtpx:hr>134</gpxtpx:hr>
          </gpxtpx:TrackPointExtension>
        </extensions>
      </trkpt>
      <trkpt lat="45.79064" lon="6.42452">
        <ele>1448.5999755859</ele>
        <time>2020-07-05T06:32:59.000Z</time>
        <extensions>
          <gpxtpx:TrackPointExtension xmlns:gpxtpx="http://www.garmin.com/xmlschemas/TrackPointExtension/v1">
            <gpxtpx:hr>135</gpxtpx:hr>
          </gpxtpx:TrackPointExtension>
        </extensions>
      </trkpt>
      <trkpt lat="45.79066" lon="6.42458">
        <ele>1449</ele>
        <time>2020-07-05T06:33:01.000Z</time>
        <extensions>
          <gpxtpx:TrackPointExtension xmlns:gpxtpx="http://www.garmin.com/xmlschemas/TrackPointExtension/v1">
            <gpxtpx:hr>135</gpxtpx:hr>
          </gpxtpx:TrackPointExtension>
        </extensions>
      </trkpt>
      <trkpt lat="45.79068" lon="6.42467">
        <ele>1449.8000488281</ele>
        <time>2020-07-05T06:33:04.000Z</time>
        <extensions>
          <gpxtpx:TrackPointExtension xmlns:gpxtpx="http://www.garmin.com/xmlschemas/TrackPointExtension/v1">
            <gpxtpx:hr>135</gpxtpx:hr>
          </gpxtpx:TrackPointExtension>
        </extensions>
      </trkpt>
      <trkpt lat="45.79071" lon="6.42479">
        <ele>1450.8000488281</ele>
        <time>2020-07-05T06:33:08.000Z</time>
        <extensions>
          <gpxtpx:TrackPointExtension xmlns:gpxtpx="http://www.garmin.com/xmlschemas/TrackPointExtension/v1">
            <gpxtpx:hr>136</gpxtpx:hr>
          </gpxtpx:TrackPointExtension>
        </extensions>
      </trkpt>
      <trkpt lat="45.79072" lon="6.42482">
        <ele>1451.1999511719</ele>
        <time>2020-07-05T06:33:09.000Z</time>
        <extensions>
          <gpxtpx:TrackPointExtension xmlns:gpxtpx="http://www.garmin.com/xmlschemas/TrackPointExtension/v1">
            <gpxtpx:hr>136</gpxtpx:hr>
          </gpxtpx:TrackPointExtension>
        </extensions>
      </trkpt>
      <trkpt lat="45.79073" lon="6.42489">
        <ele>1451.5999755859</ele>
        <time>2020-07-05T06:33:11.000Z</time>
        <extensions>
          <gpxtpx:TrackPointExtension xmlns:gpxtpx="http://www.garmin.com/xmlschemas/TrackPointExtension/v1">
            <gpxtpx:hr>136</gpxtpx:hr>
          </gpxtpx:TrackPointExtension>
        </extensions>
      </trkpt>
      <trkpt lat="45.79074" lon="6.42492">
        <ele>1452</ele>
        <time>2020-07-05T06:33:12.000Z</time>
        <extensions>
          <gpxtpx:TrackPointExtension xmlns:gpxtpx="http://www.garmin.com/xmlschemas/TrackPointExtension/v1">
            <gpxtpx:hr>136</gpxtpx:hr>
          </gpxtpx:TrackPointExtension>
        </extensions>
      </trkpt>
      <trkpt lat="45.79078" lon="6.42506">
        <ele>1453.1999511719</ele>
        <time>2020-07-05T06:33:17.000Z</time>
        <extensions>
          <gpxtpx:TrackPointExtension xmlns:gpxtpx="http://www.garmin.com/xmlschemas/TrackPointExtension/v1">
            <gpxtpx:hr>136</gpxtpx:hr>
          </gpxtpx:TrackPointExtension>
        </extensions>
      </trkpt>
      <trkpt lat="45.7908" lon="6.42519">
        <ele>1454</ele>
        <time>2020-07-05T06:33:21.000Z</time>
        <extensions>
          <gpxtpx:TrackPointExtension xmlns:gpxtpx="http://www.garmin.com/xmlschemas/TrackPointExtension/v1">
            <gpxtpx:hr>136</gpxtpx:hr>
          </gpxtpx:TrackPointExtension>
        </extensions>
      </trkpt>
      <trkpt lat="45.79081" lon="6.42523">
        <ele>1454.1999511719</ele>
        <time>2020-07-05T06:33:22.000Z</time>
        <extensions>
          <gpxtpx:TrackPointExtension xmlns:gpxtpx="http://www.garmin.com/xmlschemas/TrackPointExtension/v1">
            <gpxtpx:hr>136</gpxtpx:hr>
          </gpxtpx:TrackPointExtension>
        </extensions>
      </trkpt>
      <trkpt lat="45.79084" lon="6.42531">
        <ele>1455.1999511719</ele>
        <time>2020-07-05T06:33:25.000Z</time>
        <extensions>
          <gpxtpx:TrackPointExtension xmlns:gpxtpx="http://www.garmin.com/xmlschemas/TrackPointExtension/v1">
            <gpxtpx:hr>136</gpxtpx:hr>
          </gpxtpx:TrackPointExtension>
        </extensions>
      </trkpt>
      <trkpt lat="45.79085" lon="6.42533">
        <ele>1455.4000244141</ele>
        <time>2020-07-05T06:33:26.000Z</time>
        <extensions>
          <gpxtpx:TrackPointExtension xmlns:gpxtpx="http://www.garmin.com/xmlschemas/TrackPointExtension/v1">
            <gpxtpx:hr>136</gpxtpx:hr>
          </gpxtpx:TrackPointExtension>
        </extensions>
      </trkpt>
      <trkpt lat="45.7909" lon="6.42545">
        <ele>1456.1999511719</ele>
        <time>2020-07-05T06:33:30.000Z</time>
        <extensions>
          <gpxtpx:TrackPointExtension xmlns:gpxtpx="http://www.garmin.com/xmlschemas/TrackPointExtension/v1">
            <gpxtpx:hr>137</gpxtpx:hr>
          </gpxtpx:TrackPointExtension>
        </extensions>
      </trkpt>
      <trkpt lat="45.79092" lon="6.42547">
        <ele>1456.4000244141</ele>
        <time>2020-07-05T06:33:31.000Z</time>
        <extensions>
          <gpxtpx:TrackPointExtension xmlns:gpxtpx="http://www.garmin.com/xmlschemas/TrackPointExtension/v1">
            <gpxtpx:hr>137</gpxtpx:hr>
          </gpxtpx:TrackPointExtension>
        </extensions>
      </trkpt>
      <trkpt lat="45.791" lon="6.42564">
        <ele>1457.5999755859</ele>
        <time>2020-07-05T06:33:37.000Z</time>
        <extensions>
          <gpxtpx:TrackPointExtension xmlns:gpxtpx="http://www.garmin.com/xmlschemas/TrackPointExtension/v1">
            <gpxtpx:hr>137</gpxtpx:hr>
          </gpxtpx:TrackPointExtension>
        </extensions>
      </trkpt>
      <trkpt lat="45.79102" lon="6.42567">
        <ele>1457.8000488281</ele>
        <time>2020-07-05T06:33:38.000Z</time>
        <extensions>
          <gpxtpx:TrackPointExtension xmlns:gpxtpx="http://www.garmin.com/xmlschemas/TrackPointExtension/v1">
            <gpxtpx:hr>136</gpxtpx:hr>
          </gpxtpx:TrackPointExtension>
        </extensions>
      </trkpt>
      <trkpt lat="45.79108" lon="6.42577">
        <ele>1458.5999755859</ele>
        <time>2020-07-05T06:33:42.000Z</time>
        <extensions>
          <gpxtpx:TrackPointExtension xmlns:gpxtpx="http://www.garmin.com/xmlschemas/TrackPointExtension/v1">
            <gpxtpx:hr>136</gpxtpx:hr>
          </gpxtpx:TrackPointExtension>
        </extensions>
      </trkpt>
      <trkpt lat="45.79113" lon="6.42584">
        <ele>1459.1999511719</ele>
        <time>2020-07-05T06:33:45.000Z</time>
        <extensions>
          <gpxtpx:TrackPointExtension xmlns:gpxtpx="http://www.garmin.com/xmlschemas/TrackPointExtension/v1">
            <gpxtpx:hr>136</gpxtpx:hr>
          </gpxtpx:TrackPointExtension>
        </extensions>
      </trkpt>
      <trkpt lat="45.79115" lon="6.42586">
        <ele>1459.4000244141</ele>
        <time>2020-07-05T06:33:46.000Z</time>
        <extensions>
          <gpxtpx:TrackPointExtension xmlns:gpxtpx="http://www.garmin.com/xmlschemas/TrackPointExtension/v1">
            <gpxtpx:hr>136</gpxtpx:hr>
          </gpxtpx:TrackPointExtension>
        </extensions>
      </trkpt>
      <trkpt lat="45.79117" lon="6.42588">
        <ele>1459.8000488281</ele>
        <time>2020-07-05T06:33:47.000Z</time>
        <extensions>
          <gpxtpx:TrackPointExtension xmlns:gpxtpx="http://www.garmin.com/xmlschemas/TrackPointExtension/v1">
            <gpxtpx:hr>136</gpxtpx:hr>
          </gpxtpx:TrackPointExtension>
        </extensions>
      </trkpt>
      <trkpt lat="45.79127" lon="6.426">
        <ele>1460.8000488281</ele>
        <time>2020-07-05T06:33:52.000Z</time>
        <extensions>
          <gpxtpx:TrackPointExtension xmlns:gpxtpx="http://www.garmin.com/xmlschemas/TrackPointExtension/v1">
            <gpxtpx:hr>134</gpxtpx:hr>
          </gpxtpx:TrackPointExtension>
        </extensions>
      </trkpt>
      <trkpt lat="45.79133" lon="6.42607">
        <ele>1461.4000244141</ele>
        <time>2020-07-05T06:33:55.000Z</time>
        <extensions>
          <gpxtpx:TrackPointExtension xmlns:gpxtpx="http://www.garmin.com/xmlschemas/TrackPointExtension/v1">
            <gpxtpx:hr>132</gpxtpx:hr>
          </gpxtpx:TrackPointExtension>
        </extensions>
      </trkpt>
      <trkpt lat="45.79138" lon="6.42613">
        <ele>1462</ele>
        <time>2020-07-05T06:33:58.000Z</time>
        <extensions>
          <gpxtpx:TrackPointExtension xmlns:gpxtpx="http://www.garmin.com/xmlschemas/TrackPointExtension/v1">
            <gpxtpx:hr>131</gpxtpx:hr>
          </gpxtpx:TrackPointExtension>
        </extensions>
      </trkpt>
      <trkpt lat="45.79147" lon="6.42623">
        <ele>1463</ele>
        <time>2020-07-05T06:34:03.000Z</time>
        <extensions>
          <gpxtpx:TrackPointExtension xmlns:gpxtpx="http://www.garmin.com/xmlschemas/TrackPointExtension/v1">
            <gpxtpx:hr>129</gpxtpx:hr>
          </gpxtpx:TrackPointExtension>
        </extensions>
      </trkpt>
      <trkpt lat="45.79148" lon="6.42625">
        <ele>1463.1999511719</ele>
        <time>2020-07-05T06:34:04.000Z</time>
        <extensions>
          <gpxtpx:TrackPointExtension xmlns:gpxtpx="http://www.garmin.com/xmlschemas/TrackPointExtension/v1">
            <gpxtpx:hr>129</gpxtpx:hr>
          </gpxtpx:TrackPointExtension>
        </extensions>
      </trkpt>
      <trkpt lat="45.79153" lon="6.42632">
        <ele>1464</ele>
        <time>2020-07-05T06:34:07.000Z</time>
        <extensions>
          <gpxtpx:TrackPointExtension xmlns:gpxtpx="http://www.garmin.com/xmlschemas/TrackPointExtension/v1">
            <gpxtpx:hr>128</gpxtpx:hr>
          </gpxtpx:TrackPointExtension>
        </extensions>
      </trkpt>
      <trkpt lat="45.7916" lon="6.42641">
        <ele>1465.1999511719</ele>
        <time>2020-07-05T06:34:11.000Z</time>
        <extensions>
          <gpxtpx:TrackPointExtension xmlns:gpxtpx="http://www.garmin.com/xmlschemas/TrackPointExtension/v1">
            <gpxtpx:hr>129</gpxtpx:hr>
          </gpxtpx:TrackPointExtension>
        </extensions>
      </trkpt>
      <trkpt lat="45.79164" lon="6.42645">
        <ele>1465.8000488281</ele>
        <time>2020-07-05T06:34:13.000Z</time>
        <extensions>
          <gpxtpx:TrackPointExtension xmlns:gpxtpx="http://www.garmin.com/xmlschemas/TrackPointExtension/v1">
            <gpxtpx:hr>129</gpxtpx:hr>
          </gpxtpx:TrackPointExtension>
        </extensions>
      </trkpt>
      <trkpt lat="45.79169" lon="6.42647">
        <ele>1466.4000244141</ele>
        <time>2020-07-05T06:34:15.000Z</time>
        <extensions>
          <gpxtpx:TrackPointExtension xmlns:gpxtpx="http://www.garmin.com/xmlschemas/TrackPointExtension/v1">
            <gpxtpx:hr>129</gpxtpx:hr>
          </gpxtpx:TrackPointExtension>
        </extensions>
      </trkpt>
      <trkpt lat="45.79173" lon="6.42646">
        <ele>1466.8000488281</ele>
        <time>2020-07-05T06:34:17.000Z</time>
        <extensions>
          <gpxtpx:TrackPointExtension xmlns:gpxtpx="http://www.garmin.com/xmlschemas/TrackPointExtension/v1">
            <gpxtpx:hr>130</gpxtpx:hr>
          </gpxtpx:TrackPointExtension>
        </extensions>
      </trkpt>
      <trkpt lat="45.79175" lon="6.42644">
        <ele>1467</ele>
        <time>2020-07-05T06:34:18.000Z</time>
        <extensions>
          <gpxtpx:TrackPointExtension xmlns:gpxtpx="http://www.garmin.com/xmlschemas/TrackPointExtension/v1">
            <gpxtpx:hr>130</gpxtpx:hr>
          </gpxtpx:TrackPointExtension>
        </extensions>
      </trkpt>
      <trkpt lat="45.79177" lon="6.42637">
        <ele>1467.4000244141</ele>
        <time>2020-07-05T06:34:20.000Z</time>
        <extensions>
          <gpxtpx:TrackPointExtension xmlns:gpxtpx="http://www.garmin.com/xmlschemas/TrackPointExtension/v1">
            <gpxtpx:hr>131</gpxtpx:hr>
          </gpxtpx:TrackPointExtension>
        </extensions>
      </trkpt>
      <trkpt lat="45.79178" lon="6.42625">
        <ele>1468</ele>
        <time>2020-07-05T06:34:23.000Z</time>
        <extensions>
          <gpxtpx:TrackPointExtension xmlns:gpxtpx="http://www.garmin.com/xmlschemas/TrackPointExtension/v1">
            <gpxtpx:hr>131</gpxtpx:hr>
          </gpxtpx:TrackPointExtension>
        </extensions>
      </trkpt>
      <trkpt lat="45.79178" lon="6.42614">
        <ele>1468.4000244141</ele>
        <time>2020-07-05T06:34:26.000Z</time>
        <extensions>
          <gpxtpx:TrackPointExtension xmlns:gpxtpx="http://www.garmin.com/xmlschemas/TrackPointExtension/v1">
            <gpxtpx:hr>132</gpxtpx:hr>
          </gpxtpx:TrackPointExtension>
        </extensions>
      </trkpt>
      <trkpt lat="45.79178" lon="6.426">
        <ele>1469.4000244141</ele>
        <time>2020-07-05T06:34:30.000Z</time>
        <extensions>
          <gpxtpx:TrackPointExtension xmlns:gpxtpx="http://www.garmin.com/xmlschemas/TrackPointExtension/v1">
            <gpxtpx:hr>133</gpxtpx:hr>
          </gpxtpx:TrackPointExtension>
        </extensions>
      </trkpt>
      <trkpt lat="45.79178" lon="6.42596">
        <ele>1469.5999755859</ele>
        <time>2020-07-05T06:34:31.000Z</time>
        <extensions>
          <gpxtpx:TrackPointExtension xmlns:gpxtpx="http://www.garmin.com/xmlschemas/TrackPointExtension/v1">
            <gpxtpx:hr>133</gpxtpx:hr>
          </gpxtpx:TrackPointExtension>
        </extensions>
      </trkpt>
      <trkpt lat="45.79178" lon="6.42582">
        <ele>1470.8000488281</ele>
        <time>2020-07-05T06:34:35.000Z</time>
        <extensions>
          <gpxtpx:TrackPointExtension xmlns:gpxtpx="http://www.garmin.com/xmlschemas/TrackPointExtension/v1">
            <gpxtpx:hr>133</gpxtpx:hr>
          </gpxtpx:TrackPointExtension>
        </extensions>
      </trkpt>
      <trkpt lat="45.79177" lon="6.42568">
        <ele>1471.8000488281</ele>
        <time>2020-07-05T06:34:39.000Z</time>
        <extensions>
          <gpxtpx:TrackPointExtension xmlns:gpxtpx="http://www.garmin.com/xmlschemas/TrackPointExtension/v1">
            <gpxtpx:hr>133</gpxtpx:hr>
          </gpxtpx:TrackPointExtension>
        </extensions>
      </trkpt>
      <trkpt lat="45.79179" lon="6.42554">
        <ele>1473</ele>
        <time>2020-07-05T06:34:43.000Z</time>
        <extensions>
          <gpxtpx:TrackPointExtension xmlns:gpxtpx="http://www.garmin.com/xmlschemas/TrackPointExtension/v1">
            <gpxtpx:hr>132</gpxtpx:hr>
          </gpxtpx:TrackPointExtension>
        </extensions>
      </trkpt>
      <trkpt lat="45.79179" lon="6.4255">
        <ele>1473.1999511719</ele>
        <time>2020-07-05T06:34:44.000Z</time>
        <extensions>
          <gpxtpx:TrackPointExtension xmlns:gpxtpx="http://www.garmin.com/xmlschemas/TrackPointExtension/v1">
            <gpxtpx:hr>132</gpxtpx:hr>
          </gpxtpx:TrackPointExtension>
        </extensions>
      </trkpt>
      <trkpt lat="45.7918" lon="6.4254">
        <ele>1474</ele>
        <time>2020-07-05T06:34:47.000Z</time>
        <extensions>
          <gpxtpx:TrackPointExtension xmlns:gpxtpx="http://www.garmin.com/xmlschemas/TrackPointExtension/v1">
            <gpxtpx:hr>132</gpxtpx:hr>
          </gpxtpx:TrackPointExtension>
        </extensions>
      </trkpt>
      <trkpt lat="45.7918" lon="6.42537">
        <ele>1474.1999511719</ele>
        <time>2020-07-05T06:34:48.000Z</time>
        <extensions>
          <gpxtpx:TrackPointExtension xmlns:gpxtpx="http://www.garmin.com/xmlschemas/TrackPointExtension/v1">
            <gpxtpx:hr>131</gpxtpx:hr>
          </gpxtpx:TrackPointExtension>
        </extensions>
      </trkpt>
      <trkpt lat="45.7918" lon="6.42527">
        <ele>1475.4000244141</ele>
        <time>2020-07-05T06:34:51.000Z</time>
        <extensions>
          <gpxtpx:TrackPointExtension xmlns:gpxtpx="http://www.garmin.com/xmlschemas/TrackPointExtension/v1">
            <gpxtpx:hr>130</gpxtpx:hr>
          </gpxtpx:TrackPointExtension>
        </extensions>
      </trkpt>
      <trkpt lat="45.79181" lon="6.42509">
        <ele>1476.4000244141</ele>
        <time>2020-07-05T06:34:56.000Z</time>
        <extensions>
          <gpxtpx:TrackPointExtension xmlns:gpxtpx="http://www.garmin.com/xmlschemas/TrackPointExtension/v1">
            <gpxtpx:hr>130</gpxtpx:hr>
          </gpxtpx:TrackPointExtension>
        </extensions>
      </trkpt>
      <trkpt lat="45.79182" lon="6.42492">
        <ele>1477.5999755859</ele>
        <time>2020-07-05T06:35:01.000Z</time>
        <extensions>
          <gpxtpx:TrackPointExtension xmlns:gpxtpx="http://www.garmin.com/xmlschemas/TrackPointExtension/v1">
            <gpxtpx:hr>130</gpxtpx:hr>
          </gpxtpx:TrackPointExtension>
        </extensions>
      </trkpt>
      <trkpt lat="45.79182" lon="6.42489">
        <ele>1478</ele>
        <time>2020-07-05T06:35:02.000Z</time>
        <extensions>
          <gpxtpx:TrackPointExtension xmlns:gpxtpx="http://www.garmin.com/xmlschemas/TrackPointExtension/v1">
            <gpxtpx:hr>130</gpxtpx:hr>
          </gpxtpx:TrackPointExtension>
        </extensions>
      </trkpt>
      <trkpt lat="45.79182" lon="6.42482">
        <ele>1478.8000488281</ele>
        <time>2020-07-05T06:35:04.000Z</time>
        <extensions>
          <gpxtpx:TrackPointExtension xmlns:gpxtpx="http://www.garmin.com/xmlschemas/TrackPointExtension/v1">
            <gpxtpx:hr>130</gpxtpx:hr>
          </gpxtpx:TrackPointExtension>
        </extensions>
      </trkpt>
      <trkpt lat="45.79181" lon="6.42476">
        <ele>1479.1999511719</ele>
        <time>2020-07-05T06:35:06.000Z</time>
        <extensions>
          <gpxtpx:TrackPointExtension xmlns:gpxtpx="http://www.garmin.com/xmlschemas/TrackPointExtension/v1">
            <gpxtpx:hr>131</gpxtpx:hr>
          </gpxtpx:TrackPointExtension>
        </extensions>
      </trkpt>
      <trkpt lat="45.79182" lon="6.42466">
        <ele>1480</ele>
        <time>2020-07-05T06:35:09.000Z</time>
        <extensions>
          <gpxtpx:TrackPointExtension xmlns:gpxtpx="http://www.garmin.com/xmlschemas/TrackPointExtension/v1">
            <gpxtpx:hr>131</gpxtpx:hr>
          </gpxtpx:TrackPointExtension>
        </extensions>
      </trkpt>
      <trkpt lat="45.79183" lon="6.42453">
        <ele>1481</ele>
        <time>2020-07-05T06:35:13.000Z</time>
        <extensions>
          <gpxtpx:TrackPointExtension xmlns:gpxtpx="http://www.garmin.com/xmlschemas/TrackPointExtension/v1">
            <gpxtpx:hr>129</gpxtpx:hr>
          </gpxtpx:TrackPointExtension>
        </extensions>
      </trkpt>
      <trkpt lat="45.79185" lon="6.42447">
        <ele>1481.5999755859</ele>
        <time>2020-07-05T06:35:15.000Z</time>
        <extensions>
          <gpxtpx:TrackPointExtension xmlns:gpxtpx="http://www.garmin.com/xmlschemas/TrackPointExtension/v1">
            <gpxtpx:hr>129</gpxtpx:hr>
          </gpxtpx:TrackPointExtension>
        </extensions>
      </trkpt>
      <trkpt lat="45.79188" lon="6.42444">
        <ele>1482.1999511719</ele>
        <time>2020-07-05T06:35:17.000Z</time>
        <extensions>
          <gpxtpx:TrackPointExtension xmlns:gpxtpx="http://www.garmin.com/xmlschemas/TrackPointExtension/v1">
            <gpxtpx:hr>130</gpxtpx:hr>
          </gpxtpx:TrackPointExtension>
        </extensions>
      </trkpt>
      <trkpt lat="45.7919" lon="6.42443">
        <ele>1482.5999755859</ele>
        <time>2020-07-05T06:35:18.000Z</time>
        <extensions>
          <gpxtpx:TrackPointExtension xmlns:gpxtpx="http://www.garmin.com/xmlschemas/TrackPointExtension/v1">
            <gpxtpx:hr>130</gpxtpx:hr>
          </gpxtpx:TrackPointExtension>
        </extensions>
      </trkpt>
      <trkpt lat="45.79194" lon="6.42442">
        <ele>1483.1999511719</ele>
        <time>2020-07-05T06:35:20.000Z</time>
        <extensions>
          <gpxtpx:TrackPointExtension xmlns:gpxtpx="http://www.garmin.com/xmlschemas/TrackPointExtension/v1">
            <gpxtpx:hr>131</gpxtpx:hr>
          </gpxtpx:TrackPointExtension>
        </extensions>
      </trkpt>
      <trkpt lat="45.79198" lon="6.42445">
        <ele>1483.8000488281</ele>
        <time>2020-07-05T06:35:22.000Z</time>
        <extensions>
          <gpxtpx:TrackPointExtension xmlns:gpxtpx="http://www.garmin.com/xmlschemas/TrackPointExtension/v1">
            <gpxtpx:hr>131</gpxtpx:hr>
          </gpxtpx:TrackPointExtension>
        </extensions>
      </trkpt>
      <trkpt lat="45.79202" lon="6.42448">
        <ele>1484.5999755859</ele>
        <time>2020-07-05T06:35:24.000Z</time>
        <extensions>
          <gpxtpx:TrackPointExtension xmlns:gpxtpx="http://www.garmin.com/xmlschemas/TrackPointExtension/v1">
            <gpxtpx:hr>131</gpxtpx:hr>
          </gpxtpx:TrackPointExtension>
        </extensions>
      </trkpt>
      <trkpt lat="45.79204" lon="6.4245">
        <ele>1484.8000488281</ele>
        <time>2020-07-05T06:35:25.000Z</time>
        <extensions>
          <gpxtpx:TrackPointExtension xmlns:gpxtpx="http://www.garmin.com/xmlschemas/TrackPointExtension/v1">
            <gpxtpx:hr>131</gpxtpx:hr>
          </gpxtpx:TrackPointExtension>
        </extensions>
      </trkpt>
      <trkpt lat="45.79206" lon="6.42456">
        <ele>1485.4000244141</ele>
        <time>2020-07-05T06:35:27.000Z</time>
        <extensions>
          <gpxtpx:TrackPointExtension xmlns:gpxtpx="http://www.garmin.com/xmlschemas/TrackPointExtension/v1">
            <gpxtpx:hr>131</gpxtpx:hr>
          </gpxtpx:TrackPointExtension>
        </extensions>
      </trkpt>
      <trkpt lat="45.79208" lon="6.42458">
        <ele>1485.5999755859</ele>
        <time>2020-07-05T06:35:28.000Z</time>
        <extensions>
          <gpxtpx:TrackPointExtension xmlns:gpxtpx="http://www.garmin.com/xmlschemas/TrackPointExtension/v1">
            <gpxtpx:hr>131</gpxtpx:hr>
          </gpxtpx:TrackPointExtension>
        </extensions>
      </trkpt>
      <trkpt lat="45.79218" lon="6.42471">
        <ele>1486.8000488281</ele>
        <time>2020-07-05T06:35:33.000Z</time>
        <extensions>
          <gpxtpx:TrackPointExtension xmlns:gpxtpx="http://www.garmin.com/xmlschemas/TrackPointExtension/v1">
            <gpxtpx:hr>132</gpxtpx:hr>
          </gpxtpx:TrackPointExtension>
        </extensions>
      </trkpt>
      <trkpt lat="45.79222" lon="6.42476">
        <ele>1487.4000244141</ele>
        <time>2020-07-05T06:35:35.000Z</time>
        <extensions>
          <gpxtpx:TrackPointExtension xmlns:gpxtpx="http://www.garmin.com/xmlschemas/TrackPointExtension/v1">
            <gpxtpx:hr>132</gpxtpx:hr>
          </gpxtpx:TrackPointExtension>
        </extensions>
      </trkpt>
      <trkpt lat="45.79225" lon="6.42482">
        <ele>1488</ele>
        <time>2020-07-05T06:35:37.000Z</time>
        <extensions>
          <gpxtpx:TrackPointExtension xmlns:gpxtpx="http://www.garmin.com/xmlschemas/TrackPointExtension/v1">
            <gpxtpx:hr>132</gpxtpx:hr>
          </gpxtpx:TrackPointExtension>
        </extensions>
      </trkpt>
      <trkpt lat="45.79235" lon="6.42498">
        <ele>1489.1999511719</ele>
        <time>2020-07-05T06:35:43.000Z</time>
        <extensions>
          <gpxtpx:TrackPointExtension xmlns:gpxtpx="http://www.garmin.com/xmlschemas/TrackPointExtension/v1">
            <gpxtpx:hr>133</gpxtpx:hr>
          </gpxtpx:TrackPointExtension>
        </extensions>
      </trkpt>
      <trkpt lat="45.79236" lon="6.425">
        <ele>1489.4000244141</ele>
        <time>2020-07-05T06:35:44.000Z</time>
        <extensions>
          <gpxtpx:TrackPointExtension xmlns:gpxtpx="http://www.garmin.com/xmlschemas/TrackPointExtension/v1">
            <gpxtpx:hr>133</gpxtpx:hr>
          </gpxtpx:TrackPointExtension>
        </extensions>
      </trkpt>
      <trkpt lat="45.79241" lon="6.42508">
        <ele>1490.1999511719</ele>
        <time>2020-07-05T06:35:47.000Z</time>
        <extensions>
          <gpxtpx:TrackPointExtension xmlns:gpxtpx="http://www.garmin.com/xmlschemas/TrackPointExtension/v1">
            <gpxtpx:hr>133</gpxtpx:hr>
          </gpxtpx:TrackPointExtension>
        </extensions>
      </trkpt>
      <trkpt lat="45.79245" lon="6.42515">
        <ele>1490.8000488281</ele>
        <time>2020-07-05T06:35:50.000Z</time>
        <extensions>
          <gpxtpx:TrackPointExtension xmlns:gpxtpx="http://www.garmin.com/xmlschemas/TrackPointExtension/v1">
            <gpxtpx:hr>136</gpxtpx:hr>
          </gpxtpx:TrackPointExtension>
        </extensions>
      </trkpt>
      <trkpt lat="45.7925" lon="6.42521">
        <ele>1491.4000244141</ele>
        <time>2020-07-05T06:35:53.000Z</time>
        <extensions>
          <gpxtpx:TrackPointExtension xmlns:gpxtpx="http://www.garmin.com/xmlschemas/TrackPointExtension/v1">
            <gpxtpx:hr>138</gpxtpx:hr>
          </gpxtpx:TrackPointExtension>
        </extensions>
      </trkpt>
      <trkpt lat="45.79257" lon="6.42532">
        <ele>1492.1999511719</ele>
        <time>2020-07-05T06:35:57.000Z</time>
        <extensions>
          <gpxtpx:TrackPointExtension xmlns:gpxtpx="http://www.garmin.com/xmlschemas/TrackPointExtension/v1">
            <gpxtpx:hr>140</gpxtpx:hr>
          </gpxtpx:TrackPointExtension>
        </extensions>
      </trkpt>
      <trkpt lat="45.79259" lon="6.42534">
        <ele>1492.4000244141</ele>
        <time>2020-07-05T06:35:58.000Z</time>
        <extensions>
          <gpxtpx:TrackPointExtension xmlns:gpxtpx="http://www.garmin.com/xmlschemas/TrackPointExtension/v1">
            <gpxtpx:hr>141</gpxtpx:hr>
          </gpxtpx:TrackPointExtension>
        </extensions>
      </trkpt>
      <trkpt lat="45.79269" lon="6.42547">
        <ele>1493.4000244141</ele>
        <time>2020-07-05T06:36:03.000Z</time>
        <extensions>
          <gpxtpx:TrackPointExtension xmlns:gpxtpx="http://www.garmin.com/xmlschemas/TrackPointExtension/v1">
            <gpxtpx:hr>141</gpxtpx:hr>
          </gpxtpx:TrackPointExtension>
        </extensions>
      </trkpt>
      <trkpt lat="45.79279" lon="6.4256">
        <ele>1494.5999755859</ele>
        <time>2020-07-05T06:36:08.000Z</time>
        <extensions>
          <gpxtpx:TrackPointExtension xmlns:gpxtpx="http://www.garmin.com/xmlschemas/TrackPointExtension/v1">
            <gpxtpx:hr>141</gpxtpx:hr>
          </gpxtpx:TrackPointExtension>
        </extensions>
      </trkpt>
      <trkpt lat="45.79286" lon="6.4257">
        <ele>1495.8000488281</ele>
        <time>2020-07-05T06:36:12.000Z</time>
        <extensions>
          <gpxtpx:TrackPointExtension xmlns:gpxtpx="http://www.garmin.com/xmlschemas/TrackPointExtension/v1">
            <gpxtpx:hr>142</gpxtpx:hr>
          </gpxtpx:TrackPointExtension>
        </extensions>
      </trkpt>
      <trkpt lat="45.79293" lon="6.42578">
        <ele>1496.8000488281</ele>
        <time>2020-07-05T06:36:16.000Z</time>
        <extensions>
          <gpxtpx:TrackPointExtension xmlns:gpxtpx="http://www.garmin.com/xmlschemas/TrackPointExtension/v1">
            <gpxtpx:hr>143</gpxtpx:hr>
          </gpxtpx:TrackPointExtension>
        </extensions>
      </trkpt>
      <trkpt lat="45.79298" lon="6.42584">
        <ele>1497.4000244141</ele>
        <time>2020-07-05T06:36:19.000Z</time>
        <extensions>
          <gpxtpx:TrackPointExtension xmlns:gpxtpx="http://www.garmin.com/xmlschemas/TrackPointExtension/v1">
            <gpxtpx:hr>143</gpxtpx:hr>
          </gpxtpx:TrackPointExtension>
        </extensions>
      </trkpt>
      <trkpt lat="45.79302" lon="6.42589">
        <ele>1497.8000488281</ele>
        <time>2020-07-05T06:36:21.000Z</time>
        <extensions>
          <gpxtpx:TrackPointExtension xmlns:gpxtpx="http://www.garmin.com/xmlschemas/TrackPointExtension/v1">
            <gpxtpx:hr>142</gpxtpx:hr>
          </gpxtpx:TrackPointExtension>
        </extensions>
      </trkpt>
      <trkpt lat="45.79308" lon="6.42597">
        <ele>1499</ele>
        <time>2020-07-05T06:36:25.000Z</time>
        <extensions>
          <gpxtpx:TrackPointExtension xmlns:gpxtpx="http://www.garmin.com/xmlschemas/TrackPointExtension/v1">
            <gpxtpx:hr>142</gpxtpx:hr>
          </gpxtpx:TrackPointExtension>
        </extensions>
      </trkpt>
      <trkpt lat="45.79311" lon="6.42601">
        <ele>1499.4000244141</ele>
        <time>2020-07-05T06:36:27.000Z</time>
        <extensions>
          <gpxtpx:TrackPointExtension xmlns:gpxtpx="http://www.garmin.com/xmlschemas/TrackPointExtension/v1">
            <gpxtpx:hr>142</gpxtpx:hr>
          </gpxtpx:TrackPointExtension>
        </extensions>
      </trkpt>
      <trkpt lat="45.79314" lon="6.42606">
        <ele>1500</ele>
        <time>2020-07-05T06:36:29.000Z</time>
        <extensions>
          <gpxtpx:TrackPointExtension xmlns:gpxtpx="http://www.garmin.com/xmlschemas/TrackPointExtension/v1">
            <gpxtpx:hr>141</gpxtpx:hr>
          </gpxtpx:TrackPointExtension>
        </extensions>
      </trkpt>
      <trkpt lat="45.7932" lon="6.42615">
        <ele>1501</ele>
        <time>2020-07-05T06:36:33.000Z</time>
        <extensions>
          <gpxtpx:TrackPointExtension xmlns:gpxtpx="http://www.garmin.com/xmlschemas/TrackPointExtension/v1">
            <gpxtpx:hr>141</gpxtpx:hr>
          </gpxtpx:TrackPointExtension>
        </extensions>
      </trkpt>
      <trkpt lat="45.79328" lon="6.42626">
        <ele>1502.4000244141</ele>
        <time>2020-07-05T06:36:38.000Z</time>
        <extensions>
          <gpxtpx:TrackPointExtension xmlns:gpxtpx="http://www.garmin.com/xmlschemas/TrackPointExtension/v1">
            <gpxtpx:hr>141</gpxtpx:hr>
          </gpxtpx:TrackPointExtension>
        </extensions>
      </trkpt>
      <trkpt lat="45.79334" lon="6.42635">
        <ele>1503.5999755859</ele>
        <time>2020-07-05T06:36:42.000Z</time>
        <extensions>
          <gpxtpx:TrackPointExtension xmlns:gpxtpx="http://www.garmin.com/xmlschemas/TrackPointExtension/v1">
            <gpxtpx:hr>142</gpxtpx:hr>
          </gpxtpx:TrackPointExtension>
        </extensions>
      </trkpt>
      <trkpt lat="45.79341" lon="6.42641">
        <ele>1504.8000488281</ele>
        <time>2020-07-05T06:36:46.000Z</time>
        <extensions>
          <gpxtpx:TrackPointExtension xmlns:gpxtpx="http://www.garmin.com/xmlschemas/TrackPointExtension/v1">
            <gpxtpx:hr>143</gpxtpx:hr>
          </gpxtpx:TrackPointExtension>
        </extensions>
      </trkpt>
      <trkpt lat="45.79343" lon="6.42642">
        <ele>1505.1999511719</ele>
        <time>2020-07-05T06:36:47.000Z</time>
        <extensions>
          <gpxtpx:TrackPointExtension xmlns:gpxtpx="http://www.garmin.com/xmlschemas/TrackPointExtension/v1">
            <gpxtpx:hr>143</gpxtpx:hr>
          </gpxtpx:TrackPointExtension>
        </extensions>
      </trkpt>
      <trkpt lat="45.79349" lon="6.42646">
        <ele>1505.8000488281</ele>
        <time>2020-07-05T06:36:50.000Z</time>
        <extensions>
          <gpxtpx:TrackPointExtension xmlns:gpxtpx="http://www.garmin.com/xmlschemas/TrackPointExtension/v1">
            <gpxtpx:hr>140</gpxtpx:hr>
          </gpxtpx:TrackPointExtension>
        </extensions>
      </trkpt>
      <trkpt lat="45.79355" lon="6.4265">
        <ele>1506.4000244141</ele>
        <time>2020-07-05T06:36:53.000Z</time>
        <extensions>
          <gpxtpx:TrackPointExtension xmlns:gpxtpx="http://www.garmin.com/xmlschemas/TrackPointExtension/v1">
            <gpxtpx:hr>138</gpxtpx:hr>
          </gpxtpx:TrackPointExtension>
        </extensions>
      </trkpt>
      <trkpt lat="45.79359" lon="6.42653">
        <ele>1507</ele>
        <time>2020-07-05T06:36:55.000Z</time>
        <extensions>
          <gpxtpx:TrackPointExtension xmlns:gpxtpx="http://www.garmin.com/xmlschemas/TrackPointExtension/v1">
            <gpxtpx:hr>138</gpxtpx:hr>
          </gpxtpx:TrackPointExtension>
        </extensions>
      </trkpt>
      <trkpt lat="45.79367" lon="6.4266">
        <ele>1508</ele>
        <time>2020-07-05T06:36:59.000Z</time>
        <extensions>
          <gpxtpx:TrackPointExtension xmlns:gpxtpx="http://www.garmin.com/xmlschemas/TrackPointExtension/v1">
            <gpxtpx:hr>139</gpxtpx:hr>
          </gpxtpx:TrackPointExtension>
        </extensions>
      </trkpt>
      <trkpt lat="45.79375" lon="6.42672">
        <ele>1509.4000244141</ele>
        <time>2020-07-05T06:37:04.000Z</time>
        <extensions>
          <gpxtpx:TrackPointExtension xmlns:gpxtpx="http://www.garmin.com/xmlschemas/TrackPointExtension/v1">
            <gpxtpx:hr>141</gpxtpx:hr>
          </gpxtpx:TrackPointExtension>
        </extensions>
      </trkpt>
      <trkpt lat="45.7938" lon="6.4268">
        <ele>1510</ele>
        <time>2020-07-05T06:37:07.000Z</time>
        <extensions>
          <gpxtpx:TrackPointExtension xmlns:gpxtpx="http://www.garmin.com/xmlschemas/TrackPointExtension/v1">
            <gpxtpx:hr>144</gpxtpx:hr>
          </gpxtpx:TrackPointExtension>
        </extensions>
      </trkpt>
      <trkpt lat="45.79382" lon="6.42686">
        <ele>1510.4000244141</ele>
        <time>2020-07-05T06:37:09.000Z</time>
        <extensions>
          <gpxtpx:TrackPointExtension xmlns:gpxtpx="http://www.garmin.com/xmlschemas/TrackPointExtension/v1">
            <gpxtpx:hr>145</gpxtpx:hr>
          </gpxtpx:TrackPointExtension>
        </extensions>
      </trkpt>
      <trkpt lat="45.79386" lon="6.427">
        <ele>1511</ele>
        <time>2020-07-05T06:37:13.000Z</time>
        <extensions>
          <gpxtpx:TrackPointExtension xmlns:gpxtpx="http://www.garmin.com/xmlschemas/TrackPointExtension/v1">
            <gpxtpx:hr>145</gpxtpx:hr>
          </gpxtpx:TrackPointExtension>
        </extensions>
      </trkpt>
      <trkpt lat="45.79387" lon="6.42721">
        <ele>1511.4000244141</ele>
        <time>2020-07-05T06:37:18.000Z</time>
        <extensions>
          <gpxtpx:TrackPointExtension xmlns:gpxtpx="http://www.garmin.com/xmlschemas/TrackPointExtension/v1">
            <gpxtpx:hr>145</gpxtpx:hr>
          </gpxtpx:TrackPointExtension>
        </extensions>
      </trkpt>
      <trkpt lat="45.79386" lon="6.4273">
        <ele>1511.5999755859</ele>
        <time>2020-07-05T06:37:20.000Z</time>
        <extensions>
          <gpxtpx:TrackPointExtension xmlns:gpxtpx="http://www.garmin.com/xmlschemas/TrackPointExtension/v1">
            <gpxtpx:hr>144</gpxtpx:hr>
          </gpxtpx:TrackPointExtension>
        </extensions>
      </trkpt>
      <trkpt lat="45.79385" lon="6.42735">
        <ele>1511.5999755859</ele>
        <time>2020-07-05T06:37:21.000Z</time>
        <extensions>
          <gpxtpx:TrackPointExtension xmlns:gpxtpx="http://www.garmin.com/xmlschemas/TrackPointExtension/v1">
            <gpxtpx:hr>144</gpxtpx:hr>
          </gpxtpx:TrackPointExtension>
        </extensions>
      </trkpt>
      <trkpt lat="45.79379" lon="6.42754">
        <ele>1512</ele>
        <time>2020-07-05T06:37:25.000Z</time>
        <extensions>
          <gpxtpx:TrackPointExtension xmlns:gpxtpx="http://www.garmin.com/xmlschemas/TrackPointExtension/v1">
            <gpxtpx:hr>141</gpxtpx:hr>
          </gpxtpx:TrackPointExtension>
        </extensions>
      </trkpt>
      <trkpt lat="45.79377" lon="6.42769">
        <ele>1512.4000244141</ele>
        <time>2020-07-05T06:37:28.000Z</time>
        <extensions>
          <gpxtpx:TrackPointExtension xmlns:gpxtpx="http://www.garmin.com/xmlschemas/TrackPointExtension/v1">
            <gpxtpx:hr>140</gpxtpx:hr>
          </gpxtpx:TrackPointExtension>
        </extensions>
      </trkpt>
      <trkpt lat="45.79375" lon="6.42778">
        <ele>1512.5999755859</ele>
        <time>2020-07-05T06:37:30.000Z</time>
        <extensions>
          <gpxtpx:TrackPointExtension xmlns:gpxtpx="http://www.garmin.com/xmlschemas/TrackPointExtension/v1">
            <gpxtpx:hr>140</gpxtpx:hr>
          </gpxtpx:TrackPointExtension>
        </extensions>
      </trkpt>
      <trkpt lat="45.79369" lon="6.42801">
        <ele>1513.4000244141</ele>
        <time>2020-07-05T06:37:35.000Z</time>
        <extensions>
          <gpxtpx:TrackPointExtension xmlns:gpxtpx="http://www.garmin.com/xmlschemas/TrackPointExtension/v1">
            <gpxtpx:hr>138</gpxtpx:hr>
          </gpxtpx:TrackPointExtension>
        </extensions>
      </trkpt>
      <trkpt lat="45.79367" lon="6.4281">
        <ele>1513.5999755859</ele>
        <time>2020-07-05T06:37:37.000Z</time>
        <extensions>
          <gpxtpx:TrackPointExtension xmlns:gpxtpx="http://www.garmin.com/xmlschemas/TrackPointExtension/v1">
            <gpxtpx:hr>137</gpxtpx:hr>
          </gpxtpx:TrackPointExtension>
        </extensions>
      </trkpt>
      <trkpt lat="45.7936" lon="6.42836">
        <ele>1514.8000488281</ele>
        <time>2020-07-05T06:37:43.000Z</time>
        <extensions>
          <gpxtpx:TrackPointExtension xmlns:gpxtpx="http://www.garmin.com/xmlschemas/TrackPointExtension/v1">
            <gpxtpx:hr>136</gpxtpx:hr>
          </gpxtpx:TrackPointExtension>
        </extensions>
      </trkpt>
      <trkpt lat="45.79359" lon="6.42841">
        <ele>1515</ele>
        <time>2020-07-05T06:37:44.000Z</time>
        <extensions>
          <gpxtpx:TrackPointExtension xmlns:gpxtpx="http://www.garmin.com/xmlschemas/TrackPointExtension/v1">
            <gpxtpx:hr>138</gpxtpx:hr>
          </gpxtpx:TrackPointExtension>
        </extensions>
      </trkpt>
      <trkpt lat="45.79357" lon="6.42854">
        <ele>1516</ele>
        <time>2020-07-05T06:37:47.000Z</time>
        <extensions>
          <gpxtpx:TrackPointExtension xmlns:gpxtpx="http://www.garmin.com/xmlschemas/TrackPointExtension/v1">
            <gpxtpx:hr>137</gpxtpx:hr>
          </gpxtpx:TrackPointExtension>
        </extensions>
      </trkpt>
      <trkpt lat="45.79355" lon="6.42871">
        <ele>1517</ele>
        <time>2020-07-05T06:37:51.000Z</time>
        <extensions>
          <gpxtpx:TrackPointExtension xmlns:gpxtpx="http://www.garmin.com/xmlschemas/TrackPointExtension/v1">
            <gpxtpx:hr>140</gpxtpx:hr>
          </gpxtpx:TrackPointExtension>
        </extensions>
      </trkpt>
      <trkpt lat="45.79355" lon="6.42876">
        <ele>1517.1999511719</ele>
        <time>2020-07-05T06:37:52.000Z</time>
        <extensions>
          <gpxtpx:TrackPointExtension xmlns:gpxtpx="http://www.garmin.com/xmlschemas/TrackPointExtension/v1">
            <gpxtpx:hr>140</gpxtpx:hr>
          </gpxtpx:TrackPointExtension>
        </extensions>
      </trkpt>
      <trkpt lat="45.79352" lon="6.42897">
        <ele>1518</ele>
        <time>2020-07-05T06:37:57.000Z</time>
        <extensions>
          <gpxtpx:TrackPointExtension xmlns:gpxtpx="http://www.garmin.com/xmlschemas/TrackPointExtension/v1">
            <gpxtpx:hr>141</gpxtpx:hr>
          </gpxtpx:TrackPointExtension>
        </extensions>
      </trkpt>
      <trkpt lat="45.7935" lon="6.42905">
        <ele>1518.4000244141</ele>
        <time>2020-07-05T06:37:59.000Z</time>
        <extensions>
          <gpxtpx:TrackPointExtension xmlns:gpxtpx="http://www.garmin.com/xmlschemas/TrackPointExtension/v1">
            <gpxtpx:hr>141</gpxtpx:hr>
          </gpxtpx:TrackPointExtension>
        </extensions>
      </trkpt>
      <trkpt lat="45.79348" lon="6.42934">
        <ele>1519.4000244141</ele>
        <time>2020-07-05T06:38:06.000Z</time>
        <extensions>
          <gpxtpx:TrackPointExtension xmlns:gpxtpx="http://www.garmin.com/xmlschemas/TrackPointExtension/v1">
            <gpxtpx:hr>143</gpxtpx:hr>
          </gpxtpx:TrackPointExtension>
        </extensions>
      </trkpt>
      <trkpt lat="45.79348" lon="6.42938">
        <ele>1519.4000244141</ele>
        <time>2020-07-05T06:38:07.000Z</time>
        <extensions>
          <gpxtpx:TrackPointExtension xmlns:gpxtpx="http://www.garmin.com/xmlschemas/TrackPointExtension/v1">
            <gpxtpx:hr>143</gpxtpx:hr>
          </gpxtpx:TrackPointExtension>
        </extensions>
      </trkpt>
      <trkpt lat="45.7935" lon="6.42953">
        <ele>1520.5999755859</ele>
        <time>2020-07-05T06:38:11.000Z</time>
        <extensions>
          <gpxtpx:TrackPointExtension xmlns:gpxtpx="http://www.garmin.com/xmlschemas/TrackPointExtension/v1">
            <gpxtpx:hr>142</gpxtpx:hr>
          </gpxtpx:TrackPointExtension>
        </extensions>
      </trkpt>
      <trkpt lat="45.79351" lon="6.42961">
        <ele>1520.8000488281</ele>
        <time>2020-07-05T06:38:13.000Z</time>
        <extensions>
          <gpxtpx:TrackPointExtension xmlns:gpxtpx="http://www.garmin.com/xmlschemas/TrackPointExtension/v1">
            <gpxtpx:hr>140</gpxtpx:hr>
          </gpxtpx:TrackPointExtension>
        </extensions>
      </trkpt>
      <trkpt lat="45.79351" lon="6.42968">
        <ele>1521.1999511719</ele>
        <time>2020-07-05T06:38:15.000Z</time>
        <extensions>
          <gpxtpx:TrackPointExtension xmlns:gpxtpx="http://www.garmin.com/xmlschemas/TrackPointExtension/v1">
            <gpxtpx:hr>137</gpxtpx:hr>
          </gpxtpx:TrackPointExtension>
        </extensions>
      </trkpt>
      <trkpt lat="45.79354" lon="6.42979">
        <ele>1521.5999755859</ele>
        <time>2020-07-05T06:38:18.000Z</time>
        <extensions>
          <gpxtpx:TrackPointExtension xmlns:gpxtpx="http://www.garmin.com/xmlschemas/TrackPointExtension/v1">
            <gpxtpx:hr>134</gpxtpx:hr>
          </gpxtpx:TrackPointExtension>
        </extensions>
      </trkpt>
      <trkpt lat="45.79357" lon="6.42986">
        <ele>1522.1999511719</ele>
        <time>2020-07-05T06:38:20.000Z</time>
        <extensions>
          <gpxtpx:TrackPointExtension xmlns:gpxtpx="http://www.garmin.com/xmlschemas/TrackPointExtension/v1">
            <gpxtpx:hr>130</gpxtpx:hr>
          </gpxtpx:TrackPointExtension>
        </extensions>
      </trkpt>
      <trkpt lat="45.79358" lon="6.42989">
        <ele>1522.4000244141</ele>
        <time>2020-07-05T06:38:21.000Z</time>
        <extensions>
          <gpxtpx:TrackPointExtension xmlns:gpxtpx="http://www.garmin.com/xmlschemas/TrackPointExtension/v1">
            <gpxtpx:hr>129</gpxtpx:hr>
          </gpxtpx:TrackPointExtension>
        </extensions>
      </trkpt>
      <trkpt lat="45.79359" lon="6.42992">
        <ele>1522.8000488281</ele>
        <time>2020-07-05T06:38:22.000Z</time>
        <extensions>
          <gpxtpx:TrackPointExtension xmlns:gpxtpx="http://www.garmin.com/xmlschemas/TrackPointExtension/v1">
            <gpxtpx:hr>128</gpxtpx:hr>
          </gpxtpx:TrackPointExtension>
        </extensions>
      </trkpt>
      <trkpt lat="45.79364" lon="6.43004">
        <ele>1523.8000488281</ele>
        <time>2020-07-05T06:38:26.000Z</time>
        <extensions>
          <gpxtpx:TrackPointExtension xmlns:gpxtpx="http://www.garmin.com/xmlschemas/TrackPointExtension/v1">
            <gpxtpx:hr>126</gpxtpx:hr>
          </gpxtpx:TrackPointExtension>
        </extensions>
      </trkpt>
      <trkpt lat="45.7937" lon="6.43016">
        <ele>1524.5999755859</ele>
        <time>2020-07-05T06:38:30.000Z</time>
        <extensions>
          <gpxtpx:TrackPointExtension xmlns:gpxtpx="http://www.garmin.com/xmlschemas/TrackPointExtension/v1">
            <gpxtpx:hr>126</gpxtpx:hr>
          </gpxtpx:TrackPointExtension>
        </extensions>
      </trkpt>
      <trkpt lat="45.79372" lon="6.43019">
        <ele>1524.8000488281</ele>
        <time>2020-07-05T06:38:31.000Z</time>
        <extensions>
          <gpxtpx:TrackPointExtension xmlns:gpxtpx="http://www.garmin.com/xmlschemas/TrackPointExtension/v1">
            <gpxtpx:hr>126</gpxtpx:hr>
          </gpxtpx:TrackPointExtension>
        </extensions>
      </trkpt>
      <trkpt lat="45.79379" lon="6.43033">
        <ele>1526</ele>
        <time>2020-07-05T06:38:36.000Z</time>
        <extensions>
          <gpxtpx:TrackPointExtension xmlns:gpxtpx="http://www.garmin.com/xmlschemas/TrackPointExtension/v1">
            <gpxtpx:hr>127</gpxtpx:hr>
          </gpxtpx:TrackPointExtension>
        </extensions>
      </trkpt>
      <trkpt lat="45.79386" lon="6.43047">
        <ele>1527</ele>
        <time>2020-07-05T06:38:41.000Z</time>
        <extensions>
          <gpxtpx:TrackPointExtension xmlns:gpxtpx="http://www.garmin.com/xmlschemas/TrackPointExtension/v1">
            <gpxtpx:hr>126</gpxtpx:hr>
          </gpxtpx:TrackPointExtension>
        </extensions>
      </trkpt>
      <trkpt lat="45.79395" lon="6.43063">
        <ele>1528.1999511719</ele>
        <time>2020-07-05T06:38:47.000Z</time>
        <extensions>
          <gpxtpx:TrackPointExtension xmlns:gpxtpx="http://www.garmin.com/xmlschemas/TrackPointExtension/v1">
            <gpxtpx:hr>127</gpxtpx:hr>
          </gpxtpx:TrackPointExtension>
        </extensions>
      </trkpt>
      <trkpt lat="45.79402" lon="6.43073">
        <ele>1529.1999511719</ele>
        <time>2020-07-05T06:38:51.000Z</time>
        <extensions>
          <gpxtpx:TrackPointExtension xmlns:gpxtpx="http://www.garmin.com/xmlschemas/TrackPointExtension/v1">
            <gpxtpx:hr>127</gpxtpx:hr>
          </gpxtpx:TrackPointExtension>
        </extensions>
      </trkpt>
      <trkpt lat="45.79404" lon="6.43076">
        <ele>1529.4000244141</ele>
        <time>2020-07-05T06:38:52.000Z</time>
        <extensions>
          <gpxtpx:TrackPointExtension xmlns:gpxtpx="http://www.garmin.com/xmlschemas/TrackPointExtension/v1">
            <gpxtpx:hr>127</gpxtpx:hr>
          </gpxtpx:TrackPointExtension>
        </extensions>
      </trkpt>
      <trkpt lat="45.79413" lon="6.43089">
        <ele>1530.4000244141</ele>
        <time>2020-07-05T06:38:57.000Z</time>
        <extensions>
          <gpxtpx:TrackPointExtension xmlns:gpxtpx="http://www.garmin.com/xmlschemas/TrackPointExtension/v1">
            <gpxtpx:hr>127</gpxtpx:hr>
          </gpxtpx:TrackPointExtension>
        </extensions>
      </trkpt>
      <trkpt lat="45.79415" lon="6.43091">
        <ele>1530.5999755859</ele>
        <time>2020-07-05T06:38:58.000Z</time>
        <extensions>
          <gpxtpx:TrackPointExtension xmlns:gpxtpx="http://www.garmin.com/xmlschemas/TrackPointExtension/v1">
            <gpxtpx:hr>127</gpxtpx:hr>
          </gpxtpx:TrackPointExtension>
        </extensions>
      </trkpt>
      <trkpt lat="45.79423" lon="6.43098">
        <ele>1531.5999755859</ele>
        <time>2020-07-05T06:39:02.000Z</time>
        <extensions>
          <gpxtpx:TrackPointExtension xmlns:gpxtpx="http://www.garmin.com/xmlschemas/TrackPointExtension/v1">
            <gpxtpx:hr>125</gpxtpx:hr>
          </gpxtpx:TrackPointExtension>
        </extensions>
      </trkpt>
      <trkpt lat="45.79427" lon="6.43098">
        <ele>1532</ele>
        <time>2020-07-05T06:39:04.000Z</time>
        <extensions>
          <gpxtpx:TrackPointExtension xmlns:gpxtpx="http://www.garmin.com/xmlschemas/TrackPointExtension/v1">
            <gpxtpx:hr>125</gpxtpx:hr>
          </gpxtpx:TrackPointExtension>
        </extensions>
      </trkpt>
      <trkpt lat="45.79429" lon="6.43098">
        <ele>1532.1999511719</ele>
        <time>2020-07-05T06:39:05.000Z</time>
        <extensions>
          <gpxtpx:TrackPointExtension xmlns:gpxtpx="http://www.garmin.com/xmlschemas/TrackPointExtension/v1">
            <gpxtpx:hr>124</gpxtpx:hr>
          </gpxtpx:TrackPointExtension>
        </extensions>
      </trkpt>
      <trkpt lat="45.79431" lon="6.43093">
        <ele>1532.5999755859</ele>
        <time>2020-07-05T06:39:07.000Z</time>
        <extensions>
          <gpxtpx:TrackPointExtension xmlns:gpxtpx="http://www.garmin.com/xmlschemas/TrackPointExtension/v1">
            <gpxtpx:hr>124</gpxtpx:hr>
          </gpxtpx:TrackPointExtension>
        </extensions>
      </trkpt>
      <trkpt lat="45.79432" lon="6.43089">
        <ele>1532.8000488281</ele>
        <time>2020-07-05T06:39:08.000Z</time>
        <extensions>
          <gpxtpx:TrackPointExtension xmlns:gpxtpx="http://www.garmin.com/xmlschemas/TrackPointExtension/v1">
            <gpxtpx:hr>124</gpxtpx:hr>
          </gpxtpx:TrackPointExtension>
        </extensions>
      </trkpt>
      <trkpt lat="45.7943" lon="6.4306">
        <ele>1533.5999755859</ele>
        <time>2020-07-05T06:39:15.000Z</time>
        <extensions>
          <gpxtpx:TrackPointExtension xmlns:gpxtpx="http://www.garmin.com/xmlschemas/TrackPointExtension/v1">
            <gpxtpx:hr>125</gpxtpx:hr>
          </gpxtpx:TrackPointExtension>
        </extensions>
      </trkpt>
      <trkpt lat="45.79429" lon="6.43052">
        <ele>1533.8000488281</ele>
        <time>2020-07-05T06:39:17.000Z</time>
        <extensions>
          <gpxtpx:TrackPointExtension xmlns:gpxtpx="http://www.garmin.com/xmlschemas/TrackPointExtension/v1">
            <gpxtpx:hr>125</gpxtpx:hr>
          </gpxtpx:TrackPointExtension>
        </extensions>
      </trkpt>
      <trkpt lat="45.79427" lon="6.43034">
        <ele>1535</ele>
        <time>2020-07-05T06:39:22.000Z</time>
        <extensions>
          <gpxtpx:TrackPointExtension xmlns:gpxtpx="http://www.garmin.com/xmlschemas/TrackPointExtension/v1">
            <gpxtpx:hr>126</gpxtpx:hr>
          </gpxtpx:TrackPointExtension>
        </extensions>
      </trkpt>
      <trkpt lat="45.79427" lon="6.43026">
        <ele>1535.1999511719</ele>
        <time>2020-07-05T06:39:24.000Z</time>
        <extensions>
          <gpxtpx:TrackPointExtension xmlns:gpxtpx="http://www.garmin.com/xmlschemas/TrackPointExtension/v1">
            <gpxtpx:hr>126</gpxtpx:hr>
          </gpxtpx:TrackPointExtension>
        </extensions>
      </trkpt>
      <trkpt lat="45.7943" lon="6.43018">
        <ele>1535.8000488281</ele>
        <time>2020-07-05T06:39:27.000Z</time>
        <extensions>
          <gpxtpx:TrackPointExtension xmlns:gpxtpx="http://www.garmin.com/xmlschemas/TrackPointExtension/v1">
            <gpxtpx:hr>126</gpxtpx:hr>
          </gpxtpx:TrackPointExtension>
        </extensions>
      </trkpt>
      <trkpt lat="45.79432" lon="6.43018">
        <ele>1536</ele>
        <time>2020-07-05T06:39:28.000Z</time>
        <extensions>
          <gpxtpx:TrackPointExtension xmlns:gpxtpx="http://www.garmin.com/xmlschemas/TrackPointExtension/v1">
            <gpxtpx:hr>126</gpxtpx:hr>
          </gpxtpx:TrackPointExtension>
        </extensions>
      </trkpt>
      <trkpt lat="45.79436" lon="6.43018">
        <ele>1536.8000488281</ele>
        <time>2020-07-05T06:39:30.000Z</time>
        <extensions>
          <gpxtpx:TrackPointExtension xmlns:gpxtpx="http://www.garmin.com/xmlschemas/TrackPointExtension/v1">
            <gpxtpx:hr>126</gpxtpx:hr>
          </gpxtpx:TrackPointExtension>
        </extensions>
      </trkpt>
      <trkpt lat="45.79438" lon="6.4302">
        <ele>1537.1999511719</ele>
        <time>2020-07-05T06:39:31.000Z</time>
        <extensions>
          <gpxtpx:TrackPointExtension xmlns:gpxtpx="http://www.garmin.com/xmlschemas/TrackPointExtension/v1">
            <gpxtpx:hr>126</gpxtpx:hr>
          </gpxtpx:TrackPointExtension>
        </extensions>
      </trkpt>
      <trkpt lat="45.7944" lon="6.43022">
        <ele>1537.4000244141</ele>
        <time>2020-07-05T06:39:32.000Z</time>
        <extensions>
          <gpxtpx:TrackPointExtension xmlns:gpxtpx="http://www.garmin.com/xmlschemas/TrackPointExtension/v1">
            <gpxtpx:hr>126</gpxtpx:hr>
          </gpxtpx:TrackPointExtension>
        </extensions>
      </trkpt>
      <trkpt lat="45.79445" lon="6.43031">
        <ele>1538.4000244141</ele>
        <time>2020-07-05T06:39:35.000Z</time>
        <extensions>
          <gpxtpx:TrackPointExtension xmlns:gpxtpx="http://www.garmin.com/xmlschemas/TrackPointExtension/v1">
            <gpxtpx:hr>127</gpxtpx:hr>
          </gpxtpx:TrackPointExtension>
        </extensions>
      </trkpt>
      <trkpt lat="45.79452" lon="6.43044">
        <ele>1539.5999755859</ele>
        <time>2020-07-05T06:39:39.000Z</time>
        <extensions>
          <gpxtpx:TrackPointExtension xmlns:gpxtpx="http://www.garmin.com/xmlschemas/TrackPointExtension/v1">
            <gpxtpx:hr>128</gpxtpx:hr>
          </gpxtpx:TrackPointExtension>
        </extensions>
      </trkpt>
      <trkpt lat="45.79454" lon="6.43047">
        <ele>1539.8000488281</ele>
        <time>2020-07-05T06:39:40.000Z</time>
        <extensions>
          <gpxtpx:TrackPointExtension xmlns:gpxtpx="http://www.garmin.com/xmlschemas/TrackPointExtension/v1">
            <gpxtpx:hr>130</gpxtpx:hr>
          </gpxtpx:TrackPointExtension>
        </extensions>
      </trkpt>
      <trkpt lat="45.79459" lon="6.43055">
        <ele>1540.8000488281</ele>
        <time>2020-07-05T06:39:43.000Z</time>
        <extensions>
          <gpxtpx:TrackPointExtension xmlns:gpxtpx="http://www.garmin.com/xmlschemas/TrackPointExtension/v1">
            <gpxtpx:hr>131</gpxtpx:hr>
          </gpxtpx:TrackPointExtension>
        </extensions>
      </trkpt>
      <trkpt lat="45.79467" lon="6.43067">
        <ele>1542</ele>
        <time>2020-07-05T06:39:47.000Z</time>
        <extensions>
          <gpxtpx:TrackPointExtension xmlns:gpxtpx="http://www.garmin.com/xmlschemas/TrackPointExtension/v1">
            <gpxtpx:hr>132</gpxtpx:hr>
          </gpxtpx:TrackPointExtension>
        </extensions>
      </trkpt>
      <trkpt lat="45.79471" lon="6.43072">
        <ele>1542.4000244141</ele>
        <time>2020-07-05T06:39:49.000Z</time>
        <extensions>
          <gpxtpx:TrackPointExtension xmlns:gpxtpx="http://www.garmin.com/xmlschemas/TrackPointExtension/v1">
            <gpxtpx:hr>133</gpxtpx:hr>
          </gpxtpx:TrackPointExtension>
        </extensions>
      </trkpt>
      <trkpt lat="45.79477" lon="6.43078">
        <ele>1543</ele>
        <time>2020-07-05T06:39:52.000Z</time>
        <extensions>
          <gpxtpx:TrackPointExtension xmlns:gpxtpx="http://www.garmin.com/xmlschemas/TrackPointExtension/v1">
            <gpxtpx:hr>134</gpxtpx:hr>
          </gpxtpx:TrackPointExtension>
        </extensions>
      </trkpt>
      <trkpt lat="45.79483" lon="6.43087">
        <ele>1544</ele>
        <time>2020-07-05T06:39:56.000Z</time>
        <extensions>
          <gpxtpx:TrackPointExtension xmlns:gpxtpx="http://www.garmin.com/xmlschemas/TrackPointExtension/v1">
            <gpxtpx:hr>131</gpxtpx:hr>
          </gpxtpx:TrackPointExtension>
        </extensions>
      </trkpt>
      <trkpt lat="45.79485" lon="6.4309">
        <ele>1544.1999511719</ele>
        <time>2020-07-05T06:39:57.000Z</time>
        <extensions>
          <gpxtpx:TrackPointExtension xmlns:gpxtpx="http://www.garmin.com/xmlschemas/TrackPointExtension/v1">
            <gpxtpx:hr>133</gpxtpx:hr>
          </gpxtpx:TrackPointExtension>
        </extensions>
      </trkpt>
      <trkpt lat="45.79497" lon="6.43104">
        <ele>1545.4000244141</ele>
        <time>2020-07-05T06:40:03.000Z</time>
        <extensions>
          <gpxtpx:TrackPointExtension xmlns:gpxtpx="http://www.garmin.com/xmlschemas/TrackPointExtension/v1">
            <gpxtpx:hr>134</gpxtpx:hr>
          </gpxtpx:TrackPointExtension>
        </extensions>
      </trkpt>
      <trkpt lat="45.79499" lon="6.43106">
        <ele>1545.8000488281</ele>
        <time>2020-07-05T06:40:04.000Z</time>
        <extensions>
          <gpxtpx:TrackPointExtension xmlns:gpxtpx="http://www.garmin.com/xmlschemas/TrackPointExtension/v1">
            <gpxtpx:hr>137</gpxtpx:hr>
          </gpxtpx:TrackPointExtension>
        </extensions>
      </trkpt>
      <trkpt lat="45.79507" lon="6.43116">
        <ele>1546.1999511719</ele>
        <time>2020-07-05T06:40:08.000Z</time>
        <extensions>
          <gpxtpx:TrackPointExtension xmlns:gpxtpx="http://www.garmin.com/xmlschemas/TrackPointExtension/v1">
            <gpxtpx:hr>135</gpxtpx:hr>
          </gpxtpx:TrackPointExtension>
        </extensions>
      </trkpt>
      <trkpt lat="45.7951" lon="6.43122">
        <ele>1546.5999755859</ele>
        <time>2020-07-05T06:40:10.000Z</time>
        <extensions>
          <gpxtpx:TrackPointExtension xmlns:gpxtpx="http://www.garmin.com/xmlschemas/TrackPointExtension/v1">
            <gpxtpx:hr>136</gpxtpx:hr>
          </gpxtpx:TrackPointExtension>
        </extensions>
      </trkpt>
      <trkpt lat="45.79516" lon="6.43129">
        <ele>1547.4000244141</ele>
        <time>2020-07-05T06:40:13.000Z</time>
        <extensions>
          <gpxtpx:TrackPointExtension xmlns:gpxtpx="http://www.garmin.com/xmlschemas/TrackPointExtension/v1">
            <gpxtpx:hr>133</gpxtpx:hr>
          </gpxtpx:TrackPointExtension>
        </extensions>
      </trkpt>
      <trkpt lat="45.79521" lon="6.43138">
        <ele>1547.8000488281</ele>
        <time>2020-07-05T06:40:16.000Z</time>
        <extensions>
          <gpxtpx:TrackPointExtension xmlns:gpxtpx="http://www.garmin.com/xmlschemas/TrackPointExtension/v1">
            <gpxtpx:hr>131</gpxtpx:hr>
          </gpxtpx:TrackPointExtension>
        </extensions>
      </trkpt>
      <trkpt lat="45.79522" lon="6.4314">
        <ele>1548</ele>
        <time>2020-07-05T06:40:17.000Z</time>
        <extensions>
          <gpxtpx:TrackPointExtension xmlns:gpxtpx="http://www.garmin.com/xmlschemas/TrackPointExtension/v1">
            <gpxtpx:hr>133</gpxtpx:hr>
          </gpxtpx:TrackPointExtension>
        </extensions>
      </trkpt>
      <trkpt lat="45.79528" lon="6.4315">
        <ele>1548.8000488281</ele>
        <time>2020-07-05T06:40:21.000Z</time>
        <extensions>
          <gpxtpx:TrackPointExtension xmlns:gpxtpx="http://www.garmin.com/xmlschemas/TrackPointExtension/v1">
            <gpxtpx:hr>131</gpxtpx:hr>
          </gpxtpx:TrackPointExtension>
        </extensions>
      </trkpt>
      <trkpt lat="45.79536" lon="6.43166">
        <ele>1549.5999755859</ele>
        <time>2020-07-05T06:40:26.000Z</time>
        <extensions>
          <gpxtpx:TrackPointExtension xmlns:gpxtpx="http://www.garmin.com/xmlschemas/TrackPointExtension/v1">
            <gpxtpx:hr>129</gpxtpx:hr>
          </gpxtpx:TrackPointExtension>
        </extensions>
      </trkpt>
      <trkpt lat="45.79538" lon="6.43176">
        <ele>1550</ele>
        <time>2020-07-05T06:40:29.000Z</time>
        <extensions>
          <gpxtpx:TrackPointExtension xmlns:gpxtpx="http://www.garmin.com/xmlschemas/TrackPointExtension/v1">
            <gpxtpx:hr>125</gpxtpx:hr>
          </gpxtpx:TrackPointExtension>
        </extensions>
      </trkpt>
      <trkpt lat="45.79539" lon="6.43189">
        <ele>1551</ele>
        <time>2020-07-05T06:40:33.000Z</time>
        <extensions>
          <gpxtpx:TrackPointExtension xmlns:gpxtpx="http://www.garmin.com/xmlschemas/TrackPointExtension/v1">
            <gpxtpx:hr>124</gpxtpx:hr>
          </gpxtpx:TrackPointExtension>
        </extensions>
      </trkpt>
      <trkpt lat="45.79541" lon="6.43205">
        <ele>1552</ele>
        <time>2020-07-05T06:40:38.000Z</time>
        <extensions>
          <gpxtpx:TrackPointExtension xmlns:gpxtpx="http://www.garmin.com/xmlschemas/TrackPointExtension/v1">
            <gpxtpx:hr>123</gpxtpx:hr>
          </gpxtpx:TrackPointExtension>
        </extensions>
      </trkpt>
      <trkpt lat="45.79543" lon="6.43215">
        <ele>1552.8000488281</ele>
        <time>2020-07-05T06:40:41.000Z</time>
        <extensions>
          <gpxtpx:TrackPointExtension xmlns:gpxtpx="http://www.garmin.com/xmlschemas/TrackPointExtension/v1">
            <gpxtpx:hr>123</gpxtpx:hr>
          </gpxtpx:TrackPointExtension>
        </extensions>
      </trkpt>
      <trkpt lat="45.79545" lon="6.43221">
        <ele>1553.4000244141</ele>
        <time>2020-07-05T06:40:43.000Z</time>
        <extensions>
          <gpxtpx:TrackPointExtension xmlns:gpxtpx="http://www.garmin.com/xmlschemas/TrackPointExtension/v1">
            <gpxtpx:hr>123</gpxtpx:hr>
          </gpxtpx:TrackPointExtension>
        </extensions>
      </trkpt>
      <trkpt lat="45.79551" lon="6.43231">
        <ele>1554.5999755859</ele>
        <time>2020-07-05T06:40:47.000Z</time>
        <extensions>
          <gpxtpx:TrackPointExtension xmlns:gpxtpx="http://www.garmin.com/xmlschemas/TrackPointExtension/v1">
            <gpxtpx:hr>123</gpxtpx:hr>
          </gpxtpx:TrackPointExtension>
        </extensions>
      </trkpt>
      <trkpt lat="45.79557" lon="6.43238">
        <ele>1555.4000244141</ele>
        <time>2020-07-05T06:40:50.000Z</time>
        <extensions>
          <gpxtpx:TrackPointExtension xmlns:gpxtpx="http://www.garmin.com/xmlschemas/TrackPointExtension/v1">
            <gpxtpx:hr>124</gpxtpx:hr>
          </gpxtpx:TrackPointExtension>
        </extensions>
      </trkpt>
      <trkpt lat="45.79558" lon="6.4324">
        <ele>1555.5999755859</ele>
        <time>2020-07-05T06:40:51.000Z</time>
        <extensions>
          <gpxtpx:TrackPointExtension xmlns:gpxtpx="http://www.garmin.com/xmlschemas/TrackPointExtension/v1">
            <gpxtpx:hr>124</gpxtpx:hr>
          </gpxtpx:TrackPointExtension>
        </extensions>
      </trkpt>
      <trkpt lat="45.79566" lon="6.43247">
        <ele>1556.5999755859</ele>
        <time>2020-07-05T06:40:55.000Z</time>
        <extensions>
          <gpxtpx:TrackPointExtension xmlns:gpxtpx="http://www.garmin.com/xmlschemas/TrackPointExtension/v1">
            <gpxtpx:hr>126</gpxtpx:hr>
          </gpxtpx:TrackPointExtension>
        </extensions>
      </trkpt>
      <trkpt lat="45.7957" lon="6.43251">
        <ele>1557.1999511719</ele>
        <time>2020-07-05T06:40:57.000Z</time>
        <extensions>
          <gpxtpx:TrackPointExtension xmlns:gpxtpx="http://www.garmin.com/xmlschemas/TrackPointExtension/v1">
            <gpxtpx:hr>127</gpxtpx:hr>
          </gpxtpx:TrackPointExtension>
        </extensions>
      </trkpt>
      <trkpt lat="45.79574" lon="6.43253">
        <ele>1557.5999755859</ele>
        <time>2020-07-05T06:40:59.000Z</time>
        <extensions>
          <gpxtpx:TrackPointExtension xmlns:gpxtpx="http://www.garmin.com/xmlschemas/TrackPointExtension/v1">
            <gpxtpx:hr>128</gpxtpx:hr>
          </gpxtpx:TrackPointExtension>
        </extensions>
      </trkpt>
      <trkpt lat="45.79584" lon="6.43254">
        <ele>1558.5999755859</ele>
        <time>2020-07-05T06:41:03.000Z</time>
        <extensions>
          <gpxtpx:TrackPointExtension xmlns:gpxtpx="http://www.garmin.com/xmlschemas/TrackPointExtension/v1">
            <gpxtpx:hr>129</gpxtpx:hr>
          </gpxtpx:TrackPointExtension>
        </extensions>
      </trkpt>
      <trkpt lat="45.79586" lon="6.43254">
        <ele>1558.8000488281</ele>
        <time>2020-07-05T06:41:04.000Z</time>
        <extensions>
          <gpxtpx:TrackPointExtension xmlns:gpxtpx="http://www.garmin.com/xmlschemas/TrackPointExtension/v1">
            <gpxtpx:hr>130</gpxtpx:hr>
          </gpxtpx:TrackPointExtension>
        </extensions>
      </trkpt>
      <trkpt lat="45.79592" lon="6.43244">
        <ele>1559.8000488281</ele>
        <time>2020-07-05T06:41:08.000Z</time>
        <extensions>
          <gpxtpx:TrackPointExtension xmlns:gpxtpx="http://www.garmin.com/xmlschemas/TrackPointExtension/v1">
            <gpxtpx:hr>130</gpxtpx:hr>
          </gpxtpx:TrackPointExtension>
        </extensions>
      </trkpt>
      <trkpt lat="45.7959" lon="6.43225">
        <ele>1560.8000488281</ele>
        <time>2020-07-05T06:41:13.000Z</time>
        <extensions>
          <gpxtpx:TrackPointExtension xmlns:gpxtpx="http://www.garmin.com/xmlschemas/TrackPointExtension/v1">
            <gpxtpx:hr>129</gpxtpx:hr>
          </gpxtpx:TrackPointExtension>
        </extensions>
      </trkpt>
      <trkpt lat="45.79589" lon="6.43222">
        <ele>1561</ele>
        <time>2020-07-05T06:41:14.000Z</time>
        <extensions>
          <gpxtpx:TrackPointExtension xmlns:gpxtpx="http://www.garmin.com/xmlschemas/TrackPointExtension/v1">
            <gpxtpx:hr>129</gpxtpx:hr>
          </gpxtpx:TrackPointExtension>
        </extensions>
      </trkpt>
      <trkpt lat="45.79585" lon="6.43211">
        <ele>1561.8000488281</ele>
        <time>2020-07-05T06:41:17.000Z</time>
        <extensions>
          <gpxtpx:TrackPointExtension xmlns:gpxtpx="http://www.garmin.com/xmlschemas/TrackPointExtension/v1">
            <gpxtpx:hr>129</gpxtpx:hr>
          </gpxtpx:TrackPointExtension>
        </extensions>
      </trkpt>
      <trkpt lat="45.79578" lon="6.4319">
        <ele>1562.8000488281</ele>
        <time>2020-07-05T06:41:23.000Z</time>
        <extensions>
          <gpxtpx:TrackPointExtension xmlns:gpxtpx="http://www.garmin.com/xmlschemas/TrackPointExtension/v1">
            <gpxtpx:hr>129</gpxtpx:hr>
          </gpxtpx:TrackPointExtension>
        </extensions>
      </trkpt>
      <trkpt lat="45.79576" lon="6.43183">
        <ele>1563</ele>
        <time>2020-07-05T06:41:25.000Z</time>
        <extensions>
          <gpxtpx:TrackPointExtension xmlns:gpxtpx="http://www.garmin.com/xmlschemas/TrackPointExtension/v1">
            <gpxtpx:hr>128</gpxtpx:hr>
          </gpxtpx:TrackPointExtension>
        </extensions>
      </trkpt>
      <trkpt lat="45.79576" lon="6.43177">
        <ele>1563.8000488281</ele>
        <time>2020-07-05T06:41:28.000Z</time>
        <extensions>
          <gpxtpx:TrackPointExtension xmlns:gpxtpx="http://www.garmin.com/xmlschemas/TrackPointExtension/v1">
            <gpxtpx:hr>128</gpxtpx:hr>
          </gpxtpx:TrackPointExtension>
        </extensions>
      </trkpt>
      <trkpt lat="45.79577" lon="6.43174">
        <ele>1564</ele>
        <time>2020-07-05T06:41:29.000Z</time>
        <extensions>
          <gpxtpx:TrackPointExtension xmlns:gpxtpx="http://www.garmin.com/xmlschemas/TrackPointExtension/v1">
            <gpxtpx:hr>127</gpxtpx:hr>
          </gpxtpx:TrackPointExtension>
        </extensions>
      </trkpt>
      <trkpt lat="45.79584" lon="6.43168">
        <ele>1564.8000488281</ele>
        <time>2020-07-05T06:41:32.000Z</time>
        <extensions>
          <gpxtpx:TrackPointExtension xmlns:gpxtpx="http://www.garmin.com/xmlschemas/TrackPointExtension/v1">
            <gpxtpx:hr>127</gpxtpx:hr>
          </gpxtpx:TrackPointExtension>
        </extensions>
      </trkpt>
      <trkpt lat="45.79587" lon="6.43168">
        <ele>1565.1999511719</ele>
        <time>2020-07-05T06:41:33.000Z</time>
        <extensions>
          <gpxtpx:TrackPointExtension xmlns:gpxtpx="http://www.garmin.com/xmlschemas/TrackPointExtension/v1">
            <gpxtpx:hr>127</gpxtpx:hr>
          </gpxtpx:TrackPointExtension>
        </extensions>
      </trkpt>
      <trkpt lat="45.79597" lon="6.43173">
        <ele>1566.4000244141</ele>
        <time>2020-07-05T06:41:37.000Z</time>
        <extensions>
          <gpxtpx:TrackPointExtension xmlns:gpxtpx="http://www.garmin.com/xmlschemas/TrackPointExtension/v1">
            <gpxtpx:hr>128</gpxtpx:hr>
          </gpxtpx:TrackPointExtension>
        </extensions>
      </trkpt>
      <trkpt lat="45.79608" lon="6.43186">
        <ele>1567.5999755859</ele>
        <time>2020-07-05T06:41:42.000Z</time>
        <extensions>
          <gpxtpx:TrackPointExtension xmlns:gpxtpx="http://www.garmin.com/xmlschemas/TrackPointExtension/v1">
            <gpxtpx:hr>128</gpxtpx:hr>
          </gpxtpx:TrackPointExtension>
        </extensions>
      </trkpt>
      <trkpt lat="45.79616" lon="6.43195">
        <ele>1568.5999755859</ele>
        <time>2020-07-05T06:41:46.000Z</time>
        <extensions>
          <gpxtpx:TrackPointExtension xmlns:gpxtpx="http://www.garmin.com/xmlschemas/TrackPointExtension/v1">
            <gpxtpx:hr>129</gpxtpx:hr>
          </gpxtpx:TrackPointExtension>
        </extensions>
      </trkpt>
      <trkpt lat="45.79618" lon="6.43197">
        <ele>1568.8000488281</ele>
        <time>2020-07-05T06:41:47.000Z</time>
        <extensions>
          <gpxtpx:TrackPointExtension xmlns:gpxtpx="http://www.garmin.com/xmlschemas/TrackPointExtension/v1">
            <gpxtpx:hr>129</gpxtpx:hr>
          </gpxtpx:TrackPointExtension>
        </extensions>
      </trkpt>
      <trkpt lat="45.79629" lon="6.43209">
        <ele>1570</ele>
        <time>2020-07-05T06:41:52.000Z</time>
        <extensions>
          <gpxtpx:TrackPointExtension xmlns:gpxtpx="http://www.garmin.com/xmlschemas/TrackPointExtension/v1">
            <gpxtpx:hr>130</gpxtpx:hr>
          </gpxtpx:TrackPointExtension>
        </extensions>
      </trkpt>
      <trkpt lat="45.79633" lon="6.43214">
        <ele>1570.4000244141</ele>
        <time>2020-07-05T06:41:54.000Z</time>
        <extensions>
          <gpxtpx:TrackPointExtension xmlns:gpxtpx="http://www.garmin.com/xmlschemas/TrackPointExtension/v1">
            <gpxtpx:hr>130</gpxtpx:hr>
          </gpxtpx:TrackPointExtension>
        </extensions>
      </trkpt>
      <trkpt lat="45.79639" lon="6.43222">
        <ele>1571</ele>
        <time>2020-07-05T06:41:57.000Z</time>
        <extensions>
          <gpxtpx:TrackPointExtension xmlns:gpxtpx="http://www.garmin.com/xmlschemas/TrackPointExtension/v1">
            <gpxtpx:hr>129</gpxtpx:hr>
          </gpxtpx:TrackPointExtension>
        </extensions>
      </trkpt>
      <trkpt lat="45.79653" lon="6.4324">
        <ele>1571.8000488281</ele>
        <time>2020-07-05T06:42:03.000Z</time>
        <extensions>
          <gpxtpx:TrackPointExtension xmlns:gpxtpx="http://www.garmin.com/xmlschemas/TrackPointExtension/v1">
            <gpxtpx:hr>129</gpxtpx:hr>
          </gpxtpx:TrackPointExtension>
        </extensions>
      </trkpt>
      <trkpt lat="45.79655" lon="6.43244">
        <ele>1572</ele>
        <time>2020-07-05T06:42:04.000Z</time>
        <extensions>
          <gpxtpx:TrackPointExtension xmlns:gpxtpx="http://www.garmin.com/xmlschemas/TrackPointExtension/v1">
            <gpxtpx:hr>129</gpxtpx:hr>
          </gpxtpx:TrackPointExtension>
        </extensions>
      </trkpt>
      <trkpt lat="45.79666" lon="6.43266">
        <ele>1573</ele>
        <time>2020-07-05T06:42:10.000Z</time>
        <extensions>
          <gpxtpx:TrackPointExtension xmlns:gpxtpx="http://www.garmin.com/xmlschemas/TrackPointExtension/v1">
            <gpxtpx:hr>128</gpxtpx:hr>
          </gpxtpx:TrackPointExtension>
        </extensions>
      </trkpt>
      <trkpt lat="45.79667" lon="6.4327">
        <ele>1573.4000244141</ele>
        <time>2020-07-05T06:42:11.000Z</time>
        <extensions>
          <gpxtpx:TrackPointExtension xmlns:gpxtpx="http://www.garmin.com/xmlschemas/TrackPointExtension/v1">
            <gpxtpx:hr>128</gpxtpx:hr>
          </gpxtpx:TrackPointExtension>
        </extensions>
      </trkpt>
      <trkpt lat="45.79673" lon="6.43287">
        <ele>1574.1999511719</ele>
        <time>2020-07-05T06:42:15.000Z</time>
        <extensions>
          <gpxtpx:TrackPointExtension xmlns:gpxtpx="http://www.garmin.com/xmlschemas/TrackPointExtension/v1">
            <gpxtpx:hr>128</gpxtpx:hr>
          </gpxtpx:TrackPointExtension>
        </extensions>
      </trkpt>
      <trkpt lat="45.79677" lon="6.433">
        <ele>1574.5999755859</ele>
        <time>2020-07-05T06:42:18.000Z</time>
        <extensions>
          <gpxtpx:TrackPointExtension xmlns:gpxtpx="http://www.garmin.com/xmlschemas/TrackPointExtension/v1">
            <gpxtpx:hr>128</gpxtpx:hr>
          </gpxtpx:TrackPointExtension>
        </extensions>
      </trkpt>
      <trkpt lat="45.79684" lon="6.43328">
        <ele>1575.1999511719</ele>
        <time>2020-07-05T06:42:24.000Z</time>
        <extensions>
          <gpxtpx:TrackPointExtension xmlns:gpxtpx="http://www.garmin.com/xmlschemas/TrackPointExtension/v1">
            <gpxtpx:hr>131</gpxtpx:hr>
          </gpxtpx:TrackPointExtension>
        </extensions>
      </trkpt>
      <trkpt lat="45.79685" lon="6.43332">
        <ele>1575.1999511719</ele>
        <time>2020-07-05T06:42:25.000Z</time>
        <extensions>
          <gpxtpx:TrackPointExtension xmlns:gpxtpx="http://www.garmin.com/xmlschemas/TrackPointExtension/v1">
            <gpxtpx:hr>133</gpxtpx:hr>
          </gpxtpx:TrackPointExtension>
        </extensions>
      </trkpt>
      <trkpt lat="45.79686" lon="6.43337">
        <ele>1575.4000244141</ele>
        <time>2020-07-05T06:42:26.000Z</time>
        <extensions>
          <gpxtpx:TrackPointExtension xmlns:gpxtpx="http://www.garmin.com/xmlschemas/TrackPointExtension/v1">
            <gpxtpx:hr>134</gpxtpx:hr>
          </gpxtpx:TrackPointExtension>
        </extensions>
      </trkpt>
      <trkpt lat="45.79689" lon="6.43364">
        <ele>1575.4000244141</ele>
        <time>2020-07-05T06:42:32.000Z</time>
        <extensions>
          <gpxtpx:TrackPointExtension xmlns:gpxtpx="http://www.garmin.com/xmlschemas/TrackPointExtension/v1">
            <gpxtpx:hr>130</gpxtpx:hr>
          </gpxtpx:TrackPointExtension>
        </extensions>
      </trkpt>
      <trkpt lat="45.79689" lon="6.43367">
        <ele>1575.4000244141</ele>
        <time>2020-07-05T06:42:33.000Z</time>
        <extensions>
          <gpxtpx:TrackPointExtension xmlns:gpxtpx="http://www.garmin.com/xmlschemas/TrackPointExtension/v1">
            <gpxtpx:hr>129</gpxtpx:hr>
          </gpxtpx:TrackPointExtension>
        </extensions>
      </trkpt>
      <trkpt lat="45.79689" lon="6.4337">
        <ele>1575.4000244141</ele>
        <time>2020-07-05T06:42:35.000Z</time>
        <extensions>
          <gpxtpx:TrackPointExtension xmlns:gpxtpx="http://www.garmin.com/xmlschemas/TrackPointExtension/v1">
            <gpxtpx:hr>126</gpxtpx:hr>
          </gpxtpx:TrackPointExtension>
        </extensions>
      </trkpt>
      <trkpt lat="45.79688" lon="6.43369">
        <ele>1575.4000244141</ele>
        <time>2020-07-05T06:42:37.000Z</time>
        <extensions>
          <gpxtpx:TrackPointExtension xmlns:gpxtpx="http://www.garmin.com/xmlschemas/TrackPointExtension/v1">
            <gpxtpx:hr>123</gpxtpx:hr>
          </gpxtpx:TrackPointExtension>
        </extensions>
      </trkpt>
      <trkpt lat="45.79688" lon="6.43369">
        <ele>1575.5999755859</ele>
        <time>2020-07-05T06:42:39.000Z</time>
        <extensions>
          <gpxtpx:TrackPointExtension xmlns:gpxtpx="http://www.garmin.com/xmlschemas/TrackPointExtension/v1">
            <gpxtpx:hr>120</gpxtpx:hr>
          </gpxtpx:TrackPointExtension>
        </extensions>
      </trkpt>
      <trkpt lat="45.79688" lon="6.43369">
        <ele>1575.5999755859</ele>
        <time>2020-07-05T06:42:41.000Z</time>
        <extensions>
          <gpxtpx:TrackPointExtension xmlns:gpxtpx="http://www.garmin.com/xmlschemas/TrackPointExtension/v1">
            <gpxtpx:hr>117</gpxtpx:hr>
          </gpxtpx:TrackPointExtension>
        </extensions>
      </trkpt>
      <trkpt lat="45.79688" lon="6.43369">
        <ele>1575.5999755859</ele>
        <time>2020-07-05T06:42:43.000Z</time>
        <extensions>
          <gpxtpx:TrackPointExtension xmlns:gpxtpx="http://www.garmin.com/xmlschemas/TrackPointExtension/v1">
            <gpxtpx:hr>114</gpxtpx:hr>
          </gpxtpx:TrackPointExtension>
        </extensions>
      </trkpt>
      <trkpt lat="45.79688" lon="6.43369">
        <ele>1575.5999755859</ele>
        <time>2020-07-05T06:42:46.000Z</time>
        <extensions>
          <gpxtpx:TrackPointExtension xmlns:gpxtpx="http://www.garmin.com/xmlschemas/TrackPointExtension/v1">
            <gpxtpx:hr>111</gpxtpx:hr>
          </gpxtpx:TrackPointExtension>
        </extensions>
      </trkpt>
      <trkpt lat="45.79688" lon="6.43369">
        <ele>1575.5999755859</ele>
        <time>2020-07-05T06:42:50.000Z</time>
        <extensions>
          <gpxtpx:TrackPointExtension xmlns:gpxtpx="http://www.garmin.com/xmlschemas/TrackPointExtension/v1">
            <gpxtpx:hr>110</gpxtpx:hr>
          </gpxtpx:TrackPointExtension>
        </extensions>
      </trkpt>
      <trkpt lat="45.79688" lon="6.43369">
        <ele>1575.4000244141</ele>
        <time>2020-07-05T06:42:56.000Z</time>
        <extensions>
          <gpxtpx:TrackPointExtension xmlns:gpxtpx="http://www.garmin.com/xmlschemas/TrackPointExtension/v1">
            <gpxtpx:hr>107</gpxtpx:hr>
          </gpxtpx:TrackPointExtension>
        </extensions>
      </trkpt>
      <trkpt lat="45.79688" lon="6.43369">
        <ele>1575.5999755859</ele>
        <time>2020-07-05T06:43:01.000Z</time>
        <extensions>
          <gpxtpx:TrackPointExtension xmlns:gpxtpx="http://www.garmin.com/xmlschemas/TrackPointExtension/v1">
            <gpxtpx:hr>104</gpxtpx:hr>
          </gpxtpx:TrackPointExtension>
        </extensions>
      </trkpt>
      <trkpt lat="45.79688" lon="6.4337">
        <ele>1575.5999755859</ele>
        <time>2020-07-05T06:43:20.000Z</time>
        <extensions>
          <gpxtpx:TrackPointExtension xmlns:gpxtpx="http://www.garmin.com/xmlschemas/TrackPointExtension/v1">
            <gpxtpx:hr>102</gpxtpx:hr>
          </gpxtpx:TrackPointExtension>
        </extensions>
      </trkpt>
      <trkpt lat="45.79688" lon="6.43379">
        <ele>1575.5999755859</ele>
        <time>2020-07-05T06:43:23.000Z</time>
        <extensions>
          <gpxtpx:TrackPointExtension xmlns:gpxtpx="http://www.garmin.com/xmlschemas/TrackPointExtension/v1">
            <gpxtpx:hr>101</gpxtpx:hr>
          </gpxtpx:TrackPointExtension>
        </extensions>
      </trkpt>
      <trkpt lat="45.79687" lon="6.43403">
        <ele>1576.1999511719</ele>
        <time>2020-07-05T06:43:28.000Z</time>
        <extensions>
          <gpxtpx:TrackPointExtension xmlns:gpxtpx="http://www.garmin.com/xmlschemas/TrackPointExtension/v1">
            <gpxtpx:hr>104</gpxtpx:hr>
          </gpxtpx:TrackPointExtension>
        </extensions>
      </trkpt>
      <trkpt lat="45.79687" lon="6.43409">
        <ele>1576.4000244141</ele>
        <time>2020-07-05T06:43:29.000Z</time>
        <extensions>
          <gpxtpx:TrackPointExtension xmlns:gpxtpx="http://www.garmin.com/xmlschemas/TrackPointExtension/v1">
            <gpxtpx:hr>106</gpxtpx:hr>
          </gpxtpx:TrackPointExtension>
        </extensions>
      </trkpt>
      <trkpt lat="45.79686" lon="6.43418">
        <ele>1576.8000488281</ele>
        <time>2020-07-05T06:43:31.000Z</time>
        <extensions>
          <gpxtpx:TrackPointExtension xmlns:gpxtpx="http://www.garmin.com/xmlschemas/TrackPointExtension/v1">
            <gpxtpx:hr>109</gpxtpx:hr>
          </gpxtpx:TrackPointExtension>
        </extensions>
      </trkpt>
      <trkpt lat="45.79686" lon="6.43427">
        <ele>1577.4000244141</ele>
        <time>2020-07-05T06:43:33.000Z</time>
        <extensions>
          <gpxtpx:TrackPointExtension xmlns:gpxtpx="http://www.garmin.com/xmlschemas/TrackPointExtension/v1">
            <gpxtpx:hr>112</gpxtpx:hr>
          </gpxtpx:TrackPointExtension>
        </extensions>
      </trkpt>
      <trkpt lat="45.79686" lon="6.43432">
        <ele>1577.8000488281</ele>
        <time>2020-07-05T06:43:34.000Z</time>
        <extensions>
          <gpxtpx:TrackPointExtension xmlns:gpxtpx="http://www.garmin.com/xmlschemas/TrackPointExtension/v1">
            <gpxtpx:hr>113</gpxtpx:hr>
          </gpxtpx:TrackPointExtension>
        </extensions>
      </trkpt>
      <trkpt lat="45.79685" lon="6.43445">
        <ele>1578.5999755859</ele>
        <time>2020-07-05T06:43:37.000Z</time>
        <extensions>
          <gpxtpx:TrackPointExtension xmlns:gpxtpx="http://www.garmin.com/xmlschemas/TrackPointExtension/v1">
            <gpxtpx:hr>116</gpxtpx:hr>
          </gpxtpx:TrackPointExtension>
        </extensions>
      </trkpt>
      <trkpt lat="45.79685" lon="6.4345">
        <ele>1578.8000488281</ele>
        <time>2020-07-05T06:43:38.000Z</time>
        <extensions>
          <gpxtpx:TrackPointExtension xmlns:gpxtpx="http://www.garmin.com/xmlschemas/TrackPointExtension/v1">
            <gpxtpx:hr>117</gpxtpx:hr>
          </gpxtpx:TrackPointExtension>
        </extensions>
      </trkpt>
      <trkpt lat="45.79685" lon="6.43454">
        <ele>1579.1999511719</ele>
        <time>2020-07-05T06:43:39.000Z</time>
        <extensions>
          <gpxtpx:TrackPointExtension xmlns:gpxtpx="http://www.garmin.com/xmlschemas/TrackPointExtension/v1">
            <gpxtpx:hr>118</gpxtpx:hr>
          </gpxtpx:TrackPointExtension>
        </extensions>
      </trkpt>
      <trkpt lat="45.79684" lon="6.43467">
        <ele>1580</ele>
        <time>2020-07-05T06:43:42.000Z</time>
        <extensions>
          <gpxtpx:TrackPointExtension xmlns:gpxtpx="http://www.garmin.com/xmlschemas/TrackPointExtension/v1">
            <gpxtpx:hr>120</gpxtpx:hr>
          </gpxtpx:TrackPointExtension>
        </extensions>
      </trkpt>
      <trkpt lat="45.79684" lon="6.43484">
        <ele>1581.1999511719</ele>
        <time>2020-07-05T06:43:46.000Z</time>
        <extensions>
          <gpxtpx:TrackPointExtension xmlns:gpxtpx="http://www.garmin.com/xmlschemas/TrackPointExtension/v1">
            <gpxtpx:hr>121</gpxtpx:hr>
          </gpxtpx:TrackPointExtension>
        </extensions>
      </trkpt>
      <trkpt lat="45.79684" lon="6.43493">
        <ele>1581.8000488281</ele>
        <time>2020-07-05T06:43:48.000Z</time>
        <extensions>
          <gpxtpx:TrackPointExtension xmlns:gpxtpx="http://www.garmin.com/xmlschemas/TrackPointExtension/v1">
            <gpxtpx:hr>120</gpxtpx:hr>
          </gpxtpx:TrackPointExtension>
        </extensions>
      </trkpt>
      <trkpt lat="45.79684" lon="6.43502">
        <ele>1582.4000244141</ele>
        <time>2020-07-05T06:43:50.000Z</time>
        <extensions>
          <gpxtpx:TrackPointExtension xmlns:gpxtpx="http://www.garmin.com/xmlschemas/TrackPointExtension/v1">
            <gpxtpx:hr>119</gpxtpx:hr>
          </gpxtpx:TrackPointExtension>
        </extensions>
      </trkpt>
      <trkpt lat="45.79684" lon="6.43523">
        <ele>1583.4000244141</ele>
        <time>2020-07-05T06:43:55.000Z</time>
        <extensions>
          <gpxtpx:TrackPointExtension xmlns:gpxtpx="http://www.garmin.com/xmlschemas/TrackPointExtension/v1">
            <gpxtpx:hr>119</gpxtpx:hr>
          </gpxtpx:TrackPointExtension>
        </extensions>
      </trkpt>
      <trkpt lat="45.79684" lon="6.43529">
        <ele>1584</ele>
        <time>2020-07-05T06:43:57.000Z</time>
        <extensions>
          <gpxtpx:TrackPointExtension xmlns:gpxtpx="http://www.garmin.com/xmlschemas/TrackPointExtension/v1">
            <gpxtpx:hr>119</gpxtpx:hr>
          </gpxtpx:TrackPointExtension>
        </extensions>
      </trkpt>
      <trkpt lat="45.79684" lon="6.43531">
        <ele>1584.4000244141</ele>
        <time>2020-07-05T06:43:58.000Z</time>
        <extensions>
          <gpxtpx:TrackPointExtension xmlns:gpxtpx="http://www.garmin.com/xmlschemas/TrackPointExtension/v1">
            <gpxtpx:hr>120</gpxtpx:hr>
          </gpxtpx:TrackPointExtension>
        </extensions>
      </trkpt>
      <trkpt lat="45.79683" lon="6.43533">
        <ele>1585.1999511719</ele>
        <time>2020-07-05T06:44:01.000Z</time>
        <extensions>
          <gpxtpx:TrackPointExtension xmlns:gpxtpx="http://www.garmin.com/xmlschemas/TrackPointExtension/v1">
            <gpxtpx:hr>121</gpxtpx:hr>
          </gpxtpx:TrackPointExtension>
        </extensions>
      </trkpt>
      <trkpt lat="45.79683" lon="6.43533">
        <ele>1585.4000244141</ele>
        <time>2020-07-05T06:44:03.000Z</time>
        <extensions>
          <gpxtpx:TrackPointExtension xmlns:gpxtpx="http://www.garmin.com/xmlschemas/TrackPointExtension/v1">
            <gpxtpx:hr>120</gpxtpx:hr>
          </gpxtpx:TrackPointExtension>
        </extensions>
      </trkpt>
      <trkpt lat="45.79683" lon="6.43533">
        <ele>1585.4000244141</ele>
        <time>2020-07-05T06:44:06.000Z</time>
        <extensions>
          <gpxtpx:TrackPointExtension xmlns:gpxtpx="http://www.garmin.com/xmlschemas/TrackPointExtension/v1">
            <gpxtpx:hr>117</gpxtpx:hr>
          </gpxtpx:TrackPointExtension>
        </extensions>
      </trkpt>
      <trkpt lat="45.79683" lon="6.43533">
        <ele>1585.4000244141</ele>
        <time>2020-07-05T06:44:10.000Z</time>
        <extensions>
          <gpxtpx:TrackPointExtension xmlns:gpxtpx="http://www.garmin.com/xmlschemas/TrackPointExtension/v1">
            <gpxtpx:hr>115</gpxtpx:hr>
          </gpxtpx:TrackPointExtension>
        </extensions>
      </trkpt>
      <trkpt lat="45.79683" lon="6.43533">
        <ele>1585.4000244141</ele>
        <time>2020-07-05T06:44:13.000Z</time>
        <extensions>
          <gpxtpx:TrackPointExtension xmlns:gpxtpx="http://www.garmin.com/xmlschemas/TrackPointExtension/v1">
            <gpxtpx:hr>112</gpxtpx:hr>
          </gpxtpx:TrackPointExtension>
        </extensions>
      </trkpt>
      <trkpt lat="45.79683" lon="6.43533">
        <ele>1585.4000244141</ele>
        <time>2020-07-05T06:44:17.000Z</time>
        <extensions>
          <gpxtpx:TrackPointExtension xmlns:gpxtpx="http://www.garmin.com/xmlschemas/TrackPointExtension/v1">
            <gpxtpx:hr>109</gpxtpx:hr>
          </gpxtpx:TrackPointExtension>
        </extensions>
      </trkpt>
      <trkpt lat="45.79683" lon="6.43533">
        <ele>1585.4000244141</ele>
        <time>2020-07-05T06:44:34.000Z</time>
        <extensions>
          <gpxtpx:TrackPointExtension xmlns:gpxtpx="http://www.garmin.com/xmlschemas/TrackPointExtension/v1">
            <gpxtpx:hr>106</gpxtpx:hr>
          </gpxtpx:TrackPointExtension>
        </extensions>
      </trkpt>
      <trkpt lat="45.79683" lon="6.43532">
        <ele>1585.1999511719</ele>
        <time>2020-07-05T06:44:45.000Z</time>
        <extensions>
          <gpxtpx:TrackPointExtension xmlns:gpxtpx="http://www.garmin.com/xmlschemas/TrackPointExtension/v1">
            <gpxtpx:hr>105</gpxtpx:hr>
          </gpxtpx:TrackPointExtension>
        </extensions>
      </trkpt>
      <trkpt lat="45.79683" lon="6.43532">
        <ele>1585.1999511719</ele>
        <time>2020-07-05T06:44:55.000Z</time>
        <extensions>
          <gpxtpx:TrackPointExtension xmlns:gpxtpx="http://www.garmin.com/xmlschemas/TrackPointExtension/v1">
            <gpxtpx:hr>102</gpxtpx:hr>
          </gpxtpx:TrackPointExtension>
        </extensions>
      </trkpt>
      <trkpt lat="45.79683" lon="6.43532">
        <ele>1585</ele>
        <time>2020-07-05T06:45:00.000Z</time>
        <extensions>
          <gpxtpx:TrackPointExtension xmlns:gpxtpx="http://www.garmin.com/xmlschemas/TrackPointExtension/v1">
            <gpxtpx:hr>99</gpxtpx:hr>
          </gpxtpx:TrackPointExtension>
        </extensions>
      </trkpt>
      <trkpt lat="45.79683" lon="6.43532">
        <ele>1585.1999511719</ele>
        <time>2020-07-05T06:45:14.000Z</time>
        <extensions>
          <gpxtpx:TrackPointExtension xmlns:gpxtpx="http://www.garmin.com/xmlschemas/TrackPointExtension/v1">
            <gpxtpx:hr>96</gpxtpx:hr>
          </gpxtpx:TrackPointExtension>
        </extensions>
      </trkpt>
      <trkpt lat="45.79683" lon="6.43532">
        <ele>1585.1999511719</ele>
        <time>2020-07-05T06:45:34.000Z</time>
        <extensions>
          <gpxtpx:TrackPointExtension xmlns:gpxtpx="http://www.garmin.com/xmlschemas/TrackPointExtension/v1">
            <gpxtpx:hr>97</gpxtpx:hr>
          </gpxtpx:TrackPointExtension>
        </extensions>
      </trkpt>
      <trkpt lat="45.79684" lon="6.43532">
        <ele>1585.1999511719</ele>
        <time>2020-07-05T06:45:37.000Z</time>
        <extensions>
          <gpxtpx:TrackPointExtension xmlns:gpxtpx="http://www.garmin.com/xmlschemas/TrackPointExtension/v1">
            <gpxtpx:hr>100</gpxtpx:hr>
          </gpxtpx:TrackPointExtension>
        </extensions>
      </trkpt>
      <trkpt lat="45.79684" lon="6.43533">
        <ele>1585.1999511719</ele>
        <time>2020-07-05T06:45:52.000Z</time>
        <extensions>
          <gpxtpx:TrackPointExtension xmlns:gpxtpx="http://www.garmin.com/xmlschemas/TrackPointExtension/v1">
            <gpxtpx:hr>103</gpxtpx:hr>
          </gpxtpx:TrackPointExtension>
        </extensions>
      </trkpt>
      <trkpt lat="45.79684" lon="6.43533">
        <ele>1585.1999511719</ele>
        <time>2020-07-05T06:45:55.000Z</time>
        <extensions>
          <gpxtpx:TrackPointExtension xmlns:gpxtpx="http://www.garmin.com/xmlschemas/TrackPointExtension/v1">
            <gpxtpx:hr>106</gpxtpx:hr>
          </gpxtpx:TrackPointExtension>
        </extensions>
      </trkpt>
      <trkpt lat="45.79684" lon="6.43533">
        <ele>1585.1999511719</ele>
        <time>2020-07-05T06:45:57.000Z</time>
        <extensions>
          <gpxtpx:TrackPointExtension xmlns:gpxtpx="http://www.garmin.com/xmlschemas/TrackPointExtension/v1">
            <gpxtpx:hr>109</gpxtpx:hr>
          </gpxtpx:TrackPointExtension>
        </extensions>
      </trkpt>
      <trkpt lat="45.79684" lon="6.43531">
        <ele>1585.1999511719</ele>
        <time>2020-07-05T06:46:01.000Z</time>
        <extensions>
          <gpxtpx:TrackPointExtension xmlns:gpxtpx="http://www.garmin.com/xmlschemas/TrackPointExtension/v1">
            <gpxtpx:hr>112</gpxtpx:hr>
          </gpxtpx:TrackPointExtension>
        </extensions>
      </trkpt>
      <trkpt lat="45.79683" lon="6.43532">
        <ele>1585.1999511719</ele>
        <time>2020-07-05T06:46:20.000Z</time>
        <extensions>
          <gpxtpx:TrackPointExtension xmlns:gpxtpx="http://www.garmin.com/xmlschemas/TrackPointExtension/v1">
            <gpxtpx:hr>114</gpxtpx:hr>
          </gpxtpx:TrackPointExtension>
        </extensions>
      </trkpt>
      <trkpt lat="45.79683" lon="6.43535">
        <ele>1585.1999511719</ele>
        <time>2020-07-05T06:46:39.000Z</time>
        <extensions>
          <gpxtpx:TrackPointExtension xmlns:gpxtpx="http://www.garmin.com/xmlschemas/TrackPointExtension/v1">
            <gpxtpx:hr>111</gpxtpx:hr>
          </gpxtpx:TrackPointExtension>
        </extensions>
      </trkpt>
      <trkpt lat="45.79683" lon="6.43535">
        <ele>1585.1999511719</ele>
        <time>2020-07-05T06:46:47.000Z</time>
        <extensions>
          <gpxtpx:TrackPointExtension xmlns:gpxtpx="http://www.garmin.com/xmlschemas/TrackPointExtension/v1">
            <gpxtpx:hr>114</gpxtpx:hr>
          </gpxtpx:TrackPointExtension>
        </extensions>
      </trkpt>
      <trkpt lat="45.79682" lon="6.43535">
        <ele>1585.1999511719</ele>
        <time>2020-07-05T06:47:03.000Z</time>
        <extensions>
          <gpxtpx:TrackPointExtension xmlns:gpxtpx="http://www.garmin.com/xmlschemas/TrackPointExtension/v1">
            <gpxtpx:hr>117</gpxtpx:hr>
          </gpxtpx:TrackPointExtension>
        </extensions>
      </trkpt>
      <trkpt lat="45.79682" lon="6.43534">
        <ele>1585.1999511719</ele>
        <time>2020-07-05T06:47:10.000Z</time>
        <extensions>
          <gpxtpx:TrackPointExtension xmlns:gpxtpx="http://www.garmin.com/xmlschemas/TrackPointExtension/v1">
            <gpxtpx:hr>115</gpxtpx:hr>
          </gpxtpx:TrackPointExtension>
        </extensions>
      </trkpt>
      <trkpt lat="45.79681" lon="6.43534">
        <ele>1585.1999511719</ele>
        <time>2020-07-05T06:47:13.000Z</time>
        <extensions>
          <gpxtpx:TrackPointExtension xmlns:gpxtpx="http://www.garmin.com/xmlschemas/TrackPointExtension/v1">
            <gpxtpx:hr>112</gpxtpx:hr>
          </gpxtpx:TrackPointExtension>
        </extensions>
      </trkpt>
      <trkpt lat="45.79681" lon="6.43534">
        <ele>1585.1999511719</ele>
        <time>2020-07-05T06:47:17.000Z</time>
        <extensions>
          <gpxtpx:TrackPointExtension xmlns:gpxtpx="http://www.garmin.com/xmlschemas/TrackPointExtension/v1">
            <gpxtpx:hr>109</gpxtpx:hr>
          </gpxtpx:TrackPointExtension>
        </extensions>
      </trkpt>
      <trkpt lat="45.79681" lon="6.43534">
        <ele>1585.1999511719</ele>
        <time>2020-07-05T06:47:23.000Z</time>
        <extensions>
          <gpxtpx:TrackPointExtension xmlns:gpxtpx="http://www.garmin.com/xmlschemas/TrackPointExtension/v1">
            <gpxtpx:hr>106</gpxtpx:hr>
          </gpxtpx:TrackPointExtension>
        </extensions>
      </trkpt>
      <trkpt lat="45.79681" lon="6.43535">
        <ele>1585.1999511719</ele>
        <time>2020-07-05T06:47:31.000Z</time>
        <extensions>
          <gpxtpx:TrackPointExtension xmlns:gpxtpx="http://www.garmin.com/xmlschemas/TrackPointExtension/v1">
            <gpxtpx:hr>104</gpxtpx:hr>
          </gpxtpx:TrackPointExtension>
        </extensions>
      </trkpt>
      <trkpt lat="45.79677" lon="6.43534">
        <ele>1585.1999511719</ele>
        <time>2020-07-05T06:47:33.000Z</time>
        <extensions>
          <gpxtpx:TrackPointExtension xmlns:gpxtpx="http://www.garmin.com/xmlschemas/TrackPointExtension/v1">
            <gpxtpx:hr>104</gpxtpx:hr>
          </gpxtpx:TrackPointExtension>
        </extensions>
      </trkpt>
      <trkpt lat="45.79665" lon="6.43537">
        <ele>1585.4000244141</ele>
        <time>2020-07-05T06:47:38.000Z</time>
        <extensions>
          <gpxtpx:TrackPointExtension xmlns:gpxtpx="http://www.garmin.com/xmlschemas/TrackPointExtension/v1">
            <gpxtpx:hr>105</gpxtpx:hr>
          </gpxtpx:TrackPointExtension>
        </extensions>
      </trkpt>
      <trkpt lat="45.79651" lon="6.43547">
        <ele>1585.8000488281</ele>
        <time>2020-07-05T06:47:44.000Z</time>
        <extensions>
          <gpxtpx:TrackPointExtension xmlns:gpxtpx="http://www.garmin.com/xmlschemas/TrackPointExtension/v1">
            <gpxtpx:hr>106</gpxtpx:hr>
          </gpxtpx:TrackPointExtension>
        </extensions>
      </trkpt>
      <trkpt lat="45.79639" lon="6.43561">
        <ele>1585.4000244141</ele>
        <time>2020-07-05T06:47:48.000Z</time>
        <extensions>
          <gpxtpx:TrackPointExtension xmlns:gpxtpx="http://www.garmin.com/xmlschemas/TrackPointExtension/v1">
            <gpxtpx:hr>108</gpxtpx:hr>
          </gpxtpx:TrackPointExtension>
        </extensions>
      </trkpt>
      <trkpt lat="45.79635" lon="6.43564">
        <ele>1585.4000244141</ele>
        <time>2020-07-05T06:47:49.000Z</time>
        <extensions>
          <gpxtpx:TrackPointExtension xmlns:gpxtpx="http://www.garmin.com/xmlschemas/TrackPointExtension/v1">
            <gpxtpx:hr>108</gpxtpx:hr>
          </gpxtpx:TrackPointExtension>
        </extensions>
      </trkpt>
      <trkpt lat="45.79611" lon="6.43584">
        <ele>1584.4000244141</ele>
        <time>2020-07-05T06:47:54.000Z</time>
        <extensions>
          <gpxtpx:TrackPointExtension xmlns:gpxtpx="http://www.garmin.com/xmlschemas/TrackPointExtension/v1">
            <gpxtpx:hr>107</gpxtpx:hr>
          </gpxtpx:TrackPointExtension>
        </extensions>
      </trkpt>
      <trkpt lat="45.79606" lon="6.4359">
        <ele>1584.1999511719</ele>
        <time>2020-07-05T06:47:55.000Z</time>
        <extensions>
          <gpxtpx:TrackPointExtension xmlns:gpxtpx="http://www.garmin.com/xmlschemas/TrackPointExtension/v1">
            <gpxtpx:hr>105</gpxtpx:hr>
          </gpxtpx:TrackPointExtension>
        </extensions>
      </trkpt>
      <trkpt lat="45.79602" lon="6.43597">
        <ele>1584.1999511719</ele>
        <time>2020-07-05T06:47:56.000Z</time>
        <extensions>
          <gpxtpx:TrackPointExtension xmlns:gpxtpx="http://www.garmin.com/xmlschemas/TrackPointExtension/v1">
            <gpxtpx:hr>104</gpxtpx:hr>
          </gpxtpx:TrackPointExtension>
        </extensions>
      </trkpt>
      <trkpt lat="45.79596" lon="6.43614">
        <ele>1583.5999755859</ele>
        <time>2020-07-05T06:47:58.000Z</time>
        <extensions>
          <gpxtpx:TrackPointExtension xmlns:gpxtpx="http://www.garmin.com/xmlschemas/TrackPointExtension/v1">
            <gpxtpx:hr>101</gpxtpx:hr>
          </gpxtpx:TrackPointExtension>
        </extensions>
      </trkpt>
      <trkpt lat="45.79596" lon="6.43634">
        <ele>1583</ele>
        <time>2020-07-05T06:48:00.000Z</time>
        <extensions>
          <gpxtpx:TrackPointExtension xmlns:gpxtpx="http://www.garmin.com/xmlschemas/TrackPointExtension/v1">
            <gpxtpx:hr>99</gpxtpx:hr>
          </gpxtpx:TrackPointExtension>
        </extensions>
      </trkpt>
      <trkpt lat="45.79598" lon="6.43655">
        <ele>1582.1999511719</ele>
        <time>2020-07-05T06:48:02.000Z</time>
        <extensions>
          <gpxtpx:TrackPointExtension xmlns:gpxtpx="http://www.garmin.com/xmlschemas/TrackPointExtension/v1">
            <gpxtpx:hr>97</gpxtpx:hr>
          </gpxtpx:TrackPointExtension>
        </extensions>
      </trkpt>
      <trkpt lat="45.796" lon="6.43666">
        <ele>1582</ele>
        <time>2020-07-05T06:48:03.000Z</time>
        <extensions>
          <gpxtpx:TrackPointExtension xmlns:gpxtpx="http://www.garmin.com/xmlschemas/TrackPointExtension/v1">
            <gpxtpx:hr>97</gpxtpx:hr>
          </gpxtpx:TrackPointExtension>
        </extensions>
      </trkpt>
      <trkpt lat="45.79608" lon="6.43697">
        <ele>1580.4000244141</ele>
        <time>2020-07-05T06:48:06.000Z</time>
        <extensions>
          <gpxtpx:TrackPointExtension xmlns:gpxtpx="http://www.garmin.com/xmlschemas/TrackPointExtension/v1">
            <gpxtpx:hr>95</gpxtpx:hr>
          </gpxtpx:TrackPointExtension>
        </extensions>
      </trkpt>
      <trkpt lat="45.79611" lon="6.43706">
        <ele>1579.5999755859</ele>
        <time>2020-07-05T06:48:07.000Z</time>
        <extensions>
          <gpxtpx:TrackPointExtension xmlns:gpxtpx="http://www.garmin.com/xmlschemas/TrackPointExtension/v1">
            <gpxtpx:hr>95</gpxtpx:hr>
          </gpxtpx:TrackPointExtension>
        </extensions>
      </trkpt>
      <trkpt lat="45.79614" lon="6.43716">
        <ele>1578.8000488281</ele>
        <time>2020-07-05T06:48:08.000Z</time>
        <extensions>
          <gpxtpx:TrackPointExtension xmlns:gpxtpx="http://www.garmin.com/xmlschemas/TrackPointExtension/v1">
            <gpxtpx:hr>94</gpxtpx:hr>
          </gpxtpx:TrackPointExtension>
        </extensions>
      </trkpt>
      <trkpt lat="45.79618" lon="6.43734">
        <ele>1577.5999755859</ele>
        <time>2020-07-05T06:48:10.000Z</time>
        <extensions>
          <gpxtpx:TrackPointExtension xmlns:gpxtpx="http://www.garmin.com/xmlschemas/TrackPointExtension/v1">
            <gpxtpx:hr>93</gpxtpx:hr>
          </gpxtpx:TrackPointExtension>
        </extensions>
      </trkpt>
      <trkpt lat="45.79619" lon="6.43744">
        <ele>1577</ele>
        <time>2020-07-05T06:48:11.000Z</time>
        <extensions>
          <gpxtpx:TrackPointExtension xmlns:gpxtpx="http://www.garmin.com/xmlschemas/TrackPointExtension/v1">
            <gpxtpx:hr>93</gpxtpx:hr>
          </gpxtpx:TrackPointExtension>
        </extensions>
      </trkpt>
      <trkpt lat="45.79618" lon="6.43753">
        <ele>1576.4000244141</ele>
        <time>2020-07-05T06:48:12.000Z</time>
        <extensions>
          <gpxtpx:TrackPointExtension xmlns:gpxtpx="http://www.garmin.com/xmlschemas/TrackPointExtension/v1">
            <gpxtpx:hr>93</gpxtpx:hr>
          </gpxtpx:TrackPointExtension>
        </extensions>
      </trkpt>
      <trkpt lat="45.79613" lon="6.43769">
        <ele>1574.8000488281</ele>
        <time>2020-07-05T06:48:14.000Z</time>
        <extensions>
          <gpxtpx:TrackPointExtension xmlns:gpxtpx="http://www.garmin.com/xmlschemas/TrackPointExtension/v1">
            <gpxtpx:hr>92</gpxtpx:hr>
          </gpxtpx:TrackPointExtension>
        </extensions>
      </trkpt>
      <trkpt lat="45.79601" lon="6.43778">
        <ele>1573.5999755859</ele>
        <time>2020-07-05T06:48:16.000Z</time>
        <extensions>
          <gpxtpx:TrackPointExtension xmlns:gpxtpx="http://www.garmin.com/xmlschemas/TrackPointExtension/v1">
            <gpxtpx:hr>91</gpxtpx:hr>
          </gpxtpx:TrackPointExtension>
        </extensions>
      </trkpt>
      <trkpt lat="45.79588" lon="6.43777">
        <ele>1572.4000244141</ele>
        <time>2020-07-05T06:48:18.000Z</time>
        <extensions>
          <gpxtpx:TrackPointExtension xmlns:gpxtpx="http://www.garmin.com/xmlschemas/TrackPointExtension/v1">
            <gpxtpx:hr>91</gpxtpx:hr>
          </gpxtpx:TrackPointExtension>
        </extensions>
      </trkpt>
      <trkpt lat="45.7958" lon="6.43775">
        <ele>1571.8000488281</ele>
        <time>2020-07-05T06:48:19.000Z</time>
        <extensions>
          <gpxtpx:TrackPointExtension xmlns:gpxtpx="http://www.garmin.com/xmlschemas/TrackPointExtension/v1">
            <gpxtpx:hr>90</gpxtpx:hr>
          </gpxtpx:TrackPointExtension>
        </extensions>
      </trkpt>
      <trkpt lat="45.79573" lon="6.43772">
        <ele>1571.1999511719</ele>
        <time>2020-07-05T06:48:20.000Z</time>
        <extensions>
          <gpxtpx:TrackPointExtension xmlns:gpxtpx="http://www.garmin.com/xmlschemas/TrackPointExtension/v1">
            <gpxtpx:hr>90</gpxtpx:hr>
          </gpxtpx:TrackPointExtension>
        </extensions>
      </trkpt>
      <trkpt lat="45.79548" lon="6.43762">
        <ele>1569.8000488281</ele>
        <time>2020-07-05T06:48:23.000Z</time>
        <extensions>
          <gpxtpx:TrackPointExtension xmlns:gpxtpx="http://www.garmin.com/xmlschemas/TrackPointExtension/v1">
            <gpxtpx:hr>90</gpxtpx:hr>
          </gpxtpx:TrackPointExtension>
        </extensions>
      </trkpt>
      <trkpt lat="45.79539" lon="6.43758">
        <ele>1569.1999511719</ele>
        <time>2020-07-05T06:48:24.000Z</time>
        <extensions>
          <gpxtpx:TrackPointExtension xmlns:gpxtpx="http://www.garmin.com/xmlschemas/TrackPointExtension/v1">
            <gpxtpx:hr>89</gpxtpx:hr>
          </gpxtpx:TrackPointExtension>
        </extensions>
      </trkpt>
      <trkpt lat="45.79531" lon="6.43755">
        <ele>1568.8000488281</ele>
        <time>2020-07-05T06:48:25.000Z</time>
        <extensions>
          <gpxtpx:TrackPointExtension xmlns:gpxtpx="http://www.garmin.com/xmlschemas/TrackPointExtension/v1">
            <gpxtpx:hr>89</gpxtpx:hr>
          </gpxtpx:TrackPointExtension>
        </extensions>
      </trkpt>
      <trkpt lat="45.79515" lon="6.43747">
        <ele>1567</ele>
        <time>2020-07-05T06:48:27.000Z</time>
        <extensions>
          <gpxtpx:TrackPointExtension xmlns:gpxtpx="http://www.garmin.com/xmlschemas/TrackPointExtension/v1">
            <gpxtpx:hr>89</gpxtpx:hr>
          </gpxtpx:TrackPointExtension>
        </extensions>
      </trkpt>
      <trkpt lat="45.79509" lon="6.43743">
        <ele>1565.8000488281</ele>
        <time>2020-07-05T06:48:28.000Z</time>
        <extensions>
          <gpxtpx:TrackPointExtension xmlns:gpxtpx="http://www.garmin.com/xmlschemas/TrackPointExtension/v1">
            <gpxtpx:hr>90</gpxtpx:hr>
          </gpxtpx:TrackPointExtension>
        </extensions>
      </trkpt>
      <trkpt lat="45.79502" lon="6.4374">
        <ele>1564.8000488281</ele>
        <time>2020-07-05T06:48:29.000Z</time>
        <extensions>
          <gpxtpx:TrackPointExtension xmlns:gpxtpx="http://www.garmin.com/xmlschemas/TrackPointExtension/v1">
            <gpxtpx:hr>90</gpxtpx:hr>
          </gpxtpx:TrackPointExtension>
        </extensions>
      </trkpt>
      <trkpt lat="45.79491" lon="6.43741">
        <ele>1562.8000488281</ele>
        <time>2020-07-05T06:48:31.000Z</time>
        <extensions>
          <gpxtpx:TrackPointExtension xmlns:gpxtpx="http://www.garmin.com/xmlschemas/TrackPointExtension/v1">
            <gpxtpx:hr>92</gpxtpx:hr>
          </gpxtpx:TrackPointExtension>
        </extensions>
      </trkpt>
      <trkpt lat="45.79488" lon="6.43745">
        <ele>1562</ele>
        <time>2020-07-05T06:48:32.000Z</time>
        <extensions>
          <gpxtpx:TrackPointExtension xmlns:gpxtpx="http://www.garmin.com/xmlschemas/TrackPointExtension/v1">
            <gpxtpx:hr>92</gpxtpx:hr>
          </gpxtpx:TrackPointExtension>
        </extensions>
      </trkpt>
      <trkpt lat="45.79487" lon="6.43751">
        <ele>1561</ele>
        <time>2020-07-05T06:48:33.000Z</time>
        <extensions>
          <gpxtpx:TrackPointExtension xmlns:gpxtpx="http://www.garmin.com/xmlschemas/TrackPointExtension/v1">
            <gpxtpx:hr>93</gpxtpx:hr>
          </gpxtpx:TrackPointExtension>
        </extensions>
      </trkpt>
      <trkpt lat="45.79489" lon="6.43767">
        <ele>1559.8000488281</ele>
        <time>2020-07-05T06:48:35.000Z</time>
        <extensions>
          <gpxtpx:TrackPointExtension xmlns:gpxtpx="http://www.garmin.com/xmlschemas/TrackPointExtension/v1">
            <gpxtpx:hr>95</gpxtpx:hr>
          </gpxtpx:TrackPointExtension>
        </extensions>
      </trkpt>
      <trkpt lat="45.79496" lon="6.43788">
        <ele>1559</ele>
        <time>2020-07-05T06:48:37.000Z</time>
        <extensions>
          <gpxtpx:TrackPointExtension xmlns:gpxtpx="http://www.garmin.com/xmlschemas/TrackPointExtension/v1">
            <gpxtpx:hr>95</gpxtpx:hr>
          </gpxtpx:TrackPointExtension>
        </extensions>
      </trkpt>
      <trkpt lat="45.795" lon="6.43798">
        <ele>1558.5999755859</ele>
        <time>2020-07-05T06:48:38.000Z</time>
        <extensions>
          <gpxtpx:TrackPointExtension xmlns:gpxtpx="http://www.garmin.com/xmlschemas/TrackPointExtension/v1">
            <gpxtpx:hr>96</gpxtpx:hr>
          </gpxtpx:TrackPointExtension>
        </extensions>
      </trkpt>
      <trkpt lat="45.79511" lon="6.43821">
        <ele>1557.8000488281</ele>
        <time>2020-07-05T06:48:40.000Z</time>
        <extensions>
          <gpxtpx:TrackPointExtension xmlns:gpxtpx="http://www.garmin.com/xmlschemas/TrackPointExtension/v1">
            <gpxtpx:hr>100</gpxtpx:hr>
          </gpxtpx:TrackPointExtension>
        </extensions>
      </trkpt>
      <trkpt lat="45.79518" lon="6.43831">
        <ele>1557.4000244141</ele>
        <time>2020-07-05T06:48:41.000Z</time>
        <extensions>
          <gpxtpx:TrackPointExtension xmlns:gpxtpx="http://www.garmin.com/xmlschemas/TrackPointExtension/v1">
            <gpxtpx:hr>102</gpxtpx:hr>
          </gpxtpx:TrackPointExtension>
        </extensions>
      </trkpt>
      <trkpt lat="45.79524" lon="6.43841">
        <ele>1556.8000488281</ele>
        <time>2020-07-05T06:48:42.000Z</time>
        <extensions>
          <gpxtpx:TrackPointExtension xmlns:gpxtpx="http://www.garmin.com/xmlschemas/TrackPointExtension/v1">
            <gpxtpx:hr>102</gpxtpx:hr>
          </gpxtpx:TrackPointExtension>
        </extensions>
      </trkpt>
      <trkpt lat="45.79531" lon="6.4385">
        <ele>1556</ele>
        <time>2020-07-05T06:48:43.000Z</time>
        <extensions>
          <gpxtpx:TrackPointExtension xmlns:gpxtpx="http://www.garmin.com/xmlschemas/TrackPointExtension/v1">
            <gpxtpx:hr>102</gpxtpx:hr>
          </gpxtpx:TrackPointExtension>
        </extensions>
      </trkpt>
      <trkpt lat="45.79543" lon="6.43865">
        <ele>1554.8000488281</ele>
        <time>2020-07-05T06:48:45.000Z</time>
        <extensions>
          <gpxtpx:TrackPointExtension xmlns:gpxtpx="http://www.garmin.com/xmlschemas/TrackPointExtension/v1">
            <gpxtpx:hr>103</gpxtpx:hr>
          </gpxtpx:TrackPointExtension>
        </extensions>
      </trkpt>
      <trkpt lat="45.79547" lon="6.43873">
        <ele>1553.8000488281</ele>
        <time>2020-07-05T06:48:46.000Z</time>
        <extensions>
          <gpxtpx:TrackPointExtension xmlns:gpxtpx="http://www.garmin.com/xmlschemas/TrackPointExtension/v1">
            <gpxtpx:hr>103</gpxtpx:hr>
          </gpxtpx:TrackPointExtension>
        </extensions>
      </trkpt>
      <trkpt lat="45.79549" lon="6.43883">
        <ele>1552.8000488281</ele>
        <time>2020-07-05T06:48:47.000Z</time>
        <extensions>
          <gpxtpx:TrackPointExtension xmlns:gpxtpx="http://www.garmin.com/xmlschemas/TrackPointExtension/v1">
            <gpxtpx:hr>103</gpxtpx:hr>
          </gpxtpx:TrackPointExtension>
        </extensions>
      </trkpt>
      <trkpt lat="45.79549" lon="6.43894">
        <ele>1551.8000488281</ele>
        <time>2020-07-05T06:48:48.000Z</time>
        <extensions>
          <gpxtpx:TrackPointExtension xmlns:gpxtpx="http://www.garmin.com/xmlschemas/TrackPointExtension/v1">
            <gpxtpx:hr>102</gpxtpx:hr>
          </gpxtpx:TrackPointExtension>
        </extensions>
      </trkpt>
      <trkpt lat="45.79545" lon="6.43916">
        <ele>1550.1999511719</ele>
        <time>2020-07-05T06:48:50.000Z</time>
        <extensions>
          <gpxtpx:TrackPointExtension xmlns:gpxtpx="http://www.garmin.com/xmlschemas/TrackPointExtension/v1">
            <gpxtpx:hr>102</gpxtpx:hr>
          </gpxtpx:TrackPointExtension>
        </extensions>
      </trkpt>
      <trkpt lat="45.79542" lon="6.43926">
        <ele>1549</ele>
        <time>2020-07-05T06:48:51.000Z</time>
        <extensions>
          <gpxtpx:TrackPointExtension xmlns:gpxtpx="http://www.garmin.com/xmlschemas/TrackPointExtension/v1">
            <gpxtpx:hr>102</gpxtpx:hr>
          </gpxtpx:TrackPointExtension>
        </extensions>
      </trkpt>
      <trkpt lat="45.79537" lon="6.43935">
        <ele>1547.4000244141</ele>
        <time>2020-07-05T06:48:52.000Z</time>
        <extensions>
          <gpxtpx:TrackPointExtension xmlns:gpxtpx="http://www.garmin.com/xmlschemas/TrackPointExtension/v1">
            <gpxtpx:hr>101</gpxtpx:hr>
          </gpxtpx:TrackPointExtension>
        </extensions>
      </trkpt>
      <trkpt lat="45.79532" lon="6.43944">
        <ele>1546</ele>
        <time>2020-07-05T06:48:53.000Z</time>
        <extensions>
          <gpxtpx:TrackPointExtension xmlns:gpxtpx="http://www.garmin.com/xmlschemas/TrackPointExtension/v1">
            <gpxtpx:hr>101</gpxtpx:hr>
          </gpxtpx:TrackPointExtension>
        </extensions>
      </trkpt>
      <trkpt lat="45.79527" lon="6.43952">
        <ele>1545.1999511719</ele>
        <time>2020-07-05T06:48:54.000Z</time>
        <extensions>
          <gpxtpx:TrackPointExtension xmlns:gpxtpx="http://www.garmin.com/xmlschemas/TrackPointExtension/v1">
            <gpxtpx:hr>101</gpxtpx:hr>
          </gpxtpx:TrackPointExtension>
        </extensions>
      </trkpt>
      <trkpt lat="45.79522" lon="6.43959">
        <ele>1544.8000488281</ele>
        <time>2020-07-05T06:48:55.000Z</time>
        <extensions>
          <gpxtpx:TrackPointExtension xmlns:gpxtpx="http://www.garmin.com/xmlschemas/TrackPointExtension/v1">
            <gpxtpx:hr>101</gpxtpx:hr>
          </gpxtpx:TrackPointExtension>
        </extensions>
      </trkpt>
      <trkpt lat="45.79516" lon="6.43964">
        <ele>1544.8000488281</ele>
        <time>2020-07-05T06:48:56.000Z</time>
        <extensions>
          <gpxtpx:TrackPointExtension xmlns:gpxtpx="http://www.garmin.com/xmlschemas/TrackPointExtension/v1">
            <gpxtpx:hr>101</gpxtpx:hr>
          </gpxtpx:TrackPointExtension>
        </extensions>
      </trkpt>
      <trkpt lat="45.79496" lon="6.43973">
        <ele>1545.4000244141</ele>
        <time>2020-07-05T06:48:59.000Z</time>
        <extensions>
          <gpxtpx:TrackPointExtension xmlns:gpxtpx="http://www.garmin.com/xmlschemas/TrackPointExtension/v1">
            <gpxtpx:hr>101</gpxtpx:hr>
          </gpxtpx:TrackPointExtension>
        </extensions>
      </trkpt>
      <trkpt lat="45.79489" lon="6.43974">
        <ele>1545.4000244141</ele>
        <time>2020-07-05T06:49:00.000Z</time>
        <extensions>
          <gpxtpx:TrackPointExtension xmlns:gpxtpx="http://www.garmin.com/xmlschemas/TrackPointExtension/v1">
            <gpxtpx:hr>101</gpxtpx:hr>
          </gpxtpx:TrackPointExtension>
        </extensions>
      </trkpt>
      <trkpt lat="45.79482" lon="6.43973">
        <ele>1545.4000244141</ele>
        <time>2020-07-05T06:49:01.000Z</time>
        <extensions>
          <gpxtpx:TrackPointExtension xmlns:gpxtpx="http://www.garmin.com/xmlschemas/TrackPointExtension/v1">
            <gpxtpx:hr>102</gpxtpx:hr>
          </gpxtpx:TrackPointExtension>
        </extensions>
      </trkpt>
      <trkpt lat="45.79452" lon="6.43965">
        <ele>1545</ele>
        <time>2020-07-05T06:49:05.000Z</time>
        <extensions>
          <gpxtpx:TrackPointExtension xmlns:gpxtpx="http://www.garmin.com/xmlschemas/TrackPointExtension/v1">
            <gpxtpx:hr>104</gpxtpx:hr>
          </gpxtpx:TrackPointExtension>
        </extensions>
      </trkpt>
      <trkpt lat="45.79427" lon="6.43962">
        <ele>1544</ele>
        <time>2020-07-05T06:49:08.000Z</time>
        <extensions>
          <gpxtpx:TrackPointExtension xmlns:gpxtpx="http://www.garmin.com/xmlschemas/TrackPointExtension/v1">
            <gpxtpx:hr>101</gpxtpx:hr>
          </gpxtpx:TrackPointExtension>
        </extensions>
      </trkpt>
      <trkpt lat="45.79419" lon="6.43963">
        <ele>1543.5999755859</ele>
        <time>2020-07-05T06:49:09.000Z</time>
        <extensions>
          <gpxtpx:TrackPointExtension xmlns:gpxtpx="http://www.garmin.com/xmlschemas/TrackPointExtension/v1">
            <gpxtpx:hr>101</gpxtpx:hr>
          </gpxtpx:TrackPointExtension>
        </extensions>
      </trkpt>
      <trkpt lat="45.7941" lon="6.43966">
        <ele>1543.1999511719</ele>
        <time>2020-07-05T06:49:10.000Z</time>
        <extensions>
          <gpxtpx:TrackPointExtension xmlns:gpxtpx="http://www.garmin.com/xmlschemas/TrackPointExtension/v1">
            <gpxtpx:hr>100</gpxtpx:hr>
          </gpxtpx:TrackPointExtension>
        </extensions>
      </trkpt>
      <trkpt lat="45.79401" lon="6.43969">
        <ele>1542.5999755859</ele>
        <time>2020-07-05T06:49:11.000Z</time>
        <extensions>
          <gpxtpx:TrackPointExtension xmlns:gpxtpx="http://www.garmin.com/xmlschemas/TrackPointExtension/v1">
            <gpxtpx:hr>99</gpxtpx:hr>
          </gpxtpx:TrackPointExtension>
        </extensions>
      </trkpt>
      <trkpt lat="45.79383" lon="6.43975">
        <ele>1541</ele>
        <time>2020-07-05T06:49:13.000Z</time>
        <extensions>
          <gpxtpx:TrackPointExtension xmlns:gpxtpx="http://www.garmin.com/xmlschemas/TrackPointExtension/v1">
            <gpxtpx:hr>99</gpxtpx:hr>
          </gpxtpx:TrackPointExtension>
        </extensions>
      </trkpt>
      <trkpt lat="45.79366" lon="6.43975">
        <ele>1539.5999755859</ele>
        <time>2020-07-05T06:49:15.000Z</time>
        <extensions>
          <gpxtpx:TrackPointExtension xmlns:gpxtpx="http://www.garmin.com/xmlschemas/TrackPointExtension/v1">
            <gpxtpx:hr>98</gpxtpx:hr>
          </gpxtpx:TrackPointExtension>
        </extensions>
      </trkpt>
      <trkpt lat="45.79348" lon="6.43975">
        <ele>1538.1999511719</ele>
        <time>2020-07-05T06:49:17.000Z</time>
        <extensions>
          <gpxtpx:TrackPointExtension xmlns:gpxtpx="http://www.garmin.com/xmlschemas/TrackPointExtension/v1">
            <gpxtpx:hr>98</gpxtpx:hr>
          </gpxtpx:TrackPointExtension>
        </extensions>
      </trkpt>
      <trkpt lat="45.7933" lon="6.43977">
        <ele>1537</ele>
        <time>2020-07-05T06:49:19.000Z</time>
        <extensions>
          <gpxtpx:TrackPointExtension xmlns:gpxtpx="http://www.garmin.com/xmlschemas/TrackPointExtension/v1">
            <gpxtpx:hr>99</gpxtpx:hr>
          </gpxtpx:TrackPointExtension>
        </extensions>
      </trkpt>
      <trkpt lat="45.79321" lon="6.4398">
        <ele>1536.1999511719</ele>
        <time>2020-07-05T06:49:20.000Z</time>
        <extensions>
          <gpxtpx:TrackPointExtension xmlns:gpxtpx="http://www.garmin.com/xmlschemas/TrackPointExtension/v1">
            <gpxtpx:hr>99</gpxtpx:hr>
          </gpxtpx:TrackPointExtension>
        </extensions>
      </trkpt>
      <trkpt lat="45.79311" lon="6.43984">
        <ele>1535.1999511719</ele>
        <time>2020-07-05T06:49:21.000Z</time>
        <extensions>
          <gpxtpx:TrackPointExtension xmlns:gpxtpx="http://www.garmin.com/xmlschemas/TrackPointExtension/v1">
            <gpxtpx:hr>100</gpxtpx:hr>
          </gpxtpx:TrackPointExtension>
        </extensions>
      </trkpt>
      <trkpt lat="45.79301" lon="6.4399">
        <ele>1534.1999511719</ele>
        <time>2020-07-05T06:49:22.000Z</time>
        <extensions>
          <gpxtpx:TrackPointExtension xmlns:gpxtpx="http://www.garmin.com/xmlschemas/TrackPointExtension/v1">
            <gpxtpx:hr>100</gpxtpx:hr>
          </gpxtpx:TrackPointExtension>
        </extensions>
      </trkpt>
      <trkpt lat="45.79291" lon="6.43994">
        <ele>1533.4000244141</ele>
        <time>2020-07-05T06:49:23.000Z</time>
        <extensions>
          <gpxtpx:TrackPointExtension xmlns:gpxtpx="http://www.garmin.com/xmlschemas/TrackPointExtension/v1">
            <gpxtpx:hr>100</gpxtpx:hr>
          </gpxtpx:TrackPointExtension>
        </extensions>
      </trkpt>
      <trkpt lat="45.79282" lon="6.43998">
        <ele>1532.8000488281</ele>
        <time>2020-07-05T06:49:24.000Z</time>
        <extensions>
          <gpxtpx:TrackPointExtension xmlns:gpxtpx="http://www.garmin.com/xmlschemas/TrackPointExtension/v1">
            <gpxtpx:hr>100</gpxtpx:hr>
          </gpxtpx:TrackPointExtension>
        </extensions>
      </trkpt>
      <trkpt lat="45.79272" lon="6.44001">
        <ele>1532.4000244141</ele>
        <time>2020-07-05T06:49:25.000Z</time>
        <extensions>
          <gpxtpx:TrackPointExtension xmlns:gpxtpx="http://www.garmin.com/xmlschemas/TrackPointExtension/v1">
            <gpxtpx:hr>101</gpxtpx:hr>
          </gpxtpx:TrackPointExtension>
        </extensions>
      </trkpt>
      <trkpt lat="45.79261" lon="6.44002">
        <ele>1532</ele>
        <time>2020-07-05T06:49:26.000Z</time>
        <extensions>
          <gpxtpx:TrackPointExtension xmlns:gpxtpx="http://www.garmin.com/xmlschemas/TrackPointExtension/v1">
            <gpxtpx:hr>101</gpxtpx:hr>
          </gpxtpx:TrackPointExtension>
        </extensions>
      </trkpt>
      <trkpt lat="45.79241" lon="6.44001">
        <ele>1531</ele>
        <time>2020-07-05T06:49:28.000Z</time>
        <extensions>
          <gpxtpx:TrackPointExtension xmlns:gpxtpx="http://www.garmin.com/xmlschemas/TrackPointExtension/v1">
            <gpxtpx:hr>101</gpxtpx:hr>
          </gpxtpx:TrackPointExtension>
        </extensions>
      </trkpt>
      <trkpt lat="45.7922" lon="6.44">
        <ele>1529</ele>
        <time>2020-07-05T06:49:30.000Z</time>
        <extensions>
          <gpxtpx:TrackPointExtension xmlns:gpxtpx="http://www.garmin.com/xmlschemas/TrackPointExtension/v1">
            <gpxtpx:hr>100</gpxtpx:hr>
          </gpxtpx:TrackPointExtension>
        </extensions>
      </trkpt>
      <trkpt lat="45.79208" lon="6.44001">
        <ele>1528.1999511719</ele>
        <time>2020-07-05T06:49:31.000Z</time>
        <extensions>
          <gpxtpx:TrackPointExtension xmlns:gpxtpx="http://www.garmin.com/xmlschemas/TrackPointExtension/v1">
            <gpxtpx:hr>100</gpxtpx:hr>
          </gpxtpx:TrackPointExtension>
        </extensions>
      </trkpt>
      <trkpt lat="45.79196" lon="6.44003">
        <ele>1527</ele>
        <time>2020-07-05T06:49:32.000Z</time>
        <extensions>
          <gpxtpx:TrackPointExtension xmlns:gpxtpx="http://www.garmin.com/xmlschemas/TrackPointExtension/v1">
            <gpxtpx:hr>99</gpxtpx:hr>
          </gpxtpx:TrackPointExtension>
        </extensions>
      </trkpt>
      <trkpt lat="45.79185" lon="6.44006">
        <ele>1526</ele>
        <time>2020-07-05T06:49:33.000Z</time>
        <extensions>
          <gpxtpx:TrackPointExtension xmlns:gpxtpx="http://www.garmin.com/xmlschemas/TrackPointExtension/v1">
            <gpxtpx:hr>99</gpxtpx:hr>
          </gpxtpx:TrackPointExtension>
        </extensions>
      </trkpt>
      <trkpt lat="45.79163" lon="6.44013">
        <ele>1524</ele>
        <time>2020-07-05T06:49:35.000Z</time>
        <extensions>
          <gpxtpx:TrackPointExtension xmlns:gpxtpx="http://www.garmin.com/xmlschemas/TrackPointExtension/v1">
            <gpxtpx:hr>97</gpxtpx:hr>
          </gpxtpx:TrackPointExtension>
        </extensions>
      </trkpt>
      <trkpt lat="45.79152" lon="6.44017">
        <ele>1523.1999511719</ele>
        <time>2020-07-05T06:49:36.000Z</time>
        <extensions>
          <gpxtpx:TrackPointExtension xmlns:gpxtpx="http://www.garmin.com/xmlschemas/TrackPointExtension/v1">
            <gpxtpx:hr>97</gpxtpx:hr>
          </gpxtpx:TrackPointExtension>
        </extensions>
      </trkpt>
      <trkpt lat="45.79143" lon="6.4402">
        <ele>1522.5999755859</ele>
        <time>2020-07-05T06:49:37.000Z</time>
        <extensions>
          <gpxtpx:TrackPointExtension xmlns:gpxtpx="http://www.garmin.com/xmlschemas/TrackPointExtension/v1">
            <gpxtpx:hr>97</gpxtpx:hr>
          </gpxtpx:TrackPointExtension>
        </extensions>
      </trkpt>
      <trkpt lat="45.79133" lon="6.44022">
        <ele>1522.1999511719</ele>
        <time>2020-07-05T06:49:38.000Z</time>
        <extensions>
          <gpxtpx:TrackPointExtension xmlns:gpxtpx="http://www.garmin.com/xmlschemas/TrackPointExtension/v1">
            <gpxtpx:hr>96</gpxtpx:hr>
          </gpxtpx:TrackPointExtension>
        </extensions>
      </trkpt>
      <trkpt lat="45.79122" lon="6.44022">
        <ele>1521.8000488281</ele>
        <time>2020-07-05T06:49:39.000Z</time>
        <extensions>
          <gpxtpx:TrackPointExtension xmlns:gpxtpx="http://www.garmin.com/xmlschemas/TrackPointExtension/v1">
            <gpxtpx:hr>96</gpxtpx:hr>
          </gpxtpx:TrackPointExtension>
        </extensions>
      </trkpt>
      <trkpt lat="45.79113" lon="6.4402">
        <ele>1521.1999511719</ele>
        <time>2020-07-05T06:49:40.000Z</time>
        <extensions>
          <gpxtpx:TrackPointExtension xmlns:gpxtpx="http://www.garmin.com/xmlschemas/TrackPointExtension/v1">
            <gpxtpx:hr>95</gpxtpx:hr>
          </gpxtpx:TrackPointExtension>
        </extensions>
      </trkpt>
      <trkpt lat="45.79095" lon="6.4401">
        <ele>1520.1999511719</ele>
        <time>2020-07-05T06:49:42.000Z</time>
        <extensions>
          <gpxtpx:TrackPointExtension xmlns:gpxtpx="http://www.garmin.com/xmlschemas/TrackPointExtension/v1">
            <gpxtpx:hr>95</gpxtpx:hr>
          </gpxtpx:TrackPointExtension>
        </extensions>
      </trkpt>
      <trkpt lat="45.79078" lon="6.43991">
        <ele>1519.1999511719</ele>
        <time>2020-07-05T06:49:44.000Z</time>
        <extensions>
          <gpxtpx:TrackPointExtension xmlns:gpxtpx="http://www.garmin.com/xmlschemas/TrackPointExtension/v1">
            <gpxtpx:hr>93</gpxtpx:hr>
          </gpxtpx:TrackPointExtension>
        </extensions>
      </trkpt>
      <trkpt lat="45.79071" lon="6.43981">
        <ele>1518.5999755859</ele>
        <time>2020-07-05T06:49:45.000Z</time>
        <extensions>
          <gpxtpx:TrackPointExtension xmlns:gpxtpx="http://www.garmin.com/xmlschemas/TrackPointExtension/v1">
            <gpxtpx:hr>94</gpxtpx:hr>
          </gpxtpx:TrackPointExtension>
        </extensions>
      </trkpt>
      <trkpt lat="45.79063" lon="6.43971">
        <ele>1518</ele>
        <time>2020-07-05T06:49:46.000Z</time>
        <extensions>
          <gpxtpx:TrackPointExtension xmlns:gpxtpx="http://www.garmin.com/xmlschemas/TrackPointExtension/v1">
            <gpxtpx:hr>95</gpxtpx:hr>
          </gpxtpx:TrackPointExtension>
        </extensions>
      </trkpt>
      <trkpt lat="45.79055" lon="6.43962">
        <ele>1517.5999755859</ele>
        <time>2020-07-05T06:49:47.000Z</time>
        <extensions>
          <gpxtpx:TrackPointExtension xmlns:gpxtpx="http://www.garmin.com/xmlschemas/TrackPointExtension/v1">
            <gpxtpx:hr>96</gpxtpx:hr>
          </gpxtpx:TrackPointExtension>
        </extensions>
      </trkpt>
      <trkpt lat="45.79036" lon="6.43947">
        <ele>1517.1999511719</ele>
        <time>2020-07-05T06:49:49.000Z</time>
        <extensions>
          <gpxtpx:TrackPointExtension xmlns:gpxtpx="http://www.garmin.com/xmlschemas/TrackPointExtension/v1">
            <gpxtpx:hr>97</gpxtpx:hr>
          </gpxtpx:TrackPointExtension>
        </extensions>
      </trkpt>
      <trkpt lat="45.79027" lon="6.4394">
        <ele>1517</ele>
        <time>2020-07-05T06:49:50.000Z</time>
        <extensions>
          <gpxtpx:TrackPointExtension xmlns:gpxtpx="http://www.garmin.com/xmlschemas/TrackPointExtension/v1">
            <gpxtpx:hr>96</gpxtpx:hr>
          </gpxtpx:TrackPointExtension>
        </extensions>
      </trkpt>
      <trkpt lat="45.79009" lon="6.43928">
        <ele>1516.8000488281</ele>
        <time>2020-07-05T06:49:52.000Z</time>
        <extensions>
          <gpxtpx:TrackPointExtension xmlns:gpxtpx="http://www.garmin.com/xmlschemas/TrackPointExtension/v1">
            <gpxtpx:hr>97</gpxtpx:hr>
          </gpxtpx:TrackPointExtension>
        </extensions>
      </trkpt>
      <trkpt lat="45.79002" lon="6.43921">
        <ele>1517.1999511719</ele>
        <time>2020-07-05T06:49:53.000Z</time>
        <extensions>
          <gpxtpx:TrackPointExtension xmlns:gpxtpx="http://www.garmin.com/xmlschemas/TrackPointExtension/v1">
            <gpxtpx:hr>96</gpxtpx:hr>
          </gpxtpx:TrackPointExtension>
        </extensions>
      </trkpt>
      <trkpt lat="45.78996" lon="6.43912">
        <ele>1517.8000488281</ele>
        <time>2020-07-05T06:49:54.000Z</time>
        <extensions>
          <gpxtpx:TrackPointExtension xmlns:gpxtpx="http://www.garmin.com/xmlschemas/TrackPointExtension/v1">
            <gpxtpx:hr>95</gpxtpx:hr>
          </gpxtpx:TrackPointExtension>
        </extensions>
      </trkpt>
      <trkpt lat="45.78991" lon="6.43903">
        <ele>1518.4000244141</ele>
        <time>2020-07-05T06:49:55.000Z</time>
        <extensions>
          <gpxtpx:TrackPointExtension xmlns:gpxtpx="http://www.garmin.com/xmlschemas/TrackPointExtension/v1">
            <gpxtpx:hr>95</gpxtpx:hr>
          </gpxtpx:TrackPointExtension>
        </extensions>
      </trkpt>
      <trkpt lat="45.78977" lon="6.43881">
        <ele>1519.5999755859</ele>
        <time>2020-07-05T06:49:58.000Z</time>
        <extensions>
          <gpxtpx:TrackPointExtension xmlns:gpxtpx="http://www.garmin.com/xmlschemas/TrackPointExtension/v1">
            <gpxtpx:hr>93</gpxtpx:hr>
          </gpxtpx:TrackPointExtension>
        </extensions>
      </trkpt>
      <trkpt lat="45.78968" lon="6.43873">
        <ele>1519.5999755859</ele>
        <time>2020-07-05T06:50:00.000Z</time>
        <extensions>
          <gpxtpx:TrackPointExtension xmlns:gpxtpx="http://www.garmin.com/xmlschemas/TrackPointExtension/v1">
            <gpxtpx:hr>92</gpxtpx:hr>
          </gpxtpx:TrackPointExtension>
        </extensions>
      </trkpt>
      <trkpt lat="45.78964" lon="6.43872">
        <ele>1519.5999755859</ele>
        <time>2020-07-05T06:50:01.000Z</time>
        <extensions>
          <gpxtpx:TrackPointExtension xmlns:gpxtpx="http://www.garmin.com/xmlschemas/TrackPointExtension/v1">
            <gpxtpx:hr>92</gpxtpx:hr>
          </gpxtpx:TrackPointExtension>
        </extensions>
      </trkpt>
      <trkpt lat="45.7896" lon="6.43872">
        <ele>1519.4000244141</ele>
        <time>2020-07-05T06:50:02.000Z</time>
        <extensions>
          <gpxtpx:TrackPointExtension xmlns:gpxtpx="http://www.garmin.com/xmlschemas/TrackPointExtension/v1">
            <gpxtpx:hr>93</gpxtpx:hr>
          </gpxtpx:TrackPointExtension>
        </extensions>
      </trkpt>
      <trkpt lat="45.78952" lon="6.43873">
        <ele>1519.1999511719</ele>
        <time>2020-07-05T06:50:04.000Z</time>
        <extensions>
          <gpxtpx:TrackPointExtension xmlns:gpxtpx="http://www.garmin.com/xmlschemas/TrackPointExtension/v1">
            <gpxtpx:hr>93</gpxtpx:hr>
          </gpxtpx:TrackPointExtension>
        </extensions>
      </trkpt>
      <trkpt lat="45.78941" lon="6.43876">
        <ele>1519</ele>
        <time>2020-07-05T06:50:06.000Z</time>
        <extensions>
          <gpxtpx:TrackPointExtension xmlns:gpxtpx="http://www.garmin.com/xmlschemas/TrackPointExtension/v1">
            <gpxtpx:hr>95</gpxtpx:hr>
          </gpxtpx:TrackPointExtension>
        </extensions>
      </trkpt>
      <trkpt lat="45.78925" lon="6.43887">
        <ele>1518.4000244141</ele>
        <time>2020-07-05T06:50:09.000Z</time>
        <extensions>
          <gpxtpx:TrackPointExtension xmlns:gpxtpx="http://www.garmin.com/xmlschemas/TrackPointExtension/v1">
            <gpxtpx:hr>97</gpxtpx:hr>
          </gpxtpx:TrackPointExtension>
        </extensions>
      </trkpt>
      <trkpt lat="45.78912" lon="6.43895">
        <ele>1518</ele>
        <time>2020-07-05T06:50:11.000Z</time>
        <extensions>
          <gpxtpx:TrackPointExtension xmlns:gpxtpx="http://www.garmin.com/xmlschemas/TrackPointExtension/v1">
            <gpxtpx:hr>99</gpxtpx:hr>
          </gpxtpx:TrackPointExtension>
        </extensions>
      </trkpt>
      <trkpt lat="45.78899" lon="6.43902">
        <ele>1517.4000244141</ele>
        <time>2020-07-05T06:50:13.000Z</time>
        <extensions>
          <gpxtpx:TrackPointExtension xmlns:gpxtpx="http://www.garmin.com/xmlschemas/TrackPointExtension/v1">
            <gpxtpx:hr>101</gpxtpx:hr>
          </gpxtpx:TrackPointExtension>
        </extensions>
      </trkpt>
      <trkpt lat="45.78885" lon="6.43913">
        <ele>1516.8000488281</ele>
        <time>2020-07-05T06:50:15.000Z</time>
        <extensions>
          <gpxtpx:TrackPointExtension xmlns:gpxtpx="http://www.garmin.com/xmlschemas/TrackPointExtension/v1">
            <gpxtpx:hr>101</gpxtpx:hr>
          </gpxtpx:TrackPointExtension>
        </extensions>
      </trkpt>
      <trkpt lat="45.78871" lon="6.43923">
        <ele>1516.4000244141</ele>
        <time>2020-07-05T06:50:17.000Z</time>
        <extensions>
          <gpxtpx:TrackPointExtension xmlns:gpxtpx="http://www.garmin.com/xmlschemas/TrackPointExtension/v1">
            <gpxtpx:hr>102</gpxtpx:hr>
          </gpxtpx:TrackPointExtension>
        </extensions>
      </trkpt>
      <trkpt lat="45.78855" lon="6.43927">
        <ele>1516</ele>
        <time>2020-07-05T06:50:19.000Z</time>
        <extensions>
          <gpxtpx:TrackPointExtension xmlns:gpxtpx="http://www.garmin.com/xmlschemas/TrackPointExtension/v1">
            <gpxtpx:hr>102</gpxtpx:hr>
          </gpxtpx:TrackPointExtension>
        </extensions>
      </trkpt>
      <trkpt lat="45.78815" lon="6.43932">
        <ele>1515</ele>
        <time>2020-07-05T06:50:24.000Z</time>
        <extensions>
          <gpxtpx:TrackPointExtension xmlns:gpxtpx="http://www.garmin.com/xmlschemas/TrackPointExtension/v1">
            <gpxtpx:hr>102</gpxtpx:hr>
          </gpxtpx:TrackPointExtension>
        </extensions>
      </trkpt>
      <trkpt lat="45.78806" lon="6.43934">
        <ele>1514.8000488281</ele>
        <time>2020-07-05T06:50:25.000Z</time>
        <extensions>
          <gpxtpx:TrackPointExtension xmlns:gpxtpx="http://www.garmin.com/xmlschemas/TrackPointExtension/v1">
            <gpxtpx:hr>102</gpxtpx:hr>
          </gpxtpx:TrackPointExtension>
        </extensions>
      </trkpt>
      <trkpt lat="45.78798" lon="6.43938">
        <ele>1514.5999755859</ele>
        <time>2020-07-05T06:50:26.000Z</time>
        <extensions>
          <gpxtpx:TrackPointExtension xmlns:gpxtpx="http://www.garmin.com/xmlschemas/TrackPointExtension/v1">
            <gpxtpx:hr>103</gpxtpx:hr>
          </gpxtpx:TrackPointExtension>
        </extensions>
      </trkpt>
      <trkpt lat="45.78781" lon="6.43946">
        <ele>1513.8000488281</ele>
        <time>2020-07-05T06:50:28.000Z</time>
        <extensions>
          <gpxtpx:TrackPointExtension xmlns:gpxtpx="http://www.garmin.com/xmlschemas/TrackPointExtension/v1">
            <gpxtpx:hr>103</gpxtpx:hr>
          </gpxtpx:TrackPointExtension>
        </extensions>
      </trkpt>
      <trkpt lat="45.78765" lon="6.43953">
        <ele>1513.1999511719</ele>
        <time>2020-07-05T06:50:30.000Z</time>
        <extensions>
          <gpxtpx:TrackPointExtension xmlns:gpxtpx="http://www.garmin.com/xmlschemas/TrackPointExtension/v1">
            <gpxtpx:hr>102</gpxtpx:hr>
          </gpxtpx:TrackPointExtension>
        </extensions>
      </trkpt>
      <trkpt lat="45.78758" lon="6.43955">
        <ele>1513</ele>
        <time>2020-07-05T06:50:31.000Z</time>
        <extensions>
          <gpxtpx:TrackPointExtension xmlns:gpxtpx="http://www.garmin.com/xmlschemas/TrackPointExtension/v1">
            <gpxtpx:hr>102</gpxtpx:hr>
          </gpxtpx:TrackPointExtension>
        </extensions>
      </trkpt>
      <trkpt lat="45.78732" lon="6.43957">
        <ele>1512.8000488281</ele>
        <time>2020-07-05T06:50:34.000Z</time>
        <extensions>
          <gpxtpx:TrackPointExtension xmlns:gpxtpx="http://www.garmin.com/xmlschemas/TrackPointExtension/v1">
            <gpxtpx:hr>99</gpxtpx:hr>
          </gpxtpx:TrackPointExtension>
        </extensions>
      </trkpt>
      <trkpt lat="45.78724" lon="6.43958">
        <ele>1512.8000488281</ele>
        <time>2020-07-05T06:50:35.000Z</time>
        <extensions>
          <gpxtpx:TrackPointExtension xmlns:gpxtpx="http://www.garmin.com/xmlschemas/TrackPointExtension/v1">
            <gpxtpx:hr>99</gpxtpx:hr>
          </gpxtpx:TrackPointExtension>
        </extensions>
      </trkpt>
      <trkpt lat="45.78706" lon="6.43956">
        <ele>1513</ele>
        <time>2020-07-05T06:50:37.000Z</time>
        <extensions>
          <gpxtpx:TrackPointExtension xmlns:gpxtpx="http://www.garmin.com/xmlschemas/TrackPointExtension/v1">
            <gpxtpx:hr>98</gpxtpx:hr>
          </gpxtpx:TrackPointExtension>
        </extensions>
      </trkpt>
      <trkpt lat="45.78697" lon="6.43955">
        <ele>1513</ele>
        <time>2020-07-05T06:50:38.000Z</time>
        <extensions>
          <gpxtpx:TrackPointExtension xmlns:gpxtpx="http://www.garmin.com/xmlschemas/TrackPointExtension/v1">
            <gpxtpx:hr>97</gpxtpx:hr>
          </gpxtpx:TrackPointExtension>
        </extensions>
      </trkpt>
      <trkpt lat="45.78669" lon="6.43951">
        <ele>1511.8000488281</ele>
        <time>2020-07-05T06:50:41.000Z</time>
        <extensions>
          <gpxtpx:TrackPointExtension xmlns:gpxtpx="http://www.garmin.com/xmlschemas/TrackPointExtension/v1">
            <gpxtpx:hr>96</gpxtpx:hr>
          </gpxtpx:TrackPointExtension>
        </extensions>
      </trkpt>
      <trkpt lat="45.78651" lon="6.43947">
        <ele>1510.1999511719</ele>
        <time>2020-07-05T06:50:43.000Z</time>
        <extensions>
          <gpxtpx:TrackPointExtension xmlns:gpxtpx="http://www.garmin.com/xmlschemas/TrackPointExtension/v1">
            <gpxtpx:hr>95</gpxtpx:hr>
          </gpxtpx:TrackPointExtension>
        </extensions>
      </trkpt>
      <trkpt lat="45.78642" lon="6.43944">
        <ele>1509.5999755859</ele>
        <time>2020-07-05T06:50:44.000Z</time>
        <extensions>
          <gpxtpx:TrackPointExtension xmlns:gpxtpx="http://www.garmin.com/xmlschemas/TrackPointExtension/v1">
            <gpxtpx:hr>94</gpxtpx:hr>
          </gpxtpx:TrackPointExtension>
        </extensions>
      </trkpt>
      <trkpt lat="45.78625" lon="6.43934">
        <ele>1509</ele>
        <time>2020-07-05T06:50:46.000Z</time>
        <extensions>
          <gpxtpx:TrackPointExtension xmlns:gpxtpx="http://www.garmin.com/xmlschemas/TrackPointExtension/v1">
            <gpxtpx:hr>94</gpxtpx:hr>
          </gpxtpx:TrackPointExtension>
        </extensions>
      </trkpt>
      <trkpt lat="45.78611" lon="6.43919">
        <ele>1508.5999755859</ele>
        <time>2020-07-05T06:50:48.000Z</time>
        <extensions>
          <gpxtpx:TrackPointExtension xmlns:gpxtpx="http://www.garmin.com/xmlschemas/TrackPointExtension/v1">
            <gpxtpx:hr>93</gpxtpx:hr>
          </gpxtpx:TrackPointExtension>
        </extensions>
      </trkpt>
      <trkpt lat="45.78599" lon="6.43899">
        <ele>1508.1999511719</ele>
        <time>2020-07-05T06:50:50.000Z</time>
        <extensions>
          <gpxtpx:TrackPointExtension xmlns:gpxtpx="http://www.garmin.com/xmlschemas/TrackPointExtension/v1">
            <gpxtpx:hr>93</gpxtpx:hr>
          </gpxtpx:TrackPointExtension>
        </extensions>
      </trkpt>
      <trkpt lat="45.78594" lon="6.43888">
        <ele>1507.8000488281</ele>
        <time>2020-07-05T06:50:51.000Z</time>
        <extensions>
          <gpxtpx:TrackPointExtension xmlns:gpxtpx="http://www.garmin.com/xmlschemas/TrackPointExtension/v1">
            <gpxtpx:hr>93</gpxtpx:hr>
          </gpxtpx:TrackPointExtension>
        </extensions>
      </trkpt>
      <trkpt lat="45.78589" lon="6.43876">
        <ele>1507.1999511719</ele>
        <time>2020-07-05T06:50:52.000Z</time>
        <extensions>
          <gpxtpx:TrackPointExtension xmlns:gpxtpx="http://www.garmin.com/xmlschemas/TrackPointExtension/v1">
            <gpxtpx:hr>94</gpxtpx:hr>
          </gpxtpx:TrackPointExtension>
        </extensions>
      </trkpt>
      <trkpt lat="45.78581" lon="6.43852">
        <ele>1506.5999755859</ele>
        <time>2020-07-05T06:50:54.000Z</time>
        <extensions>
          <gpxtpx:TrackPointExtension xmlns:gpxtpx="http://www.garmin.com/xmlschemas/TrackPointExtension/v1">
            <gpxtpx:hr>94</gpxtpx:hr>
          </gpxtpx:TrackPointExtension>
        </extensions>
      </trkpt>
      <trkpt lat="45.78575" lon="6.43824">
        <ele>1505.4000244141</ele>
        <time>2020-07-05T06:50:56.000Z</time>
        <extensions>
          <gpxtpx:TrackPointExtension xmlns:gpxtpx="http://www.garmin.com/xmlschemas/TrackPointExtension/v1">
            <gpxtpx:hr>96</gpxtpx:hr>
          </gpxtpx:TrackPointExtension>
        </extensions>
      </trkpt>
      <trkpt lat="45.78573" lon="6.4381">
        <ele>1504.1999511719</ele>
        <time>2020-07-05T06:50:57.000Z</time>
        <extensions>
          <gpxtpx:TrackPointExtension xmlns:gpxtpx="http://www.garmin.com/xmlschemas/TrackPointExtension/v1">
            <gpxtpx:hr>97</gpxtpx:hr>
          </gpxtpx:TrackPointExtension>
        </extensions>
      </trkpt>
      <trkpt lat="45.78567" lon="6.43781">
        <ele>1502.4000244141</ele>
        <time>2020-07-05T06:50:59.000Z</time>
        <extensions>
          <gpxtpx:TrackPointExtension xmlns:gpxtpx="http://www.garmin.com/xmlschemas/TrackPointExtension/v1">
            <gpxtpx:hr>97</gpxtpx:hr>
          </gpxtpx:TrackPointExtension>
        </extensions>
      </trkpt>
      <trkpt lat="45.78565" lon="6.43766">
        <ele>1501.4000244141</ele>
        <time>2020-07-05T06:51:00.000Z</time>
        <extensions>
          <gpxtpx:TrackPointExtension xmlns:gpxtpx="http://www.garmin.com/xmlschemas/TrackPointExtension/v1">
            <gpxtpx:hr>97</gpxtpx:hr>
          </gpxtpx:TrackPointExtension>
        </extensions>
      </trkpt>
      <trkpt lat="45.78562" lon="6.43751">
        <ele>1500</ele>
        <time>2020-07-05T06:51:01.000Z</time>
        <extensions>
          <gpxtpx:TrackPointExtension xmlns:gpxtpx="http://www.garmin.com/xmlschemas/TrackPointExtension/v1">
            <gpxtpx:hr>97</gpxtpx:hr>
          </gpxtpx:TrackPointExtension>
        </extensions>
      </trkpt>
      <trkpt lat="45.78559" lon="6.43736">
        <ele>1499</ele>
        <time>2020-07-05T06:51:02.000Z</time>
        <extensions>
          <gpxtpx:TrackPointExtension xmlns:gpxtpx="http://www.garmin.com/xmlschemas/TrackPointExtension/v1">
            <gpxtpx:hr>96</gpxtpx:hr>
          </gpxtpx:TrackPointExtension>
        </extensions>
      </trkpt>
      <trkpt lat="45.78555" lon="6.43705">
        <ele>1497.1999511719</ele>
        <time>2020-07-05T06:51:04.000Z</time>
        <extensions>
          <gpxtpx:TrackPointExtension xmlns:gpxtpx="http://www.garmin.com/xmlschemas/TrackPointExtension/v1">
            <gpxtpx:hr>96</gpxtpx:hr>
          </gpxtpx:TrackPointExtension>
        </extensions>
      </trkpt>
      <trkpt lat="45.78553" lon="6.43689">
        <ele>1496.1999511719</ele>
        <time>2020-07-05T06:51:05.000Z</time>
        <extensions>
          <gpxtpx:TrackPointExtension xmlns:gpxtpx="http://www.garmin.com/xmlschemas/TrackPointExtension/v1">
            <gpxtpx:hr>95</gpxtpx:hr>
          </gpxtpx:TrackPointExtension>
        </extensions>
      </trkpt>
      <trkpt lat="45.78551" lon="6.43657">
        <ele>1493.8000488281</ele>
        <time>2020-07-05T06:51:07.000Z</time>
        <extensions>
          <gpxtpx:TrackPointExtension xmlns:gpxtpx="http://www.garmin.com/xmlschemas/TrackPointExtension/v1">
            <gpxtpx:hr>94</gpxtpx:hr>
          </gpxtpx:TrackPointExtension>
        </extensions>
      </trkpt>
      <trkpt lat="45.78551" lon="6.43642">
        <ele>1492.4000244141</ele>
        <time>2020-07-05T06:51:08.000Z</time>
        <extensions>
          <gpxtpx:TrackPointExtension xmlns:gpxtpx="http://www.garmin.com/xmlschemas/TrackPointExtension/v1">
            <gpxtpx:hr>94</gpxtpx:hr>
          </gpxtpx:TrackPointExtension>
        </extensions>
      </trkpt>
      <trkpt lat="45.78549" lon="6.43627">
        <ele>1491</ele>
        <time>2020-07-05T06:51:09.000Z</time>
        <extensions>
          <gpxtpx:TrackPointExtension xmlns:gpxtpx="http://www.garmin.com/xmlschemas/TrackPointExtension/v1">
            <gpxtpx:hr>93</gpxtpx:hr>
          </gpxtpx:TrackPointExtension>
        </extensions>
      </trkpt>
      <trkpt lat="45.78547" lon="6.43613">
        <ele>1490</ele>
        <time>2020-07-05T06:51:10.000Z</time>
        <extensions>
          <gpxtpx:TrackPointExtension xmlns:gpxtpx="http://www.garmin.com/xmlschemas/TrackPointExtension/v1">
            <gpxtpx:hr>93</gpxtpx:hr>
          </gpxtpx:TrackPointExtension>
        </extensions>
      </trkpt>
      <trkpt lat="45.7854" lon="6.43589">
        <ele>1488.5999755859</ele>
        <time>2020-07-05T06:51:12.000Z</time>
        <extensions>
          <gpxtpx:TrackPointExtension xmlns:gpxtpx="http://www.garmin.com/xmlschemas/TrackPointExtension/v1">
            <gpxtpx:hr>91</gpxtpx:hr>
          </gpxtpx:TrackPointExtension>
        </extensions>
      </trkpt>
      <trkpt lat="45.78524" lon="6.43572">
        <ele>1487.1999511719</ele>
        <time>2020-07-05T06:51:14.000Z</time>
        <extensions>
          <gpxtpx:TrackPointExtension xmlns:gpxtpx="http://www.garmin.com/xmlschemas/TrackPointExtension/v1">
            <gpxtpx:hr>90</gpxtpx:hr>
          </gpxtpx:TrackPointExtension>
        </extensions>
      </trkpt>
      <trkpt lat="45.78504" lon="6.43556">
        <ele>1485.5999755859</ele>
        <time>2020-07-05T06:51:16.000Z</time>
        <extensions>
          <gpxtpx:TrackPointExtension xmlns:gpxtpx="http://www.garmin.com/xmlschemas/TrackPointExtension/v1">
            <gpxtpx:hr>89</gpxtpx:hr>
          </gpxtpx:TrackPointExtension>
        </extensions>
      </trkpt>
      <trkpt lat="45.78483" lon="6.43539">
        <ele>1483.8000488281</ele>
        <time>2020-07-05T06:51:18.000Z</time>
        <extensions>
          <gpxtpx:TrackPointExtension xmlns:gpxtpx="http://www.garmin.com/xmlschemas/TrackPointExtension/v1">
            <gpxtpx:hr>89</gpxtpx:hr>
          </gpxtpx:TrackPointExtension>
        </extensions>
      </trkpt>
      <trkpt lat="45.78474" lon="6.43532">
        <ele>1482.1999511719</ele>
        <time>2020-07-05T06:51:19.000Z</time>
        <extensions>
          <gpxtpx:TrackPointExtension xmlns:gpxtpx="http://www.garmin.com/xmlschemas/TrackPointExtension/v1">
            <gpxtpx:hr>88</gpxtpx:hr>
          </gpxtpx:TrackPointExtension>
        </extensions>
      </trkpt>
      <trkpt lat="45.78464" lon="6.43524">
        <ele>1480.5999755859</ele>
        <time>2020-07-05T06:51:20.000Z</time>
        <extensions>
          <gpxtpx:TrackPointExtension xmlns:gpxtpx="http://www.garmin.com/xmlschemas/TrackPointExtension/v1">
            <gpxtpx:hr>88</gpxtpx:hr>
          </gpxtpx:TrackPointExtension>
        </extensions>
      </trkpt>
      <trkpt lat="45.78455" lon="6.43517">
        <ele>1479</ele>
        <time>2020-07-05T06:51:21.000Z</time>
        <extensions>
          <gpxtpx:TrackPointExtension xmlns:gpxtpx="http://www.garmin.com/xmlschemas/TrackPointExtension/v1">
            <gpxtpx:hr>88</gpxtpx:hr>
          </gpxtpx:TrackPointExtension>
        </extensions>
      </trkpt>
      <trkpt lat="45.78446" lon="6.43509">
        <ele>1478</ele>
        <time>2020-07-05T06:51:22.000Z</time>
        <extensions>
          <gpxtpx:TrackPointExtension xmlns:gpxtpx="http://www.garmin.com/xmlschemas/TrackPointExtension/v1">
            <gpxtpx:hr>88</gpxtpx:hr>
          </gpxtpx:TrackPointExtension>
        </extensions>
      </trkpt>
      <trkpt lat="45.78438" lon="6.435">
        <ele>1477.1999511719</ele>
        <time>2020-07-05T06:51:23.000Z</time>
        <extensions>
          <gpxtpx:TrackPointExtension xmlns:gpxtpx="http://www.garmin.com/xmlschemas/TrackPointExtension/v1">
            <gpxtpx:hr>88</gpxtpx:hr>
          </gpxtpx:TrackPointExtension>
        </extensions>
      </trkpt>
      <trkpt lat="45.78428" lon="6.4349">
        <ele>1476.5999755859</ele>
        <time>2020-07-05T06:51:24.000Z</time>
        <extensions>
          <gpxtpx:TrackPointExtension xmlns:gpxtpx="http://www.garmin.com/xmlschemas/TrackPointExtension/v1">
            <gpxtpx:hr>88</gpxtpx:hr>
          </gpxtpx:TrackPointExtension>
        </extensions>
      </trkpt>
      <trkpt lat="45.7841" lon="6.43471">
        <ele>1474.5999755859</ele>
        <time>2020-07-05T06:51:26.000Z</time>
        <extensions>
          <gpxtpx:TrackPointExtension xmlns:gpxtpx="http://www.garmin.com/xmlschemas/TrackPointExtension/v1">
            <gpxtpx:hr>87</gpxtpx:hr>
          </gpxtpx:TrackPointExtension>
        </extensions>
      </trkpt>
      <trkpt lat="45.784" lon="6.43462">
        <ele>1473.4000244141</ele>
        <time>2020-07-05T06:51:27.000Z</time>
        <extensions>
          <gpxtpx:TrackPointExtension xmlns:gpxtpx="http://www.garmin.com/xmlschemas/TrackPointExtension/v1">
            <gpxtpx:hr>87</gpxtpx:hr>
          </gpxtpx:TrackPointExtension>
        </extensions>
      </trkpt>
      <trkpt lat="45.78391" lon="6.43452">
        <ele>1472.1999511719</ele>
        <time>2020-07-05T06:51:28.000Z</time>
        <extensions>
          <gpxtpx:TrackPointExtension xmlns:gpxtpx="http://www.garmin.com/xmlschemas/TrackPointExtension/v1">
            <gpxtpx:hr>87</gpxtpx:hr>
          </gpxtpx:TrackPointExtension>
        </extensions>
      </trkpt>
      <trkpt lat="45.78383" lon="6.43442">
        <ele>1471</ele>
        <time>2020-07-05T06:51:29.000Z</time>
        <extensions>
          <gpxtpx:TrackPointExtension xmlns:gpxtpx="http://www.garmin.com/xmlschemas/TrackPointExtension/v1">
            <gpxtpx:hr>87</gpxtpx:hr>
          </gpxtpx:TrackPointExtension>
        </extensions>
      </trkpt>
      <trkpt lat="45.78375" lon="6.43431">
        <ele>1469.8000488281</ele>
        <time>2020-07-05T06:51:30.000Z</time>
        <extensions>
          <gpxtpx:TrackPointExtension xmlns:gpxtpx="http://www.garmin.com/xmlschemas/TrackPointExtension/v1">
            <gpxtpx:hr>87</gpxtpx:hr>
          </gpxtpx:TrackPointExtension>
        </extensions>
      </trkpt>
      <trkpt lat="45.78367" lon="6.43419">
        <ele>1468.4000244141</ele>
        <time>2020-07-05T06:51:31.000Z</time>
        <extensions>
          <gpxtpx:TrackPointExtension xmlns:gpxtpx="http://www.garmin.com/xmlschemas/TrackPointExtension/v1">
            <gpxtpx:hr>87</gpxtpx:hr>
          </gpxtpx:TrackPointExtension>
        </extensions>
      </trkpt>
      <trkpt lat="45.78361" lon="6.43408">
        <ele>1467.1999511719</ele>
        <time>2020-07-05T06:51:32.000Z</time>
        <extensions>
          <gpxtpx:TrackPointExtension xmlns:gpxtpx="http://www.garmin.com/xmlschemas/TrackPointExtension/v1">
            <gpxtpx:hr>86</gpxtpx:hr>
          </gpxtpx:TrackPointExtension>
        </extensions>
      </trkpt>
      <trkpt lat="45.7835" lon="6.43386">
        <ele>1465.5999755859</ele>
        <time>2020-07-05T06:51:34.000Z</time>
        <extensions>
          <gpxtpx:TrackPointExtension xmlns:gpxtpx="http://www.garmin.com/xmlschemas/TrackPointExtension/v1">
            <gpxtpx:hr>86</gpxtpx:hr>
          </gpxtpx:TrackPointExtension>
        </extensions>
      </trkpt>
      <trkpt lat="45.78342" lon="6.43361">
        <ele>1463.5999755859</ele>
        <time>2020-07-05T06:51:36.000Z</time>
        <extensions>
          <gpxtpx:TrackPointExtension xmlns:gpxtpx="http://www.garmin.com/xmlschemas/TrackPointExtension/v1">
            <gpxtpx:hr>86</gpxtpx:hr>
          </gpxtpx:TrackPointExtension>
        </extensions>
      </trkpt>
      <trkpt lat="45.78339" lon="6.43348">
        <ele>1462.5999755859</ele>
        <time>2020-07-05T06:51:37.000Z</time>
        <extensions>
          <gpxtpx:TrackPointExtension xmlns:gpxtpx="http://www.garmin.com/xmlschemas/TrackPointExtension/v1">
            <gpxtpx:hr>86</gpxtpx:hr>
          </gpxtpx:TrackPointExtension>
        </extensions>
      </trkpt>
      <trkpt lat="45.78337" lon="6.43337">
        <ele>1461.4000244141</ele>
        <time>2020-07-05T06:51:38.000Z</time>
        <extensions>
          <gpxtpx:TrackPointExtension xmlns:gpxtpx="http://www.garmin.com/xmlschemas/TrackPointExtension/v1">
            <gpxtpx:hr>86</gpxtpx:hr>
          </gpxtpx:TrackPointExtension>
        </extensions>
      </trkpt>
      <trkpt lat="45.78334" lon="6.43327">
        <ele>1460.5999755859</ele>
        <time>2020-07-05T06:51:39.000Z</time>
        <extensions>
          <gpxtpx:TrackPointExtension xmlns:gpxtpx="http://www.garmin.com/xmlschemas/TrackPointExtension/v1">
            <gpxtpx:hr>85</gpxtpx:hr>
          </gpxtpx:TrackPointExtension>
        </extensions>
      </trkpt>
      <trkpt lat="45.7833" lon="6.43319">
        <ele>1460</ele>
        <time>2020-07-05T06:51:40.000Z</time>
        <extensions>
          <gpxtpx:TrackPointExtension xmlns:gpxtpx="http://www.garmin.com/xmlschemas/TrackPointExtension/v1">
            <gpxtpx:hr>85</gpxtpx:hr>
          </gpxtpx:TrackPointExtension>
        </extensions>
      </trkpt>
      <trkpt lat="45.78328" lon="6.43311">
        <ele>1459.1999511719</ele>
        <time>2020-07-05T06:51:41.000Z</time>
        <extensions>
          <gpxtpx:TrackPointExtension xmlns:gpxtpx="http://www.garmin.com/xmlschemas/TrackPointExtension/v1">
            <gpxtpx:hr>86</gpxtpx:hr>
          </gpxtpx:TrackPointExtension>
        </extensions>
      </trkpt>
      <trkpt lat="45.78328" lon="6.43304">
        <ele>1458.5999755859</ele>
        <time>2020-07-05T06:51:42.000Z</time>
        <extensions>
          <gpxtpx:TrackPointExtension xmlns:gpxtpx="http://www.garmin.com/xmlschemas/TrackPointExtension/v1">
            <gpxtpx:hr>86</gpxtpx:hr>
          </gpxtpx:TrackPointExtension>
        </extensions>
      </trkpt>
      <trkpt lat="45.78332" lon="6.43296">
        <ele>1458.4000244141</ele>
        <time>2020-07-05T06:51:43.000Z</time>
        <extensions>
          <gpxtpx:TrackPointExtension xmlns:gpxtpx="http://www.garmin.com/xmlschemas/TrackPointExtension/v1">
            <gpxtpx:hr>86</gpxtpx:hr>
          </gpxtpx:TrackPointExtension>
        </extensions>
      </trkpt>
      <trkpt lat="45.78332" lon="6.43307">
        <ele>1458</ele>
        <time>2020-07-05T06:51:44.000Z</time>
        <extensions>
          <gpxtpx:TrackPointExtension xmlns:gpxtpx="http://www.garmin.com/xmlschemas/TrackPointExtension/v1">
            <gpxtpx:hr>86</gpxtpx:hr>
          </gpxtpx:TrackPointExtension>
        </extensions>
      </trkpt>
      <trkpt lat="45.78331" lon="6.43313">
        <ele>1457.5999755859</ele>
        <time>2020-07-05T06:51:45.000Z</time>
        <extensions>
          <gpxtpx:TrackPointExtension xmlns:gpxtpx="http://www.garmin.com/xmlschemas/TrackPointExtension/v1">
            <gpxtpx:hr>88</gpxtpx:hr>
          </gpxtpx:TrackPointExtension>
        </extensions>
      </trkpt>
      <trkpt lat="45.7833" lon="6.43328">
        <ele>1457.1999511719</ele>
        <time>2020-07-05T06:51:46.000Z</time>
        <extensions>
          <gpxtpx:TrackPointExtension xmlns:gpxtpx="http://www.garmin.com/xmlschemas/TrackPointExtension/v1">
            <gpxtpx:hr>88</gpxtpx:hr>
          </gpxtpx:TrackPointExtension>
        </extensions>
      </trkpt>
      <trkpt lat="45.7832" lon="6.43363">
        <ele>1456.4000244141</ele>
        <time>2020-07-05T06:51:49.000Z</time>
        <extensions>
          <gpxtpx:TrackPointExtension xmlns:gpxtpx="http://www.garmin.com/xmlschemas/TrackPointExtension/v1">
            <gpxtpx:hr>89</gpxtpx:hr>
          </gpxtpx:TrackPointExtension>
        </extensions>
      </trkpt>
      <trkpt lat="45.78329" lon="6.43385">
        <ele>1455.8000488281</ele>
        <time>2020-07-05T06:51:51.000Z</time>
        <extensions>
          <gpxtpx:TrackPointExtension xmlns:gpxtpx="http://www.garmin.com/xmlschemas/TrackPointExtension/v1">
            <gpxtpx:hr>92</gpxtpx:hr>
          </gpxtpx:TrackPointExtension>
        </extensions>
      </trkpt>
      <trkpt lat="45.78331" lon="6.43395">
        <ele>1455.5999755859</ele>
        <time>2020-07-05T06:51:52.000Z</time>
        <extensions>
          <gpxtpx:TrackPointExtension xmlns:gpxtpx="http://www.garmin.com/xmlschemas/TrackPointExtension/v1">
            <gpxtpx:hr>92</gpxtpx:hr>
          </gpxtpx:TrackPointExtension>
        </extensions>
      </trkpt>
      <trkpt lat="45.78334" lon="6.43404">
        <ele>1455.5999755859</ele>
        <time>2020-07-05T06:51:53.000Z</time>
        <extensions>
          <gpxtpx:TrackPointExtension xmlns:gpxtpx="http://www.garmin.com/xmlschemas/TrackPointExtension/v1">
            <gpxtpx:hr>94</gpxtpx:hr>
          </gpxtpx:TrackPointExtension>
        </extensions>
      </trkpt>
      <trkpt lat="45.78346" lon="6.43431">
        <ele>1455.4000244141</ele>
        <time>2020-07-05T06:51:56.000Z</time>
        <extensions>
          <gpxtpx:TrackPointExtension xmlns:gpxtpx="http://www.garmin.com/xmlschemas/TrackPointExtension/v1">
            <gpxtpx:hr>97</gpxtpx:hr>
          </gpxtpx:TrackPointExtension>
        </extensions>
      </trkpt>
      <trkpt lat="45.78356" lon="6.43448">
        <ele>1455.4000244141</ele>
        <time>2020-07-05T06:51:58.000Z</time>
        <extensions>
          <gpxtpx:TrackPointExtension xmlns:gpxtpx="http://www.garmin.com/xmlschemas/TrackPointExtension/v1">
            <gpxtpx:hr>98</gpxtpx:hr>
          </gpxtpx:TrackPointExtension>
        </extensions>
      </trkpt>
      <trkpt lat="45.78365" lon="6.43468">
        <ele>1455.1999511719</ele>
        <time>2020-07-05T06:52:00.000Z</time>
        <extensions>
          <gpxtpx:TrackPointExtension xmlns:gpxtpx="http://www.garmin.com/xmlschemas/TrackPointExtension/v1">
            <gpxtpx:hr>99</gpxtpx:hr>
          </gpxtpx:TrackPointExtension>
        </extensions>
      </trkpt>
      <trkpt lat="45.7837" lon="6.43478">
        <ele>1455</ele>
        <time>2020-07-05T06:52:01.000Z</time>
        <extensions>
          <gpxtpx:TrackPointExtension xmlns:gpxtpx="http://www.garmin.com/xmlschemas/TrackPointExtension/v1">
            <gpxtpx:hr>100</gpxtpx:hr>
          </gpxtpx:TrackPointExtension>
        </extensions>
      </trkpt>
      <trkpt lat="45.78375" lon="6.43487">
        <ele>1455</ele>
        <time>2020-07-05T06:52:02.000Z</time>
        <extensions>
          <gpxtpx:TrackPointExtension xmlns:gpxtpx="http://www.garmin.com/xmlschemas/TrackPointExtension/v1">
            <gpxtpx:hr>100</gpxtpx:hr>
          </gpxtpx:TrackPointExtension>
        </extensions>
      </trkpt>
      <trkpt lat="45.7839" lon="6.43514">
        <ele>1455</ele>
        <time>2020-07-05T06:52:05.000Z</time>
        <extensions>
          <gpxtpx:TrackPointExtension xmlns:gpxtpx="http://www.garmin.com/xmlschemas/TrackPointExtension/v1">
            <gpxtpx:hr>101</gpxtpx:hr>
          </gpxtpx:TrackPointExtension>
        </extensions>
      </trkpt>
      <trkpt lat="45.78401" lon="6.43531">
        <ele>1454</ele>
        <time>2020-07-05T06:52:07.000Z</time>
        <extensions>
          <gpxtpx:TrackPointExtension xmlns:gpxtpx="http://www.garmin.com/xmlschemas/TrackPointExtension/v1">
            <gpxtpx:hr>102</gpxtpx:hr>
          </gpxtpx:TrackPointExtension>
        </extensions>
      </trkpt>
      <trkpt lat="45.78413" lon="6.43547">
        <ele>1452.8000488281</ele>
        <time>2020-07-05T06:52:09.000Z</time>
        <extensions>
          <gpxtpx:TrackPointExtension xmlns:gpxtpx="http://www.garmin.com/xmlschemas/TrackPointExtension/v1">
            <gpxtpx:hr>101</gpxtpx:hr>
          </gpxtpx:TrackPointExtension>
        </extensions>
      </trkpt>
      <trkpt lat="45.78419" lon="6.43555">
        <ele>1452.5999755859</ele>
        <time>2020-07-05T06:52:10.000Z</time>
        <extensions>
          <gpxtpx:TrackPointExtension xmlns:gpxtpx="http://www.garmin.com/xmlschemas/TrackPointExtension/v1">
            <gpxtpx:hr>100</gpxtpx:hr>
          </gpxtpx:TrackPointExtension>
        </extensions>
      </trkpt>
      <trkpt lat="45.78431" lon="6.43571">
        <ele>1452.1999511719</ele>
        <time>2020-07-05T06:52:12.000Z</time>
        <extensions>
          <gpxtpx:TrackPointExtension xmlns:gpxtpx="http://www.garmin.com/xmlschemas/TrackPointExtension/v1">
            <gpxtpx:hr>100</gpxtpx:hr>
          </gpxtpx:TrackPointExtension>
        </extensions>
      </trkpt>
      <trkpt lat="45.78437" lon="6.4358">
        <ele>1451.8000488281</ele>
        <time>2020-07-05T06:52:13.000Z</time>
        <extensions>
          <gpxtpx:TrackPointExtension xmlns:gpxtpx="http://www.garmin.com/xmlschemas/TrackPointExtension/v1">
            <gpxtpx:hr>99</gpxtpx:hr>
          </gpxtpx:TrackPointExtension>
        </extensions>
      </trkpt>
      <trkpt lat="45.7845" lon="6.43597">
        <ele>1450.8000488281</ele>
        <time>2020-07-05T06:52:15.000Z</time>
        <extensions>
          <gpxtpx:TrackPointExtension xmlns:gpxtpx="http://www.garmin.com/xmlschemas/TrackPointExtension/v1">
            <gpxtpx:hr>98</gpxtpx:hr>
          </gpxtpx:TrackPointExtension>
        </extensions>
      </trkpt>
      <trkpt lat="45.78463" lon="6.43615">
        <ele>1449.5999755859</ele>
        <time>2020-07-05T06:52:17.000Z</time>
        <extensions>
          <gpxtpx:TrackPointExtension xmlns:gpxtpx="http://www.garmin.com/xmlschemas/TrackPointExtension/v1">
            <gpxtpx:hr>97</gpxtpx:hr>
          </gpxtpx:TrackPointExtension>
        </extensions>
      </trkpt>
      <trkpt lat="45.78475" lon="6.43633">
        <ele>1448.5999755859</ele>
        <time>2020-07-05T06:52:19.000Z</time>
        <extensions>
          <gpxtpx:TrackPointExtension xmlns:gpxtpx="http://www.garmin.com/xmlschemas/TrackPointExtension/v1">
            <gpxtpx:hr>96</gpxtpx:hr>
          </gpxtpx:TrackPointExtension>
        </extensions>
      </trkpt>
      <trkpt lat="45.78481" lon="6.43653">
        <ele>1447.8000488281</ele>
        <time>2020-07-05T06:52:21.000Z</time>
        <extensions>
          <gpxtpx:TrackPointExtension xmlns:gpxtpx="http://www.garmin.com/xmlschemas/TrackPointExtension/v1">
            <gpxtpx:hr>96</gpxtpx:hr>
          </gpxtpx:TrackPointExtension>
        </extensions>
      </trkpt>
      <trkpt lat="45.78483" lon="6.43663">
        <ele>1447.4000244141</ele>
        <time>2020-07-05T06:52:22.000Z</time>
        <extensions>
          <gpxtpx:TrackPointExtension xmlns:gpxtpx="http://www.garmin.com/xmlschemas/TrackPointExtension/v1">
            <gpxtpx:hr>96</gpxtpx:hr>
          </gpxtpx:TrackPointExtension>
        </extensions>
      </trkpt>
      <trkpt lat="45.78483" lon="6.43697">
        <ele>1446.4000244141</ele>
        <time>2020-07-05T06:52:25.000Z</time>
        <extensions>
          <gpxtpx:TrackPointExtension xmlns:gpxtpx="http://www.garmin.com/xmlschemas/TrackPointExtension/v1">
            <gpxtpx:hr>96</gpxtpx:hr>
          </gpxtpx:TrackPointExtension>
        </extensions>
      </trkpt>
      <trkpt lat="45.78483" lon="6.43723">
        <ele>1445.4000244141</ele>
        <time>2020-07-05T06:52:27.000Z</time>
        <extensions>
          <gpxtpx:TrackPointExtension xmlns:gpxtpx="http://www.garmin.com/xmlschemas/TrackPointExtension/v1">
            <gpxtpx:hr>98</gpxtpx:hr>
          </gpxtpx:TrackPointExtension>
        </extensions>
      </trkpt>
      <trkpt lat="45.78483" lon="6.43736">
        <ele>1445</ele>
        <time>2020-07-05T06:52:28.000Z</time>
        <extensions>
          <gpxtpx:TrackPointExtension xmlns:gpxtpx="http://www.garmin.com/xmlschemas/TrackPointExtension/v1">
            <gpxtpx:hr>98</gpxtpx:hr>
          </gpxtpx:TrackPointExtension>
        </extensions>
      </trkpt>
      <trkpt lat="45.78488" lon="6.43776">
        <ele>1444</ele>
        <time>2020-07-05T06:52:31.000Z</time>
        <extensions>
          <gpxtpx:TrackPointExtension xmlns:gpxtpx="http://www.garmin.com/xmlschemas/TrackPointExtension/v1">
            <gpxtpx:hr>99</gpxtpx:hr>
          </gpxtpx:TrackPointExtension>
        </extensions>
      </trkpt>
      <trkpt lat="45.7849" lon="6.43806">
        <ele>1443</ele>
        <time>2020-07-05T06:52:33.000Z</time>
        <extensions>
          <gpxtpx:TrackPointExtension xmlns:gpxtpx="http://www.garmin.com/xmlschemas/TrackPointExtension/v1">
            <gpxtpx:hr>100</gpxtpx:hr>
          </gpxtpx:TrackPointExtension>
        </extensions>
      </trkpt>
      <trkpt lat="45.78491" lon="6.4382">
        <ele>1442.4000244141</ele>
        <time>2020-07-05T06:52:34.000Z</time>
        <extensions>
          <gpxtpx:TrackPointExtension xmlns:gpxtpx="http://www.garmin.com/xmlschemas/TrackPointExtension/v1">
            <gpxtpx:hr>99</gpxtpx:hr>
          </gpxtpx:TrackPointExtension>
        </extensions>
      </trkpt>
      <trkpt lat="45.78492" lon="6.43835">
        <ele>1441.5999755859</ele>
        <time>2020-07-05T06:52:35.000Z</time>
        <extensions>
          <gpxtpx:TrackPointExtension xmlns:gpxtpx="http://www.garmin.com/xmlschemas/TrackPointExtension/v1">
            <gpxtpx:hr>99</gpxtpx:hr>
          </gpxtpx:TrackPointExtension>
        </extensions>
      </trkpt>
      <trkpt lat="45.78493" lon="6.4385">
        <ele>1440.5999755859</ele>
        <time>2020-07-05T06:52:36.000Z</time>
        <extensions>
          <gpxtpx:TrackPointExtension xmlns:gpxtpx="http://www.garmin.com/xmlschemas/TrackPointExtension/v1">
            <gpxtpx:hr>98</gpxtpx:hr>
          </gpxtpx:TrackPointExtension>
        </extensions>
      </trkpt>
      <trkpt lat="45.78496" lon="6.43881">
        <ele>1439.1999511719</ele>
        <time>2020-07-05T06:52:38.000Z</time>
        <extensions>
          <gpxtpx:TrackPointExtension xmlns:gpxtpx="http://www.garmin.com/xmlschemas/TrackPointExtension/v1">
            <gpxtpx:hr>97</gpxtpx:hr>
          </gpxtpx:TrackPointExtension>
        </extensions>
      </trkpt>
      <trkpt lat="45.78502" lon="6.4391">
        <ele>1437.1999511719</ele>
        <time>2020-07-05T06:52:40.000Z</time>
        <extensions>
          <gpxtpx:TrackPointExtension xmlns:gpxtpx="http://www.garmin.com/xmlschemas/TrackPointExtension/v1">
            <gpxtpx:hr>96</gpxtpx:hr>
          </gpxtpx:TrackPointExtension>
        </extensions>
      </trkpt>
      <trkpt lat="45.78504" lon="6.43925">
        <ele>1436</ele>
        <time>2020-07-05T06:52:41.000Z</time>
        <extensions>
          <gpxtpx:TrackPointExtension xmlns:gpxtpx="http://www.garmin.com/xmlschemas/TrackPointExtension/v1">
            <gpxtpx:hr>95</gpxtpx:hr>
          </gpxtpx:TrackPointExtension>
        </extensions>
      </trkpt>
      <trkpt lat="45.78506" lon="6.4394">
        <ele>1435</ele>
        <time>2020-07-05T06:52:42.000Z</time>
        <extensions>
          <gpxtpx:TrackPointExtension xmlns:gpxtpx="http://www.garmin.com/xmlschemas/TrackPointExtension/v1">
            <gpxtpx:hr>95</gpxtpx:hr>
          </gpxtpx:TrackPointExtension>
        </extensions>
      </trkpt>
      <trkpt lat="45.7851" lon="6.43969">
        <ele>1433.1999511719</ele>
        <time>2020-07-05T06:52:44.000Z</time>
        <extensions>
          <gpxtpx:TrackPointExtension xmlns:gpxtpx="http://www.garmin.com/xmlschemas/TrackPointExtension/v1">
            <gpxtpx:hr>94</gpxtpx:hr>
          </gpxtpx:TrackPointExtension>
        </extensions>
      </trkpt>
      <trkpt lat="45.78514" lon="6.43993">
        <ele>1432.1999511719</ele>
        <time>2020-07-05T06:52:46.000Z</time>
        <extensions>
          <gpxtpx:TrackPointExtension xmlns:gpxtpx="http://www.garmin.com/xmlschemas/TrackPointExtension/v1">
            <gpxtpx:hr>93</gpxtpx:hr>
          </gpxtpx:TrackPointExtension>
        </extensions>
      </trkpt>
      <trkpt lat="45.78519" lon="6.44023">
        <ele>1431.1999511719</ele>
        <time>2020-07-05T06:52:49.000Z</time>
        <extensions>
          <gpxtpx:TrackPointExtension xmlns:gpxtpx="http://www.garmin.com/xmlschemas/TrackPointExtension/v1">
            <gpxtpx:hr>91</gpxtpx:hr>
          </gpxtpx:TrackPointExtension>
        </extensions>
      </trkpt>
      <trkpt lat="45.78519" lon="6.44031">
        <ele>1431</ele>
        <time>2020-07-05T06:52:50.000Z</time>
        <extensions>
          <gpxtpx:TrackPointExtension xmlns:gpxtpx="http://www.garmin.com/xmlschemas/TrackPointExtension/v1">
            <gpxtpx:hr>90</gpxtpx:hr>
          </gpxtpx:TrackPointExtension>
        </extensions>
      </trkpt>
      <trkpt lat="45.78517" lon="6.44039">
        <ele>1430.8000488281</ele>
        <time>2020-07-05T06:52:51.000Z</time>
        <extensions>
          <gpxtpx:TrackPointExtension xmlns:gpxtpx="http://www.garmin.com/xmlschemas/TrackPointExtension/v1">
            <gpxtpx:hr>90</gpxtpx:hr>
          </gpxtpx:TrackPointExtension>
        </extensions>
      </trkpt>
      <trkpt lat="45.78509" lon="6.44049">
        <ele>1430.1999511719</ele>
        <time>2020-07-05T06:52:53.000Z</time>
        <extensions>
          <gpxtpx:TrackPointExtension xmlns:gpxtpx="http://www.garmin.com/xmlschemas/TrackPointExtension/v1">
            <gpxtpx:hr>88</gpxtpx:hr>
          </gpxtpx:TrackPointExtension>
        </extensions>
      </trkpt>
      <trkpt lat="45.78497" lon="6.44045">
        <ele>1429.8000488281</ele>
        <time>2020-07-05T06:52:55.000Z</time>
        <extensions>
          <gpxtpx:TrackPointExtension xmlns:gpxtpx="http://www.garmin.com/xmlschemas/TrackPointExtension/v1">
            <gpxtpx:hr>86</gpxtpx:hr>
          </gpxtpx:TrackPointExtension>
        </extensions>
      </trkpt>
      <trkpt lat="45.78489" lon="6.44029">
        <ele>1428.8000488281</ele>
        <time>2020-07-05T06:52:57.000Z</time>
        <extensions>
          <gpxtpx:TrackPointExtension xmlns:gpxtpx="http://www.garmin.com/xmlschemas/TrackPointExtension/v1">
            <gpxtpx:hr>84</gpxtpx:hr>
          </gpxtpx:TrackPointExtension>
        </extensions>
      </trkpt>
      <trkpt lat="45.78488" lon="6.44018">
        <ele>1428.1999511719</ele>
        <time>2020-07-05T06:52:58.000Z</time>
        <extensions>
          <gpxtpx:TrackPointExtension xmlns:gpxtpx="http://www.garmin.com/xmlschemas/TrackPointExtension/v1">
            <gpxtpx:hr>84</gpxtpx:hr>
          </gpxtpx:TrackPointExtension>
        </extensions>
      </trkpt>
      <trkpt lat="45.78487" lon="6.44007">
        <ele>1427.5999755859</ele>
        <time>2020-07-05T06:52:59.000Z</time>
        <extensions>
          <gpxtpx:TrackPointExtension xmlns:gpxtpx="http://www.garmin.com/xmlschemas/TrackPointExtension/v1">
            <gpxtpx:hr>83</gpxtpx:hr>
          </gpxtpx:TrackPointExtension>
        </extensions>
      </trkpt>
      <trkpt lat="45.78487" lon="6.43996">
        <ele>1427</ele>
        <time>2020-07-05T06:53:00.000Z</time>
        <extensions>
          <gpxtpx:TrackPointExtension xmlns:gpxtpx="http://www.garmin.com/xmlschemas/TrackPointExtension/v1">
            <gpxtpx:hr>83</gpxtpx:hr>
          </gpxtpx:TrackPointExtension>
        </extensions>
      </trkpt>
      <trkpt lat="45.78487" lon="6.43984">
        <ele>1426.5999755859</ele>
        <time>2020-07-05T06:53:01.000Z</time>
        <extensions>
          <gpxtpx:TrackPointExtension xmlns:gpxtpx="http://www.garmin.com/xmlschemas/TrackPointExtension/v1">
            <gpxtpx:hr>83</gpxtpx:hr>
          </gpxtpx:TrackPointExtension>
        </extensions>
      </trkpt>
      <trkpt lat="45.78486" lon="6.43973">
        <ele>1426.1999511719</ele>
        <time>2020-07-05T06:53:02.000Z</time>
        <extensions>
          <gpxtpx:TrackPointExtension xmlns:gpxtpx="http://www.garmin.com/xmlschemas/TrackPointExtension/v1">
            <gpxtpx:hr>84</gpxtpx:hr>
          </gpxtpx:TrackPointExtension>
        </extensions>
      </trkpt>
      <trkpt lat="45.78483" lon="6.4395">
        <ele>1425.8000488281</ele>
        <time>2020-07-05T06:53:04.000Z</time>
        <extensions>
          <gpxtpx:TrackPointExtension xmlns:gpxtpx="http://www.garmin.com/xmlschemas/TrackPointExtension/v1">
            <gpxtpx:hr>86</gpxtpx:hr>
          </gpxtpx:TrackPointExtension>
        </extensions>
      </trkpt>
      <trkpt lat="45.78481" lon="6.4394">
        <ele>1425.5999755859</ele>
        <time>2020-07-05T06:53:05.000Z</time>
        <extensions>
          <gpxtpx:TrackPointExtension xmlns:gpxtpx="http://www.garmin.com/xmlschemas/TrackPointExtension/v1">
            <gpxtpx:hr>86</gpxtpx:hr>
          </gpxtpx:TrackPointExtension>
        </extensions>
      </trkpt>
      <trkpt lat="45.78469" lon="6.43876">
        <ele>1425.5999755859</ele>
        <time>2020-07-05T06:53:11.000Z</time>
        <extensions>
          <gpxtpx:TrackPointExtension xmlns:gpxtpx="http://www.garmin.com/xmlschemas/TrackPointExtension/v1">
            <gpxtpx:hr>85</gpxtpx:hr>
          </gpxtpx:TrackPointExtension>
        </extensions>
      </trkpt>
      <trkpt lat="45.78467" lon="6.43844">
        <ele>1425.8000488281</ele>
        <time>2020-07-05T06:53:14.000Z</time>
        <extensions>
          <gpxtpx:TrackPointExtension xmlns:gpxtpx="http://www.garmin.com/xmlschemas/TrackPointExtension/v1">
            <gpxtpx:hr>88</gpxtpx:hr>
          </gpxtpx:TrackPointExtension>
        </extensions>
      </trkpt>
      <trkpt lat="45.78462" lon="6.43812">
        <ele>1425.5999755859</ele>
        <time>2020-07-05T06:53:17.000Z</time>
        <extensions>
          <gpxtpx:TrackPointExtension xmlns:gpxtpx="http://www.garmin.com/xmlschemas/TrackPointExtension/v1">
            <gpxtpx:hr>89</gpxtpx:hr>
          </gpxtpx:TrackPointExtension>
        </extensions>
      </trkpt>
      <trkpt lat="45.78446" lon="6.43748">
        <ele>1424.4000244141</ele>
        <time>2020-07-05T06:53:23.000Z</time>
        <extensions>
          <gpxtpx:TrackPointExtension xmlns:gpxtpx="http://www.garmin.com/xmlschemas/TrackPointExtension/v1">
            <gpxtpx:hr>88</gpxtpx:hr>
          </gpxtpx:TrackPointExtension>
        </extensions>
      </trkpt>
      <trkpt lat="45.78442" lon="6.43737">
        <ele>1424</ele>
        <time>2020-07-05T06:53:24.000Z</time>
        <extensions>
          <gpxtpx:TrackPointExtension xmlns:gpxtpx="http://www.garmin.com/xmlschemas/TrackPointExtension/v1">
            <gpxtpx:hr>89</gpxtpx:hr>
          </gpxtpx:TrackPointExtension>
        </extensions>
      </trkpt>
      <trkpt lat="45.78433" lon="6.43703">
        <ele>1423.4000244141</ele>
        <time>2020-07-05T06:53:27.000Z</time>
        <extensions>
          <gpxtpx:TrackPointExtension xmlns:gpxtpx="http://www.garmin.com/xmlschemas/TrackPointExtension/v1">
            <gpxtpx:hr>91</gpxtpx:hr>
          </gpxtpx:TrackPointExtension>
        </extensions>
      </trkpt>
      <trkpt lat="45.78421" lon="6.43669">
        <ele>1422.8000488281</ele>
        <time>2020-07-05T06:53:30.000Z</time>
        <extensions>
          <gpxtpx:TrackPointExtension xmlns:gpxtpx="http://www.garmin.com/xmlschemas/TrackPointExtension/v1">
            <gpxtpx:hr>90</gpxtpx:hr>
          </gpxtpx:TrackPointExtension>
        </extensions>
      </trkpt>
      <trkpt lat="45.78408" lon="6.43653">
        <ele>1422</ele>
        <time>2020-07-05T06:53:32.000Z</time>
        <extensions>
          <gpxtpx:TrackPointExtension xmlns:gpxtpx="http://www.garmin.com/xmlschemas/TrackPointExtension/v1">
            <gpxtpx:hr>90</gpxtpx:hr>
          </gpxtpx:TrackPointExtension>
        </extensions>
      </trkpt>
      <trkpt lat="45.78394" lon="6.43635">
        <ele>1421</ele>
        <time>2020-07-05T06:53:34.000Z</time>
        <extensions>
          <gpxtpx:TrackPointExtension xmlns:gpxtpx="http://www.garmin.com/xmlschemas/TrackPointExtension/v1">
            <gpxtpx:hr>89</gpxtpx:hr>
          </gpxtpx:TrackPointExtension>
        </extensions>
      </trkpt>
      <trkpt lat="45.78386" lon="6.43627">
        <ele>1420.4000244141</ele>
        <time>2020-07-05T06:53:35.000Z</time>
        <extensions>
          <gpxtpx:TrackPointExtension xmlns:gpxtpx="http://www.garmin.com/xmlschemas/TrackPointExtension/v1">
            <gpxtpx:hr>89</gpxtpx:hr>
          </gpxtpx:TrackPointExtension>
        </extensions>
      </trkpt>
      <trkpt lat="45.78371" lon="6.43609">
        <ele>1419.4000244141</ele>
        <time>2020-07-05T06:53:37.000Z</time>
        <extensions>
          <gpxtpx:TrackPointExtension xmlns:gpxtpx="http://www.garmin.com/xmlschemas/TrackPointExtension/v1">
            <gpxtpx:hr>91</gpxtpx:hr>
          </gpxtpx:TrackPointExtension>
        </extensions>
      </trkpt>
      <trkpt lat="45.78364" lon="6.436">
        <ele>1418.8000488281</ele>
        <time>2020-07-05T06:53:38.000Z</time>
        <extensions>
          <gpxtpx:TrackPointExtension xmlns:gpxtpx="http://www.garmin.com/xmlschemas/TrackPointExtension/v1">
            <gpxtpx:hr>92</gpxtpx:hr>
          </gpxtpx:TrackPointExtension>
        </extensions>
      </trkpt>
      <trkpt lat="45.78352" lon="6.43581">
        <ele>1418.1999511719</ele>
        <time>2020-07-05T06:53:40.000Z</time>
        <extensions>
          <gpxtpx:TrackPointExtension xmlns:gpxtpx="http://www.garmin.com/xmlschemas/TrackPointExtension/v1">
            <gpxtpx:hr>94</gpxtpx:hr>
          </gpxtpx:TrackPointExtension>
        </extensions>
      </trkpt>
      <trkpt lat="45.78321" lon="6.43544">
        <ele>1416.8000488281</ele>
        <time>2020-07-05T06:53:44.000Z</time>
        <extensions>
          <gpxtpx:TrackPointExtension xmlns:gpxtpx="http://www.garmin.com/xmlschemas/TrackPointExtension/v1">
            <gpxtpx:hr>98</gpxtpx:hr>
          </gpxtpx:TrackPointExtension>
        </extensions>
      </trkpt>
      <trkpt lat="45.78306" lon="6.43526">
        <ele>1415.8000488281</ele>
        <time>2020-07-05T06:53:46.000Z</time>
        <extensions>
          <gpxtpx:TrackPointExtension xmlns:gpxtpx="http://www.garmin.com/xmlschemas/TrackPointExtension/v1">
            <gpxtpx:hr>100</gpxtpx:hr>
          </gpxtpx:TrackPointExtension>
        </extensions>
      </trkpt>
      <trkpt lat="45.78294" lon="6.43505">
        <ele>1415.4000244141</ele>
        <time>2020-07-05T06:53:48.000Z</time>
        <extensions>
          <gpxtpx:TrackPointExtension xmlns:gpxtpx="http://www.garmin.com/xmlschemas/TrackPointExtension/v1">
            <gpxtpx:hr>99</gpxtpx:hr>
          </gpxtpx:TrackPointExtension>
        </extensions>
      </trkpt>
      <trkpt lat="45.78282" lon="6.43482">
        <ele>1414.1999511719</ele>
        <time>2020-07-05T06:53:50.000Z</time>
        <extensions>
          <gpxtpx:TrackPointExtension xmlns:gpxtpx="http://www.garmin.com/xmlschemas/TrackPointExtension/v1">
            <gpxtpx:hr>99</gpxtpx:hr>
          </gpxtpx:TrackPointExtension>
        </extensions>
      </trkpt>
      <trkpt lat="45.7827" lon="6.43458">
        <ele>1413.1999511719</ele>
        <time>2020-07-05T06:53:52.000Z</time>
        <extensions>
          <gpxtpx:TrackPointExtension xmlns:gpxtpx="http://www.garmin.com/xmlschemas/TrackPointExtension/v1">
            <gpxtpx:hr>98</gpxtpx:hr>
          </gpxtpx:TrackPointExtension>
        </extensions>
      </trkpt>
      <trkpt lat="45.78259" lon="6.43433">
        <ele>1412.1999511719</ele>
        <time>2020-07-05T06:53:54.000Z</time>
        <extensions>
          <gpxtpx:TrackPointExtension xmlns:gpxtpx="http://www.garmin.com/xmlschemas/TrackPointExtension/v1">
            <gpxtpx:hr>101</gpxtpx:hr>
          </gpxtpx:TrackPointExtension>
        </extensions>
      </trkpt>
      <trkpt lat="45.78253" lon="6.4342">
        <ele>1411.5999755859</ele>
        <time>2020-07-05T06:53:55.000Z</time>
        <extensions>
          <gpxtpx:TrackPointExtension xmlns:gpxtpx="http://www.garmin.com/xmlschemas/TrackPointExtension/v1">
            <gpxtpx:hr>102</gpxtpx:hr>
          </gpxtpx:TrackPointExtension>
        </extensions>
      </trkpt>
      <trkpt lat="45.78234" lon="6.43385">
        <ele>1410.5999755859</ele>
        <time>2020-07-05T06:53:58.000Z</time>
        <extensions>
          <gpxtpx:TrackPointExtension xmlns:gpxtpx="http://www.garmin.com/xmlschemas/TrackPointExtension/v1">
            <gpxtpx:hr>103</gpxtpx:hr>
          </gpxtpx:TrackPointExtension>
        </extensions>
      </trkpt>
      <trkpt lat="45.78221" lon="6.43362">
        <ele>1410</ele>
        <time>2020-07-05T06:54:00.000Z</time>
        <extensions>
          <gpxtpx:TrackPointExtension xmlns:gpxtpx="http://www.garmin.com/xmlschemas/TrackPointExtension/v1">
            <gpxtpx:hr>103</gpxtpx:hr>
          </gpxtpx:TrackPointExtension>
        </extensions>
      </trkpt>
      <trkpt lat="45.78208" lon="6.43342">
        <ele>1409.8000488281</ele>
        <time>2020-07-05T06:54:02.000Z</time>
        <extensions>
          <gpxtpx:TrackPointExtension xmlns:gpxtpx="http://www.garmin.com/xmlschemas/TrackPointExtension/v1">
            <gpxtpx:hr>103</gpxtpx:hr>
          </gpxtpx:TrackPointExtension>
        </extensions>
      </trkpt>
      <trkpt lat="45.782" lon="6.43335">
        <ele>1409.5999755859</ele>
        <time>2020-07-05T06:54:03.000Z</time>
        <extensions>
          <gpxtpx:TrackPointExtension xmlns:gpxtpx="http://www.garmin.com/xmlschemas/TrackPointExtension/v1">
            <gpxtpx:hr>103</gpxtpx:hr>
          </gpxtpx:TrackPointExtension>
        </extensions>
      </trkpt>
      <trkpt lat="45.78183" lon="6.43324">
        <ele>1409.4000244141</ele>
        <time>2020-07-05T06:54:05.000Z</time>
        <extensions>
          <gpxtpx:TrackPointExtension xmlns:gpxtpx="http://www.garmin.com/xmlschemas/TrackPointExtension/v1">
            <gpxtpx:hr>107</gpxtpx:hr>
          </gpxtpx:TrackPointExtension>
        </extensions>
      </trkpt>
      <trkpt lat="45.78176" lon="6.43317">
        <ele>1409.5999755859</ele>
        <time>2020-07-05T06:54:06.000Z</time>
        <extensions>
          <gpxtpx:TrackPointExtension xmlns:gpxtpx="http://www.garmin.com/xmlschemas/TrackPointExtension/v1">
            <gpxtpx:hr>109</gpxtpx:hr>
          </gpxtpx:TrackPointExtension>
        </extensions>
      </trkpt>
      <trkpt lat="45.78169" lon="6.43309">
        <ele>1409.8000488281</ele>
        <time>2020-07-05T06:54:07.000Z</time>
        <extensions>
          <gpxtpx:TrackPointExtension xmlns:gpxtpx="http://www.garmin.com/xmlschemas/TrackPointExtension/v1">
            <gpxtpx:hr>108</gpxtpx:hr>
          </gpxtpx:TrackPointExtension>
        </extensions>
      </trkpt>
      <trkpt lat="45.78157" lon="6.43294">
        <ele>1410.1999511719</ele>
        <time>2020-07-05T06:54:09.000Z</time>
        <extensions>
          <gpxtpx:TrackPointExtension xmlns:gpxtpx="http://www.garmin.com/xmlschemas/TrackPointExtension/v1">
            <gpxtpx:hr>107</gpxtpx:hr>
          </gpxtpx:TrackPointExtension>
        </extensions>
      </trkpt>
      <trkpt lat="45.78142" lon="6.43287">
        <ele>1410.5999755859</ele>
        <time>2020-07-05T06:54:11.000Z</time>
        <extensions>
          <gpxtpx:TrackPointExtension xmlns:gpxtpx="http://www.garmin.com/xmlschemas/TrackPointExtension/v1">
            <gpxtpx:hr>105</gpxtpx:hr>
          </gpxtpx:TrackPointExtension>
        </extensions>
      </trkpt>
      <trkpt lat="45.78126" lon="6.43292">
        <ele>1410.4000244141</ele>
        <time>2020-07-05T06:54:13.000Z</time>
        <extensions>
          <gpxtpx:TrackPointExtension xmlns:gpxtpx="http://www.garmin.com/xmlschemas/TrackPointExtension/v1">
            <gpxtpx:hr>104</gpxtpx:hr>
          </gpxtpx:TrackPointExtension>
        </extensions>
      </trkpt>
      <trkpt lat="45.78122" lon="6.43299">
        <ele>1410.1999511719</ele>
        <time>2020-07-05T06:54:14.000Z</time>
        <extensions>
          <gpxtpx:TrackPointExtension xmlns:gpxtpx="http://www.garmin.com/xmlschemas/TrackPointExtension/v1">
            <gpxtpx:hr>103</gpxtpx:hr>
          </gpxtpx:TrackPointExtension>
        </extensions>
      </trkpt>
      <trkpt lat="45.78122" lon="6.43327">
        <ele>1409.5999755859</ele>
        <time>2020-07-05T06:54:16.000Z</time>
        <extensions>
          <gpxtpx:TrackPointExtension xmlns:gpxtpx="http://www.garmin.com/xmlschemas/TrackPointExtension/v1">
            <gpxtpx:hr>103</gpxtpx:hr>
          </gpxtpx:TrackPointExtension>
        </extensions>
      </trkpt>
      <trkpt lat="45.78121" lon="6.43371">
        <ele>1408.4000244141</ele>
        <time>2020-07-05T06:54:19.000Z</time>
        <extensions>
          <gpxtpx:TrackPointExtension xmlns:gpxtpx="http://www.garmin.com/xmlschemas/TrackPointExtension/v1">
            <gpxtpx:hr>104</gpxtpx:hr>
          </gpxtpx:TrackPointExtension>
        </extensions>
      </trkpt>
      <trkpt lat="45.78119" lon="6.43401">
        <ele>1407.4000244141</ele>
        <time>2020-07-05T06:54:21.000Z</time>
        <extensions>
          <gpxtpx:TrackPointExtension xmlns:gpxtpx="http://www.garmin.com/xmlschemas/TrackPointExtension/v1">
            <gpxtpx:hr>106</gpxtpx:hr>
          </gpxtpx:TrackPointExtension>
        </extensions>
      </trkpt>
      <trkpt lat="45.78119" lon="6.43416">
        <ele>1407.1999511719</ele>
        <time>2020-07-05T06:54:22.000Z</time>
        <extensions>
          <gpxtpx:TrackPointExtension xmlns:gpxtpx="http://www.garmin.com/xmlschemas/TrackPointExtension/v1">
            <gpxtpx:hr>107</gpxtpx:hr>
          </gpxtpx:TrackPointExtension>
        </extensions>
      </trkpt>
      <trkpt lat="45.7812" lon="6.43469">
        <ele>1407.4000244141</ele>
        <time>2020-07-05T06:54:26.000Z</time>
        <extensions>
          <gpxtpx:TrackPointExtension xmlns:gpxtpx="http://www.garmin.com/xmlschemas/TrackPointExtension/v1">
            <gpxtpx:hr>111</gpxtpx:hr>
          </gpxtpx:TrackPointExtension>
        </extensions>
      </trkpt>
      <trkpt lat="45.78113" lon="6.43491">
        <ele>1408.1999511719</ele>
        <time>2020-07-05T06:54:28.000Z</time>
        <extensions>
          <gpxtpx:TrackPointExtension xmlns:gpxtpx="http://www.garmin.com/xmlschemas/TrackPointExtension/v1">
            <gpxtpx:hr>109</gpxtpx:hr>
          </gpxtpx:TrackPointExtension>
        </extensions>
      </trkpt>
      <trkpt lat="45.78108" lon="6.43497">
        <ele>1408.8000488281</ele>
        <time>2020-07-05T06:54:29.000Z</time>
        <extensions>
          <gpxtpx:TrackPointExtension xmlns:gpxtpx="http://www.garmin.com/xmlschemas/TrackPointExtension/v1">
            <gpxtpx:hr>108</gpxtpx:hr>
          </gpxtpx:TrackPointExtension>
        </extensions>
      </trkpt>
      <trkpt lat="45.78101" lon="6.43501">
        <ele>1409.1999511719</ele>
        <time>2020-07-05T06:54:30.000Z</time>
        <extensions>
          <gpxtpx:TrackPointExtension xmlns:gpxtpx="http://www.garmin.com/xmlschemas/TrackPointExtension/v1">
            <gpxtpx:hr>107</gpxtpx:hr>
          </gpxtpx:TrackPointExtension>
        </extensions>
      </trkpt>
      <trkpt lat="45.78088" lon="6.4351">
        <ele>1409.8000488281</ele>
        <time>2020-07-05T06:54:32.000Z</time>
        <extensions>
          <gpxtpx:TrackPointExtension xmlns:gpxtpx="http://www.garmin.com/xmlschemas/TrackPointExtension/v1">
            <gpxtpx:hr>108</gpxtpx:hr>
          </gpxtpx:TrackPointExtension>
        </extensions>
      </trkpt>
      <trkpt lat="45.78076" lon="6.43521">
        <ele>1409.8000488281</ele>
        <time>2020-07-05T06:54:34.000Z</time>
        <extensions>
          <gpxtpx:TrackPointExtension xmlns:gpxtpx="http://www.garmin.com/xmlschemas/TrackPointExtension/v1">
            <gpxtpx:hr>109</gpxtpx:hr>
          </gpxtpx:TrackPointExtension>
        </extensions>
      </trkpt>
      <trkpt lat="45.78065" lon="6.43539">
        <ele>1409.8000488281</ele>
        <time>2020-07-05T06:54:36.000Z</time>
        <extensions>
          <gpxtpx:TrackPointExtension xmlns:gpxtpx="http://www.garmin.com/xmlschemas/TrackPointExtension/v1">
            <gpxtpx:hr>109</gpxtpx:hr>
          </gpxtpx:TrackPointExtension>
        </extensions>
      </trkpt>
      <trkpt lat="45.78064" lon="6.4355">
        <ele>1409.8000488281</ele>
        <time>2020-07-05T06:54:37.000Z</time>
        <extensions>
          <gpxtpx:TrackPointExtension xmlns:gpxtpx="http://www.garmin.com/xmlschemas/TrackPointExtension/v1">
            <gpxtpx:hr>109</gpxtpx:hr>
          </gpxtpx:TrackPointExtension>
        </extensions>
      </trkpt>
      <trkpt lat="45.78065" lon="6.43568">
        <ele>1410.5999755859</ele>
        <time>2020-07-05T06:54:39.000Z</time>
        <extensions>
          <gpxtpx:TrackPointExtension xmlns:gpxtpx="http://www.garmin.com/xmlschemas/TrackPointExtension/v1">
            <gpxtpx:hr>112</gpxtpx:hr>
          </gpxtpx:TrackPointExtension>
        </extensions>
      </trkpt>
      <trkpt lat="45.78066" lon="6.43577">
        <ele>1411</ele>
        <time>2020-07-05T06:54:40.000Z</time>
        <extensions>
          <gpxtpx:TrackPointExtension xmlns:gpxtpx="http://www.garmin.com/xmlschemas/TrackPointExtension/v1">
            <gpxtpx:hr>112</gpxtpx:hr>
          </gpxtpx:TrackPointExtension>
        </extensions>
      </trkpt>
      <trkpt lat="45.78065" lon="6.43585">
        <ele>1411.1999511719</ele>
        <time>2020-07-05T06:54:41.000Z</time>
        <extensions>
          <gpxtpx:TrackPointExtension xmlns:gpxtpx="http://www.garmin.com/xmlschemas/TrackPointExtension/v1">
            <gpxtpx:hr>110</gpxtpx:hr>
          </gpxtpx:TrackPointExtension>
        </extensions>
      </trkpt>
      <trkpt lat="45.78064" lon="6.43594">
        <ele>1411.5999755859</ele>
        <time>2020-07-05T06:54:42.000Z</time>
        <extensions>
          <gpxtpx:TrackPointExtension xmlns:gpxtpx="http://www.garmin.com/xmlschemas/TrackPointExtension/v1">
            <gpxtpx:hr>113</gpxtpx:hr>
          </gpxtpx:TrackPointExtension>
        </extensions>
      </trkpt>
      <trkpt lat="45.78063" lon="6.43602">
        <ele>1412</ele>
        <time>2020-07-05T06:54:43.000Z</time>
        <extensions>
          <gpxtpx:TrackPointExtension xmlns:gpxtpx="http://www.garmin.com/xmlschemas/TrackPointExtension/v1">
            <gpxtpx:hr>114</gpxtpx:hr>
          </gpxtpx:TrackPointExtension>
        </extensions>
      </trkpt>
      <trkpt lat="45.78061" lon="6.43618">
        <ele>1412.5999755859</ele>
        <time>2020-07-05T06:54:45.000Z</time>
        <extensions>
          <gpxtpx:TrackPointExtension xmlns:gpxtpx="http://www.garmin.com/xmlschemas/TrackPointExtension/v1">
            <gpxtpx:hr>115</gpxtpx:hr>
          </gpxtpx:TrackPointExtension>
        </extensions>
      </trkpt>
      <trkpt lat="45.78058" lon="6.43635">
        <ele>1413</ele>
        <time>2020-07-05T06:54:47.000Z</time>
        <extensions>
          <gpxtpx:TrackPointExtension xmlns:gpxtpx="http://www.garmin.com/xmlschemas/TrackPointExtension/v1">
            <gpxtpx:hr>116</gpxtpx:hr>
          </gpxtpx:TrackPointExtension>
        </extensions>
      </trkpt>
      <trkpt lat="45.78051" lon="6.4366">
        <ele>1413.4000244141</ele>
        <time>2020-07-05T06:54:50.000Z</time>
        <extensions>
          <gpxtpx:TrackPointExtension xmlns:gpxtpx="http://www.garmin.com/xmlschemas/TrackPointExtension/v1">
            <gpxtpx:hr>117</gpxtpx:hr>
          </gpxtpx:TrackPointExtension>
        </extensions>
      </trkpt>
      <trkpt lat="45.78048" lon="6.43669">
        <ele>1413.4000244141</ele>
        <time>2020-07-05T06:54:51.000Z</time>
        <extensions>
          <gpxtpx:TrackPointExtension xmlns:gpxtpx="http://www.garmin.com/xmlschemas/TrackPointExtension/v1">
            <gpxtpx:hr>117</gpxtpx:hr>
          </gpxtpx:TrackPointExtension>
        </extensions>
      </trkpt>
      <trkpt lat="45.78043" lon="6.43676">
        <ele>1413.4000244141</ele>
        <time>2020-07-05T06:54:52.000Z</time>
        <extensions>
          <gpxtpx:TrackPointExtension xmlns:gpxtpx="http://www.garmin.com/xmlschemas/TrackPointExtension/v1">
            <gpxtpx:hr>116</gpxtpx:hr>
          </gpxtpx:TrackPointExtension>
        </extensions>
      </trkpt>
      <trkpt lat="45.78034" lon="6.43687">
        <ele>1413.5999755859</ele>
        <time>2020-07-05T06:54:54.000Z</time>
        <extensions>
          <gpxtpx:TrackPointExtension xmlns:gpxtpx="http://www.garmin.com/xmlschemas/TrackPointExtension/v1">
            <gpxtpx:hr>113</gpxtpx:hr>
          </gpxtpx:TrackPointExtension>
        </extensions>
      </trkpt>
      <trkpt lat="45.78027" lon="6.43695">
        <ele>1413.5999755859</ele>
        <time>2020-07-05T06:54:55.000Z</time>
        <extensions>
          <gpxtpx:TrackPointExtension xmlns:gpxtpx="http://www.garmin.com/xmlschemas/TrackPointExtension/v1">
            <gpxtpx:hr>113</gpxtpx:hr>
          </gpxtpx:TrackPointExtension>
        </extensions>
      </trkpt>
      <trkpt lat="45.78016" lon="6.43707">
        <ele>1413.4000244141</ele>
        <time>2020-07-05T06:54:57.000Z</time>
        <extensions>
          <gpxtpx:TrackPointExtension xmlns:gpxtpx="http://www.garmin.com/xmlschemas/TrackPointExtension/v1">
            <gpxtpx:hr>110</gpxtpx:hr>
          </gpxtpx:TrackPointExtension>
        </extensions>
      </trkpt>
      <trkpt lat="45.77999" lon="6.43727">
        <ele>1413.4000244141</ele>
        <time>2020-07-05T06:55:00.000Z</time>
        <extensions>
          <gpxtpx:TrackPointExtension xmlns:gpxtpx="http://www.garmin.com/xmlschemas/TrackPointExtension/v1">
            <gpxtpx:hr>112</gpxtpx:hr>
          </gpxtpx:TrackPointExtension>
        </extensions>
      </trkpt>
      <trkpt lat="45.77996" lon="6.43736">
        <ele>1413.1999511719</ele>
        <time>2020-07-05T06:55:01.000Z</time>
        <extensions>
          <gpxtpx:TrackPointExtension xmlns:gpxtpx="http://www.garmin.com/xmlschemas/TrackPointExtension/v1">
            <gpxtpx:hr>111</gpxtpx:hr>
          </gpxtpx:TrackPointExtension>
        </extensions>
      </trkpt>
      <trkpt lat="45.77995" lon="6.43747">
        <ele>1413</ele>
        <time>2020-07-05T06:55:02.000Z</time>
        <extensions>
          <gpxtpx:TrackPointExtension xmlns:gpxtpx="http://www.garmin.com/xmlschemas/TrackPointExtension/v1">
            <gpxtpx:hr>110</gpxtpx:hr>
          </gpxtpx:TrackPointExtension>
        </extensions>
      </trkpt>
      <trkpt lat="45.77996" lon="6.43768">
        <ele>1412.5999755859</ele>
        <time>2020-07-05T06:55:04.000Z</time>
        <extensions>
          <gpxtpx:TrackPointExtension xmlns:gpxtpx="http://www.garmin.com/xmlschemas/TrackPointExtension/v1">
            <gpxtpx:hr>111</gpxtpx:hr>
          </gpxtpx:TrackPointExtension>
        </extensions>
      </trkpt>
      <trkpt lat="45.77996" lon="6.43778">
        <ele>1412.5999755859</ele>
        <time>2020-07-05T06:55:05.000Z</time>
        <extensions>
          <gpxtpx:TrackPointExtension xmlns:gpxtpx="http://www.garmin.com/xmlschemas/TrackPointExtension/v1">
            <gpxtpx:hr>112</gpxtpx:hr>
          </gpxtpx:TrackPointExtension>
        </extensions>
      </trkpt>
      <trkpt lat="45.77992" lon="6.43797">
        <ele>1412.8000488281</ele>
        <time>2020-07-05T06:55:07.000Z</time>
        <extensions>
          <gpxtpx:TrackPointExtension xmlns:gpxtpx="http://www.garmin.com/xmlschemas/TrackPointExtension/v1">
            <gpxtpx:hr>113</gpxtpx:hr>
          </gpxtpx:TrackPointExtension>
        </extensions>
      </trkpt>
      <trkpt lat="45.77981" lon="6.43809">
        <ele>1413</ele>
        <time>2020-07-05T06:55:09.000Z</time>
        <extensions>
          <gpxtpx:TrackPointExtension xmlns:gpxtpx="http://www.garmin.com/xmlschemas/TrackPointExtension/v1">
            <gpxtpx:hr>115</gpxtpx:hr>
          </gpxtpx:TrackPointExtension>
        </extensions>
      </trkpt>
      <trkpt lat="45.77967" lon="6.43818">
        <ele>1413.1999511719</ele>
        <time>2020-07-05T06:55:11.000Z</time>
        <extensions>
          <gpxtpx:TrackPointExtension xmlns:gpxtpx="http://www.garmin.com/xmlschemas/TrackPointExtension/v1">
            <gpxtpx:hr>116</gpxtpx:hr>
          </gpxtpx:TrackPointExtension>
        </extensions>
      </trkpt>
      <trkpt lat="45.77952" lon="6.43821">
        <ele>1413.1999511719</ele>
        <time>2020-07-05T06:55:13.000Z</time>
        <extensions>
          <gpxtpx:TrackPointExtension xmlns:gpxtpx="http://www.garmin.com/xmlschemas/TrackPointExtension/v1">
            <gpxtpx:hr>116</gpxtpx:hr>
          </gpxtpx:TrackPointExtension>
        </extensions>
      </trkpt>
      <trkpt lat="45.77937" lon="6.43815">
        <ele>1413</ele>
        <time>2020-07-05T06:55:15.000Z</time>
        <extensions>
          <gpxtpx:TrackPointExtension xmlns:gpxtpx="http://www.garmin.com/xmlschemas/TrackPointExtension/v1">
            <gpxtpx:hr>115</gpxtpx:hr>
          </gpxtpx:TrackPointExtension>
        </extensions>
      </trkpt>
      <trkpt lat="45.7793" lon="6.4381">
        <ele>1413</ele>
        <time>2020-07-05T06:55:16.000Z</time>
        <extensions>
          <gpxtpx:TrackPointExtension xmlns:gpxtpx="http://www.garmin.com/xmlschemas/TrackPointExtension/v1">
            <gpxtpx:hr>114</gpxtpx:hr>
          </gpxtpx:TrackPointExtension>
        </extensions>
      </trkpt>
      <trkpt lat="45.77899" lon="6.43784">
        <ele>1412.1999511719</ele>
        <time>2020-07-05T06:55:20.000Z</time>
        <extensions>
          <gpxtpx:TrackPointExtension xmlns:gpxtpx="http://www.garmin.com/xmlschemas/TrackPointExtension/v1">
            <gpxtpx:hr>113</gpxtpx:hr>
          </gpxtpx:TrackPointExtension>
        </extensions>
      </trkpt>
      <trkpt lat="45.7789" lon="6.4378">
        <ele>1412</ele>
        <time>2020-07-05T06:55:21.000Z</time>
        <extensions>
          <gpxtpx:TrackPointExtension xmlns:gpxtpx="http://www.garmin.com/xmlschemas/TrackPointExtension/v1">
            <gpxtpx:hr>112</gpxtpx:hr>
          </gpxtpx:TrackPointExtension>
        </extensions>
      </trkpt>
      <trkpt lat="45.7788" lon="6.43778">
        <ele>1411.1999511719</ele>
        <time>2020-07-05T06:55:22.000Z</time>
        <extensions>
          <gpxtpx:TrackPointExtension xmlns:gpxtpx="http://www.garmin.com/xmlschemas/TrackPointExtension/v1">
            <gpxtpx:hr>111</gpxtpx:hr>
          </gpxtpx:TrackPointExtension>
        </extensions>
      </trkpt>
      <trkpt lat="45.7787" lon="6.43776">
        <ele>1410</ele>
        <time>2020-07-05T06:55:23.000Z</time>
        <extensions>
          <gpxtpx:TrackPointExtension xmlns:gpxtpx="http://www.garmin.com/xmlschemas/TrackPointExtension/v1">
            <gpxtpx:hr>110</gpxtpx:hr>
          </gpxtpx:TrackPointExtension>
        </extensions>
      </trkpt>
      <trkpt lat="45.77859" lon="6.43773">
        <ele>1408.8000488281</ele>
        <time>2020-07-05T06:55:24.000Z</time>
        <extensions>
          <gpxtpx:TrackPointExtension xmlns:gpxtpx="http://www.garmin.com/xmlschemas/TrackPointExtension/v1">
            <gpxtpx:hr>109</gpxtpx:hr>
          </gpxtpx:TrackPointExtension>
        </extensions>
      </trkpt>
      <trkpt lat="45.7785" lon="6.4377">
        <ele>1407.1999511719</ele>
        <time>2020-07-05T06:55:25.000Z</time>
        <extensions>
          <gpxtpx:TrackPointExtension xmlns:gpxtpx="http://www.garmin.com/xmlschemas/TrackPointExtension/v1">
            <gpxtpx:hr>108</gpxtpx:hr>
          </gpxtpx:TrackPointExtension>
        </extensions>
      </trkpt>
      <trkpt lat="45.7784" lon="6.43766">
        <ele>1405.5999755859</ele>
        <time>2020-07-05T06:55:26.000Z</time>
        <extensions>
          <gpxtpx:TrackPointExtension xmlns:gpxtpx="http://www.garmin.com/xmlschemas/TrackPointExtension/v1">
            <gpxtpx:hr>107</gpxtpx:hr>
          </gpxtpx:TrackPointExtension>
        </extensions>
      </trkpt>
      <trkpt lat="45.7783" lon="6.4376">
        <ele>1404.1999511719</ele>
        <time>2020-07-05T06:55:27.000Z</time>
        <extensions>
          <gpxtpx:TrackPointExtension xmlns:gpxtpx="http://www.garmin.com/xmlschemas/TrackPointExtension/v1">
            <gpxtpx:hr>107</gpxtpx:hr>
          </gpxtpx:TrackPointExtension>
        </extensions>
      </trkpt>
      <trkpt lat="45.77811" lon="6.43749">
        <ele>1402.8000488281</ele>
        <time>2020-07-05T06:55:29.000Z</time>
        <extensions>
          <gpxtpx:TrackPointExtension xmlns:gpxtpx="http://www.garmin.com/xmlschemas/TrackPointExtension/v1">
            <gpxtpx:hr>106</gpxtpx:hr>
          </gpxtpx:TrackPointExtension>
        </extensions>
      </trkpt>
      <trkpt lat="45.77792" lon="6.43741">
        <ele>1401</ele>
        <time>2020-07-05T06:55:31.000Z</time>
        <extensions>
          <gpxtpx:TrackPointExtension xmlns:gpxtpx="http://www.garmin.com/xmlschemas/TrackPointExtension/v1">
            <gpxtpx:hr>105</gpxtpx:hr>
          </gpxtpx:TrackPointExtension>
        </extensions>
      </trkpt>
      <trkpt lat="45.77783" lon="6.43736">
        <ele>1400.1999511719</ele>
        <time>2020-07-05T06:55:32.000Z</time>
        <extensions>
          <gpxtpx:TrackPointExtension xmlns:gpxtpx="http://www.garmin.com/xmlschemas/TrackPointExtension/v1">
            <gpxtpx:hr>104</gpxtpx:hr>
          </gpxtpx:TrackPointExtension>
        </extensions>
      </trkpt>
      <trkpt lat="45.77774" lon="6.43732">
        <ele>1399.4000244141</ele>
        <time>2020-07-05T06:55:33.000Z</time>
        <extensions>
          <gpxtpx:TrackPointExtension xmlns:gpxtpx="http://www.garmin.com/xmlschemas/TrackPointExtension/v1">
            <gpxtpx:hr>103</gpxtpx:hr>
          </gpxtpx:TrackPointExtension>
        </extensions>
      </trkpt>
      <trkpt lat="45.77757" lon="6.43723">
        <ele>1398.4000244141</ele>
        <time>2020-07-05T06:55:35.000Z</time>
        <extensions>
          <gpxtpx:TrackPointExtension xmlns:gpxtpx="http://www.garmin.com/xmlschemas/TrackPointExtension/v1">
            <gpxtpx:hr>102</gpxtpx:hr>
          </gpxtpx:TrackPointExtension>
        </extensions>
      </trkpt>
      <trkpt lat="45.7775" lon="6.43717">
        <ele>1398.1999511719</ele>
        <time>2020-07-05T06:55:36.000Z</time>
        <extensions>
          <gpxtpx:TrackPointExtension xmlns:gpxtpx="http://www.garmin.com/xmlschemas/TrackPointExtension/v1">
            <gpxtpx:hr>102</gpxtpx:hr>
          </gpxtpx:TrackPointExtension>
        </extensions>
      </trkpt>
      <trkpt lat="45.77743" lon="6.43711">
        <ele>1397.8000488281</ele>
        <time>2020-07-05T06:55:37.000Z</time>
        <extensions>
          <gpxtpx:TrackPointExtension xmlns:gpxtpx="http://www.garmin.com/xmlschemas/TrackPointExtension/v1">
            <gpxtpx:hr>102</gpxtpx:hr>
          </gpxtpx:TrackPointExtension>
        </extensions>
      </trkpt>
      <trkpt lat="45.77729" lon="6.437">
        <ele>1397.1999511719</ele>
        <time>2020-07-05T06:55:39.000Z</time>
        <extensions>
          <gpxtpx:TrackPointExtension xmlns:gpxtpx="http://www.garmin.com/xmlschemas/TrackPointExtension/v1">
            <gpxtpx:hr>102</gpxtpx:hr>
          </gpxtpx:TrackPointExtension>
        </extensions>
      </trkpt>
      <trkpt lat="45.77722" lon="6.43697">
        <ele>1396.8000488281</ele>
        <time>2020-07-05T06:55:40.000Z</time>
        <extensions>
          <gpxtpx:TrackPointExtension xmlns:gpxtpx="http://www.garmin.com/xmlschemas/TrackPointExtension/v1">
            <gpxtpx:hr>102</gpxtpx:hr>
          </gpxtpx:TrackPointExtension>
        </extensions>
      </trkpt>
      <trkpt lat="45.77717" lon="6.43702">
        <ele>1396.5999755859</ele>
        <time>2020-07-05T06:55:41.000Z</time>
        <extensions>
          <gpxtpx:TrackPointExtension xmlns:gpxtpx="http://www.garmin.com/xmlschemas/TrackPointExtension/v1">
            <gpxtpx:hr>101</gpxtpx:hr>
          </gpxtpx:TrackPointExtension>
        </extensions>
      </trkpt>
      <trkpt lat="45.7771" lon="6.4371">
        <ele>1396.1999511719</ele>
        <time>2020-07-05T06:55:42.000Z</time>
        <extensions>
          <gpxtpx:TrackPointExtension xmlns:gpxtpx="http://www.garmin.com/xmlschemas/TrackPointExtension/v1">
            <gpxtpx:hr>101</gpxtpx:hr>
          </gpxtpx:TrackPointExtension>
        </extensions>
      </trkpt>
      <trkpt lat="45.77701" lon="6.43734">
        <ele>1395.1999511719</ele>
        <time>2020-07-05T06:55:44.000Z</time>
        <extensions>
          <gpxtpx:TrackPointExtension xmlns:gpxtpx="http://www.garmin.com/xmlschemas/TrackPointExtension/v1">
            <gpxtpx:hr>100</gpxtpx:hr>
          </gpxtpx:TrackPointExtension>
        </extensions>
      </trkpt>
      <trkpt lat="45.77695" lon="6.43747">
        <ele>1394.8000488281</ele>
        <time>2020-07-05T06:55:45.000Z</time>
        <extensions>
          <gpxtpx:TrackPointExtension xmlns:gpxtpx="http://www.garmin.com/xmlschemas/TrackPointExtension/v1">
            <gpxtpx:hr>99</gpxtpx:hr>
          </gpxtpx:TrackPointExtension>
        </extensions>
      </trkpt>
      <trkpt lat="45.77688" lon="6.43765">
        <ele>1394.5999755859</ele>
        <time>2020-07-05T06:55:46.000Z</time>
        <extensions>
          <gpxtpx:TrackPointExtension xmlns:gpxtpx="http://www.garmin.com/xmlschemas/TrackPointExtension/v1">
            <gpxtpx:hr>98</gpxtpx:hr>
          </gpxtpx:TrackPointExtension>
        </extensions>
      </trkpt>
      <trkpt lat="45.77685" lon="6.43789">
        <ele>1394.1999511719</ele>
        <time>2020-07-05T06:55:47.000Z</time>
        <extensions>
          <gpxtpx:TrackPointExtension xmlns:gpxtpx="http://www.garmin.com/xmlschemas/TrackPointExtension/v1">
            <gpxtpx:hr>98</gpxtpx:hr>
          </gpxtpx:TrackPointExtension>
        </extensions>
      </trkpt>
      <trkpt lat="45.77683" lon="6.43806">
        <ele>1393.8000488281</ele>
        <time>2020-07-05T06:55:48.000Z</time>
        <extensions>
          <gpxtpx:TrackPointExtension xmlns:gpxtpx="http://www.garmin.com/xmlschemas/TrackPointExtension/v1">
            <gpxtpx:hr>97</gpxtpx:hr>
          </gpxtpx:TrackPointExtension>
        </extensions>
      </trkpt>
      <trkpt lat="45.77682" lon="6.43826">
        <ele>1393.4000244141</ele>
        <time>2020-07-05T06:55:49.000Z</time>
        <extensions>
          <gpxtpx:TrackPointExtension xmlns:gpxtpx="http://www.garmin.com/xmlschemas/TrackPointExtension/v1">
            <gpxtpx:hr>97</gpxtpx:hr>
          </gpxtpx:TrackPointExtension>
        </extensions>
      </trkpt>
      <trkpt lat="45.77681" lon="6.43842">
        <ele>1393.1999511719</ele>
        <time>2020-07-05T06:55:50.000Z</time>
        <extensions>
          <gpxtpx:TrackPointExtension xmlns:gpxtpx="http://www.garmin.com/xmlschemas/TrackPointExtension/v1">
            <gpxtpx:hr>98</gpxtpx:hr>
          </gpxtpx:TrackPointExtension>
        </extensions>
      </trkpt>
      <trkpt lat="45.77679" lon="6.43871">
        <ele>1392.4000244141</ele>
        <time>2020-07-05T06:55:52.000Z</time>
        <extensions>
          <gpxtpx:TrackPointExtension xmlns:gpxtpx="http://www.garmin.com/xmlschemas/TrackPointExtension/v1">
            <gpxtpx:hr>97</gpxtpx:hr>
          </gpxtpx:TrackPointExtension>
        </extensions>
      </trkpt>
      <trkpt lat="45.77677" lon="6.43886">
        <ele>1392</ele>
        <time>2020-07-05T06:55:53.000Z</time>
        <extensions>
          <gpxtpx:TrackPointExtension xmlns:gpxtpx="http://www.garmin.com/xmlschemas/TrackPointExtension/v1">
            <gpxtpx:hr>97</gpxtpx:hr>
          </gpxtpx:TrackPointExtension>
        </extensions>
      </trkpt>
      <trkpt lat="45.77676" lon="6.439">
        <ele>1391.8000488281</ele>
        <time>2020-07-05T06:55:54.000Z</time>
        <extensions>
          <gpxtpx:TrackPointExtension xmlns:gpxtpx="http://www.garmin.com/xmlschemas/TrackPointExtension/v1">
            <gpxtpx:hr>97</gpxtpx:hr>
          </gpxtpx:TrackPointExtension>
        </extensions>
      </trkpt>
      <trkpt lat="45.77675" lon="6.43916">
        <ele>1391.1999511719</ele>
        <time>2020-07-05T06:55:55.000Z</time>
        <extensions>
          <gpxtpx:TrackPointExtension xmlns:gpxtpx="http://www.garmin.com/xmlschemas/TrackPointExtension/v1">
            <gpxtpx:hr>98</gpxtpx:hr>
          </gpxtpx:TrackPointExtension>
        </extensions>
      </trkpt>
      <trkpt lat="45.77678" lon="6.43964">
        <ele>1390.1999511719</ele>
        <time>2020-07-05T06:55:58.000Z</time>
        <extensions>
          <gpxtpx:TrackPointExtension xmlns:gpxtpx="http://www.garmin.com/xmlschemas/TrackPointExtension/v1">
            <gpxtpx:hr>98</gpxtpx:hr>
          </gpxtpx:TrackPointExtension>
        </extensions>
      </trkpt>
      <trkpt lat="45.7768" lon="6.43979">
        <ele>1390</ele>
        <time>2020-07-05T06:55:59.000Z</time>
        <extensions>
          <gpxtpx:TrackPointExtension xmlns:gpxtpx="http://www.garmin.com/xmlschemas/TrackPointExtension/v1">
            <gpxtpx:hr>98</gpxtpx:hr>
          </gpxtpx:TrackPointExtension>
        </extensions>
      </trkpt>
      <trkpt lat="45.77681" lon="6.43992">
        <ele>1390</ele>
        <time>2020-07-05T06:56:00.000Z</time>
        <extensions>
          <gpxtpx:TrackPointExtension xmlns:gpxtpx="http://www.garmin.com/xmlschemas/TrackPointExtension/v1">
            <gpxtpx:hr>98</gpxtpx:hr>
          </gpxtpx:TrackPointExtension>
        </extensions>
      </trkpt>
      <trkpt lat="45.77678" lon="6.44013">
        <ele>1390</ele>
        <time>2020-07-05T06:56:02.000Z</time>
        <extensions>
          <gpxtpx:TrackPointExtension xmlns:gpxtpx="http://www.garmin.com/xmlschemas/TrackPointExtension/v1">
            <gpxtpx:hr>99</gpxtpx:hr>
          </gpxtpx:TrackPointExtension>
        </extensions>
      </trkpt>
      <trkpt lat="45.77669" lon="6.44036">
        <ele>1390.1999511719</ele>
        <time>2020-07-05T06:56:04.000Z</time>
        <extensions>
          <gpxtpx:TrackPointExtension xmlns:gpxtpx="http://www.garmin.com/xmlschemas/TrackPointExtension/v1">
            <gpxtpx:hr>100</gpxtpx:hr>
          </gpxtpx:TrackPointExtension>
        </extensions>
      </trkpt>
      <trkpt lat="45.77664" lon="6.44045">
        <ele>1390.1999511719</ele>
        <time>2020-07-05T06:56:05.000Z</time>
        <extensions>
          <gpxtpx:TrackPointExtension xmlns:gpxtpx="http://www.garmin.com/xmlschemas/TrackPointExtension/v1">
            <gpxtpx:hr>100</gpxtpx:hr>
          </gpxtpx:TrackPointExtension>
        </extensions>
      </trkpt>
      <trkpt lat="45.77647" lon="6.44072">
        <ele>1390.5999755859</ele>
        <time>2020-07-05T06:56:08.000Z</time>
        <extensions>
          <gpxtpx:TrackPointExtension xmlns:gpxtpx="http://www.garmin.com/xmlschemas/TrackPointExtension/v1">
            <gpxtpx:hr>103</gpxtpx:hr>
          </gpxtpx:TrackPointExtension>
        </extensions>
      </trkpt>
      <trkpt lat="45.77642" lon="6.44081">
        <ele>1390.8000488281</ele>
        <time>2020-07-05T06:56:09.000Z</time>
        <extensions>
          <gpxtpx:TrackPointExtension xmlns:gpxtpx="http://www.garmin.com/xmlschemas/TrackPointExtension/v1">
            <gpxtpx:hr>102</gpxtpx:hr>
          </gpxtpx:TrackPointExtension>
        </extensions>
      </trkpt>
      <trkpt lat="45.77641" lon="6.44088">
        <ele>1391.1999511719</ele>
        <time>2020-07-05T06:56:10.000Z</time>
        <extensions>
          <gpxtpx:TrackPointExtension xmlns:gpxtpx="http://www.garmin.com/xmlschemas/TrackPointExtension/v1">
            <gpxtpx:hr>102</gpxtpx:hr>
          </gpxtpx:TrackPointExtension>
        </extensions>
      </trkpt>
      <trkpt lat="45.7764" lon="6.44096">
        <ele>1392</ele>
        <time>2020-07-05T06:56:11.000Z</time>
        <extensions>
          <gpxtpx:TrackPointExtension xmlns:gpxtpx="http://www.garmin.com/xmlschemas/TrackPointExtension/v1">
            <gpxtpx:hr>101</gpxtpx:hr>
          </gpxtpx:TrackPointExtension>
        </extensions>
      </trkpt>
      <trkpt lat="45.77639" lon="6.44101">
        <ele>1392.8000488281</ele>
        <time>2020-07-05T06:56:12.000Z</time>
        <extensions>
          <gpxtpx:TrackPointExtension xmlns:gpxtpx="http://www.garmin.com/xmlschemas/TrackPointExtension/v1">
            <gpxtpx:hr>100</gpxtpx:hr>
          </gpxtpx:TrackPointExtension>
        </extensions>
      </trkpt>
      <trkpt lat="45.7764" lon="6.44106">
        <ele>1393.1999511719</ele>
        <time>2020-07-05T06:56:13.000Z</time>
        <extensions>
          <gpxtpx:TrackPointExtension xmlns:gpxtpx="http://www.garmin.com/xmlschemas/TrackPointExtension/v1">
            <gpxtpx:hr>101</gpxtpx:hr>
          </gpxtpx:TrackPointExtension>
        </extensions>
      </trkpt>
      <trkpt lat="45.7764" lon="6.44113">
        <ele>1393.5999755859</ele>
        <time>2020-07-05T06:56:14.000Z</time>
        <extensions>
          <gpxtpx:TrackPointExtension xmlns:gpxtpx="http://www.garmin.com/xmlschemas/TrackPointExtension/v1">
            <gpxtpx:hr>102</gpxtpx:hr>
          </gpxtpx:TrackPointExtension>
        </extensions>
      </trkpt>
      <trkpt lat="45.77643" lon="6.44124">
        <ele>1394.1999511719</ele>
        <time>2020-07-05T06:56:16.000Z</time>
        <extensions>
          <gpxtpx:TrackPointExtension xmlns:gpxtpx="http://www.garmin.com/xmlschemas/TrackPointExtension/v1">
            <gpxtpx:hr>104</gpxtpx:hr>
          </gpxtpx:TrackPointExtension>
        </extensions>
      </trkpt>
      <trkpt lat="45.77646" lon="6.44129">
        <ele>1394.5999755859</ele>
        <time>2020-07-05T06:56:17.000Z</time>
        <extensions>
          <gpxtpx:TrackPointExtension xmlns:gpxtpx="http://www.garmin.com/xmlschemas/TrackPointExtension/v1">
            <gpxtpx:hr>105</gpxtpx:hr>
          </gpxtpx:TrackPointExtension>
        </extensions>
      </trkpt>
      <trkpt lat="45.77651" lon="6.44136">
        <ele>1395.5999755859</ele>
        <time>2020-07-05T06:56:19.000Z</time>
        <extensions>
          <gpxtpx:TrackPointExtension xmlns:gpxtpx="http://www.garmin.com/xmlschemas/TrackPointExtension/v1">
            <gpxtpx:hr>108</gpxtpx:hr>
          </gpxtpx:TrackPointExtension>
        </extensions>
      </trkpt>
      <trkpt lat="45.77653" lon="6.44146">
        <ele>1396.4000244141</ele>
        <time>2020-07-05T06:56:21.000Z</time>
        <extensions>
          <gpxtpx:TrackPointExtension xmlns:gpxtpx="http://www.garmin.com/xmlschemas/TrackPointExtension/v1">
            <gpxtpx:hr>111</gpxtpx:hr>
          </gpxtpx:TrackPointExtension>
        </extensions>
      </trkpt>
      <trkpt lat="45.77654" lon="6.44155">
        <ele>1396.8000488281</ele>
        <time>2020-07-05T06:56:23.000Z</time>
        <extensions>
          <gpxtpx:TrackPointExtension xmlns:gpxtpx="http://www.garmin.com/xmlschemas/TrackPointExtension/v1">
            <gpxtpx:hr>113</gpxtpx:hr>
          </gpxtpx:TrackPointExtension>
        </extensions>
      </trkpt>
      <trkpt lat="45.77656" lon="6.44159">
        <ele>1397.1999511719</ele>
        <time>2020-07-05T06:56:24.000Z</time>
        <extensions>
          <gpxtpx:TrackPointExtension xmlns:gpxtpx="http://www.garmin.com/xmlschemas/TrackPointExtension/v1">
            <gpxtpx:hr>114</gpxtpx:hr>
          </gpxtpx:TrackPointExtension>
        </extensions>
      </trkpt>
      <trkpt lat="45.77658" lon="6.44168">
        <ele>1398</ele>
        <time>2020-07-05T06:56:26.000Z</time>
        <extensions>
          <gpxtpx:TrackPointExtension xmlns:gpxtpx="http://www.garmin.com/xmlschemas/TrackPointExtension/v1">
            <gpxtpx:hr>118</gpxtpx:hr>
          </gpxtpx:TrackPointExtension>
        </extensions>
      </trkpt>
      <trkpt lat="45.7766" lon="6.44181">
        <ele>1398.8000488281</ele>
        <time>2020-07-05T06:56:29.000Z</time>
        <extensions>
          <gpxtpx:TrackPointExtension xmlns:gpxtpx="http://www.garmin.com/xmlschemas/TrackPointExtension/v1">
            <gpxtpx:hr>121</gpxtpx:hr>
          </gpxtpx:TrackPointExtension>
        </extensions>
      </trkpt>
      <trkpt lat="45.7766" lon="6.44186">
        <ele>1399.1999511719</ele>
        <time>2020-07-05T06:56:30.000Z</time>
        <extensions>
          <gpxtpx:TrackPointExtension xmlns:gpxtpx="http://www.garmin.com/xmlschemas/TrackPointExtension/v1">
            <gpxtpx:hr>122</gpxtpx:hr>
          </gpxtpx:TrackPointExtension>
        </extensions>
      </trkpt>
      <trkpt lat="45.77661" lon="6.44191">
        <ele>1399.4000244141</ele>
        <time>2020-07-05T06:56:31.000Z</time>
        <extensions>
          <gpxtpx:TrackPointExtension xmlns:gpxtpx="http://www.garmin.com/xmlschemas/TrackPointExtension/v1">
            <gpxtpx:hr>123</gpxtpx:hr>
          </gpxtpx:TrackPointExtension>
        </extensions>
      </trkpt>
      <trkpt lat="45.77665" lon="6.4421">
        <ele>1400.4000244141</ele>
        <time>2020-07-05T06:56:35.000Z</time>
        <extensions>
          <gpxtpx:TrackPointExtension xmlns:gpxtpx="http://www.garmin.com/xmlschemas/TrackPointExtension/v1">
            <gpxtpx:hr>125</gpxtpx:hr>
          </gpxtpx:TrackPointExtension>
        </extensions>
      </trkpt>
      <trkpt lat="45.77668" lon="6.44219">
        <ele>1401.1999511719</ele>
        <time>2020-07-05T06:56:37.000Z</time>
        <extensions>
          <gpxtpx:TrackPointExtension xmlns:gpxtpx="http://www.garmin.com/xmlschemas/TrackPointExtension/v1">
            <gpxtpx:hr>125</gpxtpx:hr>
          </gpxtpx:TrackPointExtension>
        </extensions>
      </trkpt>
      <trkpt lat="45.77669" lon="6.44224">
        <ele>1401.5999755859</ele>
        <time>2020-07-05T06:56:38.000Z</time>
        <extensions>
          <gpxtpx:TrackPointExtension xmlns:gpxtpx="http://www.garmin.com/xmlschemas/TrackPointExtension/v1">
            <gpxtpx:hr>126</gpxtpx:hr>
          </gpxtpx:TrackPointExtension>
        </extensions>
      </trkpt>
      <trkpt lat="45.77672" lon="6.44238">
        <ele>1402.5999755859</ele>
        <time>2020-07-05T06:56:41.000Z</time>
        <extensions>
          <gpxtpx:TrackPointExtension xmlns:gpxtpx="http://www.garmin.com/xmlschemas/TrackPointExtension/v1">
            <gpxtpx:hr>126</gpxtpx:hr>
          </gpxtpx:TrackPointExtension>
        </extensions>
      </trkpt>
      <trkpt lat="45.77676" lon="6.44252">
        <ele>1403.4000244141</ele>
        <time>2020-07-05T06:56:44.000Z</time>
        <extensions>
          <gpxtpx:TrackPointExtension xmlns:gpxtpx="http://www.garmin.com/xmlschemas/TrackPointExtension/v1">
            <gpxtpx:hr>125</gpxtpx:hr>
          </gpxtpx:TrackPointExtension>
        </extensions>
      </trkpt>
      <trkpt lat="45.77677" lon="6.44257">
        <ele>1403.5999755859</ele>
        <time>2020-07-05T06:56:45.000Z</time>
        <extensions>
          <gpxtpx:TrackPointExtension xmlns:gpxtpx="http://www.garmin.com/xmlschemas/TrackPointExtension/v1">
            <gpxtpx:hr>125</gpxtpx:hr>
          </gpxtpx:TrackPointExtension>
        </extensions>
      </trkpt>
      <trkpt lat="45.77682" lon="6.44272">
        <ele>1404.1999511719</ele>
        <time>2020-07-05T06:56:48.000Z</time>
        <extensions>
          <gpxtpx:TrackPointExtension xmlns:gpxtpx="http://www.garmin.com/xmlschemas/TrackPointExtension/v1">
            <gpxtpx:hr>126</gpxtpx:hr>
          </gpxtpx:TrackPointExtension>
        </extensions>
      </trkpt>
      <trkpt lat="45.77686" lon="6.44286">
        <ele>1404.8000488281</ele>
        <time>2020-07-05T06:56:51.000Z</time>
        <extensions>
          <gpxtpx:TrackPointExtension xmlns:gpxtpx="http://www.garmin.com/xmlschemas/TrackPointExtension/v1">
            <gpxtpx:hr>126</gpxtpx:hr>
          </gpxtpx:TrackPointExtension>
        </extensions>
      </trkpt>
      <trkpt lat="45.77688" lon="6.44295">
        <ele>1405.4000244141</ele>
        <time>2020-07-05T06:56:53.000Z</time>
        <extensions>
          <gpxtpx:TrackPointExtension xmlns:gpxtpx="http://www.garmin.com/xmlschemas/TrackPointExtension/v1">
            <gpxtpx:hr>126</gpxtpx:hr>
          </gpxtpx:TrackPointExtension>
        </extensions>
      </trkpt>
      <trkpt lat="45.77691" lon="6.44304">
        <ele>1406</ele>
        <time>2020-07-05T06:56:55.000Z</time>
        <extensions>
          <gpxtpx:TrackPointExtension xmlns:gpxtpx="http://www.garmin.com/xmlschemas/TrackPointExtension/v1">
            <gpxtpx:hr>126</gpxtpx:hr>
          </gpxtpx:TrackPointExtension>
        </extensions>
      </trkpt>
      <trkpt lat="45.77696" lon="6.44322">
        <ele>1407.1999511719</ele>
        <time>2020-07-05T06:56:59.000Z</time>
        <extensions>
          <gpxtpx:TrackPointExtension xmlns:gpxtpx="http://www.garmin.com/xmlschemas/TrackPointExtension/v1">
            <gpxtpx:hr>126</gpxtpx:hr>
          </gpxtpx:TrackPointExtension>
        </extensions>
      </trkpt>
      <trkpt lat="45.777" lon="6.44334">
        <ele>1408.4000244141</ele>
        <time>2020-07-05T06:57:02.000Z</time>
        <extensions>
          <gpxtpx:TrackPointExtension xmlns:gpxtpx="http://www.garmin.com/xmlschemas/TrackPointExtension/v1">
            <gpxtpx:hr>125</gpxtpx:hr>
          </gpxtpx:TrackPointExtension>
        </extensions>
      </trkpt>
      <trkpt lat="45.77701" lon="6.44338">
        <ele>1408.8000488281</ele>
        <time>2020-07-05T06:57:03.000Z</time>
        <extensions>
          <gpxtpx:TrackPointExtension xmlns:gpxtpx="http://www.garmin.com/xmlschemas/TrackPointExtension/v1">
            <gpxtpx:hr>125</gpxtpx:hr>
          </gpxtpx:TrackPointExtension>
        </extensions>
      </trkpt>
      <trkpt lat="45.77704" lon="6.44351">
        <ele>1409.5999755859</ele>
        <time>2020-07-05T06:57:06.000Z</time>
        <extensions>
          <gpxtpx:TrackPointExtension xmlns:gpxtpx="http://www.garmin.com/xmlschemas/TrackPointExtension/v1">
            <gpxtpx:hr>124</gpxtpx:hr>
          </gpxtpx:TrackPointExtension>
        </extensions>
      </trkpt>
      <trkpt lat="45.77704" lon="6.44365">
        <ele>1410.1999511719</ele>
        <time>2020-07-05T06:57:09.000Z</time>
        <extensions>
          <gpxtpx:TrackPointExtension xmlns:gpxtpx="http://www.garmin.com/xmlschemas/TrackPointExtension/v1">
            <gpxtpx:hr>124</gpxtpx:hr>
          </gpxtpx:TrackPointExtension>
        </extensions>
      </trkpt>
      <trkpt lat="45.77692" lon="6.44383">
        <ele>1410.5999755859</ele>
        <time>2020-07-05T06:57:13.000Z</time>
        <extensions>
          <gpxtpx:TrackPointExtension xmlns:gpxtpx="http://www.garmin.com/xmlschemas/TrackPointExtension/v1">
            <gpxtpx:hr>122</gpxtpx:hr>
          </gpxtpx:TrackPointExtension>
        </extensions>
      </trkpt>
      <trkpt lat="45.77685" lon="6.44394">
        <ele>1410.5999755859</ele>
        <time>2020-07-05T06:57:15.000Z</time>
        <extensions>
          <gpxtpx:TrackPointExtension xmlns:gpxtpx="http://www.garmin.com/xmlschemas/TrackPointExtension/v1">
            <gpxtpx:hr>120</gpxtpx:hr>
          </gpxtpx:TrackPointExtension>
        </extensions>
      </trkpt>
      <trkpt lat="45.77677" lon="6.44413">
        <ele>1410.4000244141</ele>
        <time>2020-07-05T06:57:18.000Z</time>
        <extensions>
          <gpxtpx:TrackPointExtension xmlns:gpxtpx="http://www.garmin.com/xmlschemas/TrackPointExtension/v1">
            <gpxtpx:hr>119</gpxtpx:hr>
          </gpxtpx:TrackPointExtension>
        </extensions>
      </trkpt>
      <trkpt lat="45.77675" lon="6.4442">
        <ele>1410.1999511719</ele>
        <time>2020-07-05T06:57:19.000Z</time>
        <extensions>
          <gpxtpx:TrackPointExtension xmlns:gpxtpx="http://www.garmin.com/xmlschemas/TrackPointExtension/v1">
            <gpxtpx:hr>118</gpxtpx:hr>
          </gpxtpx:TrackPointExtension>
        </extensions>
      </trkpt>
      <trkpt lat="45.77671" lon="6.44441">
        <ele>1410</ele>
        <time>2020-07-05T06:57:22.000Z</time>
        <extensions>
          <gpxtpx:TrackPointExtension xmlns:gpxtpx="http://www.garmin.com/xmlschemas/TrackPointExtension/v1">
            <gpxtpx:hr>120</gpxtpx:hr>
          </gpxtpx:TrackPointExtension>
        </extensions>
      </trkpt>
      <trkpt lat="45.77669" lon="6.44447">
        <ele>1410</ele>
        <time>2020-07-05T06:57:23.000Z</time>
        <extensions>
          <gpxtpx:TrackPointExtension xmlns:gpxtpx="http://www.garmin.com/xmlschemas/TrackPointExtension/v1">
            <gpxtpx:hr>118</gpxtpx:hr>
          </gpxtpx:TrackPointExtension>
        </extensions>
      </trkpt>
      <trkpt lat="45.77665" lon="6.4446">
        <ele>1410.1999511719</ele>
        <time>2020-07-05T06:57:25.000Z</time>
        <extensions>
          <gpxtpx:TrackPointExtension xmlns:gpxtpx="http://www.garmin.com/xmlschemas/TrackPointExtension/v1">
            <gpxtpx:hr>118</gpxtpx:hr>
          </gpxtpx:TrackPointExtension>
        </extensions>
      </trkpt>
      <trkpt lat="45.77655" lon="6.44477">
        <ele>1410.5999755859</ele>
        <time>2020-07-05T06:57:28.000Z</time>
        <extensions>
          <gpxtpx:TrackPointExtension xmlns:gpxtpx="http://www.garmin.com/xmlschemas/TrackPointExtension/v1">
            <gpxtpx:hr>119</gpxtpx:hr>
          </gpxtpx:TrackPointExtension>
        </extensions>
      </trkpt>
      <trkpt lat="45.7764" lon="6.44507">
        <ele>1410.8000488281</ele>
        <time>2020-07-05T06:57:33.000Z</time>
        <extensions>
          <gpxtpx:TrackPointExtension xmlns:gpxtpx="http://www.garmin.com/xmlschemas/TrackPointExtension/v1">
            <gpxtpx:hr>122</gpxtpx:hr>
          </gpxtpx:TrackPointExtension>
        </extensions>
      </trkpt>
      <trkpt lat="45.77636" lon="6.44514">
        <ele>1411</ele>
        <time>2020-07-05T06:57:34.000Z</time>
        <extensions>
          <gpxtpx:TrackPointExtension xmlns:gpxtpx="http://www.garmin.com/xmlschemas/TrackPointExtension/v1">
            <gpxtpx:hr>122</gpxtpx:hr>
          </gpxtpx:TrackPointExtension>
        </extensions>
      </trkpt>
      <trkpt lat="45.77634" lon="6.44519">
        <ele>1411</ele>
        <time>2020-07-05T06:57:35.000Z</time>
        <extensions>
          <gpxtpx:TrackPointExtension xmlns:gpxtpx="http://www.garmin.com/xmlschemas/TrackPointExtension/v1">
            <gpxtpx:hr>123</gpxtpx:hr>
          </gpxtpx:TrackPointExtension>
        </extensions>
      </trkpt>
      <trkpt lat="45.77611" lon="6.44559">
        <ele>1411.4000244141</ele>
        <time>2020-07-05T06:57:42.000Z</time>
        <extensions>
          <gpxtpx:TrackPointExtension xmlns:gpxtpx="http://www.garmin.com/xmlschemas/TrackPointExtension/v1">
            <gpxtpx:hr>126</gpxtpx:hr>
          </gpxtpx:TrackPointExtension>
        </extensions>
      </trkpt>
      <trkpt lat="45.77607" lon="6.44566">
        <ele>1411.5999755859</ele>
        <time>2020-07-05T06:57:43.000Z</time>
        <extensions>
          <gpxtpx:TrackPointExtension xmlns:gpxtpx="http://www.garmin.com/xmlschemas/TrackPointExtension/v1">
            <gpxtpx:hr>126</gpxtpx:hr>
          </gpxtpx:TrackPointExtension>
        </extensions>
      </trkpt>
      <trkpt lat="45.77604" lon="6.4457">
        <ele>1411.8000488281</ele>
        <time>2020-07-05T06:57:44.000Z</time>
        <extensions>
          <gpxtpx:TrackPointExtension xmlns:gpxtpx="http://www.garmin.com/xmlschemas/TrackPointExtension/v1">
            <gpxtpx:hr>126</gpxtpx:hr>
          </gpxtpx:TrackPointExtension>
        </extensions>
      </trkpt>
      <trkpt lat="45.776" lon="6.44575">
        <ele>1412</ele>
        <time>2020-07-05T06:57:45.000Z</time>
        <extensions>
          <gpxtpx:TrackPointExtension xmlns:gpxtpx="http://www.garmin.com/xmlschemas/TrackPointExtension/v1">
            <gpxtpx:hr>126</gpxtpx:hr>
          </gpxtpx:TrackPointExtension>
        </extensions>
      </trkpt>
      <trkpt lat="45.77584" lon="6.44596">
        <ele>1412.5999755859</ele>
        <time>2020-07-05T06:57:49.000Z</time>
        <extensions>
          <gpxtpx:TrackPointExtension xmlns:gpxtpx="http://www.garmin.com/xmlschemas/TrackPointExtension/v1">
            <gpxtpx:hr>124</gpxtpx:hr>
          </gpxtpx:TrackPointExtension>
        </extensions>
      </trkpt>
      <trkpt lat="45.77574" lon="6.44603">
        <ele>1412.5999755859</ele>
        <time>2020-07-05T06:57:51.000Z</time>
        <extensions>
          <gpxtpx:TrackPointExtension xmlns:gpxtpx="http://www.garmin.com/xmlschemas/TrackPointExtension/v1">
            <gpxtpx:hr>123</gpxtpx:hr>
          </gpxtpx:TrackPointExtension>
        </extensions>
      </trkpt>
      <trkpt lat="45.7756" lon="6.44605">
        <ele>1412.4000244141</ele>
        <time>2020-07-05T06:57:53.000Z</time>
        <extensions>
          <gpxtpx:TrackPointExtension xmlns:gpxtpx="http://www.garmin.com/xmlschemas/TrackPointExtension/v1">
            <gpxtpx:hr>123</gpxtpx:hr>
          </gpxtpx:TrackPointExtension>
        </extensions>
      </trkpt>
      <trkpt lat="45.77552" lon="6.44604">
        <ele>1412.1999511719</ele>
        <time>2020-07-05T06:57:54.000Z</time>
        <extensions>
          <gpxtpx:TrackPointExtension xmlns:gpxtpx="http://www.garmin.com/xmlschemas/TrackPointExtension/v1">
            <gpxtpx:hr>123</gpxtpx:hr>
          </gpxtpx:TrackPointExtension>
        </extensions>
      </trkpt>
      <trkpt lat="45.77529" lon="6.44603">
        <ele>1410</ele>
        <time>2020-07-05T06:57:57.000Z</time>
        <extensions>
          <gpxtpx:TrackPointExtension xmlns:gpxtpx="http://www.garmin.com/xmlschemas/TrackPointExtension/v1">
            <gpxtpx:hr>122</gpxtpx:hr>
          </gpxtpx:TrackPointExtension>
        </extensions>
      </trkpt>
      <trkpt lat="45.77519" lon="6.44603">
        <ele>1408.5999755859</ele>
        <time>2020-07-05T06:57:58.000Z</time>
        <extensions>
          <gpxtpx:TrackPointExtension xmlns:gpxtpx="http://www.garmin.com/xmlschemas/TrackPointExtension/v1">
            <gpxtpx:hr>121</gpxtpx:hr>
          </gpxtpx:TrackPointExtension>
        </extensions>
      </trkpt>
      <trkpt lat="45.77507" lon="6.44605">
        <ele>1407</ele>
        <time>2020-07-05T06:57:59.000Z</time>
        <extensions>
          <gpxtpx:TrackPointExtension xmlns:gpxtpx="http://www.garmin.com/xmlschemas/TrackPointExtension/v1">
            <gpxtpx:hr>120</gpxtpx:hr>
          </gpxtpx:TrackPointExtension>
        </extensions>
      </trkpt>
      <trkpt lat="45.77499" lon="6.44607">
        <ele>1405.5999755859</ele>
        <time>2020-07-05T06:58:00.000Z</time>
        <extensions>
          <gpxtpx:TrackPointExtension xmlns:gpxtpx="http://www.garmin.com/xmlschemas/TrackPointExtension/v1">
            <gpxtpx:hr>119</gpxtpx:hr>
          </gpxtpx:TrackPointExtension>
        </extensions>
      </trkpt>
      <trkpt lat="45.77478" lon="6.44613">
        <ele>1403.8000488281</ele>
        <time>2020-07-05T06:58:02.000Z</time>
        <extensions>
          <gpxtpx:TrackPointExtension xmlns:gpxtpx="http://www.garmin.com/xmlschemas/TrackPointExtension/v1">
            <gpxtpx:hr>117</gpxtpx:hr>
          </gpxtpx:TrackPointExtension>
        </extensions>
      </trkpt>
      <trkpt lat="45.77457" lon="6.44616">
        <ele>1402.1999511719</ele>
        <time>2020-07-05T06:58:04.000Z</time>
        <extensions>
          <gpxtpx:TrackPointExtension xmlns:gpxtpx="http://www.garmin.com/xmlschemas/TrackPointExtension/v1">
            <gpxtpx:hr>116</gpxtpx:hr>
          </gpxtpx:TrackPointExtension>
        </extensions>
      </trkpt>
      <trkpt lat="45.77438" lon="6.4462">
        <ele>1400.5999755859</ele>
        <time>2020-07-05T06:58:06.000Z</time>
        <extensions>
          <gpxtpx:TrackPointExtension xmlns:gpxtpx="http://www.garmin.com/xmlschemas/TrackPointExtension/v1">
            <gpxtpx:hr>115</gpxtpx:hr>
          </gpxtpx:TrackPointExtension>
        </extensions>
      </trkpt>
      <trkpt lat="45.77409" lon="6.44637">
        <ele>1399.8000488281</ele>
        <time>2020-07-05T06:58:09.000Z</time>
        <extensions>
          <gpxtpx:TrackPointExtension xmlns:gpxtpx="http://www.garmin.com/xmlschemas/TrackPointExtension/v1">
            <gpxtpx:hr>112</gpxtpx:hr>
          </gpxtpx:TrackPointExtension>
        </extensions>
      </trkpt>
      <trkpt lat="45.77404" lon="6.44642">
        <ele>1399.5999755859</ele>
        <time>2020-07-05T06:58:10.000Z</time>
        <extensions>
          <gpxtpx:TrackPointExtension xmlns:gpxtpx="http://www.garmin.com/xmlschemas/TrackPointExtension/v1">
            <gpxtpx:hr>112</gpxtpx:hr>
          </gpxtpx:TrackPointExtension>
        </extensions>
      </trkpt>
      <trkpt lat="45.77397" lon="6.44649">
        <ele>1399.4000244141</ele>
        <time>2020-07-05T06:58:11.000Z</time>
        <extensions>
          <gpxtpx:TrackPointExtension xmlns:gpxtpx="http://www.garmin.com/xmlschemas/TrackPointExtension/v1">
            <gpxtpx:hr>111</gpxtpx:hr>
          </gpxtpx:TrackPointExtension>
        </extensions>
      </trkpt>
      <trkpt lat="45.77391" lon="6.4466">
        <ele>1399.1999511719</ele>
        <time>2020-07-05T06:58:12.000Z</time>
        <extensions>
          <gpxtpx:TrackPointExtension xmlns:gpxtpx="http://www.garmin.com/xmlschemas/TrackPointExtension/v1">
            <gpxtpx:hr>112</gpxtpx:hr>
          </gpxtpx:TrackPointExtension>
        </extensions>
      </trkpt>
      <trkpt lat="45.77389" lon="6.44673">
        <ele>1398.5999755859</ele>
        <time>2020-07-05T06:58:13.000Z</time>
        <extensions>
          <gpxtpx:TrackPointExtension xmlns:gpxtpx="http://www.garmin.com/xmlschemas/TrackPointExtension/v1">
            <gpxtpx:hr>112</gpxtpx:hr>
          </gpxtpx:TrackPointExtension>
        </extensions>
      </trkpt>
      <trkpt lat="45.77388" lon="6.44688">
        <ele>1398.1999511719</ele>
        <time>2020-07-05T06:58:14.000Z</time>
        <extensions>
          <gpxtpx:TrackPointExtension xmlns:gpxtpx="http://www.garmin.com/xmlschemas/TrackPointExtension/v1">
            <gpxtpx:hr>110</gpxtpx:hr>
          </gpxtpx:TrackPointExtension>
        </extensions>
      </trkpt>
      <trkpt lat="45.77384" lon="6.44728">
        <ele>1398</ele>
        <time>2020-07-05T06:58:17.000Z</time>
        <extensions>
          <gpxtpx:TrackPointExtension xmlns:gpxtpx="http://www.garmin.com/xmlschemas/TrackPointExtension/v1">
            <gpxtpx:hr>110</gpxtpx:hr>
          </gpxtpx:TrackPointExtension>
        </extensions>
      </trkpt>
      <trkpt lat="45.77388" lon="6.44751">
        <ele>1398.1999511719</ele>
        <time>2020-07-05T06:58:19.000Z</time>
        <extensions>
          <gpxtpx:TrackPointExtension xmlns:gpxtpx="http://www.garmin.com/xmlschemas/TrackPointExtension/v1">
            <gpxtpx:hr>111</gpxtpx:hr>
          </gpxtpx:TrackPointExtension>
        </extensions>
      </trkpt>
      <trkpt lat="45.77392" lon="6.44762">
        <ele>1398.1999511719</ele>
        <time>2020-07-05T06:58:20.000Z</time>
        <extensions>
          <gpxtpx:TrackPointExtension xmlns:gpxtpx="http://www.garmin.com/xmlschemas/TrackPointExtension/v1">
            <gpxtpx:hr>111</gpxtpx:hr>
          </gpxtpx:TrackPointExtension>
        </extensions>
      </trkpt>
      <trkpt lat="45.77402" lon="6.4478">
        <ele>1398.4000244141</ele>
        <time>2020-07-05T06:58:22.000Z</time>
        <extensions>
          <gpxtpx:TrackPointExtension xmlns:gpxtpx="http://www.garmin.com/xmlschemas/TrackPointExtension/v1">
            <gpxtpx:hr>111</gpxtpx:hr>
          </gpxtpx:TrackPointExtension>
        </extensions>
      </trkpt>
      <trkpt lat="45.77413" lon="6.44796">
        <ele>1398.5999755859</ele>
        <time>2020-07-05T06:58:24.000Z</time>
        <extensions>
          <gpxtpx:TrackPointExtension xmlns:gpxtpx="http://www.garmin.com/xmlschemas/TrackPointExtension/v1">
            <gpxtpx:hr>110</gpxtpx:hr>
          </gpxtpx:TrackPointExtension>
        </extensions>
      </trkpt>
      <trkpt lat="45.77457" lon="6.44854">
        <ele>1399.1999511719</ele>
        <time>2020-07-05T06:58:32.000Z</time>
        <extensions>
          <gpxtpx:TrackPointExtension xmlns:gpxtpx="http://www.garmin.com/xmlschemas/TrackPointExtension/v1">
            <gpxtpx:hr>111</gpxtpx:hr>
          </gpxtpx:TrackPointExtension>
        </extensions>
      </trkpt>
      <trkpt lat="45.77468" lon="6.44872">
        <ele>1399.1999511719</ele>
        <time>2020-07-05T06:58:34.000Z</time>
        <extensions>
          <gpxtpx:TrackPointExtension xmlns:gpxtpx="http://www.garmin.com/xmlschemas/TrackPointExtension/v1">
            <gpxtpx:hr>111</gpxtpx:hr>
          </gpxtpx:TrackPointExtension>
        </extensions>
      </trkpt>
      <trkpt lat="45.77503" lon="6.44938">
        <ele>1398.4000244141</ele>
        <time>2020-07-05T06:58:42.000Z</time>
        <extensions>
          <gpxtpx:TrackPointExtension xmlns:gpxtpx="http://www.garmin.com/xmlschemas/TrackPointExtension/v1">
            <gpxtpx:hr>108</gpxtpx:hr>
          </gpxtpx:TrackPointExtension>
        </extensions>
      </trkpt>
      <trkpt lat="45.7751" lon="6.4497">
        <ele>1397.4000244141</ele>
        <time>2020-07-05T06:58:45.000Z</time>
        <extensions>
          <gpxtpx:TrackPointExtension xmlns:gpxtpx="http://www.garmin.com/xmlschemas/TrackPointExtension/v1">
            <gpxtpx:hr>105</gpxtpx:hr>
          </gpxtpx:TrackPointExtension>
        </extensions>
      </trkpt>
      <trkpt lat="45.77512" lon="6.44981">
        <ele>1397</ele>
        <time>2020-07-05T06:58:46.000Z</time>
        <extensions>
          <gpxtpx:TrackPointExtension xmlns:gpxtpx="http://www.garmin.com/xmlschemas/TrackPointExtension/v1">
            <gpxtpx:hr>103</gpxtpx:hr>
          </gpxtpx:TrackPointExtension>
        </extensions>
      </trkpt>
      <trkpt lat="45.77515" lon="6.45006">
        <ele>1395.8000488281</ele>
        <time>2020-07-05T06:58:48.000Z</time>
        <extensions>
          <gpxtpx:TrackPointExtension xmlns:gpxtpx="http://www.garmin.com/xmlschemas/TrackPointExtension/v1">
            <gpxtpx:hr>102</gpxtpx:hr>
          </gpxtpx:TrackPointExtension>
        </extensions>
      </trkpt>
      <trkpt lat="45.77519" lon="6.45029">
        <ele>1394.5999755859</ele>
        <time>2020-07-05T06:58:50.000Z</time>
        <extensions>
          <gpxtpx:TrackPointExtension xmlns:gpxtpx="http://www.garmin.com/xmlschemas/TrackPointExtension/v1">
            <gpxtpx:hr>103</gpxtpx:hr>
          </gpxtpx:TrackPointExtension>
        </extensions>
      </trkpt>
      <trkpt lat="45.77526" lon="6.4505">
        <ele>1393.5999755859</ele>
        <time>2020-07-05T06:58:52.000Z</time>
        <extensions>
          <gpxtpx:TrackPointExtension xmlns:gpxtpx="http://www.garmin.com/xmlschemas/TrackPointExtension/v1">
            <gpxtpx:hr>102</gpxtpx:hr>
          </gpxtpx:TrackPointExtension>
        </extensions>
      </trkpt>
      <trkpt lat="45.77536" lon="6.45077">
        <ele>1392.8000488281</ele>
        <time>2020-07-05T06:58:55.000Z</time>
        <extensions>
          <gpxtpx:TrackPointExtension xmlns:gpxtpx="http://www.garmin.com/xmlschemas/TrackPointExtension/v1">
            <gpxtpx:hr>102</gpxtpx:hr>
          </gpxtpx:TrackPointExtension>
        </extensions>
      </trkpt>
      <trkpt lat="45.77538" lon="6.45086">
        <ele>1392.5999755859</ele>
        <time>2020-07-05T06:58:56.000Z</time>
        <extensions>
          <gpxtpx:TrackPointExtension xmlns:gpxtpx="http://www.garmin.com/xmlschemas/TrackPointExtension/v1">
            <gpxtpx:hr>102</gpxtpx:hr>
          </gpxtpx:TrackPointExtension>
        </extensions>
      </trkpt>
      <trkpt lat="45.77539" lon="6.45105">
        <ele>1392.1999511719</ele>
        <time>2020-07-05T06:58:58.000Z</time>
        <extensions>
          <gpxtpx:TrackPointExtension xmlns:gpxtpx="http://www.garmin.com/xmlschemas/TrackPointExtension/v1">
            <gpxtpx:hr>101</gpxtpx:hr>
          </gpxtpx:TrackPointExtension>
        </extensions>
      </trkpt>
      <trkpt lat="45.77537" lon="6.45123">
        <ele>1391.5999755859</ele>
        <time>2020-07-05T06:59:00.000Z</time>
        <extensions>
          <gpxtpx:TrackPointExtension xmlns:gpxtpx="http://www.garmin.com/xmlschemas/TrackPointExtension/v1">
            <gpxtpx:hr>100</gpxtpx:hr>
          </gpxtpx:TrackPointExtension>
        </extensions>
      </trkpt>
      <trkpt lat="45.77533" lon="6.45143">
        <ele>1391</ele>
        <time>2020-07-05T06:59:02.000Z</time>
        <extensions>
          <gpxtpx:TrackPointExtension xmlns:gpxtpx="http://www.garmin.com/xmlschemas/TrackPointExtension/v1">
            <gpxtpx:hr>99</gpxtpx:hr>
          </gpxtpx:TrackPointExtension>
        </extensions>
      </trkpt>
      <trkpt lat="45.77532" lon="6.45155">
        <ele>1390.4000244141</ele>
        <time>2020-07-05T06:59:03.000Z</time>
        <extensions>
          <gpxtpx:TrackPointExtension xmlns:gpxtpx="http://www.garmin.com/xmlschemas/TrackPointExtension/v1">
            <gpxtpx:hr>100</gpxtpx:hr>
          </gpxtpx:TrackPointExtension>
        </extensions>
      </trkpt>
      <trkpt lat="45.77531" lon="6.45168">
        <ele>1390</ele>
        <time>2020-07-05T06:59:04.000Z</time>
        <extensions>
          <gpxtpx:TrackPointExtension xmlns:gpxtpx="http://www.garmin.com/xmlschemas/TrackPointExtension/v1">
            <gpxtpx:hr>99</gpxtpx:hr>
          </gpxtpx:TrackPointExtension>
        </extensions>
      </trkpt>
      <trkpt lat="45.7753" lon="6.45194">
        <ele>1389</ele>
        <time>2020-07-05T06:59:06.000Z</time>
        <extensions>
          <gpxtpx:TrackPointExtension xmlns:gpxtpx="http://www.garmin.com/xmlschemas/TrackPointExtension/v1">
            <gpxtpx:hr>100</gpxtpx:hr>
          </gpxtpx:TrackPointExtension>
        </extensions>
      </trkpt>
      <trkpt lat="45.77529" lon="6.4522">
        <ele>1386.8000488281</ele>
        <time>2020-07-05T06:59:08.000Z</time>
        <extensions>
          <gpxtpx:TrackPointExtension xmlns:gpxtpx="http://www.garmin.com/xmlschemas/TrackPointExtension/v1">
            <gpxtpx:hr>99</gpxtpx:hr>
          </gpxtpx:TrackPointExtension>
        </extensions>
      </trkpt>
      <trkpt lat="45.77528" lon="6.45232">
        <ele>1385.8000488281</ele>
        <time>2020-07-05T06:59:09.000Z</time>
        <extensions>
          <gpxtpx:TrackPointExtension xmlns:gpxtpx="http://www.garmin.com/xmlschemas/TrackPointExtension/v1">
            <gpxtpx:hr>98</gpxtpx:hr>
          </gpxtpx:TrackPointExtension>
        </extensions>
      </trkpt>
      <trkpt lat="45.77528" lon="6.45247">
        <ele>1385</ele>
        <time>2020-07-05T06:59:10.000Z</time>
        <extensions>
          <gpxtpx:TrackPointExtension xmlns:gpxtpx="http://www.garmin.com/xmlschemas/TrackPointExtension/v1">
            <gpxtpx:hr>98</gpxtpx:hr>
          </gpxtpx:TrackPointExtension>
        </extensions>
      </trkpt>
      <trkpt lat="45.77528" lon="6.45255">
        <ele>1384.4000244141</ele>
        <time>2020-07-05T06:59:11.000Z</time>
        <extensions>
          <gpxtpx:TrackPointExtension xmlns:gpxtpx="http://www.garmin.com/xmlschemas/TrackPointExtension/v1">
            <gpxtpx:hr>97</gpxtpx:hr>
          </gpxtpx:TrackPointExtension>
        </extensions>
      </trkpt>
      <trkpt lat="45.77523" lon="6.45276">
        <ele>1383.1999511719</ele>
        <time>2020-07-05T06:59:13.000Z</time>
        <extensions>
          <gpxtpx:TrackPointExtension xmlns:gpxtpx="http://www.garmin.com/xmlschemas/TrackPointExtension/v1">
            <gpxtpx:hr>96</gpxtpx:hr>
          </gpxtpx:TrackPointExtension>
        </extensions>
      </trkpt>
      <trkpt lat="45.77517" lon="6.45297">
        <ele>1382</ele>
        <time>2020-07-05T06:59:15.000Z</time>
        <extensions>
          <gpxtpx:TrackPointExtension xmlns:gpxtpx="http://www.garmin.com/xmlschemas/TrackPointExtension/v1">
            <gpxtpx:hr>94</gpxtpx:hr>
          </gpxtpx:TrackPointExtension>
        </extensions>
      </trkpt>
      <trkpt lat="45.77508" lon="6.45318">
        <ele>1380.4000244141</ele>
        <time>2020-07-05T06:59:17.000Z</time>
        <extensions>
          <gpxtpx:TrackPointExtension xmlns:gpxtpx="http://www.garmin.com/xmlschemas/TrackPointExtension/v1">
            <gpxtpx:hr>93</gpxtpx:hr>
          </gpxtpx:TrackPointExtension>
        </extensions>
      </trkpt>
      <trkpt lat="45.77499" lon="6.45341">
        <ele>1378.8000488281</ele>
        <time>2020-07-05T06:59:19.000Z</time>
        <extensions>
          <gpxtpx:TrackPointExtension xmlns:gpxtpx="http://www.garmin.com/xmlschemas/TrackPointExtension/v1">
            <gpxtpx:hr>92</gpxtpx:hr>
          </gpxtpx:TrackPointExtension>
        </extensions>
      </trkpt>
      <trkpt lat="45.77496" lon="6.4535">
        <ele>1377.8000488281</ele>
        <time>2020-07-05T06:59:20.000Z</time>
        <extensions>
          <gpxtpx:TrackPointExtension xmlns:gpxtpx="http://www.garmin.com/xmlschemas/TrackPointExtension/v1">
            <gpxtpx:hr>92</gpxtpx:hr>
          </gpxtpx:TrackPointExtension>
        </extensions>
      </trkpt>
      <trkpt lat="45.77492" lon="6.4536">
        <ele>1377</ele>
        <time>2020-07-05T06:59:21.000Z</time>
        <extensions>
          <gpxtpx:TrackPointExtension xmlns:gpxtpx="http://www.garmin.com/xmlschemas/TrackPointExtension/v1">
            <gpxtpx:hr>92</gpxtpx:hr>
          </gpxtpx:TrackPointExtension>
        </extensions>
      </trkpt>
      <trkpt lat="45.77482" lon="6.45375">
        <ele>1375.8000488281</ele>
        <time>2020-07-05T06:59:23.000Z</time>
        <extensions>
          <gpxtpx:TrackPointExtension xmlns:gpxtpx="http://www.garmin.com/xmlschemas/TrackPointExtension/v1">
            <gpxtpx:hr>91</gpxtpx:hr>
          </gpxtpx:TrackPointExtension>
        </extensions>
      </trkpt>
      <trkpt lat="45.77477" lon="6.45384">
        <ele>1375</ele>
        <time>2020-07-05T06:59:24.000Z</time>
        <extensions>
          <gpxtpx:TrackPointExtension xmlns:gpxtpx="http://www.garmin.com/xmlschemas/TrackPointExtension/v1">
            <gpxtpx:hr>91</gpxtpx:hr>
          </gpxtpx:TrackPointExtension>
        </extensions>
      </trkpt>
      <trkpt lat="45.77472" lon="6.45394">
        <ele>1374</ele>
        <time>2020-07-05T06:59:25.000Z</time>
        <extensions>
          <gpxtpx:TrackPointExtension xmlns:gpxtpx="http://www.garmin.com/xmlschemas/TrackPointExtension/v1">
            <gpxtpx:hr>90</gpxtpx:hr>
          </gpxtpx:TrackPointExtension>
        </extensions>
      </trkpt>
      <trkpt lat="45.77471" lon="6.45406">
        <ele>1373.1999511719</ele>
        <time>2020-07-05T06:59:26.000Z</time>
        <extensions>
          <gpxtpx:TrackPointExtension xmlns:gpxtpx="http://www.garmin.com/xmlschemas/TrackPointExtension/v1">
            <gpxtpx:hr>90</gpxtpx:hr>
          </gpxtpx:TrackPointExtension>
        </extensions>
      </trkpt>
      <trkpt lat="45.7747" lon="6.45419">
        <ele>1372.4000244141</ele>
        <time>2020-07-05T06:59:27.000Z</time>
        <extensions>
          <gpxtpx:TrackPointExtension xmlns:gpxtpx="http://www.garmin.com/xmlschemas/TrackPointExtension/v1">
            <gpxtpx:hr>90</gpxtpx:hr>
          </gpxtpx:TrackPointExtension>
        </extensions>
      </trkpt>
      <trkpt lat="45.77469" lon="6.45445">
        <ele>1371.1999511719</ele>
        <time>2020-07-05T06:59:29.000Z</time>
        <extensions>
          <gpxtpx:TrackPointExtension xmlns:gpxtpx="http://www.garmin.com/xmlschemas/TrackPointExtension/v1">
            <gpxtpx:hr>89</gpxtpx:hr>
          </gpxtpx:TrackPointExtension>
        </extensions>
      </trkpt>
      <trkpt lat="45.77467" lon="6.45457">
        <ele>1370.5999755859</ele>
        <time>2020-07-05T06:59:30.000Z</time>
        <extensions>
          <gpxtpx:TrackPointExtension xmlns:gpxtpx="http://www.garmin.com/xmlschemas/TrackPointExtension/v1">
            <gpxtpx:hr>89</gpxtpx:hr>
          </gpxtpx:TrackPointExtension>
        </extensions>
      </trkpt>
      <trkpt lat="45.77466" lon="6.45468">
        <ele>1370.1999511719</ele>
        <time>2020-07-05T06:59:31.000Z</time>
        <extensions>
          <gpxtpx:TrackPointExtension xmlns:gpxtpx="http://www.garmin.com/xmlschemas/TrackPointExtension/v1">
            <gpxtpx:hr>89</gpxtpx:hr>
          </gpxtpx:TrackPointExtension>
        </extensions>
      </trkpt>
      <trkpt lat="45.77464" lon="6.45477">
        <ele>1370</ele>
        <time>2020-07-05T06:59:32.000Z</time>
        <extensions>
          <gpxtpx:TrackPointExtension xmlns:gpxtpx="http://www.garmin.com/xmlschemas/TrackPointExtension/v1">
            <gpxtpx:hr>89</gpxtpx:hr>
          </gpxtpx:TrackPointExtension>
        </extensions>
      </trkpt>
      <trkpt lat="45.77458" lon="6.45492">
        <ele>1369.5999755859</ele>
        <time>2020-07-05T06:59:34.000Z</time>
        <extensions>
          <gpxtpx:TrackPointExtension xmlns:gpxtpx="http://www.garmin.com/xmlschemas/TrackPointExtension/v1">
            <gpxtpx:hr>88</gpxtpx:hr>
          </gpxtpx:TrackPointExtension>
        </extensions>
      </trkpt>
      <trkpt lat="45.77448" lon="6.45508">
        <ele>1369</ele>
        <time>2020-07-05T06:59:36.000Z</time>
        <extensions>
          <gpxtpx:TrackPointExtension xmlns:gpxtpx="http://www.garmin.com/xmlschemas/TrackPointExtension/v1">
            <gpxtpx:hr>88</gpxtpx:hr>
          </gpxtpx:TrackPointExtension>
        </extensions>
      </trkpt>
      <trkpt lat="45.77438" lon="6.45525">
        <ele>1368.1999511719</ele>
        <time>2020-07-05T06:59:38.000Z</time>
        <extensions>
          <gpxtpx:TrackPointExtension xmlns:gpxtpx="http://www.garmin.com/xmlschemas/TrackPointExtension/v1">
            <gpxtpx:hr>88</gpxtpx:hr>
          </gpxtpx:TrackPointExtension>
        </extensions>
      </trkpt>
      <trkpt lat="45.77431" lon="6.45532">
        <ele>1367.5999755859</ele>
        <time>2020-07-05T06:59:39.000Z</time>
        <extensions>
          <gpxtpx:TrackPointExtension xmlns:gpxtpx="http://www.garmin.com/xmlschemas/TrackPointExtension/v1">
            <gpxtpx:hr>88</gpxtpx:hr>
          </gpxtpx:TrackPointExtension>
        </extensions>
      </trkpt>
      <trkpt lat="45.77417" lon="6.45546">
        <ele>1366</ele>
        <time>2020-07-05T06:59:41.000Z</time>
        <extensions>
          <gpxtpx:TrackPointExtension xmlns:gpxtpx="http://www.garmin.com/xmlschemas/TrackPointExtension/v1">
            <gpxtpx:hr>88</gpxtpx:hr>
          </gpxtpx:TrackPointExtension>
        </extensions>
      </trkpt>
      <trkpt lat="45.7741" lon="6.45552">
        <ele>1365.4000244141</ele>
        <time>2020-07-05T06:59:42.000Z</time>
        <extensions>
          <gpxtpx:TrackPointExtension xmlns:gpxtpx="http://www.garmin.com/xmlschemas/TrackPointExtension/v1">
            <gpxtpx:hr>88</gpxtpx:hr>
          </gpxtpx:TrackPointExtension>
        </extensions>
      </trkpt>
      <trkpt lat="45.77403" lon="6.45556">
        <ele>1364.8000488281</ele>
        <time>2020-07-05T06:59:43.000Z</time>
        <extensions>
          <gpxtpx:TrackPointExtension xmlns:gpxtpx="http://www.garmin.com/xmlschemas/TrackPointExtension/v1">
            <gpxtpx:hr>89</gpxtpx:hr>
          </gpxtpx:TrackPointExtension>
        </extensions>
      </trkpt>
      <trkpt lat="45.77395" lon="6.45558">
        <ele>1364.1999511719</ele>
        <time>2020-07-05T06:59:44.000Z</time>
        <extensions>
          <gpxtpx:TrackPointExtension xmlns:gpxtpx="http://www.garmin.com/xmlschemas/TrackPointExtension/v1">
            <gpxtpx:hr>91</gpxtpx:hr>
          </gpxtpx:TrackPointExtension>
        </extensions>
      </trkpt>
      <trkpt lat="45.77387" lon="6.45559">
        <ele>1363.5999755859</ele>
        <time>2020-07-05T06:59:45.000Z</time>
        <extensions>
          <gpxtpx:TrackPointExtension xmlns:gpxtpx="http://www.garmin.com/xmlschemas/TrackPointExtension/v1">
            <gpxtpx:hr>93</gpxtpx:hr>
          </gpxtpx:TrackPointExtension>
        </extensions>
      </trkpt>
      <trkpt lat="45.77372" lon="6.45561">
        <ele>1362.4000244141</ele>
        <time>2020-07-05T06:59:47.000Z</time>
        <extensions>
          <gpxtpx:TrackPointExtension xmlns:gpxtpx="http://www.garmin.com/xmlschemas/TrackPointExtension/v1">
            <gpxtpx:hr>96</gpxtpx:hr>
          </gpxtpx:TrackPointExtension>
        </extensions>
      </trkpt>
      <trkpt lat="45.77357" lon="6.45562">
        <ele>1360.8000488281</ele>
        <time>2020-07-05T06:59:49.000Z</time>
        <extensions>
          <gpxtpx:TrackPointExtension xmlns:gpxtpx="http://www.garmin.com/xmlschemas/TrackPointExtension/v1">
            <gpxtpx:hr>96</gpxtpx:hr>
          </gpxtpx:TrackPointExtension>
        </extensions>
      </trkpt>
      <trkpt lat="45.77342" lon="6.45559">
        <ele>1359.4000244141</ele>
        <time>2020-07-05T06:59:51.000Z</time>
        <extensions>
          <gpxtpx:TrackPointExtension xmlns:gpxtpx="http://www.garmin.com/xmlschemas/TrackPointExtension/v1">
            <gpxtpx:hr>97</gpxtpx:hr>
          </gpxtpx:TrackPointExtension>
        </extensions>
      </trkpt>
      <trkpt lat="45.77325" lon="6.45556">
        <ele>1358.1999511719</ele>
        <time>2020-07-05T06:59:53.000Z</time>
        <extensions>
          <gpxtpx:TrackPointExtension xmlns:gpxtpx="http://www.garmin.com/xmlschemas/TrackPointExtension/v1">
            <gpxtpx:hr>97</gpxtpx:hr>
          </gpxtpx:TrackPointExtension>
        </extensions>
      </trkpt>
      <trkpt lat="45.77308" lon="6.45558">
        <ele>1356.5999755859</ele>
        <time>2020-07-05T06:59:55.000Z</time>
        <extensions>
          <gpxtpx:TrackPointExtension xmlns:gpxtpx="http://www.garmin.com/xmlschemas/TrackPointExtension/v1">
            <gpxtpx:hr>97</gpxtpx:hr>
          </gpxtpx:TrackPointExtension>
        </extensions>
      </trkpt>
      <trkpt lat="45.77281" lon="6.45562">
        <ele>1355</ele>
        <time>2020-07-05T06:59:58.000Z</time>
        <extensions>
          <gpxtpx:TrackPointExtension xmlns:gpxtpx="http://www.garmin.com/xmlschemas/TrackPointExtension/v1">
            <gpxtpx:hr>96</gpxtpx:hr>
          </gpxtpx:TrackPointExtension>
        </extensions>
      </trkpt>
      <trkpt lat="45.77262" lon="6.4557">
        <ele>1353.8000488281</ele>
        <time>2020-07-05T07:00:00.000Z</time>
        <extensions>
          <gpxtpx:TrackPointExtension xmlns:gpxtpx="http://www.garmin.com/xmlschemas/TrackPointExtension/v1">
            <gpxtpx:hr>95</gpxtpx:hr>
          </gpxtpx:TrackPointExtension>
        </extensions>
      </trkpt>
      <trkpt lat="45.77244" lon="6.45576">
        <ele>1352.4000244141</ele>
        <time>2020-07-05T07:00:02.000Z</time>
        <extensions>
          <gpxtpx:TrackPointExtension xmlns:gpxtpx="http://www.garmin.com/xmlschemas/TrackPointExtension/v1">
            <gpxtpx:hr>96</gpxtpx:hr>
          </gpxtpx:TrackPointExtension>
        </extensions>
      </trkpt>
      <trkpt lat="45.77235" lon="6.45578">
        <ele>1351.5999755859</ele>
        <time>2020-07-05T07:00:03.000Z</time>
        <extensions>
          <gpxtpx:TrackPointExtension xmlns:gpxtpx="http://www.garmin.com/xmlschemas/TrackPointExtension/v1">
            <gpxtpx:hr>96</gpxtpx:hr>
          </gpxtpx:TrackPointExtension>
        </extensions>
      </trkpt>
      <trkpt lat="45.77227" lon="6.45581">
        <ele>1351.1999511719</ele>
        <time>2020-07-05T07:00:04.000Z</time>
        <extensions>
          <gpxtpx:TrackPointExtension xmlns:gpxtpx="http://www.garmin.com/xmlschemas/TrackPointExtension/v1">
            <gpxtpx:hr>95</gpxtpx:hr>
          </gpxtpx:TrackPointExtension>
        </extensions>
      </trkpt>
      <trkpt lat="45.7721" lon="6.45585">
        <ele>1350.1999511719</ele>
        <time>2020-07-05T07:00:06.000Z</time>
        <extensions>
          <gpxtpx:TrackPointExtension xmlns:gpxtpx="http://www.garmin.com/xmlschemas/TrackPointExtension/v1">
            <gpxtpx:hr>95</gpxtpx:hr>
          </gpxtpx:TrackPointExtension>
        </extensions>
      </trkpt>
      <trkpt lat="45.77193" lon="6.45588">
        <ele>1348.8000488281</ele>
        <time>2020-07-05T07:00:08.000Z</time>
        <extensions>
          <gpxtpx:TrackPointExtension xmlns:gpxtpx="http://www.garmin.com/xmlschemas/TrackPointExtension/v1">
            <gpxtpx:hr>94</gpxtpx:hr>
          </gpxtpx:TrackPointExtension>
        </extensions>
      </trkpt>
      <trkpt lat="45.77175" lon="6.45588">
        <ele>1347.5999755859</ele>
        <time>2020-07-05T07:00:10.000Z</time>
        <extensions>
          <gpxtpx:TrackPointExtension xmlns:gpxtpx="http://www.garmin.com/xmlschemas/TrackPointExtension/v1">
            <gpxtpx:hr>94</gpxtpx:hr>
          </gpxtpx:TrackPointExtension>
        </extensions>
      </trkpt>
      <trkpt lat="45.77157" lon="6.45587">
        <ele>1346</ele>
        <time>2020-07-05T07:00:12.000Z</time>
        <extensions>
          <gpxtpx:TrackPointExtension xmlns:gpxtpx="http://www.garmin.com/xmlschemas/TrackPointExtension/v1">
            <gpxtpx:hr>93</gpxtpx:hr>
          </gpxtpx:TrackPointExtension>
        </extensions>
      </trkpt>
      <trkpt lat="45.77148" lon="6.45588">
        <ele>1345</ele>
        <time>2020-07-05T07:00:13.000Z</time>
        <extensions>
          <gpxtpx:TrackPointExtension xmlns:gpxtpx="http://www.garmin.com/xmlschemas/TrackPointExtension/v1">
            <gpxtpx:hr>92</gpxtpx:hr>
          </gpxtpx:TrackPointExtension>
        </extensions>
      </trkpt>
      <trkpt lat="45.77138" lon="6.45587">
        <ele>1344.1999511719</ele>
        <time>2020-07-05T07:00:14.000Z</time>
        <extensions>
          <gpxtpx:TrackPointExtension xmlns:gpxtpx="http://www.garmin.com/xmlschemas/TrackPointExtension/v1">
            <gpxtpx:hr>92</gpxtpx:hr>
          </gpxtpx:TrackPointExtension>
        </extensions>
      </trkpt>
      <trkpt lat="45.77129" lon="6.45587">
        <ele>1343.4000244141</ele>
        <time>2020-07-05T07:00:15.000Z</time>
        <extensions>
          <gpxtpx:TrackPointExtension xmlns:gpxtpx="http://www.garmin.com/xmlschemas/TrackPointExtension/v1">
            <gpxtpx:hr>92</gpxtpx:hr>
          </gpxtpx:TrackPointExtension>
        </extensions>
      </trkpt>
      <trkpt lat="45.77121" lon="6.45586">
        <ele>1342.5999755859</ele>
        <time>2020-07-05T07:00:16.000Z</time>
        <extensions>
          <gpxtpx:TrackPointExtension xmlns:gpxtpx="http://www.garmin.com/xmlschemas/TrackPointExtension/v1">
            <gpxtpx:hr>92</gpxtpx:hr>
          </gpxtpx:TrackPointExtension>
        </extensions>
      </trkpt>
      <trkpt lat="45.77113" lon="6.45585">
        <ele>1341.8000488281</ele>
        <time>2020-07-05T07:00:17.000Z</time>
        <extensions>
          <gpxtpx:TrackPointExtension xmlns:gpxtpx="http://www.garmin.com/xmlschemas/TrackPointExtension/v1">
            <gpxtpx:hr>92</gpxtpx:hr>
          </gpxtpx:TrackPointExtension>
        </extensions>
      </trkpt>
      <trkpt lat="45.77105" lon="6.45584">
        <ele>1341.4000244141</ele>
        <time>2020-07-05T07:00:18.000Z</time>
        <extensions>
          <gpxtpx:TrackPointExtension xmlns:gpxtpx="http://www.garmin.com/xmlschemas/TrackPointExtension/v1">
            <gpxtpx:hr>93</gpxtpx:hr>
          </gpxtpx:TrackPointExtension>
        </extensions>
      </trkpt>
      <trkpt lat="45.77091" lon="6.45587">
        <ele>1341</ele>
        <time>2020-07-05T07:00:20.000Z</time>
        <extensions>
          <gpxtpx:TrackPointExtension xmlns:gpxtpx="http://www.garmin.com/xmlschemas/TrackPointExtension/v1">
            <gpxtpx:hr>95</gpxtpx:hr>
          </gpxtpx:TrackPointExtension>
        </extensions>
      </trkpt>
      <trkpt lat="45.77085" lon="6.45603">
        <ele>1340.4000244141</ele>
        <time>2020-07-05T07:00:22.000Z</time>
        <extensions>
          <gpxtpx:TrackPointExtension xmlns:gpxtpx="http://www.garmin.com/xmlschemas/TrackPointExtension/v1">
            <gpxtpx:hr>94</gpxtpx:hr>
          </gpxtpx:TrackPointExtension>
        </extensions>
      </trkpt>
      <trkpt lat="45.77087" lon="6.45621">
        <ele>1340</ele>
        <time>2020-07-05T07:00:24.000Z</time>
        <extensions>
          <gpxtpx:TrackPointExtension xmlns:gpxtpx="http://www.garmin.com/xmlschemas/TrackPointExtension/v1">
            <gpxtpx:hr>94</gpxtpx:hr>
          </gpxtpx:TrackPointExtension>
        </extensions>
      </trkpt>
      <trkpt lat="45.7709" lon="6.4563">
        <ele>1339.8000488281</ele>
        <time>2020-07-05T07:00:25.000Z</time>
        <extensions>
          <gpxtpx:TrackPointExtension xmlns:gpxtpx="http://www.garmin.com/xmlschemas/TrackPointExtension/v1">
            <gpxtpx:hr>94</gpxtpx:hr>
          </gpxtpx:TrackPointExtension>
        </extensions>
      </trkpt>
      <trkpt lat="45.77111" lon="6.45679">
        <ele>1340</ele>
        <time>2020-07-05T07:00:31.000Z</time>
        <extensions>
          <gpxtpx:TrackPointExtension xmlns:gpxtpx="http://www.garmin.com/xmlschemas/TrackPointExtension/v1">
            <gpxtpx:hr>94</gpxtpx:hr>
          </gpxtpx:TrackPointExtension>
        </extensions>
      </trkpt>
      <trkpt lat="45.77119" lon="6.45695">
        <ele>1339.8000488281</ele>
        <time>2020-07-05T07:00:33.000Z</time>
        <extensions>
          <gpxtpx:TrackPointExtension xmlns:gpxtpx="http://www.garmin.com/xmlschemas/TrackPointExtension/v1">
            <gpxtpx:hr>93</gpxtpx:hr>
          </gpxtpx:TrackPointExtension>
        </extensions>
      </trkpt>
      <trkpt lat="45.77123" lon="6.45713">
        <ele>1339.5999755859</ele>
        <time>2020-07-05T07:00:35.000Z</time>
        <extensions>
          <gpxtpx:TrackPointExtension xmlns:gpxtpx="http://www.garmin.com/xmlschemas/TrackPointExtension/v1">
            <gpxtpx:hr>92</gpxtpx:hr>
          </gpxtpx:TrackPointExtension>
        </extensions>
      </trkpt>
      <trkpt lat="45.77124" lon="6.45723">
        <ele>1339.4000244141</ele>
        <time>2020-07-05T07:00:36.000Z</time>
        <extensions>
          <gpxtpx:TrackPointExtension xmlns:gpxtpx="http://www.garmin.com/xmlschemas/TrackPointExtension/v1">
            <gpxtpx:hr>92</gpxtpx:hr>
          </gpxtpx:TrackPointExtension>
        </extensions>
      </trkpt>
      <trkpt lat="45.77122" lon="6.45733">
        <ele>1339</ele>
        <time>2020-07-05T07:00:37.000Z</time>
        <extensions>
          <gpxtpx:TrackPointExtension xmlns:gpxtpx="http://www.garmin.com/xmlschemas/TrackPointExtension/v1">
            <gpxtpx:hr>91</gpxtpx:hr>
          </gpxtpx:TrackPointExtension>
        </extensions>
      </trkpt>
      <trkpt lat="45.77119" lon="6.45743">
        <ele>1338.8000488281</ele>
        <time>2020-07-05T07:00:38.000Z</time>
        <extensions>
          <gpxtpx:TrackPointExtension xmlns:gpxtpx="http://www.garmin.com/xmlschemas/TrackPointExtension/v1">
            <gpxtpx:hr>91</gpxtpx:hr>
          </gpxtpx:TrackPointExtension>
        </extensions>
      </trkpt>
      <trkpt lat="45.77117" lon="6.45753">
        <ele>1338.4000244141</ele>
        <time>2020-07-05T07:00:39.000Z</time>
        <extensions>
          <gpxtpx:TrackPointExtension xmlns:gpxtpx="http://www.garmin.com/xmlschemas/TrackPointExtension/v1">
            <gpxtpx:hr>91</gpxtpx:hr>
          </gpxtpx:TrackPointExtension>
        </extensions>
      </trkpt>
      <trkpt lat="45.77117" lon="6.45764">
        <ele>1338</ele>
        <time>2020-07-05T07:00:40.000Z</time>
        <extensions>
          <gpxtpx:TrackPointExtension xmlns:gpxtpx="http://www.garmin.com/xmlschemas/TrackPointExtension/v1">
            <gpxtpx:hr>90</gpxtpx:hr>
          </gpxtpx:TrackPointExtension>
        </extensions>
      </trkpt>
      <trkpt lat="45.77118" lon="6.45774">
        <ele>1337.8000488281</ele>
        <time>2020-07-05T07:00:41.000Z</time>
        <extensions>
          <gpxtpx:TrackPointExtension xmlns:gpxtpx="http://www.garmin.com/xmlschemas/TrackPointExtension/v1">
            <gpxtpx:hr>90</gpxtpx:hr>
          </gpxtpx:TrackPointExtension>
        </extensions>
      </trkpt>
      <trkpt lat="45.77123" lon="6.45796">
        <ele>1336.8000488281</ele>
        <time>2020-07-05T07:00:43.000Z</time>
        <extensions>
          <gpxtpx:TrackPointExtension xmlns:gpxtpx="http://www.garmin.com/xmlschemas/TrackPointExtension/v1">
            <gpxtpx:hr>90</gpxtpx:hr>
          </gpxtpx:TrackPointExtension>
        </extensions>
      </trkpt>
      <trkpt lat="45.7713" lon="6.45819">
        <ele>1335.5999755859</ele>
        <time>2020-07-05T07:00:45.000Z</time>
        <extensions>
          <gpxtpx:TrackPointExtension xmlns:gpxtpx="http://www.garmin.com/xmlschemas/TrackPointExtension/v1">
            <gpxtpx:hr>89</gpxtpx:hr>
          </gpxtpx:TrackPointExtension>
        </extensions>
      </trkpt>
      <trkpt lat="45.77138" lon="6.45842">
        <ele>1334</ele>
        <time>2020-07-05T07:00:47.000Z</time>
        <extensions>
          <gpxtpx:TrackPointExtension xmlns:gpxtpx="http://www.garmin.com/xmlschemas/TrackPointExtension/v1">
            <gpxtpx:hr>90</gpxtpx:hr>
          </gpxtpx:TrackPointExtension>
        </extensions>
      </trkpt>
      <trkpt lat="45.77145" lon="6.45876">
        <ele>1332.8000488281</ele>
        <time>2020-07-05T07:00:50.000Z</time>
        <extensions>
          <gpxtpx:TrackPointExtension xmlns:gpxtpx="http://www.garmin.com/xmlschemas/TrackPointExtension/v1">
            <gpxtpx:hr>92</gpxtpx:hr>
          </gpxtpx:TrackPointExtension>
        </extensions>
      </trkpt>
      <trkpt lat="45.77146" lon="6.45887">
        <ele>1332.4000244141</ele>
        <time>2020-07-05T07:00:51.000Z</time>
        <extensions>
          <gpxtpx:TrackPointExtension xmlns:gpxtpx="http://www.garmin.com/xmlschemas/TrackPointExtension/v1">
            <gpxtpx:hr>92</gpxtpx:hr>
          </gpxtpx:TrackPointExtension>
        </extensions>
      </trkpt>
      <trkpt lat="45.77147" lon="6.45896">
        <ele>1332</ele>
        <time>2020-07-05T07:00:52.000Z</time>
        <extensions>
          <gpxtpx:TrackPointExtension xmlns:gpxtpx="http://www.garmin.com/xmlschemas/TrackPointExtension/v1">
            <gpxtpx:hr>92</gpxtpx:hr>
          </gpxtpx:TrackPointExtension>
        </extensions>
      </trkpt>
      <trkpt lat="45.77146" lon="6.45906">
        <ele>1331.5999755859</ele>
        <time>2020-07-05T07:00:53.000Z</time>
        <extensions>
          <gpxtpx:TrackPointExtension xmlns:gpxtpx="http://www.garmin.com/xmlschemas/TrackPointExtension/v1">
            <gpxtpx:hr>92</gpxtpx:hr>
          </gpxtpx:TrackPointExtension>
        </extensions>
      </trkpt>
      <trkpt lat="45.77144" lon="6.45915">
        <ele>1331.1999511719</ele>
        <time>2020-07-05T07:00:54.000Z</time>
        <extensions>
          <gpxtpx:TrackPointExtension xmlns:gpxtpx="http://www.garmin.com/xmlschemas/TrackPointExtension/v1">
            <gpxtpx:hr>92</gpxtpx:hr>
          </gpxtpx:TrackPointExtension>
        </extensions>
      </trkpt>
      <trkpt lat="45.77138" lon="6.45937">
        <ele>1330.4000244141</ele>
        <time>2020-07-05T07:00:56.000Z</time>
        <extensions>
          <gpxtpx:TrackPointExtension xmlns:gpxtpx="http://www.garmin.com/xmlschemas/TrackPointExtension/v1">
            <gpxtpx:hr>91</gpxtpx:hr>
          </gpxtpx:TrackPointExtension>
        </extensions>
      </trkpt>
      <trkpt lat="45.77135" lon="6.45958">
        <ele>1329.4000244141</ele>
        <time>2020-07-05T07:00:58.000Z</time>
        <extensions>
          <gpxtpx:TrackPointExtension xmlns:gpxtpx="http://www.garmin.com/xmlschemas/TrackPointExtension/v1">
            <gpxtpx:hr>90</gpxtpx:hr>
          </gpxtpx:TrackPointExtension>
        </extensions>
      </trkpt>
      <trkpt lat="45.77133" lon="6.45971">
        <ele>1329</ele>
        <time>2020-07-05T07:00:59.000Z</time>
        <extensions>
          <gpxtpx:TrackPointExtension xmlns:gpxtpx="http://www.garmin.com/xmlschemas/TrackPointExtension/v1">
            <gpxtpx:hr>90</gpxtpx:hr>
          </gpxtpx:TrackPointExtension>
        </extensions>
      </trkpt>
      <trkpt lat="45.77125" lon="6.45987">
        <ele>1327.8000488281</ele>
        <time>2020-07-05T07:01:01.000Z</time>
        <extensions>
          <gpxtpx:TrackPointExtension xmlns:gpxtpx="http://www.garmin.com/xmlschemas/TrackPointExtension/v1">
            <gpxtpx:hr>91</gpxtpx:hr>
          </gpxtpx:TrackPointExtension>
        </extensions>
      </trkpt>
      <trkpt lat="45.77112" lon="6.45999">
        <ele>1326.8000488281</ele>
        <time>2020-07-05T07:01:03.000Z</time>
        <extensions>
          <gpxtpx:TrackPointExtension xmlns:gpxtpx="http://www.garmin.com/xmlschemas/TrackPointExtension/v1">
            <gpxtpx:hr>91</gpxtpx:hr>
          </gpxtpx:TrackPointExtension>
        </extensions>
      </trkpt>
      <trkpt lat="45.77104" lon="6.46017">
        <ele>1325.8000488281</ele>
        <time>2020-07-05T07:01:05.000Z</time>
        <extensions>
          <gpxtpx:TrackPointExtension xmlns:gpxtpx="http://www.garmin.com/xmlschemas/TrackPointExtension/v1">
            <gpxtpx:hr>90</gpxtpx:hr>
          </gpxtpx:TrackPointExtension>
        </extensions>
      </trkpt>
      <trkpt lat="45.77104" lon="6.46027">
        <ele>1325.1999511719</ele>
        <time>2020-07-05T07:01:06.000Z</time>
        <extensions>
          <gpxtpx:TrackPointExtension xmlns:gpxtpx="http://www.garmin.com/xmlschemas/TrackPointExtension/v1">
            <gpxtpx:hr>90</gpxtpx:hr>
          </gpxtpx:TrackPointExtension>
        </extensions>
      </trkpt>
      <trkpt lat="45.77106" lon="6.46037">
        <ele>1324.5999755859</ele>
        <time>2020-07-05T07:01:07.000Z</time>
        <extensions>
          <gpxtpx:TrackPointExtension xmlns:gpxtpx="http://www.garmin.com/xmlschemas/TrackPointExtension/v1">
            <gpxtpx:hr>90</gpxtpx:hr>
          </gpxtpx:TrackPointExtension>
        </extensions>
      </trkpt>
      <trkpt lat="45.7711" lon="6.46046">
        <ele>1324</ele>
        <time>2020-07-05T07:01:08.000Z</time>
        <extensions>
          <gpxtpx:TrackPointExtension xmlns:gpxtpx="http://www.garmin.com/xmlschemas/TrackPointExtension/v1">
            <gpxtpx:hr>90</gpxtpx:hr>
          </gpxtpx:TrackPointExtension>
        </extensions>
      </trkpt>
      <trkpt lat="45.77115" lon="6.46055">
        <ele>1323.5999755859</ele>
        <time>2020-07-05T07:01:09.000Z</time>
        <extensions>
          <gpxtpx:TrackPointExtension xmlns:gpxtpx="http://www.garmin.com/xmlschemas/TrackPointExtension/v1">
            <gpxtpx:hr>91</gpxtpx:hr>
          </gpxtpx:TrackPointExtension>
        </extensions>
      </trkpt>
      <trkpt lat="45.77121" lon="6.46062">
        <ele>1323</ele>
        <time>2020-07-05T07:01:10.000Z</time>
        <extensions>
          <gpxtpx:TrackPointExtension xmlns:gpxtpx="http://www.garmin.com/xmlschemas/TrackPointExtension/v1">
            <gpxtpx:hr>92</gpxtpx:hr>
          </gpxtpx:TrackPointExtension>
        </extensions>
      </trkpt>
      <trkpt lat="45.77129" lon="6.46068">
        <ele>1322.4000244141</ele>
        <time>2020-07-05T07:01:11.000Z</time>
        <extensions>
          <gpxtpx:TrackPointExtension xmlns:gpxtpx="http://www.garmin.com/xmlschemas/TrackPointExtension/v1">
            <gpxtpx:hr>92</gpxtpx:hr>
          </gpxtpx:TrackPointExtension>
        </extensions>
      </trkpt>
      <trkpt lat="45.77137" lon="6.46073">
        <ele>1321.8000488281</ele>
        <time>2020-07-05T07:01:12.000Z</time>
        <extensions>
          <gpxtpx:TrackPointExtension xmlns:gpxtpx="http://www.garmin.com/xmlschemas/TrackPointExtension/v1">
            <gpxtpx:hr>92</gpxtpx:hr>
          </gpxtpx:TrackPointExtension>
        </extensions>
      </trkpt>
      <trkpt lat="45.77153" lon="6.46082">
        <ele>1320.5999755859</ele>
        <time>2020-07-05T07:01:14.000Z</time>
        <extensions>
          <gpxtpx:TrackPointExtension xmlns:gpxtpx="http://www.garmin.com/xmlschemas/TrackPointExtension/v1">
            <gpxtpx:hr>93</gpxtpx:hr>
          </gpxtpx:TrackPointExtension>
        </extensions>
      </trkpt>
      <trkpt lat="45.77167" lon="6.46094">
        <ele>1319.1999511719</ele>
        <time>2020-07-05T07:01:16.000Z</time>
        <extensions>
          <gpxtpx:TrackPointExtension xmlns:gpxtpx="http://www.garmin.com/xmlschemas/TrackPointExtension/v1">
            <gpxtpx:hr>95</gpxtpx:hr>
          </gpxtpx:TrackPointExtension>
        </extensions>
      </trkpt>
      <trkpt lat="45.7718" lon="6.46106">
        <ele>1318.1999511719</ele>
        <time>2020-07-05T07:01:18.000Z</time>
        <extensions>
          <gpxtpx:TrackPointExtension xmlns:gpxtpx="http://www.garmin.com/xmlschemas/TrackPointExtension/v1">
            <gpxtpx:hr>96</gpxtpx:hr>
          </gpxtpx:TrackPointExtension>
        </extensions>
      </trkpt>
      <trkpt lat="45.77186" lon="6.46113">
        <ele>1317.8000488281</ele>
        <time>2020-07-05T07:01:19.000Z</time>
        <extensions>
          <gpxtpx:TrackPointExtension xmlns:gpxtpx="http://www.garmin.com/xmlschemas/TrackPointExtension/v1">
            <gpxtpx:hr>96</gpxtpx:hr>
          </gpxtpx:TrackPointExtension>
        </extensions>
      </trkpt>
      <trkpt lat="45.77191" lon="6.46131">
        <ele>1316.8000488281</ele>
        <time>2020-07-05T07:01:21.000Z</time>
        <extensions>
          <gpxtpx:TrackPointExtension xmlns:gpxtpx="http://www.garmin.com/xmlschemas/TrackPointExtension/v1">
            <gpxtpx:hr>96</gpxtpx:hr>
          </gpxtpx:TrackPointExtension>
        </extensions>
      </trkpt>
      <trkpt lat="45.77188" lon="6.46152">
        <ele>1315</ele>
        <time>2020-07-05T07:01:23.000Z</time>
        <extensions>
          <gpxtpx:TrackPointExtension xmlns:gpxtpx="http://www.garmin.com/xmlschemas/TrackPointExtension/v1">
            <gpxtpx:hr>95</gpxtpx:hr>
          </gpxtpx:TrackPointExtension>
        </extensions>
      </trkpt>
      <trkpt lat="45.77186" lon="6.46164">
        <ele>1314.4000244141</ele>
        <time>2020-07-05T07:01:24.000Z</time>
        <extensions>
          <gpxtpx:TrackPointExtension xmlns:gpxtpx="http://www.garmin.com/xmlschemas/TrackPointExtension/v1">
            <gpxtpx:hr>95</gpxtpx:hr>
          </gpxtpx:TrackPointExtension>
        </extensions>
      </trkpt>
      <trkpt lat="45.77184" lon="6.46175">
        <ele>1314</ele>
        <time>2020-07-05T07:01:25.000Z</time>
        <extensions>
          <gpxtpx:TrackPointExtension xmlns:gpxtpx="http://www.garmin.com/xmlschemas/TrackPointExtension/v1">
            <gpxtpx:hr>94</gpxtpx:hr>
          </gpxtpx:TrackPointExtension>
        </extensions>
      </trkpt>
      <trkpt lat="45.77179" lon="6.46193">
        <ele>1312.4000244141</ele>
        <time>2020-07-05T07:01:27.000Z</time>
        <extensions>
          <gpxtpx:TrackPointExtension xmlns:gpxtpx="http://www.garmin.com/xmlschemas/TrackPointExtension/v1">
            <gpxtpx:hr>92</gpxtpx:hr>
          </gpxtpx:TrackPointExtension>
        </extensions>
      </trkpt>
      <trkpt lat="45.77175" lon="6.46198">
        <ele>1311.8000488281</ele>
        <time>2020-07-05T07:01:28.000Z</time>
        <extensions>
          <gpxtpx:TrackPointExtension xmlns:gpxtpx="http://www.garmin.com/xmlschemas/TrackPointExtension/v1">
            <gpxtpx:hr>92</gpxtpx:hr>
          </gpxtpx:TrackPointExtension>
        </extensions>
      </trkpt>
      <trkpt lat="45.77169" lon="6.46201">
        <ele>1311.1999511719</ele>
        <time>2020-07-05T07:01:29.000Z</time>
        <extensions>
          <gpxtpx:TrackPointExtension xmlns:gpxtpx="http://www.garmin.com/xmlschemas/TrackPointExtension/v1">
            <gpxtpx:hr>91</gpxtpx:hr>
          </gpxtpx:TrackPointExtension>
        </extensions>
      </trkpt>
      <trkpt lat="45.77154" lon="6.46206">
        <ele>1310.1999511719</ele>
        <time>2020-07-05T07:01:31.000Z</time>
        <extensions>
          <gpxtpx:TrackPointExtension xmlns:gpxtpx="http://www.garmin.com/xmlschemas/TrackPointExtension/v1">
            <gpxtpx:hr>90</gpxtpx:hr>
          </gpxtpx:TrackPointExtension>
        </extensions>
      </trkpt>
      <trkpt lat="45.77139" lon="6.46213">
        <ele>1309</ele>
        <time>2020-07-05T07:01:33.000Z</time>
        <extensions>
          <gpxtpx:TrackPointExtension xmlns:gpxtpx="http://www.garmin.com/xmlschemas/TrackPointExtension/v1">
            <gpxtpx:hr>90</gpxtpx:hr>
          </gpxtpx:TrackPointExtension>
        </extensions>
      </trkpt>
      <trkpt lat="45.77133" lon="6.46216">
        <ele>1308</ele>
        <time>2020-07-05T07:01:34.000Z</time>
        <extensions>
          <gpxtpx:TrackPointExtension xmlns:gpxtpx="http://www.garmin.com/xmlschemas/TrackPointExtension/v1">
            <gpxtpx:hr>90</gpxtpx:hr>
          </gpxtpx:TrackPointExtension>
        </extensions>
      </trkpt>
      <trkpt lat="45.77122" lon="6.46227">
        <ele>1306.5999755859</ele>
        <time>2020-07-05T07:01:36.000Z</time>
        <extensions>
          <gpxtpx:TrackPointExtension xmlns:gpxtpx="http://www.garmin.com/xmlschemas/TrackPointExtension/v1">
            <gpxtpx:hr>90</gpxtpx:hr>
          </gpxtpx:TrackPointExtension>
        </extensions>
      </trkpt>
      <trkpt lat="45.77121" lon="6.46247">
        <ele>1305.8000488281</ele>
        <time>2020-07-05T07:01:38.000Z</time>
        <extensions>
          <gpxtpx:TrackPointExtension xmlns:gpxtpx="http://www.garmin.com/xmlschemas/TrackPointExtension/v1">
            <gpxtpx:hr>90</gpxtpx:hr>
          </gpxtpx:TrackPointExtension>
        </extensions>
      </trkpt>
      <trkpt lat="45.7712" lon="6.46258">
        <ele>1305.1999511719</ele>
        <time>2020-07-05T07:01:39.000Z</time>
        <extensions>
          <gpxtpx:TrackPointExtension xmlns:gpxtpx="http://www.garmin.com/xmlschemas/TrackPointExtension/v1">
            <gpxtpx:hr>90</gpxtpx:hr>
          </gpxtpx:TrackPointExtension>
        </extensions>
      </trkpt>
      <trkpt lat="45.77119" lon="6.46269">
        <ele>1304.1999511719</ele>
        <time>2020-07-05T07:01:40.000Z</time>
        <extensions>
          <gpxtpx:TrackPointExtension xmlns:gpxtpx="http://www.garmin.com/xmlschemas/TrackPointExtension/v1">
            <gpxtpx:hr>90</gpxtpx:hr>
          </gpxtpx:TrackPointExtension>
        </extensions>
      </trkpt>
      <trkpt lat="45.77117" lon="6.46281">
        <ele>1303.4000244141</ele>
        <time>2020-07-05T07:01:41.000Z</time>
        <extensions>
          <gpxtpx:TrackPointExtension xmlns:gpxtpx="http://www.garmin.com/xmlschemas/TrackPointExtension/v1">
            <gpxtpx:hr>90</gpxtpx:hr>
          </gpxtpx:TrackPointExtension>
        </extensions>
      </trkpt>
      <trkpt lat="45.77112" lon="6.46303">
        <ele>1302</ele>
        <time>2020-07-05T07:01:43.000Z</time>
        <extensions>
          <gpxtpx:TrackPointExtension xmlns:gpxtpx="http://www.garmin.com/xmlschemas/TrackPointExtension/v1">
            <gpxtpx:hr>90</gpxtpx:hr>
          </gpxtpx:TrackPointExtension>
        </extensions>
      </trkpt>
      <trkpt lat="45.7711" lon="6.46312">
        <ele>1301.1999511719</ele>
        <time>2020-07-05T07:01:44.000Z</time>
        <extensions>
          <gpxtpx:TrackPointExtension xmlns:gpxtpx="http://www.garmin.com/xmlschemas/TrackPointExtension/v1">
            <gpxtpx:hr>91</gpxtpx:hr>
          </gpxtpx:TrackPointExtension>
        </extensions>
      </trkpt>
      <trkpt lat="45.77109" lon="6.46324">
        <ele>1300.4000244141</ele>
        <time>2020-07-05T07:01:45.000Z</time>
        <extensions>
          <gpxtpx:TrackPointExtension xmlns:gpxtpx="http://www.garmin.com/xmlschemas/TrackPointExtension/v1">
            <gpxtpx:hr>91</gpxtpx:hr>
          </gpxtpx:TrackPointExtension>
        </extensions>
      </trkpt>
      <trkpt lat="45.77106" lon="6.4634">
        <ele>1299.5999755859</ele>
        <time>2020-07-05T07:01:47.000Z</time>
        <extensions>
          <gpxtpx:TrackPointExtension xmlns:gpxtpx="http://www.garmin.com/xmlschemas/TrackPointExtension/v1">
            <gpxtpx:hr>95</gpxtpx:hr>
          </gpxtpx:TrackPointExtension>
        </extensions>
      </trkpt>
      <trkpt lat="45.77102" lon="6.46343">
        <ele>1299.1999511719</ele>
        <time>2020-07-05T07:01:48.000Z</time>
        <extensions>
          <gpxtpx:TrackPointExtension xmlns:gpxtpx="http://www.garmin.com/xmlschemas/TrackPointExtension/v1">
            <gpxtpx:hr>95</gpxtpx:hr>
          </gpxtpx:TrackPointExtension>
        </extensions>
      </trkpt>
      <trkpt lat="45.77096" lon="6.46344">
        <ele>1298.8000488281</ele>
        <time>2020-07-05T07:01:49.000Z</time>
        <extensions>
          <gpxtpx:TrackPointExtension xmlns:gpxtpx="http://www.garmin.com/xmlschemas/TrackPointExtension/v1">
            <gpxtpx:hr>95</gpxtpx:hr>
          </gpxtpx:TrackPointExtension>
        </extensions>
      </trkpt>
      <trkpt lat="45.7709" lon="6.46343">
        <ele>1297.8000488281</ele>
        <time>2020-07-05T07:01:50.000Z</time>
        <extensions>
          <gpxtpx:TrackPointExtension xmlns:gpxtpx="http://www.garmin.com/xmlschemas/TrackPointExtension/v1">
            <gpxtpx:hr>94</gpxtpx:hr>
          </gpxtpx:TrackPointExtension>
        </extensions>
      </trkpt>
      <trkpt lat="45.77084" lon="6.4634">
        <ele>1296.5999755859</ele>
        <time>2020-07-05T07:01:51.000Z</time>
        <extensions>
          <gpxtpx:TrackPointExtension xmlns:gpxtpx="http://www.garmin.com/xmlschemas/TrackPointExtension/v1">
            <gpxtpx:hr>94</gpxtpx:hr>
          </gpxtpx:TrackPointExtension>
        </extensions>
      </trkpt>
      <trkpt lat="45.77069" lon="6.46332">
        <ele>1294.8000488281</ele>
        <time>2020-07-05T07:01:53.000Z</time>
        <extensions>
          <gpxtpx:TrackPointExtension xmlns:gpxtpx="http://www.garmin.com/xmlschemas/TrackPointExtension/v1">
            <gpxtpx:hr>95</gpxtpx:hr>
          </gpxtpx:TrackPointExtension>
        </extensions>
      </trkpt>
      <trkpt lat="45.77053" lon="6.46324">
        <ele>1292.5999755859</ele>
        <time>2020-07-05T07:01:55.000Z</time>
        <extensions>
          <gpxtpx:TrackPointExtension xmlns:gpxtpx="http://www.garmin.com/xmlschemas/TrackPointExtension/v1">
            <gpxtpx:hr>95</gpxtpx:hr>
          </gpxtpx:TrackPointExtension>
        </extensions>
      </trkpt>
      <trkpt lat="45.77044" lon="6.46321">
        <ele>1291</ele>
        <time>2020-07-05T07:01:56.000Z</time>
        <extensions>
          <gpxtpx:TrackPointExtension xmlns:gpxtpx="http://www.garmin.com/xmlschemas/TrackPointExtension/v1">
            <gpxtpx:hr>95</gpxtpx:hr>
          </gpxtpx:TrackPointExtension>
        </extensions>
      </trkpt>
      <trkpt lat="45.77035" lon="6.46318">
        <ele>1290</ele>
        <time>2020-07-05T07:01:57.000Z</time>
        <extensions>
          <gpxtpx:TrackPointExtension xmlns:gpxtpx="http://www.garmin.com/xmlschemas/TrackPointExtension/v1">
            <gpxtpx:hr>95</gpxtpx:hr>
          </gpxtpx:TrackPointExtension>
        </extensions>
      </trkpt>
      <trkpt lat="45.77028" lon="6.46317">
        <ele>1289.1999511719</ele>
        <time>2020-07-05T07:01:58.000Z</time>
        <extensions>
          <gpxtpx:TrackPointExtension xmlns:gpxtpx="http://www.garmin.com/xmlschemas/TrackPointExtension/v1">
            <gpxtpx:hr>95</gpxtpx:hr>
          </gpxtpx:TrackPointExtension>
        </extensions>
      </trkpt>
      <trkpt lat="45.7702" lon="6.46316">
        <ele>1288.8000488281</ele>
        <time>2020-07-05T07:01:59.000Z</time>
        <extensions>
          <gpxtpx:TrackPointExtension xmlns:gpxtpx="http://www.garmin.com/xmlschemas/TrackPointExtension/v1">
            <gpxtpx:hr>95</gpxtpx:hr>
          </gpxtpx:TrackPointExtension>
        </extensions>
      </trkpt>
      <trkpt lat="45.77012" lon="6.46318">
        <ele>1288.1999511719</ele>
        <time>2020-07-05T07:02:00.000Z</time>
        <extensions>
          <gpxtpx:TrackPointExtension xmlns:gpxtpx="http://www.garmin.com/xmlschemas/TrackPointExtension/v1">
            <gpxtpx:hr>95</gpxtpx:hr>
          </gpxtpx:TrackPointExtension>
        </extensions>
      </trkpt>
      <trkpt lat="45.77002" lon="6.46322">
        <ele>1287.5999755859</ele>
        <time>2020-07-05T07:02:01.000Z</time>
        <extensions>
          <gpxtpx:TrackPointExtension xmlns:gpxtpx="http://www.garmin.com/xmlschemas/TrackPointExtension/v1">
            <gpxtpx:hr>94</gpxtpx:hr>
          </gpxtpx:TrackPointExtension>
        </extensions>
      </trkpt>
      <trkpt lat="45.76996" lon="6.46323">
        <ele>1287</ele>
        <time>2020-07-05T07:02:02.000Z</time>
        <extensions>
          <gpxtpx:TrackPointExtension xmlns:gpxtpx="http://www.garmin.com/xmlschemas/TrackPointExtension/v1">
            <gpxtpx:hr>94</gpxtpx:hr>
          </gpxtpx:TrackPointExtension>
        </extensions>
      </trkpt>
      <trkpt lat="45.76988" lon="6.46324">
        <ele>1286.4000244141</ele>
        <time>2020-07-05T07:02:03.000Z</time>
        <extensions>
          <gpxtpx:TrackPointExtension xmlns:gpxtpx="http://www.garmin.com/xmlschemas/TrackPointExtension/v1">
            <gpxtpx:hr>93</gpxtpx:hr>
          </gpxtpx:TrackPointExtension>
        </extensions>
      </trkpt>
      <trkpt lat="45.76981" lon="6.46322">
        <ele>1285.5999755859</ele>
        <time>2020-07-05T07:02:04.000Z</time>
        <extensions>
          <gpxtpx:TrackPointExtension xmlns:gpxtpx="http://www.garmin.com/xmlschemas/TrackPointExtension/v1">
            <gpxtpx:hr>93</gpxtpx:hr>
          </gpxtpx:TrackPointExtension>
        </extensions>
      </trkpt>
      <trkpt lat="45.76973" lon="6.46318">
        <ele>1285</ele>
        <time>2020-07-05T07:02:05.000Z</time>
        <extensions>
          <gpxtpx:TrackPointExtension xmlns:gpxtpx="http://www.garmin.com/xmlschemas/TrackPointExtension/v1">
            <gpxtpx:hr>95</gpxtpx:hr>
          </gpxtpx:TrackPointExtension>
        </extensions>
      </trkpt>
      <trkpt lat="45.76957" lon="6.46307">
        <ele>1283.5999755859</ele>
        <time>2020-07-05T07:02:07.000Z</time>
        <extensions>
          <gpxtpx:TrackPointExtension xmlns:gpxtpx="http://www.garmin.com/xmlschemas/TrackPointExtension/v1">
            <gpxtpx:hr>96</gpxtpx:hr>
          </gpxtpx:TrackPointExtension>
        </extensions>
      </trkpt>
      <trkpt lat="45.76949" lon="6.463">
        <ele>1282.8000488281</ele>
        <time>2020-07-05T07:02:08.000Z</time>
        <extensions>
          <gpxtpx:TrackPointExtension xmlns:gpxtpx="http://www.garmin.com/xmlschemas/TrackPointExtension/v1">
            <gpxtpx:hr>96</gpxtpx:hr>
          </gpxtpx:TrackPointExtension>
        </extensions>
      </trkpt>
      <trkpt lat="45.7694" lon="6.46293">
        <ele>1281.8000488281</ele>
        <time>2020-07-05T07:02:09.000Z</time>
        <extensions>
          <gpxtpx:TrackPointExtension xmlns:gpxtpx="http://www.garmin.com/xmlschemas/TrackPointExtension/v1">
            <gpxtpx:hr>96</gpxtpx:hr>
          </gpxtpx:TrackPointExtension>
        </extensions>
      </trkpt>
      <trkpt lat="45.76922" lon="6.46273">
        <ele>1280</ele>
        <time>2020-07-05T07:02:11.000Z</time>
        <extensions>
          <gpxtpx:TrackPointExtension xmlns:gpxtpx="http://www.garmin.com/xmlschemas/TrackPointExtension/v1">
            <gpxtpx:hr>95</gpxtpx:hr>
          </gpxtpx:TrackPointExtension>
        </extensions>
      </trkpt>
      <trkpt lat="45.76914" lon="6.46264">
        <ele>1279</ele>
        <time>2020-07-05T07:02:12.000Z</time>
        <extensions>
          <gpxtpx:TrackPointExtension xmlns:gpxtpx="http://www.garmin.com/xmlschemas/TrackPointExtension/v1">
            <gpxtpx:hr>94</gpxtpx:hr>
          </gpxtpx:TrackPointExtension>
        </extensions>
      </trkpt>
      <trkpt lat="45.76906" lon="6.46256">
        <ele>1277.5999755859</ele>
        <time>2020-07-05T07:02:13.000Z</time>
        <extensions>
          <gpxtpx:TrackPointExtension xmlns:gpxtpx="http://www.garmin.com/xmlschemas/TrackPointExtension/v1">
            <gpxtpx:hr>94</gpxtpx:hr>
          </gpxtpx:TrackPointExtension>
        </extensions>
      </trkpt>
      <trkpt lat="45.76897" lon="6.46248">
        <ele>1276.1999511719</ele>
        <time>2020-07-05T07:02:14.000Z</time>
        <extensions>
          <gpxtpx:TrackPointExtension xmlns:gpxtpx="http://www.garmin.com/xmlschemas/TrackPointExtension/v1">
            <gpxtpx:hr>94</gpxtpx:hr>
          </gpxtpx:TrackPointExtension>
        </extensions>
      </trkpt>
      <trkpt lat="45.76889" lon="6.4624">
        <ele>1275.1999511719</ele>
        <time>2020-07-05T07:02:15.000Z</time>
        <extensions>
          <gpxtpx:TrackPointExtension xmlns:gpxtpx="http://www.garmin.com/xmlschemas/TrackPointExtension/v1">
            <gpxtpx:hr>94</gpxtpx:hr>
          </gpxtpx:TrackPointExtension>
        </extensions>
      </trkpt>
      <trkpt lat="45.76875" lon="6.46225">
        <ele>1273.4000244141</ele>
        <time>2020-07-05T07:02:17.000Z</time>
        <extensions>
          <gpxtpx:TrackPointExtension xmlns:gpxtpx="http://www.garmin.com/xmlschemas/TrackPointExtension/v1">
            <gpxtpx:hr>95</gpxtpx:hr>
          </gpxtpx:TrackPointExtension>
        </extensions>
      </trkpt>
      <trkpt lat="45.76868" lon="6.46219">
        <ele>1273</ele>
        <time>2020-07-05T07:02:18.000Z</time>
        <extensions>
          <gpxtpx:TrackPointExtension xmlns:gpxtpx="http://www.garmin.com/xmlschemas/TrackPointExtension/v1">
            <gpxtpx:hr>96</gpxtpx:hr>
          </gpxtpx:TrackPointExtension>
        </extensions>
      </trkpt>
      <trkpt lat="45.76861" lon="6.46214">
        <ele>1272.4000244141</ele>
        <time>2020-07-05T07:02:19.000Z</time>
        <extensions>
          <gpxtpx:TrackPointExtension xmlns:gpxtpx="http://www.garmin.com/xmlschemas/TrackPointExtension/v1">
            <gpxtpx:hr>96</gpxtpx:hr>
          </gpxtpx:TrackPointExtension>
        </extensions>
      </trkpt>
      <trkpt lat="45.76853" lon="6.46212">
        <ele>1272</ele>
        <time>2020-07-05T07:02:20.000Z</time>
        <extensions>
          <gpxtpx:TrackPointExtension xmlns:gpxtpx="http://www.garmin.com/xmlschemas/TrackPointExtension/v1">
            <gpxtpx:hr>98</gpxtpx:hr>
          </gpxtpx:TrackPointExtension>
        </extensions>
      </trkpt>
      <trkpt lat="45.76838" lon="6.46212">
        <ele>1271.5999755859</ele>
        <time>2020-07-05T07:02:22.000Z</time>
        <extensions>
          <gpxtpx:TrackPointExtension xmlns:gpxtpx="http://www.garmin.com/xmlschemas/TrackPointExtension/v1">
            <gpxtpx:hr>99</gpxtpx:hr>
          </gpxtpx:TrackPointExtension>
        </extensions>
      </trkpt>
      <trkpt lat="45.76824" lon="6.46216">
        <ele>1271.5999755859</ele>
        <time>2020-07-05T07:02:24.000Z</time>
        <extensions>
          <gpxtpx:TrackPointExtension xmlns:gpxtpx="http://www.garmin.com/xmlschemas/TrackPointExtension/v1">
            <gpxtpx:hr>99</gpxtpx:hr>
          </gpxtpx:TrackPointExtension>
        </extensions>
      </trkpt>
      <trkpt lat="45.76811" lon="6.46213">
        <ele>1271.1999511719</ele>
        <time>2020-07-05T07:02:26.000Z</time>
        <extensions>
          <gpxtpx:TrackPointExtension xmlns:gpxtpx="http://www.garmin.com/xmlschemas/TrackPointExtension/v1">
            <gpxtpx:hr>98</gpxtpx:hr>
          </gpxtpx:TrackPointExtension>
        </extensions>
      </trkpt>
      <trkpt lat="45.76807" lon="6.46209">
        <ele>1270.5999755859</ele>
        <time>2020-07-05T07:02:27.000Z</time>
        <extensions>
          <gpxtpx:TrackPointExtension xmlns:gpxtpx="http://www.garmin.com/xmlschemas/TrackPointExtension/v1">
            <gpxtpx:hr>98</gpxtpx:hr>
          </gpxtpx:TrackPointExtension>
        </extensions>
      </trkpt>
      <trkpt lat="45.76802" lon="6.46201">
        <ele>1269.5999755859</ele>
        <time>2020-07-05T07:02:28.000Z</time>
        <extensions>
          <gpxtpx:TrackPointExtension xmlns:gpxtpx="http://www.garmin.com/xmlschemas/TrackPointExtension/v1">
            <gpxtpx:hr>97</gpxtpx:hr>
          </gpxtpx:TrackPointExtension>
        </extensions>
      </trkpt>
      <trkpt lat="45.76799" lon="6.46191">
        <ele>1268.4000244141</ele>
        <time>2020-07-05T07:02:29.000Z</time>
        <extensions>
          <gpxtpx:TrackPointExtension xmlns:gpxtpx="http://www.garmin.com/xmlschemas/TrackPointExtension/v1">
            <gpxtpx:hr>96</gpxtpx:hr>
          </gpxtpx:TrackPointExtension>
        </extensions>
      </trkpt>
      <trkpt lat="45.76796" lon="6.4618">
        <ele>1267.1999511719</ele>
        <time>2020-07-05T07:02:30.000Z</time>
        <extensions>
          <gpxtpx:TrackPointExtension xmlns:gpxtpx="http://www.garmin.com/xmlschemas/TrackPointExtension/v1">
            <gpxtpx:hr>96</gpxtpx:hr>
          </gpxtpx:TrackPointExtension>
        </extensions>
      </trkpt>
      <trkpt lat="45.76794" lon="6.46168">
        <ele>1266.1999511719</ele>
        <time>2020-07-05T07:02:31.000Z</time>
        <extensions>
          <gpxtpx:TrackPointExtension xmlns:gpxtpx="http://www.garmin.com/xmlschemas/TrackPointExtension/v1">
            <gpxtpx:hr>96</gpxtpx:hr>
          </gpxtpx:TrackPointExtension>
        </extensions>
      </trkpt>
      <trkpt lat="45.76791" lon="6.46156">
        <ele>1265</ele>
        <time>2020-07-05T07:02:32.000Z</time>
        <extensions>
          <gpxtpx:TrackPointExtension xmlns:gpxtpx="http://www.garmin.com/xmlschemas/TrackPointExtension/v1">
            <gpxtpx:hr>97</gpxtpx:hr>
          </gpxtpx:TrackPointExtension>
        </extensions>
      </trkpt>
      <trkpt lat="45.76787" lon="6.46142">
        <ele>1263.8000488281</ele>
        <time>2020-07-05T07:02:33.000Z</time>
        <extensions>
          <gpxtpx:TrackPointExtension xmlns:gpxtpx="http://www.garmin.com/xmlschemas/TrackPointExtension/v1">
            <gpxtpx:hr>97</gpxtpx:hr>
          </gpxtpx:TrackPointExtension>
        </extensions>
      </trkpt>
      <trkpt lat="45.76784" lon="6.46129">
        <ele>1262.5999755859</ele>
        <time>2020-07-05T07:02:34.000Z</time>
        <extensions>
          <gpxtpx:TrackPointExtension xmlns:gpxtpx="http://www.garmin.com/xmlschemas/TrackPointExtension/v1">
            <gpxtpx:hr>96</gpxtpx:hr>
          </gpxtpx:TrackPointExtension>
        </extensions>
      </trkpt>
      <trkpt lat="45.76781" lon="6.46105">
        <ele>1261</ele>
        <time>2020-07-05T07:02:36.000Z</time>
        <extensions>
          <gpxtpx:TrackPointExtension xmlns:gpxtpx="http://www.garmin.com/xmlschemas/TrackPointExtension/v1">
            <gpxtpx:hr>96</gpxtpx:hr>
          </gpxtpx:TrackPointExtension>
        </extensions>
      </trkpt>
      <trkpt lat="45.76782" lon="6.46096">
        <ele>1260.4000244141</ele>
        <time>2020-07-05T07:02:37.000Z</time>
        <extensions>
          <gpxtpx:TrackPointExtension xmlns:gpxtpx="http://www.garmin.com/xmlschemas/TrackPointExtension/v1">
            <gpxtpx:hr>96</gpxtpx:hr>
          </gpxtpx:TrackPointExtension>
        </extensions>
      </trkpt>
      <trkpt lat="45.76782" lon="6.46086">
        <ele>1259.8000488281</ele>
        <time>2020-07-05T07:02:38.000Z</time>
        <extensions>
          <gpxtpx:TrackPointExtension xmlns:gpxtpx="http://www.garmin.com/xmlschemas/TrackPointExtension/v1">
            <gpxtpx:hr>96</gpxtpx:hr>
          </gpxtpx:TrackPointExtension>
        </extensions>
      </trkpt>
      <trkpt lat="45.76783" lon="6.46075">
        <ele>1259.5999755859</ele>
        <time>2020-07-05T07:02:39.000Z</time>
        <extensions>
          <gpxtpx:TrackPointExtension xmlns:gpxtpx="http://www.garmin.com/xmlschemas/TrackPointExtension/v1">
            <gpxtpx:hr>96</gpxtpx:hr>
          </gpxtpx:TrackPointExtension>
        </extensions>
      </trkpt>
      <trkpt lat="45.76783" lon="6.46069">
        <ele>1259</ele>
        <time>2020-07-05T07:02:40.000Z</time>
        <extensions>
          <gpxtpx:TrackPointExtension xmlns:gpxtpx="http://www.garmin.com/xmlschemas/TrackPointExtension/v1">
            <gpxtpx:hr>96</gpxtpx:hr>
          </gpxtpx:TrackPointExtension>
        </extensions>
      </trkpt>
      <trkpt lat="45.7678" lon="6.46063">
        <ele>1258.4000244141</ele>
        <time>2020-07-05T07:02:41.000Z</time>
        <extensions>
          <gpxtpx:TrackPointExtension xmlns:gpxtpx="http://www.garmin.com/xmlschemas/TrackPointExtension/v1">
            <gpxtpx:hr>96</gpxtpx:hr>
          </gpxtpx:TrackPointExtension>
        </extensions>
      </trkpt>
      <trkpt lat="45.76781" lon="6.46049">
        <ele>1257.5999755859</ele>
        <time>2020-07-05T07:02:43.000Z</time>
        <extensions>
          <gpxtpx:TrackPointExtension xmlns:gpxtpx="http://www.garmin.com/xmlschemas/TrackPointExtension/v1">
            <gpxtpx:hr>96</gpxtpx:hr>
          </gpxtpx:TrackPointExtension>
        </extensions>
      </trkpt>
      <trkpt lat="45.76775" lon="6.46051">
        <ele>1257.4000244141</ele>
        <time>2020-07-05T07:02:44.000Z</time>
        <extensions>
          <gpxtpx:TrackPointExtension xmlns:gpxtpx="http://www.garmin.com/xmlschemas/TrackPointExtension/v1">
            <gpxtpx:hr>95</gpxtpx:hr>
          </gpxtpx:TrackPointExtension>
        </extensions>
      </trkpt>
      <trkpt lat="45.76766" lon="6.46066">
        <ele>1256.5999755859</ele>
        <time>2020-07-05T07:02:46.000Z</time>
        <extensions>
          <gpxtpx:TrackPointExtension xmlns:gpxtpx="http://www.garmin.com/xmlschemas/TrackPointExtension/v1">
            <gpxtpx:hr>95</gpxtpx:hr>
          </gpxtpx:TrackPointExtension>
        </extensions>
      </trkpt>
      <trkpt lat="45.76763" lon="6.46074">
        <ele>1256.1999511719</ele>
        <time>2020-07-05T07:02:47.000Z</time>
        <extensions>
          <gpxtpx:TrackPointExtension xmlns:gpxtpx="http://www.garmin.com/xmlschemas/TrackPointExtension/v1">
            <gpxtpx:hr>93</gpxtpx:hr>
          </gpxtpx:TrackPointExtension>
        </extensions>
      </trkpt>
      <trkpt lat="45.76761" lon="6.46084">
        <ele>1255.8000488281</ele>
        <time>2020-07-05T07:02:48.000Z</time>
        <extensions>
          <gpxtpx:TrackPointExtension xmlns:gpxtpx="http://www.garmin.com/xmlschemas/TrackPointExtension/v1">
            <gpxtpx:hr>92</gpxtpx:hr>
          </gpxtpx:TrackPointExtension>
        </extensions>
      </trkpt>
      <trkpt lat="45.76759" lon="6.46109">
        <ele>1254.8000488281</ele>
        <time>2020-07-05T07:02:50.000Z</time>
        <extensions>
          <gpxtpx:TrackPointExtension xmlns:gpxtpx="http://www.garmin.com/xmlschemas/TrackPointExtension/v1">
            <gpxtpx:hr>91</gpxtpx:hr>
          </gpxtpx:TrackPointExtension>
        </extensions>
      </trkpt>
      <trkpt lat="45.76757" lon="6.46128">
        <ele>1253.8000488281</ele>
        <time>2020-07-05T07:02:52.000Z</time>
        <extensions>
          <gpxtpx:TrackPointExtension xmlns:gpxtpx="http://www.garmin.com/xmlschemas/TrackPointExtension/v1">
            <gpxtpx:hr>90</gpxtpx:hr>
          </gpxtpx:TrackPointExtension>
        </extensions>
      </trkpt>
      <trkpt lat="45.76752" lon="6.46143">
        <ele>1252.8000488281</ele>
        <time>2020-07-05T07:02:54.000Z</time>
        <extensions>
          <gpxtpx:TrackPointExtension xmlns:gpxtpx="http://www.garmin.com/xmlschemas/TrackPointExtension/v1">
            <gpxtpx:hr>90</gpxtpx:hr>
          </gpxtpx:TrackPointExtension>
        </extensions>
      </trkpt>
      <trkpt lat="45.76748" lon="6.46147">
        <ele>1252.5999755859</ele>
        <time>2020-07-05T07:02:55.000Z</time>
        <extensions>
          <gpxtpx:TrackPointExtension xmlns:gpxtpx="http://www.garmin.com/xmlschemas/TrackPointExtension/v1">
            <gpxtpx:hr>89</gpxtpx:hr>
          </gpxtpx:TrackPointExtension>
        </extensions>
      </trkpt>
      <trkpt lat="45.76745" lon="6.46146">
        <ele>1252</ele>
        <time>2020-07-05T07:02:56.000Z</time>
        <extensions>
          <gpxtpx:TrackPointExtension xmlns:gpxtpx="http://www.garmin.com/xmlschemas/TrackPointExtension/v1">
            <gpxtpx:hr>89</gpxtpx:hr>
          </gpxtpx:TrackPointExtension>
        </extensions>
      </trkpt>
      <trkpt lat="45.7674" lon="6.46141">
        <ele>1251.4000244141</ele>
        <time>2020-07-05T07:02:57.000Z</time>
        <extensions>
          <gpxtpx:TrackPointExtension xmlns:gpxtpx="http://www.garmin.com/xmlschemas/TrackPointExtension/v1">
            <gpxtpx:hr>88</gpxtpx:hr>
          </gpxtpx:TrackPointExtension>
        </extensions>
      </trkpt>
      <trkpt lat="45.76737" lon="6.46134">
        <ele>1250.8000488281</ele>
        <time>2020-07-05T07:02:58.000Z</time>
        <extensions>
          <gpxtpx:TrackPointExtension xmlns:gpxtpx="http://www.garmin.com/xmlschemas/TrackPointExtension/v1">
            <gpxtpx:hr>88</gpxtpx:hr>
          </gpxtpx:TrackPointExtension>
        </extensions>
      </trkpt>
      <trkpt lat="45.76733" lon="6.46125">
        <ele>1250</ele>
        <time>2020-07-05T07:02:59.000Z</time>
        <extensions>
          <gpxtpx:TrackPointExtension xmlns:gpxtpx="http://www.garmin.com/xmlschemas/TrackPointExtension/v1">
            <gpxtpx:hr>88</gpxtpx:hr>
          </gpxtpx:TrackPointExtension>
        </extensions>
      </trkpt>
      <trkpt lat="45.76729" lon="6.46116">
        <ele>1249.1999511719</ele>
        <time>2020-07-05T07:03:00.000Z</time>
        <extensions>
          <gpxtpx:TrackPointExtension xmlns:gpxtpx="http://www.garmin.com/xmlschemas/TrackPointExtension/v1">
            <gpxtpx:hr>89</gpxtpx:hr>
          </gpxtpx:TrackPointExtension>
        </extensions>
      </trkpt>
      <trkpt lat="45.76724" lon="6.46105">
        <ele>1248</ele>
        <time>2020-07-05T07:03:01.000Z</time>
        <extensions>
          <gpxtpx:TrackPointExtension xmlns:gpxtpx="http://www.garmin.com/xmlschemas/TrackPointExtension/v1">
            <gpxtpx:hr>89</gpxtpx:hr>
          </gpxtpx:TrackPointExtension>
        </extensions>
      </trkpt>
      <trkpt lat="45.76714" lon="6.46085">
        <ele>1246.4000244141</ele>
        <time>2020-07-05T07:03:03.000Z</time>
        <extensions>
          <gpxtpx:TrackPointExtension xmlns:gpxtpx="http://www.garmin.com/xmlschemas/TrackPointExtension/v1">
            <gpxtpx:hr>90</gpxtpx:hr>
          </gpxtpx:TrackPointExtension>
        </extensions>
      </trkpt>
      <trkpt lat="45.76704" lon="6.46065">
        <ele>1244.5999755859</ele>
        <time>2020-07-05T07:03:05.000Z</time>
        <extensions>
          <gpxtpx:TrackPointExtension xmlns:gpxtpx="http://www.garmin.com/xmlschemas/TrackPointExtension/v1">
            <gpxtpx:hr>90</gpxtpx:hr>
          </gpxtpx:TrackPointExtension>
        </extensions>
      </trkpt>
      <trkpt lat="45.76701" lon="6.46054">
        <ele>1243.4000244141</ele>
        <time>2020-07-05T07:03:06.000Z</time>
        <extensions>
          <gpxtpx:TrackPointExtension xmlns:gpxtpx="http://www.garmin.com/xmlschemas/TrackPointExtension/v1">
            <gpxtpx:hr>92</gpxtpx:hr>
          </gpxtpx:TrackPointExtension>
        </extensions>
      </trkpt>
      <trkpt lat="45.767" lon="6.46044">
        <ele>1242.4000244141</ele>
        <time>2020-07-05T07:03:07.000Z</time>
        <extensions>
          <gpxtpx:TrackPointExtension xmlns:gpxtpx="http://www.garmin.com/xmlschemas/TrackPointExtension/v1">
            <gpxtpx:hr>93</gpxtpx:hr>
          </gpxtpx:TrackPointExtension>
        </extensions>
      </trkpt>
      <trkpt lat="45.76701" lon="6.46032">
        <ele>1241.5999755859</ele>
        <time>2020-07-05T07:03:08.000Z</time>
        <extensions>
          <gpxtpx:TrackPointExtension xmlns:gpxtpx="http://www.garmin.com/xmlschemas/TrackPointExtension/v1">
            <gpxtpx:hr>93</gpxtpx:hr>
          </gpxtpx:TrackPointExtension>
        </extensions>
      </trkpt>
      <trkpt lat="45.76703" lon="6.46021">
        <ele>1241.1999511719</ele>
        <time>2020-07-05T07:03:09.000Z</time>
        <extensions>
          <gpxtpx:TrackPointExtension xmlns:gpxtpx="http://www.garmin.com/xmlschemas/TrackPointExtension/v1">
            <gpxtpx:hr>93</gpxtpx:hr>
          </gpxtpx:TrackPointExtension>
        </extensions>
      </trkpt>
      <trkpt lat="45.76705" lon="6.46006">
        <ele>1240.5999755859</ele>
        <time>2020-07-05T07:03:10.000Z</time>
        <extensions>
          <gpxtpx:TrackPointExtension xmlns:gpxtpx="http://www.garmin.com/xmlschemas/TrackPointExtension/v1">
            <gpxtpx:hr>93</gpxtpx:hr>
          </gpxtpx:TrackPointExtension>
        </extensions>
      </trkpt>
      <trkpt lat="45.76706" lon="6.45996">
        <ele>1239.8000488281</ele>
        <time>2020-07-05T07:03:11.000Z</time>
        <extensions>
          <gpxtpx:TrackPointExtension xmlns:gpxtpx="http://www.garmin.com/xmlschemas/TrackPointExtension/v1">
            <gpxtpx:hr>93</gpxtpx:hr>
          </gpxtpx:TrackPointExtension>
        </extensions>
      </trkpt>
      <trkpt lat="45.76709" lon="6.45983">
        <ele>1238.5999755859</ele>
        <time>2020-07-05T07:03:12.000Z</time>
        <extensions>
          <gpxtpx:TrackPointExtension xmlns:gpxtpx="http://www.garmin.com/xmlschemas/TrackPointExtension/v1">
            <gpxtpx:hr>93</gpxtpx:hr>
          </gpxtpx:TrackPointExtension>
        </extensions>
      </trkpt>
      <trkpt lat="45.76713" lon="6.45957">
        <ele>1236.8000488281</ele>
        <time>2020-07-05T07:03:14.000Z</time>
        <extensions>
          <gpxtpx:TrackPointExtension xmlns:gpxtpx="http://www.garmin.com/xmlschemas/TrackPointExtension/v1">
            <gpxtpx:hr>93</gpxtpx:hr>
          </gpxtpx:TrackPointExtension>
        </extensions>
      </trkpt>
      <trkpt lat="45.76718" lon="6.45934">
        <ele>1235.8000488281</ele>
        <time>2020-07-05T07:03:16.000Z</time>
        <extensions>
          <gpxtpx:TrackPointExtension xmlns:gpxtpx="http://www.garmin.com/xmlschemas/TrackPointExtension/v1">
            <gpxtpx:hr>92</gpxtpx:hr>
          </gpxtpx:TrackPointExtension>
        </extensions>
      </trkpt>
      <trkpt lat="45.76721" lon="6.45918">
        <ele>1235</ele>
        <time>2020-07-05T07:03:18.000Z</time>
        <extensions>
          <gpxtpx:TrackPointExtension xmlns:gpxtpx="http://www.garmin.com/xmlschemas/TrackPointExtension/v1">
            <gpxtpx:hr>90</gpxtpx:hr>
          </gpxtpx:TrackPointExtension>
        </extensions>
      </trkpt>
      <trkpt lat="45.76719" lon="6.45906">
        <ele>1234.5999755859</ele>
        <time>2020-07-05T07:03:20.000Z</time>
        <extensions>
          <gpxtpx:TrackPointExtension xmlns:gpxtpx="http://www.garmin.com/xmlschemas/TrackPointExtension/v1">
            <gpxtpx:hr>88</gpxtpx:hr>
          </gpxtpx:TrackPointExtension>
        </extensions>
      </trkpt>
      <trkpt lat="45.76715" lon="6.45903">
        <ele>1234.4000244141</ele>
        <time>2020-07-05T07:03:21.000Z</time>
        <extensions>
          <gpxtpx:TrackPointExtension xmlns:gpxtpx="http://www.garmin.com/xmlschemas/TrackPointExtension/v1">
            <gpxtpx:hr>87</gpxtpx:hr>
          </gpxtpx:TrackPointExtension>
        </extensions>
      </trkpt>
      <trkpt lat="45.76708" lon="6.45907">
        <ele>1233.8000488281</ele>
        <time>2020-07-05T07:03:23.000Z</time>
        <extensions>
          <gpxtpx:TrackPointExtension xmlns:gpxtpx="http://www.garmin.com/xmlschemas/TrackPointExtension/v1">
            <gpxtpx:hr>85</gpxtpx:hr>
          </gpxtpx:TrackPointExtension>
        </extensions>
      </trkpt>
      <trkpt lat="45.76706" lon="6.45914">
        <ele>1233.4000244141</ele>
        <time>2020-07-05T07:03:24.000Z</time>
        <extensions>
          <gpxtpx:TrackPointExtension xmlns:gpxtpx="http://www.garmin.com/xmlschemas/TrackPointExtension/v1">
            <gpxtpx:hr>85</gpxtpx:hr>
          </gpxtpx:TrackPointExtension>
        </extensions>
      </trkpt>
      <trkpt lat="45.76701" lon="6.45933">
        <ele>1232.5999755859</ele>
        <time>2020-07-05T07:03:26.000Z</time>
        <extensions>
          <gpxtpx:TrackPointExtension xmlns:gpxtpx="http://www.garmin.com/xmlschemas/TrackPointExtension/v1">
            <gpxtpx:hr>83</gpxtpx:hr>
          </gpxtpx:TrackPointExtension>
        </extensions>
      </trkpt>
      <trkpt lat="45.76697" lon="6.45944">
        <ele>1232.1999511719</ele>
        <time>2020-07-05T07:03:27.000Z</time>
        <extensions>
          <gpxtpx:TrackPointExtension xmlns:gpxtpx="http://www.garmin.com/xmlschemas/TrackPointExtension/v1">
            <gpxtpx:hr>83</gpxtpx:hr>
          </gpxtpx:TrackPointExtension>
        </extensions>
      </trkpt>
      <trkpt lat="45.76692" lon="6.45954">
        <ele>1231.4000244141</ele>
        <time>2020-07-05T07:03:28.000Z</time>
        <extensions>
          <gpxtpx:TrackPointExtension xmlns:gpxtpx="http://www.garmin.com/xmlschemas/TrackPointExtension/v1">
            <gpxtpx:hr>83</gpxtpx:hr>
          </gpxtpx:TrackPointExtension>
        </extensions>
      </trkpt>
      <trkpt lat="45.76687" lon="6.45964">
        <ele>1230.5999755859</ele>
        <time>2020-07-05T07:03:29.000Z</time>
        <extensions>
          <gpxtpx:TrackPointExtension xmlns:gpxtpx="http://www.garmin.com/xmlschemas/TrackPointExtension/v1">
            <gpxtpx:hr>83</gpxtpx:hr>
          </gpxtpx:TrackPointExtension>
        </extensions>
      </trkpt>
      <trkpt lat="45.76679" lon="6.45979">
        <ele>1229.4000244141</ele>
        <time>2020-07-05T07:03:31.000Z</time>
        <extensions>
          <gpxtpx:TrackPointExtension xmlns:gpxtpx="http://www.garmin.com/xmlschemas/TrackPointExtension/v1">
            <gpxtpx:hr>82</gpxtpx:hr>
          </gpxtpx:TrackPointExtension>
        </extensions>
      </trkpt>
      <trkpt lat="45.76675" lon="6.45984">
        <ele>1229</ele>
        <time>2020-07-05T07:03:32.000Z</time>
        <extensions>
          <gpxtpx:TrackPointExtension xmlns:gpxtpx="http://www.garmin.com/xmlschemas/TrackPointExtension/v1">
            <gpxtpx:hr>84</gpxtpx:hr>
          </gpxtpx:TrackPointExtension>
        </extensions>
      </trkpt>
      <trkpt lat="45.7667" lon="6.45985">
        <ele>1228.8000488281</ele>
        <time>2020-07-05T07:03:33.000Z</time>
        <extensions>
          <gpxtpx:TrackPointExtension xmlns:gpxtpx="http://www.garmin.com/xmlschemas/TrackPointExtension/v1">
            <gpxtpx:hr>85</gpxtpx:hr>
          </gpxtpx:TrackPointExtension>
        </extensions>
      </trkpt>
      <trkpt lat="45.76665" lon="6.45976">
        <ele>1228.4000244141</ele>
        <time>2020-07-05T07:03:35.000Z</time>
        <extensions>
          <gpxtpx:TrackPointExtension xmlns:gpxtpx="http://www.garmin.com/xmlschemas/TrackPointExtension/v1">
            <gpxtpx:hr>87</gpxtpx:hr>
          </gpxtpx:TrackPointExtension>
        </extensions>
      </trkpt>
      <trkpt lat="45.76673" lon="6.45964">
        <ele>1227.1999511719</ele>
        <time>2020-07-05T07:03:37.000Z</time>
        <extensions>
          <gpxtpx:TrackPointExtension xmlns:gpxtpx="http://www.garmin.com/xmlschemas/TrackPointExtension/v1">
            <gpxtpx:hr>88</gpxtpx:hr>
          </gpxtpx:TrackPointExtension>
        </extensions>
      </trkpt>
      <trkpt lat="45.76678" lon="6.45957">
        <ele>1226.5999755859</ele>
        <time>2020-07-05T07:03:38.000Z</time>
        <extensions>
          <gpxtpx:TrackPointExtension xmlns:gpxtpx="http://www.garmin.com/xmlschemas/TrackPointExtension/v1">
            <gpxtpx:hr>89</gpxtpx:hr>
          </gpxtpx:TrackPointExtension>
        </extensions>
      </trkpt>
      <trkpt lat="45.76681" lon="6.45949">
        <ele>1226.1999511719</ele>
        <time>2020-07-05T07:03:39.000Z</time>
        <extensions>
          <gpxtpx:TrackPointExtension xmlns:gpxtpx="http://www.garmin.com/xmlschemas/TrackPointExtension/v1">
            <gpxtpx:hr>89</gpxtpx:hr>
          </gpxtpx:TrackPointExtension>
        </extensions>
      </trkpt>
      <trkpt lat="45.76683" lon="6.4594">
        <ele>1225.5999755859</ele>
        <time>2020-07-05T07:03:40.000Z</time>
        <extensions>
          <gpxtpx:TrackPointExtension xmlns:gpxtpx="http://www.garmin.com/xmlschemas/TrackPointExtension/v1">
            <gpxtpx:hr>88</gpxtpx:hr>
          </gpxtpx:TrackPointExtension>
        </extensions>
      </trkpt>
      <trkpt lat="45.76685" lon="6.45931">
        <ele>1225</ele>
        <time>2020-07-05T07:03:41.000Z</time>
        <extensions>
          <gpxtpx:TrackPointExtension xmlns:gpxtpx="http://www.garmin.com/xmlschemas/TrackPointExtension/v1">
            <gpxtpx:hr>88</gpxtpx:hr>
          </gpxtpx:TrackPointExtension>
        </extensions>
      </trkpt>
      <trkpt lat="45.76685" lon="6.45909">
        <ele>1224.1999511719</ele>
        <time>2020-07-05T07:03:43.000Z</time>
        <extensions>
          <gpxtpx:TrackPointExtension xmlns:gpxtpx="http://www.garmin.com/xmlschemas/TrackPointExtension/v1">
            <gpxtpx:hr>87</gpxtpx:hr>
          </gpxtpx:TrackPointExtension>
        </extensions>
      </trkpt>
      <trkpt lat="45.76685" lon="6.45894">
        <ele>1223.4000244141</ele>
        <time>2020-07-05T07:03:44.000Z</time>
        <extensions>
          <gpxtpx:TrackPointExtension xmlns:gpxtpx="http://www.garmin.com/xmlschemas/TrackPointExtension/v1">
            <gpxtpx:hr>86</gpxtpx:hr>
          </gpxtpx:TrackPointExtension>
        </extensions>
      </trkpt>
      <trkpt lat="45.76685" lon="6.45885">
        <ele>1222.5999755859</ele>
        <time>2020-07-05T07:03:45.000Z</time>
        <extensions>
          <gpxtpx:TrackPointExtension xmlns:gpxtpx="http://www.garmin.com/xmlschemas/TrackPointExtension/v1">
            <gpxtpx:hr>87</gpxtpx:hr>
          </gpxtpx:TrackPointExtension>
        </extensions>
      </trkpt>
      <trkpt lat="45.76684" lon="6.45873">
        <ele>1221.5999755859</ele>
        <time>2020-07-05T07:03:46.000Z</time>
        <extensions>
          <gpxtpx:TrackPointExtension xmlns:gpxtpx="http://www.garmin.com/xmlschemas/TrackPointExtension/v1">
            <gpxtpx:hr>88</gpxtpx:hr>
          </gpxtpx:TrackPointExtension>
        </extensions>
      </trkpt>
      <trkpt lat="45.76683" lon="6.45852">
        <ele>1220.1999511719</ele>
        <time>2020-07-05T07:03:48.000Z</time>
        <extensions>
          <gpxtpx:TrackPointExtension xmlns:gpxtpx="http://www.garmin.com/xmlschemas/TrackPointExtension/v1">
            <gpxtpx:hr>89</gpxtpx:hr>
          </gpxtpx:TrackPointExtension>
        </extensions>
      </trkpt>
      <trkpt lat="45.76683" lon="6.45844">
        <ele>1219.5999755859</ele>
        <time>2020-07-05T07:03:49.000Z</time>
        <extensions>
          <gpxtpx:TrackPointExtension xmlns:gpxtpx="http://www.garmin.com/xmlschemas/TrackPointExtension/v1">
            <gpxtpx:hr>89</gpxtpx:hr>
          </gpxtpx:TrackPointExtension>
        </extensions>
      </trkpt>
      <trkpt lat="45.76682" lon="6.45837">
        <ele>1219.4000244141</ele>
        <time>2020-07-05T07:03:50.000Z</time>
        <extensions>
          <gpxtpx:TrackPointExtension xmlns:gpxtpx="http://www.garmin.com/xmlschemas/TrackPointExtension/v1">
            <gpxtpx:hr>89</gpxtpx:hr>
          </gpxtpx:TrackPointExtension>
        </extensions>
      </trkpt>
      <trkpt lat="45.76681" lon="6.45828">
        <ele>1218.8000488281</ele>
        <time>2020-07-05T07:03:52.000Z</time>
        <extensions>
          <gpxtpx:TrackPointExtension xmlns:gpxtpx="http://www.garmin.com/xmlschemas/TrackPointExtension/v1">
            <gpxtpx:hr>89</gpxtpx:hr>
          </gpxtpx:TrackPointExtension>
        </extensions>
      </trkpt>
      <trkpt lat="45.76688" lon="6.45817">
        <ele>1218.1999511719</ele>
        <time>2020-07-05T07:03:54.000Z</time>
        <extensions>
          <gpxtpx:TrackPointExtension xmlns:gpxtpx="http://www.garmin.com/xmlschemas/TrackPointExtension/v1">
            <gpxtpx:hr>89</gpxtpx:hr>
          </gpxtpx:TrackPointExtension>
        </extensions>
      </trkpt>
      <trkpt lat="45.76698" lon="6.45809">
        <ele>1217.8000488281</ele>
        <time>2020-07-05T07:03:55.000Z</time>
        <extensions>
          <gpxtpx:TrackPointExtension xmlns:gpxtpx="http://www.garmin.com/xmlschemas/TrackPointExtension/v1">
            <gpxtpx:hr>89</gpxtpx:hr>
          </gpxtpx:TrackPointExtension>
        </extensions>
      </trkpt>
      <trkpt lat="45.76704" lon="6.45829">
        <ele>1217.1999511719</ele>
        <time>2020-07-05T07:03:56.000Z</time>
        <extensions>
          <gpxtpx:TrackPointExtension xmlns:gpxtpx="http://www.garmin.com/xmlschemas/TrackPointExtension/v1">
            <gpxtpx:hr>89</gpxtpx:hr>
          </gpxtpx:TrackPointExtension>
        </extensions>
      </trkpt>
      <trkpt lat="45.76703" lon="6.45844">
        <ele>1216.5999755859</ele>
        <time>2020-07-05T07:03:57.000Z</time>
        <extensions>
          <gpxtpx:TrackPointExtension xmlns:gpxtpx="http://www.garmin.com/xmlschemas/TrackPointExtension/v1">
            <gpxtpx:hr>89</gpxtpx:hr>
          </gpxtpx:TrackPointExtension>
        </extensions>
      </trkpt>
      <trkpt lat="45.76698" lon="6.45854">
        <ele>1216</ele>
        <time>2020-07-05T07:03:58.000Z</time>
        <extensions>
          <gpxtpx:TrackPointExtension xmlns:gpxtpx="http://www.garmin.com/xmlschemas/TrackPointExtension/v1">
            <gpxtpx:hr>90</gpxtpx:hr>
          </gpxtpx:TrackPointExtension>
        </extensions>
      </trkpt>
      <trkpt lat="45.7668" lon="6.45868">
        <ele>1215.1999511719</ele>
        <time>2020-07-05T07:04:00.000Z</time>
        <extensions>
          <gpxtpx:TrackPointExtension xmlns:gpxtpx="http://www.garmin.com/xmlschemas/TrackPointExtension/v1">
            <gpxtpx:hr>90</gpxtpx:hr>
          </gpxtpx:TrackPointExtension>
        </extensions>
      </trkpt>
      <trkpt lat="45.76663" lon="6.45863">
        <ele>1213.8000488281</ele>
        <time>2020-07-05T07:04:02.000Z</time>
        <extensions>
          <gpxtpx:TrackPointExtension xmlns:gpxtpx="http://www.garmin.com/xmlschemas/TrackPointExtension/v1">
            <gpxtpx:hr>90</gpxtpx:hr>
          </gpxtpx:TrackPointExtension>
        </extensions>
      </trkpt>
      <trkpt lat="45.76647" lon="6.45846">
        <ele>1212</ele>
        <time>2020-07-05T07:04:04.000Z</time>
        <extensions>
          <gpxtpx:TrackPointExtension xmlns:gpxtpx="http://www.garmin.com/xmlschemas/TrackPointExtension/v1">
            <gpxtpx:hr>89</gpxtpx:hr>
          </gpxtpx:TrackPointExtension>
        </extensions>
      </trkpt>
      <trkpt lat="45.76644" lon="6.45836">
        <ele>1211.1999511719</ele>
        <time>2020-07-05T07:04:05.000Z</time>
        <extensions>
          <gpxtpx:TrackPointExtension xmlns:gpxtpx="http://www.garmin.com/xmlschemas/TrackPointExtension/v1">
            <gpxtpx:hr>90</gpxtpx:hr>
          </gpxtpx:TrackPointExtension>
        </extensions>
      </trkpt>
      <trkpt lat="45.76643" lon="6.45826">
        <ele>1210.4000244141</ele>
        <time>2020-07-05T07:04:06.000Z</time>
        <extensions>
          <gpxtpx:TrackPointExtension xmlns:gpxtpx="http://www.garmin.com/xmlschemas/TrackPointExtension/v1">
            <gpxtpx:hr>89</gpxtpx:hr>
          </gpxtpx:TrackPointExtension>
        </extensions>
      </trkpt>
      <trkpt lat="45.76641" lon="6.45805">
        <ele>1208.8000488281</ele>
        <time>2020-07-05T07:04:08.000Z</time>
        <extensions>
          <gpxtpx:TrackPointExtension xmlns:gpxtpx="http://www.garmin.com/xmlschemas/TrackPointExtension/v1">
            <gpxtpx:hr>89</gpxtpx:hr>
          </gpxtpx:TrackPointExtension>
        </extensions>
      </trkpt>
      <trkpt lat="45.76642" lon="6.45795">
        <ele>1207.8000488281</ele>
        <time>2020-07-05T07:04:09.000Z</time>
        <extensions>
          <gpxtpx:TrackPointExtension xmlns:gpxtpx="http://www.garmin.com/xmlschemas/TrackPointExtension/v1">
            <gpxtpx:hr>88</gpxtpx:hr>
          </gpxtpx:TrackPointExtension>
        </extensions>
      </trkpt>
      <trkpt lat="45.76644" lon="6.45779">
        <ele>1206.4000244141</ele>
        <time>2020-07-05T07:04:11.000Z</time>
        <extensions>
          <gpxtpx:TrackPointExtension xmlns:gpxtpx="http://www.garmin.com/xmlschemas/TrackPointExtension/v1">
            <gpxtpx:hr>89</gpxtpx:hr>
          </gpxtpx:TrackPointExtension>
        </extensions>
      </trkpt>
      <trkpt lat="45.76644" lon="6.45774">
        <ele>1206</ele>
        <time>2020-07-05T07:04:12.000Z</time>
        <extensions>
          <gpxtpx:TrackPointExtension xmlns:gpxtpx="http://www.garmin.com/xmlschemas/TrackPointExtension/v1">
            <gpxtpx:hr>90</gpxtpx:hr>
          </gpxtpx:TrackPointExtension>
        </extensions>
      </trkpt>
      <trkpt lat="45.76644" lon="6.45768">
        <ele>1205.4000244141</ele>
        <time>2020-07-05T07:04:13.000Z</time>
        <extensions>
          <gpxtpx:TrackPointExtension xmlns:gpxtpx="http://www.garmin.com/xmlschemas/TrackPointExtension/v1">
            <gpxtpx:hr>90</gpxtpx:hr>
          </gpxtpx:TrackPointExtension>
        </extensions>
      </trkpt>
      <trkpt lat="45.76644" lon="6.45764">
        <ele>1204.8000488281</ele>
        <time>2020-07-05T07:04:14.000Z</time>
        <extensions>
          <gpxtpx:TrackPointExtension xmlns:gpxtpx="http://www.garmin.com/xmlschemas/TrackPointExtension/v1">
            <gpxtpx:hr>91</gpxtpx:hr>
          </gpxtpx:TrackPointExtension>
        </extensions>
      </trkpt>
      <trkpt lat="45.76648" lon="6.45762">
        <ele>1204</ele>
        <time>2020-07-05T07:04:16.000Z</time>
        <extensions>
          <gpxtpx:TrackPointExtension xmlns:gpxtpx="http://www.garmin.com/xmlschemas/TrackPointExtension/v1">
            <gpxtpx:hr>93</gpxtpx:hr>
          </gpxtpx:TrackPointExtension>
        </extensions>
      </trkpt>
      <trkpt lat="45.7663" lon="6.45792">
        <ele>1203</ele>
        <time>2020-07-05T07:04:18.000Z</time>
        <extensions>
          <gpxtpx:TrackPointExtension xmlns:gpxtpx="http://www.garmin.com/xmlschemas/TrackPointExtension/v1">
            <gpxtpx:hr>93</gpxtpx:hr>
          </gpxtpx:TrackPointExtension>
        </extensions>
      </trkpt>
      <trkpt lat="45.76621" lon="6.45804">
        <ele>1202.4000244141</ele>
        <time>2020-07-05T07:04:19.000Z</time>
        <extensions>
          <gpxtpx:TrackPointExtension xmlns:gpxtpx="http://www.garmin.com/xmlschemas/TrackPointExtension/v1">
            <gpxtpx:hr>92</gpxtpx:hr>
          </gpxtpx:TrackPointExtension>
        </extensions>
      </trkpt>
      <trkpt lat="45.76606" lon="6.45827">
        <ele>1201</ele>
        <time>2020-07-05T07:04:21.000Z</time>
        <extensions>
          <gpxtpx:TrackPointExtension xmlns:gpxtpx="http://www.garmin.com/xmlschemas/TrackPointExtension/v1">
            <gpxtpx:hr>92</gpxtpx:hr>
          </gpxtpx:TrackPointExtension>
        </extensions>
      </trkpt>
      <trkpt lat="45.76599" lon="6.45837">
        <ele>1200.1999511719</ele>
        <time>2020-07-05T07:04:22.000Z</time>
        <extensions>
          <gpxtpx:TrackPointExtension xmlns:gpxtpx="http://www.garmin.com/xmlschemas/TrackPointExtension/v1">
            <gpxtpx:hr>92</gpxtpx:hr>
          </gpxtpx:TrackPointExtension>
        </extensions>
      </trkpt>
      <trkpt lat="45.7659" lon="6.4585">
        <ele>1199</ele>
        <time>2020-07-05T07:04:23.000Z</time>
        <extensions>
          <gpxtpx:TrackPointExtension xmlns:gpxtpx="http://www.garmin.com/xmlschemas/TrackPointExtension/v1">
            <gpxtpx:hr>91</gpxtpx:hr>
          </gpxtpx:TrackPointExtension>
        </extensions>
      </trkpt>
      <trkpt lat="45.76582" lon="6.45862">
        <ele>1197.5999755859</ele>
        <time>2020-07-05T07:04:24.000Z</time>
        <extensions>
          <gpxtpx:TrackPointExtension xmlns:gpxtpx="http://www.garmin.com/xmlschemas/TrackPointExtension/v1">
            <gpxtpx:hr>91</gpxtpx:hr>
          </gpxtpx:TrackPointExtension>
        </extensions>
      </trkpt>
      <trkpt lat="45.76574" lon="6.45871">
        <ele>1196.1999511719</ele>
        <time>2020-07-05T07:04:25.000Z</time>
        <extensions>
          <gpxtpx:TrackPointExtension xmlns:gpxtpx="http://www.garmin.com/xmlschemas/TrackPointExtension/v1">
            <gpxtpx:hr>90</gpxtpx:hr>
          </gpxtpx:TrackPointExtension>
        </extensions>
      </trkpt>
      <trkpt lat="45.76567" lon="6.45881">
        <ele>1194.8000488281</ele>
        <time>2020-07-05T07:04:26.000Z</time>
        <extensions>
          <gpxtpx:TrackPointExtension xmlns:gpxtpx="http://www.garmin.com/xmlschemas/TrackPointExtension/v1">
            <gpxtpx:hr>90</gpxtpx:hr>
          </gpxtpx:TrackPointExtension>
        </extensions>
      </trkpt>
      <trkpt lat="45.76561" lon="6.45891">
        <ele>1194</ele>
        <time>2020-07-05T07:04:27.000Z</time>
        <extensions>
          <gpxtpx:TrackPointExtension xmlns:gpxtpx="http://www.garmin.com/xmlschemas/TrackPointExtension/v1">
            <gpxtpx:hr>90</gpxtpx:hr>
          </gpxtpx:TrackPointExtension>
        </extensions>
      </trkpt>
      <trkpt lat="45.76556" lon="6.45902">
        <ele>1193.1999511719</ele>
        <time>2020-07-05T07:04:28.000Z</time>
        <extensions>
          <gpxtpx:TrackPointExtension xmlns:gpxtpx="http://www.garmin.com/xmlschemas/TrackPointExtension/v1">
            <gpxtpx:hr>90</gpxtpx:hr>
          </gpxtpx:TrackPointExtension>
        </extensions>
      </trkpt>
      <trkpt lat="45.76552" lon="6.45914">
        <ele>1192.5999755859</ele>
        <time>2020-07-05T07:04:29.000Z</time>
        <extensions>
          <gpxtpx:TrackPointExtension xmlns:gpxtpx="http://www.garmin.com/xmlschemas/TrackPointExtension/v1">
            <gpxtpx:hr>90</gpxtpx:hr>
          </gpxtpx:TrackPointExtension>
        </extensions>
      </trkpt>
      <trkpt lat="45.76548" lon="6.45927">
        <ele>1191.8000488281</ele>
        <time>2020-07-05T07:04:30.000Z</time>
        <extensions>
          <gpxtpx:TrackPointExtension xmlns:gpxtpx="http://www.garmin.com/xmlschemas/TrackPointExtension/v1">
            <gpxtpx:hr>91</gpxtpx:hr>
          </gpxtpx:TrackPointExtension>
        </extensions>
      </trkpt>
      <trkpt lat="45.76541" lon="6.4595">
        <ele>1189.8000488281</ele>
        <time>2020-07-05T07:04:32.000Z</time>
        <extensions>
          <gpxtpx:TrackPointExtension xmlns:gpxtpx="http://www.garmin.com/xmlschemas/TrackPointExtension/v1">
            <gpxtpx:hr>92</gpxtpx:hr>
          </gpxtpx:TrackPointExtension>
        </extensions>
      </trkpt>
      <trkpt lat="45.76537" lon="6.45971">
        <ele>1188.1999511719</ele>
        <time>2020-07-05T07:04:34.000Z</time>
        <extensions>
          <gpxtpx:TrackPointExtension xmlns:gpxtpx="http://www.garmin.com/xmlschemas/TrackPointExtension/v1">
            <gpxtpx:hr>92</gpxtpx:hr>
          </gpxtpx:TrackPointExtension>
        </extensions>
      </trkpt>
      <trkpt lat="45.76541" lon="6.45991">
        <ele>1187.1999511719</ele>
        <time>2020-07-05T07:04:36.000Z</time>
        <extensions>
          <gpxtpx:TrackPointExtension xmlns:gpxtpx="http://www.garmin.com/xmlschemas/TrackPointExtension/v1">
            <gpxtpx:hr>91</gpxtpx:hr>
          </gpxtpx:TrackPointExtension>
        </extensions>
      </trkpt>
      <trkpt lat="45.76546" lon="6.46001">
        <ele>1186.5999755859</ele>
        <time>2020-07-05T07:04:37.000Z</time>
        <extensions>
          <gpxtpx:TrackPointExtension xmlns:gpxtpx="http://www.garmin.com/xmlschemas/TrackPointExtension/v1">
            <gpxtpx:hr>91</gpxtpx:hr>
          </gpxtpx:TrackPointExtension>
        </extensions>
      </trkpt>
      <trkpt lat="45.76556" lon="6.46021">
        <ele>1185</ele>
        <time>2020-07-05T07:04:39.000Z</time>
        <extensions>
          <gpxtpx:TrackPointExtension xmlns:gpxtpx="http://www.garmin.com/xmlschemas/TrackPointExtension/v1">
            <gpxtpx:hr>90</gpxtpx:hr>
          </gpxtpx:TrackPointExtension>
        </extensions>
      </trkpt>
      <trkpt lat="45.76567" lon="6.46044">
        <ele>1183</ele>
        <time>2020-07-05T07:04:41.000Z</time>
        <extensions>
          <gpxtpx:TrackPointExtension xmlns:gpxtpx="http://www.garmin.com/xmlschemas/TrackPointExtension/v1">
            <gpxtpx:hr>92</gpxtpx:hr>
          </gpxtpx:TrackPointExtension>
        </extensions>
      </trkpt>
      <trkpt lat="45.76571" lon="6.46057">
        <ele>1182</ele>
        <time>2020-07-05T07:04:42.000Z</time>
        <extensions>
          <gpxtpx:TrackPointExtension xmlns:gpxtpx="http://www.garmin.com/xmlschemas/TrackPointExtension/v1">
            <gpxtpx:hr>93</gpxtpx:hr>
          </gpxtpx:TrackPointExtension>
        </extensions>
      </trkpt>
      <trkpt lat="45.76575" lon="6.46071">
        <ele>1181</ele>
        <time>2020-07-05T07:04:43.000Z</time>
        <extensions>
          <gpxtpx:TrackPointExtension xmlns:gpxtpx="http://www.garmin.com/xmlschemas/TrackPointExtension/v1">
            <gpxtpx:hr>93</gpxtpx:hr>
          </gpxtpx:TrackPointExtension>
        </extensions>
      </trkpt>
      <trkpt lat="45.76579" lon="6.46084">
        <ele>1180</ele>
        <time>2020-07-05T07:04:44.000Z</time>
        <extensions>
          <gpxtpx:TrackPointExtension xmlns:gpxtpx="http://www.garmin.com/xmlschemas/TrackPointExtension/v1">
            <gpxtpx:hr>92</gpxtpx:hr>
          </gpxtpx:TrackPointExtension>
        </extensions>
      </trkpt>
      <trkpt lat="45.76583" lon="6.46096">
        <ele>1178.5999755859</ele>
        <time>2020-07-05T07:04:45.000Z</time>
        <extensions>
          <gpxtpx:TrackPointExtension xmlns:gpxtpx="http://www.garmin.com/xmlschemas/TrackPointExtension/v1">
            <gpxtpx:hr>92</gpxtpx:hr>
          </gpxtpx:TrackPointExtension>
        </extensions>
      </trkpt>
      <trkpt lat="45.76587" lon="6.46109">
        <ele>1177.5999755859</ele>
        <time>2020-07-05T07:04:46.000Z</time>
        <extensions>
          <gpxtpx:TrackPointExtension xmlns:gpxtpx="http://www.garmin.com/xmlschemas/TrackPointExtension/v1">
            <gpxtpx:hr>92</gpxtpx:hr>
          </gpxtpx:TrackPointExtension>
        </extensions>
      </trkpt>
      <trkpt lat="45.76596" lon="6.46132">
        <ele>1175.8000488281</ele>
        <time>2020-07-05T07:04:48.000Z</time>
        <extensions>
          <gpxtpx:TrackPointExtension xmlns:gpxtpx="http://www.garmin.com/xmlschemas/TrackPointExtension/v1">
            <gpxtpx:hr>92</gpxtpx:hr>
          </gpxtpx:TrackPointExtension>
        </extensions>
      </trkpt>
      <trkpt lat="45.76605" lon="6.46152">
        <ele>1174.1999511719</ele>
        <time>2020-07-05T07:04:50.000Z</time>
        <extensions>
          <gpxtpx:TrackPointExtension xmlns:gpxtpx="http://www.garmin.com/xmlschemas/TrackPointExtension/v1">
            <gpxtpx:hr>91</gpxtpx:hr>
          </gpxtpx:TrackPointExtension>
        </extensions>
      </trkpt>
      <trkpt lat="45.76608" lon="6.46161">
        <ele>1173.4000244141</ele>
        <time>2020-07-05T07:04:51.000Z</time>
        <extensions>
          <gpxtpx:TrackPointExtension xmlns:gpxtpx="http://www.garmin.com/xmlschemas/TrackPointExtension/v1">
            <gpxtpx:hr>91</gpxtpx:hr>
          </gpxtpx:TrackPointExtension>
        </extensions>
      </trkpt>
      <trkpt lat="45.7661" lon="6.46168">
        <ele>1172.8000488281</ele>
        <time>2020-07-05T07:04:52.000Z</time>
        <extensions>
          <gpxtpx:TrackPointExtension xmlns:gpxtpx="http://www.garmin.com/xmlschemas/TrackPointExtension/v1">
            <gpxtpx:hr>91</gpxtpx:hr>
          </gpxtpx:TrackPointExtension>
        </extensions>
      </trkpt>
      <trkpt lat="45.76609" lon="6.46175">
        <ele>1172.4000244141</ele>
        <time>2020-07-05T07:04:53.000Z</time>
        <extensions>
          <gpxtpx:TrackPointExtension xmlns:gpxtpx="http://www.garmin.com/xmlschemas/TrackPointExtension/v1">
            <gpxtpx:hr>91</gpxtpx:hr>
          </gpxtpx:TrackPointExtension>
        </extensions>
      </trkpt>
      <trkpt lat="45.76606" lon="6.4618">
        <ele>1171.8000488281</ele>
        <time>2020-07-05T07:04:54.000Z</time>
        <extensions>
          <gpxtpx:TrackPointExtension xmlns:gpxtpx="http://www.garmin.com/xmlschemas/TrackPointExtension/v1">
            <gpxtpx:hr>92</gpxtpx:hr>
          </gpxtpx:TrackPointExtension>
        </extensions>
      </trkpt>
      <trkpt lat="45.76598" lon="6.46183">
        <ele>1170.8000488281</ele>
        <time>2020-07-05T07:04:56.000Z</time>
        <extensions>
          <gpxtpx:TrackPointExtension xmlns:gpxtpx="http://www.garmin.com/xmlschemas/TrackPointExtension/v1">
            <gpxtpx:hr>93</gpxtpx:hr>
          </gpxtpx:TrackPointExtension>
        </extensions>
      </trkpt>
      <trkpt lat="45.76593" lon="6.46178">
        <ele>1170.4000244141</ele>
        <time>2020-07-05T07:04:57.000Z</time>
        <extensions>
          <gpxtpx:TrackPointExtension xmlns:gpxtpx="http://www.garmin.com/xmlschemas/TrackPointExtension/v1">
            <gpxtpx:hr>94</gpxtpx:hr>
          </gpxtpx:TrackPointExtension>
        </extensions>
      </trkpt>
      <trkpt lat="45.76588" lon="6.4617">
        <ele>1169.8000488281</ele>
        <time>2020-07-05T07:04:58.000Z</time>
        <extensions>
          <gpxtpx:TrackPointExtension xmlns:gpxtpx="http://www.garmin.com/xmlschemas/TrackPointExtension/v1">
            <gpxtpx:hr>94</gpxtpx:hr>
          </gpxtpx:TrackPointExtension>
        </extensions>
      </trkpt>
      <trkpt lat="45.76584" lon="6.4616">
        <ele>1169</ele>
        <time>2020-07-05T07:04:59.000Z</time>
        <extensions>
          <gpxtpx:TrackPointExtension xmlns:gpxtpx="http://www.garmin.com/xmlschemas/TrackPointExtension/v1">
            <gpxtpx:hr>95</gpxtpx:hr>
          </gpxtpx:TrackPointExtension>
        </extensions>
      </trkpt>
      <trkpt lat="45.76579" lon="6.4615">
        <ele>1168.4000244141</ele>
        <time>2020-07-05T07:05:00.000Z</time>
        <extensions>
          <gpxtpx:TrackPointExtension xmlns:gpxtpx="http://www.garmin.com/xmlschemas/TrackPointExtension/v1">
            <gpxtpx:hr>96</gpxtpx:hr>
          </gpxtpx:TrackPointExtension>
        </extensions>
      </trkpt>
      <trkpt lat="45.76574" lon="6.4614">
        <ele>1167.5999755859</ele>
        <time>2020-07-05T07:05:01.000Z</time>
        <extensions>
          <gpxtpx:TrackPointExtension xmlns:gpxtpx="http://www.garmin.com/xmlschemas/TrackPointExtension/v1">
            <gpxtpx:hr>97</gpxtpx:hr>
          </gpxtpx:TrackPointExtension>
        </extensions>
      </trkpt>
      <trkpt lat="45.76563" lon="6.46119">
        <ele>1166</ele>
        <time>2020-07-05T07:05:03.000Z</time>
        <extensions>
          <gpxtpx:TrackPointExtension xmlns:gpxtpx="http://www.garmin.com/xmlschemas/TrackPointExtension/v1">
            <gpxtpx:hr>100</gpxtpx:hr>
          </gpxtpx:TrackPointExtension>
        </extensions>
      </trkpt>
      <trkpt lat="45.76558" lon="6.46109">
        <ele>1165</ele>
        <time>2020-07-05T07:05:04.000Z</time>
        <extensions>
          <gpxtpx:TrackPointExtension xmlns:gpxtpx="http://www.garmin.com/xmlschemas/TrackPointExtension/v1">
            <gpxtpx:hr>100</gpxtpx:hr>
          </gpxtpx:TrackPointExtension>
        </extensions>
      </trkpt>
      <trkpt lat="45.76552" lon="6.461">
        <ele>1163.8000488281</ele>
        <time>2020-07-05T07:05:05.000Z</time>
        <extensions>
          <gpxtpx:TrackPointExtension xmlns:gpxtpx="http://www.garmin.com/xmlschemas/TrackPointExtension/v1">
            <gpxtpx:hr>100</gpxtpx:hr>
          </gpxtpx:TrackPointExtension>
        </extensions>
      </trkpt>
      <trkpt lat="45.76547" lon="6.46093">
        <ele>1162.8000488281</ele>
        <time>2020-07-05T07:05:06.000Z</time>
        <extensions>
          <gpxtpx:TrackPointExtension xmlns:gpxtpx="http://www.garmin.com/xmlschemas/TrackPointExtension/v1">
            <gpxtpx:hr>100</gpxtpx:hr>
          </gpxtpx:TrackPointExtension>
        </extensions>
      </trkpt>
      <trkpt lat="45.76533" lon="6.46082">
        <ele>1161.1999511719</ele>
        <time>2020-07-05T07:05:08.000Z</time>
        <extensions>
          <gpxtpx:TrackPointExtension xmlns:gpxtpx="http://www.garmin.com/xmlschemas/TrackPointExtension/v1">
            <gpxtpx:hr>100</gpxtpx:hr>
          </gpxtpx:TrackPointExtension>
        </extensions>
      </trkpt>
      <trkpt lat="45.76525" lon="6.46077">
        <ele>1160.4000244141</ele>
        <time>2020-07-05T07:05:09.000Z</time>
        <extensions>
          <gpxtpx:TrackPointExtension xmlns:gpxtpx="http://www.garmin.com/xmlschemas/TrackPointExtension/v1">
            <gpxtpx:hr>101</gpxtpx:hr>
          </gpxtpx:TrackPointExtension>
        </extensions>
      </trkpt>
      <trkpt lat="45.76519" lon="6.4607">
        <ele>1159.5999755859</ele>
        <time>2020-07-05T07:05:10.000Z</time>
        <extensions>
          <gpxtpx:TrackPointExtension xmlns:gpxtpx="http://www.garmin.com/xmlschemas/TrackPointExtension/v1">
            <gpxtpx:hr>101</gpxtpx:hr>
          </gpxtpx:TrackPointExtension>
        </extensions>
      </trkpt>
      <trkpt lat="45.76513" lon="6.46062">
        <ele>1158.8000488281</ele>
        <time>2020-07-05T07:05:11.000Z</time>
        <extensions>
          <gpxtpx:TrackPointExtension xmlns:gpxtpx="http://www.garmin.com/xmlschemas/TrackPointExtension/v1">
            <gpxtpx:hr>101</gpxtpx:hr>
          </gpxtpx:TrackPointExtension>
        </extensions>
      </trkpt>
      <trkpt lat="45.76507" lon="6.46052">
        <ele>1158.4000244141</ele>
        <time>2020-07-05T07:05:12.000Z</time>
        <extensions>
          <gpxtpx:TrackPointExtension xmlns:gpxtpx="http://www.garmin.com/xmlschemas/TrackPointExtension/v1">
            <gpxtpx:hr>102</gpxtpx:hr>
          </gpxtpx:TrackPointExtension>
        </extensions>
      </trkpt>
      <trkpt lat="45.76501" lon="6.46041">
        <ele>1158</ele>
        <time>2020-07-05T07:05:13.000Z</time>
        <extensions>
          <gpxtpx:TrackPointExtension xmlns:gpxtpx="http://www.garmin.com/xmlschemas/TrackPointExtension/v1">
            <gpxtpx:hr>102</gpxtpx:hr>
          </gpxtpx:TrackPointExtension>
        </extensions>
      </trkpt>
      <trkpt lat="45.7649" lon="6.46018">
        <ele>1157</ele>
        <time>2020-07-05T07:05:15.000Z</time>
        <extensions>
          <gpxtpx:TrackPointExtension xmlns:gpxtpx="http://www.garmin.com/xmlschemas/TrackPointExtension/v1">
            <gpxtpx:hr>103</gpxtpx:hr>
          </gpxtpx:TrackPointExtension>
        </extensions>
      </trkpt>
      <trkpt lat="45.76483" lon="6.46008">
        <ele>1156</ele>
        <time>2020-07-05T07:05:16.000Z</time>
        <extensions>
          <gpxtpx:TrackPointExtension xmlns:gpxtpx="http://www.garmin.com/xmlschemas/TrackPointExtension/v1">
            <gpxtpx:hr>103</gpxtpx:hr>
          </gpxtpx:TrackPointExtension>
        </extensions>
      </trkpt>
      <trkpt lat="45.76476" lon="6.45999">
        <ele>1155</ele>
        <time>2020-07-05T07:05:17.000Z</time>
        <extensions>
          <gpxtpx:TrackPointExtension xmlns:gpxtpx="http://www.garmin.com/xmlschemas/TrackPointExtension/v1">
            <gpxtpx:hr>104</gpxtpx:hr>
          </gpxtpx:TrackPointExtension>
        </extensions>
      </trkpt>
      <trkpt lat="45.76461" lon="6.45981">
        <ele>1153</ele>
        <time>2020-07-05T07:05:19.000Z</time>
        <extensions>
          <gpxtpx:TrackPointExtension xmlns:gpxtpx="http://www.garmin.com/xmlschemas/TrackPointExtension/v1">
            <gpxtpx:hr>104</gpxtpx:hr>
          </gpxtpx:TrackPointExtension>
        </extensions>
      </trkpt>
      <trkpt lat="45.76455" lon="6.4597">
        <ele>1152</ele>
        <time>2020-07-05T07:05:20.000Z</time>
        <extensions>
          <gpxtpx:TrackPointExtension xmlns:gpxtpx="http://www.garmin.com/xmlschemas/TrackPointExtension/v1">
            <gpxtpx:hr>104</gpxtpx:hr>
          </gpxtpx:TrackPointExtension>
        </extensions>
      </trkpt>
      <trkpt lat="45.7645" lon="6.45957">
        <ele>1151</ele>
        <time>2020-07-05T07:05:21.000Z</time>
        <extensions>
          <gpxtpx:TrackPointExtension xmlns:gpxtpx="http://www.garmin.com/xmlschemas/TrackPointExtension/v1">
            <gpxtpx:hr>104</gpxtpx:hr>
          </gpxtpx:TrackPointExtension>
        </extensions>
      </trkpt>
      <trkpt lat="45.76445" lon="6.45944">
        <ele>1150.1999511719</ele>
        <time>2020-07-05T07:05:22.000Z</time>
        <extensions>
          <gpxtpx:TrackPointExtension xmlns:gpxtpx="http://www.garmin.com/xmlschemas/TrackPointExtension/v1">
            <gpxtpx:hr>104</gpxtpx:hr>
          </gpxtpx:TrackPointExtension>
        </extensions>
      </trkpt>
      <trkpt lat="45.76434" lon="6.4592">
        <ele>1148.4000244141</ele>
        <time>2020-07-05T07:05:24.000Z</time>
        <extensions>
          <gpxtpx:TrackPointExtension xmlns:gpxtpx="http://www.garmin.com/xmlschemas/TrackPointExtension/v1">
            <gpxtpx:hr>103</gpxtpx:hr>
          </gpxtpx:TrackPointExtension>
        </extensions>
      </trkpt>
      <trkpt lat="45.7642" lon="6.45899">
        <ele>1146.8000488281</ele>
        <time>2020-07-05T07:05:26.000Z</time>
        <extensions>
          <gpxtpx:TrackPointExtension xmlns:gpxtpx="http://www.garmin.com/xmlschemas/TrackPointExtension/v1">
            <gpxtpx:hr>105</gpxtpx:hr>
          </gpxtpx:TrackPointExtension>
        </extensions>
      </trkpt>
      <trkpt lat="45.76402" lon="6.45882">
        <ele>1145</ele>
        <time>2020-07-05T07:05:28.000Z</time>
        <extensions>
          <gpxtpx:TrackPointExtension xmlns:gpxtpx="http://www.garmin.com/xmlschemas/TrackPointExtension/v1">
            <gpxtpx:hr>105</gpxtpx:hr>
          </gpxtpx:TrackPointExtension>
        </extensions>
      </trkpt>
      <trkpt lat="45.76392" lon="6.45875">
        <ele>1144.1999511719</ele>
        <time>2020-07-05T07:05:29.000Z</time>
        <extensions>
          <gpxtpx:TrackPointExtension xmlns:gpxtpx="http://www.garmin.com/xmlschemas/TrackPointExtension/v1">
            <gpxtpx:hr>105</gpxtpx:hr>
          </gpxtpx:TrackPointExtension>
        </extensions>
      </trkpt>
      <trkpt lat="45.76382" lon="6.45865">
        <ele>1143.5999755859</ele>
        <time>2020-07-05T07:05:30.000Z</time>
        <extensions>
          <gpxtpx:TrackPointExtension xmlns:gpxtpx="http://www.garmin.com/xmlschemas/TrackPointExtension/v1">
            <gpxtpx:hr>105</gpxtpx:hr>
          </gpxtpx:TrackPointExtension>
        </extensions>
      </trkpt>
      <trkpt lat="45.76362" lon="6.45845">
        <ele>1142</ele>
        <time>2020-07-05T07:05:32.000Z</time>
        <extensions>
          <gpxtpx:TrackPointExtension xmlns:gpxtpx="http://www.garmin.com/xmlschemas/TrackPointExtension/v1">
            <gpxtpx:hr>105</gpxtpx:hr>
          </gpxtpx:TrackPointExtension>
        </extensions>
      </trkpt>
      <trkpt lat="45.76352" lon="6.45835">
        <ele>1141</ele>
        <time>2020-07-05T07:05:33.000Z</time>
        <extensions>
          <gpxtpx:TrackPointExtension xmlns:gpxtpx="http://www.garmin.com/xmlschemas/TrackPointExtension/v1">
            <gpxtpx:hr>106</gpxtpx:hr>
          </gpxtpx:TrackPointExtension>
        </extensions>
      </trkpt>
      <trkpt lat="45.76343" lon="6.45825">
        <ele>1139.4000244141</ele>
        <time>2020-07-05T07:05:34.000Z</time>
        <extensions>
          <gpxtpx:TrackPointExtension xmlns:gpxtpx="http://www.garmin.com/xmlschemas/TrackPointExtension/v1">
            <gpxtpx:hr>105</gpxtpx:hr>
          </gpxtpx:TrackPointExtension>
        </extensions>
      </trkpt>
      <trkpt lat="45.76334" lon="6.45815">
        <ele>1137.1999511719</ele>
        <time>2020-07-05T07:05:35.000Z</time>
        <extensions>
          <gpxtpx:TrackPointExtension xmlns:gpxtpx="http://www.garmin.com/xmlschemas/TrackPointExtension/v1">
            <gpxtpx:hr>105</gpxtpx:hr>
          </gpxtpx:TrackPointExtension>
        </extensions>
      </trkpt>
      <trkpt lat="45.76324" lon="6.45808">
        <ele>1135.4000244141</ele>
        <time>2020-07-05T07:05:36.000Z</time>
        <extensions>
          <gpxtpx:TrackPointExtension xmlns:gpxtpx="http://www.garmin.com/xmlschemas/TrackPointExtension/v1">
            <gpxtpx:hr>104</gpxtpx:hr>
          </gpxtpx:TrackPointExtension>
        </extensions>
      </trkpt>
      <trkpt lat="45.76315" lon="6.45801">
        <ele>1134</ele>
        <time>2020-07-05T07:05:37.000Z</time>
        <extensions>
          <gpxtpx:TrackPointExtension xmlns:gpxtpx="http://www.garmin.com/xmlschemas/TrackPointExtension/v1">
            <gpxtpx:hr>104</gpxtpx:hr>
          </gpxtpx:TrackPointExtension>
        </extensions>
      </trkpt>
      <trkpt lat="45.76307" lon="6.45794">
        <ele>1133</ele>
        <time>2020-07-05T07:05:38.000Z</time>
        <extensions>
          <gpxtpx:TrackPointExtension xmlns:gpxtpx="http://www.garmin.com/xmlschemas/TrackPointExtension/v1">
            <gpxtpx:hr>104</gpxtpx:hr>
          </gpxtpx:TrackPointExtension>
        </extensions>
      </trkpt>
      <trkpt lat="45.76292" lon="6.45781">
        <ele>1131.8000488281</ele>
        <time>2020-07-05T07:05:40.000Z</time>
        <extensions>
          <gpxtpx:TrackPointExtension xmlns:gpxtpx="http://www.garmin.com/xmlschemas/TrackPointExtension/v1">
            <gpxtpx:hr>103</gpxtpx:hr>
          </gpxtpx:TrackPointExtension>
        </extensions>
      </trkpt>
      <trkpt lat="45.76281" lon="6.4577">
        <ele>1131.1999511719</ele>
        <time>2020-07-05T07:05:42.000Z</time>
        <extensions>
          <gpxtpx:TrackPointExtension xmlns:gpxtpx="http://www.garmin.com/xmlschemas/TrackPointExtension/v1">
            <gpxtpx:hr>102</gpxtpx:hr>
          </gpxtpx:TrackPointExtension>
        </extensions>
      </trkpt>
      <trkpt lat="45.76276" lon="6.45767">
        <ele>1131</ele>
        <time>2020-07-05T07:05:43.000Z</time>
        <extensions>
          <gpxtpx:TrackPointExtension xmlns:gpxtpx="http://www.garmin.com/xmlschemas/TrackPointExtension/v1">
            <gpxtpx:hr>101</gpxtpx:hr>
          </gpxtpx:TrackPointExtension>
        </extensions>
      </trkpt>
      <trkpt lat="45.76268" lon="6.45768">
        <ele>1130.8000488281</ele>
        <time>2020-07-05T07:05:45.000Z</time>
        <extensions>
          <gpxtpx:TrackPointExtension xmlns:gpxtpx="http://www.garmin.com/xmlschemas/TrackPointExtension/v1">
            <gpxtpx:hr>100</gpxtpx:hr>
          </gpxtpx:TrackPointExtension>
        </extensions>
      </trkpt>
      <trkpt lat="45.76264" lon="6.45776">
        <ele>1130.4000244141</ele>
        <time>2020-07-05T07:05:47.000Z</time>
        <extensions>
          <gpxtpx:TrackPointExtension xmlns:gpxtpx="http://www.garmin.com/xmlschemas/TrackPointExtension/v1">
            <gpxtpx:hr>99</gpxtpx:hr>
          </gpxtpx:TrackPointExtension>
        </extensions>
      </trkpt>
      <trkpt lat="45.76265" lon="6.45782">
        <ele>1130</ele>
        <time>2020-07-05T07:05:48.000Z</time>
        <extensions>
          <gpxtpx:TrackPointExtension xmlns:gpxtpx="http://www.garmin.com/xmlschemas/TrackPointExtension/v1">
            <gpxtpx:hr>99</gpxtpx:hr>
          </gpxtpx:TrackPointExtension>
        </extensions>
      </trkpt>
      <trkpt lat="45.76268" lon="6.45787">
        <ele>1129.4000244141</ele>
        <time>2020-07-05T07:05:49.000Z</time>
        <extensions>
          <gpxtpx:TrackPointExtension xmlns:gpxtpx="http://www.garmin.com/xmlschemas/TrackPointExtension/v1">
            <gpxtpx:hr>98</gpxtpx:hr>
          </gpxtpx:TrackPointExtension>
        </extensions>
      </trkpt>
      <trkpt lat="45.76275" lon="6.45793">
        <ele>1128.5999755859</ele>
        <time>2020-07-05T07:05:50.000Z</time>
        <extensions>
          <gpxtpx:TrackPointExtension xmlns:gpxtpx="http://www.garmin.com/xmlschemas/TrackPointExtension/v1">
            <gpxtpx:hr>99</gpxtpx:hr>
          </gpxtpx:TrackPointExtension>
        </extensions>
      </trkpt>
      <trkpt lat="45.76282" lon="6.458">
        <ele>1128</ele>
        <time>2020-07-05T07:05:51.000Z</time>
        <extensions>
          <gpxtpx:TrackPointExtension xmlns:gpxtpx="http://www.garmin.com/xmlschemas/TrackPointExtension/v1">
            <gpxtpx:hr>99</gpxtpx:hr>
          </gpxtpx:TrackPointExtension>
        </extensions>
      </trkpt>
      <trkpt lat="45.76288" lon="6.45809">
        <ele>1127</ele>
        <time>2020-07-05T07:05:52.000Z</time>
        <extensions>
          <gpxtpx:TrackPointExtension xmlns:gpxtpx="http://www.garmin.com/xmlschemas/TrackPointExtension/v1">
            <gpxtpx:hr>99</gpxtpx:hr>
          </gpxtpx:TrackPointExtension>
        </extensions>
      </trkpt>
      <trkpt lat="45.76294" lon="6.45818">
        <ele>1126</ele>
        <time>2020-07-05T07:05:53.000Z</time>
        <extensions>
          <gpxtpx:TrackPointExtension xmlns:gpxtpx="http://www.garmin.com/xmlschemas/TrackPointExtension/v1">
            <gpxtpx:hr>100</gpxtpx:hr>
          </gpxtpx:TrackPointExtension>
        </extensions>
      </trkpt>
      <trkpt lat="45.76299" lon="6.45829">
        <ele>1124.8000488281</ele>
        <time>2020-07-05T07:05:54.000Z</time>
        <extensions>
          <gpxtpx:TrackPointExtension xmlns:gpxtpx="http://www.garmin.com/xmlschemas/TrackPointExtension/v1">
            <gpxtpx:hr>100</gpxtpx:hr>
          </gpxtpx:TrackPointExtension>
        </extensions>
      </trkpt>
      <trkpt lat="45.76304" lon="6.45839">
        <ele>1123.4000244141</ele>
        <time>2020-07-05T07:05:55.000Z</time>
        <extensions>
          <gpxtpx:TrackPointExtension xmlns:gpxtpx="http://www.garmin.com/xmlschemas/TrackPointExtension/v1">
            <gpxtpx:hr>100</gpxtpx:hr>
          </gpxtpx:TrackPointExtension>
        </extensions>
      </trkpt>
      <trkpt lat="45.76308" lon="6.45849">
        <ele>1122</ele>
        <time>2020-07-05T07:05:56.000Z</time>
        <extensions>
          <gpxtpx:TrackPointExtension xmlns:gpxtpx="http://www.garmin.com/xmlschemas/TrackPointExtension/v1">
            <gpxtpx:hr>101</gpxtpx:hr>
          </gpxtpx:TrackPointExtension>
        </extensions>
      </trkpt>
      <trkpt lat="45.76314" lon="6.45867">
        <ele>1120.5999755859</ele>
        <time>2020-07-05T07:05:58.000Z</time>
        <extensions>
          <gpxtpx:TrackPointExtension xmlns:gpxtpx="http://www.garmin.com/xmlschemas/TrackPointExtension/v1">
            <gpxtpx:hr>101</gpxtpx:hr>
          </gpxtpx:TrackPointExtension>
        </extensions>
      </trkpt>
      <trkpt lat="45.76319" lon="6.45882">
        <ele>1119</ele>
        <time>2020-07-05T07:06:00.000Z</time>
        <extensions>
          <gpxtpx:TrackPointExtension xmlns:gpxtpx="http://www.garmin.com/xmlschemas/TrackPointExtension/v1">
            <gpxtpx:hr>103</gpxtpx:hr>
          </gpxtpx:TrackPointExtension>
        </extensions>
      </trkpt>
      <trkpt lat="45.76319" lon="6.45889">
        <ele>1118.1999511719</ele>
        <time>2020-07-05T07:06:01.000Z</time>
        <extensions>
          <gpxtpx:TrackPointExtension xmlns:gpxtpx="http://www.garmin.com/xmlschemas/TrackPointExtension/v1">
            <gpxtpx:hr>104</gpxtpx:hr>
          </gpxtpx:TrackPointExtension>
        </extensions>
      </trkpt>
      <trkpt lat="45.76317" lon="6.45895">
        <ele>1117.4000244141</ele>
        <time>2020-07-05T07:06:02.000Z</time>
        <extensions>
          <gpxtpx:TrackPointExtension xmlns:gpxtpx="http://www.garmin.com/xmlschemas/TrackPointExtension/v1">
            <gpxtpx:hr>103</gpxtpx:hr>
          </gpxtpx:TrackPointExtension>
        </extensions>
      </trkpt>
      <trkpt lat="45.76313" lon="6.45898">
        <ele>1117</ele>
        <time>2020-07-05T07:06:03.000Z</time>
        <extensions>
          <gpxtpx:TrackPointExtension xmlns:gpxtpx="http://www.garmin.com/xmlschemas/TrackPointExtension/v1">
            <gpxtpx:hr>102</gpxtpx:hr>
          </gpxtpx:TrackPointExtension>
        </extensions>
      </trkpt>
      <trkpt lat="45.76307" lon="6.45899">
        <ele>1116.1999511719</ele>
        <time>2020-07-05T07:06:04.000Z</time>
        <extensions>
          <gpxtpx:TrackPointExtension xmlns:gpxtpx="http://www.garmin.com/xmlschemas/TrackPointExtension/v1">
            <gpxtpx:hr>103</gpxtpx:hr>
          </gpxtpx:TrackPointExtension>
        </extensions>
      </trkpt>
      <trkpt lat="45.76293" lon="6.45893">
        <ele>1114.8000488281</ele>
        <time>2020-07-05T07:06:06.000Z</time>
        <extensions>
          <gpxtpx:TrackPointExtension xmlns:gpxtpx="http://www.garmin.com/xmlschemas/TrackPointExtension/v1">
            <gpxtpx:hr>104</gpxtpx:hr>
          </gpxtpx:TrackPointExtension>
        </extensions>
      </trkpt>
      <trkpt lat="45.76287" lon="6.45888">
        <ele>1113.8000488281</ele>
        <time>2020-07-05T07:06:07.000Z</time>
        <extensions>
          <gpxtpx:TrackPointExtension xmlns:gpxtpx="http://www.garmin.com/xmlschemas/TrackPointExtension/v1">
            <gpxtpx:hr>104</gpxtpx:hr>
          </gpxtpx:TrackPointExtension>
        </extensions>
      </trkpt>
      <trkpt lat="45.76281" lon="6.45882">
        <ele>1112.4000244141</ele>
        <time>2020-07-05T07:06:08.000Z</time>
        <extensions>
          <gpxtpx:TrackPointExtension xmlns:gpxtpx="http://www.garmin.com/xmlschemas/TrackPointExtension/v1">
            <gpxtpx:hr>103</gpxtpx:hr>
          </gpxtpx:TrackPointExtension>
        </extensions>
      </trkpt>
      <trkpt lat="45.76277" lon="6.45874">
        <ele>1111.1999511719</ele>
        <time>2020-07-05T07:06:09.000Z</time>
        <extensions>
          <gpxtpx:TrackPointExtension xmlns:gpxtpx="http://www.garmin.com/xmlschemas/TrackPointExtension/v1">
            <gpxtpx:hr>103</gpxtpx:hr>
          </gpxtpx:TrackPointExtension>
        </extensions>
      </trkpt>
      <trkpt lat="45.76273" lon="6.45865">
        <ele>1110.4000244141</ele>
        <time>2020-07-05T07:06:10.000Z</time>
        <extensions>
          <gpxtpx:TrackPointExtension xmlns:gpxtpx="http://www.garmin.com/xmlschemas/TrackPointExtension/v1">
            <gpxtpx:hr>103</gpxtpx:hr>
          </gpxtpx:TrackPointExtension>
        </extensions>
      </trkpt>
      <trkpt lat="45.76271" lon="6.45855">
        <ele>1109.5999755859</ele>
        <time>2020-07-05T07:06:11.000Z</time>
        <extensions>
          <gpxtpx:TrackPointExtension xmlns:gpxtpx="http://www.garmin.com/xmlschemas/TrackPointExtension/v1">
            <gpxtpx:hr>103</gpxtpx:hr>
          </gpxtpx:TrackPointExtension>
        </extensions>
      </trkpt>
      <trkpt lat="45.76268" lon="6.45845">
        <ele>1108.5999755859</ele>
        <time>2020-07-05T07:06:12.000Z</time>
        <extensions>
          <gpxtpx:TrackPointExtension xmlns:gpxtpx="http://www.garmin.com/xmlschemas/TrackPointExtension/v1">
            <gpxtpx:hr>103</gpxtpx:hr>
          </gpxtpx:TrackPointExtension>
        </extensions>
      </trkpt>
      <trkpt lat="45.76264" lon="6.4583">
        <ele>1107</ele>
        <time>2020-07-05T07:06:14.000Z</time>
        <extensions>
          <gpxtpx:TrackPointExtension xmlns:gpxtpx="http://www.garmin.com/xmlschemas/TrackPointExtension/v1">
            <gpxtpx:hr>103</gpxtpx:hr>
          </gpxtpx:TrackPointExtension>
        </extensions>
      </trkpt>
      <trkpt lat="45.7626" lon="6.45827">
        <ele>1106.8000488281</ele>
        <time>2020-07-05T07:06:15.000Z</time>
        <extensions>
          <gpxtpx:TrackPointExtension xmlns:gpxtpx="http://www.garmin.com/xmlschemas/TrackPointExtension/v1">
            <gpxtpx:hr>103</gpxtpx:hr>
          </gpxtpx:TrackPointExtension>
        </extensions>
      </trkpt>
      <trkpt lat="45.76256" lon="6.45826">
        <ele>1106.4000244141</ele>
        <time>2020-07-05T07:06:16.000Z</time>
        <extensions>
          <gpxtpx:TrackPointExtension xmlns:gpxtpx="http://www.garmin.com/xmlschemas/TrackPointExtension/v1">
            <gpxtpx:hr>103</gpxtpx:hr>
          </gpxtpx:TrackPointExtension>
        </extensions>
      </trkpt>
      <trkpt lat="45.76252" lon="6.45829">
        <ele>1106</ele>
        <time>2020-07-05T07:06:17.000Z</time>
        <extensions>
          <gpxtpx:TrackPointExtension xmlns:gpxtpx="http://www.garmin.com/xmlschemas/TrackPointExtension/v1">
            <gpxtpx:hr>103</gpxtpx:hr>
          </gpxtpx:TrackPointExtension>
        </extensions>
      </trkpt>
      <trkpt lat="45.7625" lon="6.45835">
        <ele>1105.5999755859</ele>
        <time>2020-07-05T07:06:18.000Z</time>
        <extensions>
          <gpxtpx:TrackPointExtension xmlns:gpxtpx="http://www.garmin.com/xmlschemas/TrackPointExtension/v1">
            <gpxtpx:hr>104</gpxtpx:hr>
          </gpxtpx:TrackPointExtension>
        </extensions>
      </trkpt>
      <trkpt lat="45.76249" lon="6.45852">
        <ele>1104</ele>
        <time>2020-07-05T07:06:20.000Z</time>
        <extensions>
          <gpxtpx:TrackPointExtension xmlns:gpxtpx="http://www.garmin.com/xmlschemas/TrackPointExtension/v1">
            <gpxtpx:hr>107</gpxtpx:hr>
          </gpxtpx:TrackPointExtension>
        </extensions>
      </trkpt>
      <trkpt lat="45.76247" lon="6.45868">
        <ele>1102.4000244141</ele>
        <time>2020-07-05T07:06:22.000Z</time>
        <extensions>
          <gpxtpx:TrackPointExtension xmlns:gpxtpx="http://www.garmin.com/xmlschemas/TrackPointExtension/v1">
            <gpxtpx:hr>109</gpxtpx:hr>
          </gpxtpx:TrackPointExtension>
        </extensions>
      </trkpt>
      <trkpt lat="45.76244" lon="6.45873">
        <ele>1102</ele>
        <time>2020-07-05T07:06:23.000Z</time>
        <extensions>
          <gpxtpx:TrackPointExtension xmlns:gpxtpx="http://www.garmin.com/xmlschemas/TrackPointExtension/v1">
            <gpxtpx:hr>108</gpxtpx:hr>
          </gpxtpx:TrackPointExtension>
        </extensions>
      </trkpt>
      <trkpt lat="45.76232" lon="6.45876">
        <ele>1101</ele>
        <time>2020-07-05T07:06:25.000Z</time>
        <extensions>
          <gpxtpx:TrackPointExtension xmlns:gpxtpx="http://www.garmin.com/xmlschemas/TrackPointExtension/v1">
            <gpxtpx:hr>107</gpxtpx:hr>
          </gpxtpx:TrackPointExtension>
        </extensions>
      </trkpt>
      <trkpt lat="45.76224" lon="6.45866">
        <ele>1099.1999511719</ele>
        <time>2020-07-05T07:06:27.000Z</time>
        <extensions>
          <gpxtpx:TrackPointExtension xmlns:gpxtpx="http://www.garmin.com/xmlschemas/TrackPointExtension/v1">
            <gpxtpx:hr>105</gpxtpx:hr>
          </gpxtpx:TrackPointExtension>
        </extensions>
      </trkpt>
      <trkpt lat="45.76216" lon="6.45857">
        <ele>1098.1999511719</ele>
        <time>2020-07-05T07:06:28.000Z</time>
        <extensions>
          <gpxtpx:TrackPointExtension xmlns:gpxtpx="http://www.garmin.com/xmlschemas/TrackPointExtension/v1">
            <gpxtpx:hr>106</gpxtpx:hr>
          </gpxtpx:TrackPointExtension>
        </extensions>
      </trkpt>
      <trkpt lat="45.76208" lon="6.45849">
        <ele>1097.1999511719</ele>
        <time>2020-07-05T07:06:29.000Z</time>
        <extensions>
          <gpxtpx:TrackPointExtension xmlns:gpxtpx="http://www.garmin.com/xmlschemas/TrackPointExtension/v1">
            <gpxtpx:hr>107</gpxtpx:hr>
          </gpxtpx:TrackPointExtension>
        </extensions>
      </trkpt>
      <trkpt lat="45.762" lon="6.45841">
        <ele>1096.4000244141</ele>
        <time>2020-07-05T07:06:30.000Z</time>
        <extensions>
          <gpxtpx:TrackPointExtension xmlns:gpxtpx="http://www.garmin.com/xmlschemas/TrackPointExtension/v1">
            <gpxtpx:hr>107</gpxtpx:hr>
          </gpxtpx:TrackPointExtension>
        </extensions>
      </trkpt>
      <trkpt lat="45.76193" lon="6.45833">
        <ele>1095.1999511719</ele>
        <time>2020-07-05T07:06:31.000Z</time>
        <extensions>
          <gpxtpx:TrackPointExtension xmlns:gpxtpx="http://www.garmin.com/xmlschemas/TrackPointExtension/v1">
            <gpxtpx:hr>107</gpxtpx:hr>
          </gpxtpx:TrackPointExtension>
        </extensions>
      </trkpt>
      <trkpt lat="45.76185" lon="6.45823">
        <ele>1094</ele>
        <time>2020-07-05T07:06:32.000Z</time>
        <extensions>
          <gpxtpx:TrackPointExtension xmlns:gpxtpx="http://www.garmin.com/xmlschemas/TrackPointExtension/v1">
            <gpxtpx:hr>108</gpxtpx:hr>
          </gpxtpx:TrackPointExtension>
        </extensions>
      </trkpt>
      <trkpt lat="45.76178" lon="6.45811">
        <ele>1092.5999755859</ele>
        <time>2020-07-05T07:06:33.000Z</time>
        <extensions>
          <gpxtpx:TrackPointExtension xmlns:gpxtpx="http://www.garmin.com/xmlschemas/TrackPointExtension/v1">
            <gpxtpx:hr>108</gpxtpx:hr>
          </gpxtpx:TrackPointExtension>
        </extensions>
      </trkpt>
      <trkpt lat="45.76173" lon="6.45799">
        <ele>1091.1999511719</ele>
        <time>2020-07-05T07:06:34.000Z</time>
        <extensions>
          <gpxtpx:TrackPointExtension xmlns:gpxtpx="http://www.garmin.com/xmlschemas/TrackPointExtension/v1">
            <gpxtpx:hr>109</gpxtpx:hr>
          </gpxtpx:TrackPointExtension>
        </extensions>
      </trkpt>
      <trkpt lat="45.76168" lon="6.45786">
        <ele>1090</ele>
        <time>2020-07-05T07:06:35.000Z</time>
        <extensions>
          <gpxtpx:TrackPointExtension xmlns:gpxtpx="http://www.garmin.com/xmlschemas/TrackPointExtension/v1">
            <gpxtpx:hr>109</gpxtpx:hr>
          </gpxtpx:TrackPointExtension>
        </extensions>
      </trkpt>
      <trkpt lat="45.7616" lon="6.4576">
        <ele>1088.8000488281</ele>
        <time>2020-07-05T07:06:37.000Z</time>
        <extensions>
          <gpxtpx:TrackPointExtension xmlns:gpxtpx="http://www.garmin.com/xmlschemas/TrackPointExtension/v1">
            <gpxtpx:hr>110</gpxtpx:hr>
          </gpxtpx:TrackPointExtension>
        </extensions>
      </trkpt>
      <trkpt lat="45.76155" lon="6.45749">
        <ele>1088.4000244141</ele>
        <time>2020-07-05T07:06:38.000Z</time>
        <extensions>
          <gpxtpx:TrackPointExtension xmlns:gpxtpx="http://www.garmin.com/xmlschemas/TrackPointExtension/v1">
            <gpxtpx:hr>111</gpxtpx:hr>
          </gpxtpx:TrackPointExtension>
        </extensions>
      </trkpt>
      <trkpt lat="45.76146" lon="6.45732">
        <ele>1087.4000244141</ele>
        <time>2020-07-05T07:06:40.000Z</time>
        <extensions>
          <gpxtpx:TrackPointExtension xmlns:gpxtpx="http://www.garmin.com/xmlschemas/TrackPointExtension/v1">
            <gpxtpx:hr>113</gpxtpx:hr>
          </gpxtpx:TrackPointExtension>
        </extensions>
      </trkpt>
      <trkpt lat="45.76143" lon="6.45724">
        <ele>1086.8000488281</ele>
        <time>2020-07-05T07:06:41.000Z</time>
        <extensions>
          <gpxtpx:TrackPointExtension xmlns:gpxtpx="http://www.garmin.com/xmlschemas/TrackPointExtension/v1">
            <gpxtpx:hr>113</gpxtpx:hr>
          </gpxtpx:TrackPointExtension>
        </extensions>
      </trkpt>
      <trkpt lat="45.76137" lon="6.45717">
        <ele>1086.1999511719</ele>
        <time>2020-07-05T07:06:42.000Z</time>
        <extensions>
          <gpxtpx:TrackPointExtension xmlns:gpxtpx="http://www.garmin.com/xmlschemas/TrackPointExtension/v1">
            <gpxtpx:hr>114</gpxtpx:hr>
          </gpxtpx:TrackPointExtension>
        </extensions>
      </trkpt>
      <trkpt lat="45.76134" lon="6.45717">
        <ele>1085.1999511719</ele>
        <time>2020-07-05T07:06:43.000Z</time>
        <extensions>
          <gpxtpx:TrackPointExtension xmlns:gpxtpx="http://www.garmin.com/xmlschemas/TrackPointExtension/v1">
            <gpxtpx:hr>114</gpxtpx:hr>
          </gpxtpx:TrackPointExtension>
        </extensions>
      </trkpt>
      <trkpt lat="45.7613" lon="6.45716">
        <ele>1084.4000244141</ele>
        <time>2020-07-05T07:06:44.000Z</time>
        <extensions>
          <gpxtpx:TrackPointExtension xmlns:gpxtpx="http://www.garmin.com/xmlschemas/TrackPointExtension/v1">
            <gpxtpx:hr>114</gpxtpx:hr>
          </gpxtpx:TrackPointExtension>
        </extensions>
      </trkpt>
      <trkpt lat="45.76126" lon="6.45717">
        <ele>1084</ele>
        <time>2020-07-05T07:06:45.000Z</time>
        <extensions>
          <gpxtpx:TrackPointExtension xmlns:gpxtpx="http://www.garmin.com/xmlschemas/TrackPointExtension/v1">
            <gpxtpx:hr>114</gpxtpx:hr>
          </gpxtpx:TrackPointExtension>
        </extensions>
      </trkpt>
      <trkpt lat="45.7613" lon="6.45723">
        <ele>1083</ele>
        <time>2020-07-05T07:06:47.000Z</time>
        <extensions>
          <gpxtpx:TrackPointExtension xmlns:gpxtpx="http://www.garmin.com/xmlschemas/TrackPointExtension/v1">
            <gpxtpx:hr>114</gpxtpx:hr>
          </gpxtpx:TrackPointExtension>
        </extensions>
      </trkpt>
      <trkpt lat="45.76135" lon="6.45732">
        <ele>1082.4000244141</ele>
        <time>2020-07-05T07:06:48.000Z</time>
        <extensions>
          <gpxtpx:TrackPointExtension xmlns:gpxtpx="http://www.garmin.com/xmlschemas/TrackPointExtension/v1">
            <gpxtpx:hr>113</gpxtpx:hr>
          </gpxtpx:TrackPointExtension>
        </extensions>
      </trkpt>
      <trkpt lat="45.7614" lon="6.4576">
        <ele>1081.8000488281</ele>
        <time>2020-07-05T07:06:49.000Z</time>
        <extensions>
          <gpxtpx:TrackPointExtension xmlns:gpxtpx="http://www.garmin.com/xmlschemas/TrackPointExtension/v1">
            <gpxtpx:hr>113</gpxtpx:hr>
          </gpxtpx:TrackPointExtension>
        </extensions>
      </trkpt>
      <trkpt lat="45.76154" lon="6.45798">
        <ele>1080.1999511719</ele>
        <time>2020-07-05T07:06:51.000Z</time>
        <extensions>
          <gpxtpx:TrackPointExtension xmlns:gpxtpx="http://www.garmin.com/xmlschemas/TrackPointExtension/v1">
            <gpxtpx:hr>112</gpxtpx:hr>
          </gpxtpx:TrackPointExtension>
        </extensions>
      </trkpt>
      <trkpt lat="45.76161" lon="6.45812">
        <ele>1079.1999511719</ele>
        <time>2020-07-05T07:06:52.000Z</time>
        <extensions>
          <gpxtpx:TrackPointExtension xmlns:gpxtpx="http://www.garmin.com/xmlschemas/TrackPointExtension/v1">
            <gpxtpx:hr>112</gpxtpx:hr>
          </gpxtpx:TrackPointExtension>
        </extensions>
      </trkpt>
      <trkpt lat="45.76167" lon="6.45825">
        <ele>1077.8000488281</ele>
        <time>2020-07-05T07:06:53.000Z</time>
        <extensions>
          <gpxtpx:TrackPointExtension xmlns:gpxtpx="http://www.garmin.com/xmlschemas/TrackPointExtension/v1">
            <gpxtpx:hr>112</gpxtpx:hr>
          </gpxtpx:TrackPointExtension>
        </extensions>
      </trkpt>
      <trkpt lat="45.76175" lon="6.45836">
        <ele>1076.1999511719</ele>
        <time>2020-07-05T07:06:54.000Z</time>
        <extensions>
          <gpxtpx:TrackPointExtension xmlns:gpxtpx="http://www.garmin.com/xmlschemas/TrackPointExtension/v1">
            <gpxtpx:hr>112</gpxtpx:hr>
          </gpxtpx:TrackPointExtension>
        </extensions>
      </trkpt>
      <trkpt lat="45.76182" lon="6.45846">
        <ele>1074.5999755859</ele>
        <time>2020-07-05T07:06:55.000Z</time>
        <extensions>
          <gpxtpx:TrackPointExtension xmlns:gpxtpx="http://www.garmin.com/xmlschemas/TrackPointExtension/v1">
            <gpxtpx:hr>112</gpxtpx:hr>
          </gpxtpx:TrackPointExtension>
        </extensions>
      </trkpt>
      <trkpt lat="45.76188" lon="6.45857">
        <ele>1073.4000244141</ele>
        <time>2020-07-05T07:06:56.000Z</time>
        <extensions>
          <gpxtpx:TrackPointExtension xmlns:gpxtpx="http://www.garmin.com/xmlschemas/TrackPointExtension/v1">
            <gpxtpx:hr>112</gpxtpx:hr>
          </gpxtpx:TrackPointExtension>
        </extensions>
      </trkpt>
      <trkpt lat="45.76192" lon="6.45869">
        <ele>1072</ele>
        <time>2020-07-05T07:06:57.000Z</time>
        <extensions>
          <gpxtpx:TrackPointExtension xmlns:gpxtpx="http://www.garmin.com/xmlschemas/TrackPointExtension/v1">
            <gpxtpx:hr>112</gpxtpx:hr>
          </gpxtpx:TrackPointExtension>
        </extensions>
      </trkpt>
      <trkpt lat="45.76195" lon="6.45879">
        <ele>1071</ele>
        <time>2020-07-05T07:06:58.000Z</time>
        <extensions>
          <gpxtpx:TrackPointExtension xmlns:gpxtpx="http://www.garmin.com/xmlschemas/TrackPointExtension/v1">
            <gpxtpx:hr>111</gpxtpx:hr>
          </gpxtpx:TrackPointExtension>
        </extensions>
      </trkpt>
      <trkpt lat="45.76196" lon="6.45889">
        <ele>1070.4000244141</ele>
        <time>2020-07-05T07:06:59.000Z</time>
        <extensions>
          <gpxtpx:TrackPointExtension xmlns:gpxtpx="http://www.garmin.com/xmlschemas/TrackPointExtension/v1">
            <gpxtpx:hr>111</gpxtpx:hr>
          </gpxtpx:TrackPointExtension>
        </extensions>
      </trkpt>
      <trkpt lat="45.76195" lon="6.45899">
        <ele>1070</ele>
        <time>2020-07-05T07:07:00.000Z</time>
        <extensions>
          <gpxtpx:TrackPointExtension xmlns:gpxtpx="http://www.garmin.com/xmlschemas/TrackPointExtension/v1">
            <gpxtpx:hr>110</gpxtpx:hr>
          </gpxtpx:TrackPointExtension>
        </extensions>
      </trkpt>
      <trkpt lat="45.76193" lon="6.45908">
        <ele>1069.5999755859</ele>
        <time>2020-07-05T07:07:01.000Z</time>
        <extensions>
          <gpxtpx:TrackPointExtension xmlns:gpxtpx="http://www.garmin.com/xmlschemas/TrackPointExtension/v1">
            <gpxtpx:hr>108</gpxtpx:hr>
          </gpxtpx:TrackPointExtension>
        </extensions>
      </trkpt>
      <trkpt lat="45.76188" lon="6.45915">
        <ele>1069.1999511719</ele>
        <time>2020-07-05T07:07:02.000Z</time>
        <extensions>
          <gpxtpx:TrackPointExtension xmlns:gpxtpx="http://www.garmin.com/xmlschemas/TrackPointExtension/v1">
            <gpxtpx:hr>110</gpxtpx:hr>
          </gpxtpx:TrackPointExtension>
        </extensions>
      </trkpt>
      <trkpt lat="45.76183" lon="6.45918">
        <ele>1068.4000244141</ele>
        <time>2020-07-05T07:07:03.000Z</time>
        <extensions>
          <gpxtpx:TrackPointExtension xmlns:gpxtpx="http://www.garmin.com/xmlschemas/TrackPointExtension/v1">
            <gpxtpx:hr>109</gpxtpx:hr>
          </gpxtpx:TrackPointExtension>
        </extensions>
      </trkpt>
      <trkpt lat="45.76177" lon="6.45916">
        <ele>1067.5999755859</ele>
        <time>2020-07-05T07:07:04.000Z</time>
        <extensions>
          <gpxtpx:TrackPointExtension xmlns:gpxtpx="http://www.garmin.com/xmlschemas/TrackPointExtension/v1">
            <gpxtpx:hr>109</gpxtpx:hr>
          </gpxtpx:TrackPointExtension>
        </extensions>
      </trkpt>
      <trkpt lat="45.76164" lon="6.45907">
        <ele>1066.4000244141</ele>
        <time>2020-07-05T07:07:06.000Z</time>
        <extensions>
          <gpxtpx:TrackPointExtension xmlns:gpxtpx="http://www.garmin.com/xmlschemas/TrackPointExtension/v1">
            <gpxtpx:hr>107</gpxtpx:hr>
          </gpxtpx:TrackPointExtension>
        </extensions>
      </trkpt>
      <trkpt lat="45.76146" lon="6.45889">
        <ele>1064.8000488281</ele>
        <time>2020-07-05T07:07:09.000Z</time>
        <extensions>
          <gpxtpx:TrackPointExtension xmlns:gpxtpx="http://www.garmin.com/xmlschemas/TrackPointExtension/v1">
            <gpxtpx:hr>104</gpxtpx:hr>
          </gpxtpx:TrackPointExtension>
        </extensions>
      </trkpt>
      <trkpt lat="45.76141" lon="6.45885">
        <ele>1063.8000488281</ele>
        <time>2020-07-05T07:07:10.000Z</time>
        <extensions>
          <gpxtpx:TrackPointExtension xmlns:gpxtpx="http://www.garmin.com/xmlschemas/TrackPointExtension/v1">
            <gpxtpx:hr>103</gpxtpx:hr>
          </gpxtpx:TrackPointExtension>
        </extensions>
      </trkpt>
      <trkpt lat="45.76137" lon="6.45881">
        <ele>1063.1999511719</ele>
        <time>2020-07-05T07:07:11.000Z</time>
        <extensions>
          <gpxtpx:TrackPointExtension xmlns:gpxtpx="http://www.garmin.com/xmlschemas/TrackPointExtension/v1">
            <gpxtpx:hr>104</gpxtpx:hr>
          </gpxtpx:TrackPointExtension>
        </extensions>
      </trkpt>
      <trkpt lat="45.76135" lon="6.45875">
        <ele>1062.1999511719</ele>
        <time>2020-07-05T07:07:13.000Z</time>
        <extensions>
          <gpxtpx:TrackPointExtension xmlns:gpxtpx="http://www.garmin.com/xmlschemas/TrackPointExtension/v1">
            <gpxtpx:hr>104</gpxtpx:hr>
          </gpxtpx:TrackPointExtension>
        </extensions>
      </trkpt>
      <trkpt lat="45.76136" lon="6.45871">
        <ele>1061.8000488281</ele>
        <time>2020-07-05T07:07:14.000Z</time>
        <extensions>
          <gpxtpx:TrackPointExtension xmlns:gpxtpx="http://www.garmin.com/xmlschemas/TrackPointExtension/v1">
            <gpxtpx:hr>104</gpxtpx:hr>
          </gpxtpx:TrackPointExtension>
        </extensions>
      </trkpt>
      <trkpt lat="45.76139" lon="6.45873">
        <ele>1061.4000244141</ele>
        <time>2020-07-05T07:07:15.000Z</time>
        <extensions>
          <gpxtpx:TrackPointExtension xmlns:gpxtpx="http://www.garmin.com/xmlschemas/TrackPointExtension/v1">
            <gpxtpx:hr>104</gpxtpx:hr>
          </gpxtpx:TrackPointExtension>
        </extensions>
      </trkpt>
      <trkpt lat="45.76151" lon="6.4589">
        <ele>1060.5999755859</ele>
        <time>2020-07-05T07:07:17.000Z</time>
        <extensions>
          <gpxtpx:TrackPointExtension xmlns:gpxtpx="http://www.garmin.com/xmlschemas/TrackPointExtension/v1">
            <gpxtpx:hr>106</gpxtpx:hr>
          </gpxtpx:TrackPointExtension>
        </extensions>
      </trkpt>
      <trkpt lat="45.76157" lon="6.45904">
        <ele>1059.8000488281</ele>
        <time>2020-07-05T07:07:18.000Z</time>
        <extensions>
          <gpxtpx:TrackPointExtension xmlns:gpxtpx="http://www.garmin.com/xmlschemas/TrackPointExtension/v1">
            <gpxtpx:hr>107</gpxtpx:hr>
          </gpxtpx:TrackPointExtension>
        </extensions>
      </trkpt>
      <trkpt lat="45.76162" lon="6.45918">
        <ele>1058.5999755859</ele>
        <time>2020-07-05T07:07:19.000Z</time>
        <extensions>
          <gpxtpx:TrackPointExtension xmlns:gpxtpx="http://www.garmin.com/xmlschemas/TrackPointExtension/v1">
            <gpxtpx:hr>107</gpxtpx:hr>
          </gpxtpx:TrackPointExtension>
        </extensions>
      </trkpt>
      <trkpt lat="45.76168" lon="6.45932">
        <ele>1057.5999755859</ele>
        <time>2020-07-05T07:07:20.000Z</time>
        <extensions>
          <gpxtpx:TrackPointExtension xmlns:gpxtpx="http://www.garmin.com/xmlschemas/TrackPointExtension/v1">
            <gpxtpx:hr>107</gpxtpx:hr>
          </gpxtpx:TrackPointExtension>
        </extensions>
      </trkpt>
      <trkpt lat="45.76174" lon="6.45946">
        <ele>1056.4000244141</ele>
        <time>2020-07-05T07:07:21.000Z</time>
        <extensions>
          <gpxtpx:TrackPointExtension xmlns:gpxtpx="http://www.garmin.com/xmlschemas/TrackPointExtension/v1">
            <gpxtpx:hr>107</gpxtpx:hr>
          </gpxtpx:TrackPointExtension>
        </extensions>
      </trkpt>
      <trkpt lat="45.76181" lon="6.45959">
        <ele>1055</ele>
        <time>2020-07-05T07:07:22.000Z</time>
        <extensions>
          <gpxtpx:TrackPointExtension xmlns:gpxtpx="http://www.garmin.com/xmlschemas/TrackPointExtension/v1">
            <gpxtpx:hr>107</gpxtpx:hr>
          </gpxtpx:TrackPointExtension>
        </extensions>
      </trkpt>
      <trkpt lat="45.76188" lon="6.4597">
        <ele>1053.5999755859</ele>
        <time>2020-07-05T07:07:23.000Z</time>
        <extensions>
          <gpxtpx:TrackPointExtension xmlns:gpxtpx="http://www.garmin.com/xmlschemas/TrackPointExtension/v1">
            <gpxtpx:hr>106</gpxtpx:hr>
          </gpxtpx:TrackPointExtension>
        </extensions>
      </trkpt>
      <trkpt lat="45.76195" lon="6.45982">
        <ele>1052.5999755859</ele>
        <time>2020-07-05T07:07:24.000Z</time>
        <extensions>
          <gpxtpx:TrackPointExtension xmlns:gpxtpx="http://www.garmin.com/xmlschemas/TrackPointExtension/v1">
            <gpxtpx:hr>106</gpxtpx:hr>
          </gpxtpx:TrackPointExtension>
        </extensions>
      </trkpt>
      <trkpt lat="45.76208" lon="6.46003">
        <ele>1050.8000488281</ele>
        <time>2020-07-05T07:07:26.000Z</time>
        <extensions>
          <gpxtpx:TrackPointExtension xmlns:gpxtpx="http://www.garmin.com/xmlschemas/TrackPointExtension/v1">
            <gpxtpx:hr>105</gpxtpx:hr>
          </gpxtpx:TrackPointExtension>
        </extensions>
      </trkpt>
      <trkpt lat="45.76216" lon="6.4601">
        <ele>1049.5999755859</ele>
        <time>2020-07-05T07:07:27.000Z</time>
        <extensions>
          <gpxtpx:TrackPointExtension xmlns:gpxtpx="http://www.garmin.com/xmlschemas/TrackPointExtension/v1">
            <gpxtpx:hr>104</gpxtpx:hr>
          </gpxtpx:TrackPointExtension>
        </extensions>
      </trkpt>
      <trkpt lat="45.76225" lon="6.46015">
        <ele>1048.5999755859</ele>
        <time>2020-07-05T07:07:28.000Z</time>
        <extensions>
          <gpxtpx:TrackPointExtension xmlns:gpxtpx="http://www.garmin.com/xmlschemas/TrackPointExtension/v1">
            <gpxtpx:hr>104</gpxtpx:hr>
          </gpxtpx:TrackPointExtension>
        </extensions>
      </trkpt>
      <trkpt lat="45.76234" lon="6.46022">
        <ele>1047.8000488281</ele>
        <time>2020-07-05T07:07:29.000Z</time>
        <extensions>
          <gpxtpx:TrackPointExtension xmlns:gpxtpx="http://www.garmin.com/xmlschemas/TrackPointExtension/v1">
            <gpxtpx:hr>104</gpxtpx:hr>
          </gpxtpx:TrackPointExtension>
        </extensions>
      </trkpt>
      <trkpt lat="45.76242" lon="6.46029">
        <ele>1047.1999511719</ele>
        <time>2020-07-05T07:07:30.000Z</time>
        <extensions>
          <gpxtpx:TrackPointExtension xmlns:gpxtpx="http://www.garmin.com/xmlschemas/TrackPointExtension/v1">
            <gpxtpx:hr>102</gpxtpx:hr>
          </gpxtpx:TrackPointExtension>
        </extensions>
      </trkpt>
      <trkpt lat="45.76248" lon="6.46038">
        <ele>1046.1999511719</ele>
        <time>2020-07-05T07:07:31.000Z</time>
        <extensions>
          <gpxtpx:TrackPointExtension xmlns:gpxtpx="http://www.garmin.com/xmlschemas/TrackPointExtension/v1">
            <gpxtpx:hr>104</gpxtpx:hr>
          </gpxtpx:TrackPointExtension>
        </extensions>
      </trkpt>
      <trkpt lat="45.76257" lon="6.46047">
        <ele>1045.1999511719</ele>
        <time>2020-07-05T07:07:32.000Z</time>
        <extensions>
          <gpxtpx:TrackPointExtension xmlns:gpxtpx="http://www.garmin.com/xmlschemas/TrackPointExtension/v1">
            <gpxtpx:hr>104</gpxtpx:hr>
          </gpxtpx:TrackPointExtension>
        </extensions>
      </trkpt>
      <trkpt lat="45.76274" lon="6.46063">
        <ele>1043.4000244141</ele>
        <time>2020-07-05T07:07:34.000Z</time>
        <extensions>
          <gpxtpx:TrackPointExtension xmlns:gpxtpx="http://www.garmin.com/xmlschemas/TrackPointExtension/v1">
            <gpxtpx:hr>104</gpxtpx:hr>
          </gpxtpx:TrackPointExtension>
        </extensions>
      </trkpt>
      <trkpt lat="45.76298" lon="6.46079">
        <ele>1041.5999755859</ele>
        <time>2020-07-05T07:07:36.000Z</time>
        <extensions>
          <gpxtpx:TrackPointExtension xmlns:gpxtpx="http://www.garmin.com/xmlschemas/TrackPointExtension/v1">
            <gpxtpx:hr>104</gpxtpx:hr>
          </gpxtpx:TrackPointExtension>
        </extensions>
      </trkpt>
      <trkpt lat="45.76309" lon="6.46086">
        <ele>1040.5999755859</ele>
        <time>2020-07-05T07:07:37.000Z</time>
        <extensions>
          <gpxtpx:TrackPointExtension xmlns:gpxtpx="http://www.garmin.com/xmlschemas/TrackPointExtension/v1">
            <gpxtpx:hr>104</gpxtpx:hr>
          </gpxtpx:TrackPointExtension>
        </extensions>
      </trkpt>
      <trkpt lat="45.76318" lon="6.46096">
        <ele>1039.4000244141</ele>
        <time>2020-07-05T07:07:38.000Z</time>
        <extensions>
          <gpxtpx:TrackPointExtension xmlns:gpxtpx="http://www.garmin.com/xmlschemas/TrackPointExtension/v1">
            <gpxtpx:hr>105</gpxtpx:hr>
          </gpxtpx:TrackPointExtension>
        </extensions>
      </trkpt>
      <trkpt lat="45.76326" lon="6.46105">
        <ele>1038.1999511719</ele>
        <time>2020-07-05T07:07:39.000Z</time>
        <extensions>
          <gpxtpx:TrackPointExtension xmlns:gpxtpx="http://www.garmin.com/xmlschemas/TrackPointExtension/v1">
            <gpxtpx:hr>105</gpxtpx:hr>
          </gpxtpx:TrackPointExtension>
        </extensions>
      </trkpt>
      <trkpt lat="45.76333" lon="6.46116">
        <ele>1037.4000244141</ele>
        <time>2020-07-05T07:07:40.000Z</time>
        <extensions>
          <gpxtpx:TrackPointExtension xmlns:gpxtpx="http://www.garmin.com/xmlschemas/TrackPointExtension/v1">
            <gpxtpx:hr>106</gpxtpx:hr>
          </gpxtpx:TrackPointExtension>
        </extensions>
      </trkpt>
      <trkpt lat="45.7634" lon="6.46126">
        <ele>1036.4000244141</ele>
        <time>2020-07-05T07:07:41.000Z</time>
        <extensions>
          <gpxtpx:TrackPointExtension xmlns:gpxtpx="http://www.garmin.com/xmlschemas/TrackPointExtension/v1">
            <gpxtpx:hr>106</gpxtpx:hr>
          </gpxtpx:TrackPointExtension>
        </extensions>
      </trkpt>
      <trkpt lat="45.76346" lon="6.46136">
        <ele>1035.8000488281</ele>
        <time>2020-07-05T07:07:42.000Z</time>
        <extensions>
          <gpxtpx:TrackPointExtension xmlns:gpxtpx="http://www.garmin.com/xmlschemas/TrackPointExtension/v1">
            <gpxtpx:hr>106</gpxtpx:hr>
          </gpxtpx:TrackPointExtension>
        </extensions>
      </trkpt>
      <trkpt lat="45.76353" lon="6.46145">
        <ele>1035.1999511719</ele>
        <time>2020-07-05T07:07:43.000Z</time>
        <extensions>
          <gpxtpx:TrackPointExtension xmlns:gpxtpx="http://www.garmin.com/xmlschemas/TrackPointExtension/v1">
            <gpxtpx:hr>106</gpxtpx:hr>
          </gpxtpx:TrackPointExtension>
        </extensions>
      </trkpt>
      <trkpt lat="45.76367" lon="6.46163">
        <ele>1034.1999511719</ele>
        <time>2020-07-05T07:07:45.000Z</time>
        <extensions>
          <gpxtpx:TrackPointExtension xmlns:gpxtpx="http://www.garmin.com/xmlschemas/TrackPointExtension/v1">
            <gpxtpx:hr>107</gpxtpx:hr>
          </gpxtpx:TrackPointExtension>
        </extensions>
      </trkpt>
      <trkpt lat="45.76373" lon="6.46174">
        <ele>1033.5999755859</ele>
        <time>2020-07-05T07:07:46.000Z</time>
        <extensions>
          <gpxtpx:TrackPointExtension xmlns:gpxtpx="http://www.garmin.com/xmlschemas/TrackPointExtension/v1">
            <gpxtpx:hr>106</gpxtpx:hr>
          </gpxtpx:TrackPointExtension>
        </extensions>
      </trkpt>
      <trkpt lat="45.76376" lon="6.46187">
        <ele>1033.1999511719</ele>
        <time>2020-07-05T07:07:47.000Z</time>
        <extensions>
          <gpxtpx:TrackPointExtension xmlns:gpxtpx="http://www.garmin.com/xmlschemas/TrackPointExtension/v1">
            <gpxtpx:hr>106</gpxtpx:hr>
          </gpxtpx:TrackPointExtension>
        </extensions>
      </trkpt>
      <trkpt lat="45.76385" lon="6.46211">
        <ele>1032.1999511719</ele>
        <time>2020-07-05T07:07:49.000Z</time>
        <extensions>
          <gpxtpx:TrackPointExtension xmlns:gpxtpx="http://www.garmin.com/xmlschemas/TrackPointExtension/v1">
            <gpxtpx:hr>109</gpxtpx:hr>
          </gpxtpx:TrackPointExtension>
        </extensions>
      </trkpt>
      <trkpt lat="45.76388" lon="6.46222">
        <ele>1031.8000488281</ele>
        <time>2020-07-05T07:07:50.000Z</time>
        <extensions>
          <gpxtpx:TrackPointExtension xmlns:gpxtpx="http://www.garmin.com/xmlschemas/TrackPointExtension/v1">
            <gpxtpx:hr>109</gpxtpx:hr>
          </gpxtpx:TrackPointExtension>
        </extensions>
      </trkpt>
      <trkpt lat="45.76394" lon="6.46246">
        <ele>1029.8000488281</ele>
        <time>2020-07-05T07:07:52.000Z</time>
        <extensions>
          <gpxtpx:TrackPointExtension xmlns:gpxtpx="http://www.garmin.com/xmlschemas/TrackPointExtension/v1">
            <gpxtpx:hr>108</gpxtpx:hr>
          </gpxtpx:TrackPointExtension>
        </extensions>
      </trkpt>
      <trkpt lat="45.76397" lon="6.46259">
        <ele>1028.8000488281</ele>
        <time>2020-07-05T07:07:53.000Z</time>
        <extensions>
          <gpxtpx:TrackPointExtension xmlns:gpxtpx="http://www.garmin.com/xmlschemas/TrackPointExtension/v1">
            <gpxtpx:hr>110</gpxtpx:hr>
          </gpxtpx:TrackPointExtension>
        </extensions>
      </trkpt>
      <trkpt lat="45.76398" lon="6.46272">
        <ele>1028.1999511719</ele>
        <time>2020-07-05T07:07:54.000Z</time>
        <extensions>
          <gpxtpx:TrackPointExtension xmlns:gpxtpx="http://www.garmin.com/xmlschemas/TrackPointExtension/v1">
            <gpxtpx:hr>111</gpxtpx:hr>
          </gpxtpx:TrackPointExtension>
        </extensions>
      </trkpt>
      <trkpt lat="45.76404" lon="6.46297">
        <ele>1027.5999755859</ele>
        <time>2020-07-05T07:07:56.000Z</time>
        <extensions>
          <gpxtpx:TrackPointExtension xmlns:gpxtpx="http://www.garmin.com/xmlschemas/TrackPointExtension/v1">
            <gpxtpx:hr>111</gpxtpx:hr>
          </gpxtpx:TrackPointExtension>
        </extensions>
      </trkpt>
      <trkpt lat="45.76408" lon="6.46308">
        <ele>1027.1999511719</ele>
        <time>2020-07-05T07:07:57.000Z</time>
        <extensions>
          <gpxtpx:TrackPointExtension xmlns:gpxtpx="http://www.garmin.com/xmlschemas/TrackPointExtension/v1">
            <gpxtpx:hr>111</gpxtpx:hr>
          </gpxtpx:TrackPointExtension>
        </extensions>
      </trkpt>
      <trkpt lat="45.76414" lon="6.46318">
        <ele>1026.8000488281</ele>
        <time>2020-07-05T07:07:58.000Z</time>
        <extensions>
          <gpxtpx:TrackPointExtension xmlns:gpxtpx="http://www.garmin.com/xmlschemas/TrackPointExtension/v1">
            <gpxtpx:hr>111</gpxtpx:hr>
          </gpxtpx:TrackPointExtension>
        </extensions>
      </trkpt>
      <trkpt lat="45.76428" lon="6.46336">
        <ele>1025.1999511719</ele>
        <time>2020-07-05T07:08:00.000Z</time>
        <extensions>
          <gpxtpx:TrackPointExtension xmlns:gpxtpx="http://www.garmin.com/xmlschemas/TrackPointExtension/v1">
            <gpxtpx:hr>111</gpxtpx:hr>
          </gpxtpx:TrackPointExtension>
        </extensions>
      </trkpt>
      <trkpt lat="45.76445" lon="6.46356">
        <ele>1023.799987793</ele>
        <time>2020-07-05T07:08:02.000Z</time>
        <extensions>
          <gpxtpx:TrackPointExtension xmlns:gpxtpx="http://www.garmin.com/xmlschemas/TrackPointExtension/v1">
            <gpxtpx:hr>110</gpxtpx:hr>
          </gpxtpx:TrackPointExtension>
        </extensions>
      </trkpt>
      <trkpt lat="45.76453" lon="6.46367">
        <ele>1022.5999755859</ele>
        <time>2020-07-05T07:08:03.000Z</time>
        <extensions>
          <gpxtpx:TrackPointExtension xmlns:gpxtpx="http://www.garmin.com/xmlschemas/TrackPointExtension/v1">
            <gpxtpx:hr>110</gpxtpx:hr>
          </gpxtpx:TrackPointExtension>
        </extensions>
      </trkpt>
      <trkpt lat="45.76461" lon="6.46378">
        <ele>1021</ele>
        <time>2020-07-05T07:08:04.000Z</time>
        <extensions>
          <gpxtpx:TrackPointExtension xmlns:gpxtpx="http://www.garmin.com/xmlschemas/TrackPointExtension/v1">
            <gpxtpx:hr>111</gpxtpx:hr>
          </gpxtpx:TrackPointExtension>
        </extensions>
      </trkpt>
      <trkpt lat="45.76469" lon="6.46389">
        <ele>1019.200012207</ele>
        <time>2020-07-05T07:08:05.000Z</time>
        <extensions>
          <gpxtpx:TrackPointExtension xmlns:gpxtpx="http://www.garmin.com/xmlschemas/TrackPointExtension/v1">
            <gpxtpx:hr>113</gpxtpx:hr>
          </gpxtpx:TrackPointExtension>
        </extensions>
      </trkpt>
      <trkpt lat="45.76476" lon="6.46401">
        <ele>1017.799987793</ele>
        <time>2020-07-05T07:08:06.000Z</time>
        <extensions>
          <gpxtpx:TrackPointExtension xmlns:gpxtpx="http://www.garmin.com/xmlschemas/TrackPointExtension/v1">
            <gpxtpx:hr>114</gpxtpx:hr>
          </gpxtpx:TrackPointExtension>
        </extensions>
      </trkpt>
      <trkpt lat="45.76483" lon="6.46412">
        <ele>1016.5999755859</ele>
        <time>2020-07-05T07:08:07.000Z</time>
        <extensions>
          <gpxtpx:TrackPointExtension xmlns:gpxtpx="http://www.garmin.com/xmlschemas/TrackPointExtension/v1">
            <gpxtpx:hr>115</gpxtpx:hr>
          </gpxtpx:TrackPointExtension>
        </extensions>
      </trkpt>
      <trkpt lat="45.76497" lon="6.46433">
        <ele>1014.799987793</ele>
        <time>2020-07-05T07:08:09.000Z</time>
        <extensions>
          <gpxtpx:TrackPointExtension xmlns:gpxtpx="http://www.garmin.com/xmlschemas/TrackPointExtension/v1">
            <gpxtpx:hr>114</gpxtpx:hr>
          </gpxtpx:TrackPointExtension>
        </extensions>
      </trkpt>
      <trkpt lat="45.76504" lon="6.46443">
        <ele>1014</ele>
        <time>2020-07-05T07:08:10.000Z</time>
        <extensions>
          <gpxtpx:TrackPointExtension xmlns:gpxtpx="http://www.garmin.com/xmlschemas/TrackPointExtension/v1">
            <gpxtpx:hr>113</gpxtpx:hr>
          </gpxtpx:TrackPointExtension>
        </extensions>
      </trkpt>
      <trkpt lat="45.7651" lon="6.46452">
        <ele>1013.4000244141</ele>
        <time>2020-07-05T07:08:11.000Z</time>
        <extensions>
          <gpxtpx:TrackPointExtension xmlns:gpxtpx="http://www.garmin.com/xmlschemas/TrackPointExtension/v1">
            <gpxtpx:hr>113</gpxtpx:hr>
          </gpxtpx:TrackPointExtension>
        </extensions>
      </trkpt>
      <trkpt lat="45.76516" lon="6.46461">
        <ele>1012.5999755859</ele>
        <time>2020-07-05T07:08:12.000Z</time>
        <extensions>
          <gpxtpx:TrackPointExtension xmlns:gpxtpx="http://www.garmin.com/xmlschemas/TrackPointExtension/v1">
            <gpxtpx:hr>113</gpxtpx:hr>
          </gpxtpx:TrackPointExtension>
        </extensions>
      </trkpt>
      <trkpt lat="45.76523" lon="6.46468">
        <ele>1011.799987793</ele>
        <time>2020-07-05T07:08:13.000Z</time>
        <extensions>
          <gpxtpx:TrackPointExtension xmlns:gpxtpx="http://www.garmin.com/xmlschemas/TrackPointExtension/v1">
            <gpxtpx:hr>113</gpxtpx:hr>
          </gpxtpx:TrackPointExtension>
        </extensions>
      </trkpt>
      <trkpt lat="45.7653" lon="6.46475">
        <ele>1011.200012207</ele>
        <time>2020-07-05T07:08:14.000Z</time>
        <extensions>
          <gpxtpx:TrackPointExtension xmlns:gpxtpx="http://www.garmin.com/xmlschemas/TrackPointExtension/v1">
            <gpxtpx:hr>113</gpxtpx:hr>
          </gpxtpx:TrackPointExtension>
        </extensions>
      </trkpt>
      <trkpt lat="45.76538" lon="6.46482">
        <ele>1010.4000244141</ele>
        <time>2020-07-05T07:08:15.000Z</time>
        <extensions>
          <gpxtpx:TrackPointExtension xmlns:gpxtpx="http://www.garmin.com/xmlschemas/TrackPointExtension/v1">
            <gpxtpx:hr>113</gpxtpx:hr>
          </gpxtpx:TrackPointExtension>
        </extensions>
      </trkpt>
      <trkpt lat="45.76546" lon="6.4649">
        <ele>1009.200012207</ele>
        <time>2020-07-05T07:08:16.000Z</time>
        <extensions>
          <gpxtpx:TrackPointExtension xmlns:gpxtpx="http://www.garmin.com/xmlschemas/TrackPointExtension/v1">
            <gpxtpx:hr>112</gpxtpx:hr>
          </gpxtpx:TrackPointExtension>
        </extensions>
      </trkpt>
      <trkpt lat="45.76554" lon="6.46498">
        <ele>1008</ele>
        <time>2020-07-05T07:08:17.000Z</time>
        <extensions>
          <gpxtpx:TrackPointExtension xmlns:gpxtpx="http://www.garmin.com/xmlschemas/TrackPointExtension/v1">
            <gpxtpx:hr>112</gpxtpx:hr>
          </gpxtpx:TrackPointExtension>
        </extensions>
      </trkpt>
      <trkpt lat="45.76561" lon="6.46508">
        <ele>1006.5999755859</ele>
        <time>2020-07-05T07:08:18.000Z</time>
        <extensions>
          <gpxtpx:TrackPointExtension xmlns:gpxtpx="http://www.garmin.com/xmlschemas/TrackPointExtension/v1">
            <gpxtpx:hr>112</gpxtpx:hr>
          </gpxtpx:TrackPointExtension>
        </extensions>
      </trkpt>
      <trkpt lat="45.76567" lon="6.46518">
        <ele>1005</ele>
        <time>2020-07-05T07:08:19.000Z</time>
        <extensions>
          <gpxtpx:TrackPointExtension xmlns:gpxtpx="http://www.garmin.com/xmlschemas/TrackPointExtension/v1">
            <gpxtpx:hr>111</gpxtpx:hr>
          </gpxtpx:TrackPointExtension>
        </extensions>
      </trkpt>
      <trkpt lat="45.76576" lon="6.46537">
        <ele>1003.4000244141</ele>
        <time>2020-07-05T07:08:21.000Z</time>
        <extensions>
          <gpxtpx:TrackPointExtension xmlns:gpxtpx="http://www.garmin.com/xmlschemas/TrackPointExtension/v1">
            <gpxtpx:hr>110</gpxtpx:hr>
          </gpxtpx:TrackPointExtension>
        </extensions>
      </trkpt>
      <trkpt lat="45.7658" lon="6.46551">
        <ele>1002.4000244141</ele>
        <time>2020-07-05T07:08:23.000Z</time>
        <extensions>
          <gpxtpx:TrackPointExtension xmlns:gpxtpx="http://www.garmin.com/xmlschemas/TrackPointExtension/v1">
            <gpxtpx:hr>109</gpxtpx:hr>
          </gpxtpx:TrackPointExtension>
        </extensions>
      </trkpt>
      <trkpt lat="45.76578" lon="6.46555">
        <ele>1002.200012207</ele>
        <time>2020-07-05T07:08:24.000Z</time>
        <extensions>
          <gpxtpx:TrackPointExtension xmlns:gpxtpx="http://www.garmin.com/xmlschemas/TrackPointExtension/v1">
            <gpxtpx:hr>109</gpxtpx:hr>
          </gpxtpx:TrackPointExtension>
        </extensions>
      </trkpt>
      <trkpt lat="45.76565" lon="6.46555">
        <ele>1002</ele>
        <time>2020-07-05T07:08:26.000Z</time>
        <extensions>
          <gpxtpx:TrackPointExtension xmlns:gpxtpx="http://www.garmin.com/xmlschemas/TrackPointExtension/v1">
            <gpxtpx:hr>109</gpxtpx:hr>
          </gpxtpx:TrackPointExtension>
        </extensions>
      </trkpt>
      <trkpt lat="45.7656" lon="6.46551">
        <ele>1001.799987793</ele>
        <time>2020-07-05T07:08:27.000Z</time>
        <extensions>
          <gpxtpx:TrackPointExtension xmlns:gpxtpx="http://www.garmin.com/xmlschemas/TrackPointExtension/v1">
            <gpxtpx:hr>108</gpxtpx:hr>
          </gpxtpx:TrackPointExtension>
        </extensions>
      </trkpt>
      <trkpt lat="45.76555" lon="6.46543">
        <ele>1001.200012207</ele>
        <time>2020-07-05T07:08:28.000Z</time>
        <extensions>
          <gpxtpx:TrackPointExtension xmlns:gpxtpx="http://www.garmin.com/xmlschemas/TrackPointExtension/v1">
            <gpxtpx:hr>108</gpxtpx:hr>
          </gpxtpx:TrackPointExtension>
        </extensions>
      </trkpt>
      <trkpt lat="45.76549" lon="6.46535">
        <ele>1000.200012207</ele>
        <time>2020-07-05T07:08:29.000Z</time>
        <extensions>
          <gpxtpx:TrackPointExtension xmlns:gpxtpx="http://www.garmin.com/xmlschemas/TrackPointExtension/v1">
            <gpxtpx:hr>107</gpxtpx:hr>
          </gpxtpx:TrackPointExtension>
        </extensions>
      </trkpt>
      <trkpt lat="45.76542" lon="6.46526">
        <ele>999.40002441406</ele>
        <time>2020-07-05T07:08:30.000Z</time>
        <extensions>
          <gpxtpx:TrackPointExtension xmlns:gpxtpx="http://www.garmin.com/xmlschemas/TrackPointExtension/v1">
            <gpxtpx:hr>107</gpxtpx:hr>
          </gpxtpx:TrackPointExtension>
        </extensions>
      </trkpt>
      <trkpt lat="45.76535" lon="6.46517">
        <ele>998.59997558594</ele>
        <time>2020-07-05T07:08:31.000Z</time>
        <extensions>
          <gpxtpx:TrackPointExtension xmlns:gpxtpx="http://www.garmin.com/xmlschemas/TrackPointExtension/v1">
            <gpxtpx:hr>106</gpxtpx:hr>
          </gpxtpx:TrackPointExtension>
        </extensions>
      </trkpt>
      <trkpt lat="45.76529" lon="6.46508">
        <ele>997.59997558594</ele>
        <time>2020-07-05T07:08:32.000Z</time>
        <extensions>
          <gpxtpx:TrackPointExtension xmlns:gpxtpx="http://www.garmin.com/xmlschemas/TrackPointExtension/v1">
            <gpxtpx:hr>106</gpxtpx:hr>
          </gpxtpx:TrackPointExtension>
        </extensions>
      </trkpt>
      <trkpt lat="45.76524" lon="6.465">
        <ele>996.59997558594</ele>
        <time>2020-07-05T07:08:33.000Z</time>
        <extensions>
          <gpxtpx:TrackPointExtension xmlns:gpxtpx="http://www.garmin.com/xmlschemas/TrackPointExtension/v1">
            <gpxtpx:hr>106</gpxtpx:hr>
          </gpxtpx:TrackPointExtension>
        </extensions>
      </trkpt>
      <trkpt lat="45.76514" lon="6.46487">
        <ele>995</ele>
        <time>2020-07-05T07:08:35.000Z</time>
        <extensions>
          <gpxtpx:TrackPointExtension xmlns:gpxtpx="http://www.garmin.com/xmlschemas/TrackPointExtension/v1">
            <gpxtpx:hr>105</gpxtpx:hr>
          </gpxtpx:TrackPointExtension>
        </extensions>
      </trkpt>
      <trkpt lat="45.76503" lon="6.46487">
        <ele>994</ele>
        <time>2020-07-05T07:08:37.000Z</time>
        <extensions>
          <gpxtpx:TrackPointExtension xmlns:gpxtpx="http://www.garmin.com/xmlschemas/TrackPointExtension/v1">
            <gpxtpx:hr>106</gpxtpx:hr>
          </gpxtpx:TrackPointExtension>
        </extensions>
      </trkpt>
      <trkpt lat="45.76499" lon="6.46491">
        <ele>993.79998779297</ele>
        <time>2020-07-05T07:08:38.000Z</time>
        <extensions>
          <gpxtpx:TrackPointExtension xmlns:gpxtpx="http://www.garmin.com/xmlschemas/TrackPointExtension/v1">
            <gpxtpx:hr>108</gpxtpx:hr>
          </gpxtpx:TrackPointExtension>
        </extensions>
      </trkpt>
      <trkpt lat="45.76498" lon="6.46496">
        <ele>993.40002441406</ele>
        <time>2020-07-05T07:08:39.000Z</time>
        <extensions>
          <gpxtpx:TrackPointExtension xmlns:gpxtpx="http://www.garmin.com/xmlschemas/TrackPointExtension/v1">
            <gpxtpx:hr>110</gpxtpx:hr>
          </gpxtpx:TrackPointExtension>
        </extensions>
      </trkpt>
      <trkpt lat="45.76502" lon="6.46501">
        <ele>993</ele>
        <time>2020-07-05T07:08:40.000Z</time>
        <extensions>
          <gpxtpx:TrackPointExtension xmlns:gpxtpx="http://www.garmin.com/xmlschemas/TrackPointExtension/v1">
            <gpxtpx:hr>112</gpxtpx:hr>
          </gpxtpx:TrackPointExtension>
        </extensions>
      </trkpt>
      <trkpt lat="45.76505" lon="6.46511">
        <ele>992.79998779297</ele>
        <time>2020-07-05T07:08:41.000Z</time>
        <extensions>
          <gpxtpx:TrackPointExtension xmlns:gpxtpx="http://www.garmin.com/xmlschemas/TrackPointExtension/v1">
            <gpxtpx:hr>113</gpxtpx:hr>
          </gpxtpx:TrackPointExtension>
        </extensions>
      </trkpt>
      <trkpt lat="45.7651" lon="6.46528">
        <ele>992</ele>
        <time>2020-07-05T07:08:43.000Z</time>
        <extensions>
          <gpxtpx:TrackPointExtension xmlns:gpxtpx="http://www.garmin.com/xmlschemas/TrackPointExtension/v1">
            <gpxtpx:hr>116</gpxtpx:hr>
          </gpxtpx:TrackPointExtension>
        </extensions>
      </trkpt>
      <trkpt lat="45.76512" lon="6.46536">
        <ele>991.59997558594</ele>
        <time>2020-07-05T07:08:44.000Z</time>
        <extensions>
          <gpxtpx:TrackPointExtension xmlns:gpxtpx="http://www.garmin.com/xmlschemas/TrackPointExtension/v1">
            <gpxtpx:hr>117</gpxtpx:hr>
          </gpxtpx:TrackPointExtension>
        </extensions>
      </trkpt>
      <trkpt lat="45.76513" lon="6.46546">
        <ele>991.20001220703</ele>
        <time>2020-07-05T07:08:45.000Z</time>
        <extensions>
          <gpxtpx:TrackPointExtension xmlns:gpxtpx="http://www.garmin.com/xmlschemas/TrackPointExtension/v1">
            <gpxtpx:hr>117</gpxtpx:hr>
          </gpxtpx:TrackPointExtension>
        </extensions>
      </trkpt>
      <trkpt lat="45.76512" lon="6.46557">
        <ele>990.40002441406</ele>
        <time>2020-07-05T07:08:46.000Z</time>
        <extensions>
          <gpxtpx:TrackPointExtension xmlns:gpxtpx="http://www.garmin.com/xmlschemas/TrackPointExtension/v1">
            <gpxtpx:hr>117</gpxtpx:hr>
          </gpxtpx:TrackPointExtension>
        </extensions>
      </trkpt>
      <trkpt lat="45.76514" lon="6.4657">
        <ele>989.79998779297</ele>
        <time>2020-07-05T07:08:47.000Z</time>
        <extensions>
          <gpxtpx:TrackPointExtension xmlns:gpxtpx="http://www.garmin.com/xmlschemas/TrackPointExtension/v1">
            <gpxtpx:hr>117</gpxtpx:hr>
          </gpxtpx:TrackPointExtension>
        </extensions>
      </trkpt>
      <trkpt lat="45.76515" lon="6.46582">
        <ele>989</ele>
        <time>2020-07-05T07:08:48.000Z</time>
        <extensions>
          <gpxtpx:TrackPointExtension xmlns:gpxtpx="http://www.garmin.com/xmlschemas/TrackPointExtension/v1">
            <gpxtpx:hr>118</gpxtpx:hr>
          </gpxtpx:TrackPointExtension>
        </extensions>
      </trkpt>
      <trkpt lat="45.76514" lon="6.46598">
        <ele>988</ele>
        <time>2020-07-05T07:08:49.000Z</time>
        <extensions>
          <gpxtpx:TrackPointExtension xmlns:gpxtpx="http://www.garmin.com/xmlschemas/TrackPointExtension/v1">
            <gpxtpx:hr>118</gpxtpx:hr>
          </gpxtpx:TrackPointExtension>
        </extensions>
      </trkpt>
      <trkpt lat="45.76515" lon="6.46603">
        <ele>986.40002441406</ele>
        <time>2020-07-05T07:08:50.000Z</time>
        <extensions>
          <gpxtpx:TrackPointExtension xmlns:gpxtpx="http://www.garmin.com/xmlschemas/TrackPointExtension/v1">
            <gpxtpx:hr>118</gpxtpx:hr>
          </gpxtpx:TrackPointExtension>
        </extensions>
      </trkpt>
      <trkpt lat="45.76516" lon="6.46615">
        <ele>985</ele>
        <time>2020-07-05T07:08:51.000Z</time>
        <extensions>
          <gpxtpx:TrackPointExtension xmlns:gpxtpx="http://www.garmin.com/xmlschemas/TrackPointExtension/v1">
            <gpxtpx:hr>118</gpxtpx:hr>
          </gpxtpx:TrackPointExtension>
        </extensions>
      </trkpt>
      <trkpt lat="45.76519" lon="6.46626">
        <ele>983.79998779297</ele>
        <time>2020-07-05T07:08:52.000Z</time>
        <extensions>
          <gpxtpx:TrackPointExtension xmlns:gpxtpx="http://www.garmin.com/xmlschemas/TrackPointExtension/v1">
            <gpxtpx:hr>118</gpxtpx:hr>
          </gpxtpx:TrackPointExtension>
        </extensions>
      </trkpt>
      <trkpt lat="45.76528" lon="6.46637">
        <ele>982.20001220703</ele>
        <time>2020-07-05T07:08:54.000Z</time>
        <extensions>
          <gpxtpx:TrackPointExtension xmlns:gpxtpx="http://www.garmin.com/xmlschemas/TrackPointExtension/v1">
            <gpxtpx:hr>120</gpxtpx:hr>
          </gpxtpx:TrackPointExtension>
        </extensions>
      </trkpt>
      <trkpt lat="45.76544" lon="6.4665">
        <ele>980.40002441406</ele>
        <time>2020-07-05T07:08:56.000Z</time>
        <extensions>
          <gpxtpx:TrackPointExtension xmlns:gpxtpx="http://www.garmin.com/xmlschemas/TrackPointExtension/v1">
            <gpxtpx:hr>120</gpxtpx:hr>
          </gpxtpx:TrackPointExtension>
        </extensions>
      </trkpt>
      <trkpt lat="45.76558" lon="6.46674">
        <ele>978.79998779297</ele>
        <time>2020-07-05T07:08:58.000Z</time>
        <extensions>
          <gpxtpx:TrackPointExtension xmlns:gpxtpx="http://www.garmin.com/xmlschemas/TrackPointExtension/v1">
            <gpxtpx:hr>120</gpxtpx:hr>
          </gpxtpx:TrackPointExtension>
        </extensions>
      </trkpt>
      <trkpt lat="45.76566" lon="6.46684">
        <ele>977.79998779297</ele>
        <time>2020-07-05T07:08:59.000Z</time>
        <extensions>
          <gpxtpx:TrackPointExtension xmlns:gpxtpx="http://www.garmin.com/xmlschemas/TrackPointExtension/v1">
            <gpxtpx:hr>120</gpxtpx:hr>
          </gpxtpx:TrackPointExtension>
        </extensions>
      </trkpt>
      <trkpt lat="45.76575" lon="6.46696">
        <ele>976.59997558594</ele>
        <time>2020-07-05T07:09:00.000Z</time>
        <extensions>
          <gpxtpx:TrackPointExtension xmlns:gpxtpx="http://www.garmin.com/xmlschemas/TrackPointExtension/v1">
            <gpxtpx:hr>120</gpxtpx:hr>
          </gpxtpx:TrackPointExtension>
        </extensions>
      </trkpt>
      <trkpt lat="45.76582" lon="6.46708">
        <ele>975.59997558594</ele>
        <time>2020-07-05T07:09:01.000Z</time>
        <extensions>
          <gpxtpx:TrackPointExtension xmlns:gpxtpx="http://www.garmin.com/xmlschemas/TrackPointExtension/v1">
            <gpxtpx:hr>120</gpxtpx:hr>
          </gpxtpx:TrackPointExtension>
        </extensions>
      </trkpt>
      <trkpt lat="45.76589" lon="6.46721">
        <ele>974.40002441406</ele>
        <time>2020-07-05T07:09:02.000Z</time>
        <extensions>
          <gpxtpx:TrackPointExtension xmlns:gpxtpx="http://www.garmin.com/xmlschemas/TrackPointExtension/v1">
            <gpxtpx:hr>120</gpxtpx:hr>
          </gpxtpx:TrackPointExtension>
        </extensions>
      </trkpt>
      <trkpt lat="45.76595" lon="6.46734">
        <ele>973.40002441406</ele>
        <time>2020-07-05T07:09:03.000Z</time>
        <extensions>
          <gpxtpx:TrackPointExtension xmlns:gpxtpx="http://www.garmin.com/xmlschemas/TrackPointExtension/v1">
            <gpxtpx:hr>119</gpxtpx:hr>
          </gpxtpx:TrackPointExtension>
        </extensions>
      </trkpt>
      <trkpt lat="45.76601" lon="6.46747">
        <ele>972</ele>
        <time>2020-07-05T07:09:04.000Z</time>
        <extensions>
          <gpxtpx:TrackPointExtension xmlns:gpxtpx="http://www.garmin.com/xmlschemas/TrackPointExtension/v1">
            <gpxtpx:hr>119</gpxtpx:hr>
          </gpxtpx:TrackPointExtension>
        </extensions>
      </trkpt>
      <trkpt lat="45.76606" lon="6.46757">
        <ele>970.59997558594</ele>
        <time>2020-07-05T07:09:05.000Z</time>
        <extensions>
          <gpxtpx:TrackPointExtension xmlns:gpxtpx="http://www.garmin.com/xmlschemas/TrackPointExtension/v1">
            <gpxtpx:hr>119</gpxtpx:hr>
          </gpxtpx:TrackPointExtension>
        </extensions>
      </trkpt>
      <trkpt lat="45.76613" lon="6.46765">
        <ele>969.79998779297</ele>
        <time>2020-07-05T07:09:06.000Z</time>
        <extensions>
          <gpxtpx:TrackPointExtension xmlns:gpxtpx="http://www.garmin.com/xmlschemas/TrackPointExtension/v1">
            <gpxtpx:hr>119</gpxtpx:hr>
          </gpxtpx:TrackPointExtension>
        </extensions>
      </trkpt>
      <trkpt lat="45.76621" lon="6.46773">
        <ele>969</ele>
        <time>2020-07-05T07:09:07.000Z</time>
        <extensions>
          <gpxtpx:TrackPointExtension xmlns:gpxtpx="http://www.garmin.com/xmlschemas/TrackPointExtension/v1">
            <gpxtpx:hr>118</gpxtpx:hr>
          </gpxtpx:TrackPointExtension>
        </extensions>
      </trkpt>
      <trkpt lat="45.7663" lon="6.46781">
        <ele>968</ele>
        <time>2020-07-05T07:09:08.000Z</time>
        <extensions>
          <gpxtpx:TrackPointExtension xmlns:gpxtpx="http://www.garmin.com/xmlschemas/TrackPointExtension/v1">
            <gpxtpx:hr>118</gpxtpx:hr>
          </gpxtpx:TrackPointExtension>
        </extensions>
      </trkpt>
      <trkpt lat="45.76639" lon="6.4679">
        <ele>967</ele>
        <time>2020-07-05T07:09:09.000Z</time>
        <extensions>
          <gpxtpx:TrackPointExtension xmlns:gpxtpx="http://www.garmin.com/xmlschemas/TrackPointExtension/v1">
            <gpxtpx:hr>118</gpxtpx:hr>
          </gpxtpx:TrackPointExtension>
        </extensions>
      </trkpt>
      <trkpt lat="45.76648" lon="6.46799">
        <ele>965.79998779297</ele>
        <time>2020-07-05T07:09:10.000Z</time>
        <extensions>
          <gpxtpx:TrackPointExtension xmlns:gpxtpx="http://www.garmin.com/xmlschemas/TrackPointExtension/v1">
            <gpxtpx:hr>118</gpxtpx:hr>
          </gpxtpx:TrackPointExtension>
        </extensions>
      </trkpt>
      <trkpt lat="45.76657" lon="6.46808">
        <ele>964.59997558594</ele>
        <time>2020-07-05T07:09:11.000Z</time>
        <extensions>
          <gpxtpx:TrackPointExtension xmlns:gpxtpx="http://www.garmin.com/xmlschemas/TrackPointExtension/v1">
            <gpxtpx:hr>117</gpxtpx:hr>
          </gpxtpx:TrackPointExtension>
        </extensions>
      </trkpt>
      <trkpt lat="45.76666" lon="6.46816">
        <ele>963.20001220703</ele>
        <time>2020-07-05T07:09:12.000Z</time>
        <extensions>
          <gpxtpx:TrackPointExtension xmlns:gpxtpx="http://www.garmin.com/xmlschemas/TrackPointExtension/v1">
            <gpxtpx:hr>117</gpxtpx:hr>
          </gpxtpx:TrackPointExtension>
        </extensions>
      </trkpt>
      <trkpt lat="45.76675" lon="6.46824">
        <ele>961.79998779297</ele>
        <time>2020-07-05T07:09:13.000Z</time>
        <extensions>
          <gpxtpx:TrackPointExtension xmlns:gpxtpx="http://www.garmin.com/xmlschemas/TrackPointExtension/v1">
            <gpxtpx:hr>116</gpxtpx:hr>
          </gpxtpx:TrackPointExtension>
        </extensions>
      </trkpt>
      <trkpt lat="45.76682" lon="6.46831">
        <ele>960.40002441406</ele>
        <time>2020-07-05T07:09:14.000Z</time>
        <extensions>
          <gpxtpx:TrackPointExtension xmlns:gpxtpx="http://www.garmin.com/xmlschemas/TrackPointExtension/v1">
            <gpxtpx:hr>117</gpxtpx:hr>
          </gpxtpx:TrackPointExtension>
        </extensions>
      </trkpt>
      <trkpt lat="45.76689" lon="6.46839">
        <ele>959.20001220703</ele>
        <time>2020-07-05T07:09:15.000Z</time>
        <extensions>
          <gpxtpx:TrackPointExtension xmlns:gpxtpx="http://www.garmin.com/xmlschemas/TrackPointExtension/v1">
            <gpxtpx:hr>117</gpxtpx:hr>
          </gpxtpx:TrackPointExtension>
        </extensions>
      </trkpt>
      <trkpt lat="45.76695" lon="6.46846">
        <ele>958.59997558594</ele>
        <time>2020-07-05T07:09:16.000Z</time>
        <extensions>
          <gpxtpx:TrackPointExtension xmlns:gpxtpx="http://www.garmin.com/xmlschemas/TrackPointExtension/v1">
            <gpxtpx:hr>117</gpxtpx:hr>
          </gpxtpx:TrackPointExtension>
        </extensions>
      </trkpt>
      <trkpt lat="45.76701" lon="6.46853">
        <ele>958</ele>
        <time>2020-07-05T07:09:17.000Z</time>
        <extensions>
          <gpxtpx:TrackPointExtension xmlns:gpxtpx="http://www.garmin.com/xmlschemas/TrackPointExtension/v1">
            <gpxtpx:hr>117</gpxtpx:hr>
          </gpxtpx:TrackPointExtension>
        </extensions>
      </trkpt>
      <trkpt lat="45.76707" lon="6.4686">
        <ele>957.40002441406</ele>
        <time>2020-07-05T07:09:18.000Z</time>
        <extensions>
          <gpxtpx:TrackPointExtension xmlns:gpxtpx="http://www.garmin.com/xmlschemas/TrackPointExtension/v1">
            <gpxtpx:hr>117</gpxtpx:hr>
          </gpxtpx:TrackPointExtension>
        </extensions>
      </trkpt>
      <trkpt lat="45.76711" lon="6.4687">
        <ele>956.40002441406</ele>
        <time>2020-07-05T07:09:19.000Z</time>
        <extensions>
          <gpxtpx:TrackPointExtension xmlns:gpxtpx="http://www.garmin.com/xmlschemas/TrackPointExtension/v1">
            <gpxtpx:hr>117</gpxtpx:hr>
          </gpxtpx:TrackPointExtension>
        </extensions>
      </trkpt>
      <trkpt lat="45.76714" lon="6.4688">
        <ele>955.40002441406</ele>
        <time>2020-07-05T07:09:20.000Z</time>
        <extensions>
          <gpxtpx:TrackPointExtension xmlns:gpxtpx="http://www.garmin.com/xmlschemas/TrackPointExtension/v1">
            <gpxtpx:hr>116</gpxtpx:hr>
          </gpxtpx:TrackPointExtension>
        </extensions>
      </trkpt>
      <trkpt lat="45.76717" lon="6.46892">
        <ele>954.79998779297</ele>
        <time>2020-07-05T07:09:21.000Z</time>
        <extensions>
          <gpxtpx:TrackPointExtension xmlns:gpxtpx="http://www.garmin.com/xmlschemas/TrackPointExtension/v1">
            <gpxtpx:hr>116</gpxtpx:hr>
          </gpxtpx:TrackPointExtension>
        </extensions>
      </trkpt>
      <trkpt lat="45.76724" lon="6.46914">
        <ele>953.40002441406</ele>
        <time>2020-07-05T07:09:23.000Z</time>
        <extensions>
          <gpxtpx:TrackPointExtension xmlns:gpxtpx="http://www.garmin.com/xmlschemas/TrackPointExtension/v1">
            <gpxtpx:hr>119</gpxtpx:hr>
          </gpxtpx:TrackPointExtension>
        </extensions>
      </trkpt>
      <trkpt lat="45.76728" lon="6.46925">
        <ele>952.79998779297</ele>
        <time>2020-07-05T07:09:24.000Z</time>
        <extensions>
          <gpxtpx:TrackPointExtension xmlns:gpxtpx="http://www.garmin.com/xmlschemas/TrackPointExtension/v1">
            <gpxtpx:hr>120</gpxtpx:hr>
          </gpxtpx:TrackPointExtension>
        </extensions>
      </trkpt>
      <trkpt lat="45.7673" lon="6.46936">
        <ele>951.79998779297</ele>
        <time>2020-07-05T07:09:25.000Z</time>
        <extensions>
          <gpxtpx:TrackPointExtension xmlns:gpxtpx="http://www.garmin.com/xmlschemas/TrackPointExtension/v1">
            <gpxtpx:hr>120</gpxtpx:hr>
          </gpxtpx:TrackPointExtension>
        </extensions>
      </trkpt>
      <trkpt lat="45.76733" lon="6.46947">
        <ele>951</ele>
        <time>2020-07-05T07:09:26.000Z</time>
        <extensions>
          <gpxtpx:TrackPointExtension xmlns:gpxtpx="http://www.garmin.com/xmlschemas/TrackPointExtension/v1">
            <gpxtpx:hr>122</gpxtpx:hr>
          </gpxtpx:TrackPointExtension>
        </extensions>
      </trkpt>
      <trkpt lat="45.76736" lon="6.46958">
        <ele>950.20001220703</ele>
        <time>2020-07-05T07:09:27.000Z</time>
        <extensions>
          <gpxtpx:TrackPointExtension xmlns:gpxtpx="http://www.garmin.com/xmlschemas/TrackPointExtension/v1">
            <gpxtpx:hr>122</gpxtpx:hr>
          </gpxtpx:TrackPointExtension>
        </extensions>
      </trkpt>
      <trkpt lat="45.76739" lon="6.46968">
        <ele>949.59997558594</ele>
        <time>2020-07-05T07:09:28.000Z</time>
        <extensions>
          <gpxtpx:TrackPointExtension xmlns:gpxtpx="http://www.garmin.com/xmlschemas/TrackPointExtension/v1">
            <gpxtpx:hr>122</gpxtpx:hr>
          </gpxtpx:TrackPointExtension>
        </extensions>
      </trkpt>
      <trkpt lat="45.76744" lon="6.46978">
        <ele>948.79998779297</ele>
        <time>2020-07-05T07:09:29.000Z</time>
        <extensions>
          <gpxtpx:TrackPointExtension xmlns:gpxtpx="http://www.garmin.com/xmlschemas/TrackPointExtension/v1">
            <gpxtpx:hr>121</gpxtpx:hr>
          </gpxtpx:TrackPointExtension>
        </extensions>
      </trkpt>
      <trkpt lat="45.76752" lon="6.46999">
        <ele>947.20001220703</ele>
        <time>2020-07-05T07:09:31.000Z</time>
        <extensions>
          <gpxtpx:TrackPointExtension xmlns:gpxtpx="http://www.garmin.com/xmlschemas/TrackPointExtension/v1">
            <gpxtpx:hr>120</gpxtpx:hr>
          </gpxtpx:TrackPointExtension>
        </extensions>
      </trkpt>
      <trkpt lat="45.76757" lon="6.47009">
        <ele>946.20001220703</ele>
        <time>2020-07-05T07:09:32.000Z</time>
        <extensions>
          <gpxtpx:TrackPointExtension xmlns:gpxtpx="http://www.garmin.com/xmlschemas/TrackPointExtension/v1">
            <gpxtpx:hr>119</gpxtpx:hr>
          </gpxtpx:TrackPointExtension>
        </extensions>
      </trkpt>
      <trkpt lat="45.76763" lon="6.47018">
        <ele>945.20001220703</ele>
        <time>2020-07-05T07:09:33.000Z</time>
        <extensions>
          <gpxtpx:TrackPointExtension xmlns:gpxtpx="http://www.garmin.com/xmlschemas/TrackPointExtension/v1">
            <gpxtpx:hr>119</gpxtpx:hr>
          </gpxtpx:TrackPointExtension>
        </extensions>
      </trkpt>
      <trkpt lat="45.76769" lon="6.47026">
        <ele>944.20001220703</ele>
        <time>2020-07-05T07:09:34.000Z</time>
        <extensions>
          <gpxtpx:TrackPointExtension xmlns:gpxtpx="http://www.garmin.com/xmlschemas/TrackPointExtension/v1">
            <gpxtpx:hr>119</gpxtpx:hr>
          </gpxtpx:TrackPointExtension>
        </extensions>
      </trkpt>
      <trkpt lat="45.76775" lon="6.47035">
        <ele>943.20001220703</ele>
        <time>2020-07-05T07:09:35.000Z</time>
        <extensions>
          <gpxtpx:TrackPointExtension xmlns:gpxtpx="http://www.garmin.com/xmlschemas/TrackPointExtension/v1">
            <gpxtpx:hr>118</gpxtpx:hr>
          </gpxtpx:TrackPointExtension>
        </extensions>
      </trkpt>
      <trkpt lat="45.7678" lon="6.47044">
        <ele>942</ele>
        <time>2020-07-05T07:09:36.000Z</time>
        <extensions>
          <gpxtpx:TrackPointExtension xmlns:gpxtpx="http://www.garmin.com/xmlschemas/TrackPointExtension/v1">
            <gpxtpx:hr>118</gpxtpx:hr>
          </gpxtpx:TrackPointExtension>
        </extensions>
      </trkpt>
      <trkpt lat="45.76784" lon="6.47052">
        <ele>941.20001220703</ele>
        <time>2020-07-05T07:09:37.000Z</time>
        <extensions>
          <gpxtpx:TrackPointExtension xmlns:gpxtpx="http://www.garmin.com/xmlschemas/TrackPointExtension/v1">
            <gpxtpx:hr>117</gpxtpx:hr>
          </gpxtpx:TrackPointExtension>
        </extensions>
      </trkpt>
      <trkpt lat="45.76788" lon="6.4706">
        <ele>940.59997558594</ele>
        <time>2020-07-05T07:09:38.000Z</time>
        <extensions>
          <gpxtpx:TrackPointExtension xmlns:gpxtpx="http://www.garmin.com/xmlschemas/TrackPointExtension/v1">
            <gpxtpx:hr>118</gpxtpx:hr>
          </gpxtpx:TrackPointExtension>
        </extensions>
      </trkpt>
      <trkpt lat="45.76795" lon="6.47078">
        <ele>939.59997558594</ele>
        <time>2020-07-05T07:09:40.000Z</time>
        <extensions>
          <gpxtpx:TrackPointExtension xmlns:gpxtpx="http://www.garmin.com/xmlschemas/TrackPointExtension/v1">
            <gpxtpx:hr>118</gpxtpx:hr>
          </gpxtpx:TrackPointExtension>
        </extensions>
      </trkpt>
      <trkpt lat="45.76799" lon="6.47085">
        <ele>938.79998779297</ele>
        <time>2020-07-05T07:09:41.000Z</time>
        <extensions>
          <gpxtpx:TrackPointExtension xmlns:gpxtpx="http://www.garmin.com/xmlschemas/TrackPointExtension/v1">
            <gpxtpx:hr>119</gpxtpx:hr>
          </gpxtpx:TrackPointExtension>
        </extensions>
      </trkpt>
      <trkpt lat="45.76803" lon="6.47091">
        <ele>938.20001220703</ele>
        <time>2020-07-05T07:09:42.000Z</time>
        <extensions>
          <gpxtpx:TrackPointExtension xmlns:gpxtpx="http://www.garmin.com/xmlschemas/TrackPointExtension/v1">
            <gpxtpx:hr>118</gpxtpx:hr>
          </gpxtpx:TrackPointExtension>
        </extensions>
      </trkpt>
      <trkpt lat="45.7681" lon="6.471">
        <ele>936.79998779297</ele>
        <time>2020-07-05T07:09:44.000Z</time>
        <extensions>
          <gpxtpx:TrackPointExtension xmlns:gpxtpx="http://www.garmin.com/xmlschemas/TrackPointExtension/v1">
            <gpxtpx:hr>117</gpxtpx:hr>
          </gpxtpx:TrackPointExtension>
        </extensions>
      </trkpt>
      <trkpt lat="45.76814" lon="6.47102">
        <ele>936.40002441406</ele>
        <time>2020-07-05T07:09:45.000Z</time>
        <extensions>
          <gpxtpx:TrackPointExtension xmlns:gpxtpx="http://www.garmin.com/xmlschemas/TrackPointExtension/v1">
            <gpxtpx:hr>117</gpxtpx:hr>
          </gpxtpx:TrackPointExtension>
        </extensions>
      </trkpt>
      <trkpt lat="45.76817" lon="6.47105">
        <ele>936</ele>
        <time>2020-07-05T07:09:46.000Z</time>
        <extensions>
          <gpxtpx:TrackPointExtension xmlns:gpxtpx="http://www.garmin.com/xmlschemas/TrackPointExtension/v1">
            <gpxtpx:hr>117</gpxtpx:hr>
          </gpxtpx:TrackPointExtension>
        </extensions>
      </trkpt>
      <trkpt lat="45.76822" lon="6.47107">
        <ele>935.79998779297</ele>
        <time>2020-07-05T07:09:47.000Z</time>
        <extensions>
          <gpxtpx:TrackPointExtension xmlns:gpxtpx="http://www.garmin.com/xmlschemas/TrackPointExtension/v1">
            <gpxtpx:hr>116</gpxtpx:hr>
          </gpxtpx:TrackPointExtension>
        </extensions>
      </trkpt>
      <trkpt lat="45.7683" lon="6.47113">
        <ele>935</ele>
        <time>2020-07-05T07:09:49.000Z</time>
        <extensions>
          <gpxtpx:TrackPointExtension xmlns:gpxtpx="http://www.garmin.com/xmlschemas/TrackPointExtension/v1">
            <gpxtpx:hr>115</gpxtpx:hr>
          </gpxtpx:TrackPointExtension>
        </extensions>
      </trkpt>
      <trkpt lat="45.76834" lon="6.47116">
        <ele>934.20001220703</ele>
        <time>2020-07-05T07:09:50.000Z</time>
        <extensions>
          <gpxtpx:TrackPointExtension xmlns:gpxtpx="http://www.garmin.com/xmlschemas/TrackPointExtension/v1">
            <gpxtpx:hr>114</gpxtpx:hr>
          </gpxtpx:TrackPointExtension>
        </extensions>
      </trkpt>
      <trkpt lat="45.76839" lon="6.47119">
        <ele>933</ele>
        <time>2020-07-05T07:09:52.000Z</time>
        <extensions>
          <gpxtpx:TrackPointExtension xmlns:gpxtpx="http://www.garmin.com/xmlschemas/TrackPointExtension/v1">
            <gpxtpx:hr>113</gpxtpx:hr>
          </gpxtpx:TrackPointExtension>
        </extensions>
      </trkpt>
      <trkpt lat="45.76839" lon="6.47121">
        <ele>932.59997558594</ele>
        <time>2020-07-05T07:09:53.000Z</time>
        <extensions>
          <gpxtpx:TrackPointExtension xmlns:gpxtpx="http://www.garmin.com/xmlschemas/TrackPointExtension/v1">
            <gpxtpx:hr>113</gpxtpx:hr>
          </gpxtpx:TrackPointExtension>
        </extensions>
      </trkpt>
      <trkpt lat="45.76838" lon="6.47124">
        <ele>932.40002441406</ele>
        <time>2020-07-05T07:09:54.000Z</time>
        <extensions>
          <gpxtpx:TrackPointExtension xmlns:gpxtpx="http://www.garmin.com/xmlschemas/TrackPointExtension/v1">
            <gpxtpx:hr>113</gpxtpx:hr>
          </gpxtpx:TrackPointExtension>
        </extensions>
      </trkpt>
      <trkpt lat="45.76838" lon="6.47124">
        <ele>932.20001220703</ele>
        <time>2020-07-05T07:09:57.000Z</time>
        <extensions>
          <gpxtpx:TrackPointExtension xmlns:gpxtpx="http://www.garmin.com/xmlschemas/TrackPointExtension/v1">
            <gpxtpx:hr>111</gpxtpx:hr>
          </gpxtpx:TrackPointExtension>
        </extensions>
      </trkpt>
      <trkpt lat="45.76838" lon="6.47124">
        <ele>932.20001220703</ele>
        <time>2020-07-05T07:10:17.000Z</time>
        <extensions>
          <gpxtpx:TrackPointExtension xmlns:gpxtpx="http://www.garmin.com/xmlschemas/TrackPointExtension/v1">
            <gpxtpx:hr>114</gpxtpx:hr>
          </gpxtpx:TrackPointExtension>
        </extensions>
      </trkpt>
      <trkpt lat="45.76839" lon="6.47125">
        <ele>932.20001220703</ele>
        <time>2020-07-05T07:10:20.000Z</time>
        <extensions>
          <gpxtpx:TrackPointExtension xmlns:gpxtpx="http://www.garmin.com/xmlschemas/TrackPointExtension/v1">
            <gpxtpx:hr>116</gpxtpx:hr>
          </gpxtpx:TrackPointExtension>
        </extensions>
      </trkpt>
      <trkpt lat="45.76841" lon="6.4713">
        <ele>932.20001220703</ele>
        <time>2020-07-05T07:10:22.000Z</time>
        <extensions>
          <gpxtpx:TrackPointExtension xmlns:gpxtpx="http://www.garmin.com/xmlschemas/TrackPointExtension/v1">
            <gpxtpx:hr>116</gpxtpx:hr>
          </gpxtpx:TrackPointExtension>
        </extensions>
      </trkpt>
      <trkpt lat="45.76855" lon="6.47138">
        <ele>932</ele>
        <time>2020-07-05T07:10:26.000Z</time>
        <extensions>
          <gpxtpx:TrackPointExtension xmlns:gpxtpx="http://www.garmin.com/xmlschemas/TrackPointExtension/v1">
            <gpxtpx:hr>116</gpxtpx:hr>
          </gpxtpx:TrackPointExtension>
        </extensions>
      </trkpt>
      <trkpt lat="45.7687" lon="6.47149">
        <ele>932.59997558594</ele>
        <time>2020-07-05T07:10:30.000Z</time>
        <extensions>
          <gpxtpx:TrackPointExtension xmlns:gpxtpx="http://www.garmin.com/xmlschemas/TrackPointExtension/v1">
            <gpxtpx:hr>119</gpxtpx:hr>
          </gpxtpx:TrackPointExtension>
        </extensions>
      </trkpt>
      <trkpt lat="45.76873" lon="6.47151">
        <ele>932.79998779297</ele>
        <time>2020-07-05T07:10:31.000Z</time>
        <extensions>
          <gpxtpx:TrackPointExtension xmlns:gpxtpx="http://www.garmin.com/xmlschemas/TrackPointExtension/v1">
            <gpxtpx:hr>119</gpxtpx:hr>
          </gpxtpx:TrackPointExtension>
        </extensions>
      </trkpt>
      <trkpt lat="45.76878" lon="6.47153">
        <ele>933</ele>
        <time>2020-07-05T07:10:32.000Z</time>
        <extensions>
          <gpxtpx:TrackPointExtension xmlns:gpxtpx="http://www.garmin.com/xmlschemas/TrackPointExtension/v1">
            <gpxtpx:hr>121</gpxtpx:hr>
          </gpxtpx:TrackPointExtension>
        </extensions>
      </trkpt>
      <trkpt lat="45.76896" lon="6.47164">
        <ele>933.79998779297</ele>
        <time>2020-07-05T07:10:37.000Z</time>
        <extensions>
          <gpxtpx:TrackPointExtension xmlns:gpxtpx="http://www.garmin.com/xmlschemas/TrackPointExtension/v1">
            <gpxtpx:hr>124</gpxtpx:hr>
          </gpxtpx:TrackPointExtension>
        </extensions>
      </trkpt>
      <trkpt lat="45.769" lon="6.47166">
        <ele>934</ele>
        <time>2020-07-05T07:10:38.000Z</time>
        <extensions>
          <gpxtpx:TrackPointExtension xmlns:gpxtpx="http://www.garmin.com/xmlschemas/TrackPointExtension/v1">
            <gpxtpx:hr>124</gpxtpx:hr>
          </gpxtpx:TrackPointExtension>
        </extensions>
      </trkpt>
      <trkpt lat="45.7691" lon="6.47171">
        <ele>934.59997558594</ele>
        <time>2020-07-05T07:10:41.000Z</time>
        <extensions>
          <gpxtpx:TrackPointExtension xmlns:gpxtpx="http://www.garmin.com/xmlschemas/TrackPointExtension/v1">
            <gpxtpx:hr>126</gpxtpx:hr>
          </gpxtpx:TrackPointExtension>
        </extensions>
      </trkpt>
      <trkpt lat="45.76914" lon="6.47172">
        <ele>934.79998779297</ele>
        <time>2020-07-05T07:10:42.000Z</time>
        <extensions>
          <gpxtpx:TrackPointExtension xmlns:gpxtpx="http://www.garmin.com/xmlschemas/TrackPointExtension/v1">
            <gpxtpx:hr>126</gpxtpx:hr>
          </gpxtpx:TrackPointExtension>
        </extensions>
      </trkpt>
      <trkpt lat="45.7692" lon="6.47176">
        <ele>935</ele>
        <time>2020-07-05T07:10:44.000Z</time>
        <extensions>
          <gpxtpx:TrackPointExtension xmlns:gpxtpx="http://www.garmin.com/xmlschemas/TrackPointExtension/v1">
            <gpxtpx:hr>126</gpxtpx:hr>
          </gpxtpx:TrackPointExtension>
        </extensions>
      </trkpt>
      <trkpt lat="45.76929" lon="6.47183">
        <ele>936</ele>
        <time>2020-07-05T07:10:48.000Z</time>
        <extensions>
          <gpxtpx:TrackPointExtension xmlns:gpxtpx="http://www.garmin.com/xmlschemas/TrackPointExtension/v1">
            <gpxtpx:hr>128</gpxtpx:hr>
          </gpxtpx:TrackPointExtension>
        </extensions>
      </trkpt>
      <trkpt lat="45.76931" lon="6.47185">
        <ele>936.20001220703</ele>
        <time>2020-07-05T07:10:49.000Z</time>
        <extensions>
          <gpxtpx:TrackPointExtension xmlns:gpxtpx="http://www.garmin.com/xmlschemas/TrackPointExtension/v1">
            <gpxtpx:hr>129</gpxtpx:hr>
          </gpxtpx:TrackPointExtension>
        </extensions>
      </trkpt>
      <trkpt lat="45.76937" lon="6.47187">
        <ele>936.79998779297</ele>
        <time>2020-07-05T07:10:51.000Z</time>
        <extensions>
          <gpxtpx:TrackPointExtension xmlns:gpxtpx="http://www.garmin.com/xmlschemas/TrackPointExtension/v1">
            <gpxtpx:hr>132</gpxtpx:hr>
          </gpxtpx:TrackPointExtension>
        </extensions>
      </trkpt>
      <trkpt lat="45.76943" lon="6.47189">
        <ele>937.40002441406</ele>
        <time>2020-07-05T07:10:53.000Z</time>
        <extensions>
          <gpxtpx:TrackPointExtension xmlns:gpxtpx="http://www.garmin.com/xmlschemas/TrackPointExtension/v1">
            <gpxtpx:hr>134</gpxtpx:hr>
          </gpxtpx:TrackPointExtension>
        </extensions>
      </trkpt>
      <trkpt lat="45.76948" lon="6.47192">
        <ele>938</ele>
        <time>2020-07-05T07:10:55.000Z</time>
        <extensions>
          <gpxtpx:TrackPointExtension xmlns:gpxtpx="http://www.garmin.com/xmlschemas/TrackPointExtension/v1">
            <gpxtpx:hr>136</gpxtpx:hr>
          </gpxtpx:TrackPointExtension>
        </extensions>
      </trkpt>
      <trkpt lat="45.76956" lon="6.47193">
        <ele>938.59997558594</ele>
        <time>2020-07-05T07:10:57.000Z</time>
        <extensions>
          <gpxtpx:TrackPointExtension xmlns:gpxtpx="http://www.garmin.com/xmlschemas/TrackPointExtension/v1">
            <gpxtpx:hr>137</gpxtpx:hr>
          </gpxtpx:TrackPointExtension>
        </extensions>
      </trkpt>
      <trkpt lat="45.76972" lon="6.47196">
        <ele>940</ele>
        <time>2020-07-05T07:11:01.000Z</time>
        <extensions>
          <gpxtpx:TrackPointExtension xmlns:gpxtpx="http://www.garmin.com/xmlschemas/TrackPointExtension/v1">
            <gpxtpx:hr>139</gpxtpx:hr>
          </gpxtpx:TrackPointExtension>
        </extensions>
      </trkpt>
      <trkpt lat="45.76981" lon="6.47193">
        <ele>940.59997558594</ele>
        <time>2020-07-05T07:11:03.000Z</time>
        <extensions>
          <gpxtpx:TrackPointExtension xmlns:gpxtpx="http://www.garmin.com/xmlschemas/TrackPointExtension/v1">
            <gpxtpx:hr>141</gpxtpx:hr>
          </gpxtpx:TrackPointExtension>
        </extensions>
      </trkpt>
      <trkpt lat="45.76988" lon="6.47195">
        <ele>941</ele>
        <time>2020-07-05T07:11:05.000Z</time>
        <extensions>
          <gpxtpx:TrackPointExtension xmlns:gpxtpx="http://www.garmin.com/xmlschemas/TrackPointExtension/v1">
            <gpxtpx:hr>142</gpxtpx:hr>
          </gpxtpx:TrackPointExtension>
        </extensions>
      </trkpt>
      <trkpt lat="45.77001" lon="6.47202">
        <ele>941.79998779297</ele>
        <time>2020-07-05T07:11:09.000Z</time>
        <extensions>
          <gpxtpx:TrackPointExtension xmlns:gpxtpx="http://www.garmin.com/xmlschemas/TrackPointExtension/v1">
            <gpxtpx:hr>144</gpxtpx:hr>
          </gpxtpx:TrackPointExtension>
        </extensions>
      </trkpt>
      <trkpt lat="45.77008" lon="6.47206">
        <ele>942</ele>
        <time>2020-07-05T07:11:11.000Z</time>
        <extensions>
          <gpxtpx:TrackPointExtension xmlns:gpxtpx="http://www.garmin.com/xmlschemas/TrackPointExtension/v1">
            <gpxtpx:hr>144</gpxtpx:hr>
          </gpxtpx:TrackPointExtension>
        </extensions>
      </trkpt>
      <trkpt lat="45.77025" lon="6.47216">
        <ele>943.20001220703</ele>
        <time>2020-07-05T07:11:16.000Z</time>
        <extensions>
          <gpxtpx:TrackPointExtension xmlns:gpxtpx="http://www.garmin.com/xmlschemas/TrackPointExtension/v1">
            <gpxtpx:hr>144</gpxtpx:hr>
          </gpxtpx:TrackPointExtension>
        </extensions>
      </trkpt>
      <trkpt lat="45.77028" lon="6.47218">
        <ele>943.20001220703</ele>
        <time>2020-07-05T07:11:17.000Z</time>
        <extensions>
          <gpxtpx:TrackPointExtension xmlns:gpxtpx="http://www.garmin.com/xmlschemas/TrackPointExtension/v1">
            <gpxtpx:hr>144</gpxtpx:hr>
          </gpxtpx:TrackPointExtension>
        </extensions>
      </trkpt>
      <trkpt lat="45.77044" lon="6.47233">
        <ele>944.40002441406</ele>
        <time>2020-07-05T07:11:23.000Z</time>
        <extensions>
          <gpxtpx:TrackPointExtension xmlns:gpxtpx="http://www.garmin.com/xmlschemas/TrackPointExtension/v1">
            <gpxtpx:hr>145</gpxtpx:hr>
          </gpxtpx:TrackPointExtension>
        </extensions>
      </trkpt>
      <trkpt lat="45.77047" lon="6.47235">
        <ele>944.59997558594</ele>
        <time>2020-07-05T07:11:24.000Z</time>
        <extensions>
          <gpxtpx:TrackPointExtension xmlns:gpxtpx="http://www.garmin.com/xmlschemas/TrackPointExtension/v1">
            <gpxtpx:hr>147</gpxtpx:hr>
          </gpxtpx:TrackPointExtension>
        </extensions>
      </trkpt>
      <trkpt lat="45.77056" lon="6.47239">
        <ele>945.40002441406</ele>
        <time>2020-07-05T07:11:27.000Z</time>
        <extensions>
          <gpxtpx:TrackPointExtension xmlns:gpxtpx="http://www.garmin.com/xmlschemas/TrackPointExtension/v1">
            <gpxtpx:hr>147</gpxtpx:hr>
          </gpxtpx:TrackPointExtension>
        </extensions>
      </trkpt>
      <trkpt lat="45.77066" lon="6.47241">
        <ele>946.20001220703</ele>
        <time>2020-07-05T07:11:30.000Z</time>
        <extensions>
          <gpxtpx:TrackPointExtension xmlns:gpxtpx="http://www.garmin.com/xmlschemas/TrackPointExtension/v1">
            <gpxtpx:hr>147</gpxtpx:hr>
          </gpxtpx:TrackPointExtension>
        </extensions>
      </trkpt>
      <trkpt lat="45.77069" lon="6.47241">
        <ele>946.40002441406</ele>
        <time>2020-07-05T07:11:31.000Z</time>
        <extensions>
          <gpxtpx:TrackPointExtension xmlns:gpxtpx="http://www.garmin.com/xmlschemas/TrackPointExtension/v1">
            <gpxtpx:hr>148</gpxtpx:hr>
          </gpxtpx:TrackPointExtension>
        </extensions>
      </trkpt>
      <trkpt lat="45.77085" lon="6.47241">
        <ele>947.40002441406</ele>
        <time>2020-07-05T07:11:36.000Z</time>
        <extensions>
          <gpxtpx:TrackPointExtension xmlns:gpxtpx="http://www.garmin.com/xmlschemas/TrackPointExtension/v1">
            <gpxtpx:hr>148</gpxtpx:hr>
          </gpxtpx:TrackPointExtension>
        </extensions>
      </trkpt>
      <trkpt lat="45.77097" lon="6.4724">
        <ele>948.20001220703</ele>
        <time>2020-07-05T07:11:39.000Z</time>
        <extensions>
          <gpxtpx:TrackPointExtension xmlns:gpxtpx="http://www.garmin.com/xmlschemas/TrackPointExtension/v1">
            <gpxtpx:hr>148</gpxtpx:hr>
          </gpxtpx:TrackPointExtension>
        </extensions>
      </trkpt>
      <trkpt lat="45.77108" lon="6.47241">
        <ele>948.59997558594</ele>
        <time>2020-07-05T07:11:42.000Z</time>
        <extensions>
          <gpxtpx:TrackPointExtension xmlns:gpxtpx="http://www.garmin.com/xmlschemas/TrackPointExtension/v1">
            <gpxtpx:hr>149</gpxtpx:hr>
          </gpxtpx:TrackPointExtension>
        </extensions>
      </trkpt>
      <trkpt lat="45.77118" lon="6.47241">
        <ele>949</ele>
        <time>2020-07-05T07:11:45.000Z</time>
        <extensions>
          <gpxtpx:TrackPointExtension xmlns:gpxtpx="http://www.garmin.com/xmlschemas/TrackPointExtension/v1">
            <gpxtpx:hr>150</gpxtpx:hr>
          </gpxtpx:TrackPointExtension>
        </extensions>
      </trkpt>
      <trkpt lat="45.77126" lon="6.47243">
        <ele>949.59997558594</ele>
        <time>2020-07-05T07:11:48.000Z</time>
        <extensions>
          <gpxtpx:TrackPointExtension xmlns:gpxtpx="http://www.garmin.com/xmlschemas/TrackPointExtension/v1">
            <gpxtpx:hr>151</gpxtpx:hr>
          </gpxtpx:TrackPointExtension>
        </extensions>
      </trkpt>
      <trkpt lat="45.77127" lon="6.47245">
        <ele>949.79998779297</ele>
        <time>2020-07-05T07:11:49.000Z</time>
        <extensions>
          <gpxtpx:TrackPointExtension xmlns:gpxtpx="http://www.garmin.com/xmlschemas/TrackPointExtension/v1">
            <gpxtpx:hr>151</gpxtpx:hr>
          </gpxtpx:TrackPointExtension>
        </extensions>
      </trkpt>
      <trkpt lat="45.77128" lon="6.47247">
        <ele>950</ele>
        <time>2020-07-05T07:11:50.000Z</time>
        <extensions>
          <gpxtpx:TrackPointExtension xmlns:gpxtpx="http://www.garmin.com/xmlschemas/TrackPointExtension/v1">
            <gpxtpx:hr>151</gpxtpx:hr>
          </gpxtpx:TrackPointExtension>
        </extensions>
      </trkpt>
      <trkpt lat="45.77132" lon="6.47249">
        <ele>950.59997558594</ele>
        <time>2020-07-05T07:11:53.000Z</time>
        <extensions>
          <gpxtpx:TrackPointExtension xmlns:gpxtpx="http://www.garmin.com/xmlschemas/TrackPointExtension/v1">
            <gpxtpx:hr>149</gpxtpx:hr>
          </gpxtpx:TrackPointExtension>
        </extensions>
      </trkpt>
      <trkpt lat="45.77139" lon="6.47243">
        <ele>951.20001220703</ele>
        <time>2020-07-05T07:11:56.000Z</time>
        <extensions>
          <gpxtpx:TrackPointExtension xmlns:gpxtpx="http://www.garmin.com/xmlschemas/TrackPointExtension/v1">
            <gpxtpx:hr>148</gpxtpx:hr>
          </gpxtpx:TrackPointExtension>
        </extensions>
      </trkpt>
      <trkpt lat="45.77146" lon="6.47237">
        <ele>951.79998779297</ele>
        <time>2020-07-05T07:11:58.000Z</time>
        <extensions>
          <gpxtpx:TrackPointExtension xmlns:gpxtpx="http://www.garmin.com/xmlschemas/TrackPointExtension/v1">
            <gpxtpx:hr>147</gpxtpx:hr>
          </gpxtpx:TrackPointExtension>
        </extensions>
      </trkpt>
      <trkpt lat="45.77166" lon="6.47231">
        <ele>953.20001220703</ele>
        <time>2020-07-05T07:12:03.000Z</time>
        <extensions>
          <gpxtpx:TrackPointExtension xmlns:gpxtpx="http://www.garmin.com/xmlschemas/TrackPointExtension/v1">
            <gpxtpx:hr>147</gpxtpx:hr>
          </gpxtpx:TrackPointExtension>
        </extensions>
      </trkpt>
      <trkpt lat="45.77184" lon="6.47238">
        <ele>954.20001220703</ele>
        <time>2020-07-05T07:12:07.000Z</time>
        <extensions>
          <gpxtpx:TrackPointExtension xmlns:gpxtpx="http://www.garmin.com/xmlschemas/TrackPointExtension/v1">
            <gpxtpx:hr>147</gpxtpx:hr>
          </gpxtpx:TrackPointExtension>
        </extensions>
      </trkpt>
      <trkpt lat="45.77187" lon="6.47241">
        <ele>954.40002441406</ele>
        <time>2020-07-05T07:12:08.000Z</time>
        <extensions>
          <gpxtpx:TrackPointExtension xmlns:gpxtpx="http://www.garmin.com/xmlschemas/TrackPointExtension/v1">
            <gpxtpx:hr>147</gpxtpx:hr>
          </gpxtpx:TrackPointExtension>
        </extensions>
      </trkpt>
      <trkpt lat="45.77196" lon="6.47246">
        <ele>955.40002441406</ele>
        <time>2020-07-05T07:12:11.000Z</time>
        <extensions>
          <gpxtpx:TrackPointExtension xmlns:gpxtpx="http://www.garmin.com/xmlschemas/TrackPointExtension/v1">
            <gpxtpx:hr>147</gpxtpx:hr>
          </gpxtpx:TrackPointExtension>
        </extensions>
      </trkpt>
      <trkpt lat="45.77206" lon="6.47251">
        <ele>956</ele>
        <time>2020-07-05T07:12:14.000Z</time>
        <extensions>
          <gpxtpx:TrackPointExtension xmlns:gpxtpx="http://www.garmin.com/xmlschemas/TrackPointExtension/v1">
            <gpxtpx:hr>148</gpxtpx:hr>
          </gpxtpx:TrackPointExtension>
        </extensions>
      </trkpt>
      <trkpt lat="45.77212" lon="6.47253">
        <ele>956.40002441406</ele>
        <time>2020-07-05T07:12:16.000Z</time>
        <extensions>
          <gpxtpx:TrackPointExtension xmlns:gpxtpx="http://www.garmin.com/xmlschemas/TrackPointExtension/v1">
            <gpxtpx:hr>149</gpxtpx:hr>
          </gpxtpx:TrackPointExtension>
        </extensions>
      </trkpt>
      <trkpt lat="45.77225" lon="6.47256">
        <ele>957.40002441406</ele>
        <time>2020-07-05T07:12:20.000Z</time>
        <extensions>
          <gpxtpx:TrackPointExtension xmlns:gpxtpx="http://www.garmin.com/xmlschemas/TrackPointExtension/v1">
            <gpxtpx:hr>150</gpxtpx:hr>
          </gpxtpx:TrackPointExtension>
        </extensions>
      </trkpt>
      <trkpt lat="45.77228" lon="6.47256">
        <ele>957.59997558594</ele>
        <time>2020-07-05T07:12:21.000Z</time>
        <extensions>
          <gpxtpx:TrackPointExtension xmlns:gpxtpx="http://www.garmin.com/xmlschemas/TrackPointExtension/v1">
            <gpxtpx:hr>150</gpxtpx:hr>
          </gpxtpx:TrackPointExtension>
        </extensions>
      </trkpt>
      <trkpt lat="45.77236" lon="6.47266">
        <ele>958.40002441406</ele>
        <time>2020-07-05T07:12:24.000Z</time>
        <extensions>
          <gpxtpx:TrackPointExtension xmlns:gpxtpx="http://www.garmin.com/xmlschemas/TrackPointExtension/v1">
            <gpxtpx:hr>151</gpxtpx:hr>
          </gpxtpx:TrackPointExtension>
        </extensions>
      </trkpt>
      <trkpt lat="45.77241" lon="6.47275">
        <ele>958.59997558594</ele>
        <time>2020-07-05T07:12:26.000Z</time>
        <extensions>
          <gpxtpx:TrackPointExtension xmlns:gpxtpx="http://www.garmin.com/xmlschemas/TrackPointExtension/v1">
            <gpxtpx:hr>154</gpxtpx:hr>
          </gpxtpx:TrackPointExtension>
        </extensions>
      </trkpt>
      <trkpt lat="45.77243" lon="6.47279">
        <ele>958.79998779297</ele>
        <time>2020-07-05T07:12:27.000Z</time>
        <extensions>
          <gpxtpx:TrackPointExtension xmlns:gpxtpx="http://www.garmin.com/xmlschemas/TrackPointExtension/v1">
            <gpxtpx:hr>151</gpxtpx:hr>
          </gpxtpx:TrackPointExtension>
        </extensions>
      </trkpt>
      <trkpt lat="45.77251" lon="6.47295">
        <ele>958.79998779297</ele>
        <time>2020-07-05T07:12:30.000Z</time>
        <extensions>
          <gpxtpx:TrackPointExtension xmlns:gpxtpx="http://www.garmin.com/xmlschemas/TrackPointExtension/v1">
            <gpxtpx:hr>152</gpxtpx:hr>
          </gpxtpx:TrackPointExtension>
        </extensions>
      </trkpt>
      <trkpt lat="45.77263" lon="6.47324">
        <ele>959</ele>
        <time>2020-07-05T07:12:35.000Z</time>
        <extensions>
          <gpxtpx:TrackPointExtension xmlns:gpxtpx="http://www.garmin.com/xmlschemas/TrackPointExtension/v1">
            <gpxtpx:hr>148</gpxtpx:hr>
          </gpxtpx:TrackPointExtension>
        </extensions>
      </trkpt>
      <trkpt lat="45.77271" lon="6.47342">
        <ele>959.20001220703</ele>
        <time>2020-07-05T07:12:38.000Z</time>
        <extensions>
          <gpxtpx:TrackPointExtension xmlns:gpxtpx="http://www.garmin.com/xmlschemas/TrackPointExtension/v1">
            <gpxtpx:hr>148</gpxtpx:hr>
          </gpxtpx:TrackPointExtension>
        </extensions>
      </trkpt>
      <trkpt lat="45.77273" lon="6.47348">
        <ele>959.40002441406</ele>
        <time>2020-07-05T07:12:39.000Z</time>
        <extensions>
          <gpxtpx:TrackPointExtension xmlns:gpxtpx="http://www.garmin.com/xmlschemas/TrackPointExtension/v1">
            <gpxtpx:hr>149</gpxtpx:hr>
          </gpxtpx:TrackPointExtension>
        </extensions>
      </trkpt>
      <trkpt lat="45.77278" lon="6.47357">
        <ele>959.59997558594</ele>
        <time>2020-07-05T07:12:41.000Z</time>
        <extensions>
          <gpxtpx:TrackPointExtension xmlns:gpxtpx="http://www.garmin.com/xmlschemas/TrackPointExtension/v1">
            <gpxtpx:hr>149</gpxtpx:hr>
          </gpxtpx:TrackPointExtension>
        </extensions>
      </trkpt>
      <trkpt lat="45.77284" lon="6.47365">
        <ele>960</ele>
        <time>2020-07-05T07:12:43.000Z</time>
        <extensions>
          <gpxtpx:TrackPointExtension xmlns:gpxtpx="http://www.garmin.com/xmlschemas/TrackPointExtension/v1">
            <gpxtpx:hr>150</gpxtpx:hr>
          </gpxtpx:TrackPointExtension>
        </extensions>
      </trkpt>
      <trkpt lat="45.77297" lon="6.47378">
        <ele>960.79998779297</ele>
        <time>2020-07-05T07:12:47.000Z</time>
        <extensions>
          <gpxtpx:TrackPointExtension xmlns:gpxtpx="http://www.garmin.com/xmlschemas/TrackPointExtension/v1">
            <gpxtpx:hr>150</gpxtpx:hr>
          </gpxtpx:TrackPointExtension>
        </extensions>
      </trkpt>
      <trkpt lat="45.77309" lon="6.4739">
        <ele>961.79998779297</ele>
        <time>2020-07-05T07:12:51.000Z</time>
        <extensions>
          <gpxtpx:TrackPointExtension xmlns:gpxtpx="http://www.garmin.com/xmlschemas/TrackPointExtension/v1">
            <gpxtpx:hr>151</gpxtpx:hr>
          </gpxtpx:TrackPointExtension>
        </extensions>
      </trkpt>
      <trkpt lat="45.77326" lon="6.47409">
        <ele>962.79998779297</ele>
        <time>2020-07-05T07:12:57.000Z</time>
        <extensions>
          <gpxtpx:TrackPointExtension xmlns:gpxtpx="http://www.garmin.com/xmlschemas/TrackPointExtension/v1">
            <gpxtpx:hr>151</gpxtpx:hr>
          </gpxtpx:TrackPointExtension>
        </extensions>
      </trkpt>
      <trkpt lat="45.7733" lon="6.47412">
        <ele>963</ele>
        <time>2020-07-05T07:12:58.000Z</time>
        <extensions>
          <gpxtpx:TrackPointExtension xmlns:gpxtpx="http://www.garmin.com/xmlschemas/TrackPointExtension/v1">
            <gpxtpx:hr>148</gpxtpx:hr>
          </gpxtpx:TrackPointExtension>
        </extensions>
      </trkpt>
      <trkpt lat="45.77347" lon="6.47415">
        <ele>963.79998779297</ele>
        <time>2020-07-05T07:13:03.000Z</time>
        <extensions>
          <gpxtpx:TrackPointExtension xmlns:gpxtpx="http://www.garmin.com/xmlschemas/TrackPointExtension/v1">
            <gpxtpx:hr>149</gpxtpx:hr>
          </gpxtpx:TrackPointExtension>
        </extensions>
      </trkpt>
      <trkpt lat="45.77351" lon="6.47414">
        <ele>963.79998779297</ele>
        <time>2020-07-05T07:13:04.000Z</time>
        <extensions>
          <gpxtpx:TrackPointExtension xmlns:gpxtpx="http://www.garmin.com/xmlschemas/TrackPointExtension/v1">
            <gpxtpx:hr>150</gpxtpx:hr>
          </gpxtpx:TrackPointExtension>
        </extensions>
      </trkpt>
      <trkpt lat="45.77357" lon="6.4741">
        <ele>964.20001220703</ele>
        <time>2020-07-05T07:13:06.000Z</time>
        <extensions>
          <gpxtpx:TrackPointExtension xmlns:gpxtpx="http://www.garmin.com/xmlschemas/TrackPointExtension/v1">
            <gpxtpx:hr>148</gpxtpx:hr>
          </gpxtpx:TrackPointExtension>
        </extensions>
      </trkpt>
      <trkpt lat="45.7736" lon="6.47407">
        <ele>964.20001220703</ele>
        <time>2020-07-05T07:13:07.000Z</time>
        <extensions>
          <gpxtpx:TrackPointExtension xmlns:gpxtpx="http://www.garmin.com/xmlschemas/TrackPointExtension/v1">
            <gpxtpx:hr>147</gpxtpx:hr>
          </gpxtpx:TrackPointExtension>
        </extensions>
      </trkpt>
      <trkpt lat="45.77366" lon="6.47398">
        <ele>964.59997558594</ele>
        <time>2020-07-05T07:13:09.000Z</time>
        <extensions>
          <gpxtpx:TrackPointExtension xmlns:gpxtpx="http://www.garmin.com/xmlschemas/TrackPointExtension/v1">
            <gpxtpx:hr>144</gpxtpx:hr>
          </gpxtpx:TrackPointExtension>
        </extensions>
      </trkpt>
      <trkpt lat="45.77371" lon="6.4739">
        <ele>964.79998779297</ele>
        <time>2020-07-05T07:13:11.000Z</time>
        <extensions>
          <gpxtpx:TrackPointExtension xmlns:gpxtpx="http://www.garmin.com/xmlschemas/TrackPointExtension/v1">
            <gpxtpx:hr>143</gpxtpx:hr>
          </gpxtpx:TrackPointExtension>
        </extensions>
      </trkpt>
      <trkpt lat="45.77375" lon="6.47383">
        <ele>965.20001220703</ele>
        <time>2020-07-05T07:13:13.000Z</time>
        <extensions>
          <gpxtpx:TrackPointExtension xmlns:gpxtpx="http://www.garmin.com/xmlschemas/TrackPointExtension/v1">
            <gpxtpx:hr>142</gpxtpx:hr>
          </gpxtpx:TrackPointExtension>
        </extensions>
      </trkpt>
      <trkpt lat="45.77384" lon="6.47377">
        <ele>966</ele>
        <time>2020-07-05T07:13:16.000Z</time>
        <extensions>
          <gpxtpx:TrackPointExtension xmlns:gpxtpx="http://www.garmin.com/xmlschemas/TrackPointExtension/v1">
            <gpxtpx:hr>141</gpxtpx:hr>
          </gpxtpx:TrackPointExtension>
        </extensions>
      </trkpt>
      <trkpt lat="45.77387" lon="6.47378">
        <ele>966.40002441406</ele>
        <time>2020-07-05T07:13:17.000Z</time>
        <extensions>
          <gpxtpx:TrackPointExtension xmlns:gpxtpx="http://www.garmin.com/xmlschemas/TrackPointExtension/v1">
            <gpxtpx:hr>141</gpxtpx:hr>
          </gpxtpx:TrackPointExtension>
        </extensions>
      </trkpt>
      <trkpt lat="45.77395" lon="6.47384">
        <ele>967</ele>
        <time>2020-07-05T07:13:20.000Z</time>
        <extensions>
          <gpxtpx:TrackPointExtension xmlns:gpxtpx="http://www.garmin.com/xmlschemas/TrackPointExtension/v1">
            <gpxtpx:hr>142</gpxtpx:hr>
          </gpxtpx:TrackPointExtension>
        </extensions>
      </trkpt>
      <trkpt lat="45.77403" lon="6.47391">
        <ele>968</ele>
        <time>2020-07-05T07:13:23.000Z</time>
        <extensions>
          <gpxtpx:TrackPointExtension xmlns:gpxtpx="http://www.garmin.com/xmlschemas/TrackPointExtension/v1">
            <gpxtpx:hr>142</gpxtpx:hr>
          </gpxtpx:TrackPointExtension>
        </extensions>
      </trkpt>
      <trkpt lat="45.77405" lon="6.47394">
        <ele>968.40002441406</ele>
        <time>2020-07-05T07:13:24.000Z</time>
        <extensions>
          <gpxtpx:TrackPointExtension xmlns:gpxtpx="http://www.garmin.com/xmlschemas/TrackPointExtension/v1">
            <gpxtpx:hr>143</gpxtpx:hr>
          </gpxtpx:TrackPointExtension>
        </extensions>
      </trkpt>
      <trkpt lat="45.7741" lon="6.47403">
        <ele>969.40002441406</ele>
        <time>2020-07-05T07:13:27.000Z</time>
        <extensions>
          <gpxtpx:TrackPointExtension xmlns:gpxtpx="http://www.garmin.com/xmlschemas/TrackPointExtension/v1">
            <gpxtpx:hr>144</gpxtpx:hr>
          </gpxtpx:TrackPointExtension>
        </extensions>
      </trkpt>
      <trkpt lat="45.77413" lon="6.4741">
        <ele>970</ele>
        <time>2020-07-05T07:13:29.000Z</time>
        <extensions>
          <gpxtpx:TrackPointExtension xmlns:gpxtpx="http://www.garmin.com/xmlschemas/TrackPointExtension/v1">
            <gpxtpx:hr>144</gpxtpx:hr>
          </gpxtpx:TrackPointExtension>
        </extensions>
      </trkpt>
      <trkpt lat="45.77415" lon="6.47417">
        <ele>970.40002441406</ele>
        <time>2020-07-05T07:13:31.000Z</time>
        <extensions>
          <gpxtpx:TrackPointExtension xmlns:gpxtpx="http://www.garmin.com/xmlschemas/TrackPointExtension/v1">
            <gpxtpx:hr>144</gpxtpx:hr>
          </gpxtpx:TrackPointExtension>
        </extensions>
      </trkpt>
      <trkpt lat="45.77418" lon="6.4743">
        <ele>971.59997558594</ele>
        <time>2020-07-05T07:13:35.000Z</time>
        <extensions>
          <gpxtpx:TrackPointExtension xmlns:gpxtpx="http://www.garmin.com/xmlschemas/TrackPointExtension/v1">
            <gpxtpx:hr>146</gpxtpx:hr>
          </gpxtpx:TrackPointExtension>
        </extensions>
      </trkpt>
      <trkpt lat="45.7742" lon="6.47441">
        <ele>972.20001220703</ele>
        <time>2020-07-05T07:13:38.000Z</time>
        <extensions>
          <gpxtpx:TrackPointExtension xmlns:gpxtpx="http://www.garmin.com/xmlschemas/TrackPointExtension/v1">
            <gpxtpx:hr>147</gpxtpx:hr>
          </gpxtpx:TrackPointExtension>
        </extensions>
      </trkpt>
      <trkpt lat="45.7742" lon="6.47444">
        <ele>972.59997558594</ele>
        <time>2020-07-05T07:13:39.000Z</time>
        <extensions>
          <gpxtpx:TrackPointExtension xmlns:gpxtpx="http://www.garmin.com/xmlschemas/TrackPointExtension/v1">
            <gpxtpx:hr>148</gpxtpx:hr>
          </gpxtpx:TrackPointExtension>
        </extensions>
      </trkpt>
      <trkpt lat="45.77423" lon="6.47454">
        <ele>973.59997558594</ele>
        <time>2020-07-05T07:13:42.000Z</time>
        <extensions>
          <gpxtpx:TrackPointExtension xmlns:gpxtpx="http://www.garmin.com/xmlschemas/TrackPointExtension/v1">
            <gpxtpx:hr>150</gpxtpx:hr>
          </gpxtpx:TrackPointExtension>
        </extensions>
      </trkpt>
      <trkpt lat="45.77426" lon="6.47469">
        <ele>974.79998779297</ele>
        <time>2020-07-05T07:13:46.000Z</time>
        <extensions>
          <gpxtpx:TrackPointExtension xmlns:gpxtpx="http://www.garmin.com/xmlschemas/TrackPointExtension/v1">
            <gpxtpx:hr>152</gpxtpx:hr>
          </gpxtpx:TrackPointExtension>
        </extensions>
      </trkpt>
      <trkpt lat="45.77427" lon="6.47479">
        <ele>975.40002441406</ele>
        <time>2020-07-05T07:13:49.000Z</time>
        <extensions>
          <gpxtpx:TrackPointExtension xmlns:gpxtpx="http://www.garmin.com/xmlschemas/TrackPointExtension/v1">
            <gpxtpx:hr>153</gpxtpx:hr>
          </gpxtpx:TrackPointExtension>
        </extensions>
      </trkpt>
      <trkpt lat="45.77428" lon="6.47487">
        <ele>976</ele>
        <time>2020-07-05T07:13:51.000Z</time>
        <extensions>
          <gpxtpx:TrackPointExtension xmlns:gpxtpx="http://www.garmin.com/xmlschemas/TrackPointExtension/v1">
            <gpxtpx:hr>154</gpxtpx:hr>
          </gpxtpx:TrackPointExtension>
        </extensions>
      </trkpt>
      <trkpt lat="45.7743" lon="6.47503">
        <ele>977.20001220703</ele>
        <time>2020-07-05T07:13:55.000Z</time>
        <extensions>
          <gpxtpx:TrackPointExtension xmlns:gpxtpx="http://www.garmin.com/xmlschemas/TrackPointExtension/v1">
            <gpxtpx:hr>155</gpxtpx:hr>
          </gpxtpx:TrackPointExtension>
        </extensions>
      </trkpt>
      <trkpt lat="45.7743" lon="6.47514">
        <ele>977.79998779297</ele>
        <time>2020-07-05T07:13:58.000Z</time>
        <extensions>
          <gpxtpx:TrackPointExtension xmlns:gpxtpx="http://www.garmin.com/xmlschemas/TrackPointExtension/v1">
            <gpxtpx:hr>155</gpxtpx:hr>
          </gpxtpx:TrackPointExtension>
        </extensions>
      </trkpt>
      <trkpt lat="45.77429" lon="6.47517">
        <ele>978.20001220703</ele>
        <time>2020-07-05T07:13:59.000Z</time>
        <extensions>
          <gpxtpx:TrackPointExtension xmlns:gpxtpx="http://www.garmin.com/xmlschemas/TrackPointExtension/v1">
            <gpxtpx:hr>155</gpxtpx:hr>
          </gpxtpx:TrackPointExtension>
        </extensions>
      </trkpt>
      <trkpt lat="45.77427" lon="6.47532">
        <ele>979.20001220703</ele>
        <time>2020-07-05T07:14:03.000Z</time>
        <extensions>
          <gpxtpx:TrackPointExtension xmlns:gpxtpx="http://www.garmin.com/xmlschemas/TrackPointExtension/v1">
            <gpxtpx:hr>154</gpxtpx:hr>
          </gpxtpx:TrackPointExtension>
        </extensions>
      </trkpt>
      <trkpt lat="45.77426" lon="6.47536">
        <ele>979.40002441406</ele>
        <time>2020-07-05T07:14:04.000Z</time>
        <extensions>
          <gpxtpx:TrackPointExtension xmlns:gpxtpx="http://www.garmin.com/xmlschemas/TrackPointExtension/v1">
            <gpxtpx:hr>154</gpxtpx:hr>
          </gpxtpx:TrackPointExtension>
        </extensions>
      </trkpt>
      <trkpt lat="45.77426" lon="6.47539">
        <ele>979.79998779297</ele>
        <time>2020-07-05T07:14:05.000Z</time>
        <extensions>
          <gpxtpx:TrackPointExtension xmlns:gpxtpx="http://www.garmin.com/xmlschemas/TrackPointExtension/v1">
            <gpxtpx:hr>153</gpxtpx:hr>
          </gpxtpx:TrackPointExtension>
        </extensions>
      </trkpt>
      <trkpt lat="45.77426" lon="6.47546">
        <ele>980.40002441406</ele>
        <time>2020-07-05T07:14:07.000Z</time>
        <extensions>
          <gpxtpx:TrackPointExtension xmlns:gpxtpx="http://www.garmin.com/xmlschemas/TrackPointExtension/v1">
            <gpxtpx:hr>153</gpxtpx:hr>
          </gpxtpx:TrackPointExtension>
        </extensions>
      </trkpt>
      <trkpt lat="45.77427" lon="6.47557">
        <ele>981</ele>
        <time>2020-07-05T07:14:10.000Z</time>
        <extensions>
          <gpxtpx:TrackPointExtension xmlns:gpxtpx="http://www.garmin.com/xmlschemas/TrackPointExtension/v1">
            <gpxtpx:hr>153</gpxtpx:hr>
          </gpxtpx:TrackPointExtension>
        </extensions>
      </trkpt>
      <trkpt lat="45.77429" lon="6.47564">
        <ele>981.59997558594</ele>
        <time>2020-07-05T07:14:12.000Z</time>
        <extensions>
          <gpxtpx:TrackPointExtension xmlns:gpxtpx="http://www.garmin.com/xmlschemas/TrackPointExtension/v1">
            <gpxtpx:hr>153</gpxtpx:hr>
          </gpxtpx:TrackPointExtension>
        </extensions>
      </trkpt>
      <trkpt lat="45.77435" lon="6.47576">
        <ele>982.79998779297</ele>
        <time>2020-07-05T07:14:16.000Z</time>
        <extensions>
          <gpxtpx:TrackPointExtension xmlns:gpxtpx="http://www.garmin.com/xmlschemas/TrackPointExtension/v1">
            <gpxtpx:hr>154</gpxtpx:hr>
          </gpxtpx:TrackPointExtension>
        </extensions>
      </trkpt>
      <trkpt lat="45.77443" lon="6.47587">
        <ele>984</ele>
        <time>2020-07-05T07:14:20.000Z</time>
        <extensions>
          <gpxtpx:TrackPointExtension xmlns:gpxtpx="http://www.garmin.com/xmlschemas/TrackPointExtension/v1">
            <gpxtpx:hr>151</gpxtpx:hr>
          </gpxtpx:TrackPointExtension>
        </extensions>
      </trkpt>
      <trkpt lat="45.7745" lon="6.47597">
        <ele>985</ele>
        <time>2020-07-05T07:14:24.000Z</time>
        <extensions>
          <gpxtpx:TrackPointExtension xmlns:gpxtpx="http://www.garmin.com/xmlschemas/TrackPointExtension/v1">
            <gpxtpx:hr>150</gpxtpx:hr>
          </gpxtpx:TrackPointExtension>
        </extensions>
      </trkpt>
      <trkpt lat="45.77452" lon="6.476">
        <ele>985.20001220703</ele>
        <time>2020-07-05T07:14:25.000Z</time>
        <extensions>
          <gpxtpx:TrackPointExtension xmlns:gpxtpx="http://www.garmin.com/xmlschemas/TrackPointExtension/v1">
            <gpxtpx:hr>149</gpxtpx:hr>
          </gpxtpx:TrackPointExtension>
        </extensions>
      </trkpt>
      <trkpt lat="45.7746" lon="6.47607">
        <ele>986.20001220703</ele>
        <time>2020-07-05T07:14:29.000Z</time>
        <extensions>
          <gpxtpx:TrackPointExtension xmlns:gpxtpx="http://www.garmin.com/xmlschemas/TrackPointExtension/v1">
            <gpxtpx:hr>150</gpxtpx:hr>
          </gpxtpx:TrackPointExtension>
        </extensions>
      </trkpt>
      <trkpt lat="45.77466" lon="6.47614">
        <ele>987.20001220703</ele>
        <time>2020-07-05T07:14:32.000Z</time>
        <extensions>
          <gpxtpx:TrackPointExtension xmlns:gpxtpx="http://www.garmin.com/xmlschemas/TrackPointExtension/v1">
            <gpxtpx:hr>152</gpxtpx:hr>
          </gpxtpx:TrackPointExtension>
        </extensions>
      </trkpt>
      <trkpt lat="45.77468" lon="6.47616">
        <ele>987.40002441406</ele>
        <time>2020-07-05T07:14:33.000Z</time>
        <extensions>
          <gpxtpx:TrackPointExtension xmlns:gpxtpx="http://www.garmin.com/xmlschemas/TrackPointExtension/v1">
            <gpxtpx:hr>153</gpxtpx:hr>
          </gpxtpx:TrackPointExtension>
        </extensions>
      </trkpt>
      <trkpt lat="45.77477" lon="6.47628">
        <ele>988.40002441406</ele>
        <time>2020-07-05T07:14:38.000Z</time>
        <extensions>
          <gpxtpx:TrackPointExtension xmlns:gpxtpx="http://www.garmin.com/xmlschemas/TrackPointExtension/v1">
            <gpxtpx:hr>154</gpxtpx:hr>
          </gpxtpx:TrackPointExtension>
        </extensions>
      </trkpt>
      <trkpt lat="45.77483" lon="6.47639">
        <ele>989.59997558594</ele>
        <time>2020-07-05T07:14:42.000Z</time>
        <extensions>
          <gpxtpx:TrackPointExtension xmlns:gpxtpx="http://www.garmin.com/xmlschemas/TrackPointExtension/v1">
            <gpxtpx:hr>156</gpxtpx:hr>
          </gpxtpx:TrackPointExtension>
        </extensions>
      </trkpt>
      <trkpt lat="45.77488" lon="6.47648">
        <ele>990.59997558594</ele>
        <time>2020-07-05T07:14:45.000Z</time>
        <extensions>
          <gpxtpx:TrackPointExtension xmlns:gpxtpx="http://www.garmin.com/xmlschemas/TrackPointExtension/v1">
            <gpxtpx:hr>157</gpxtpx:hr>
          </gpxtpx:TrackPointExtension>
        </extensions>
      </trkpt>
      <trkpt lat="45.77497" lon="6.47661">
        <ele>991.79998779297</ele>
        <time>2020-07-05T07:14:50.000Z</time>
        <extensions>
          <gpxtpx:TrackPointExtension xmlns:gpxtpx="http://www.garmin.com/xmlschemas/TrackPointExtension/v1">
            <gpxtpx:hr>158</gpxtpx:hr>
          </gpxtpx:TrackPointExtension>
        </extensions>
      </trkpt>
      <trkpt lat="45.77499" lon="6.47664">
        <ele>992</ele>
        <time>2020-07-05T07:14:51.000Z</time>
        <extensions>
          <gpxtpx:TrackPointExtension xmlns:gpxtpx="http://www.garmin.com/xmlschemas/TrackPointExtension/v1">
            <gpxtpx:hr>158</gpxtpx:hr>
          </gpxtpx:TrackPointExtension>
        </extensions>
      </trkpt>
      <trkpt lat="45.77505" lon="6.47671">
        <ele>993</ele>
        <time>2020-07-05T07:14:54.000Z</time>
        <extensions>
          <gpxtpx:TrackPointExtension xmlns:gpxtpx="http://www.garmin.com/xmlschemas/TrackPointExtension/v1">
            <gpxtpx:hr>159</gpxtpx:hr>
          </gpxtpx:TrackPointExtension>
        </extensions>
      </trkpt>
      <trkpt lat="45.77517" lon="6.47683">
        <ele>994.20001220703</ele>
        <time>2020-07-05T07:14:59.000Z</time>
        <extensions>
          <gpxtpx:TrackPointExtension xmlns:gpxtpx="http://www.garmin.com/xmlschemas/TrackPointExtension/v1">
            <gpxtpx:hr>160</gpxtpx:hr>
          </gpxtpx:TrackPointExtension>
        </extensions>
      </trkpt>
      <trkpt lat="45.77519" lon="6.47685">
        <ele>994.40002441406</ele>
        <time>2020-07-05T07:15:00.000Z</time>
        <extensions>
          <gpxtpx:TrackPointExtension xmlns:gpxtpx="http://www.garmin.com/xmlschemas/TrackPointExtension/v1">
            <gpxtpx:hr>160</gpxtpx:hr>
          </gpxtpx:TrackPointExtension>
        </extensions>
      </trkpt>
      <trkpt lat="45.77528" lon="6.47694">
        <ele>995.20001220703</ele>
        <time>2020-07-05T07:15:04.000Z</time>
        <extensions>
          <gpxtpx:TrackPointExtension xmlns:gpxtpx="http://www.garmin.com/xmlschemas/TrackPointExtension/v1">
            <gpxtpx:hr>158</gpxtpx:hr>
          </gpxtpx:TrackPointExtension>
        </extensions>
      </trkpt>
      <trkpt lat="45.77537" lon="6.47706">
        <ele>996.20001220703</ele>
        <time>2020-07-05T07:15:09.000Z</time>
        <extensions>
          <gpxtpx:TrackPointExtension xmlns:gpxtpx="http://www.garmin.com/xmlschemas/TrackPointExtension/v1">
            <gpxtpx:hr>157</gpxtpx:hr>
          </gpxtpx:TrackPointExtension>
        </extensions>
      </trkpt>
      <trkpt lat="45.7754" lon="6.47708">
        <ele>996.40002441406</ele>
        <time>2020-07-05T07:15:10.000Z</time>
        <extensions>
          <gpxtpx:TrackPointExtension xmlns:gpxtpx="http://www.garmin.com/xmlschemas/TrackPointExtension/v1">
            <gpxtpx:hr>157</gpxtpx:hr>
          </gpxtpx:TrackPointExtension>
        </extensions>
      </trkpt>
      <trkpt lat="45.77548" lon="6.47718">
        <ele>997.40002441406</ele>
        <time>2020-07-05T07:15:14.000Z</time>
        <extensions>
          <gpxtpx:TrackPointExtension xmlns:gpxtpx="http://www.garmin.com/xmlschemas/TrackPointExtension/v1">
            <gpxtpx:hr>155</gpxtpx:hr>
          </gpxtpx:TrackPointExtension>
        </extensions>
      </trkpt>
      <trkpt lat="45.77553" lon="6.47723">
        <ele>997.79998779297</ele>
        <time>2020-07-05T07:15:16.000Z</time>
        <extensions>
          <gpxtpx:TrackPointExtension xmlns:gpxtpx="http://www.garmin.com/xmlschemas/TrackPointExtension/v1">
            <gpxtpx:hr>155</gpxtpx:hr>
          </gpxtpx:TrackPointExtension>
        </extensions>
      </trkpt>
      <trkpt lat="45.77559" lon="6.47729">
        <ele>998.59997558594</ele>
        <time>2020-07-05T07:15:19.000Z</time>
        <extensions>
          <gpxtpx:TrackPointExtension xmlns:gpxtpx="http://www.garmin.com/xmlschemas/TrackPointExtension/v1">
            <gpxtpx:hr>155</gpxtpx:hr>
          </gpxtpx:TrackPointExtension>
        </extensions>
      </trkpt>
      <trkpt lat="45.77571" lon="6.47735">
        <ele>999.40002441406</ele>
        <time>2020-07-05T07:15:23.000Z</time>
        <extensions>
          <gpxtpx:TrackPointExtension xmlns:gpxtpx="http://www.garmin.com/xmlschemas/TrackPointExtension/v1">
            <gpxtpx:hr>155</gpxtpx:hr>
          </gpxtpx:TrackPointExtension>
        </extensions>
      </trkpt>
      <trkpt lat="45.77573" lon="6.47736">
        <ele>999.59997558594</ele>
        <time>2020-07-05T07:15:24.000Z</time>
        <extensions>
          <gpxtpx:TrackPointExtension xmlns:gpxtpx="http://www.garmin.com/xmlschemas/TrackPointExtension/v1">
            <gpxtpx:hr>154</gpxtpx:hr>
          </gpxtpx:TrackPointExtension>
        </extensions>
      </trkpt>
      <trkpt lat="45.77592" lon="6.47742">
        <ele>1000.799987793</ele>
        <time>2020-07-05T07:15:30.000Z</time>
        <extensions>
          <gpxtpx:TrackPointExtension xmlns:gpxtpx="http://www.garmin.com/xmlschemas/TrackPointExtension/v1">
            <gpxtpx:hr>155</gpxtpx:hr>
          </gpxtpx:TrackPointExtension>
        </extensions>
      </trkpt>
      <trkpt lat="45.77595" lon="6.47744">
        <ele>1001</ele>
        <time>2020-07-05T07:15:31.000Z</time>
        <extensions>
          <gpxtpx:TrackPointExtension xmlns:gpxtpx="http://www.garmin.com/xmlschemas/TrackPointExtension/v1">
            <gpxtpx:hr>155</gpxtpx:hr>
          </gpxtpx:TrackPointExtension>
        </extensions>
      </trkpt>
      <trkpt lat="45.77607" lon="6.47752">
        <ele>1001.799987793</ele>
        <time>2020-07-05T07:15:35.000Z</time>
        <extensions>
          <gpxtpx:TrackPointExtension xmlns:gpxtpx="http://www.garmin.com/xmlschemas/TrackPointExtension/v1">
            <gpxtpx:hr>158</gpxtpx:hr>
          </gpxtpx:TrackPointExtension>
        </extensions>
      </trkpt>
      <trkpt lat="45.77615" lon="6.47758">
        <ele>1002.5999755859</ele>
        <time>2020-07-05T07:15:38.000Z</time>
        <extensions>
          <gpxtpx:TrackPointExtension xmlns:gpxtpx="http://www.garmin.com/xmlschemas/TrackPointExtension/v1">
            <gpxtpx:hr>156</gpxtpx:hr>
          </gpxtpx:TrackPointExtension>
        </extensions>
      </trkpt>
      <trkpt lat="45.77622" lon="6.47763">
        <ele>1003</ele>
        <time>2020-07-05T07:15:40.000Z</time>
        <extensions>
          <gpxtpx:TrackPointExtension xmlns:gpxtpx="http://www.garmin.com/xmlschemas/TrackPointExtension/v1">
            <gpxtpx:hr>157</gpxtpx:hr>
          </gpxtpx:TrackPointExtension>
        </extensions>
      </trkpt>
      <trkpt lat="45.77632" lon="6.47773">
        <ele>1003.4000244141</ele>
        <time>2020-07-05T07:15:43.000Z</time>
        <extensions>
          <gpxtpx:TrackPointExtension xmlns:gpxtpx="http://www.garmin.com/xmlschemas/TrackPointExtension/v1">
            <gpxtpx:hr>153</gpxtpx:hr>
          </gpxtpx:TrackPointExtension>
        </extensions>
      </trkpt>
      <trkpt lat="45.77635" lon="6.47776">
        <ele>1003.5999755859</ele>
        <time>2020-07-05T07:15:44.000Z</time>
        <extensions>
          <gpxtpx:TrackPointExtension xmlns:gpxtpx="http://www.garmin.com/xmlschemas/TrackPointExtension/v1">
            <gpxtpx:hr>153</gpxtpx:hr>
          </gpxtpx:TrackPointExtension>
        </extensions>
      </trkpt>
      <trkpt lat="45.77652" lon="6.4779">
        <ele>1004</ele>
        <time>2020-07-05T07:15:49.000Z</time>
        <extensions>
          <gpxtpx:TrackPointExtension xmlns:gpxtpx="http://www.garmin.com/xmlschemas/TrackPointExtension/v1">
            <gpxtpx:hr>152</gpxtpx:hr>
          </gpxtpx:TrackPointExtension>
        </extensions>
      </trkpt>
      <trkpt lat="45.77655" lon="6.47791">
        <ele>1004.200012207</ele>
        <time>2020-07-05T07:15:50.000Z</time>
        <extensions>
          <gpxtpx:TrackPointExtension xmlns:gpxtpx="http://www.garmin.com/xmlschemas/TrackPointExtension/v1">
            <gpxtpx:hr>152</gpxtpx:hr>
          </gpxtpx:TrackPointExtension>
        </extensions>
      </trkpt>
      <trkpt lat="45.77687" lon="6.47794">
        <ele>1004.799987793</ele>
        <time>2020-07-05T07:15:57.000Z</time>
        <extensions>
          <gpxtpx:TrackPointExtension xmlns:gpxtpx="http://www.garmin.com/xmlschemas/TrackPointExtension/v1">
            <gpxtpx:hr>153</gpxtpx:hr>
          </gpxtpx:TrackPointExtension>
        </extensions>
      </trkpt>
      <trkpt lat="45.77702" lon="6.47794">
        <ele>1004.799987793</ele>
        <time>2020-07-05T07:16:00.000Z</time>
        <extensions>
          <gpxtpx:TrackPointExtension xmlns:gpxtpx="http://www.garmin.com/xmlschemas/TrackPointExtension/v1">
            <gpxtpx:hr>155</gpxtpx:hr>
          </gpxtpx:TrackPointExtension>
        </extensions>
      </trkpt>
      <trkpt lat="45.77718" lon="6.47799">
        <ele>1004.799987793</ele>
        <time>2020-07-05T07:16:03.000Z</time>
        <extensions>
          <gpxtpx:TrackPointExtension xmlns:gpxtpx="http://www.garmin.com/xmlschemas/TrackPointExtension/v1">
            <gpxtpx:hr>154</gpxtpx:hr>
          </gpxtpx:TrackPointExtension>
        </extensions>
      </trkpt>
      <trkpt lat="45.77759" lon="6.47821">
        <ele>1004.799987793</ele>
        <time>2020-07-05T07:16:11.000Z</time>
        <extensions>
          <gpxtpx:TrackPointExtension xmlns:gpxtpx="http://www.garmin.com/xmlschemas/TrackPointExtension/v1">
            <gpxtpx:hr>154</gpxtpx:hr>
          </gpxtpx:TrackPointExtension>
        </extensions>
      </trkpt>
      <trkpt lat="45.77772" lon="6.4783">
        <ele>1005</ele>
        <time>2020-07-05T07:16:14.000Z</time>
        <extensions>
          <gpxtpx:TrackPointExtension xmlns:gpxtpx="http://www.garmin.com/xmlschemas/TrackPointExtension/v1">
            <gpxtpx:hr>154</gpxtpx:hr>
          </gpxtpx:TrackPointExtension>
        </extensions>
      </trkpt>
      <trkpt lat="45.77784" lon="6.47839">
        <ele>1006.200012207</ele>
        <time>2020-07-05T07:16:17.000Z</time>
        <extensions>
          <gpxtpx:TrackPointExtension xmlns:gpxtpx="http://www.garmin.com/xmlschemas/TrackPointExtension/v1">
            <gpxtpx:hr>154</gpxtpx:hr>
          </gpxtpx:TrackPointExtension>
        </extensions>
      </trkpt>
      <trkpt lat="45.77793" lon="6.47844">
        <ele>1007</ele>
        <time>2020-07-05T07:16:19.000Z</time>
        <extensions>
          <gpxtpx:TrackPointExtension xmlns:gpxtpx="http://www.garmin.com/xmlschemas/TrackPointExtension/v1">
            <gpxtpx:hr>153</gpxtpx:hr>
          </gpxtpx:TrackPointExtension>
        </extensions>
      </trkpt>
      <trkpt lat="45.778" lon="6.47849">
        <ele>1007.5999755859</ele>
        <time>2020-07-05T07:16:21.000Z</time>
        <extensions>
          <gpxtpx:TrackPointExtension xmlns:gpxtpx="http://www.garmin.com/xmlschemas/TrackPointExtension/v1">
            <gpxtpx:hr>153</gpxtpx:hr>
          </gpxtpx:TrackPointExtension>
        </extensions>
      </trkpt>
      <trkpt lat="45.77804" lon="6.47852">
        <ele>1008</ele>
        <time>2020-07-05T07:16:22.000Z</time>
        <extensions>
          <gpxtpx:TrackPointExtension xmlns:gpxtpx="http://www.garmin.com/xmlschemas/TrackPointExtension/v1">
            <gpxtpx:hr>154</gpxtpx:hr>
          </gpxtpx:TrackPointExtension>
        </extensions>
      </trkpt>
      <trkpt lat="45.77813" lon="6.47857">
        <ele>1008.799987793</ele>
        <time>2020-07-05T07:16:24.000Z</time>
        <extensions>
          <gpxtpx:TrackPointExtension xmlns:gpxtpx="http://www.garmin.com/xmlschemas/TrackPointExtension/v1">
            <gpxtpx:hr>153</gpxtpx:hr>
          </gpxtpx:TrackPointExtension>
        </extensions>
      </trkpt>
      <trkpt lat="45.77818" lon="6.4786">
        <ele>1009</ele>
        <time>2020-07-05T07:16:25.000Z</time>
        <extensions>
          <gpxtpx:TrackPointExtension xmlns:gpxtpx="http://www.garmin.com/xmlschemas/TrackPointExtension/v1">
            <gpxtpx:hr>153</gpxtpx:hr>
          </gpxtpx:TrackPointExtension>
        </extensions>
      </trkpt>
      <trkpt lat="45.77825" lon="6.47867">
        <ele>1009.5999755859</ele>
        <time>2020-07-05T07:16:27.000Z</time>
        <extensions>
          <gpxtpx:TrackPointExtension xmlns:gpxtpx="http://www.garmin.com/xmlschemas/TrackPointExtension/v1">
            <gpxtpx:hr>153</gpxtpx:hr>
          </gpxtpx:TrackPointExtension>
        </extensions>
      </trkpt>
      <trkpt lat="45.77828" lon="6.47872">
        <ele>1009.799987793</ele>
        <time>2020-07-05T07:16:28.000Z</time>
        <extensions>
          <gpxtpx:TrackPointExtension xmlns:gpxtpx="http://www.garmin.com/xmlschemas/TrackPointExtension/v1">
            <gpxtpx:hr>152</gpxtpx:hr>
          </gpxtpx:TrackPointExtension>
        </extensions>
      </trkpt>
      <trkpt lat="45.7783" lon="6.47876">
        <ele>1010</ele>
        <time>2020-07-05T07:16:29.000Z</time>
        <extensions>
          <gpxtpx:TrackPointExtension xmlns:gpxtpx="http://www.garmin.com/xmlschemas/TrackPointExtension/v1">
            <gpxtpx:hr>152</gpxtpx:hr>
          </gpxtpx:TrackPointExtension>
        </extensions>
      </trkpt>
      <trkpt lat="45.77832" lon="6.4788">
        <ele>1010.200012207</ele>
        <time>2020-07-05T07:16:30.000Z</time>
        <extensions>
          <gpxtpx:TrackPointExtension xmlns:gpxtpx="http://www.garmin.com/xmlschemas/TrackPointExtension/v1">
            <gpxtpx:hr>151</gpxtpx:hr>
          </gpxtpx:TrackPointExtension>
        </extensions>
      </trkpt>
      <trkpt lat="45.77841" lon="6.47894">
        <ele>1010.5999755859</ele>
        <time>2020-07-05T07:16:33.000Z</time>
        <extensions>
          <gpxtpx:TrackPointExtension xmlns:gpxtpx="http://www.garmin.com/xmlschemas/TrackPointExtension/v1">
            <gpxtpx:hr>150</gpxtpx:hr>
          </gpxtpx:TrackPointExtension>
        </extensions>
      </trkpt>
      <trkpt lat="45.77842" lon="6.479">
        <ele>1010.799987793</ele>
        <time>2020-07-05T07:16:34.000Z</time>
        <extensions>
          <gpxtpx:TrackPointExtension xmlns:gpxtpx="http://www.garmin.com/xmlschemas/TrackPointExtension/v1">
            <gpxtpx:hr>150</gpxtpx:hr>
          </gpxtpx:TrackPointExtension>
        </extensions>
      </trkpt>
      <trkpt lat="45.77844" lon="6.47906">
        <ele>1011.200012207</ele>
        <time>2020-07-05T07:16:35.000Z</time>
        <extensions>
          <gpxtpx:TrackPointExtension xmlns:gpxtpx="http://www.garmin.com/xmlschemas/TrackPointExtension/v1">
            <gpxtpx:hr>150</gpxtpx:hr>
          </gpxtpx:TrackPointExtension>
        </extensions>
      </trkpt>
      <trkpt lat="45.77851" lon="6.47926">
        <ele>1012</ele>
        <time>2020-07-05T07:16:39.000Z</time>
        <extensions>
          <gpxtpx:TrackPointExtension xmlns:gpxtpx="http://www.garmin.com/xmlschemas/TrackPointExtension/v1">
            <gpxtpx:hr>149</gpxtpx:hr>
          </gpxtpx:TrackPointExtension>
        </extensions>
      </trkpt>
      <trkpt lat="45.77853" lon="6.47937">
        <ele>1012.200012207</ele>
        <time>2020-07-05T07:16:41.000Z</time>
        <extensions>
          <gpxtpx:TrackPointExtension xmlns:gpxtpx="http://www.garmin.com/xmlschemas/TrackPointExtension/v1">
            <gpxtpx:hr>149</gpxtpx:hr>
          </gpxtpx:TrackPointExtension>
        </extensions>
      </trkpt>
      <trkpt lat="45.77858" lon="6.47953">
        <ele>1013</ele>
        <time>2020-07-05T07:16:44.000Z</time>
        <extensions>
          <gpxtpx:TrackPointExtension xmlns:gpxtpx="http://www.garmin.com/xmlschemas/TrackPointExtension/v1">
            <gpxtpx:hr>149</gpxtpx:hr>
          </gpxtpx:TrackPointExtension>
        </extensions>
      </trkpt>
      <trkpt lat="45.77866" lon="6.47975">
        <ele>1014</ele>
        <time>2020-07-05T07:16:48.000Z</time>
        <extensions>
          <gpxtpx:TrackPointExtension xmlns:gpxtpx="http://www.garmin.com/xmlschemas/TrackPointExtension/v1">
            <gpxtpx:hr>149</gpxtpx:hr>
          </gpxtpx:TrackPointExtension>
        </extensions>
      </trkpt>
      <trkpt lat="45.77876" lon="6.47997">
        <ele>1014.5999755859</ele>
        <time>2020-07-05T07:16:52.000Z</time>
        <extensions>
          <gpxtpx:TrackPointExtension xmlns:gpxtpx="http://www.garmin.com/xmlschemas/TrackPointExtension/v1">
            <gpxtpx:hr>149</gpxtpx:hr>
          </gpxtpx:TrackPointExtension>
        </extensions>
      </trkpt>
      <trkpt lat="45.77884" lon="6.48007">
        <ele>1014.799987793</ele>
        <time>2020-07-05T07:16:54.000Z</time>
        <extensions>
          <gpxtpx:TrackPointExtension xmlns:gpxtpx="http://www.garmin.com/xmlschemas/TrackPointExtension/v1">
            <gpxtpx:hr>149</gpxtpx:hr>
          </gpxtpx:TrackPointExtension>
        </extensions>
      </trkpt>
      <trkpt lat="45.77888" lon="6.48011">
        <ele>1014.799987793</ele>
        <time>2020-07-05T07:16:55.000Z</time>
        <extensions>
          <gpxtpx:TrackPointExtension xmlns:gpxtpx="http://www.garmin.com/xmlschemas/TrackPointExtension/v1">
            <gpxtpx:hr>149</gpxtpx:hr>
          </gpxtpx:TrackPointExtension>
        </extensions>
      </trkpt>
      <trkpt lat="45.77902" lon="6.48022">
        <ele>1015.200012207</ele>
        <time>2020-07-05T07:16:58.000Z</time>
        <extensions>
          <gpxtpx:TrackPointExtension xmlns:gpxtpx="http://www.garmin.com/xmlschemas/TrackPointExtension/v1">
            <gpxtpx:hr>149</gpxtpx:hr>
          </gpxtpx:TrackPointExtension>
        </extensions>
      </trkpt>
      <trkpt lat="45.77923" lon="6.48033">
        <ele>1015.4000244141</ele>
        <time>2020-07-05T07:17:02.000Z</time>
        <extensions>
          <gpxtpx:TrackPointExtension xmlns:gpxtpx="http://www.garmin.com/xmlschemas/TrackPointExtension/v1">
            <gpxtpx:hr>150</gpxtpx:hr>
          </gpxtpx:TrackPointExtension>
        </extensions>
      </trkpt>
      <trkpt lat="45.77937" lon="6.48047">
        <ele>1015.4000244141</ele>
        <time>2020-07-05T07:17:05.000Z</time>
        <extensions>
          <gpxtpx:TrackPointExtension xmlns:gpxtpx="http://www.garmin.com/xmlschemas/TrackPointExtension/v1">
            <gpxtpx:hr>150</gpxtpx:hr>
          </gpxtpx:TrackPointExtension>
        </extensions>
      </trkpt>
      <trkpt lat="45.7794" lon="6.48052">
        <ele>1015.4000244141</ele>
        <time>2020-07-05T07:17:06.000Z</time>
        <extensions>
          <gpxtpx:TrackPointExtension xmlns:gpxtpx="http://www.garmin.com/xmlschemas/TrackPointExtension/v1">
            <gpxtpx:hr>149</gpxtpx:hr>
          </gpxtpx:TrackPointExtension>
        </extensions>
      </trkpt>
      <trkpt lat="45.77951" lon="6.48068">
        <ele>1015.5999755859</ele>
        <time>2020-07-05T07:17:09.000Z</time>
        <extensions>
          <gpxtpx:TrackPointExtension xmlns:gpxtpx="http://www.garmin.com/xmlschemas/TrackPointExtension/v1">
            <gpxtpx:hr>150</gpxtpx:hr>
          </gpxtpx:TrackPointExtension>
        </extensions>
      </trkpt>
      <trkpt lat="45.77963" lon="6.48083">
        <ele>1016</ele>
        <time>2020-07-05T07:17:12.000Z</time>
        <extensions>
          <gpxtpx:TrackPointExtension xmlns:gpxtpx="http://www.garmin.com/xmlschemas/TrackPointExtension/v1">
            <gpxtpx:hr>149</gpxtpx:hr>
          </gpxtpx:TrackPointExtension>
        </extensions>
      </trkpt>
      <trkpt lat="45.77971" lon="6.48092">
        <ele>1016.200012207</ele>
        <time>2020-07-05T07:17:14.000Z</time>
        <extensions>
          <gpxtpx:TrackPointExtension xmlns:gpxtpx="http://www.garmin.com/xmlschemas/TrackPointExtension/v1">
            <gpxtpx:hr>150</gpxtpx:hr>
          </gpxtpx:TrackPointExtension>
        </extensions>
      </trkpt>
      <trkpt lat="45.77979" lon="6.48098">
        <ele>1016.5999755859</ele>
        <time>2020-07-05T07:17:16.000Z</time>
        <extensions>
          <gpxtpx:TrackPointExtension xmlns:gpxtpx="http://www.garmin.com/xmlschemas/TrackPointExtension/v1">
            <gpxtpx:hr>149</gpxtpx:hr>
          </gpxtpx:TrackPointExtension>
        </extensions>
      </trkpt>
      <trkpt lat="45.77983" lon="6.481">
        <ele>1016.799987793</ele>
        <time>2020-07-05T07:17:17.000Z</time>
        <extensions>
          <gpxtpx:TrackPointExtension xmlns:gpxtpx="http://www.garmin.com/xmlschemas/TrackPointExtension/v1">
            <gpxtpx:hr>149</gpxtpx:hr>
          </gpxtpx:TrackPointExtension>
        </extensions>
      </trkpt>
      <trkpt lat="45.77991" lon="6.48103">
        <ele>1017.4000244141</ele>
        <time>2020-07-05T07:17:19.000Z</time>
        <extensions>
          <gpxtpx:TrackPointExtension xmlns:gpxtpx="http://www.garmin.com/xmlschemas/TrackPointExtension/v1">
            <gpxtpx:hr>148</gpxtpx:hr>
          </gpxtpx:TrackPointExtension>
        </extensions>
      </trkpt>
      <trkpt lat="45.77997" lon="6.48104">
        <ele>1017.5999755859</ele>
        <time>2020-07-05T07:17:21.000Z</time>
        <extensions>
          <gpxtpx:TrackPointExtension xmlns:gpxtpx="http://www.garmin.com/xmlschemas/TrackPointExtension/v1">
            <gpxtpx:hr>145</gpxtpx:hr>
          </gpxtpx:TrackPointExtension>
        </extensions>
      </trkpt>
      <trkpt lat="45.78001" lon="6.48105">
        <ele>1017.5999755859</ele>
        <time>2020-07-05T07:17:22.000Z</time>
        <extensions>
          <gpxtpx:TrackPointExtension xmlns:gpxtpx="http://www.garmin.com/xmlschemas/TrackPointExtension/v1">
            <gpxtpx:hr>144</gpxtpx:hr>
          </gpxtpx:TrackPointExtension>
        </extensions>
      </trkpt>
      <trkpt lat="45.78005" lon="6.48107">
        <ele>1017.5999755859</ele>
        <time>2020-07-05T07:17:23.000Z</time>
        <extensions>
          <gpxtpx:TrackPointExtension xmlns:gpxtpx="http://www.garmin.com/xmlschemas/TrackPointExtension/v1">
            <gpxtpx:hr>143</gpxtpx:hr>
          </gpxtpx:TrackPointExtension>
        </extensions>
      </trkpt>
      <trkpt lat="45.78014" lon="6.48114">
        <ele>1017</ele>
        <time>2020-07-05T07:17:25.000Z</time>
        <extensions>
          <gpxtpx:TrackPointExtension xmlns:gpxtpx="http://www.garmin.com/xmlschemas/TrackPointExtension/v1">
            <gpxtpx:hr>141</gpxtpx:hr>
          </gpxtpx:TrackPointExtension>
        </extensions>
      </trkpt>
      <trkpt lat="45.78026" lon="6.4812">
        <ele>1016.4000244141</ele>
        <time>2020-07-05T07:17:28.000Z</time>
        <extensions>
          <gpxtpx:TrackPointExtension xmlns:gpxtpx="http://www.garmin.com/xmlschemas/TrackPointExtension/v1">
            <gpxtpx:hr>138</gpxtpx:hr>
          </gpxtpx:TrackPointExtension>
        </extensions>
      </trkpt>
      <trkpt lat="45.78028" lon="6.4812">
        <ele>1016.4000244141</ele>
        <time>2020-07-05T07:17:29.000Z</time>
        <extensions>
          <gpxtpx:TrackPointExtension xmlns:gpxtpx="http://www.garmin.com/xmlschemas/TrackPointExtension/v1">
            <gpxtpx:hr>137</gpxtpx:hr>
          </gpxtpx:TrackPointExtension>
        </extensions>
      </trkpt>
      <trkpt lat="45.78028" lon="6.4812">
        <ele>1016.200012207</ele>
        <time>2020-07-05T07:17:32.000Z</time>
        <extensions>
          <gpxtpx:TrackPointExtension xmlns:gpxtpx="http://www.garmin.com/xmlschemas/TrackPointExtension/v1">
            <gpxtpx:hr>135</gpxtpx:hr>
          </gpxtpx:TrackPointExtension>
        </extensions>
      </trkpt>
      <trkpt lat="45.78028" lon="6.48119">
        <ele>1016</ele>
        <time>2020-07-05T07:17:33.000Z</time>
        <extensions>
          <gpxtpx:TrackPointExtension xmlns:gpxtpx="http://www.garmin.com/xmlschemas/TrackPointExtension/v1">
            <gpxtpx:hr>135</gpxtpx:hr>
          </gpxtpx:TrackPointExtension>
        </extensions>
      </trkpt>
      <trkpt lat="45.78033" lon="6.48117">
        <ele>1015.799987793</ele>
        <time>2020-07-05T07:17:36.000Z</time>
        <extensions>
          <gpxtpx:TrackPointExtension xmlns:gpxtpx="http://www.garmin.com/xmlschemas/TrackPointExtension/v1">
            <gpxtpx:hr>135</gpxtpx:hr>
          </gpxtpx:TrackPointExtension>
        </extensions>
      </trkpt>
      <trkpt lat="45.78033" lon="6.48117">
        <ele>1015.799987793</ele>
        <time>2020-07-05T07:17:41.000Z</time>
        <extensions>
          <gpxtpx:TrackPointExtension xmlns:gpxtpx="http://www.garmin.com/xmlschemas/TrackPointExtension/v1">
            <gpxtpx:hr>133</gpxtpx:hr>
          </gpxtpx:TrackPointExtension>
        </extensions>
      </trkpt>
      <trkpt lat="45.78033" lon="6.48117">
        <ele>1015.799987793</ele>
        <time>2020-07-05T07:17:53.000Z</time>
        <extensions>
          <gpxtpx:TrackPointExtension xmlns:gpxtpx="http://www.garmin.com/xmlschemas/TrackPointExtension/v1">
            <gpxtpx:hr>133</gpxtpx:hr>
          </gpxtpx:TrackPointExtension>
        </extensions>
      </trkpt>
      <trkpt lat="45.78033" lon="6.48117">
        <ele>1015.799987793</ele>
        <time>2020-07-05T07:17:54.000Z</time>
        <extensions>
          <gpxtpx:TrackPointExtension xmlns:gpxtpx="http://www.garmin.com/xmlschemas/TrackPointExtension/v1">
            <gpxtpx:hr>130</gpxtpx:hr>
          </gpxtpx:TrackPointExtension>
        </extensions>
      </trkpt>
      <trkpt lat="45.78033" lon="6.48117">
        <ele>1015.799987793</ele>
        <time>2020-07-05T07:17:57.000Z</time>
        <extensions>
          <gpxtpx:TrackPointExtension xmlns:gpxtpx="http://www.garmin.com/xmlschemas/TrackPointExtension/v1">
            <gpxtpx:hr>127</gpxtpx:hr>
          </gpxtpx:TrackPointExtension>
        </extensions>
      </trkpt>
      <trkpt lat="45.78033" lon="6.48117">
        <ele>1015.5999755859</ele>
        <time>2020-07-05T07:17:58.000Z</time>
        <extensions>
          <gpxtpx:TrackPointExtension xmlns:gpxtpx="http://www.garmin.com/xmlschemas/TrackPointExtension/v1">
            <gpxtpx:hr>126</gpxtpx:hr>
          </gpxtpx:TrackPointExtension>
        </extensions>
      </trkpt>
      <trkpt lat="45.78038" lon="6.4812">
        <ele>1015.4000244141</ele>
        <time>2020-07-05T07:18:00.000Z</time>
        <extensions>
          <gpxtpx:TrackPointExtension xmlns:gpxtpx="http://www.garmin.com/xmlschemas/TrackPointExtension/v1">
            <gpxtpx:hr>125</gpxtpx:hr>
          </gpxtpx:TrackPointExtension>
        </extensions>
      </trkpt>
      <trkpt lat="45.78042" lon="6.48123">
        <ele>1015.200012207</ele>
        <time>2020-07-05T07:18:01.000Z</time>
        <extensions>
          <gpxtpx:TrackPointExtension xmlns:gpxtpx="http://www.garmin.com/xmlschemas/TrackPointExtension/v1">
            <gpxtpx:hr>124</gpxtpx:hr>
          </gpxtpx:TrackPointExtension>
        </extensions>
      </trkpt>
      <trkpt lat="45.78054" lon="6.48128">
        <ele>1014.200012207</ele>
        <time>2020-07-05T07:18:03.000Z</time>
        <extensions>
          <gpxtpx:TrackPointExtension xmlns:gpxtpx="http://www.garmin.com/xmlschemas/TrackPointExtension/v1">
            <gpxtpx:hr>123</gpxtpx:hr>
          </gpxtpx:TrackPointExtension>
        </extensions>
      </trkpt>
      <trkpt lat="45.78067" lon="6.48135">
        <ele>1012.799987793</ele>
        <time>2020-07-05T07:18:05.000Z</time>
        <extensions>
          <gpxtpx:TrackPointExtension xmlns:gpxtpx="http://www.garmin.com/xmlschemas/TrackPointExtension/v1">
            <gpxtpx:hr>123</gpxtpx:hr>
          </gpxtpx:TrackPointExtension>
        </extensions>
      </trkpt>
      <trkpt lat="45.78083" lon="6.48142">
        <ele>1010.799987793</ele>
        <time>2020-07-05T07:18:07.000Z</time>
        <extensions>
          <gpxtpx:TrackPointExtension xmlns:gpxtpx="http://www.garmin.com/xmlschemas/TrackPointExtension/v1">
            <gpxtpx:hr>122</gpxtpx:hr>
          </gpxtpx:TrackPointExtension>
        </extensions>
      </trkpt>
      <trkpt lat="45.78091" lon="6.48146">
        <ele>1009.5999755859</ele>
        <time>2020-07-05T07:18:08.000Z</time>
        <extensions>
          <gpxtpx:TrackPointExtension xmlns:gpxtpx="http://www.garmin.com/xmlschemas/TrackPointExtension/v1">
            <gpxtpx:hr>121</gpxtpx:hr>
          </gpxtpx:TrackPointExtension>
        </extensions>
      </trkpt>
      <trkpt lat="45.781" lon="6.48149">
        <ele>1008.4000244141</ele>
        <time>2020-07-05T07:18:09.000Z</time>
        <extensions>
          <gpxtpx:TrackPointExtension xmlns:gpxtpx="http://www.garmin.com/xmlschemas/TrackPointExtension/v1">
            <gpxtpx:hr>121</gpxtpx:hr>
          </gpxtpx:TrackPointExtension>
        </extensions>
      </trkpt>
      <trkpt lat="45.78111" lon="6.48152">
        <ele>1007</ele>
        <time>2020-07-05T07:18:10.000Z</time>
        <extensions>
          <gpxtpx:TrackPointExtension xmlns:gpxtpx="http://www.garmin.com/xmlschemas/TrackPointExtension/v1">
            <gpxtpx:hr>121</gpxtpx:hr>
          </gpxtpx:TrackPointExtension>
        </extensions>
      </trkpt>
      <trkpt lat="45.78121" lon="6.48155">
        <ele>1005</ele>
        <time>2020-07-05T07:18:11.000Z</time>
        <extensions>
          <gpxtpx:TrackPointExtension xmlns:gpxtpx="http://www.garmin.com/xmlschemas/TrackPointExtension/v1">
            <gpxtpx:hr>120</gpxtpx:hr>
          </gpxtpx:TrackPointExtension>
        </extensions>
      </trkpt>
      <trkpt lat="45.78131" lon="6.48157">
        <ele>1003.4000244141</ele>
        <time>2020-07-05T07:18:12.000Z</time>
        <extensions>
          <gpxtpx:TrackPointExtension xmlns:gpxtpx="http://www.garmin.com/xmlschemas/TrackPointExtension/v1">
            <gpxtpx:hr>119</gpxtpx:hr>
          </gpxtpx:TrackPointExtension>
        </extensions>
      </trkpt>
      <trkpt lat="45.7814" lon="6.48159">
        <ele>1002.200012207</ele>
        <time>2020-07-05T07:18:13.000Z</time>
        <extensions>
          <gpxtpx:TrackPointExtension xmlns:gpxtpx="http://www.garmin.com/xmlschemas/TrackPointExtension/v1">
            <gpxtpx:hr>119</gpxtpx:hr>
          </gpxtpx:TrackPointExtension>
        </extensions>
      </trkpt>
      <trkpt lat="45.78148" lon="6.48161">
        <ele>1000.799987793</ele>
        <time>2020-07-05T07:18:14.000Z</time>
        <extensions>
          <gpxtpx:TrackPointExtension xmlns:gpxtpx="http://www.garmin.com/xmlschemas/TrackPointExtension/v1">
            <gpxtpx:hr>118</gpxtpx:hr>
          </gpxtpx:TrackPointExtension>
        </extensions>
      </trkpt>
      <trkpt lat="45.78157" lon="6.48162">
        <ele>999.59997558594</ele>
        <time>2020-07-05T07:18:15.000Z</time>
        <extensions>
          <gpxtpx:TrackPointExtension xmlns:gpxtpx="http://www.garmin.com/xmlschemas/TrackPointExtension/v1">
            <gpxtpx:hr>118</gpxtpx:hr>
          </gpxtpx:TrackPointExtension>
        </extensions>
      </trkpt>
      <trkpt lat="45.78168" lon="6.4816">
        <ele>998.20001220703</ele>
        <time>2020-07-05T07:18:16.000Z</time>
        <extensions>
          <gpxtpx:TrackPointExtension xmlns:gpxtpx="http://www.garmin.com/xmlschemas/TrackPointExtension/v1">
            <gpxtpx:hr>119</gpxtpx:hr>
          </gpxtpx:TrackPointExtension>
        </extensions>
      </trkpt>
      <trkpt lat="45.78182" lon="6.48157">
        <ele>996.59997558594</ele>
        <time>2020-07-05T07:18:17.000Z</time>
        <extensions>
          <gpxtpx:TrackPointExtension xmlns:gpxtpx="http://www.garmin.com/xmlschemas/TrackPointExtension/v1">
            <gpxtpx:hr>119</gpxtpx:hr>
          </gpxtpx:TrackPointExtension>
        </extensions>
      </trkpt>
      <trkpt lat="45.78197" lon="6.48155">
        <ele>994.79998779297</ele>
        <time>2020-07-05T07:18:18.000Z</time>
        <extensions>
          <gpxtpx:TrackPointExtension xmlns:gpxtpx="http://www.garmin.com/xmlschemas/TrackPointExtension/v1">
            <gpxtpx:hr>118</gpxtpx:hr>
          </gpxtpx:TrackPointExtension>
        </extensions>
      </trkpt>
      <trkpt lat="45.78213" lon="6.48152">
        <ele>993.20001220703</ele>
        <time>2020-07-05T07:18:19.000Z</time>
        <extensions>
          <gpxtpx:TrackPointExtension xmlns:gpxtpx="http://www.garmin.com/xmlschemas/TrackPointExtension/v1">
            <gpxtpx:hr>118</gpxtpx:hr>
          </gpxtpx:TrackPointExtension>
        </extensions>
      </trkpt>
      <trkpt lat="45.78229" lon="6.48152">
        <ele>991.79998779297</ele>
        <time>2020-07-05T07:18:20.000Z</time>
        <extensions>
          <gpxtpx:TrackPointExtension xmlns:gpxtpx="http://www.garmin.com/xmlschemas/TrackPointExtension/v1">
            <gpxtpx:hr>118</gpxtpx:hr>
          </gpxtpx:TrackPointExtension>
        </extensions>
      </trkpt>
      <trkpt lat="45.78243" lon="6.48153">
        <ele>990.59997558594</ele>
        <time>2020-07-05T07:18:21.000Z</time>
        <extensions>
          <gpxtpx:TrackPointExtension xmlns:gpxtpx="http://www.garmin.com/xmlschemas/TrackPointExtension/v1">
            <gpxtpx:hr>118</gpxtpx:hr>
          </gpxtpx:TrackPointExtension>
        </extensions>
      </trkpt>
      <trkpt lat="45.7827" lon="6.48155">
        <ele>988.59997558594</ele>
        <time>2020-07-05T07:18:23.000Z</time>
        <extensions>
          <gpxtpx:TrackPointExtension xmlns:gpxtpx="http://www.garmin.com/xmlschemas/TrackPointExtension/v1">
            <gpxtpx:hr>118</gpxtpx:hr>
          </gpxtpx:TrackPointExtension>
        </extensions>
      </trkpt>
      <trkpt lat="45.78283" lon="6.48155">
        <ele>987.59997558594</ele>
        <time>2020-07-05T07:18:24.000Z</time>
        <extensions>
          <gpxtpx:TrackPointExtension xmlns:gpxtpx="http://www.garmin.com/xmlschemas/TrackPointExtension/v1">
            <gpxtpx:hr>118</gpxtpx:hr>
          </gpxtpx:TrackPointExtension>
        </extensions>
      </trkpt>
      <trkpt lat="45.78298" lon="6.48155">
        <ele>986.20001220703</ele>
        <time>2020-07-05T07:18:25.000Z</time>
        <extensions>
          <gpxtpx:TrackPointExtension xmlns:gpxtpx="http://www.garmin.com/xmlschemas/TrackPointExtension/v1">
            <gpxtpx:hr>118</gpxtpx:hr>
          </gpxtpx:TrackPointExtension>
        </extensions>
      </trkpt>
      <trkpt lat="45.78313" lon="6.48154">
        <ele>985</ele>
        <time>2020-07-05T07:18:26.000Z</time>
        <extensions>
          <gpxtpx:TrackPointExtension xmlns:gpxtpx="http://www.garmin.com/xmlschemas/TrackPointExtension/v1">
            <gpxtpx:hr>118</gpxtpx:hr>
          </gpxtpx:TrackPointExtension>
        </extensions>
      </trkpt>
      <trkpt lat="45.78341" lon="6.48151">
        <ele>982.59997558594</ele>
        <time>2020-07-05T07:18:28.000Z</time>
        <extensions>
          <gpxtpx:TrackPointExtension xmlns:gpxtpx="http://www.garmin.com/xmlschemas/TrackPointExtension/v1">
            <gpxtpx:hr>118</gpxtpx:hr>
          </gpxtpx:TrackPointExtension>
        </extensions>
      </trkpt>
      <trkpt lat="45.78355" lon="6.4815">
        <ele>981.40002441406</ele>
        <time>2020-07-05T07:18:29.000Z</time>
        <extensions>
          <gpxtpx:TrackPointExtension xmlns:gpxtpx="http://www.garmin.com/xmlschemas/TrackPointExtension/v1">
            <gpxtpx:hr>117</gpxtpx:hr>
          </gpxtpx:TrackPointExtension>
        </extensions>
      </trkpt>
      <trkpt lat="45.78369" lon="6.4815">
        <ele>980.20001220703</ele>
        <time>2020-07-05T07:18:30.000Z</time>
        <extensions>
          <gpxtpx:TrackPointExtension xmlns:gpxtpx="http://www.garmin.com/xmlschemas/TrackPointExtension/v1">
            <gpxtpx:hr>117</gpxtpx:hr>
          </gpxtpx:TrackPointExtension>
        </extensions>
      </trkpt>
      <trkpt lat="45.78382" lon="6.4815">
        <ele>978.79998779297</ele>
        <time>2020-07-05T07:18:31.000Z</time>
        <extensions>
          <gpxtpx:TrackPointExtension xmlns:gpxtpx="http://www.garmin.com/xmlschemas/TrackPointExtension/v1">
            <gpxtpx:hr>115</gpxtpx:hr>
          </gpxtpx:TrackPointExtension>
        </extensions>
      </trkpt>
      <trkpt lat="45.78394" lon="6.4815">
        <ele>977.40002441406</ele>
        <time>2020-07-05T07:18:32.000Z</time>
        <extensions>
          <gpxtpx:TrackPointExtension xmlns:gpxtpx="http://www.garmin.com/xmlschemas/TrackPointExtension/v1">
            <gpxtpx:hr>115</gpxtpx:hr>
          </gpxtpx:TrackPointExtension>
        </extensions>
      </trkpt>
      <trkpt lat="45.78405" lon="6.48147">
        <ele>976.20001220703</ele>
        <time>2020-07-05T07:18:33.000Z</time>
        <extensions>
          <gpxtpx:TrackPointExtension xmlns:gpxtpx="http://www.garmin.com/xmlschemas/TrackPointExtension/v1">
            <gpxtpx:hr>114</gpxtpx:hr>
          </gpxtpx:TrackPointExtension>
        </extensions>
      </trkpt>
      <trkpt lat="45.78417" lon="6.48144">
        <ele>975.40002441406</ele>
        <time>2020-07-05T07:18:34.000Z</time>
        <extensions>
          <gpxtpx:TrackPointExtension xmlns:gpxtpx="http://www.garmin.com/xmlschemas/TrackPointExtension/v1">
            <gpxtpx:hr>114</gpxtpx:hr>
          </gpxtpx:TrackPointExtension>
        </extensions>
      </trkpt>
      <trkpt lat="45.78429" lon="6.48145">
        <ele>974.79998779297</ele>
        <time>2020-07-05T07:18:35.000Z</time>
        <extensions>
          <gpxtpx:TrackPointExtension xmlns:gpxtpx="http://www.garmin.com/xmlschemas/TrackPointExtension/v1">
            <gpxtpx:hr>113</gpxtpx:hr>
          </gpxtpx:TrackPointExtension>
        </extensions>
      </trkpt>
      <trkpt lat="45.78439" lon="6.48149">
        <ele>974.40002441406</ele>
        <time>2020-07-05T07:18:36.000Z</time>
        <extensions>
          <gpxtpx:TrackPointExtension xmlns:gpxtpx="http://www.garmin.com/xmlschemas/TrackPointExtension/v1">
            <gpxtpx:hr>113</gpxtpx:hr>
          </gpxtpx:TrackPointExtension>
        </extensions>
      </trkpt>
      <trkpt lat="45.78451" lon="6.48154">
        <ele>973.79998779297</ele>
        <time>2020-07-05T07:18:37.000Z</time>
        <extensions>
          <gpxtpx:TrackPointExtension xmlns:gpxtpx="http://www.garmin.com/xmlschemas/TrackPointExtension/v1">
            <gpxtpx:hr>113</gpxtpx:hr>
          </gpxtpx:TrackPointExtension>
        </extensions>
      </trkpt>
      <trkpt lat="45.7847" lon="6.48159">
        <ele>971.79998779297</ele>
        <time>2020-07-05T07:18:39.000Z</time>
        <extensions>
          <gpxtpx:TrackPointExtension xmlns:gpxtpx="http://www.garmin.com/xmlschemas/TrackPointExtension/v1">
            <gpxtpx:hr>113</gpxtpx:hr>
          </gpxtpx:TrackPointExtension>
        </extensions>
      </trkpt>
      <trkpt lat="45.78481" lon="6.4816">
        <ele>970.59997558594</ele>
        <time>2020-07-05T07:18:40.000Z</time>
        <extensions>
          <gpxtpx:TrackPointExtension xmlns:gpxtpx="http://www.garmin.com/xmlschemas/TrackPointExtension/v1">
            <gpxtpx:hr>113</gpxtpx:hr>
          </gpxtpx:TrackPointExtension>
        </extensions>
      </trkpt>
      <trkpt lat="45.78493" lon="6.48161">
        <ele>969.40002441406</ele>
        <time>2020-07-05T07:18:41.000Z</time>
        <extensions>
          <gpxtpx:TrackPointExtension xmlns:gpxtpx="http://www.garmin.com/xmlschemas/TrackPointExtension/v1">
            <gpxtpx:hr>114</gpxtpx:hr>
          </gpxtpx:TrackPointExtension>
        </extensions>
      </trkpt>
      <trkpt lat="45.78504" lon="6.48162">
        <ele>968</ele>
        <time>2020-07-05T07:18:42.000Z</time>
        <extensions>
          <gpxtpx:TrackPointExtension xmlns:gpxtpx="http://www.garmin.com/xmlschemas/TrackPointExtension/v1">
            <gpxtpx:hr>114</gpxtpx:hr>
          </gpxtpx:TrackPointExtension>
        </extensions>
      </trkpt>
      <trkpt lat="45.78512" lon="6.48164">
        <ele>966.79998779297</ele>
        <time>2020-07-05T07:18:43.000Z</time>
        <extensions>
          <gpxtpx:TrackPointExtension xmlns:gpxtpx="http://www.garmin.com/xmlschemas/TrackPointExtension/v1">
            <gpxtpx:hr>115</gpxtpx:hr>
          </gpxtpx:TrackPointExtension>
        </extensions>
      </trkpt>
      <trkpt lat="45.78526" lon="6.48175">
        <ele>965</ele>
        <time>2020-07-05T07:18:45.000Z</time>
        <extensions>
          <gpxtpx:TrackPointExtension xmlns:gpxtpx="http://www.garmin.com/xmlschemas/TrackPointExtension/v1">
            <gpxtpx:hr>116</gpxtpx:hr>
          </gpxtpx:TrackPointExtension>
        </extensions>
      </trkpt>
      <trkpt lat="45.78531" lon="6.48185">
        <ele>964.20001220703</ele>
        <time>2020-07-05T07:18:46.000Z</time>
        <extensions>
          <gpxtpx:TrackPointExtension xmlns:gpxtpx="http://www.garmin.com/xmlschemas/TrackPointExtension/v1">
            <gpxtpx:hr>117</gpxtpx:hr>
          </gpxtpx:TrackPointExtension>
        </extensions>
      </trkpt>
      <trkpt lat="45.78533" lon="6.48196">
        <ele>963.40002441406</ele>
        <time>2020-07-05T07:18:47.000Z</time>
        <extensions>
          <gpxtpx:TrackPointExtension xmlns:gpxtpx="http://www.garmin.com/xmlschemas/TrackPointExtension/v1">
            <gpxtpx:hr>117</gpxtpx:hr>
          </gpxtpx:TrackPointExtension>
        </extensions>
      </trkpt>
      <trkpt lat="45.7854" lon="6.48218">
        <ele>961.59997558594</ele>
        <time>2020-07-05T07:18:49.000Z</time>
        <extensions>
          <gpxtpx:TrackPointExtension xmlns:gpxtpx="http://www.garmin.com/xmlschemas/TrackPointExtension/v1">
            <gpxtpx:hr>117</gpxtpx:hr>
          </gpxtpx:TrackPointExtension>
        </extensions>
      </trkpt>
      <trkpt lat="45.78553" lon="6.48233">
        <ele>959.59997558594</ele>
        <time>2020-07-05T07:18:51.000Z</time>
        <extensions>
          <gpxtpx:TrackPointExtension xmlns:gpxtpx="http://www.garmin.com/xmlschemas/TrackPointExtension/v1">
            <gpxtpx:hr>116</gpxtpx:hr>
          </gpxtpx:TrackPointExtension>
        </extensions>
      </trkpt>
      <trkpt lat="45.78558" lon="6.48238">
        <ele>958.40002441406</ele>
        <time>2020-07-05T07:18:52.000Z</time>
        <extensions>
          <gpxtpx:TrackPointExtension xmlns:gpxtpx="http://www.garmin.com/xmlschemas/TrackPointExtension/v1">
            <gpxtpx:hr>115</gpxtpx:hr>
          </gpxtpx:TrackPointExtension>
        </extensions>
      </trkpt>
      <trkpt lat="45.78571" lon="6.48248">
        <ele>956.59997558594</ele>
        <time>2020-07-05T07:18:54.000Z</time>
        <extensions>
          <gpxtpx:TrackPointExtension xmlns:gpxtpx="http://www.garmin.com/xmlschemas/TrackPointExtension/v1">
            <gpxtpx:hr>114</gpxtpx:hr>
          </gpxtpx:TrackPointExtension>
        </extensions>
      </trkpt>
      <trkpt lat="45.78578" lon="6.48252">
        <ele>955.20001220703</ele>
        <time>2020-07-05T07:18:55.000Z</time>
        <extensions>
          <gpxtpx:TrackPointExtension xmlns:gpxtpx="http://www.garmin.com/xmlschemas/TrackPointExtension/v1">
            <gpxtpx:hr>114</gpxtpx:hr>
          </gpxtpx:TrackPointExtension>
        </extensions>
      </trkpt>
      <trkpt lat="45.78588" lon="6.48252">
        <ele>953.79998779297</ele>
        <time>2020-07-05T07:18:56.000Z</time>
        <extensions>
          <gpxtpx:TrackPointExtension xmlns:gpxtpx="http://www.garmin.com/xmlschemas/TrackPointExtension/v1">
            <gpxtpx:hr>113</gpxtpx:hr>
          </gpxtpx:TrackPointExtension>
        </extensions>
      </trkpt>
      <trkpt lat="45.78594" lon="6.48253">
        <ele>952.59997558594</ele>
        <time>2020-07-05T07:18:57.000Z</time>
        <extensions>
          <gpxtpx:TrackPointExtension xmlns:gpxtpx="http://www.garmin.com/xmlschemas/TrackPointExtension/v1">
            <gpxtpx:hr>113</gpxtpx:hr>
          </gpxtpx:TrackPointExtension>
        </extensions>
      </trkpt>
      <trkpt lat="45.78601" lon="6.48259">
        <ele>951</ele>
        <time>2020-07-05T07:18:59.000Z</time>
        <extensions>
          <gpxtpx:TrackPointExtension xmlns:gpxtpx="http://www.garmin.com/xmlschemas/TrackPointExtension/v1">
            <gpxtpx:hr>112</gpxtpx:hr>
          </gpxtpx:TrackPointExtension>
        </extensions>
      </trkpt>
      <trkpt lat="45.78604" lon="6.48262">
        <ele>950</ele>
        <time>2020-07-05T07:19:00.000Z</time>
        <extensions>
          <gpxtpx:TrackPointExtension xmlns:gpxtpx="http://www.garmin.com/xmlschemas/TrackPointExtension/v1">
            <gpxtpx:hr>112</gpxtpx:hr>
          </gpxtpx:TrackPointExtension>
        </extensions>
      </trkpt>
      <trkpt lat="45.78611" lon="6.48261">
        <ele>948.59997558594</ele>
        <time>2020-07-05T07:19:01.000Z</time>
        <extensions>
          <gpxtpx:TrackPointExtension xmlns:gpxtpx="http://www.garmin.com/xmlschemas/TrackPointExtension/v1">
            <gpxtpx:hr>112</gpxtpx:hr>
          </gpxtpx:TrackPointExtension>
        </extensions>
      </trkpt>
      <trkpt lat="45.78623" lon="6.48256">
        <ele>947.20001220703</ele>
        <time>2020-07-05T07:19:02.000Z</time>
        <extensions>
          <gpxtpx:TrackPointExtension xmlns:gpxtpx="http://www.garmin.com/xmlschemas/TrackPointExtension/v1">
            <gpxtpx:hr>111</gpxtpx:hr>
          </gpxtpx:TrackPointExtension>
        </extensions>
      </trkpt>
      <trkpt lat="45.78644" lon="6.48238">
        <ele>946</ele>
        <time>2020-07-05T07:19:03.000Z</time>
        <extensions>
          <gpxtpx:TrackPointExtension xmlns:gpxtpx="http://www.garmin.com/xmlschemas/TrackPointExtension/v1">
            <gpxtpx:hr>111</gpxtpx:hr>
          </gpxtpx:TrackPointExtension>
        </extensions>
      </trkpt>
      <trkpt lat="45.78692" lon="6.4821">
        <ele>944</ele>
        <time>2020-07-05T07:19:05.000Z</time>
        <extensions>
          <gpxtpx:TrackPointExtension xmlns:gpxtpx="http://www.garmin.com/xmlschemas/TrackPointExtension/v1">
            <gpxtpx:hr>110</gpxtpx:hr>
          </gpxtpx:TrackPointExtension>
        </extensions>
      </trkpt>
      <trkpt lat="45.78711" lon="6.48206">
        <ele>942.20001220703</ele>
        <time>2020-07-05T07:19:06.000Z</time>
        <extensions>
          <gpxtpx:TrackPointExtension xmlns:gpxtpx="http://www.garmin.com/xmlschemas/TrackPointExtension/v1">
            <gpxtpx:hr>109</gpxtpx:hr>
          </gpxtpx:TrackPointExtension>
        </extensions>
      </trkpt>
      <trkpt lat="45.78729" lon="6.48205">
        <ele>940.40002441406</ele>
        <time>2020-07-05T07:19:07.000Z</time>
        <extensions>
          <gpxtpx:TrackPointExtension xmlns:gpxtpx="http://www.garmin.com/xmlschemas/TrackPointExtension/v1">
            <gpxtpx:hr>108</gpxtpx:hr>
          </gpxtpx:TrackPointExtension>
        </extensions>
      </trkpt>
      <trkpt lat="45.78745" lon="6.48204">
        <ele>939.20001220703</ele>
        <time>2020-07-05T07:19:08.000Z</time>
        <extensions>
          <gpxtpx:TrackPointExtension xmlns:gpxtpx="http://www.garmin.com/xmlschemas/TrackPointExtension/v1">
            <gpxtpx:hr>108</gpxtpx:hr>
          </gpxtpx:TrackPointExtension>
        </extensions>
      </trkpt>
      <trkpt lat="45.78761" lon="6.48208">
        <ele>938.20001220703</ele>
        <time>2020-07-05T07:19:09.000Z</time>
        <extensions>
          <gpxtpx:TrackPointExtension xmlns:gpxtpx="http://www.garmin.com/xmlschemas/TrackPointExtension/v1">
            <gpxtpx:hr>107</gpxtpx:hr>
          </gpxtpx:TrackPointExtension>
        </extensions>
      </trkpt>
      <trkpt lat="45.78774" lon="6.48215">
        <ele>937.40002441406</ele>
        <time>2020-07-05T07:19:10.000Z</time>
        <extensions>
          <gpxtpx:TrackPointExtension xmlns:gpxtpx="http://www.garmin.com/xmlschemas/TrackPointExtension/v1">
            <gpxtpx:hr>107</gpxtpx:hr>
          </gpxtpx:TrackPointExtension>
        </extensions>
      </trkpt>
      <trkpt lat="45.78799" lon="6.48233">
        <ele>935.59997558594</ele>
        <time>2020-07-05T07:19:12.000Z</time>
        <extensions>
          <gpxtpx:TrackPointExtension xmlns:gpxtpx="http://www.garmin.com/xmlschemas/TrackPointExtension/v1">
            <gpxtpx:hr>108</gpxtpx:hr>
          </gpxtpx:TrackPointExtension>
        </extensions>
      </trkpt>
      <trkpt lat="45.78827" lon="6.48248">
        <ele>933.59997558594</ele>
        <time>2020-07-05T07:19:14.000Z</time>
        <extensions>
          <gpxtpx:TrackPointExtension xmlns:gpxtpx="http://www.garmin.com/xmlschemas/TrackPointExtension/v1">
            <gpxtpx:hr>107</gpxtpx:hr>
          </gpxtpx:TrackPointExtension>
        </extensions>
      </trkpt>
      <trkpt lat="45.78842" lon="6.48253">
        <ele>932.40002441406</ele>
        <time>2020-07-05T07:19:15.000Z</time>
        <extensions>
          <gpxtpx:TrackPointExtension xmlns:gpxtpx="http://www.garmin.com/xmlschemas/TrackPointExtension/v1">
            <gpxtpx:hr>106</gpxtpx:hr>
          </gpxtpx:TrackPointExtension>
        </extensions>
      </trkpt>
      <trkpt lat="45.78871" lon="6.4826">
        <ele>930.40002441406</ele>
        <time>2020-07-05T07:19:17.000Z</time>
        <extensions>
          <gpxtpx:TrackPointExtension xmlns:gpxtpx="http://www.garmin.com/xmlschemas/TrackPointExtension/v1">
            <gpxtpx:hr>106</gpxtpx:hr>
          </gpxtpx:TrackPointExtension>
        </extensions>
      </trkpt>
      <trkpt lat="45.78884" lon="6.48264">
        <ele>928.59997558594</ele>
        <time>2020-07-05T07:19:18.000Z</time>
        <extensions>
          <gpxtpx:TrackPointExtension xmlns:gpxtpx="http://www.garmin.com/xmlschemas/TrackPointExtension/v1">
            <gpxtpx:hr>106</gpxtpx:hr>
          </gpxtpx:TrackPointExtension>
        </extensions>
      </trkpt>
      <trkpt lat="45.78898" lon="6.48267">
        <ele>926.79998779297</ele>
        <time>2020-07-05T07:19:19.000Z</time>
        <extensions>
          <gpxtpx:TrackPointExtension xmlns:gpxtpx="http://www.garmin.com/xmlschemas/TrackPointExtension/v1">
            <gpxtpx:hr>105</gpxtpx:hr>
          </gpxtpx:TrackPointExtension>
        </extensions>
      </trkpt>
      <trkpt lat="45.7891" lon="6.48269">
        <ele>925.40002441406</ele>
        <time>2020-07-05T07:19:20.000Z</time>
        <extensions>
          <gpxtpx:TrackPointExtension xmlns:gpxtpx="http://www.garmin.com/xmlschemas/TrackPointExtension/v1">
            <gpxtpx:hr>105</gpxtpx:hr>
          </gpxtpx:TrackPointExtension>
        </extensions>
      </trkpt>
      <trkpt lat="45.78923" lon="6.48274">
        <ele>924.20001220703</ele>
        <time>2020-07-05T07:19:21.000Z</time>
        <extensions>
          <gpxtpx:TrackPointExtension xmlns:gpxtpx="http://www.garmin.com/xmlschemas/TrackPointExtension/v1">
            <gpxtpx:hr>104</gpxtpx:hr>
          </gpxtpx:TrackPointExtension>
        </extensions>
      </trkpt>
      <trkpt lat="45.78946" lon="6.48286">
        <ele>922</ele>
        <time>2020-07-05T07:19:23.000Z</time>
        <extensions>
          <gpxtpx:TrackPointExtension xmlns:gpxtpx="http://www.garmin.com/xmlschemas/TrackPointExtension/v1">
            <gpxtpx:hr>104</gpxtpx:hr>
          </gpxtpx:TrackPointExtension>
        </extensions>
      </trkpt>
      <trkpt lat="45.78958" lon="6.48294">
        <ele>921</ele>
        <time>2020-07-05T07:19:24.000Z</time>
        <extensions>
          <gpxtpx:TrackPointExtension xmlns:gpxtpx="http://www.garmin.com/xmlschemas/TrackPointExtension/v1">
            <gpxtpx:hr>104</gpxtpx:hr>
          </gpxtpx:TrackPointExtension>
        </extensions>
      </trkpt>
      <trkpt lat="45.78968" lon="6.48304">
        <ele>920.20001220703</ele>
        <time>2020-07-05T07:19:25.000Z</time>
        <extensions>
          <gpxtpx:TrackPointExtension xmlns:gpxtpx="http://www.garmin.com/xmlschemas/TrackPointExtension/v1">
            <gpxtpx:hr>103</gpxtpx:hr>
          </gpxtpx:TrackPointExtension>
        </extensions>
      </trkpt>
      <trkpt lat="45.78976" lon="6.48315">
        <ele>918.79998779297</ele>
        <time>2020-07-05T07:19:26.000Z</time>
        <extensions>
          <gpxtpx:TrackPointExtension xmlns:gpxtpx="http://www.garmin.com/xmlschemas/TrackPointExtension/v1">
            <gpxtpx:hr>103</gpxtpx:hr>
          </gpxtpx:TrackPointExtension>
        </extensions>
      </trkpt>
      <trkpt lat="45.78986" lon="6.48324">
        <ele>917</ele>
        <time>2020-07-05T07:19:27.000Z</time>
        <extensions>
          <gpxtpx:TrackPointExtension xmlns:gpxtpx="http://www.garmin.com/xmlschemas/TrackPointExtension/v1">
            <gpxtpx:hr>103</gpxtpx:hr>
          </gpxtpx:TrackPointExtension>
        </extensions>
      </trkpt>
      <trkpt lat="45.78997" lon="6.48331">
        <ele>915.59997558594</ele>
        <time>2020-07-05T07:19:28.000Z</time>
        <extensions>
          <gpxtpx:TrackPointExtension xmlns:gpxtpx="http://www.garmin.com/xmlschemas/TrackPointExtension/v1">
            <gpxtpx:hr>103</gpxtpx:hr>
          </gpxtpx:TrackPointExtension>
        </extensions>
      </trkpt>
      <trkpt lat="45.79007" lon="6.48337">
        <ele>914.59997558594</ele>
        <time>2020-07-05T07:19:29.000Z</time>
        <extensions>
          <gpxtpx:TrackPointExtension xmlns:gpxtpx="http://www.garmin.com/xmlschemas/TrackPointExtension/v1">
            <gpxtpx:hr>103</gpxtpx:hr>
          </gpxtpx:TrackPointExtension>
        </extensions>
      </trkpt>
      <trkpt lat="45.79017" lon="6.48342">
        <ele>914</ele>
        <time>2020-07-05T07:19:30.000Z</time>
        <extensions>
          <gpxtpx:TrackPointExtension xmlns:gpxtpx="http://www.garmin.com/xmlschemas/TrackPointExtension/v1">
            <gpxtpx:hr>103</gpxtpx:hr>
          </gpxtpx:TrackPointExtension>
        </extensions>
      </trkpt>
      <trkpt lat="45.79025" lon="6.48349">
        <ele>913.40002441406</ele>
        <time>2020-07-05T07:19:31.000Z</time>
        <extensions>
          <gpxtpx:TrackPointExtension xmlns:gpxtpx="http://www.garmin.com/xmlschemas/TrackPointExtension/v1">
            <gpxtpx:hr>104</gpxtpx:hr>
          </gpxtpx:TrackPointExtension>
        </extensions>
      </trkpt>
      <trkpt lat="45.79032" lon="6.48357">
        <ele>912.59997558594</ele>
        <time>2020-07-05T07:19:32.000Z</time>
        <extensions>
          <gpxtpx:TrackPointExtension xmlns:gpxtpx="http://www.garmin.com/xmlschemas/TrackPointExtension/v1">
            <gpxtpx:hr>105</gpxtpx:hr>
          </gpxtpx:TrackPointExtension>
        </extensions>
      </trkpt>
      <trkpt lat="45.79037" lon="6.48368">
        <ele>911.59997558594</ele>
        <time>2020-07-05T07:19:33.000Z</time>
        <extensions>
          <gpxtpx:TrackPointExtension xmlns:gpxtpx="http://www.garmin.com/xmlschemas/TrackPointExtension/v1">
            <gpxtpx:hr>106</gpxtpx:hr>
          </gpxtpx:TrackPointExtension>
        </extensions>
      </trkpt>
      <trkpt lat="45.79038" lon="6.48379">
        <ele>910.79998779297</ele>
        <time>2020-07-05T07:19:34.000Z</time>
        <extensions>
          <gpxtpx:TrackPointExtension xmlns:gpxtpx="http://www.garmin.com/xmlschemas/TrackPointExtension/v1">
            <gpxtpx:hr>106</gpxtpx:hr>
          </gpxtpx:TrackPointExtension>
        </extensions>
      </trkpt>
      <trkpt lat="45.79039" lon="6.48403">
        <ele>909.59997558594</ele>
        <time>2020-07-05T07:19:36.000Z</time>
        <extensions>
          <gpxtpx:TrackPointExtension xmlns:gpxtpx="http://www.garmin.com/xmlschemas/TrackPointExtension/v1">
            <gpxtpx:hr>107</gpxtpx:hr>
          </gpxtpx:TrackPointExtension>
        </extensions>
      </trkpt>
      <trkpt lat="45.79047" lon="6.48424">
        <ele>908.20001220703</ele>
        <time>2020-07-05T07:19:38.000Z</time>
        <extensions>
          <gpxtpx:TrackPointExtension xmlns:gpxtpx="http://www.garmin.com/xmlschemas/TrackPointExtension/v1">
            <gpxtpx:hr>108</gpxtpx:hr>
          </gpxtpx:TrackPointExtension>
        </extensions>
      </trkpt>
      <trkpt lat="45.7906" lon="6.48438">
        <ele>906.79998779297</ele>
        <time>2020-07-05T07:19:40.000Z</time>
        <extensions>
          <gpxtpx:TrackPointExtension xmlns:gpxtpx="http://www.garmin.com/xmlschemas/TrackPointExtension/v1">
            <gpxtpx:hr>109</gpxtpx:hr>
          </gpxtpx:TrackPointExtension>
        </extensions>
      </trkpt>
      <trkpt lat="45.79066" lon="6.48442">
        <ele>905.79998779297</ele>
        <time>2020-07-05T07:19:41.000Z</time>
        <extensions>
          <gpxtpx:TrackPointExtension xmlns:gpxtpx="http://www.garmin.com/xmlschemas/TrackPointExtension/v1">
            <gpxtpx:hr>109</gpxtpx:hr>
          </gpxtpx:TrackPointExtension>
        </extensions>
      </trkpt>
      <trkpt lat="45.79073" lon="6.48442">
        <ele>904.79998779297</ele>
        <time>2020-07-05T07:19:42.000Z</time>
        <extensions>
          <gpxtpx:TrackPointExtension xmlns:gpxtpx="http://www.garmin.com/xmlschemas/TrackPointExtension/v1">
            <gpxtpx:hr>109</gpxtpx:hr>
          </gpxtpx:TrackPointExtension>
        </extensions>
      </trkpt>
      <trkpt lat="45.7908" lon="6.48439">
        <ele>903.79998779297</ele>
        <time>2020-07-05T07:19:43.000Z</time>
        <extensions>
          <gpxtpx:TrackPointExtension xmlns:gpxtpx="http://www.garmin.com/xmlschemas/TrackPointExtension/v1">
            <gpxtpx:hr>109</gpxtpx:hr>
          </gpxtpx:TrackPointExtension>
        </extensions>
      </trkpt>
      <trkpt lat="45.79087" lon="6.48433">
        <ele>903.20001220703</ele>
        <time>2020-07-05T07:19:44.000Z</time>
        <extensions>
          <gpxtpx:TrackPointExtension xmlns:gpxtpx="http://www.garmin.com/xmlschemas/TrackPointExtension/v1">
            <gpxtpx:hr>109</gpxtpx:hr>
          </gpxtpx:TrackPointExtension>
        </extensions>
      </trkpt>
      <trkpt lat="45.79088" lon="6.48426">
        <ele>902.79998779297</ele>
        <time>2020-07-05T07:19:45.000Z</time>
        <extensions>
          <gpxtpx:TrackPointExtension xmlns:gpxtpx="http://www.garmin.com/xmlschemas/TrackPointExtension/v1">
            <gpxtpx:hr>109</gpxtpx:hr>
          </gpxtpx:TrackPointExtension>
        </extensions>
      </trkpt>
      <trkpt lat="45.79082" lon="6.48407">
        <ele>902</ele>
        <time>2020-07-05T07:19:47.000Z</time>
        <extensions>
          <gpxtpx:TrackPointExtension xmlns:gpxtpx="http://www.garmin.com/xmlschemas/TrackPointExtension/v1">
            <gpxtpx:hr>109</gpxtpx:hr>
          </gpxtpx:TrackPointExtension>
        </extensions>
      </trkpt>
      <trkpt lat="45.79077" lon="6.48398">
        <ele>901.79998779297</ele>
        <time>2020-07-05T07:19:48.000Z</time>
        <extensions>
          <gpxtpx:TrackPointExtension xmlns:gpxtpx="http://www.garmin.com/xmlschemas/TrackPointExtension/v1">
            <gpxtpx:hr>109</gpxtpx:hr>
          </gpxtpx:TrackPointExtension>
        </extensions>
      </trkpt>
      <trkpt lat="45.79071" lon="6.4839">
        <ele>901.20001220703</ele>
        <time>2020-07-05T07:19:49.000Z</time>
        <extensions>
          <gpxtpx:TrackPointExtension xmlns:gpxtpx="http://www.garmin.com/xmlschemas/TrackPointExtension/v1">
            <gpxtpx:hr>109</gpxtpx:hr>
          </gpxtpx:TrackPointExtension>
        </extensions>
      </trkpt>
      <trkpt lat="45.79067" lon="6.48381">
        <ele>900.79998779297</ele>
        <time>2020-07-05T07:19:50.000Z</time>
        <extensions>
          <gpxtpx:TrackPointExtension xmlns:gpxtpx="http://www.garmin.com/xmlschemas/TrackPointExtension/v1">
            <gpxtpx:hr>109</gpxtpx:hr>
          </gpxtpx:TrackPointExtension>
        </extensions>
      </trkpt>
      <trkpt lat="45.79067" lon="6.48371">
        <ele>900.20001220703</ele>
        <time>2020-07-05T07:19:51.000Z</time>
        <extensions>
          <gpxtpx:TrackPointExtension xmlns:gpxtpx="http://www.garmin.com/xmlschemas/TrackPointExtension/v1">
            <gpxtpx:hr>109</gpxtpx:hr>
          </gpxtpx:TrackPointExtension>
        </extensions>
      </trkpt>
      <trkpt lat="45.7907" lon="6.48364">
        <ele>899.59997558594</ele>
        <time>2020-07-05T07:19:52.000Z</time>
        <extensions>
          <gpxtpx:TrackPointExtension xmlns:gpxtpx="http://www.garmin.com/xmlschemas/TrackPointExtension/v1">
            <gpxtpx:hr>109</gpxtpx:hr>
          </gpxtpx:TrackPointExtension>
        </extensions>
      </trkpt>
      <trkpt lat="45.79073" lon="6.48359">
        <ele>899</ele>
        <time>2020-07-05T07:19:53.000Z</time>
        <extensions>
          <gpxtpx:TrackPointExtension xmlns:gpxtpx="http://www.garmin.com/xmlschemas/TrackPointExtension/v1">
            <gpxtpx:hr>109</gpxtpx:hr>
          </gpxtpx:TrackPointExtension>
        </extensions>
      </trkpt>
      <trkpt lat="45.79077" lon="6.48359">
        <ele>898.40002441406</ele>
        <time>2020-07-05T07:19:54.000Z</time>
        <extensions>
          <gpxtpx:TrackPointExtension xmlns:gpxtpx="http://www.garmin.com/xmlschemas/TrackPointExtension/v1">
            <gpxtpx:hr>109</gpxtpx:hr>
          </gpxtpx:TrackPointExtension>
        </extensions>
      </trkpt>
      <trkpt lat="45.79082" lon="6.48364">
        <ele>897.59997558594</ele>
        <time>2020-07-05T07:19:55.000Z</time>
        <extensions>
          <gpxtpx:TrackPointExtension xmlns:gpxtpx="http://www.garmin.com/xmlschemas/TrackPointExtension/v1">
            <gpxtpx:hr>108</gpxtpx:hr>
          </gpxtpx:TrackPointExtension>
        </extensions>
      </trkpt>
      <trkpt lat="45.79088" lon="6.48372">
        <ele>896.79998779297</ele>
        <time>2020-07-05T07:19:56.000Z</time>
        <extensions>
          <gpxtpx:TrackPointExtension xmlns:gpxtpx="http://www.garmin.com/xmlschemas/TrackPointExtension/v1">
            <gpxtpx:hr>108</gpxtpx:hr>
          </gpxtpx:TrackPointExtension>
        </extensions>
      </trkpt>
      <trkpt lat="45.79094" lon="6.4838">
        <ele>895.79998779297</ele>
        <time>2020-07-05T07:19:57.000Z</time>
        <extensions>
          <gpxtpx:TrackPointExtension xmlns:gpxtpx="http://www.garmin.com/xmlschemas/TrackPointExtension/v1">
            <gpxtpx:hr>108</gpxtpx:hr>
          </gpxtpx:TrackPointExtension>
        </extensions>
      </trkpt>
      <trkpt lat="45.791" lon="6.48388">
        <ele>895</ele>
        <time>2020-07-05T07:19:58.000Z</time>
        <extensions>
          <gpxtpx:TrackPointExtension xmlns:gpxtpx="http://www.garmin.com/xmlschemas/TrackPointExtension/v1">
            <gpxtpx:hr>107</gpxtpx:hr>
          </gpxtpx:TrackPointExtension>
        </extensions>
      </trkpt>
      <trkpt lat="45.79114" lon="6.48404">
        <ele>893.40002441406</ele>
        <time>2020-07-05T07:20:00.000Z</time>
        <extensions>
          <gpxtpx:TrackPointExtension xmlns:gpxtpx="http://www.garmin.com/xmlschemas/TrackPointExtension/v1">
            <gpxtpx:hr>107</gpxtpx:hr>
          </gpxtpx:TrackPointExtension>
        </extensions>
      </trkpt>
      <trkpt lat="45.79129" lon="6.48421">
        <ele>891.79998779297</ele>
        <time>2020-07-05T07:20:02.000Z</time>
        <extensions>
          <gpxtpx:TrackPointExtension xmlns:gpxtpx="http://www.garmin.com/xmlschemas/TrackPointExtension/v1">
            <gpxtpx:hr>107</gpxtpx:hr>
          </gpxtpx:TrackPointExtension>
        </extensions>
      </trkpt>
      <trkpt lat="45.79136" lon="6.48427">
        <ele>891.20001220703</ele>
        <time>2020-07-05T07:20:03.000Z</time>
        <extensions>
          <gpxtpx:TrackPointExtension xmlns:gpxtpx="http://www.garmin.com/xmlschemas/TrackPointExtension/v1">
            <gpxtpx:hr>108</gpxtpx:hr>
          </gpxtpx:TrackPointExtension>
        </extensions>
      </trkpt>
      <trkpt lat="45.79143" lon="6.48431">
        <ele>890.59997558594</ele>
        <time>2020-07-05T07:20:04.000Z</time>
        <extensions>
          <gpxtpx:TrackPointExtension xmlns:gpxtpx="http://www.garmin.com/xmlschemas/TrackPointExtension/v1">
            <gpxtpx:hr>108</gpxtpx:hr>
          </gpxtpx:TrackPointExtension>
        </extensions>
      </trkpt>
      <trkpt lat="45.79156" lon="6.48427">
        <ele>889.40002441406</ele>
        <time>2020-07-05T07:20:06.000Z</time>
        <extensions>
          <gpxtpx:TrackPointExtension xmlns:gpxtpx="http://www.garmin.com/xmlschemas/TrackPointExtension/v1">
            <gpxtpx:hr>110</gpxtpx:hr>
          </gpxtpx:TrackPointExtension>
        </extensions>
      </trkpt>
      <trkpt lat="45.7916" lon="6.48408">
        <ele>888.40002441406</ele>
        <time>2020-07-05T07:20:08.000Z</time>
        <extensions>
          <gpxtpx:TrackPointExtension xmlns:gpxtpx="http://www.garmin.com/xmlschemas/TrackPointExtension/v1">
            <gpxtpx:hr>111</gpxtpx:hr>
          </gpxtpx:TrackPointExtension>
        </extensions>
      </trkpt>
      <trkpt lat="45.79155" lon="6.48384">
        <ele>887.59997558594</ele>
        <time>2020-07-05T07:20:10.000Z</time>
        <extensions>
          <gpxtpx:TrackPointExtension xmlns:gpxtpx="http://www.garmin.com/xmlschemas/TrackPointExtension/v1">
            <gpxtpx:hr>110</gpxtpx:hr>
          </gpxtpx:TrackPointExtension>
        </extensions>
      </trkpt>
      <trkpt lat="45.7915" lon="6.48373">
        <ele>886.79998779297</ele>
        <time>2020-07-05T07:20:11.000Z</time>
        <extensions>
          <gpxtpx:TrackPointExtension xmlns:gpxtpx="http://www.garmin.com/xmlschemas/TrackPointExtension/v1">
            <gpxtpx:hr>110</gpxtpx:hr>
          </gpxtpx:TrackPointExtension>
        </extensions>
      </trkpt>
      <trkpt lat="45.79144" lon="6.48363">
        <ele>886.20001220703</ele>
        <time>2020-07-05T07:20:12.000Z</time>
        <extensions>
          <gpxtpx:TrackPointExtension xmlns:gpxtpx="http://www.garmin.com/xmlschemas/TrackPointExtension/v1">
            <gpxtpx:hr>110</gpxtpx:hr>
          </gpxtpx:TrackPointExtension>
        </extensions>
      </trkpt>
      <trkpt lat="45.79137" lon="6.48355">
        <ele>885.40002441406</ele>
        <time>2020-07-05T07:20:13.000Z</time>
        <extensions>
          <gpxtpx:TrackPointExtension xmlns:gpxtpx="http://www.garmin.com/xmlschemas/TrackPointExtension/v1">
            <gpxtpx:hr>111</gpxtpx:hr>
          </gpxtpx:TrackPointExtension>
        </extensions>
      </trkpt>
      <trkpt lat="45.79129" lon="6.48349">
        <ele>884.59997558594</ele>
        <time>2020-07-05T07:20:14.000Z</time>
        <extensions>
          <gpxtpx:TrackPointExtension xmlns:gpxtpx="http://www.garmin.com/xmlschemas/TrackPointExtension/v1">
            <gpxtpx:hr>111</gpxtpx:hr>
          </gpxtpx:TrackPointExtension>
        </extensions>
      </trkpt>
      <trkpt lat="45.79122" lon="6.48344">
        <ele>883.79998779297</ele>
        <time>2020-07-05T07:20:15.000Z</time>
        <extensions>
          <gpxtpx:TrackPointExtension xmlns:gpxtpx="http://www.garmin.com/xmlschemas/TrackPointExtension/v1">
            <gpxtpx:hr>111</gpxtpx:hr>
          </gpxtpx:TrackPointExtension>
        </extensions>
      </trkpt>
      <trkpt lat="45.79113" lon="6.48329">
        <ele>882.59997558594</ele>
        <time>2020-07-05T07:20:17.000Z</time>
        <extensions>
          <gpxtpx:TrackPointExtension xmlns:gpxtpx="http://www.garmin.com/xmlschemas/TrackPointExtension/v1">
            <gpxtpx:hr>111</gpxtpx:hr>
          </gpxtpx:TrackPointExtension>
        </extensions>
      </trkpt>
      <trkpt lat="45.79114" lon="6.48313">
        <ele>882</ele>
        <time>2020-07-05T07:20:19.000Z</time>
        <extensions>
          <gpxtpx:TrackPointExtension xmlns:gpxtpx="http://www.garmin.com/xmlschemas/TrackPointExtension/v1">
            <gpxtpx:hr>111</gpxtpx:hr>
          </gpxtpx:TrackPointExtension>
        </extensions>
      </trkpt>
      <trkpt lat="45.79119" lon="6.48305">
        <ele>881.59997558594</ele>
        <time>2020-07-05T07:20:20.000Z</time>
        <extensions>
          <gpxtpx:TrackPointExtension xmlns:gpxtpx="http://www.garmin.com/xmlschemas/TrackPointExtension/v1">
            <gpxtpx:hr>111</gpxtpx:hr>
          </gpxtpx:TrackPointExtension>
        </extensions>
      </trkpt>
      <trkpt lat="45.79124" lon="6.48298">
        <ele>881</ele>
        <time>2020-07-05T07:20:21.000Z</time>
        <extensions>
          <gpxtpx:TrackPointExtension xmlns:gpxtpx="http://www.garmin.com/xmlschemas/TrackPointExtension/v1">
            <gpxtpx:hr>111</gpxtpx:hr>
          </gpxtpx:TrackPointExtension>
        </extensions>
      </trkpt>
      <trkpt lat="45.79129" lon="6.48292">
        <ele>880.40002441406</ele>
        <time>2020-07-05T07:20:22.000Z</time>
        <extensions>
          <gpxtpx:TrackPointExtension xmlns:gpxtpx="http://www.garmin.com/xmlschemas/TrackPointExtension/v1">
            <gpxtpx:hr>113</gpxtpx:hr>
          </gpxtpx:TrackPointExtension>
        </extensions>
      </trkpt>
      <trkpt lat="45.79145" lon="6.48284">
        <ele>879</ele>
        <time>2020-07-05T07:20:24.000Z</time>
        <extensions>
          <gpxtpx:TrackPointExtension xmlns:gpxtpx="http://www.garmin.com/xmlschemas/TrackPointExtension/v1">
            <gpxtpx:hr>115</gpxtpx:hr>
          </gpxtpx:TrackPointExtension>
        </extensions>
      </trkpt>
      <trkpt lat="45.79167" lon="6.48281">
        <ele>877.59997558594</ele>
        <time>2020-07-05T07:20:26.000Z</time>
        <extensions>
          <gpxtpx:TrackPointExtension xmlns:gpxtpx="http://www.garmin.com/xmlschemas/TrackPointExtension/v1">
            <gpxtpx:hr>115</gpxtpx:hr>
          </gpxtpx:TrackPointExtension>
        </extensions>
      </trkpt>
      <trkpt lat="45.79191" lon="6.48272">
        <ele>876.20001220703</ele>
        <time>2020-07-05T07:20:28.000Z</time>
        <extensions>
          <gpxtpx:TrackPointExtension xmlns:gpxtpx="http://www.garmin.com/xmlschemas/TrackPointExtension/v1">
            <gpxtpx:hr>114</gpxtpx:hr>
          </gpxtpx:TrackPointExtension>
        </extensions>
      </trkpt>
      <trkpt lat="45.79202" lon="6.48266">
        <ele>875.59997558594</ele>
        <time>2020-07-05T07:20:29.000Z</time>
        <extensions>
          <gpxtpx:TrackPointExtension xmlns:gpxtpx="http://www.garmin.com/xmlschemas/TrackPointExtension/v1">
            <gpxtpx:hr>114</gpxtpx:hr>
          </gpxtpx:TrackPointExtension>
        </extensions>
      </trkpt>
      <trkpt lat="45.79213" lon="6.48261">
        <ele>874.79998779297</ele>
        <time>2020-07-05T07:20:30.000Z</time>
        <extensions>
          <gpxtpx:TrackPointExtension xmlns:gpxtpx="http://www.garmin.com/xmlschemas/TrackPointExtension/v1">
            <gpxtpx:hr>113</gpxtpx:hr>
          </gpxtpx:TrackPointExtension>
        </extensions>
      </trkpt>
      <trkpt lat="45.79225" lon="6.48256">
        <ele>873.59997558594</ele>
        <time>2020-07-05T07:20:31.000Z</time>
        <extensions>
          <gpxtpx:TrackPointExtension xmlns:gpxtpx="http://www.garmin.com/xmlschemas/TrackPointExtension/v1">
            <gpxtpx:hr>113</gpxtpx:hr>
          </gpxtpx:TrackPointExtension>
        </extensions>
      </trkpt>
      <trkpt lat="45.79235" lon="6.48248">
        <ele>872</ele>
        <time>2020-07-05T07:20:32.000Z</time>
        <extensions>
          <gpxtpx:TrackPointExtension xmlns:gpxtpx="http://www.garmin.com/xmlschemas/TrackPointExtension/v1">
            <gpxtpx:hr>113</gpxtpx:hr>
          </gpxtpx:TrackPointExtension>
        </extensions>
      </trkpt>
      <trkpt lat="45.79246" lon="6.4824">
        <ele>870.59997558594</ele>
        <time>2020-07-05T07:20:33.000Z</time>
        <extensions>
          <gpxtpx:TrackPointExtension xmlns:gpxtpx="http://www.garmin.com/xmlschemas/TrackPointExtension/v1">
            <gpxtpx:hr>117</gpxtpx:hr>
          </gpxtpx:TrackPointExtension>
        </extensions>
      </trkpt>
      <trkpt lat="45.79257" lon="6.48233">
        <ele>869.20001220703</ele>
        <time>2020-07-05T07:20:34.000Z</time>
        <extensions>
          <gpxtpx:TrackPointExtension xmlns:gpxtpx="http://www.garmin.com/xmlschemas/TrackPointExtension/v1">
            <gpxtpx:hr>117</gpxtpx:hr>
          </gpxtpx:TrackPointExtension>
        </extensions>
      </trkpt>
      <trkpt lat="45.79267" lon="6.48227">
        <ele>867.79998779297</ele>
        <time>2020-07-05T07:20:35.000Z</time>
        <extensions>
          <gpxtpx:TrackPointExtension xmlns:gpxtpx="http://www.garmin.com/xmlschemas/TrackPointExtension/v1">
            <gpxtpx:hr>116</gpxtpx:hr>
          </gpxtpx:TrackPointExtension>
        </extensions>
      </trkpt>
      <trkpt lat="45.79277" lon="6.48223">
        <ele>866.20001220703</ele>
        <time>2020-07-05T07:20:36.000Z</time>
        <extensions>
          <gpxtpx:TrackPointExtension xmlns:gpxtpx="http://www.garmin.com/xmlschemas/TrackPointExtension/v1">
            <gpxtpx:hr>115</gpxtpx:hr>
          </gpxtpx:TrackPointExtension>
        </extensions>
      </trkpt>
      <trkpt lat="45.79287" lon="6.48221">
        <ele>865</ele>
        <time>2020-07-05T07:20:37.000Z</time>
        <extensions>
          <gpxtpx:TrackPointExtension xmlns:gpxtpx="http://www.garmin.com/xmlschemas/TrackPointExtension/v1">
            <gpxtpx:hr>114</gpxtpx:hr>
          </gpxtpx:TrackPointExtension>
        </extensions>
      </trkpt>
      <trkpt lat="45.79297" lon="6.4822">
        <ele>864.20001220703</ele>
        <time>2020-07-05T07:20:38.000Z</time>
        <extensions>
          <gpxtpx:TrackPointExtension xmlns:gpxtpx="http://www.garmin.com/xmlschemas/TrackPointExtension/v1">
            <gpxtpx:hr>113</gpxtpx:hr>
          </gpxtpx:TrackPointExtension>
        </extensions>
      </trkpt>
      <trkpt lat="45.79305" lon="6.48222">
        <ele>863.59997558594</ele>
        <time>2020-07-05T07:20:39.000Z</time>
        <extensions>
          <gpxtpx:TrackPointExtension xmlns:gpxtpx="http://www.garmin.com/xmlschemas/TrackPointExtension/v1">
            <gpxtpx:hr>112</gpxtpx:hr>
          </gpxtpx:TrackPointExtension>
        </extensions>
      </trkpt>
      <trkpt lat="45.79322" lon="6.48231">
        <ele>862.20001220703</ele>
        <time>2020-07-05T07:20:41.000Z</time>
        <extensions>
          <gpxtpx:TrackPointExtension xmlns:gpxtpx="http://www.garmin.com/xmlschemas/TrackPointExtension/v1">
            <gpxtpx:hr>111</gpxtpx:hr>
          </gpxtpx:TrackPointExtension>
        </extensions>
      </trkpt>
      <trkpt lat="45.79327" lon="6.48238">
        <ele>861.59997558594</ele>
        <time>2020-07-05T07:20:42.000Z</time>
        <extensions>
          <gpxtpx:TrackPointExtension xmlns:gpxtpx="http://www.garmin.com/xmlschemas/TrackPointExtension/v1">
            <gpxtpx:hr>110</gpxtpx:hr>
          </gpxtpx:TrackPointExtension>
        </extensions>
      </trkpt>
      <trkpt lat="45.79329" lon="6.48246">
        <ele>861.40002441406</ele>
        <time>2020-07-05T07:20:43.000Z</time>
        <extensions>
          <gpxtpx:TrackPointExtension xmlns:gpxtpx="http://www.garmin.com/xmlschemas/TrackPointExtension/v1">
            <gpxtpx:hr>110</gpxtpx:hr>
          </gpxtpx:TrackPointExtension>
        </extensions>
      </trkpt>
      <trkpt lat="45.79327" lon="6.48256">
        <ele>861</ele>
        <time>2020-07-05T07:20:44.000Z</time>
        <extensions>
          <gpxtpx:TrackPointExtension xmlns:gpxtpx="http://www.garmin.com/xmlschemas/TrackPointExtension/v1">
            <gpxtpx:hr>109</gpxtpx:hr>
          </gpxtpx:TrackPointExtension>
        </extensions>
      </trkpt>
      <trkpt lat="45.79322" lon="6.48265">
        <ele>860.59997558594</ele>
        <time>2020-07-05T07:20:45.000Z</time>
        <extensions>
          <gpxtpx:TrackPointExtension xmlns:gpxtpx="http://www.garmin.com/xmlschemas/TrackPointExtension/v1">
            <gpxtpx:hr>110</gpxtpx:hr>
          </gpxtpx:TrackPointExtension>
        </extensions>
      </trkpt>
      <trkpt lat="45.79315" lon="6.4827">
        <ele>860.20001220703</ele>
        <time>2020-07-05T07:20:46.000Z</time>
        <extensions>
          <gpxtpx:TrackPointExtension xmlns:gpxtpx="http://www.garmin.com/xmlschemas/TrackPointExtension/v1">
            <gpxtpx:hr>111</gpxtpx:hr>
          </gpxtpx:TrackPointExtension>
        </extensions>
      </trkpt>
      <trkpt lat="45.79306" lon="6.48272">
        <ele>859.20001220703</ele>
        <time>2020-07-05T07:20:47.000Z</time>
        <extensions>
          <gpxtpx:TrackPointExtension xmlns:gpxtpx="http://www.garmin.com/xmlschemas/TrackPointExtension/v1">
            <gpxtpx:hr>113</gpxtpx:hr>
          </gpxtpx:TrackPointExtension>
        </extensions>
      </trkpt>
      <trkpt lat="45.79288" lon="6.48271">
        <ele>857.59997558594</ele>
        <time>2020-07-05T07:20:49.000Z</time>
        <extensions>
          <gpxtpx:TrackPointExtension xmlns:gpxtpx="http://www.garmin.com/xmlschemas/TrackPointExtension/v1">
            <gpxtpx:hr>112</gpxtpx:hr>
          </gpxtpx:TrackPointExtension>
        </extensions>
      </trkpt>
      <trkpt lat="45.79279" lon="6.4827">
        <ele>857</ele>
        <time>2020-07-05T07:20:50.000Z</time>
        <extensions>
          <gpxtpx:TrackPointExtension xmlns:gpxtpx="http://www.garmin.com/xmlschemas/TrackPointExtension/v1">
            <gpxtpx:hr>112</gpxtpx:hr>
          </gpxtpx:TrackPointExtension>
        </extensions>
      </trkpt>
      <trkpt lat="45.79272" lon="6.48272">
        <ele>856</ele>
        <time>2020-07-05T07:20:51.000Z</time>
        <extensions>
          <gpxtpx:TrackPointExtension xmlns:gpxtpx="http://www.garmin.com/xmlschemas/TrackPointExtension/v1">
            <gpxtpx:hr>112</gpxtpx:hr>
          </gpxtpx:TrackPointExtension>
        </extensions>
      </trkpt>
      <trkpt lat="45.79265" lon="6.48277">
        <ele>855</ele>
        <time>2020-07-05T07:20:52.000Z</time>
        <extensions>
          <gpxtpx:TrackPointExtension xmlns:gpxtpx="http://www.garmin.com/xmlschemas/TrackPointExtension/v1">
            <gpxtpx:hr>111</gpxtpx:hr>
          </gpxtpx:TrackPointExtension>
        </extensions>
      </trkpt>
      <trkpt lat="45.79259" lon="6.48285">
        <ele>854.20001220703</ele>
        <time>2020-07-05T07:20:53.000Z</time>
        <extensions>
          <gpxtpx:TrackPointExtension xmlns:gpxtpx="http://www.garmin.com/xmlschemas/TrackPointExtension/v1">
            <gpxtpx:hr>111</gpxtpx:hr>
          </gpxtpx:TrackPointExtension>
        </extensions>
      </trkpt>
      <trkpt lat="45.79256" lon="6.48294">
        <ele>853.59997558594</ele>
        <time>2020-07-05T07:20:54.000Z</time>
        <extensions>
          <gpxtpx:TrackPointExtension xmlns:gpxtpx="http://www.garmin.com/xmlschemas/TrackPointExtension/v1">
            <gpxtpx:hr>110</gpxtpx:hr>
          </gpxtpx:TrackPointExtension>
        </extensions>
      </trkpt>
      <trkpt lat="45.79265" lon="6.48316">
        <ele>852.79998779297</ele>
        <time>2020-07-05T07:20:56.000Z</time>
        <extensions>
          <gpxtpx:TrackPointExtension xmlns:gpxtpx="http://www.garmin.com/xmlschemas/TrackPointExtension/v1">
            <gpxtpx:hr>110</gpxtpx:hr>
          </gpxtpx:TrackPointExtension>
        </extensions>
      </trkpt>
      <trkpt lat="45.7928" lon="6.48326">
        <ele>851.79998779297</ele>
        <time>2020-07-05T07:20:58.000Z</time>
        <extensions>
          <gpxtpx:TrackPointExtension xmlns:gpxtpx="http://www.garmin.com/xmlschemas/TrackPointExtension/v1">
            <gpxtpx:hr>109</gpxtpx:hr>
          </gpxtpx:TrackPointExtension>
        </extensions>
      </trkpt>
      <trkpt lat="45.7929" lon="6.48329">
        <ele>851.40002441406</ele>
        <time>2020-07-05T07:20:59.000Z</time>
        <extensions>
          <gpxtpx:TrackPointExtension xmlns:gpxtpx="http://www.garmin.com/xmlschemas/TrackPointExtension/v1">
            <gpxtpx:hr>109</gpxtpx:hr>
          </gpxtpx:TrackPointExtension>
        </extensions>
      </trkpt>
      <trkpt lat="45.79319" lon="6.48341">
        <ele>849.40002441406</ele>
        <time>2020-07-05T07:21:02.000Z</time>
        <extensions>
          <gpxtpx:TrackPointExtension xmlns:gpxtpx="http://www.garmin.com/xmlschemas/TrackPointExtension/v1">
            <gpxtpx:hr>107</gpxtpx:hr>
          </gpxtpx:TrackPointExtension>
        </extensions>
      </trkpt>
      <trkpt lat="45.7934" lon="6.48351">
        <ele>847.79998779297</ele>
        <time>2020-07-05T07:21:04.000Z</time>
        <extensions>
          <gpxtpx:TrackPointExtension xmlns:gpxtpx="http://www.garmin.com/xmlschemas/TrackPointExtension/v1">
            <gpxtpx:hr>107</gpxtpx:hr>
          </gpxtpx:TrackPointExtension>
        </extensions>
      </trkpt>
      <trkpt lat="45.79361" lon="6.48363">
        <ele>846.79998779297</ele>
        <time>2020-07-05T07:21:06.000Z</time>
        <extensions>
          <gpxtpx:TrackPointExtension xmlns:gpxtpx="http://www.garmin.com/xmlschemas/TrackPointExtension/v1">
            <gpxtpx:hr>109</gpxtpx:hr>
          </gpxtpx:TrackPointExtension>
        </extensions>
      </trkpt>
      <trkpt lat="45.79371" lon="6.4837">
        <ele>846</ele>
        <time>2020-07-05T07:21:07.000Z</time>
        <extensions>
          <gpxtpx:TrackPointExtension xmlns:gpxtpx="http://www.garmin.com/xmlschemas/TrackPointExtension/v1">
            <gpxtpx:hr>110</gpxtpx:hr>
          </gpxtpx:TrackPointExtension>
        </extensions>
      </trkpt>
      <trkpt lat="45.7938" lon="6.48378">
        <ele>845</ele>
        <time>2020-07-05T07:21:08.000Z</time>
        <extensions>
          <gpxtpx:TrackPointExtension xmlns:gpxtpx="http://www.garmin.com/xmlschemas/TrackPointExtension/v1">
            <gpxtpx:hr>111</gpxtpx:hr>
          </gpxtpx:TrackPointExtension>
        </extensions>
      </trkpt>
      <trkpt lat="45.79389" lon="6.48388">
        <ele>844</ele>
        <time>2020-07-05T07:21:09.000Z</time>
        <extensions>
          <gpxtpx:TrackPointExtension xmlns:gpxtpx="http://www.garmin.com/xmlschemas/TrackPointExtension/v1">
            <gpxtpx:hr>112</gpxtpx:hr>
          </gpxtpx:TrackPointExtension>
        </extensions>
      </trkpt>
      <trkpt lat="45.79395" lon="6.48399">
        <ele>843.40002441406</ele>
        <time>2020-07-05T07:21:10.000Z</time>
        <extensions>
          <gpxtpx:TrackPointExtension xmlns:gpxtpx="http://www.garmin.com/xmlschemas/TrackPointExtension/v1">
            <gpxtpx:hr>111</gpxtpx:hr>
          </gpxtpx:TrackPointExtension>
        </extensions>
      </trkpt>
      <trkpt lat="45.79405" lon="6.48423">
        <ele>842.79998779297</ele>
        <time>2020-07-05T07:21:12.000Z</time>
        <extensions>
          <gpxtpx:TrackPointExtension xmlns:gpxtpx="http://www.garmin.com/xmlschemas/TrackPointExtension/v1">
            <gpxtpx:hr>110</gpxtpx:hr>
          </gpxtpx:TrackPointExtension>
        </extensions>
      </trkpt>
      <trkpt lat="45.79413" lon="6.48447">
        <ele>841.79998779297</ele>
        <time>2020-07-05T07:21:14.000Z</time>
        <extensions>
          <gpxtpx:TrackPointExtension xmlns:gpxtpx="http://www.garmin.com/xmlschemas/TrackPointExtension/v1">
            <gpxtpx:hr>110</gpxtpx:hr>
          </gpxtpx:TrackPointExtension>
        </extensions>
      </trkpt>
      <trkpt lat="45.79417" lon="6.48475">
        <ele>840.59997558594</ele>
        <time>2020-07-05T07:21:16.000Z</time>
        <extensions>
          <gpxtpx:TrackPointExtension xmlns:gpxtpx="http://www.garmin.com/xmlschemas/TrackPointExtension/v1">
            <gpxtpx:hr>110</gpxtpx:hr>
          </gpxtpx:TrackPointExtension>
        </extensions>
      </trkpt>
      <trkpt lat="45.79418" lon="6.4849">
        <ele>840.20001220703</ele>
        <time>2020-07-05T07:21:17.000Z</time>
        <extensions>
          <gpxtpx:TrackPointExtension xmlns:gpxtpx="http://www.garmin.com/xmlschemas/TrackPointExtension/v1">
            <gpxtpx:hr>109</gpxtpx:hr>
          </gpxtpx:TrackPointExtension>
        </extensions>
      </trkpt>
      <trkpt lat="45.79419" lon="6.48506">
        <ele>839.40002441406</ele>
        <time>2020-07-05T07:21:18.000Z</time>
        <extensions>
          <gpxtpx:TrackPointExtension xmlns:gpxtpx="http://www.garmin.com/xmlschemas/TrackPointExtension/v1">
            <gpxtpx:hr>109</gpxtpx:hr>
          </gpxtpx:TrackPointExtension>
        </extensions>
      </trkpt>
      <trkpt lat="45.79421" lon="6.48521">
        <ele>838.20001220703</ele>
        <time>2020-07-05T07:21:19.000Z</time>
        <extensions>
          <gpxtpx:TrackPointExtension xmlns:gpxtpx="http://www.garmin.com/xmlschemas/TrackPointExtension/v1">
            <gpxtpx:hr>110</gpxtpx:hr>
          </gpxtpx:TrackPointExtension>
        </extensions>
      </trkpt>
      <trkpt lat="45.79422" lon="6.48535">
        <ele>836.20001220703</ele>
        <time>2020-07-05T07:21:20.000Z</time>
        <extensions>
          <gpxtpx:TrackPointExtension xmlns:gpxtpx="http://www.garmin.com/xmlschemas/TrackPointExtension/v1">
            <gpxtpx:hr>110</gpxtpx:hr>
          </gpxtpx:TrackPointExtension>
        </extensions>
      </trkpt>
      <trkpt lat="45.79423" lon="6.48547">
        <ele>834.59997558594</ele>
        <time>2020-07-05T07:21:21.000Z</time>
        <extensions>
          <gpxtpx:TrackPointExtension xmlns:gpxtpx="http://www.garmin.com/xmlschemas/TrackPointExtension/v1">
            <gpxtpx:hr>110</gpxtpx:hr>
          </gpxtpx:TrackPointExtension>
        </extensions>
      </trkpt>
      <trkpt lat="45.79423" lon="6.48558">
        <ele>833.59997558594</ele>
        <time>2020-07-05T07:21:22.000Z</time>
        <extensions>
          <gpxtpx:TrackPointExtension xmlns:gpxtpx="http://www.garmin.com/xmlschemas/TrackPointExtension/v1">
            <gpxtpx:hr>110</gpxtpx:hr>
          </gpxtpx:TrackPointExtension>
        </extensions>
      </trkpt>
      <trkpt lat="45.7942" lon="6.48569">
        <ele>833.20001220703</ele>
        <time>2020-07-05T07:21:23.000Z</time>
        <extensions>
          <gpxtpx:TrackPointExtension xmlns:gpxtpx="http://www.garmin.com/xmlschemas/TrackPointExtension/v1">
            <gpxtpx:hr>110</gpxtpx:hr>
          </gpxtpx:TrackPointExtension>
        </extensions>
      </trkpt>
      <trkpt lat="45.79417" lon="6.48577">
        <ele>832.79998779297</ele>
        <time>2020-07-05T07:21:24.000Z</time>
        <extensions>
          <gpxtpx:TrackPointExtension xmlns:gpxtpx="http://www.garmin.com/xmlschemas/TrackPointExtension/v1">
            <gpxtpx:hr>110</gpxtpx:hr>
          </gpxtpx:TrackPointExtension>
        </extensions>
      </trkpt>
      <trkpt lat="45.79412" lon="6.48582">
        <ele>832</ele>
        <time>2020-07-05T07:21:25.000Z</time>
        <extensions>
          <gpxtpx:TrackPointExtension xmlns:gpxtpx="http://www.garmin.com/xmlschemas/TrackPointExtension/v1">
            <gpxtpx:hr>110</gpxtpx:hr>
          </gpxtpx:TrackPointExtension>
        </extensions>
      </trkpt>
      <trkpt lat="45.79405" lon="6.48587">
        <ele>831</ele>
        <time>2020-07-05T07:21:26.000Z</time>
        <extensions>
          <gpxtpx:TrackPointExtension xmlns:gpxtpx="http://www.garmin.com/xmlschemas/TrackPointExtension/v1">
            <gpxtpx:hr>110</gpxtpx:hr>
          </gpxtpx:TrackPointExtension>
        </extensions>
      </trkpt>
      <trkpt lat="45.79398" lon="6.48591">
        <ele>829.79998779297</ele>
        <time>2020-07-05T07:21:27.000Z</time>
        <extensions>
          <gpxtpx:TrackPointExtension xmlns:gpxtpx="http://www.garmin.com/xmlschemas/TrackPointExtension/v1">
            <gpxtpx:hr>110</gpxtpx:hr>
          </gpxtpx:TrackPointExtension>
        </extensions>
      </trkpt>
      <trkpt lat="45.79387" lon="6.48602">
        <ele>828.59997558594</ele>
        <time>2020-07-05T07:21:29.000Z</time>
        <extensions>
          <gpxtpx:TrackPointExtension xmlns:gpxtpx="http://www.garmin.com/xmlschemas/TrackPointExtension/v1">
            <gpxtpx:hr>111</gpxtpx:hr>
          </gpxtpx:TrackPointExtension>
        </extensions>
      </trkpt>
      <trkpt lat="45.79385" lon="6.4861">
        <ele>828.20001220703</ele>
        <time>2020-07-05T07:21:30.000Z</time>
        <extensions>
          <gpxtpx:TrackPointExtension xmlns:gpxtpx="http://www.garmin.com/xmlschemas/TrackPointExtension/v1">
            <gpxtpx:hr>111</gpxtpx:hr>
          </gpxtpx:TrackPointExtension>
        </extensions>
      </trkpt>
      <trkpt lat="45.79385" lon="6.48619">
        <ele>828</ele>
        <time>2020-07-05T07:21:31.000Z</time>
        <extensions>
          <gpxtpx:TrackPointExtension xmlns:gpxtpx="http://www.garmin.com/xmlschemas/TrackPointExtension/v1">
            <gpxtpx:hr>112</gpxtpx:hr>
          </gpxtpx:TrackPointExtension>
        </extensions>
      </trkpt>
      <trkpt lat="45.79389" lon="6.48625">
        <ele>827.79998779297</ele>
        <time>2020-07-05T07:21:32.000Z</time>
        <extensions>
          <gpxtpx:TrackPointExtension xmlns:gpxtpx="http://www.garmin.com/xmlschemas/TrackPointExtension/v1">
            <gpxtpx:hr>112</gpxtpx:hr>
          </gpxtpx:TrackPointExtension>
        </extensions>
      </trkpt>
      <trkpt lat="45.79396" lon="6.48629">
        <ele>827.59997558594</ele>
        <time>2020-07-05T07:21:33.000Z</time>
        <extensions>
          <gpxtpx:TrackPointExtension xmlns:gpxtpx="http://www.garmin.com/xmlschemas/TrackPointExtension/v1">
            <gpxtpx:hr>112</gpxtpx:hr>
          </gpxtpx:TrackPointExtension>
        </extensions>
      </trkpt>
      <trkpt lat="45.79409" lon="6.48631">
        <ele>826.40002441406</ele>
        <time>2020-07-05T07:21:35.000Z</time>
        <extensions>
          <gpxtpx:TrackPointExtension xmlns:gpxtpx="http://www.garmin.com/xmlschemas/TrackPointExtension/v1">
            <gpxtpx:hr>113</gpxtpx:hr>
          </gpxtpx:TrackPointExtension>
        </extensions>
      </trkpt>
      <trkpt lat="45.79426" lon="6.48631">
        <ele>825</ele>
        <time>2020-07-05T07:21:37.000Z</time>
        <extensions>
          <gpxtpx:TrackPointExtension xmlns:gpxtpx="http://www.garmin.com/xmlschemas/TrackPointExtension/v1">
            <gpxtpx:hr>113</gpxtpx:hr>
          </gpxtpx:TrackPointExtension>
        </extensions>
      </trkpt>
      <trkpt lat="45.79435" lon="6.48628">
        <ele>824.20001220703</ele>
        <time>2020-07-05T07:21:38.000Z</time>
        <extensions>
          <gpxtpx:TrackPointExtension xmlns:gpxtpx="http://www.garmin.com/xmlschemas/TrackPointExtension/v1">
            <gpxtpx:hr>113</gpxtpx:hr>
          </gpxtpx:TrackPointExtension>
        </extensions>
      </trkpt>
      <trkpt lat="45.79443" lon="6.48624">
        <ele>823.20001220703</ele>
        <time>2020-07-05T07:21:39.000Z</time>
        <extensions>
          <gpxtpx:TrackPointExtension xmlns:gpxtpx="http://www.garmin.com/xmlschemas/TrackPointExtension/v1">
            <gpxtpx:hr>113</gpxtpx:hr>
          </gpxtpx:TrackPointExtension>
        </extensions>
      </trkpt>
      <trkpt lat="45.79451" lon="6.48619">
        <ele>822</ele>
        <time>2020-07-05T07:21:40.000Z</time>
        <extensions>
          <gpxtpx:TrackPointExtension xmlns:gpxtpx="http://www.garmin.com/xmlschemas/TrackPointExtension/v1">
            <gpxtpx:hr>113</gpxtpx:hr>
          </gpxtpx:TrackPointExtension>
        </extensions>
      </trkpt>
      <trkpt lat="45.79456" lon="6.48611">
        <ele>821.20001220703</ele>
        <time>2020-07-05T07:21:41.000Z</time>
        <extensions>
          <gpxtpx:TrackPointExtension xmlns:gpxtpx="http://www.garmin.com/xmlschemas/TrackPointExtension/v1">
            <gpxtpx:hr>113</gpxtpx:hr>
          </gpxtpx:TrackPointExtension>
        </extensions>
      </trkpt>
      <trkpt lat="45.79459" lon="6.48599">
        <ele>820.59997558594</ele>
        <time>2020-07-05T07:21:42.000Z</time>
        <extensions>
          <gpxtpx:TrackPointExtension xmlns:gpxtpx="http://www.garmin.com/xmlschemas/TrackPointExtension/v1">
            <gpxtpx:hr>113</gpxtpx:hr>
          </gpxtpx:TrackPointExtension>
        </extensions>
      </trkpt>
      <trkpt lat="45.79456" lon="6.48586">
        <ele>819.79998779297</ele>
        <time>2020-07-05T07:21:43.000Z</time>
        <extensions>
          <gpxtpx:TrackPointExtension xmlns:gpxtpx="http://www.garmin.com/xmlschemas/TrackPointExtension/v1">
            <gpxtpx:hr>112</gpxtpx:hr>
          </gpxtpx:TrackPointExtension>
        </extensions>
      </trkpt>
      <trkpt lat="45.79453" lon="6.48573">
        <ele>818.79998779297</ele>
        <time>2020-07-05T07:21:44.000Z</time>
        <extensions>
          <gpxtpx:TrackPointExtension xmlns:gpxtpx="http://www.garmin.com/xmlschemas/TrackPointExtension/v1">
            <gpxtpx:hr>113</gpxtpx:hr>
          </gpxtpx:TrackPointExtension>
        </extensions>
      </trkpt>
      <trkpt lat="45.7945" lon="6.48559">
        <ele>817.59997558594</ele>
        <time>2020-07-05T07:21:45.000Z</time>
        <extensions>
          <gpxtpx:TrackPointExtension xmlns:gpxtpx="http://www.garmin.com/xmlschemas/TrackPointExtension/v1">
            <gpxtpx:hr>113</gpxtpx:hr>
          </gpxtpx:TrackPointExtension>
        </extensions>
      </trkpt>
      <trkpt lat="45.79448" lon="6.48544">
        <ele>816.40002441406</ele>
        <time>2020-07-05T07:21:46.000Z</time>
        <extensions>
          <gpxtpx:TrackPointExtension xmlns:gpxtpx="http://www.garmin.com/xmlschemas/TrackPointExtension/v1">
            <gpxtpx:hr>113</gpxtpx:hr>
          </gpxtpx:TrackPointExtension>
        </extensions>
      </trkpt>
      <trkpt lat="45.79454" lon="6.48516">
        <ele>814.59997558594</ele>
        <time>2020-07-05T07:21:48.000Z</time>
        <extensions>
          <gpxtpx:TrackPointExtension xmlns:gpxtpx="http://www.garmin.com/xmlschemas/TrackPointExtension/v1">
            <gpxtpx:hr>114</gpxtpx:hr>
          </gpxtpx:TrackPointExtension>
        </extensions>
      </trkpt>
      <trkpt lat="45.7946" lon="6.48505">
        <ele>813.59997558594</ele>
        <time>2020-07-05T07:21:49.000Z</time>
        <extensions>
          <gpxtpx:TrackPointExtension xmlns:gpxtpx="http://www.garmin.com/xmlschemas/TrackPointExtension/v1">
            <gpxtpx:hr>114</gpxtpx:hr>
          </gpxtpx:TrackPointExtension>
        </extensions>
      </trkpt>
      <trkpt lat="45.79466" lon="6.48494">
        <ele>812.59997558594</ele>
        <time>2020-07-05T07:21:50.000Z</time>
        <extensions>
          <gpxtpx:TrackPointExtension xmlns:gpxtpx="http://www.garmin.com/xmlschemas/TrackPointExtension/v1">
            <gpxtpx:hr>114</gpxtpx:hr>
          </gpxtpx:TrackPointExtension>
        </extensions>
      </trkpt>
      <trkpt lat="45.79469" lon="6.48485">
        <ele>811.79998779297</ele>
        <time>2020-07-05T07:21:51.000Z</time>
        <extensions>
          <gpxtpx:TrackPointExtension xmlns:gpxtpx="http://www.garmin.com/xmlschemas/TrackPointExtension/v1">
            <gpxtpx:hr>114</gpxtpx:hr>
          </gpxtpx:TrackPointExtension>
        </extensions>
      </trkpt>
      <trkpt lat="45.7947" lon="6.48476">
        <ele>810.79998779297</ele>
        <time>2020-07-05T07:21:52.000Z</time>
        <extensions>
          <gpxtpx:TrackPointExtension xmlns:gpxtpx="http://www.garmin.com/xmlschemas/TrackPointExtension/v1">
            <gpxtpx:hr>114</gpxtpx:hr>
          </gpxtpx:TrackPointExtension>
        </extensions>
      </trkpt>
      <trkpt lat="45.79467" lon="6.48463">
        <ele>809.79998779297</ele>
        <time>2020-07-05T07:21:53.000Z</time>
        <extensions>
          <gpxtpx:TrackPointExtension xmlns:gpxtpx="http://www.garmin.com/xmlschemas/TrackPointExtension/v1">
            <gpxtpx:hr>114</gpxtpx:hr>
          </gpxtpx:TrackPointExtension>
        </extensions>
      </trkpt>
      <trkpt lat="45.79464" lon="6.48451">
        <ele>809</ele>
        <time>2020-07-05T07:21:54.000Z</time>
        <extensions>
          <gpxtpx:TrackPointExtension xmlns:gpxtpx="http://www.garmin.com/xmlschemas/TrackPointExtension/v1">
            <gpxtpx:hr>114</gpxtpx:hr>
          </gpxtpx:TrackPointExtension>
        </extensions>
      </trkpt>
      <trkpt lat="45.79455" lon="6.4843">
        <ele>807.20001220703</ele>
        <time>2020-07-05T07:21:56.000Z</time>
        <extensions>
          <gpxtpx:TrackPointExtension xmlns:gpxtpx="http://www.garmin.com/xmlschemas/TrackPointExtension/v1">
            <gpxtpx:hr>115</gpxtpx:hr>
          </gpxtpx:TrackPointExtension>
        </extensions>
      </trkpt>
      <trkpt lat="45.79452" lon="6.48418">
        <ele>806.40002441406</ele>
        <time>2020-07-05T07:21:57.000Z</time>
        <extensions>
          <gpxtpx:TrackPointExtension xmlns:gpxtpx="http://www.garmin.com/xmlschemas/TrackPointExtension/v1">
            <gpxtpx:hr>115</gpxtpx:hr>
          </gpxtpx:TrackPointExtension>
        </extensions>
      </trkpt>
      <trkpt lat="45.7945" lon="6.48407">
        <ele>805.59997558594</ele>
        <time>2020-07-05T07:21:58.000Z</time>
        <extensions>
          <gpxtpx:TrackPointExtension xmlns:gpxtpx="http://www.garmin.com/xmlschemas/TrackPointExtension/v1">
            <gpxtpx:hr>116</gpxtpx:hr>
          </gpxtpx:TrackPointExtension>
        </extensions>
      </trkpt>
      <trkpt lat="45.79448" lon="6.48382">
        <ele>803.59997558594</ele>
        <time>2020-07-05T07:22:00.000Z</time>
        <extensions>
          <gpxtpx:TrackPointExtension xmlns:gpxtpx="http://www.garmin.com/xmlschemas/TrackPointExtension/v1">
            <gpxtpx:hr>116</gpxtpx:hr>
          </gpxtpx:TrackPointExtension>
        </extensions>
      </trkpt>
      <trkpt lat="45.79449" lon="6.48371">
        <ele>802.79998779297</ele>
        <time>2020-07-05T07:22:01.000Z</time>
        <extensions>
          <gpxtpx:TrackPointExtension xmlns:gpxtpx="http://www.garmin.com/xmlschemas/TrackPointExtension/v1">
            <gpxtpx:hr>116</gpxtpx:hr>
          </gpxtpx:TrackPointExtension>
        </extensions>
      </trkpt>
      <trkpt lat="45.79452" lon="6.48361">
        <ele>801.79998779297</ele>
        <time>2020-07-05T07:22:02.000Z</time>
        <extensions>
          <gpxtpx:TrackPointExtension xmlns:gpxtpx="http://www.garmin.com/xmlschemas/TrackPointExtension/v1">
            <gpxtpx:hr>117</gpxtpx:hr>
          </gpxtpx:TrackPointExtension>
        </extensions>
      </trkpt>
      <trkpt lat="45.79459" lon="6.48341">
        <ele>799.79998779297</ele>
        <time>2020-07-05T07:22:04.000Z</time>
        <extensions>
          <gpxtpx:TrackPointExtension xmlns:gpxtpx="http://www.garmin.com/xmlschemas/TrackPointExtension/v1">
            <gpxtpx:hr>117</gpxtpx:hr>
          </gpxtpx:TrackPointExtension>
        </extensions>
      </trkpt>
      <trkpt lat="45.79463" lon="6.48331">
        <ele>798.79998779297</ele>
        <time>2020-07-05T07:22:05.000Z</time>
        <extensions>
          <gpxtpx:TrackPointExtension xmlns:gpxtpx="http://www.garmin.com/xmlschemas/TrackPointExtension/v1">
            <gpxtpx:hr>117</gpxtpx:hr>
          </gpxtpx:TrackPointExtension>
        </extensions>
      </trkpt>
    </trkseg>
  </trk>
  <trk>
    <name><![CDATA[Itinéraire de 7140 Grand Rue]]></name>
    <extensions>
      <line xmlns="http://www.topografix.com/GPX/gpx_style/0/2">
        <color>0000ff</color>
        <opacity>0.5</opacity>
        <width>6</width>
      </line>
    </extensions>
    <trkseg>
      <trkpt lat="44.42056" lon="6.73663">
        <ele>1219.2</ele>
      </trkpt>
      <trkpt lat="44.42056" lon="6.73663">
        <ele>1219.2</ele>
      </trkpt>
      <trkpt lat="44.42056" lon="6.73663">
        <ele>1219.2</ele>
      </trkpt>
      <trkpt lat="44.42056" lon="6.73663">
        <ele>1219.2</ele>
      </trkpt>
      <trkpt lat="44.42121" lon="6.73693">
        <ele>1220.2</ele>
      </trkpt>
      <trkpt lat="44.42154" lon="6.73705">
        <ele>1220.5</ele>
      </trkpt>
      <trkpt lat="44.422" lon="6.73716">
        <ele>1223.3</ele>
      </trkpt>
      <trkpt lat="44.42202" lon="6.73717">
        <ele>1223.3</ele>
      </trkpt>
      <trkpt lat="44.42245" lon="6.73721">
        <ele>1224.7</ele>
      </trkpt>
      <trkpt lat="44.42434" lon="6.7371">
        <ele>1230</ele>
      </trkpt>
      <trkpt lat="44.42245" lon="6.73721">
        <ele>1224.7</ele>
      </trkpt>
      <trkpt lat="44.42202" lon="6.73717">
        <ele>1223.3</ele>
      </trkpt>
      <trkpt lat="44.422" lon="6.73716">
        <ele>1223.3</ele>
      </trkpt>
      <trkpt lat="44.42154" lon="6.73705">
        <ele>1220.5</ele>
      </trkpt>
      <trkpt lat="44.42121" lon="6.73693">
        <ele>1220.2</ele>
      </trkpt>
      <trkpt lat="44.42056" lon="6.73663">
        <ele>1219.2</ele>
      </trkpt>
      <trkpt lat="44.42027" lon="6.73747">
        <ele>1219.4</ele>
      </trkpt>
      <trkpt lat="44.42003" lon="6.73917">
        <ele>1222.1</ele>
      </trkpt>
      <trkpt lat="44.41998" lon="6.73939">
        <ele>1222.1</ele>
      </trkpt>
      <trkpt lat="44.41992" lon="6.73955">
        <ele>1222.3</ele>
      </trkpt>
      <trkpt lat="44.41971" lon="6.73986">
        <ele>1222.5</ele>
      </trkpt>
      <trkpt lat="44.41952" lon="6.74001">
        <ele>1222.9</ele>
      </trkpt>
      <trkpt lat="44.41869" lon="6.74057">
        <ele>1222.6</ele>
      </trkpt>
      <trkpt lat="44.41854" lon="6.74071">
        <ele>1222.7</ele>
      </trkpt>
      <trkpt lat="44.41849" lon="6.74077">
        <ele>1222.8</ele>
      </trkpt>
      <trkpt lat="44.41822" lon="6.74103">
        <ele>1226.4</ele>
      </trkpt>
      <trkpt lat="44.41794" lon="6.74125">
        <ele>1228.5</ele>
      </trkpt>
      <trkpt lat="44.4179" lon="6.74127">
        <ele>1228.6</ele>
      </trkpt>
      <trkpt lat="44.4175" lon="6.74154">
        <ele>1231.6</ele>
      </trkpt>
      <trkpt lat="44.41728" lon="6.74174">
        <ele>1235.6</ele>
      </trkpt>
      <trkpt lat="44.41709" lon="6.74197">
        <ele>1236.9</ele>
      </trkpt>
      <trkpt lat="44.41646" lon="6.74284">
        <ele>1239</ele>
      </trkpt>
      <trkpt lat="44.41625" lon="6.74308">
        <ele>1239.4</ele>
      </trkpt>
      <trkpt lat="44.41611" lon="6.7432">
        <ele>1239.5</ele>
      </trkpt>
      <trkpt lat="44.41604" lon="6.74323">
        <ele>1239.5</ele>
      </trkpt>
      <trkpt lat="44.41596" lon="6.74329">
        <ele>1239.6</ele>
      </trkpt>
      <trkpt lat="44.41585" lon="6.74342">
        <ele>1241.6</ele>
      </trkpt>
      <trkpt lat="44.41579" lon="6.74352">
        <ele>1241.3</ele>
      </trkpt>
      <trkpt lat="44.41559" lon="6.74398">
        <ele>1243</ele>
      </trkpt>
      <trkpt lat="44.41529" lon="6.74484">
        <ele>1248.8</ele>
      </trkpt>
      <trkpt lat="44.41526" lon="6.74497">
        <ele>1248.9</ele>
      </trkpt>
      <trkpt lat="44.41523" lon="6.74522">
        <ele>1254.9</ele>
      </trkpt>
      <trkpt lat="44.41524" lon="6.74536">
        <ele>1256</ele>
      </trkpt>
      <trkpt lat="44.41522" lon="6.74575">
        <ele>1257</ele>
      </trkpt>
      <trkpt lat="44.41519" lon="6.74594">
        <ele>1261.5</ele>
      </trkpt>
      <trkpt lat="44.41513" lon="6.74615">
        <ele>1262.9</ele>
      </trkpt>
      <trkpt lat="44.41513" lon="6.74618">
        <ele>1263.1</ele>
      </trkpt>
      <trkpt lat="44.41493" lon="6.74677">
        <ele>1257.2</ele>
      </trkpt>
      <trkpt lat="44.41483" lon="6.74739">
        <ele>1259</ele>
      </trkpt>
      <trkpt lat="44.41473" lon="6.74773">
        <ele>1260.8</ele>
      </trkpt>
      <trkpt lat="44.41462" lon="6.74802">
        <ele>1261.1</ele>
      </trkpt>
      <trkpt lat="44.41456" lon="6.74829">
        <ele>1261.2</ele>
      </trkpt>
      <trkpt lat="44.41457" lon="6.74847">
        <ele>1264</ele>
      </trkpt>
      <trkpt lat="44.41462" lon="6.74868">
        <ele>1264.7</ele>
      </trkpt>
      <trkpt lat="44.41485" lon="6.74931">
        <ele>1268.7</ele>
      </trkpt>
      <trkpt lat="44.41488" lon="6.74936">
        <ele>1268.8</ele>
      </trkpt>
      <trkpt lat="44.41526" lon="6.75026">
        <ele>1280.2</ele>
      </trkpt>
      <trkpt lat="44.41536" lon="6.75046">
        <ele>1282.3</ele>
      </trkpt>
      <trkpt lat="44.41542" lon="6.75055">
        <ele>1283.3</ele>
      </trkpt>
      <trkpt lat="44.41548" lon="6.75062">
        <ele>1284.5</ele>
      </trkpt>
      <trkpt lat="44.41552" lon="6.75073">
        <ele>1285.7</ele>
      </trkpt>
      <trkpt lat="44.41554" lon="6.75085">
        <ele>1288.7</ele>
      </trkpt>
      <trkpt lat="44.41552" lon="6.75092">
        <ele>1288.3</ele>
      </trkpt>
      <trkpt lat="44.41547" lon="6.75101">
        <ele>1287.3</ele>
      </trkpt>
      <trkpt lat="44.41534" lon="6.75115">
        <ele>1285.6</ele>
      </trkpt>
      <trkpt lat="44.41509" lon="6.75131">
        <ele>1283.6</ele>
      </trkpt>
      <trkpt lat="44.41501" lon="6.75134">
        <ele>1283.2</ele>
      </trkpt>
      <trkpt lat="44.41493" lon="6.75135">
        <ele>1278.6</ele>
      </trkpt>
      <trkpt lat="44.41492" lon="6.75136">
        <ele>1278.7</ele>
      </trkpt>
      <trkpt lat="44.41482" lon="6.75137">
        <ele>1278.9</ele>
      </trkpt>
      <trkpt lat="44.41472" lon="6.75141">
        <ele>1279.4</ele>
      </trkpt>
      <trkpt lat="44.41471" lon="6.75143">
        <ele>1279.5</ele>
      </trkpt>
      <trkpt lat="44.41469" lon="6.75144">
        <ele>1279.6</ele>
      </trkpt>
      <trkpt lat="44.41465" lon="6.75149">
        <ele>1280</ele>
      </trkpt>
      <trkpt lat="44.41463" lon="6.75155">
        <ele>1280.3</ele>
      </trkpt>
      <trkpt lat="44.41462" lon="6.75162">
        <ele>1280.6</ele>
      </trkpt>
      <trkpt lat="44.41464" lon="6.7518">
        <ele>1287.4</ele>
      </trkpt>
      <trkpt lat="44.41466" lon="6.75186">
        <ele>1287.5</ele>
      </trkpt>
      <trkpt lat="44.41491" lon="6.7523">
        <ele>1287.9</ele>
      </trkpt>
      <trkpt lat="44.41496" lon="6.75241">
        <ele>1287.2</ele>
      </trkpt>
      <trkpt lat="44.41502" lon="6.75261">
        <ele>1288.7</ele>
      </trkpt>
      <trkpt lat="44.41502" lon="6.7527">
        <ele>1290.1</ele>
      </trkpt>
      <trkpt lat="44.41501" lon="6.75275">
        <ele>1290.7</ele>
      </trkpt>
      <trkpt lat="44.415" lon="6.75275">
        <ele>1294</ele>
      </trkpt>
      <trkpt lat="44.41496" lon="6.75282">
        <ele>1295.2</ele>
      </trkpt>
      <trkpt lat="44.41494" lon="6.75283">
        <ele>1295.4</ele>
      </trkpt>
      <trkpt lat="44.41488" lon="6.75283">
        <ele>1295.8</ele>
      </trkpt>
      <trkpt lat="44.41482" lon="6.75281">
        <ele>1296.2</ele>
      </trkpt>
      <trkpt lat="44.41479" lon="6.75278">
        <ele>1296.2</ele>
      </trkpt>
      <trkpt lat="44.41456" lon="6.75232">
        <ele>1291.2</ele>
      </trkpt>
      <trkpt lat="44.41437" lon="6.75204">
        <ele>1290.6</ele>
      </trkpt>
      <trkpt lat="44.41422" lon="6.75192">
        <ele>1290</ele>
      </trkpt>
      <trkpt lat="44.41291" lon="6.7511">
        <ele>1312.4</ele>
      </trkpt>
      <trkpt lat="44.41289" lon="6.7511">
        <ele>1312.8</ele>
      </trkpt>
      <trkpt lat="44.41287" lon="6.75109">
        <ele>1313.1</ele>
      </trkpt>
      <trkpt lat="44.41284" lon="6.75109">
        <ele>1313.7</ele>
      </trkpt>
      <trkpt lat="44.41282" lon="6.7511">
        <ele>1314</ele>
      </trkpt>
      <trkpt lat="44.4128" lon="6.75112">
        <ele>1314.4</ele>
      </trkpt>
      <trkpt lat="44.41278" lon="6.75113">
        <ele>1314.7</ele>
      </trkpt>
      <trkpt lat="44.41277" lon="6.75114">
        <ele>1314.9</ele>
      </trkpt>
      <trkpt lat="44.41275" lon="6.75118">
        <ele>1315.2</ele>
      </trkpt>
      <trkpt lat="44.41274" lon="6.75122">
        <ele>1315.4</ele>
      </trkpt>
      <trkpt lat="44.41274" lon="6.75125">
        <ele>1315.5</ele>
      </trkpt>
      <trkpt lat="44.41278" lon="6.75135">
        <ele>1315.5</ele>
      </trkpt>
      <trkpt lat="44.41283" lon="6.75138">
        <ele>1314.9</ele>
      </trkpt>
      <trkpt lat="44.41307" lon="6.75147">
        <ele>1311.7</ele>
      </trkpt>
      <trkpt lat="44.41316" lon="6.75155">
        <ele>1310.4</ele>
      </trkpt>
      <trkpt lat="44.41323" lon="6.75165">
        <ele>1309.1</ele>
      </trkpt>
      <trkpt lat="44.4133" lon="6.75184">
        <ele>1314.5</ele>
      </trkpt>
      <trkpt lat="44.4134" lon="6.75244">
        <ele>1314.7</ele>
      </trkpt>
      <trkpt lat="44.41345" lon="6.75261">
        <ele>1317.1</ele>
      </trkpt>
      <trkpt lat="44.41361" lon="6.75302">
        <ele>1316.8</ele>
      </trkpt>
      <trkpt lat="44.41363" lon="6.7532">
        <ele>1317.6</ele>
      </trkpt>
      <trkpt lat="44.41365" lon="6.75369">
        <ele>1324.1</ele>
      </trkpt>
      <trkpt lat="44.41364" lon="6.75398">
        <ele>1326.3</ele>
      </trkpt>
      <trkpt lat="44.41361" lon="6.75402">
        <ele>1327</ele>
      </trkpt>
      <trkpt lat="44.41358" lon="6.75404">
        <ele>1327.7</ele>
      </trkpt>
      <trkpt lat="44.41355" lon="6.75405">
        <ele>1328.4</ele>
      </trkpt>
      <trkpt lat="44.41352" lon="6.75405">
        <ele>1329</ele>
      </trkpt>
      <trkpt lat="44.41349" lon="6.75404">
        <ele>1329.5</ele>
      </trkpt>
      <trkpt lat="44.41346" lon="6.75401">
        <ele>1329.5</ele>
      </trkpt>
      <trkpt lat="44.4134" lon="6.75391">
        <ele>1328.4</ele>
      </trkpt>
      <trkpt lat="44.41329" lon="6.75365">
        <ele>1337.4</ele>
      </trkpt>
      <trkpt lat="44.41319" lon="6.75348">
        <ele>1335.3</ele>
      </trkpt>
      <trkpt lat="44.41267" lon="6.75274">
        <ele>1333.7</ele>
      </trkpt>
      <trkpt lat="44.41263" lon="6.7527">
        <ele>1333.9</ele>
      </trkpt>
      <trkpt lat="44.41258" lon="6.75268">
        <ele>1334.3</ele>
      </trkpt>
      <trkpt lat="44.41252" lon="6.75268">
        <ele>1334.6</ele>
      </trkpt>
      <trkpt lat="44.4125" lon="6.7527">
        <ele>1334.6</ele>
      </trkpt>
      <trkpt lat="44.41248" lon="6.75271">
        <ele>1346.1</ele>
      </trkpt>
      <trkpt lat="44.41243" lon="6.75278">
        <ele>1348.3</ele>
      </trkpt>
      <trkpt lat="44.41241" lon="6.75283">
        <ele>1349.3</ele>
      </trkpt>
      <trkpt lat="44.41241" lon="6.75294">
        <ele>1350.5</ele>
      </trkpt>
      <trkpt lat="44.41243" lon="6.75301">
        <ele>1350.7</ele>
      </trkpt>
      <trkpt lat="44.41269" lon="6.75354">
        <ele>1344.3</ele>
      </trkpt>
      <trkpt lat="44.41307" lon="6.75478">
        <ele>1350.7</ele>
      </trkpt>
      <trkpt lat="44.41308" lon="6.75484">
        <ele>1350.6</ele>
      </trkpt>
      <trkpt lat="44.41308" lon="6.7549">
        <ele>1350.5</ele>
      </trkpt>
      <trkpt lat="44.41309" lon="6.75496">
        <ele>1350.3</ele>
      </trkpt>
      <trkpt lat="44.41309" lon="6.75507">
        <ele>1353.1</ele>
      </trkpt>
      <trkpt lat="44.41304" lon="6.75536">
        <ele>1355.5</ele>
      </trkpt>
      <trkpt lat="44.41293" lon="6.75568">
        <ele>1357.2</ele>
      </trkpt>
      <trkpt lat="44.41286" lon="6.75582">
        <ele>1358.5</ele>
      </trkpt>
      <trkpt lat="44.41282" lon="6.75586">
        <ele>1361.5</ele>
      </trkpt>
      <trkpt lat="44.41278" lon="6.75588">
        <ele>1362.1</ele>
      </trkpt>
      <trkpt lat="44.41273" lon="6.75588">
        <ele>1362.8</ele>
      </trkpt>
      <trkpt lat="44.41267" lon="6.75586">
        <ele>1363.7</ele>
      </trkpt>
      <trkpt lat="44.41266" lon="6.75584">
        <ele>1363.9</ele>
      </trkpt>
      <trkpt lat="44.41265" lon="6.75584">
        <ele>1364</ele>
      </trkpt>
      <trkpt lat="44.41262" lon="6.75576">
        <ele>1362.7</ele>
      </trkpt>
      <trkpt lat="44.4126" lon="6.75566">
        <ele>1361.8</ele>
      </trkpt>
      <trkpt lat="44.4126" lon="6.75559">
        <ele>1361</ele>
      </trkpt>
      <trkpt lat="44.41269" lon="6.75526">
        <ele>1359.6</ele>
      </trkpt>
      <trkpt lat="44.4127" lon="6.75504">
        <ele>1360.5</ele>
      </trkpt>
      <trkpt lat="44.41269" lon="6.75497">
        <ele>1358.5</ele>
      </trkpt>
      <trkpt lat="44.41266" lon="6.75488">
        <ele>1358.4</ele>
      </trkpt>
      <trkpt lat="44.41266" lon="6.75485">
        <ele>1358</ele>
      </trkpt>
      <trkpt lat="44.41252" lon="6.75457">
        <ele>1356.4</ele>
      </trkpt>
      <trkpt lat="44.41191" lon="6.75377">
        <ele>1366.7</ele>
      </trkpt>
      <trkpt lat="44.41191" lon="6.75376">
        <ele>1366.7</ele>
      </trkpt>
      <trkpt lat="44.41134" lon="6.75299">
        <ele>1377.3</ele>
      </trkpt>
      <trkpt lat="44.41131" lon="6.75296">
        <ele>1377.6</ele>
      </trkpt>
      <trkpt lat="44.41127" lon="6.75288">
        <ele>1377.9</ele>
      </trkpt>
      <trkpt lat="44.41124" lon="6.75279">
        <ele>1378.2</ele>
      </trkpt>
      <trkpt lat="44.41121" lon="6.75264">
        <ele>1378.6</ele>
      </trkpt>
      <trkpt lat="44.41116" lon="6.75155">
        <ele>1382.6</ele>
      </trkpt>
      <trkpt lat="44.41122" lon="6.75117">
        <ele>1381.7</ele>
      </trkpt>
      <trkpt lat="44.41122" lon="6.75112">
        <ele>1381.8</ele>
      </trkpt>
      <trkpt lat="44.41119" lon="6.75104">
        <ele>1382.4</ele>
      </trkpt>
      <trkpt lat="44.41119" lon="6.75103">
        <ele>1382.4</ele>
      </trkpt>
      <trkpt lat="44.41116" lon="6.751">
        <ele>1382.9</ele>
      </trkpt>
      <trkpt lat="44.41112" lon="6.75098">
        <ele>1383.5</ele>
      </trkpt>
      <trkpt lat="44.41107" lon="6.75098">
        <ele>1384.3</ele>
      </trkpt>
      <trkpt lat="44.41101" lon="6.75104">
        <ele>1384.8</ele>
      </trkpt>
      <trkpt lat="44.41099" lon="6.75109">
        <ele>1384.6</ele>
      </trkpt>
      <trkpt lat="44.41092" lon="6.75146">
        <ele>1385.9</ele>
      </trkpt>
      <trkpt lat="44.4109" lon="6.75208">
        <ele>1382.7</ele>
      </trkpt>
      <trkpt lat="44.41085" lon="6.75242">
        <ele>1386.2</ele>
      </trkpt>
      <trkpt lat="44.41082" lon="6.75252">
        <ele>1389.3</ele>
      </trkpt>
      <trkpt lat="44.41073" lon="6.75268">
        <ele>1391</ele>
      </trkpt>
      <trkpt lat="44.4104" lon="6.75304">
        <ele>1393.8</ele>
      </trkpt>
      <trkpt lat="44.41029" lon="6.75313">
        <ele>1395.3</ele>
      </trkpt>
      <trkpt lat="44.40993" lon="6.75334">
        <ele>1407.1</ele>
      </trkpt>
      <trkpt lat="44.40966" lon="6.75345">
        <ele>1413.6</ele>
      </trkpt>
      <trkpt lat="44.40956" lon="6.75346">
        <ele>1414.6</ele>
      </trkpt>
      <trkpt lat="44.40954" lon="6.75345">
        <ele>1414.6</ele>
      </trkpt>
      <trkpt lat="44.40951" lon="6.75345">
        <ele>1414.8</ele>
      </trkpt>
      <trkpt lat="44.40932" lon="6.7534">
        <ele>1414.7</ele>
      </trkpt>
      <trkpt lat="44.40919" lon="6.75339">
        <ele>1413.9</ele>
      </trkpt>
      <trkpt lat="44.40906" lon="6.75342">
        <ele>1416.5</ele>
      </trkpt>
      <trkpt lat="44.40894" lon="6.75347">
        <ele>1418.1</ele>
      </trkpt>
      <trkpt lat="44.40882" lon="6.75354">
        <ele>1419.2</ele>
      </trkpt>
      <trkpt lat="44.40841" lon="6.75399">
        <ele>1423.3</ele>
      </trkpt>
      <trkpt lat="44.40824" lon="6.75409">
        <ele>1425</ele>
      </trkpt>
      <trkpt lat="44.4081" lon="6.75414">
        <ele>1424.8</ele>
      </trkpt>
      <trkpt lat="44.40764" lon="6.7542">
        <ele>1430</ele>
      </trkpt>
      <trkpt lat="44.40759" lon="6.75422">
        <ele>1430.1</ele>
      </trkpt>
      <trkpt lat="44.4075" lon="6.75428">
        <ele>1430.7</ele>
      </trkpt>
      <trkpt lat="44.40742" lon="6.75436">
        <ele>1431.1</ele>
      </trkpt>
      <trkpt lat="44.40735" lon="6.75446">
        <ele>1431.6</ele>
      </trkpt>
      <trkpt lat="44.40729" lon="6.75459">
        <ele>1432</ele>
      </trkpt>
      <trkpt lat="44.40716" lon="6.75516">
        <ele>1438</ele>
      </trkpt>
      <trkpt lat="44.4071" lon="6.75528">
        <ele>1438.9</ele>
      </trkpt>
      <trkpt lat="44.40706" lon="6.75534">
        <ele>1439.4</ele>
      </trkpt>
      <trkpt lat="44.40703" lon="6.75537">
        <ele>1439.7</ele>
      </trkpt>
      <trkpt lat="44.40691" lon="6.75541">
        <ele>1440.4</ele>
      </trkpt>
      <trkpt lat="44.40687" lon="6.75541">
        <ele>1440.6</ele>
      </trkpt>
      <trkpt lat="44.40682" lon="6.7554">
        <ele>1440.7</ele>
      </trkpt>
      <trkpt lat="44.40674" lon="6.75536">
        <ele>1440.5</ele>
      </trkpt>
      <trkpt lat="44.40667" lon="6.75529">
        <ele>1440.1</ele>
      </trkpt>
      <trkpt lat="44.40659" lon="6.75515">
        <ele>1441.5</ele>
      </trkpt>
      <trkpt lat="44.40646" lon="6.75482">
        <ele>1435.4</ele>
      </trkpt>
      <trkpt lat="44.40638" lon="6.75471">
        <ele>1434.6</ele>
      </trkpt>
      <trkpt lat="44.40633" lon="6.75466">
        <ele>1434.3</ele>
      </trkpt>
      <trkpt lat="44.40624" lon="6.7546">
        <ele>1433.9</ele>
      </trkpt>
      <trkpt lat="44.40613" lon="6.75457">
        <ele>1433.7</ele>
      </trkpt>
      <trkpt lat="44.40602" lon="6.75457">
        <ele>1433.6</ele>
      </trkpt>
      <trkpt lat="44.4059" lon="6.75463">
        <ele>1434.5</ele>
      </trkpt>
      <trkpt lat="44.40587" lon="6.75466">
        <ele>1435</ele>
      </trkpt>
      <trkpt lat="44.40584" lon="6.75468">
        <ele>1435.4</ele>
      </trkpt>
      <trkpt lat="44.40575" lon="6.75482">
        <ele>1428</ele>
      </trkpt>
      <trkpt lat="44.40567" lon="6.75501">
        <ele>1435.4</ele>
      </trkpt>
      <trkpt lat="44.40558" lon="6.75547">
        <ele>1432.3</ele>
      </trkpt>
      <trkpt lat="44.4056" lon="6.75592">
        <ele>1441.8</ele>
      </trkpt>
      <trkpt lat="44.40563" lon="6.75614">
        <ele>1441.7</ele>
      </trkpt>
      <trkpt lat="44.40562" lon="6.75626">
        <ele>1442</ele>
      </trkpt>
      <trkpt lat="44.4056" lon="6.75636">
        <ele>1442.4</ele>
      </trkpt>
      <trkpt lat="44.40552" lon="6.75653">
        <ele>1442.4</ele>
      </trkpt>
      <trkpt lat="44.4055" lon="6.75659">
        <ele>1442.3</ele>
      </trkpt>
      <trkpt lat="44.40507" lon="6.7574">
        <ele>1452.3</ele>
      </trkpt>
      <trkpt lat="44.40504" lon="6.75748">
        <ele>1452.8</ele>
      </trkpt>
      <trkpt lat="44.40501" lon="6.75761">
        <ele>1456.7</ele>
      </trkpt>
      <trkpt lat="44.405" lon="6.75775">
        <ele>1459.4</ele>
      </trkpt>
      <trkpt lat="44.40501" lon="6.75789">
        <ele>1461</ele>
      </trkpt>
      <trkpt lat="44.40514" lon="6.75859">
        <ele>1468.2</ele>
      </trkpt>
      <trkpt lat="44.40514" lon="6.75887">
        <ele>1469.8</ele>
      </trkpt>
      <trkpt lat="44.4051" lon="6.75912">
        <ele>1468.8</ele>
      </trkpt>
      <trkpt lat="44.4051" lon="6.75915">
        <ele>1468.7</ele>
      </trkpt>
      <trkpt lat="44.40503" lon="6.75935">
        <ele>1474.5</ele>
      </trkpt>
      <trkpt lat="44.40503" lon="6.75936">
        <ele>1474.8</ele>
      </trkpt>
      <trkpt lat="44.40456" lon="6.7603">
        <ele>1480.6</ele>
      </trkpt>
      <trkpt lat="44.40451" lon="6.76037">
        <ele>1481.1</ele>
      </trkpt>
      <trkpt lat="44.4045" lon="6.7604">
        <ele>1481.5</ele>
      </trkpt>
      <trkpt lat="44.40439" lon="6.76052">
        <ele>1482.6</ele>
      </trkpt>
      <trkpt lat="44.40429" lon="6.76058">
        <ele>1483.2</ele>
      </trkpt>
      <trkpt lat="44.40385" lon="6.76069">
        <ele>1470.8</ele>
      </trkpt>
      <trkpt lat="44.40371" lon="6.76077">
        <ele>1469.3</ele>
      </trkpt>
      <trkpt lat="44.40359" lon="6.7609">
        <ele>1481.1</ele>
      </trkpt>
      <trkpt lat="44.40354" lon="6.76097">
        <ele>1480.7</ele>
      </trkpt>
      <trkpt lat="44.4035" lon="6.76106">
        <ele>1481.4</ele>
      </trkpt>
      <trkpt lat="44.40344" lon="6.76125">
        <ele>1483.5</ele>
      </trkpt>
      <trkpt lat="44.40342" lon="6.76146">
        <ele>1484.3</ele>
      </trkpt>
      <trkpt lat="44.40342" lon="6.76218">
        <ele>1495</ele>
      </trkpt>
      <trkpt lat="44.40339" lon="6.76245">
        <ele>1491.8</ele>
      </trkpt>
      <trkpt lat="44.40334" lon="6.76267">
        <ele>1498.9</ele>
      </trkpt>
      <trkpt lat="44.40325" lon="6.76296">
        <ele>1488.7</ele>
      </trkpt>
      <trkpt lat="44.40273" lon="6.76421">
        <ele>1502.6</ele>
      </trkpt>
      <trkpt lat="44.40267" lon="6.76444">
        <ele>1504.9</ele>
      </trkpt>
      <trkpt lat="44.40256" lon="6.76518">
        <ele>1513.9</ele>
      </trkpt>
      <trkpt lat="44.40254" lon="6.76526">
        <ele>1516.2</ele>
      </trkpt>
      <trkpt lat="44.40252" lon="6.76543">
        <ele>1519.4</ele>
      </trkpt>
      <trkpt lat="44.40246" lon="6.76568">
        <ele>1511.8</ele>
      </trkpt>
      <trkpt lat="44.4024" lon="6.76581">
        <ele>1513.3</ele>
      </trkpt>
      <trkpt lat="44.40235" lon="6.76586">
        <ele>1518.2</ele>
      </trkpt>
      <trkpt lat="44.40234" lon="6.76588">
        <ele>1518.3</ele>
      </trkpt>
      <trkpt lat="44.40225" lon="6.76596">
        <ele>1518.7</ele>
      </trkpt>
      <trkpt lat="44.40218" lon="6.76599">
        <ele>1518.8</ele>
      </trkpt>
      <trkpt lat="44.40213" lon="6.766">
        <ele>1518.7</ele>
      </trkpt>
      <trkpt lat="44.40209" lon="6.766">
        <ele>1518.5</ele>
      </trkpt>
      <trkpt lat="44.40172" lon="6.76594">
        <ele>1513.5</ele>
      </trkpt>
      <trkpt lat="44.40165" lon="6.76594">
        <ele>1510.9</ele>
      </trkpt>
      <trkpt lat="44.4016" lon="6.76595">
        <ele>1511.1</ele>
      </trkpt>
      <trkpt lat="44.40149" lon="6.76599">
        <ele>1511.9</ele>
      </trkpt>
      <trkpt lat="44.40141" lon="6.76603">
        <ele>1512.2</ele>
      </trkpt>
      <trkpt lat="44.40137" lon="6.76606">
        <ele>1512.4</ele>
      </trkpt>
      <trkpt lat="44.40123" lon="6.76622">
        <ele>1513.3</ele>
      </trkpt>
      <trkpt lat="44.40061" lon="6.76722">
        <ele>1525</ele>
      </trkpt>
      <trkpt lat="44.40003" lon="6.76786">
        <ele>1535.3</ele>
      </trkpt>
      <trkpt lat="44.39985" lon="6.76798">
        <ele>1532</ele>
      </trkpt>
      <trkpt lat="44.39954" lon="6.76811">
        <ele>1531.9</ele>
      </trkpt>
      <trkpt lat="44.39947" lon="6.76815">
        <ele>1531.9</ele>
      </trkpt>
      <trkpt lat="44.39941" lon="6.7682">
        <ele>1532.2</ele>
      </trkpt>
      <trkpt lat="44.39929" lon="6.76834">
        <ele>1537.9</ele>
      </trkpt>
      <trkpt lat="44.39906" lon="6.76867">
        <ele>1543.7</ele>
      </trkpt>
      <trkpt lat="44.39895" lon="6.76879">
        <ele>1545.7</ele>
      </trkpt>
      <trkpt lat="44.39885" lon="6.76887">
        <ele>1546.7</ele>
      </trkpt>
      <trkpt lat="44.39879" lon="6.7689">
        <ele>1547.1</ele>
      </trkpt>
      <trkpt lat="44.39872" lon="6.76892">
        <ele>1547.5</ele>
      </trkpt>
      <trkpt lat="44.39856" lon="6.76893">
        <ele>1548.4</ele>
      </trkpt>
      <trkpt lat="44.39834" lon="6.76888">
        <ele>1548.9</ele>
      </trkpt>
      <trkpt lat="44.39822" lon="6.7688">
        <ele>1559</ele>
      </trkpt>
      <trkpt lat="44.39815" lon="6.76874">
        <ele>1559.2</ele>
      </trkpt>
      <trkpt lat="44.39766" lon="6.76795">
        <ele>1553.6</ele>
      </trkpt>
      <trkpt lat="44.39764" lon="6.7679">
        <ele>1553.2</ele>
      </trkpt>
      <trkpt lat="44.39744" lon="6.76755">
        <ele>1559</ele>
      </trkpt>
      <trkpt lat="44.39734" lon="6.76745">
        <ele>1556.8</ele>
      </trkpt>
      <trkpt lat="44.3973" lon="6.76742">
        <ele>1557.2</ele>
      </trkpt>
      <trkpt lat="44.39729" lon="6.76742">
        <ele>1557.3</ele>
      </trkpt>
      <trkpt lat="44.3972" lon="6.76738">
        <ele>1558.1</ele>
      </trkpt>
      <trkpt lat="44.39715" lon="6.76737">
        <ele>1558.6</ele>
      </trkpt>
      <trkpt lat="44.39706" lon="6.76737">
        <ele>1559.6</ele>
      </trkpt>
      <trkpt lat="44.39677" lon="6.76743">
        <ele>1565.7</ele>
      </trkpt>
      <trkpt lat="44.39667" lon="6.76744">
        <ele>1568.1</ele>
      </trkpt>
      <trkpt lat="44.39656" lon="6.76743">
        <ele>1568.7</ele>
      </trkpt>
      <trkpt lat="44.39611" lon="6.76734">
        <ele>1567.9</ele>
      </trkpt>
      <trkpt lat="44.39592" lon="6.76735">
        <ele>1569.6</ele>
      </trkpt>
      <trkpt lat="44.39581" lon="6.76739">
        <ele>1570.8</ele>
      </trkpt>
      <trkpt lat="44.3957" lon="6.76745">
        <ele>1570.4</ele>
      </trkpt>
      <trkpt lat="44.39569" lon="6.76745">
        <ele>1570.2</ele>
      </trkpt>
      <trkpt lat="44.39535" lon="6.76775">
        <ele>1577.9</ele>
      </trkpt>
      <trkpt lat="44.39504" lon="6.76808">
        <ele>1580.5</ele>
      </trkpt>
      <trkpt lat="44.39485" lon="6.76837">
        <ele>1582.3</ele>
      </trkpt>
      <trkpt lat="44.39483" lon="6.76839">
        <ele>1582.1</ele>
      </trkpt>
      <trkpt lat="44.39476" lon="6.76858">
        <ele>1581.7</ele>
      </trkpt>
      <trkpt lat="44.39476" lon="6.76859">
        <ele>1581.7</ele>
      </trkpt>
      <trkpt lat="44.39471" lon="6.76871">
        <ele>1581.9</ele>
      </trkpt>
      <trkpt lat="44.39467" lon="6.76885">
        <ele>1582.4</ele>
      </trkpt>
      <trkpt lat="44.39453" lon="6.7698">
        <ele>1592.3</ele>
      </trkpt>
      <trkpt lat="44.39446" lon="6.77009">
        <ele>1600.5</ele>
      </trkpt>
      <trkpt lat="44.39423" lon="6.77059">
        <ele>1604.2</ele>
      </trkpt>
      <trkpt lat="44.39315" lon="6.77204">
        <ele>1605.9</ele>
      </trkpt>
      <trkpt lat="44.39302" lon="6.77232">
        <ele>1607.6</ele>
      </trkpt>
      <trkpt lat="44.39296" lon="6.77256">
        <ele>1618</ele>
      </trkpt>
      <trkpt lat="44.39292" lon="6.77283">
        <ele>1619.2</ele>
      </trkpt>
      <trkpt lat="44.39279" lon="6.77331">
        <ele>1619.9</ele>
      </trkpt>
      <trkpt lat="44.39218" lon="6.77461">
        <ele>1630.9</ele>
      </trkpt>
      <trkpt lat="44.39206" lon="6.7748">
        <ele>1631.1</ele>
      </trkpt>
      <trkpt lat="44.39192" lon="6.77495">
        <ele>1629.8</ele>
      </trkpt>
      <trkpt lat="44.39178" lon="6.77507">
        <ele>1635.3</ele>
      </trkpt>
      <trkpt lat="44.3917" lon="6.77517">
        <ele>1636.8</ele>
      </trkpt>
      <trkpt lat="44.39164" lon="6.77527">
        <ele>1627.9</ele>
      </trkpt>
      <trkpt lat="44.39159" lon="6.77538">
        <ele>1628.9</ele>
      </trkpt>
      <trkpt lat="44.39153" lon="6.77562">
        <ele>1632.6</ele>
      </trkpt>
      <trkpt lat="44.39151" lon="6.77589">
        <ele>1641.5</ele>
      </trkpt>
      <trkpt lat="44.3914" lon="6.77646">
        <ele>1643.2</ele>
      </trkpt>
      <trkpt lat="44.39129" lon="6.77688">
        <ele>1649.9</ele>
      </trkpt>
      <trkpt lat="44.39114" lon="6.77717">
        <ele>1650.4</ele>
      </trkpt>
      <trkpt lat="44.39095" lon="6.77741">
        <ele>1650.8</ele>
      </trkpt>
      <trkpt lat="44.39079" lon="6.77757">
        <ele>1653.1</ele>
      </trkpt>
      <trkpt lat="44.39044" lon="6.77778">
        <ele>1656.4</ele>
      </trkpt>
      <trkpt lat="44.39032" lon="6.7778">
        <ele>1655.8</ele>
      </trkpt>
      <trkpt lat="44.39026" lon="6.77783">
        <ele>1655.8</ele>
      </trkpt>
      <trkpt lat="44.39022" lon="6.77788">
        <ele>1656.2</ele>
      </trkpt>
      <trkpt lat="44.38998" lon="6.77811">
        <ele>1657.8</ele>
      </trkpt>
      <trkpt lat="44.38979" lon="6.77822">
        <ele>1658.9</ele>
      </trkpt>
      <trkpt lat="44.3895" lon="6.77824">
        <ele>1660.8</ele>
      </trkpt>
      <trkpt lat="44.38944" lon="6.77823">
        <ele>1661.6</ele>
      </trkpt>
      <trkpt lat="44.38895" lon="6.77794">
        <ele>1659.9</ele>
      </trkpt>
      <trkpt lat="44.38887" lon="6.77792">
        <ele>1659.5</ele>
      </trkpt>
      <trkpt lat="44.38874" lon="6.77793">
        <ele>1659.7</ele>
      </trkpt>
      <trkpt lat="44.38868" lon="6.77798">
        <ele>1660.5</ele>
      </trkpt>
      <trkpt lat="44.38852" lon="6.77815">
        <ele>1663.7</ele>
      </trkpt>
      <trkpt lat="44.38847" lon="6.77822">
        <ele>1665.4</ele>
      </trkpt>
      <trkpt lat="44.38844" lon="6.77824">
        <ele>1666.2</ele>
      </trkpt>
      <trkpt lat="44.38841" lon="6.77831">
        <ele>1668</ele>
      </trkpt>
      <trkpt lat="44.3884" lon="6.77832">
        <ele>1668.4</ele>
      </trkpt>
      <trkpt lat="44.38837" lon="6.77837">
        <ele>1673.6</ele>
      </trkpt>
      <trkpt lat="44.38828" lon="6.77845">
        <ele>1674.8</ele>
      </trkpt>
      <trkpt lat="44.38814" lon="6.77851">
        <ele>1676.9</ele>
      </trkpt>
      <trkpt lat="44.38813" lon="6.77851">
        <ele>1676.9</ele>
      </trkpt>
      <trkpt lat="44.38809" lon="6.77857">
        <ele>1677.9</ele>
      </trkpt>
      <trkpt lat="44.38808" lon="6.77861">
        <ele>1678.5</ele>
      </trkpt>
      <trkpt lat="44.38808" lon="6.77865">
        <ele>1679.1</ele>
      </trkpt>
      <trkpt lat="44.38813" lon="6.77869">
        <ele>1679.8</ele>
      </trkpt>
      <trkpt lat="44.38817" lon="6.77869">
        <ele>1679.9</ele>
      </trkpt>
      <trkpt lat="44.38844" lon="6.77854">
        <ele>1679.6</ele>
      </trkpt>
      <trkpt lat="44.38858" lon="6.77838">
        <ele>1678.9</ele>
      </trkpt>
      <trkpt lat="44.38865" lon="6.77833">
        <ele>1664.6</ele>
      </trkpt>
      <trkpt lat="44.38866" lon="6.77833">
        <ele>1664.5</ele>
      </trkpt>
      <trkpt lat="44.38869" lon="6.7783">
        <ele>1664.3</ele>
      </trkpt>
      <trkpt lat="44.38873" lon="6.77829">
        <ele>1664.2</ele>
      </trkpt>
      <trkpt lat="44.38882" lon="6.77829">
        <ele>1664.5</ele>
      </trkpt>
      <trkpt lat="44.38887" lon="6.7783">
        <ele>1665</ele>
      </trkpt>
      <trkpt lat="44.38891" lon="6.77833">
        <ele>1665.7</ele>
      </trkpt>
      <trkpt lat="44.38897" lon="6.77841">
        <ele>1679.7</ele>
      </trkpt>
      <trkpt lat="44.38897" lon="6.77843">
        <ele>1679.9</ele>
      </trkpt>
      <trkpt lat="44.38908" lon="6.77863">
        <ele>1682.8</ele>
      </trkpt>
      <trkpt lat="44.38908" lon="6.77864">
        <ele>1683</ele>
      </trkpt>
      <trkpt lat="44.38918" lon="6.77884">
        <ele>1684.3</ele>
      </trkpt>
      <trkpt lat="44.38943" lon="6.77924">
        <ele>1698.7</ele>
      </trkpt>
      <trkpt lat="44.38945" lon="6.7793">
        <ele>1698.9</ele>
      </trkpt>
      <trkpt lat="44.38946" lon="6.77938">
        <ele>1699.4</ele>
      </trkpt>
      <trkpt lat="44.38945" lon="6.7794">
        <ele>1699.6</ele>
      </trkpt>
      <trkpt lat="44.38945" lon="6.77941">
        <ele>1699.7</ele>
      </trkpt>
      <trkpt lat="44.38942" lon="6.77944">
        <ele>1700.2</ele>
      </trkpt>
      <trkpt lat="44.38939" lon="6.77944">
        <ele>1700.4</ele>
      </trkpt>
      <trkpt lat="44.38935" lon="6.77943">
        <ele>1700.5</ele>
      </trkpt>
      <trkpt lat="44.38933" lon="6.77942">
        <ele>1700.5</ele>
      </trkpt>
      <trkpt lat="44.38929" lon="6.77941">
        <ele>1700.6</ele>
      </trkpt>
      <trkpt lat="44.38926" lon="6.77936">
        <ele>1700.2</ele>
      </trkpt>
      <trkpt lat="44.38923" lon="6.77933">
        <ele>1700</ele>
      </trkpt>
      <trkpt lat="44.38913" lon="6.77918">
        <ele>1700.3</ele>
      </trkpt>
      <trkpt lat="44.38907" lon="6.77911">
        <ele>1693.9</ele>
      </trkpt>
      <trkpt lat="44.38897" lon="6.77903">
        <ele>1690.4</ele>
      </trkpt>
      <trkpt lat="44.3889" lon="6.779">
        <ele>1689.1</ele>
      </trkpt>
      <trkpt lat="44.38885" lon="6.77899">
        <ele>1688.5</ele>
      </trkpt>
      <trkpt lat="44.38881" lon="6.77901">
        <ele>1688.5</ele>
      </trkpt>
      <trkpt lat="44.3888" lon="6.77902">
        <ele>1688.5</ele>
      </trkpt>
      <trkpt lat="44.38874" lon="6.77905">
        <ele>1688.6</ele>
      </trkpt>
      <trkpt lat="44.38868" lon="6.77912">
        <ele>1689.1</ele>
      </trkpt>
      <trkpt lat="44.38859" lon="6.7793">
        <ele>1704.2</ele>
      </trkpt>
      <trkpt lat="44.38858" lon="6.77936">
        <ele>1704.9</ele>
      </trkpt>
      <trkpt lat="44.38852" lon="6.77952">
        <ele>1707.5</ele>
      </trkpt>
      <trkpt lat="44.38849" lon="6.77957">
        <ele>1708.5</ele>
      </trkpt>
      <trkpt lat="44.38837" lon="6.77969">
        <ele>1711.5</ele>
      </trkpt>
      <trkpt lat="44.38824" lon="6.77977">
        <ele>1712.8</ele>
      </trkpt>
      <trkpt lat="44.38809" lon="6.77978">
        <ele>1711.6</ele>
      </trkpt>
      <trkpt lat="44.38786" lon="6.77971">
        <ele>1709.6</ele>
      </trkpt>
      <trkpt lat="44.38779" lon="6.77971">
        <ele>1709.7</ele>
      </trkpt>
      <trkpt lat="44.38772" lon="6.77975">
        <ele>1710.6</ele>
      </trkpt>
      <trkpt lat="44.38768" lon="6.77976">
        <ele>1711</ele>
      </trkpt>
      <trkpt lat="44.38764" lon="6.77978">
        <ele>1711.7</ele>
      </trkpt>
      <trkpt lat="44.38763" lon="6.77978">
        <ele>1711.8</ele>
      </trkpt>
      <trkpt lat="44.3876" lon="6.7798">
        <ele>1712.5</ele>
      </trkpt>
      <trkpt lat="44.38754" lon="6.77981">
        <ele>1713.2</ele>
      </trkpt>
      <trkpt lat="44.3875" lon="6.77986">
        <ele>1714.9</ele>
      </trkpt>
      <trkpt lat="44.3875" lon="6.77992">
        <ele>1717.2</ele>
      </trkpt>
      <trkpt lat="44.38752" lon="6.77996">
        <ele>1718.7</ele>
      </trkpt>
      <trkpt lat="44.38752" lon="6.77998">
        <ele>1719.5</ele>
      </trkpt>
      <trkpt lat="44.38753" lon="6.77999">
        <ele>1719.4</ele>
      </trkpt>
      <trkpt lat="44.38754" lon="6.77999">
        <ele>1718.9</ele>
      </trkpt>
      <trkpt lat="44.38759" lon="6.78001">
        <ele>1725.4</ele>
      </trkpt>
      <trkpt lat="44.38763" lon="6.78001">
        <ele>1726.8</ele>
      </trkpt>
      <trkpt lat="44.38767" lon="6.77997">
        <ele>1714.8</ele>
      </trkpt>
      <trkpt lat="44.38781" lon="6.77995">
        <ele>1712.9</ele>
      </trkpt>
      <trkpt lat="44.3879" lon="6.77998">
        <ele>1712.9</ele>
      </trkpt>
      <trkpt lat="44.38802" lon="6.78008">
        <ele>1731</ele>
      </trkpt>
      <trkpt lat="44.38804" lon="6.78011">
        <ele>1731.2</ele>
      </trkpt>
      <trkpt lat="44.3882" lon="6.78013">
        <ele>1729.7</ele>
      </trkpt>
      <trkpt lat="44.38825" lon="6.78012">
        <ele>1728.7</ele>
      </trkpt>
      <trkpt lat="44.38831" lon="6.78012">
        <ele>1728.1</ele>
      </trkpt>
      <trkpt lat="44.38852" lon="6.78015">
        <ele>1728.5</ele>
      </trkpt>
      <trkpt lat="44.38875" lon="6.78023">
        <ele>1729.6</ele>
      </trkpt>
      <trkpt lat="44.38904" lon="6.78042">
        <ele>1731</ele>
      </trkpt>
      <trkpt lat="44.38912" lon="6.78052">
        <ele>1732.6</ele>
      </trkpt>
      <trkpt lat="44.3892" lon="6.78059">
        <ele>1726.7</ele>
      </trkpt>
      <trkpt lat="44.38925" lon="6.78069">
        <ele>1729.4</ele>
      </trkpt>
      <trkpt lat="44.38925" lon="6.78073">
        <ele>1730.8</ele>
      </trkpt>
      <trkpt lat="44.38923" lon="6.78075">
        <ele>1732.2</ele>
      </trkpt>
      <trkpt lat="44.38922" lon="6.78077">
        <ele>1733.4</ele>
      </trkpt>
      <trkpt lat="44.3892" lon="6.78078">
        <ele>1734.6</ele>
      </trkpt>
      <trkpt lat="44.38918" lon="6.78078">
        <ele>1735.1</ele>
      </trkpt>
      <trkpt lat="44.38916" lon="6.78076">
        <ele>1737.2</ele>
      </trkpt>
      <trkpt lat="44.3891" lon="6.78073">
        <ele>1736.3</ele>
      </trkpt>
      <trkpt lat="44.38899" lon="6.78062">
        <ele>1734.2</ele>
      </trkpt>
      <trkpt lat="44.38893" lon="6.78062">
        <ele>1734.1</ele>
      </trkpt>
      <trkpt lat="44.38879" lon="6.78059">
        <ele>1734.1</ele>
      </trkpt>
      <trkpt lat="44.38875" lon="6.7806">
        <ele>1734.4</ele>
      </trkpt>
      <trkpt lat="44.3882" lon="6.78063">
        <ele>1740.3</ele>
      </trkpt>
      <trkpt lat="44.38763" lon="6.78078">
        <ele>1745.3</ele>
      </trkpt>
      <trkpt lat="44.38738" lon="6.78081">
        <ele>1748.6</ele>
      </trkpt>
      <trkpt lat="44.3872" lon="6.78089">
        <ele>1771.5</ele>
      </trkpt>
      <trkpt lat="44.38713" lon="6.78095">
        <ele>1774.1</ele>
      </trkpt>
      <trkpt lat="44.38708" lon="6.78098">
        <ele>1775.4</ele>
      </trkpt>
      <trkpt lat="44.38705" lon="6.78101">
        <ele>1776.4</ele>
      </trkpt>
      <trkpt lat="44.38701" lon="6.78102">
        <ele>1776.9</ele>
      </trkpt>
      <trkpt lat="44.38687" lon="6.78102">
        <ele>1777.4</ele>
      </trkpt>
      <trkpt lat="44.38683" lon="6.78101">
        <ele>1777</ele>
      </trkpt>
      <trkpt lat="44.38653" lon="6.78069">
        <ele>1763.7</ele>
      </trkpt>
      <trkpt lat="44.38651" lon="6.78066">
        <ele>1762.9</ele>
      </trkpt>
      <trkpt lat="44.38637" lon="6.78061">
        <ele>1762.5</ele>
      </trkpt>
      <trkpt lat="44.38593" lon="6.7804">
        <ele>1763.2</ele>
      </trkpt>
      <trkpt lat="44.38583" lon="6.7804">
        <ele>1777</ele>
      </trkpt>
      <trkpt lat="44.38562" lon="6.78048">
        <ele>1780.5</ele>
      </trkpt>
      <trkpt lat="44.38544" lon="6.78045">
        <ele>1781.1</ele>
      </trkpt>
      <trkpt lat="44.38532" lon="6.78045">
        <ele>1782.2</ele>
      </trkpt>
      <trkpt lat="44.38512" lon="6.7804">
        <ele>1783</ele>
      </trkpt>
      <trkpt lat="44.38504" lon="6.78036">
        <ele>1782.8</ele>
      </trkpt>
      <trkpt lat="44.38493" lon="6.78026">
        <ele>1787.1</ele>
      </trkpt>
      <trkpt lat="44.38481" lon="6.78004">
        <ele>1784.9</ele>
      </trkpt>
      <trkpt lat="44.38471" lon="6.77994">
        <ele>1775.8</ele>
      </trkpt>
      <trkpt lat="44.38467" lon="6.77992">
        <ele>1775.6</ele>
      </trkpt>
      <trkpt lat="44.38462" lon="6.77993">
        <ele>1775.5</ele>
      </trkpt>
      <trkpt lat="44.38392" lon="6.78029">
        <ele>1790</ele>
      </trkpt>
      <trkpt lat="44.38389" lon="6.78032">
        <ele>1790.6</ele>
      </trkpt>
      <trkpt lat="44.38385" lon="6.78034">
        <ele>1791</ele>
      </trkpt>
      <trkpt lat="44.38378" lon="6.78044">
        <ele>1792.5</ele>
      </trkpt>
      <trkpt lat="44.38371" lon="6.78051">
        <ele>1793.5</ele>
      </trkpt>
      <trkpt lat="44.38366" lon="6.78053">
        <ele>1793.9</ele>
      </trkpt>
      <trkpt lat="44.38365" lon="6.78053">
        <ele>1793.9</ele>
      </trkpt>
      <trkpt lat="44.38351" lon="6.78048">
        <ele>1793.5</ele>
      </trkpt>
      <trkpt lat="44.38346" lon="6.78045">
        <ele>1793</ele>
      </trkpt>
      <trkpt lat="44.38338" lon="6.78043">
        <ele>1792.8</ele>
      </trkpt>
      <trkpt lat="44.38323" lon="6.78045">
        <ele>1794.5</ele>
      </trkpt>
      <trkpt lat="44.38317" lon="6.78047">
        <ele>1794.9</ele>
      </trkpt>
      <trkpt lat="44.38307" lon="6.78052">
        <ele>1795.4</ele>
      </trkpt>
      <trkpt lat="44.38306" lon="6.78052">
        <ele>1795.4</ele>
      </trkpt>
      <trkpt lat="44.38294" lon="6.78058">
        <ele>1795.9</ele>
      </trkpt>
      <trkpt lat="44.38284" lon="6.7806">
        <ele>1796.1</ele>
      </trkpt>
      <trkpt lat="44.3828" lon="6.78058">
        <ele>1796.1</ele>
      </trkpt>
      <trkpt lat="44.38274" lon="6.78049">
        <ele>1795.4</ele>
      </trkpt>
      <trkpt lat="44.38261" lon="6.78036">
        <ele>1794.5</ele>
      </trkpt>
      <trkpt lat="44.38257" lon="6.78033">
        <ele>1794.2</ele>
      </trkpt>
      <trkpt lat="44.38247" lon="6.78031">
        <ele>1796.6</ele>
      </trkpt>
      <trkpt lat="44.38199" lon="6.78034">
        <ele>1798.2</ele>
      </trkpt>
      <trkpt lat="44.38193" lon="6.78036">
        <ele>1798.6</ele>
      </trkpt>
      <trkpt lat="44.38192" lon="6.78037">
        <ele>1798.7</ele>
      </trkpt>
      <trkpt lat="44.38176" lon="6.78044">
        <ele>1800.1</ele>
      </trkpt>
      <trkpt lat="44.38161" lon="6.78048">
        <ele>1805</ele>
      </trkpt>
      <trkpt lat="44.38156" lon="6.78048">
        <ele>1805.1</ele>
      </trkpt>
      <trkpt lat="44.38147" lon="6.78046">
        <ele>1805</ele>
      </trkpt>
      <trkpt lat="44.38138" lon="6.78041">
        <ele>1804.6</ele>
      </trkpt>
      <trkpt lat="44.38125" lon="6.78038">
        <ele>1804.8</ele>
      </trkpt>
      <trkpt lat="44.38121" lon="6.78038">
        <ele>1805</ele>
      </trkpt>
      <trkpt lat="44.38114" lon="6.7804">
        <ele>1805.5</ele>
      </trkpt>
      <trkpt lat="44.38095" lon="6.78053">
        <ele>1808.3</ele>
      </trkpt>
      <trkpt lat="44.38086" lon="6.78056">
        <ele>1809.3</ele>
      </trkpt>
      <trkpt lat="44.3808" lon="6.78055">
        <ele>1810.4</ele>
      </trkpt>
      <trkpt lat="44.38069" lon="6.78055">
        <ele>1810.1</ele>
      </trkpt>
      <trkpt lat="44.38065" lon="6.78057">
        <ele>1810.2</ele>
      </trkpt>
      <trkpt lat="44.38064" lon="6.78059">
        <ele>1810.4</ele>
      </trkpt>
      <trkpt lat="44.38062" lon="6.7806">
        <ele>1810.4</ele>
      </trkpt>
      <trkpt lat="44.38061" lon="6.78063">
        <ele>1810.7</ele>
      </trkpt>
      <trkpt lat="44.38061" lon="6.7807">
        <ele>1811.5</ele>
      </trkpt>
      <trkpt lat="44.38062" lon="6.78073">
        <ele>1811.9</ele>
      </trkpt>
      <trkpt lat="44.38065" lon="6.78077">
        <ele>1812.7</ele>
      </trkpt>
      <trkpt lat="44.38068" lon="6.78079">
        <ele>1813.3</ele>
      </trkpt>
      <trkpt lat="44.38075" lon="6.78079">
        <ele>1814.8</ele>
      </trkpt>
      <trkpt lat="44.3808" lon="6.78078">
        <ele>1815.7</ele>
      </trkpt>
      <trkpt lat="44.38085" lon="6.78078">
        <ele>1815.4</ele>
      </trkpt>
      <trkpt lat="44.38086" lon="6.78077">
        <ele>1814.9</ele>
      </trkpt>
      <trkpt lat="44.38103" lon="6.78081">
        <ele>1811.5</ele>
      </trkpt>
      <trkpt lat="44.38114" lon="6.78088">
        <ele>1821.8</ele>
      </trkpt>
      <trkpt lat="44.38123" lon="6.78096">
        <ele>1822.2</ele>
      </trkpt>
      <trkpt lat="44.38144" lon="6.78121">
        <ele>1824.1</ele>
      </trkpt>
      <trkpt lat="44.38147" lon="6.78123">
        <ele>1824.4</ele>
      </trkpt>
      <trkpt lat="44.3815" lon="6.78126">
        <ele>1824.8</ele>
      </trkpt>
      <trkpt lat="44.38152" lon="6.78126">
        <ele>1824.8</ele>
      </trkpt>
      <trkpt lat="44.38159" lon="6.78128">
        <ele>1825</ele>
      </trkpt>
      <trkpt lat="44.38177" lon="6.78128">
        <ele>1819.9</ele>
      </trkpt>
      <trkpt lat="44.38182" lon="6.78131">
        <ele>1820.2</ele>
      </trkpt>
      <trkpt lat="44.38184" lon="6.78133">
        <ele>1820.4</ele>
      </trkpt>
      <trkpt lat="44.38185" lon="6.78136">
        <ele>1820.9</ele>
      </trkpt>
      <trkpt lat="44.38185" lon="6.78138">
        <ele>1821.3</ele>
      </trkpt>
      <trkpt lat="44.38186" lon="6.7814">
        <ele>1821.5</ele>
      </trkpt>
      <trkpt lat="44.38182" lon="6.7815">
        <ele>1824.1</ele>
      </trkpt>
      <trkpt lat="44.3818" lon="6.78152">
        <ele>1824.9</ele>
      </trkpt>
      <trkpt lat="44.38168" lon="6.78156">
        <ele>1828.2</ele>
      </trkpt>
      <trkpt lat="44.38159" lon="6.78157">
        <ele>1830.5</ele>
      </trkpt>
      <trkpt lat="44.38145" lon="6.78155">
        <ele>1828.8</ele>
      </trkpt>
      <trkpt lat="44.38139" lon="6.78155">
        <ele>1828.5</ele>
      </trkpt>
      <trkpt lat="44.38112" lon="6.78148">
        <ele>1828.5</ele>
      </trkpt>
      <trkpt lat="44.38092" lon="6.78149">
        <ele>1830.5</ele>
      </trkpt>
      <trkpt lat="44.38081" lon="6.78152">
        <ele>1832</ele>
      </trkpt>
      <trkpt lat="44.38071" lon="6.78156">
        <ele>1831.8</ele>
      </trkpt>
      <trkpt lat="44.38038" lon="6.78173">
        <ele>1845.3</ele>
      </trkpt>
      <trkpt lat="44.38013" lon="6.78183">
        <ele>1844.2</ele>
      </trkpt>
      <trkpt lat="44.37963" lon="6.78197">
        <ele>1853.2</ele>
      </trkpt>
      <trkpt lat="44.37952" lon="6.78197">
        <ele>1853.6</ele>
      </trkpt>
      <trkpt lat="44.37879" lon="6.78188">
        <ele>1859.1</ele>
      </trkpt>
      <trkpt lat="44.37848" lon="6.78188">
        <ele>1859.9</ele>
      </trkpt>
      <trkpt lat="44.37836" lon="6.78185">
        <ele>1858.6</ele>
      </trkpt>
      <trkpt lat="44.37828" lon="6.78181">
        <ele>1865.4</ele>
      </trkpt>
      <trkpt lat="44.37827" lon="6.78181">
        <ele>1865.7</ele>
      </trkpt>
      <trkpt lat="44.37823" lon="6.78179">
        <ele>1866</ele>
      </trkpt>
      <trkpt lat="44.37812" lon="6.78176">
        <ele>1869.8</ele>
      </trkpt>
      <trkpt lat="44.378" lon="6.78171">
        <ele>1873.5</ele>
      </trkpt>
      <trkpt lat="44.37797" lon="6.78168">
        <ele>1874.2</ele>
      </trkpt>
      <trkpt lat="44.3779" lon="6.78163">
        <ele>1855</ele>
      </trkpt>
      <trkpt lat="44.3778" lon="6.78149">
        <ele>1855.5</ele>
      </trkpt>
      <trkpt lat="44.37779" lon="6.78146">
        <ele>1855.1</ele>
      </trkpt>
      <trkpt lat="44.37762" lon="6.78124">
        <ele>1851.1</ele>
      </trkpt>
      <trkpt lat="44.37754" lon="6.78118">
        <ele>1849.6</ele>
      </trkpt>
      <trkpt lat="44.37741" lon="6.78114">
        <ele>1857.8</ele>
      </trkpt>
      <trkpt lat="44.37722" lon="6.7811">
        <ele>1858.6</ele>
      </trkpt>
      <trkpt lat="44.37706" lon="6.7811">
        <ele>1860.1</ele>
      </trkpt>
      <trkpt lat="44.37701" lon="6.78111">
        <ele>1860.6</ele>
      </trkpt>
      <trkpt lat="44.37699" lon="6.78112">
        <ele>1860.9</ele>
      </trkpt>
      <trkpt lat="44.37696" lon="6.78112">
        <ele>1861</ele>
      </trkpt>
      <trkpt lat="44.37677" lon="6.78123">
        <ele>1864.1</ele>
      </trkpt>
      <trkpt lat="44.37666" lon="6.78132">
        <ele>1867</ele>
      </trkpt>
      <trkpt lat="44.37641" lon="6.78159">
        <ele>1870.8</ele>
      </trkpt>
      <trkpt lat="44.37618" lon="6.78193">
        <ele>1887.6</ele>
      </trkpt>
      <trkpt lat="44.37613" lon="6.78199">
        <ele>1888</ele>
      </trkpt>
      <trkpt lat="44.37598" lon="6.78209">
        <ele>1888.3</ele>
      </trkpt>
      <trkpt lat="44.37591" lon="6.78212">
        <ele>1888.5</ele>
      </trkpt>
      <trkpt lat="44.37574" lon="6.78217">
        <ele>1882</ele>
      </trkpt>
      <trkpt lat="44.37568" lon="6.78218">
        <ele>1882</ele>
      </trkpt>
      <trkpt lat="44.37533" lon="6.78229">
        <ele>1882</ele>
      </trkpt>
      <trkpt lat="44.3751" lon="6.78246">
        <ele>1885.8</ele>
      </trkpt>
      <trkpt lat="44.37499" lon="6.78251">
        <ele>1890.3</ele>
      </trkpt>
      <trkpt lat="44.37494" lon="6.78252">
        <ele>1894.2</ele>
      </trkpt>
      <trkpt lat="44.37457" lon="6.7825">
        <ele>1882.9</ele>
      </trkpt>
      <trkpt lat="44.37448" lon="6.78251">
        <ele>1904.4</ele>
      </trkpt>
      <trkpt lat="44.3737" lon="6.78251">
        <ele>1915</ele>
      </trkpt>
      <trkpt lat="44.37368" lon="6.7825">
        <ele>1892.7</ele>
      </trkpt>
      <trkpt lat="44.37365" lon="6.7825">
        <ele>1893.3</ele>
      </trkpt>
      <trkpt lat="44.37356" lon="6.78247">
        <ele>1895.4</ele>
      </trkpt>
      <trkpt lat="44.37351" lon="6.78244">
        <ele>1896.7</ele>
      </trkpt>
      <trkpt lat="44.37346" lon="6.78242">
        <ele>1898.2</ele>
      </trkpt>
      <trkpt lat="44.37336" lon="6.78236">
        <ele>1898.4</ele>
      </trkpt>
      <trkpt lat="44.3732" lon="6.78219">
        <ele>1904.1</ele>
      </trkpt>
      <trkpt lat="44.37304" lon="6.78198">
        <ele>1901.7</ele>
      </trkpt>
      <trkpt lat="44.37292" lon="6.78187">
        <ele>1902</ele>
      </trkpt>
      <trkpt lat="44.37284" lon="6.78184">
        <ele>1902.9</ele>
      </trkpt>
      <trkpt lat="44.37279" lon="6.78183">
        <ele>1903.4</ele>
      </trkpt>
      <trkpt lat="44.37252" lon="6.78188">
        <ele>1905.7</ele>
      </trkpt>
      <trkpt lat="44.37243" lon="6.78191">
        <ele>1914.1</ele>
      </trkpt>
      <trkpt lat="44.37226" lon="6.78205">
        <ele>1918.3</ele>
      </trkpt>
      <trkpt lat="44.37217" lon="6.78209">
        <ele>1919.2</ele>
      </trkpt>
      <trkpt lat="44.37159" lon="6.7822">
        <ele>1923.5</ele>
      </trkpt>
      <trkpt lat="44.37149" lon="6.78225">
        <ele>1923.9</ele>
      </trkpt>
      <trkpt lat="44.37103" lon="6.78254">
        <ele>1932.6</ele>
      </trkpt>
      <trkpt lat="44.37091" lon="6.78264">
        <ele>1931.9</ele>
      </trkpt>
      <trkpt lat="44.37068" lon="6.7829">
        <ele>1933.8</ele>
      </trkpt>
      <trkpt lat="44.37049" lon="6.78319">
        <ele>1935.9</ele>
      </trkpt>
      <trkpt lat="44.37019" lon="6.78386">
        <ele>1947.8</ele>
      </trkpt>
      <trkpt lat="44.37009" lon="6.78403">
        <ele>1948.3</ele>
      </trkpt>
      <trkpt lat="44.36941" lon="6.78471">
        <ele>1952.2</ele>
      </trkpt>
      <trkpt lat="44.36933" lon="6.78481">
        <ele>1952.7</ele>
      </trkpt>
      <trkpt lat="44.3693" lon="6.78487">
        <ele>1953</ele>
      </trkpt>
      <trkpt lat="44.36925" lon="6.78504">
        <ele>1958.9</ele>
      </trkpt>
      <trkpt lat="44.36917" lon="6.78519">
        <ele>1962.4</ele>
      </trkpt>
      <trkpt lat="44.36915" lon="6.7852">
        <ele>1958.1</ele>
      </trkpt>
      <trkpt lat="44.36914" lon="6.78522">
        <ele>1958.4</ele>
      </trkpt>
      <trkpt lat="44.36909" lon="6.78526">
        <ele>1959.1</ele>
      </trkpt>
      <trkpt lat="44.3689" lon="6.78531">
        <ele>1959.7</ele>
      </trkpt>
      <trkpt lat="44.36875" lon="6.78537">
        <ele>1960</ele>
      </trkpt>
      <trkpt lat="44.36868" lon="6.78541">
        <ele>1960.2</ele>
      </trkpt>
      <trkpt lat="44.36865" lon="6.78544">
        <ele>1960.4</ele>
      </trkpt>
      <trkpt lat="44.36863" lon="6.78545">
        <ele>1960.5</ele>
      </trkpt>
      <trkpt lat="44.36833" lon="6.78573">
        <ele>1964.1</ele>
      </trkpt>
      <trkpt lat="44.36826" lon="6.78581">
        <ele>1964.8</ele>
      </trkpt>
      <trkpt lat="44.36816" lon="6.78589">
        <ele>1973</ele>
      </trkpt>
      <trkpt lat="44.36811" lon="6.78591">
        <ele>1973.9</ele>
      </trkpt>
      <trkpt lat="44.36798" lon="6.78594">
        <ele>1975.2</ele>
      </trkpt>
      <trkpt lat="44.3679" lon="6.78597">
        <ele>1975.6</ele>
      </trkpt>
      <trkpt lat="44.3676" lon="6.78614">
        <ele>1976.5</ele>
      </trkpt>
      <trkpt lat="44.36756" lon="6.78615">
        <ele>1976.6</ele>
      </trkpt>
      <trkpt lat="44.36728" lon="6.78631">
        <ele>1977.4</ele>
      </trkpt>
      <trkpt lat="44.36714" lon="6.78636">
        <ele>1977.6</ele>
      </trkpt>
      <trkpt lat="44.36687" lon="6.78639">
        <ele>1977.9</ele>
      </trkpt>
      <trkpt lat="44.3668" lon="6.78642">
        <ele>1978.4</ele>
      </trkpt>
      <trkpt lat="44.36673" lon="6.78643">
        <ele>1978.6</ele>
      </trkpt>
      <trkpt lat="44.36672" lon="6.78644">
        <ele>1978.8</ele>
      </trkpt>
      <trkpt lat="44.36656" lon="6.78651">
        <ele>1976.8</ele>
      </trkpt>
      <trkpt lat="44.36653" lon="6.78654">
        <ele>1976.9</ele>
      </trkpt>
      <trkpt lat="44.36651" lon="6.78655">
        <ele>1976.7</ele>
      </trkpt>
      <trkpt lat="44.36649" lon="6.78658">
        <ele>1976.7</ele>
      </trkpt>
      <trkpt lat="44.36647" lon="6.78666">
        <ele>1976.9</ele>
      </trkpt>
      <trkpt lat="44.36647" lon="6.78669">
        <ele>1985.3</ele>
      </trkpt>
      <trkpt lat="44.36649" lon="6.78673">
        <ele>1985.5</ele>
      </trkpt>
      <trkpt lat="44.36654" lon="6.78675">
        <ele>1985.4</ele>
      </trkpt>
      <trkpt lat="44.36657" lon="6.78675">
        <ele>1985.2</ele>
      </trkpt>
      <trkpt lat="44.36674" lon="6.78666">
        <ele>1981.5</ele>
      </trkpt>
      <trkpt lat="44.36679" lon="6.78665">
        <ele>1980.7</ele>
      </trkpt>
      <trkpt lat="44.36692" lon="6.78665">
        <ele>1979.7</ele>
      </trkpt>
      <trkpt lat="44.36699" lon="6.78667">
        <ele>1991.2</ele>
      </trkpt>
      <trkpt lat="44.3672" lon="6.78679">
        <ele>1992.6</ele>
      </trkpt>
      <trkpt lat="44.36731" lon="6.78683">
        <ele>1992.6</ele>
      </trkpt>
      <trkpt lat="44.36736" lon="6.78682">
        <ele>1992</ele>
      </trkpt>
      <trkpt lat="44.36747" lon="6.78677">
        <ele>1989.8</ele>
      </trkpt>
      <trkpt lat="44.3675" lon="6.78675">
        <ele>1989.1</ele>
      </trkpt>
      <trkpt lat="44.36761" lon="6.7867">
        <ele>1992.5</ele>
      </trkpt>
      <trkpt lat="44.3677" lon="6.78668">
        <ele>1995.3</ele>
      </trkpt>
      <trkpt lat="44.36812" lon="6.78673">
        <ele>1999.5</ele>
      </trkpt>
      <trkpt lat="44.36852" lon="6.78674">
        <ele>2003.6</ele>
      </trkpt>
      <trkpt lat="44.36867" lon="6.78672">
        <ele>2005.9</ele>
      </trkpt>
      <trkpt lat="44.36872" lon="6.78672">
        <ele>2006.3</ele>
      </trkpt>
      <trkpt lat="44.36875" lon="6.78673">
        <ele>2006.6</ele>
      </trkpt>
      <trkpt lat="44.3688" lon="6.78678">
        <ele>2007.2</ele>
      </trkpt>
      <trkpt lat="44.36881" lon="6.78682">
        <ele>2007.7</ele>
      </trkpt>
      <trkpt lat="44.36881" lon="6.78685">
        <ele>2008</ele>
      </trkpt>
      <trkpt lat="44.36879" lon="6.78689">
        <ele>2008.4</ele>
      </trkpt>
      <trkpt lat="44.36878" lon="6.7869">
        <ele>2008.5</ele>
      </trkpt>
      <trkpt lat="44.36876" lon="6.78691">
        <ele>2008.6</ele>
      </trkpt>
      <trkpt lat="44.36874" lon="6.78693">
        <ele>2008.7</ele>
      </trkpt>
      <trkpt lat="44.36873" lon="6.78693">
        <ele>2008.7</ele>
      </trkpt>
      <trkpt lat="44.36871" lon="6.78694">
        <ele>2008.7</ele>
      </trkpt>
      <trkpt lat="44.36863" lon="6.78694">
        <ele>2008.3</ele>
      </trkpt>
      <trkpt lat="44.36844" lon="6.78699">
        <ele>2008</ele>
      </trkpt>
      <trkpt lat="44.36821" lon="6.78707">
        <ele>2005.1</ele>
      </trkpt>
      <trkpt lat="44.36792" lon="6.78721">
        <ele>2006</ele>
      </trkpt>
      <trkpt lat="44.36773" lon="6.78738">
        <ele>2007.8</ele>
      </trkpt>
      <trkpt lat="44.36753" lon="6.78748">
        <ele>2011.8</ele>
      </trkpt>
      <trkpt lat="44.36749" lon="6.78751">
        <ele>2013.3</ele>
      </trkpt>
      <trkpt lat="44.36743" lon="6.78753">
        <ele>2014.4</ele>
      </trkpt>
      <trkpt lat="44.36738" lon="6.78757">
        <ele>2015.2</ele>
      </trkpt>
      <trkpt lat="44.36722" lon="6.78774">
        <ele>2017</ele>
      </trkpt>
      <trkpt lat="44.36706" lon="6.78795">
        <ele>2018.8</ele>
      </trkpt>
      <trkpt lat="44.36696" lon="6.78812">
        <ele>2020.4</ele>
      </trkpt>
      <trkpt lat="44.36686" lon="6.78826">
        <ele>2021.8</ele>
      </trkpt>
      <trkpt lat="44.36686" lon="6.78827">
        <ele>2021.9</ele>
      </trkpt>
      <trkpt lat="44.36675" lon="6.78836">
        <ele>2030</ele>
      </trkpt>
      <trkpt lat="44.36671" lon="6.78836">
        <ele>2028.2</ele>
      </trkpt>
      <trkpt lat="44.36646" lon="6.78845">
        <ele>2034.2</ele>
      </trkpt>
      <trkpt lat="44.36632" lon="6.78856">
        <ele>2037.3</ele>
      </trkpt>
      <trkpt lat="44.36621" lon="6.78862">
        <ele>2038.6</ele>
      </trkpt>
      <trkpt lat="44.36615" lon="6.78864">
        <ele>2038.9</ele>
      </trkpt>
      <trkpt lat="44.36608" lon="6.78865">
        <ele>2039</ele>
      </trkpt>
      <trkpt lat="44.36596" lon="6.78863">
        <ele>2037.9</ele>
      </trkpt>
      <trkpt lat="44.36577" lon="6.78857">
        <ele>2040.9</ele>
      </trkpt>
      <trkpt lat="44.36554" lon="6.78855">
        <ele>2044.8</ele>
      </trkpt>
      <trkpt lat="44.36541" lon="6.78852">
        <ele>2046.3</ele>
      </trkpt>
      <trkpt lat="44.36539" lon="6.78852">
        <ele>2046.5</ele>
      </trkpt>
      <trkpt lat="44.36524" lon="6.78848">
        <ele>2046.8</ele>
      </trkpt>
      <trkpt lat="44.36508" lon="6.78839">
        <ele>2044.1</ele>
      </trkpt>
      <trkpt lat="44.365" lon="6.7883">
        <ele>2038</ele>
      </trkpt>
      <trkpt lat="44.36493" lon="6.78817">
        <ele>2038.2</ele>
      </trkpt>
      <trkpt lat="44.36474" lon="6.78795">
        <ele>2035.2</ele>
      </trkpt>
      <trkpt lat="44.36464" lon="6.78788">
        <ele>2034.9</ele>
      </trkpt>
      <trkpt lat="44.36463" lon="6.78788">
        <ele>2035</ele>
      </trkpt>
      <trkpt lat="44.36457" lon="6.78786">
        <ele>2035.3</ele>
      </trkpt>
      <trkpt lat="44.36449" lon="6.78786">
        <ele>2036.1</ele>
      </trkpt>
      <trkpt lat="44.36417" lon="6.788">
        <ele>2042.6</ele>
      </trkpt>
      <trkpt lat="44.36405" lon="6.78803">
        <ele>2051.3</ele>
      </trkpt>
      <trkpt lat="44.36401" lon="6.78803">
        <ele>2051.2</ele>
      </trkpt>
      <trkpt lat="44.36394" lon="6.788">
        <ele>2050.5</ele>
      </trkpt>
      <trkpt lat="44.36384" lon="6.78794">
        <ele>2049.5</ele>
      </trkpt>
      <trkpt lat="44.36377" lon="6.78794">
        <ele>2049.8</ele>
      </trkpt>
      <trkpt lat="44.36344" lon="6.78809">
        <ele>2054.1</ele>
      </trkpt>
      <trkpt lat="44.36342" lon="6.78809">
        <ele>2054.3</ele>
      </trkpt>
      <trkpt lat="44.36341" lon="6.7881">
        <ele>2054.6</ele>
      </trkpt>
      <trkpt lat="44.36335" lon="6.7881">
        <ele>2054.8</ele>
      </trkpt>
      <trkpt lat="44.3632" lon="6.78804">
        <ele>2056.3</ele>
      </trkpt>
      <trkpt lat="44.36308" lon="6.78797">
        <ele>2055.3</ele>
      </trkpt>
      <trkpt lat="44.36293" lon="6.78786">
        <ele>2054.5</ele>
      </trkpt>
      <trkpt lat="44.36292" lon="6.78786">
        <ele>2054.5</ele>
      </trkpt>
      <trkpt lat="44.36264" lon="6.78771">
        <ele>2053.9</ele>
      </trkpt>
      <trkpt lat="44.36224" lon="6.7876">
        <ele>2056.8</ele>
      </trkpt>
      <trkpt lat="44.36206" lon="6.78753">
        <ele>2057.5</ele>
      </trkpt>
      <trkpt lat="44.36204" lon="6.78753">
        <ele>2057.6</ele>
      </trkpt>
      <trkpt lat="44.36195" lon="6.78751">
        <ele>2057.5</ele>
      </trkpt>
      <trkpt lat="44.36174" lon="6.78736">
        <ele>2057.2</ele>
      </trkpt>
      <trkpt lat="44.36158" lon="6.78721">
        <ele>2066.3</ele>
      </trkpt>
      <trkpt lat="44.36129" lon="6.78688">
        <ele>2070.8</ele>
      </trkpt>
      <trkpt lat="44.36119" lon="6.7867">
        <ele>2072.1</ele>
      </trkpt>
      <trkpt lat="44.36114" lon="6.78656">
        <ele>2073.4</ele>
      </trkpt>
      <trkpt lat="44.3611" lon="6.78639">
        <ele>2073.8</ele>
      </trkpt>
      <trkpt lat="44.3611" lon="6.78627">
        <ele>2073.8</ele>
      </trkpt>
      <trkpt lat="44.36109" lon="6.78624">
        <ele>2073.9</ele>
      </trkpt>
      <trkpt lat="44.36109" lon="6.78622">
        <ele>2073.9</ele>
      </trkpt>
      <trkpt lat="44.36108" lon="6.78621">
        <ele>2073.9</ele>
      </trkpt>
      <trkpt lat="44.36104" lon="6.78609">
        <ele>2074</ele>
      </trkpt>
      <trkpt lat="44.36101" lon="6.78603">
        <ele>2074</ele>
      </trkpt>
      <trkpt lat="44.36095" lon="6.78597">
        <ele>2073.8</ele>
      </trkpt>
      <trkpt lat="44.36083" lon="6.78588">
        <ele>2074.7</ele>
      </trkpt>
      <trkpt lat="44.36077" lon="6.78582">
        <ele>2074.8</ele>
      </trkpt>
      <trkpt lat="44.36066" lon="6.78567">
        <ele>2077.8</ele>
      </trkpt>
      <trkpt lat="44.36061" lon="6.78562">
        <ele>2078.6</ele>
      </trkpt>
      <trkpt lat="44.36061" lon="6.78561">
        <ele>2078.7</ele>
      </trkpt>
      <trkpt lat="44.36051" lon="6.78553">
        <ele>2079.5</ele>
      </trkpt>
      <trkpt lat="44.36037" lon="6.78549">
        <ele>2080</ele>
      </trkpt>
      <trkpt lat="44.36034" lon="6.78549">
        <ele>2080.1</ele>
      </trkpt>
      <trkpt lat="44.36032" lon="6.78548">
        <ele>2080.1</ele>
      </trkpt>
      <trkpt lat="44.36031" lon="6.78546">
        <ele>2080.1</ele>
      </trkpt>
      <trkpt lat="44.36029" lon="6.78545">
        <ele>2080.1</ele>
      </trkpt>
      <trkpt lat="44.36028" lon="6.78543">
        <ele>2080.1</ele>
      </trkpt>
      <trkpt lat="44.36019" lon="6.78496">
        <ele>2082.2</ele>
      </trkpt>
      <trkpt lat="44.36011" lon="6.78465">
        <ele>2085</ele>
      </trkpt>
      <trkpt lat="44.36003" lon="6.78445">
        <ele>2086.1</ele>
      </trkpt>
      <trkpt lat="44.35986" lon="6.78418">
        <ele>2083.4</ele>
      </trkpt>
      <trkpt lat="44.35981" lon="6.78412">
        <ele>2086.3</ele>
      </trkpt>
      <trkpt lat="44.35976" lon="6.78404">
        <ele>2086.6</ele>
      </trkpt>
      <trkpt lat="44.35884" lon="6.78294">
        <ele>2096.1</ele>
      </trkpt>
      <trkpt lat="44.35877" lon="6.78291">
        <ele>2096.3</ele>
      </trkpt>
      <trkpt lat="44.35877" lon="6.7829">
        <ele>2096.4</ele>
      </trkpt>
      <trkpt lat="44.35874" lon="6.7829">
        <ele>2096.4</ele>
      </trkpt>
      <trkpt lat="44.35871" lon="6.78289">
        <ele>2096.4</ele>
      </trkpt>
      <trkpt lat="44.35869" lon="6.78289">
        <ele>2096.4</ele>
      </trkpt>
      <trkpt lat="44.35862" lon="6.78292">
        <ele>2096.2</ele>
      </trkpt>
      <trkpt lat="44.35859" lon="6.78294">
        <ele>2096</ele>
      </trkpt>
      <trkpt lat="44.35852" lon="6.78302">
        <ele>2095.1</ele>
      </trkpt>
      <trkpt lat="44.3585" lon="6.78307">
        <ele>2094.5</ele>
      </trkpt>
      <trkpt lat="44.35848" lon="6.78309">
        <ele>2094.3</ele>
      </trkpt>
      <trkpt lat="44.35837" lon="6.78333">
        <ele>2090</ele>
      </trkpt>
      <trkpt lat="44.35828" lon="6.78343">
        <ele>2090.3</ele>
      </trkpt>
      <trkpt lat="44.35814" lon="6.78353">
        <ele>2091.5</ele>
      </trkpt>
      <trkpt lat="44.35808" lon="6.78356">
        <ele>2091.9</ele>
      </trkpt>
      <trkpt lat="44.35806" lon="6.78356">
        <ele>2092</ele>
      </trkpt>
      <trkpt lat="44.35803" lon="6.78357">
        <ele>2092.2</ele>
      </trkpt>
      <trkpt lat="44.35798" lon="6.78357">
        <ele>2092.6</ele>
      </trkpt>
      <trkpt lat="44.35795" lon="6.78358">
        <ele>2092.8</ele>
      </trkpt>
      <trkpt lat="44.35792" lon="6.78357">
        <ele>2093</ele>
      </trkpt>
      <trkpt lat="44.35788" lon="6.78357">
        <ele>2093.3</ele>
      </trkpt>
      <trkpt lat="44.35762" lon="6.78348">
        <ele>2095.7</ele>
      </trkpt>
      <trkpt lat="44.35739" lon="6.78343">
        <ele>2099.1</ele>
      </trkpt>
      <trkpt lat="44.35735" lon="6.78343">
        <ele>2099.2</ele>
      </trkpt>
      <trkpt lat="44.35694" lon="6.78333">
        <ele>2105.6</ele>
      </trkpt>
      <trkpt lat="44.35682" lon="6.78327">
        <ele>2105.1</ele>
      </trkpt>
      <trkpt lat="44.35673" lon="6.78321">
        <ele>2105</ele>
      </trkpt>
      <trkpt lat="44.35612" lon="6.78271">
        <ele>2114.1</ele>
      </trkpt>
      <trkpt lat="44.35611" lon="6.78271">
        <ele>2114.2</ele>
      </trkpt>
      <trkpt lat="44.35602" lon="6.78265">
        <ele>2115.2</ele>
      </trkpt>
      <trkpt lat="44.3558" lon="6.78257">
        <ele>2119.2</ele>
      </trkpt>
      <trkpt lat="44.35547" lon="6.78251">
        <ele>2119.6</ele>
      </trkpt>
      <trkpt lat="44.35514" lon="6.78258">
        <ele>2123.5</ele>
      </trkpt>
      <trkpt lat="44.35501" lon="6.78263">
        <ele>2124.2</ele>
      </trkpt>
      <trkpt lat="44.35486" lon="6.78274">
        <ele>2128.5</ele>
      </trkpt>
      <trkpt lat="44.35452" lon="6.78321">
        <ele>2127.4</ele>
      </trkpt>
      <trkpt lat="44.35444" lon="6.78328">
        <ele>2127.9</ele>
      </trkpt>
      <trkpt lat="44.35441" lon="6.78328">
        <ele>2128.1</ele>
      </trkpt>
      <trkpt lat="44.35437" lon="6.78329">
        <ele>2128.4</ele>
      </trkpt>
      <trkpt lat="44.35416" lon="6.78329">
        <ele>2130.6</ele>
      </trkpt>
      <trkpt lat="44.35415" lon="6.78328">
        <ele>2131</ele>
      </trkpt>
      <trkpt lat="44.35403" lon="6.78332">
        <ele>2133.1</ele>
      </trkpt>
      <trkpt lat="44.35399" lon="6.78335">
        <ele>2130.5</ele>
      </trkpt>
      <trkpt lat="44.35396" lon="6.78336">
        <ele>2130.7</ele>
      </trkpt>
      <trkpt lat="44.35391" lon="6.78339">
        <ele>2131.1</ele>
      </trkpt>
      <trkpt lat="44.35364" lon="6.78351">
        <ele>2133.1</ele>
      </trkpt>
      <trkpt lat="44.35349" lon="6.78354">
        <ele>2134.2</ele>
      </trkpt>
      <trkpt lat="44.35329" lon="6.78354">
        <ele>2141.5</ele>
      </trkpt>
      <trkpt lat="44.35311" lon="6.78351">
        <ele>2142.7</ele>
      </trkpt>
      <trkpt lat="44.3531" lon="6.7835">
        <ele>2142.7</ele>
      </trkpt>
      <trkpt lat="44.35291" lon="6.7834">
        <ele>2144.4</ele>
      </trkpt>
      <trkpt lat="44.35279" lon="6.7833">
        <ele>2145.3</ele>
      </trkpt>
      <trkpt lat="44.35278" lon="6.7833">
        <ele>2145.4</ele>
      </trkpt>
      <trkpt lat="44.35252" lon="6.7831">
        <ele>2146.5</ele>
      </trkpt>
      <trkpt lat="44.35244" lon="6.78302">
        <ele>2152.4</ele>
      </trkpt>
      <trkpt lat="44.35208" lon="6.78272">
        <ele>2155.1</ele>
      </trkpt>
      <trkpt lat="44.35204" lon="6.7827">
        <ele>2155.4</ele>
      </trkpt>
      <trkpt lat="44.352" lon="6.78267">
        <ele>2155.9</ele>
      </trkpt>
      <trkpt lat="44.35196" lon="6.78265">
        <ele>2156.3</ele>
      </trkpt>
      <trkpt lat="44.35185" lon="6.78262">
        <ele>2157.7</ele>
      </trkpt>
      <trkpt lat="44.35174" lon="6.78262">
        <ele>2158.9</ele>
      </trkpt>
      <trkpt lat="44.35171" lon="6.78263">
        <ele>2159</ele>
      </trkpt>
      <trkpt lat="44.35168" lon="6.78265">
        <ele>2158.9</ele>
      </trkpt>
      <trkpt lat="44.35167" lon="6.78265">
        <ele>2158.9</ele>
      </trkpt>
      <trkpt lat="44.35163" lon="6.78268">
        <ele>2164.3</ele>
      </trkpt>
      <trkpt lat="44.35157" lon="6.78276">
        <ele>2164.9</ele>
      </trkpt>
      <trkpt lat="44.35155" lon="6.78281">
        <ele>2165.1</ele>
      </trkpt>
      <trkpt lat="44.35151" lon="6.78307">
        <ele>2164.5</ele>
      </trkpt>
      <trkpt lat="44.35152" lon="6.78382">
        <ele>2167.8</ele>
      </trkpt>
      <trkpt lat="44.35153" lon="6.78383">
        <ele>2167.8</ele>
      </trkpt>
      <trkpt lat="44.35151" lon="6.78395">
        <ele>2168.1</ele>
      </trkpt>
      <trkpt lat="44.35147" lon="6.78406">
        <ele>2168.4</ele>
      </trkpt>
      <trkpt lat="44.35143" lon="6.78414">
        <ele>2168.8</ele>
      </trkpt>
      <trkpt lat="44.35139" lon="6.78427">
        <ele>2173.8</ele>
      </trkpt>
      <trkpt lat="44.35138" lon="6.78434">
        <ele>2174.4</ele>
      </trkpt>
      <trkpt lat="44.3514" lon="6.78442">
        <ele>2174.6</ele>
      </trkpt>
      <trkpt lat="44.35142" lon="6.78445">
        <ele>2174.6</ele>
      </trkpt>
      <trkpt lat="44.35143" lon="6.78448">
        <ele>2174.7</ele>
      </trkpt>
      <trkpt lat="44.35147" lon="6.78453">
        <ele>2174.6</ele>
      </trkpt>
      <trkpt lat="44.35161" lon="6.78462">
        <ele>2174.1</ele>
      </trkpt>
      <trkpt lat="44.35161" lon="6.78463">
        <ele>2174.2</ele>
      </trkpt>
      <trkpt lat="44.35166" lon="6.78467">
        <ele>2174</ele>
      </trkpt>
      <trkpt lat="44.3517" lon="6.78473">
        <ele>2165.5</ele>
      </trkpt>
      <trkpt lat="44.35171" lon="6.78476">
        <ele>2165.8</ele>
      </trkpt>
      <trkpt lat="44.35171" lon="6.78481">
        <ele>2166.4</ele>
      </trkpt>
      <trkpt lat="44.35172" lon="6.78484">
        <ele>2166.8</ele>
      </trkpt>
      <trkpt lat="44.35169" lon="6.78496">
        <ele>2169.5</ele>
      </trkpt>
      <trkpt lat="44.35167" lon="6.785">
        <ele>2170.9</ele>
      </trkpt>
      <trkpt lat="44.35163" lon="6.78504">
        <ele>2173.3</ele>
      </trkpt>
      <trkpt lat="44.35156" lon="6.78507">
        <ele>2175.7</ele>
      </trkpt>
      <trkpt lat="44.35151" lon="6.78507">
        <ele>2177</ele>
      </trkpt>
      <trkpt lat="44.35147" lon="6.78505">
        <ele>2177.8</ele>
      </trkpt>
      <trkpt lat="44.35126" lon="6.7849">
        <ele>2178</ele>
      </trkpt>
      <trkpt lat="44.35114" lon="6.78486">
        <ele>2179.8</ele>
      </trkpt>
      <trkpt lat="44.35113" lon="6.78486">
        <ele>2179.9</ele>
      </trkpt>
      <trkpt lat="44.35106" lon="6.78483">
        <ele>2180.9</ele>
      </trkpt>
      <trkpt lat="44.35093" lon="6.78474">
        <ele>2181.5</ele>
      </trkpt>
      <trkpt lat="44.35083" lon="6.78463">
        <ele>2192.5</ele>
      </trkpt>
      <trkpt lat="44.35072" lon="6.78454">
        <ele>2192.4</ele>
      </trkpt>
      <trkpt lat="44.35067" lon="6.78451">
        <ele>2192.6</ele>
      </trkpt>
      <trkpt lat="44.35065" lon="6.78451">
        <ele>2192.8</ele>
      </trkpt>
      <trkpt lat="44.35056" lon="6.78447">
        <ele>2193.5</ele>
      </trkpt>
      <trkpt lat="44.35053" lon="6.78445">
        <ele>2193.7</ele>
      </trkpt>
      <trkpt lat="44.35049" lon="6.78438">
        <ele>2193.7</ele>
      </trkpt>
      <trkpt lat="44.35048" lon="6.78431">
        <ele>2193.4</ele>
      </trkpt>
      <trkpt lat="44.35049" lon="6.78409">
        <ele>2185.6</ele>
      </trkpt>
      <trkpt lat="44.35045" lon="6.78393">
        <ele>2185.6</ele>
      </trkpt>
      <trkpt lat="44.35036" lon="6.78371">
        <ele>2185.3</ele>
      </trkpt>
      <trkpt lat="44.35027" lon="6.78354">
        <ele>2185.4</ele>
      </trkpt>
      <trkpt lat="44.35016" lon="6.78342">
        <ele>2186.3</ele>
      </trkpt>
      <trkpt lat="44.35011" lon="6.7834">
        <ele>2186.7</ele>
      </trkpt>
      <trkpt lat="44.35" lon="6.7834">
        <ele>2187.4</ele>
      </trkpt>
      <trkpt lat="44.34963" lon="6.78353">
        <ele>2198.5</ele>
      </trkpt>
      <trkpt lat="44.34885" lon="6.78354">
        <ele>2213.8</ele>
      </trkpt>
      <trkpt lat="44.34883" lon="6.78355">
        <ele>2214.2</ele>
      </trkpt>
      <trkpt lat="44.34877" lon="6.78355">
        <ele>2215</ele>
      </trkpt>
      <trkpt lat="44.34873" lon="6.78356">
        <ele>2215.6</ele>
      </trkpt>
      <trkpt lat="44.3487" lon="6.78358">
        <ele>2216.1</ele>
      </trkpt>
      <trkpt lat="44.34863" lon="6.78369">
        <ele>2217.8</ele>
      </trkpt>
      <trkpt lat="44.34863" lon="6.78374">
        <ele>2218.2</ele>
      </trkpt>
      <trkpt lat="44.34864" lon="6.7838">
        <ele>2218.8</ele>
      </trkpt>
      <trkpt lat="44.34871" lon="6.7839">
        <ele>2218.9</ele>
      </trkpt>
      <trkpt lat="44.34874" lon="6.78392">
        <ele>2218.6</ele>
      </trkpt>
      <trkpt lat="44.34886" lon="6.78408">
        <ele>2217.8</ele>
      </trkpt>
      <trkpt lat="44.34901" lon="6.78441">
        <ele>2228.3</ele>
      </trkpt>
      <trkpt lat="44.34907" lon="6.78448">
        <ele>2229.3</ele>
      </trkpt>
      <trkpt lat="44.34951" lon="6.78483">
        <ele>2220.5</ele>
      </trkpt>
      <trkpt lat="44.34984" lon="6.78513">
        <ele>2227.2</ele>
      </trkpt>
      <trkpt lat="44.3499" lon="6.78521">
        <ele>2227.9</ele>
      </trkpt>
      <trkpt lat="44.3499" lon="6.78528">
        <ele>2229.8</ele>
      </trkpt>
      <trkpt lat="44.34986" lon="6.78533">
        <ele>2231.4</ele>
      </trkpt>
      <trkpt lat="44.34983" lon="6.78534">
        <ele>2232</ele>
      </trkpt>
      <trkpt lat="44.34974" lon="6.78531">
        <ele>2233</ele>
      </trkpt>
      <trkpt lat="44.34935" lon="6.78501">
        <ele>2236.8</ele>
      </trkpt>
      <trkpt lat="44.34922" lon="6.78494">
        <ele>2232</ele>
      </trkpt>
      <trkpt lat="44.34914" lon="6.78492">
        <ele>2236.7</ele>
      </trkpt>
      <trkpt lat="44.3489" lon="6.78489">
        <ele>2236.2</ele>
      </trkpt>
      <trkpt lat="44.34855" lon="6.78489">
        <ele>2240.5</ele>
      </trkpt>
      <trkpt lat="44.34847" lon="6.78487">
        <ele>2241.9</ele>
      </trkpt>
      <trkpt lat="44.34844" lon="6.78485">
        <ele>2242</ele>
      </trkpt>
      <trkpt lat="44.34839" lon="6.7848">
        <ele>2241.4</ele>
      </trkpt>
      <trkpt lat="44.34836" lon="6.78473">
        <ele>2239.9</ele>
      </trkpt>
      <trkpt lat="44.34827" lon="6.78429">
        <ele>2244.6</ele>
      </trkpt>
      <trkpt lat="44.34825" lon="6.78426">
        <ele>2244</ele>
      </trkpt>
      <trkpt lat="44.34823" lon="6.78425">
        <ele>2244.5</ele>
      </trkpt>
      <trkpt lat="44.34821" lon="6.78423">
        <ele>2244.8</ele>
      </trkpt>
      <trkpt lat="44.34819" lon="6.78423">
        <ele>2245.8</ele>
      </trkpt>
      <trkpt lat="44.34817" lon="6.78424">
        <ele>2246.9</ele>
      </trkpt>
      <trkpt lat="44.34817" lon="6.78425">
        <ele>2247.1</ele>
      </trkpt>
      <trkpt lat="44.34814" lon="6.78428">
        <ele>2248.8</ele>
      </trkpt>
      <trkpt lat="44.34813" lon="6.7843">
        <ele>2249.5</ele>
      </trkpt>
      <trkpt lat="44.34813" lon="6.78454">
        <ele>2253.1</ele>
      </trkpt>
      <trkpt lat="44.34812" lon="6.78458">
        <ele>2253.6</ele>
      </trkpt>
      <trkpt lat="44.34812" lon="6.78462">
        <ele>2253.9</ele>
      </trkpt>
      <trkpt lat="44.3481" lon="6.78465">
        <ele>2254.4</ele>
      </trkpt>
      <trkpt lat="44.34809" lon="6.78469">
        <ele>2254.6</ele>
      </trkpt>
      <trkpt lat="44.34805" lon="6.78475">
        <ele>2255.3</ele>
      </trkpt>
      <trkpt lat="44.34802" lon="6.78478">
        <ele>2255.8</ele>
      </trkpt>
      <trkpt lat="44.348" lon="6.78481">
        <ele>2256.2</ele>
      </trkpt>
      <trkpt lat="44.34786" lon="6.78496">
        <ele>2258.8</ele>
      </trkpt>
      <trkpt lat="44.3478" lon="6.78504">
        <ele>2263.3</ele>
      </trkpt>
      <trkpt lat="44.3478" lon="6.78505">
        <ele>2263.4</ele>
      </trkpt>
      <trkpt lat="44.34778" lon="6.78508">
        <ele>2263.6</ele>
      </trkpt>
      <trkpt lat="44.3477" lon="6.78525">
        <ele>2264.4</ele>
      </trkpt>
      <trkpt lat="44.3477" lon="6.78527">
        <ele>2264.4</ele>
      </trkpt>
      <trkpt lat="44.34769" lon="6.7853">
        <ele>2264.5</ele>
      </trkpt>
      <trkpt lat="44.34768" lon="6.78538">
        <ele>2264.6</ele>
      </trkpt>
      <trkpt lat="44.34771" lon="6.78548">
        <ele>2264.8</ele>
      </trkpt>
      <trkpt lat="44.34771" lon="6.78549">
        <ele>2264.9</ele>
      </trkpt>
      <trkpt lat="44.34774" lon="6.78553">
        <ele>2264.9</ele>
      </trkpt>
      <trkpt lat="44.34782" lon="6.78559">
        <ele>2264.7</ele>
      </trkpt>
      <trkpt lat="44.34789" lon="6.7856">
        <ele>2264.3</ele>
      </trkpt>
      <trkpt lat="44.34805" lon="6.78555">
        <ele>2263.2</ele>
      </trkpt>
      <trkpt lat="44.34821" lon="6.78548">
        <ele>2262.1</ele>
      </trkpt>
      <trkpt lat="44.34828" lon="6.78548">
        <ele>2261.9</ele>
      </trkpt>
      <trkpt lat="44.34831" lon="6.78549">
        <ele>2262</ele>
      </trkpt>
      <trkpt lat="44.34835" lon="6.78554">
        <ele>2257.4</ele>
      </trkpt>
      <trkpt lat="44.34836" lon="6.78557">
        <ele>2257.9</ele>
      </trkpt>
      <trkpt lat="44.34836" lon="6.78564">
        <ele>2259.3</ele>
      </trkpt>
      <trkpt lat="44.34832" lon="6.78574">
        <ele>2264.2</ele>
      </trkpt>
      <trkpt lat="44.34788" lon="6.78629">
        <ele>2271.6</ele>
      </trkpt>
      <trkpt lat="44.34719" lon="6.78705">
        <ele>2279.9</ele>
      </trkpt>
      <trkpt lat="44.3471" lon="6.78712">
        <ele>2280.1</ele>
      </trkpt>
      <trkpt lat="44.34703" lon="6.78714">
        <ele>2280.3</ele>
      </trkpt>
      <trkpt lat="44.34694" lon="6.78715">
        <ele>2280.6</ele>
      </trkpt>
      <trkpt lat="44.34683" lon="6.78712">
        <ele>2281.1</ele>
      </trkpt>
      <trkpt lat="44.34573" lon="6.7864">
        <ele>2291.5</ele>
      </trkpt>
      <trkpt lat="44.34567" lon="6.78635">
        <ele>2291.8</ele>
      </trkpt>
      <trkpt lat="44.34565" lon="6.78631">
        <ele>2292</ele>
      </trkpt>
      <trkpt lat="44.3456" lon="6.78625">
        <ele>2292.3</ele>
      </trkpt>
      <trkpt lat="44.34552" lon="6.78612">
        <ele>2292.8</ele>
      </trkpt>
      <trkpt lat="44.3455" lon="6.7861">
        <ele>2292.8</ele>
      </trkpt>
      <trkpt lat="44.34537" lon="6.7859">
        <ele>2293.2</ele>
      </trkpt>
      <trkpt lat="44.34528" lon="6.7858">
        <ele>2298.2</ele>
      </trkpt>
      <trkpt lat="44.34521" lon="6.78575">
        <ele>2297.9</ele>
      </trkpt>
      <trkpt lat="44.34518" lon="6.78572">
        <ele>2297.8</ele>
      </trkpt>
      <trkpt lat="44.34508" lon="6.78566">
        <ele>2297.7</ele>
      </trkpt>
      <trkpt lat="44.34502" lon="6.7856">
        <ele>2298.3</ele>
      </trkpt>
      <trkpt lat="44.34498" lon="6.78552">
        <ele>2299.3</ele>
      </trkpt>
      <trkpt lat="44.34497" lon="6.78548">
        <ele>2299.7</ele>
      </trkpt>
      <trkpt lat="44.34495" lon="6.78526">
        <ele>2301.6</ele>
      </trkpt>
      <trkpt lat="44.34497" lon="6.78498">
        <ele>2305</ele>
      </trkpt>
      <trkpt lat="44.34499" lon="6.78486">
        <ele>2307.1</ele>
      </trkpt>
      <trkpt lat="44.34498" lon="6.78482">
        <ele>2307.7</ele>
      </trkpt>
      <trkpt lat="44.34498" lon="6.78472">
        <ele>2308.9</ele>
      </trkpt>
      <trkpt lat="44.3449" lon="6.78458">
        <ele>2310.4</ele>
      </trkpt>
      <trkpt lat="44.34487" lon="6.78455">
        <ele>2310.7</ele>
      </trkpt>
      <trkpt lat="44.34484" lon="6.78453">
        <ele>2310.9</ele>
      </trkpt>
      <trkpt lat="44.34481" lon="6.78452">
        <ele>2311</ele>
      </trkpt>
      <trkpt lat="44.34474" lon="6.78451">
        <ele>2311.3</ele>
      </trkpt>
      <trkpt lat="44.34469" lon="6.78452">
        <ele>2311.5</ele>
      </trkpt>
      <trkpt lat="44.34447" lon="6.78451">
        <ele>2312.6</ele>
      </trkpt>
      <trkpt lat="44.34421" lon="6.78444">
        <ele>2315</ele>
      </trkpt>
      <trkpt lat="44.34414" lon="6.78444">
        <ele>2319.2</ele>
      </trkpt>
      <trkpt lat="44.34408" lon="6.78445">
        <ele>2319.1</ele>
      </trkpt>
      <trkpt lat="44.34381" lon="6.7846">
        <ele>2318.3</ele>
      </trkpt>
      <trkpt lat="44.34367" lon="6.78466">
        <ele>2318.5</ele>
      </trkpt>
      <trkpt lat="44.3436" lon="6.78466">
        <ele>2318.8</ele>
      </trkpt>
      <trkpt lat="44.34353" lon="6.78465">
        <ele>2319.1</ele>
      </trkpt>
      <trkpt lat="44.34339" lon="6.78459">
        <ele>2320</ele>
      </trkpt>
      <trkpt lat="44.3432" lon="6.78442">
        <ele>2323.7</ele>
      </trkpt>
      <trkpt lat="44.34315" lon="6.78436">
        <ele>2324</ele>
      </trkpt>
      <trkpt lat="44.34312" lon="6.7843">
        <ele>2324.3</ele>
      </trkpt>
      <trkpt lat="44.34308" lon="6.78415">
        <ele>2328.2</ele>
      </trkpt>
      <trkpt lat="44.34308" lon="6.78406">
        <ele>2328.3</ele>
      </trkpt>
      <trkpt lat="44.34321" lon="6.78333">
        <ele>2335.1</ele>
      </trkpt>
      <trkpt lat="44.34321" lon="6.78318">
        <ele>2335.4</ele>
      </trkpt>
      <trkpt lat="44.3432" lon="6.78316">
        <ele>2335.5</ele>
      </trkpt>
      <trkpt lat="44.34318" lon="6.78308">
        <ele>2335.8</ele>
      </trkpt>
      <trkpt lat="44.34302" lon="6.78273">
        <ele>2337.2</ele>
      </trkpt>
      <trkpt lat="44.34302" lon="6.78272">
        <ele>2337.2</ele>
      </trkpt>
      <trkpt lat="44.34282" lon="6.78236">
        <ele>2342.5</ele>
      </trkpt>
      <trkpt lat="44.34272" lon="6.78227">
        <ele>2342.3</ele>
      </trkpt>
      <trkpt lat="44.34264" lon="6.78223">
        <ele>2342.2</ele>
      </trkpt>
      <trkpt lat="44.3426" lon="6.78222">
        <ele>2342.1</ele>
      </trkpt>
      <trkpt lat="44.34224" lon="6.78218">
        <ele>2342.9</ele>
      </trkpt>
      <trkpt lat="44.3421" lon="6.78215">
        <ele>2343.7</ele>
      </trkpt>
      <trkpt lat="44.34195" lon="6.78215">
        <ele>2344.1</ele>
      </trkpt>
      <trkpt lat="44.34192" lon="6.78216">
        <ele>2344</ele>
      </trkpt>
      <trkpt lat="44.34189" lon="6.78216">
        <ele>2344</ele>
      </trkpt>
      <trkpt lat="44.3418" lon="6.78221">
        <ele>2343.3</ele>
      </trkpt>
      <trkpt lat="44.3414" lon="6.78248">
        <ele>2345.8</ele>
      </trkpt>
      <trkpt lat="44.34108" lon="6.7826">
        <ele>2340.4</ele>
      </trkpt>
      <trkpt lat="44.34033" lon="6.78273">
        <ele>2348.4</ele>
      </trkpt>
      <trkpt lat="44.34018" lon="6.78272">
        <ele>2349.6</ele>
      </trkpt>
      <trkpt lat="44.34002" lon="6.78265">
        <ele>2351.6</ele>
      </trkpt>
      <trkpt lat="44.33986" lon="6.78255">
        <ele>2356.8</ele>
      </trkpt>
      <trkpt lat="44.33976" lon="6.78251">
        <ele>2357.8</ele>
      </trkpt>
      <trkpt lat="44.33968" lon="6.7825">
        <ele>2365.6</ele>
      </trkpt>
      <trkpt lat="44.33964" lon="6.78251">
        <ele>2359.1</ele>
      </trkpt>
      <trkpt lat="44.33951" lon="6.7826">
        <ele>2360.5</ele>
      </trkpt>
      <trkpt lat="44.3395" lon="6.7826">
        <ele>2360.7</ele>
      </trkpt>
      <trkpt lat="44.33907" lon="6.783">
        <ele>2367.1</ele>
      </trkpt>
      <trkpt lat="44.33899" lon="6.78311">
        <ele>2366.6</ele>
      </trkpt>
      <trkpt lat="44.33886" lon="6.78342">
        <ele>2364.3</ele>
      </trkpt>
      <trkpt lat="44.33876" lon="6.78372">
        <ele>2365.2</ele>
      </trkpt>
      <trkpt lat="44.33865" lon="6.78396">
        <ele>2365.9</ele>
      </trkpt>
      <trkpt lat="44.33859" lon="6.78406">
        <ele>2366.5</ele>
      </trkpt>
      <trkpt lat="44.33859" lon="6.78407">
        <ele>2366.6</ele>
      </trkpt>
      <trkpt lat="44.33855" lon="6.7841">
        <ele>2367</ele>
      </trkpt>
      <trkpt lat="44.33849" lon="6.78417">
        <ele>2367.8</ele>
      </trkpt>
      <trkpt lat="44.33843" lon="6.7842">
        <ele>2368.5</ele>
      </trkpt>
      <trkpt lat="44.33842" lon="6.7842">
        <ele>2368.6</ele>
      </trkpt>
      <trkpt lat="44.33831" lon="6.78424">
        <ele>2371.8</ele>
      </trkpt>
      <trkpt lat="44.33822" lon="6.78426">
        <ele>2373</ele>
      </trkpt>
      <trkpt lat="44.3381" lon="6.78431">
        <ele>2374.7</ele>
      </trkpt>
      <trkpt lat="44.33805" lon="6.78436">
        <ele>2375.4</ele>
      </trkpt>
      <trkpt lat="44.33803" lon="6.78439">
        <ele>2375.7</ele>
      </trkpt>
      <trkpt lat="44.33801" lon="6.78446">
        <ele>2376</ele>
      </trkpt>
      <trkpt lat="44.33801" lon="6.78454">
        <ele>2376.2</ele>
      </trkpt>
      <trkpt lat="44.33807" lon="6.78465">
        <ele>2375.9</ele>
      </trkpt>
      <trkpt lat="44.33814" lon="6.7847">
        <ele>2375.4</ele>
      </trkpt>
      <trkpt lat="44.33832" lon="6.78477">
        <ele>2374.2</ele>
      </trkpt>
      <trkpt lat="44.33835" lon="6.7848">
        <ele>2368.2</ele>
      </trkpt>
      <trkpt lat="44.33838" lon="6.78482">
        <ele>2368.3</ele>
      </trkpt>
      <trkpt lat="44.33845" lon="6.78493">
        <ele>2368.7</ele>
      </trkpt>
      <trkpt lat="44.33845" lon="6.78494">
        <ele>2368.7</ele>
      </trkpt>
      <trkpt lat="44.33847" lon="6.78498">
        <ele>2368.6</ele>
      </trkpt>
      <trkpt lat="44.33849" lon="6.78507">
        <ele>2368.7</ele>
      </trkpt>
      <trkpt lat="44.33849" lon="6.78512">
        <ele>2368.5</ele>
      </trkpt>
      <trkpt lat="44.33846" lon="6.78526">
        <ele>2368.2</ele>
      </trkpt>
      <trkpt lat="44.33842" lon="6.78535">
        <ele>2368.2</ele>
      </trkpt>
      <trkpt lat="44.33839" lon="6.78552">
        <ele>2368.5</ele>
      </trkpt>
      <trkpt lat="44.33839" lon="6.78558">
        <ele>2368.8</ele>
      </trkpt>
      <trkpt lat="44.33845" lon="6.78585">
        <ele>2370.1</ele>
      </trkpt>
      <trkpt lat="44.33845" lon="6.78589">
        <ele>2369.9</ele>
      </trkpt>
      <trkpt lat="44.33846" lon="6.7859">
        <ele>2369.8</ele>
      </trkpt>
      <trkpt lat="44.33846" lon="6.78605">
        <ele>2369</ele>
      </trkpt>
      <trkpt lat="44.33844" lon="6.78613">
        <ele>2368.8</ele>
      </trkpt>
      <trkpt lat="44.33843" lon="6.78614">
        <ele>2368.8</ele>
      </trkpt>
      <trkpt lat="44.33837" lon="6.78627">
        <ele>2368.8</ele>
      </trkpt>
      <trkpt lat="44.33824" lon="6.78643">
        <ele>2376.9</ele>
      </trkpt>
      <trkpt lat="44.33812" lon="6.78654">
        <ele>2377.5</ele>
      </trkpt>
      <trkpt lat="44.33807" lon="6.78666">
        <ele>2378</ele>
      </trkpt>
      <trkpt lat="44.33806" lon="6.78666">
        <ele>2378.2</ele>
      </trkpt>
      <trkpt lat="44.33792" lon="6.78689">
        <ele>2381.9</ele>
      </trkpt>
      <trkpt lat="44.33788" lon="6.78694">
        <ele>2382.5</ele>
      </trkpt>
      <trkpt lat="44.33761" lon="6.78737">
        <ele>2386.8</ele>
      </trkpt>
      <trkpt lat="44.33757" lon="6.78747">
        <ele>2388.7</ele>
      </trkpt>
      <trkpt lat="44.33755" lon="6.78758">
        <ele>2389.2</ele>
      </trkpt>
      <trkpt lat="44.33755" lon="6.78769">
        <ele>2388.2</ele>
      </trkpt>
      <trkpt lat="44.33757" lon="6.78778">
        <ele>2387.7</ele>
      </trkpt>
      <trkpt lat="44.33757" lon="6.7878">
        <ele>2387.7</ele>
      </trkpt>
      <trkpt lat="44.33772" lon="6.78814">
        <ele>2387.9</ele>
      </trkpt>
      <trkpt lat="44.33774" lon="6.78822">
        <ele>2388.1</ele>
      </trkpt>
      <trkpt lat="44.33774" lon="6.7884">
        <ele>2389.6</ele>
      </trkpt>
      <trkpt lat="44.33773" lon="6.78847">
        <ele>2389.5</ele>
      </trkpt>
      <trkpt lat="44.33765" lon="6.78873">
        <ele>2389.6</ele>
      </trkpt>
      <trkpt lat="44.33764" lon="6.7888">
        <ele>2389.8</ele>
      </trkpt>
      <trkpt lat="44.33764" lon="6.78892">
        <ele>2390.4</ele>
      </trkpt>
      <trkpt lat="44.33765" lon="6.78899">
        <ele>2390.9</ele>
      </trkpt>
      <trkpt lat="44.33777" lon="6.78942">
        <ele>2391.3</ele>
      </trkpt>
      <trkpt lat="44.33781" lon="6.78965">
        <ele>2391.4</ele>
      </trkpt>
      <trkpt lat="44.33782" lon="6.78966">
        <ele>2391.4</ele>
      </trkpt>
      <trkpt lat="44.33785" lon="6.79016">
        <ele>2395.7</ele>
      </trkpt>
      <trkpt lat="44.33785" lon="6.79047">
        <ele>2396.6</ele>
      </trkpt>
      <trkpt lat="44.33792" lon="6.79152">
        <ele>2407.6</ele>
      </trkpt>
      <trkpt lat="44.33795" lon="6.79173">
        <ele>2417.7</ele>
      </trkpt>
      <trkpt lat="44.338" lon="6.79186">
        <ele>2417.8</ele>
      </trkpt>
      <trkpt lat="44.33802" lon="6.79188">
        <ele>2417.6</ele>
      </trkpt>
      <trkpt lat="44.33805" lon="6.79193">
        <ele>2417.8</ele>
      </trkpt>
      <trkpt lat="44.33811" lon="6.79198">
        <ele>2417.6</ele>
      </trkpt>
      <trkpt lat="44.33821" lon="6.79202">
        <ele>2417.1</ele>
      </trkpt>
      <trkpt lat="44.33828" lon="6.79202">
        <ele>2416.6</ele>
      </trkpt>
      <trkpt lat="44.33832" lon="6.79201">
        <ele>2416.1</ele>
      </trkpt>
      <trkpt lat="44.33847" lon="6.79194">
        <ele>2412.5</ele>
      </trkpt>
      <trkpt lat="44.33882" lon="6.79173">
        <ele>2414.2</ele>
      </trkpt>
      <trkpt lat="44.33892" lon="6.7917">
        <ele>2414.7</ele>
      </trkpt>
      <trkpt lat="44.33939" lon="6.79161">
        <ele>2416.7</ele>
      </trkpt>
      <trkpt lat="44.33941" lon="6.79161">
        <ele>2417</ele>
      </trkpt>
      <trkpt lat="44.33979" lon="6.79151">
        <ele>2423.1</ele>
      </trkpt>
      <trkpt lat="44.3399" lon="6.79142">
        <ele>2423.3</ele>
      </trkpt>
      <trkpt lat="44.33998" lon="6.79131">
        <ele>2422</ele>
      </trkpt>
      <trkpt lat="44.34002" lon="6.79123">
        <ele>2435.3</ele>
      </trkpt>
      <trkpt lat="44.34003" lon="6.79122">
        <ele>2435.2</ele>
      </trkpt>
      <trkpt lat="44.34012" lon="6.79104">
        <ele>2433</ele>
      </trkpt>
      <trkpt lat="44.34021" lon="6.7908">
        <ele>2428.6</ele>
      </trkpt>
      <trkpt lat="44.34022" lon="6.79079">
        <ele>2428.9</ele>
      </trkpt>
      <trkpt lat="44.34025" lon="6.79068">
        <ele>2429.9</ele>
      </trkpt>
      <trkpt lat="44.3403" lon="6.79033">
        <ele>2430</ele>
      </trkpt>
      <trkpt lat="44.34031" lon="6.79032">
        <ele>2430.2</ele>
      </trkpt>
      <trkpt lat="44.34035" lon="6.7901">
        <ele>2429.8</ele>
      </trkpt>
      <trkpt lat="44.34036" lon="6.79008">
        <ele>2429.9</ele>
      </trkpt>
      <trkpt lat="44.34038" lon="6.79">
        <ele>2428.1</ele>
      </trkpt>
      <trkpt lat="44.34059" lon="6.78945">
        <ele>2425.1</ele>
      </trkpt>
      <trkpt lat="44.3407" lon="6.78922">
        <ele>2426.9</ele>
      </trkpt>
      <trkpt lat="44.34074" lon="6.78916">
        <ele>2422.8</ele>
      </trkpt>
      <trkpt lat="44.34077" lon="6.78913">
        <ele>2424.1</ele>
      </trkpt>
      <trkpt lat="44.34083" lon="6.78913">
        <ele>2426.8</ele>
      </trkpt>
      <trkpt lat="44.34086" lon="6.78916">
        <ele>2429.5</ele>
      </trkpt>
      <trkpt lat="44.34086" lon="6.78917">
        <ele>2431.1</ele>
      </trkpt>
      <trkpt lat="44.34087" lon="6.78918">
        <ele>2431.5</ele>
      </trkpt>
      <trkpt lat="44.34087" lon="6.78919">
        <ele>2431.6</ele>
      </trkpt>
      <trkpt lat="44.34088" lon="6.78922">
        <ele>2432.5</ele>
      </trkpt>
      <trkpt lat="44.34088" lon="6.78933">
        <ele>2435.1</ele>
      </trkpt>
      <trkpt lat="44.34077" lon="6.78957">
        <ele>2428.1</ele>
      </trkpt>
      <trkpt lat="44.34075" lon="6.7896">
        <ele>2428.3</ele>
      </trkpt>
      <trkpt lat="44.34072" lon="6.78969">
        <ele>2429.4</ele>
      </trkpt>
      <trkpt lat="44.3407" lon="6.78985">
        <ele>2432.9</ele>
      </trkpt>
      <trkpt lat="44.3407" lon="6.78998">
        <ele>2435.8</ele>
      </trkpt>
      <trkpt lat="44.34072" lon="6.79005">
        <ele>2439.9</ele>
      </trkpt>
      <trkpt lat="44.34077" lon="6.79047">
        <ele>2437.9</ele>
      </trkpt>
      <trkpt lat="44.34076" lon="6.79139">
        <ele>2445.5</ele>
      </trkpt>
      <trkpt lat="44.34074" lon="6.79156">
        <ele>2448.6</ele>
      </trkpt>
      <trkpt lat="44.3407" lon="6.79166">
        <ele>2448.9</ele>
      </trkpt>
      <trkpt lat="44.34069" lon="6.79171">
        <ele>2453</ele>
      </trkpt>
      <trkpt lat="44.34035" lon="6.7923">
        <ele>2452.5</ele>
      </trkpt>
      <trkpt lat="44.33989" lon="6.793">
        <ele>2453.9</ele>
      </trkpt>
      <trkpt lat="44.33981" lon="6.79322">
        <ele>2456.6</ele>
      </trkpt>
      <trkpt lat="44.3398" lon="6.79328">
        <ele>2457</ele>
      </trkpt>
      <trkpt lat="44.3398" lon="6.79335">
        <ele>2464.1</ele>
      </trkpt>
      <trkpt lat="44.33986" lon="6.7935">
        <ele>2464.6</ele>
      </trkpt>
      <trkpt lat="44.33995" lon="6.79356">
        <ele>2465</ele>
      </trkpt>
      <trkpt lat="44.34001" lon="6.79358">
        <ele>2470.7</ele>
      </trkpt>
      <trkpt lat="44.3405" lon="6.79358">
        <ele>2473.5</ele>
      </trkpt>
      <trkpt lat="44.3406" lon="6.79362">
        <ele>2474</ele>
      </trkpt>
      <trkpt lat="44.34073" lon="6.79372">
        <ele>2474.9</ele>
      </trkpt>
      <trkpt lat="44.34078" lon="6.79378">
        <ele>2475.5</ele>
      </trkpt>
      <trkpt lat="44.34089" lon="6.79403">
        <ele>2481.4</ele>
      </trkpt>
      <trkpt lat="44.34091" lon="6.79415">
        <ele>2481.7</ele>
      </trkpt>
      <trkpt lat="44.34099" lon="6.79438">
        <ele>2487</ele>
      </trkpt>
      <trkpt lat="44.34106" lon="6.7945">
        <ele>2488.3</ele>
      </trkpt>
      <trkpt lat="44.34126" lon="6.79477">
        <ele>2490.8</ele>
      </trkpt>
      <trkpt lat="44.34131" lon="6.7948">
        <ele>2491.4</ele>
      </trkpt>
      <trkpt lat="44.34137" lon="6.79482">
        <ele>2492</ele>
      </trkpt>
      <trkpt lat="44.3416" lon="6.79481">
        <ele>2494.3</ele>
      </trkpt>
      <trkpt lat="44.34172" lon="6.79478">
        <ele>2499.6</ele>
      </trkpt>
      <trkpt lat="44.34187" lon="6.7947">
        <ele>2499.7</ele>
      </trkpt>
      <trkpt lat="44.34196" lon="6.7946">
        <ele>2499.5</ele>
      </trkpt>
      <trkpt lat="44.34204" lon="6.79455">
        <ele>2499.6</ele>
      </trkpt>
      <trkpt lat="44.34213" lon="6.79453">
        <ele>2500.1</ele>
      </trkpt>
      <trkpt lat="44.34294" lon="6.79427">
        <ele>2508.4</ele>
      </trkpt>
      <trkpt lat="44.3432" lon="6.79422">
        <ele>2507.7</ele>
      </trkpt>
      <trkpt lat="44.34331" lon="6.79424">
        <ele>2506.9</ele>
      </trkpt>
      <trkpt lat="44.34348" lon="6.79433">
        <ele>2512.7</ele>
      </trkpt>
      <trkpt lat="44.34359" lon="6.79437">
        <ele>2514.5</ele>
      </trkpt>
      <trkpt lat="44.34385" lon="6.79439">
        <ele>2515.7</ele>
      </trkpt>
      <trkpt lat="44.34387" lon="6.7944">
        <ele>2515.8</ele>
      </trkpt>
      <trkpt lat="44.3439" lon="6.79443">
        <ele>2516.1</ele>
      </trkpt>
      <trkpt lat="44.34393" lon="6.79449">
        <ele>2516.9</ele>
      </trkpt>
      <trkpt lat="44.34393" lon="6.79451">
        <ele>2517.2</ele>
      </trkpt>
      <trkpt lat="44.34394" lon="6.79455">
        <ele>2517.8</ele>
      </trkpt>
      <trkpt lat="44.34394" lon="6.79458">
        <ele>2518.3</ele>
      </trkpt>
      <trkpt lat="44.34393" lon="6.79461">
        <ele>2518.7</ele>
      </trkpt>
      <trkpt lat="44.34393" lon="6.79463">
        <ele>2519</ele>
      </trkpt>
      <trkpt lat="44.34392" lon="6.79464">
        <ele>2519.1</ele>
      </trkpt>
      <trkpt lat="44.34391" lon="6.79467">
        <ele>2519.6</ele>
      </trkpt>
      <trkpt lat="44.34389" lon="6.79469">
        <ele>2519.8</ele>
      </trkpt>
      <trkpt lat="44.34384" lon="6.79471">
        <ele>2519.9</ele>
      </trkpt>
      <trkpt lat="44.34374" lon="6.7947">
        <ele>2519.5</ele>
      </trkpt>
      <trkpt lat="44.34361" lon="6.79467">
        <ele>2519</ele>
      </trkpt>
      <trkpt lat="44.34351" lon="6.79466">
        <ele>2518.9</ele>
      </trkpt>
      <trkpt lat="44.34332" lon="6.79466">
        <ele>2515</ele>
      </trkpt>
      <trkpt lat="44.34323" lon="6.79472">
        <ele>2516</ele>
      </trkpt>
      <trkpt lat="44.34297" lon="6.79508">
        <ele>2527.7</ele>
      </trkpt>
      <trkpt lat="44.34276" lon="6.79527">
        <ele>2526.9</ele>
      </trkpt>
      <trkpt lat="44.34265" lon="6.79532">
        <ele>2526.5</ele>
      </trkpt>
      <trkpt lat="44.34255" lon="6.79535">
        <ele>2526.3</ele>
      </trkpt>
      <trkpt lat="44.34254" lon="6.79536">
        <ele>2526.4</ele>
      </trkpt>
      <trkpt lat="44.34247" lon="6.79538">
        <ele>2517.3</ele>
      </trkpt>
      <trkpt lat="44.34242" lon="6.79544">
        <ele>2517.9</ele>
      </trkpt>
      <trkpt lat="44.34239" lon="6.79551">
        <ele>2518.7</ele>
      </trkpt>
      <trkpt lat="44.34239" lon="6.79553">
        <ele>2519.1</ele>
      </trkpt>
      <trkpt lat="44.3424" lon="6.79555">
        <ele>2519.5</ele>
      </trkpt>
      <trkpt lat="44.3424" lon="6.79556">
        <ele>2519.7</ele>
      </trkpt>
      <trkpt lat="44.34241" lon="6.79558">
        <ele>2520.1</ele>
      </trkpt>
      <trkpt lat="44.34248" lon="6.79561">
        <ele>2521.3</ele>
      </trkpt>
      <trkpt lat="44.34259" lon="6.79564">
        <ele>2529.6</ele>
      </trkpt>
      <trkpt lat="44.34263" lon="6.79566">
        <ele>2529.9</ele>
      </trkpt>
      <trkpt lat="44.3427" lon="6.79571">
        <ele>2530.5</ele>
      </trkpt>
      <trkpt lat="44.34289" lon="6.79589">
        <ele>2538.8</ele>
      </trkpt>
      <trkpt lat="44.34301" lon="6.79611">
        <ele>2540.3</ele>
      </trkpt>
      <trkpt lat="44.34301" lon="6.79612">
        <ele>2540.3</ele>
      </trkpt>
      <trkpt lat="44.34355" lon="6.7975">
        <ele>2545.4</ele>
      </trkpt>
      <trkpt lat="44.34363" lon="6.79765">
        <ele>2545.1</ele>
      </trkpt>
      <trkpt lat="44.34373" lon="6.79789">
        <ele>2544.6</ele>
      </trkpt>
      <trkpt lat="44.34376" lon="6.798">
        <ele>2544.4</ele>
      </trkpt>
      <trkpt lat="44.34377" lon="6.79814">
        <ele>2544.1</ele>
      </trkpt>
      <trkpt lat="44.34379" lon="6.7982">
        <ele>2544.1</ele>
      </trkpt>
      <trkpt lat="44.34382" lon="6.79823">
        <ele>2544.1</ele>
      </trkpt>
      <trkpt lat="44.34385" lon="6.79823">
        <ele>2544.1</ele>
      </trkpt>
      <trkpt lat="44.34389" lon="6.79821">
        <ele>2544.2</ele>
      </trkpt>
      <trkpt lat="44.34394" lon="6.79808">
        <ele>2544.3</ele>
      </trkpt>
      <trkpt lat="44.34397" lon="6.79796">
        <ele>2544.5</ele>
      </trkpt>
      <trkpt lat="44.34406" lon="6.7977">
        <ele>2544.7</ele>
      </trkpt>
      <trkpt lat="44.34408" lon="6.79761">
        <ele>2544.7</ele>
      </trkpt>
      <trkpt lat="44.34406" lon="6.79748">
        <ele>2546</ele>
      </trkpt>
      <trkpt lat="44.34402" lon="6.79739">
        <ele>2546</ele>
      </trkpt>
      <trkpt lat="44.34402" lon="6.79738">
        <ele>2546</ele>
      </trkpt>
      <trkpt lat="44.34394" lon="6.79724">
        <ele>2546</ele>
      </trkpt>
      <trkpt lat="44.34388" lon="6.7971">
        <ele>2546</ele>
      </trkpt>
      <trkpt lat="44.34387" lon="6.79702">
        <ele>2546</ele>
      </trkpt>
      <trkpt lat="44.34388" lon="6.79692">
        <ele>2546</ele>
      </trkpt>
      <trkpt lat="44.3439" lon="6.79687">
        <ele>2546</ele>
      </trkpt>
      <trkpt lat="44.34394" lon="6.79683">
        <ele>2546</ele>
      </trkpt>
      <trkpt lat="44.34397" lon="6.79683">
        <ele>2546</ele>
      </trkpt>
      <trkpt lat="44.34401" lon="6.79686">
        <ele>2546</ele>
      </trkpt>
      <trkpt lat="44.34404" lon="6.79691">
        <ele>2546</ele>
      </trkpt>
      <trkpt lat="44.34406" lon="6.79704">
        <ele>2546</ele>
      </trkpt>
      <trkpt lat="44.34411" lon="6.79722">
        <ele>2546</ele>
      </trkpt>
      <trkpt lat="44.34413" lon="6.79726">
        <ele>2546</ele>
      </trkpt>
      <trkpt lat="44.34424" lon="6.79737">
        <ele>2561.9</ele>
      </trkpt>
      <trkpt lat="44.3444" lon="6.79749">
        <ele>2563.4</ele>
      </trkpt>
      <trkpt lat="44.34449" lon="6.79752">
        <ele>2564.5</ele>
      </trkpt>
      <trkpt lat="44.34459" lon="6.79757">
        <ele>2565.5</ele>
      </trkpt>
      <trkpt lat="44.34463" lon="6.7976">
        <ele>2566.1</ele>
      </trkpt>
      <trkpt lat="44.3447" lon="6.79779">
        <ele>2569.3</ele>
      </trkpt>
      <trkpt lat="44.34473" lon="6.79783">
        <ele>2570.8</ele>
      </trkpt>
      <trkpt lat="44.34474" lon="6.79783">
        <ele>2571</ele>
      </trkpt>
      <trkpt lat="44.34477" lon="6.79786">
        <ele>2572.3</ele>
      </trkpt>
      <trkpt lat="44.34481" lon="6.79787">
        <ele>2573.1</ele>
      </trkpt>
      <trkpt lat="44.34486" lon="6.79786">
        <ele>2573.6</ele>
      </trkpt>
      <trkpt lat="44.34494" lon="6.7978">
        <ele>2573.4</ele>
      </trkpt>
      <trkpt lat="44.34505" lon="6.79768">
        <ele>2572.7</ele>
      </trkpt>
      <trkpt lat="44.34506" lon="6.79768">
        <ele>2572.7</ele>
      </trkpt>
      <trkpt lat="44.34511" lon="6.79765">
        <ele>2572.3</ele>
      </trkpt>
      <trkpt lat="44.34514" lon="6.79764">
        <ele>2572.3</ele>
      </trkpt>
      <trkpt lat="44.34521" lon="6.79767">
        <ele>2572.7</ele>
      </trkpt>
      <trkpt lat="44.34522" lon="6.79769">
        <ele>2573</ele>
      </trkpt>
      <trkpt lat="44.34523" lon="6.79769">
        <ele>2573</ele>
      </trkpt>
      <trkpt lat="44.34527" lon="6.79778">
        <ele>2574</ele>
      </trkpt>
      <trkpt lat="44.34527" lon="6.79786">
        <ele>2574.9</ele>
      </trkpt>
      <trkpt lat="44.34526" lon="6.79788">
        <ele>2575.2</ele>
      </trkpt>
      <trkpt lat="44.34526" lon="6.7979">
        <ele>2575.4</ele>
      </trkpt>
      <trkpt lat="44.34525" lon="6.79791">
        <ele>2575.5</ele>
      </trkpt>
      <trkpt lat="44.34523" lon="6.79795">
        <ele>2576.1</ele>
      </trkpt>
      <trkpt lat="44.34519" lon="6.79799">
        <ele>2576.8</ele>
      </trkpt>
      <trkpt lat="44.3451" lon="6.79805">
        <ele>2578.2</ele>
      </trkpt>
      <trkpt lat="44.34493" lon="6.79813">
        <ele>2580.9</ele>
      </trkpt>
      <trkpt lat="44.34492" lon="6.79814">
        <ele>2581.1</ele>
      </trkpt>
      <trkpt lat="44.3448" lon="6.79818">
        <ele>2581.9</ele>
      </trkpt>
      <trkpt lat="44.34471" lon="6.79823">
        <ele>2582.7</ele>
      </trkpt>
      <trkpt lat="44.34463" lon="6.7983">
        <ele>2582.8</ele>
      </trkpt>
      <trkpt lat="44.34433" lon="6.79865">
        <ele>2582.4</ele>
      </trkpt>
      <trkpt lat="44.34429" lon="6.79872">
        <ele>2582.8</ele>
      </trkpt>
      <trkpt lat="44.34426" lon="6.79881">
        <ele>2584</ele>
      </trkpt>
      <trkpt lat="44.34426" lon="6.79891">
        <ele>2585.8</ele>
      </trkpt>
      <trkpt lat="44.34427" lon="6.79896">
        <ele>2586.1</ele>
      </trkpt>
      <trkpt lat="44.34434" lon="6.79915">
        <ele>2588.9</ele>
      </trkpt>
      <trkpt lat="44.34436" lon="6.79931">
        <ele>2590.1</ele>
      </trkpt>
      <trkpt lat="44.34435" lon="6.79934">
        <ele>2589.9</ele>
      </trkpt>
      <trkpt lat="44.34429" lon="6.79991">
        <ele>2592.6</ele>
      </trkpt>
      <trkpt lat="44.34426" lon="6.8">
        <ele>2593.4</ele>
      </trkpt>
      <trkpt lat="44.34423" lon="6.80006">
        <ele>2593.5</ele>
      </trkpt>
      <trkpt lat="44.34423" lon="6.80007">
        <ele>2593.6</ele>
      </trkpt>
      <trkpt lat="44.3442" lon="6.80009">
        <ele>2593.3</ele>
      </trkpt>
      <trkpt lat="44.34409" lon="6.80023">
        <ele>2593.1</ele>
      </trkpt>
      <trkpt lat="44.34399" lon="6.80039">
        <ele>2593.2</ele>
      </trkpt>
      <trkpt lat="44.34392" lon="6.80057">
        <ele>2594.1</ele>
      </trkpt>
      <trkpt lat="44.34376" lon="6.80111">
        <ele>2600.3</ele>
      </trkpt>
      <trkpt lat="44.34373" lon="6.80116">
        <ele>2600.7</ele>
      </trkpt>
      <trkpt lat="44.34371" lon="6.80122">
        <ele>2601.6</ele>
      </trkpt>
      <trkpt lat="44.34366" lon="6.80128">
        <ele>2601.7</ele>
      </trkpt>
      <trkpt lat="44.34339" lon="6.80145">
        <ele>2602.1</ele>
      </trkpt>
      <trkpt lat="44.3433" lon="6.80152">
        <ele>2602.1</ele>
      </trkpt>
      <trkpt lat="44.34312" lon="6.80172">
        <ele>2602.5</ele>
      </trkpt>
      <trkpt lat="44.343" lon="6.8018">
        <ele>2602.3</ele>
      </trkpt>
      <trkpt lat="44.3426" lon="6.80201">
        <ele>2604.9</ele>
      </trkpt>
      <trkpt lat="44.34253" lon="6.80203">
        <ele>2605.3</ele>
      </trkpt>
      <trkpt lat="44.34249" lon="6.80203">
        <ele>2605.3</ele>
      </trkpt>
      <trkpt lat="44.34224" lon="6.80194">
        <ele>2605.7</ele>
      </trkpt>
      <trkpt lat="44.34217" lon="6.80193">
        <ele>2606</ele>
      </trkpt>
      <trkpt lat="44.34209" lon="6.80193">
        <ele>2606.8</ele>
      </trkpt>
      <trkpt lat="44.34205" lon="6.80195">
        <ele>2608.1</ele>
      </trkpt>
      <trkpt lat="44.342" lon="6.80196">
        <ele>2609</ele>
      </trkpt>
      <trkpt lat="44.34186" lon="6.80204">
        <ele>2612.6</ele>
      </trkpt>
      <trkpt lat="44.34176" lon="6.80206">
        <ele>2612.8</ele>
      </trkpt>
      <trkpt lat="44.34167" lon="6.80205">
        <ele>2611.8</ele>
      </trkpt>
      <trkpt lat="44.34139" lon="6.80197">
        <ele>2614</ele>
      </trkpt>
      <trkpt lat="44.34126" lon="6.80192">
        <ele>2614.3</ele>
      </trkpt>
      <trkpt lat="44.34107" lon="6.80182">
        <ele>2614</ele>
      </trkpt>
      <trkpt lat="44.34092" lon="6.80177">
        <ele>2615.2</ele>
      </trkpt>
      <trkpt lat="44.34076" lon="6.80175">
        <ele>2617.9</ele>
      </trkpt>
      <trkpt lat="44.34074" lon="6.80174">
        <ele>2617.9</ele>
      </trkpt>
      <trkpt lat="44.34062" lon="6.80172">
        <ele>2619.4</ele>
      </trkpt>
      <trkpt lat="44.34053" lon="6.80168">
        <ele>2619.9</ele>
      </trkpt>
      <trkpt lat="44.34008" lon="6.80138">
        <ele>2622.6</ele>
      </trkpt>
      <trkpt lat="44.34007" lon="6.80138">
        <ele>2622.9</ele>
      </trkpt>
      <trkpt lat="44.33995" lon="6.80132">
        <ele>2621.9</ele>
      </trkpt>
      <trkpt lat="44.3399" lon="6.80133">
        <ele>2621.6</ele>
      </trkpt>
      <trkpt lat="44.33986" lon="6.80135">
        <ele>2621.7</ele>
      </trkpt>
      <trkpt lat="44.33979" lon="6.80144">
        <ele>2623.5</ele>
      </trkpt>
      <trkpt lat="44.33978" lon="6.8015">
        <ele>2625</ele>
      </trkpt>
      <trkpt lat="44.33962" lon="6.80191">
        <ele>2629.6</ele>
      </trkpt>
      <trkpt lat="44.33947" lon="6.80209">
        <ele>2630.1</ele>
      </trkpt>
      <trkpt lat="44.33946" lon="6.80209">
        <ele>2629.9</ele>
      </trkpt>
      <trkpt lat="44.33931" lon="6.80222">
        <ele>2632.4</ele>
      </trkpt>
      <trkpt lat="44.33915" lon="6.80233">
        <ele>2635.4</ele>
      </trkpt>
      <trkpt lat="44.33913" lon="6.80233">
        <ele>2635.4</ele>
      </trkpt>
      <trkpt lat="44.33901" lon="6.8024">
        <ele>2637.7</ele>
      </trkpt>
      <trkpt lat="44.33882" lon="6.80247">
        <ele>2641.5</ele>
      </trkpt>
      <trkpt lat="44.33874" lon="6.80248">
        <ele>2642.8</ele>
      </trkpt>
      <trkpt lat="44.33866" lon="6.80247">
        <ele>2643.4</ele>
      </trkpt>
      <trkpt lat="44.33845" lon="6.80238">
        <ele>2644.7</ele>
      </trkpt>
      <trkpt lat="44.33801" lon="6.80206">
        <ele>2646</ele>
      </trkpt>
      <trkpt lat="44.3377" lon="6.8019">
        <ele>2648.8</ele>
      </trkpt>
      <trkpt lat="44.33764" lon="6.80188">
        <ele>2649.7</ele>
      </trkpt>
      <trkpt lat="44.33754" lon="6.8018">
        <ele>2650.5</ele>
      </trkpt>
      <trkpt lat="44.33717" lon="6.80136">
        <ele>2651.6</ele>
      </trkpt>
      <trkpt lat="44.33706" lon="6.8013">
        <ele>2652.7</ele>
      </trkpt>
      <trkpt lat="44.33695" lon="6.80126">
        <ele>2654.2</ele>
      </trkpt>
      <trkpt lat="44.33688" lon="6.80127">
        <ele>2654</ele>
      </trkpt>
      <trkpt lat="44.33684" lon="6.80129">
        <ele>2654.2</ele>
      </trkpt>
      <trkpt lat="44.33679" lon="6.80133">
        <ele>2654.6</ele>
      </trkpt>
      <trkpt lat="44.33676" lon="6.8014">
        <ele>2655.5</ele>
      </trkpt>
      <trkpt lat="44.33673" lon="6.80151">
        <ele>2656.7</ele>
      </trkpt>
      <trkpt lat="44.33672" lon="6.80166">
        <ele>2658.6</ele>
      </trkpt>
      <trkpt lat="44.33674" lon="6.80261">
        <ele>2664.6</ele>
      </trkpt>
      <trkpt lat="44.33668" lon="6.80401">
        <ele>2669.6</ele>
      </trkpt>
      <trkpt lat="44.33657" lon="6.80455">
        <ele>2668.9</ele>
      </trkpt>
      <trkpt lat="44.33656" lon="6.8048">
        <ele>2669</ele>
      </trkpt>
      <trkpt lat="44.3366" lon="6.80499">
        <ele>2669.9</ele>
      </trkpt>
      <trkpt lat="44.33662" lon="6.80519">
        <ele>2670.5</ele>
      </trkpt>
      <trkpt lat="44.33646" lon="6.80653">
        <ele>2673.6</ele>
      </trkpt>
      <trkpt lat="44.3364" lon="6.80728">
        <ele>2674.9</ele>
      </trkpt>
      <trkpt lat="44.33633" lon="6.8077">
        <ele>2675.3</ele>
      </trkpt>
      <trkpt lat="44.3363" lon="6.80781">
        <ele>2675.3</ele>
      </trkpt>
      <trkpt lat="44.33602" lon="6.80841">
        <ele>2674.6</ele>
      </trkpt>
      <trkpt lat="44.33566" lon="6.80899">
        <ele>2674.8</ele>
      </trkpt>
      <trkpt lat="44.33552" lon="6.8093">
        <ele>2677.1</ele>
      </trkpt>
      <trkpt lat="44.33546" lon="6.80939">
        <ele>2676.5</ele>
      </trkpt>
      <trkpt lat="44.33544" lon="6.80944">
        <ele>2676.8</ele>
      </trkpt>
      <trkpt lat="44.33532" lon="6.80959">
        <ele>2676.1</ele>
      </trkpt>
      <trkpt lat="44.33484" lon="6.81003">
        <ele>2676.8</ele>
      </trkpt>
      <trkpt lat="44.33473" lon="6.81011">
        <ele>2676.7</ele>
      </trkpt>
      <trkpt lat="44.33472" lon="6.81011">
        <ele>2676.6</ele>
      </trkpt>
      <trkpt lat="44.33439" lon="6.81024">
        <ele>2678.8</ele>
      </trkpt>
      <trkpt lat="44.33439" lon="6.81025">
        <ele>2679.1</ele>
      </trkpt>
      <trkpt lat="44.3342" lon="6.81034">
        <ele>2681.1</ele>
      </trkpt>
      <trkpt lat="44.33413" lon="6.8104">
        <ele>2682.5</ele>
      </trkpt>
      <trkpt lat="44.33405" lon="6.81044">
        <ele>2682.8</ele>
      </trkpt>
      <trkpt lat="44.33394" lon="6.81052">
        <ele>2683.7</ele>
      </trkpt>
      <trkpt lat="44.33361" lon="6.81062">
        <ele>2685.3</ele>
      </trkpt>
      <trkpt lat="44.33346" lon="6.81064">
        <ele>2685.7</ele>
      </trkpt>
      <trkpt lat="44.33295" lon="6.81063">
        <ele>2687.2</ele>
      </trkpt>
      <trkpt lat="44.33278" lon="6.81065">
        <ele>2688</ele>
      </trkpt>
      <trkpt lat="44.33261" lon="6.81073">
        <ele>2689.3</ele>
      </trkpt>
      <trkpt lat="44.33248" lon="6.81081">
        <ele>2691.5</ele>
      </trkpt>
      <trkpt lat="44.33245" lon="6.81082">
        <ele>2692</ele>
      </trkpt>
      <trkpt lat="44.33238" lon="6.81083">
        <ele>2692.8</ele>
      </trkpt>
      <trkpt lat="44.33227" lon="6.81082">
        <ele>2693.2</ele>
      </trkpt>
      <trkpt lat="44.33208" lon="6.81076">
        <ele>2693.4</ele>
      </trkpt>
      <trkpt lat="44.33199" lon="6.81071">
        <ele>2693.3</ele>
      </trkpt>
      <trkpt lat="44.33186" lon="6.81061">
        <ele>2693</ele>
      </trkpt>
      <trkpt lat="44.33173" lon="6.81048">
        <ele>2692.6</ele>
      </trkpt>
      <trkpt lat="44.33115" lon="6.80971">
        <ele>2701.7</ele>
      </trkpt>
      <trkpt lat="44.33067" lon="6.8092">
        <ele>2704.9</ele>
      </trkpt>
      <trkpt lat="44.33043" lon="6.80888">
        <ele>2705.2</ele>
      </trkpt>
      <trkpt lat="44.33015" lon="6.80855">
        <ele>2707.7</ele>
      </trkpt>
      <trkpt lat="44.33002" lon="6.80842">
        <ele>2707.7</ele>
      </trkpt>
      <trkpt lat="44.3297" lon="6.80815">
        <ele>2707.9</ele>
      </trkpt>
      <trkpt lat="44.32956" lon="6.80807">
        <ele>2708.4</ele>
      </trkpt>
      <trkpt lat="44.32889" lon="6.8078">
        <ele>2709.1</ele>
      </trkpt>
      <trkpt lat="44.32884" lon="6.8078">
        <ele>2709.5</ele>
      </trkpt>
      <trkpt lat="44.32872" lon="6.80778">
        <ele>2709.3</ele>
      </trkpt>
      <trkpt lat="44.32858" lon="6.80778">
        <ele>2709.9</ele>
      </trkpt>
      <trkpt lat="44.32848" lon="6.8078">
        <ele>2710.2</ele>
      </trkpt>
      <trkpt lat="44.32845" lon="6.8078">
        <ele>2710</ele>
      </trkpt>
      <trkpt lat="44.32795" lon="6.80791">
        <ele>2710.6</ele>
      </trkpt>
      <trkpt lat="44.32793" lon="6.80792">
        <ele>2711</ele>
      </trkpt>
      <trkpt lat="44.32778" lon="6.80795">
        <ele>2711.7</ele>
      </trkpt>
      <trkpt lat="44.3277" lon="6.80795">
        <ele>2712</ele>
      </trkpt>
      <trkpt lat="44.32753" lon="6.8079">
        <ele>2710.7</ele>
      </trkpt>
      <trkpt lat="44.3272" lon="6.80771">
        <ele>2706.4</ele>
      </trkpt>
      <trkpt lat="44.32693" lon="6.80752">
        <ele>2708.5</ele>
      </trkpt>
      <trkpt lat="44.32682" lon="6.80742">
        <ele>2707.7</ele>
      </trkpt>
      <trkpt lat="44.32675" lon="6.8074">
        <ele>2709.2</ele>
      </trkpt>
      <trkpt lat="44.32671" lon="6.8074">
        <ele>2710.5</ele>
      </trkpt>
      <trkpt lat="44.32669" lon="6.80741">
        <ele>2711.3</ele>
      </trkpt>
      <trkpt lat="44.32668" lon="6.80744">
        <ele>2712.3</ele>
      </trkpt>
      <trkpt lat="44.32666" lon="6.80747">
        <ele>2713.2</ele>
      </trkpt>
      <trkpt lat="44.32666" lon="6.80749">
        <ele>2713.7</ele>
      </trkpt>
      <trkpt lat="44.32665" lon="6.8075">
        <ele>2713.6</ele>
      </trkpt>
      <trkpt lat="44.32665" lon="6.80755">
        <ele>2712</ele>
      </trkpt>
      <trkpt lat="44.32666" lon="6.80761">
        <ele>2710.2</ele>
      </trkpt>
      <trkpt lat="44.32669" lon="6.80766">
        <ele>2708.9</ele>
      </trkpt>
      <trkpt lat="44.32689" lon="6.80784">
        <ele>2707.2</ele>
      </trkpt>
      <trkpt lat="44.3271" lon="6.808">
        <ele>2706.5</ele>
      </trkpt>
      <trkpt lat="44.32722" lon="6.80813">
        <ele>2707</ele>
      </trkpt>
      <trkpt lat="44.32722" lon="6.80814">
        <ele>2706.6</ele>
      </trkpt>
      <trkpt lat="44.32762" lon="6.80859">
        <ele>2702.2</ele>
      </trkpt>
      <trkpt lat="44.32783" lon="6.80886">
        <ele>2698.3</ele>
      </trkpt>
      <trkpt lat="44.32795" lon="6.80897">
        <ele>2697</ele>
      </trkpt>
      <trkpt lat="44.32813" lon="6.8091">
        <ele>2696</ele>
      </trkpt>
      <trkpt lat="44.32831" lon="6.80919">
        <ele>2695.2</ele>
      </trkpt>
      <trkpt lat="44.32843" lon="6.80929">
        <ele>2695.3</ele>
      </trkpt>
      <trkpt lat="44.32855" lon="6.8095">
        <ele>2693.1</ele>
      </trkpt>
      <trkpt lat="44.32858" lon="6.80958">
        <ele>2691.9</ele>
      </trkpt>
      <trkpt lat="44.32876" lon="6.80982">
        <ele>2689</ele>
      </trkpt>
      <trkpt lat="44.32876" lon="6.80983">
        <ele>2688.7</ele>
      </trkpt>
      <trkpt lat="44.3289" lon="6.80997">
        <ele>2687.3</ele>
      </trkpt>
      <trkpt lat="44.32926" lon="6.81041">
        <ele>2681.4</ele>
      </trkpt>
      <trkpt lat="44.32931" lon="6.81045">
        <ele>2680.7</ele>
      </trkpt>
      <trkpt lat="44.32932" lon="6.81045">
        <ele>2680.8</ele>
      </trkpt>
      <trkpt lat="44.32944" lon="6.81051">
        <ele>2679.8</ele>
      </trkpt>
      <trkpt lat="44.32949" lon="6.81052">
        <ele>2679.3</ele>
      </trkpt>
      <trkpt lat="44.32964" lon="6.81053">
        <ele>2678.4</ele>
      </trkpt>
      <trkpt lat="44.32967" lon="6.81054">
        <ele>2677.8</ele>
      </trkpt>
      <trkpt lat="44.32974" lon="6.81055">
        <ele>2677.3</ele>
      </trkpt>
      <trkpt lat="44.32983" lon="6.81059">
        <ele>2676.3</ele>
      </trkpt>
      <trkpt lat="44.32984" lon="6.81059">
        <ele>2676.3</ele>
      </trkpt>
      <trkpt lat="44.33018" lon="6.81073">
        <ele>2673.9</ele>
      </trkpt>
      <trkpt lat="44.33019" lon="6.81073">
        <ele>2674</ele>
      </trkpt>
      <trkpt lat="44.33032" lon="6.81079">
        <ele>2673.3</ele>
      </trkpt>
      <trkpt lat="44.33046" lon="6.81089">
        <ele>2673</ele>
      </trkpt>
      <trkpt lat="44.33051" lon="6.81095">
        <ele>2672.6</ele>
      </trkpt>
      <trkpt lat="44.33051" lon="6.81096">
        <ele>2672.4</ele>
      </trkpt>
      <trkpt lat="44.33058" lon="6.81103">
        <ele>2672.3</ele>
      </trkpt>
      <trkpt lat="44.33072" lon="6.81131">
        <ele>2670</ele>
      </trkpt>
      <trkpt lat="44.33079" lon="6.81151">
        <ele>2668.7</ele>
      </trkpt>
      <trkpt lat="44.3309" lon="6.81204">
        <ele>2666.6</ele>
      </trkpt>
      <trkpt lat="44.33092" lon="6.81226">
        <ele>2665.3</ele>
      </trkpt>
      <trkpt lat="44.33091" lon="6.8128">
        <ele>2662.5</ele>
      </trkpt>
      <trkpt lat="44.33087" lon="6.8131">
        <ele>2659.5</ele>
      </trkpt>
      <trkpt lat="44.33084" lon="6.81322">
        <ele>2658.3</ele>
      </trkpt>
      <trkpt lat="44.33066" lon="6.81369">
        <ele>2655.8</ele>
      </trkpt>
      <trkpt lat="44.3306" lon="6.81397">
        <ele>2654.2</ele>
      </trkpt>
      <trkpt lat="44.33051" lon="6.8146">
        <ele>2650.4</ele>
      </trkpt>
      <trkpt lat="44.33049" lon="6.81497">
        <ele>2648</ele>
      </trkpt>
      <trkpt lat="44.33048" lon="6.81502">
        <ele>2647.4</ele>
      </trkpt>
      <trkpt lat="44.33046" lon="6.81597">
        <ele>2642.4</ele>
      </trkpt>
      <trkpt lat="44.33051" lon="6.81661">
        <ele>2637.1</ele>
      </trkpt>
      <trkpt lat="44.33056" lon="6.81681">
        <ele>2634.1</ele>
      </trkpt>
      <trkpt lat="44.3307" lon="6.817">
        <ele>2635.4</ele>
      </trkpt>
      <trkpt lat="44.33078" lon="6.81709">
        <ele>2636.5</ele>
      </trkpt>
      <trkpt lat="44.33086" lon="6.8173">
        <ele>2636</ele>
      </trkpt>
      <trkpt lat="44.33087" lon="6.81739">
        <ele>2635.6</ele>
      </trkpt>
      <trkpt lat="44.33079" lon="6.81795">
        <ele>2631.4</ele>
      </trkpt>
      <trkpt lat="44.33077" lon="6.81829">
        <ele>2630</ele>
      </trkpt>
      <trkpt lat="44.3307" lon="6.81862">
        <ele>2627.2</ele>
      </trkpt>
      <trkpt lat="44.33069" lon="6.81873">
        <ele>2625.7</ele>
      </trkpt>
      <trkpt lat="44.33071" lon="6.81884">
        <ele>2625.9</ele>
      </trkpt>
      <trkpt lat="44.33076" lon="6.81896">
        <ele>2627.5</ele>
      </trkpt>
      <trkpt lat="44.33077" lon="6.81901">
        <ele>2627.4</ele>
      </trkpt>
      <trkpt lat="44.33078" lon="6.81903">
        <ele>2627.7</ele>
      </trkpt>
      <trkpt lat="44.33079" lon="6.81914">
        <ele>2626.7</ele>
      </trkpt>
      <trkpt lat="44.33077" lon="6.81927">
        <ele>2626.4</ele>
      </trkpt>
      <trkpt lat="44.33073" lon="6.81939">
        <ele>2625</ele>
      </trkpt>
      <trkpt lat="44.33071" lon="6.81953">
        <ele>2623.7</ele>
      </trkpt>
      <trkpt lat="44.33071" lon="6.81996">
        <ele>2621.8</ele>
      </trkpt>
      <trkpt lat="44.33064" lon="6.82032">
        <ele>2617.2</ele>
      </trkpt>
      <trkpt lat="44.3306" lon="6.8207">
        <ele>2613.7</ele>
      </trkpt>
      <trkpt lat="44.33053" lon="6.82095">
        <ele>2609.3</ele>
      </trkpt>
      <trkpt lat="44.33053" lon="6.82102">
        <ele>2608.6</ele>
      </trkpt>
      <trkpt lat="44.33055" lon="6.82115">
        <ele>2607.8</ele>
      </trkpt>
      <trkpt lat="44.33073" lon="6.82145">
        <ele>2604.5</ele>
      </trkpt>
      <trkpt lat="44.3309" lon="6.82164">
        <ele>2603.9</ele>
      </trkpt>
      <trkpt lat="44.33094" lon="6.82171">
        <ele>2603.7</ele>
      </trkpt>
      <trkpt lat="44.33096" lon="6.82173">
        <ele>2604</ele>
      </trkpt>
      <trkpt lat="44.33099" lon="6.8218">
        <ele>2603.7</ele>
      </trkpt>
      <trkpt lat="44.33103" lon="6.82201">
        <ele>2602</ele>
      </trkpt>
      <trkpt lat="44.33098" lon="6.82271">
        <ele>2598.3</ele>
      </trkpt>
      <trkpt lat="44.33099" lon="6.82289">
        <ele>2596.1</ele>
      </trkpt>
      <trkpt lat="44.33107" lon="6.82332">
        <ele>2592.9</ele>
      </trkpt>
      <trkpt lat="44.33108" lon="6.8235">
        <ele>2593.6</ele>
      </trkpt>
      <trkpt lat="44.33103" lon="6.82405">
        <ele>2591.4</ele>
      </trkpt>
      <trkpt lat="44.33103" lon="6.82423">
        <ele>2590.3</ele>
      </trkpt>
      <trkpt lat="44.33105" lon="6.82441">
        <ele>2588.6</ele>
      </trkpt>
      <trkpt lat="44.3311" lon="6.82464">
        <ele>2586.3</ele>
      </trkpt>
      <trkpt lat="44.33112" lon="6.82468">
        <ele>2586.4</ele>
      </trkpt>
      <trkpt lat="44.33125" lon="6.82512">
        <ele>2559</ele>
      </trkpt>
      <trkpt lat="44.33132" lon="6.82526">
        <ele>2559</ele>
      </trkpt>
      <trkpt lat="44.33134" lon="6.82532">
        <ele>2559</ele>
      </trkpt>
      <trkpt lat="44.33156" lon="6.82563">
        <ele>2559</ele>
      </trkpt>
      <trkpt lat="44.3316" lon="6.82577">
        <ele>2559</ele>
      </trkpt>
      <trkpt lat="44.33164" lon="6.82585">
        <ele>2548.7</ele>
      </trkpt>
      <trkpt lat="44.33165" lon="6.82591">
        <ele>2548.4</ele>
      </trkpt>
      <trkpt lat="44.3317" lon="6.82607">
        <ele>2576.3</ele>
      </trkpt>
      <trkpt lat="44.33176" lon="6.82617">
        <ele>2574.7</ele>
      </trkpt>
      <trkpt lat="44.33176" lon="6.82618">
        <ele>2574.5</ele>
      </trkpt>
      <trkpt lat="44.3318" lon="6.82621">
        <ele>2574.3</ele>
      </trkpt>
      <trkpt lat="44.3319" lon="6.82625">
        <ele>2574.5</ele>
      </trkpt>
      <trkpt lat="44.33201" lon="6.82623">
        <ele>2574.4</ele>
      </trkpt>
      <trkpt lat="44.33223" lon="6.82612">
        <ele>2573.8</ele>
      </trkpt>
      <trkpt lat="44.3323" lon="6.82612">
        <ele>2574.4</ele>
      </trkpt>
      <trkpt lat="44.33237" lon="6.82613">
        <ele>2574.7</ele>
      </trkpt>
      <trkpt lat="44.33251" lon="6.82625">
        <ele>2556</ele>
      </trkpt>
      <trkpt lat="44.33264" lon="6.82639">
        <ele>2556</ele>
      </trkpt>
      <trkpt lat="44.33266" lon="6.82639">
        <ele>2556</ele>
      </trkpt>
      <trkpt lat="44.33276" lon="6.82644">
        <ele>2556</ele>
      </trkpt>
      <trkpt lat="44.33282" lon="6.82645">
        <ele>2556</ele>
      </trkpt>
      <trkpt lat="44.33283" lon="6.82646">
        <ele>2556</ele>
      </trkpt>
      <trkpt lat="44.33289" lon="6.82646">
        <ele>2556</ele>
      </trkpt>
      <trkpt lat="44.333" lon="6.82643">
        <ele>2556</ele>
      </trkpt>
      <trkpt lat="44.33301" lon="6.82642">
        <ele>2556</ele>
      </trkpt>
      <trkpt lat="44.33309" lon="6.82639">
        <ele>2556</ele>
      </trkpt>
      <trkpt lat="44.33313" lon="6.82636">
        <ele>2556</ele>
      </trkpt>
      <trkpt lat="44.33318" lon="6.82634">
        <ele>2556</ele>
      </trkpt>
      <trkpt lat="44.3333" lon="6.82624">
        <ele>2556</ele>
      </trkpt>
      <trkpt lat="44.33334" lon="6.82622">
        <ele>2553.1</ele>
      </trkpt>
      <trkpt lat="44.33346" lon="6.82608">
        <ele>2552.4</ele>
      </trkpt>
      <trkpt lat="44.33347" lon="6.82605">
        <ele>2552.4</ele>
      </trkpt>
      <trkpt lat="44.33358" lon="6.82588">
        <ele>2551.9</ele>
      </trkpt>
      <trkpt lat="44.33365" lon="6.82581">
        <ele>2570.4</ele>
      </trkpt>
      <trkpt lat="44.33368" lon="6.82579">
        <ele>2570.7</ele>
      </trkpt>
      <trkpt lat="44.33372" lon="6.8258">
        <ele>2570.4</ele>
      </trkpt>
      <trkpt lat="44.33378" lon="6.82579">
        <ele>2570.4</ele>
      </trkpt>
      <trkpt lat="44.33383" lon="6.8258">
        <ele>2570</ele>
      </trkpt>
      <trkpt lat="44.33388" lon="6.82583">
        <ele>2569.1</ele>
      </trkpt>
      <trkpt lat="44.33405" lon="6.8259">
        <ele>2550.8</ele>
      </trkpt>
      <trkpt lat="44.33416" lon="6.82593">
        <ele>2550.6</ele>
      </trkpt>
      <trkpt lat="44.33431" lon="6.8259">
        <ele>2551.3</ele>
      </trkpt>
      <trkpt lat="44.3344" lon="6.82586">
        <ele>2551.6</ele>
      </trkpt>
      <trkpt lat="44.33445" lon="6.82586">
        <ele>2551.7</ele>
      </trkpt>
      <trkpt lat="44.3345" lon="6.82587">
        <ele>2551.8</ele>
      </trkpt>
      <trkpt lat="44.33455" lon="6.82589">
        <ele>2551.9</ele>
      </trkpt>
      <trkpt lat="44.3346" lon="6.82592">
        <ele>2552</ele>
      </trkpt>
      <trkpt lat="44.33541" lon="6.82692">
        <ele>2552.8</ele>
      </trkpt>
      <trkpt lat="44.33573" lon="6.82722">
        <ele>2553.2</ele>
      </trkpt>
      <trkpt lat="44.33578" lon="6.82725">
        <ele>2553.5</ele>
      </trkpt>
      <trkpt lat="44.33583" lon="6.82727">
        <ele>2553.7</ele>
      </trkpt>
      <trkpt lat="44.33624" lon="6.82766">
        <ele>2549.4</ele>
      </trkpt>
      <trkpt lat="44.33638" lon="6.82785">
        <ele>2548.7</ele>
      </trkpt>
      <trkpt lat="44.33674" lon="6.82849">
        <ele>2550.8</ele>
      </trkpt>
      <trkpt lat="44.33694" lon="6.82894">
        <ele>2544.2</ele>
      </trkpt>
      <trkpt lat="44.33707" lon="6.82919">
        <ele>2535.8</ele>
      </trkpt>
      <trkpt lat="44.3371" lon="6.82922">
        <ele>2536.1</ele>
      </trkpt>
      <trkpt lat="44.33728" lon="6.8295">
        <ele>2536.4</ele>
      </trkpt>
      <trkpt lat="44.33752" lon="6.82981">
        <ele>2539.3</ele>
      </trkpt>
      <trkpt lat="44.3377" lon="6.83">
        <ele>2539</ele>
      </trkpt>
      <trkpt lat="44.33798" lon="6.83036">
        <ele>2524.6</ele>
      </trkpt>
      <trkpt lat="44.338" lon="6.83037">
        <ele>2524.5</ele>
      </trkpt>
      <trkpt lat="44.33813" lon="6.83054">
        <ele>2522.1</ele>
      </trkpt>
      <trkpt lat="44.33828" lon="6.83069">
        <ele>2519.4</ele>
      </trkpt>
      <trkpt lat="44.33851" lon="6.83088">
        <ele>2511</ele>
      </trkpt>
      <trkpt lat="44.33864" lon="6.83096">
        <ele>2509.1</ele>
      </trkpt>
      <trkpt lat="44.33876" lon="6.83101">
        <ele>2508.4</ele>
      </trkpt>
      <trkpt lat="44.33919" lon="6.83109">
        <ele>2505.2</ele>
      </trkpt>
      <trkpt lat="44.33933" lon="6.83113">
        <ele>2503.5</ele>
      </trkpt>
      <trkpt lat="44.33947" lon="6.8312">
        <ele>2501.8</ele>
      </trkpt>
      <trkpt lat="44.33947" lon="6.83121">
        <ele>2501.8</ele>
      </trkpt>
      <trkpt lat="44.33959" lon="6.83127">
        <ele>2500.8</ele>
      </trkpt>
      <trkpt lat="44.33996" lon="6.8315">
        <ele>2501.5</ele>
      </trkpt>
      <trkpt lat="44.33998" lon="6.8315">
        <ele>2501.5</ele>
      </trkpt>
      <trkpt lat="44.34039" lon="6.83183">
        <ele>2497.9</ele>
      </trkpt>
      <trkpt lat="44.34051" lon="6.83196">
        <ele>2497.6</ele>
      </trkpt>
      <trkpt lat="44.34053" lon="6.83202">
        <ele>2498.3</ele>
      </trkpt>
      <trkpt lat="44.34055" lon="6.83219">
        <ele>2500.9</ele>
      </trkpt>
      <trkpt lat="44.34053" lon="6.83228">
        <ele>2502.1</ele>
      </trkpt>
      <trkpt lat="44.34051" lon="6.83233">
        <ele>2502.6</ele>
      </trkpt>
      <trkpt lat="44.34051" lon="6.83234">
        <ele>2502.7</ele>
      </trkpt>
      <trkpt lat="44.34032" lon="6.8326">
        <ele>2510</ele>
      </trkpt>
      <trkpt lat="44.34027" lon="6.8327">
        <ele>2509.9</ele>
      </trkpt>
      <trkpt lat="44.34024" lon="6.83291">
        <ele>2510.9</ele>
      </trkpt>
      <trkpt lat="44.34023" lon="6.83294">
        <ele>2511</ele>
      </trkpt>
      <trkpt lat="44.34019" lon="6.83336">
        <ele>2513.5</ele>
      </trkpt>
      <trkpt lat="44.34008" lon="6.83376">
        <ele>2515.4</ele>
      </trkpt>
      <trkpt lat="44.34005" lon="6.83401">
        <ele>2513.4</ele>
      </trkpt>
      <trkpt lat="44.34005" lon="6.83417">
        <ele>2510.3</ele>
      </trkpt>
      <trkpt lat="44.34014" lon="6.83471">
        <ele>2514.9</ele>
      </trkpt>
      <trkpt lat="44.34014" lon="6.83488">
        <ele>2512.1</ele>
      </trkpt>
      <trkpt lat="44.3401" lon="6.83524">
        <ele>2508.3</ele>
      </trkpt>
      <trkpt lat="44.3401" lon="6.83532">
        <ele>2508.3</ele>
      </trkpt>
      <trkpt lat="44.34011" lon="6.83539">
        <ele>2508</ele>
      </trkpt>
      <trkpt lat="44.34014" lon="6.83549">
        <ele>2507.2</ele>
      </trkpt>
      <trkpt lat="44.34026" lon="6.83569">
        <ele>2506.7</ele>
      </trkpt>
      <trkpt lat="44.34027" lon="6.8357">
        <ele>2506.9</ele>
      </trkpt>
      <trkpt lat="44.34037" lon="6.83587">
        <ele>2502.7</ele>
      </trkpt>
      <trkpt lat="44.34043" lon="6.83609">
        <ele>2503.4</ele>
      </trkpt>
      <trkpt lat="44.34041" lon="6.83672">
        <ele>2494.6</ele>
      </trkpt>
      <trkpt lat="44.34042" lon="6.83682">
        <ele>2494.5</ele>
      </trkpt>
      <trkpt lat="44.34046" lon="6.83697">
        <ele>2494.7</ele>
      </trkpt>
      <trkpt lat="44.34052" lon="6.8371">
        <ele>2495</ele>
      </trkpt>
      <trkpt lat="44.34053" lon="6.83714">
        <ele>2495</ele>
      </trkpt>
      <trkpt lat="44.34062" lon="6.83731">
        <ele>2496.2</ele>
      </trkpt>
      <trkpt lat="44.34076" lon="6.83752">
        <ele>2498.5</ele>
      </trkpt>
      <trkpt lat="44.34082" lon="6.83764">
        <ele>2496</ele>
      </trkpt>
      <trkpt lat="44.34086" lon="6.83777">
        <ele>2508.8</ele>
      </trkpt>
      <trkpt lat="44.34088" lon="6.83788">
        <ele>2508.8</ele>
      </trkpt>
      <trkpt lat="44.34088" lon="6.83795">
        <ele>2508.3</ele>
      </trkpt>
      <trkpt lat="44.34084" lon="6.83807">
        <ele>2506</ele>
      </trkpt>
      <trkpt lat="44.34081" lon="6.83812">
        <ele>2490.5</ele>
      </trkpt>
      <trkpt lat="44.34069" lon="6.83824">
        <ele>2490.1</ele>
      </trkpt>
      <trkpt lat="44.34066" lon="6.8383">
        <ele>2489.8</ele>
      </trkpt>
      <trkpt lat="44.34066" lon="6.83832">
        <ele>2489.8</ele>
      </trkpt>
      <trkpt lat="44.34064" lon="6.83838">
        <ele>2487.6</ele>
      </trkpt>
      <trkpt lat="44.34059" lon="6.83917">
        <ele>2484.3</ele>
      </trkpt>
      <trkpt lat="44.34061" lon="6.83927">
        <ele>2484.3</ele>
      </trkpt>
      <trkpt lat="44.34063" lon="6.83931">
        <ele>2484.3</ele>
      </trkpt>
      <trkpt lat="44.34092" lon="6.84023">
        <ele>2498.9</ele>
      </trkpt>
      <trkpt lat="44.34091" lon="6.84042">
        <ele>2500.2</ele>
      </trkpt>
      <trkpt lat="44.34089" lon="6.84051">
        <ele>2499.5</ele>
      </trkpt>
      <trkpt lat="44.34081" lon="6.8407">
        <ele>2483.2</ele>
      </trkpt>
      <trkpt lat="44.34073" lon="6.84084">
        <ele>2482.3</ele>
      </trkpt>
      <trkpt lat="44.34057" lon="6.84126">
        <ele>2473.6</ele>
      </trkpt>
      <trkpt lat="44.34055" lon="6.84137">
        <ele>2473</ele>
      </trkpt>
      <trkpt lat="44.34055" lon="6.84148">
        <ele>2473</ele>
      </trkpt>
      <trkpt lat="44.34062" lon="6.84184">
        <ele>2470.2</ele>
      </trkpt>
      <trkpt lat="44.34062" lon="6.84204">
        <ele>2468.4</ele>
      </trkpt>
      <trkpt lat="44.34059" lon="6.8422">
        <ele>2467.6</ele>
      </trkpt>
      <trkpt lat="44.34056" lon="6.84228">
        <ele>2467.2</ele>
      </trkpt>
      <trkpt lat="44.34053" lon="6.84248">
        <ele>2466.9</ele>
      </trkpt>
      <trkpt lat="44.34053" lon="6.84258">
        <ele>2460.9</ele>
      </trkpt>
      <trkpt lat="44.34054" lon="6.84258">
        <ele>2461.2</ele>
      </trkpt>
      <trkpt lat="44.34056" lon="6.84271">
        <ele>2460.3</ele>
      </trkpt>
      <trkpt lat="44.34064" lon="6.84303">
        <ele>2458.5</ele>
      </trkpt>
      <trkpt lat="44.34065" lon="6.84305">
        <ele>2458.5</ele>
      </trkpt>
      <trkpt lat="44.34068" lon="6.84317">
        <ele>2459</ele>
      </trkpt>
      <trkpt lat="44.34081" lon="6.84335">
        <ele>2461</ele>
      </trkpt>
      <trkpt lat="44.34173" lon="6.84428">
        <ele>2464.7</ele>
      </trkpt>
      <trkpt lat="44.34184" lon="6.84443">
        <ele>2464.7</ele>
      </trkpt>
      <trkpt lat="44.34195" lon="6.84464">
        <ele>2463.2</ele>
      </trkpt>
      <trkpt lat="44.34204" lon="6.84502">
        <ele>2449.1</ele>
      </trkpt>
      <trkpt lat="44.34233" lon="6.8457">
        <ele>2450.1</ele>
      </trkpt>
      <trkpt lat="44.34235" lon="6.84584">
        <ele>2448.8</ele>
      </trkpt>
      <trkpt lat="44.34235" lon="6.84591">
        <ele>2448.5</ele>
      </trkpt>
      <trkpt lat="44.34233" lon="6.84596">
        <ele>2447.6</ele>
      </trkpt>
      <trkpt lat="44.34226" lon="6.84605">
        <ele>2445.9</ele>
      </trkpt>
      <trkpt lat="44.34216" lon="6.84615">
        <ele>2444.2</ele>
      </trkpt>
      <trkpt lat="44.34207" lon="6.84626">
        <ele>2443.1</ele>
      </trkpt>
      <trkpt lat="44.342" lon="6.84638">
        <ele>2442.3</ele>
      </trkpt>
      <trkpt lat="44.34182" lon="6.84659">
        <ele>2438.3</ele>
      </trkpt>
      <trkpt lat="44.34174" lon="6.84671">
        <ele>2437.4</ele>
      </trkpt>
      <trkpt lat="44.34171" lon="6.84678">
        <ele>2438.7</ele>
      </trkpt>
      <trkpt lat="44.34169" lon="6.84689">
        <ele>2441.3</ele>
      </trkpt>
      <trkpt lat="44.34169" lon="6.84712">
        <ele>2444</ele>
      </trkpt>
      <trkpt lat="44.34167" lon="6.8472">
        <ele>2444</ele>
      </trkpt>
      <trkpt lat="44.34164" lon="6.84726">
        <ele>2432.1</ele>
      </trkpt>
      <trkpt lat="44.34162" lon="6.84728">
        <ele>2432.3</ele>
      </trkpt>
      <trkpt lat="44.34161" lon="6.84731">
        <ele>2432.9</ele>
      </trkpt>
      <trkpt lat="44.34157" lon="6.84735">
        <ele>2433.3</ele>
      </trkpt>
      <trkpt lat="44.34153" lon="6.84737">
        <ele>2432.9</ele>
      </trkpt>
      <trkpt lat="44.34144" lon="6.84738">
        <ele>2430.9</ele>
      </trkpt>
      <trkpt lat="44.3412" lon="6.84738">
        <ele>2426.2</ele>
      </trkpt>
      <trkpt lat="44.34104" lon="6.84749">
        <ele>2423.7</ele>
      </trkpt>
      <trkpt lat="44.34092" lon="6.84766">
        <ele>2428.4</ele>
      </trkpt>
      <trkpt lat="44.34085" lon="6.84768">
        <ele>2428.1</ele>
      </trkpt>
      <trkpt lat="44.34055" lon="6.84798">
        <ele>2414.6</ele>
      </trkpt>
      <trkpt lat="44.34049" lon="6.84809">
        <ele>2414.5</ele>
      </trkpt>
      <trkpt lat="44.34029" lon="6.84876">
        <ele>2420.4</ele>
      </trkpt>
      <trkpt lat="44.34029" lon="6.84881">
        <ele>2420.7</ele>
      </trkpt>
      <trkpt lat="44.34031" lon="6.84894">
        <ele>2421.6</ele>
      </trkpt>
      <trkpt lat="44.34035" lon="6.84906">
        <ele>2422.6</ele>
      </trkpt>
      <trkpt lat="44.34035" lon="6.84931">
        <ele>2429.9</ele>
      </trkpt>
      <trkpt lat="44.34034" lon="6.84938">
        <ele>2430.2</ele>
      </trkpt>
      <trkpt lat="44.34032" lon="6.84943">
        <ele>2430.3</ele>
      </trkpt>
      <trkpt lat="44.34026" lon="6.84952">
        <ele>2430.2</ele>
      </trkpt>
      <trkpt lat="44.34008" lon="6.84966">
        <ele>2429.4</ele>
      </trkpt>
      <trkpt lat="44.33995" lon="6.84974">
        <ele>2417</ele>
      </trkpt>
      <trkpt lat="44.33968" lon="6.84999">
        <ele>2415.9</ele>
      </trkpt>
      <trkpt lat="44.33965" lon="6.85001">
        <ele>2427.9</ele>
      </trkpt>
      <trkpt lat="44.33964" lon="6.85001">
        <ele>2427.8</ele>
      </trkpt>
      <trkpt lat="44.33958" lon="6.85003">
        <ele>2427.2</ele>
      </trkpt>
      <trkpt lat="44.33946" lon="6.85002">
        <ele>2425.1</ele>
      </trkpt>
      <trkpt lat="44.33928" lon="6.84997">
        <ele>2412.3</ele>
      </trkpt>
      <trkpt lat="44.3391" lon="6.84997">
        <ele>2408.2</ele>
      </trkpt>
      <trkpt lat="44.33895" lon="6.85001">
        <ele>2413.7</ele>
      </trkpt>
      <trkpt lat="44.33878" lon="6.85009">
        <ele>2412.9</ele>
      </trkpt>
      <trkpt lat="44.3385" lon="6.85034">
        <ele>2412.7</ele>
      </trkpt>
      <trkpt lat="44.33822" lon="6.85049">
        <ele>2406.9</ele>
      </trkpt>
      <trkpt lat="44.33811" lon="6.85052">
        <ele>2406.8</ele>
      </trkpt>
      <trkpt lat="44.33811" lon="6.85053">
        <ele>2407</ele>
      </trkpt>
      <trkpt lat="44.338" lon="6.85054">
        <ele>2406.3</ele>
      </trkpt>
      <trkpt lat="44.3379" lon="6.85053">
        <ele>2405.5</ele>
      </trkpt>
      <trkpt lat="44.33775" lon="6.85048">
        <ele>2404</ele>
      </trkpt>
      <trkpt lat="44.33762" lon="6.85042">
        <ele>2402.2</ele>
      </trkpt>
      <trkpt lat="44.33748" lon="6.8504">
        <ele>2395.7</ele>
      </trkpt>
      <trkpt lat="44.33739" lon="6.85041">
        <ele>2395.8</ele>
      </trkpt>
      <trkpt lat="44.33732" lon="6.85043">
        <ele>2396.1</ele>
      </trkpt>
      <trkpt lat="44.33695" lon="6.85043">
        <ele>2394.5</ele>
      </trkpt>
      <trkpt lat="44.33683" lon="6.85038">
        <ele>2392.6</ele>
      </trkpt>
      <trkpt lat="44.33649" lon="6.85015">
        <ele>2377.4</ele>
      </trkpt>
      <trkpt lat="44.33645" lon="6.85013">
        <ele>2377.1</ele>
      </trkpt>
      <trkpt lat="44.3364" lon="6.85012">
        <ele>2376.9</ele>
      </trkpt>
      <trkpt lat="44.33636" lon="6.85012">
        <ele>2376.7</ele>
      </trkpt>
      <trkpt lat="44.33629" lon="6.85015">
        <ele>2376.5</ele>
      </trkpt>
      <trkpt lat="44.33621" lon="6.85022">
        <ele>2376.5</ele>
      </trkpt>
      <trkpt lat="44.33621" lon="6.85023">
        <ele>2376.7</ele>
      </trkpt>
      <trkpt lat="44.33599" lon="6.85054">
        <ele>2381.1</ele>
      </trkpt>
      <trkpt lat="44.33596" lon="6.85057">
        <ele>2381.6</ele>
      </trkpt>
      <trkpt lat="44.33595" lon="6.85057">
        <ele>2381.6</ele>
      </trkpt>
      <trkpt lat="44.33588" lon="6.85062">
        <ele>2382.5</ele>
      </trkpt>
      <trkpt lat="44.3358" lon="6.85064">
        <ele>2376.3</ele>
      </trkpt>
      <trkpt lat="44.33561" lon="6.85066">
        <ele>2374.2</ele>
      </trkpt>
      <trkpt lat="44.33533" lon="6.85065">
        <ele>2372.1</ele>
      </trkpt>
      <trkpt lat="44.33524" lon="6.85063">
        <ele>2372.1</ele>
      </trkpt>
      <trkpt lat="44.33504" lon="6.85056">
        <ele>2371.2</ele>
      </trkpt>
      <trkpt lat="44.33474" lon="6.85042">
        <ele>2362.1</ele>
      </trkpt>
      <trkpt lat="44.33472" lon="6.85042">
        <ele>2362.1</ele>
      </trkpt>
      <trkpt lat="44.33448" lon="6.85036">
        <ele>2359.4</ele>
      </trkpt>
      <trkpt lat="44.3344" lon="6.85035">
        <ele>2358.5</ele>
      </trkpt>
      <trkpt lat="44.33427" lon="6.85035">
        <ele>2357.6</ele>
      </trkpt>
      <trkpt lat="44.33409" lon="6.85033">
        <ele>2347</ele>
      </trkpt>
      <trkpt lat="44.33401" lon="6.85034">
        <ele>2347.1</ele>
      </trkpt>
      <trkpt lat="44.33383" lon="6.85034">
        <ele>2345.6</ele>
      </trkpt>
      <trkpt lat="44.33342" lon="6.85039">
        <ele>2341.8</ele>
      </trkpt>
      <trkpt lat="44.33332" lon="6.85043">
        <ele>2322.2</ele>
      </trkpt>
      <trkpt lat="44.3333" lon="6.85045">
        <ele>2322.8</ele>
      </trkpt>
      <trkpt lat="44.33314" lon="6.85054">
        <ele>2323.2</ele>
      </trkpt>
      <trkpt lat="44.33313" lon="6.85055">
        <ele>2323.3</ele>
      </trkpt>
      <trkpt lat="44.33301" lon="6.85062">
        <ele>2321.1</ele>
      </trkpt>
      <trkpt lat="44.33298" lon="6.85066">
        <ele>2320.8</ele>
      </trkpt>
      <trkpt lat="44.33298" lon="6.85067">
        <ele>2321</ele>
      </trkpt>
      <trkpt lat="44.33296" lon="6.85069">
        <ele>2320.5</ele>
      </trkpt>
      <trkpt lat="44.3329" lon="6.8508">
        <ele>2319.4</ele>
      </trkpt>
      <trkpt lat="44.33288" lon="6.85086">
        <ele>2335.9</ele>
      </trkpt>
      <trkpt lat="44.33287" lon="6.85087">
        <ele>2335.5</ele>
      </trkpt>
      <trkpt lat="44.33278" lon="6.85108">
        <ele>2334.4</ele>
      </trkpt>
      <trkpt lat="44.33277" lon="6.85109">
        <ele>2334.2</ele>
      </trkpt>
      <trkpt lat="44.33275" lon="6.85122">
        <ele>2336</ele>
      </trkpt>
      <trkpt lat="44.33277" lon="6.85147">
        <ele>2338.5</ele>
      </trkpt>
      <trkpt lat="44.33278" lon="6.85205">
        <ele>2348.8</ele>
      </trkpt>
      <trkpt lat="44.33277" lon="6.85207">
        <ele>2348.5</ele>
      </trkpt>
      <trkpt lat="44.33276" lon="6.85213">
        <ele>2348.1</ele>
      </trkpt>
      <trkpt lat="44.33258" lon="6.85257">
        <ele>2335</ele>
      </trkpt>
      <trkpt lat="44.33254" lon="6.85264">
        <ele>2338.3</ele>
      </trkpt>
      <trkpt lat="44.33251" lon="6.85273">
        <ele>2343.7</ele>
      </trkpt>
      <trkpt lat="44.3325" lon="6.85273">
        <ele>2343.5</ele>
      </trkpt>
      <trkpt lat="44.33242" lon="6.85295">
        <ele>2302.5</ele>
      </trkpt>
      <trkpt lat="44.33242" lon="6.8533">
        <ele>2320.1</ele>
      </trkpt>
      <trkpt lat="44.33239" lon="6.85345">
        <ele>2318.7</ele>
      </trkpt>
      <trkpt lat="44.33233" lon="6.85362">
        <ele>2312.4</ele>
      </trkpt>
      <trkpt lat="44.33219" lon="6.85429">
        <ele>2317.3</ele>
      </trkpt>
      <trkpt lat="44.33209" lon="6.85462">
        <ele>2311.6</ele>
      </trkpt>
      <trkpt lat="44.33209" lon="6.85463">
        <ele>2311.6</ele>
      </trkpt>
      <trkpt lat="44.33207" lon="6.85469">
        <ele>2310.9</ele>
      </trkpt>
      <trkpt lat="44.33206" lon="6.85476">
        <ele>2310.4</ele>
      </trkpt>
      <trkpt lat="44.33207" lon="6.85482">
        <ele>2311</ele>
      </trkpt>
      <trkpt lat="44.33207" lon="6.85487">
        <ele>2311</ele>
      </trkpt>
      <trkpt lat="44.33208" lon="6.85487">
        <ele>2311.6</ele>
      </trkpt>
      <trkpt lat="44.33213" lon="6.8551">
        <ele>2312.6</ele>
      </trkpt>
      <trkpt lat="44.33214" lon="6.85511">
        <ele>2313.1</ele>
      </trkpt>
      <trkpt lat="44.33215" lon="6.85518">
        <ele>2313</ele>
      </trkpt>
      <trkpt lat="44.33236" lon="6.85599">
        <ele>2314.7</ele>
      </trkpt>
      <trkpt lat="44.3324" lon="6.85627">
        <ele>2309.9</ele>
      </trkpt>
      <trkpt lat="44.3324" lon="6.85693">
        <ele>2307</ele>
      </trkpt>
      <trkpt lat="44.33235" lon="6.85799">
        <ele>2303.4</ele>
      </trkpt>
      <trkpt lat="44.3323" lon="6.85827">
        <ele>2306.3</ele>
      </trkpt>
      <trkpt lat="44.33226" lon="6.85836">
        <ele>2305.8</ele>
      </trkpt>
      <trkpt lat="44.3322" lon="6.85855">
        <ele>2301.7</ele>
      </trkpt>
      <trkpt lat="44.33217" lon="6.85894">
        <ele>2301.4</ele>
      </trkpt>
      <trkpt lat="44.33215" lon="6.85901">
        <ele>2301.1</ele>
      </trkpt>
      <trkpt lat="44.33215" lon="6.85902">
        <ele>2301.1</ele>
      </trkpt>
      <trkpt lat="44.33213" lon="6.85906">
        <ele>2300.5</ele>
      </trkpt>
      <trkpt lat="44.33208" lon="6.85921">
        <ele>2302.1</ele>
      </trkpt>
      <trkpt lat="44.33208" lon="6.85925">
        <ele>2302.2</ele>
      </trkpt>
      <trkpt lat="44.33203" lon="6.85946">
        <ele>2301.3</ele>
      </trkpt>
      <trkpt lat="44.33202" lon="6.85948">
        <ele>2301.1</ele>
      </trkpt>
      <trkpt lat="44.33202" lon="6.85949">
        <ele>2301.2</ele>
      </trkpt>
      <trkpt lat="44.33186" lon="6.85993">
        <ele>2296</ele>
      </trkpt>
      <trkpt lat="44.33185" lon="6.85994">
        <ele>2295.5</ele>
      </trkpt>
      <trkpt lat="44.33185" lon="6.85995">
        <ele>2295.5</ele>
      </trkpt>
      <trkpt lat="44.33164" lon="6.86033">
        <ele>2270</ele>
      </trkpt>
      <trkpt lat="44.33164" lon="6.86034">
        <ele>2269.9</ele>
      </trkpt>
      <trkpt lat="44.33163" lon="6.86037">
        <ele>2269.5</ele>
      </trkpt>
      <trkpt lat="44.3316" lon="6.86042">
        <ele>2268.8</ele>
      </trkpt>
      <trkpt lat="44.33159" lon="6.86047">
        <ele>2268.6</ele>
      </trkpt>
      <trkpt lat="44.33159" lon="6.86053">
        <ele>2268.9</ele>
      </trkpt>
      <trkpt lat="44.3316" lon="6.86056">
        <ele>2269.3</ele>
      </trkpt>
      <trkpt lat="44.3316" lon="6.8606">
        <ele>2269.9</ele>
      </trkpt>
      <trkpt lat="44.33178" lon="6.86097">
        <ele>2284</ele>
      </trkpt>
      <trkpt lat="44.33186" lon="6.86107">
        <ele>2285.3</ele>
      </trkpt>
      <trkpt lat="44.33193" lon="6.86114">
        <ele>2286</ele>
      </trkpt>
      <trkpt lat="44.33193" lon="6.86115">
        <ele>2285.9</ele>
      </trkpt>
      <trkpt lat="44.33196" lon="6.86117">
        <ele>2286.2</ele>
      </trkpt>
      <trkpt lat="44.33208" lon="6.86129">
        <ele>2286.9</ele>
      </trkpt>
      <trkpt lat="44.33229" lon="6.86156">
        <ele>2286.8</ele>
      </trkpt>
      <trkpt lat="44.33244" lon="6.86181">
        <ele>2277.2</ele>
      </trkpt>
      <trkpt lat="44.33272" lon="6.8622">
        <ele>2282.2</ele>
      </trkpt>
      <trkpt lat="44.33284" lon="6.86234">
        <ele>2281.8</ele>
      </trkpt>
      <trkpt lat="44.33285" lon="6.86234">
        <ele>2282</ele>
      </trkpt>
      <trkpt lat="44.33367" lon="6.86318">
        <ele>2281.5</ele>
      </trkpt>
      <trkpt lat="44.33378" lon="6.86327">
        <ele>2282.9</ele>
      </trkpt>
      <trkpt lat="44.33386" lon="6.86336">
        <ele>2273.7</ele>
      </trkpt>
      <trkpt lat="44.33392" lon="6.86347">
        <ele>2274.3</ele>
      </trkpt>
      <trkpt lat="44.33393" lon="6.86354">
        <ele>2273.8</ele>
      </trkpt>
      <trkpt lat="44.33387" lon="6.86415">
        <ele>2269.8</ele>
      </trkpt>
      <trkpt lat="44.3338" lon="6.86442">
        <ele>2266</ele>
      </trkpt>
      <trkpt lat="44.33378" lon="6.86447">
        <ele>2265.8</ele>
      </trkpt>
      <trkpt lat="44.33375" lon="6.86459">
        <ele>2265.5</ele>
      </trkpt>
      <trkpt lat="44.33375" lon="6.8658">
        <ele>2267</ele>
      </trkpt>
      <trkpt lat="44.33374" lon="6.86588">
        <ele>2267</ele>
      </trkpt>
      <trkpt lat="44.3337" lon="6.86604">
        <ele>2266.6</ele>
      </trkpt>
      <trkpt lat="44.33359" lon="6.86632">
        <ele>2265.5</ele>
      </trkpt>
      <trkpt lat="44.33349" lon="6.86651">
        <ele>2263.7</ele>
      </trkpt>
      <trkpt lat="44.33332" lon="6.86678">
        <ele>2254.7</ele>
      </trkpt>
      <trkpt lat="44.33326" lon="6.86698">
        <ele>2251</ele>
      </trkpt>
      <trkpt lat="44.33324" lon="6.86715">
        <ele>2250.3</ele>
      </trkpt>
      <trkpt lat="44.33326" lon="6.86739">
        <ele>2252.3</ele>
      </trkpt>
      <trkpt lat="44.33337" lon="6.86805">
        <ele>2258.4</ele>
      </trkpt>
      <trkpt lat="44.33337" lon="6.86823">
        <ele>2256</ele>
      </trkpt>
      <trkpt lat="44.33336" lon="6.86831">
        <ele>2254.1</ele>
      </trkpt>
      <trkpt lat="44.33331" lon="6.86844">
        <ele>2251.1</ele>
      </trkpt>
      <trkpt lat="44.33324" lon="6.86853">
        <ele>2249.9</ele>
      </trkpt>
      <trkpt lat="44.33322" lon="6.86854">
        <ele>2249.7</ele>
      </trkpt>
      <trkpt lat="44.33321" lon="6.86855">
        <ele>2249.6</ele>
      </trkpt>
      <trkpt lat="44.33313" lon="6.86859">
        <ele>2248.9</ele>
      </trkpt>
      <trkpt lat="44.33291" lon="6.86865">
        <ele>2247</ele>
      </trkpt>
      <trkpt lat="44.33286" lon="6.86865">
        <ele>2246.5</ele>
      </trkpt>
      <trkpt lat="44.33283" lon="6.86864">
        <ele>2246.2</ele>
      </trkpt>
      <trkpt lat="44.33276" lon="6.86858">
        <ele>2245.3</ele>
      </trkpt>
      <trkpt lat="44.33274" lon="6.86848">
        <ele>2244.5</ele>
      </trkpt>
      <trkpt lat="44.33274" lon="6.86842">
        <ele>2244.2</ele>
      </trkpt>
      <trkpt lat="44.33277" lon="6.86831">
        <ele>2243.4</ele>
      </trkpt>
      <trkpt lat="44.33282" lon="6.86821">
        <ele>2244.2</ele>
      </trkpt>
      <trkpt lat="44.33287" lon="6.86814">
        <ele>2244.9</ele>
      </trkpt>
      <trkpt lat="44.33293" lon="6.86801">
        <ele>2245.6</ele>
      </trkpt>
      <trkpt lat="44.33295" lon="6.86794">
        <ele>2245.9</ele>
      </trkpt>
      <trkpt lat="44.33293" lon="6.86767">
        <ele>2245.7</ele>
      </trkpt>
      <trkpt lat="44.33288" lon="6.86749">
        <ele>2245.6</ele>
      </trkpt>
      <trkpt lat="44.33276" lon="6.86736">
        <ele>2243.6</ele>
      </trkpt>
      <trkpt lat="44.33269" lon="6.86735">
        <ele>2242.4</ele>
      </trkpt>
      <trkpt lat="44.33269" lon="6.86736">
        <ele>2242.3</ele>
      </trkpt>
      <trkpt lat="44.33265" lon="6.86736">
        <ele>2241.6</ele>
      </trkpt>
      <trkpt lat="44.33259" lon="6.86737">
        <ele>2240.4</ele>
      </trkpt>
      <trkpt lat="44.33251" lon="6.8674">
        <ele>2238.7</ele>
      </trkpt>
      <trkpt lat="44.33248" lon="6.86742">
        <ele>2233.1</ele>
      </trkpt>
      <trkpt lat="44.33233" lon="6.86745">
        <ele>2231.2</ele>
      </trkpt>
      <trkpt lat="44.33229" lon="6.86745">
        <ele>2230.5</ele>
      </trkpt>
      <trkpt lat="44.33223" lon="6.86742">
        <ele>2229.6</ele>
      </trkpt>
      <trkpt lat="44.3319" lon="6.86694">
        <ele>2227.2</ele>
      </trkpt>
      <trkpt lat="44.33177" lon="6.86662">
        <ele>2228.3</ele>
      </trkpt>
      <trkpt lat="44.33173" lon="6.86657">
        <ele>2228.4</ele>
      </trkpt>
      <trkpt lat="44.33169" lon="6.86656">
        <ele>2228.2</ele>
      </trkpt>
      <trkpt lat="44.33165" lon="6.86657">
        <ele>2222.7</ele>
      </trkpt>
      <trkpt lat="44.33164" lon="6.86658">
        <ele>2222.8</ele>
      </trkpt>
      <trkpt lat="44.33162" lon="6.86662">
        <ele>2223.3</ele>
      </trkpt>
      <trkpt lat="44.33161" lon="6.86666">
        <ele>2223.4</ele>
      </trkpt>
      <trkpt lat="44.33161" lon="6.86669">
        <ele>2221.8</ele>
      </trkpt>
      <trkpt lat="44.33165" lon="6.8669">
        <ele>2216.6</ele>
      </trkpt>
      <trkpt lat="44.33175" lon="6.8672">
        <ele>2224.5</ele>
      </trkpt>
      <trkpt lat="44.33182" lon="6.86765">
        <ele>2221.9</ele>
      </trkpt>
      <trkpt lat="44.33182" lon="6.8678">
        <ele>2223</ele>
      </trkpt>
      <trkpt lat="44.33181" lon="6.86787">
        <ele>2223.2</ele>
      </trkpt>
      <trkpt lat="44.33178" lon="6.86794">
        <ele>2223</ele>
      </trkpt>
      <trkpt lat="44.33162" lon="6.86821">
        <ele>2212.5</ele>
      </trkpt>
      <trkpt lat="44.33139" lon="6.86846">
        <ele>2214.2</ele>
      </trkpt>
      <trkpt lat="44.33129" lon="6.86854">
        <ele>2213.7</ele>
      </trkpt>
      <trkpt lat="44.33121" lon="6.86859">
        <ele>2213.2</ele>
      </trkpt>
      <trkpt lat="44.33108" lon="6.86862">
        <ele>2212.2</ele>
      </trkpt>
      <trkpt lat="44.33088" lon="6.86859">
        <ele>2209.9</ele>
      </trkpt>
      <trkpt lat="44.33075" lon="6.86861">
        <ele>2204.2</ele>
      </trkpt>
      <trkpt lat="44.33055" lon="6.86871">
        <ele>2204.9</ele>
      </trkpt>
      <trkpt lat="44.3304" lon="6.86876">
        <ele>2204.8</ele>
      </trkpt>
      <trkpt lat="44.33027" lon="6.86876">
        <ele>2204.3</ele>
      </trkpt>
      <trkpt lat="44.33013" lon="6.86873">
        <ele>2203.2</ele>
      </trkpt>
      <trkpt lat="44.32986" lon="6.86863">
        <ele>2199.8</ele>
      </trkpt>
      <trkpt lat="44.32962" lon="6.86852">
        <ele>2199.7</ele>
      </trkpt>
      <trkpt lat="44.3295" lon="6.86849">
        <ele>2199.6</ele>
      </trkpt>
      <trkpt lat="44.32948" lon="6.86848">
        <ele>2199.5</ele>
      </trkpt>
      <trkpt lat="44.32917" lon="6.86841">
        <ele>2195.7</ele>
      </trkpt>
      <trkpt lat="44.32898" lon="6.86832">
        <ele>2189</ele>
      </trkpt>
      <trkpt lat="44.32889" lon="6.86829">
        <ele>2188.2</ele>
      </trkpt>
      <trkpt lat="44.32872" lon="6.8682">
        <ele>2187.8</ele>
      </trkpt>
      <trkpt lat="44.32868" lon="6.86816">
        <ele>2187.6</ele>
      </trkpt>
      <trkpt lat="44.32866" lon="6.86812">
        <ele>2187.2</ele>
      </trkpt>
      <trkpt lat="44.32866" lon="6.86809">
        <ele>2186.8</ele>
      </trkpt>
      <trkpt lat="44.32867" lon="6.86805">
        <ele>2186.1</ele>
      </trkpt>
      <trkpt lat="44.32869" lon="6.86802">
        <ele>2185.5</ele>
      </trkpt>
      <trkpt lat="44.32872" lon="6.868">
        <ele>2185.1</ele>
      </trkpt>
      <trkpt lat="44.32875" lon="6.86799">
        <ele>2184.9</ele>
      </trkpt>
      <trkpt lat="44.32878" lon="6.868">
        <ele>2184.9</ele>
      </trkpt>
      <trkpt lat="44.32879" lon="6.86801">
        <ele>2185.1</ele>
      </trkpt>
      <trkpt lat="44.329" lon="6.86814">
        <ele>2187.1</ele>
      </trkpt>
      <trkpt lat="44.3291" lon="6.86817">
        <ele>2188.2</ele>
      </trkpt>
      <trkpt lat="44.32919" lon="6.86817">
        <ele>2187.5</ele>
      </trkpt>
      <trkpt lat="44.3297" lon="6.86804">
        <ele>2183.6</ele>
      </trkpt>
      <trkpt lat="44.32982" lon="6.86799">
        <ele>2183.3</ele>
      </trkpt>
      <trkpt lat="44.32983" lon="6.86799">
        <ele>2183.3</ele>
      </trkpt>
      <trkpt lat="44.3301" lon="6.86782">
        <ele>2187.1</ele>
      </trkpt>
      <trkpt lat="44.33015" lon="6.86777">
        <ele>2186.9</ele>
      </trkpt>
      <trkpt lat="44.33017" lon="6.8677">
        <ele>2186.2</ele>
      </trkpt>
      <trkpt lat="44.33017" lon="6.8676">
        <ele>2185</ele>
      </trkpt>
      <trkpt lat="44.33016" lon="6.86752">
        <ele>2184</ele>
      </trkpt>
      <trkpt lat="44.32995" lon="6.86702">
        <ele>2175.3</ele>
      </trkpt>
      <trkpt lat="44.32993" lon="6.86699">
        <ele>2175.4</ele>
      </trkpt>
      <trkpt lat="44.32961" lon="6.86614">
        <ele>2171.6</ele>
      </trkpt>
      <trkpt lat="44.32945" lon="6.86564">
        <ele>2169.6</ele>
      </trkpt>
      <trkpt lat="44.32935" lon="6.86548">
        <ele>2169.1</ele>
      </trkpt>
      <trkpt lat="44.32881" lon="6.86474">
        <ele>2154.2</ele>
      </trkpt>
      <trkpt lat="44.32877" lon="6.86463">
        <ele>2153.5</ele>
      </trkpt>
      <trkpt lat="44.32876" lon="6.86455">
        <ele>2153.3</ele>
      </trkpt>
      <trkpt lat="44.32876" lon="6.86446">
        <ele>2153.2</ele>
      </trkpt>
      <trkpt lat="44.32889" lon="6.864">
        <ele>2152.2</ele>
      </trkpt>
      <trkpt lat="44.32892" lon="6.86384">
        <ele>2151.6</ele>
      </trkpt>
      <trkpt lat="44.32892" lon="6.86372">
        <ele>2151.2</ele>
      </trkpt>
      <trkpt lat="44.3289" lon="6.8636">
        <ele>2150.9</ele>
      </trkpt>
      <trkpt lat="44.32889" lon="6.86359">
        <ele>2150.7</ele>
      </trkpt>
      <trkpt lat="44.32883" lon="6.86336">
        <ele>2149.8</ele>
      </trkpt>
      <trkpt lat="44.32882" lon="6.86334">
        <ele>2149.6</ele>
      </trkpt>
      <trkpt lat="44.32881" lon="6.86319">
        <ele>2144.7</ele>
      </trkpt>
      <trkpt lat="44.32886" lon="6.86291">
        <ele>2143.9</ele>
      </trkpt>
      <trkpt lat="44.32886" lon="6.86287">
        <ele>2143.8</ele>
      </trkpt>
      <trkpt lat="44.32883" lon="6.86278">
        <ele>2143</ele>
      </trkpt>
      <trkpt lat="44.32879" lon="6.86275">
        <ele>2142.2</ele>
      </trkpt>
      <trkpt lat="44.32876" lon="6.86274">
        <ele>2141.6</ele>
      </trkpt>
      <trkpt lat="44.32873" lon="6.86275">
        <ele>2141</ele>
      </trkpt>
      <trkpt lat="44.32859" lon="6.86288">
        <ele>2139.5</ele>
      </trkpt>
      <trkpt lat="44.32847" lon="6.86302">
        <ele>2138.9</ele>
      </trkpt>
      <trkpt lat="44.32841" lon="6.86313">
        <ele>2138.4</ele>
      </trkpt>
      <trkpt lat="44.32836" lon="6.86327">
        <ele>2136.6</ele>
      </trkpt>
      <trkpt lat="44.32834" lon="6.86341">
        <ele>2138.7</ele>
      </trkpt>
      <trkpt lat="44.32829" lon="6.86357">
        <ele>2131.7</ele>
      </trkpt>
      <trkpt lat="44.32825" lon="6.86362">
        <ele>2131.4</ele>
      </trkpt>
      <trkpt lat="44.32815" lon="6.86368">
        <ele>2130.7</ele>
      </trkpt>
      <trkpt lat="44.32804" lon="6.8637">
        <ele>2129.5</ele>
      </trkpt>
      <trkpt lat="44.32789" lon="6.86369">
        <ele>2127.6</ele>
      </trkpt>
      <trkpt lat="44.32782" lon="6.8637">
        <ele>2126.7</ele>
      </trkpt>
      <trkpt lat="44.32776" lon="6.86373">
        <ele>2126.2</ele>
      </trkpt>
      <trkpt lat="44.3277" lon="6.86379">
        <ele>2125.9</ele>
      </trkpt>
      <trkpt lat="44.32748" lon="6.86409">
        <ele>2118.1</ele>
      </trkpt>
      <trkpt lat="44.32719" lon="6.86459">
        <ele>2116.6</ele>
      </trkpt>
      <trkpt lat="44.32709" lon="6.86492">
        <ele>2116.8</ele>
      </trkpt>
      <trkpt lat="44.32705" lon="6.865">
        <ele>2121.9</ele>
      </trkpt>
      <trkpt lat="44.32701" lon="6.86505">
        <ele>2121.3</ele>
      </trkpt>
      <trkpt lat="44.32697" lon="6.86508">
        <ele>2120.7</ele>
      </trkpt>
      <trkpt lat="44.32692" lon="6.86509">
        <ele>2119.7</ele>
      </trkpt>
      <trkpt lat="44.32687" lon="6.86507">
        <ele>2118.4</ele>
      </trkpt>
      <trkpt lat="44.32683" lon="6.86504">
        <ele>2117.1</ele>
      </trkpt>
      <trkpt lat="44.3268" lon="6.865">
        <ele>2115.9</ele>
      </trkpt>
      <trkpt lat="44.32678" lon="6.86493">
        <ele>2112.2</ele>
      </trkpt>
      <trkpt lat="44.32678" lon="6.86484">
        <ele>2112.6</ele>
      </trkpt>
      <trkpt lat="44.3268" lon="6.86471">
        <ele>2112.7</ele>
      </trkpt>
      <trkpt lat="44.32708" lon="6.86405">
        <ele>2106.6</ele>
      </trkpt>
      <trkpt lat="44.32708" lon="6.86402">
        <ele>2106.5</ele>
      </trkpt>
      <trkpt lat="44.3271" lon="6.86392">
        <ele>2106.3</ele>
      </trkpt>
      <trkpt lat="44.32711" lon="6.8638">
        <ele>2105.5</ele>
      </trkpt>
      <trkpt lat="44.3271" lon="6.86356">
        <ele>2103.7</ele>
      </trkpt>
      <trkpt lat="44.32708" lon="6.8634">
        <ele>2102.5</ele>
      </trkpt>
      <trkpt lat="44.32709" lon="6.86327">
        <ele>2093.3</ele>
      </trkpt>
      <trkpt lat="44.32711" lon="6.86321">
        <ele>2093.4</ele>
      </trkpt>
      <trkpt lat="44.32715" lon="6.86316">
        <ele>2093.9</ele>
      </trkpt>
      <trkpt lat="44.32723" lon="6.86312">
        <ele>2095.2</ele>
      </trkpt>
      <trkpt lat="44.32741" lon="6.86299">
        <ele>2095.9</ele>
      </trkpt>
      <trkpt lat="44.32749" lon="6.86285">
        <ele>2094.4</ele>
      </trkpt>
      <trkpt lat="44.32749" lon="6.86284">
        <ele>2094.3</ele>
      </trkpt>
      <trkpt lat="44.32757" lon="6.86265">
        <ele>2105.2</ele>
      </trkpt>
      <trkpt lat="44.32768" lon="6.86245">
        <ele>2098.6</ele>
      </trkpt>
      <trkpt lat="44.32802" lon="6.862">
        <ele>2101.8</ele>
      </trkpt>
      <trkpt lat="44.32805" lon="6.86189">
        <ele>2101.6</ele>
      </trkpt>
      <trkpt lat="44.32806" lon="6.86174">
        <ele>2101.4</ele>
      </trkpt>
      <trkpt lat="44.32803" lon="6.86139">
        <ele>2090.6</ele>
      </trkpt>
      <trkpt lat="44.32806" lon="6.86096">
        <ele>2089.6</ele>
      </trkpt>
      <trkpt lat="44.32817" lon="6.86037">
        <ele>2085.4</ele>
      </trkpt>
      <trkpt lat="44.32809" lon="6.85973">
        <ele>2081.8</ele>
      </trkpt>
      <trkpt lat="44.32806" lon="6.85965">
        <ele>2080.7</ele>
      </trkpt>
      <trkpt lat="44.32805" lon="6.85964">
        <ele>2080.4</ele>
      </trkpt>
      <trkpt lat="44.32804" lon="6.85962">
        <ele>2080.1</ele>
      </trkpt>
      <trkpt lat="44.32801" lon="6.8596">
        <ele>2079.4</ele>
      </trkpt>
      <trkpt lat="44.32798" lon="6.8596">
        <ele>2078.7</ele>
      </trkpt>
      <trkpt lat="44.32795" lon="6.85962">
        <ele>2078.1</ele>
      </trkpt>
      <trkpt lat="44.32793" lon="6.85966">
        <ele>2077.7</ele>
      </trkpt>
      <trkpt lat="44.32791" lon="6.85974">
        <ele>2077.4</ele>
      </trkpt>
      <trkpt lat="44.32787" lon="6.86016">
        <ele>2078.7</ele>
      </trkpt>
      <trkpt lat="44.32777" lon="6.86064">
        <ele>2077</ele>
      </trkpt>
      <trkpt lat="44.32772" lon="6.86081">
        <ele>2074.5</ele>
      </trkpt>
      <trkpt lat="44.32753" lon="6.86121">
        <ele>2080.6</ele>
      </trkpt>
      <trkpt lat="44.32708" lon="6.86189">
        <ele>2069.7</ele>
      </trkpt>
      <trkpt lat="44.32692" lon="6.86207">
        <ele>2069.2</ele>
      </trkpt>
      <trkpt lat="44.32685" lon="6.86212">
        <ele>2068.9</ele>
      </trkpt>
      <trkpt lat="44.32676" lon="6.86216">
        <ele>2068.6</ele>
      </trkpt>
      <trkpt lat="44.32637" lon="6.86226">
        <ele>2048.9</ele>
      </trkpt>
      <trkpt lat="44.32628" lon="6.86231">
        <ele>2047.3</ele>
      </trkpt>
      <trkpt lat="44.32615" lon="6.86247">
        <ele>2045</ele>
      </trkpt>
      <trkpt lat="44.32612" lon="6.86247">
        <ele>2044.3</ele>
      </trkpt>
      <trkpt lat="44.32609" lon="6.86245">
        <ele>2043.5</ele>
      </trkpt>
      <trkpt lat="44.32607" lon="6.86241">
        <ele>2043.1</ele>
      </trkpt>
      <trkpt lat="44.32608" lon="6.86229">
        <ele>2043.1</ele>
      </trkpt>
      <trkpt lat="44.32613" lon="6.86221">
        <ele>2043.6</ele>
      </trkpt>
      <trkpt lat="44.32619" lon="6.86216">
        <ele>2044.2</ele>
      </trkpt>
      <trkpt lat="44.32641" lon="6.86203">
        <ele>2046.3</ele>
      </trkpt>
      <trkpt lat="44.32655" lon="6.8619">
        <ele>2046.5</ele>
      </trkpt>
      <trkpt lat="44.3266" lon="6.86183">
        <ele>2046.4</ele>
      </trkpt>
      <trkpt lat="44.32664" lon="6.86171">
        <ele>2046.6</ele>
      </trkpt>
      <trkpt lat="44.32671" lon="6.86129">
        <ele>2051.1</ele>
      </trkpt>
      <trkpt lat="44.32676" lon="6.86115">
        <ele>2049.9</ele>
      </trkpt>
      <trkpt lat="44.32699" lon="6.86077">
        <ele>2045.4</ele>
      </trkpt>
      <trkpt lat="44.32708" lon="6.86058">
        <ele>2047.1</ele>
      </trkpt>
      <trkpt lat="44.32712" lon="6.86045">
        <ele>2047.3</ele>
      </trkpt>
      <trkpt lat="44.32713" lon="6.86033">
        <ele>2047.1</ele>
      </trkpt>
      <trkpt lat="44.32712" lon="6.86031">
        <ele>2046.8</ele>
      </trkpt>
      <trkpt lat="44.32712" lon="6.86018">
        <ele>2046.6</ele>
      </trkpt>
      <trkpt lat="44.32705" lon="6.85977">
        <ele>2040.6</ele>
      </trkpt>
      <trkpt lat="44.32704" lon="6.85931">
        <ele>2039.3</ele>
      </trkpt>
      <trkpt lat="44.32708" lon="6.85876">
        <ele>2036.2</ele>
      </trkpt>
      <trkpt lat="44.32707" lon="6.85857">
        <ele>2035.4</ele>
      </trkpt>
      <trkpt lat="44.32697" lon="6.85806">
        <ele>2029.2</ele>
      </trkpt>
      <trkpt lat="44.32693" lon="6.85748">
        <ele>2020.7</ele>
      </trkpt>
      <trkpt lat="44.32699" lon="6.85711">
        <ele>2021.1</ele>
      </trkpt>
      <trkpt lat="44.327" lon="6.85709">
        <ele>2021.1</ele>
      </trkpt>
      <trkpt lat="44.32711" lon="6.85667">
        <ele>2020.9</ele>
      </trkpt>
      <trkpt lat="44.32715" lon="6.85657">
        <ele>2014.6</ele>
      </trkpt>
      <trkpt lat="44.32741" lon="6.85569">
        <ele>2011.1</ele>
      </trkpt>
      <trkpt lat="44.32747" lon="6.8553">
        <ele>2008</ele>
      </trkpt>
      <trkpt lat="44.32747" lon="6.85514">
        <ele>2009.3</ele>
      </trkpt>
      <trkpt lat="44.32746" lon="6.85506">
        <ele>2010.7</ele>
      </trkpt>
      <trkpt lat="44.32741" lon="6.85489">
        <ele>2007.9</ele>
      </trkpt>
      <trkpt lat="44.32732" lon="6.85474">
        <ele>2004.7</ele>
      </trkpt>
      <trkpt lat="44.32711" lon="6.85403">
        <ele>2002.8</ele>
      </trkpt>
      <trkpt lat="44.32705" lon="6.85391">
        <ele>2002.2</ele>
      </trkpt>
      <trkpt lat="44.32675" lon="6.85347">
        <ele>1998.6</ele>
      </trkpt>
      <trkpt lat="44.3267" lon="6.85337">
        <ele>1996.4</ele>
      </trkpt>
      <trkpt lat="44.32667" lon="6.85328">
        <ele>1996.5</ele>
      </trkpt>
      <trkpt lat="44.32666" lon="6.8532">
        <ele>1987.5</ele>
      </trkpt>
      <trkpt lat="44.32666" lon="6.8524">
        <ele>1983.2</ele>
      </trkpt>
      <trkpt lat="44.32664" lon="6.85229">
        <ele>1979.5</ele>
      </trkpt>
      <trkpt lat="44.32662" lon="6.85226">
        <ele>1978.6</ele>
      </trkpt>
      <trkpt lat="44.3266" lon="6.85225">
        <ele>1978.2</ele>
      </trkpt>
      <trkpt lat="44.32658" lon="6.85226">
        <ele>1978.1</ele>
      </trkpt>
      <trkpt lat="44.32656" lon="6.85228">
        <ele>1978.2</ele>
      </trkpt>
      <trkpt lat="44.32649" lon="6.85271">
        <ele>1980.3</ele>
      </trkpt>
      <trkpt lat="44.32636" lon="6.85311">
        <ele>1979.1</ele>
      </trkpt>
      <trkpt lat="44.32632" lon="6.85318">
        <ele>1978.6</ele>
      </trkpt>
      <trkpt lat="44.3262" lon="6.85334">
        <ele>1978</ele>
      </trkpt>
      <trkpt lat="44.32615" lon="6.85347">
        <ele>1976.9</ele>
      </trkpt>
      <trkpt lat="44.32598" lon="6.85429">
        <ele>1973.2</ele>
      </trkpt>
      <trkpt lat="44.32596" lon="6.85452">
        <ele>1974.8</ele>
      </trkpt>
      <trkpt lat="44.32603" lon="6.85487">
        <ele>1973.9</ele>
      </trkpt>
      <trkpt lat="44.32603" lon="6.85499">
        <ele>1973.2</ele>
      </trkpt>
      <trkpt lat="44.32601" lon="6.85507">
        <ele>1973.9</ele>
      </trkpt>
      <trkpt lat="44.32597" lon="6.85516">
        <ele>1974.2</ele>
      </trkpt>
      <trkpt lat="44.32592" lon="6.85522">
        <ele>1974.5</ele>
      </trkpt>
      <trkpt lat="44.32579" lon="6.85534">
        <ele>1963</ele>
      </trkpt>
      <trkpt lat="44.32563" lon="6.85544">
        <ele>1962.3</ele>
      </trkpt>
      <trkpt lat="44.3256" lon="6.85547">
        <ele>1962.2</ele>
      </trkpt>
      <trkpt lat="44.32552" lon="6.85552">
        <ele>1961.6</ele>
      </trkpt>
      <trkpt lat="44.32545" lon="6.8556">
        <ele>1961.2</ele>
      </trkpt>
      <trkpt lat="44.32527" lon="6.85577">
        <ele>1959.5</ele>
      </trkpt>
      <trkpt lat="44.32517" lon="6.85589">
        <ele>1961.9</ele>
      </trkpt>
      <trkpt lat="44.3251" lon="6.856">
        <ele>1962</ele>
      </trkpt>
      <trkpt lat="44.32499" lon="6.85633">
        <ele>1950.8</ele>
      </trkpt>
      <trkpt lat="44.32499" lon="6.85634">
        <ele>1950.9</ele>
      </trkpt>
      <trkpt lat="44.32476" lon="6.85673">
        <ele>1952.6</ele>
      </trkpt>
      <trkpt lat="44.32468" lon="6.85695">
        <ele>1950.5</ele>
      </trkpt>
      <trkpt lat="44.32465" lon="6.85701">
        <ele>1950</ele>
      </trkpt>
      <trkpt lat="44.32455" lon="6.85734">
        <ele>1948.9</ele>
      </trkpt>
      <trkpt lat="44.32431" lon="6.85798">
        <ele>1947.2</ele>
      </trkpt>
      <trkpt lat="44.32427" lon="6.85813">
        <ele>1945.3</ele>
      </trkpt>
      <trkpt lat="44.32427" lon="6.85825">
        <ele>1943.1</ele>
      </trkpt>
      <trkpt lat="44.3243" lon="6.85839">
        <ele>1944.3</ele>
      </trkpt>
      <trkpt lat="44.32432" lon="6.8586">
        <ele>1948</ele>
      </trkpt>
      <trkpt lat="44.32432" lon="6.85879">
        <ele>1948.9</ele>
      </trkpt>
      <trkpt lat="44.32431" lon="6.85881">
        <ele>1948.8</ele>
      </trkpt>
      <trkpt lat="44.3243" lon="6.85894">
        <ele>1947.8</ele>
      </trkpt>
      <trkpt lat="44.32427" lon="6.85905">
        <ele>1945.6</ele>
      </trkpt>
      <trkpt lat="44.32421" lon="6.85915">
        <ele>1941.5</ele>
      </trkpt>
      <trkpt lat="44.32404" lon="6.85931">
        <ele>1932.3</ele>
      </trkpt>
      <trkpt lat="44.32378" lon="6.85971">
        <ele>1927.8</ele>
      </trkpt>
      <trkpt lat="44.3237" lon="6.8599">
        <ele>1926.5</ele>
      </trkpt>
      <trkpt lat="44.32362" lon="6.86041">
        <ele>1930.7</ele>
      </trkpt>
      <trkpt lat="44.32361" lon="6.86063">
        <ele>1930.3</ele>
      </trkpt>
      <trkpt lat="44.32354" lon="6.86094">
        <ele>1931.7</ele>
      </trkpt>
      <trkpt lat="44.32338" lon="6.86131">
        <ele>1934.3</ele>
      </trkpt>
      <trkpt lat="44.3232" lon="6.86156">
        <ele>1919.7</ele>
      </trkpt>
      <trkpt lat="44.32315" lon="6.86161">
        <ele>1919</ele>
      </trkpt>
      <trkpt lat="44.32307" lon="6.86166">
        <ele>1916.9</ele>
      </trkpt>
      <trkpt lat="44.3228" lon="6.86177">
        <ele>1914.9</ele>
      </trkpt>
      <trkpt lat="44.32273" lon="6.86181">
        <ele>1913.9</ele>
      </trkpt>
      <trkpt lat="44.3227" lon="6.86185">
        <ele>1913.6</ele>
      </trkpt>
      <trkpt lat="44.3227" lon="6.86192">
        <ele>1914</ele>
      </trkpt>
      <trkpt lat="44.32272" lon="6.86198">
        <ele>1914.4</ele>
      </trkpt>
      <trkpt lat="44.32272" lon="6.862">
        <ele>1914.4</ele>
      </trkpt>
      <trkpt lat="44.32278" lon="6.86209">
        <ele>1915.1</ele>
      </trkpt>
      <trkpt lat="44.32296" lon="6.86231">
        <ele>1917.2</ele>
      </trkpt>
      <trkpt lat="44.32301" lon="6.86239">
        <ele>1918.1</ele>
      </trkpt>
      <trkpt lat="44.32304" lon="6.8625">
        <ele>1918.7</ele>
      </trkpt>
      <trkpt lat="44.32304" lon="6.86262">
        <ele>1917.9</ele>
      </trkpt>
      <trkpt lat="44.32299" lon="6.86282">
        <ele>1916.7</ele>
      </trkpt>
      <trkpt lat="44.32298" lon="6.86283">
        <ele>1916.5</ele>
      </trkpt>
      <trkpt lat="44.32288" lon="6.86299">
        <ele>1914.8</ele>
      </trkpt>
      <trkpt lat="44.32282" lon="6.86312">
        <ele>1913.2</ele>
      </trkpt>
      <trkpt lat="44.32278" lon="6.86328">
        <ele>1911.2</ele>
      </trkpt>
      <trkpt lat="44.32276" lon="6.86351">
        <ele>1913.2</ele>
      </trkpt>
      <trkpt lat="44.32271" lon="6.8637">
        <ele>1913.7</ele>
      </trkpt>
      <trkpt lat="44.32264" lon="6.86389">
        <ele>1912</ele>
      </trkpt>
      <trkpt lat="44.32262" lon="6.86391">
        <ele>1911.3</ele>
      </trkpt>
      <trkpt lat="44.32261" lon="6.86393">
        <ele>1910.8</ele>
      </trkpt>
      <trkpt lat="44.32258" lon="6.86394">
        <ele>1910</ele>
      </trkpt>
      <trkpt lat="44.32256" lon="6.86393">
        <ele>1909.9</ele>
      </trkpt>
      <trkpt lat="44.32254" lon="6.86391">
        <ele>1910</ele>
      </trkpt>
      <trkpt lat="44.32253" lon="6.86386">
        <ele>1910.6</ele>
      </trkpt>
      <trkpt lat="44.32253" lon="6.86337">
        <ele>1901.5</ele>
      </trkpt>
      <trkpt lat="44.3225" lon="6.86304">
        <ele>1892.2</ele>
      </trkpt>
      <trkpt lat="44.32248" lon="6.86293">
        <ele>1892.3</ele>
      </trkpt>
      <trkpt lat="44.32243" lon="6.86282">
        <ele>1893.2</ele>
      </trkpt>
      <trkpt lat="44.32239" lon="6.86276">
        <ele>1893.7</ele>
      </trkpt>
      <trkpt lat="44.32233" lon="6.8627">
        <ele>1893.8</ele>
      </trkpt>
      <trkpt lat="44.32205" lon="6.86251">
        <ele>1888.5</ele>
      </trkpt>
      <trkpt lat="44.322" lon="6.86246">
        <ele>1892.9</ele>
      </trkpt>
      <trkpt lat="44.32161" lon="6.8617">
        <ele>1881.8</ele>
      </trkpt>
      <trkpt lat="44.32158" lon="6.86159">
        <ele>1877.6</ele>
      </trkpt>
      <trkpt lat="44.32158" lon="6.86152">
        <ele>1874.4</ele>
      </trkpt>
      <trkpt lat="44.32159" lon="6.86146">
        <ele>1872.1</ele>
      </trkpt>
      <trkpt lat="44.32164" lon="6.86139">
        <ele>1870.5</ele>
      </trkpt>
      <trkpt lat="44.32183" lon="6.86124">
        <ele>1886.1</ele>
      </trkpt>
      <trkpt lat="44.3219" lon="6.8612">
        <ele>1886.3</ele>
      </trkpt>
      <trkpt lat="44.32201" lon="6.86109">
        <ele>1886.4</ele>
      </trkpt>
      <trkpt lat="44.32208" lon="6.86099">
        <ele>1886.5</ele>
      </trkpt>
      <trkpt lat="44.32218" lon="6.86071">
        <ele>1877.7</ele>
      </trkpt>
      <trkpt lat="44.32223" lon="6.86048">
        <ele>1876.2</ele>
      </trkpt>
      <trkpt lat="44.32227" lon="6.86013">
        <ele>1874.6</ele>
      </trkpt>
      <trkpt lat="44.3223" lon="6.86002">
        <ele>1874.9</ele>
      </trkpt>
      <trkpt lat="44.32236" lon="6.85992">
        <ele>1870.8</ele>
      </trkpt>
      <trkpt lat="44.32242" lon="6.85987">
        <ele>1871.3</ele>
      </trkpt>
      <trkpt lat="44.32243" lon="6.85985">
        <ele>1870.9</ele>
      </trkpt>
      <trkpt lat="44.32247" lon="6.85981">
        <ele>1870.3</ele>
      </trkpt>
      <trkpt lat="44.32249" lon="6.85975">
        <ele>1869.2</ele>
      </trkpt>
      <trkpt lat="44.32259" lon="6.85954">
        <ele>1884</ele>
      </trkpt>
      <trkpt lat="44.32261" lon="6.85951">
        <ele>1883.9</ele>
      </trkpt>
      <trkpt lat="44.32265" lon="6.85938">
        <ele>1882.2</ele>
      </trkpt>
      <trkpt lat="44.32265" lon="6.85933">
        <ele>1881</ele>
      </trkpt>
      <trkpt lat="44.32263" lon="6.85928">
        <ele>1879.1</ele>
      </trkpt>
      <trkpt lat="44.32259" lon="6.85925">
        <ele>1876.6</ele>
      </trkpt>
      <trkpt lat="44.32256" lon="6.85925">
        <ele>1875.4</ele>
      </trkpt>
      <trkpt lat="44.32252" lon="6.85926">
        <ele>1874.9</ele>
      </trkpt>
      <trkpt lat="44.32249" lon="6.8593">
        <ele>1866.4</ele>
      </trkpt>
      <trkpt lat="44.32248" lon="6.8593">
        <ele>1866.4</ele>
      </trkpt>
      <trkpt lat="44.32216" lon="6.85981">
        <ele>1865.5</ele>
      </trkpt>
      <trkpt lat="44.32198" lon="6.86004">
        <ele>1869.1</ele>
      </trkpt>
      <trkpt lat="44.32186" lon="6.86012">
        <ele>1866.7</ele>
      </trkpt>
      <trkpt lat="44.32185" lon="6.86012">
        <ele>1866.5</ele>
      </trkpt>
      <trkpt lat="44.32153" lon="6.86031">
        <ele>1854.9</ele>
      </trkpt>
      <trkpt lat="44.32146" lon="6.86039">
        <ele>1854.8</ele>
      </trkpt>
      <trkpt lat="44.32142" lon="6.86049">
        <ele>1855.1</ele>
      </trkpt>
      <trkpt lat="44.32126" lon="6.86106">
        <ele>1859.5</ele>
      </trkpt>
      <trkpt lat="44.32123" lon="6.86113">
        <ele>1859.3</ele>
      </trkpt>
      <trkpt lat="44.32116" lon="6.86121">
        <ele>1858.3</ele>
      </trkpt>
      <trkpt lat="44.32103" lon="6.86129">
        <ele>1856.1</ele>
      </trkpt>
      <trkpt lat="44.32094" lon="6.86141">
        <ele>1854.2</ele>
      </trkpt>
      <trkpt lat="44.32092" lon="6.86149">
        <ele>1852.7</ele>
      </trkpt>
      <trkpt lat="44.32091" lon="6.86159">
        <ele>1850</ele>
      </trkpt>
      <trkpt lat="44.32098" lon="6.86247">
        <ele>1844.8</ele>
      </trkpt>
      <trkpt lat="44.32098" lon="6.8627">
        <ele>1841.3</ele>
      </trkpt>
      <trkpt lat="44.32099" lon="6.86273">
        <ele>1841.8</ele>
      </trkpt>
      <trkpt lat="44.321" lon="6.86298">
        <ele>1840.7</ele>
      </trkpt>
      <trkpt lat="44.32101" lon="6.863">
        <ele>1840.6</ele>
      </trkpt>
      <trkpt lat="44.3211" lon="6.86397">
        <ele>1831.1</ele>
      </trkpt>
      <trkpt lat="44.32109" lon="6.86433">
        <ele>1829.2</ele>
      </trkpt>
      <trkpt lat="44.32106" lon="6.86452">
        <ele>1830.2</ele>
      </trkpt>
      <trkpt lat="44.321" lon="6.8647">
        <ele>1828.3</ele>
      </trkpt>
      <trkpt lat="44.32097" lon="6.86484">
        <ele>1824.8</ele>
      </trkpt>
      <trkpt lat="44.32098" lon="6.86534">
        <ele>1833.1</ele>
      </trkpt>
      <trkpt lat="44.32096" lon="6.86546">
        <ele>1833.8</ele>
      </trkpt>
      <trkpt lat="44.32094" lon="6.8655">
        <ele>1833.4</ele>
      </trkpt>
      <trkpt lat="44.32079" lon="6.86566">
        <ele>1810.4</ele>
      </trkpt>
      <trkpt lat="44.32072" lon="6.86581">
        <ele>1812.6</ele>
      </trkpt>
      <trkpt lat="44.32045" lon="6.86657">
        <ele>1808</ele>
      </trkpt>
      <trkpt lat="44.32034" lon="6.86704">
        <ele>1809.3</ele>
      </trkpt>
      <trkpt lat="44.32021" lon="6.86783">
        <ele>1809.8</ele>
      </trkpt>
      <trkpt lat="44.32018" lon="6.86834">
        <ele>1806.9</ele>
      </trkpt>
      <trkpt lat="44.32016" lon="6.8684">
        <ele>1806.3</ele>
      </trkpt>
      <trkpt lat="44.32014" lon="6.86843">
        <ele>1805.9</ele>
      </trkpt>
      <trkpt lat="44.32013" lon="6.86843">
        <ele>1805.4</ele>
      </trkpt>
      <trkpt lat="44.32012" lon="6.86844">
        <ele>1805.2</ele>
      </trkpt>
      <trkpt lat="44.3201" lon="6.86843">
        <ele>1804</ele>
      </trkpt>
      <trkpt lat="44.32008" lon="6.8684">
        <ele>1801.8</ele>
      </trkpt>
      <trkpt lat="44.32006" lon="6.86835">
        <ele>1798.8</ele>
      </trkpt>
      <trkpt lat="44.32008" lon="6.86776">
        <ele>1805.5</ele>
      </trkpt>
      <trkpt lat="44.32004" lon="6.86716">
        <ele>1802.9</ele>
      </trkpt>
      <trkpt lat="44.32005" lon="6.86675">
        <ele>1795.4</ele>
      </trkpt>
      <trkpt lat="44.32008" lon="6.86643">
        <ele>1798</ele>
      </trkpt>
      <trkpt lat="44.32005" lon="6.86634">
        <ele>1798.4</ele>
      </trkpt>
      <trkpt lat="44.32001" lon="6.86632">
        <ele>1798</ele>
      </trkpt>
      <trkpt lat="44.31999" lon="6.86632">
        <ele>1793.1</ele>
      </trkpt>
      <trkpt lat="44.31997" lon="6.86634">
        <ele>1793.1</ele>
      </trkpt>
      <trkpt lat="44.31996" lon="6.86636">
        <ele>1793.1</ele>
      </trkpt>
      <trkpt lat="44.31994" lon="6.86646">
        <ele>1792.6</ele>
      </trkpt>
      <trkpt lat="44.31994" lon="6.86655">
        <ele>1791.5</ele>
      </trkpt>
      <trkpt lat="44.31987" lon="6.86715">
        <ele>1791.4</ele>
      </trkpt>
      <trkpt lat="44.31983" lon="6.86779">
        <ele>1787.4</ele>
      </trkpt>
      <trkpt lat="44.31973" lon="6.86815">
        <ele>1786.9</ele>
      </trkpt>
      <trkpt lat="44.31969" lon="6.86838">
        <ele>1782.9</ele>
      </trkpt>
      <trkpt lat="44.31968" lon="6.86857">
        <ele>1781.9</ele>
      </trkpt>
      <trkpt lat="44.31969" lon="6.86877">
        <ele>1781.3</ele>
      </trkpt>
      <trkpt lat="44.3197" lon="6.86881">
        <ele>1781.4</ele>
      </trkpt>
      <trkpt lat="44.31959" lon="6.87029">
        <ele>1772.2</ele>
      </trkpt>
      <trkpt lat="44.31958" lon="6.87104">
        <ele>1769.9</ele>
      </trkpt>
      <trkpt lat="44.3196" lon="6.87131">
        <ele>1769.8</ele>
      </trkpt>
      <trkpt lat="44.31969" lon="6.87186">
        <ele>1768.8</ele>
      </trkpt>
      <trkpt lat="44.31969" lon="6.87201">
        <ele>1767.5</ele>
      </trkpt>
      <trkpt lat="44.31972" lon="6.87226">
        <ele>1767.3</ele>
      </trkpt>
      <trkpt lat="44.31972" lon="6.87234">
        <ele>1767.5</ele>
      </trkpt>
      <trkpt lat="44.31976" lon="6.87251">
        <ele>1765.2</ele>
      </trkpt>
      <trkpt lat="44.31981" lon="6.87298">
        <ele>1760.9</ele>
      </trkpt>
      <trkpt lat="44.31989" lon="6.87339">
        <ele>1758.8</ele>
      </trkpt>
      <trkpt lat="44.32003" lon="6.87437">
        <ele>1758.9</ele>
      </trkpt>
      <trkpt lat="44.32004" lon="6.87458">
        <ele>1759.1</ele>
      </trkpt>
      <trkpt lat="44.32008" lon="6.87479">
        <ele>1753.6</ele>
      </trkpt>
      <trkpt lat="44.32018" lon="6.87505">
        <ele>1742.9</ele>
      </trkpt>
      <trkpt lat="44.32028" lon="6.87524">
        <ele>1746.6</ele>
      </trkpt>
      <trkpt lat="44.32033" lon="6.87538">
        <ele>1747.1</ele>
      </trkpt>
      <trkpt lat="44.32051" lon="6.87614">
        <ele>1736.5</ele>
      </trkpt>
      <trkpt lat="44.32064" lon="6.87647">
        <ele>1736.4</ele>
      </trkpt>
      <trkpt lat="44.32067" lon="6.87659">
        <ele>1737.3</ele>
      </trkpt>
      <trkpt lat="44.3207" lon="6.87691">
        <ele>1729.1</ele>
      </trkpt>
      <trkpt lat="44.32076" lon="6.87714">
        <ele>1725.9</ele>
      </trkpt>
      <trkpt lat="44.32084" lon="6.8773">
        <ele>1740</ele>
      </trkpt>
      <trkpt lat="44.32096" lon="6.87749">
        <ele>1736.1</ele>
      </trkpt>
      <trkpt lat="44.32104" lon="6.87766">
        <ele>1732.7</ele>
      </trkpt>
      <trkpt lat="44.32124" lon="6.87834">
        <ele>1722.4</ele>
      </trkpt>
      <trkpt lat="44.32124" lon="6.87835">
        <ele>1722.3</ele>
      </trkpt>
      <trkpt lat="44.32141" lon="6.87879">
        <ele>1722.4</ele>
      </trkpt>
      <trkpt lat="44.32141" lon="6.8788">
        <ele>1722.3</ele>
      </trkpt>
      <trkpt lat="44.32148" lon="6.87899">
        <ele>1722.3</ele>
      </trkpt>
      <trkpt lat="44.3216" lon="6.87968">
        <ele>1707</ele>
      </trkpt>
      <trkpt lat="44.32169" lon="6.87998">
        <ele>1712.5</ele>
      </trkpt>
      <trkpt lat="44.3217" lon="6.87998">
        <ele>1713.6</ele>
      </trkpt>
      <trkpt lat="44.32179" lon="6.88019">
        <ele>1715.8</ele>
      </trkpt>
      <trkpt lat="44.32182" lon="6.88024">
        <ele>1716.6</ele>
      </trkpt>
      <trkpt lat="44.32187" lon="6.88041">
        <ele>1716.1</ele>
      </trkpt>
      <trkpt lat="44.32188" lon="6.88042">
        <ele>1716.2</ele>
      </trkpt>
      <trkpt lat="44.32196" lon="6.8809">
        <ele>1697.6</ele>
      </trkpt>
      <trkpt lat="44.32202" lon="6.88111">
        <ele>1698.8</ele>
      </trkpt>
      <trkpt lat="44.32243" lon="6.88225">
        <ele>1683.6</ele>
      </trkpt>
      <trkpt lat="44.32253" lon="6.88241">
        <ele>1693.7</ele>
      </trkpt>
      <trkpt lat="44.32256" lon="6.88243">
        <ele>1693.6</ele>
      </trkpt>
      <trkpt lat="44.32264" lon="6.88251">
        <ele>1685.9</ele>
      </trkpt>
      <trkpt lat="44.32288" lon="6.88265">
        <ele>1688.3</ele>
      </trkpt>
      <trkpt lat="44.32298" lon="6.88273">
        <ele>1689.1</ele>
      </trkpt>
      <trkpt lat="44.32303" lon="6.88279">
        <ele>1689</ele>
      </trkpt>
      <trkpt lat="44.32325" lon="6.88314">
        <ele>1684.4</ele>
      </trkpt>
      <trkpt lat="44.32345" lon="6.88336">
        <ele>1683.2</ele>
      </trkpt>
      <trkpt lat="44.32353" lon="6.88351">
        <ele>1684.6</ele>
      </trkpt>
      <trkpt lat="44.32356" lon="6.88366">
        <ele>1684.7</ele>
      </trkpt>
      <trkpt lat="44.32357" lon="6.88417">
        <ele>1680.5</ele>
      </trkpt>
      <trkpt lat="44.32349" lon="6.88441">
        <ele>1680.9</ele>
      </trkpt>
      <trkpt lat="44.3221" lon="6.88644">
        <ele>1659.5</ele>
      </trkpt>
      <trkpt lat="44.32208" lon="6.88646">
        <ele>1659.3</ele>
      </trkpt>
      <trkpt lat="44.32201" lon="6.88659">
        <ele>1658.6</ele>
      </trkpt>
      <trkpt lat="44.3218" lon="6.88691">
        <ele>1665</ele>
      </trkpt>
      <trkpt lat="44.32153" lon="6.8875">
        <ele>1662.1</ele>
      </trkpt>
      <trkpt lat="44.32133" lon="6.88804">
        <ele>1659.6</ele>
      </trkpt>
      <trkpt lat="44.32133" lon="6.88805">
        <ele>1659.7</ele>
      </trkpt>
      <trkpt lat="44.32103" lon="6.88874">
        <ele>1662.6</ele>
      </trkpt>
      <trkpt lat="44.3208" lon="6.88934">
        <ele>1648</ele>
      </trkpt>
      <trkpt lat="44.32068" lon="6.88957">
        <ele>1646</ele>
      </trkpt>
      <trkpt lat="44.3206" lon="6.88991">
        <ele>1648.3</ele>
      </trkpt>
      <trkpt lat="44.32061" lon="6.89027">
        <ele>1648.5</ele>
      </trkpt>
      <trkpt lat="44.32042" lon="6.89182">
        <ele>1647.3</ele>
      </trkpt>
      <trkpt lat="44.32037" lon="6.89255">
        <ele>1655.4</ele>
      </trkpt>
      <trkpt lat="44.32034" lon="6.89274">
        <ele>1655.8</ele>
      </trkpt>
      <trkpt lat="44.3203" lon="6.89288">
        <ele>1656</ele>
      </trkpt>
      <trkpt lat="44.32003" lon="6.89345">
        <ele>1652.2</ele>
      </trkpt>
      <trkpt lat="44.31997" lon="6.89361">
        <ele>1631.6</ele>
      </trkpt>
      <trkpt lat="44.31996" lon="6.89366">
        <ele>1631.7</ele>
      </trkpt>
      <trkpt lat="44.31988" lon="6.8938">
        <ele>1632.6</ele>
      </trkpt>
      <trkpt lat="44.31964" lon="6.89397">
        <ele>1628.4</ele>
      </trkpt>
      <trkpt lat="44.3196" lon="6.89402">
        <ele>1627.2</ele>
      </trkpt>
      <trkpt lat="44.31942" lon="6.89463">
        <ele>1634.7</ele>
      </trkpt>
      <trkpt lat="44.31932" lon="6.89483">
        <ele>1630.2</ele>
      </trkpt>
      <trkpt lat="44.31932" lon="6.89484">
        <ele>1630</ele>
      </trkpt>
      <trkpt lat="44.31914" lon="6.89511">
        <ele>1612.2</ele>
      </trkpt>
      <trkpt lat="44.31897" lon="6.89547">
        <ele>1611.2</ele>
      </trkpt>
      <trkpt lat="44.31887" lon="6.89582">
        <ele>1613.3</ele>
      </trkpt>
      <trkpt lat="44.3187" lon="6.89687">
        <ele>1627.5</ele>
      </trkpt>
      <trkpt lat="44.31864" lon="6.89704">
        <ele>1627.8</ele>
      </trkpt>
      <trkpt lat="44.31861" lon="6.89709">
        <ele>1627.5</ele>
      </trkpt>
      <trkpt lat="44.31809" lon="6.89774">
        <ele>1607.1</ele>
      </trkpt>
      <trkpt lat="44.31783" lon="6.89822">
        <ele>1604.3</ele>
      </trkpt>
      <trkpt lat="44.31769" lon="6.89859">
        <ele>1612.4</ele>
      </trkpt>
      <trkpt lat="44.31761" lon="6.89874">
        <ele>1613.4</ele>
      </trkpt>
      <trkpt lat="44.31743" lon="6.89899">
        <ele>1594.6</ele>
      </trkpt>
      <trkpt lat="44.31701" lon="6.89951">
        <ele>1601.1</ele>
      </trkpt>
      <trkpt lat="44.31691" lon="6.8996">
        <ele>1600.9</ele>
      </trkpt>
      <trkpt lat="44.3163" lon="6.89995">
        <ele>1583.8</ele>
      </trkpt>
      <trkpt lat="44.31615" lon="6.90014">
        <ele>1596.8</ele>
      </trkpt>
      <trkpt lat="44.31606" lon="6.90022">
        <ele>1596.2</ele>
      </trkpt>
      <trkpt lat="44.3157" lon="6.90042">
        <ele>1587.2</ele>
      </trkpt>
      <trkpt lat="44.31564" lon="6.90044">
        <ele>1587.5</ele>
      </trkpt>
      <trkpt lat="44.31542" lon="6.90045">
        <ele>1586</ele>
      </trkpt>
      <trkpt lat="44.31538" lon="6.90046">
        <ele>1585.9</ele>
      </trkpt>
      <trkpt lat="44.3152" lon="6.90047">
        <ele>1585.1</ele>
      </trkpt>
      <trkpt lat="44.31486" lon="6.90056">
        <ele>1579.5</ele>
      </trkpt>
      <trkpt lat="44.31485" lon="6.90056">
        <ele>1579.4</ele>
      </trkpt>
      <trkpt lat="44.31458" lon="6.90064">
        <ele>1577.4</ele>
      </trkpt>
      <trkpt lat="44.31451" lon="6.90072">
        <ele>1577.7</ele>
      </trkpt>
      <trkpt lat="44.31451" lon="6.90073">
        <ele>1577.8</ele>
      </trkpt>
      <trkpt lat="44.3144" lon="6.90084">
        <ele>1598.4</ele>
      </trkpt>
      <trkpt lat="44.31433" lon="6.90089">
        <ele>1595.8</ele>
      </trkpt>
      <trkpt lat="44.31421" lon="6.90092">
        <ele>1590.6</ele>
      </trkpt>
      <trkpt lat="44.31372" lon="6.9009">
        <ele>1594.7</ele>
      </trkpt>
      <trkpt lat="44.31352" lon="6.90086">
        <ele>1590.6</ele>
      </trkpt>
      <trkpt lat="44.31263" lon="6.90049">
        <ele>1570.7</ele>
      </trkpt>
      <trkpt lat="44.31232" lon="6.9004">
        <ele>1566.9</ele>
      </trkpt>
      <trkpt lat="44.3123" lon="6.9004">
        <ele>1566.8</ele>
      </trkpt>
      <trkpt lat="44.31226" lon="6.90041">
        <ele>1566.7</ele>
      </trkpt>
      <trkpt lat="44.31203" lon="6.90058">
        <ele>1567</ele>
      </trkpt>
      <trkpt lat="44.3119" lon="6.90063">
        <ele>1566.7</ele>
      </trkpt>
      <trkpt lat="44.3117" lon="6.90068">
        <ele>1566.7</ele>
      </trkpt>
      <trkpt lat="44.31151" lon="6.90071">
        <ele>1561.9</ele>
      </trkpt>
      <trkpt lat="44.3114" lon="6.90074">
        <ele>1560.4</ele>
      </trkpt>
      <trkpt lat="44.31132" lon="6.90075">
        <ele>1559.2</ele>
      </trkpt>
      <trkpt lat="44.31109" lon="6.9009">
        <ele>1566.7</ele>
      </trkpt>
      <trkpt lat="44.311" lon="6.90093">
        <ele>1563.7</ele>
      </trkpt>
      <trkpt lat="44.31097" lon="6.90095">
        <ele>1563.2</ele>
      </trkpt>
      <trkpt lat="44.31073" lon="6.90091">
        <ele>1553.4</ele>
      </trkpt>
      <trkpt lat="44.31067" lon="6.90091">
        <ele>1554.6</ele>
      </trkpt>
      <trkpt lat="44.3104" lon="6.90097">
        <ele>1557</ele>
      </trkpt>
      <trkpt lat="44.3101" lon="6.9011">
        <ele>1556.8</ele>
      </trkpt>
      <trkpt lat="44.3094" lon="6.90162">
        <ele>1549</ele>
      </trkpt>
      <trkpt lat="44.3094" lon="6.90163">
        <ele>1549</ele>
      </trkpt>
      <trkpt lat="44.30894" lon="6.90194">
        <ele>1546.3</ele>
      </trkpt>
      <trkpt lat="44.30881" lon="6.90199">
        <ele>1546.1</ele>
      </trkpt>
      <trkpt lat="44.30874" lon="6.90199">
        <ele>1545.6</ele>
      </trkpt>
      <trkpt lat="44.30847" lon="6.90202">
        <ele>1543.6</ele>
      </trkpt>
      <trkpt lat="44.30835" lon="6.90207">
        <ele>1543.3</ele>
      </trkpt>
      <trkpt lat="44.30799" lon="6.9023">
        <ele>1531.9</ele>
      </trkpt>
      <trkpt lat="44.30766" lon="6.90245">
        <ele>1526.8</ele>
      </trkpt>
      <trkpt lat="44.30745" lon="6.90248">
        <ele>1522</ele>
      </trkpt>
      <trkpt lat="44.3074" lon="6.90248">
        <ele>1522</ele>
      </trkpt>
      <trkpt lat="44.30736" lon="6.90249">
        <ele>1521.9</ele>
      </trkpt>
      <trkpt lat="44.30727" lon="6.90255">
        <ele>1522.9</ele>
      </trkpt>
      <trkpt lat="44.30709" lon="6.9028">
        <ele>1523.5</ele>
      </trkpt>
      <trkpt lat="44.30699" lon="6.9029">
        <ele>1523.5</ele>
      </trkpt>
      <trkpt lat="44.30686" lon="6.90295">
        <ele>1522.8</ele>
      </trkpt>
      <trkpt lat="44.30649" lon="6.90304">
        <ele>1511.6</ele>
      </trkpt>
      <trkpt lat="44.30635" lon="6.90309">
        <ele>1510.1</ele>
      </trkpt>
      <trkpt lat="44.30625" lon="6.90315">
        <ele>1508.6</ele>
      </trkpt>
      <trkpt lat="44.30617" lon="6.90324">
        <ele>1507</ele>
      </trkpt>
      <trkpt lat="44.3061" lon="6.90343">
        <ele>1509.7</ele>
      </trkpt>
      <trkpt lat="44.30578" lon="6.90452">
        <ele>1507.4</ele>
      </trkpt>
      <trkpt lat="44.30576" lon="6.90463">
        <ele>1508.7</ele>
      </trkpt>
      <trkpt lat="44.30574" lon="6.90491">
        <ele>1513.5</ele>
      </trkpt>
      <trkpt lat="44.30571" lon="6.905">
        <ele>1522.4</ele>
      </trkpt>
      <trkpt lat="44.30569" lon="6.90502">
        <ele>1522.9</ele>
      </trkpt>
      <trkpt lat="44.30567" lon="6.90503">
        <ele>1523.4</ele>
      </trkpt>
      <trkpt lat="44.30564" lon="6.90503">
        <ele>1523.9</ele>
      </trkpt>
      <trkpt lat="44.30563" lon="6.90502">
        <ele>1524</ele>
      </trkpt>
      <trkpt lat="44.30562" lon="6.90502">
        <ele>1524.2</ele>
      </trkpt>
      <trkpt lat="44.3056" lon="6.90501">
        <ele>1524.4</ele>
      </trkpt>
      <trkpt lat="44.30559" lon="6.905">
        <ele>1524.5</ele>
      </trkpt>
      <trkpt lat="44.3056" lon="6.90481">
        <ele>1510</ele>
      </trkpt>
      <trkpt lat="44.30564" lon="6.90463">
        <ele>1508</ele>
      </trkpt>
      <trkpt lat="44.30564" lon="6.90456">
        <ele>1507.2</ele>
      </trkpt>
      <trkpt lat="44.30565" lon="6.9045">
        <ele>1506.7</ele>
      </trkpt>
      <trkpt lat="44.30564" lon="6.90398">
        <ele>1495.7</ele>
      </trkpt>
      <trkpt lat="44.30563" lon="6.90389">
        <ele>1494.4</ele>
      </trkpt>
      <trkpt lat="44.30563" lon="6.90371">
        <ele>1492.7</ele>
      </trkpt>
      <trkpt lat="44.30572" lon="6.90333">
        <ele>1495.2</ele>
      </trkpt>
      <trkpt lat="44.3057" lon="6.90325">
        <ele>1495.2</ele>
      </trkpt>
      <trkpt lat="44.30568" lon="6.90323">
        <ele>1495.1</ele>
      </trkpt>
      <trkpt lat="44.30564" lon="6.90323">
        <ele>1494.8</ele>
      </trkpt>
      <trkpt lat="44.30563" lon="6.90325">
        <ele>1494.7</ele>
      </trkpt>
      <trkpt lat="44.30561" lon="6.90327">
        <ele>1494.4</ele>
      </trkpt>
      <trkpt lat="44.30558" lon="6.90342">
        <ele>1491.5</ele>
      </trkpt>
      <trkpt lat="44.30541" lon="6.90383">
        <ele>1490.9</ele>
      </trkpt>
      <trkpt lat="44.30539" lon="6.90391">
        <ele>1491</ele>
      </trkpt>
      <trkpt lat="44.30538" lon="6.90426">
        <ele>1501.9</ele>
      </trkpt>
      <trkpt lat="44.30541" lon="6.90444">
        <ele>1504.2</ele>
      </trkpt>
      <trkpt lat="44.30541" lon="6.9045">
        <ele>1504.9</ele>
      </trkpt>
      <trkpt lat="44.3054" lon="6.90456">
        <ele>1505.6</ele>
      </trkpt>
      <trkpt lat="44.30538" lon="6.9046">
        <ele>1506</ele>
      </trkpt>
      <trkpt lat="44.30534" lon="6.90465">
        <ele>1506.4</ele>
      </trkpt>
      <trkpt lat="44.30525" lon="6.90471">
        <ele>1507</ele>
      </trkpt>
      <trkpt lat="44.30518" lon="6.90468">
        <ele>1506.3</ele>
      </trkpt>
      <trkpt lat="44.30506" lon="6.90459">
        <ele>1504.1</ele>
      </trkpt>
      <trkpt lat="44.30492" lon="6.90444">
        <ele>1500.5</ele>
      </trkpt>
      <trkpt lat="44.30462" lon="6.90403">
        <ele>1483.9</ele>
      </trkpt>
      <trkpt lat="44.30445" lon="6.90387">
        <ele>1483.4</ele>
      </trkpt>
      <trkpt lat="44.30413" lon="6.90364">
        <ele>1481.3</ele>
      </trkpt>
      <trkpt lat="44.3041" lon="6.90361">
        <ele>1480.6</ele>
      </trkpt>
      <trkpt lat="44.30393" lon="6.9035">
        <ele>1479.7</ele>
      </trkpt>
      <trkpt lat="44.3038" lon="6.90347">
        <ele>1480.3</ele>
      </trkpt>
      <trkpt lat="44.30351" lon="6.90344">
        <ele>1478.8</ele>
      </trkpt>
      <trkpt lat="44.30336" lon="6.90338">
        <ele>1474.5</ele>
      </trkpt>
      <trkpt lat="44.30319" lon="6.90329">
        <ele>1470.6</ele>
      </trkpt>
      <trkpt lat="44.30299" lon="6.90324">
        <ele>1469.3</ele>
      </trkpt>
      <trkpt lat="44.30281" lon="6.90324">
        <ele>1468.2</ele>
      </trkpt>
      <trkpt lat="44.30258" lon="6.90333">
        <ele>1466.7</ele>
      </trkpt>
      <trkpt lat="44.30257" lon="6.90333">
        <ele>1466.6</ele>
      </trkpt>
      <trkpt lat="44.30231" lon="6.9034">
        <ele>1475.3</ele>
      </trkpt>
      <trkpt lat="44.30208" lon="6.9034">
        <ele>1476.6</ele>
      </trkpt>
      <trkpt lat="44.30179" lon="6.90336">
        <ele>1467.2</ele>
      </trkpt>
      <trkpt lat="44.3015" lon="6.90326">
        <ele>1457.6</ele>
      </trkpt>
      <trkpt lat="44.30149" lon="6.90326">
        <ele>1457.7</ele>
      </trkpt>
      <trkpt lat="44.30143" lon="6.90319">
        <ele>1458.1</ele>
      </trkpt>
      <trkpt lat="44.30142" lon="6.90319">
        <ele>1458.2</ele>
      </trkpt>
      <trkpt lat="44.30132" lon="6.90298">
        <ele>1457.9</ele>
      </trkpt>
      <trkpt lat="44.30122" lon="6.90269">
        <ele>1455.9</ele>
      </trkpt>
      <trkpt lat="44.30121" lon="6.90264">
        <ele>1455.5</ele>
      </trkpt>
      <trkpt lat="44.30118" lon="6.90259">
        <ele>1455.1</ele>
      </trkpt>
      <trkpt lat="44.30108" lon="6.9025">
        <ele>1457.6</ele>
      </trkpt>
      <trkpt lat="44.30099" lon="6.90245">
        <ele>1456</ele>
      </trkpt>
      <trkpt lat="44.30098" lon="6.90245">
        <ele>1455.7</ele>
      </trkpt>
      <trkpt lat="44.30092" lon="6.90242">
        <ele>1454.5</ele>
      </trkpt>
      <trkpt lat="44.30071" lon="6.90235">
        <ele>1453.5</ele>
      </trkpt>
      <trkpt lat="44.30059" lon="6.90227">
        <ele>1455.3</ele>
      </trkpt>
      <trkpt lat="44.30047" lon="6.90222">
        <ele>1455.7</ele>
      </trkpt>
      <trkpt lat="44.3003" lon="6.90212">
        <ele>1455.9</ele>
      </trkpt>
      <trkpt lat="44.29998" lon="6.90189">
        <ele>1451.6</ele>
      </trkpt>
      <trkpt lat="44.29986" lon="6.90183">
        <ele>1451.9</ele>
      </trkpt>
      <trkpt lat="44.29977" lon="6.90183">
        <ele>1450.5</ele>
      </trkpt>
      <trkpt lat="44.29928" lon="6.90195">
        <ele>1446</ele>
      </trkpt>
      <trkpt lat="44.29919" lon="6.90195">
        <ele>1445.9</ele>
      </trkpt>
      <trkpt lat="44.29904" lon="6.90191">
        <ele>1440.2</ele>
      </trkpt>
      <trkpt lat="44.29878" lon="6.90177">
        <ele>1438.6</ele>
      </trkpt>
      <trkpt lat="44.29854" lon="6.90169">
        <ele>1437</ele>
      </trkpt>
      <trkpt lat="44.29835" lon="6.90168">
        <ele>1436.9</ele>
      </trkpt>
      <trkpt lat="44.29805" lon="6.9016">
        <ele>1452.5</ele>
      </trkpt>
      <trkpt lat="44.29788" lon="6.90157">
        <ele>1453.6</ele>
      </trkpt>
      <trkpt lat="44.29784" lon="6.90157">
        <ele>1453.2</ele>
      </trkpt>
      <trkpt lat="44.29766" lon="6.9016">
        <ele>1447.6</ele>
      </trkpt>
      <trkpt lat="44.29752" lon="6.90161">
        <ele>1440.2</ele>
      </trkpt>
      <trkpt lat="44.2974" lon="6.90159">
        <ele>1444</ele>
      </trkpt>
      <trkpt lat="44.29716" lon="6.90159">
        <ele>1450.1</ele>
      </trkpt>
      <trkpt lat="44.29691" lon="6.90161">
        <ele>1447</ele>
      </trkpt>
      <trkpt lat="44.2968" lon="6.90164">
        <ele>1441.5</ele>
      </trkpt>
      <trkpt lat="44.29663" lon="6.90173">
        <ele>1426.5</ele>
      </trkpt>
      <trkpt lat="44.29654" lon="6.90173">
        <ele>1424.9</ele>
      </trkpt>
      <trkpt lat="44.29628" lon="6.90164">
        <ele>1456</ele>
      </trkpt>
      <trkpt lat="44.29627" lon="6.90163">
        <ele>1456.3</ele>
      </trkpt>
      <trkpt lat="44.29609" lon="6.90166">
        <ele>1455.3</ele>
      </trkpt>
      <trkpt lat="44.296" lon="6.90171">
        <ele>1428.8</ele>
      </trkpt>
      <trkpt lat="44.29591" lon="6.90174">
        <ele>1431.5</ele>
      </trkpt>
      <trkpt lat="44.29576" lon="6.90169">
        <ele>1434.5</ele>
      </trkpt>
      <trkpt lat="44.29569" lon="6.90169">
        <ele>1432</ele>
      </trkpt>
      <trkpt lat="44.29558" lon="6.90174">
        <ele>1429.1</ele>
      </trkpt>
      <trkpt lat="44.29524" lon="6.90185">
        <ele>1429</ele>
      </trkpt>
      <trkpt lat="44.29505" lon="6.90184">
        <ele>1433.1</ele>
      </trkpt>
      <trkpt lat="44.29478" lon="6.90176">
        <ele>1429.5</ele>
      </trkpt>
      <trkpt lat="44.29372" lon="6.90176">
        <ele>1409.7</ele>
      </trkpt>
      <trkpt lat="44.29355" lon="6.90172">
        <ele>1408.5</ele>
      </trkpt>
      <trkpt lat="44.29339" lon="6.90171">
        <ele>1408.5</ele>
      </trkpt>
      <trkpt lat="44.29327" lon="6.90169">
        <ele>1405.6</ele>
      </trkpt>
      <trkpt lat="44.29315" lon="6.90162">
        <ele>1415.5</ele>
      </trkpt>
      <trkpt lat="44.2931" lon="6.90158">
        <ele>1416.6</ele>
      </trkpt>
      <trkpt lat="44.29294" lon="6.9015">
        <ele>1417.2</ele>
      </trkpt>
      <trkpt lat="44.29293" lon="6.9015">
        <ele>1417.1</ele>
      </trkpt>
      <trkpt lat="44.29265" lon="6.90138">
        <ele>1415.2</ele>
      </trkpt>
      <trkpt lat="44.29259" lon="6.90134">
        <ele>1416.1</ele>
      </trkpt>
      <trkpt lat="44.29249" lon="6.90135">
        <ele>1402.4</ele>
      </trkpt>
      <trkpt lat="44.29232" lon="6.90133">
        <ele>1402.3</ele>
      </trkpt>
      <trkpt lat="44.29228" lon="6.90129">
        <ele>1403.2</ele>
      </trkpt>
      <trkpt lat="44.29228" lon="6.90128">
        <ele>1403.5</ele>
      </trkpt>
      <trkpt lat="44.29222" lon="6.90112">
        <ele>1407.2</ele>
      </trkpt>
      <trkpt lat="44.29218" lon="6.9011">
        <ele>1407</ele>
      </trkpt>
      <trkpt lat="44.2917" lon="6.90109">
        <ele>1402.2</ele>
      </trkpt>
      <trkpt lat="44.29164" lon="6.9011">
        <ele>1390</ele>
      </trkpt>
      <trkpt lat="44.29131" lon="6.90107">
        <ele>1384.9</ele>
      </trkpt>
      <trkpt lat="44.29106" lon="6.90095">
        <ele>1381</ele>
      </trkpt>
      <trkpt lat="44.29082" lon="6.90068">
        <ele>1376.7</ele>
      </trkpt>
      <trkpt lat="44.29074" lon="6.90055">
        <ele>1377.8</ele>
      </trkpt>
      <trkpt lat="44.29073" lon="6.90052">
        <ele>1378.2</ele>
      </trkpt>
      <trkpt lat="44.29073" lon="6.90015">
        <ele>1388.6</ele>
      </trkpt>
      <trkpt lat="44.2907" lon="6.89999">
        <ele>1404.5</ele>
      </trkpt>
      <trkpt lat="44.29067" lon="6.89994">
        <ele>1405.1</ele>
      </trkpt>
      <trkpt lat="44.29063" lon="6.8999">
        <ele>1405.6</ele>
      </trkpt>
      <trkpt lat="44.29056" lon="6.89987">
        <ele>1405.7</ele>
      </trkpt>
      <trkpt lat="44.29051" lon="6.89988">
        <ele>1405</ele>
      </trkpt>
      <trkpt lat="44.29047" lon="6.89988">
        <ele>1404.4</ele>
      </trkpt>
      <trkpt lat="44.29038" lon="6.89992">
        <ele>1402</ele>
      </trkpt>
      <trkpt lat="44.29037" lon="6.89992">
        <ele>1401.7</ele>
      </trkpt>
      <trkpt lat="44.29024" lon="6.89996">
        <ele>1396.4</ele>
      </trkpt>
      <trkpt lat="44.29015" lon="6.9">
        <ele>1376.7</ele>
      </trkpt>
      <trkpt lat="44.29004" lon="6.90003">
        <ele>1376</ele>
      </trkpt>
      <trkpt lat="44.28993" lon="6.90004">
        <ele>1371.7</ele>
      </trkpt>
      <trkpt lat="44.28984" lon="6.90003">
        <ele>1368.8</ele>
      </trkpt>
      <trkpt lat="44.28977" lon="6.9">
        <ele>1367.1</ele>
      </trkpt>
      <trkpt lat="44.28973" lon="6.89997">
        <ele>1381.7</ele>
      </trkpt>
      <trkpt lat="44.28962" lon="6.89983">
        <ele>1383</ele>
      </trkpt>
      <trkpt lat="44.28945" lon="6.89974">
        <ele>1382.3</ele>
      </trkpt>
      <trkpt lat="44.28938" lon="6.89967">
        <ele>1383.2</ele>
      </trkpt>
      <trkpt lat="44.28937" lon="6.89967">
        <ele>1383.1</ele>
      </trkpt>
      <trkpt lat="44.28932" lon="6.89964">
        <ele>1383.4</ele>
      </trkpt>
      <trkpt lat="44.28927" lon="6.89964">
        <ele>1382.9</ele>
      </trkpt>
      <trkpt lat="44.2892" lon="6.89962">
        <ele>1383.1</ele>
      </trkpt>
      <trkpt lat="44.289" lon="6.89946">
        <ele>1378.2</ele>
      </trkpt>
      <trkpt lat="44.28891" lon="6.89943">
        <ele>1377.9</ele>
      </trkpt>
      <trkpt lat="44.28888" lon="6.89943">
        <ele>1377.5</ele>
      </trkpt>
      <trkpt lat="44.28887" lon="6.89944">
        <ele>1377.1</ele>
      </trkpt>
      <trkpt lat="44.28877" lon="6.89949">
        <ele>1375</ele>
      </trkpt>
      <trkpt lat="44.28871" lon="6.89954">
        <ele>1373.6</ele>
      </trkpt>
      <trkpt lat="44.28867" lon="6.89956">
        <ele>1373</ele>
      </trkpt>
      <trkpt lat="44.28863" lon="6.89959">
        <ele>1372.2</ele>
      </trkpt>
      <trkpt lat="44.28854" lon="6.89962">
        <ele>1371</ele>
      </trkpt>
      <trkpt lat="44.28847" lon="6.89962">
        <ele>1370.6</ele>
      </trkpt>
      <trkpt lat="44.28831" lon="6.89958">
        <ele>1365.4</ele>
      </trkpt>
      <trkpt lat="44.2882" lon="6.89953">
        <ele>1366.2</ele>
      </trkpt>
      <trkpt lat="44.28815" lon="6.89949">
        <ele>1366.8</ele>
      </trkpt>
      <trkpt lat="44.28799" lon="6.89932">
        <ele>1367.8</ele>
      </trkpt>
      <trkpt lat="44.2879" lon="6.89929">
        <ele>1367.1</ele>
      </trkpt>
      <trkpt lat="44.28781" lon="6.89932">
        <ele>1366.1</ele>
      </trkpt>
      <trkpt lat="44.28757" lon="6.89946">
        <ele>1364.1</ele>
      </trkpt>
      <trkpt lat="44.28754" lon="6.89947">
        <ele>1363.9</ele>
      </trkpt>
      <trkpt lat="44.28732" lon="6.89947">
        <ele>1355.6</ele>
      </trkpt>
      <trkpt lat="44.28725" lon="6.89945">
        <ele>1355.1</ele>
      </trkpt>
      <trkpt lat="44.2872" lon="6.89941">
        <ele>1355</ele>
      </trkpt>
      <trkpt lat="44.2872" lon="6.8994">
        <ele>1355.1</ele>
      </trkpt>
      <trkpt lat="44.28712" lon="6.8993">
        <ele>1354.9</ele>
      </trkpt>
      <trkpt lat="44.28706" lon="6.89927">
        <ele>1354.3</ele>
      </trkpt>
      <trkpt lat="44.28691" lon="6.89925">
        <ele>1352.9</ele>
      </trkpt>
      <trkpt lat="44.28687" lon="6.89928">
        <ele>1352.5</ele>
      </trkpt>
      <trkpt lat="44.2868" lon="6.89945">
        <ele>1351.1</ele>
      </trkpt>
      <trkpt lat="44.28668" lon="6.9001">
        <ele>1345.8</ele>
      </trkpt>
      <trkpt lat="44.28668" lon="6.90013">
        <ele>1347.8</ele>
      </trkpt>
      <trkpt lat="44.28663" lon="6.90026">
        <ele>1347.6</ele>
      </trkpt>
      <trkpt lat="44.28656" lon="6.90034">
        <ele>1350.2</ele>
      </trkpt>
      <trkpt lat="44.28655" lon="6.90034">
        <ele>1350.2</ele>
      </trkpt>
      <trkpt lat="44.28647" lon="6.9004">
        <ele>1351.7</ele>
      </trkpt>
      <trkpt lat="44.2864" lon="6.90044">
        <ele>1352.2</ele>
      </trkpt>
      <trkpt lat="44.28639" lon="6.90044">
        <ele>1352.1</ele>
      </trkpt>
      <trkpt lat="44.28632" lon="6.90046">
        <ele>1351.9</ele>
      </trkpt>
      <trkpt lat="44.28627" lon="6.90046">
        <ele>1351.4</ele>
      </trkpt>
      <trkpt lat="44.28615" lon="6.90044">
        <ele>1349.9</ele>
      </trkpt>
      <trkpt lat="44.28608" lon="6.90044">
        <ele>1349.3</ele>
      </trkpt>
      <trkpt lat="44.28601" lon="6.90045">
        <ele>1349.1</ele>
      </trkpt>
      <trkpt lat="44.28585" lon="6.90055">
        <ele>1351.1</ele>
      </trkpt>
      <trkpt lat="44.28578" lon="6.90057">
        <ele>1341.5</ele>
      </trkpt>
      <trkpt lat="44.28569" lon="6.90057">
        <ele>1340.3</ele>
      </trkpt>
      <trkpt lat="44.2855" lon="6.90051">
        <ele>1335.8</ele>
      </trkpt>
      <trkpt lat="44.28545" lon="6.90051">
        <ele>1335.1</ele>
      </trkpt>
      <trkpt lat="44.28536" lon="6.90053">
        <ele>1334.2</ele>
      </trkpt>
      <trkpt lat="44.28534" lon="6.90055">
        <ele>1334.2</ele>
      </trkpt>
      <trkpt lat="44.28527" lon="6.90059">
        <ele>1333.8</ele>
      </trkpt>
      <trkpt lat="44.28518" lon="6.90066">
        <ele>1333.6</ele>
      </trkpt>
      <trkpt lat="44.28517" lon="6.90066">
        <ele>1333.5</ele>
      </trkpt>
      <trkpt lat="44.28502" lon="6.90079">
        <ele>1333.1</ele>
      </trkpt>
      <trkpt lat="44.285" lon="6.9008">
        <ele>1331.5</ele>
      </trkpt>
      <trkpt lat="44.28488" lon="6.90091">
        <ele>1335</ele>
      </trkpt>
      <trkpt lat="44.28448" lon="6.9012">
        <ele>1334.8</ele>
      </trkpt>
      <trkpt lat="44.28411" lon="6.9014">
        <ele>1324.5</ele>
      </trkpt>
      <trkpt lat="44.28399" lon="6.90148">
        <ele>1324.8</ele>
      </trkpt>
      <trkpt lat="44.28383" lon="6.90163">
        <ele>1323.4</ele>
      </trkpt>
      <trkpt lat="44.28357" lon="6.90201">
        <ele>1338.7</ele>
      </trkpt>
      <trkpt lat="44.28347" lon="6.90207">
        <ele>1339</ele>
      </trkpt>
      <trkpt lat="44.2831" lon="6.90206">
        <ele>1322.5</ele>
      </trkpt>
      <trkpt lat="44.28298" lon="6.90208">
        <ele>1321.8</ele>
      </trkpt>
      <trkpt lat="44.28288" lon="6.90212">
        <ele>1321.2</ele>
      </trkpt>
      <trkpt lat="44.28277" lon="6.90218">
        <ele>1320.2</ele>
      </trkpt>
      <trkpt lat="44.28271" lon="6.90223">
        <ele>1319.6</ele>
      </trkpt>
      <trkpt lat="44.28269" lon="6.90224">
        <ele>1319.3</ele>
      </trkpt>
      <trkpt lat="44.28262" lon="6.90231">
        <ele>1318</ele>
      </trkpt>
      <trkpt lat="44.28242" lon="6.90256">
        <ele>1316</ele>
      </trkpt>
      <trkpt lat="44.2824" lon="6.90256">
        <ele>1316.5</ele>
      </trkpt>
      <trkpt lat="44.28229" lon="6.90269">
        <ele>1320.2</ele>
      </trkpt>
      <trkpt lat="44.28228" lon="6.90269">
        <ele>1320.3</ele>
      </trkpt>
      <trkpt lat="44.28216" lon="6.90282">
        <ele>1322.2</ele>
      </trkpt>
      <trkpt lat="44.28131" lon="6.90345">
        <ele>1316.9</ele>
      </trkpt>
      <trkpt lat="44.2809" lon="6.90364">
        <ele>1311.5</ele>
      </trkpt>
      <trkpt lat="44.28078" lon="6.90371">
        <ele>1304.8</ele>
      </trkpt>
      <trkpt lat="44.28065" lon="6.90382">
        <ele>1306.5</ele>
      </trkpt>
      <trkpt lat="44.28041" lon="6.90418">
        <ele>1310.9</ele>
      </trkpt>
      <trkpt lat="44.28033" lon="6.90433">
        <ele>1310.5</ele>
      </trkpt>
      <trkpt lat="44.27996" lon="6.90492">
        <ele>1300.6</ele>
      </trkpt>
      <trkpt lat="44.27995" lon="6.90493">
        <ele>1300.5</ele>
      </trkpt>
      <trkpt lat="44.27994" lon="6.90496">
        <ele>1300</ele>
      </trkpt>
      <trkpt lat="44.27973" lon="6.90531">
        <ele>1303</ele>
      </trkpt>
      <trkpt lat="44.27957" lon="6.9057">
        <ele>1302.8</ele>
      </trkpt>
      <trkpt lat="44.27952" lon="6.90593">
        <ele>1304.4</ele>
      </trkpt>
      <trkpt lat="44.27952" lon="6.90595">
        <ele>1304.5</ele>
      </trkpt>
      <trkpt lat="44.27945" lon="6.9062">
        <ele>1304.2</ele>
      </trkpt>
      <trkpt lat="44.27945" lon="6.90623">
        <ele>1304.3</ele>
      </trkpt>
      <trkpt lat="44.27933" lon="6.90652">
        <ele>1298.9</ele>
      </trkpt>
      <trkpt lat="44.27933" lon="6.90653">
        <ele>1298.7</ele>
      </trkpt>
      <trkpt lat="44.27928" lon="6.90666">
        <ele>1293.9</ele>
      </trkpt>
      <trkpt lat="44.27927" lon="6.90667">
        <ele>1298.3</ele>
      </trkpt>
      <trkpt lat="44.27921" lon="6.9068">
        <ele>1301.5</ele>
      </trkpt>
      <trkpt lat="44.27916" lon="6.90686">
        <ele>1289.4</ele>
      </trkpt>
      <trkpt lat="44.27916" lon="6.90687">
        <ele>1289.6</ele>
      </trkpt>
      <trkpt lat="44.27906" lon="6.90701">
        <ele>1291.9</ele>
      </trkpt>
      <trkpt lat="44.27898" lon="6.90715">
        <ele>1293.6</ele>
      </trkpt>
      <trkpt lat="44.2788" lon="6.90739">
        <ele>1292.8</ele>
      </trkpt>
      <trkpt lat="44.27872" lon="6.90752">
        <ele>1298.5</ele>
      </trkpt>
      <trkpt lat="44.27871" lon="6.90755">
        <ele>1298.4</ele>
      </trkpt>
      <trkpt lat="44.27854" lon="6.90776">
        <ele>1295.7</ele>
      </trkpt>
      <trkpt lat="44.27815" lon="6.90818">
        <ele>1282.2</ele>
      </trkpt>
      <trkpt lat="44.27808" lon="6.90828">
        <ele>1281.7</ele>
      </trkpt>
      <trkpt lat="44.278" lon="6.90852">
        <ele>1282.9</ele>
      </trkpt>
      <trkpt lat="44.27785" lon="6.90915">
        <ele>1282.3</ele>
      </trkpt>
      <trkpt lat="44.27784" lon="6.90916">
        <ele>1282</ele>
      </trkpt>
      <trkpt lat="44.27772" lon="6.90949">
        <ele>1291.5</ele>
      </trkpt>
      <trkpt lat="44.27763" lon="6.90968">
        <ele>1291.5</ele>
      </trkpt>
      <trkpt lat="44.27736" lon="6.91004">
        <ele>1280.1</ele>
      </trkpt>
      <trkpt lat="44.27722" lon="6.91019">
        <ele>1279.9</ele>
      </trkpt>
      <trkpt lat="44.27711" lon="6.91028">
        <ele>1279.2</ele>
      </trkpt>
      <trkpt lat="44.27697" lon="6.91035">
        <ele>1277.8</ele>
      </trkpt>
      <trkpt lat="44.27696" lon="6.91036">
        <ele>1277.7</ele>
      </trkpt>
      <trkpt lat="44.27695" lon="6.91036">
        <ele>1277.6</ele>
      </trkpt>
      <trkpt lat="44.2768" lon="6.91045">
        <ele>1276.2</ele>
      </trkpt>
      <trkpt lat="44.27655" lon="6.91065">
        <ele>1270.8</ele>
      </trkpt>
      <trkpt lat="44.27648" lon="6.91074">
        <ele>1270.9</ele>
      </trkpt>
      <trkpt lat="44.27639" lon="6.91092">
        <ele>1270.6</ele>
      </trkpt>
      <trkpt lat="44.27638" lon="6.91093">
        <ele>1270.6</ele>
      </trkpt>
      <trkpt lat="44.2762" lon="6.91153">
        <ele>1270.3</ele>
      </trkpt>
      <trkpt lat="44.27617" lon="6.9116">
        <ele>1269.8</ele>
      </trkpt>
      <trkpt lat="44.27598" lon="6.91236">
        <ele>1270.1</ele>
      </trkpt>
      <trkpt lat="44.27597" lon="6.91237">
        <ele>1269.6</ele>
      </trkpt>
      <trkpt lat="44.27588" lon="6.91258">
        <ele>1269</ele>
      </trkpt>
      <trkpt lat="44.27555" lon="6.91317">
        <ele>1266</ele>
      </trkpt>
      <trkpt lat="44.27536" lon="6.91346">
        <ele>1264.4</ele>
      </trkpt>
      <trkpt lat="44.27509" lon="6.91395">
        <ele>1259.9</ele>
      </trkpt>
      <trkpt lat="44.27462" lon="6.91471">
        <ele>1258.7</ele>
      </trkpt>
      <trkpt lat="44.27458" lon="6.91475">
        <ele>1258.6</ele>
      </trkpt>
      <trkpt lat="44.2742" lon="6.91527">
        <ele>1256.5</ele>
      </trkpt>
      <trkpt lat="44.27407" lon="6.91554">
        <ele>1257.5</ele>
      </trkpt>
      <trkpt lat="44.274" lon="6.91575">
        <ele>1255.9</ele>
      </trkpt>
      <trkpt lat="44.27391" lon="6.9161">
        <ele>1252</ele>
      </trkpt>
      <trkpt lat="44.27391" lon="6.91612">
        <ele>1252</ele>
      </trkpt>
      <trkpt lat="44.27387" lon="6.91621">
        <ele>1252</ele>
      </trkpt>
      <trkpt lat="44.27384" lon="6.91632">
        <ele>1252</ele>
      </trkpt>
      <trkpt lat="44.27378" lon="6.91643">
        <ele>1251.5</ele>
      </trkpt>
      <trkpt lat="44.27375" lon="6.91652">
        <ele>1251.1</ele>
      </trkpt>
      <trkpt lat="44.27364" lon="6.91671">
        <ele>1254.9</ele>
      </trkpt>
      <trkpt lat="44.27352" lon="6.91686">
        <ele>1254.1</ele>
      </trkpt>
      <trkpt lat="44.27339" lon="6.91696">
        <ele>1254.7</ele>
      </trkpt>
      <trkpt lat="44.27324" lon="6.91704">
        <ele>1249</ele>
      </trkpt>
      <trkpt lat="44.27323" lon="6.91705">
        <ele>1249.2</ele>
      </trkpt>
      <trkpt lat="44.27252" lon="6.91734">
        <ele>1247.1</ele>
      </trkpt>
      <trkpt lat="44.27239" lon="6.91742">
        <ele>1251.6</ele>
      </trkpt>
      <trkpt lat="44.27238" lon="6.91742">
        <ele>1251.9</ele>
      </trkpt>
      <trkpt lat="44.27221" lon="6.91753">
        <ele>1251.8</ele>
      </trkpt>
      <trkpt lat="44.27209" lon="6.91764">
        <ele>1253.4</ele>
      </trkpt>
      <trkpt lat="44.27206" lon="6.91766">
        <ele>1253.6</ele>
      </trkpt>
      <trkpt lat="44.27179" lon="6.91796">
        <ele>1252.7</ele>
      </trkpt>
      <trkpt lat="44.27168" lon="6.91814">
        <ele>1249.2</ele>
      </trkpt>
      <trkpt lat="44.2716" lon="6.91831">
        <ele>1249.8</ele>
      </trkpt>
      <trkpt lat="44.27153" lon="6.91857">
        <ele>1249</ele>
      </trkpt>
      <trkpt lat="44.2714" lon="6.91895">
        <ele>1249.7</ele>
      </trkpt>
      <trkpt lat="44.27119" lon="6.91944">
        <ele>1244.7</ele>
      </trkpt>
      <trkpt lat="44.27106" lon="6.9197">
        <ele>1242.1</ele>
      </trkpt>
      <trkpt lat="44.27095" lon="6.91988">
        <ele>1236.5</ele>
      </trkpt>
      <trkpt lat="44.27094" lon="6.91989">
        <ele>1236</ele>
      </trkpt>
      <trkpt lat="44.27059" lon="6.9205">
        <ele>1231.9</ele>
      </trkpt>
      <trkpt lat="44.2704" lon="6.92077">
        <ele>1231</ele>
      </trkpt>
      <trkpt lat="44.27034" lon="6.92082">
        <ele>1230.3</ele>
      </trkpt>
      <trkpt lat="44.27032" lon="6.92085">
        <ele>1238.5</ele>
      </trkpt>
      <trkpt lat="44.27013" lon="6.92096">
        <ele>1235.1</ele>
      </trkpt>
      <trkpt lat="44.26999" lon="6.92102">
        <ele>1231.3</ele>
      </trkpt>
      <trkpt lat="44.26967" lon="6.92112">
        <ele>1235</ele>
      </trkpt>
      <trkpt lat="44.2693" lon="6.92119">
        <ele>1235.6</ele>
      </trkpt>
      <trkpt lat="44.26916" lon="6.9212">
        <ele>1235.5</ele>
      </trkpt>
      <trkpt lat="44.26904" lon="6.92119">
        <ele>1235.4</ele>
      </trkpt>
      <trkpt lat="44.26858" lon="6.9211">
        <ele>1234.3</ele>
      </trkpt>
      <trkpt lat="44.26845" lon="6.92105">
        <ele>1232.7</ele>
      </trkpt>
      <trkpt lat="44.26812" lon="6.92088">
        <ele>1229.4</ele>
      </trkpt>
      <trkpt lat="44.26802" lon="6.92084">
        <ele>1229.6</ele>
      </trkpt>
      <trkpt lat="44.26793" lon="6.92083">
        <ele>1227.8</ele>
      </trkpt>
      <trkpt lat="44.2679" lon="6.92082">
        <ele>1227.6</ele>
      </trkpt>
      <trkpt lat="44.26778" lon="6.92082">
        <ele>1226.5</ele>
      </trkpt>
      <trkpt lat="44.2677" lon="6.92083">
        <ele>1225.1</ele>
      </trkpt>
      <trkpt lat="44.26747" lon="6.92089">
        <ele>1220</ele>
      </trkpt>
      <trkpt lat="44.2672" lon="6.92102">
        <ele>1223.8</ele>
      </trkpt>
      <trkpt lat="44.26719" lon="6.92102">
        <ele>1223.8</ele>
      </trkpt>
      <trkpt lat="44.26698" lon="6.92111">
        <ele>1223.8</ele>
      </trkpt>
      <trkpt lat="44.26685" lon="6.92114">
        <ele>1223.3</ele>
      </trkpt>
      <trkpt lat="44.26662" lon="6.92117">
        <ele>1216.9</ele>
      </trkpt>
      <trkpt lat="44.26641" lon="6.92125">
        <ele>1217.9</ele>
      </trkpt>
      <trkpt lat="44.26614" lon="6.92141">
        <ele>1218.5</ele>
      </trkpt>
      <trkpt lat="44.26581" lon="6.92151">
        <ele>1214.7</ele>
      </trkpt>
      <trkpt lat="44.26564" lon="6.92159">
        <ele>1213.3</ele>
      </trkpt>
      <trkpt lat="44.26563" lon="6.92159">
        <ele>1213</ele>
      </trkpt>
      <trkpt lat="44.26556" lon="6.92162">
        <ele>1211.7</ele>
      </trkpt>
      <trkpt lat="44.2655" lon="6.92163">
        <ele>1210.7</ele>
      </trkpt>
      <trkpt lat="44.26533" lon="6.92162">
        <ele>1208.6</ele>
      </trkpt>
      <trkpt lat="44.26496" lon="6.92151">
        <ele>1205.7</ele>
      </trkpt>
      <trkpt lat="44.26494" lon="6.9215">
        <ele>1205.5</ele>
      </trkpt>
      <trkpt lat="44.26479" lon="6.92147">
        <ele>1204.5</ele>
      </trkpt>
      <trkpt lat="44.26476" lon="6.92148">
        <ele>1204.5</ele>
      </trkpt>
      <trkpt lat="44.26474" lon="6.92148">
        <ele>1204.5</ele>
      </trkpt>
      <trkpt lat="44.26462" lon="6.92151">
        <ele>1204.6</ele>
      </trkpt>
      <trkpt lat="44.26411" lon="6.92145">
        <ele>1206.8</ele>
      </trkpt>
      <trkpt lat="44.26391" lon="6.92146">
        <ele>1206.2</ele>
      </trkpt>
      <trkpt lat="44.26347" lon="6.92144">
        <ele>1206.3</ele>
      </trkpt>
      <trkpt lat="44.26306" lon="6.92164">
        <ele>1202.9</ele>
      </trkpt>
      <trkpt lat="44.26296" lon="6.92167">
        <ele>1215.1</ele>
      </trkpt>
      <trkpt lat="44.26284" lon="6.92169">
        <ele>1213.2</ele>
      </trkpt>
      <trkpt lat="44.26275" lon="6.92168">
        <ele>1210.3</ele>
      </trkpt>
      <trkpt lat="44.26268" lon="6.92166">
        <ele>1197.2</ele>
      </trkpt>
      <trkpt lat="44.26227" lon="6.92145">
        <ele>1189.7</ele>
      </trkpt>
      <trkpt lat="44.26212" lon="6.92141">
        <ele>1188.5</ele>
      </trkpt>
      <trkpt lat="44.26173" lon="6.9214">
        <ele>1185.2</ele>
      </trkpt>
      <trkpt lat="44.26164" lon="6.92147">
        <ele>1178.1</ele>
      </trkpt>
      <trkpt lat="44.26159" lon="6.92155">
        <ele>1178.3</ele>
      </trkpt>
      <trkpt lat="44.26148" lon="6.92164">
        <ele>1177.6</ele>
      </trkpt>
      <trkpt lat="44.26143" lon="6.92165">
        <ele>1177.1</ele>
      </trkpt>
      <trkpt lat="44.26141" lon="6.92166">
        <ele>1176.9</ele>
      </trkpt>
      <trkpt lat="44.26133" lon="6.92166">
        <ele>1176.2</ele>
      </trkpt>
      <trkpt lat="44.26115" lon="6.92163">
        <ele>1174.5</ele>
      </trkpt>
      <trkpt lat="44.26108" lon="6.92163">
        <ele>1173.8</ele>
      </trkpt>
      <trkpt lat="44.26104" lon="6.92164">
        <ele>1173.3</ele>
      </trkpt>
      <trkpt lat="44.26097" lon="6.92168">
        <ele>1174.9</ele>
      </trkpt>
      <trkpt lat="44.26071" lon="6.92189">
        <ele>1169.6</ele>
      </trkpt>
      <trkpt lat="44.26061" lon="6.92195">
        <ele>1169.3</ele>
      </trkpt>
      <trkpt lat="44.26057" lon="6.92196">
        <ele>1169.1</ele>
      </trkpt>
      <trkpt lat="44.2604" lon="6.92205">
        <ele>1168.1</ele>
      </trkpt>
      <trkpt lat="44.26034" lon="6.9221">
        <ele>1167.9</ele>
      </trkpt>
      <trkpt lat="44.26027" lon="6.92218">
        <ele>1167.7</ele>
      </trkpt>
      <trkpt lat="44.25993" lon="6.92274">
        <ele>1161.3</ele>
      </trkpt>
      <trkpt lat="44.25986" lon="6.9229">
        <ele>1160.5</ele>
      </trkpt>
      <trkpt lat="44.25977" lon="6.92319">
        <ele>1160.8</ele>
      </trkpt>
      <trkpt lat="44.25975" lon="6.92322">
        <ele>1160.6</ele>
      </trkpt>
      <trkpt lat="44.25966" lon="6.92349">
        <ele>1160</ele>
      </trkpt>
      <trkpt lat="44.25961" lon="6.92369">
        <ele>1159.5</ele>
      </trkpt>
      <trkpt lat="44.25959" lon="6.92391">
        <ele>1159.6</ele>
      </trkpt>
      <trkpt lat="44.25952" lon="6.92421">
        <ele>1160.6</ele>
      </trkpt>
      <trkpt lat="44.25945" lon="6.92439">
        <ele>1160.1</ele>
      </trkpt>
      <trkpt lat="44.25943" lon="6.92448">
        <ele>1160.2</ele>
      </trkpt>
      <trkpt lat="44.25939" lon="6.92484">
        <ele>1159.2</ele>
      </trkpt>
      <trkpt lat="44.25939" lon="6.92492">
        <ele>1158.8</ele>
      </trkpt>
      <trkpt lat="44.25936" lon="6.92503">
        <ele>1162.3</ele>
      </trkpt>
      <trkpt lat="44.25927" lon="6.92522">
        <ele>1163.4</ele>
      </trkpt>
      <trkpt lat="44.25894" lon="6.9257">
        <ele>1152.9</ele>
      </trkpt>
      <trkpt lat="44.25866" lon="6.92602">
        <ele>1156.9</ele>
      </trkpt>
      <trkpt lat="44.25858" lon="6.92602">
        <ele>1155.3</ele>
      </trkpt>
      <trkpt lat="44.25855" lon="6.92598">
        <ele>1154.1</ele>
      </trkpt>
      <trkpt lat="44.25851" lon="6.92589">
        <ele>1151.9</ele>
      </trkpt>
      <trkpt lat="44.25806" lon="6.92509">
        <ele>1144.6</ele>
      </trkpt>
      <trkpt lat="44.25802" lon="6.925">
        <ele>1146</ele>
      </trkpt>
      <trkpt lat="44.25744" lon="6.92399">
        <ele>1151.3</ele>
      </trkpt>
      <trkpt lat="44.25722" lon="6.92353">
        <ele>1154.3</ele>
      </trkpt>
      <trkpt lat="44.25699" lon="6.92297">
        <ele>1158.7</ele>
      </trkpt>
      <trkpt lat="44.25686" lon="6.92253">
        <ele>1159.6</ele>
      </trkpt>
      <trkpt lat="44.25683" lon="6.92246">
        <ele>1160.7</ele>
      </trkpt>
      <trkpt lat="44.25679" lon="6.92242">
        <ele>1160.6</ele>
      </trkpt>
      <trkpt lat="44.25674" lon="6.92242">
        <ele>1160.5</ele>
      </trkpt>
      <trkpt lat="44.25669" lon="6.92244">
        <ele>1160.3</ele>
      </trkpt>
      <trkpt lat="44.25661" lon="6.92252">
        <ele>1161.4</ele>
      </trkpt>
      <trkpt lat="44.25658" lon="6.92257">
        <ele>1162.4</ele>
      </trkpt>
      <trkpt lat="44.25649" lon="6.92267">
        <ele>1164.1</ele>
      </trkpt>
      <trkpt lat="44.25617" lon="6.92324">
        <ele>1165.4</ele>
      </trkpt>
      <trkpt lat="44.25616" lon="6.92327">
        <ele>1165.4</ele>
      </trkpt>
      <trkpt lat="44.25608" lon="6.9234">
        <ele>1162.4</ele>
      </trkpt>
      <trkpt lat="44.25583" lon="6.92368">
        <ele>1164.9</ele>
      </trkpt>
      <trkpt lat="44.2557" lon="6.92378">
        <ele>1164.6</ele>
      </trkpt>
      <trkpt lat="44.25431" lon="6.92471">
        <ele>1163.4</ele>
      </trkpt>
      <trkpt lat="44.25407" lon="6.92491">
        <ele>1171.4</ele>
      </trkpt>
      <trkpt lat="44.25375" lon="6.92528">
        <ele>1170.6</ele>
      </trkpt>
      <trkpt lat="44.25348" lon="6.92564">
        <ele>1170.2</ele>
      </trkpt>
      <trkpt lat="44.25347" lon="6.92567">
        <ele>1170</ele>
      </trkpt>
      <trkpt lat="44.25306" lon="6.92622">
        <ele>1169.8</ele>
      </trkpt>
      <trkpt lat="44.25283" lon="6.92645">
        <ele>1169.2</ele>
      </trkpt>
      <trkpt lat="44.25261" lon="6.92658">
        <ele>1168.2</ele>
      </trkpt>
      <trkpt lat="44.25228" lon="6.92673">
        <ele>1165.5</ele>
      </trkpt>
      <trkpt lat="44.25218" lon="6.92674">
        <ele>1165.7</ele>
      </trkpt>
      <trkpt lat="44.25208" lon="6.92677">
        <ele>1166</ele>
      </trkpt>
      <trkpt lat="44.25161" lon="6.92709">
        <ele>1172.1</ele>
      </trkpt>
      <trkpt lat="44.25136" lon="6.92722">
        <ele>1172.8</ele>
      </trkpt>
      <trkpt lat="44.25123" lon="6.92732">
        <ele>1173.5</ele>
      </trkpt>
      <trkpt lat="44.25122" lon="6.92732">
        <ele>1173.6</ele>
      </trkpt>
      <trkpt lat="44.25065" lon="6.92787">
        <ele>1175</ele>
      </trkpt>
      <trkpt lat="44.25056" lon="6.92793">
        <ele>1175.2</ele>
      </trkpt>
      <trkpt lat="44.25041" lon="6.928">
        <ele>1176.2</ele>
      </trkpt>
      <trkpt lat="44.25019" lon="6.92817">
        <ele>1177.2</ele>
      </trkpt>
      <trkpt lat="44.24994" lon="6.9285">
        <ele>1180</ele>
      </trkpt>
      <trkpt lat="44.24958" lon="6.92875">
        <ele>1183.3</ele>
      </trkpt>
      <trkpt lat="44.24939" lon="6.92895">
        <ele>1183.8</ele>
      </trkpt>
      <trkpt lat="44.24938" lon="6.92897">
        <ele>1183.8</ele>
      </trkpt>
      <trkpt lat="44.24922" lon="6.92916">
        <ele>1184.6</ele>
      </trkpt>
      <trkpt lat="44.24908" lon="6.92928">
        <ele>1186.1</ele>
      </trkpt>
      <trkpt lat="44.24885" lon="6.92941">
        <ele>1188.5</ele>
      </trkpt>
      <trkpt lat="44.24876" lon="6.92948">
        <ele>1189.4</ele>
      </trkpt>
      <trkpt lat="44.24867" lon="6.92958">
        <ele>1189.7</ele>
      </trkpt>
      <trkpt lat="44.2486" lon="6.92968">
        <ele>1189.5</ele>
      </trkpt>
      <trkpt lat="44.24841" lon="6.93004">
        <ele>1184.4</ele>
      </trkpt>
      <trkpt lat="44.24832" lon="6.93026">
        <ele>1191.4</ele>
      </trkpt>
      <trkpt lat="44.24831" lon="6.9303">
        <ele>1190.9</ele>
      </trkpt>
      <trkpt lat="44.24816" lon="6.93067">
        <ele>1183.7</ele>
      </trkpt>
      <trkpt lat="44.24756" lon="6.9315">
        <ele>1171.2</ele>
      </trkpt>
      <trkpt lat="44.24738" lon="6.93202">
        <ele>1175.9</ele>
      </trkpt>
      <trkpt lat="44.24726" lon="6.93229">
        <ele>1174</ele>
      </trkpt>
      <trkpt lat="44.24719" lon="6.93239">
        <ele>1174.8</ele>
      </trkpt>
      <trkpt lat="44.24711" lon="6.93248">
        <ele>1177</ele>
      </trkpt>
      <trkpt lat="44.24688" lon="6.93268">
        <ele>1172.5</ele>
      </trkpt>
      <trkpt lat="44.24683" lon="6.93275">
        <ele>1172.3</ele>
      </trkpt>
      <trkpt lat="44.24677" lon="6.93286">
        <ele>1170.8</ele>
      </trkpt>
      <trkpt lat="44.24656" lon="6.93337">
        <ele>1175.8</ele>
      </trkpt>
      <trkpt lat="44.24649" lon="6.93351">
        <ele>1176</ele>
      </trkpt>
      <trkpt lat="44.24639" lon="6.93366">
        <ele>1175.7</ele>
      </trkpt>
      <trkpt lat="44.24613" lon="6.93396">
        <ele>1175.1</ele>
      </trkpt>
      <trkpt lat="44.24607" lon="6.934">
        <ele>1175.2</ele>
      </trkpt>
      <trkpt lat="44.24604" lon="6.93403">
        <ele>1175.1</ele>
      </trkpt>
      <trkpt lat="44.246" lon="6.93403">
        <ele>1175.3</ele>
      </trkpt>
      <trkpt lat="44.24598" lon="6.93404">
        <ele>1175.3</ele>
      </trkpt>
      <trkpt lat="44.24586" lon="6.93405">
        <ele>1175.2</ele>
      </trkpt>
      <trkpt lat="44.24582" lon="6.93404">
        <ele>1179.8</ele>
      </trkpt>
      <trkpt lat="44.24578" lon="6.93404">
        <ele>1180.2</ele>
      </trkpt>
      <trkpt lat="44.24519" lon="6.93381">
        <ele>1187.8</ele>
      </trkpt>
      <trkpt lat="44.24517" lon="6.93381">
        <ele>1187.8</ele>
      </trkpt>
      <trkpt lat="44.2451" lon="6.93379">
        <ele>1188.1</ele>
      </trkpt>
      <trkpt lat="44.24502" lon="6.93378">
        <ele>1188.3</ele>
      </trkpt>
      <trkpt lat="44.24492" lon="6.93381">
        <ele>1195.7</ele>
      </trkpt>
      <trkpt lat="44.24485" lon="6.93385">
        <ele>1195.7</ele>
      </trkpt>
      <trkpt lat="44.24476" lon="6.93396">
        <ele>1195.5</ele>
      </trkpt>
      <trkpt lat="44.24471" lon="6.93408">
        <ele>1195.4</ele>
      </trkpt>
      <trkpt lat="44.2447" lon="6.93412">
        <ele>1195.4</ele>
      </trkpt>
      <trkpt lat="44.24468" lon="6.93437">
        <ele>1190.3</ele>
      </trkpt>
      <trkpt lat="44.2447" lon="6.9346">
        <ele>1189.1</ele>
      </trkpt>
      <trkpt lat="44.24469" lon="6.93486">
        <ele>1187.3</ele>
      </trkpt>
      <trkpt lat="44.24468" lon="6.93487">
        <ele>1187.5</ele>
      </trkpt>
      <trkpt lat="44.24466" lon="6.93497">
        <ele>1187.6</ele>
      </trkpt>
      <trkpt lat="44.24456" lon="6.93516">
        <ele>1182.7</ele>
      </trkpt>
      <trkpt lat="44.24375" lon="6.93614">
        <ele>1190.1</ele>
      </trkpt>
      <trkpt lat="44.24345" lon="6.93659">
        <ele>1194.5</ele>
      </trkpt>
      <trkpt lat="44.24334" lon="6.93673">
        <ele>1194</ele>
      </trkpt>
      <trkpt lat="44.24326" lon="6.93681">
        <ele>1198.5</ele>
      </trkpt>
      <trkpt lat="44.24309" lon="6.93694">
        <ele>1198.4</ele>
      </trkpt>
      <trkpt lat="44.24295" lon="6.93696">
        <ele>1199.3</ele>
      </trkpt>
      <trkpt lat="44.24285" lon="6.93695">
        <ele>1200.2</ele>
      </trkpt>
      <trkpt lat="44.2428" lon="6.93689">
        <ele>1201.2</ele>
      </trkpt>
      <trkpt lat="44.24276" lon="6.93688">
        <ele>1201.7</ele>
      </trkpt>
      <trkpt lat="44.24272" lon="6.93688">
        <ele>1202.1</ele>
      </trkpt>
      <trkpt lat="44.24267" lon="6.9369">
        <ele>1202.4</ele>
      </trkpt>
      <trkpt lat="44.24263" lon="6.93695">
        <ele>1202.2</ele>
      </trkpt>
      <trkpt lat="44.2426" lon="6.93703">
        <ele>1201.6</ele>
      </trkpt>
      <trkpt lat="44.24259" lon="6.93713">
        <ele>1200.9</ele>
      </trkpt>
      <trkpt lat="44.24256" lon="6.93722">
        <ele>1200.6</ele>
      </trkpt>
      <trkpt lat="44.24246" lon="6.93741">
        <ele>1204.4</ele>
      </trkpt>
      <trkpt lat="44.2423" lon="6.93759">
        <ele>1200.3</ele>
      </trkpt>
      <trkpt lat="44.24218" lon="6.93768">
        <ele>1199.8</ele>
      </trkpt>
      <trkpt lat="44.24207" lon="6.93773">
        <ele>1199.8</ele>
      </trkpt>
      <trkpt lat="44.24206" lon="6.93774">
        <ele>1199.8</ele>
      </trkpt>
      <trkpt lat="44.24198" lon="6.93777">
        <ele>1199.8</ele>
      </trkpt>
      <trkpt lat="44.24179" lon="6.93779">
        <ele>1200.3</ele>
      </trkpt>
      <trkpt lat="44.24129" lon="6.9378">
        <ele>1201.8</ele>
      </trkpt>
      <trkpt lat="44.24095" lon="6.93784">
        <ele>1202.3</ele>
      </trkpt>
      <trkpt lat="44.24082" lon="6.93789">
        <ele>1210</ele>
      </trkpt>
      <trkpt lat="44.24066" lon="6.93799">
        <ele>1209.3</ele>
      </trkpt>
      <trkpt lat="44.24054" lon="6.9381">
        <ele>1209.1</ele>
      </trkpt>
      <trkpt lat="44.24015" lon="6.93866">
        <ele>1190.3</ele>
      </trkpt>
      <trkpt lat="44.23949" lon="6.93971">
        <ele>1184.1</ele>
      </trkpt>
      <trkpt lat="44.23906" lon="6.94034">
        <ele>1189.6</ele>
      </trkpt>
      <trkpt lat="44.23835" lon="6.94116">
        <ele>1172</ele>
      </trkpt>
      <trkpt lat="44.23812" lon="6.94146">
        <ele>1184.1</ele>
      </trkpt>
      <trkpt lat="44.23804" lon="6.94159">
        <ele>1184.2</ele>
      </trkpt>
      <trkpt lat="44.23801" lon="6.94177">
        <ele>1170.7</ele>
      </trkpt>
      <trkpt lat="44.23801" lon="6.94187">
        <ele>1170.2</ele>
      </trkpt>
      <trkpt lat="44.23802" lon="6.94193">
        <ele>1169.5</ele>
      </trkpt>
      <trkpt lat="44.2381" lon="6.94208">
        <ele>1166.7</ele>
      </trkpt>
      <trkpt lat="44.23821" lon="6.94213">
        <ele>1164.3</ele>
      </trkpt>
      <trkpt lat="44.23826" lon="6.94213">
        <ele>1163.7</ele>
      </trkpt>
      <trkpt lat="44.23833" lon="6.94209">
        <ele>1163.8</ele>
      </trkpt>
      <trkpt lat="44.23842" lon="6.94198">
        <ele>1148.9</ele>
      </trkpt>
      <trkpt lat="44.2386" lon="6.94152">
        <ele>1162.9</ele>
      </trkpt>
      <trkpt lat="44.23875" lon="6.94125">
        <ele>1164.5</ele>
      </trkpt>
      <trkpt lat="44.23896" lon="6.94097">
        <ele>1165</ele>
      </trkpt>
      <trkpt lat="44.23978" lon="6.94024">
        <ele>1160</ele>
      </trkpt>
      <trkpt lat="44.23986" lon="6.94015">
        <ele>1159.2</ele>
      </trkpt>
      <trkpt lat="44.24018" lon="6.93967">
        <ele>1162</ele>
      </trkpt>
      <trkpt lat="44.24025" lon="6.93959">
        <ele>1162.9</ele>
      </trkpt>
      <trkpt lat="44.24032" lon="6.93956">
        <ele>1163</ele>
      </trkpt>
      <trkpt lat="44.24037" lon="6.93955">
        <ele>1162.8</ele>
      </trkpt>
      <trkpt lat="44.24041" lon="6.93955">
        <ele>1162.6</ele>
      </trkpt>
      <trkpt lat="44.24046" lon="6.93957">
        <ele>1162.2</ele>
      </trkpt>
      <trkpt lat="44.24053" lon="6.93968">
        <ele>1160.7</ele>
      </trkpt>
      <trkpt lat="44.24055" lon="6.93976">
        <ele>1159.7</ele>
      </trkpt>
      <trkpt lat="44.24054" lon="6.93993">
        <ele>1158.3</ele>
      </trkpt>
      <trkpt lat="44.24051" lon="6.94003">
        <ele>1146.9</ele>
      </trkpt>
      <trkpt lat="44.23978" lon="6.94097">
        <ele>1141.6</ele>
      </trkpt>
      <trkpt lat="44.23958" lon="6.94126">
        <ele>1141.7</ele>
      </trkpt>
      <trkpt lat="44.23943" lon="6.94156">
        <ele>1140.1</ele>
      </trkpt>
      <trkpt lat="44.23929" lon="6.94202">
        <ele>1129</ele>
      </trkpt>
      <trkpt lat="44.2392" lon="6.9424">
        <ele>1126.9</ele>
      </trkpt>
      <trkpt lat="44.23896" lon="6.94315">
        <ele>1121.8</ele>
      </trkpt>
      <trkpt lat="44.23883" lon="6.94342">
        <ele>1112</ele>
      </trkpt>
      <trkpt lat="44.23875" lon="6.94353">
        <ele>1111.7</ele>
      </trkpt>
      <trkpt lat="44.23848" lon="6.9438">
        <ele>1109.9</ele>
      </trkpt>
      <trkpt lat="44.23826" lon="6.94395">
        <ele>1113.6</ele>
      </trkpt>
      <trkpt lat="44.23798" lon="6.94409">
        <ele>1115.9</ele>
      </trkpt>
      <trkpt lat="44.23775" lon="6.94418">
        <ele>1103.4</ele>
      </trkpt>
      <trkpt lat="44.2377" lon="6.94421">
        <ele>1104.3</ele>
      </trkpt>
      <trkpt lat="44.2376" lon="6.94425">
        <ele>1106.4</ele>
      </trkpt>
      <trkpt lat="44.23753" lon="6.94429">
        <ele>1106.4</ele>
      </trkpt>
      <trkpt lat="44.2375" lon="6.9443">
        <ele>1111.9</ele>
      </trkpt>
      <trkpt lat="44.23709" lon="6.94458">
        <ele>1111.2</ele>
      </trkpt>
      <trkpt lat="44.23686" lon="6.9448">
        <ele>1109</ele>
      </trkpt>
      <trkpt lat="44.23657" lon="6.94512">
        <ele>1107.7</ele>
      </trkpt>
      <trkpt lat="44.23632" lon="6.94544">
        <ele>1111.1</ele>
      </trkpt>
      <trkpt lat="44.23598" lon="6.94596">
        <ele>1102</ele>
      </trkpt>
      <trkpt lat="44.23554" lon="6.94675">
        <ele>1097.5</ele>
      </trkpt>
      <trkpt lat="44.23553" lon="6.94676">
        <ele>1097.7</ele>
      </trkpt>
      <trkpt lat="44.23544" lon="6.94692">
        <ele>1099.3</ele>
      </trkpt>
      <trkpt lat="44.23542" lon="6.94694">
        <ele>1099.5</ele>
      </trkpt>
      <trkpt lat="44.23508" lon="6.94747">
        <ele>1097.3</ele>
      </trkpt>
      <trkpt lat="44.23377" lon="6.94919">
        <ele>1084.1</ele>
      </trkpt>
      <trkpt lat="44.2336" lon="6.94946">
        <ele>1085.3</ele>
      </trkpt>
      <trkpt lat="44.23238" lon="6.95227">
        <ele>1071.5</ele>
      </trkpt>
      <trkpt lat="44.23238" lon="6.95229">
        <ele>1071.5</ele>
      </trkpt>
      <trkpt lat="44.23199" lon="6.95333">
        <ele>1067.3</ele>
      </trkpt>
      <trkpt lat="44.23144" lon="6.95437">
        <ele>1064.2</ele>
      </trkpt>
      <trkpt lat="44.22967" lon="6.95723">
        <ele>1059.8</ele>
      </trkpt>
      <trkpt lat="44.2293" lon="6.95767">
        <ele>1060.1</ele>
      </trkpt>
      <trkpt lat="44.22901" lon="6.95793">
        <ele>1059.8</ele>
      </trkpt>
      <trkpt lat="44.22883" lon="6.95804">
        <ele>1059.9</ele>
      </trkpt>
      <trkpt lat="44.22834" lon="6.95822">
        <ele>1059.9</ele>
      </trkpt>
      <trkpt lat="44.22828" lon="6.95823">
        <ele>1059.4</ele>
      </trkpt>
      <trkpt lat="44.228" lon="6.95835">
        <ele>1059.9</ele>
      </trkpt>
      <trkpt lat="44.22789" lon="6.95841">
        <ele>1059.8</ele>
      </trkpt>
      <trkpt lat="44.22702" lon="6.9591">
        <ele>1057.2</ele>
      </trkpt>
      <trkpt lat="44.22586" lon="6.95975">
        <ele>1056</ele>
      </trkpt>
      <trkpt lat="44.22575" lon="6.95983">
        <ele>1055.8</ele>
      </trkpt>
      <trkpt lat="44.22558" lon="6.95999">
        <ele>1056</ele>
      </trkpt>
      <trkpt lat="44.22543" lon="6.96026">
        <ele>1055.7</ele>
      </trkpt>
      <trkpt lat="44.22535" lon="6.96056">
        <ele>1055.6</ele>
      </trkpt>
      <trkpt lat="44.22529" lon="6.96088">
        <ele>1055.3</ele>
      </trkpt>
      <trkpt lat="44.22529" lon="6.96091">
        <ele>1055.3</ele>
      </trkpt>
      <trkpt lat="44.22499" lon="6.96258">
        <ele>1054.1</ele>
      </trkpt>
      <trkpt lat="44.22488" lon="6.96288">
        <ele>1055</ele>
      </trkpt>
      <trkpt lat="44.2248" lon="6.96303">
        <ele>1055.6</ele>
      </trkpt>
      <trkpt lat="44.22472" lon="6.96315">
        <ele>1055.7</ele>
      </trkpt>
      <trkpt lat="44.22451" lon="6.96337">
        <ele>1061.1</ele>
      </trkpt>
      <trkpt lat="44.22395" lon="6.96374">
        <ele>1053.9</ele>
      </trkpt>
      <trkpt lat="44.22023" lon="6.96655">
        <ele>1049.1</ele>
      </trkpt>
      <trkpt lat="44.22013" lon="6.96665">
        <ele>1047.9</ele>
      </trkpt>
      <trkpt lat="44.21951" lon="6.96753">
        <ele>1066.1</ele>
      </trkpt>
      <trkpt lat="44.21946" lon="6.96762">
        <ele>1065.7</ele>
      </trkpt>
      <trkpt lat="44.21925" lon="6.96784">
        <ele>1066.8</ele>
      </trkpt>
      <trkpt lat="44.21881" lon="6.96816">
        <ele>1051.5</ele>
      </trkpt>
      <trkpt lat="44.21841" lon="6.96867">
        <ele>1066.1</ele>
      </trkpt>
      <trkpt lat="44.21777" lon="6.96931">
        <ele>1061.1</ele>
      </trkpt>
      <trkpt lat="44.2175" lon="6.96962">
        <ele>1062</ele>
      </trkpt>
      <trkpt lat="44.21699" lon="6.9703">
        <ele>1053.3</ele>
      </trkpt>
      <trkpt lat="44.21682" lon="6.97047">
        <ele>1052.4</ele>
      </trkpt>
      <trkpt lat="44.21646" lon="6.97078">
        <ele>1041.8</ele>
      </trkpt>
      <trkpt lat="44.21625" lon="6.97093">
        <ele>1047.9</ele>
      </trkpt>
      <trkpt lat="44.21611" lon="6.97099">
        <ele>1046.4</ele>
      </trkpt>
      <trkpt lat="44.21585" lon="6.97107">
        <ele>1044.4</ele>
      </trkpt>
      <trkpt lat="44.21567" lon="6.97111">
        <ele>1035.7</ele>
      </trkpt>
      <trkpt lat="44.21565" lon="6.97111">
        <ele>1035.6</ele>
      </trkpt>
      <trkpt lat="44.2155" lon="6.97118">
        <ele>1035.3</ele>
      </trkpt>
      <trkpt lat="44.21543" lon="6.9712">
        <ele>1034.9</ele>
      </trkpt>
      <trkpt lat="44.21526" lon="6.97129">
        <ele>1033.8</ele>
      </trkpt>
      <trkpt lat="44.21506" lon="6.97144">
        <ele>1031.8</ele>
      </trkpt>
      <trkpt lat="44.21489" lon="6.9716">
        <ele>1028.4</ele>
      </trkpt>
      <trkpt lat="44.2132" lon="6.97373">
        <ele>1027.6</ele>
      </trkpt>
      <trkpt lat="44.213" lon="6.97392">
        <ele>1028.9</ele>
      </trkpt>
      <trkpt lat="44.21279" lon="6.97408">
        <ele>1028.1</ele>
      </trkpt>
      <trkpt lat="44.21265" lon="6.97417">
        <ele>1037.5</ele>
      </trkpt>
      <trkpt lat="44.21186" lon="6.9746">
        <ele>1031.1</ele>
      </trkpt>
      <trkpt lat="44.2114" lon="6.97489">
        <ele>1022.5</ele>
      </trkpt>
      <trkpt lat="44.21106" lon="6.97513">
        <ele>1024.3</ele>
      </trkpt>
      <trkpt lat="44.21082" lon="6.97533">
        <ele>1016.3</ele>
      </trkpt>
      <trkpt lat="44.21067" lon="6.97543">
        <ele>1016.8</ele>
      </trkpt>
      <trkpt lat="44.21041" lon="6.9757">
        <ele>1017</ele>
      </trkpt>
      <trkpt lat="44.21021" lon="6.976">
        <ele>1019.9</ele>
      </trkpt>
      <trkpt lat="44.2102" lon="6.97603">
        <ele>1019.9</ele>
      </trkpt>
      <trkpt lat="44.21016" lon="6.97608">
        <ele>1019.9</ele>
      </trkpt>
      <trkpt lat="44.21012" lon="6.97615">
        <ele>1020</ele>
      </trkpt>
      <trkpt lat="44.20996" lon="6.97634">
        <ele>1014.9</ele>
      </trkpt>
      <trkpt lat="44.20937" lon="6.97688">
        <ele>1013.7</ele>
      </trkpt>
      <trkpt lat="44.20913" lon="6.97715">
        <ele>1009.7</ele>
      </trkpt>
      <trkpt lat="44.20896" lon="6.97738">
        <ele>1009.3</ele>
      </trkpt>
      <trkpt lat="44.20816" lon="6.97874">
        <ele>1012.6</ele>
      </trkpt>
      <trkpt lat="44.20802" lon="6.97891">
        <ele>1013.4</ele>
      </trkpt>
      <trkpt lat="44.20773" lon="6.97921">
        <ele>1018.5</ele>
      </trkpt>
      <trkpt lat="44.20751" lon="6.97941">
        <ele>1019.1</ele>
      </trkpt>
      <trkpt lat="44.20737" lon="6.97957">
        <ele>1016.4</ele>
      </trkpt>
      <trkpt lat="44.2073" lon="6.97967">
        <ele>1017.1</ele>
      </trkpt>
      <trkpt lat="44.20709" lon="6.98005">
        <ele>1020.6</ele>
      </trkpt>
      <trkpt lat="44.20705" lon="6.98015">
        <ele>1020.1</ele>
      </trkpt>
      <trkpt lat="44.20704" lon="6.98016">
        <ele>1020</ele>
      </trkpt>
      <trkpt lat="44.20694" lon="6.98048">
        <ele>1019.5</ele>
      </trkpt>
      <trkpt lat="44.20689" lon="6.98075">
        <ele>1018.1</ele>
      </trkpt>
      <trkpt lat="44.20679" lon="6.98275">
        <ele>1020</ele>
      </trkpt>
      <trkpt lat="44.20675" lon="6.98301">
        <ele>1021.7</ele>
      </trkpt>
      <trkpt lat="44.20664" lon="6.98334">
        <ele>1011.7</ele>
      </trkpt>
      <trkpt lat="44.20642" lon="6.98373">
        <ele>1017</ele>
      </trkpt>
      <trkpt lat="44.20641" lon="6.98373">
        <ele>1017</ele>
      </trkpt>
      <trkpt lat="44.20639" lon="6.98376">
        <ele>1017.1</ele>
      </trkpt>
      <trkpt lat="44.20635" lon="6.9838">
        <ele>1017.2</ele>
      </trkpt>
      <trkpt lat="44.20609" lon="6.98413">
        <ele>1014.9</ele>
      </trkpt>
      <trkpt lat="44.20586" lon="6.98438">
        <ele>1017.8</ele>
      </trkpt>
      <trkpt lat="44.20562" lon="6.98471">
        <ele>1013.6</ele>
      </trkpt>
      <trkpt lat="44.2056" lon="6.98473">
        <ele>1013.6</ele>
      </trkpt>
      <trkpt lat="44.20559" lon="6.98475">
        <ele>1013.6</ele>
      </trkpt>
      <trkpt lat="44.20552" lon="6.98482">
        <ele>1013.3</ele>
      </trkpt>
      <trkpt lat="44.20547" lon="6.98489">
        <ele>1013</ele>
      </trkpt>
      <trkpt lat="44.20543" lon="6.98492">
        <ele>1012.6</ele>
      </trkpt>
      <trkpt lat="44.20538" lon="6.98498">
        <ele>1012</ele>
      </trkpt>
      <trkpt lat="44.2051" lon="6.98524">
        <ele>1013.6</ele>
      </trkpt>
      <trkpt lat="44.20491" lon="6.98546">
        <ele>1011.2</ele>
      </trkpt>
      <trkpt lat="44.20478" lon="6.98564">
        <ele>1011.7</ele>
      </trkpt>
      <trkpt lat="44.20462" lon="6.9859">
        <ele>1013.6</ele>
      </trkpt>
      <trkpt lat="44.20386" lon="6.98768">
        <ele>1014.5</ele>
      </trkpt>
      <trkpt lat="44.20309" lon="6.98903">
        <ele>1003.2</ele>
      </trkpt>
      <trkpt lat="44.20283" lon="6.9894">
        <ele>1009.3</ele>
      </trkpt>
      <trkpt lat="44.20252" lon="6.98974">
        <ele>1009.5</ele>
      </trkpt>
      <trkpt lat="44.20249" lon="6.98975">
        <ele>1000.3</ele>
      </trkpt>
      <trkpt lat="44.20244" lon="6.98978">
        <ele>1000.6</ele>
      </trkpt>
      <trkpt lat="44.20211" lon="6.99008">
        <ele>1001.7</ele>
      </trkpt>
      <trkpt lat="44.20204" lon="6.99017">
        <ele>1001</ele>
      </trkpt>
      <trkpt lat="44.20196" lon="6.99025">
        <ele>1000.4</ele>
      </trkpt>
      <trkpt lat="44.20178" lon="6.99051">
        <ele>1000.1</ele>
      </trkpt>
      <trkpt lat="44.2016" lon="6.99089">
        <ele>997.5</ele>
      </trkpt>
      <trkpt lat="44.20154" lon="6.99105">
        <ele>998.1</ele>
      </trkpt>
      <trkpt lat="44.2015" lon="6.99123">
        <ele>998.7</ele>
      </trkpt>
      <trkpt lat="44.20147" lon="6.99132">
        <ele>999</ele>
      </trkpt>
      <trkpt lat="44.2014" lon="6.99169">
        <ele>998.2</ele>
      </trkpt>
      <trkpt lat="44.20137" lon="6.99213">
        <ele>995.8</ele>
      </trkpt>
      <trkpt lat="44.20137" lon="6.99243">
        <ele>995.3</ele>
      </trkpt>
      <trkpt lat="44.20129" lon="6.99394">
        <ele>989.2</ele>
      </trkpt>
      <trkpt lat="44.20125" lon="6.99425">
        <ele>992.5</ele>
      </trkpt>
      <trkpt lat="44.20117" lon="6.99461">
        <ele>993.4</ele>
      </trkpt>
      <trkpt lat="44.20102" lon="6.99499">
        <ele>991.2</ele>
      </trkpt>
      <trkpt lat="44.20092" lon="6.99518">
        <ele>997.8</ele>
      </trkpt>
      <trkpt lat="44.20057" lon="6.99573">
        <ele>992.1</ele>
      </trkpt>
      <trkpt lat="44.20037" lon="6.99614">
        <ele>993.6</ele>
      </trkpt>
      <trkpt lat="44.20027" lon="6.99644">
        <ele>992.8</ele>
      </trkpt>
      <trkpt lat="44.20016" lon="6.99693">
        <ele>994.8</ele>
      </trkpt>
      <trkpt lat="44.20002" lon="6.99802">
        <ele>995</ele>
      </trkpt>
      <trkpt lat="44.19991" lon="6.99853">
        <ele>980.3</ele>
      </trkpt>
      <trkpt lat="44.19981" lon="6.99881">
        <ele>980.1</ele>
      </trkpt>
      <trkpt lat="44.19976" lon="6.9989">
        <ele>980.1</ele>
      </trkpt>
      <trkpt lat="44.19976" lon="6.99891">
        <ele>980.2</ele>
      </trkpt>
      <trkpt lat="44.19971" lon="6.99902">
        <ele>980.1</ele>
      </trkpt>
      <trkpt lat="44.1997" lon="6.99906">
        <ele>980.1</ele>
      </trkpt>
      <trkpt lat="44.19967" lon="6.99911">
        <ele>979.7</ele>
      </trkpt>
      <trkpt lat="44.19958" lon="6.99933">
        <ele>982.2</ele>
      </trkpt>
      <trkpt lat="44.19934" lon="6.99978">
        <ele>980.9</ele>
      </trkpt>
      <trkpt lat="44.19929" lon="6.99992">
        <ele>979.5</ele>
      </trkpt>
      <trkpt lat="44.19863" lon="7.00098">
        <ele>978.6</ele>
      </trkpt>
      <trkpt lat="44.19851" lon="7.0012">
        <ele>978.4</ele>
      </trkpt>
      <trkpt lat="44.19844" lon="7.00138">
        <ele>977.9</ele>
      </trkpt>
      <trkpt lat="44.19838" lon="7.0015">
        <ele>976.2</ele>
      </trkpt>
      <trkpt lat="44.19824" lon="7.00196">
        <ele>973.7</ele>
      </trkpt>
      <trkpt lat="44.19818" lon="7.00224">
        <ele>974.2</ele>
      </trkpt>
      <trkpt lat="44.19798" lon="7.00365">
        <ele>980.7</ele>
      </trkpt>
      <trkpt lat="44.19795" lon="7.00372">
        <ele>980.3</ele>
      </trkpt>
      <trkpt lat="44.19785" lon="7.00413">
        <ele>978.5</ele>
      </trkpt>
      <trkpt lat="44.19771" lon="7.0045">
        <ele>980.4</ele>
      </trkpt>
      <trkpt lat="44.19765" lon="7.00457">
        <ele>979.6</ele>
      </trkpt>
      <trkpt lat="44.1975" lon="7.0049">
        <ele>965.1</ele>
      </trkpt>
      <trkpt lat="44.19732" lon="7.00519">
        <ele>966.9</ele>
      </trkpt>
      <trkpt lat="44.19669" lon="7.00594">
        <ele>967.7</ele>
      </trkpt>
      <trkpt lat="44.19606" lon="7.00678">
        <ele>967.2</ele>
      </trkpt>
      <trkpt lat="44.19587" lon="7.00698">
        <ele>968.1</ele>
      </trkpt>
      <trkpt lat="44.19507" lon="7.00765">
        <ele>966.2</ele>
      </trkpt>
      <trkpt lat="44.19498" lon="7.00774">
        <ele>966</ele>
      </trkpt>
      <trkpt lat="44.19472" lon="7.00806">
        <ele>968.2</ele>
      </trkpt>
      <trkpt lat="44.19465" lon="7.00823">
        <ele>968.2</ele>
      </trkpt>
      <trkpt lat="44.19463" lon="7.00826">
        <ele>968.2</ele>
      </trkpt>
      <trkpt lat="44.19456" lon="7.00842">
        <ele>966.7</ele>
      </trkpt>
      <trkpt lat="44.1945" lon="7.00862">
        <ele>966.3</ele>
      </trkpt>
      <trkpt lat="44.19428" lon="7.00964">
        <ele>964.3</ele>
      </trkpt>
      <trkpt lat="44.19428" lon="7.00967">
        <ele>964.2</ele>
      </trkpt>
      <trkpt lat="44.19418" lon="7.01005">
        <ele>960.5</ele>
      </trkpt>
      <trkpt lat="44.1941" lon="7.01028">
        <ele>958.7</ele>
      </trkpt>
      <trkpt lat="44.19393" lon="7.01063">
        <ele>960.1</ele>
      </trkpt>
      <trkpt lat="44.19364" lon="7.01104">
        <ele>960.4</ele>
      </trkpt>
      <trkpt lat="44.19307" lon="7.01198">
        <ele>956.2</ele>
      </trkpt>
      <trkpt lat="44.19251" lon="7.01299">
        <ele>963</ele>
      </trkpt>
      <trkpt lat="44.19214" lon="7.01374">
        <ele>954.3</ele>
      </trkpt>
      <trkpt lat="44.19132" lon="7.01568">
        <ele>951.6</ele>
      </trkpt>
      <trkpt lat="44.19119" lon="7.01606">
        <ele>956.2</ele>
      </trkpt>
      <trkpt lat="44.1909" lon="7.01677">
        <ele>953.7</ele>
      </trkpt>
      <trkpt lat="44.19027" lon="7.01772">
        <ele>945.4</ele>
      </trkpt>
      <trkpt lat="44.19008" lon="7.01805">
        <ele>944.4</ele>
      </trkpt>
      <trkpt lat="44.18992" lon="7.01843">
        <ele>935.1</ele>
      </trkpt>
      <trkpt lat="44.18984" lon="7.0187">
        <ele>933.4</ele>
      </trkpt>
      <trkpt lat="44.18974" lon="7.01927">
        <ele>931.1</ele>
      </trkpt>
      <trkpt lat="44.18971" lon="7.01982">
        <ele>930.1</ele>
      </trkpt>
      <trkpt lat="44.1897" lon="7.02175">
        <ele>925.9</ele>
      </trkpt>
      <trkpt lat="44.18966" lon="7.02244">
        <ele>925.6</ele>
      </trkpt>
      <trkpt lat="44.18958" lon="7.02294">
        <ele>925.5</ele>
      </trkpt>
      <trkpt lat="44.18958" lon="7.023">
        <ele>925.6</ele>
      </trkpt>
      <trkpt lat="44.18928" lon="7.0243">
        <ele>931.6</ele>
      </trkpt>
      <trkpt lat="44.18919" lon="7.02486">
        <ele>933.8</ele>
      </trkpt>
      <trkpt lat="44.18919" lon="7.02517">
        <ele>934.4</ele>
      </trkpt>
      <trkpt lat="44.18923" lon="7.0255">
        <ele>935.4</ele>
      </trkpt>
      <trkpt lat="44.18935" lon="7.02599">
        <ele>930.8</ele>
      </trkpt>
      <trkpt lat="44.18989" lon="7.02738">
        <ele>935.7</ele>
      </trkpt>
      <trkpt lat="44.18989" lon="7.02739">
        <ele>935.7</ele>
      </trkpt>
      <trkpt lat="44.19012" lon="7.028">
        <ele>948.8</ele>
      </trkpt>
      <trkpt lat="44.19043" lon="7.02925">
        <ele>926.9</ele>
      </trkpt>
      <trkpt lat="44.19054" lon="7.02983">
        <ele>926.4</ele>
      </trkpt>
      <trkpt lat="44.19059" lon="7.03083">
        <ele>918.3</ele>
      </trkpt>
      <trkpt lat="44.19058" lon="7.03131">
        <ele>912.9</ele>
      </trkpt>
      <trkpt lat="44.19039" lon="7.03305">
        <ele>918.5</ele>
      </trkpt>
      <trkpt lat="44.19033" lon="7.03329">
        <ele>916.7</ele>
      </trkpt>
      <trkpt lat="44.19029" lon="7.03353">
        <ele>922.3</ele>
      </trkpt>
      <trkpt lat="44.19" lon="7.03479">
        <ele>902.3</ele>
      </trkpt>
      <trkpt lat="44.1898" lon="7.03603">
        <ele>907.6</ele>
      </trkpt>
      <trkpt lat="44.1896" lon="7.03687">
        <ele>911</ele>
      </trkpt>
      <trkpt lat="44.18952" lon="7.03713">
        <ele>910</ele>
      </trkpt>
      <trkpt lat="44.18902" lon="7.03927">
        <ele>891.6</ele>
      </trkpt>
      <trkpt lat="44.18899" lon="7.04024">
        <ele>892.7</ele>
      </trkpt>
      <trkpt lat="44.18895" lon="7.04048">
        <ele>893.6</ele>
      </trkpt>
      <trkpt lat="44.18843" lon="7.04273">
        <ele>904.9</ele>
      </trkpt>
      <trkpt lat="44.1883" lon="7.04308">
        <ele>886.4</ele>
      </trkpt>
      <trkpt lat="44.18811" lon="7.04351">
        <ele>891</ele>
      </trkpt>
      <trkpt lat="44.18793" lon="7.04383">
        <ele>890.5</ele>
      </trkpt>
      <trkpt lat="44.18778" lon="7.04417">
        <ele>893.4</ele>
      </trkpt>
      <trkpt lat="44.18756" lon="7.0448">
        <ele>892.2</ele>
      </trkpt>
      <trkpt lat="44.1873" lon="7.04576">
        <ele>886.8</ele>
      </trkpt>
      <trkpt lat="44.18724" lon="7.04606">
        <ele>890.2</ele>
      </trkpt>
      <trkpt lat="44.18709" lon="7.04612">
        <ele>887.7</ele>
      </trkpt>
      <trkpt lat="44.18658" lon="7.04639">
        <ele>874.6</ele>
      </trkpt>
      <trkpt lat="44.18646" lon="7.04651">
        <ele>874.6</ele>
      </trkpt>
      <trkpt lat="44.18639" lon="7.04662">
        <ele>874.8</ele>
      </trkpt>
      <trkpt lat="44.1863" lon="7.0469">
        <ele>873.1</ele>
      </trkpt>
      <trkpt lat="44.18625" lon="7.04761">
        <ele>873</ele>
      </trkpt>
      <trkpt lat="44.18626" lon="7.04765">
        <ele>873.1</ele>
      </trkpt>
      <trkpt lat="44.18629" lon="7.04769">
        <ele>873.2</ele>
      </trkpt>
      <trkpt lat="44.18629" lon="7.0477">
        <ele>873.3</ele>
      </trkpt>
      <trkpt lat="44.18628" lon="7.0477">
        <ele>873.2</ele>
      </trkpt>
      <trkpt lat="44.18628" lon="7.04771">
        <ele>873.2</ele>
      </trkpt>
      <trkpt lat="44.18627" lon="7.04771">
        <ele>873.2</ele>
      </trkpt>
      <trkpt lat="44.18627" lon="7.04772">
        <ele>873.2</ele>
      </trkpt>
      <trkpt lat="44.18626" lon="7.04772">
        <ele>873.1</ele>
      </trkpt>
      <trkpt lat="44.18626" lon="7.04774">
        <ele>873.1</ele>
      </trkpt>
      <trkpt lat="44.18613" lon="7.0479">
        <ele>872.6</ele>
      </trkpt>
      <trkpt lat="44.18607" lon="7.048">
        <ele>872.3</ele>
      </trkpt>
      <trkpt lat="44.18587" lon="7.04858">
        <ele>872.1</ele>
      </trkpt>
      <trkpt lat="44.18562" lon="7.04917">
        <ele>868.3</ele>
      </trkpt>
      <trkpt lat="44.18557" lon="7.04926">
        <ele>868.4</ele>
      </trkpt>
      <trkpt lat="44.18555" lon="7.04932">
        <ele>868.4</ele>
      </trkpt>
      <trkpt lat="44.18552" lon="7.04938">
        <ele>868.4</ele>
      </trkpt>
      <trkpt lat="44.1854" lon="7.04982">
        <ele>868.1</ele>
      </trkpt>
      <trkpt lat="44.18536" lon="7.05005">
        <ele>867.7</ele>
      </trkpt>
      <trkpt lat="44.18529" lon="7.05098">
        <ele>866.7</ele>
      </trkpt>
      <trkpt lat="44.18528" lon="7.05103">
        <ele>866.7</ele>
      </trkpt>
      <trkpt lat="44.18511" lon="7.0535">
        <ele>865.1</ele>
      </trkpt>
      <trkpt lat="44.1851" lon="7.05353">
        <ele>865.3</ele>
      </trkpt>
      <trkpt lat="44.18509" lon="7.05368">
        <ele>866.2</ele>
      </trkpt>
      <trkpt lat="44.18507" lon="7.05377">
        <ele>866.5</ele>
      </trkpt>
      <trkpt lat="44.18507" lon="7.05379">
        <ele>866.6</ele>
      </trkpt>
      <trkpt lat="44.18501" lon="7.05401">
        <ele>866.6</ele>
      </trkpt>
      <trkpt lat="44.18501" lon="7.05402">
        <ele>866.6</ele>
      </trkpt>
      <trkpt lat="44.18493" lon="7.05423">
        <ele>864.7</ele>
      </trkpt>
      <trkpt lat="44.18493" lon="7.05424">
        <ele>864.6</ele>
      </trkpt>
      <trkpt lat="44.18476" lon="7.05448">
        <ele>862.7</ele>
      </trkpt>
      <trkpt lat="44.18473" lon="7.05448">
        <ele>862.5</ele>
      </trkpt>
      <trkpt lat="44.18472" lon="7.05449">
        <ele>862.5</ele>
      </trkpt>
      <trkpt lat="44.18471" lon="7.05449">
        <ele>862.4</ele>
      </trkpt>
      <trkpt lat="44.18469" lon="7.05451">
        <ele>862.3</ele>
      </trkpt>
      <trkpt lat="44.18468" lon="7.05451">
        <ele>862.3</ele>
      </trkpt>
      <trkpt lat="44.18466" lon="7.05453">
        <ele>862.2</ele>
      </trkpt>
      <trkpt lat="44.18466" lon="7.05454">
        <ele>862.2</ele>
      </trkpt>
      <trkpt lat="44.18465" lon="7.05454">
        <ele>862.1</ele>
      </trkpt>
      <trkpt lat="44.18465" lon="7.05455">
        <ele>862.1</ele>
      </trkpt>
      <trkpt lat="44.18464" lon="7.05456">
        <ele>862</ele>
      </trkpt>
      <trkpt lat="44.18464" lon="7.05457">
        <ele>862</ele>
      </trkpt>
      <trkpt lat="44.18463" lon="7.05458">
        <ele>862</ele>
      </trkpt>
      <trkpt lat="44.18463" lon="7.05462">
        <ele>862</ele>
      </trkpt>
      <trkpt lat="44.18462" lon="7.05463">
        <ele>861.9</ele>
      </trkpt>
      <trkpt lat="44.18462" lon="7.05468">
        <ele>861.9</ele>
      </trkpt>
      <trkpt lat="44.18463" lon="7.05469">
        <ele>862</ele>
      </trkpt>
      <trkpt lat="44.18463" lon="7.05476">
        <ele>862</ele>
      </trkpt>
      <trkpt lat="44.18464" lon="7.05477">
        <ele>862</ele>
      </trkpt>
      <trkpt lat="44.18464" lon="7.05478">
        <ele>862.1</ele>
      </trkpt>
      <trkpt lat="44.18465" lon="7.05479">
        <ele>862.1</ele>
      </trkpt>
      <trkpt lat="44.18465" lon="7.0548">
        <ele>862.1</ele>
      </trkpt>
      <trkpt lat="44.1847" lon="7.05485">
        <ele>862.5</ele>
      </trkpt>
      <trkpt lat="44.18471" lon="7.05485">
        <ele>862.6</ele>
      </trkpt>
      <trkpt lat="44.18472" lon="7.05486">
        <ele>862.7</ele>
      </trkpt>
      <trkpt lat="44.18475" lon="7.05486">
        <ele>862.9</ele>
      </trkpt>
      <trkpt lat="44.18476" lon="7.05487">
        <ele>863</ele>
      </trkpt>
      <trkpt lat="44.18477" lon="7.05486">
        <ele>863</ele>
      </trkpt>
      <trkpt lat="44.1848" lon="7.05486">
        <ele>863.2</ele>
      </trkpt>
      <trkpt lat="44.18481" lon="7.05485">
        <ele>863.3</ele>
      </trkpt>
      <trkpt lat="44.18487" lon="7.05482">
        <ele>863.5</ele>
      </trkpt>
      <trkpt lat="44.18494" lon="7.0548">
        <ele>863.8</ele>
      </trkpt>
      <trkpt lat="44.18495" lon="7.05479">
        <ele>863.7</ele>
      </trkpt>
      <trkpt lat="44.185" lon="7.05476">
        <ele>869</ele>
      </trkpt>
      <trkpt lat="44.1851" lon="7.05465">
        <ele>869.7</ele>
      </trkpt>
      <trkpt lat="44.18521" lon="7.05457">
        <ele>870.2</ele>
      </trkpt>
      <trkpt lat="44.18554" lon="7.05425">
        <ele>871.6</ele>
      </trkpt>
      <trkpt lat="44.18588" lon="7.05387">
        <ele>875</ele>
      </trkpt>
      <trkpt lat="44.18597" lon="7.05373">
        <ele>875.1</ele>
      </trkpt>
      <trkpt lat="44.18601" lon="7.05359">
        <ele>874.7</ele>
      </trkpt>
      <trkpt lat="44.18605" lon="7.05337">
        <ele>874</ele>
      </trkpt>
      <trkpt lat="44.18613" lon="7.05319">
        <ele>874.5</ele>
      </trkpt>
      <trkpt lat="44.18629" lon="7.05318">
        <ele>875.9</ele>
      </trkpt>
      <trkpt lat="44.18634" lon="7.05319">
        <ele>876.3</ele>
      </trkpt>
      <trkpt lat="44.18653" lon="7.05326">
        <ele>878</ele>
      </trkpt>
      <trkpt lat="44.18662" lon="7.05331">
        <ele>879.2</ele>
      </trkpt>
      <trkpt lat="44.18679" lon="7.05343">
        <ele>884.8</ele>
      </trkpt>
      <trkpt lat="44.18688" lon="7.05347">
        <ele>886.7</ele>
      </trkpt>
      <trkpt lat="44.18733" lon="7.05356">
        <ele>892.9</ele>
      </trkpt>
      <trkpt lat="44.18741" lon="7.05355">
        <ele>893.7</ele>
      </trkpt>
      <trkpt lat="44.18744" lon="7.05354">
        <ele>894.1</ele>
      </trkpt>
      <trkpt lat="44.18746" lon="7.05352">
        <ele>894.4</ele>
      </trkpt>
      <trkpt lat="44.18747" lon="7.0535">
        <ele>894.8</ele>
      </trkpt>
      <trkpt lat="44.18747" lon="7.05342">
        <ele>896.2</ele>
      </trkpt>
      <trkpt lat="44.18746" lon="7.05338">
        <ele>897</ele>
      </trkpt>
      <trkpt lat="44.18744" lon="7.05334">
        <ele>897</ele>
      </trkpt>
      <trkpt lat="44.18738" lon="7.05328">
        <ele>897.1</ele>
      </trkpt>
      <trkpt lat="44.18732" lon="7.0532">
        <ele>896.3</ele>
      </trkpt>
      <trkpt lat="44.18728" lon="7.05312">
        <ele>895.9</ele>
      </trkpt>
      <trkpt lat="44.18724" lon="7.05285">
        <ele>897.3</ele>
      </trkpt>
      <trkpt lat="44.18723" lon="7.05247">
        <ele>906.1</ele>
      </trkpt>
      <trkpt lat="44.18712" lon="7.05186">
        <ele>905.5</ele>
      </trkpt>
      <trkpt lat="44.18711" lon="7.0517">
        <ele>905.8</ele>
      </trkpt>
      <trkpt lat="44.18703" lon="7.05126">
        <ele>909.8</ele>
      </trkpt>
      <trkpt lat="44.18703" lon="7.05119">
        <ele>910.1</ele>
      </trkpt>
      <trkpt lat="44.18704" lon="7.05118">
        <ele>910.4</ele>
      </trkpt>
      <trkpt lat="44.18705" lon="7.05116">
        <ele>910.8</ele>
      </trkpt>
      <trkpt lat="44.18707" lon="7.05115">
        <ele>911.3</ele>
      </trkpt>
      <trkpt lat="44.18711" lon="7.05115">
        <ele>912.4</ele>
      </trkpt>
      <trkpt lat="44.18715" lon="7.0512">
        <ele>913.2</ele>
      </trkpt>
      <trkpt lat="44.18715" lon="7.05141">
        <ele>912.5</ele>
      </trkpt>
      <trkpt lat="44.18725" lon="7.05176">
        <ele>911.1</ele>
      </trkpt>
      <trkpt lat="44.18754" lon="7.05252">
        <ele>918.6</ele>
      </trkpt>
      <trkpt lat="44.18768" lon="7.05282">
        <ele>925.9</ele>
      </trkpt>
      <trkpt lat="44.18775" lon="7.05294">
        <ele>926.1</ele>
      </trkpt>
      <trkpt lat="44.18788" lon="7.0531">
        <ele>927.2</ele>
      </trkpt>
      <trkpt lat="44.18797" lon="7.05318">
        <ele>929</ele>
      </trkpt>
      <trkpt lat="44.1882" lon="7.0533">
        <ele>934.2</ele>
      </trkpt>
      <trkpt lat="44.18838" lon="7.05336">
        <ele>938.7</ele>
      </trkpt>
      <trkpt lat="44.18856" lon="7.05344">
        <ele>944.1</ele>
      </trkpt>
      <trkpt lat="44.1886" lon="7.05345">
        <ele>945.3</ele>
      </trkpt>
      <trkpt lat="44.1887" lon="7.05353">
        <ele>947.9</ele>
      </trkpt>
      <trkpt lat="44.18884" lon="7.05367">
        <ele>949.6</ele>
      </trkpt>
      <trkpt lat="44.18904" lon="7.05393">
        <ele>946.7</ele>
      </trkpt>
      <trkpt lat="44.18923" lon="7.05423">
        <ele>950.9</ele>
      </trkpt>
      <trkpt lat="44.18972" lon="7.05526">
        <ele>954.7</ele>
      </trkpt>
      <trkpt lat="44.1898" lon="7.05538">
        <ele>954.6</ele>
      </trkpt>
      <trkpt lat="44.19047" lon="7.05617">
        <ele>974.8</ele>
      </trkpt>
      <trkpt lat="44.1907" lon="7.05639">
        <ele>974.6</ele>
      </trkpt>
      <trkpt lat="44.1907" lon="7.0564">
        <ele>974.3</ele>
      </trkpt>
      <trkpt lat="44.19078" lon="7.05649">
        <ele>973.2</ele>
      </trkpt>
      <trkpt lat="44.19098" lon="7.05676">
        <ele>979.2</ele>
      </trkpt>
      <trkpt lat="44.19099" lon="7.05679">
        <ele>979.9</ele>
      </trkpt>
      <trkpt lat="44.19115" lon="7.05708">
        <ele>984.7</ele>
      </trkpt>
      <trkpt lat="44.19117" lon="7.05715">
        <ele>984.8</ele>
      </trkpt>
      <trkpt lat="44.19119" lon="7.05719">
        <ele>985.1</ele>
      </trkpt>
      <trkpt lat="44.19126" lon="7.05741">
        <ele>986.6</ele>
      </trkpt>
      <trkpt lat="44.19159" lon="7.05826">
        <ele>987.4</ele>
      </trkpt>
      <trkpt lat="44.19177" lon="7.05862">
        <ele>996.7</ele>
      </trkpt>
      <trkpt lat="44.1918" lon="7.05866">
        <ele>997.1</ele>
      </trkpt>
      <trkpt lat="44.19187" lon="7.05873">
        <ele>997.7</ele>
      </trkpt>
      <trkpt lat="44.19211" lon="7.05889">
        <ele>1000.5</ele>
      </trkpt>
      <trkpt lat="44.19212" lon="7.05889">
        <ele>1000.7</ele>
      </trkpt>
      <trkpt lat="44.19226" lon="7.05898">
        <ele>1002</ele>
      </trkpt>
      <trkpt lat="44.19228" lon="7.059">
        <ele>1002.1</ele>
      </trkpt>
      <trkpt lat="44.19245" lon="7.0591">
        <ele>1002.4</ele>
      </trkpt>
      <trkpt lat="44.1926" lon="7.05923">
        <ele>1010</ele>
      </trkpt>
      <trkpt lat="44.19268" lon="7.05928">
        <ele>1014.4</ele>
      </trkpt>
      <trkpt lat="44.19283" lon="7.05943">
        <ele>1020.2</ele>
      </trkpt>
      <trkpt lat="44.19283" lon="7.05944">
        <ele>1020.1</ele>
      </trkpt>
      <trkpt lat="44.19294" lon="7.05963">
        <ele>1021.3</ele>
      </trkpt>
      <trkpt lat="44.19302" lon="7.05985">
        <ele>1020.6</ele>
      </trkpt>
      <trkpt lat="44.19323" lon="7.06026">
        <ele>1026.4</ele>
      </trkpt>
      <trkpt lat="44.19333" lon="7.06042">
        <ele>1027.5</ele>
      </trkpt>
      <trkpt lat="44.19335" lon="7.06044">
        <ele>1026.2</ele>
      </trkpt>
      <trkpt lat="44.19339" lon="7.0605">
        <ele>1026.2</ele>
      </trkpt>
      <trkpt lat="44.19352" lon="7.06062">
        <ele>1026.3</ele>
      </trkpt>
      <trkpt lat="44.19366" lon="7.06069">
        <ele>1026.8</ele>
      </trkpt>
      <trkpt lat="44.19367" lon="7.0607">
        <ele>1026.9</ele>
      </trkpt>
      <trkpt lat="44.19384" lon="7.06072">
        <ele>1027.5</ele>
      </trkpt>
      <trkpt lat="44.19411" lon="7.06067">
        <ele>1028.2</ele>
      </trkpt>
      <trkpt lat="44.19427" lon="7.06067">
        <ele>1036.2</ele>
      </trkpt>
      <trkpt lat="44.19446" lon="7.0607">
        <ele>1039.2</ele>
      </trkpt>
      <trkpt lat="44.19458" lon="7.06074">
        <ele>1040.5</ele>
      </trkpt>
      <trkpt lat="44.19471" lon="7.0608">
        <ele>1040.8</ele>
      </trkpt>
      <trkpt lat="44.19516" lon="7.06108">
        <ele>1049.4</ele>
      </trkpt>
      <trkpt lat="44.19531" lon="7.06121">
        <ele>1053</ele>
      </trkpt>
      <trkpt lat="44.19546" lon="7.06141">
        <ele>1054.5</ele>
      </trkpt>
      <trkpt lat="44.19562" lon="7.06175">
        <ele>1055.6</ele>
      </trkpt>
      <trkpt lat="44.19581" lon="7.06226">
        <ele>1056.9</ele>
      </trkpt>
      <trkpt lat="44.19586" lon="7.06229">
        <ele>1069.3</ele>
      </trkpt>
      <trkpt lat="44.19589" lon="7.06228">
        <ele>1070.1</ele>
      </trkpt>
      <trkpt lat="44.19591" lon="7.06226">
        <ele>1071</ele>
      </trkpt>
      <trkpt lat="44.19593" lon="7.06222">
        <ele>1072.3</ele>
      </trkpt>
      <trkpt lat="44.19593" lon="7.06219">
        <ele>1072.8</ele>
      </trkpt>
      <trkpt lat="44.1959" lon="7.0621">
        <ele>1073.2</ele>
      </trkpt>
      <trkpt lat="44.19583" lon="7.06198">
        <ele>1056.6</ele>
      </trkpt>
      <trkpt lat="44.19581" lon="7.06193">
        <ele>1056.5</ele>
      </trkpt>
      <trkpt lat="44.19581" lon="7.06192">
        <ele>1056.5</ele>
      </trkpt>
      <trkpt lat="44.1958" lon="7.0619">
        <ele>1056.5</ele>
      </trkpt>
      <trkpt lat="44.19582" lon="7.06182">
        <ele>1056.7</ele>
      </trkpt>
      <trkpt lat="44.19583" lon="7.06181">
        <ele>1056.8</ele>
      </trkpt>
      <trkpt lat="44.19583" lon="7.06179">
        <ele>1056.9</ele>
      </trkpt>
      <trkpt lat="44.19584" lon="7.06179">
        <ele>1066.8</ele>
      </trkpt>
      <trkpt lat="44.19585" lon="7.06178">
        <ele>1066.5</ele>
      </trkpt>
      <trkpt lat="44.19586" lon="7.06178">
        <ele>1066.6</ele>
      </trkpt>
      <trkpt lat="44.19589" lon="7.06177">
        <ele>1067</ele>
      </trkpt>
      <trkpt lat="44.19591" lon="7.06178">
        <ele>1068.1</ele>
      </trkpt>
      <trkpt lat="44.19592" lon="7.06179">
        <ele>1068.8</ele>
      </trkpt>
      <trkpt lat="44.19594" lon="7.0618">
        <ele>1069.9</ele>
      </trkpt>
      <trkpt lat="44.19596" lon="7.06183">
        <ele>1071.5</ele>
      </trkpt>
      <trkpt lat="44.19596" lon="7.06184">
        <ele>1071.7</ele>
      </trkpt>
      <trkpt lat="44.196" lon="7.06194">
        <ele>1074.6</ele>
      </trkpt>
      <trkpt lat="44.19608" lon="7.06223">
        <ele>1076</ele>
      </trkpt>
      <trkpt lat="44.1961" lon="7.06242">
        <ele>1074.4</ele>
      </trkpt>
      <trkpt lat="44.19613" lon="7.06252">
        <ele>1075.7</ele>
      </trkpt>
      <trkpt lat="44.19625" lon="7.0628">
        <ele>1081.5</ele>
      </trkpt>
      <trkpt lat="44.19633" lon="7.06307">
        <ele>1084.2</ele>
      </trkpt>
      <trkpt lat="44.19637" lon="7.06358">
        <ele>1088.5</ele>
      </trkpt>
      <trkpt lat="44.19637" lon="7.06373">
        <ele>1088.1</ele>
      </trkpt>
      <trkpt lat="44.19639" lon="7.06393">
        <ele>1087.8</ele>
      </trkpt>
      <trkpt lat="44.19646" lon="7.06416">
        <ele>1087.4</ele>
      </trkpt>
      <trkpt lat="44.19651" lon="7.06426">
        <ele>1088.7</ele>
      </trkpt>
      <trkpt lat="44.19679" lon="7.06461">
        <ele>1092.5</ele>
      </trkpt>
      <trkpt lat="44.19687" lon="7.06475">
        <ele>1091.5</ele>
      </trkpt>
      <trkpt lat="44.19691" lon="7.06492">
        <ele>1089.7</ele>
      </trkpt>
      <trkpt lat="44.19692" lon="7.06532">
        <ele>1092.1</ele>
      </trkpt>
      <trkpt lat="44.19691" lon="7.06542">
        <ele>1092.9</ele>
      </trkpt>
      <trkpt lat="44.19684" lon="7.06578">
        <ele>1091.1</ele>
      </trkpt>
      <trkpt lat="44.19683" lon="7.06591">
        <ele>1095.6</ele>
      </trkpt>
      <trkpt lat="44.19682" lon="7.06593">
        <ele>1095.6</ele>
      </trkpt>
      <trkpt lat="44.19684" lon="7.06607">
        <ele>1099.3</ele>
      </trkpt>
      <trkpt lat="44.1969" lon="7.06621">
        <ele>1102.5</ele>
      </trkpt>
      <trkpt lat="44.197" lon="7.06638">
        <ele>1104.9</ele>
      </trkpt>
      <trkpt lat="44.19705" lon="7.06641">
        <ele>1105.5</ele>
      </trkpt>
      <trkpt lat="44.19707" lon="7.06641">
        <ele>1105.7</ele>
      </trkpt>
      <trkpt lat="44.19711" lon="7.06639">
        <ele>1106.1</ele>
      </trkpt>
      <trkpt lat="44.19713" lon="7.06637">
        <ele>1106.2</ele>
      </trkpt>
      <trkpt lat="44.19713" lon="7.06629">
        <ele>1106</ele>
      </trkpt>
      <trkpt lat="44.19706" lon="7.06619">
        <ele>1104.7</ele>
      </trkpt>
      <trkpt lat="44.19699" lon="7.066">
        <ele>1102</ele>
      </trkpt>
      <trkpt lat="44.19698" lon="7.06577">
        <ele>1095.4</ele>
      </trkpt>
      <trkpt lat="44.19699" lon="7.06576">
        <ele>1095.7</ele>
      </trkpt>
      <trkpt lat="44.19699" lon="7.06575">
        <ele>1095.7</ele>
      </trkpt>
      <trkpt lat="44.197" lon="7.06573">
        <ele>1095.9</ele>
      </trkpt>
      <trkpt lat="44.19701" lon="7.06573">
        <ele>1096.2</ele>
      </trkpt>
      <trkpt lat="44.19703" lon="7.06572">
        <ele>1096.8</ele>
      </trkpt>
      <trkpt lat="44.19704" lon="7.06572">
        <ele>1097.1</ele>
      </trkpt>
      <trkpt lat="44.19705" lon="7.06571">
        <ele>1097.4</ele>
      </trkpt>
      <trkpt lat="44.19709" lon="7.06573">
        <ele>1098.7</ele>
      </trkpt>
      <trkpt lat="44.1971" lon="7.06574">
        <ele>1099</ele>
      </trkpt>
      <trkpt lat="44.19714" lon="7.06583">
        <ele>1100.7</ele>
      </trkpt>
      <trkpt lat="44.19728" lon="7.06646">
        <ele>1108.1</ele>
      </trkpt>
      <trkpt lat="44.19738" lon="7.06666">
        <ele>1110.4</ele>
      </trkpt>
      <trkpt lat="44.19802" lon="7.06776">
        <ele>1129.7</ele>
      </trkpt>
      <trkpt lat="44.19812" lon="7.06796">
        <ele>1129.6</ele>
      </trkpt>
      <trkpt lat="44.19814" lon="7.06805">
        <ele>1129.2</ele>
      </trkpt>
      <trkpt lat="44.19812" lon="7.06814">
        <ele>1128.6</ele>
      </trkpt>
      <trkpt lat="44.19809" lon="7.06818">
        <ele>1128.4</ele>
      </trkpt>
      <trkpt lat="44.19792" lon="7.06829">
        <ele>1127</ele>
      </trkpt>
      <trkpt lat="44.19787" lon="7.06831">
        <ele>1126.6</ele>
      </trkpt>
      <trkpt lat="44.19785" lon="7.0683">
        <ele>1126.5</ele>
      </trkpt>
      <trkpt lat="44.19783" lon="7.0683">
        <ele>1126.3</ele>
      </trkpt>
      <trkpt lat="44.19782" lon="7.06828">
        <ele>1126.2</ele>
      </trkpt>
      <trkpt lat="44.19767" lon="7.06812">
        <ele>1125.1</ele>
      </trkpt>
      <trkpt lat="44.19763" lon="7.06811">
        <ele>1124.8</ele>
      </trkpt>
      <trkpt lat="44.19761" lon="7.0681">
        <ele>1124.7</ele>
      </trkpt>
      <trkpt lat="44.19758" lon="7.06813">
        <ele>1124.6</ele>
      </trkpt>
      <trkpt lat="44.19756" lon="7.06818">
        <ele>1124.6</ele>
      </trkpt>
      <trkpt lat="44.19756" lon="7.06824">
        <ele>1124.5</ele>
      </trkpt>
      <trkpt lat="44.19758" lon="7.06829">
        <ele>1124.6</ele>
      </trkpt>
      <trkpt lat="44.19796" lon="7.06872">
        <ele>1143</ele>
      </trkpt>
      <trkpt lat="44.19818" lon="7.06911">
        <ele>1140.3</ele>
      </trkpt>
      <trkpt lat="44.19821" lon="7.06915">
        <ele>1138.9</ele>
      </trkpt>
      <trkpt lat="44.19823" lon="7.06919">
        <ele>1150.2</ele>
      </trkpt>
      <trkpt lat="44.19825" lon="7.06926">
        <ele>1152.5</ele>
      </trkpt>
      <trkpt lat="44.19825" lon="7.06933">
        <ele>1158.4</ele>
      </trkpt>
      <trkpt lat="44.19826" lon="7.06938">
        <ele>1161.7</ele>
      </trkpt>
      <trkpt lat="44.19829" lon="7.06946">
        <ele>1165.7</ele>
      </trkpt>
      <trkpt lat="44.19836" lon="7.06952">
        <ele>1150.9</ele>
      </trkpt>
      <trkpt lat="44.19858" lon="7.06952">
        <ele>1153.3</ele>
      </trkpt>
      <trkpt lat="44.19869" lon="7.06962">
        <ele>1155.4</ele>
      </trkpt>
      <trkpt lat="44.19888" lon="7.06986">
        <ele>1156.6</ele>
      </trkpt>
      <trkpt lat="44.19912" lon="7.07025">
        <ele>1160.6</ele>
      </trkpt>
      <trkpt lat="44.19912" lon="7.07029">
        <ele>1161</ele>
      </trkpt>
      <trkpt lat="44.19913" lon="7.07033">
        <ele>1161.3</ele>
      </trkpt>
      <trkpt lat="44.19911" lon="7.07041">
        <ele>1161.8</ele>
      </trkpt>
      <trkpt lat="44.19898" lon="7.07051">
        <ele>1163.1</ele>
      </trkpt>
      <trkpt lat="44.19892" lon="7.07051">
        <ele>1163.9</ele>
      </trkpt>
      <trkpt lat="44.19887" lon="7.07048">
        <ele>1164.5</ele>
      </trkpt>
      <trkpt lat="44.19886" lon="7.07046">
        <ele>1164.6</ele>
      </trkpt>
      <trkpt lat="44.19876" lon="7.07033">
        <ele>1164.7</ele>
      </trkpt>
      <trkpt lat="44.1987" lon="7.07029">
        <ele>1164.9</ele>
      </trkpt>
      <trkpt lat="44.19866" lon="7.07029">
        <ele>1165.2</ele>
      </trkpt>
      <trkpt lat="44.19863" lon="7.0703">
        <ele>1165.6</ele>
      </trkpt>
      <trkpt lat="44.19862" lon="7.07031">
        <ele>1165.8</ele>
      </trkpt>
      <trkpt lat="44.19861" lon="7.07033">
        <ele>1166.2</ele>
      </trkpt>
      <trkpt lat="44.19861" lon="7.07035">
        <ele>1166.5</ele>
      </trkpt>
      <trkpt lat="44.1986" lon="7.07037">
        <ele>1166.9</ele>
      </trkpt>
      <trkpt lat="44.19861" lon="7.07039">
        <ele>1167.1</ele>
      </trkpt>
      <trkpt lat="44.19861" lon="7.07041">
        <ele>1167.5</ele>
      </trkpt>
      <trkpt lat="44.19862" lon="7.07044">
        <ele>1167.9</ele>
      </trkpt>
      <trkpt lat="44.19864" lon="7.07045">
        <ele>1167.7</ele>
      </trkpt>
      <trkpt lat="44.19864" lon="7.07046">
        <ele>1167.9</ele>
      </trkpt>
      <trkpt lat="44.19867" lon="7.07049">
        <ele>1167.9</ele>
      </trkpt>
      <trkpt lat="44.19882" lon="7.07057">
        <ele>1165.9</ele>
      </trkpt>
      <trkpt lat="44.1991" lon="7.07077">
        <ele>1158.1</ele>
      </trkpt>
      <trkpt lat="44.19911" lon="7.07079">
        <ele>1157.3</ele>
      </trkpt>
      <trkpt lat="44.19921" lon="7.07092">
        <ele>1160.8</ele>
      </trkpt>
      <trkpt lat="44.19925" lon="7.07099">
        <ele>1164.6</ele>
      </trkpt>
      <trkpt lat="44.19933" lon="7.07154">
        <ele>1171</ele>
      </trkpt>
      <trkpt lat="44.19938" lon="7.07176">
        <ele>1175.8</ele>
      </trkpt>
      <trkpt lat="44.19976" lon="7.07267">
        <ele>1193.8</ele>
      </trkpt>
      <trkpt lat="44.19985" lon="7.0728">
        <ele>1195.1</ele>
      </trkpt>
      <trkpt lat="44.20004" lon="7.073">
        <ele>1194.4</ele>
      </trkpt>
      <trkpt lat="44.20029" lon="7.07341">
        <ele>1202.2</ele>
      </trkpt>
      <trkpt lat="44.20035" lon="7.07345">
        <ele>1202.6</ele>
      </trkpt>
      <trkpt lat="44.20049" lon="7.07336">
        <ele>1201.8</ele>
      </trkpt>
      <trkpt lat="44.20053" lon="7.07326">
        <ele>1197.7</ele>
      </trkpt>
      <trkpt lat="44.20053" lon="7.07314">
        <ele>1197.8</ele>
      </trkpt>
      <trkpt lat="44.20048" lon="7.07285">
        <ele>1197.9</ele>
      </trkpt>
      <trkpt lat="44.2004" lon="7.07256">
        <ele>1196.3</ele>
      </trkpt>
      <trkpt lat="44.20025" lon="7.07222">
        <ele>1196.6</ele>
      </trkpt>
      <trkpt lat="44.20025" lon="7.07214">
        <ele>1197.4</ele>
      </trkpt>
      <trkpt lat="44.20027" lon="7.07209">
        <ele>1198.2</ele>
      </trkpt>
      <trkpt lat="44.20029" lon="7.07208">
        <ele>1198.8</ele>
      </trkpt>
      <trkpt lat="44.20032" lon="7.07208">
        <ele>1199.6</ele>
      </trkpt>
      <trkpt lat="44.20033" lon="7.07209">
        <ele>1199.8</ele>
      </trkpt>
      <trkpt lat="44.20035" lon="7.0721">
        <ele>1200.3</ele>
      </trkpt>
      <trkpt lat="44.20043" lon="7.07227">
        <ele>1201.4</ele>
      </trkpt>
      <trkpt lat="44.20043" lon="7.07228">
        <ele>1201.4</ele>
      </trkpt>
      <trkpt lat="44.20058" lon="7.07253">
        <ele>1202.3</ele>
      </trkpt>
      <trkpt lat="44.20068" lon="7.07275">
        <ele>1202.1</ele>
      </trkpt>
      <trkpt lat="44.2008" lon="7.07312">
        <ele>1198.8</ele>
      </trkpt>
      <trkpt lat="44.20086" lon="7.07353">
        <ele>1206.9</ele>
      </trkpt>
      <trkpt lat="44.201" lon="7.07391">
        <ele>1209.5</ele>
      </trkpt>
      <trkpt lat="44.20106" lon="7.07402">
        <ele>1209.6</ele>
      </trkpt>
      <trkpt lat="44.20107" lon="7.07416">
        <ele>1208.8</ele>
      </trkpt>
      <trkpt lat="44.20105" lon="7.07437">
        <ele>1211.3</ele>
      </trkpt>
      <trkpt lat="44.20097" lon="7.07486">
        <ele>1213.2</ele>
      </trkpt>
      <trkpt lat="44.20093" lon="7.07524">
        <ele>1218.7</ele>
      </trkpt>
      <trkpt lat="44.20094" lon="7.07541">
        <ele>1220.9</ele>
      </trkpt>
      <trkpt lat="44.20095" lon="7.07546">
        <ele>1221.3</ele>
      </trkpt>
      <trkpt lat="44.20099" lon="7.07552">
        <ele>1221.9</ele>
      </trkpt>
      <trkpt lat="44.20103" lon="7.07552">
        <ele>1222.2</ele>
      </trkpt>
      <trkpt lat="44.20104" lon="7.07551">
        <ele>1222.3</ele>
      </trkpt>
      <trkpt lat="44.20105" lon="7.07551">
        <ele>1222.4</ele>
      </trkpt>
      <trkpt lat="44.20106" lon="7.07549">
        <ele>1222.5</ele>
      </trkpt>
      <trkpt lat="44.20107" lon="7.07548">
        <ele>1222.5</ele>
      </trkpt>
      <trkpt lat="44.20114" lon="7.0749">
        <ele>1216.2</ele>
      </trkpt>
      <trkpt lat="44.20124" lon="7.07455">
        <ele>1216.9</ele>
      </trkpt>
      <trkpt lat="44.20138" lon="7.0742">
        <ele>1219.8</ele>
      </trkpt>
      <trkpt lat="44.2014" lon="7.07413">
        <ele>1219.8</ele>
      </trkpt>
      <trkpt lat="44.20144" lon="7.07409">
        <ele>1221</ele>
      </trkpt>
      <trkpt lat="44.20149" lon="7.07409">
        <ele>1222.6</ele>
      </trkpt>
      <trkpt lat="44.20151" lon="7.07411">
        <ele>1223.4</ele>
      </trkpt>
      <trkpt lat="44.20152" lon="7.07413">
        <ele>1223.9</ele>
      </trkpt>
      <trkpt lat="44.20152" lon="7.07423">
        <ele>1224</ele>
      </trkpt>
      <trkpt lat="44.2015" lon="7.0743">
        <ele>1222.7</ele>
      </trkpt>
      <trkpt lat="44.20139" lon="7.0745">
        <ele>1219.5</ele>
      </trkpt>
      <trkpt lat="44.20135" lon="7.0746">
        <ele>1219.1</ele>
      </trkpt>
      <trkpt lat="44.20133" lon="7.07474">
        <ele>1219.4</ele>
      </trkpt>
      <trkpt lat="44.20133" lon="7.0749">
        <ele>1220.3</ele>
      </trkpt>
      <trkpt lat="44.20138" lon="7.07513">
        <ele>1225.8</ele>
      </trkpt>
      <trkpt lat="44.2014" lon="7.07529">
        <ele>1226.1</ele>
      </trkpt>
      <trkpt lat="44.2014" lon="7.07565">
        <ele>1227.9</ele>
      </trkpt>
      <trkpt lat="44.20132" lon="7.0766">
        <ele>1237.9</ele>
      </trkpt>
      <trkpt lat="44.20126" lon="7.07706">
        <ele>1248.3</ele>
      </trkpt>
      <trkpt lat="44.20126" lon="7.07723">
        <ele>1249.7</ele>
      </trkpt>
      <trkpt lat="44.20129" lon="7.07729">
        <ele>1250.3</ele>
      </trkpt>
      <trkpt lat="44.20135" lon="7.07729">
        <ele>1250.6</ele>
      </trkpt>
      <trkpt lat="44.2014" lon="7.07724">
        <ele>1250.4</ele>
      </trkpt>
      <trkpt lat="44.2014" lon="7.07723">
        <ele>1250.4</ele>
      </trkpt>
      <trkpt lat="44.20141" lon="7.07722">
        <ele>1250.3</ele>
      </trkpt>
      <trkpt lat="44.20151" lon="7.07656">
        <ele>1240.7</ele>
      </trkpt>
      <trkpt lat="44.20165" lon="7.0762">
        <ele>1237.3</ele>
      </trkpt>
      <trkpt lat="44.20178" lon="7.0757">
        <ele>1248.4</ele>
      </trkpt>
      <trkpt lat="44.20186" lon="7.07529">
        <ele>1252.1</ele>
      </trkpt>
      <trkpt lat="44.2019" lon="7.07486">
        <ele>1250.3</ele>
      </trkpt>
      <trkpt lat="44.20194" lon="7.07471">
        <ele>1253.2</ele>
      </trkpt>
      <trkpt lat="44.202" lon="7.07465">
        <ele>1255.3</ele>
      </trkpt>
      <trkpt lat="44.20205" lon="7.07464">
        <ele>1256.9</ele>
      </trkpt>
      <trkpt lat="44.20207" lon="7.07465">
        <ele>1257.5</ele>
      </trkpt>
      <trkpt lat="44.20207" lon="7.07466">
        <ele>1257.5</ele>
      </trkpt>
      <trkpt lat="44.2021" lon="7.07469">
        <ele>1258.4</ele>
      </trkpt>
      <trkpt lat="44.2021" lon="7.07477">
        <ele>1258.4</ele>
      </trkpt>
      <trkpt lat="44.20201" lon="7.07501">
        <ele>1255</ele>
      </trkpt>
      <trkpt lat="44.20198" lon="7.0752">
        <ele>1254.8</ele>
      </trkpt>
      <trkpt lat="44.20198" lon="7.07584">
        <ele>1259.7</ele>
      </trkpt>
      <trkpt lat="44.20195" lon="7.07627">
        <ele>1262.7</ele>
      </trkpt>
      <trkpt lat="44.20188" lon="7.07662">
        <ele>1259.4</ele>
      </trkpt>
      <trkpt lat="44.20178" lon="7.07767">
        <ele>1271.9</ele>
      </trkpt>
      <trkpt lat="44.20165" lon="7.07838">
        <ele>1265.8</ele>
      </trkpt>
      <trkpt lat="44.20162" lon="7.07868">
        <ele>1268.9</ele>
      </trkpt>
      <trkpt lat="44.20164" lon="7.07886">
        <ele>1270.6</ele>
      </trkpt>
      <trkpt lat="44.20177" lon="7.07947">
        <ele>1291.6</ele>
      </trkpt>
      <trkpt lat="44.20187" lon="7.08017">
        <ele>1299.6</ele>
      </trkpt>
      <trkpt lat="44.20185" lon="7.08044">
        <ele>1303.2</ele>
      </trkpt>
      <trkpt lat="44.20171" lon="7.08095">
        <ele>1303.1</ele>
      </trkpt>
      <trkpt lat="44.20162" lon="7.08113">
        <ele>1307.2</ele>
      </trkpt>
      <trkpt lat="44.20153" lon="7.0812">
        <ele>1309.8</ele>
      </trkpt>
      <trkpt lat="44.20145" lon="7.08118">
        <ele>1310.9</ele>
      </trkpt>
      <trkpt lat="44.20136" lon="7.08117">
        <ele>1312.5</ele>
      </trkpt>
      <trkpt lat="44.20134" lon="7.08115">
        <ele>1312.7</ele>
      </trkpt>
      <trkpt lat="44.2013" lon="7.08108">
        <ele>1312.9</ele>
      </trkpt>
      <trkpt lat="44.2013" lon="7.08106">
        <ele>1312.7</ele>
      </trkpt>
      <trkpt lat="44.20129" lon="7.08104">
        <ele>1312.7</ele>
      </trkpt>
      <trkpt lat="44.20132" lon="7.08071">
        <ele>1300.2</ele>
      </trkpt>
      <trkpt lat="44.2013" lon="7.08054">
        <ele>1299.6</ele>
      </trkpt>
      <trkpt lat="44.20123" lon="7.08031">
        <ele>1298.4</ele>
      </trkpt>
      <trkpt lat="44.20115" lon="7.08013">
        <ele>1298.1</ele>
      </trkpt>
      <trkpt lat="44.20101" lon="7.07997">
        <ele>1290.9</ele>
      </trkpt>
      <trkpt lat="44.20078" lon="7.0798">
        <ele>1307.1</ele>
      </trkpt>
      <trkpt lat="44.20059" lon="7.07963">
        <ele>1310.8</ele>
      </trkpt>
      <trkpt lat="44.20049" lon="7.07947">
        <ele>1311.3</ele>
      </trkpt>
      <trkpt lat="44.20035" lon="7.07912">
        <ele>1303.2</ele>
      </trkpt>
      <trkpt lat="44.20023" lon="7.07875">
        <ele>1304</ele>
      </trkpt>
      <trkpt lat="44.20013" lon="7.07814">
        <ele>1301.7</ele>
      </trkpt>
      <trkpt lat="44.20011" lon="7.07788">
        <ele>1296.9</ele>
      </trkpt>
      <trkpt lat="44.2001" lon="7.07784">
        <ele>1297</ele>
      </trkpt>
      <trkpt lat="44.20009" lon="7.0777">
        <ele>1299</ele>
      </trkpt>
      <trkpt lat="44.20002" lon="7.07759">
        <ele>1304.9</ele>
      </trkpt>
      <trkpt lat="44.20001" lon="7.07759">
        <ele>1305.1</ele>
      </trkpt>
      <trkpt lat="44.2" lon="7.07758">
        <ele>1305.7</ele>
      </trkpt>
      <trkpt lat="44.19998" lon="7.07758">
        <ele>1321.3</ele>
      </trkpt>
      <trkpt lat="44.19997" lon="7.07759">
        <ele>1322.4</ele>
      </trkpt>
      <trkpt lat="44.19996" lon="7.07759">
        <ele>1322.8</ele>
      </trkpt>
      <trkpt lat="44.19994" lon="7.07761">
        <ele>1325.1</ele>
      </trkpt>
      <trkpt lat="44.19992" lon="7.07765">
        <ele>1328.2</ele>
      </trkpt>
      <trkpt lat="44.19992" lon="7.07769">
        <ele>1330.1</ele>
      </trkpt>
      <trkpt lat="44.20003" lon="7.0781">
        <ele>1302.9</ele>
      </trkpt>
      <trkpt lat="44.20001" lon="7.07865">
        <ele>1308.6</ele>
      </trkpt>
      <trkpt lat="44.20005" lon="7.07892">
        <ele>1312</ele>
      </trkpt>
      <trkpt lat="44.2002" lon="7.07951">
        <ele>1321.6</ele>
      </trkpt>
      <trkpt lat="44.20022" lon="7.07964">
        <ele>1323.3</ele>
      </trkpt>
      <trkpt lat="44.20022" lon="7.07968">
        <ele>1324.3</ele>
      </trkpt>
      <trkpt lat="44.20028" lon="7.07987">
        <ele>1326.6</ele>
      </trkpt>
      <trkpt lat="44.2007" lon="7.08046">
        <ele>1334.4</ele>
      </trkpt>
      <trkpt lat="44.20076" lon="7.08062">
        <ele>1333.9</ele>
      </trkpt>
      <trkpt lat="44.2008" lon="7.08082">
        <ele>1327.5</ele>
      </trkpt>
      <trkpt lat="44.20084" lon="7.08134">
        <ele>1323.3</ele>
      </trkpt>
      <trkpt lat="44.20087" lon="7.08271">
        <ele>1342</ele>
      </trkpt>
      <trkpt lat="44.20094" lon="7.08371">
        <ele>1344.9</ele>
      </trkpt>
      <trkpt lat="44.201" lon="7.08407">
        <ele>1347.5</ele>
      </trkpt>
      <trkpt lat="44.20108" lon="7.08438">
        <ele>1351.2</ele>
      </trkpt>
      <trkpt lat="44.20118" lon="7.08543">
        <ele>1360.8</ele>
      </trkpt>
      <trkpt lat="44.20122" lon="7.08561">
        <ele>1360.8</ele>
      </trkpt>
      <trkpt lat="44.20129" lon="7.08577">
        <ele>1359.5</ele>
      </trkpt>
      <trkpt lat="44.2013" lon="7.08578">
        <ele>1359.3</ele>
      </trkpt>
      <trkpt lat="44.20138" lon="7.08594">
        <ele>1363.7</ele>
      </trkpt>
      <trkpt lat="44.20139" lon="7.086">
        <ele>1364.1</ele>
      </trkpt>
      <trkpt lat="44.20139" lon="7.08604">
        <ele>1364.6</ele>
      </trkpt>
      <trkpt lat="44.20135" lon="7.08614">
        <ele>1366.7</ele>
      </trkpt>
      <trkpt lat="44.20131" lon="7.08618">
        <ele>1367.8</ele>
      </trkpt>
      <trkpt lat="44.20125" lon="7.08619">
        <ele>1369</ele>
      </trkpt>
      <trkpt lat="44.20117" lon="7.08617">
        <ele>1370.3</ele>
      </trkpt>
      <trkpt lat="44.20114" lon="7.08615">
        <ele>1370.7</ele>
      </trkpt>
      <trkpt lat="44.20109" lon="7.0861">
        <ele>1371.2</ele>
      </trkpt>
      <trkpt lat="44.20103" lon="7.08599">
        <ele>1372</ele>
      </trkpt>
      <trkpt lat="44.201" lon="7.08588">
        <ele>1372.8</ele>
      </trkpt>
      <trkpt lat="44.20098" lon="7.08564">
        <ele>1366.3</ele>
      </trkpt>
      <trkpt lat="44.20095" lon="7.08557">
        <ele>1365.7</ele>
      </trkpt>
      <trkpt lat="44.20093" lon="7.08556">
        <ele>1365.8</ele>
      </trkpt>
      <trkpt lat="44.2009" lon="7.08556">
        <ele>1366.2</ele>
      </trkpt>
      <trkpt lat="44.2009" lon="7.08557">
        <ele>1366.3</ele>
      </trkpt>
      <trkpt lat="44.20087" lon="7.08559">
        <ele>1367</ele>
      </trkpt>
      <trkpt lat="44.20087" lon="7.0856">
        <ele>1367.2</ele>
      </trkpt>
      <trkpt lat="44.20086" lon="7.0856">
        <ele>1367.3</ele>
      </trkpt>
      <trkpt lat="44.20085" lon="7.08569">
        <ele>1369.8</ele>
      </trkpt>
      <trkpt lat="44.20085" lon="7.0859">
        <ele>1375.3</ele>
      </trkpt>
      <trkpt lat="44.20087" lon="7.08604">
        <ele>1373.8</ele>
      </trkpt>
      <trkpt lat="44.20095" lon="7.08621">
        <ele>1373.8</ele>
      </trkpt>
      <trkpt lat="44.2013" lon="7.08664">
        <ele>1370.7</ele>
      </trkpt>
      <trkpt lat="44.2015" lon="7.087">
        <ele>1381.9</ele>
      </trkpt>
      <trkpt lat="44.20152" lon="7.08706">
        <ele>1382.8</ele>
      </trkpt>
      <trkpt lat="44.20151" lon="7.08714">
        <ele>1384.2</ele>
      </trkpt>
      <trkpt lat="44.20147" lon="7.08717">
        <ele>1385.1</ele>
      </trkpt>
      <trkpt lat="44.20146" lon="7.08717">
        <ele>1385.3</ele>
      </trkpt>
      <trkpt lat="44.20143" lon="7.08714">
        <ele>1385.4</ele>
      </trkpt>
      <trkpt lat="44.20137" lon="7.08705">
        <ele>1385.2</ele>
      </trkpt>
      <trkpt lat="44.20126" lon="7.08684">
        <ele>1384.7</ele>
      </trkpt>
      <trkpt lat="44.20117" lon="7.08675">
        <ele>1386.1</ele>
      </trkpt>
      <trkpt lat="44.20094" lon="7.08663">
        <ele>1383.8</ele>
      </trkpt>
      <trkpt lat="44.20075" lon="7.08655">
        <ele>1400.2</ele>
      </trkpt>
      <trkpt lat="44.20063" lon="7.08643">
        <ele>1405.5</ele>
      </trkpt>
      <trkpt lat="44.20052" lon="7.08621">
        <ele>1407.3</ele>
      </trkpt>
      <trkpt lat="44.20049" lon="7.08612">
        <ele>1407.1</ele>
      </trkpt>
      <trkpt lat="44.20044" lon="7.08579">
        <ele>1399.4</ele>
      </trkpt>
      <trkpt lat="44.20042" lon="7.08575">
        <ele>1400.2</ele>
      </trkpt>
      <trkpt lat="44.20041" lon="7.08574">
        <ele>1400.6</ele>
      </trkpt>
      <trkpt lat="44.20038" lon="7.08573">
        <ele>1401.9</ele>
      </trkpt>
      <trkpt lat="44.20035" lon="7.08574">
        <ele>1403.2</ele>
      </trkpt>
      <trkpt lat="44.20034" lon="7.08574">
        <ele>1403.6</ele>
      </trkpt>
      <trkpt lat="44.20031" lon="7.08578">
        <ele>1405.1</ele>
      </trkpt>
      <trkpt lat="44.20029" lon="7.08589">
        <ele>1412.9</ele>
      </trkpt>
      <trkpt lat="44.2003" lon="7.08607">
        <ele>1413</ele>
      </trkpt>
      <trkpt lat="44.20035" lon="7.08635">
        <ele>1414.4</ele>
      </trkpt>
      <trkpt lat="44.20045" lon="7.08661">
        <ele>1412.7</ele>
      </trkpt>
      <trkpt lat="44.20056" lon="7.08676">
        <ele>1420.6</ele>
      </trkpt>
      <trkpt lat="44.20082" lon="7.08703">
        <ele>1420.3</ele>
      </trkpt>
      <trkpt lat="44.20087" lon="7.08711">
        <ele>1394.6</ele>
      </trkpt>
      <trkpt lat="44.20096" lon="7.08736">
        <ele>1401.6</ele>
      </trkpt>
      <trkpt lat="44.20107" lon="7.08775">
        <ele>1411.3</ele>
      </trkpt>
      <trkpt lat="44.20156" lon="7.08909">
        <ele>1423.6</ele>
      </trkpt>
      <trkpt lat="44.20181" lon="7.08954">
        <ele>1419.4</ele>
      </trkpt>
      <trkpt lat="44.2019" lon="7.08977">
        <ele>1422.1</ele>
      </trkpt>
      <trkpt lat="44.20193" lon="7.08992">
        <ele>1423.7</ele>
      </trkpt>
      <trkpt lat="44.20194" lon="7.08994">
        <ele>1423.5</ele>
      </trkpt>
      <trkpt lat="44.20195" lon="7.09018">
        <ele>1432.2</ele>
      </trkpt>
      <trkpt lat="44.20193" lon="7.09056">
        <ele>1435.2</ele>
      </trkpt>
      <trkpt lat="44.20195" lon="7.09071">
        <ele>1436.6</ele>
      </trkpt>
      <trkpt lat="44.20203" lon="7.09088">
        <ele>1448.2</ele>
      </trkpt>
      <trkpt lat="44.2022" lon="7.09105">
        <ele>1445.6</ele>
      </trkpt>
      <trkpt lat="44.20221" lon="7.09105">
        <ele>1445.3</ele>
      </trkpt>
      <trkpt lat="44.20221" lon="7.09106">
        <ele>1445.5</ele>
      </trkpt>
      <trkpt lat="44.20223" lon="7.09111">
        <ele>1446</ele>
      </trkpt>
      <trkpt lat="44.20223" lon="7.09113">
        <ele>1446.4</ele>
      </trkpt>
      <trkpt lat="44.20222" lon="7.09116">
        <ele>1447.2</ele>
      </trkpt>
      <trkpt lat="44.20222" lon="7.09118">
        <ele>1447.6</ele>
      </trkpt>
      <trkpt lat="44.20221" lon="7.09118">
        <ele>1447.9</ele>
      </trkpt>
      <trkpt lat="44.20219" lon="7.0912">
        <ele>1448.7</ele>
      </trkpt>
      <trkpt lat="44.20215" lon="7.0912">
        <ele>1449.6</ele>
      </trkpt>
      <trkpt lat="44.20211" lon="7.09119">
        <ele>1450.3</ele>
      </trkpt>
      <trkpt lat="44.20189" lon="7.09106">
        <ele>1452.7</ele>
      </trkpt>
      <trkpt lat="44.20184" lon="7.09101">
        <ele>1452.8</ele>
      </trkpt>
      <trkpt lat="44.20172" lon="7.09084">
        <ele>1452.8</ele>
      </trkpt>
      <trkpt lat="44.20165" lon="7.09067">
        <ele>1460.4</ele>
      </trkpt>
      <trkpt lat="44.20148" lon="7.09001">
        <ele>1456.1</ele>
      </trkpt>
      <trkpt lat="44.20145" lon="7.08994">
        <ele>1447.6</ele>
      </trkpt>
      <trkpt lat="44.20141" lon="7.08988">
        <ele>1448.6</ele>
      </trkpt>
      <trkpt lat="44.20138" lon="7.08987">
        <ele>1449.4</ele>
      </trkpt>
      <trkpt lat="44.20136" lon="7.08987">
        <ele>1450</ele>
      </trkpt>
      <trkpt lat="44.20135" lon="7.08988">
        <ele>1450.3</ele>
      </trkpt>
      <trkpt lat="44.20133" lon="7.08989">
        <ele>1450.9</ele>
      </trkpt>
      <trkpt lat="44.20132" lon="7.08991">
        <ele>1451.3</ele>
      </trkpt>
      <trkpt lat="44.20132" lon="7.08997">
        <ele>1451.5</ele>
      </trkpt>
      <trkpt lat="44.20133" lon="7.09004">
        <ele>1463.4</ele>
      </trkpt>
      <trkpt lat="44.20135" lon="7.0901">
        <ele>1463.1</ele>
      </trkpt>
      <trkpt lat="44.20135" lon="7.09013">
        <ele>1463.4</ele>
      </trkpt>
      <trkpt lat="44.20139" lon="7.09032">
        <ele>1465</ele>
      </trkpt>
      <trkpt lat="44.20142" lon="7.09075">
        <ele>1466.2</ele>
      </trkpt>
      <trkpt lat="44.20145" lon="7.0909">
        <ele>1481</ele>
      </trkpt>
      <trkpt lat="44.20152" lon="7.09109">
        <ele>1485.4</ele>
      </trkpt>
      <trkpt lat="44.20153" lon="7.0911">
        <ele>1485.5</ele>
      </trkpt>
      <trkpt lat="44.20158" lon="7.0912">
        <ele>1488.6</ele>
      </trkpt>
      <trkpt lat="44.20171" lon="7.09139">
        <ele>1464.6</ele>
      </trkpt>
      <trkpt lat="44.20181" lon="7.09149">
        <ele>1466.9</ele>
      </trkpt>
      <trkpt lat="44.20195" lon="7.09166">
        <ele>1463.8</ele>
      </trkpt>
      <trkpt lat="44.20201" lon="7.09175">
        <ele>1480</ele>
      </trkpt>
      <trkpt lat="44.20216" lon="7.09205">
        <ele>1479.2</ele>
      </trkpt>
      <trkpt lat="44.20221" lon="7.09223">
        <ele>1480.2</ele>
      </trkpt>
      <trkpt lat="44.20247" lon="7.09291">
        <ele>1504.2</ele>
      </trkpt>
      <trkpt lat="44.20316" lon="7.09423">
        <ele>1509.7</ele>
      </trkpt>
      <trkpt lat="44.20326" lon="7.09446">
        <ele>1518.8</ele>
      </trkpt>
      <trkpt lat="44.20332" lon="7.09456">
        <ele>1522.8</ele>
      </trkpt>
      <trkpt lat="44.20336" lon="7.09461">
        <ele>1490.8</ele>
      </trkpt>
      <trkpt lat="44.20338" lon="7.09465">
        <ele>1492.2</ele>
      </trkpt>
      <trkpt lat="44.20344" lon="7.09473">
        <ele>1494.9</ele>
      </trkpt>
      <trkpt lat="44.20352" lon="7.09481">
        <ele>1495.9</ele>
      </trkpt>
      <trkpt lat="44.20381" lon="7.09504">
        <ele>1510.5</ele>
      </trkpt>
      <trkpt lat="44.20383" lon="7.09505">
        <ele>1509.7</ele>
      </trkpt>
      <trkpt lat="44.20388" lon="7.09509">
        <ele>1507.7</ele>
      </trkpt>
      <trkpt lat="44.20415" lon="7.09544">
        <ele>1513.6</ele>
      </trkpt>
      <trkpt lat="44.20527" lon="7.09723">
        <ele>1523.1</ele>
      </trkpt>
      <trkpt lat="44.20527" lon="7.09725">
        <ele>1523.5</ele>
      </trkpt>
      <trkpt lat="44.206" lon="7.09848">
        <ele>1541.1</ele>
      </trkpt>
      <trkpt lat="44.20601" lon="7.09851">
        <ele>1541.8</ele>
      </trkpt>
      <trkpt lat="44.20605" lon="7.09857">
        <ele>1543.2</ele>
      </trkpt>
      <trkpt lat="44.20619" lon="7.09872">
        <ele>1545.5</ele>
      </trkpt>
      <trkpt lat="44.20624" lon="7.09875">
        <ele>1545.6</ele>
      </trkpt>
      <trkpt lat="44.20629" lon="7.09877">
        <ele>1545.4</ele>
      </trkpt>
      <trkpt lat="44.20631" lon="7.09877">
        <ele>1545.3</ele>
      </trkpt>
      <trkpt lat="44.20634" lon="7.09878">
        <ele>1545.2</ele>
      </trkpt>
      <trkpt lat="44.20635" lon="7.09878">
        <ele>1545.1</ele>
      </trkpt>
      <trkpt lat="44.20642" lon="7.09874">
        <ele>1544.4</ele>
      </trkpt>
      <trkpt lat="44.20647" lon="7.09868">
        <ele>1543.7</ele>
      </trkpt>
      <trkpt lat="44.20653" lon="7.09853">
        <ele>1542.3</ele>
      </trkpt>
      <trkpt lat="44.20655" lon="7.0984">
        <ele>1541.1</ele>
      </trkpt>
      <trkpt lat="44.20655" lon="7.09836">
        <ele>1540.8</ele>
      </trkpt>
      <trkpt lat="44.20654" lon="7.0983">
        <ele>1537.2</ele>
      </trkpt>
      <trkpt lat="44.20652" lon="7.09824">
        <ele>1536.8</ele>
      </trkpt>
      <trkpt lat="44.20652" lon="7.09821">
        <ele>1536.7</ele>
      </trkpt>
      <trkpt lat="44.20628" lon="7.09771">
        <ele>1534</ele>
      </trkpt>
      <trkpt lat="44.20625" lon="7.09759">
        <ele>1533.3</ele>
      </trkpt>
      <trkpt lat="44.20625" lon="7.09756">
        <ele>1533.3</ele>
      </trkpt>
      <trkpt lat="44.20624" lon="7.09755">
        <ele>1533.1</ele>
      </trkpt>
      <trkpt lat="44.20624" lon="7.09754">
        <ele>1533.1</ele>
      </trkpt>
      <trkpt lat="44.20625" lon="7.09752">
        <ele>1533.3</ele>
      </trkpt>
      <trkpt lat="44.20625" lon="7.09751">
        <ele>1533.2</ele>
      </trkpt>
      <trkpt lat="44.20626" lon="7.0975">
        <ele>1533.5</ele>
      </trkpt>
      <trkpt lat="44.20626" lon="7.09749">
        <ele>1532.6</ele>
      </trkpt>
      <trkpt lat="44.20627" lon="7.09748">
        <ele>1532.8</ele>
      </trkpt>
      <trkpt lat="44.20631" lon="7.09748">
        <ele>1533.8</ele>
      </trkpt>
      <trkpt lat="44.20633" lon="7.0975">
        <ele>1535</ele>
      </trkpt>
      <trkpt lat="44.20716" lon="7.09891">
        <ele>1550.9</ele>
      </trkpt>
      <trkpt lat="44.20741" lon="7.09919">
        <ele>1552.4</ele>
      </trkpt>
      <trkpt lat="44.20762" lon="7.09936">
        <ele>1558.5</ele>
      </trkpt>
      <trkpt lat="44.2078" lon="7.09953">
        <ele>1561.1</ele>
      </trkpt>
      <trkpt lat="44.20791" lon="7.09966">
        <ele>1561.9</ele>
      </trkpt>
      <trkpt lat="44.20794" lon="7.09972">
        <ele>1562</ele>
      </trkpt>
      <trkpt lat="44.20796" lon="7.09978">
        <ele>1561.9</ele>
      </trkpt>
      <trkpt lat="44.20798" lon="7.09994">
        <ele>1561.7</ele>
      </trkpt>
      <trkpt lat="44.20797" lon="7.10025">
        <ele>1562.9</ele>
      </trkpt>
      <trkpt lat="44.20798" lon="7.10031">
        <ele>1563.3</ele>
      </trkpt>
      <trkpt lat="44.208" lon="7.10033">
        <ele>1563.6</ele>
      </trkpt>
      <trkpt lat="44.20801" lon="7.10033">
        <ele>1563.6</ele>
      </trkpt>
      <trkpt lat="44.20803" lon="7.10034">
        <ele>1563.8</ele>
      </trkpt>
      <trkpt lat="44.20808" lon="7.10032">
        <ele>1564</ele>
      </trkpt>
      <trkpt lat="44.20809" lon="7.10032">
        <ele>1564</ele>
      </trkpt>
      <trkpt lat="44.2081" lon="7.10031">
        <ele>1564.1</ele>
      </trkpt>
      <trkpt lat="44.20811" lon="7.10029">
        <ele>1564.1</ele>
      </trkpt>
      <trkpt lat="44.20815" lon="7.10006">
        <ele>1564.4</ele>
      </trkpt>
      <trkpt lat="44.20815" lon="7.09981">
        <ele>1564.3</ele>
      </trkpt>
      <trkpt lat="44.20814" lon="7.09972">
        <ele>1564.5</ele>
      </trkpt>
      <trkpt lat="44.2081" lon="7.09955">
        <ele>1565.5</ele>
      </trkpt>
      <trkpt lat="44.208" lon="7.09936">
        <ele>1565.7</ele>
      </trkpt>
      <trkpt lat="44.2079" lon="7.09924">
        <ele>1564</ele>
      </trkpt>
      <trkpt lat="44.2076" lon="7.09895">
        <ele>1567.3</ele>
      </trkpt>
      <trkpt lat="44.20752" lon="7.09885">
        <ele>1569.1</ele>
      </trkpt>
      <trkpt lat="44.20745" lon="7.09872">
        <ele>1555</ele>
      </trkpt>
      <trkpt lat="44.20724" lon="7.09812">
        <ele>1559.6</ele>
      </trkpt>
      <trkpt lat="44.20719" lon="7.0979">
        <ele>1558.7</ele>
      </trkpt>
      <trkpt lat="44.2072" lon="7.09787">
        <ele>1558.9</ele>
      </trkpt>
      <trkpt lat="44.2072" lon="7.09784">
        <ele>1559</ele>
      </trkpt>
      <trkpt lat="44.20724" lon="7.0978">
        <ele>1559.9</ele>
      </trkpt>
      <trkpt lat="44.20726" lon="7.0978">
        <ele>1560.3</ele>
      </trkpt>
      <trkpt lat="44.20728" lon="7.09782">
        <ele>1560.5</ele>
      </trkpt>
      <trkpt lat="44.20729" lon="7.09782">
        <ele>1560.6</ele>
      </trkpt>
      <trkpt lat="44.2073" lon="7.09784">
        <ele>1560.7</ele>
      </trkpt>
      <trkpt lat="44.20731" lon="7.09788">
        <ele>1560.6</ele>
      </trkpt>
      <trkpt lat="44.20732" lon="7.09788">
        <ele>1560.7</ele>
      </trkpt>
      <trkpt lat="44.20739" lon="7.09813">
        <ele>1562.4</ele>
      </trkpt>
      <trkpt lat="44.20745" lon="7.09824">
        <ele>1565.5</ele>
      </trkpt>
      <trkpt lat="44.20763" lon="7.09847">
        <ele>1573.6</ele>
      </trkpt>
      <trkpt lat="44.20785" lon="7.09869">
        <ele>1576.2</ele>
      </trkpt>
      <trkpt lat="44.20811" lon="7.09891">
        <ele>1578.6</ele>
      </trkpt>
      <trkpt lat="44.20844" lon="7.09915">
        <ele>1594.3</ele>
      </trkpt>
      <trkpt lat="44.20855" lon="7.09925">
        <ele>1591.9</ele>
      </trkpt>
      <trkpt lat="44.20875" lon="7.09955">
        <ele>1595.9</ele>
      </trkpt>
      <trkpt lat="44.2093" lon="7.10087">
        <ele>1599.5</ele>
      </trkpt>
      <trkpt lat="44.2094" lon="7.10124">
        <ele>1604.5</ele>
      </trkpt>
      <trkpt lat="44.20945" lon="7.10167">
        <ele>1603.5</ele>
      </trkpt>
      <trkpt lat="44.20945" lon="7.10186">
        <ele>1604.4</ele>
      </trkpt>
      <trkpt lat="44.2095" lon="7.10242">
        <ele>1605.9</ele>
      </trkpt>
      <trkpt lat="44.20953" lon="7.10423">
        <ele>1619.9</ele>
      </trkpt>
      <trkpt lat="44.2095" lon="7.10455">
        <ele>1621.5</ele>
      </trkpt>
      <trkpt lat="44.20947" lon="7.10467">
        <ele>1621.8</ele>
      </trkpt>
      <trkpt lat="44.20913" lon="7.1054">
        <ele>1618.2</ele>
      </trkpt>
      <trkpt lat="44.20895" lon="7.10597">
        <ele>1630.3</ele>
      </trkpt>
      <trkpt lat="44.20889" lon="7.1061">
        <ele>1630.5</ele>
      </trkpt>
      <trkpt lat="44.20875" lon="7.10634">
        <ele>1631.2</ele>
      </trkpt>
      <trkpt lat="44.20823" lon="7.10705">
        <ele>1634.4</ele>
      </trkpt>
      <trkpt lat="44.2083" lon="7.10706">
        <ele>1634.7</ele>
      </trkpt>
      <trkpt lat="44.20839" lon="7.10705">
        <ele>1642.5</ele>
      </trkpt>
      <trkpt lat="44.20841" lon="7.10703">
        <ele>1642.3</ele>
      </trkpt>
      <trkpt lat="44.20852" lon="7.10697">
        <ele>1642.3</ele>
      </trkpt>
      <trkpt lat="44.20889" lon="7.1067">
        <ele>1644.4</ele>
      </trkpt>
      <trkpt lat="44.20891" lon="7.10668">
        <ele>1644.5</ele>
      </trkpt>
      <trkpt lat="44.20919" lon="7.10648">
        <ele>1647.6</ele>
      </trkpt>
      <trkpt lat="44.20921" lon="7.10646">
        <ele>1647.8</ele>
      </trkpt>
      <trkpt lat="44.20947" lon="7.10599">
        <ele>1646.9</ele>
      </trkpt>
      <trkpt lat="44.20951" lon="7.10597">
        <ele>1647.7</ele>
      </trkpt>
      <trkpt lat="44.20955" lon="7.10598">
        <ele>1648.7</ele>
      </trkpt>
      <trkpt lat="44.20958" lon="7.10602">
        <ele>1649.6</ele>
      </trkpt>
      <trkpt lat="44.20958" lon="7.10616">
        <ele>1650.7</ele>
      </trkpt>
      <trkpt lat="44.20934" lon="7.10668">
        <ele>1656.5</ele>
      </trkpt>
      <trkpt lat="44.20884" lon="7.10745">
        <ele>1650.7</ele>
      </trkpt>
      <trkpt lat="44.20866" lon="7.10781">
        <ele>1661.9</ele>
      </trkpt>
      <trkpt lat="44.20865" lon="7.10782">
        <ele>1661.9</ele>
      </trkpt>
      <trkpt lat="44.20861" lon="7.10791">
        <ele>1662.7</ele>
      </trkpt>
      <trkpt lat="44.20854" lon="7.10801">
        <ele>1663.5</ele>
      </trkpt>
      <trkpt lat="44.20854" lon="7.10802">
        <ele>1663.6</ele>
      </trkpt>
      <trkpt lat="44.2083" lon="7.10831">
        <ele>1664</ele>
      </trkpt>
      <trkpt lat="44.20822" lon="7.10832">
        <ele>1661.4</ele>
      </trkpt>
      <trkpt lat="44.20817" lon="7.10834">
        <ele>1671.4</ele>
      </trkpt>
      <trkpt lat="44.20815" lon="7.10839">
        <ele>1672.2</ele>
      </trkpt>
      <trkpt lat="44.20815" lon="7.1084">
        <ele>1672.3</ele>
      </trkpt>
      <trkpt lat="44.20811" lon="7.10844">
        <ele>1673.3</ele>
      </trkpt>
      <trkpt lat="44.20806" lon="7.10846">
        <ele>1673.9</ele>
      </trkpt>
      <trkpt lat="44.20735" lon="7.10845">
        <ele>1664.2</ele>
      </trkpt>
      <trkpt lat="44.20728" lon="7.10847">
        <ele>1664.4</ele>
      </trkpt>
      <trkpt lat="44.20725" lon="7.10847">
        <ele>1664.4</ele>
      </trkpt>
      <trkpt lat="44.20719" lon="7.1085">
        <ele>1664.4</ele>
      </trkpt>
      <trkpt lat="44.20715" lon="7.10854">
        <ele>1664.5</ele>
      </trkpt>
      <trkpt lat="44.20713" lon="7.10857">
        <ele>1664.7</ele>
      </trkpt>
      <trkpt lat="44.20705" lon="7.10875">
        <ele>1666</ele>
      </trkpt>
      <trkpt lat="44.20705" lon="7.10876">
        <ele>1666.1</ele>
      </trkpt>
      <trkpt lat="44.2067" lon="7.10981">
        <ele>1683.1</ele>
      </trkpt>
      <trkpt lat="44.20664" lon="7.11014">
        <ele>1691</ele>
      </trkpt>
      <trkpt lat="44.20669" lon="7.11053">
        <ele>1697.3</ele>
      </trkpt>
      <trkpt lat="44.20683" lon="7.11108">
        <ele>1707.4</ele>
      </trkpt>
      <trkpt lat="44.20693" lon="7.11133">
        <ele>1711.7</ele>
      </trkpt>
      <trkpt lat="44.20693" lon="7.11134">
        <ele>1711.8</ele>
      </trkpt>
      <trkpt lat="44.20696" lon="7.11141">
        <ele>1712.4</ele>
      </trkpt>
      <trkpt lat="44.20698" lon="7.1115">
        <ele>1713</ele>
      </trkpt>
      <trkpt lat="44.20698" lon="7.11157">
        <ele>1713.3</ele>
      </trkpt>
      <trkpt lat="44.20699" lon="7.1116">
        <ele>1713.4</ele>
      </trkpt>
      <trkpt lat="44.20703" lon="7.11194">
        <ele>1717.3</ele>
      </trkpt>
      <trkpt lat="44.20714" lon="7.11235">
        <ele>1716.6</ele>
      </trkpt>
      <trkpt lat="44.20716" lon="7.11249">
        <ele>1716</ele>
      </trkpt>
      <trkpt lat="44.20716" lon="7.11264">
        <ele>1716.1</ele>
      </trkpt>
      <trkpt lat="44.2071" lon="7.11295">
        <ele>1717</ele>
      </trkpt>
      <trkpt lat="44.20695" lon="7.1133">
        <ele>1718.6</ele>
      </trkpt>
      <trkpt lat="44.2064" lon="7.11442">
        <ele>1724.6</ele>
      </trkpt>
      <trkpt lat="44.20635" lon="7.11456">
        <ele>1725.1</ele>
      </trkpt>
      <trkpt lat="44.20579" lon="7.11549">
        <ele>1733.6</ele>
      </trkpt>
      <trkpt lat="44.20506" lon="7.11653">
        <ele>1725.4</ele>
      </trkpt>
      <trkpt lat="44.20458" lon="7.11737">
        <ele>1738.7</ele>
      </trkpt>
      <trkpt lat="44.20375" lon="7.11862">
        <ele>1738.5</ele>
      </trkpt>
      <trkpt lat="44.2033" lon="7.11921">
        <ele>1737.2</ele>
      </trkpt>
      <trkpt lat="44.20117" lon="7.1226">
        <ele>1748.4</ele>
      </trkpt>
      <trkpt lat="44.20088" lon="7.1229">
        <ele>1748.4</ele>
      </trkpt>
      <trkpt lat="44.20073" lon="7.12303">
        <ele>1764.8</ele>
      </trkpt>
      <trkpt lat="44.20073" lon="7.12304">
        <ele>1764.5</ele>
      </trkpt>
      <trkpt lat="44.20028" lon="7.12345">
        <ele>1762.2</ele>
      </trkpt>
      <trkpt lat="44.20017" lon="7.12363">
        <ele>1762.2</ele>
      </trkpt>
      <trkpt lat="44.20012" lon="7.12383">
        <ele>1760.4</ele>
      </trkpt>
      <trkpt lat="44.20011" lon="7.12394">
        <ele>1760.2</ele>
      </trkpt>
      <trkpt lat="44.20011" lon="7.12432">
        <ele>1758.1</ele>
      </trkpt>
      <trkpt lat="44.20006" lon="7.1246">
        <ele>1755.9</ele>
      </trkpt>
      <trkpt lat="44.19984" lon="7.12518">
        <ele>1759.3</ele>
      </trkpt>
      <trkpt lat="44.19975" lon="7.12534">
        <ele>1760</ele>
      </trkpt>
      <trkpt lat="44.19953" lon="7.12562">
        <ele>1760.2</ele>
      </trkpt>
      <trkpt lat="44.19951" lon="7.12563">
        <ele>1760.3</ele>
      </trkpt>
      <trkpt lat="44.19941" lon="7.12571">
        <ele>1760.5</ele>
      </trkpt>
      <trkpt lat="44.19931" lon="7.12576">
        <ele>1760.5</ele>
      </trkpt>
      <trkpt lat="44.19922" lon="7.12578">
        <ele>1760.4</ele>
      </trkpt>
      <trkpt lat="44.19911" lon="7.12579">
        <ele>1763.5</ele>
      </trkpt>
      <trkpt lat="44.19899" lon="7.12578">
        <ele>1767.1</ele>
      </trkpt>
      <trkpt lat="44.19882" lon="7.12574">
        <ele>1770.3</ele>
      </trkpt>
      <trkpt lat="44.19881" lon="7.12573">
        <ele>1770.5</ele>
      </trkpt>
      <trkpt lat="44.19864" lon="7.12569">
        <ele>1772</ele>
      </trkpt>
      <trkpt lat="44.19855" lon="7.12568">
        <ele>1772.3</ele>
      </trkpt>
      <trkpt lat="44.19841" lon="7.1257">
        <ele>1771.7</ele>
      </trkpt>
      <trkpt lat="44.19837" lon="7.12572">
        <ele>1771.3</ele>
      </trkpt>
      <trkpt lat="44.19833" lon="7.12573">
        <ele>1776.8</ele>
      </trkpt>
      <trkpt lat="44.19764" lon="7.12609">
        <ele>1774.8</ele>
      </trkpt>
      <trkpt lat="44.19684" lon="7.12678">
        <ele>1779.1</ele>
      </trkpt>
      <trkpt lat="44.19672" lon="7.12691">
        <ele>1778.3</ele>
      </trkpt>
      <trkpt lat="44.19603" lon="7.12785">
        <ele>1787.9</ele>
      </trkpt>
      <trkpt lat="44.19564" lon="7.1283">
        <ele>1801.1</ele>
      </trkpt>
      <trkpt lat="44.1954" lon="7.12862">
        <ele>1797.3</ele>
      </trkpt>
      <trkpt lat="44.19503" lon="7.12919">
        <ele>1800.9</ele>
      </trkpt>
      <trkpt lat="44.19429" lon="7.13045">
        <ele>1807.5</ele>
      </trkpt>
      <trkpt lat="44.19421" lon="7.13068">
        <ele>1809.8</ele>
      </trkpt>
      <trkpt lat="44.19418" lon="7.13097">
        <ele>1808</ele>
      </trkpt>
      <trkpt lat="44.19418" lon="7.13124">
        <ele>1803.1</ele>
      </trkpt>
      <trkpt lat="44.19415" lon="7.1315">
        <ele>1817.4</ele>
      </trkpt>
      <trkpt lat="44.19354" lon="7.13306">
        <ele>1811.7</ele>
      </trkpt>
      <trkpt lat="44.19348" lon="7.13316">
        <ele>1812</ele>
      </trkpt>
      <trkpt lat="44.19347" lon="7.1332">
        <ele>1812.2</ele>
      </trkpt>
      <trkpt lat="44.19339" lon="7.13331">
        <ele>1813.2</ele>
      </trkpt>
      <trkpt lat="44.1933" lon="7.13339">
        <ele>1815</ele>
      </trkpt>
      <trkpt lat="44.1932" lon="7.13344">
        <ele>1816.2</ele>
      </trkpt>
      <trkpt lat="44.19305" lon="7.13346">
        <ele>1817.7</ele>
      </trkpt>
      <trkpt lat="44.19269" lon="7.13343">
        <ele>1823.5</ele>
      </trkpt>
      <trkpt lat="44.19257" lon="7.13345">
        <ele>1825.8</ele>
      </trkpt>
      <trkpt lat="44.19247" lon="7.13348">
        <ele>1834.6</ele>
      </trkpt>
      <trkpt lat="44.19236" lon="7.13354">
        <ele>1835.9</ele>
      </trkpt>
      <trkpt lat="44.19226" lon="7.13361">
        <ele>1837.1</ele>
      </trkpt>
      <trkpt lat="44.19207" lon="7.13382">
        <ele>1838.1</ele>
      </trkpt>
      <trkpt lat="44.19182" lon="7.13421">
        <ele>1835.5</ele>
      </trkpt>
      <trkpt lat="44.19178" lon="7.13435">
        <ele>1834.5</ele>
      </trkpt>
      <trkpt lat="44.19177" lon="7.13446">
        <ele>1833.2</ele>
      </trkpt>
      <trkpt lat="44.19179" lon="7.13467">
        <ele>1832.1</ele>
      </trkpt>
      <trkpt lat="44.1919" lon="7.13511">
        <ele>1834.5</ele>
      </trkpt>
      <trkpt lat="44.1919" lon="7.13519">
        <ele>1834.6</ele>
      </trkpt>
      <trkpt lat="44.19187" lon="7.13537">
        <ele>1835.2</ele>
      </trkpt>
      <trkpt lat="44.19173" lon="7.13574">
        <ele>1838.8</ele>
      </trkpt>
      <trkpt lat="44.19171" lon="7.13584">
        <ele>1842</ele>
      </trkpt>
      <trkpt lat="44.19172" lon="7.13605">
        <ele>1845.1</ele>
      </trkpt>
      <trkpt lat="44.19174" lon="7.13616">
        <ele>1846.6</ele>
      </trkpt>
      <trkpt lat="44.19184" lon="7.13635">
        <ele>1849</ele>
      </trkpt>
      <trkpt lat="44.1919" lon="7.13643">
        <ele>1849.7</ele>
      </trkpt>
      <trkpt lat="44.19201" lon="7.13651">
        <ele>1849.8</ele>
      </trkpt>
      <trkpt lat="44.19208" lon="7.13653">
        <ele>1849.7</ele>
      </trkpt>
      <trkpt lat="44.19213" lon="7.13651">
        <ele>1849.5</ele>
      </trkpt>
      <trkpt lat="44.19218" lon="7.13648">
        <ele>1849.3</ele>
      </trkpt>
      <trkpt lat="44.19223" lon="7.13641">
        <ele>1848.7</ele>
      </trkpt>
      <trkpt lat="44.19238" lon="7.13614">
        <ele>1845.1</ele>
      </trkpt>
      <trkpt lat="44.19242" lon="7.1361">
        <ele>1844.3</ele>
      </trkpt>
      <trkpt lat="44.19243" lon="7.13608">
        <ele>1843.9</ele>
      </trkpt>
      <trkpt lat="44.19256" lon="7.13601">
        <ele>1844.5</ele>
      </trkpt>
      <trkpt lat="44.19264" lon="7.136">
        <ele>1845.2</ele>
      </trkpt>
      <trkpt lat="44.19305" lon="7.13604">
        <ele>1849.5</ele>
      </trkpt>
      <trkpt lat="44.19314" lon="7.13604">
        <ele>1849.5</ele>
      </trkpt>
      <trkpt lat="44.19325" lon="7.13602">
        <ele>1848.9</ele>
      </trkpt>
      <trkpt lat="44.19365" lon="7.13587">
        <ele>1861.4</ele>
      </trkpt>
      <trkpt lat="44.19374" lon="7.13585">
        <ele>1863.3</ele>
      </trkpt>
      <trkpt lat="44.19382" lon="7.13581">
        <ele>1847.8</ele>
      </trkpt>
      <trkpt lat="44.19383" lon="7.1358">
        <ele>1848</ele>
      </trkpt>
      <trkpt lat="44.19397" lon="7.13573">
        <ele>1851</ele>
      </trkpt>
      <trkpt lat="44.19398" lon="7.13574">
        <ele>1851.5</ele>
      </trkpt>
      <trkpt lat="44.194" lon="7.13574">
        <ele>1852.2</ele>
      </trkpt>
      <trkpt lat="44.19402" lon="7.13576">
        <ele>1853.4</ele>
      </trkpt>
      <trkpt lat="44.19402" lon="7.13586">
        <ele>1865.8</ele>
      </trkpt>
      <trkpt lat="44.19401" lon="7.13587">
        <ele>1865.9</ele>
      </trkpt>
      <trkpt lat="44.19401" lon="7.13588">
        <ele>1866</ele>
      </trkpt>
      <trkpt lat="44.19399" lon="7.1359">
        <ele>1866.2</ele>
      </trkpt>
      <trkpt lat="44.19397" lon="7.13591">
        <ele>1866.3</ele>
      </trkpt>
      <trkpt lat="44.19396" lon="7.13592">
        <ele>1866.3</ele>
      </trkpt>
      <trkpt lat="44.19385" lon="7.13596">
        <ele>1866</ele>
      </trkpt>
      <trkpt lat="44.19377" lon="7.136">
        <ele>1865.4</ele>
      </trkpt>
      <trkpt lat="44.19346" lon="7.13622">
        <ele>1864.9</ele>
      </trkpt>
      <trkpt lat="44.19315" lon="7.13647">
        <ele>1857.8</ele>
      </trkpt>
      <trkpt lat="44.19306" lon="7.13653">
        <ele>1857.1</ele>
      </trkpt>
      <trkpt lat="44.19284" lon="7.13664">
        <ele>1854.6</ele>
      </trkpt>
      <trkpt lat="44.19275" lon="7.1367">
        <ele>1865</ele>
      </trkpt>
      <trkpt lat="44.19268" lon="7.13677">
        <ele>1863.9</ele>
      </trkpt>
      <trkpt lat="44.19257" lon="7.13694">
        <ele>1865.8</ele>
      </trkpt>
      <trkpt lat="44.19252" lon="7.13707">
        <ele>1867.9</ele>
      </trkpt>
      <trkpt lat="44.19226" lon="7.1381">
        <ele>1876.4</ele>
      </trkpt>
      <trkpt lat="44.19218" lon="7.13857">
        <ele>1883</ele>
      </trkpt>
      <trkpt lat="44.19216" lon="7.13966">
        <ele>1891.2</ele>
      </trkpt>
      <trkpt lat="44.1922" lon="7.14003">
        <ele>1895.8</ele>
      </trkpt>
      <trkpt lat="44.1922" lon="7.14088">
        <ele>1899.2</ele>
      </trkpt>
      <trkpt lat="44.19216" lon="7.14176">
        <ele>1904.8</ele>
      </trkpt>
      <trkpt lat="44.19212" lon="7.14213">
        <ele>1904.9</ele>
      </trkpt>
      <trkpt lat="44.19196" lon="7.14305">
        <ele>1910</ele>
      </trkpt>
      <trkpt lat="44.19196" lon="7.14319">
        <ele>1910.1</ele>
      </trkpt>
      <trkpt lat="44.19198" lon="7.14342">
        <ele>1915.4</ele>
      </trkpt>
      <trkpt lat="44.19198" lon="7.14373">
        <ele>1917.1</ele>
      </trkpt>
      <trkpt lat="44.19192" lon="7.14421">
        <ele>1919.4</ele>
      </trkpt>
      <trkpt lat="44.19189" lon="7.14434">
        <ele>1919.7</ele>
      </trkpt>
      <trkpt lat="44.19173" lon="7.14477">
        <ele>1918.9</ele>
      </trkpt>
      <trkpt lat="44.19169" lon="7.14499">
        <ele>1913.3</ele>
      </trkpt>
      <trkpt lat="44.19164" lon="7.14584">
        <ele>1916.9</ele>
      </trkpt>
      <trkpt lat="44.19164" lon="7.14608">
        <ele>1916.9</ele>
      </trkpt>
      <trkpt lat="44.19169" lon="7.1464">
        <ele>1930</ele>
      </trkpt>
      <trkpt lat="44.19171" lon="7.14678">
        <ele>1931.1</ele>
      </trkpt>
      <trkpt lat="44.19168" lon="7.14726">
        <ele>1936.4</ele>
      </trkpt>
      <trkpt lat="44.19142" lon="7.14928">
        <ele>1940.6</ele>
      </trkpt>
      <trkpt lat="44.19128" lon="7.14964">
        <ele>1939.2</ele>
      </trkpt>
      <trkpt lat="44.19088" lon="7.15092">
        <ele>1953.7</ele>
      </trkpt>
    </trkseg>
  </trk>
  <trk>
    <name><![CDATA[2018-09-09 09:38]]></name>
    <trkseg>
      <trkpt lat="45.20104" lon="5.71792">
        <ele>248.14</ele>
        <time>2018-09-09T07:38:51Z</time>
      </trkpt>
      <trkpt lat="45.20104" lon="5.71792">
        <ele>248.14</ele>
        <time>2018-09-09T07:38:51Z</time>
      </trkpt>
      <trkpt lat="45.20104" lon="5.71792">
        <ele>248.14</ele>
        <time>2018-09-09T07:38:51Z</time>
      </trkpt>
      <trkpt lat="45.20104" lon="5.71792">
        <ele>248.14</ele>
        <time>2018-09-09T07:38:51Z</time>
      </trkpt>
      <trkpt lat="45.20084" lon="5.71802">
        <ele>226.36</ele>
        <time>2018-09-09T07:40:27Z</time>
      </trkpt>
      <trkpt lat="45.2008" lon="5.71774">
        <ele>223.17</ele>
        <time>2018-09-09T07:40:33Z</time>
      </trkpt>
      <trkpt lat="45.20096" lon="5.71757">
        <ele>220.45</ele>
        <time>2018-09-09T07:40:37Z</time>
      </trkpt>
      <trkpt lat="45.2011" lon="5.71739">
        <ele>218.09</ele>
        <time>2018-09-09T07:40:42Z</time>
      </trkpt>
      <trkpt lat="45.20093" lon="5.71758">
        <ele>219.35</ele>
        <time>2018-09-09T07:42:14Z</time>
      </trkpt>
      <trkpt lat="45.20077" lon="5.71779">
        <ele>222.73</ele>
        <time>2018-09-09T07:42:19Z</time>
      </trkpt>
      <trkpt lat="45.20077" lon="5.71805">
        <ele>221.36</ele>
        <time>2018-09-09T07:42:25Z</time>
      </trkpt>
      <trkpt lat="45.20098" lon="5.71804">
        <ele>221.75</ele>
        <time>2018-09-09T07:42:31Z</time>
      </trkpt>
      <trkpt lat="45.20112" lon="5.71787">
        <ele>224.32</ele>
        <time>2018-09-09T07:43:11Z</time>
      </trkpt>
      <trkpt lat="45.20094" lon="5.71794">
        <ele>233.47</ele>
        <time>2018-09-09T07:45:39Z</time>
      </trkpt>
      <trkpt lat="45.20073" lon="5.71792">
        <ele>232.97</ele>
        <time>2018-09-09T07:45:43Z</time>
      </trkpt>
      <trkpt lat="45.20078" lon="5.71768">
        <ele>229.88</ele>
        <time>2018-09-09T07:45:47Z</time>
      </trkpt>
      <trkpt lat="45.20093" lon="5.71748">
        <ele>230.04</ele>
        <time>2018-09-09T07:45:50Z</time>
      </trkpt>
      <trkpt lat="45.20099" lon="5.71723">
        <ele>228.37</ele>
        <time>2018-09-09T07:45:55Z</time>
      </trkpt>
      <trkpt lat="45.20081" lon="5.71735">
        <ele>229.42</ele>
        <time>2018-09-09T07:45:59Z</time>
      </trkpt>
      <trkpt lat="45.20066" lon="5.71751">
        <ele>228.17</ele>
        <time>2018-09-09T07:46:01Z</time>
      </trkpt>
      <trkpt lat="45.20046" lon="5.71764">
        <ele>226.66</ele>
        <time>2018-09-09T07:46:03Z</time>
      </trkpt>
      <trkpt lat="45.20022" lon="5.71769">
        <ele>224.49</ele>
        <time>2018-09-09T07:46:05Z</time>
      </trkpt>
      <trkpt lat="45.19997" lon="5.71774">
        <ele>223.18</ele>
        <time>2018-09-09T07:46:07Z</time>
      </trkpt>
      <trkpt lat="45.19974" lon="5.71781">
        <ele>221.66</ele>
        <time>2018-09-09T07:46:09Z</time>
      </trkpt>
      <trkpt lat="45.19952" lon="5.7179">
        <ele>219.49</ele>
        <time>2018-09-09T07:46:11Z</time>
      </trkpt>
      <trkpt lat="45.19926" lon="5.71794">
        <ele>218.39</ele>
        <time>2018-09-09T07:46:13Z</time>
      </trkpt>
      <trkpt lat="45.19905" lon="5.71798">
        <ele>218.08</ele>
        <time>2018-09-09T07:46:15Z</time>
      </trkpt>
      <trkpt lat="45.19886" lon="5.71806">
        <ele>217.84</ele>
        <time>2018-09-09T07:46:17Z</time>
      </trkpt>
      <trkpt lat="45.19866" lon="5.71805">
        <ele>218.03</ele>
        <time>2018-09-09T07:46:19Z</time>
      </trkpt>
      <trkpt lat="45.19848" lon="5.71814">
        <ele>218.96</ele>
        <time>2018-09-09T07:46:21Z</time>
      </trkpt>
      <trkpt lat="45.19828" lon="5.71814">
        <ele>219.89</ele>
        <time>2018-09-09T07:46:24Z</time>
      </trkpt>
      <trkpt lat="45.19806" lon="5.71813">
        <ele>218.16</ele>
        <time>2018-09-09T07:46:27Z</time>
      </trkpt>
      <trkpt lat="45.19789" lon="5.71827">
        <ele>217.85</ele>
        <time>2018-09-09T07:46:29Z</time>
      </trkpt>
      <trkpt lat="45.19772" lon="5.71834">
        <ele>217.12</ele>
        <time>2018-09-09T07:46:31Z</time>
      </trkpt>
      <trkpt lat="45.19751" lon="5.71837">
        <ele>214.54</ele>
        <time>2018-09-09T07:46:33Z</time>
      </trkpt>
      <trkpt lat="45.19729" lon="5.71843">
        <ele>211.78</ele>
        <time>2018-09-09T07:46:35Z</time>
      </trkpt>
      <trkpt lat="45.19707" lon="5.71851">
        <ele>212.94</ele>
        <time>2018-09-09T07:46:37Z</time>
      </trkpt>
      <trkpt lat="45.19686" lon="5.71858">
        <ele>213.74</ele>
        <time>2018-09-09T07:46:39Z</time>
      </trkpt>
      <trkpt lat="45.19662" lon="5.71861">
        <ele>214.93</ele>
        <time>2018-09-09T07:46:41Z</time>
      </trkpt>
      <trkpt lat="45.19643" lon="5.71874">
        <ele>213.22</ele>
        <time>2018-09-09T07:46:43Z</time>
      </trkpt>
      <trkpt lat="45.19624" lon="5.71881">
        <ele>213.27</ele>
        <time>2018-09-09T07:46:45Z</time>
      </trkpt>
      <trkpt lat="45.19604" lon="5.71888">
        <ele>213.07</ele>
        <time>2018-09-09T07:46:47Z</time>
      </trkpt>
      <trkpt lat="45.19585" lon="5.71893">
        <ele>213.05</ele>
        <time>2018-09-09T07:46:49Z</time>
      </trkpt>
      <trkpt lat="45.19561" lon="5.71899">
        <ele>212.84</ele>
        <time>2018-09-09T07:46:52Z</time>
      </trkpt>
      <trkpt lat="45.19538" lon="5.71905">
        <ele>213.05</ele>
        <time>2018-09-09T07:46:56Z</time>
      </trkpt>
      <trkpt lat="45.19538" lon="5.71878">
        <ele>215.35</ele>
        <time>2018-09-09T07:47:03Z</time>
      </trkpt>
      <trkpt lat="45.19495" lon="5.71865">
        <ele>233.05</ele>
        <time>2018-09-09T07:51:34Z</time>
      </trkpt>
      <trkpt lat="45.19529" lon="5.71862">
        <ele>239.13</ele>
        <time>2018-09-09T07:53:26Z</time>
      </trkpt>
      <trkpt lat="45.19541" lon="5.71888">
        <ele>215.47</ele>
        <time>2018-09-09T07:53:30Z</time>
      </trkpt>
      <trkpt lat="45.19542" lon="5.71914">
        <ele>212.18</ele>
        <time>2018-09-09T07:53:38Z</time>
      </trkpt>
      <trkpt lat="45.19522" lon="5.71913">
        <ele>211.08</ele>
        <time>2018-09-09T07:53:41Z</time>
      </trkpt>
      <trkpt lat="45.19501" lon="5.71914">
        <ele>210.08</ele>
        <time>2018-09-09T07:53:44Z</time>
      </trkpt>
      <trkpt lat="45.19477" lon="5.71916">
        <ele>210.05</ele>
        <time>2018-09-09T07:53:47Z</time>
      </trkpt>
      <trkpt lat="45.19455" lon="5.71916">
        <ele>208.1</ele>
        <time>2018-09-09T07:53:50Z</time>
      </trkpt>
      <trkpt lat="45.19436" lon="5.7191">
        <ele>206.38</ele>
        <time>2018-09-09T07:53:53Z</time>
      </trkpt>
      <trkpt lat="45.19422" lon="5.71891">
        <ele>204.09</ele>
        <time>2018-09-09T07:53:57Z</time>
      </trkpt>
      <trkpt lat="45.19406" lon="5.71864">
        <ele>202.05</ele>
        <time>2018-09-09T07:54:29Z</time>
      </trkpt>
      <trkpt lat="45.19392" lon="5.71847">
        <ele>204.57</ele>
        <time>2018-09-09T07:54:31Z</time>
      </trkpt>
      <trkpt lat="45.19375" lon="5.71859">
        <ele>204.83</ele>
        <time>2018-09-09T07:54:34Z</time>
      </trkpt>
      <trkpt lat="45.19363" lon="5.71894">
        <ele>205.32</ele>
        <time>2018-09-09T07:54:37Z</time>
      </trkpt>
      <trkpt lat="45.19358" lon="5.7192">
        <ele>205.07</ele>
        <time>2018-09-09T07:54:39Z</time>
      </trkpt>
      <trkpt lat="45.1935" lon="5.71945">
        <ele>205.05</ele>
        <time>2018-09-09T07:54:41Z</time>
      </trkpt>
      <trkpt lat="45.19341" lon="5.71967">
        <ele>205.05</ele>
        <time>2018-09-09T07:54:43Z</time>
      </trkpt>
      <trkpt lat="45.19327" lon="5.71983">
        <ele>205.75</ele>
        <time>2018-09-09T07:54:45Z</time>
      </trkpt>
      <trkpt lat="45.19303" lon="5.71996">
        <ele>207.71</ele>
        <time>2018-09-09T07:54:48Z</time>
      </trkpt>
      <trkpt lat="45.19283" lon="5.72009">
        <ele>207.07</ele>
        <time>2018-09-09T07:54:51Z</time>
      </trkpt>
      <trkpt lat="45.19264" lon="5.72023">
        <ele>207.05</ele>
        <time>2018-09-09T07:54:55Z</time>
      </trkpt>
      <trkpt lat="45.19246" lon="5.72034">
        <ele>206.06</ele>
        <time>2018-09-09T07:55:01Z</time>
      </trkpt>
      <trkpt lat="45.19236" lon="5.72005">
        <ele>205.12</ele>
        <time>2018-09-09T07:55:06Z</time>
      </trkpt>
      <trkpt lat="45.19241" lon="5.71976">
        <ele>206.02</ele>
        <time>2018-09-09T07:55:09Z</time>
      </trkpt>
      <trkpt lat="45.19248" lon="5.71939">
        <ele>206.05</ele>
        <time>2018-09-09T07:55:12Z</time>
      </trkpt>
      <trkpt lat="45.19255" lon="5.7191">
        <ele>205.35</ele>
        <time>2018-09-09T07:55:14Z</time>
      </trkpt>
      <trkpt lat="45.19262" lon="5.71878">
        <ele>205.78</ele>
        <time>2018-09-09T07:55:16Z</time>
      </trkpt>
      <trkpt lat="45.1927" lon="5.71846">
        <ele>205.81</ele>
        <time>2018-09-09T07:55:18Z</time>
      </trkpt>
      <trkpt lat="45.19278" lon="5.71816">
        <ele>203.72</ele>
        <time>2018-09-09T07:55:20Z</time>
      </trkpt>
      <trkpt lat="45.19288" lon="5.71784">
        <ele>204.72</ele>
        <time>2018-09-09T07:55:22Z</time>
      </trkpt>
      <trkpt lat="45.19299" lon="5.71752">
        <ele>205.93</ele>
        <time>2018-09-09T07:55:24Z</time>
      </trkpt>
      <trkpt lat="45.19311" lon="5.71719">
        <ele>206.74</ele>
        <time>2018-09-09T07:55:26Z</time>
      </trkpt>
      <trkpt lat="45.19323" lon="5.71688">
        <ele>206.11</ele>
        <time>2018-09-09T07:55:28Z</time>
      </trkpt>
      <trkpt lat="45.19337" lon="5.71658">
        <ele>207.66</ele>
        <time>2018-09-09T07:55:30Z</time>
      </trkpt>
      <trkpt lat="45.19353" lon="5.7163">
        <ele>208.71</ele>
        <time>2018-09-09T07:55:32Z</time>
      </trkpt>
      <trkpt lat="45.1937" lon="5.71602">
        <ele>209.02</ele>
        <time>2018-09-09T07:55:34Z</time>
      </trkpt>
      <trkpt lat="45.1939" lon="5.71576">
        <ele>209.05</ele>
        <time>2018-09-09T07:55:36Z</time>
      </trkpt>
      <trkpt lat="45.19408" lon="5.71551">
        <ele>209.26</ele>
        <time>2018-09-09T07:55:38Z</time>
      </trkpt>
      <trkpt lat="45.19429" lon="5.71527">
        <ele>209.98</ele>
        <time>2018-09-09T07:55:40Z</time>
      </trkpt>
      <trkpt lat="45.19451" lon="5.71507">
        <ele>210.95</ele>
        <time>2018-09-09T07:55:42Z</time>
      </trkpt>
      <trkpt lat="45.19474" lon="5.7149">
        <ele>211.04</ele>
        <time>2018-09-09T07:55:44Z</time>
      </trkpt>
      <trkpt lat="45.19499" lon="5.71476">
        <ele>211.05</ele>
        <time>2018-09-09T07:55:46Z</time>
      </trkpt>
      <trkpt lat="45.19525" lon="5.71463">
        <ele>210.14</ele>
        <time>2018-09-09T07:55:48Z</time>
      </trkpt>
      <trkpt lat="45.1955" lon="5.71452">
        <ele>209.36</ele>
        <time>2018-09-09T07:55:50Z</time>
      </trkpt>
      <trkpt lat="45.19576" lon="5.71446">
        <ele>210.48</ele>
        <time>2018-09-09T07:55:52Z</time>
      </trkpt>
      <trkpt lat="45.19602" lon="5.71441">
        <ele>209.6</ele>
        <time>2018-09-09T07:55:54Z</time>
      </trkpt>
      <trkpt lat="45.19627" lon="5.71439">
        <ele>207.49</ele>
        <time>2018-09-09T07:55:56Z</time>
      </trkpt>
      <trkpt lat="45.19654" lon="5.71439">
        <ele>208.7</ele>
        <time>2018-09-09T07:55:58Z</time>
      </trkpt>
      <trkpt lat="45.19682" lon="5.7144">
        <ele>208.11</ele>
        <time>2018-09-09T07:56:00Z</time>
      </trkpt>
      <trkpt lat="45.19714" lon="5.71441">
        <ele>208.75</ele>
        <time>2018-09-09T07:56:02Z</time>
      </trkpt>
      <trkpt lat="45.19738" lon="5.71441">
        <ele>208.53</ele>
        <time>2018-09-09T07:56:04Z</time>
      </trkpt>
      <trkpt lat="45.19763" lon="5.71441">
        <ele>207.18</ele>
        <time>2018-09-09T07:56:06Z</time>
      </trkpt>
      <trkpt lat="45.19785" lon="5.71442">
        <ele>207.97</ele>
        <time>2018-09-09T07:56:08Z</time>
      </trkpt>
      <trkpt lat="45.19809" lon="5.7144">
        <ele>208.95</ele>
        <time>2018-09-09T07:56:10Z</time>
      </trkpt>
      <trkpt lat="45.19831" lon="5.7144">
        <ele>210.65</ele>
        <time>2018-09-09T07:56:12Z</time>
      </trkpt>
      <trkpt lat="45.1985" lon="5.71435">
        <ele>211.22</ele>
        <time>2018-09-09T07:56:14Z</time>
      </trkpt>
      <trkpt lat="45.19874" lon="5.7143">
        <ele>210.99</ele>
        <time>2018-09-09T07:56:17Z</time>
      </trkpt>
      <trkpt lat="45.19895" lon="5.71424">
        <ele>213.63</ele>
        <time>2018-09-09T07:56:20Z</time>
      </trkpt>
      <trkpt lat="45.19916" lon="5.71422">
        <ele>213.06</ele>
        <time>2018-09-09T07:56:23Z</time>
      </trkpt>
      <trkpt lat="45.19941" lon="5.71415">
        <ele>212.14</ele>
        <time>2018-09-09T07:56:26Z</time>
      </trkpt>
      <trkpt lat="45.19961" lon="5.71409">
        <ele>212.05</ele>
        <time>2018-09-09T07:56:29Z</time>
      </trkpt>
      <trkpt lat="45.19956" lon="5.71374">
        <ele>214.01</ele>
        <time>2018-09-09T07:56:33Z</time>
      </trkpt>
      <trkpt lat="45.19948" lon="5.71337">
        <ele>213.14</ele>
        <time>2018-09-09T07:56:36Z</time>
      </trkpt>
      <trkpt lat="45.19941" lon="5.71308">
        <ele>213.06</ele>
        <time>2018-09-09T07:56:38Z</time>
      </trkpt>
      <trkpt lat="45.19934" lon="5.71276">
        <ele>213.05</ele>
        <time>2018-09-09T07:56:40Z</time>
      </trkpt>
      <trkpt lat="45.19926" lon="5.71244">
        <ele>212.35</ele>
        <time>2018-09-09T07:56:42Z</time>
      </trkpt>
      <trkpt lat="45.19919" lon="5.71211">
        <ele>214.6</ele>
        <time>2018-09-09T07:56:44Z</time>
      </trkpt>
      <trkpt lat="45.19911" lon="5.71178">
        <ele>215.71</ele>
        <time>2018-09-09T07:56:46Z</time>
      </trkpt>
      <trkpt lat="45.19904" lon="5.71143">
        <ele>216.93</ele>
        <time>2018-09-09T07:56:48Z</time>
      </trkpt>
      <trkpt lat="45.19896" lon="5.71108">
        <ele>217.95</ele>
        <time>2018-09-09T07:56:50Z</time>
      </trkpt>
      <trkpt lat="45.19888" lon="5.71076">
        <ele>218.04</ele>
        <time>2018-09-09T07:56:52Z</time>
      </trkpt>
      <trkpt lat="45.19883" lon="5.71049">
        <ele>218.05</ele>
        <time>2018-09-09T07:56:54Z</time>
      </trkpt>
      <trkpt lat="45.19878" lon="5.71015">
        <ele>217.14</ele>
        <time>2018-09-09T07:56:57Z</time>
      </trkpt>
      <trkpt lat="45.19873" lon="5.70988">
        <ele>217.83</ele>
        <time>2018-09-09T07:57:01Z</time>
      </trkpt>
      <trkpt lat="45.19866" lon="5.70953">
        <ele>215.38</ele>
        <time>2018-09-09T07:57:06Z</time>
      </trkpt>
      <trkpt lat="45.19851" lon="5.70928">
        <ele>215.06</ele>
        <time>2018-09-09T07:57:09Z</time>
      </trkpt>
      <trkpt lat="45.19832" lon="5.70929">
        <ele>214.84</ele>
        <time>2018-09-09T07:57:11Z</time>
      </trkpt>
      <trkpt lat="45.19811" lon="5.70943">
        <ele>215.03</ele>
        <time>2018-09-09T07:57:13Z</time>
      </trkpt>
      <trkpt lat="45.19792" lon="5.70963">
        <ele>214.14</ele>
        <time>2018-09-09T07:57:15Z</time>
      </trkpt>
      <trkpt lat="45.19774" lon="5.70981">
        <ele>214.06</ele>
        <time>2018-09-09T07:57:17Z</time>
      </trkpt>
      <trkpt lat="45.19756" lon="5.70989">
        <ele>214.05</ele>
        <time>2018-09-09T07:57:19Z</time>
      </trkpt>
      <trkpt lat="45.19732" lon="5.70999">
        <ele>214.05</ele>
        <time>2018-09-09T07:57:22Z</time>
      </trkpt>
      <trkpt lat="45.19711" lon="5.71009">
        <ele>214.26</ele>
        <time>2018-09-09T07:57:25Z</time>
      </trkpt>
      <trkpt lat="45.19691" lon="5.71018">
        <ele>214.05</ele>
        <time>2018-09-09T07:57:28Z</time>
      </trkpt>
      <trkpt lat="45.19671" lon="5.71026">
        <ele>213.08</ele>
        <time>2018-09-09T07:57:32Z</time>
      </trkpt>
      <trkpt lat="45.19648" lon="5.71035">
        <ele>212.07</ele>
        <time>2018-09-09T07:57:41Z</time>
      </trkpt>
      <trkpt lat="45.19624" lon="5.71046">
        <ele>212.05</ele>
        <time>2018-09-09T07:57:44Z</time>
      </trkpt>
      <trkpt lat="45.19604" lon="5.71055">
        <ele>212.05</ele>
        <time>2018-09-09T07:57:46Z</time>
      </trkpt>
      <trkpt lat="45.19581" lon="5.71066">
        <ele>211.14</ele>
        <time>2018-09-09T07:57:48Z</time>
      </trkpt>
      <trkpt lat="45.19559" lon="5.71076">
        <ele>211.06</ele>
        <time>2018-09-09T07:57:50Z</time>
      </trkpt>
      <trkpt lat="45.19537" lon="5.71075">
        <ele>210.14</ele>
        <time>2018-09-09T07:57:52Z</time>
      </trkpt>
      <trkpt lat="45.19515" lon="5.7107">
        <ele>210.06</ele>
        <time>2018-09-09T07:57:54Z</time>
      </trkpt>
      <trkpt lat="45.19493" lon="5.71065">
        <ele>210.05</ele>
        <time>2018-09-09T07:57:56Z</time>
      </trkpt>
      <trkpt lat="45.19471" lon="5.71057">
        <ele>210.05</ele>
        <time>2018-09-09T07:57:58Z</time>
      </trkpt>
      <trkpt lat="45.19449" lon="5.71043">
        <ele>210.05</ele>
        <time>2018-09-09T07:58:00Z</time>
      </trkpt>
      <trkpt lat="45.19431" lon="5.71022">
        <ele>210.05</ele>
        <time>2018-09-09T07:58:02Z</time>
      </trkpt>
      <trkpt lat="45.19415" lon="5.71002">
        <ele>210.05</ele>
        <time>2018-09-09T07:58:04Z</time>
      </trkpt>
      <trkpt lat="45.19401" lon="5.70983">
        <ele>209.14</ele>
        <time>2018-09-09T07:58:06Z</time>
      </trkpt>
      <trkpt lat="45.19382" lon="5.70958">
        <ele>210.23</ele>
        <time>2018-09-09T07:58:09Z</time>
      </trkpt>
      <trkpt lat="45.19367" lon="5.70939">
        <ele>210.82</ele>
        <time>2018-09-09T07:58:12Z</time>
      </trkpt>
      <trkpt lat="45.19351" lon="5.70918">
        <ele>212.72</ele>
        <time>2018-09-09T07:58:16Z</time>
      </trkpt>
      <trkpt lat="45.1934" lon="5.70898">
        <ele>216.92</ele>
        <time>2018-09-09T07:58:21Z</time>
      </trkpt>
      <trkpt lat="45.19322" lon="5.70875">
        <ele>217.77</ele>
        <time>2018-09-09T07:58:26Z</time>
      </trkpt>
      <trkpt lat="45.19306" lon="5.70854">
        <ele>217.11</ele>
        <time>2018-09-09T07:58:28Z</time>
      </trkpt>
      <trkpt lat="45.19287" lon="5.70831">
        <ele>217.26</ele>
        <time>2018-09-09T07:58:30Z</time>
      </trkpt>
      <trkpt lat="45.19269" lon="5.70809">
        <ele>214.55</ele>
        <time>2018-09-09T07:58:32Z</time>
      </trkpt>
      <trkpt lat="45.1925" lon="5.70782">
        <ele>214.79</ele>
        <time>2018-09-09T07:58:34Z</time>
      </trkpt>
      <trkpt lat="45.19232" lon="5.70755">
        <ele>215.03</ele>
        <time>2018-09-09T07:58:36Z</time>
      </trkpt>
      <trkpt lat="45.19214" lon="5.70727">
        <ele>215.96</ele>
        <time>2018-09-09T07:58:38Z</time>
      </trkpt>
      <trkpt lat="45.19202" lon="5.70703">
        <ele>215.34</ele>
        <time>2018-09-09T07:58:40Z</time>
      </trkpt>
      <trkpt lat="45.1919" lon="5.70677">
        <ele>215.82</ele>
        <time>2018-09-09T07:58:43Z</time>
      </trkpt>
      <trkpt lat="45.19179" lon="5.70655">
        <ele>216.26</ele>
        <time>2018-09-09T07:59:32Z</time>
      </trkpt>
      <trkpt lat="45.19165" lon="5.70631">
        <ele>215.08</ele>
        <time>2018-09-09T07:59:35Z</time>
      </trkpt>
      <trkpt lat="45.19156" lon="5.70605">
        <ele>214.2</ele>
        <time>2018-09-09T07:59:38Z</time>
      </trkpt>
      <trkpt lat="45.19165" lon="5.7058">
        <ele>214.05</ele>
        <time>2018-09-09T07:59:41Z</time>
      </trkpt>
      <trkpt lat="45.19175" lon="5.70558">
        <ele>214.05</ele>
        <time>2018-09-09T07:59:43Z</time>
      </trkpt>
      <trkpt lat="45.19186" lon="5.70535">
        <ele>212.44</ele>
        <time>2018-09-09T07:59:45Z</time>
      </trkpt>
      <trkpt lat="45.19196" lon="5.7051">
        <ele>212.78</ele>
        <time>2018-09-09T07:59:47Z</time>
      </trkpt>
      <trkpt lat="45.19208" lon="5.70486">
        <ele>213.03</ele>
        <time>2018-09-09T07:59:49Z</time>
      </trkpt>
      <trkpt lat="45.1922" lon="5.7046">
        <ele>213.05</ele>
        <time>2018-09-09T07:59:51Z</time>
      </trkpt>
      <trkpt lat="45.1923" lon="5.70434">
        <ele>213.05</ele>
        <time>2018-09-09T07:59:53Z</time>
      </trkpt>
      <trkpt lat="45.19239" lon="5.70407">
        <ele>213.96</ele>
        <time>2018-09-09T07:59:55Z</time>
      </trkpt>
      <trkpt lat="45.19244" lon="5.7038">
        <ele>213.13</ele>
        <time>2018-09-09T07:59:57Z</time>
      </trkpt>
      <trkpt lat="45.19246" lon="5.7035">
        <ele>212.99</ele>
        <time>2018-09-09T08:00:00Z</time>
      </trkpt>
      <trkpt lat="45.19246" lon="5.70314">
        <ele>215.9</ele>
        <time>2018-09-09T08:00:03Z</time>
      </trkpt>
      <trkpt lat="45.19245" lon="5.70281">
        <ele>216.26</ele>
        <time>2018-09-09T08:00:06Z</time>
      </trkpt>
      <trkpt lat="45.19236" lon="5.70258">
        <ele>217.05</ele>
        <time>2018-09-09T08:00:11Z</time>
      </trkpt>
      <trkpt lat="45.1921" lon="5.70255">
        <ele>216.14</ele>
        <time>2018-09-09T08:00:14Z</time>
      </trkpt>
      <trkpt lat="45.19185" lon="5.70254">
        <ele>215.36</ele>
        <time>2018-09-09T08:00:16Z</time>
      </trkpt>
      <trkpt lat="45.19157" lon="5.70253">
        <ele>214.17</ele>
        <time>2018-09-09T08:00:18Z</time>
      </trkpt>
      <trkpt lat="45.19126" lon="5.70255">
        <ele>213.15</ele>
        <time>2018-09-09T08:00:20Z</time>
      </trkpt>
      <trkpt lat="45.19093" lon="5.70258">
        <ele>212.15</ele>
        <time>2018-09-09T08:00:22Z</time>
      </trkpt>
      <trkpt lat="45.19059" lon="5.70261">
        <ele>212.06</ele>
        <time>2018-09-09T08:00:24Z</time>
      </trkpt>
      <trkpt lat="45.19024" lon="5.70262">
        <ele>212.05</ele>
        <time>2018-09-09T08:00:26Z</time>
      </trkpt>
      <trkpt lat="45.18989" lon="5.70262">
        <ele>212.75</ele>
        <time>2018-09-09T08:00:28Z</time>
      </trkpt>
      <trkpt lat="45.18953" lon="5.70261">
        <ele>212.81</ele>
        <time>2018-09-09T08:00:30Z</time>
      </trkpt>
      <trkpt lat="45.18935" lon="5.70259">
        <ele>213.68</ele>
        <time>2018-09-09T08:00:31Z</time>
      </trkpt>
      <trkpt lat="45.18916" lon="5.70258">
        <ele>213.94</ele>
        <time>2018-09-09T08:00:32Z</time>
      </trkpt>
      <trkpt lat="45.18896" lon="5.70258">
        <ele>214.02</ele>
        <time>2018-09-09T08:00:33Z</time>
      </trkpt>
      <trkpt lat="45.18876" lon="5.70259">
        <ele>214.74</ele>
        <time>2018-09-09T08:00:34Z</time>
      </trkpt>
      <trkpt lat="45.18857" lon="5.70258">
        <ele>215.66</ele>
        <time>2018-09-09T08:00:35Z</time>
      </trkpt>
      <trkpt lat="45.18837" lon="5.70258">
        <ele>215.93</ele>
        <time>2018-09-09T08:00:36Z</time>
      </trkpt>
      <trkpt lat="45.18817" lon="5.70255">
        <ele>216.01</ele>
        <time>2018-09-09T08:00:37Z</time>
      </trkpt>
      <trkpt lat="45.18799" lon="5.70255">
        <ele>216.04</ele>
        <time>2018-09-09T08:00:38Z</time>
      </trkpt>
      <trkpt lat="45.18779" lon="5.70255">
        <ele>216.75</ele>
        <time>2018-09-09T08:00:39Z</time>
      </trkpt>
      <trkpt lat="45.18759" lon="5.70254">
        <ele>217.66</ele>
        <time>2018-09-09T08:00:40Z</time>
      </trkpt>
      <trkpt lat="45.18739" lon="5.70254">
        <ele>217.93</ele>
        <time>2018-09-09T08:00:41Z</time>
      </trkpt>
      <trkpt lat="45.18719" lon="5.70254">
        <ele>218.01</ele>
        <time>2018-09-09T08:00:42Z</time>
      </trkpt>
      <trkpt lat="45.18699" lon="5.70253">
        <ele>218.04</ele>
        <time>2018-09-09T08:00:43Z</time>
      </trkpt>
      <trkpt lat="45.1868" lon="5.70253">
        <ele>218.05</ele>
        <time>2018-09-09T08:00:44Z</time>
      </trkpt>
      <trkpt lat="45.1866" lon="5.70252">
        <ele>218.75</ele>
        <time>2018-09-09T08:00:45Z</time>
      </trkpt>
      <trkpt lat="45.1864" lon="5.70251">
        <ele>218.96</ele>
        <time>2018-09-09T08:00:46Z</time>
      </trkpt>
      <trkpt lat="45.1862" lon="5.7025">
        <ele>219.72</ele>
        <time>2018-09-09T08:00:47Z</time>
      </trkpt>
      <trkpt lat="45.18599" lon="5.7025">
        <ele>219.95</ele>
        <time>2018-09-09T08:00:48Z</time>
      </trkpt>
      <trkpt lat="45.18579" lon="5.70249">
        <ele>220.02</ele>
        <time>2018-09-09T08:00:49Z</time>
      </trkpt>
      <trkpt lat="45.18558" lon="5.70249">
        <ele>220.74</ele>
        <time>2018-09-09T08:00:50Z</time>
      </trkpt>
      <trkpt lat="45.18538" lon="5.70249">
        <ele>220.26</ele>
        <time>2018-09-09T08:00:51Z</time>
      </trkpt>
      <trkpt lat="45.18518" lon="5.70248">
        <ele>220.81</ele>
        <time>2018-09-09T08:00:52Z</time>
      </trkpt>
      <trkpt lat="45.18498" lon="5.70248">
        <ele>220.98</ele>
        <time>2018-09-09T08:00:53Z</time>
      </trkpt>
      <trkpt lat="45.18478" lon="5.70247">
        <ele>221.03</ele>
        <time>2018-09-09T08:00:54Z</time>
      </trkpt>
      <trkpt lat="45.18457" lon="5.70247">
        <ele>221.74</ele>
        <time>2018-09-09T08:00:55Z</time>
      </trkpt>
      <trkpt lat="45.18436" lon="5.70246">
        <ele>221.96</ele>
        <time>2018-09-09T08:00:56Z</time>
      </trkpt>
      <trkpt lat="45.18416" lon="5.70246">
        <ele>222.02</ele>
        <time>2018-09-09T08:00:57Z</time>
      </trkpt>
      <trkpt lat="45.18396" lon="5.70245">
        <ele>222.04</ele>
        <time>2018-09-09T08:00:58Z</time>
      </trkpt>
      <trkpt lat="45.18377" lon="5.70244">
        <ele>221.35</ele>
        <time>2018-09-09T08:00:59Z</time>
      </trkpt>
      <trkpt lat="45.18357" lon="5.70244">
        <ele>221.14</ele>
        <time>2018-09-09T08:01:00Z</time>
      </trkpt>
      <trkpt lat="45.18336" lon="5.70242">
        <ele>221.08</ele>
        <time>2018-09-09T08:01:01Z</time>
      </trkpt>
      <trkpt lat="45.18316" lon="5.70241">
        <ele>221.06</ele>
        <time>2018-09-09T08:01:02Z</time>
      </trkpt>
      <trkpt lat="45.18296" lon="5.7024">
        <ele>221.75</ele>
        <time>2018-09-09T08:01:03Z</time>
      </trkpt>
      <trkpt lat="45.18276" lon="5.70239">
        <ele>221.96</ele>
        <time>2018-09-09T08:01:04Z</time>
      </trkpt>
      <trkpt lat="45.18256" lon="5.70239">
        <ele>221.32</ele>
        <time>2018-09-09T08:01:05Z</time>
      </trkpt>
      <trkpt lat="45.18235" lon="5.70238">
        <ele>220.43</ele>
        <time>2018-09-09T08:01:06Z</time>
      </trkpt>
      <trkpt lat="45.18215" lon="5.70238">
        <ele>220.16</ele>
        <time>2018-09-09T08:01:07Z</time>
      </trkpt>
      <trkpt lat="45.18196" lon="5.70237">
        <ele>220.08</ele>
        <time>2018-09-09T08:01:08Z</time>
      </trkpt>
      <trkpt lat="45.18176" lon="5.70237">
        <ele>220.06</ele>
        <time>2018-09-09T08:01:09Z</time>
      </trkpt>
      <trkpt lat="45.18156" lon="5.70237">
        <ele>220.05</ele>
        <time>2018-09-09T08:01:10Z</time>
      </trkpt>
      <trkpt lat="45.18137" lon="5.70235">
        <ele>220.05</ele>
        <time>2018-09-09T08:01:11Z</time>
      </trkpt>
      <trkpt lat="45.18117" lon="5.70235">
        <ele>219.35</ele>
        <time>2018-09-09T08:01:12Z</time>
      </trkpt>
      <trkpt lat="45.18097" lon="5.70234">
        <ele>219.14</ele>
        <time>2018-09-09T08:01:13Z</time>
      </trkpt>
      <trkpt lat="45.18077" lon="5.70233">
        <ele>219.08</ele>
        <time>2018-09-09T08:01:14Z</time>
      </trkpt>
      <trkpt lat="45.18058" lon="5.70233">
        <ele>218.36</ele>
        <time>2018-09-09T08:01:15Z</time>
      </trkpt>
      <trkpt lat="45.18039" lon="5.70232">
        <ele>218.14</ele>
        <time>2018-09-09T08:01:16Z</time>
      </trkpt>
      <trkpt lat="45.1802" lon="5.70232">
        <ele>218.08</ele>
        <time>2018-09-09T08:01:17Z</time>
      </trkpt>
      <trkpt lat="45.18001" lon="5.70232">
        <ele>218.06</ele>
        <time>2018-09-09T08:01:18Z</time>
      </trkpt>
      <trkpt lat="45.17982" lon="5.70231">
        <ele>218.75</ele>
        <time>2018-09-09T08:01:19Z</time>
      </trkpt>
      <trkpt lat="45.17963" lon="5.70232">
        <ele>218.96</ele>
        <time>2018-09-09T08:01:20Z</time>
      </trkpt>
      <trkpt lat="45.17944" lon="5.70232">
        <ele>219.02</ele>
        <time>2018-09-09T08:01:21Z</time>
      </trkpt>
      <trkpt lat="45.17925" lon="5.70232">
        <ele>218.34</ele>
        <time>2018-09-09T08:01:22Z</time>
      </trkpt>
      <trkpt lat="45.17906" lon="5.70232">
        <ele>218.14</ele>
        <time>2018-09-09T08:01:23Z</time>
      </trkpt>
      <trkpt lat="45.17887" lon="5.70231">
        <ele>218.08</ele>
        <time>2018-09-09T08:01:24Z</time>
      </trkpt>
      <trkpt lat="45.17868" lon="5.7023">
        <ele>218.06</ele>
        <time>2018-09-09T08:01:25Z</time>
      </trkpt>
      <trkpt lat="45.17849" lon="5.70227">
        <ele>218.05</ele>
        <time>2018-09-09T08:01:26Z</time>
      </trkpt>
      <trkpt lat="45.17829" lon="5.70227">
        <ele>218.05</ele>
        <time>2018-09-09T08:01:27Z</time>
      </trkpt>
      <trkpt lat="45.17809" lon="5.70226">
        <ele>218.05</ele>
        <time>2018-09-09T08:01:28Z</time>
      </trkpt>
      <trkpt lat="45.17789" lon="5.70225">
        <ele>219.45</ele>
        <time>2018-09-09T08:01:29Z</time>
      </trkpt>
      <trkpt lat="45.17769" lon="5.70224">
        <ele>219.17</ele>
        <time>2018-09-09T08:01:30Z</time>
      </trkpt>
      <trkpt lat="45.17749" lon="5.70223">
        <ele>219.09</ele>
        <time>2018-09-09T08:01:31Z</time>
      </trkpt>
      <trkpt lat="45.17729" lon="5.70221">
        <ele>219.06</ele>
        <time>2018-09-09T08:01:32Z</time>
      </trkpt>
      <trkpt lat="45.1771" lon="5.70219">
        <ele>219.05</ele>
        <time>2018-09-09T08:01:33Z</time>
      </trkpt>
      <trkpt lat="45.17691" lon="5.70218">
        <ele>219.75</ele>
        <time>2018-09-09T08:01:34Z</time>
      </trkpt>
      <trkpt lat="45.17671" lon="5.70217">
        <ele>219.96</ele>
        <time>2018-09-09T08:01:35Z</time>
      </trkpt>
      <trkpt lat="45.17651" lon="5.70215">
        <ele>220.02</ele>
        <time>2018-09-09T08:01:36Z</time>
      </trkpt>
      <trkpt lat="45.17632" lon="5.70215">
        <ele>220.04</ele>
        <time>2018-09-09T08:01:37Z</time>
      </trkpt>
      <trkpt lat="45.17612" lon="5.70214">
        <ele>220.75</ele>
        <time>2018-09-09T08:01:38Z</time>
      </trkpt>
      <trkpt lat="45.17592" lon="5.70213">
        <ele>220.96</ele>
        <time>2018-09-09T08:01:39Z</time>
      </trkpt>
      <trkpt lat="45.17573" lon="5.70213">
        <ele>221.02</ele>
        <time>2018-09-09T08:01:40Z</time>
      </trkpt>
      <trkpt lat="45.17553" lon="5.70212">
        <ele>221.74</ele>
        <time>2018-09-09T08:01:41Z</time>
      </trkpt>
      <trkpt lat="45.17534" lon="5.70212">
        <ele>221.96</ele>
        <time>2018-09-09T08:01:42Z</time>
      </trkpt>
      <trkpt lat="45.17514" lon="5.70212">
        <ele>221.32</ele>
        <time>2018-09-09T08:01:43Z</time>
      </trkpt>
      <trkpt lat="45.17495" lon="5.70211">
        <ele>221.83</ele>
        <time>2018-09-09T08:01:44Z</time>
      </trkpt>
      <trkpt lat="45.17476" lon="5.70212">
        <ele>221.98</ele>
        <time>2018-09-09T08:01:45Z</time>
      </trkpt>
      <trkpt lat="45.17457" lon="5.70212">
        <ele>222.03</ele>
        <time>2018-09-09T08:01:46Z</time>
      </trkpt>
      <trkpt lat="45.17439" lon="5.7021">
        <ele>222.04</ele>
        <time>2018-09-09T08:01:47Z</time>
      </trkpt>
      <trkpt lat="45.17419" lon="5.70209">
        <ele>222.75</ele>
        <time>2018-09-09T08:01:48Z</time>
      </trkpt>
      <trkpt lat="45.17401" lon="5.70208">
        <ele>222.96</ele>
        <time>2018-09-09T08:01:49Z</time>
      </trkpt>
      <trkpt lat="45.17382" lon="5.70209">
        <ele>222.32</ele>
        <time>2018-09-09T08:01:50Z</time>
      </trkpt>
      <trkpt lat="45.17363" lon="5.70208">
        <ele>222.13</ele>
        <time>2018-09-09T08:01:51Z</time>
      </trkpt>
      <trkpt lat="45.17344" lon="5.70207">
        <ele>222.07</ele>
        <time>2018-09-09T08:01:52Z</time>
      </trkpt>
      <trkpt lat="45.17324" lon="5.70207">
        <ele>222.76</ele>
        <time>2018-09-09T08:01:53Z</time>
      </trkpt>
      <trkpt lat="45.17304" lon="5.70206">
        <ele>222.96</ele>
        <time>2018-09-09T08:01:54Z</time>
      </trkpt>
      <trkpt lat="45.17285" lon="5.70205">
        <ele>223.02</ele>
        <time>2018-09-09T08:01:55Z</time>
      </trkpt>
      <trkpt lat="45.17265" lon="5.70203">
        <ele>222.34</ele>
        <time>2018-09-09T08:01:56Z</time>
      </trkpt>
      <trkpt lat="45.17245" lon="5.70202">
        <ele>222.14</ele>
        <time>2018-09-09T08:01:57Z</time>
      </trkpt>
      <trkpt lat="45.17225" lon="5.702">
        <ele>222.78</ele>
        <time>2018-09-09T08:01:58Z</time>
      </trkpt>
      <trkpt lat="45.17205" lon="5.702">
        <ele>222.27</ele>
        <time>2018-09-09T08:01:59Z</time>
      </trkpt>
      <trkpt lat="45.17185" lon="5.70199">
        <ele>222.81</ele>
        <time>2018-09-09T08:02:00Z</time>
      </trkpt>
      <trkpt lat="45.17166" lon="5.702">
        <ele>222.28</ele>
        <time>2018-09-09T08:02:01Z</time>
      </trkpt>
      <trkpt lat="45.17147" lon="5.70199">
        <ele>222.12</ele>
        <time>2018-09-09T08:02:02Z</time>
      </trkpt>
      <trkpt lat="45.17128" lon="5.70198">
        <ele>221.37</ele>
        <time>2018-09-09T08:02:03Z</time>
      </trkpt>
      <trkpt lat="45.1711" lon="5.70197">
        <ele>221.85</ele>
        <time>2018-09-09T08:02:04Z</time>
      </trkpt>
      <trkpt lat="45.17074" lon="5.70195">
        <ele>221.33</ele>
        <time>2018-09-09T08:02:06Z</time>
      </trkpt>
      <trkpt lat="45.17038" lon="5.70192">
        <ele>221.07</ele>
        <time>2018-09-09T08:02:08Z</time>
      </trkpt>
      <trkpt lat="45.17004" lon="5.7019">
        <ele>221.05</ele>
        <time>2018-09-09T08:02:10Z</time>
      </trkpt>
      <trkpt lat="45.16986" lon="5.70189">
        <ele>221.75</ele>
        <time>2018-09-09T08:02:11Z</time>
      </trkpt>
      <trkpt lat="45.16951" lon="5.70189">
        <ele>222.02</ele>
        <time>2018-09-09T08:02:13Z</time>
      </trkpt>
      <trkpt lat="45.16932" lon="5.70188">
        <ele>221.34</ele>
        <time>2018-09-09T08:02:14Z</time>
      </trkpt>
      <trkpt lat="45.16914" lon="5.70188">
        <ele>220.44</ele>
        <time>2018-09-09T08:02:15Z</time>
      </trkpt>
      <trkpt lat="45.16896" lon="5.70188">
        <ele>220.87</ele>
        <time>2018-09-09T08:02:16Z</time>
      </trkpt>
      <trkpt lat="45.16877" lon="5.70187">
        <ele>220.99</ele>
        <time>2018-09-09T08:02:17Z</time>
      </trkpt>
      <trkpt lat="45.16858" lon="5.70185">
        <ele>221.73</ele>
        <time>2018-09-09T08:02:18Z</time>
      </trkpt>
      <trkpt lat="45.16838" lon="5.70184">
        <ele>222.65</ele>
        <time>2018-09-09T08:02:19Z</time>
      </trkpt>
      <trkpt lat="45.16818" lon="5.70183">
        <ele>222.93</ele>
        <time>2018-09-09T08:02:20Z</time>
      </trkpt>
      <trkpt lat="45.16799" lon="5.70181">
        <ele>223.01</ele>
        <time>2018-09-09T08:02:21Z</time>
      </trkpt>
      <trkpt lat="45.16779" lon="5.70179">
        <ele>223.04</ele>
        <time>2018-09-09T08:02:22Z</time>
      </trkpt>
      <trkpt lat="45.16759" lon="5.70179">
        <ele>223.05</ele>
        <time>2018-09-09T08:02:23Z</time>
      </trkpt>
      <trkpt lat="45.16738" lon="5.70178">
        <ele>223.05</ele>
        <time>2018-09-09T08:02:24Z</time>
      </trkpt>
      <trkpt lat="45.16717" lon="5.70177">
        <ele>223.05</ele>
        <time>2018-09-09T08:02:25Z</time>
      </trkpt>
      <trkpt lat="45.16696" lon="5.70176">
        <ele>223.05</ele>
        <time>2018-09-09T08:02:26Z</time>
      </trkpt>
      <trkpt lat="45.16674" lon="5.70174">
        <ele>223.05</ele>
        <time>2018-09-09T08:02:27Z</time>
      </trkpt>
      <trkpt lat="45.16651" lon="5.70173">
        <ele>223.75</ele>
        <time>2018-09-09T08:02:28Z</time>
      </trkpt>
      <trkpt lat="45.16629" lon="5.70173">
        <ele>223.96</ele>
        <time>2018-09-09T08:02:29Z</time>
      </trkpt>
      <trkpt lat="45.16606" lon="5.70172">
        <ele>224.02</ele>
        <time>2018-09-09T08:02:30Z</time>
      </trkpt>
      <trkpt lat="45.16584" lon="5.70171">
        <ele>224.74</ele>
        <time>2018-09-09T08:02:31Z</time>
      </trkpt>
      <trkpt lat="45.16561" lon="5.70168">
        <ele>224.26</ele>
        <time>2018-09-09T08:02:32Z</time>
      </trkpt>
      <trkpt lat="45.16538" lon="5.70167">
        <ele>224.81</ele>
        <time>2018-09-09T08:02:33Z</time>
      </trkpt>
      <trkpt lat="45.16515" lon="5.70166">
        <ele>224.98</ele>
        <time>2018-09-09T08:02:34Z</time>
      </trkpt>
      <trkpt lat="45.16492" lon="5.70165">
        <ele>225.03</ele>
        <time>2018-09-09T08:02:35Z</time>
      </trkpt>
      <trkpt lat="45.16469" lon="5.70164">
        <ele>225.04</ele>
        <time>2018-09-09T08:02:36Z</time>
      </trkpt>
      <trkpt lat="45.16446" lon="5.70163">
        <ele>225.05</ele>
        <time>2018-09-09T08:02:37Z</time>
      </trkpt>
      <trkpt lat="45.16423" lon="5.70162">
        <ele>225.05</ele>
        <time>2018-09-09T08:02:38Z</time>
      </trkpt>
      <trkpt lat="45.164" lon="5.70161">
        <ele>225.05</ele>
        <time>2018-09-09T08:02:39Z</time>
      </trkpt>
      <trkpt lat="45.16376" lon="5.7016">
        <ele>225.05</ele>
        <time>2018-09-09T08:02:40Z</time>
      </trkpt>
      <trkpt lat="45.16353" lon="5.7016">
        <ele>225.75</ele>
        <time>2018-09-09T08:02:41Z</time>
      </trkpt>
      <trkpt lat="45.16329" lon="5.70159">
        <ele>225.96</ele>
        <time>2018-09-09T08:02:42Z</time>
      </trkpt>
      <trkpt lat="45.16306" lon="5.70158">
        <ele>226.02</ele>
        <time>2018-09-09T08:02:43Z</time>
      </trkpt>
      <trkpt lat="45.16282" lon="5.70158">
        <ele>226.04</ele>
        <time>2018-09-09T08:02:44Z</time>
      </trkpt>
      <trkpt lat="45.16259" lon="5.70157">
        <ele>226.05</ele>
        <time>2018-09-09T08:02:45Z</time>
      </trkpt>
      <trkpt lat="45.16235" lon="5.70156">
        <ele>225.35</ele>
        <time>2018-09-09T08:02:46Z</time>
      </trkpt>
      <trkpt lat="45.16212" lon="5.70156">
        <ele>225.14</ele>
        <time>2018-09-09T08:02:47Z</time>
      </trkpt>
      <trkpt lat="45.16189" lon="5.70156">
        <ele>225.08</ele>
        <time>2018-09-09T08:02:48Z</time>
      </trkpt>
      <trkpt lat="45.16167" lon="5.70155">
        <ele>225.06</ele>
        <time>2018-09-09T08:02:49Z</time>
      </trkpt>
      <trkpt lat="45.16144" lon="5.70154">
        <ele>225.05</ele>
        <time>2018-09-09T08:02:50Z</time>
      </trkpt>
      <trkpt lat="45.16122" lon="5.70153">
        <ele>225.05</ele>
        <time>2018-09-09T08:02:51Z</time>
      </trkpt>
      <trkpt lat="45.16099" lon="5.70151">
        <ele>225.05</ele>
        <time>2018-09-09T08:02:52Z</time>
      </trkpt>
      <trkpt lat="45.16077" lon="5.7015">
        <ele>225.05</ele>
        <time>2018-09-09T08:02:53Z</time>
      </trkpt>
      <trkpt lat="45.16054" lon="5.70148">
        <ele>225.05</ele>
        <time>2018-09-09T08:02:54Z</time>
      </trkpt>
      <trkpt lat="45.16032" lon="5.70147">
        <ele>225.05</ele>
        <time>2018-09-09T08:02:55Z</time>
      </trkpt>
      <trkpt lat="45.16009" lon="5.70145">
        <ele>225.05</ele>
        <time>2018-09-09T08:02:56Z</time>
      </trkpt>
      <trkpt lat="45.15987" lon="5.70143">
        <ele>225.05</ele>
        <time>2018-09-09T08:02:57Z</time>
      </trkpt>
      <trkpt lat="45.15965" lon="5.70141">
        <ele>224.35</ele>
        <time>2018-09-09T08:02:58Z</time>
      </trkpt>
      <trkpt lat="45.15944" lon="5.70138">
        <ele>224.84</ele>
        <time>2018-09-09T08:02:59Z</time>
      </trkpt>
      <trkpt lat="45.15922" lon="5.70134">
        <ele>224.99</ele>
        <time>2018-09-09T08:03:00Z</time>
      </trkpt>
      <trkpt lat="45.159" lon="5.70129">
        <ele>225.03</ele>
        <time>2018-09-09T08:03:01Z</time>
      </trkpt>
      <trkpt lat="45.15879" lon="5.70122">
        <ele>225.04</ele>
        <time>2018-09-09T08:03:02Z</time>
      </trkpt>
      <trkpt lat="45.15858" lon="5.70113">
        <ele>225.05</ele>
        <time>2018-09-09T08:03:03Z</time>
      </trkpt>
      <trkpt lat="45.15837" lon="5.70103">
        <ele>225.75</ele>
        <time>2018-09-09T08:03:04Z</time>
      </trkpt>
      <trkpt lat="45.15817" lon="5.70089">
        <ele>225.96</ele>
        <time>2018-09-09T08:03:05Z</time>
      </trkpt>
      <trkpt lat="45.15798" lon="5.70075">
        <ele>226.02</ele>
        <time>2018-09-09T08:03:06Z</time>
      </trkpt>
      <trkpt lat="45.15778" lon="5.70062">
        <ele>226.04</ele>
        <time>2018-09-09T08:03:07Z</time>
      </trkpt>
      <trkpt lat="45.15759" lon="5.70048">
        <ele>226.75</ele>
        <time>2018-09-09T08:03:08Z</time>
      </trkpt>
      <trkpt lat="45.1574" lon="5.70034">
        <ele>226.96</ele>
        <time>2018-09-09T08:03:09Z</time>
      </trkpt>
      <trkpt lat="45.15721" lon="5.70019">
        <ele>227.02</ele>
        <time>2018-09-09T08:03:10Z</time>
      </trkpt>
      <trkpt lat="45.15701" lon="5.70003">
        <ele>227.04</ele>
        <time>2018-09-09T08:03:11Z</time>
      </trkpt>
      <trkpt lat="45.15681" lon="5.69988">
        <ele>227.05</ele>
        <time>2018-09-09T08:03:12Z</time>
      </trkpt>
      <trkpt lat="45.15661" lon="5.69974">
        <ele>227.75</ele>
        <time>2018-09-09T08:03:13Z</time>
      </trkpt>
      <trkpt lat="45.15642" lon="5.69961">
        <ele>227.96</ele>
        <time>2018-09-09T08:03:14Z</time>
      </trkpt>
      <trkpt lat="45.15621" lon="5.69949">
        <ele>228.02</ele>
        <time>2018-09-09T08:03:15Z</time>
      </trkpt>
      <trkpt lat="45.156" lon="5.69937">
        <ele>228.04</ele>
        <time>2018-09-09T08:03:16Z</time>
      </trkpt>
      <trkpt lat="45.15579" lon="5.69926">
        <ele>228.05</ele>
        <time>2018-09-09T08:03:17Z</time>
      </trkpt>
      <trkpt lat="45.15558" lon="5.69915">
        <ele>228.05</ele>
        <time>2018-09-09T08:03:18Z</time>
      </trkpt>
      <trkpt lat="45.15538" lon="5.69905">
        <ele>228.05</ele>
        <time>2018-09-09T08:03:19Z</time>
      </trkpt>
      <trkpt lat="45.15516" lon="5.69895">
        <ele>228.05</ele>
        <time>2018-09-09T08:03:20Z</time>
      </trkpt>
      <trkpt lat="45.15496" lon="5.69885">
        <ele>228.75</ele>
        <time>2018-09-09T08:03:21Z</time>
      </trkpt>
      <trkpt lat="45.15475" lon="5.69876">
        <ele>228.96</ele>
        <time>2018-09-09T08:03:22Z</time>
      </trkpt>
      <trkpt lat="45.15454" lon="5.69865">
        <ele>229.02</ele>
        <time>2018-09-09T08:03:23Z</time>
      </trkpt>
      <trkpt lat="45.15432" lon="5.69855">
        <ele>229.74</ele>
        <time>2018-09-09T08:03:24Z</time>
      </trkpt>
      <trkpt lat="45.15411" lon="5.69845">
        <ele>229.96</ele>
        <time>2018-09-09T08:03:25Z</time>
      </trkpt>
      <trkpt lat="45.1539" lon="5.69836">
        <ele>230.02</ele>
        <time>2018-09-09T08:03:26Z</time>
      </trkpt>
      <trkpt lat="45.15369" lon="5.69826">
        <ele>230.04</ele>
        <time>2018-09-09T08:03:27Z</time>
      </trkpt>
      <trkpt lat="45.15348" lon="5.69816">
        <ele>230.05</ele>
        <time>2018-09-09T08:03:28Z</time>
      </trkpt>
      <trkpt lat="45.15326" lon="5.69807">
        <ele>230.05</ele>
        <time>2018-09-09T08:03:29Z</time>
      </trkpt>
      <trkpt lat="45.15305" lon="5.69797">
        <ele>230.05</ele>
        <time>2018-09-09T08:03:30Z</time>
      </trkpt>
      <trkpt lat="45.15284" lon="5.69786">
        <ele>230.75</ele>
        <time>2018-09-09T08:03:31Z</time>
      </trkpt>
      <trkpt lat="45.15262" lon="5.69776">
        <ele>230.96</ele>
        <time>2018-09-09T08:03:32Z</time>
      </trkpt>
      <trkpt lat="45.15241" lon="5.69766">
        <ele>231.02</ele>
        <time>2018-09-09T08:03:33Z</time>
      </trkpt>
      <trkpt lat="45.1522" lon="5.69755">
        <ele>231.04</ele>
        <time>2018-09-09T08:03:34Z</time>
      </trkpt>
      <trkpt lat="45.15199" lon="5.69745">
        <ele>231.05</ele>
        <time>2018-09-09T08:03:35Z</time>
      </trkpt>
      <trkpt lat="45.15177" lon="5.69735">
        <ele>231.05</ele>
        <time>2018-09-09T08:03:36Z</time>
      </trkpt>
      <trkpt lat="45.15156" lon="5.69725">
        <ele>231.05</ele>
        <time>2018-09-09T08:03:37Z</time>
      </trkpt>
      <trkpt lat="45.15134" lon="5.69715">
        <ele>231.75</ele>
        <time>2018-09-09T08:03:38Z</time>
      </trkpt>
      <trkpt lat="45.15113" lon="5.69704">
        <ele>231.96</ele>
        <time>2018-09-09T08:03:39Z</time>
      </trkpt>
      <trkpt lat="45.15091" lon="5.69694">
        <ele>232.02</ele>
        <time>2018-09-09T08:03:40Z</time>
      </trkpt>
      <trkpt lat="45.15068" lon="5.69683">
        <ele>231.34</ele>
        <time>2018-09-09T08:03:41Z</time>
      </trkpt>
      <trkpt lat="45.15043" lon="5.69673">
        <ele>231.84</ele>
        <time>2018-09-09T08:03:42Z</time>
      </trkpt>
      <trkpt lat="45.15018" lon="5.69662">
        <ele>231.99</ele>
        <time>2018-09-09T08:03:43Z</time>
      </trkpt>
      <trkpt lat="45.14993" lon="5.69651">
        <ele>232.03</ele>
        <time>2018-09-09T08:03:44Z</time>
      </trkpt>
      <trkpt lat="45.14967" lon="5.6964">
        <ele>232.04</ele>
        <time>2018-09-09T08:03:45Z</time>
      </trkpt>
      <trkpt lat="45.14942" lon="5.69628">
        <ele>232.05</ele>
        <time>2018-09-09T08:03:46Z</time>
      </trkpt>
      <trkpt lat="45.14917" lon="5.69616">
        <ele>232.05</ele>
        <time>2018-09-09T08:03:47Z</time>
      </trkpt>
      <trkpt lat="45.14891" lon="5.69604">
        <ele>232.05</ele>
        <time>2018-09-09T08:03:48Z</time>
      </trkpt>
      <trkpt lat="45.14865" lon="5.69591">
        <ele>232.05</ele>
        <time>2018-09-09T08:03:49Z</time>
      </trkpt>
      <trkpt lat="45.1484" lon="5.69579">
        <ele>232.75</ele>
        <time>2018-09-09T08:03:50Z</time>
      </trkpt>
      <trkpt lat="45.14814" lon="5.69566">
        <ele>232.96</ele>
        <time>2018-09-09T08:03:51Z</time>
      </trkpt>
      <trkpt lat="45.14788" lon="5.69554">
        <ele>233.02</ele>
        <time>2018-09-09T08:03:52Z</time>
      </trkpt>
      <trkpt lat="45.14763" lon="5.69541">
        <ele>233.04</ele>
        <time>2018-09-09T08:03:53Z</time>
      </trkpt>
      <trkpt lat="45.14737" lon="5.69529">
        <ele>233.05</ele>
        <time>2018-09-09T08:03:54Z</time>
      </trkpt>
      <trkpt lat="45.14711" lon="5.69517">
        <ele>233.05</ele>
        <time>2018-09-09T08:03:55Z</time>
      </trkpt>
      <trkpt lat="45.14686" lon="5.69505">
        <ele>233.05</ele>
        <time>2018-09-09T08:03:56Z</time>
      </trkpt>
      <trkpt lat="45.1466" lon="5.69493">
        <ele>233.75</ele>
        <time>2018-09-09T08:03:57Z</time>
      </trkpt>
      <trkpt lat="45.14635" lon="5.69481">
        <ele>233.26</ele>
        <time>2018-09-09T08:03:58Z</time>
      </trkpt>
      <trkpt lat="45.14609" lon="5.69469">
        <ele>233.81</ele>
        <time>2018-09-09T08:03:59Z</time>
      </trkpt>
      <trkpt lat="45.14583" lon="5.69457">
        <ele>233.98</ele>
        <time>2018-09-09T08:04:00Z</time>
      </trkpt>
      <trkpt lat="45.14558" lon="5.69445">
        <ele>234.03</ele>
        <time>2018-09-09T08:04:01Z</time>
      </trkpt>
      <trkpt lat="45.14532" lon="5.69432">
        <ele>234.04</ele>
        <time>2018-09-09T08:04:02Z</time>
      </trkpt>
      <trkpt lat="45.14507" lon="5.69421">
        <ele>234.75</ele>
        <time>2018-09-09T08:04:03Z</time>
      </trkpt>
      <trkpt lat="45.14481" lon="5.69409">
        <ele>234.96</ele>
        <time>2018-09-09T08:04:04Z</time>
      </trkpt>
      <trkpt lat="45.14455" lon="5.69396">
        <ele>235.02</ele>
        <time>2018-09-09T08:04:05Z</time>
      </trkpt>
      <trkpt lat="45.1443" lon="5.69385">
        <ele>235.04</ele>
        <time>2018-09-09T08:04:06Z</time>
      </trkpt>
      <trkpt lat="45.14404" lon="5.69372">
        <ele>235.05</ele>
        <time>2018-09-09T08:04:07Z</time>
      </trkpt>
      <trkpt lat="45.14379" lon="5.6936">
        <ele>235.75</ele>
        <time>2018-09-09T08:04:08Z</time>
      </trkpt>
      <trkpt lat="45.14353" lon="5.69346">
        <ele>235.26</ele>
        <time>2018-09-09T08:04:09Z</time>
      </trkpt>
      <trkpt lat="45.14328" lon="5.69333">
        <ele>235.81</ele>
        <time>2018-09-09T08:04:10Z</time>
      </trkpt>
      <trkpt lat="45.14302" lon="5.69321">
        <ele>235.98</ele>
        <time>2018-09-09T08:04:11Z</time>
      </trkpt>
      <trkpt lat="45.14276" lon="5.69308">
        <ele>236.03</ele>
        <time>2018-09-09T08:04:12Z</time>
      </trkpt>
      <trkpt lat="45.1425" lon="5.69295">
        <ele>235.34</ele>
        <time>2018-09-09T08:04:13Z</time>
      </trkpt>
      <trkpt lat="45.14224" lon="5.69283">
        <ele>235.84</ele>
        <time>2018-09-09T08:04:14Z</time>
      </trkpt>
      <trkpt lat="45.14198" lon="5.6927">
        <ele>235.99</ele>
        <time>2018-09-09T08:04:15Z</time>
      </trkpt>
      <trkpt lat="45.14172" lon="5.69258">
        <ele>236.03</ele>
        <time>2018-09-09T08:04:16Z</time>
      </trkpt>
      <trkpt lat="45.14146" lon="5.69245">
        <ele>236.04</ele>
        <time>2018-09-09T08:04:17Z</time>
      </trkpt>
      <trkpt lat="45.1412" lon="5.69233">
        <ele>236.05</ele>
        <time>2018-09-09T08:04:18Z</time>
      </trkpt>
      <trkpt lat="45.14094" lon="5.69221">
        <ele>236.75</ele>
        <time>2018-09-09T08:04:19Z</time>
      </trkpt>
      <trkpt lat="45.14068" lon="5.69209">
        <ele>236.96</ele>
        <time>2018-09-09T08:04:20Z</time>
      </trkpt>
      <trkpt lat="45.14043" lon="5.69197">
        <ele>237.72</ele>
        <time>2018-09-09T08:04:21Z</time>
      </trkpt>
      <trkpt lat="45.14017" lon="5.69185">
        <ele>237.95</ele>
        <time>2018-09-09T08:04:22Z</time>
      </trkpt>
      <trkpt lat="45.13991" lon="5.69173">
        <ele>238.02</ele>
        <time>2018-09-09T08:04:23Z</time>
      </trkpt>
      <trkpt lat="45.13966" lon="5.69162">
        <ele>238.04</ele>
        <time>2018-09-09T08:04:24Z</time>
      </trkpt>
      <trkpt lat="45.1394" lon="5.6915">
        <ele>238.05</ele>
        <time>2018-09-09T08:04:25Z</time>
      </trkpt>
      <trkpt lat="45.13915" lon="5.69138">
        <ele>238.75</ele>
        <time>2018-09-09T08:04:26Z</time>
      </trkpt>
      <trkpt lat="45.13889" lon="5.69127">
        <ele>238.96</ele>
        <time>2018-09-09T08:04:27Z</time>
      </trkpt>
      <trkpt lat="45.13864" lon="5.69116">
        <ele>239.02</ele>
        <time>2018-09-09T08:04:28Z</time>
      </trkpt>
      <trkpt lat="45.13838" lon="5.69105">
        <ele>239.04</ele>
        <time>2018-09-09T08:04:29Z</time>
      </trkpt>
      <trkpt lat="45.13812" lon="5.69096">
        <ele>239.05</ele>
        <time>2018-09-09T08:04:30Z</time>
      </trkpt>
      <trkpt lat="45.13786" lon="5.69086">
        <ele>238.35</ele>
        <time>2018-09-09T08:04:31Z</time>
      </trkpt>
      <trkpt lat="45.1376" lon="5.69077">
        <ele>238.84</ele>
        <time>2018-09-09T08:04:32Z</time>
      </trkpt>
      <trkpt lat="45.13734" lon="5.69069">
        <ele>238.99</ele>
        <time>2018-09-09T08:04:33Z</time>
      </trkpt>
      <trkpt lat="45.13708" lon="5.69063">
        <ele>239.03</ele>
        <time>2018-09-09T08:04:34Z</time>
      </trkpt>
      <trkpt lat="45.13682" lon="5.69058">
        <ele>238.34</ele>
        <time>2018-09-09T08:04:35Z</time>
      </trkpt>
      <trkpt lat="45.13656" lon="5.69052">
        <ele>238.14</ele>
        <time>2018-09-09T08:04:36Z</time>
      </trkpt>
      <trkpt lat="45.13629" lon="5.69046">
        <ele>237.38</ele>
        <time>2018-09-09T08:04:37Z</time>
      </trkpt>
      <trkpt lat="45.13603" lon="5.6904">
        <ele>237.15</ele>
        <time>2018-09-09T08:04:38Z</time>
      </trkpt>
      <trkpt lat="45.13576" lon="5.69035">
        <ele>237.08</ele>
        <time>2018-09-09T08:04:39Z</time>
      </trkpt>
      <trkpt lat="45.1355" lon="5.69029">
        <ele>236.36</ele>
        <time>2018-09-09T08:04:40Z</time>
      </trkpt>
      <trkpt lat="45.13524" lon="5.69024">
        <ele>236.14</ele>
        <time>2018-09-09T08:04:41Z</time>
      </trkpt>
      <trkpt lat="45.13496" lon="5.6902">
        <ele>236.78</ele>
        <time>2018-09-09T08:04:42Z</time>
      </trkpt>
      <trkpt lat="45.1347" lon="5.69016">
        <ele>236.97</ele>
        <time>2018-09-09T08:04:43Z</time>
      </trkpt>
      <trkpt lat="45.13443" lon="5.69012">
        <ele>237.02</ele>
        <time>2018-09-09T08:04:44Z</time>
      </trkpt>
      <trkpt lat="45.13416" lon="5.69008">
        <ele>237.04</ele>
        <time>2018-09-09T08:04:45Z</time>
      </trkpt>
      <trkpt lat="45.13389" lon="5.69005">
        <ele>237.05</ele>
        <time>2018-09-09T08:04:46Z</time>
      </trkpt>
      <trkpt lat="45.13363" lon="5.69003">
        <ele>237.05</ele>
        <time>2018-09-09T08:04:47Z</time>
      </trkpt>
      <trkpt lat="45.13336" lon="5.69002">
        <ele>237.05</ele>
        <time>2018-09-09T08:04:48Z</time>
      </trkpt>
      <trkpt lat="45.13309" lon="5.69003">
        <ele>237.05</ele>
        <time>2018-09-09T08:04:49Z</time>
      </trkpt>
      <trkpt lat="45.13283" lon="5.69003">
        <ele>237.05</ele>
        <time>2018-09-09T08:04:50Z</time>
      </trkpt>
      <trkpt lat="45.13257" lon="5.69004">
        <ele>237.05</ele>
        <time>2018-09-09T08:04:51Z</time>
      </trkpt>
      <trkpt lat="45.1323" lon="5.69006">
        <ele>237.05</ele>
        <time>2018-09-09T08:04:52Z</time>
      </trkpt>
      <trkpt lat="45.13204" lon="5.69008">
        <ele>237.75</ele>
        <time>2018-09-09T08:04:53Z</time>
      </trkpt>
      <trkpt lat="45.13178" lon="5.69012">
        <ele>237.96</ele>
        <time>2018-09-09T08:04:54Z</time>
      </trkpt>
      <trkpt lat="45.13152" lon="5.69016">
        <ele>237.32</ele>
        <time>2018-09-09T08:04:55Z</time>
      </trkpt>
      <trkpt lat="45.13127" lon="5.6902">
        <ele>237.83</ele>
        <time>2018-09-09T08:04:56Z</time>
      </trkpt>
      <trkpt lat="45.13101" lon="5.69026">
        <ele>237.28</ele>
        <time>2018-09-09T08:04:57Z</time>
      </trkpt>
      <trkpt lat="45.13076" lon="5.69033">
        <ele>237.82</ele>
        <time>2018-09-09T08:04:58Z</time>
      </trkpt>
      <trkpt lat="45.13053" lon="5.6904">
        <ele>237.98</ele>
        <time>2018-09-09T08:04:59Z</time>
      </trkpt>
      <trkpt lat="45.13031" lon="5.69046">
        <ele>238.03</ele>
        <time>2018-09-09T08:05:00Z</time>
      </trkpt>
      <trkpt lat="45.1301" lon="5.69052">
        <ele>238.04</ele>
        <time>2018-09-09T08:05:01Z</time>
      </trkpt>
      <trkpt lat="45.12988" lon="5.69058">
        <ele>238.75</ele>
        <time>2018-09-09T08:05:02Z</time>
      </trkpt>
      <trkpt lat="45.12967" lon="5.69064">
        <ele>238.96</ele>
        <time>2018-09-09T08:05:03Z</time>
      </trkpt>
      <trkpt lat="45.12945" lon="5.69067">
        <ele>239.02</ele>
        <time>2018-09-09T08:05:04Z</time>
      </trkpt>
      <trkpt lat="45.12924" lon="5.69068">
        <ele>238.34</ele>
        <time>2018-09-09T08:05:05Z</time>
      </trkpt>
      <trkpt lat="45.12903" lon="5.69066">
        <ele>238.14</ele>
        <time>2018-09-09T08:05:06Z</time>
      </trkpt>
      <trkpt lat="45.12882" lon="5.69063">
        <ele>237.38</ele>
        <time>2018-09-09T08:05:07Z</time>
      </trkpt>
      <trkpt lat="45.12861" lon="5.69058">
        <ele>237.15</ele>
        <time>2018-09-09T08:05:08Z</time>
      </trkpt>
      <trkpt lat="45.12842" lon="5.69053">
        <ele>237.08</ele>
        <time>2018-09-09T08:05:09Z</time>
      </trkpt>
      <trkpt lat="45.12823" lon="5.69048">
        <ele>237.06</ele>
        <time>2018-09-09T08:05:10Z</time>
      </trkpt>
      <trkpt lat="45.12804" lon="5.69044">
        <ele>237.05</ele>
        <time>2018-09-09T08:05:11Z</time>
      </trkpt>
      <trkpt lat="45.12785" lon="5.6904">
        <ele>236.35</ele>
        <time>2018-09-09T08:05:12Z</time>
      </trkpt>
      <trkpt lat="45.12766" lon="5.69038">
        <ele>236.14</ele>
        <time>2018-09-09T08:05:13Z</time>
      </trkpt>
      <trkpt lat="45.12747" lon="5.69037">
        <ele>236.08</ele>
        <time>2018-09-09T08:05:14Z</time>
      </trkpt>
      <trkpt lat="45.12728" lon="5.69039">
        <ele>236.06</ele>
        <time>2018-09-09T08:05:15Z</time>
      </trkpt>
      <trkpt lat="45.12708" lon="5.69042">
        <ele>235.35</ele>
        <time>2018-09-09T08:05:16Z</time>
      </trkpt>
      <trkpt lat="45.12689" lon="5.69048">
        <ele>234.44</ele>
        <time>2018-09-09T08:05:17Z</time>
      </trkpt>
      <trkpt lat="45.12671" lon="5.69056">
        <ele>234.17</ele>
        <time>2018-09-09T08:05:18Z</time>
      </trkpt>
      <trkpt lat="45.12653" lon="5.6907">
        <ele>234.78</ele>
        <time>2018-09-09T08:05:19Z</time>
      </trkpt>
      <trkpt lat="45.12636" lon="5.69083">
        <ele>234.97</ele>
        <time>2018-09-09T08:05:20Z</time>
      </trkpt>
      <trkpt lat="45.12618" lon="5.69097">
        <ele>235.73</ele>
        <time>2018-09-09T08:05:21Z</time>
      </trkpt>
      <trkpt lat="45.12605" lon="5.69115">
        <ele>235.95</ele>
        <time>2018-09-09T08:05:22Z</time>
      </trkpt>
      <trkpt lat="45.12589" lon="5.69134">
        <ele>237.42</ele>
        <time>2018-09-09T08:05:23Z</time>
      </trkpt>
      <trkpt lat="45.12574" lon="5.6915">
        <ele>238.56</ele>
        <time>2018-09-09T08:05:24Z</time>
      </trkpt>
      <trkpt lat="45.12559" lon="5.69167">
        <ele>238.9</ele>
        <time>2018-09-09T08:05:25Z</time>
      </trkpt>
      <trkpt lat="45.12545" lon="5.69186">
        <ele>240.41</ele>
        <time>2018-09-09T08:05:26Z</time>
      </trkpt>
      <trkpt lat="45.1253" lon="5.69203">
        <ele>241.56</ele>
        <time>2018-09-09T08:05:27Z</time>
      </trkpt>
      <trkpt lat="45.12516" lon="5.6922">
        <ele>241.9</ele>
        <time>2018-09-09T08:05:28Z</time>
      </trkpt>
      <trkpt lat="45.12501" lon="5.69239">
        <ele>242</ele>
        <time>2018-09-09T08:05:29Z</time>
      </trkpt>
      <trkpt lat="45.12487" lon="5.69255">
        <ele>242.74</ele>
        <time>2018-09-09T08:05:30Z</time>
      </trkpt>
      <trkpt lat="45.12473" lon="5.69273">
        <ele>242.96</ele>
        <time>2018-09-09T08:05:31Z</time>
      </trkpt>
      <trkpt lat="45.12458" lon="5.69291">
        <ele>242.32</ele>
        <time>2018-09-09T08:05:32Z</time>
      </trkpt>
      <trkpt lat="45.12444" lon="5.69309">
        <ele>242.13</ele>
        <time>2018-09-09T08:05:33Z</time>
      </trkpt>
      <trkpt lat="45.12429" lon="5.69327">
        <ele>242.07</ele>
        <time>2018-09-09T08:05:34Z</time>
      </trkpt>
      <trkpt lat="45.12414" lon="5.69345">
        <ele>242.76</ele>
        <time>2018-09-09T08:05:35Z</time>
      </trkpt>
      <trkpt lat="45.12399" lon="5.69363">
        <ele>242.96</ele>
        <time>2018-09-09T08:05:36Z</time>
      </trkpt>
      <trkpt lat="45.12385" lon="5.69382">
        <ele>243.02</ele>
        <time>2018-09-09T08:05:37Z</time>
      </trkpt>
      <trkpt lat="45.1237" lon="5.694">
        <ele>243.04</ele>
        <time>2018-09-09T08:05:38Z</time>
      </trkpt>
      <trkpt lat="45.12354" lon="5.69418">
        <ele>243.05</ele>
        <time>2018-09-09T08:05:39Z</time>
      </trkpt>
      <trkpt lat="45.1234" lon="5.69436">
        <ele>242.35</ele>
        <time>2018-09-09T08:05:40Z</time>
      </trkpt>
      <trkpt lat="45.12325" lon="5.69453">
        <ele>242.14</ele>
        <time>2018-09-09T08:05:41Z</time>
      </trkpt>
      <trkpt lat="45.1231" lon="5.69472">
        <ele>242.08</ele>
        <time>2018-09-09T08:05:42Z</time>
      </trkpt>
      <trkpt lat="45.12295" lon="5.69489">
        <ele>242.06</ele>
        <time>2018-09-09T08:05:43Z</time>
      </trkpt>
      <trkpt lat="45.1228" lon="5.69508">
        <ele>241.35</ele>
        <time>2018-09-09T08:05:44Z</time>
      </trkpt>
      <trkpt lat="45.12265" lon="5.69525">
        <ele>241.14</ele>
        <time>2018-09-09T08:05:45Z</time>
      </trkpt>
      <trkpt lat="45.12249" lon="5.69543">
        <ele>240.38</ele>
        <time>2018-09-09T08:05:46Z</time>
      </trkpt>
      <trkpt lat="45.12234" lon="5.6956">
        <ele>240.15</ele>
        <time>2018-09-09T08:05:47Z</time>
      </trkpt>
      <trkpt lat="45.12219" lon="5.69578">
        <ele>240.08</ele>
        <time>2018-09-09T08:05:48Z</time>
      </trkpt>
      <trkpt lat="45.12205" lon="5.69595">
        <ele>240.06</ele>
        <time>2018-09-09T08:05:49Z</time>
      </trkpt>
      <trkpt lat="45.12191" lon="5.69612">
        <ele>240.05</ele>
        <time>2018-09-09T08:05:50Z</time>
      </trkpt>
      <trkpt lat="45.12177" lon="5.6963">
        <ele>240.75</ele>
        <time>2018-09-09T08:05:51Z</time>
      </trkpt>
      <trkpt lat="45.12162" lon="5.69648">
        <ele>240.96</ele>
        <time>2018-09-09T08:05:52Z</time>
      </trkpt>
      <trkpt lat="45.12146" lon="5.69663">
        <ele>241.02</ele>
        <time>2018-09-09T08:05:53Z</time>
      </trkpt>
      <trkpt lat="45.12131" lon="5.69677">
        <ele>241.04</ele>
        <time>2018-09-09T08:05:54Z</time>
      </trkpt>
      <trkpt lat="45.12115" lon="5.69691">
        <ele>241.05</ele>
        <time>2018-09-09T08:05:55Z</time>
      </trkpt>
      <trkpt lat="45.12098" lon="5.69705">
        <ele>241.05</ele>
        <time>2018-09-09T08:05:56Z</time>
      </trkpt>
      <trkpt lat="45.12082" lon="5.69719">
        <ele>241.05</ele>
        <time>2018-09-09T08:05:57Z</time>
      </trkpt>
      <trkpt lat="45.12066" lon="5.69733">
        <ele>241.05</ele>
        <time>2018-09-09T08:05:58Z</time>
      </trkpt>
      <trkpt lat="45.1205" lon="5.69746">
        <ele>241.05</ele>
        <time>2018-09-09T08:05:59Z</time>
      </trkpt>
      <trkpt lat="45.12034" lon="5.69758">
        <ele>241.05</ele>
        <time>2018-09-09T08:06:00Z</time>
      </trkpt>
      <trkpt lat="45.11994" lon="5.69756">
        <ele>242.45</ele>
        <time>2018-09-09T08:06:02Z</time>
      </trkpt>
      <trkpt lat="45.11976" lon="5.69764">
        <ele>243.57</ele>
        <time>2018-09-09T08:06:03Z</time>
      </trkpt>
      <trkpt lat="45.11956" lon="5.69768">
        <ele>243.9</ele>
        <time>2018-09-09T08:06:04Z</time>
      </trkpt>
      <trkpt lat="45.11938" lon="5.69775">
        <ele>244.01</ele>
        <time>2018-09-09T08:06:05Z</time>
      </trkpt>
      <trkpt lat="45.11919" lon="5.69781">
        <ele>244.74</ele>
        <time>2018-09-09T08:06:06Z</time>
      </trkpt>
      <trkpt lat="45.119" lon="5.69789">
        <ele>244.96</ele>
        <time>2018-09-09T08:06:07Z</time>
      </trkpt>
      <trkpt lat="45.11878" lon="5.69794">
        <ele>246.42</ele>
        <time>2018-09-09T08:06:08Z</time>
      </trkpt>
      <trkpt lat="45.11859" lon="5.69797">
        <ele>246.16</ele>
        <time>2018-09-09T08:06:09Z</time>
      </trkpt>
      <trkpt lat="45.11838" lon="5.69803">
        <ele>246.08</ele>
        <time>2018-09-09T08:06:10Z</time>
      </trkpt>
      <trkpt lat="45.11818" lon="5.6981">
        <ele>246.06</ele>
        <time>2018-09-09T08:06:11Z</time>
      </trkpt>
      <trkpt lat="45.11797" lon="5.69816">
        <ele>245.35</ele>
        <time>2018-09-09T08:06:12Z</time>
      </trkpt>
      <trkpt lat="45.11778" lon="5.69822">
        <ele>245.84</ele>
        <time>2018-09-09T08:06:13Z</time>
      </trkpt>
      <trkpt lat="45.11758" lon="5.69827">
        <ele>245.99</ele>
        <time>2018-09-09T08:06:14Z</time>
      </trkpt>
      <trkpt lat="45.11739" lon="5.69834">
        <ele>245.33</ele>
        <time>2018-09-09T08:06:15Z</time>
      </trkpt>
      <trkpt lat="45.1172" lon="5.6984">
        <ele>244.43</ele>
        <time>2018-09-09T08:06:16Z</time>
      </trkpt>
      <trkpt lat="45.11702" lon="5.69847">
        <ele>242.76</ele>
        <time>2018-09-09T08:06:17Z</time>
      </trkpt>
      <trkpt lat="45.11682" lon="5.69853">
        <ele>242.26</ele>
        <time>2018-09-09T08:06:18Z</time>
      </trkpt>
      <trkpt lat="45.11662" lon="5.69859">
        <ele>242.11</ele>
        <time>2018-09-09T08:06:19Z</time>
      </trkpt>
      <trkpt lat="45.11643" lon="5.69864">
        <ele>242.07</ele>
        <time>2018-09-09T08:06:20Z</time>
      </trkpt>
      <trkpt lat="45.11624" lon="5.69871">
        <ele>242.05</ele>
        <time>2018-09-09T08:06:21Z</time>
      </trkpt>
      <trkpt lat="45.11605" lon="5.69876">
        <ele>241.35</ele>
        <time>2018-09-09T08:06:22Z</time>
      </trkpt>
      <trkpt lat="45.11586" lon="5.69881">
        <ele>241.14</ele>
        <time>2018-09-09T08:06:23Z</time>
      </trkpt>
      <trkpt lat="45.11566" lon="5.69885">
        <ele>241.08</ele>
        <time>2018-09-09T08:06:24Z</time>
      </trkpt>
      <trkpt lat="45.11547" lon="5.6989">
        <ele>241.06</ele>
        <time>2018-09-09T08:06:25Z</time>
      </trkpt>
      <trkpt lat="45.11527" lon="5.69893">
        <ele>241.05</ele>
        <time>2018-09-09T08:06:26Z</time>
      </trkpt>
      <trkpt lat="45.11507" lon="5.69896">
        <ele>241.05</ele>
        <time>2018-09-09T08:06:27Z</time>
      </trkpt>
      <trkpt lat="45.11487" lon="5.69899">
        <ele>241.05</ele>
        <time>2018-09-09T08:06:28Z</time>
      </trkpt>
      <trkpt lat="45.11467" lon="5.69901">
        <ele>241.05</ele>
        <time>2018-09-09T08:06:29Z</time>
      </trkpt>
      <trkpt lat="45.11447" lon="5.69903">
        <ele>240.35</ele>
        <time>2018-09-09T08:06:30Z</time>
      </trkpt>
      <trkpt lat="45.11426" lon="5.69904">
        <ele>240.14</ele>
        <time>2018-09-09T08:06:31Z</time>
      </trkpt>
      <trkpt lat="45.11406" lon="5.69905">
        <ele>240.78</ele>
        <time>2018-09-09T08:06:32Z</time>
      </trkpt>
      <trkpt lat="45.11386" lon="5.69906">
        <ele>240.97</ele>
        <time>2018-09-09T08:06:33Z</time>
      </trkpt>
      <trkpt lat="45.11367" lon="5.69907">
        <ele>240.32</ele>
        <time>2018-09-09T08:06:34Z</time>
      </trkpt>
      <trkpt lat="45.11347" lon="5.69908">
        <ele>240.83</ele>
        <time>2018-09-09T08:06:35Z</time>
      </trkpt>
      <trkpt lat="45.11327" lon="5.6991">
        <ele>240.28</ele>
        <time>2018-09-09T08:06:36Z</time>
      </trkpt>
      <trkpt lat="45.11307" lon="5.6991">
        <ele>240.12</ele>
        <time>2018-09-09T08:06:37Z</time>
      </trkpt>
      <trkpt lat="45.11287" lon="5.69911">
        <ele>240.07</ele>
        <time>2018-09-09T08:06:38Z</time>
      </trkpt>
      <trkpt lat="45.11267" lon="5.69911">
        <ele>240.76</ele>
        <time>2018-09-09T08:06:39Z</time>
      </trkpt>
      <trkpt lat="45.11247" lon="5.69912">
        <ele>240.26</ele>
        <time>2018-09-09T08:06:40Z</time>
      </trkpt>
      <trkpt lat="45.11227" lon="5.69914">
        <ele>240.11</ele>
        <time>2018-09-09T08:06:41Z</time>
      </trkpt>
      <trkpt lat="45.11207" lon="5.69915">
        <ele>240.07</ele>
        <time>2018-09-09T08:06:42Z</time>
      </trkpt>
      <trkpt lat="45.11187" lon="5.69915">
        <ele>240.05</ele>
        <time>2018-09-09T08:06:43Z</time>
      </trkpt>
      <trkpt lat="45.11167" lon="5.69917">
        <ele>240.05</ele>
        <time>2018-09-09T08:06:44Z</time>
      </trkpt>
      <trkpt lat="45.11147" lon="5.69917">
        <ele>240.75</ele>
        <time>2018-09-09T08:06:45Z</time>
      </trkpt>
      <trkpt lat="45.11127" lon="5.69918">
        <ele>240.96</ele>
        <time>2018-09-09T08:06:46Z</time>
      </trkpt>
      <trkpt lat="45.11107" lon="5.69919">
        <ele>241.02</ele>
        <time>2018-09-09T08:06:47Z</time>
      </trkpt>
      <trkpt lat="45.11086" lon="5.69919">
        <ele>241.04</ele>
        <time>2018-09-09T08:06:48Z</time>
      </trkpt>
      <trkpt lat="45.11066" lon="5.6992">
        <ele>241.75</ele>
        <time>2018-09-09T08:06:49Z</time>
      </trkpt>
      <trkpt lat="45.11046" lon="5.69921">
        <ele>242.66</ele>
        <time>2018-09-09T08:06:50Z</time>
      </trkpt>
      <trkpt lat="45.11027" lon="5.69924">
        <ele>242.93</ele>
        <time>2018-09-09T08:06:51Z</time>
      </trkpt>
      <trkpt lat="45.11007" lon="5.69927">
        <ele>243.01</ele>
        <time>2018-09-09T08:06:52Z</time>
      </trkpt>
      <trkpt lat="45.10988" lon="5.69932">
        <ele>243.74</ele>
        <time>2018-09-09T08:06:53Z</time>
      </trkpt>
      <trkpt lat="45.10968" lon="5.69937">
        <ele>244.66</ele>
        <time>2018-09-09T08:06:54Z</time>
      </trkpt>
      <trkpt lat="45.10949" lon="5.69946">
        <ele>244.93</ele>
        <time>2018-09-09T08:06:55Z</time>
      </trkpt>
      <trkpt lat="45.1093" lon="5.69954">
        <ele>245.01</ele>
        <time>2018-09-09T08:06:56Z</time>
      </trkpt>
      <trkpt lat="45.10911" lon="5.69965">
        <ele>245.04</ele>
        <time>2018-09-09T08:06:57Z</time>
      </trkpt>
      <trkpt lat="45.10893" lon="5.69976">
        <ele>245.05</ele>
        <time>2018-09-09T08:06:58Z</time>
      </trkpt>
      <trkpt lat="45.10875" lon="5.69988">
        <ele>245.05</ele>
        <time>2018-09-09T08:06:59Z</time>
      </trkpt>
      <trkpt lat="45.10857" lon="5.70003">
        <ele>246.45</ele>
        <time>2018-09-09T08:07:00Z</time>
      </trkpt>
      <trkpt lat="45.10839" lon="5.70018">
        <ele>246.87</ele>
        <time>2018-09-09T08:07:01Z</time>
      </trkpt>
      <trkpt lat="45.10823" lon="5.70035">
        <ele>246.99</ele>
        <time>2018-09-09T08:07:02Z</time>
      </trkpt>
      <trkpt lat="45.10808" lon="5.70053">
        <ele>247.03</ele>
        <time>2018-09-09T08:07:03Z</time>
      </trkpt>
      <trkpt lat="45.10792" lon="5.70072">
        <ele>247.74</ele>
        <time>2018-09-09T08:07:04Z</time>
      </trkpt>
      <trkpt lat="45.10778" lon="5.70091">
        <ele>247.96</ele>
        <time>2018-09-09T08:07:05Z</time>
      </trkpt>
      <trkpt lat="45.10765" lon="5.7011">
        <ele>248.02</ele>
        <time>2018-09-09T08:07:06Z</time>
      </trkpt>
      <trkpt lat="45.1075" lon="5.70131">
        <ele>248.74</ele>
        <time>2018-09-09T08:07:07Z</time>
      </trkpt>
      <trkpt lat="45.10736" lon="5.70151">
        <ele>248.96</ele>
        <time>2018-09-09T08:07:08Z</time>
      </trkpt>
      <trkpt lat="45.10722" lon="5.7017">
        <ele>249.72</ele>
        <time>2018-09-09T08:07:09Z</time>
      </trkpt>
      <trkpt lat="45.10708" lon="5.7019">
        <ele>249.95</ele>
        <time>2018-09-09T08:07:10Z</time>
      </trkpt>
      <trkpt lat="45.10694" lon="5.70209">
        <ele>250.02</ele>
        <time>2018-09-09T08:07:11Z</time>
      </trkpt>
      <trkpt lat="45.1068" lon="5.70228">
        <ele>250.04</ele>
        <time>2018-09-09T08:07:12Z</time>
      </trkpt>
      <trkpt lat="45.10666" lon="5.70247">
        <ele>249.35</ele>
        <time>2018-09-09T08:07:13Z</time>
      </trkpt>
      <trkpt lat="45.10653" lon="5.70267">
        <ele>249.84</ele>
        <time>2018-09-09T08:07:14Z</time>
      </trkpt>
      <trkpt lat="45.10638" lon="5.70287">
        <ele>249.29</ele>
        <time>2018-09-09T08:07:15Z</time>
      </trkpt>
      <trkpt lat="45.10625" lon="5.70307">
        <ele>249.12</ele>
        <time>2018-09-09T08:07:16Z</time>
      </trkpt>
      <trkpt lat="45.10611" lon="5.70327">
        <ele>249.07</ele>
        <time>2018-09-09T08:07:17Z</time>
      </trkpt>
      <trkpt lat="45.10598" lon="5.70346">
        <ele>249.06</ele>
        <time>2018-09-09T08:07:18Z</time>
      </trkpt>
      <trkpt lat="45.10584" lon="5.70365">
        <ele>249.05</ele>
        <time>2018-09-09T08:07:19Z</time>
      </trkpt>
      <trkpt lat="45.10571" lon="5.70384">
        <ele>249.05</ele>
        <time>2018-09-09T08:07:20Z</time>
      </trkpt>
      <trkpt lat="45.10557" lon="5.70404">
        <ele>249.05</ele>
        <time>2018-09-09T08:07:21Z</time>
      </trkpt>
      <trkpt lat="45.10543" lon="5.70424">
        <ele>249.05</ele>
        <time>2018-09-09T08:07:22Z</time>
      </trkpt>
      <trkpt lat="45.1053" lon="5.70443">
        <ele>249.05</ele>
        <time>2018-09-09T08:07:23Z</time>
      </trkpt>
      <trkpt lat="45.10516" lon="5.70463">
        <ele>249.05</ele>
        <time>2018-09-09T08:07:24Z</time>
      </trkpt>
      <trkpt lat="45.10502" lon="5.70482">
        <ele>249.75</ele>
        <time>2018-09-09T08:07:25Z</time>
      </trkpt>
      <trkpt lat="45.10489" lon="5.70502">
        <ele>250.66</ele>
        <time>2018-09-09T08:07:26Z</time>
      </trkpt>
      <trkpt lat="45.10476" lon="5.70522">
        <ele>250.93</ele>
        <time>2018-09-09T08:07:27Z</time>
      </trkpt>
      <trkpt lat="45.10463" lon="5.70541">
        <ele>251.71</ele>
        <time>2018-09-09T08:07:28Z</time>
      </trkpt>
      <trkpt lat="45.10449" lon="5.70559">
        <ele>251.95</ele>
        <time>2018-09-09T08:07:29Z</time>
      </trkpt>
      <trkpt lat="45.10436" lon="5.70579">
        <ele>252.72</ele>
        <time>2018-09-09T08:07:30Z</time>
      </trkpt>
      <trkpt lat="45.10423" lon="5.70599">
        <ele>253.65</ele>
        <time>2018-09-09T08:07:31Z</time>
      </trkpt>
      <trkpt lat="45.1041" lon="5.7062">
        <ele>253.93</ele>
        <time>2018-09-09T08:07:32Z</time>
      </trkpt>
      <trkpt lat="45.10398" lon="5.70641">
        <ele>254.01</ele>
        <time>2018-09-09T08:07:33Z</time>
      </trkpt>
      <trkpt lat="45.10386" lon="5.70663">
        <ele>254.04</ele>
        <time>2018-09-09T08:07:34Z</time>
      </trkpt>
      <trkpt lat="45.10376" lon="5.70688">
        <ele>254.05</ele>
        <time>2018-09-09T08:07:35Z</time>
      </trkpt>
      <trkpt lat="45.10366" lon="5.70713">
        <ele>254.05</ele>
        <time>2018-09-09T08:07:36Z</time>
      </trkpt>
      <trkpt lat="45.10356" lon="5.70739">
        <ele>254.75</ele>
        <time>2018-09-09T08:07:37Z</time>
      </trkpt>
      <trkpt lat="45.10348" lon="5.70765">
        <ele>255.66</ele>
        <time>2018-09-09T08:07:38Z</time>
      </trkpt>
      <trkpt lat="45.10341" lon="5.70792">
        <ele>255.93</ele>
        <time>2018-09-09T08:07:39Z</time>
      </trkpt>
      <trkpt lat="45.10335" lon="5.70819">
        <ele>256.01</ele>
        <time>2018-09-09T08:07:40Z</time>
      </trkpt>
      <trkpt lat="45.10328" lon="5.70847">
        <ele>256.04</ele>
        <time>2018-09-09T08:07:41Z</time>
      </trkpt>
      <trkpt lat="45.10323" lon="5.70876">
        <ele>256.05</ele>
        <time>2018-09-09T08:07:42Z</time>
      </trkpt>
      <trkpt lat="45.10319" lon="5.70905">
        <ele>256.05</ele>
        <time>2018-09-09T08:07:43Z</time>
      </trkpt>
      <trkpt lat="45.10317" lon="5.70934">
        <ele>256.05</ele>
        <time>2018-09-09T08:07:44Z</time>
      </trkpt>
      <trkpt lat="45.10315" lon="5.70963">
        <ele>256.05</ele>
        <time>2018-09-09T08:07:45Z</time>
      </trkpt>
      <trkpt lat="45.10314" lon="5.70993">
        <ele>256.05</ele>
        <time>2018-09-09T08:07:46Z</time>
      </trkpt>
      <trkpt lat="45.10313" lon="5.71021">
        <ele>255.35</ele>
        <time>2018-09-09T08:07:47Z</time>
      </trkpt>
      <trkpt lat="45.10312" lon="5.71049">
        <ele>255.14</ele>
        <time>2018-09-09T08:07:48Z</time>
      </trkpt>
      <trkpt lat="45.1031" lon="5.71078">
        <ele>255.08</ele>
        <time>2018-09-09T08:07:49Z</time>
      </trkpt>
      <trkpt lat="45.10307" lon="5.71107">
        <ele>255.06</ele>
        <time>2018-09-09T08:07:50Z</time>
      </trkpt>
      <trkpt lat="45.10302" lon="5.71134">
        <ele>255.05</ele>
        <time>2018-09-09T08:07:51Z</time>
      </trkpt>
      <trkpt lat="45.10295" lon="5.7116">
        <ele>255.05</ele>
        <time>2018-09-09T08:07:52Z</time>
      </trkpt>
      <trkpt lat="45.10288" lon="5.71185">
        <ele>254.35</ele>
        <time>2018-09-09T08:07:53Z</time>
      </trkpt>
      <trkpt lat="45.10282" lon="5.71209">
        <ele>254.14</ele>
        <time>2018-09-09T08:07:54Z</time>
      </trkpt>
      <trkpt lat="45.10275" lon="5.71255">
        <ele>254.06</ele>
        <time>2018-09-09T08:07:56Z</time>
      </trkpt>
      <trkpt lat="45.10271" lon="5.71296">
        <ele>253.35</ele>
        <time>2018-09-09T08:07:58Z</time>
      </trkpt>
      <trkpt lat="45.10255" lon="5.71327">
        <ele>253.08</ele>
        <time>2018-09-09T08:08:00Z</time>
      </trkpt>
      <trkpt lat="45.10242" lon="5.71356">
        <ele>253.05</ele>
        <time>2018-09-09T08:08:02Z</time>
      </trkpt>
      <trkpt lat="45.10238" lon="5.71392">
        <ele>252.14</ele>
        <time>2018-09-09T08:08:04Z</time>
      </trkpt>
      <trkpt lat="45.10239" lon="5.71418">
        <ele>252.08</ele>
        <time>2018-09-09T08:08:05Z</time>
      </trkpt>
      <trkpt lat="45.10227" lon="5.71463">
        <ele>252.75</ele>
        <time>2018-09-09T08:08:07Z</time>
      </trkpt>
      <trkpt lat="45.10216" lon="5.71484">
        <ele>252.96</ele>
        <time>2018-09-09T08:08:08Z</time>
      </trkpt>
      <trkpt lat="45.10202" lon="5.71504">
        <ele>253.72</ele>
        <time>2018-09-09T08:08:09Z</time>
      </trkpt>
      <trkpt lat="45.10185" lon="5.71523">
        <ele>253.95</ele>
        <time>2018-09-09T08:08:10Z</time>
      </trkpt>
      <trkpt lat="45.10167" lon="5.71538">
        <ele>254.02</ele>
        <time>2018-09-09T08:08:11Z</time>
      </trkpt>
      <trkpt lat="45.10149" lon="5.71552">
        <ele>254.04</ele>
        <time>2018-09-09T08:08:12Z</time>
      </trkpt>
      <trkpt lat="45.10132" lon="5.71566">
        <ele>254.05</ele>
        <time>2018-09-09T08:08:13Z</time>
      </trkpt>
      <trkpt lat="45.10117" lon="5.7158">
        <ele>254.05</ele>
        <time>2018-09-09T08:08:14Z</time>
      </trkpt>
      <trkpt lat="45.10103" lon="5.71595">
        <ele>254.75</ele>
        <time>2018-09-09T08:08:15Z</time>
      </trkpt>
      <trkpt lat="45.10074" lon="5.71628">
        <ele>255.02</ele>
        <time>2018-09-09T08:08:17Z</time>
      </trkpt>
      <trkpt lat="45.10059" lon="5.71646">
        <ele>255.04</ele>
        <time>2018-09-09T08:08:18Z</time>
      </trkpt>
      <trkpt lat="45.10042" lon="5.71664">
        <ele>255.05</ele>
        <time>2018-09-09T08:08:19Z</time>
      </trkpt>
      <trkpt lat="45.10024" lon="5.71683">
        <ele>255.05</ele>
        <time>2018-09-09T08:08:20Z</time>
      </trkpt>
      <trkpt lat="45.10006" lon="5.71701">
        <ele>255.75</ele>
        <time>2018-09-09T08:08:21Z</time>
      </trkpt>
      <trkpt lat="45.09985" lon="5.71719">
        <ele>255.96</ele>
        <time>2018-09-09T08:08:22Z</time>
      </trkpt>
      <trkpt lat="45.09962" lon="5.71738">
        <ele>256.02</ele>
        <time>2018-09-09T08:08:23Z</time>
      </trkpt>
      <trkpt lat="45.09939" lon="5.71753">
        <ele>255.34</ele>
        <time>2018-09-09T08:08:24Z</time>
      </trkpt>
      <trkpt lat="45.09918" lon="5.71769">
        <ele>255.84</ele>
        <time>2018-09-09T08:08:25Z</time>
      </trkpt>
      <trkpt lat="45.09897" lon="5.71786">
        <ele>255.99</ele>
        <time>2018-09-09T08:08:26Z</time>
      </trkpt>
      <trkpt lat="45.09877" lon="5.71803">
        <ele>256.03</ele>
        <time>2018-09-09T08:08:27Z</time>
      </trkpt>
      <trkpt lat="45.09859" lon="5.71818">
        <ele>256.04</ele>
        <time>2018-09-09T08:08:28Z</time>
      </trkpt>
      <trkpt lat="45.0984" lon="5.71833">
        <ele>256.05</ele>
        <time>2018-09-09T08:08:29Z</time>
      </trkpt>
      <trkpt lat="45.09822" lon="5.71848">
        <ele>256.05</ele>
        <time>2018-09-09T08:08:30Z</time>
      </trkpt>
      <trkpt lat="45.09804" lon="5.71862">
        <ele>256.05</ele>
        <time>2018-09-09T08:08:31Z</time>
      </trkpt>
      <trkpt lat="45.09786" lon="5.71877">
        <ele>256.05</ele>
        <time>2018-09-09T08:08:32Z</time>
      </trkpt>
      <trkpt lat="45.09769" lon="5.71891">
        <ele>256.05</ele>
        <time>2018-09-09T08:08:33Z</time>
      </trkpt>
      <trkpt lat="45.09751" lon="5.71903">
        <ele>256.05</ele>
        <time>2018-09-09T08:08:34Z</time>
      </trkpt>
      <trkpt lat="45.09734" lon="5.71917">
        <ele>256.05</ele>
        <time>2018-09-09T08:08:35Z</time>
      </trkpt>
      <trkpt lat="45.09717" lon="5.71931">
        <ele>256.05</ele>
        <time>2018-09-09T08:08:36Z</time>
      </trkpt>
      <trkpt lat="45.097" lon="5.71945">
        <ele>256.05</ele>
        <time>2018-09-09T08:08:37Z</time>
      </trkpt>
      <trkpt lat="45.09682" lon="5.71958">
        <ele>256.05</ele>
        <time>2018-09-09T08:08:38Z</time>
      </trkpt>
      <trkpt lat="45.09665" lon="5.71973">
        <ele>256.05</ele>
        <time>2018-09-09T08:08:39Z</time>
      </trkpt>
      <trkpt lat="45.09648" lon="5.71985">
        <ele>256.05</ele>
        <time>2018-09-09T08:08:40Z</time>
      </trkpt>
      <trkpt lat="45.0963" lon="5.71999">
        <ele>256.05</ele>
        <time>2018-09-09T08:08:41Z</time>
      </trkpt>
      <trkpt lat="45.09613" lon="5.72012">
        <ele>256.05</ele>
        <time>2018-09-09T08:08:42Z</time>
      </trkpt>
      <trkpt lat="45.09595" lon="5.72026">
        <ele>256.75</ele>
        <time>2018-09-09T08:08:43Z</time>
      </trkpt>
      <trkpt lat="45.09578" lon="5.7204">
        <ele>256.96</ele>
        <time>2018-09-09T08:08:44Z</time>
      </trkpt>
      <trkpt lat="45.09561" lon="5.72054">
        <ele>257.02</ele>
        <time>2018-09-09T08:08:45Z</time>
      </trkpt>
      <trkpt lat="45.09543" lon="5.72069">
        <ele>257.04</ele>
        <time>2018-09-09T08:08:46Z</time>
      </trkpt>
      <trkpt lat="45.09527" lon="5.72083">
        <ele>257.05</ele>
        <time>2018-09-09T08:08:47Z</time>
      </trkpt>
      <trkpt lat="45.0951" lon="5.72098">
        <ele>257.05</ele>
        <time>2018-09-09T08:08:48Z</time>
      </trkpt>
      <trkpt lat="45.09492" lon="5.72112">
        <ele>257.75</ele>
        <time>2018-09-09T08:08:49Z</time>
      </trkpt>
      <trkpt lat="45.09475" lon="5.72127">
        <ele>257.96</ele>
        <time>2018-09-09T08:08:50Z</time>
      </trkpt>
      <trkpt lat="45.09458" lon="5.72142">
        <ele>258.02</ele>
        <time>2018-09-09T08:08:51Z</time>
      </trkpt>
      <trkpt lat="45.09441" lon="5.72156">
        <ele>258.04</ele>
        <time>2018-09-09T08:08:52Z</time>
      </trkpt>
      <trkpt lat="45.09424" lon="5.7217">
        <ele>258.05</ele>
        <time>2018-09-09T08:08:53Z</time>
      </trkpt>
      <trkpt lat="45.09407" lon="5.72183">
        <ele>258.75</ele>
        <time>2018-09-09T08:08:54Z</time>
      </trkpt>
      <trkpt lat="45.0939" lon="5.72197">
        <ele>258.96</ele>
        <time>2018-09-09T08:08:55Z</time>
      </trkpt>
      <trkpt lat="45.09373" lon="5.72211">
        <ele>259.02</ele>
        <time>2018-09-09T08:08:56Z</time>
      </trkpt>
      <trkpt lat="45.09356" lon="5.72225">
        <ele>259.74</ele>
        <time>2018-09-09T08:08:57Z</time>
      </trkpt>
      <trkpt lat="45.09339" lon="5.72239">
        <ele>259.96</ele>
        <time>2018-09-09T08:08:58Z</time>
      </trkpt>
      <trkpt lat="45.09322" lon="5.72252">
        <ele>260.02</ele>
        <time>2018-09-09T08:08:59Z</time>
      </trkpt>
      <trkpt lat="45.09305" lon="5.72267">
        <ele>260.04</ele>
        <time>2018-09-09T08:09:00Z</time>
      </trkpt>
      <trkpt lat="45.09289" lon="5.72281">
        <ele>260.05</ele>
        <time>2018-09-09T08:09:01Z</time>
      </trkpt>
      <trkpt lat="45.09273" lon="5.72296">
        <ele>260.75</ele>
        <time>2018-09-09T08:09:02Z</time>
      </trkpt>
      <trkpt lat="45.09256" lon="5.72311">
        <ele>260.96</ele>
        <time>2018-09-09T08:09:03Z</time>
      </trkpt>
      <trkpt lat="45.0924" lon="5.72326">
        <ele>261.02</ele>
        <time>2018-09-09T08:09:04Z</time>
      </trkpt>
      <trkpt lat="45.09223" lon="5.72341">
        <ele>261.04</ele>
        <time>2018-09-09T08:09:05Z</time>
      </trkpt>
      <trkpt lat="45.09206" lon="5.72356">
        <ele>260.35</ele>
        <time>2018-09-09T08:09:06Z</time>
      </trkpt>
      <trkpt lat="45.09189" lon="5.72371">
        <ele>260.14</ele>
        <time>2018-09-09T08:09:07Z</time>
      </trkpt>
      <trkpt lat="45.09173" lon="5.72386">
        <ele>260.08</ele>
        <time>2018-09-09T08:09:08Z</time>
      </trkpt>
      <trkpt lat="45.09157" lon="5.72403">
        <ele>260.06</ele>
        <time>2018-09-09T08:09:09Z</time>
      </trkpt>
      <trkpt lat="45.09142" lon="5.72422">
        <ele>260.75</ele>
        <time>2018-09-09T08:09:10Z</time>
      </trkpt>
      <trkpt lat="45.09127" lon="5.72441">
        <ele>260.96</ele>
        <time>2018-09-09T08:09:11Z</time>
      </trkpt>
      <trkpt lat="45.09114" lon="5.7246">
        <ele>260.32</ele>
        <time>2018-09-09T08:09:12Z</time>
      </trkpt>
      <trkpt lat="45.09102" lon="5.72483">
        <ele>260.83</ele>
        <time>2018-09-09T08:09:13Z</time>
      </trkpt>
      <trkpt lat="45.09091" lon="5.72506">
        <ele>260.98</ele>
        <time>2018-09-09T08:09:14Z</time>
      </trkpt>
      <trkpt lat="45.09079" lon="5.72528">
        <ele>261.73</ele>
        <time>2018-09-09T08:09:15Z</time>
      </trkpt>
      <trkpt lat="45.09068" lon="5.72551">
        <ele>261.25</ele>
        <time>2018-09-09T08:09:16Z</time>
      </trkpt>
      <trkpt lat="45.09056" lon="5.72575">
        <ele>261.11</ele>
        <time>2018-09-09T08:09:17Z</time>
      </trkpt>
      <trkpt lat="45.09045" lon="5.72599">
        <ele>261.77</ele>
        <time>2018-09-09T08:09:18Z</time>
      </trkpt>
      <trkpt lat="45.09033" lon="5.72623">
        <ele>261.96</ele>
        <time>2018-09-09T08:09:19Z</time>
      </trkpt>
      <trkpt lat="45.09021" lon="5.72647">
        <ele>262.02</ele>
        <time>2018-09-09T08:09:20Z</time>
      </trkpt>
      <trkpt lat="45.09011" lon="5.72672">
        <ele>262.04</ele>
        <time>2018-09-09T08:09:21Z</time>
      </trkpt>
      <trkpt lat="45.09001" lon="5.72697">
        <ele>262.75</ele>
        <time>2018-09-09T08:09:22Z</time>
      </trkpt>
      <trkpt lat="45.08991" lon="5.72722">
        <ele>262.96</ele>
        <time>2018-09-09T08:09:23Z</time>
      </trkpt>
      <trkpt lat="45.08981" lon="5.72746">
        <ele>263.72</ele>
        <time>2018-09-09T08:09:24Z</time>
      </trkpt>
      <trkpt lat="45.08971" lon="5.7277">
        <ele>263.95</ele>
        <time>2018-09-09T08:09:25Z</time>
      </trkpt>
      <trkpt lat="45.08961" lon="5.72794">
        <ele>264.72</ele>
        <time>2018-09-09T08:09:26Z</time>
      </trkpt>
      <trkpt lat="45.08951" lon="5.72818">
        <ele>265.65</ele>
        <time>2018-09-09T08:09:27Z</time>
      </trkpt>
      <trkpt lat="45.08941" lon="5.72841">
        <ele>266.63</ele>
        <time>2018-09-09T08:09:28Z</time>
      </trkpt>
      <trkpt lat="45.08931" lon="5.72865">
        <ele>267.62</ele>
        <time>2018-09-09T08:09:29Z</time>
      </trkpt>
      <trkpt lat="45.08921" lon="5.72889">
        <ele>268.62</ele>
        <time>2018-09-09T08:09:30Z</time>
      </trkpt>
      <trkpt lat="45.0891" lon="5.72913">
        <ele>269.62</ele>
        <time>2018-09-09T08:09:31Z</time>
      </trkpt>
      <trkpt lat="45.089" lon="5.72936">
        <ele>269.92</ele>
        <time>2018-09-09T08:09:32Z</time>
      </trkpt>
      <trkpt lat="45.0889" lon="5.7296">
        <ele>270.71</ele>
        <time>2018-09-09T08:09:33Z</time>
      </trkpt>
      <trkpt lat="45.0888" lon="5.72985">
        <ele>271.65</ele>
        <time>2018-09-09T08:09:34Z</time>
      </trkpt>
      <trkpt lat="45.08871" lon="5.7301">
        <ele>271.93</ele>
        <time>2018-09-09T08:09:35Z</time>
      </trkpt>
      <trkpt lat="45.08862" lon="5.73035">
        <ele>272.01</ele>
        <time>2018-09-09T08:09:36Z</time>
      </trkpt>
      <trkpt lat="45.08853" lon="5.7306">
        <ele>272.04</ele>
        <time>2018-09-09T08:09:37Z</time>
      </trkpt>
      <trkpt lat="45.08844" lon="5.73085">
        <ele>272.75</ele>
        <time>2018-09-09T08:09:38Z</time>
      </trkpt>
      <trkpt lat="45.08835" lon="5.7311">
        <ele>272.96</ele>
        <time>2018-09-09T08:09:39Z</time>
      </trkpt>
      <trkpt lat="45.08825" lon="5.73135">
        <ele>273.02</ele>
        <time>2018-09-09T08:09:40Z</time>
      </trkpt>
      <trkpt lat="45.08815" lon="5.73159">
        <ele>273.04</ele>
        <time>2018-09-09T08:09:41Z</time>
      </trkpt>
      <trkpt lat="45.08804" lon="5.73183">
        <ele>273.05</ele>
        <time>2018-09-09T08:09:42Z</time>
      </trkpt>
      <trkpt lat="45.08793" lon="5.73207">
        <ele>273.05</ele>
        <time>2018-09-09T08:09:43Z</time>
      </trkpt>
      <trkpt lat="45.08782" lon="5.73232">
        <ele>273.05</ele>
        <time>2018-09-09T08:09:44Z</time>
      </trkpt>
      <trkpt lat="45.08771" lon="5.73256">
        <ele>273.05</ele>
        <time>2018-09-09T08:09:45Z</time>
      </trkpt>
      <trkpt lat="45.0876" lon="5.7328">
        <ele>273.05</ele>
        <time>2018-09-09T08:09:46Z</time>
      </trkpt>
      <trkpt lat="45.0875" lon="5.73304">
        <ele>273.05</ele>
        <time>2018-09-09T08:09:47Z</time>
      </trkpt>
      <trkpt lat="45.08741" lon="5.73328">
        <ele>272.35</ele>
        <time>2018-09-09T08:09:48Z</time>
      </trkpt>
      <trkpt lat="45.08732" lon="5.73352">
        <ele>272.14</ele>
        <time>2018-09-09T08:09:49Z</time>
      </trkpt>
      <trkpt lat="45.08722" lon="5.73376">
        <ele>272.08</ele>
        <time>2018-09-09T08:09:50Z</time>
      </trkpt>
      <trkpt lat="45.08713" lon="5.734">
        <ele>271.36</ele>
        <time>2018-09-09T08:09:51Z</time>
      </trkpt>
      <trkpt lat="45.08703" lon="5.73425">
        <ele>271.14</ele>
        <time>2018-09-09T08:09:52Z</time>
      </trkpt>
      <trkpt lat="45.08694" lon="5.73449">
        <ele>271.08</ele>
        <time>2018-09-09T08:09:53Z</time>
      </trkpt>
      <trkpt lat="45.08684" lon="5.73474">
        <ele>271.06</ele>
        <time>2018-09-09T08:09:54Z</time>
      </trkpt>
      <trkpt lat="45.08673" lon="5.73497">
        <ele>271.05</ele>
        <time>2018-09-09T08:09:55Z</time>
      </trkpt>
      <trkpt lat="45.08664" lon="5.73522">
        <ele>271.05</ele>
        <time>2018-09-09T08:09:56Z</time>
      </trkpt>
      <trkpt lat="45.08654" lon="5.73546">
        <ele>271.05</ele>
        <time>2018-09-09T08:09:57Z</time>
      </trkpt>
      <trkpt lat="45.08645" lon="5.7357">
        <ele>271.05</ele>
        <time>2018-09-09T08:09:58Z</time>
      </trkpt>
      <trkpt lat="45.08634" lon="5.73593">
        <ele>271.05</ele>
        <time>2018-09-09T08:09:59Z</time>
      </trkpt>
      <trkpt lat="45.08624" lon="5.73617">
        <ele>271.05</ele>
        <time>2018-09-09T08:10:00Z</time>
      </trkpt>
      <trkpt lat="45.08614" lon="5.7364">
        <ele>271.05</ele>
        <time>2018-09-09T08:10:01Z</time>
      </trkpt>
      <trkpt lat="45.08603" lon="5.73662">
        <ele>271.05</ele>
        <time>2018-09-09T08:10:02Z</time>
      </trkpt>
      <trkpt lat="45.08592" lon="5.73685">
        <ele>271.75</ele>
        <time>2018-09-09T08:10:03Z</time>
      </trkpt>
      <trkpt lat="45.08582" lon="5.73707">
        <ele>271.96</ele>
        <time>2018-09-09T08:10:04Z</time>
      </trkpt>
      <trkpt lat="45.08571" lon="5.73729">
        <ele>272.02</ele>
        <time>2018-09-09T08:10:05Z</time>
      </trkpt>
      <trkpt lat="45.08559" lon="5.7375">
        <ele>272.74</ele>
        <time>2018-09-09T08:10:06Z</time>
      </trkpt>
      <trkpt lat="45.08547" lon="5.7377">
        <ele>272.96</ele>
        <time>2018-09-09T08:10:07Z</time>
      </trkpt>
      <trkpt lat="45.08522" lon="5.73804">
        <ele>273.95</ele>
        <time>2018-09-09T08:10:09Z</time>
      </trkpt>
      <trkpt lat="45.08507" lon="5.73819">
        <ele>274.02</ele>
        <time>2018-09-09T08:10:10Z</time>
      </trkpt>
      <trkpt lat="45.08491" lon="5.73833">
        <ele>274.04</ele>
        <time>2018-09-09T08:10:11Z</time>
      </trkpt>
      <trkpt lat="45.08475" lon="5.73847">
        <ele>274.05</ele>
        <time>2018-09-09T08:10:12Z</time>
      </trkpt>
      <trkpt lat="45.0846" lon="5.73861">
        <ele>274.75</ele>
        <time>2018-09-09T08:10:13Z</time>
      </trkpt>
      <trkpt lat="45.08444" lon="5.73875">
        <ele>274.26</ele>
        <time>2018-09-09T08:10:14Z</time>
      </trkpt>
      <trkpt lat="45.08427" lon="5.73888">
        <ele>274.11</ele>
        <time>2018-09-09T08:10:15Z</time>
      </trkpt>
      <trkpt lat="45.0841" lon="5.739">
        <ele>274.07</ele>
        <time>2018-09-09T08:10:16Z</time>
      </trkpt>
      <trkpt lat="45.08393" lon="5.73912">
        <ele>274.05</ele>
        <time>2018-09-09T08:10:17Z</time>
      </trkpt>
      <trkpt lat="45.08377" lon="5.73925">
        <ele>274.05</ele>
        <time>2018-09-09T08:10:18Z</time>
      </trkpt>
      <trkpt lat="45.08361" lon="5.73938">
        <ele>274.05</ele>
        <time>2018-09-09T08:10:19Z</time>
      </trkpt>
      <trkpt lat="45.08345" lon="5.73951">
        <ele>274.05</ele>
        <time>2018-09-09T08:10:20Z</time>
      </trkpt>
      <trkpt lat="45.08328" lon="5.73964">
        <ele>274.05</ele>
        <time>2018-09-09T08:10:21Z</time>
      </trkpt>
      <trkpt lat="45.08313" lon="5.73979">
        <ele>274.05</ele>
        <time>2018-09-09T08:10:22Z</time>
      </trkpt>
      <trkpt lat="45.08298" lon="5.73995">
        <ele>274.75</ele>
        <time>2018-09-09T08:10:23Z</time>
      </trkpt>
      <trkpt lat="45.08273" lon="5.7403">
        <ele>274.81</ele>
        <time>2018-09-09T08:10:25Z</time>
      </trkpt>
      <trkpt lat="45.08252" lon="5.7407">
        <ele>275.73</ele>
        <time>2018-09-09T08:10:27Z</time>
      </trkpt>
      <trkpt lat="45.08235" lon="5.74114">
        <ele>276.72</ele>
        <time>2018-09-09T08:10:29Z</time>
      </trkpt>
      <trkpt lat="45.08228" lon="5.74137">
        <ele>277.65</ele>
        <time>2018-09-09T08:10:30Z</time>
      </trkpt>
      <trkpt lat="45.08217" lon="5.74185">
        <ele>278.01</ele>
        <time>2018-09-09T08:10:32Z</time>
      </trkpt>
      <trkpt lat="45.08212" lon="5.74235">
        <ele>278.75</ele>
        <time>2018-09-09T08:10:34Z</time>
      </trkpt>
      <trkpt lat="45.08211" lon="5.74262">
        <ele>278.96</ele>
        <time>2018-09-09T08:10:35Z</time>
      </trkpt>
      <trkpt lat="45.08212" lon="5.74288">
        <ele>279.02</ele>
        <time>2018-09-09T08:10:36Z</time>
      </trkpt>
      <trkpt lat="45.08215" lon="5.74315">
        <ele>279.74</ele>
        <time>2018-09-09T08:10:37Z</time>
      </trkpt>
      <trkpt lat="45.08218" lon="5.7434">
        <ele>279.96</ele>
        <time>2018-09-09T08:10:38Z</time>
      </trkpt>
      <trkpt lat="45.08222" lon="5.74366">
        <ele>280.02</ele>
        <time>2018-09-09T08:10:39Z</time>
      </trkpt>
      <trkpt lat="45.08229" lon="5.74392">
        <ele>280.04</ele>
        <time>2018-09-09T08:10:40Z</time>
      </trkpt>
      <trkpt lat="45.08237" lon="5.74417">
        <ele>280.05</ele>
        <time>2018-09-09T08:10:41Z</time>
      </trkpt>
      <trkpt lat="45.08246" lon="5.74442">
        <ele>280.05</ele>
        <time>2018-09-09T08:10:42Z</time>
      </trkpt>
      <trkpt lat="45.08256" lon="5.74465">
        <ele>280.75</ele>
        <time>2018-09-09T08:10:43Z</time>
      </trkpt>
      <trkpt lat="45.08268" lon="5.74488">
        <ele>282.36</ele>
        <time>2018-09-09T08:10:44Z</time>
      </trkpt>
      <trkpt lat="45.0828" lon="5.74511">
        <ele>282.84</ele>
        <time>2018-09-09T08:10:45Z</time>
      </trkpt>
      <trkpt lat="45.08291" lon="5.74534">
        <ele>281.59</ele>
        <time>2018-09-09T08:10:46Z</time>
      </trkpt>
      <trkpt lat="45.08302" lon="5.74557">
        <ele>280.51</ele>
        <time>2018-09-09T08:10:47Z</time>
      </trkpt>
      <trkpt lat="45.08312" lon="5.7458">
        <ele>279.49</ele>
        <time>2018-09-09T08:10:48Z</time>
      </trkpt>
      <trkpt lat="45.08322" lon="5.74603">
        <ele>278.48</ele>
        <time>2018-09-09T08:10:49Z</time>
      </trkpt>
      <trkpt lat="45.08331" lon="5.74629">
        <ele>276.78</ele>
        <time>2018-09-09T08:10:50Z</time>
      </trkpt>
      <trkpt lat="45.08339" lon="5.74655">
        <ele>275.57</ele>
        <time>2018-09-09T08:10:51Z</time>
      </trkpt>
      <trkpt lat="45.08345" lon="5.74682">
        <ele>274.5</ele>
        <time>2018-09-09T08:10:52Z</time>
      </trkpt>
      <trkpt lat="45.08351" lon="5.74709">
        <ele>274.19</ele>
        <time>2018-09-09T08:10:53Z</time>
      </trkpt>
      <trkpt lat="45.08356" lon="5.74736">
        <ele>273.39</ele>
        <time>2018-09-09T08:10:54Z</time>
      </trkpt>
      <trkpt lat="45.08361" lon="5.74764">
        <ele>273.15</ele>
        <time>2018-09-09T08:10:55Z</time>
      </trkpt>
      <trkpt lat="45.08366" lon="5.74792">
        <ele>273.08</ele>
        <time>2018-09-09T08:10:56Z</time>
      </trkpt>
      <trkpt lat="45.0837" lon="5.74819">
        <ele>273.06</ele>
        <time>2018-09-09T08:10:57Z</time>
      </trkpt>
      <trkpt lat="45.08375" lon="5.74846">
        <ele>272.35</ele>
        <time>2018-09-09T08:10:58Z</time>
      </trkpt>
      <trkpt lat="45.0838" lon="5.74873">
        <ele>272.14</ele>
        <time>2018-09-09T08:10:59Z</time>
      </trkpt>
      <trkpt lat="45.08387" lon="5.749">
        <ele>273.48</ele>
        <time>2018-09-09T08:11:00Z</time>
      </trkpt>
      <trkpt lat="45.08393" lon="5.74927">
        <ele>273.88</ele>
        <time>2018-09-09T08:11:01Z</time>
      </trkpt>
      <trkpt lat="45.08399" lon="5.74952">
        <ele>274</ele>
        <time>2018-09-09T08:11:02Z</time>
      </trkpt>
      <trkpt lat="45.08407" lon="5.74979">
        <ele>275.43</ele>
        <time>2018-09-09T08:11:03Z</time>
      </trkpt>
      <trkpt lat="45.08415" lon="5.75005">
        <ele>275.65</ele>
        <time>2018-09-09T08:11:04Z</time>
      </trkpt>
      <trkpt lat="45.08422" lon="5.75031">
        <ele>276.41</ele>
        <time>2018-09-09T08:11:05Z</time>
      </trkpt>
      <trkpt lat="45.08428" lon="5.75055">
        <ele>276.64</ele>
        <time>2018-09-09T08:11:06Z</time>
      </trkpt>
      <trkpt lat="45.08435" lon="5.7508">
        <ele>276.71</ele>
        <time>2018-09-09T08:11:07Z</time>
      </trkpt>
      <trkpt lat="45.08441" lon="5.75106">
        <ele>276.03</ele>
        <time>2018-09-09T08:11:08Z</time>
      </trkpt>
      <trkpt lat="45.08446" lon="5.75133">
        <ele>275.83</ele>
        <time>2018-09-09T08:11:09Z</time>
      </trkpt>
      <trkpt lat="45.08451" lon="5.7516">
        <ele>275.77</ele>
        <time>2018-09-09T08:11:10Z</time>
      </trkpt>
      <trkpt lat="45.08456" lon="5.75186">
        <ele>275.75</ele>
        <time>2018-09-09T08:11:11Z</time>
      </trkpt>
      <trkpt lat="45.0846" lon="5.75214">
        <ele>276.44</ele>
        <time>2018-09-09T08:11:12Z</time>
      </trkpt>
      <trkpt lat="45.08465" lon="5.7524">
        <ele>276.65</ele>
        <time>2018-09-09T08:11:13Z</time>
      </trkpt>
      <trkpt lat="45.08469" lon="5.75266">
        <ele>276.71</ele>
        <time>2018-09-09T08:11:14Z</time>
      </trkpt>
      <trkpt lat="45.08474" lon="5.75292">
        <ele>276.73</ele>
        <time>2018-09-09T08:11:15Z</time>
      </trkpt>
      <trkpt lat="45.08479" lon="5.75317">
        <ele>276.04</ele>
        <time>2018-09-09T08:11:16Z</time>
      </trkpt>
      <trkpt lat="45.08484" lon="5.75344">
        <ele>276.53</ele>
        <time>2018-09-09T08:11:17Z</time>
      </trkpt>
      <trkpt lat="45.08489" lon="5.75371">
        <ele>276.68</ele>
        <time>2018-09-09T08:11:18Z</time>
      </trkpt>
      <trkpt lat="45.08494" lon="5.75398">
        <ele>276.72</ele>
        <time>2018-09-09T08:11:19Z</time>
      </trkpt>
      <trkpt lat="45.08499" lon="5.75424">
        <ele>277.44</ele>
        <time>2018-09-09T08:11:20Z</time>
      </trkpt>
      <trkpt lat="45.08503" lon="5.75451">
        <ele>277.65</ele>
        <time>2018-09-09T08:11:21Z</time>
      </trkpt>
      <trkpt lat="45.08511" lon="5.75479">
        <ele>279.11</ele>
        <time>2018-09-09T08:11:22Z</time>
      </trkpt>
      <trkpt lat="45.08516" lon="5.75506">
        <ele>280.25</ele>
        <time>2018-09-09T08:11:23Z</time>
      </trkpt>
      <trkpt lat="45.08521" lon="5.75534">
        <ele>279.89</ele>
        <time>2018-09-09T08:11:24Z</time>
      </trkpt>
      <trkpt lat="45.08525" lon="5.75562">
        <ele>279.79</ele>
        <time>2018-09-09T08:11:25Z</time>
      </trkpt>
      <trkpt lat="45.08527" lon="5.75592">
        <ele>280.45</ele>
        <time>2018-09-09T08:11:26Z</time>
      </trkpt>
      <trkpt lat="45.08525" lon="5.7562">
        <ele>279.96</ele>
        <time>2018-09-09T08:11:27Z</time>
      </trkpt>
      <trkpt lat="45.08518" lon="5.75645">
        <ele>278.41</ele>
        <time>2018-09-09T08:11:28Z</time>
      </trkpt>
      <trkpt lat="45.08512" lon="5.75672">
        <ele>277.24</ele>
        <time>2018-09-09T08:11:29Z</time>
      </trkpt>
      <trkpt lat="45.085" lon="5.75695">
        <ele>275.49</ele>
        <time>2018-09-09T08:11:30Z</time>
      </trkpt>
      <trkpt lat="45.08488" lon="5.75717">
        <ele>274.97</ele>
        <time>2018-09-09T08:11:31Z</time>
      </trkpt>
      <trkpt lat="45.08476" lon="5.75739">
        <ele>274.81</ele>
        <time>2018-09-09T08:11:32Z</time>
      </trkpt>
      <trkpt lat="45.08466" lon="5.75762">
        <ele>274.06</ele>
        <time>2018-09-09T08:11:33Z</time>
      </trkpt>
      <trkpt lat="45.08455" lon="5.75786">
        <ele>272.44</ele>
        <time>2018-09-09T08:11:34Z</time>
      </trkpt>
      <trkpt lat="45.08448" lon="5.75811">
        <ele>271.25</ele>
        <time>2018-09-09T08:11:35Z</time>
      </trkpt>
      <trkpt lat="45.08442" lon="5.75838">
        <ele>270.89</ele>
        <time>2018-09-09T08:11:36Z</time>
      </trkpt>
      <trkpt lat="45.08436" lon="5.75864">
        <ele>270.79</ele>
        <time>2018-09-09T08:11:37Z</time>
      </trkpt>
      <trkpt lat="45.08431" lon="5.75889">
        <ele>270.75</ele>
        <time>2018-09-09T08:11:38Z</time>
      </trkpt>
      <trkpt lat="45.08425" lon="5.75916">
        <ele>270.05</ele>
        <time>2018-09-09T08:11:39Z</time>
      </trkpt>
      <trkpt lat="45.08419" lon="5.75943">
        <ele>269.83</ele>
        <time>2018-09-09T08:11:40Z</time>
      </trkpt>
      <trkpt lat="45.08413" lon="5.7597">
        <ele>269.77</ele>
        <time>2018-09-09T08:11:41Z</time>
      </trkpt>
      <trkpt lat="45.08407" lon="5.75996">
        <ele>269.75</ele>
        <time>2018-09-09T08:11:42Z</time>
      </trkpt>
      <trkpt lat="45.084" lon="5.76023">
        <ele>270.44</ele>
        <time>2018-09-09T08:11:43Z</time>
      </trkpt>
      <trkpt lat="45.08394" lon="5.76049">
        <ele>271.35</ele>
        <time>2018-09-09T08:11:44Z</time>
      </trkpt>
      <trkpt lat="45.08388" lon="5.76076">
        <ele>272.32</ele>
        <time>2018-09-09T08:11:45Z</time>
      </trkpt>
      <trkpt lat="45.08381" lon="5.76102">
        <ele>271.92</ele>
        <time>2018-09-09T08:11:46Z</time>
      </trkpt>
      <trkpt lat="45.08374" lon="5.76129">
        <ele>271.79</ele>
        <time>2018-09-09T08:11:47Z</time>
      </trkpt>
      <trkpt lat="45.08368" lon="5.76156">
        <ele>271.76</ele>
        <time>2018-09-09T08:11:48Z</time>
      </trkpt>
      <trkpt lat="45.08361" lon="5.76181">
        <ele>271.75</ele>
        <time>2018-09-09T08:11:49Z</time>
      </trkpt>
      <trkpt lat="45.08355" lon="5.76208">
        <ele>271.74</ele>
        <time>2018-09-09T08:11:50Z</time>
      </trkpt>
      <trkpt lat="45.08348" lon="5.76235">
        <ele>271.74</ele>
        <time>2018-09-09T08:11:51Z</time>
      </trkpt>
      <trkpt lat="45.08342" lon="5.76261">
        <ele>271.74</ele>
        <time>2018-09-09T08:11:52Z</time>
      </trkpt>
      <trkpt lat="45.08336" lon="5.76287">
        <ele>271.74</ele>
        <time>2018-09-09T08:11:53Z</time>
      </trkpt>
      <trkpt lat="45.08329" lon="5.76312">
        <ele>271.74</ele>
        <time>2018-09-09T08:11:54Z</time>
      </trkpt>
      <trkpt lat="45.08323" lon="5.76338">
        <ele>271.74</ele>
        <time>2018-09-09T08:11:55Z</time>
      </trkpt>
      <trkpt lat="45.08317" lon="5.76364">
        <ele>272.44</ele>
        <time>2018-09-09T08:11:56Z</time>
      </trkpt>
      <trkpt lat="45.08311" lon="5.76388">
        <ele>272.65</ele>
        <time>2018-09-09T08:11:57Z</time>
      </trkpt>
      <trkpt lat="45.08305" lon="5.76413">
        <ele>272.71</ele>
        <time>2018-09-09T08:11:58Z</time>
      </trkpt>
      <trkpt lat="45.08295" lon="5.76456">
        <ele>272.04</ele>
        <time>2018-09-09T08:12:00Z</time>
      </trkpt>
      <trkpt lat="45.08285" lon="5.76494">
        <ele>271.77</ele>
        <time>2018-09-09T08:12:02Z</time>
      </trkpt>
      <trkpt lat="45.08277" lon="5.76528">
        <ele>272.44</ele>
        <time>2018-09-09T08:12:04Z</time>
      </trkpt>
      <trkpt lat="45.08267" lon="5.76549">
        <ele>272.71</ele>
        <time>2018-09-09T08:12:06Z</time>
      </trkpt>
      <trkpt lat="45.08248" lon="5.76567">
        <ele>272.74</ele>
        <time>2018-09-09T08:12:10Z</time>
      </trkpt>
      <trkpt lat="45.08229" lon="5.76577">
        <ele>271.83</ele>
        <time>2018-09-09T08:12:12Z</time>
      </trkpt>
      <trkpt lat="45.082" lon="5.76586">
        <ele>272.45</ele>
        <time>2018-09-09T08:12:14Z</time>
      </trkpt>
      <trkpt lat="45.08182" lon="5.76591">
        <ele>272.65</ele>
        <time>2018-09-09T08:12:15Z</time>
      </trkpt>
      <trkpt lat="45.08161" lon="5.76596">
        <ele>273.41</ele>
        <time>2018-09-09T08:12:16Z</time>
      </trkpt>
      <trkpt lat="45.08139" lon="5.76603">
        <ele>273.64</ele>
        <time>2018-09-09T08:12:17Z</time>
      </trkpt>
      <trkpt lat="45.08117" lon="5.76609">
        <ele>273.71</ele>
        <time>2018-09-09T08:12:18Z</time>
      </trkpt>
      <trkpt lat="45.08096" lon="5.76616">
        <ele>274.43</ele>
        <time>2018-09-09T08:12:19Z</time>
      </trkpt>
      <trkpt lat="45.08075" lon="5.76624">
        <ele>274.65</ele>
        <time>2018-09-09T08:12:20Z</time>
      </trkpt>
      <trkpt lat="45.08054" lon="5.76631">
        <ele>274.71</ele>
        <time>2018-09-09T08:12:21Z</time>
      </trkpt>
      <trkpt lat="45.08033" lon="5.76639">
        <ele>274.73</ele>
        <time>2018-09-09T08:12:22Z</time>
      </trkpt>
      <trkpt lat="45.08013" lon="5.76646">
        <ele>274.04</ele>
        <time>2018-09-09T08:12:23Z</time>
      </trkpt>
      <trkpt lat="45.07992" lon="5.76653">
        <ele>274.53</ele>
        <time>2018-09-09T08:12:24Z</time>
      </trkpt>
      <trkpt lat="45.07971" lon="5.76659">
        <ele>273.98</ele>
        <time>2018-09-09T08:12:25Z</time>
      </trkpt>
      <trkpt lat="45.0795" lon="5.76665">
        <ele>274.51</ele>
        <time>2018-09-09T08:12:26Z</time>
      </trkpt>
      <trkpt lat="45.07928" lon="5.76669">
        <ele>274.67</ele>
        <time>2018-09-09T08:12:27Z</time>
      </trkpt>
      <trkpt lat="45.07906" lon="5.76671">
        <ele>274.72</ele>
        <time>2018-09-09T08:12:28Z</time>
      </trkpt>
      <trkpt lat="45.07884" lon="5.76672">
        <ele>274.73</ele>
        <time>2018-09-09T08:12:29Z</time>
      </trkpt>
      <trkpt lat="45.07859" lon="5.76672">
        <ele>275.44</ele>
        <time>2018-09-09T08:12:30Z</time>
      </trkpt>
      <trkpt lat="45.07835" lon="5.76671">
        <ele>276.35</ele>
        <time>2018-09-09T08:12:31Z</time>
      </trkpt>
      <trkpt lat="45.07812" lon="5.76671">
        <ele>276.62</ele>
        <time>2018-09-09T08:12:32Z</time>
      </trkpt>
      <trkpt lat="45.07788" lon="5.76672">
        <ele>276.71</ele>
        <time>2018-09-09T08:12:33Z</time>
      </trkpt>
      <trkpt lat="45.07765" lon="5.76672">
        <ele>276.73</ele>
        <time>2018-09-09T08:12:34Z</time>
      </trkpt>
      <trkpt lat="45.07743" lon="5.76673">
        <ele>276.74</ele>
        <time>2018-09-09T08:12:35Z</time>
      </trkpt>
      <trkpt lat="45.07721" lon="5.76672">
        <ele>276.74</ele>
        <time>2018-09-09T08:12:36Z</time>
      </trkpt>
      <trkpt lat="45.07699" lon="5.76671">
        <ele>276.74</ele>
        <time>2018-09-09T08:12:37Z</time>
      </trkpt>
      <trkpt lat="45.07677" lon="5.76669">
        <ele>276.74</ele>
        <time>2018-09-09T08:12:38Z</time>
      </trkpt>
      <trkpt lat="45.07655" lon="5.76667">
        <ele>276.74</ele>
        <time>2018-09-09T08:12:39Z</time>
      </trkpt>
      <trkpt lat="45.07633" lon="5.7666">
        <ele>276.74</ele>
        <time>2018-09-09T08:12:40Z</time>
      </trkpt>
      <trkpt lat="45.07611" lon="5.76653">
        <ele>276.74</ele>
        <time>2018-09-09T08:12:41Z</time>
      </trkpt>
      <trkpt lat="45.0759" lon="5.76646">
        <ele>277.44</ele>
        <time>2018-09-09T08:12:42Z</time>
      </trkpt>
      <trkpt lat="45.07569" lon="5.76637">
        <ele>277.65</ele>
        <time>2018-09-09T08:12:43Z</time>
      </trkpt>
      <trkpt lat="45.07547" lon="5.76627">
        <ele>278.41</ele>
        <time>2018-09-09T08:12:44Z</time>
      </trkpt>
      <trkpt lat="45.07525" lon="5.76615">
        <ele>278.64</ele>
        <time>2018-09-09T08:12:45Z</time>
      </trkpt>
      <trkpt lat="45.07503" lon="5.76603">
        <ele>279.41</ele>
        <time>2018-09-09T08:12:46Z</time>
      </trkpt>
      <trkpt lat="45.07482" lon="5.7659">
        <ele>278.94</ele>
        <time>2018-09-09T08:12:47Z</time>
      </trkpt>
      <trkpt lat="45.07461" lon="5.76576">
        <ele>279.5</ele>
        <time>2018-09-09T08:12:48Z</time>
      </trkpt>
      <trkpt lat="45.07441" lon="5.76563">
        <ele>279.67</ele>
        <time>2018-09-09T08:12:49Z</time>
      </trkpt>
      <trkpt lat="45.07422" lon="5.76548">
        <ele>279.72</ele>
        <time>2018-09-09T08:12:50Z</time>
      </trkpt>
      <trkpt lat="45.07403" lon="5.76535">
        <ele>279.73</ele>
        <time>2018-09-09T08:12:51Z</time>
      </trkpt>
      <trkpt lat="45.07384" lon="5.76522">
        <ele>279.74</ele>
        <time>2018-09-09T08:12:52Z</time>
      </trkpt>
      <trkpt lat="45.07366" lon="5.76509">
        <ele>279.74</ele>
        <time>2018-09-09T08:12:53Z</time>
      </trkpt>
      <trkpt lat="45.07347" lon="5.76497">
        <ele>279.74</ele>
        <time>2018-09-09T08:12:54Z</time>
      </trkpt>
      <trkpt lat="45.07329" lon="5.76484">
        <ele>279.74</ele>
        <time>2018-09-09T08:12:55Z</time>
      </trkpt>
      <trkpt lat="45.07311" lon="5.76471">
        <ele>280.44</ele>
        <time>2018-09-09T08:12:56Z</time>
      </trkpt>
      <trkpt lat="45.07293" lon="5.76459">
        <ele>280.65</ele>
        <time>2018-09-09T08:12:57Z</time>
      </trkpt>
      <trkpt lat="45.07275" lon="5.76446">
        <ele>280.71</ele>
        <time>2018-09-09T08:12:58Z</time>
      </trkpt>
      <trkpt lat="45.07257" lon="5.76433">
        <ele>280.73</ele>
        <time>2018-09-09T08:12:59Z</time>
      </trkpt>
      <trkpt lat="45.07239" lon="5.76421">
        <ele>281.44</ele>
        <time>2018-09-09T08:13:00Z</time>
      </trkpt>
      <trkpt lat="45.07221" lon="5.76409">
        <ele>280.95</ele>
        <time>2018-09-09T08:13:01Z</time>
      </trkpt>
      <trkpt lat="45.07203" lon="5.76397">
        <ele>280.8</ele>
        <time>2018-09-09T08:13:02Z</time>
      </trkpt>
      <trkpt lat="45.07187" lon="5.76385">
        <ele>280.76</ele>
        <time>2018-09-09T08:13:03Z</time>
      </trkpt>
      <trkpt lat="45.07169" lon="5.76374">
        <ele>281.45</ele>
        <time>2018-09-09T08:13:04Z</time>
      </trkpt>
      <trkpt lat="45.07153" lon="5.76362">
        <ele>281.65</ele>
        <time>2018-09-09T08:13:05Z</time>
      </trkpt>
      <trkpt lat="45.07135" lon="5.7635">
        <ele>281.71</ele>
        <time>2018-09-09T08:13:06Z</time>
      </trkpt>
      <trkpt lat="45.07118" lon="5.76338">
        <ele>281.03</ele>
        <time>2018-09-09T08:13:07Z</time>
      </trkpt>
      <trkpt lat="45.071" lon="5.76328">
        <ele>280.83</ele>
        <time>2018-09-09T08:13:08Z</time>
      </trkpt>
      <trkpt lat="45.07082" lon="5.76317">
        <ele>281.47</ele>
        <time>2018-09-09T08:13:09Z</time>
      </trkpt>
      <trkpt lat="45.07064" lon="5.76307">
        <ele>281.66</ele>
        <time>2018-09-09T08:13:10Z</time>
      </trkpt>
      <trkpt lat="45.07046" lon="5.76296">
        <ele>281.72</ele>
        <time>2018-09-09T08:13:11Z</time>
      </trkpt>
      <trkpt lat="45.07027" lon="5.76286">
        <ele>281.73</ele>
        <time>2018-09-09T08:13:12Z</time>
      </trkpt>
      <trkpt lat="45.07008" lon="5.76277">
        <ele>281.74</ele>
        <time>2018-09-09T08:13:13Z</time>
      </trkpt>
      <trkpt lat="45.06989" lon="5.76268">
        <ele>281.74</ele>
        <time>2018-09-09T08:13:14Z</time>
      </trkpt>
      <trkpt lat="45.06968" lon="5.76261">
        <ele>282.44</ele>
        <time>2018-09-09T08:13:15Z</time>
      </trkpt>
      <trkpt lat="45.06948" lon="5.76253">
        <ele>282.65</ele>
        <time>2018-09-09T08:13:16Z</time>
      </trkpt>
      <trkpt lat="45.06928" lon="5.76245">
        <ele>283.41</ele>
        <time>2018-09-09T08:13:17Z</time>
      </trkpt>
      <trkpt lat="45.06908" lon="5.76238">
        <ele>283.64</ele>
        <time>2018-09-09T08:13:18Z</time>
      </trkpt>
      <trkpt lat="45.06888" lon="5.76232">
        <ele>283.71</ele>
        <time>2018-09-09T08:13:19Z</time>
      </trkpt>
      <trkpt lat="45.06868" lon="5.76228">
        <ele>283.73</ele>
        <time>2018-09-09T08:13:20Z</time>
      </trkpt>
      <trkpt lat="45.06848" lon="5.76224">
        <ele>284.44</ele>
        <time>2018-09-09T08:13:21Z</time>
      </trkpt>
      <trkpt lat="45.06828" lon="5.76221">
        <ele>284.65</ele>
        <time>2018-09-09T08:13:22Z</time>
      </trkpt>
      <trkpt lat="45.06808" lon="5.76217">
        <ele>284.01</ele>
        <time>2018-09-09T08:13:23Z</time>
      </trkpt>
      <trkpt lat="45.06787" lon="5.76215">
        <ele>283.82</ele>
        <time>2018-09-09T08:13:24Z</time>
      </trkpt>
      <trkpt lat="45.06767" lon="5.76213">
        <ele>283.77</ele>
        <time>2018-09-09T08:13:25Z</time>
      </trkpt>
      <trkpt lat="45.06747" lon="5.76211">
        <ele>283.75</ele>
        <time>2018-09-09T08:13:26Z</time>
      </trkpt>
      <trkpt lat="45.06727" lon="5.76211">
        <ele>283.74</ele>
        <time>2018-09-09T08:13:27Z</time>
      </trkpt>
      <trkpt lat="45.06708" lon="5.7621">
        <ele>284.44</ele>
        <time>2018-09-09T08:13:28Z</time>
      </trkpt>
      <trkpt lat="45.06688" lon="5.7621">
        <ele>283.95</ele>
        <time>2018-09-09T08:13:29Z</time>
      </trkpt>
      <trkpt lat="45.06669" lon="5.7621">
        <ele>283.8</ele>
        <time>2018-09-09T08:13:30Z</time>
      </trkpt>
      <trkpt lat="45.06648" lon="5.76209">
        <ele>284.46</ele>
        <time>2018-09-09T08:13:31Z</time>
      </trkpt>
      <trkpt lat="45.06629" lon="5.7621">
        <ele>284.66</ele>
        <time>2018-09-09T08:13:32Z</time>
      </trkpt>
      <trkpt lat="45.06608" lon="5.7621">
        <ele>285.42</ele>
        <time>2018-09-09T08:13:33Z</time>
      </trkpt>
      <trkpt lat="45.06589" lon="5.76211">
        <ele>285.64</ele>
        <time>2018-09-09T08:13:34Z</time>
      </trkpt>
      <trkpt lat="45.06569" lon="5.76213">
        <ele>285.71</ele>
        <time>2018-09-09T08:13:35Z</time>
      </trkpt>
      <trkpt lat="45.06549" lon="5.76216">
        <ele>285.73</ele>
        <time>2018-09-09T08:13:36Z</time>
      </trkpt>
      <trkpt lat="45.06529" lon="5.76219">
        <ele>285.74</ele>
        <time>2018-09-09T08:13:37Z</time>
      </trkpt>
      <trkpt lat="45.06509" lon="5.76223">
        <ele>285.74</ele>
        <time>2018-09-09T08:13:38Z</time>
      </trkpt>
      <trkpt lat="45.06489" lon="5.76227">
        <ele>285.74</ele>
        <time>2018-09-09T08:13:39Z</time>
      </trkpt>
      <trkpt lat="45.0647" lon="5.76232">
        <ele>285.74</ele>
        <time>2018-09-09T08:13:40Z</time>
      </trkpt>
      <trkpt lat="45.06451" lon="5.76239">
        <ele>284.34</ele>
        <time>2018-09-09T08:13:41Z</time>
      </trkpt>
      <trkpt lat="45.06432" lon="5.76245">
        <ele>283.92</ele>
        <time>2018-09-09T08:13:42Z</time>
      </trkpt>
      <trkpt lat="45.06413" lon="5.76252">
        <ele>283.79</ele>
        <time>2018-09-09T08:13:43Z</time>
      </trkpt>
      <trkpt lat="45.06394" lon="5.7626">
        <ele>283.76</ele>
        <time>2018-09-09T08:13:44Z</time>
      </trkpt>
      <trkpt lat="45.06376" lon="5.7627">
        <ele>283.75</ele>
        <time>2018-09-09T08:13:45Z</time>
      </trkpt>
      <trkpt lat="45.06357" lon="5.76278">
        <ele>283.74</ele>
        <time>2018-09-09T08:13:46Z</time>
      </trkpt>
      <trkpt lat="45.06339" lon="5.76289">
        <ele>283.04</ele>
        <time>2018-09-09T08:13:47Z</time>
      </trkpt>
      <trkpt lat="45.06321" lon="5.76299">
        <ele>282.83</ele>
        <time>2018-09-09T08:13:48Z</time>
      </trkpt>
      <trkpt lat="45.06303" lon="5.76311">
        <ele>283.47</ele>
        <time>2018-09-09T08:13:49Z</time>
      </trkpt>
      <trkpt lat="45.06285" lon="5.76321">
        <ele>284.36</ele>
        <time>2018-09-09T08:13:50Z</time>
      </trkpt>
      <trkpt lat="45.06267" lon="5.7633">
        <ele>286.03</ele>
        <time>2018-09-09T08:13:51Z</time>
      </trkpt>
      <trkpt lat="45.06249" lon="5.76344">
        <ele>287.23</ele>
        <time>2018-09-09T08:13:52Z</time>
      </trkpt>
      <trkpt lat="45.06234" lon="5.76358">
        <ele>287.59</ele>
        <time>2018-09-09T08:13:53Z</time>
      </trkpt>
      <trkpt lat="45.06217" lon="5.76372">
        <ele>286.29</ele>
        <time>2018-09-09T08:13:54Z</time>
      </trkpt>
      <trkpt lat="45.06186" lon="5.764">
        <ele>285.58</ele>
        <time>2018-09-09T08:13:56Z</time>
      </trkpt>
      <trkpt lat="45.06171" lon="5.76416">
        <ele>285.69</ele>
        <time>2018-09-09T08:13:57Z</time>
      </trkpt>
      <trkpt lat="45.06157" lon="5.76434">
        <ele>285.03</ele>
        <time>2018-09-09T08:13:58Z</time>
      </trkpt>
      <trkpt lat="45.06143" lon="5.76451">
        <ele>286.23</ele>
        <time>2018-09-09T08:13:59Z</time>
      </trkpt>
      <trkpt lat="45.0613" lon="5.76468">
        <ele>286.59</ele>
        <time>2018-09-09T08:14:00Z</time>
      </trkpt>
      <trkpt lat="45.06104" lon="5.76504">
        <ele>286.73</ele>
        <time>2018-09-09T08:14:02Z</time>
      </trkpt>
      <trkpt lat="45.0608" lon="5.7654">
        <ele>285.83</ele>
        <time>2018-09-09T08:14:04Z</time>
      </trkpt>
      <trkpt lat="45.06056" lon="5.76577">
        <ele>286.45</ele>
        <time>2018-09-09T08:14:06Z</time>
      </trkpt>
      <trkpt lat="45.06031" lon="5.76614">
        <ele>286.71</ele>
        <time>2018-09-09T08:14:08Z</time>
      </trkpt>
      <trkpt lat="45.0602" lon="5.76634">
        <ele>287.43</ele>
        <time>2018-09-09T08:14:09Z</time>
      </trkpt>
      <trkpt lat="45.05997" lon="5.76673">
        <ele>288.41</ele>
        <time>2018-09-09T08:14:11Z</time>
      </trkpt>
      <trkpt lat="45.05974" lon="5.76712">
        <ele>288.71</ele>
        <time>2018-09-09T08:14:13Z</time>
      </trkpt>
      <trkpt lat="45.05951" lon="5.7675">
        <ele>288.04</ele>
        <time>2018-09-09T08:14:15Z</time>
      </trkpt>
      <trkpt lat="45.0593" lon="5.76788">
        <ele>288.68</ele>
        <time>2018-09-09T08:14:17Z</time>
      </trkpt>
      <trkpt lat="45.05908" lon="5.76826">
        <ele>289.44</ele>
        <time>2018-09-09T08:14:19Z</time>
      </trkpt>
      <trkpt lat="45.05886" lon="5.76864">
        <ele>289.01</ele>
        <time>2018-09-09T08:14:21Z</time>
      </trkpt>
      <trkpt lat="45.05865" lon="5.76899">
        <ele>288.98</ele>
        <time>2018-09-09T08:14:23Z</time>
      </trkpt>
      <trkpt lat="45.05844" lon="5.76934">
        <ele>287.15</ele>
        <time>2018-09-09T08:14:25Z</time>
      </trkpt>
      <trkpt lat="45.05824" lon="5.76965">
        <ele>287.69</ele>
        <time>2018-09-09T08:14:27Z</time>
      </trkpt>
      <trkpt lat="45.05807" lon="5.76993">
        <ele>286.83</ele>
        <time>2018-09-09T08:14:29Z</time>
      </trkpt>
      <trkpt lat="45.05795" lon="5.77012">
        <ele>286.75</ele>
        <time>2018-09-09T08:14:31Z</time>
      </trkpt>
      <trkpt lat="45.05781" lon="5.77031">
        <ele>287.72</ele>
        <time>2018-09-09T08:14:37Z</time>
      </trkpt>
      <trkpt lat="45.05768" lon="5.77055">
        <ele>289.41</ele>
        <time>2018-09-09T08:14:42Z</time>
      </trkpt>
      <trkpt lat="45.05754" lon="5.77079">
        <ele>290.43</ele>
        <time>2018-09-09T08:14:45Z</time>
      </trkpt>
      <trkpt lat="45.05741" lon="5.77098">
        <ele>290.71</ele>
        <time>2018-09-09T08:14:47Z</time>
      </trkpt>
      <trkpt lat="45.05728" lon="5.77118">
        <ele>292.35</ele>
        <time>2018-09-09T08:14:49Z</time>
      </trkpt>
      <trkpt lat="45.05713" lon="5.7714">
        <ele>291.8</ele>
        <time>2018-09-09T08:14:51Z</time>
      </trkpt>
      <trkpt lat="45.05697" lon="5.77165">
        <ele>292.66</ele>
        <time>2018-09-09T08:14:53Z</time>
      </trkpt>
      <trkpt lat="45.0568" lon="5.77193">
        <ele>291.33</ele>
        <time>2018-09-09T08:14:55Z</time>
      </trkpt>
      <trkpt lat="45.05664" lon="5.77218">
        <ele>290.79</ele>
        <time>2018-09-09T08:14:57Z</time>
      </trkpt>
      <trkpt lat="45.05648" lon="5.77246">
        <ele>291.45</ele>
        <time>2018-09-09T08:14:59Z</time>
      </trkpt>
      <trkpt lat="45.05632" lon="5.77272">
        <ele>291.5</ele>
        <time>2018-09-09T08:15:01Z</time>
      </trkpt>
      <trkpt lat="45.05616" lon="5.77297">
        <ele>293.33</ele>
        <time>2018-09-09T08:15:03Z</time>
      </trkpt>
      <trkpt lat="45.056" lon="5.77322">
        <ele>293.7</ele>
        <time>2018-09-09T08:15:05Z</time>
      </trkpt>
      <trkpt lat="45.05584" lon="5.77348">
        <ele>294.44</ele>
        <time>2018-09-09T08:15:07Z</time>
      </trkpt>
      <trkpt lat="45.05567" lon="5.77375">
        <ele>294.71</ele>
        <time>2018-09-09T08:15:09Z</time>
      </trkpt>
      <trkpt lat="45.0555" lon="5.77403">
        <ele>294.74</ele>
        <time>2018-09-09T08:15:11Z</time>
      </trkpt>
      <trkpt lat="45.05534" lon="5.7743">
        <ele>294.74</ele>
        <time>2018-09-09T08:15:13Z</time>
      </trkpt>
      <trkpt lat="45.05517" lon="5.77457">
        <ele>294.74</ele>
        <time>2018-09-09T08:15:15Z</time>
      </trkpt>
      <trkpt lat="45.05501" lon="5.77484">
        <ele>294.74</ele>
        <time>2018-09-09T08:15:17Z</time>
      </trkpt>
      <trkpt lat="45.05484" lon="5.77512">
        <ele>294.74</ele>
        <time>2018-09-09T08:15:19Z</time>
      </trkpt>
      <trkpt lat="45.05468" lon="5.77541">
        <ele>295.65</ele>
        <time>2018-09-09T08:15:21Z</time>
      </trkpt>
      <trkpt lat="45.0545" lon="5.77569">
        <ele>296.64</ele>
        <time>2018-09-09T08:15:23Z</time>
      </trkpt>
      <trkpt lat="45.05432" lon="5.77599">
        <ele>296.03</ele>
        <time>2018-09-09T08:15:25Z</time>
      </trkpt>
      <trkpt lat="45.05414" lon="5.7763">
        <ele>296.68</ele>
        <time>2018-09-09T08:15:27Z</time>
      </trkpt>
      <trkpt lat="45.05396" lon="5.77661">
        <ele>296.53</ele>
        <time>2018-09-09T08:15:29Z</time>
      </trkpt>
      <trkpt lat="45.05379" lon="5.7769">
        <ele>296.02</ele>
        <time>2018-09-09T08:15:31Z</time>
      </trkpt>
      <trkpt lat="45.05361" lon="5.77718">
        <ele>295.77</ele>
        <time>2018-09-09T08:15:33Z</time>
      </trkpt>
      <trkpt lat="45.05343" lon="5.77747">
        <ele>296.44</ele>
        <time>2018-09-09T08:15:35Z</time>
      </trkpt>
      <trkpt lat="45.05326" lon="5.77777">
        <ele>295.8</ele>
        <time>2018-09-09T08:15:37Z</time>
      </trkpt>
      <trkpt lat="45.05309" lon="5.77807">
        <ele>296.45</ele>
        <time>2018-09-09T08:15:39Z</time>
      </trkpt>
      <trkpt lat="45.05291" lon="5.77836">
        <ele>296.71</ele>
        <time>2018-09-09T08:15:41Z</time>
      </trkpt>
      <trkpt lat="45.05274" lon="5.77866">
        <ele>296.74</ele>
        <time>2018-09-09T08:15:43Z</time>
      </trkpt>
      <trkpt lat="45.05256" lon="5.77896">
        <ele>296.95</ele>
        <time>2018-09-09T08:15:45Z</time>
      </trkpt>
      <trkpt lat="45.05238" lon="5.77926">
        <ele>297.67</ele>
        <time>2018-09-09T08:15:47Z</time>
      </trkpt>
      <trkpt lat="45.0522" lon="5.77957">
        <ele>297.73</ele>
        <time>2018-09-09T08:15:49Z</time>
      </trkpt>
      <trkpt lat="45.052" lon="5.77989">
        <ele>299.35</ele>
        <time>2018-09-09T08:15:51Z</time>
      </trkpt>
      <trkpt lat="45.0518" lon="5.78024">
        <ele>299.71</ele>
        <time>2018-09-09T08:15:53Z</time>
      </trkpt>
      <trkpt lat="45.05159" lon="5.78059">
        <ele>300.44</ele>
        <time>2018-09-09T08:15:55Z</time>
      </trkpt>
      <trkpt lat="45.05138" lon="5.78093">
        <ele>300.71</ele>
        <time>2018-09-09T08:15:57Z</time>
      </trkpt>
      <trkpt lat="45.05118" lon="5.78129">
        <ele>301.44</ele>
        <time>2018-09-09T08:15:59Z</time>
      </trkpt>
      <trkpt lat="45.05096" lon="5.78164">
        <ele>303.53</ele>
        <time>2018-09-09T08:16:01Z</time>
      </trkpt>
      <trkpt lat="45.05075" lon="5.782">
        <ele>303.51</ele>
        <time>2018-09-09T08:16:03Z</time>
      </trkpt>
      <trkpt lat="45.05053" lon="5.78237">
        <ele>304.42</ele>
        <time>2018-09-09T08:16:05Z</time>
      </trkpt>
      <trkpt lat="45.05034" lon="5.78278">
        <ele>306.32</ele>
        <time>2018-09-09T08:16:07Z</time>
      </trkpt>
      <trkpt lat="45.0502" lon="5.78319">
        <ele>306</ele>
        <time>2018-09-09T08:16:09Z</time>
      </trkpt>
      <trkpt lat="45.05008" lon="5.78362">
        <ele>306.46</ele>
        <time>2018-09-09T08:16:11Z</time>
      </trkpt>
      <trkpt lat="45.04999" lon="5.78406">
        <ele>306.51</ele>
        <time>2018-09-09T08:16:13Z</time>
      </trkpt>
      <trkpt lat="45.04992" lon="5.78452">
        <ele>308.33</ele>
        <time>2018-09-09T08:16:15Z</time>
      </trkpt>
      <trkpt lat="45.04986" lon="5.78498">
        <ele>308.7</ele>
        <time>2018-09-09T08:16:17Z</time>
      </trkpt>
      <trkpt lat="45.04982" lon="5.78546">
        <ele>309.65</ele>
        <time>2018-09-09T08:16:19Z</time>
      </trkpt>
      <trkpt lat="45.0498" lon="5.78595">
        <ele>310.64</ele>
        <time>2018-09-09T08:16:21Z</time>
      </trkpt>
      <trkpt lat="45.04979" lon="5.78621">
        <ele>310.71</ele>
        <time>2018-09-09T08:16:22Z</time>
      </trkpt>
      <trkpt lat="45.04979" lon="5.78672">
        <ele>311.65</ele>
        <time>2018-09-09T08:16:24Z</time>
      </trkpt>
      <trkpt lat="45.04981" lon="5.78722">
        <ele>312.43</ele>
        <time>2018-09-09T08:16:26Z</time>
      </trkpt>
      <trkpt lat="45.04984" lon="5.78771">
        <ele>313.41</ele>
        <time>2018-09-09T08:16:28Z</time>
      </trkpt>
      <trkpt lat="45.04989" lon="5.7882">
        <ele>314.62</ele>
        <time>2018-09-09T08:16:30Z</time>
      </trkpt>
      <trkpt lat="45.04995" lon="5.78865">
        <ele>314.73</ele>
        <time>2018-09-09T08:16:32Z</time>
      </trkpt>
      <trkpt lat="45.05003" lon="5.78906">
        <ele>315.65</ele>
        <time>2018-09-09T08:16:34Z</time>
      </trkpt>
      <trkpt lat="45.05017" lon="5.78943">
        <ele>316.43</ele>
        <time>2018-09-09T08:16:36Z</time>
      </trkpt>
      <trkpt lat="45.05034" lon="5.78978">
        <ele>316.5</ele>
        <time>2018-09-09T08:16:38Z</time>
      </trkpt>
      <trkpt lat="45.05052" lon="5.79016">
        <ele>316.72</ele>
        <time>2018-09-09T08:16:40Z</time>
      </trkpt>
      <trkpt lat="45.0507" lon="5.79058">
        <ele>316.53</ele>
        <time>2018-09-09T08:16:42Z</time>
      </trkpt>
      <trkpt lat="45.05081" lon="5.79083">
        <ele>316.68</ele>
        <time>2018-09-09T08:16:43Z</time>
      </trkpt>
      <trkpt lat="45.05094" lon="5.7911">
        <ele>316.72</ele>
        <time>2018-09-09T08:16:44Z</time>
      </trkpt>
      <trkpt lat="45.05109" lon="5.79139">
        <ele>317.44</ele>
        <time>2018-09-09T08:16:45Z</time>
      </trkpt>
      <trkpt lat="45.05126" lon="5.79169">
        <ele>317.65</ele>
        <time>2018-09-09T08:16:46Z</time>
      </trkpt>
      <trkpt lat="45.05141" lon="5.79198">
        <ele>317.71</ele>
        <time>2018-09-09T08:16:47Z</time>
      </trkpt>
      <trkpt lat="45.05158" lon="5.79228">
        <ele>317.73</ele>
        <time>2018-09-09T08:16:48Z</time>
      </trkpt>
      <trkpt lat="45.05175" lon="5.79259">
        <ele>319.14</ele>
        <time>2018-09-09T08:16:49Z</time>
      </trkpt>
      <trkpt lat="45.05194" lon="5.79289">
        <ele>319.56</ele>
        <time>2018-09-09T08:16:50Z</time>
      </trkpt>
      <trkpt lat="45.0521" lon="5.79318">
        <ele>320.39</ele>
        <time>2018-09-09T08:16:51Z</time>
      </trkpt>
      <trkpt lat="45.05225" lon="5.79346">
        <ele>319.93</ele>
        <time>2018-09-09T08:16:52Z</time>
      </trkpt>
      <trkpt lat="45.0524" lon="5.79373">
        <ele>319.8</ele>
        <time>2018-09-09T08:16:53Z</time>
      </trkpt>
      <trkpt lat="45.05254" lon="5.794">
        <ele>320.46</ele>
        <time>2018-09-09T08:16:54Z</time>
      </trkpt>
      <trkpt lat="45.05269" lon="5.79426">
        <ele>320.66</ele>
        <time>2018-09-09T08:16:55Z</time>
      </trkpt>
      <trkpt lat="45.05283" lon="5.79451">
        <ele>321.42</ele>
        <time>2018-09-09T08:16:56Z</time>
      </trkpt>
      <trkpt lat="45.05297" lon="5.79474">
        <ele>321.64</ele>
        <time>2018-09-09T08:16:57Z</time>
      </trkpt>
      <trkpt lat="45.05311" lon="5.79498">
        <ele>321.71</ele>
        <time>2018-09-09T08:16:58Z</time>
      </trkpt>
      <trkpt lat="45.05324" lon="5.79523">
        <ele>321.73</ele>
        <time>2018-09-09T08:16:59Z</time>
      </trkpt>
      <trkpt lat="45.05336" lon="5.79548">
        <ele>321.74</ele>
        <time>2018-09-09T08:17:00Z</time>
      </trkpt>
      <trkpt lat="45.05347" lon="5.79572">
        <ele>321.04</ele>
        <time>2018-09-09T08:17:01Z</time>
      </trkpt>
      <trkpt lat="45.05358" lon="5.79597">
        <ele>321.53</ele>
        <time>2018-09-09T08:17:02Z</time>
      </trkpt>
      <trkpt lat="45.05368" lon="5.79622">
        <ele>322.38</ele>
        <time>2018-09-09T08:17:03Z</time>
      </trkpt>
      <trkpt lat="45.05379" lon="5.79646">
        <ele>322.63</ele>
        <time>2018-09-09T08:17:04Z</time>
      </trkpt>
      <trkpt lat="45.05389" lon="5.79671">
        <ele>323.41</ele>
        <time>2018-09-09T08:17:05Z</time>
      </trkpt>
      <trkpt lat="45.05399" lon="5.79696">
        <ele>322.94</ele>
        <time>2018-09-09T08:17:06Z</time>
      </trkpt>
      <trkpt lat="45.05409" lon="5.7972">
        <ele>322.8</ele>
        <time>2018-09-09T08:17:07Z</time>
      </trkpt>
      <trkpt lat="45.05417" lon="5.79746">
        <ele>322.76</ele>
        <time>2018-09-09T08:17:08Z</time>
      </trkpt>
      <trkpt lat="45.05425" lon="5.79773">
        <ele>323.45</ele>
        <time>2018-09-09T08:17:09Z</time>
      </trkpt>
      <trkpt lat="45.05433" lon="5.79799">
        <ele>323.65</ele>
        <time>2018-09-09T08:17:10Z</time>
      </trkpt>
      <trkpt lat="45.05438" lon="5.79825">
        <ele>323.71</ele>
        <time>2018-09-09T08:17:11Z</time>
      </trkpt>
      <trkpt lat="45.05439" lon="5.79851">
        <ele>324.43</ele>
        <time>2018-09-09T08:17:12Z</time>
      </trkpt>
      <trkpt lat="45.05436" lon="5.79878">
        <ele>323.95</ele>
        <time>2018-09-09T08:17:13Z</time>
      </trkpt>
      <trkpt lat="45.05431" lon="5.79906">
        <ele>323.8</ele>
        <time>2018-09-09T08:17:14Z</time>
      </trkpt>
      <trkpt lat="45.05422" lon="5.79934">
        <ele>324.46</ele>
        <time>2018-09-09T08:17:15Z</time>
      </trkpt>
      <trkpt lat="45.05415" lon="5.79964">
        <ele>324.66</ele>
        <time>2018-09-09T08:17:16Z</time>
      </trkpt>
      <trkpt lat="45.05408" lon="5.79996">
        <ele>324.02</ele>
        <time>2018-09-09T08:17:17Z</time>
      </trkpt>
      <trkpt lat="45.054" lon="5.80029">
        <ele>324.52</ele>
        <time>2018-09-09T08:17:18Z</time>
      </trkpt>
      <trkpt lat="45.05392" lon="5.8006">
        <ele>323.98</ele>
        <time>2018-09-09T08:17:19Z</time>
      </trkpt>
      <trkpt lat="45.05385" lon="5.80092">
        <ele>324.51</ele>
        <time>2018-09-09T08:17:20Z</time>
      </trkpt>
      <trkpt lat="45.05379" lon="5.80123">
        <ele>325.37</ele>
        <time>2018-09-09T08:17:21Z</time>
      </trkpt>
      <trkpt lat="45.05372" lon="5.80154">
        <ele>324.93</ele>
        <time>2018-09-09T08:17:22Z</time>
      </trkpt>
      <trkpt lat="45.05364" lon="5.80184">
        <ele>325.5</ele>
        <time>2018-09-09T08:17:23Z</time>
      </trkpt>
      <trkpt lat="45.05358" lon="5.80215">
        <ele>326.37</ele>
        <time>2018-09-09T08:17:24Z</time>
      </trkpt>
      <trkpt lat="45.05352" lon="5.80245">
        <ele>327.33</ele>
        <time>2018-09-09T08:17:25Z</time>
      </trkpt>
      <trkpt lat="45.05345" lon="5.80276">
        <ele>328.32</ele>
        <time>2018-09-09T08:17:26Z</time>
      </trkpt>
      <trkpt lat="45.0534" lon="5.80307">
        <ele>329.31</ele>
        <time>2018-09-09T08:17:27Z</time>
      </trkpt>
      <trkpt lat="45.05335" lon="5.80338">
        <ele>329.61</ele>
        <time>2018-09-09T08:17:28Z</time>
      </trkpt>
      <trkpt lat="45.05333" lon="5.8037">
        <ele>329.7</ele>
        <time>2018-09-09T08:17:29Z</time>
      </trkpt>
      <trkpt lat="45.05332" lon="5.80402">
        <ele>330.43</ele>
        <time>2018-09-09T08:17:30Z</time>
      </trkpt>
      <trkpt lat="45.05333" lon="5.80433">
        <ele>332.05</ele>
        <time>2018-09-09T08:17:31Z</time>
      </trkpt>
      <trkpt lat="45.05335" lon="5.80465">
        <ele>333.23</ele>
        <time>2018-09-09T08:17:32Z</time>
      </trkpt>
      <trkpt lat="45.05339" lon="5.80497">
        <ele>334.99</ele>
        <time>2018-09-09T08:17:33Z</time>
      </trkpt>
      <trkpt lat="45.05345" lon="5.80528">
        <ele>336.22</ele>
        <time>2018-09-09T08:17:34Z</time>
      </trkpt>
      <trkpt lat="45.05352" lon="5.80559">
        <ele>337.28</ele>
        <time>2018-09-09T08:17:35Z</time>
      </trkpt>
      <trkpt lat="45.05359" lon="5.80591">
        <ele>337.6</ele>
        <time>2018-09-09T08:17:36Z</time>
      </trkpt>
      <trkpt lat="45.05367" lon="5.80622">
        <ele>338.4</ele>
        <time>2018-09-09T08:17:37Z</time>
      </trkpt>
      <trkpt lat="45.05375" lon="5.80652">
        <ele>339.34</ele>
        <time>2018-09-09T08:17:38Z</time>
      </trkpt>
      <trkpt lat="45.05383" lon="5.80683">
        <ele>340.32</ele>
        <time>2018-09-09T08:17:39Z</time>
      </trkpt>
      <trkpt lat="45.05391" lon="5.80714">
        <ele>341.31</ele>
        <time>2018-09-09T08:17:40Z</time>
      </trkpt>
      <trkpt lat="45.05399" lon="5.80744">
        <ele>342.31</ele>
        <time>2018-09-09T08:17:41Z</time>
      </trkpt>
      <trkpt lat="45.05407" lon="5.80775">
        <ele>343.31</ele>
        <time>2018-09-09T08:17:42Z</time>
      </trkpt>
      <trkpt lat="45.05415" lon="5.80806">
        <ele>344.31</ele>
        <time>2018-09-09T08:17:43Z</time>
      </trkpt>
      <trkpt lat="45.05423" lon="5.80838">
        <ele>345.31</ele>
        <time>2018-09-09T08:17:44Z</time>
      </trkpt>
      <trkpt lat="45.05432" lon="5.8087">
        <ele>346.31</ele>
        <time>2018-09-09T08:17:45Z</time>
      </trkpt>
      <trkpt lat="45.05439" lon="5.80902">
        <ele>347.31</ele>
        <time>2018-09-09T08:17:46Z</time>
      </trkpt>
      <trkpt lat="45.05447" lon="5.80934">
        <ele>348.31</ele>
        <time>2018-09-09T08:17:47Z</time>
      </trkpt>
      <trkpt lat="45.05454" lon="5.80966">
        <ele>349.31</ele>
        <time>2018-09-09T08:17:48Z</time>
      </trkpt>
      <trkpt lat="45.05458" lon="5.80999">
        <ele>349.61</ele>
        <time>2018-09-09T08:17:49Z</time>
      </trkpt>
      <trkpt lat="45.05461" lon="5.81032">
        <ele>350.4</ele>
        <time>2018-09-09T08:17:50Z</time>
      </trkpt>
      <trkpt lat="45.05461" lon="5.81065">
        <ele>350.64</ele>
        <time>2018-09-09T08:17:51Z</time>
      </trkpt>
      <trkpt lat="45.05458" lon="5.81098">
        <ele>350.71</ele>
        <time>2018-09-09T08:17:52Z</time>
      </trkpt>
      <trkpt lat="45.05454" lon="5.81131">
        <ele>352.13</ele>
        <time>2018-09-09T08:17:53Z</time>
      </trkpt>
      <trkpt lat="45.05447" lon="5.81163">
        <ele>351.16</ele>
        <time>2018-09-09T08:17:54Z</time>
      </trkpt>
      <trkpt lat="45.0544" lon="5.81195">
        <ele>350.17</ele>
        <time>2018-09-09T08:17:55Z</time>
      </trkpt>
      <trkpt lat="45.05434" lon="5.81226">
        <ele>349.87</ele>
        <time>2018-09-09T08:17:56Z</time>
      </trkpt>
      <trkpt lat="45.0543" lon="5.81257">
        <ele>349.08</ele>
        <time>2018-09-09T08:17:57Z</time>
      </trkpt>
      <trkpt lat="45.05426" lon="5.81286">
        <ele>348.14</ele>
        <time>2018-09-09T08:17:58Z</time>
      </trkpt>
      <trkpt lat="45.05424" lon="5.81315">
        <ele>347.86</ele>
        <time>2018-09-09T08:17:59Z</time>
      </trkpt>
      <trkpt lat="45.05423" lon="5.81344">
        <ele>347.08</ele>
        <time>2018-09-09T08:18:00Z</time>
      </trkpt>
      <trkpt lat="45.05423" lon="5.81372">
        <ele>346.14</ele>
        <time>2018-09-09T08:18:01Z</time>
      </trkpt>
      <trkpt lat="45.05424" lon="5.81402">
        <ele>346.56</ele>
        <time>2018-09-09T08:18:02Z</time>
      </trkpt>
      <trkpt lat="45.05425" lon="5.81431">
        <ele>345.99</ele>
        <time>2018-09-09T08:18:03Z</time>
      </trkpt>
      <trkpt lat="45.05424" lon="5.81459">
        <ele>344.41</ele>
        <time>2018-09-09T08:18:04Z</time>
      </trkpt>
      <trkpt lat="45.05423" lon="5.81488">
        <ele>343.24</ele>
        <time>2018-09-09T08:18:05Z</time>
      </trkpt>
      <trkpt lat="45.05421" lon="5.81517">
        <ele>342.89</ele>
        <time>2018-09-09T08:18:06Z</time>
      </trkpt>
      <trkpt lat="45.05418" lon="5.81544">
        <ele>341.39</ele>
        <time>2018-09-09T08:18:07Z</time>
      </trkpt>
      <trkpt lat="45.05415" lon="5.81572">
        <ele>340.93</ele>
        <time>2018-09-09T08:18:08Z</time>
      </trkpt>
      <trkpt lat="45.05412" lon="5.816">
        <ele>340.8</ele>
        <time>2018-09-09T08:18:09Z</time>
      </trkpt>
      <trkpt lat="45.05409" lon="5.81628">
        <ele>340.76</ele>
        <time>2018-09-09T08:18:10Z</time>
      </trkpt>
      <trkpt lat="45.05406" lon="5.81656">
        <ele>341.45</ele>
        <time>2018-09-09T08:18:11Z</time>
      </trkpt>
      <trkpt lat="45.05403" lon="5.81685">
        <ele>341.65</ele>
        <time>2018-09-09T08:18:12Z</time>
      </trkpt>
      <trkpt lat="45.054" lon="5.81713">
        <ele>341.71</ele>
        <time>2018-09-09T08:18:13Z</time>
      </trkpt>
      <trkpt lat="45.05397" lon="5.81741">
        <ele>341.73</ele>
        <time>2018-09-09T08:18:14Z</time>
      </trkpt>
      <trkpt lat="45.05393" lon="5.8177">
        <ele>341.74</ele>
        <time>2018-09-09T08:18:15Z</time>
      </trkpt>
      <trkpt lat="45.0539" lon="5.81798">
        <ele>341.74</ele>
        <time>2018-09-09T08:18:16Z</time>
      </trkpt>
      <trkpt lat="45.05386" lon="5.81828">
        <ele>341.74</ele>
        <time>2018-09-09T08:18:17Z</time>
      </trkpt>
      <trkpt lat="45.05383" lon="5.81857">
        <ele>342.44</ele>
        <time>2018-09-09T08:18:18Z</time>
      </trkpt>
      <trkpt lat="45.05379" lon="5.81886">
        <ele>341.95</ele>
        <time>2018-09-09T08:18:19Z</time>
      </trkpt>
      <trkpt lat="45.05376" lon="5.81914">
        <ele>342.5</ele>
        <time>2018-09-09T08:18:20Z</time>
      </trkpt>
      <trkpt lat="45.05373" lon="5.81942">
        <ele>342.67</ele>
        <time>2018-09-09T08:18:21Z</time>
      </trkpt>
      <trkpt lat="45.0537" lon="5.8197">
        <ele>343.42</ele>
        <time>2018-09-09T08:18:22Z</time>
      </trkpt>
      <trkpt lat="45.05367" lon="5.81999">
        <ele>343.64</ele>
        <time>2018-09-09T08:18:23Z</time>
      </trkpt>
      <trkpt lat="45.05363" lon="5.82026">
        <ele>343.71</ele>
        <time>2018-09-09T08:18:24Z</time>
      </trkpt>
      <trkpt lat="45.0536" lon="5.82054">
        <ele>343.73</ele>
        <time>2018-09-09T08:18:25Z</time>
      </trkpt>
      <trkpt lat="45.05357" lon="5.82082">
        <ele>344.44</ele>
        <time>2018-09-09T08:18:26Z</time>
      </trkpt>
      <trkpt lat="45.05354" lon="5.8211">
        <ele>344.65</ele>
        <time>2018-09-09T08:18:27Z</time>
      </trkpt>
      <trkpt lat="45.05351" lon="5.82138">
        <ele>344.71</ele>
        <time>2018-09-09T08:18:28Z</time>
      </trkpt>
      <trkpt lat="45.05348" lon="5.82166">
        <ele>345.43</ele>
        <time>2018-09-09T08:18:29Z</time>
      </trkpt>
      <trkpt lat="45.05345" lon="5.82194">
        <ele>345.65</ele>
        <time>2018-09-09T08:18:30Z</time>
      </trkpt>
      <trkpt lat="45.05342" lon="5.82222">
        <ele>345.71</ele>
        <time>2018-09-09T08:18:31Z</time>
      </trkpt>
      <trkpt lat="45.05339" lon="5.8225">
        <ele>346.43</ele>
        <time>2018-09-09T08:18:32Z</time>
      </trkpt>
      <trkpt lat="45.05336" lon="5.82278">
        <ele>347.35</ele>
        <time>2018-09-09T08:18:33Z</time>
      </trkpt>
      <trkpt lat="45.05333" lon="5.82306">
        <ele>347.62</ele>
        <time>2018-09-09T08:18:34Z</time>
      </trkpt>
      <trkpt lat="45.0533" lon="5.82334">
        <ele>347.71</ele>
        <time>2018-09-09T08:18:35Z</time>
      </trkpt>
      <trkpt lat="45.05326" lon="5.82363">
        <ele>347.73</ele>
        <time>2018-09-09T08:18:36Z</time>
      </trkpt>
      <trkpt lat="45.05323" lon="5.82392">
        <ele>348.44</ele>
        <time>2018-09-09T08:18:37Z</time>
      </trkpt>
      <trkpt lat="45.05319" lon="5.82421">
        <ele>349.35</ele>
        <time>2018-09-09T08:18:38Z</time>
      </trkpt>
      <trkpt lat="45.05316" lon="5.82449">
        <ele>348.92</ele>
        <time>2018-09-09T08:18:39Z</time>
      </trkpt>
      <trkpt lat="45.05312" lon="5.82478">
        <ele>349.5</ele>
        <time>2018-09-09T08:18:40Z</time>
      </trkpt>
      <trkpt lat="45.05309" lon="5.82507">
        <ele>349.67</ele>
        <time>2018-09-09T08:18:41Z</time>
      </trkpt>
      <trkpt lat="45.05306" lon="5.82537">
        <ele>350.42</ele>
        <time>2018-09-09T08:18:42Z</time>
      </trkpt>
      <trkpt lat="45.05302" lon="5.82567">
        <ele>350.64</ele>
        <time>2018-09-09T08:18:43Z</time>
      </trkpt>
      <trkpt lat="45.053" lon="5.82596">
        <ele>349.31</ele>
        <time>2018-09-09T08:18:44Z</time>
      </trkpt>
      <trkpt lat="45.05297" lon="5.82626">
        <ele>348.91</ele>
        <time>2018-09-09T08:18:45Z</time>
      </trkpt>
      <trkpt lat="45.05293" lon="5.82655">
        <ele>349.49</ele>
        <time>2018-09-09T08:18:46Z</time>
      </trkpt>
      <trkpt lat="45.0529" lon="5.82684">
        <ele>349.67</ele>
        <time>2018-09-09T08:18:47Z</time>
      </trkpt>
      <trkpt lat="45.05287" lon="5.82713">
        <ele>349.72</ele>
        <time>2018-09-09T08:18:48Z</time>
      </trkpt>
      <trkpt lat="45.05283" lon="5.82743">
        <ele>350.43</ele>
        <time>2018-09-09T08:18:49Z</time>
      </trkpt>
      <trkpt lat="45.05279" lon="5.8277">
        <ele>351.35</ele>
        <time>2018-09-09T08:18:50Z</time>
      </trkpt>
      <trkpt lat="45.05275" lon="5.82799">
        <ele>352.32</ele>
        <time>2018-09-09T08:18:51Z</time>
      </trkpt>
      <trkpt lat="45.05272" lon="5.82828">
        <ele>352.62</ele>
        <time>2018-09-09T08:18:52Z</time>
      </trkpt>
      <trkpt lat="45.0527" lon="5.82856">
        <ele>352.7</ele>
        <time>2018-09-09T08:18:53Z</time>
      </trkpt>
      <trkpt lat="45.05266" lon="5.82884">
        <ele>352.73</ele>
        <time>2018-09-09T08:18:54Z</time>
      </trkpt>
      <trkpt lat="45.05263" lon="5.82912">
        <ele>352.74</ele>
        <time>2018-09-09T08:18:55Z</time>
      </trkpt>
      <trkpt lat="45.0526" lon="5.82939">
        <ele>353.44</ele>
        <time>2018-09-09T08:18:56Z</time>
      </trkpt>
      <trkpt lat="45.05257" lon="5.82966">
        <ele>353.65</ele>
        <time>2018-09-09T08:18:57Z</time>
      </trkpt>
      <trkpt lat="45.05254" lon="5.82993">
        <ele>354.41</ele>
        <time>2018-09-09T08:18:58Z</time>
      </trkpt>
      <trkpt lat="45.0525" lon="5.83021">
        <ele>354.64</ele>
        <time>2018-09-09T08:18:59Z</time>
      </trkpt>
      <trkpt lat="45.05246" lon="5.83048">
        <ele>354.71</ele>
        <time>2018-09-09T08:19:00Z</time>
      </trkpt>
      <trkpt lat="45.0524" lon="5.83074">
        <ele>354.73</ele>
        <time>2018-09-09T08:19:01Z</time>
      </trkpt>
      <trkpt lat="45.05233" lon="5.831">
        <ele>354.74</ele>
        <time>2018-09-09T08:19:02Z</time>
      </trkpt>
      <trkpt lat="45.05225" lon="5.83126">
        <ele>355.44</ele>
        <time>2018-09-09T08:19:03Z</time>
      </trkpt>
      <trkpt lat="45.05217" lon="5.83151">
        <ele>356.35</ele>
        <time>2018-09-09T08:19:04Z</time>
      </trkpt>
      <trkpt lat="45.05207" lon="5.83176">
        <ele>357.32</ele>
        <time>2018-09-09T08:19:05Z</time>
      </trkpt>
      <trkpt lat="45.05198" lon="5.83201">
        <ele>357.62</ele>
        <time>2018-09-09T08:19:06Z</time>
      </trkpt>
      <trkpt lat="45.05189" lon="5.83226">
        <ele>357.7</ele>
        <time>2018-09-09T08:19:07Z</time>
      </trkpt>
      <trkpt lat="45.05181" lon="5.83253">
        <ele>357.73</ele>
        <time>2018-09-09T08:19:08Z</time>
      </trkpt>
      <trkpt lat="45.05173" lon="5.83279">
        <ele>357.74</ele>
        <time>2018-09-09T08:19:09Z</time>
      </trkpt>
      <trkpt lat="45.05167" lon="5.83306">
        <ele>358.44</ele>
        <time>2018-09-09T08:19:10Z</time>
      </trkpt>
      <trkpt lat="45.05163" lon="5.83333">
        <ele>358.65</ele>
        <time>2018-09-09T08:19:11Z</time>
      </trkpt>
      <trkpt lat="45.05159" lon="5.83361">
        <ele>359.41</ele>
        <time>2018-09-09T08:19:12Z</time>
      </trkpt>
      <trkpt lat="45.05157" lon="5.8339">
        <ele>358.94</ele>
        <time>2018-09-09T08:19:13Z</time>
      </trkpt>
      <trkpt lat="45.05157" lon="5.83419">
        <ele>358.8</ele>
        <time>2018-09-09T08:19:14Z</time>
      </trkpt>
      <trkpt lat="45.05157" lon="5.83448">
        <ele>358.76</ele>
        <time>2018-09-09T08:19:15Z</time>
      </trkpt>
      <trkpt lat="45.05161" lon="5.83477">
        <ele>359.45</ele>
        <time>2018-09-09T08:19:16Z</time>
      </trkpt>
      <trkpt lat="45.05165" lon="5.83506">
        <ele>359.65</ele>
        <time>2018-09-09T08:19:17Z</time>
      </trkpt>
      <trkpt lat="45.05171" lon="5.83535">
        <ele>359.71</ele>
        <time>2018-09-09T08:19:18Z</time>
      </trkpt>
      <trkpt lat="45.05179" lon="5.83563">
        <ele>359.73</ele>
        <time>2018-09-09T08:19:19Z</time>
      </trkpt>
      <trkpt lat="45.05189" lon="5.8359">
        <ele>360.44</ele>
        <time>2018-09-09T08:19:20Z</time>
      </trkpt>
      <trkpt lat="45.05199" lon="5.83615">
        <ele>361.35</ele>
        <time>2018-09-09T08:19:21Z</time>
      </trkpt>
      <trkpt lat="45.0521" lon="5.83639">
        <ele>361.62</ele>
        <time>2018-09-09T08:19:22Z</time>
      </trkpt>
      <trkpt lat="45.05224" lon="5.83663">
        <ele>361.71</ele>
        <time>2018-09-09T08:19:23Z</time>
      </trkpt>
      <trkpt lat="45.05238" lon="5.83685">
        <ele>362.43</ele>
        <time>2018-09-09T08:19:24Z</time>
      </trkpt>
      <trkpt lat="45.05253" lon="5.83706">
        <ele>362.65</ele>
        <time>2018-09-09T08:19:25Z</time>
      </trkpt>
      <trkpt lat="45.05267" lon="5.83727">
        <ele>364.11</ele>
        <time>2018-09-09T08:19:26Z</time>
      </trkpt>
      <trkpt lat="45.05282" lon="5.83746">
        <ele>364.55</ele>
        <time>2018-09-09T08:19:27Z</time>
      </trkpt>
      <trkpt lat="45.05297" lon="5.83766">
        <ele>364.68</ele>
        <time>2018-09-09T08:19:28Z</time>
      </trkpt>
      <trkpt lat="45.05313" lon="5.83786">
        <ele>365.42</ele>
        <time>2018-09-09T08:19:29Z</time>
      </trkpt>
      <trkpt lat="45.05329" lon="5.83805">
        <ele>365.65</ele>
        <time>2018-09-09T08:19:30Z</time>
      </trkpt>
      <trkpt lat="45.05343" lon="5.83826">
        <ele>365.01</ele>
        <time>2018-09-09T08:19:31Z</time>
      </trkpt>
      <trkpt lat="45.05357" lon="5.83846">
        <ele>365.52</ele>
        <time>2018-09-09T08:19:32Z</time>
      </trkpt>
      <trkpt lat="45.05369" lon="5.83868">
        <ele>364.98</ele>
        <time>2018-09-09T08:19:33Z</time>
      </trkpt>
      <trkpt lat="45.05378" lon="5.83893">
        <ele>365.51</ele>
        <time>2018-09-09T08:19:34Z</time>
      </trkpt>
      <trkpt lat="45.05386" lon="5.83919">
        <ele>366.37</ele>
        <time>2018-09-09T08:19:35Z</time>
      </trkpt>
      <trkpt lat="45.05392" lon="5.83947">
        <ele>367.33</ele>
        <time>2018-09-09T08:19:36Z</time>
      </trkpt>
      <trkpt lat="45.05394" lon="5.83972">
        <ele>367.62</ele>
        <time>2018-09-09T08:19:37Z</time>
      </trkpt>
      <trkpt lat="45.05394" lon="5.84002">
        <ele>368.4</ele>
        <time>2018-09-09T08:19:38Z</time>
      </trkpt>
      <trkpt lat="45.05398" lon="5.84029">
        <ele>370.04</ele>
        <time>2018-09-09T08:19:39Z</time>
      </trkpt>
      <trkpt lat="45.05404" lon="5.84055">
        <ele>371.23</ele>
        <time>2018-09-09T08:19:40Z</time>
      </trkpt>
      <trkpt lat="45.05411" lon="5.84082">
        <ele>371.59</ele>
        <time>2018-09-09T08:19:41Z</time>
      </trkpt>
      <trkpt lat="45.05417" lon="5.84107">
        <ele>372.4</ele>
        <time>2018-09-09T08:19:42Z</time>
      </trkpt>
      <trkpt lat="45.05423" lon="5.84134">
        <ele>372.64</ele>
        <time>2018-09-09T08:19:43Z</time>
      </trkpt>
      <trkpt lat="45.05427" lon="5.84162">
        <ele>372.01</ele>
        <time>2018-09-09T08:19:44Z</time>
      </trkpt>
      <trkpt lat="45.05429" lon="5.84188">
        <ele>372.52</ele>
        <time>2018-09-09T08:19:45Z</time>
      </trkpt>
      <trkpt lat="45.05433" lon="5.84215">
        <ele>372.68</ele>
        <time>2018-09-09T08:19:46Z</time>
      </trkpt>
      <trkpt lat="45.05438" lon="5.84242">
        <ele>372.72</ele>
        <time>2018-09-09T08:19:47Z</time>
      </trkpt>
      <trkpt lat="45.05442" lon="5.84269">
        <ele>372.74</ele>
        <time>2018-09-09T08:19:48Z</time>
      </trkpt>
      <trkpt lat="45.05447" lon="5.84296">
        <ele>372.74</ele>
        <time>2018-09-09T08:19:49Z</time>
      </trkpt>
      <trkpt lat="45.05451" lon="5.84324">
        <ele>372.74</ele>
        <time>2018-09-09T08:19:50Z</time>
      </trkpt>
      <trkpt lat="45.05455" lon="5.8435">
        <ele>372.74</ele>
        <time>2018-09-09T08:19:51Z</time>
      </trkpt>
      <trkpt lat="45.0546" lon="5.84378">
        <ele>374.14</ele>
        <time>2018-09-09T08:19:52Z</time>
      </trkpt>
      <trkpt lat="45.05464" lon="5.84407">
        <ele>374.56</ele>
        <time>2018-09-09T08:19:53Z</time>
      </trkpt>
      <trkpt lat="45.05467" lon="5.84435">
        <ele>375.39</ele>
        <time>2018-09-09T08:19:54Z</time>
      </trkpt>
      <trkpt lat="45.05469" lon="5.84463">
        <ele>375.63</ele>
        <time>2018-09-09T08:19:55Z</time>
      </trkpt>
      <trkpt lat="45.05469" lon="5.84492">
        <ele>375.71</ele>
        <time>2018-09-09T08:19:56Z</time>
      </trkpt>
      <trkpt lat="45.05468" lon="5.84521">
        <ele>376.43</ele>
        <time>2018-09-09T08:19:57Z</time>
      </trkpt>
      <trkpt lat="45.05468" lon="5.8455">
        <ele>377.35</ele>
        <time>2018-09-09T08:19:58Z</time>
      </trkpt>
      <trkpt lat="45.05468" lon="5.84579">
        <ele>377.62</ele>
        <time>2018-09-09T08:19:59Z</time>
      </trkpt>
      <trkpt lat="45.05468" lon="5.84608">
        <ele>377.71</ele>
        <time>2018-09-09T08:20:00Z</time>
      </trkpt>
      <trkpt lat="45.05467" lon="5.84637">
        <ele>377.73</ele>
        <time>2018-09-09T08:20:01Z</time>
      </trkpt>
      <trkpt lat="45.05467" lon="5.84666">
        <ele>377.74</ele>
        <time>2018-09-09T08:20:02Z</time>
      </trkpt>
      <trkpt lat="45.05466" lon="5.84695">
        <ele>378.44</ele>
        <time>2018-09-09T08:20:03Z</time>
      </trkpt>
      <trkpt lat="45.05466" lon="5.84724">
        <ele>379.35</ele>
        <time>2018-09-09T08:20:04Z</time>
      </trkpt>
      <trkpt lat="45.05465" lon="5.84753">
        <ele>380.32</ele>
        <time>2018-09-09T08:20:05Z</time>
      </trkpt>
      <trkpt lat="45.05465" lon="5.84782">
        <ele>381.32</ele>
        <time>2018-09-09T08:20:06Z</time>
      </trkpt>
      <trkpt lat="45.05465" lon="5.8481">
        <ele>381.61</ele>
        <time>2018-09-09T08:20:07Z</time>
      </trkpt>
      <trkpt lat="45.05464" lon="5.84838">
        <ele>382.4</ele>
        <time>2018-09-09T08:20:08Z</time>
      </trkpt>
      <trkpt lat="45.05464" lon="5.84867">
        <ele>382.64</ele>
        <time>2018-09-09T08:20:09Z</time>
      </trkpt>
      <trkpt lat="45.05463" lon="5.84895">
        <ele>382.71</ele>
        <time>2018-09-09T08:20:10Z</time>
      </trkpt>
      <trkpt lat="45.05461" lon="5.84921">
        <ele>383.43</ele>
        <time>2018-09-09T08:20:11Z</time>
      </trkpt>
      <trkpt lat="45.05459" lon="5.84949">
        <ele>382.95</ele>
        <time>2018-09-09T08:20:12Z</time>
      </trkpt>
      <trkpt lat="45.0545" lon="5.84973">
        <ele>383.5</ele>
        <time>2018-09-09T08:20:13Z</time>
      </trkpt>
      <trkpt lat="45.05441" lon="5.84995">
        <ele>384.37</ele>
        <time>2018-09-09T08:20:14Z</time>
      </trkpt>
      <trkpt lat="45.05431" lon="5.85017">
        <ele>383.93</ele>
        <time>2018-09-09T08:20:15Z</time>
      </trkpt>
      <trkpt lat="45.05412" lon="5.85029">
        <ele>383.1</ele>
        <time>2018-09-09T08:20:16Z</time>
      </trkpt>
      <trkpt lat="45.05395" lon="5.85043">
        <ele>382.85</ele>
        <time>2018-09-09T08:20:17Z</time>
      </trkpt>
      <trkpt lat="45.0538" lon="5.85059">
        <ele>382.77</ele>
        <time>2018-09-09T08:20:18Z</time>
      </trkpt>
      <trkpt lat="45.05366" lon="5.85078">
        <ele>382.05</ele>
        <time>2018-09-09T08:20:19Z</time>
      </trkpt>
      <trkpt lat="45.05353" lon="5.85099">
        <ele>381.83</ele>
        <time>2018-09-09T08:20:20Z</time>
      </trkpt>
      <trkpt lat="45.05341" lon="5.85122">
        <ele>381.07</ele>
        <time>2018-09-09T08:20:21Z</time>
      </trkpt>
      <trkpt lat="45.05333" lon="5.85147">
        <ele>380.84</ele>
        <time>2018-09-09T08:20:22Z</time>
      </trkpt>
      <trkpt lat="45.05328" lon="5.85174">
        <ele>380.07</ele>
        <time>2018-09-09T08:20:23Z</time>
      </trkpt>
      <trkpt lat="45.05324" lon="5.85206">
        <ele>379.84</ele>
        <time>2018-09-09T08:20:24Z</time>
      </trkpt>
      <trkpt lat="45.05322" lon="5.85234">
        <ele>378.37</ele>
        <time>2018-09-09T08:20:25Z</time>
      </trkpt>
      <trkpt lat="45.05325" lon="5.85264">
        <ele>377.93</ele>
        <time>2018-09-09T08:20:26Z</time>
      </trkpt>
      <trkpt lat="45.05348" lon="5.85287">
        <ele>379.9</ele>
        <time>2018-09-09T08:20:27Z</time>
      </trkpt>
      <trkpt lat="45.05355" lon="5.85313">
        <ele>380.49</ele>
        <time>2018-09-09T08:20:28Z</time>
      </trkpt>
      <trkpt lat="45.05363" lon="5.85358">
        <ele>381.63</ele>
        <time>2018-09-09T08:20:30Z</time>
      </trkpt>
      <trkpt lat="45.05369" lon="5.85395">
        <ele>381.73</ele>
        <time>2018-09-09T08:20:32Z</time>
      </trkpt>
      <trkpt lat="45.05374" lon="5.8542">
        <ele>380.83</ele>
        <time>2018-09-09T08:20:34Z</time>
      </trkpt>
      <trkpt lat="45.05381" lon="5.85444">
        <ele>380.54</ele>
        <time>2018-09-09T08:20:40Z</time>
      </trkpt>
      <trkpt lat="45.05385" lon="5.85474">
        <ele>384.96</ele>
        <time>2018-09-09T08:22:22Z</time>
      </trkpt>
      <trkpt lat="45.05401" lon="5.85497">
        <ele>382.86</ele>
        <time>2018-09-09T08:22:26Z</time>
      </trkpt>
      <trkpt lat="45.05409" lon="5.85529">
        <ele>381.62</ele>
        <time>2018-09-09T08:22:29Z</time>
      </trkpt>
      <trkpt lat="45.05416" lon="5.85561">
        <ele>381.52</ele>
        <time>2018-09-09T08:22:31Z</time>
      </trkpt>
      <trkpt lat="45.05425" lon="5.85609">
        <ele>380.6</ele>
        <time>2018-09-09T08:22:33Z</time>
      </trkpt>
      <trkpt lat="45.05429" lon="5.85635">
        <ele>380.7</ele>
        <time>2018-09-09T08:22:34Z</time>
      </trkpt>
      <trkpt lat="45.05434" lon="5.85663">
        <ele>381.43</ele>
        <time>2018-09-09T08:22:35Z</time>
      </trkpt>
      <trkpt lat="45.05441" lon="5.85691">
        <ele>381.65</ele>
        <time>2018-09-09T08:22:36Z</time>
      </trkpt>
      <trkpt lat="45.05448" lon="5.85718">
        <ele>382.41</ele>
        <time>2018-09-09T08:22:37Z</time>
      </trkpt>
      <trkpt lat="45.05457" lon="5.85745">
        <ele>382.64</ele>
        <time>2018-09-09T08:22:38Z</time>
      </trkpt>
      <trkpt lat="45.05467" lon="5.85771">
        <ele>383.41</ele>
        <time>2018-09-09T08:22:39Z</time>
      </trkpt>
      <trkpt lat="45.05478" lon="5.85796">
        <ele>384.34</ele>
        <time>2018-09-09T08:22:40Z</time>
      </trkpt>
      <trkpt lat="45.05491" lon="5.8582">
        <ele>385.32</ele>
        <time>2018-09-09T08:22:41Z</time>
      </trkpt>
      <trkpt lat="45.05506" lon="5.85842">
        <ele>386.32</ele>
        <time>2018-09-09T08:22:42Z</time>
      </trkpt>
      <trkpt lat="45.05522" lon="5.85862">
        <ele>386.61</ele>
        <time>2018-09-09T08:22:43Z</time>
      </trkpt>
      <trkpt lat="45.0554" lon="5.85882">
        <ele>386.7</ele>
        <time>2018-09-09T08:22:44Z</time>
      </trkpt>
      <trkpt lat="45.05559" lon="5.85901">
        <ele>387.43</ele>
        <time>2018-09-09T08:22:45Z</time>
      </trkpt>
      <trkpt lat="45.05579" lon="5.8592">
        <ele>388.35</ele>
        <time>2018-09-09T08:22:46Z</time>
      </trkpt>
      <trkpt lat="45.05599" lon="5.85939">
        <ele>389.32</ele>
        <time>2018-09-09T08:22:47Z</time>
      </trkpt>
      <trkpt lat="45.05618" lon="5.8596">
        <ele>389.62</ele>
        <time>2018-09-09T08:22:48Z</time>
      </trkpt>
      <trkpt lat="45.05638" lon="5.8598">
        <ele>390.4</ele>
        <time>2018-09-09T08:22:49Z</time>
      </trkpt>
      <trkpt lat="45.05658" lon="5.86">
        <ele>390.64</ele>
        <time>2018-09-09T08:22:50Z</time>
      </trkpt>
      <trkpt lat="45.05677" lon="5.86021">
        <ele>390.71</ele>
        <time>2018-09-09T08:22:51Z</time>
      </trkpt>
      <trkpt lat="45.05697" lon="5.8604">
        <ele>390.73</ele>
        <time>2018-09-09T08:22:52Z</time>
      </trkpt>
      <trkpt lat="45.05717" lon="5.86061">
        <ele>392.14</ele>
        <time>2018-09-09T08:22:53Z</time>
      </trkpt>
      <trkpt lat="45.05737" lon="5.86081">
        <ele>392.56</ele>
        <time>2018-09-09T08:22:54Z</time>
      </trkpt>
      <trkpt lat="45.05757" lon="5.86102">
        <ele>392.69</ele>
        <time>2018-09-09T08:22:55Z</time>
      </trkpt>
      <trkpt lat="45.05777" lon="5.86122">
        <ele>393.42</ele>
        <time>2018-09-09T08:22:56Z</time>
      </trkpt>
      <trkpt lat="45.05797" lon="5.86141">
        <ele>394.35</ele>
        <time>2018-09-09T08:22:57Z</time>
      </trkpt>
      <trkpt lat="45.05815" lon="5.8616">
        <ele>394.62</ele>
        <time>2018-09-09T08:22:58Z</time>
      </trkpt>
      <trkpt lat="45.05833" lon="5.86178">
        <ele>395.41</ele>
        <time>2018-09-09T08:22:59Z</time>
      </trkpt>
      <trkpt lat="45.05852" lon="5.86198">
        <ele>396.34</ele>
        <time>2018-09-09T08:23:00Z</time>
      </trkpt>
      <trkpt lat="45.0587" lon="5.86217">
        <ele>397.32</ele>
        <time>2018-09-09T08:23:01Z</time>
      </trkpt>
      <trkpt lat="45.05888" lon="5.86235">
        <ele>397.61</ele>
        <time>2018-09-09T08:23:02Z</time>
      </trkpt>
      <trkpt lat="45.05906" lon="5.86254">
        <ele>397.7</ele>
        <time>2018-09-09T08:23:03Z</time>
      </trkpt>
      <trkpt lat="45.05925" lon="5.86273">
        <ele>398.43</ele>
        <time>2018-09-09T08:23:04Z</time>
      </trkpt>
      <trkpt lat="45.05944" lon="5.86292">
        <ele>399.35</ele>
        <time>2018-09-09T08:23:05Z</time>
      </trkpt>
      <trkpt lat="45.05963" lon="5.86312">
        <ele>399.62</ele>
        <time>2018-09-09T08:23:06Z</time>
      </trkpt>
      <trkpt lat="45.05981" lon="5.86332">
        <ele>399.71</ele>
        <time>2018-09-09T08:23:07Z</time>
      </trkpt>
      <trkpt lat="45.06" lon="5.86351">
        <ele>399.73</ele>
        <time>2018-09-09T08:23:08Z</time>
      </trkpt>
      <trkpt lat="45.06019" lon="5.86369">
        <ele>400.44</ele>
        <time>2018-09-09T08:23:09Z</time>
      </trkpt>
      <trkpt lat="45.06037" lon="5.86388">
        <ele>400.65</ele>
        <time>2018-09-09T08:23:10Z</time>
      </trkpt>
      <trkpt lat="45.06056" lon="5.86406">
        <ele>402.11</ele>
        <time>2018-09-09T08:23:11Z</time>
      </trkpt>
      <trkpt lat="45.06074" lon="5.86426">
        <ele>403.25</ele>
        <time>2018-09-09T08:23:12Z</time>
      </trkpt>
      <trkpt lat="45.06092" lon="5.86445">
        <ele>403.59</ele>
        <time>2018-09-09T08:23:13Z</time>
      </trkpt>
      <trkpt lat="45.06111" lon="5.86464">
        <ele>403</ele>
        <time>2018-09-09T08:23:14Z</time>
      </trkpt>
      <trkpt lat="45.0613" lon="5.86484">
        <ele>402.82</ele>
        <time>2018-09-09T08:23:15Z</time>
      </trkpt>
      <trkpt lat="45.06148" lon="5.86503">
        <ele>402.76</ele>
        <time>2018-09-09T08:23:16Z</time>
      </trkpt>
      <trkpt lat="45.06167" lon="5.86521">
        <ele>403.45</ele>
        <time>2018-09-09T08:23:17Z</time>
      </trkpt>
      <trkpt lat="45.06186" lon="5.86539">
        <ele>404.35</ele>
        <time>2018-09-09T08:23:18Z</time>
      </trkpt>
      <trkpt lat="45.06205" lon="5.86556">
        <ele>404.62</ele>
        <time>2018-09-09T08:23:19Z</time>
      </trkpt>
      <trkpt lat="45.06224" lon="5.86574">
        <ele>404.71</ele>
        <time>2018-09-09T08:23:20Z</time>
      </trkpt>
      <trkpt lat="45.06244" lon="5.86591">
        <ele>404.73</ele>
        <time>2018-09-09T08:23:21Z</time>
      </trkpt>
      <trkpt lat="45.06263" lon="5.86606">
        <ele>405.44</ele>
        <time>2018-09-09T08:23:22Z</time>
      </trkpt>
      <trkpt lat="45.06283" lon="5.86622">
        <ele>407.05</ele>
        <time>2018-09-09T08:23:23Z</time>
      </trkpt>
      <trkpt lat="45.06303" lon="5.86638">
        <ele>408.93</ele>
        <time>2018-09-09T08:23:24Z</time>
      </trkpt>
      <trkpt lat="45.06321" lon="5.86653">
        <ele>410.2</ele>
        <time>2018-09-09T08:23:25Z</time>
      </trkpt>
      <trkpt lat="45.0634" lon="5.86669">
        <ele>411.28</ele>
        <time>2018-09-09T08:23:26Z</time>
      </trkpt>
      <trkpt lat="45.0636" lon="5.86684">
        <ele>411.6</ele>
        <time>2018-09-09T08:23:27Z</time>
      </trkpt>
      <trkpt lat="45.06379" lon="5.86697">
        <ele>412.4</ele>
        <time>2018-09-09T08:23:28Z</time>
      </trkpt>
      <trkpt lat="45.06398" lon="5.86711">
        <ele>414.74</ele>
        <time>2018-09-09T08:23:29Z</time>
      </trkpt>
      <trkpt lat="45.06417" lon="5.86725">
        <ele>415.44</ele>
        <time>2018-09-09T08:23:30Z</time>
      </trkpt>
      <trkpt lat="45.06437" lon="5.86739">
        <ele>417.05</ele>
        <time>2018-09-09T08:23:31Z</time>
      </trkpt>
      <trkpt lat="45.06455" lon="5.86752">
        <ele>418.23</ele>
        <time>2018-09-09T08:23:32Z</time>
      </trkpt>
      <trkpt lat="45.06474" lon="5.86766">
        <ele>419.29</ele>
        <time>2018-09-09T08:23:33Z</time>
      </trkpt>
      <trkpt lat="45.06493" lon="5.86781">
        <ele>420.31</ele>
        <time>2018-09-09T08:23:34Z</time>
      </trkpt>
      <trkpt lat="45.06511" lon="5.86795">
        <ele>421.31</ele>
        <time>2018-09-09T08:23:35Z</time>
      </trkpt>
      <trkpt lat="45.0653" lon="5.86807">
        <ele>421.61</ele>
        <time>2018-09-09T08:23:36Z</time>
      </trkpt>
      <trkpt lat="45.06548" lon="5.86818">
        <ele>421.7</ele>
        <time>2018-09-09T08:23:37Z</time>
      </trkpt>
      <trkpt lat="45.06567" lon="5.86827">
        <ele>422.43</ele>
        <time>2018-09-09T08:23:38Z</time>
      </trkpt>
      <trkpt lat="45.06587" lon="5.86835">
        <ele>421.95</ele>
        <time>2018-09-09T08:23:39Z</time>
      </trkpt>
      <trkpt lat="45.06608" lon="5.8684">
        <ele>421.8</ele>
        <time>2018-09-09T08:23:40Z</time>
      </trkpt>
      <trkpt lat="45.06628" lon="5.86844">
        <ele>421.76</ele>
        <time>2018-09-09T08:23:41Z</time>
      </trkpt>
      <trkpt lat="45.06649" lon="5.86849">
        <ele>421.75</ele>
        <time>2018-09-09T08:23:42Z</time>
      </trkpt>
      <trkpt lat="45.0667" lon="5.86854">
        <ele>421.04</ele>
        <time>2018-09-09T08:23:43Z</time>
      </trkpt>
      <trkpt lat="45.06691" lon="5.8686">
        <ele>420.83</ele>
        <time>2018-09-09T08:23:44Z</time>
      </trkpt>
      <trkpt lat="45.0671" lon="5.86867">
        <ele>420.77</ele>
        <time>2018-09-09T08:23:45Z</time>
      </trkpt>
      <trkpt lat="45.0673" lon="5.86876">
        <ele>421.45</ele>
        <time>2018-09-09T08:23:46Z</time>
      </trkpt>
      <trkpt lat="45.0675" lon="5.86887">
        <ele>421.65</ele>
        <time>2018-09-09T08:23:47Z</time>
      </trkpt>
      <trkpt lat="45.0677" lon="5.869">
        <ele>421.71</ele>
        <time>2018-09-09T08:23:48Z</time>
      </trkpt>
      <trkpt lat="45.06788" lon="5.86912">
        <ele>421.03</ele>
        <time>2018-09-09T08:23:49Z</time>
      </trkpt>
      <trkpt lat="45.06808" lon="5.86925">
        <ele>420.83</ele>
        <time>2018-09-09T08:23:50Z</time>
      </trkpt>
      <trkpt lat="45.06827" lon="5.86939">
        <ele>421.47</ele>
        <time>2018-09-09T08:23:51Z</time>
      </trkpt>
      <trkpt lat="45.06846" lon="5.86952">
        <ele>423.06</ele>
        <time>2018-09-09T08:23:52Z</time>
      </trkpt>
      <trkpt lat="45.06864" lon="5.86966">
        <ele>423.54</ele>
        <time>2018-09-09T08:23:53Z</time>
      </trkpt>
      <trkpt lat="45.06883" lon="5.86978">
        <ele>423.68</ele>
        <time>2018-09-09T08:23:54Z</time>
      </trkpt>
      <trkpt lat="45.06901" lon="5.86992">
        <ele>425.12</ele>
        <time>2018-09-09T08:23:55Z</time>
      </trkpt>
      <trkpt lat="45.06919" lon="5.87005">
        <ele>424.86</ele>
        <time>2018-09-09T08:23:56Z</time>
      </trkpt>
      <trkpt lat="45.06936" lon="5.87019">
        <ele>424.78</ele>
        <time>2018-09-09T08:23:57Z</time>
      </trkpt>
      <trkpt lat="45.06952" lon="5.87034">
        <ele>424.05</ele>
        <time>2018-09-09T08:23:58Z</time>
      </trkpt>
      <trkpt lat="45.06969" lon="5.87049">
        <ele>423.83</ele>
        <time>2018-09-09T08:23:59Z</time>
      </trkpt>
      <trkpt lat="45.06986" lon="5.87065">
        <ele>423.07</ele>
        <time>2018-09-09T08:24:00Z</time>
      </trkpt>
      <trkpt lat="45.07001" lon="5.87084">
        <ele>424.24</ele>
        <time>2018-09-09T08:24:01Z</time>
      </trkpt>
      <trkpt lat="45.07017" lon="5.87103">
        <ele>425.29</ele>
        <time>2018-09-09T08:24:02Z</time>
      </trkpt>
      <trkpt lat="45.07033" lon="5.87122">
        <ele>426.31</ele>
        <time>2018-09-09T08:24:03Z</time>
      </trkpt>
      <trkpt lat="45.07049" lon="5.8714">
        <ele>428.71</ele>
        <time>2018-09-09T08:24:04Z</time>
      </trkpt>
      <trkpt lat="45.07065" lon="5.87158">
        <ele>429.43</ele>
        <time>2018-09-09T08:24:05Z</time>
      </trkpt>
      <trkpt lat="45.07081" lon="5.87176">
        <ele>429.65</ele>
        <time>2018-09-09T08:24:06Z</time>
      </trkpt>
      <trkpt lat="45.07097" lon="5.87193">
        <ele>430.41</ele>
        <time>2018-09-09T08:24:07Z</time>
      </trkpt>
      <trkpt lat="45.07112" lon="5.87211">
        <ele>430.64</ele>
        <time>2018-09-09T08:24:08Z</time>
      </trkpt>
      <trkpt lat="45.07126" lon="5.87231">
        <ele>432.11</ele>
        <time>2018-09-09T08:24:09Z</time>
      </trkpt>
      <trkpt lat="45.07139" lon="5.87253">
        <ele>434.65</ele>
        <time>2018-09-09T08:24:10Z</time>
      </trkpt>
      <trkpt lat="45.0715" lon="5.87276">
        <ele>436.81</ele>
        <time>2018-09-09T08:24:11Z</time>
      </trkpt>
      <trkpt lat="45.07159" lon="5.873">
        <ele>438.16</ele>
        <time>2018-09-09T08:24:12Z</time>
      </trkpt>
      <trkpt lat="45.07167" lon="5.87325">
        <ele>439.97</ele>
        <time>2018-09-09T08:24:13Z</time>
      </trkpt>
      <trkpt lat="45.07172" lon="5.87349">
        <ele>441.91</ele>
        <time>2018-09-09T08:24:14Z</time>
      </trkpt>
      <trkpt lat="45.07176" lon="5.87375">
        <ele>443.19</ele>
        <time>2018-09-09T08:24:15Z</time>
      </trkpt>
      <trkpt lat="45.07178" lon="5.87422">
        <ele>446.21</ele>
        <time>2018-09-09T08:24:17Z</time>
      </trkpt>
      <trkpt lat="45.07178" lon="5.87463">
        <ele>449.21</ele>
        <time>2018-09-09T08:24:19Z</time>
      </trkpt>
      <trkpt lat="45.07175" lon="5.87496">
        <ele>451.3</ele>
        <time>2018-09-09T08:24:21Z</time>
      </trkpt>
      <trkpt lat="45.07169" lon="5.87521">
        <ele>454.22</ele>
        <time>2018-09-09T08:24:23Z</time>
      </trkpt>
      <trkpt lat="45.07166" lon="5.87547">
        <ele>453.82</ele>
        <time>2018-09-09T08:24:26Z</time>
      </trkpt>
      <trkpt lat="45.07188" lon="5.87556">
        <ele>453.75</ele>
        <time>2018-09-09T08:24:28Z</time>
      </trkpt>
      <trkpt lat="45.07206" lon="5.87557">
        <ele>455.14</ele>
        <time>2018-09-09T08:24:29Z</time>
      </trkpt>
      <trkpt lat="45.07235" lon="5.87571">
        <ele>456.39</ele>
        <time>2018-09-09T08:24:31Z</time>
      </trkpt>
      <trkpt lat="45.07263" lon="5.87589">
        <ele>457.41</ele>
        <time>2018-09-09T08:24:33Z</time>
      </trkpt>
      <trkpt lat="45.07289" lon="5.87611">
        <ele>457.71</ele>
        <time>2018-09-09T08:24:35Z</time>
      </trkpt>
      <trkpt lat="45.07315" lon="5.87633">
        <ele>458.23</ele>
        <time>2018-09-09T08:24:37Z</time>
      </trkpt>
      <trkpt lat="45.07341" lon="5.87657">
        <ele>459.39</ele>
        <time>2018-09-09T08:24:39Z</time>
      </trkpt>
      <trkpt lat="45.0737" lon="5.87681">
        <ele>461.11</ele>
        <time>2018-09-09T08:24:41Z</time>
      </trkpt>
      <trkpt lat="45.07399" lon="5.87705">
        <ele>463.29</ele>
        <time>2018-09-09T08:24:43Z</time>
      </trkpt>
      <trkpt lat="45.07428" lon="5.87731">
        <ele>465.1</ele>
        <time>2018-09-09T08:24:45Z</time>
      </trkpt>
      <trkpt lat="45.07457" lon="5.87756">
        <ele>466.38</ele>
        <time>2018-09-09T08:24:47Z</time>
      </trkpt>
      <trkpt lat="45.07485" lon="5.87786">
        <ele>466.71</ele>
        <time>2018-09-09T08:24:49Z</time>
      </trkpt>
      <trkpt lat="45.07511" lon="5.8782">
        <ele>467.44</ele>
        <time>2018-09-09T08:24:51Z</time>
      </trkpt>
      <trkpt lat="45.07521" lon="5.87842">
        <ele>467.65</ele>
        <time>2018-09-09T08:24:52Z</time>
      </trkpt>
      <trkpt lat="45.07531" lon="5.87865">
        <ele>469.11</ele>
        <time>2018-09-09T08:24:53Z</time>
      </trkpt>
      <trkpt lat="45.07545" lon="5.87913">
        <ele>470.38</ele>
        <time>2018-09-09T08:24:55Z</time>
      </trkpt>
      <trkpt lat="45.07549" lon="5.87939">
        <ele>471.33</ele>
        <time>2018-09-09T08:24:56Z</time>
      </trkpt>
      <trkpt lat="45.07553" lon="5.87964">
        <ele>472.32</ele>
        <time>2018-09-09T08:24:57Z</time>
      </trkpt>
      <trkpt lat="45.07558" lon="5.8799">
        <ele>473.31</ele>
        <time>2018-09-09T08:24:58Z</time>
      </trkpt>
      <trkpt lat="45.07563" lon="5.88016">
        <ele>474.31</ele>
        <time>2018-09-09T08:24:59Z</time>
      </trkpt>
      <trkpt lat="45.07568" lon="5.88042">
        <ele>475.31</ele>
        <time>2018-09-09T08:25:00Z</time>
      </trkpt>
      <trkpt lat="45.07573" lon="5.88068">
        <ele>476.31</ele>
        <time>2018-09-09T08:25:01Z</time>
      </trkpt>
      <trkpt lat="45.07576" lon="5.88094">
        <ele>477.31</ele>
        <time>2018-09-09T08:25:02Z</time>
      </trkpt>
      <trkpt lat="45.07579" lon="5.8812">
        <ele>478.31</ele>
        <time>2018-09-09T08:25:03Z</time>
      </trkpt>
      <trkpt lat="45.07582" lon="5.88148">
        <ele>478.61</ele>
        <time>2018-09-09T08:25:04Z</time>
      </trkpt>
      <trkpt lat="45.07584" lon="5.88174">
        <ele>479.4</ele>
        <time>2018-09-09T08:25:05Z</time>
      </trkpt>
      <trkpt lat="45.07581" lon="5.88201">
        <ele>479.64</ele>
        <time>2018-09-09T08:25:06Z</time>
      </trkpt>
      <trkpt lat="45.0758" lon="5.88227">
        <ele>480.41</ele>
        <time>2018-09-09T08:25:07Z</time>
      </trkpt>
      <trkpt lat="45.07581" lon="5.88279">
        <ele>481.62</ele>
        <time>2018-09-09T08:25:09Z</time>
      </trkpt>
      <trkpt lat="45.07586" lon="5.88305">
        <ele>482.41</ele>
        <time>2018-09-09T08:25:10Z</time>
      </trkpt>
      <trkpt lat="45.07592" lon="5.88331">
        <ele>484.04</ele>
        <time>2018-09-09T08:25:11Z</time>
      </trkpt>
      <trkpt lat="45.07598" lon="5.88357">
        <ele>485.23</ele>
        <time>2018-09-09T08:25:12Z</time>
      </trkpt>
      <trkpt lat="45.07606" lon="5.88382">
        <ele>485.59</ele>
        <time>2018-09-09T08:25:13Z</time>
      </trkpt>
      <trkpt lat="45.07614" lon="5.88407">
        <ele>485.7</ele>
        <time>2018-09-09T08:25:14Z</time>
      </trkpt>
      <trkpt lat="45.07625" lon="5.88431">
        <ele>486.43</ele>
        <time>2018-09-09T08:25:15Z</time>
      </trkpt>
      <trkpt lat="45.07637" lon="5.88454">
        <ele>486.65</ele>
        <time>2018-09-09T08:25:16Z</time>
      </trkpt>
      <trkpt lat="45.0765" lon="5.88475">
        <ele>486.71</ele>
        <time>2018-09-09T08:25:17Z</time>
      </trkpt>
      <trkpt lat="45.07663" lon="5.88496">
        <ele>487.43</ele>
        <time>2018-09-09T08:25:18Z</time>
      </trkpt>
      <trkpt lat="45.07677" lon="5.88518">
        <ele>487.65</ele>
        <time>2018-09-09T08:25:19Z</time>
      </trkpt>
      <trkpt lat="45.07689" lon="5.88539">
        <ele>487.71</ele>
        <time>2018-09-09T08:25:20Z</time>
      </trkpt>
      <trkpt lat="45.07703" lon="5.88561">
        <ele>487.73</ele>
        <time>2018-09-09T08:25:21Z</time>
      </trkpt>
      <trkpt lat="45.07716" lon="5.88583">
        <ele>487.74</ele>
        <time>2018-09-09T08:25:22Z</time>
      </trkpt>
      <trkpt lat="45.0773" lon="5.88605">
        <ele>487.74</ele>
        <time>2018-09-09T08:25:23Z</time>
      </trkpt>
      <trkpt lat="45.07743" lon="5.88627">
        <ele>487.74</ele>
        <time>2018-09-09T08:25:24Z</time>
      </trkpt>
      <trkpt lat="45.07756" lon="5.88649">
        <ele>487.74</ele>
        <time>2018-09-09T08:25:25Z</time>
      </trkpt>
      <trkpt lat="45.0777" lon="5.88671">
        <ele>488.44</ele>
        <time>2018-09-09T08:25:26Z</time>
      </trkpt>
      <trkpt lat="45.07783" lon="5.88693">
        <ele>488.65</ele>
        <time>2018-09-09T08:25:27Z</time>
      </trkpt>
      <trkpt lat="45.07796" lon="5.88715">
        <ele>488.71</ele>
        <time>2018-09-09T08:25:28Z</time>
      </trkpt>
      <trkpt lat="45.07809" lon="5.88738">
        <ele>489.43</ele>
        <time>2018-09-09T08:25:29Z</time>
      </trkpt>
      <trkpt lat="45.0782" lon="5.88761">
        <ele>489.65</ele>
        <time>2018-09-09T08:25:30Z</time>
      </trkpt>
      <trkpt lat="45.07831" lon="5.88783">
        <ele>490.41</ele>
        <time>2018-09-09T08:25:31Z</time>
      </trkpt>
      <trkpt lat="45.07842" lon="5.88806">
        <ele>492.04</ele>
        <time>2018-09-09T08:25:32Z</time>
      </trkpt>
      <trkpt lat="45.07852" lon="5.8883">
        <ele>493.93</ele>
        <time>2018-09-09T08:25:33Z</time>
      </trkpt>
      <trkpt lat="45.07861" lon="5.88854">
        <ele>495.2</ele>
        <time>2018-09-09T08:25:34Z</time>
      </trkpt>
      <trkpt lat="45.0787" lon="5.88879">
        <ele>496.28</ele>
        <time>2018-09-09T08:25:35Z</time>
      </trkpt>
      <trkpt lat="45.07879" lon="5.88904">
        <ele>496.6</ele>
        <time>2018-09-09T08:25:36Z</time>
      </trkpt>
      <trkpt lat="45.07888" lon="5.88928">
        <ele>497.4</ele>
        <time>2018-09-09T08:25:37Z</time>
      </trkpt>
      <trkpt lat="45.07897" lon="5.88953">
        <ele>498.34</ele>
        <time>2018-09-09T08:25:38Z</time>
      </trkpt>
      <trkpt lat="45.07905" lon="5.88978">
        <ele>498.62</ele>
        <time>2018-09-09T08:25:39Z</time>
      </trkpt>
      <trkpt lat="45.07914" lon="5.89002">
        <ele>500.1</ele>
        <time>2018-09-09T08:25:40Z</time>
      </trkpt>
      <trkpt lat="45.07923" lon="5.89025">
        <ele>501.25</ele>
        <time>2018-09-09T08:25:41Z</time>
      </trkpt>
      <trkpt lat="45.07934" lon="5.89048">
        <ele>502.29</ele>
        <time>2018-09-09T08:25:42Z</time>
      </trkpt>
      <trkpt lat="45.07946" lon="5.89069">
        <ele>502.61</ele>
        <time>2018-09-09T08:25:43Z</time>
      </trkpt>
      <trkpt lat="45.07958" lon="5.89091">
        <ele>503.4</ele>
        <time>2018-09-09T08:25:44Z</time>
      </trkpt>
      <trkpt lat="45.07969" lon="5.89114">
        <ele>503.64</ele>
        <time>2018-09-09T08:25:45Z</time>
      </trkpt>
      <trkpt lat="45.07981" lon="5.89136">
        <ele>503.71</ele>
        <time>2018-09-09T08:25:46Z</time>
      </trkpt>
      <trkpt lat="45.07994" lon="5.89158">
        <ele>503.03</ele>
        <time>2018-09-09T08:25:47Z</time>
      </trkpt>
      <trkpt lat="45.08007" lon="5.8918">
        <ele>503.53</ele>
        <time>2018-09-09T08:25:48Z</time>
      </trkpt>
      <trkpt lat="45.0802" lon="5.89202">
        <ele>504.38</ele>
        <time>2018-09-09T08:25:49Z</time>
      </trkpt>
      <trkpt lat="45.08033" lon="5.89224">
        <ele>505.33</ele>
        <time>2018-09-09T08:25:50Z</time>
      </trkpt>
      <trkpt lat="45.08045" lon="5.89244">
        <ele>506.32</ele>
        <time>2018-09-09T08:25:51Z</time>
      </trkpt>
      <trkpt lat="45.08059" lon="5.89266">
        <ele>508.01</ele>
        <time>2018-09-09T08:25:52Z</time>
      </trkpt>
      <trkpt lat="45.08073" lon="5.89287">
        <ele>509.22</ele>
        <time>2018-09-09T08:25:53Z</time>
      </trkpt>
      <trkpt lat="45.08087" lon="5.89308">
        <ele>509.59</ele>
        <time>2018-09-09T08:25:54Z</time>
      </trkpt>
      <trkpt lat="45.08102" lon="5.89327">
        <ele>511.09</ele>
        <time>2018-09-09T08:25:55Z</time>
      </trkpt>
      <trkpt lat="45.08117" lon="5.89346">
        <ele>512.25</ele>
        <time>2018-09-09T08:25:56Z</time>
      </trkpt>
      <trkpt lat="45.08132" lon="5.89364">
        <ele>512.59</ele>
        <time>2018-09-09T08:25:57Z</time>
      </trkpt>
      <trkpt lat="45.08147" lon="5.89383">
        <ele>513.4</ele>
        <time>2018-09-09T08:25:58Z</time>
      </trkpt>
      <trkpt lat="45.08162" lon="5.89401">
        <ele>514.34</ele>
        <time>2018-09-09T08:25:59Z</time>
      </trkpt>
      <trkpt lat="45.08177" lon="5.89419">
        <ele>514.62</ele>
        <time>2018-09-09T08:26:00Z</time>
      </trkpt>
      <trkpt lat="45.0819" lon="5.89438">
        <ele>514</ele>
        <time>2018-09-09T08:26:01Z</time>
      </trkpt>
      <trkpt lat="45.08201" lon="5.89461">
        <ele>514.52</ele>
        <time>2018-09-09T08:26:02Z</time>
      </trkpt>
      <trkpt lat="45.08212" lon="5.89483">
        <ele>515.37</ele>
        <time>2018-09-09T08:26:03Z</time>
      </trkpt>
      <trkpt lat="45.08222" lon="5.89507">
        <ele>516.33</ele>
        <time>2018-09-09T08:26:04Z</time>
      </trkpt>
      <trkpt lat="45.08227" lon="5.89532">
        <ele>517.32</ele>
        <time>2018-09-09T08:26:05Z</time>
      </trkpt>
      <trkpt lat="45.08234" lon="5.89556">
        <ele>518.31</ele>
        <time>2018-09-09T08:26:06Z</time>
      </trkpt>
      <trkpt lat="45.08233" lon="5.89603">
        <ele>519.4</ele>
        <time>2018-09-09T08:26:08Z</time>
      </trkpt>
      <trkpt lat="45.08228" lon="5.89651">
        <ele>519.71</ele>
        <time>2018-09-09T08:26:10Z</time>
      </trkpt>
      <trkpt lat="45.08236" lon="5.89697">
        <ele>520.44</ele>
        <time>2018-09-09T08:26:12Z</time>
      </trkpt>
      <trkpt lat="45.08252" lon="5.89724">
        <ele>521.35</ele>
        <time>2018-09-09T08:26:13Z</time>
      </trkpt>
      <trkpt lat="45.08262" lon="5.89749">
        <ele>522.32</ele>
        <time>2018-09-09T08:26:14Z</time>
      </trkpt>
      <trkpt lat="45.08274" lon="5.89772">
        <ele>523.32</ele>
        <time>2018-09-09T08:26:15Z</time>
      </trkpt>
      <trkpt lat="45.08287" lon="5.89795">
        <ele>523.61</ele>
        <time>2018-09-09T08:26:16Z</time>
      </trkpt>
      <trkpt lat="45.08301" lon="5.89815">
        <ele>523.7</ele>
        <time>2018-09-09T08:26:17Z</time>
      </trkpt>
      <trkpt lat="45.08318" lon="5.89834">
        <ele>523.73</ele>
        <time>2018-09-09T08:26:18Z</time>
      </trkpt>
      <trkpt lat="45.08334" lon="5.89852">
        <ele>524.44</ele>
        <time>2018-09-09T08:26:19Z</time>
      </trkpt>
      <trkpt lat="45.0835" lon="5.8987">
        <ele>524.65</ele>
        <time>2018-09-09T08:26:20Z</time>
      </trkpt>
      <trkpt lat="45.08366" lon="5.89888">
        <ele>524.71</ele>
        <time>2018-09-09T08:26:21Z</time>
      </trkpt>
      <trkpt lat="45.08382" lon="5.89906">
        <ele>525.43</ele>
        <time>2018-09-09T08:26:22Z</time>
      </trkpt>
      <trkpt lat="45.08399" lon="5.89924">
        <ele>525.65</ele>
        <time>2018-09-09T08:26:23Z</time>
      </trkpt>
      <trkpt lat="45.08416" lon="5.89942">
        <ele>525.01</ele>
        <time>2018-09-09T08:26:24Z</time>
      </trkpt>
      <trkpt lat="45.08434" lon="5.89959">
        <ele>524.82</ele>
        <time>2018-09-09T08:26:25Z</time>
      </trkpt>
      <trkpt lat="45.08451" lon="5.89975">
        <ele>526.17</ele>
        <time>2018-09-09T08:26:26Z</time>
      </trkpt>
      <trkpt lat="45.08468" lon="5.8999">
        <ele>525.87</ele>
        <time>2018-09-09T08:26:27Z</time>
      </trkpt>
      <trkpt lat="45.08484" lon="5.90006">
        <ele>525.78</ele>
        <time>2018-09-09T08:26:28Z</time>
      </trkpt>
      <trkpt lat="45.085" lon="5.90021">
        <ele>526.45</ele>
        <time>2018-09-09T08:26:29Z</time>
      </trkpt>
      <trkpt lat="45.08516" lon="5.90034">
        <ele>526.65</ele>
        <time>2018-09-09T08:26:30Z</time>
      </trkpt>
      <trkpt lat="45.08535" lon="5.90045">
        <ele>527.42</ele>
        <time>2018-09-09T08:26:31Z</time>
      </trkpt>
      <trkpt lat="45.08552" lon="5.90054">
        <ele>528.34</ele>
        <time>2018-09-09T08:26:32Z</time>
      </trkpt>
      <trkpt lat="45.08571" lon="5.90063">
        <ele>529.32</ele>
        <time>2018-09-09T08:26:33Z</time>
      </trkpt>
      <trkpt lat="45.08589" lon="5.9007">
        <ele>530.32</ele>
        <time>2018-09-09T08:26:34Z</time>
      </trkpt>
      <trkpt lat="45.08608" lon="5.90078">
        <ele>531.31</ele>
        <time>2018-09-09T08:26:35Z</time>
      </trkpt>
      <trkpt lat="45.08627" lon="5.90085">
        <ele>532.31</ele>
        <time>2018-09-09T08:26:36Z</time>
      </trkpt>
      <trkpt lat="45.08645" lon="5.90093">
        <ele>532.61</ele>
        <time>2018-09-09T08:26:37Z</time>
      </trkpt>
      <trkpt lat="45.08663" lon="5.901">
        <ele>532.7</ele>
        <time>2018-09-09T08:26:38Z</time>
      </trkpt>
      <trkpt lat="45.08682" lon="5.90107">
        <ele>533.43</ele>
        <time>2018-09-09T08:26:39Z</time>
      </trkpt>
      <trkpt lat="45.087" lon="5.90114">
        <ele>533.65</ele>
        <time>2018-09-09T08:26:40Z</time>
      </trkpt>
      <trkpt lat="45.08719" lon="5.90122">
        <ele>534.41</ele>
        <time>2018-09-09T08:26:41Z</time>
      </trkpt>
      <trkpt lat="45.08738" lon="5.90131">
        <ele>535.34</ele>
        <time>2018-09-09T08:26:42Z</time>
      </trkpt>
      <trkpt lat="45.08756" lon="5.90138">
        <ele>534.92</ele>
        <time>2018-09-09T08:26:43Z</time>
      </trkpt>
      <trkpt lat="45.08775" lon="5.90146">
        <ele>535.5</ele>
        <time>2018-09-09T08:26:44Z</time>
      </trkpt>
      <trkpt lat="45.08794" lon="5.90152">
        <ele>535.67</ele>
        <time>2018-09-09T08:26:45Z</time>
      </trkpt>
      <trkpt lat="45.08814" lon="5.90156">
        <ele>537.12</ele>
        <time>2018-09-09T08:26:46Z</time>
      </trkpt>
      <trkpt lat="45.08833" lon="5.9016">
        <ele>537.55</ele>
        <time>2018-09-09T08:26:47Z</time>
      </trkpt>
      <trkpt lat="45.08852" lon="5.90165">
        <ele>539.09</ele>
        <time>2018-09-09T08:26:48Z</time>
      </trkpt>
      <trkpt lat="45.08872" lon="5.90169">
        <ele>539.54</ele>
        <time>2018-09-09T08:26:49Z</time>
      </trkpt>
      <trkpt lat="45.08891" lon="5.90173">
        <ele>540.38</ele>
        <time>2018-09-09T08:26:50Z</time>
      </trkpt>
      <trkpt lat="45.0891" lon="5.90177">
        <ele>541.33</ele>
        <time>2018-09-09T08:26:51Z</time>
      </trkpt>
      <trkpt lat="45.08928" lon="5.90181">
        <ele>542.32</ele>
        <time>2018-09-09T08:26:52Z</time>
      </trkpt>
      <trkpt lat="45.08947" lon="5.90185">
        <ele>543.31</ele>
        <time>2018-09-09T08:26:53Z</time>
      </trkpt>
      <trkpt lat="45.08981" lon="5.90192">
        <ele>545.31</ele>
        <time>2018-09-09T08:26:55Z</time>
      </trkpt>
      <trkpt lat="45.09015" lon="5.90202">
        <ele>545.7</ele>
        <time>2018-09-09T08:26:57Z</time>
      </trkpt>
      <trkpt lat="45.09044" lon="5.90219">
        <ele>546.65</ele>
        <time>2018-09-09T08:26:59Z</time>
      </trkpt>
      <trkpt lat="45.09068" lon="5.9024">
        <ele>546.73</ele>
        <time>2018-09-09T08:27:01Z</time>
      </trkpt>
      <trkpt lat="45.09091" lon="5.9026">
        <ele>547.44</ele>
        <time>2018-09-09T08:27:03Z</time>
      </trkpt>
      <trkpt lat="45.09115" lon="5.90279">
        <ele>549.32</ele>
        <time>2018-09-09T08:27:05Z</time>
      </trkpt>
      <trkpt lat="45.0914" lon="5.90298">
        <ele>551.31</ele>
        <time>2018-09-09T08:27:07Z</time>
      </trkpt>
      <trkpt lat="45.09165" lon="5.90316">
        <ele>553.31</ele>
        <time>2018-09-09T08:27:09Z</time>
      </trkpt>
      <trkpt lat="45.0919" lon="5.90335">
        <ele>553</ele>
        <time>2018-09-09T08:27:11Z</time>
      </trkpt>
      <trkpt lat="45.09213" lon="5.90358">
        <ele>553.67</ele>
        <time>2018-09-09T08:27:13Z</time>
      </trkpt>
      <trkpt lat="45.09237" lon="5.90379">
        <ele>553.74</ele>
        <time>2018-09-09T08:27:15Z</time>
      </trkpt>
      <trkpt lat="45.09259" lon="5.90398">
        <ele>553.53</ele>
        <time>2018-09-09T08:27:17Z</time>
      </trkpt>
      <trkpt lat="45.09283" lon="5.90419">
        <ele>552.81</ele>
        <time>2018-09-09T08:27:19Z</time>
      </trkpt>
      <trkpt lat="45.09309" lon="5.90438">
        <ele>552.75</ele>
        <time>2018-09-09T08:27:21Z</time>
      </trkpt>
      <trkpt lat="45.09334" lon="5.90458">
        <ele>552.74</ele>
        <time>2018-09-09T08:27:23Z</time>
      </trkpt>
      <trkpt lat="45.0936" lon="5.90479">
        <ele>554.14</ele>
        <time>2018-09-09T08:27:25Z</time>
      </trkpt>
      <trkpt lat="45.09387" lon="5.90501">
        <ele>554.69</ele>
        <time>2018-09-09T08:27:27Z</time>
      </trkpt>
      <trkpt lat="45.09415" lon="5.90524">
        <ele>555.65</ele>
        <time>2018-09-09T08:27:29Z</time>
      </trkpt>
      <trkpt lat="45.09444" lon="5.90546">
        <ele>554.82</ele>
        <time>2018-09-09T08:27:31Z</time>
      </trkpt>
      <trkpt lat="45.09475" lon="5.9057">
        <ele>555.45</ele>
        <time>2018-09-09T08:27:33Z</time>
      </trkpt>
      <trkpt lat="45.09491" lon="5.90584">
        <ele>557.05</ele>
        <time>2018-09-09T08:27:34Z</time>
      </trkpt>
      <trkpt lat="45.09505" lon="5.906">
        <ele>558.23</ele>
        <time>2018-09-09T08:27:35Z</time>
      </trkpt>
      <trkpt lat="45.09518" lon="5.90618">
        <ele>559.99</ele>
        <time>2018-09-09T08:27:36Z</time>
      </trkpt>
      <trkpt lat="45.0953" lon="5.9064">
        <ele>561.92</ele>
        <time>2018-09-09T08:27:37Z</time>
      </trkpt>
      <trkpt lat="45.0954" lon="5.90662">
        <ele>562.49</ele>
        <time>2018-09-09T08:27:38Z</time>
      </trkpt>
      <trkpt lat="45.0955" lon="5.90686">
        <ele>564.07</ele>
        <time>2018-09-09T08:27:39Z</time>
      </trkpt>
      <trkpt lat="45.0956" lon="5.90711">
        <ele>565.24</ele>
        <time>2018-09-09T08:27:40Z</time>
      </trkpt>
      <trkpt lat="45.09569" lon="5.90735">
        <ele>566.29</ele>
        <time>2018-09-09T08:27:41Z</time>
      </trkpt>
      <trkpt lat="45.09579" lon="5.9076">
        <ele>566.61</ele>
        <time>2018-09-09T08:27:42Z</time>
      </trkpt>
      <trkpt lat="45.09588" lon="5.90786">
        <ele>567.4</ele>
        <time>2018-09-09T08:27:43Z</time>
      </trkpt>
      <trkpt lat="45.09599" lon="5.9081">
        <ele>568.34</ele>
        <time>2018-09-09T08:27:44Z</time>
      </trkpt>
      <trkpt lat="45.09609" lon="5.90836">
        <ele>568.62</ele>
        <time>2018-09-09T08:27:45Z</time>
      </trkpt>
      <trkpt lat="45.09619" lon="5.90861">
        <ele>568.7</ele>
        <time>2018-09-09T08:27:46Z</time>
      </trkpt>
      <trkpt lat="45.0963" lon="5.90886">
        <ele>570.13</ele>
        <time>2018-09-09T08:27:47Z</time>
      </trkpt>
      <trkpt lat="45.0964" lon="5.90912">
        <ele>571.26</ele>
        <time>2018-09-09T08:27:48Z</time>
      </trkpt>
      <trkpt lat="45.09648" lon="5.90938">
        <ele>571.6</ele>
        <time>2018-09-09T08:27:49Z</time>
      </trkpt>
      <trkpt lat="45.09654" lon="5.90966">
        <ele>571.7</ele>
        <time>2018-09-09T08:27:50Z</time>
      </trkpt>
      <trkpt lat="45.09659" lon="5.90995">
        <ele>571.73</ele>
        <time>2018-09-09T08:27:51Z</time>
      </trkpt>
      <trkpt lat="45.09663" lon="5.91025">
        <ele>571.74</ele>
        <time>2018-09-09T08:27:52Z</time>
      </trkpt>
      <trkpt lat="45.09666" lon="5.91054">
        <ele>572.44</ele>
        <time>2018-09-09T08:27:53Z</time>
      </trkpt>
      <trkpt lat="45.0967" lon="5.91084">
        <ele>572.65</ele>
        <time>2018-09-09T08:27:54Z</time>
      </trkpt>
      <trkpt lat="45.09674" lon="5.91114">
        <ele>573.41</ele>
        <time>2018-09-09T08:27:55Z</time>
      </trkpt>
      <trkpt lat="45.09678" lon="5.91144">
        <ele>573.64</ele>
        <time>2018-09-09T08:27:56Z</time>
      </trkpt>
      <trkpt lat="45.09681" lon="5.91174">
        <ele>573.71</ele>
        <time>2018-09-09T08:27:57Z</time>
      </trkpt>
      <trkpt lat="45.09687" lon="5.91204">
        <ele>574.43</ele>
        <time>2018-09-09T08:27:58Z</time>
      </trkpt>
      <trkpt lat="45.09692" lon="5.91234">
        <ele>575.35</ele>
        <time>2018-09-09T08:27:59Z</time>
      </trkpt>
      <trkpt lat="45.09699" lon="5.91263">
        <ele>576.32</ele>
        <time>2018-09-09T08:28:00Z</time>
      </trkpt>
      <trkpt lat="45.09708" lon="5.91291">
        <ele>576.62</ele>
        <time>2018-09-09T08:28:01Z</time>
      </trkpt>
      <trkpt lat="45.09718" lon="5.91319">
        <ele>576.7</ele>
        <time>2018-09-09T08:28:02Z</time>
      </trkpt>
      <trkpt lat="45.09728" lon="5.91346">
        <ele>576.03</ele>
        <time>2018-09-09T08:28:03Z</time>
      </trkpt>
      <trkpt lat="45.09741" lon="5.91374">
        <ele>576.53</ele>
        <time>2018-09-09T08:28:04Z</time>
      </trkpt>
      <trkpt lat="45.09755" lon="5.914">
        <ele>578.78</ele>
        <time>2018-09-09T08:28:05Z</time>
      </trkpt>
      <trkpt lat="45.09766" lon="5.91427">
        <ele>579.45</ele>
        <time>2018-09-09T08:28:06Z</time>
      </trkpt>
      <trkpt lat="45.09779" lon="5.91453">
        <ele>580.35</ele>
        <time>2018-09-09T08:28:07Z</time>
      </trkpt>
      <trkpt lat="45.09789" lon="5.9148">
        <ele>581.32</ele>
        <time>2018-09-09T08:28:08Z</time>
      </trkpt>
      <trkpt lat="45.09801" lon="5.91505">
        <ele>582.32</ele>
        <time>2018-09-09T08:28:09Z</time>
      </trkpt>
      <trkpt lat="45.09812" lon="5.91532">
        <ele>582.61</ele>
        <time>2018-09-09T08:28:10Z</time>
      </trkpt>
      <trkpt lat="45.09825" lon="5.91555">
        <ele>582.7</ele>
        <time>2018-09-09T08:28:11Z</time>
      </trkpt>
      <trkpt lat="45.09839" lon="5.91578">
        <ele>582.73</ele>
        <time>2018-09-09T08:28:12Z</time>
      </trkpt>
      <trkpt lat="45.09855" lon="5.91597">
        <ele>582.74</ele>
        <time>2018-09-09T08:28:13Z</time>
      </trkpt>
      <trkpt lat="45.09872" lon="5.91613">
        <ele>582.74</ele>
        <time>2018-09-09T08:28:14Z</time>
      </trkpt>
      <trkpt lat="45.0989" lon="5.91629">
        <ele>583.44</ele>
        <time>2018-09-09T08:28:15Z</time>
      </trkpt>
      <trkpt lat="45.09908" lon="5.91644">
        <ele>584.35</ele>
        <time>2018-09-09T08:28:16Z</time>
      </trkpt>
      <trkpt lat="45.09926" lon="5.91659">
        <ele>585.32</ele>
        <time>2018-09-09T08:28:17Z</time>
      </trkpt>
      <trkpt lat="45.09944" lon="5.91674">
        <ele>586.32</ele>
        <time>2018-09-09T08:28:18Z</time>
      </trkpt>
      <trkpt lat="45.09962" lon="5.91689">
        <ele>586.61</ele>
        <time>2018-09-09T08:28:19Z</time>
      </trkpt>
      <trkpt lat="45.0998" lon="5.91704">
        <ele>587.4</ele>
        <time>2018-09-09T08:28:20Z</time>
      </trkpt>
      <trkpt lat="45.09998" lon="5.91719">
        <ele>589.04</ele>
        <time>2018-09-09T08:28:21Z</time>
      </trkpt>
      <trkpt lat="45.10015" lon="5.91735">
        <ele>588.83</ele>
        <time>2018-09-09T08:28:22Z</time>
      </trkpt>
      <trkpt lat="45.10032" lon="5.91749">
        <ele>588.77</ele>
        <time>2018-09-09T08:28:23Z</time>
      </trkpt>
      <trkpt lat="45.1005" lon="5.91764">
        <ele>588.05</ele>
        <time>2018-09-09T08:28:24Z</time>
      </trkpt>
      <trkpt lat="45.10068" lon="5.91778">
        <ele>589.23</ele>
        <time>2018-09-09T08:28:25Z</time>
      </trkpt>
      <trkpt lat="45.10085" lon="5.91793">
        <ele>588.89</ele>
        <time>2018-09-09T08:28:26Z</time>
      </trkpt>
      <trkpt lat="45.10103" lon="5.91808">
        <ele>588.79</ele>
        <time>2018-09-09T08:28:27Z</time>
      </trkpt>
      <trkpt lat="45.1012" lon="5.91824">
        <ele>589.45</ele>
        <time>2018-09-09T08:28:28Z</time>
      </trkpt>
      <trkpt lat="45.10137" lon="5.91839">
        <ele>590.35</ele>
        <time>2018-09-09T08:28:29Z</time>
      </trkpt>
      <trkpt lat="45.10154" lon="5.91852">
        <ele>590.63</ele>
        <time>2018-09-09T08:28:30Z</time>
      </trkpt>
      <trkpt lat="45.10171" lon="5.91866">
        <ele>590.01</ele>
        <time>2018-09-09T08:28:31Z</time>
      </trkpt>
      <trkpt lat="45.10188" lon="5.9188">
        <ele>590.52</ele>
        <time>2018-09-09T08:28:32Z</time>
      </trkpt>
      <trkpt lat="45.10206" lon="5.91894">
        <ele>592.77</ele>
        <time>2018-09-09T08:28:33Z</time>
      </trkpt>
      <trkpt lat="45.10224" lon="5.91909">
        <ele>594.15</ele>
        <time>2018-09-09T08:28:34Z</time>
      </trkpt>
      <trkpt lat="45.10241" lon="5.91924">
        <ele>594.56</ele>
        <time>2018-09-09T08:28:35Z</time>
      </trkpt>
      <trkpt lat="45.10259" lon="5.91938">
        <ele>595.39</ele>
        <time>2018-09-09T08:28:36Z</time>
      </trkpt>
      <trkpt lat="45.10275" lon="5.91954">
        <ele>595.64</ele>
        <time>2018-09-09T08:28:37Z</time>
      </trkpt>
      <trkpt lat="45.1029" lon="5.91972">
        <ele>597.11</ele>
        <time>2018-09-09T08:28:38Z</time>
      </trkpt>
      <trkpt lat="45.10304" lon="5.91993">
        <ele>598.25</ele>
        <time>2018-09-09T08:28:39Z</time>
      </trkpt>
      <trkpt lat="45.10316" lon="5.92015">
        <ele>599.29</ele>
        <time>2018-09-09T08:28:40Z</time>
      </trkpt>
      <trkpt lat="45.10325" lon="5.9204">
        <ele>601.01</ele>
        <time>2018-09-09T08:28:41Z</time>
      </trkpt>
      <trkpt lat="45.10334" lon="5.92064">
        <ele>602.92</ele>
        <time>2018-09-09T08:28:42Z</time>
      </trkpt>
      <trkpt lat="45.10342" lon="5.9209">
        <ele>604.19</ele>
        <time>2018-09-09T08:28:43Z</time>
      </trkpt>
      <trkpt lat="45.10349" lon="5.92116">
        <ele>605.28</ele>
        <time>2018-09-09T08:28:44Z</time>
      </trkpt>
      <trkpt lat="45.10357" lon="5.92141">
        <ele>606.3</ele>
        <time>2018-09-09T08:28:45Z</time>
      </trkpt>
      <trkpt lat="45.10366" lon="5.92167">
        <ele>608.01</ele>
        <time>2018-09-09T08:28:46Z</time>
      </trkpt>
      <trkpt lat="45.10373" lon="5.92193">
        <ele>609.22</ele>
        <time>2018-09-09T08:28:47Z</time>
      </trkpt>
      <trkpt lat="45.10381" lon="5.92219">
        <ele>609.59</ele>
        <time>2018-09-09T08:28:48Z</time>
      </trkpt>
      <trkpt lat="45.10388" lon="5.92245">
        <ele>611.09</ele>
        <time>2018-09-09T08:28:49Z</time>
      </trkpt>
      <trkpt lat="45.10396" lon="5.9227">
        <ele>612.25</ele>
        <time>2018-09-09T08:28:50Z</time>
      </trkpt>
      <trkpt lat="45.10404" lon="5.92294">
        <ele>612.59</ele>
        <time>2018-09-09T08:28:51Z</time>
      </trkpt>
      <trkpt lat="45.10412" lon="5.9232">
        <ele>614.1</ele>
        <time>2018-09-09T08:28:52Z</time>
      </trkpt>
      <trkpt lat="45.10419" lon="5.92346">
        <ele>615.25</ele>
        <time>2018-09-09T08:28:53Z</time>
      </trkpt>
      <trkpt lat="45.10426" lon="5.92372">
        <ele>616.29</ele>
        <time>2018-09-09T08:28:54Z</time>
      </trkpt>
      <trkpt lat="45.10432" lon="5.92399">
        <ele>617.31</ele>
        <time>2018-09-09T08:28:55Z</time>
      </trkpt>
      <trkpt lat="45.10438" lon="5.92425">
        <ele>619.01</ele>
        <time>2018-09-09T08:28:56Z</time>
      </trkpt>
      <trkpt lat="45.10442" lon="5.92453">
        <ele>620.22</ele>
        <time>2018-09-09T08:28:57Z</time>
      </trkpt>
      <trkpt lat="45.10444" lon="5.92481">
        <ele>619.89</ele>
        <time>2018-09-09T08:28:58Z</time>
      </trkpt>
      <trkpt lat="45.10445" lon="5.92507">
        <ele>621.18</ele>
        <time>2018-09-09T08:28:59Z</time>
      </trkpt>
      <trkpt lat="45.10447" lon="5.92534">
        <ele>622.27</ele>
        <time>2018-09-09T08:29:00Z</time>
      </trkpt>
      <trkpt lat="45.10448" lon="5.92561">
        <ele>624</ele>
        <time>2018-09-09T08:29:01Z</time>
      </trkpt>
      <trkpt lat="45.10451" lon="5.92589">
        <ele>625.22</ele>
        <time>2018-09-09T08:29:02Z</time>
      </trkpt>
      <trkpt lat="45.10452" lon="5.92616">
        <ele>626.28</ele>
        <time>2018-09-09T08:29:03Z</time>
      </trkpt>
      <trkpt lat="45.10453" lon="5.92643">
        <ele>627.3</ele>
        <time>2018-09-09T08:29:04Z</time>
      </trkpt>
      <trkpt lat="45.10455" lon="5.9267">
        <ele>628.31</ele>
        <time>2018-09-09T08:29:05Z</time>
      </trkpt>
      <trkpt lat="45.10459" lon="5.92697">
        <ele>629.31</ele>
        <time>2018-09-09T08:29:06Z</time>
      </trkpt>
      <trkpt lat="45.10464" lon="5.92724">
        <ele>631.01</ele>
        <time>2018-09-09T08:29:07Z</time>
      </trkpt>
      <trkpt lat="45.1047" lon="5.92751">
        <ele>632.22</ele>
        <time>2018-09-09T08:29:08Z</time>
      </trkpt>
      <trkpt lat="45.10477" lon="5.92777">
        <ele>633.29</ele>
        <time>2018-09-09T08:29:09Z</time>
      </trkpt>
      <trkpt lat="45.10486" lon="5.92803">
        <ele>632.9</ele>
        <time>2018-09-09T08:29:10Z</time>
      </trkpt>
      <trkpt lat="45.10496" lon="5.92828">
        <ele>633.49</ele>
        <time>2018-09-09T08:29:11Z</time>
      </trkpt>
      <trkpt lat="45.10507" lon="5.92852">
        <ele>634.37</ele>
        <time>2018-09-09T08:29:12Z</time>
      </trkpt>
      <trkpt lat="45.10518" lon="5.92876">
        <ele>635.33</ele>
        <time>2018-09-09T08:29:13Z</time>
      </trkpt>
      <trkpt lat="45.10529" lon="5.929">
        <ele>635.62</ele>
        <time>2018-09-09T08:29:14Z</time>
      </trkpt>
      <trkpt lat="45.10541" lon="5.92924">
        <ele>636.4</ele>
        <time>2018-09-09T08:29:15Z</time>
      </trkpt>
      <trkpt lat="45.10552" lon="5.92948">
        <ele>635.94</ele>
        <time>2018-09-09T08:29:16Z</time>
      </trkpt>
      <trkpt lat="45.10564" lon="5.92972">
        <ele>635.8</ele>
        <time>2018-09-09T08:29:17Z</time>
      </trkpt>
      <trkpt lat="45.10575" lon="5.92995">
        <ele>635.76</ele>
        <time>2018-09-09T08:29:18Z</time>
      </trkpt>
      <trkpt lat="45.10586" lon="5.93018">
        <ele>635.75</ele>
        <time>2018-09-09T08:29:19Z</time>
      </trkpt>
      <trkpt lat="45.10597" lon="5.9304">
        <ele>635.74</ele>
        <time>2018-09-09T08:29:20Z</time>
      </trkpt>
      <trkpt lat="45.10607" lon="5.93062">
        <ele>635.74</ele>
        <time>2018-09-09T08:29:21Z</time>
      </trkpt>
      <trkpt lat="45.10618" lon="5.93084">
        <ele>636.44</ele>
        <time>2018-09-09T08:29:22Z</time>
      </trkpt>
      <trkpt lat="45.10627" lon="5.93108">
        <ele>636.65</ele>
        <time>2018-09-09T08:29:23Z</time>
      </trkpt>
      <trkpt lat="45.10634" lon="5.93132">
        <ele>636.01</ele>
        <time>2018-09-09T08:29:24Z</time>
      </trkpt>
      <trkpt lat="45.10639" lon="5.93158">
        <ele>635.12</ele>
        <time>2018-09-09T08:29:25Z</time>
      </trkpt>
      <trkpt lat="45.10643" lon="5.93183">
        <ele>635.56</ele>
        <time>2018-09-09T08:29:26Z</time>
      </trkpt>
      <trkpt lat="45.10647" lon="5.9321">
        <ele>636.39</ele>
        <time>2018-09-09T08:29:27Z</time>
      </trkpt>
      <trkpt lat="45.10649" lon="5.93237">
        <ele>636.63</ele>
        <time>2018-09-09T08:29:28Z</time>
      </trkpt>
      <trkpt lat="45.1065" lon="5.93265">
        <ele>636.71</ele>
        <time>2018-09-09T08:29:29Z</time>
      </trkpt>
      <trkpt lat="45.10649" lon="5.93292">
        <ele>636.73</ele>
        <time>2018-09-09T08:29:30Z</time>
      </trkpt>
      <trkpt lat="45.10649" lon="5.9332">
        <ele>637.44</ele>
        <time>2018-09-09T08:29:31Z</time>
      </trkpt>
      <trkpt lat="45.1065" lon="5.93348">
        <ele>637.65</ele>
        <time>2018-09-09T08:29:32Z</time>
      </trkpt>
      <trkpt lat="45.10652" lon="5.93375">
        <ele>637.71</ele>
        <time>2018-09-09T08:29:33Z</time>
      </trkpt>
      <trkpt lat="45.10656" lon="5.93402">
        <ele>637.73</ele>
        <time>2018-09-09T08:29:34Z</time>
      </trkpt>
      <trkpt lat="45.10661" lon="5.93428">
        <ele>637.74</ele>
        <time>2018-09-09T08:29:35Z</time>
      </trkpt>
      <trkpt lat="45.10666" lon="5.93453">
        <ele>637.74</ele>
        <time>2018-09-09T08:29:36Z</time>
      </trkpt>
      <trkpt lat="45.1068" lon="5.93475">
        <ele>637.04</ele>
        <time>2018-09-09T08:29:37Z</time>
      </trkpt>
      <trkpt lat="45.10691" lon="5.93497">
        <ele>637.53</ele>
        <time>2018-09-09T08:29:38Z</time>
      </trkpt>
      <trkpt lat="45.10707" lon="5.93518">
        <ele>638.38</ele>
        <time>2018-09-09T08:29:39Z</time>
      </trkpt>
      <trkpt lat="45.10732" lon="5.93558">
        <ele>640.32</ele>
        <time>2018-09-09T08:29:41Z</time>
      </trkpt>
      <trkpt lat="45.10743" lon="5.93578">
        <ele>641.31</ele>
        <time>2018-09-09T08:29:42Z</time>
      </trkpt>
      <trkpt lat="45.10763" lon="5.93621">
        <ele>644.22</ele>
        <time>2018-09-09T08:29:44Z</time>
      </trkpt>
      <trkpt lat="45.10772" lon="5.93645">
        <ele>644.59</ele>
        <time>2018-09-09T08:29:45Z</time>
      </trkpt>
      <trkpt lat="45.1078" lon="5.93668">
        <ele>645.39</ele>
        <time>2018-09-09T08:29:46Z</time>
      </trkpt>
      <trkpt lat="45.10788" lon="5.93692">
        <ele>646.34</ele>
        <time>2018-09-09T08:29:47Z</time>
      </trkpt>
      <trkpt lat="45.10796" lon="5.93717">
        <ele>647.32</ele>
        <time>2018-09-09T08:29:48Z</time>
      </trkpt>
      <trkpt lat="45.10805" lon="5.93742">
        <ele>647.61</ele>
        <time>2018-09-09T08:29:49Z</time>
      </trkpt>
      <trkpt lat="45.10813" lon="5.93767">
        <ele>647.7</ele>
        <time>2018-09-09T08:29:50Z</time>
      </trkpt>
      <trkpt lat="45.1082" lon="5.93793">
        <ele>648.43</ele>
        <time>2018-09-09T08:29:51Z</time>
      </trkpt>
      <trkpt lat="45.10829" lon="5.9382">
        <ele>648.65</ele>
        <time>2018-09-09T08:29:52Z</time>
      </trkpt>
      <trkpt lat="45.10837" lon="5.93846">
        <ele>650.11</ele>
        <time>2018-09-09T08:29:53Z</time>
      </trkpt>
      <trkpt lat="45.10846" lon="5.93873">
        <ele>650.55</ele>
        <time>2018-09-09T08:29:54Z</time>
      </trkpt>
      <trkpt lat="45.10855" lon="5.939">
        <ele>651.38</ele>
        <time>2018-09-09T08:29:55Z</time>
      </trkpt>
      <trkpt lat="45.10864" lon="5.93927">
        <ele>651.63</ele>
        <time>2018-09-09T08:29:56Z</time>
      </trkpt>
      <trkpt lat="45.10874" lon="5.93954">
        <ele>652.41</ele>
        <time>2018-09-09T08:29:57Z</time>
      </trkpt>
      <trkpt lat="45.10884" lon="5.93981">
        <ele>653.34</ele>
        <time>2018-09-09T08:29:58Z</time>
      </trkpt>
      <trkpt lat="45.10892" lon="5.94009">
        <ele>654.32</ele>
        <time>2018-09-09T08:29:59Z</time>
      </trkpt>
      <trkpt lat="45.10901" lon="5.94037">
        <ele>654.62</ele>
        <time>2018-09-09T08:30:00Z</time>
      </trkpt>
      <trkpt lat="45.1091" lon="5.94065">
        <ele>655.4</ele>
        <time>2018-09-09T08:30:01Z</time>
      </trkpt>
      <trkpt lat="45.10919" lon="5.94093">
        <ele>655.64</ele>
        <time>2018-09-09T08:30:02Z</time>
      </trkpt>
      <trkpt lat="45.10928" lon="5.94122">
        <ele>657.11</ele>
        <time>2018-09-09T08:30:03Z</time>
      </trkpt>
      <trkpt lat="45.10937" lon="5.94151">
        <ele>657.55</ele>
        <time>2018-09-09T08:30:04Z</time>
      </trkpt>
      <trkpt lat="45.10947" lon="5.94181">
        <ele>658.38</ele>
        <time>2018-09-09T08:30:05Z</time>
      </trkpt>
      <trkpt lat="45.10955" lon="5.9421">
        <ele>658.63</ele>
        <time>2018-09-09T08:30:06Z</time>
      </trkpt>
      <trkpt lat="45.10964" lon="5.9424">
        <ele>660.11</ele>
        <time>2018-09-09T08:30:07Z</time>
      </trkpt>
      <trkpt lat="45.10972" lon="5.9427">
        <ele>660.55</ele>
        <time>2018-09-09T08:30:08Z</time>
      </trkpt>
      <trkpt lat="45.1098" lon="5.94302">
        <ele>660.68</ele>
        <time>2018-09-09T08:30:09Z</time>
      </trkpt>
      <trkpt lat="45.10989" lon="5.94334">
        <ele>661.42</ele>
        <time>2018-09-09T08:30:10Z</time>
      </trkpt>
      <trkpt lat="45.10998" lon="5.94365">
        <ele>662.35</ele>
        <time>2018-09-09T08:30:11Z</time>
      </trkpt>
      <trkpt lat="45.11008" lon="5.94397">
        <ele>662.62</ele>
        <time>2018-09-09T08:30:12Z</time>
      </trkpt>
      <trkpt lat="45.11019" lon="5.94426">
        <ele>663.41</ele>
        <time>2018-09-09T08:30:13Z</time>
      </trkpt>
      <trkpt lat="45.1103" lon="5.94454">
        <ele>664.34</ele>
        <time>2018-09-09T08:30:14Z</time>
      </trkpt>
      <trkpt lat="45.11043" lon="5.94483">
        <ele>664.62</ele>
        <time>2018-09-09T08:30:15Z</time>
      </trkpt>
      <trkpt lat="45.11057" lon="5.9451">
        <ele>665.4</ele>
        <time>2018-09-09T08:30:16Z</time>
      </trkpt>
      <trkpt lat="45.11073" lon="5.94536">
        <ele>666.34</ele>
        <time>2018-09-09T08:30:17Z</time>
      </trkpt>
      <trkpt lat="45.11089" lon="5.94562">
        <ele>666.62</ele>
        <time>2018-09-09T08:30:18Z</time>
      </trkpt>
      <trkpt lat="45.11105" lon="5.94587">
        <ele>667.4</ele>
        <time>2018-09-09T08:30:19Z</time>
      </trkpt>
      <trkpt lat="45.11121" lon="5.94612">
        <ele>668.34</ele>
        <time>2018-09-09T08:30:20Z</time>
      </trkpt>
      <trkpt lat="45.11137" lon="5.94638">
        <ele>669.32</ele>
        <time>2018-09-09T08:30:21Z</time>
      </trkpt>
      <trkpt lat="45.11154" lon="5.94664">
        <ele>669.61</ele>
        <time>2018-09-09T08:30:22Z</time>
      </trkpt>
      <trkpt lat="45.1117" lon="5.9469">
        <ele>671.1</ele>
        <time>2018-09-09T08:30:23Z</time>
      </trkpt>
      <trkpt lat="45.11186" lon="5.94716">
        <ele>672.25</ele>
        <time>2018-09-09T08:30:24Z</time>
      </trkpt>
      <trkpt lat="45.11202" lon="5.94743">
        <ele>673.29</ele>
        <time>2018-09-09T08:30:25Z</time>
      </trkpt>
      <trkpt lat="45.11216" lon="5.9477">
        <ele>674.31</ele>
        <time>2018-09-09T08:30:26Z</time>
      </trkpt>
      <trkpt lat="45.1123" lon="5.94798">
        <ele>675.31</ele>
        <time>2018-09-09T08:30:27Z</time>
      </trkpt>
      <trkpt lat="45.11243" lon="5.94827">
        <ele>676.31</ele>
        <time>2018-09-09T08:30:28Z</time>
      </trkpt>
      <trkpt lat="45.11256" lon="5.94859">
        <ele>678.01</ele>
        <time>2018-09-09T08:30:29Z</time>
      </trkpt>
      <trkpt lat="45.11269" lon="5.94894">
        <ele>679.22</ele>
        <time>2018-09-09T08:30:30Z</time>
      </trkpt>
      <trkpt lat="45.1128" lon="5.94932">
        <ele>680.29</ele>
        <time>2018-09-09T08:30:31Z</time>
      </trkpt>
      <trkpt lat="45.11291" lon="5.9497">
        <ele>681.3</ele>
        <time>2018-09-09T08:30:32Z</time>
      </trkpt>
      <trkpt lat="45.113" lon="5.95006">
        <ele>682.31</ele>
        <time>2018-09-09T08:30:33Z</time>
      </trkpt>
      <trkpt lat="45.11307" lon="5.95042">
        <ele>684.01</ele>
        <time>2018-09-09T08:30:34Z</time>
      </trkpt>
      <trkpt lat="45.11313" lon="5.95079">
        <ele>685.22</ele>
        <time>2018-09-09T08:30:35Z</time>
      </trkpt>
      <trkpt lat="45.11319" lon="5.95115">
        <ele>686.29</ele>
        <time>2018-09-09T08:30:36Z</time>
      </trkpt>
      <trkpt lat="45.1132" lon="5.95147">
        <ele>687.3</ele>
        <time>2018-09-09T08:30:37Z</time>
      </trkpt>
      <trkpt lat="45.11322" lon="5.9518">
        <ele>688.31</ele>
        <time>2018-09-09T08:30:38Z</time>
      </trkpt>
      <trkpt lat="45.11323" lon="5.95212">
        <ele>689.31</ele>
        <time>2018-09-09T08:30:39Z</time>
      </trkpt>
      <trkpt lat="45.11326" lon="5.95243">
        <ele>690.31</ele>
        <time>2018-09-09T08:30:40Z</time>
      </trkpt>
      <trkpt lat="45.11328" lon="5.95272">
        <ele>691.31</ele>
        <time>2018-09-09T08:30:41Z</time>
      </trkpt>
      <trkpt lat="45.1133" lon="5.953">
        <ele>692.31</ele>
        <time>2018-09-09T08:30:42Z</time>
      </trkpt>
      <trkpt lat="45.11333" lon="5.95327">
        <ele>693.31</ele>
        <time>2018-09-09T08:30:43Z</time>
      </trkpt>
      <trkpt lat="45.11336" lon="5.95354">
        <ele>694.31</ele>
        <time>2018-09-09T08:30:44Z</time>
      </trkpt>
      <trkpt lat="45.11339" lon="5.95381">
        <ele>695.31</ele>
        <time>2018-09-09T08:30:45Z</time>
      </trkpt>
      <trkpt lat="45.11341" lon="5.95406">
        <ele>696.31</ele>
        <time>2018-09-09T08:30:46Z</time>
      </trkpt>
      <trkpt lat="45.11343" lon="5.95432">
        <ele>696.61</ele>
        <time>2018-09-09T08:30:47Z</time>
      </trkpt>
      <trkpt lat="45.11348" lon="5.95482">
        <ele>697.64</ele>
        <time>2018-09-09T08:30:49Z</time>
      </trkpt>
      <trkpt lat="45.11352" lon="5.95532">
        <ele>699.34</ele>
        <time>2018-09-09T08:30:51Z</time>
      </trkpt>
      <trkpt lat="45.11356" lon="5.95582">
        <ele>700.62</ele>
        <time>2018-09-09T08:30:53Z</time>
      </trkpt>
      <trkpt lat="45.11359" lon="5.95608">
        <ele>701.4</ele>
        <time>2018-09-09T08:30:54Z</time>
      </trkpt>
      <trkpt lat="45.11363" lon="5.95633">
        <ele>701.64</ele>
        <time>2018-09-09T08:30:55Z</time>
      </trkpt>
      <trkpt lat="45.11377" lon="5.95679">
        <ele>701.73</ele>
        <time>2018-09-09T08:30:57Z</time>
      </trkpt>
      <trkpt lat="45.11397" lon="5.95715">
        <ele>702.44</ele>
        <time>2018-09-09T08:30:59Z</time>
      </trkpt>
      <trkpt lat="45.11415" lon="5.9575">
        <ele>703.41</ele>
        <time>2018-09-09T08:31:01Z</time>
      </trkpt>
      <trkpt lat="45.11419" lon="5.95788">
        <ele>703.71</ele>
        <time>2018-09-09T08:31:03Z</time>
      </trkpt>
      <trkpt lat="45.11415" lon="5.95828">
        <ele>703.95</ele>
        <time>2018-09-09T08:31:05Z</time>
      </trkpt>
      <trkpt lat="45.11391" lon="5.95855">
        <ele>703.76</ele>
        <time>2018-09-09T08:31:07Z</time>
      </trkpt>
      <trkpt lat="45.11376" lon="5.95885">
        <ele>703.95</ele>
        <time>2018-09-09T08:31:09Z</time>
      </trkpt>
      <trkpt lat="45.11381" lon="5.95925">
        <ele>703.06</ele>
        <time>2018-09-09T08:31:11Z</time>
      </trkpt>
      <trkpt lat="45.11411" lon="5.9596">
        <ele>703.26</ele>
        <time>2018-09-09T08:31:13Z</time>
      </trkpt>
      <trkpt lat="45.11428" lon="5.95979">
        <ele>702.9</ele>
        <time>2018-09-09T08:31:14Z</time>
      </trkpt>
      <trkpt lat="45.11442" lon="5.95999">
        <ele>702.79</ele>
        <time>2018-09-09T08:31:15Z</time>
      </trkpt>
      <trkpt lat="45.11456" lon="5.9602">
        <ele>702.76</ele>
        <time>2018-09-09T08:31:16Z</time>
      </trkpt>
      <trkpt lat="45.11472" lon="5.96041">
        <ele>703.45</ele>
        <time>2018-09-09T08:31:17Z</time>
      </trkpt>
      <trkpt lat="45.11487" lon="5.96062">
        <ele>703.65</ele>
        <time>2018-09-09T08:31:18Z</time>
      </trkpt>
      <trkpt lat="45.11502" lon="5.96082">
        <ele>703.01</ele>
        <time>2018-09-09T08:31:19Z</time>
      </trkpt>
      <trkpt lat="45.11518" lon="5.96103">
        <ele>702.12</ele>
        <time>2018-09-09T08:31:20Z</time>
      </trkpt>
      <trkpt lat="45.11534" lon="5.96123">
        <ele>701.16</ele>
        <time>2018-09-09T08:31:21Z</time>
      </trkpt>
      <trkpt lat="45.1155" lon="5.96143">
        <ele>701.57</ele>
        <time>2018-09-09T08:31:22Z</time>
      </trkpt>
      <trkpt lat="45.11564" lon="5.96164">
        <ele>700.99</ele>
        <time>2018-09-09T08:31:23Z</time>
      </trkpt>
      <trkpt lat="45.11578" lon="5.96185">
        <ele>700.82</ele>
        <time>2018-09-09T08:31:24Z</time>
      </trkpt>
      <trkpt lat="45.11593" lon="5.96206">
        <ele>700.76</ele>
        <time>2018-09-09T08:31:25Z</time>
      </trkpt>
      <trkpt lat="45.11609" lon="5.96227">
        <ele>700.75</ele>
        <time>2018-09-09T08:31:26Z</time>
      </trkpt>
      <trkpt lat="45.11622" lon="5.96249">
        <ele>700.74</ele>
        <time>2018-09-09T08:31:27Z</time>
      </trkpt>
      <trkpt lat="45.11632" lon="5.96273">
        <ele>700.74</ele>
        <time>2018-09-09T08:31:28Z</time>
      </trkpt>
      <trkpt lat="45.1164" lon="5.963">
        <ele>700.74</ele>
        <time>2018-09-09T08:31:29Z</time>
      </trkpt>
      <trkpt lat="45.11644" lon="5.96328">
        <ele>701.44</ele>
        <time>2018-09-09T08:31:30Z</time>
      </trkpt>
      <trkpt lat="45.11647" lon="5.96357">
        <ele>700.95</ele>
        <time>2018-09-09T08:31:31Z</time>
      </trkpt>
      <trkpt lat="45.11648" lon="5.96385">
        <ele>701.5</ele>
        <time>2018-09-09T08:31:32Z</time>
      </trkpt>
      <trkpt lat="45.11647" lon="5.96413">
        <ele>701.67</ele>
        <time>2018-09-09T08:31:33Z</time>
      </trkpt>
      <trkpt lat="45.11647" lon="5.96441">
        <ele>702.42</ele>
        <time>2018-09-09T08:31:34Z</time>
      </trkpt>
      <trkpt lat="45.11646" lon="5.9647">
        <ele>702.64</ele>
        <time>2018-09-09T08:31:35Z</time>
      </trkpt>
      <trkpt lat="45.11647" lon="5.96498">
        <ele>702.71</ele>
        <time>2018-09-09T08:31:36Z</time>
      </trkpt>
      <trkpt lat="45.11645" lon="5.96526">
        <ele>702.73</ele>
        <time>2018-09-09T08:31:37Z</time>
      </trkpt>
      <trkpt lat="45.11645" lon="5.96555">
        <ele>702.74</ele>
        <time>2018-09-09T08:31:38Z</time>
      </trkpt>
      <trkpt lat="45.11645" lon="5.96585">
        <ele>703.44</ele>
        <time>2018-09-09T08:31:39Z</time>
      </trkpt>
      <trkpt lat="45.11644" lon="5.96615">
        <ele>703.65</ele>
        <time>2018-09-09T08:31:40Z</time>
      </trkpt>
      <trkpt lat="45.11644" lon="5.96645">
        <ele>703.71</ele>
        <time>2018-09-09T08:31:41Z</time>
      </trkpt>
      <trkpt lat="45.11642" lon="5.96675">
        <ele>704.43</ele>
        <time>2018-09-09T08:31:42Z</time>
      </trkpt>
      <trkpt lat="45.11643" lon="5.96706">
        <ele>703.95</ele>
        <time>2018-09-09T08:31:43Z</time>
      </trkpt>
      <trkpt lat="45.11643" lon="5.96737">
        <ele>703.8</ele>
        <time>2018-09-09T08:31:44Z</time>
      </trkpt>
      <trkpt lat="45.11643" lon="5.96767">
        <ele>703.76</ele>
        <time>2018-09-09T08:31:45Z</time>
      </trkpt>
      <trkpt lat="45.11644" lon="5.96797">
        <ele>703.75</ele>
        <time>2018-09-09T08:31:46Z</time>
      </trkpt>
      <trkpt lat="45.1165" lon="5.96827">
        <ele>703.04</ele>
        <time>2018-09-09T08:31:47Z</time>
      </trkpt>
      <trkpt lat="45.11654" lon="5.96855">
        <ele>703.53</ele>
        <time>2018-09-09T08:31:48Z</time>
      </trkpt>
      <trkpt lat="45.11659" lon="5.96883">
        <ele>702.98</ele>
        <time>2018-09-09T08:31:49Z</time>
      </trkpt>
      <trkpt lat="45.11681" lon="5.96906">
        <ele>702.81</ele>
        <time>2018-09-09T08:31:50Z</time>
      </trkpt>
      <trkpt lat="45.11694" lon="5.96931">
        <ele>702.06</ele>
        <time>2018-09-09T08:31:51Z</time>
      </trkpt>
      <trkpt lat="45.11708" lon="5.96955">
        <ele>701.14</ele>
        <time>2018-09-09T08:31:52Z</time>
      </trkpt>
      <trkpt lat="45.11721" lon="5.9698">
        <ele>700.16</ele>
        <time>2018-09-09T08:31:53Z</time>
      </trkpt>
      <trkpt lat="45.11732" lon="5.97005">
        <ele>699.87</ele>
        <time>2018-09-09T08:31:54Z</time>
      </trkpt>
      <trkpt lat="45.11744" lon="5.97029">
        <ele>700.48</ele>
        <time>2018-09-09T08:31:55Z</time>
      </trkpt>
      <trkpt lat="45.11757" lon="5.97054">
        <ele>699.96</ele>
        <time>2018-09-09T08:31:56Z</time>
      </trkpt>
      <trkpt lat="45.11768" lon="5.97079">
        <ele>700.51</ele>
        <time>2018-09-09T08:31:57Z</time>
      </trkpt>
      <trkpt lat="45.1178" lon="5.97103">
        <ele>700.67</ele>
        <time>2018-09-09T08:31:58Z</time>
      </trkpt>
      <trkpt lat="45.1179" lon="5.97129">
        <ele>701.42</ele>
        <time>2018-09-09T08:31:59Z</time>
      </trkpt>
      <trkpt lat="45.11798" lon="5.97156">
        <ele>701.64</ele>
        <time>2018-09-09T08:32:00Z</time>
      </trkpt>
      <trkpt lat="45.11805" lon="5.97184">
        <ele>701.71</ele>
        <time>2018-09-09T08:32:01Z</time>
      </trkpt>
      <trkpt lat="45.11812" lon="5.97211">
        <ele>702.43</ele>
        <time>2018-09-09T08:32:02Z</time>
      </trkpt>
      <trkpt lat="45.11818" lon="5.97243">
        <ele>703.35</ele>
        <time>2018-09-09T08:32:03Z</time>
      </trkpt>
      <trkpt lat="45.11819" lon="5.97277">
        <ele>701.52</ele>
        <time>2018-09-09T08:32:04Z</time>
      </trkpt>
      <trkpt lat="45.11819" lon="5.97308">
        <ele>700.28</ele>
        <time>2018-09-09T08:32:05Z</time>
      </trkpt>
      <trkpt lat="45.11815" lon="5.97338">
        <ele>700.6</ele>
        <time>2018-09-09T08:32:06Z</time>
      </trkpt>
      <trkpt lat="45.1181" lon="5.97365">
        <ele>700</ele>
        <time>2018-09-09T08:32:07Z</time>
      </trkpt>
      <trkpt lat="45.11805" lon="5.97395">
        <ele>699.12</ele>
        <time>2018-09-09T08:32:08Z</time>
      </trkpt>
      <trkpt lat="45.11801" lon="5.97425">
        <ele>699.55</ele>
        <time>2018-09-09T08:32:09Z</time>
      </trkpt>
      <trkpt lat="45.11797" lon="5.97454">
        <ele>699.68</ele>
        <time>2018-09-09T08:32:10Z</time>
      </trkpt>
      <trkpt lat="45.11793" lon="5.97483">
        <ele>699.02</ele>
        <time>2018-09-09T08:32:11Z</time>
      </trkpt>
      <trkpt lat="45.1179" lon="5.97514">
        <ele>700.23</ele>
        <time>2018-09-09T08:32:12Z</time>
      </trkpt>
      <trkpt lat="45.11786" lon="5.97544">
        <ele>700.59</ele>
        <time>2018-09-09T08:32:13Z</time>
      </trkpt>
      <trkpt lat="45.11783" lon="5.97575">
        <ele>700.69</ele>
        <time>2018-09-09T08:32:14Z</time>
      </trkpt>
      <trkpt lat="45.11779" lon="5.97606">
        <ele>700.73</ele>
        <time>2018-09-09T08:32:15Z</time>
      </trkpt>
      <trkpt lat="45.11775" lon="5.97637">
        <ele>700.74</ele>
        <time>2018-09-09T08:32:16Z</time>
      </trkpt>
      <trkpt lat="45.11771" lon="5.97668">
        <ele>700.04</ele>
        <time>2018-09-09T08:32:17Z</time>
      </trkpt>
      <trkpt lat="45.11768" lon="5.97698">
        <ele>699.83</ele>
        <time>2018-09-09T08:32:18Z</time>
      </trkpt>
      <trkpt lat="45.11765" lon="5.9773">
        <ele>699.77</ele>
        <time>2018-09-09T08:32:19Z</time>
      </trkpt>
      <trkpt lat="45.11762" lon="5.97761">
        <ele>699.75</ele>
        <time>2018-09-09T08:32:20Z</time>
      </trkpt>
      <trkpt lat="45.11758" lon="5.97792">
        <ele>699.74</ele>
        <time>2018-09-09T08:32:21Z</time>
      </trkpt>
      <trkpt lat="45.11755" lon="5.97823">
        <ele>700.44</ele>
        <time>2018-09-09T08:32:22Z</time>
      </trkpt>
      <trkpt lat="45.11751" lon="5.97855">
        <ele>701.35</ele>
        <time>2018-09-09T08:32:23Z</time>
      </trkpt>
      <trkpt lat="45.11747" lon="5.97886">
        <ele>701.62</ele>
        <time>2018-09-09T08:32:24Z</time>
      </trkpt>
      <trkpt lat="45.11743" lon="5.97917">
        <ele>701.71</ele>
        <time>2018-09-09T08:32:25Z</time>
      </trkpt>
      <trkpt lat="45.1174" lon="5.97947">
        <ele>702.43</ele>
        <time>2018-09-09T08:32:26Z</time>
      </trkpt>
      <trkpt lat="45.11737" lon="5.97979">
        <ele>702.65</ele>
        <time>2018-09-09T08:32:27Z</time>
      </trkpt>
      <trkpt lat="45.11733" lon="5.9801">
        <ele>702.01</ele>
        <time>2018-09-09T08:32:28Z</time>
      </trkpt>
      <trkpt lat="45.1173" lon="5.98041">
        <ele>702.52</ele>
        <time>2018-09-09T08:32:29Z</time>
      </trkpt>
      <trkpt lat="45.11726" lon="5.98072">
        <ele>701.28</ele>
        <time>2018-09-09T08:32:30Z</time>
      </trkpt>
      <trkpt lat="45.11722" lon="5.98102">
        <ele>700.2</ele>
        <time>2018-09-09T08:32:31Z</time>
      </trkpt>
      <trkpt lat="45.11719" lon="5.98133">
        <ele>699.18</ele>
        <time>2018-09-09T08:32:32Z</time>
      </trkpt>
      <trkpt lat="45.11715" lon="5.98164">
        <ele>698.87</ele>
        <time>2018-09-09T08:32:33Z</time>
      </trkpt>
      <trkpt lat="45.11711" lon="5.98195">
        <ele>698.78</ele>
        <time>2018-09-09T08:32:34Z</time>
      </trkpt>
      <trkpt lat="45.11707" lon="5.98226">
        <ele>698.75</ele>
        <time>2018-09-09T08:32:35Z</time>
      </trkpt>
      <trkpt lat="45.11703" lon="5.98257">
        <ele>698.74</ele>
        <time>2018-09-09T08:32:36Z</time>
      </trkpt>
      <trkpt lat="45.11699" lon="5.98288">
        <ele>698.74</ele>
        <time>2018-09-09T08:32:37Z</time>
      </trkpt>
      <trkpt lat="45.11695" lon="5.9832">
        <ele>698.74</ele>
        <time>2018-09-09T08:32:38Z</time>
      </trkpt>
      <trkpt lat="45.11691" lon="5.98352">
        <ele>698.74</ele>
        <time>2018-09-09T08:32:39Z</time>
      </trkpt>
      <trkpt lat="45.11687" lon="5.98384">
        <ele>699.44</ele>
        <time>2018-09-09T08:32:40Z</time>
      </trkpt>
      <trkpt lat="45.11685" lon="5.98416">
        <ele>700.35</ele>
        <time>2018-09-09T08:32:41Z</time>
      </trkpt>
      <trkpt lat="45.11681" lon="5.98449">
        <ele>699.92</ele>
        <time>2018-09-09T08:32:42Z</time>
      </trkpt>
      <trkpt lat="45.11678" lon="5.9848">
        <ele>700.5</ele>
        <time>2018-09-09T08:32:43Z</time>
      </trkpt>
      <trkpt lat="45.11675" lon="5.98512">
        <ele>702.07</ele>
        <time>2018-09-09T08:32:44Z</time>
      </trkpt>
      <trkpt lat="45.11672" lon="5.98544">
        <ele>702.54</ele>
        <time>2018-09-09T08:32:45Z</time>
      </trkpt>
      <trkpt lat="45.11668" lon="5.98575">
        <ele>702.68</ele>
        <time>2018-09-09T08:32:46Z</time>
      </trkpt>
      <trkpt lat="45.11665" lon="5.98606">
        <ele>702.72</ele>
        <time>2018-09-09T08:32:47Z</time>
      </trkpt>
      <trkpt lat="45.11661" lon="5.98637">
        <ele>702.74</ele>
        <time>2018-09-09T08:32:48Z</time>
      </trkpt>
      <trkpt lat="45.11656" lon="5.98667">
        <ele>702.74</ele>
        <time>2018-09-09T08:32:49Z</time>
      </trkpt>
      <trkpt lat="45.11653" lon="5.98697">
        <ele>703.44</ele>
        <time>2018-09-09T08:32:50Z</time>
      </trkpt>
      <trkpt lat="45.1165" lon="5.98728">
        <ele>703.65</ele>
        <time>2018-09-09T08:32:51Z</time>
      </trkpt>
      <trkpt lat="45.11646" lon="5.9876">
        <ele>703.71</ele>
        <time>2018-09-09T08:32:52Z</time>
      </trkpt>
      <trkpt lat="45.11643" lon="5.98789">
        <ele>703.73</ele>
        <time>2018-09-09T08:32:53Z</time>
      </trkpt>
      <trkpt lat="45.11639" lon="5.98821">
        <ele>703.74</ele>
        <time>2018-09-09T08:32:54Z</time>
      </trkpt>
      <trkpt lat="45.11635" lon="5.98851">
        <ele>703.04</ele>
        <time>2018-09-09T08:32:55Z</time>
      </trkpt>
      <trkpt lat="45.11631" lon="5.98882">
        <ele>702.83</ele>
        <time>2018-09-09T08:32:56Z</time>
      </trkpt>
      <trkpt lat="45.11627" lon="5.98912">
        <ele>702.77</ele>
        <time>2018-09-09T08:32:57Z</time>
      </trkpt>
      <trkpt lat="45.11623" lon="5.98943">
        <ele>702.75</ele>
        <time>2018-09-09T08:32:58Z</time>
      </trkpt>
      <trkpt lat="45.1162" lon="5.98974">
        <ele>703.44</ele>
        <time>2018-09-09T08:32:59Z</time>
      </trkpt>
      <trkpt lat="45.11616" lon="5.99005">
        <ele>703.65</ele>
        <time>2018-09-09T08:33:00Z</time>
      </trkpt>
      <trkpt lat="45.11613" lon="5.99037">
        <ele>703.71</ele>
        <time>2018-09-09T08:33:01Z</time>
      </trkpt>
      <trkpt lat="45.11609" lon="5.99068">
        <ele>703.73</ele>
        <time>2018-09-09T08:33:02Z</time>
      </trkpt>
      <trkpt lat="45.11606" lon="5.991">
        <ele>703.74</ele>
        <time>2018-09-09T08:33:03Z</time>
      </trkpt>
      <trkpt lat="45.11602" lon="5.99131">
        <ele>703.74</ele>
        <time>2018-09-09T08:33:04Z</time>
      </trkpt>
      <trkpt lat="45.11599" lon="5.99162">
        <ele>704.44</ele>
        <time>2018-09-09T08:33:05Z</time>
      </trkpt>
      <trkpt lat="45.11595" lon="5.99193">
        <ele>704.65</ele>
        <time>2018-09-09T08:33:06Z</time>
      </trkpt>
      <trkpt lat="45.11592" lon="5.99224">
        <ele>704.71</ele>
        <time>2018-09-09T08:33:07Z</time>
      </trkpt>
      <trkpt lat="45.11588" lon="5.99255">
        <ele>704.73</ele>
        <time>2018-09-09T08:33:08Z</time>
      </trkpt>
      <trkpt lat="45.11585" lon="5.99285">
        <ele>704.04</ele>
        <time>2018-09-09T08:33:09Z</time>
      </trkpt>
      <trkpt lat="45.11581" lon="5.99316">
        <ele>703.83</ele>
        <time>2018-09-09T08:33:10Z</time>
      </trkpt>
      <trkpt lat="45.11577" lon="5.99346">
        <ele>703.77</ele>
        <time>2018-09-09T08:33:11Z</time>
      </trkpt>
      <trkpt lat="45.11574" lon="5.99377">
        <ele>703.75</ele>
        <time>2018-09-09T08:33:12Z</time>
      </trkpt>
      <trkpt lat="45.1157" lon="5.99408">
        <ele>703.74</ele>
        <time>2018-09-09T08:33:13Z</time>
      </trkpt>
      <trkpt lat="45.11566" lon="5.99439">
        <ele>703.74</ele>
        <time>2018-09-09T08:33:14Z</time>
      </trkpt>
      <trkpt lat="45.11563" lon="5.9947">
        <ele>703.74</ele>
        <time>2018-09-09T08:33:15Z</time>
      </trkpt>
      <trkpt lat="45.11559" lon="5.995">
        <ele>704.44</ele>
        <time>2018-09-09T08:33:16Z</time>
      </trkpt>
      <trkpt lat="45.11555" lon="5.99531">
        <ele>704.65</ele>
        <time>2018-09-09T08:33:17Z</time>
      </trkpt>
      <trkpt lat="45.11552" lon="5.99562">
        <ele>705.41</ele>
        <time>2018-09-09T08:33:18Z</time>
      </trkpt>
      <trkpt lat="45.11548" lon="5.99593">
        <ele>705.64</ele>
        <time>2018-09-09T08:33:19Z</time>
      </trkpt>
      <trkpt lat="45.11545" lon="5.99624">
        <ele>705.71</ele>
        <time>2018-09-09T08:33:20Z</time>
      </trkpt>
      <trkpt lat="45.11542" lon="5.99655">
        <ele>706.43</ele>
        <time>2018-09-09T08:33:21Z</time>
      </trkpt>
      <trkpt lat="45.11538" lon="5.99685">
        <ele>705.95</ele>
        <time>2018-09-09T08:33:22Z</time>
      </trkpt>
      <trkpt lat="45.11534" lon="5.99715">
        <ele>706.5</ele>
        <time>2018-09-09T08:33:23Z</time>
      </trkpt>
      <trkpt lat="45.11531" lon="5.99744">
        <ele>705.97</ele>
        <time>2018-09-09T08:33:24Z</time>
      </trkpt>
      <trkpt lat="45.11527" lon="5.99773">
        <ele>705.81</ele>
        <time>2018-09-09T08:33:25Z</time>
      </trkpt>
      <trkpt lat="45.11524" lon="5.99802">
        <ele>705.76</ele>
        <time>2018-09-09T08:33:26Z</time>
      </trkpt>
      <trkpt lat="45.1152" lon="5.99831">
        <ele>705.75</ele>
        <time>2018-09-09T08:33:27Z</time>
      </trkpt>
      <trkpt lat="45.11516" lon="5.99861">
        <ele>705.74</ele>
        <time>2018-09-09T08:33:28Z</time>
      </trkpt>
      <trkpt lat="45.11513" lon="5.9989">
        <ele>705.74</ele>
        <time>2018-09-09T08:33:29Z</time>
      </trkpt>
      <trkpt lat="45.1151" lon="5.9992">
        <ele>705.74</ele>
        <time>2018-09-09T08:33:30Z</time>
      </trkpt>
      <trkpt lat="45.11506" lon="5.99949">
        <ele>705.04</ele>
        <time>2018-09-09T08:33:31Z</time>
      </trkpt>
      <trkpt lat="45.11503" lon="5.99979">
        <ele>704.83</ele>
        <time>2018-09-09T08:33:32Z</time>
      </trkpt>
      <trkpt lat="45.11499" lon="6.00009">
        <ele>704.77</ele>
        <time>2018-09-09T08:33:33Z</time>
      </trkpt>
      <trkpt lat="45.11496" lon="6.00038">
        <ele>705.45</ele>
        <time>2018-09-09T08:33:34Z</time>
      </trkpt>
      <trkpt lat="45.11492" lon="6.00066">
        <ele>705.65</ele>
        <time>2018-09-09T08:33:35Z</time>
      </trkpt>
      <trkpt lat="45.11489" lon="6.00094">
        <ele>705.71</ele>
        <time>2018-09-09T08:33:36Z</time>
      </trkpt>
      <trkpt lat="45.11486" lon="6.00122">
        <ele>705.73</ele>
        <time>2018-09-09T08:33:37Z</time>
      </trkpt>
      <trkpt lat="45.11482" lon="6.0015">
        <ele>705.74</ele>
        <time>2018-09-09T08:33:38Z</time>
      </trkpt>
      <trkpt lat="45.11479" lon="6.00178">
        <ele>705.74</ele>
        <time>2018-09-09T08:33:39Z</time>
      </trkpt>
      <trkpt lat="45.11475" lon="6.00206">
        <ele>705.74</ele>
        <time>2018-09-09T08:33:40Z</time>
      </trkpt>
      <trkpt lat="45.11472" lon="6.00232">
        <ele>705.74</ele>
        <time>2018-09-09T08:33:41Z</time>
      </trkpt>
      <trkpt lat="45.11469" lon="6.0026">
        <ele>705.74</ele>
        <time>2018-09-09T08:33:42Z</time>
      </trkpt>
      <trkpt lat="45.11466" lon="6.00287">
        <ele>705.74</ele>
        <time>2018-09-09T08:33:43Z</time>
      </trkpt>
      <trkpt lat="45.11464" lon="6.00314">
        <ele>706.44</ele>
        <time>2018-09-09T08:33:44Z</time>
      </trkpt>
      <trkpt lat="45.11462" lon="6.0034">
        <ele>706.65</ele>
        <time>2018-09-09T08:33:45Z</time>
      </trkpt>
      <trkpt lat="45.11461" lon="6.00366">
        <ele>706.71</ele>
        <time>2018-09-09T08:33:46Z</time>
      </trkpt>
      <trkpt lat="45.11462" lon="6.00392">
        <ele>706.73</ele>
        <time>2018-09-09T08:33:47Z</time>
      </trkpt>
      <trkpt lat="45.11462" lon="6.00439">
        <ele>706.53</ele>
        <time>2018-09-09T08:33:49Z</time>
      </trkpt>
      <trkpt lat="45.11458" lon="6.00481">
        <ele>706.72</ele>
        <time>2018-09-09T08:33:51Z</time>
      </trkpt>
      <trkpt lat="45.11447" lon="6.00515">
        <ele>705.34</ele>
        <time>2018-09-09T08:33:53Z</time>
      </trkpt>
      <trkpt lat="45.11435" lon="6.00542">
        <ele>705.7</ele>
        <time>2018-09-09T08:33:55Z</time>
      </trkpt>
      <trkpt lat="45.11422" lon="6.00567">
        <ele>705.68</ele>
        <time>2018-09-09T08:33:58Z</time>
      </trkpt>
      <trkpt lat="45.11431" lon="6.00596">
        <ele>705.04</ele>
        <time>2018-09-09T08:34:01Z</time>
      </trkpt>
      <trkpt lat="45.1144" lon="6.00624">
        <ele>704.77</ele>
        <time>2018-09-09T08:34:03Z</time>
      </trkpt>
      <trkpt lat="45.11444" lon="6.00665">
        <ele>704.95</ele>
        <time>2018-09-09T08:34:05Z</time>
      </trkpt>
      <trkpt lat="45.11448" lon="6.00707">
        <ele>705.67</ele>
        <time>2018-09-09T08:34:07Z</time>
      </trkpt>
      <trkpt lat="45.11451" lon="6.00753">
        <ele>706.64</ele>
        <time>2018-09-09T08:34:09Z</time>
      </trkpt>
      <trkpt lat="45.11456" lon="6.00803">
        <ele>707.64</ele>
        <time>2018-09-09T08:34:11Z</time>
      </trkpt>
      <trkpt lat="45.11459" lon="6.0083">
        <ele>707.71</ele>
        <time>2018-09-09T08:34:12Z</time>
      </trkpt>
      <trkpt lat="45.11461" lon="6.00856">
        <ele>707.73</ele>
        <time>2018-09-09T08:34:13Z</time>
      </trkpt>
      <trkpt lat="45.11463" lon="6.00883">
        <ele>707.74</ele>
        <time>2018-09-09T08:34:14Z</time>
      </trkpt>
      <trkpt lat="45.11466" lon="6.0091">
        <ele>707.74</ele>
        <time>2018-09-09T08:34:15Z</time>
      </trkpt>
      <trkpt lat="45.11468" lon="6.00938">
        <ele>707.74</ele>
        <time>2018-09-09T08:34:16Z</time>
      </trkpt>
      <trkpt lat="45.11471" lon="6.00965">
        <ele>707.74</ele>
        <time>2018-09-09T08:34:17Z</time>
      </trkpt>
      <trkpt lat="45.11474" lon="6.00993">
        <ele>707.74</ele>
        <time>2018-09-09T08:34:18Z</time>
      </trkpt>
      <trkpt lat="45.11477" lon="6.0102">
        <ele>708.44</ele>
        <time>2018-09-09T08:34:19Z</time>
      </trkpt>
      <trkpt lat="45.11481" lon="6.01047">
        <ele>708.65</ele>
        <time>2018-09-09T08:34:20Z</time>
      </trkpt>
      <trkpt lat="45.11483" lon="6.01074">
        <ele>708.71</ele>
        <time>2018-09-09T08:34:21Z</time>
      </trkpt>
      <trkpt lat="45.11486" lon="6.01101">
        <ele>709.43</ele>
        <time>2018-09-09T08:34:22Z</time>
      </trkpt>
      <trkpt lat="45.11489" lon="6.01128">
        <ele>709.65</ele>
        <time>2018-09-09T08:34:23Z</time>
      </trkpt>
      <trkpt lat="45.11491" lon="6.01155">
        <ele>710.41</ele>
        <time>2018-09-09T08:34:24Z</time>
      </trkpt>
      <trkpt lat="45.11494" lon="6.01182">
        <ele>710.64</ele>
        <time>2018-09-09T08:34:25Z</time>
      </trkpt>
      <trkpt lat="45.11499" lon="6.01208">
        <ele>710.71</ele>
        <time>2018-09-09T08:34:26Z</time>
      </trkpt>
      <trkpt lat="45.11504" lon="6.01235">
        <ele>710.73</ele>
        <time>2018-09-09T08:34:27Z</time>
      </trkpt>
      <trkpt lat="45.11512" lon="6.01258">
        <ele>710.74</ele>
        <time>2018-09-09T08:34:28Z</time>
      </trkpt>
      <trkpt lat="45.11522" lon="6.0128">
        <ele>710.74</ele>
        <time>2018-09-09T08:34:29Z</time>
      </trkpt>
      <trkpt lat="45.11537" lon="6.01295">
        <ele>710.74</ele>
        <time>2018-09-09T08:34:30Z</time>
      </trkpt>
      <trkpt lat="45.11552" lon="6.01311">
        <ele>710.74</ele>
        <time>2018-09-09T08:34:31Z</time>
      </trkpt>
      <trkpt lat="45.11578" lon="6.01339">
        <ele>711.65</ele>
        <time>2018-09-09T08:34:33Z</time>
      </trkpt>
      <trkpt lat="45.11604" lon="6.01365">
        <ele>710.12</ele>
        <time>2018-09-09T08:34:35Z</time>
      </trkpt>
      <trkpt lat="45.1163" lon="6.01393">
        <ele>709.78</ele>
        <time>2018-09-09T08:34:37Z</time>
      </trkpt>
      <trkpt lat="45.11656" lon="6.01421">
        <ele>708.83</ele>
        <time>2018-09-09T08:34:39Z</time>
      </trkpt>
      <trkpt lat="45.11681" lon="6.01448">
        <ele>707.14</ele>
        <time>2018-09-09T08:34:41Z</time>
      </trkpt>
      <trkpt lat="45.11701" lon="6.01473">
        <ele>706.78</ele>
        <time>2018-09-09T08:34:43Z</time>
      </trkpt>
      <trkpt lat="45.11708" lon="6.01499">
        <ele>705.83</ele>
        <time>2018-09-09T08:34:45Z</time>
      </trkpt>
      <trkpt lat="45.11698" lon="6.01523">
        <ele>705.75</ele>
        <time>2018-09-09T08:34:47Z</time>
      </trkpt>
      <trkpt lat="45.11677" lon="6.01548">
        <ele>705.53</ele>
        <time>2018-09-09T08:34:49Z</time>
      </trkpt>
      <trkpt lat="45.11652" lon="6.01578">
        <ele>706.63</ele>
        <time>2018-09-09T08:34:51Z</time>
      </trkpt>
      <trkpt lat="45.11624" lon="6.01611">
        <ele>706.73</ele>
        <time>2018-09-09T08:34:53Z</time>
      </trkpt>
      <trkpt lat="45.1161" lon="6.01629">
        <ele>706.74</ele>
        <time>2018-09-09T08:34:54Z</time>
      </trkpt>
      <trkpt lat="45.11598" lon="6.01649">
        <ele>706.04</ele>
        <time>2018-09-09T08:34:55Z</time>
      </trkpt>
      <trkpt lat="45.11588" lon="6.01673">
        <ele>705.83</ele>
        <time>2018-09-09T08:34:56Z</time>
      </trkpt>
      <trkpt lat="45.11579" lon="6.01697">
        <ele>705.77</ele>
        <time>2018-09-09T08:34:57Z</time>
      </trkpt>
      <trkpt lat="45.11572" lon="6.01724">
        <ele>706.45</ele>
        <time>2018-09-09T08:34:58Z</time>
      </trkpt>
      <trkpt lat="45.11564" lon="6.0175">
        <ele>706.65</ele>
        <time>2018-09-09T08:34:59Z</time>
      </trkpt>
      <trkpt lat="45.11556" lon="6.01776">
        <ele>706.01</ele>
        <time>2018-09-09T08:35:00Z</time>
      </trkpt>
      <trkpt lat="45.11548" lon="6.01802">
        <ele>705.82</ele>
        <time>2018-09-09T08:35:01Z</time>
      </trkpt>
      <trkpt lat="45.11541" lon="6.01829">
        <ele>705.77</ele>
        <time>2018-09-09T08:35:02Z</time>
      </trkpt>
      <trkpt lat="45.11533" lon="6.01856">
        <ele>706.45</ele>
        <time>2018-09-09T08:35:03Z</time>
      </trkpt>
      <trkpt lat="45.11525" lon="6.01882">
        <ele>706.65</ele>
        <time>2018-09-09T08:35:04Z</time>
      </trkpt>
      <trkpt lat="45.11516" lon="6.01908">
        <ele>706.71</ele>
        <time>2018-09-09T08:35:05Z</time>
      </trkpt>
      <trkpt lat="45.11509" lon="6.01934">
        <ele>706.73</ele>
        <time>2018-09-09T08:35:06Z</time>
      </trkpt>
      <trkpt lat="45.11501" lon="6.01961">
        <ele>706.74</ele>
        <time>2018-09-09T08:35:07Z</time>
      </trkpt>
      <trkpt lat="45.11493" lon="6.01986">
        <ele>706.04</ele>
        <time>2018-09-09T08:35:08Z</time>
      </trkpt>
      <trkpt lat="45.11484" lon="6.02011">
        <ele>705.83</ele>
        <time>2018-09-09T08:35:09Z</time>
      </trkpt>
      <trkpt lat="45.11471" lon="6.02057">
        <ele>705.54</ele>
        <time>2018-09-09T08:35:11Z</time>
      </trkpt>
      <trkpt lat="45.11466" lon="6.02106">
        <ele>705.02</ele>
        <time>2018-09-09T08:35:13Z</time>
      </trkpt>
      <trkpt lat="45.11466" lon="6.02132">
        <ele>704.83</ele>
        <time>2018-09-09T08:35:14Z</time>
      </trkpt>
      <trkpt lat="45.11466" lon="6.02158">
        <ele>704.77</ele>
        <time>2018-09-09T08:35:15Z</time>
      </trkpt>
      <trkpt lat="45.11466" lon="6.02185">
        <ele>705.45</ele>
        <time>2018-09-09T08:35:16Z</time>
      </trkpt>
      <trkpt lat="45.11467" lon="6.02212">
        <ele>705.65</ele>
        <time>2018-09-09T08:35:17Z</time>
      </trkpt>
      <trkpt lat="45.11468" lon="6.02238">
        <ele>705.71</ele>
        <time>2018-09-09T08:35:18Z</time>
      </trkpt>
      <trkpt lat="45.11468" lon="6.02265">
        <ele>706.43</ele>
        <time>2018-09-09T08:35:19Z</time>
      </trkpt>
      <trkpt lat="45.11469" lon="6.02291">
        <ele>705.95</ele>
        <time>2018-09-09T08:35:20Z</time>
      </trkpt>
      <trkpt lat="45.1147" lon="6.02317">
        <ele>705.8</ele>
        <time>2018-09-09T08:35:21Z</time>
      </trkpt>
      <trkpt lat="45.11473" lon="6.02365">
        <ele>705.54</ele>
        <time>2018-09-09T08:35:23Z</time>
      </trkpt>
      <trkpt lat="45.11491" lon="6.02408">
        <ele>704.81</ele>
        <time>2018-09-09T08:35:25Z</time>
      </trkpt>
      <trkpt lat="45.11504" lon="6.02428">
        <ele>704.76</ele>
        <time>2018-09-09T08:35:26Z</time>
      </trkpt>
      <trkpt lat="45.11516" lon="6.02449">
        <ele>704.75</ele>
        <time>2018-09-09T08:35:27Z</time>
      </trkpt>
      <trkpt lat="45.1153" lon="6.02468">
        <ele>704.74</ele>
        <time>2018-09-09T08:35:28Z</time>
      </trkpt>
      <trkpt lat="45.11543" lon="6.02485">
        <ele>705.44</ele>
        <time>2018-09-09T08:35:29Z</time>
      </trkpt>
      <trkpt lat="45.11576" lon="6.02504">
        <ele>706.62</ele>
        <time>2018-09-09T08:35:31Z</time>
      </trkpt>
      <trkpt lat="45.1161" lon="6.02508">
        <ele>709.46</ele>
        <time>2018-09-09T08:35:33Z</time>
      </trkpt>
      <trkpt lat="45.11646" lon="6.02515">
        <ele>711.12</ele>
        <time>2018-09-09T08:35:35Z</time>
      </trkpt>
      <trkpt lat="45.11664" lon="6.0252">
        <ele>712.25</ele>
        <time>2018-09-09T08:35:36Z</time>
      </trkpt>
      <trkpt lat="45.11699" lon="6.02535">
        <ele>713.4</ele>
        <time>2018-09-09T08:35:38Z</time>
      </trkpt>
      <trkpt lat="45.11718" lon="6.02544">
        <ele>713.64</ele>
        <time>2018-09-09T08:35:39Z</time>
      </trkpt>
      <trkpt lat="45.11737" lon="6.02552">
        <ele>714.41</ele>
        <time>2018-09-09T08:35:40Z</time>
      </trkpt>
      <trkpt lat="45.11756" lon="6.02565">
        <ele>714.64</ele>
        <time>2018-09-09T08:35:41Z</time>
      </trkpt>
      <trkpt lat="45.11775" lon="6.02578">
        <ele>714.71</ele>
        <time>2018-09-09T08:35:42Z</time>
      </trkpt>
      <trkpt lat="45.11792" lon="6.02593">
        <ele>714.73</ele>
        <time>2018-09-09T08:35:43Z</time>
      </trkpt>
      <trkpt lat="45.11808" lon="6.02609">
        <ele>714.74</ele>
        <time>2018-09-09T08:35:44Z</time>
      </trkpt>
      <trkpt lat="45.11824" lon="6.02627">
        <ele>715.44</ele>
        <time>2018-09-09T08:35:45Z</time>
      </trkpt>
      <trkpt lat="45.11841" lon="6.02645">
        <ele>716.35</ele>
        <time>2018-09-09T08:35:46Z</time>
      </trkpt>
      <trkpt lat="45.11855" lon="6.02662">
        <ele>715.92</ele>
        <time>2018-09-09T08:35:47Z</time>
      </trkpt>
      <trkpt lat="45.11871" lon="6.02679">
        <ele>716.5</ele>
        <time>2018-09-09T08:35:48Z</time>
      </trkpt>
      <trkpt lat="45.11887" lon="6.02697">
        <ele>716.67</ele>
        <time>2018-09-09T08:35:49Z</time>
      </trkpt>
      <trkpt lat="45.11899" lon="6.02722">
        <ele>717.42</ele>
        <time>2018-09-09T08:35:50Z</time>
      </trkpt>
      <trkpt lat="45.11912" lon="6.02744">
        <ele>719.74</ele>
        <time>2018-09-09T08:35:51Z</time>
      </trkpt>
      <trkpt lat="45.11925" lon="6.02767">
        <ele>721.84</ele>
        <time>2018-09-09T08:35:52Z</time>
      </trkpt>
      <trkpt lat="45.11937" lon="6.0279">
        <ele>723.87</ele>
        <time>2018-09-09T08:35:53Z</time>
      </trkpt>
      <trkpt lat="45.11947" lon="6.02813">
        <ele>725.88</ele>
        <time>2018-09-09T08:35:54Z</time>
      </trkpt>
      <trkpt lat="45.11956" lon="6.02839">
        <ele>727.88</ele>
        <time>2018-09-09T08:35:55Z</time>
      </trkpt>
      <trkpt lat="45.11964" lon="6.02863">
        <ele>729.18</ele>
        <time>2018-09-09T08:35:56Z</time>
      </trkpt>
      <trkpt lat="45.11972" lon="6.02889">
        <ele>730.27</ele>
        <time>2018-09-09T08:35:57Z</time>
      </trkpt>
      <trkpt lat="45.1198" lon="6.02913">
        <ele>731.3</ele>
        <time>2018-09-09T08:35:58Z</time>
      </trkpt>
      <trkpt lat="45.11995" lon="6.02958">
        <ele>732.61</ele>
        <time>2018-09-09T08:36:00Z</time>
      </trkpt>
      <trkpt lat="45.12005" lon="6.03008">
        <ele>732.94</ele>
        <time>2018-09-09T08:36:02Z</time>
      </trkpt>
      <trkpt lat="45.12011" lon="6.03034">
        <ele>733.5</ele>
        <time>2018-09-09T08:36:03Z</time>
      </trkpt>
      <trkpt lat="45.12021" lon="6.03058">
        <ele>734.37</ele>
        <time>2018-09-09T08:36:04Z</time>
      </trkpt>
      <trkpt lat="45.12029" lon="6.03082">
        <ele>735.33</ele>
        <time>2018-09-09T08:36:05Z</time>
      </trkpt>
      <trkpt lat="45.12039" lon="6.03105">
        <ele>736.32</ele>
        <time>2018-09-09T08:36:06Z</time>
      </trkpt>
      <trkpt lat="45.12055" lon="6.03143">
        <ele>734.39</ele>
        <time>2018-09-09T08:36:08Z</time>
      </trkpt>
      <trkpt lat="45.12073" lon="6.03176">
        <ele>734.71</ele>
        <time>2018-09-09T08:36:10Z</time>
      </trkpt>
      <trkpt lat="45.1209" lon="6.03205">
        <ele>734.74</ele>
        <time>2018-09-09T08:36:12Z</time>
      </trkpt>
      <trkpt lat="45.12107" lon="6.03234">
        <ele>734.53</ele>
        <time>2018-09-09T08:36:14Z</time>
      </trkpt>
      <trkpt lat="45.12119" lon="6.0327">
        <ele>735.63</ele>
        <time>2018-09-09T08:36:16Z</time>
      </trkpt>
      <trkpt lat="45.1213" lon="6.03306">
        <ele>737.83</ele>
        <time>2018-09-09T08:36:18Z</time>
      </trkpt>
      <trkpt lat="45.12145" lon="6.0334">
        <ele>741.18</ele>
        <time>2018-09-09T08:36:20Z</time>
      </trkpt>
      <trkpt lat="45.12153" lon="6.03378">
        <ele>745.12</ele>
        <time>2018-09-09T08:36:22Z</time>
      </trkpt>
      <trkpt lat="45.12147" lon="6.03415">
        <ele>748.7</ele>
        <time>2018-09-09T08:36:24Z</time>
      </trkpt>
      <trkpt lat="45.12132" lon="6.03446">
        <ele>750.77</ele>
        <time>2018-09-09T08:36:26Z</time>
      </trkpt>
      <trkpt lat="45.12125" lon="6.03477">
        <ele>750.74</ele>
        <time>2018-09-09T08:36:28Z</time>
      </trkpt>
      <trkpt lat="45.12129" lon="6.03504">
        <ele>751.44</ele>
        <time>2018-09-09T08:36:30Z</time>
      </trkpt>
      <trkpt lat="45.12145" lon="6.03525">
        <ele>750.8</ele>
        <time>2018-09-09T08:36:32Z</time>
      </trkpt>
      <trkpt lat="45.12166" lon="6.03531">
        <ele>750.54</ele>
        <time>2018-09-09T08:36:34Z</time>
      </trkpt>
      <trkpt lat="45.12188" lon="6.03511">
        <ele>752.08</ele>
        <time>2018-09-09T08:36:35Z</time>
      </trkpt>
      <trkpt lat="45.12208" lon="6.03511">
        <ele>752.54</ele>
        <time>2018-09-09T08:36:36Z</time>
      </trkpt>
      <trkpt lat="45.12237" lon="6.03515">
        <ele>758.67</ele>
        <time>2018-09-09T08:36:38Z</time>
      </trkpt>
      <trkpt lat="45.12262" lon="6.03548">
        <ele>762.44</ele>
        <time>2018-09-09T08:36:40Z</time>
      </trkpt>
      <trkpt lat="45.12275" lon="6.03567">
        <ele>764.05</ele>
        <time>2018-09-09T08:36:41Z</time>
      </trkpt>
      <trkpt lat="45.12291" lon="6.03585">
        <ele>766.63</ele>
        <time>2018-09-09T08:36:42Z</time>
      </trkpt>
      <trkpt lat="45.12305" lon="6.03602">
        <ele>768.11</ele>
        <time>2018-09-09T08:36:43Z</time>
      </trkpt>
      <trkpt lat="45.12329" lon="6.03637">
        <ele>771.9</ele>
        <time>2018-09-09T08:36:45Z</time>
      </trkpt>
      <trkpt lat="45.12339" lon="6.0366">
        <ele>773.19</ele>
        <time>2018-09-09T08:36:46Z</time>
      </trkpt>
      <trkpt lat="45.12359" lon="6.03703">
        <ele>776.42</ele>
        <time>2018-09-09T08:36:48Z</time>
      </trkpt>
      <trkpt lat="45.1238" lon="6.03743">
        <ele>777.62</ele>
        <time>2018-09-09T08:36:50Z</time>
      </trkpt>
      <trkpt lat="45.12403" lon="6.03779">
        <ele>781.86</ele>
        <time>2018-09-09T08:36:52Z</time>
      </trkpt>
      <trkpt lat="45.12422" lon="6.03819">
        <ele>784.27</ele>
        <time>2018-09-09T08:36:54Z</time>
      </trkpt>
      <trkpt lat="45.12435" lon="6.03862">
        <ele>788.83</ele>
        <time>2018-09-09T08:36:56Z</time>
      </trkpt>
      <trkpt lat="45.12445" lon="6.03905">
        <ele>791.27</ele>
        <time>2018-09-09T08:36:58Z</time>
      </trkpt>
      <trkpt lat="45.1246" lon="6.03949">
        <ele>794.01</ele>
        <time>2018-09-09T08:37:00Z</time>
      </trkpt>
      <trkpt lat="45.12477" lon="6.03988">
        <ele>795.59</ele>
        <time>2018-09-09T08:37:02Z</time>
      </trkpt>
      <trkpt lat="45.12495" lon="6.04015">
        <ele>796.85</ele>
        <time>2018-09-09T08:37:04Z</time>
      </trkpt>
      <trkpt lat="45.12512" lon="6.04048">
        <ele>796.75</ele>
        <time>2018-09-09T08:37:06Z</time>
      </trkpt>
      <trkpt lat="45.12529" lon="6.04091">
        <ele>795.13</ele>
        <time>2018-09-09T08:37:08Z</time>
      </trkpt>
      <trkpt lat="45.1255" lon="6.04134">
        <ele>793.17</ele>
        <time>2018-09-09T08:37:10Z</time>
      </trkpt>
      <trkpt lat="45.1256" lon="6.04157">
        <ele>792.17</ele>
        <time>2018-09-09T08:37:11Z</time>
      </trkpt>
      <trkpt lat="45.12569" lon="6.0418">
        <ele>789.77</ele>
        <time>2018-09-09T08:37:12Z</time>
      </trkpt>
      <trkpt lat="45.12579" lon="6.04203">
        <ele>789.05</ele>
        <time>2018-09-09T08:37:13Z</time>
      </trkpt>
      <trkpt lat="45.12587" lon="6.04226">
        <ele>788.13</ele>
        <time>2018-09-09T08:37:14Z</time>
      </trkpt>
      <trkpt lat="45.12596" lon="6.0425">
        <ele>786.46</ele>
        <time>2018-09-09T08:37:15Z</time>
      </trkpt>
      <trkpt lat="45.1261" lon="6.04296">
        <ele>784.9</ele>
        <time>2018-09-09T08:37:17Z</time>
      </trkpt>
      <trkpt lat="45.12622" lon="6.04327">
        <ele>783.84</ele>
        <time>2018-09-09T08:37:19Z</time>
      </trkpt>
      <trkpt lat="45.12644" lon="6.04343">
        <ele>783.05</ele>
        <time>2018-09-09T08:37:21Z</time>
      </trkpt>
      <trkpt lat="45.12664" lon="6.04349">
        <ele>782.13</ele>
        <time>2018-09-09T08:37:22Z</time>
      </trkpt>
      <trkpt lat="45.12678" lon="6.04365">
        <ele>781.86</ele>
        <time>2018-09-09T08:37:23Z</time>
      </trkpt>
      <trkpt lat="45.12698" lon="6.04383">
        <ele>780.38</ele>
        <time>2018-09-09T08:37:24Z</time>
      </trkpt>
      <trkpt lat="45.12713" lon="6.044">
        <ele>779.23</ele>
        <time>2018-09-09T08:37:25Z</time>
      </trkpt>
      <trkpt lat="45.12728" lon="6.04415">
        <ele>777.49</ele>
        <time>2018-09-09T08:37:26Z</time>
      </trkpt>
      <trkpt lat="45.12744" lon="6.04428">
        <ele>775.57</ele>
        <time>2018-09-09T08:37:27Z</time>
      </trkpt>
      <trkpt lat="45.12766" lon="6.04465">
        <ele>772.51</ele>
        <time>2018-09-09T08:37:29Z</time>
      </trkpt>
      <trkpt lat="45.12778" lon="6.04488">
        <ele>772.67</ele>
        <time>2018-09-09T08:37:30Z</time>
      </trkpt>
      <trkpt lat="45.1279" lon="6.04511">
        <ele>772.02</ele>
        <time>2018-09-09T08:37:31Z</time>
      </trkpt>
      <trkpt lat="45.128" lon="6.04534">
        <ele>771.12</ele>
        <time>2018-09-09T08:37:32Z</time>
      </trkpt>
      <trkpt lat="45.12812" lon="6.04557">
        <ele>770.86</ele>
        <time>2018-09-09T08:37:33Z</time>
      </trkpt>
      <trkpt lat="45.12824" lon="6.0458">
        <ele>770.78</ele>
        <time>2018-09-09T08:37:34Z</time>
      </trkpt>
      <trkpt lat="45.12837" lon="6.04601">
        <ele>769.35</ele>
        <time>2018-09-09T08:37:35Z</time>
      </trkpt>
      <trkpt lat="45.1285" lon="6.04623">
        <ele>768.92</ele>
        <time>2018-09-09T08:37:36Z</time>
      </trkpt>
      <trkpt lat="45.12864" lon="6.04645">
        <ele>768.8</ele>
        <time>2018-09-09T08:37:37Z</time>
      </trkpt>
      <trkpt lat="45.12877" lon="6.04667">
        <ele>768.06</ele>
        <time>2018-09-09T08:37:38Z</time>
      </trkpt>
      <trkpt lat="45.12891" lon="6.04688">
        <ele>768.54</ele>
        <time>2018-09-09T08:37:39Z</time>
      </trkpt>
      <trkpt lat="45.12904" lon="6.0471">
        <ele>768.68</ele>
        <time>2018-09-09T08:37:40Z</time>
      </trkpt>
      <trkpt lat="45.12917" lon="6.04731">
        <ele>768.02</ele>
        <time>2018-09-09T08:37:41Z</time>
      </trkpt>
      <trkpt lat="45.1293" lon="6.04751">
        <ele>767.83</ele>
        <time>2018-09-09T08:37:42Z</time>
      </trkpt>
      <trkpt lat="45.12943" lon="6.0477">
        <ele>767.77</ele>
        <time>2018-09-09T08:37:43Z</time>
      </trkpt>
      <trkpt lat="45.1296" lon="6.0478">
        <ele>768.45</ele>
        <time>2018-09-09T08:37:44Z</time>
      </trkpt>
      <trkpt lat="45.12977" lon="6.0479">
        <ele>767.95</ele>
        <time>2018-09-09T08:37:45Z</time>
      </trkpt>
      <trkpt lat="45.12996" lon="6.04794">
        <ele>767.8</ele>
        <time>2018-09-09T08:37:46Z</time>
      </trkpt>
      <trkpt lat="45.13015" lon="6.048">
        <ele>767.76</ele>
        <time>2018-09-09T08:37:47Z</time>
      </trkpt>
      <trkpt lat="45.13035" lon="6.04805">
        <ele>767.75</ele>
        <time>2018-09-09T08:37:48Z</time>
      </trkpt>
      <trkpt lat="45.13054" lon="6.04811">
        <ele>767.04</ele>
        <time>2018-09-09T08:37:49Z</time>
      </trkpt>
      <trkpt lat="45.13074" lon="6.04818">
        <ele>768.23</ele>
        <time>2018-09-09T08:37:50Z</time>
      </trkpt>
      <trkpt lat="45.13094" lon="6.04825">
        <ele>769.29</ele>
        <time>2018-09-09T08:37:51Z</time>
      </trkpt>
      <trkpt lat="45.13113" lon="6.04831">
        <ele>769.61</ele>
        <time>2018-09-09T08:37:52Z</time>
      </trkpt>
      <trkpt lat="45.13132" lon="6.04838">
        <ele>770.4</ele>
        <time>2018-09-09T08:37:53Z</time>
      </trkpt>
      <trkpt lat="45.13152" lon="6.04845">
        <ele>769.94</ele>
        <time>2018-09-09T08:37:54Z</time>
      </trkpt>
      <trkpt lat="45.13173" lon="6.04853">
        <ele>769.1</ele>
        <time>2018-09-09T08:37:55Z</time>
      </trkpt>
      <trkpt lat="45.13193" lon="6.04859">
        <ele>769.55</ele>
        <time>2018-09-09T08:37:56Z</time>
      </trkpt>
      <trkpt lat="45.13213" lon="6.04866">
        <ele>768.98</ele>
        <time>2018-09-09T08:37:57Z</time>
      </trkpt>
      <trkpt lat="45.13232" lon="6.04871">
        <ele>768.11</ele>
        <time>2018-09-09T08:37:58Z</time>
      </trkpt>
      <trkpt lat="45.13252" lon="6.04876">
        <ele>768.55</ele>
        <time>2018-09-09T08:37:59Z</time>
      </trkpt>
      <trkpt lat="45.13271" lon="6.04882">
        <ele>767.98</ele>
        <time>2018-09-09T08:38:00Z</time>
      </trkpt>
      <trkpt lat="45.1329" lon="6.04887">
        <ele>768.51</ele>
        <time>2018-09-09T08:38:01Z</time>
      </trkpt>
      <trkpt lat="45.13309" lon="6.04891">
        <ele>767.97</ele>
        <time>2018-09-09T08:38:02Z</time>
      </trkpt>
      <trkpt lat="45.13329" lon="6.04896">
        <ele>767.81</ele>
        <time>2018-09-09T08:38:03Z</time>
      </trkpt>
      <trkpt lat="45.13348" lon="6.04901">
        <ele>767.76</ele>
        <time>2018-09-09T08:38:04Z</time>
      </trkpt>
      <trkpt lat="45.13367" lon="6.04906">
        <ele>767.05</ele>
        <time>2018-09-09T08:38:05Z</time>
      </trkpt>
      <trkpt lat="45.13387" lon="6.04911">
        <ele>767.53</ele>
        <time>2018-09-09T08:38:06Z</time>
      </trkpt>
      <trkpt lat="45.13408" lon="6.04917">
        <ele>768.38</ele>
        <time>2018-09-09T08:38:07Z</time>
      </trkpt>
      <trkpt lat="45.13427" lon="6.04922">
        <ele>769.33</ele>
        <time>2018-09-09T08:38:08Z</time>
      </trkpt>
      <trkpt lat="45.13448" lon="6.04926">
        <ele>768.92</ele>
        <time>2018-09-09T08:38:09Z</time>
      </trkpt>
      <trkpt lat="45.13468" lon="6.04929">
        <ele>768.79</ele>
        <time>2018-09-09T08:38:10Z</time>
      </trkpt>
      <trkpt lat="45.13488" lon="6.04932">
        <ele>768.76</ele>
        <time>2018-09-09T08:38:11Z</time>
      </trkpt>
      <trkpt lat="45.13508" lon="6.04937">
        <ele>768.75</ele>
        <time>2018-09-09T08:38:12Z</time>
      </trkpt>
      <trkpt lat="45.13529" lon="6.04941">
        <ele>768.04</ele>
        <time>2018-09-09T08:38:13Z</time>
      </trkpt>
      <trkpt lat="45.13548" lon="6.04946">
        <ele>767.83</ele>
        <time>2018-09-09T08:38:14Z</time>
      </trkpt>
      <trkpt lat="45.13567" lon="6.0495">
        <ele>767.77</ele>
        <time>2018-09-09T08:38:15Z</time>
      </trkpt>
      <trkpt lat="45.13602" lon="6.04956">
        <ele>768.65</ele>
        <time>2018-09-09T08:38:17Z</time>
      </trkpt>
      <trkpt lat="45.13637" lon="6.04953">
        <ele>768.94</ele>
        <time>2018-09-09T08:38:19Z</time>
      </trkpt>
      <trkpt lat="45.13669" lon="6.04929">
        <ele>769.46</ele>
        <time>2018-09-09T08:38:21Z</time>
      </trkpt>
      <trkpt lat="45.13686" lon="6.04915">
        <ele>770.36</ele>
        <time>2018-09-09T08:38:22Z</time>
      </trkpt>
      <trkpt lat="45.13702" lon="6.04901">
        <ele>771.33</ele>
        <time>2018-09-09T08:38:23Z</time>
      </trkpt>
      <trkpt lat="45.13719" lon="6.04886">
        <ele>770.92</ele>
        <time>2018-09-09T08:38:24Z</time>
      </trkpt>
      <trkpt lat="45.13736" lon="6.04872">
        <ele>770.79</ele>
        <time>2018-09-09T08:38:25Z</time>
      </trkpt>
      <trkpt lat="45.13754" lon="6.04859">
        <ele>770.76</ele>
        <time>2018-09-09T08:38:26Z</time>
      </trkpt>
      <trkpt lat="45.13772" lon="6.04848">
        <ele>770.75</ele>
        <time>2018-09-09T08:38:27Z</time>
      </trkpt>
      <trkpt lat="45.13793" lon="6.04845">
        <ele>770.04</ele>
        <time>2018-09-09T08:38:28Z</time>
      </trkpt>
      <trkpt lat="45.13813" lon="6.0484">
        <ele>769.83</ele>
        <time>2018-09-09T08:38:29Z</time>
      </trkpt>
      <trkpt lat="45.13832" lon="6.0484">
        <ele>769.77</ele>
        <time>2018-09-09T08:38:30Z</time>
      </trkpt>
      <trkpt lat="45.1385" lon="6.04843">
        <ele>769.75</ele>
        <time>2018-09-09T08:38:31Z</time>
      </trkpt>
      <trkpt lat="45.13869" lon="6.04853">
        <ele>768.34</ele>
        <time>2018-09-09T08:38:32Z</time>
      </trkpt>
      <trkpt lat="45.13888" lon="6.04866">
        <ele>767.92</ele>
        <time>2018-09-09T08:38:33Z</time>
      </trkpt>
      <trkpt lat="45.13908" lon="6.04879">
        <ele>767.8</ele>
        <time>2018-09-09T08:38:34Z</time>
      </trkpt>
      <trkpt lat="45.13927" lon="6.04887">
        <ele>768.46</ele>
        <time>2018-09-09T08:38:35Z</time>
      </trkpt>
      <trkpt lat="45.13946" lon="6.04891">
        <ele>767.96</ele>
        <time>2018-09-09T08:38:36Z</time>
      </trkpt>
      <trkpt lat="45.13966" lon="6.04894">
        <ele>767.81</ele>
        <time>2018-09-09T08:38:37Z</time>
      </trkpt>
      <trkpt lat="45.13986" lon="6.04891">
        <ele>767.76</ele>
        <time>2018-09-09T08:38:38Z</time>
      </trkpt>
      <trkpt lat="45.14006" lon="6.0489">
        <ele>767.75</ele>
        <time>2018-09-09T08:38:39Z</time>
      </trkpt>
      <trkpt lat="45.14026" lon="6.04891">
        <ele>767.74</ele>
        <time>2018-09-09T08:38:40Z</time>
      </trkpt>
      <trkpt lat="45.14047" lon="6.04894">
        <ele>767.04</ele>
        <time>2018-09-09T08:38:41Z</time>
      </trkpt>
      <trkpt lat="45.14067" lon="6.04898">
        <ele>766.83</ele>
        <time>2018-09-09T08:38:42Z</time>
      </trkpt>
      <trkpt lat="45.14087" lon="6.04903">
        <ele>766.77</ele>
        <time>2018-09-09T08:38:43Z</time>
      </trkpt>
      <trkpt lat="45.14106" lon="6.04909">
        <ele>766.75</ele>
        <time>2018-09-09T08:38:44Z</time>
      </trkpt>
      <trkpt lat="45.14124" lon="6.04919">
        <ele>767.44</ele>
        <time>2018-09-09T08:38:45Z</time>
      </trkpt>
      <trkpt lat="45.14143" lon="6.04928">
        <ele>767.65</ele>
        <time>2018-09-09T08:38:46Z</time>
      </trkpt>
      <trkpt lat="45.14163" lon="6.04938">
        <ele>768.41</ele>
        <time>2018-09-09T08:38:47Z</time>
      </trkpt>
      <trkpt lat="45.14181" lon="6.04947">
        <ele>768.64</ele>
        <time>2018-09-09T08:38:48Z</time>
      </trkpt>
      <trkpt lat="45.14199" lon="6.04957">
        <ele>768.71</ele>
        <time>2018-09-09T08:38:49Z</time>
      </trkpt>
      <trkpt lat="45.14218" lon="6.0497">
        <ele>768.03</ele>
        <time>2018-09-09T08:38:50Z</time>
      </trkpt>
      <trkpt lat="45.14237" lon="6.04983">
        <ele>767.83</ele>
        <time>2018-09-09T08:38:51Z</time>
      </trkpt>
      <trkpt lat="45.14255" lon="6.04995">
        <ele>767.77</ele>
        <time>2018-09-09T08:38:52Z</time>
      </trkpt>
      <trkpt lat="45.14273" lon="6.05008">
        <ele>767.75</ele>
        <time>2018-09-09T08:38:53Z</time>
      </trkpt>
      <trkpt lat="45.14291" lon="6.05019">
        <ele>768.44</ele>
        <time>2018-09-09T08:38:54Z</time>
      </trkpt>
      <trkpt lat="45.1431" lon="6.05033">
        <ele>769.35</ele>
        <time>2018-09-09T08:38:55Z</time>
      </trkpt>
      <trkpt lat="45.14327" lon="6.05046">
        <ele>770.32</ele>
        <time>2018-09-09T08:38:56Z</time>
      </trkpt>
      <trkpt lat="45.14345" lon="6.05062">
        <ele>769.92</ele>
        <time>2018-09-09T08:38:57Z</time>
      </trkpt>
      <trkpt lat="45.14361" lon="6.05078">
        <ele>769.09</ele>
        <time>2018-09-09T08:38:58Z</time>
      </trkpt>
      <trkpt lat="45.14377" lon="6.05096">
        <ele>769.55</ele>
        <time>2018-09-09T08:38:59Z</time>
      </trkpt>
      <trkpt lat="45.14392" lon="6.05113">
        <ele>769.68</ele>
        <time>2018-09-09T08:39:00Z</time>
      </trkpt>
      <trkpt lat="45.14409" lon="6.05128">
        <ele>770.42</ele>
        <time>2018-09-09T08:39:01Z</time>
      </trkpt>
      <trkpt lat="45.14427" lon="6.05138">
        <ele>771.35</ele>
        <time>2018-09-09T08:39:02Z</time>
      </trkpt>
      <trkpt lat="45.14443" lon="6.05149">
        <ele>771.62</ele>
        <time>2018-09-09T08:39:03Z</time>
      </trkpt>
      <trkpt lat="45.14469" lon="6.05177">
        <ele>770.61</ele>
        <time>2018-09-09T08:39:05Z</time>
      </trkpt>
      <trkpt lat="45.14482" lon="6.05212">
        <ele>773.04</ele>
        <time>2018-09-09T08:39:07Z</time>
      </trkpt>
      <trkpt lat="45.14456" lon="6.05244">
        <ele>773.19</ele>
        <time>2018-09-09T08:39:09Z</time>
      </trkpt>
      <trkpt lat="45.14446" lon="6.05287">
        <ele>775.09</ele>
        <time>2018-09-09T08:39:11Z</time>
      </trkpt>
      <trkpt lat="45.14443" lon="6.05335">
        <ele>776.59</ele>
        <time>2018-09-09T08:39:13Z</time>
      </trkpt>
      <trkpt lat="45.14446" lon="6.05381">
        <ele>775.33</ele>
        <time>2018-09-09T08:39:15Z</time>
      </trkpt>
      <trkpt lat="45.14455" lon="6.05424">
        <ele>775.7</ele>
        <time>2018-09-09T08:39:17Z</time>
      </trkpt>
      <trkpt lat="45.14463" lon="6.05457">
        <ele>775.53</ele>
        <time>2018-09-09T08:39:19Z</time>
      </trkpt>
      <trkpt lat="45.1449" lon="6.05477">
        <ele>775.72</ele>
        <time>2018-09-09T08:39:21Z</time>
      </trkpt>
      <trkpt lat="45.14509" lon="6.05475">
        <ele>776.44</ele>
        <time>2018-09-09T08:39:22Z</time>
      </trkpt>
      <trkpt lat="45.14529" lon="6.05465">
        <ele>778.05</ele>
        <time>2018-09-09T08:39:23Z</time>
      </trkpt>
      <trkpt lat="45.14548" lon="6.05453">
        <ele>779.23</ele>
        <time>2018-09-09T08:39:24Z</time>
      </trkpt>
      <trkpt lat="45.14574" lon="6.0542">
        <ele>782.92</ele>
        <time>2018-09-09T08:39:26Z</time>
      </trkpt>
      <trkpt lat="45.1458" lon="6.05358">
        <ele>785.98</ele>
        <time>2018-09-09T08:39:28Z</time>
      </trkpt>
      <trkpt lat="45.14585" lon="6.05333">
        <ele>787.91</ele>
        <time>2018-09-09T08:39:29Z</time>
      </trkpt>
      <trkpt lat="45.14588" lon="6.05306">
        <ele>789.89</ele>
        <time>2018-09-09T08:39:30Z</time>
      </trkpt>
      <trkpt lat="45.1459" lon="6.05277">
        <ele>791.19</ele>
        <time>2018-09-09T08:39:31Z</time>
      </trkpt>
      <trkpt lat="45.14594" lon="6.05252">
        <ele>792.97</ele>
        <time>2018-09-09T08:39:32Z</time>
      </trkpt>
      <trkpt lat="45.14598" lon="6.05202">
        <ele>795.28</ele>
        <time>2018-09-09T08:39:34Z</time>
      </trkpt>
      <trkpt lat="45.14609" lon="6.05157">
        <ele>796.61</ele>
        <time>2018-09-09T08:39:36Z</time>
      </trkpt>
      <trkpt lat="45.14636" lon="6.05126">
        <ele>798.34</ele>
        <time>2018-09-09T08:39:38Z</time>
      </trkpt>
      <trkpt lat="45.14664" lon="6.05095">
        <ele>798.7</ele>
        <time>2018-09-09T08:39:40Z</time>
      </trkpt>
      <trkpt lat="45.14694" lon="6.05075">
        <ele>798.95</ele>
        <time>2018-09-09T08:39:42Z</time>
      </trkpt>
      <trkpt lat="45.14723" lon="6.05067">
        <ele>799.67</ele>
        <time>2018-09-09T08:39:44Z</time>
      </trkpt>
      <trkpt lat="45.14752" lon="6.05046">
        <ele>800.43</ele>
        <time>2018-09-09T08:39:46Z</time>
      </trkpt>
      <trkpt lat="45.14774" lon="6.05008">
        <ele>798.19</ele>
        <time>2018-09-09T08:39:48Z</time>
      </trkpt>
      <trkpt lat="45.14795" lon="6.04972">
        <ele>796.17</ele>
        <time>2018-09-09T08:39:50Z</time>
      </trkpt>
      <trkpt lat="45.14809" lon="6.04926">
        <ele>794.17</ele>
        <time>2018-09-09T08:39:52Z</time>
      </trkpt>
      <trkpt lat="45.14822" lon="6.04884">
        <ele>793.08</ele>
        <time>2018-09-09T08:39:54Z</time>
      </trkpt>
      <trkpt lat="45.14844" lon="6.04856">
        <ele>791.37</ele>
        <time>2018-09-09T08:39:56Z</time>
      </trkpt>
      <trkpt lat="45.14876" lon="6.0484">
        <ele>790.1</ele>
        <time>2018-09-09T08:39:58Z</time>
      </trkpt>
      <trkpt lat="45.14895" lon="6.04834">
        <ele>789.85</ele>
        <time>2018-09-09T08:39:59Z</time>
      </trkpt>
      <trkpt lat="45.14914" lon="6.0483">
        <ele>789.77</ele>
        <time>2018-09-09T08:40:00Z</time>
      </trkpt>
      <trkpt lat="45.14934" lon="6.04826">
        <ele>789.75</ele>
        <time>2018-09-09T08:40:01Z</time>
      </trkpt>
      <trkpt lat="45.14953" lon="6.04824">
        <ele>789.74</ele>
        <time>2018-09-09T08:40:02Z</time>
      </trkpt>
      <trkpt lat="45.14971" lon="6.04819">
        <ele>789.74</ele>
        <time>2018-09-09T08:40:03Z</time>
      </trkpt>
      <trkpt lat="45.1499" lon="6.04814">
        <ele>789.74</ele>
        <time>2018-09-09T08:40:04Z</time>
      </trkpt>
      <trkpt lat="45.15007" lon="6.04802">
        <ele>789.74</ele>
        <time>2018-09-09T08:40:05Z</time>
      </trkpt>
      <trkpt lat="45.15025" lon="6.0479">
        <ele>789.74</ele>
        <time>2018-09-09T08:40:06Z</time>
      </trkpt>
      <trkpt lat="45.15043" lon="6.04779">
        <ele>789.04</ele>
        <time>2018-09-09T08:40:07Z</time>
      </trkpt>
      <trkpt lat="45.15062" lon="6.04768">
        <ele>788.83</ele>
        <time>2018-09-09T08:40:08Z</time>
      </trkpt>
      <trkpt lat="45.15079" lon="6.04756">
        <ele>789.47</ele>
        <time>2018-09-09T08:40:09Z</time>
      </trkpt>
      <trkpt lat="45.15099" lon="6.04746">
        <ele>789.66</ele>
        <time>2018-09-09T08:40:10Z</time>
      </trkpt>
      <trkpt lat="45.15117" lon="6.04734">
        <ele>788.32</ele>
        <time>2018-09-09T08:40:11Z</time>
      </trkpt>
      <trkpt lat="45.15137" lon="6.04724">
        <ele>787.91</ele>
        <time>2018-09-09T08:40:12Z</time>
      </trkpt>
      <trkpt lat="45.15156" lon="6.04712">
        <ele>787.79</ele>
        <time>2018-09-09T08:40:13Z</time>
      </trkpt>
      <trkpt lat="45.15172" lon="6.04695">
        <ele>787.76</ele>
        <time>2018-09-09T08:40:14Z</time>
      </trkpt>
      <trkpt lat="45.15186" lon="6.04678">
        <ele>787.75</ele>
        <time>2018-09-09T08:40:15Z</time>
      </trkpt>
      <trkpt lat="45.15201" lon="6.04663">
        <ele>787.04</ele>
        <time>2018-09-09T08:40:16Z</time>
      </trkpt>
      <trkpt lat="45.15217" lon="6.0465">
        <ele>786.83</ele>
        <time>2018-09-09T08:40:17Z</time>
      </trkpt>
      <trkpt lat="45.15234" lon="6.04639">
        <ele>786.77</ele>
        <time>2018-09-09T08:40:18Z</time>
      </trkpt>
      <trkpt lat="45.15253" lon="6.04632">
        <ele>787.45</ele>
        <time>2018-09-09T08:40:19Z</time>
      </trkpt>
      <trkpt lat="45.15271" lon="6.04622">
        <ele>786.95</ele>
        <time>2018-09-09T08:40:20Z</time>
      </trkpt>
      <trkpt lat="45.15289" lon="6.04611">
        <ele>787.5</ele>
        <time>2018-09-09T08:40:21Z</time>
      </trkpt>
      <trkpt lat="45.15303" lon="6.04593">
        <ele>788.37</ele>
        <time>2018-09-09T08:40:22Z</time>
      </trkpt>
      <trkpt lat="45.15319" lon="6.04578">
        <ele>789.33</ele>
        <time>2018-09-09T08:40:23Z</time>
      </trkpt>
      <trkpt lat="45.15336" lon="6.04565">
        <ele>790.32</ele>
        <time>2018-09-09T08:40:24Z</time>
      </trkpt>
      <trkpt lat="45.15354" lon="6.04555">
        <ele>791.31</ele>
        <time>2018-09-09T08:40:25Z</time>
      </trkpt>
      <trkpt lat="45.15372" lon="6.04545">
        <ele>791.61</ele>
        <time>2018-09-09T08:40:26Z</time>
      </trkpt>
      <trkpt lat="45.15392" lon="6.04538">
        <ele>791.7</ele>
        <time>2018-09-09T08:40:27Z</time>
      </trkpt>
      <trkpt lat="45.15415" lon="6.04534">
        <ele>791.73</ele>
        <time>2018-09-09T08:40:28Z</time>
      </trkpt>
      <trkpt lat="45.15438" lon="6.04533">
        <ele>791.74</ele>
        <time>2018-09-09T08:40:29Z</time>
      </trkpt>
      <trkpt lat="45.1546" lon="6.04528">
        <ele>791.74</ele>
        <time>2018-09-09T08:40:30Z</time>
      </trkpt>
      <trkpt lat="45.15482" lon="6.04523">
        <ele>791.74</ele>
        <time>2018-09-09T08:40:31Z</time>
      </trkpt>
      <trkpt lat="45.15504" lon="6.04518">
        <ele>792.44</ele>
        <time>2018-09-09T08:40:32Z</time>
      </trkpt>
      <trkpt lat="45.15523" lon="6.04513">
        <ele>793.35</ele>
        <time>2018-09-09T08:40:33Z</time>
      </trkpt>
      <trkpt lat="45.15541" lon="6.04509">
        <ele>794.32</ele>
        <time>2018-09-09T08:40:34Z</time>
      </trkpt>
      <trkpt lat="45.15568" lon="6.04475">
        <ele>797.92</ele>
        <time>2018-09-09T08:40:36Z</time>
      </trkpt>
      <trkpt lat="45.15584" lon="6.04457">
        <ele>800.6</ele>
        <time>2018-09-09T08:40:37Z</time>
      </trkpt>
      <trkpt lat="45.15601" lon="6.04437">
        <ele>801.4</ele>
        <time>2018-09-09T08:40:38Z</time>
      </trkpt>
      <trkpt lat="45.15619" lon="6.04417">
        <ele>803.04</ele>
        <time>2018-09-09T08:40:39Z</time>
      </trkpt>
      <trkpt lat="45.15639" lon="6.04402">
        <ele>804.23</ele>
        <time>2018-09-09T08:40:40Z</time>
      </trkpt>
      <trkpt lat="45.15662" lon="6.0439">
        <ele>805.99</ele>
        <time>2018-09-09T08:40:41Z</time>
      </trkpt>
      <trkpt lat="45.15681" lon="6.04376">
        <ele>807.92</ele>
        <time>2018-09-09T08:40:42Z</time>
      </trkpt>
      <trkpt lat="45.157" lon="6.04362">
        <ele>809.19</ele>
        <time>2018-09-09T08:40:43Z</time>
      </trkpt>
      <trkpt lat="45.15717" lon="6.04348">
        <ele>811.68</ele>
        <time>2018-09-09T08:40:44Z</time>
      </trkpt>
      <trkpt lat="45.15737" lon="6.04339">
        <ele>814.52</ele>
        <time>2018-09-09T08:40:45Z</time>
      </trkpt>
      <trkpt lat="45.15757" lon="6.04332">
        <ele>816.08</ele>
        <time>2018-09-09T08:40:46Z</time>
      </trkpt>
      <trkpt lat="45.15777" lon="6.04328">
        <ele>817.94</ele>
        <time>2018-09-09T08:40:47Z</time>
      </trkpt>
      <trkpt lat="45.15798" lon="6.04323">
        <ele>819.9</ele>
        <time>2018-09-09T08:40:48Z</time>
      </trkpt>
      <trkpt lat="45.15818" lon="6.04318">
        <ele>821.19</ele>
        <time>2018-09-09T08:40:49Z</time>
      </trkpt>
      <trkpt lat="45.15838" lon="6.04311">
        <ele>822.28</ele>
        <time>2018-09-09T08:40:50Z</time>
      </trkpt>
      <trkpt lat="45.15862" lon="6.04289">
        <ele>826.83</ele>
        <time>2018-09-09T08:40:52Z</time>
      </trkpt>
      <trkpt lat="45.15895" lon="6.04284">
        <ele>830.18</ele>
        <time>2018-09-09T08:40:54Z</time>
      </trkpt>
      <trkpt lat="45.15929" lon="6.0428">
        <ele>833.21</ele>
        <time>2018-09-09T08:40:56Z</time>
      </trkpt>
      <trkpt lat="45.15949" lon="6.04268">
        <ele>834.98</ele>
        <time>2018-09-09T08:40:57Z</time>
      </trkpt>
      <trkpt lat="45.15967" lon="6.04258">
        <ele>837.61</ele>
        <time>2018-09-09T08:40:58Z</time>
      </trkpt>
      <trkpt lat="45.15986" lon="6.04247">
        <ele>840.5</ele>
        <time>2018-09-09T08:40:59Z</time>
      </trkpt>
      <trkpt lat="45.16004" lon="6.04235">
        <ele>842.77</ele>
        <time>2018-09-09T08:41:00Z</time>
      </trkpt>
      <trkpt lat="45.1602" lon="6.04223">
        <ele>844.85</ele>
        <time>2018-09-09T08:41:01Z</time>
      </trkpt>
      <trkpt lat="45.16039" lon="6.04213">
        <ele>847.57</ele>
        <time>2018-09-09T08:41:02Z</time>
      </trkpt>
      <trkpt lat="45.16057" lon="6.04202">
        <ele>849.09</ele>
        <time>2018-09-09T08:41:03Z</time>
      </trkpt>
      <trkpt lat="45.16075" lon="6.04196">
        <ele>849.55</ele>
        <time>2018-09-09T08:41:04Z</time>
      </trkpt>
      <trkpt lat="45.16095" lon="6.04189">
        <ele>850.38</ele>
        <time>2018-09-09T08:41:05Z</time>
      </trkpt>
      <trkpt lat="45.1613" lon="6.04188">
        <ele>850.71</ele>
        <time>2018-09-09T08:41:07Z</time>
      </trkpt>
      <trkpt lat="45.16161" lon="6.04192">
        <ele>851.65</ele>
        <time>2018-09-09T08:41:09Z</time>
      </trkpt>
      <trkpt lat="45.16198" lon="6.042">
        <ele>852.43</ele>
        <time>2018-09-09T08:41:11Z</time>
      </trkpt>
      <trkpt lat="45.16219" lon="6.04204">
        <ele>852.65</ele>
        <time>2018-09-09T08:41:12Z</time>
      </trkpt>
      <trkpt lat="45.1624" lon="6.04208">
        <ele>853.41</ele>
        <time>2018-09-09T08:41:13Z</time>
      </trkpt>
      <trkpt lat="45.16262" lon="6.04208">
        <ele>853.64</ele>
        <time>2018-09-09T08:41:14Z</time>
      </trkpt>
      <trkpt lat="45.16284" lon="6.04208">
        <ele>855.11</ele>
        <time>2018-09-09T08:41:15Z</time>
      </trkpt>
      <trkpt lat="45.16306" lon="6.04206">
        <ele>856.95</ele>
        <time>2018-09-09T08:41:16Z</time>
      </trkpt>
      <trkpt lat="45.16327" lon="6.04204">
        <ele>858.2</ele>
        <time>2018-09-09T08:41:17Z</time>
      </trkpt>
      <trkpt lat="45.1635" lon="6.04202">
        <ele>858.58</ele>
        <time>2018-09-09T08:41:18Z</time>
      </trkpt>
      <trkpt lat="45.16371" lon="6.04201">
        <ele>859.39</ele>
        <time>2018-09-09T08:41:19Z</time>
      </trkpt>
      <trkpt lat="45.16393" lon="6.04202">
        <ele>861.04</ele>
        <time>2018-09-09T08:41:20Z</time>
      </trkpt>
      <trkpt lat="45.16414" lon="6.04202">
        <ele>862.23</ele>
        <time>2018-09-09T08:41:21Z</time>
      </trkpt>
      <trkpt lat="45.16435" lon="6.042">
        <ele>862.59</ele>
        <time>2018-09-09T08:41:22Z</time>
      </trkpt>
      <trkpt lat="45.16455" lon="6.04196">
        <ele>863.39</ele>
        <time>2018-09-09T08:41:23Z</time>
      </trkpt>
      <trkpt lat="45.16477" lon="6.04193">
        <ele>864.34</ele>
        <time>2018-09-09T08:41:24Z</time>
      </trkpt>
      <trkpt lat="45.16498" lon="6.04188">
        <ele>864.62</ele>
        <time>2018-09-09T08:41:25Z</time>
      </trkpt>
      <trkpt lat="45.16518" lon="6.04188">
        <ele>865.4</ele>
        <time>2018-09-09T08:41:26Z</time>
      </trkpt>
      <trkpt lat="45.16539" lon="6.04189">
        <ele>866.34</ele>
        <time>2018-09-09T08:41:27Z</time>
      </trkpt>
      <trkpt lat="45.1656" lon="6.04188">
        <ele>867.32</ele>
        <time>2018-09-09T08:41:28Z</time>
      </trkpt>
      <trkpt lat="45.16578" lon="6.04186">
        <ele>867.61</ele>
        <time>2018-09-09T08:41:29Z</time>
      </trkpt>
      <trkpt lat="45.16598" lon="6.04172">
        <ele>869.1</ele>
        <time>2018-09-09T08:41:30Z</time>
      </trkpt>
      <trkpt lat="45.16619" lon="6.04169">
        <ele>870.25</ele>
        <time>2018-09-09T08:41:31Z</time>
      </trkpt>
      <trkpt lat="45.1664" lon="6.04166">
        <ele>871.29</ele>
        <time>2018-09-09T08:41:32Z</time>
      </trkpt>
      <trkpt lat="45.16662" lon="6.04166">
        <ele>871.61</ele>
        <time>2018-09-09T08:41:33Z</time>
      </trkpt>
      <trkpt lat="45.16684" lon="6.04161">
        <ele>872.4</ele>
        <time>2018-09-09T08:41:34Z</time>
      </trkpt>
      <trkpt lat="45.16706" lon="6.04157">
        <ele>874.04</ele>
        <time>2018-09-09T08:41:35Z</time>
      </trkpt>
      <trkpt lat="45.16727" lon="6.0415">
        <ele>875.23</ele>
        <time>2018-09-09T08:41:36Z</time>
      </trkpt>
      <trkpt lat="45.16748" lon="6.04141">
        <ele>876.99</ele>
        <time>2018-09-09T08:41:37Z</time>
      </trkpt>
      <trkpt lat="45.1677" lon="6.04132">
        <ele>879.62</ele>
        <time>2018-09-09T08:41:38Z</time>
      </trkpt>
      <trkpt lat="45.1679" lon="6.04122">
        <ele>881.1</ele>
        <time>2018-09-09T08:41:39Z</time>
      </trkpt>
      <trkpt lat="45.1681" lon="6.04114">
        <ele>882.25</ele>
        <time>2018-09-09T08:41:40Z</time>
      </trkpt>
      <trkpt lat="45.16828" lon="6.04104">
        <ele>884.69</ele>
        <time>2018-09-09T08:41:41Z</time>
      </trkpt>
      <trkpt lat="45.16844" lon="6.04089">
        <ele>888.93</ele>
        <time>2018-09-09T08:41:42Z</time>
      </trkpt>
      <trkpt lat="45.16859" lon="6.04073">
        <ele>892.3</ele>
        <time>2018-09-09T08:41:43Z</time>
      </trkpt>
      <trkpt lat="45.16867" lon="6.04048">
        <ele>895.41</ele>
        <time>2018-09-09T08:41:44Z</time>
      </trkpt>
      <trkpt lat="45.16877" lon="6.04027">
        <ele>898.44</ele>
        <time>2018-09-09T08:41:45Z</time>
      </trkpt>
      <trkpt lat="45.1689" lon="6.04007">
        <ele>900.75</ele>
        <time>2018-09-09T08:41:46Z</time>
      </trkpt>
      <trkpt lat="45.16903" lon="6.03985">
        <ele>901.44</ele>
        <time>2018-09-09T08:41:47Z</time>
      </trkpt>
      <trkpt lat="45.16917" lon="6.03967">
        <ele>901.65</ele>
        <time>2018-09-09T08:41:48Z</time>
      </trkpt>
      <trkpt lat="45.16933" lon="6.0395">
        <ele>902.41</ele>
        <time>2018-09-09T08:41:49Z</time>
      </trkpt>
      <trkpt lat="45.16952" lon="6.03939">
        <ele>903.34</ele>
        <time>2018-09-09T08:41:50Z</time>
      </trkpt>
      <trkpt lat="45.16975" lon="6.03949">
        <ele>905.02</ele>
        <time>2018-09-09T08:41:51Z</time>
      </trkpt>
      <trkpt lat="45.17011" lon="6.0393">
        <ele>906.1</ele>
        <time>2018-09-09T08:41:53Z</time>
      </trkpt>
      <trkpt lat="45.17029" lon="6.03922">
        <ele>905.85</ele>
        <time>2018-09-09T08:41:54Z</time>
      </trkpt>
      <trkpt lat="45.17048" lon="6.03907">
        <ele>907.87</ele>
        <time>2018-09-09T08:41:55Z</time>
      </trkpt>
      <trkpt lat="45.17069" lon="6.03893">
        <ele>909.18</ele>
        <time>2018-09-09T08:41:56Z</time>
      </trkpt>
      <trkpt lat="45.17092" lon="6.03887">
        <ele>911.67</ele>
        <time>2018-09-09T08:41:57Z</time>
      </trkpt>
      <trkpt lat="45.17112" lon="6.03876">
        <ele>915.22</ele>
        <time>2018-09-09T08:41:58Z</time>
      </trkpt>
      <trkpt lat="45.17131" lon="6.03862">
        <ele>920.48</ele>
        <time>2018-09-09T08:41:59Z</time>
      </trkpt>
      <trkpt lat="45.17152" lon="6.0385">
        <ele>924.86</ele>
        <time>2018-09-09T08:42:00Z</time>
      </trkpt>
      <trkpt lat="45.17171" lon="6.03836">
        <ele>927.58</ele>
        <time>2018-09-09T08:42:01Z</time>
      </trkpt>
      <trkpt lat="45.1719" lon="6.03823">
        <ele>929.79</ele>
        <time>2018-09-09T08:42:02Z</time>
      </trkpt>
      <trkpt lat="45.1721" lon="6.03812">
        <ele>931.86</ele>
        <time>2018-09-09T08:42:03Z</time>
      </trkpt>
      <trkpt lat="45.17229" lon="6.03802">
        <ele>933.18</ele>
        <time>2018-09-09T08:42:04Z</time>
      </trkpt>
      <trkpt lat="45.17249" lon="6.03795">
        <ele>934.27</ele>
        <time>2018-09-09T08:42:05Z</time>
      </trkpt>
      <trkpt lat="45.17268" lon="6.03788">
        <ele>936</ele>
        <time>2018-09-09T08:42:06Z</time>
      </trkpt>
      <trkpt lat="45.17287" lon="6.0378">
        <ele>937.22</ele>
        <time>2018-09-09T08:42:07Z</time>
      </trkpt>
      <trkpt lat="45.17307" lon="6.03774">
        <ele>938.28</ele>
        <time>2018-09-09T08:42:08Z</time>
      </trkpt>
      <trkpt lat="45.17325" lon="6.03769">
        <ele>939.3</ele>
        <time>2018-09-09T08:42:09Z</time>
      </trkpt>
      <trkpt lat="45.17345" lon="6.03767">
        <ele>941.01</ele>
        <time>2018-09-09T08:42:10Z</time>
      </trkpt>
      <trkpt lat="45.17364" lon="6.03767">
        <ele>942.22</ele>
        <time>2018-09-09T08:42:11Z</time>
      </trkpt>
      <trkpt lat="45.17383" lon="6.03764">
        <ele>943.29</ele>
        <time>2018-09-09T08:42:12Z</time>
      </trkpt>
      <trkpt lat="45.17402" lon="6.03759">
        <ele>944.3</ele>
        <time>2018-09-09T08:42:13Z</time>
      </trkpt>
      <trkpt lat="45.17418" lon="6.03742">
        <ele>947.41</ele>
        <time>2018-09-09T08:42:14Z</time>
      </trkpt>
      <trkpt lat="45.17436" lon="6.03728">
        <ele>949.74</ele>
        <time>2018-09-09T08:42:15Z</time>
      </trkpt>
      <trkpt lat="45.17453" lon="6.0371">
        <ele>951.14</ele>
        <time>2018-09-09T08:42:16Z</time>
      </trkpt>
      <trkpt lat="45.17472" lon="6.03697">
        <ele>951.56</ele>
        <time>2018-09-09T08:42:17Z</time>
      </trkpt>
      <trkpt lat="45.1749" lon="6.03688">
        <ele>952.39</ele>
        <time>2018-09-09T08:42:18Z</time>
      </trkpt>
      <trkpt lat="45.17513" lon="6.03686">
        <ele>953.33</ele>
        <time>2018-09-09T08:42:19Z</time>
      </trkpt>
      <trkpt lat="45.17534" lon="6.03681">
        <ele>953.62</ele>
        <time>2018-09-09T08:42:20Z</time>
      </trkpt>
      <trkpt lat="45.17566" lon="6.03673">
        <ele>957.16</ele>
        <time>2018-09-09T08:42:22Z</time>
      </trkpt>
      <trkpt lat="45.17598" lon="6.03674">
        <ele>960.21</ele>
        <time>2018-09-09T08:42:24Z</time>
      </trkpt>
      <trkpt lat="45.1763" lon="6.03683">
        <ele>963.91</ele>
        <time>2018-09-09T08:42:26Z</time>
      </trkpt>
      <trkpt lat="45.1766" lon="6.03679">
        <ele>968.8</ele>
        <time>2018-09-09T08:42:28Z</time>
      </trkpt>
      <trkpt lat="45.17674" lon="6.03664">
        <ele>970.86</ele>
        <time>2018-09-09T08:42:29Z</time>
      </trkpt>
      <trkpt lat="45.17688" lon="6.03641">
        <ele>974.98</ele>
        <time>2018-09-09T08:42:30Z</time>
      </trkpt>
      <trkpt lat="45.17718" lon="6.03625">
        <ele>978.89</ele>
        <time>2018-09-09T08:42:32Z</time>
      </trkpt>
      <trkpt lat="45.17745" lon="6.03629">
        <ele>981.97</ele>
        <time>2018-09-09T08:42:34Z</time>
      </trkpt>
      <trkpt lat="45.1777" lon="6.0365">
        <ele>982.67</ele>
        <time>2018-09-09T08:42:36Z</time>
      </trkpt>
      <trkpt lat="45.17793" lon="6.03655">
        <ele>984.34</ele>
        <time>2018-09-09T08:42:38Z</time>
      </trkpt>
      <trkpt lat="45.17818" lon="6.03646">
        <ele>988.63</ele>
        <time>2018-09-09T08:42:40Z</time>
      </trkpt>
      <trkpt lat="45.1785" lon="6.03644">
        <ele>994.47</ele>
        <time>2018-09-09T08:42:42Z</time>
      </trkpt>
      <trkpt lat="45.17868" lon="6.03647">
        <ele>996.06</ele>
        <time>2018-09-09T08:42:43Z</time>
      </trkpt>
      <trkpt lat="45.17902" lon="6.03646">
        <ele>999.2</ele>
        <time>2018-09-09T08:42:45Z</time>
      </trkpt>
      <trkpt lat="45.17921" lon="6.03638">
        <ele>1000.28</ele>
        <time>2018-09-09T08:42:46Z</time>
      </trkpt>
      <trkpt lat="45.17938" lon="6.03628">
        <ele>1004.1</ele>
        <time>2018-09-09T08:42:47Z</time>
      </trkpt>
      <trkpt lat="45.17955" lon="6.03614">
        <ele>1008.05</ele>
        <time>2018-09-09T08:42:48Z</time>
      </trkpt>
      <trkpt lat="45.17972" lon="6.03596">
        <ele>1010.63</ele>
        <time>2018-09-09T08:42:49Z</time>
      </trkpt>
      <trkpt lat="45.17989" lon="6.03582">
        <ele>1013.51</ele>
        <time>2018-09-09T08:42:50Z</time>
      </trkpt>
      <trkpt lat="45.18007" lon="6.03567">
        <ele>1015.77</ele>
        <time>2018-09-09T08:42:51Z</time>
      </trkpt>
      <trkpt lat="45.18027" lon="6.03559">
        <ele>1017.15</ele>
        <time>2018-09-09T08:42:52Z</time>
      </trkpt>
      <trkpt lat="45.18047" lon="6.0355">
        <ele>1017.56</ele>
        <time>2018-09-09T08:42:53Z</time>
      </trkpt>
      <trkpt lat="45.18067" lon="6.03542">
        <ele>1019.09</ele>
        <time>2018-09-09T08:42:54Z</time>
      </trkpt>
      <trkpt lat="45.18088" lon="6.03532">
        <ele>1020.25</ele>
        <time>2018-09-09T08:42:55Z</time>
      </trkpt>
      <trkpt lat="45.18108" lon="6.03522">
        <ele>1021.29</ele>
        <time>2018-09-09T08:42:56Z</time>
      </trkpt>
      <trkpt lat="45.18129" lon="6.03512">
        <ele>1021.61</ele>
        <time>2018-09-09T08:42:57Z</time>
      </trkpt>
      <trkpt lat="45.18149" lon="6.03504">
        <ele>1022.4</ele>
        <time>2018-09-09T08:42:58Z</time>
      </trkpt>
      <trkpt lat="45.18168" lon="6.03496">
        <ele>1024.04</ele>
        <time>2018-09-09T08:42:59Z</time>
      </trkpt>
      <trkpt lat="45.18187" lon="6.03487">
        <ele>1025.23</ele>
        <time>2018-09-09T08:43:00Z</time>
      </trkpt>
      <trkpt lat="45.18206" lon="6.03482">
        <ele>1027.69</ele>
        <time>2018-09-09T08:43:01Z</time>
      </trkpt>
      <trkpt lat="45.18225" lon="6.03476">
        <ele>1029.12</ele>
        <time>2018-09-09T08:43:02Z</time>
      </trkpt>
      <trkpt lat="45.18244" lon="6.03472">
        <ele>1030.26</ele>
        <time>2018-09-09T08:43:03Z</time>
      </trkpt>
      <trkpt lat="45.18264" lon="6.03471">
        <ele>1031.3</ele>
        <time>2018-09-09T08:43:04Z</time>
      </trkpt>
      <trkpt lat="45.18284" lon="6.03474">
        <ele>1032.31</ele>
        <time>2018-09-09T08:43:05Z</time>
      </trkpt>
      <trkpt lat="45.18304" lon="6.03475">
        <ele>1031.91</ele>
        <time>2018-09-09T08:43:06Z</time>
      </trkpt>
      <trkpt lat="45.18324" lon="6.0347">
        <ele>1032.49</ele>
        <time>2018-09-09T08:43:07Z</time>
      </trkpt>
      <trkpt lat="45.18346" lon="6.03464">
        <ele>1033.37</ele>
        <time>2018-09-09T08:43:08Z</time>
      </trkpt>
      <trkpt lat="45.18366" lon="6.03458">
        <ele>1035.03</ele>
        <time>2018-09-09T08:43:09Z</time>
      </trkpt>
      <trkpt lat="45.18388" lon="6.03454">
        <ele>1034.83</ele>
        <time>2018-09-09T08:43:10Z</time>
      </trkpt>
      <trkpt lat="45.18411" lon="6.03447">
        <ele>1035.47</ele>
        <time>2018-09-09T08:43:11Z</time>
      </trkpt>
      <trkpt lat="45.18435" lon="6.03444">
        <ele>1037.06</ele>
        <time>2018-09-09T08:43:12Z</time>
      </trkpt>
      <trkpt lat="45.1846" lon="6.03437">
        <ele>1038.24</ele>
        <time>2018-09-09T08:43:13Z</time>
      </trkpt>
      <trkpt lat="45.18481" lon="6.0343">
        <ele>1039.29</ele>
        <time>2018-09-09T08:43:14Z</time>
      </trkpt>
      <trkpt lat="45.18502" lon="6.03425">
        <ele>1040.31</ele>
        <time>2018-09-09T08:43:15Z</time>
      </trkpt>
      <trkpt lat="45.18523" lon="6.03421">
        <ele>1042.71</ele>
        <time>2018-09-09T08:43:16Z</time>
      </trkpt>
      <trkpt lat="45.18543" lon="6.03421">
        <ele>1046.23</ele>
        <time>2018-09-09T08:43:17Z</time>
      </trkpt>
      <trkpt lat="45.18563" lon="6.03419">
        <ele>1047.29</ele>
        <time>2018-09-09T08:43:18Z</time>
      </trkpt>
      <trkpt lat="45.18582" lon="6.03415">
        <ele>1047.61</ele>
        <time>2018-09-09T08:43:19Z</time>
      </trkpt>
      <trkpt lat="45.18598" lon="6.03402">
        <ele>1051.2</ele>
        <time>2018-09-09T08:43:20Z</time>
      </trkpt>
      <trkpt lat="45.18616" lon="6.03389">
        <ele>1054.38</ele>
        <time>2018-09-09T08:43:21Z</time>
      </trkpt>
      <trkpt lat="45.18634" lon="6.03381">
        <ele>1058.13</ele>
        <time>2018-09-09T08:43:22Z</time>
      </trkpt>
      <trkpt lat="45.18653" lon="6.03372">
        <ele>1059.96</ele>
        <time>2018-09-09T08:43:23Z</time>
      </trkpt>
      <trkpt lat="45.18672" lon="6.03365">
        <ele>1063.31</ele>
        <time>2018-09-09T08:43:24Z</time>
      </trkpt>
      <trkpt lat="45.1869" lon="6.03358">
        <ele>1065.01</ele>
        <time>2018-09-09T08:43:25Z</time>
      </trkpt>
      <trkpt lat="45.18722" lon="6.03357">
        <ele>1069.81</ele>
        <time>2018-09-09T08:43:27Z</time>
      </trkpt>
      <trkpt lat="45.18753" lon="6.0338">
        <ele>1075.7</ele>
        <time>2018-09-09T08:43:29Z</time>
      </trkpt>
      <trkpt lat="45.1877" lon="6.03392">
        <ele>1077.13</ele>
        <time>2018-09-09T08:43:30Z</time>
      </trkpt>
      <trkpt lat="45.18791" lon="6.03408">
        <ele>1077.56</ele>
        <time>2018-09-09T08:43:31Z</time>
      </trkpt>
      <trkpt lat="45.1881" lon="6.03422">
        <ele>1079.09</ele>
        <time>2018-09-09T08:43:32Z</time>
      </trkpt>
      <trkpt lat="45.18829" lon="6.03437">
        <ele>1079.54</ele>
        <time>2018-09-09T08:43:33Z</time>
      </trkpt>
      <trkpt lat="45.18848" lon="6.03449">
        <ele>1079.68</ele>
        <time>2018-09-09T08:43:34Z</time>
      </trkpt>
      <trkpt lat="45.18867" lon="6.03461">
        <ele>1080.42</ele>
        <time>2018-09-09T08:43:35Z</time>
      </trkpt>
      <trkpt lat="45.18885" lon="6.03472">
        <ele>1081.35</ele>
        <time>2018-09-09T08:43:36Z</time>
      </trkpt>
      <trkpt lat="45.18904" lon="6.03483">
        <ele>1082.32</ele>
        <time>2018-09-09T08:43:37Z</time>
      </trkpt>
      <trkpt lat="45.18923" lon="6.03492">
        <ele>1083.32</ele>
        <time>2018-09-09T08:43:38Z</time>
      </trkpt>
      <trkpt lat="45.18942" lon="6.03499">
        <ele>1084.31</ele>
        <time>2018-09-09T08:43:39Z</time>
      </trkpt>
      <trkpt lat="45.18962" lon="6.03506">
        <ele>1086.01</ele>
        <time>2018-09-09T08:43:40Z</time>
      </trkpt>
      <trkpt lat="45.18981" lon="6.03516">
        <ele>1087.92</ele>
        <time>2018-09-09T08:43:41Z</time>
      </trkpt>
      <trkpt lat="45.18999" lon="6.03528">
        <ele>1089.9</ele>
        <time>2018-09-09T08:43:42Z</time>
      </trkpt>
      <trkpt lat="45.19018" lon="6.03538">
        <ele>1091.89</ele>
        <time>2018-09-09T08:43:43Z</time>
      </trkpt>
      <trkpt lat="45.19038" lon="6.03546">
        <ele>1093.88</ele>
        <time>2018-09-09T08:43:44Z</time>
      </trkpt>
      <trkpt lat="45.19057" lon="6.03553">
        <ele>1095.18</ele>
        <time>2018-09-09T08:43:45Z</time>
      </trkpt>
      <trkpt lat="45.19077" lon="6.03558">
        <ele>1096.27</ele>
        <time>2018-09-09T08:43:46Z</time>
      </trkpt>
      <trkpt lat="45.19097" lon="6.03566">
        <ele>1098.7</ele>
        <time>2018-09-09T08:43:47Z</time>
      </trkpt>
      <trkpt lat="45.19118" lon="6.03571">
        <ele>1100.83</ele>
        <time>2018-09-09T08:43:48Z</time>
      </trkpt>
      <trkpt lat="45.19138" lon="6.03577">
        <ele>1102.17</ele>
        <time>2018-09-09T08:43:49Z</time>
      </trkpt>
      <trkpt lat="45.19159" lon="6.03582">
        <ele>1103.97</ele>
        <time>2018-09-09T08:43:50Z</time>
      </trkpt>
      <trkpt lat="45.1918" lon="6.03584">
        <ele>1104.51</ele>
        <time>2018-09-09T08:43:51Z</time>
      </trkpt>
      <trkpt lat="45.19196" lon="6.03598">
        <ele>1110.27</ele>
        <time>2018-09-09T08:43:52Z</time>
      </trkpt>
      <trkpt lat="45.19227" lon="6.03619">
        <ele>1117.56</ele>
        <time>2018-09-09T08:43:54Z</time>
      </trkpt>
      <trkpt lat="45.19246" lon="6.03622">
        <ele>1116.99</ele>
        <time>2018-09-09T08:43:55Z</time>
      </trkpt>
      <trkpt lat="45.19265" lon="6.03626">
        <ele>1117.51</ele>
        <time>2018-09-09T08:43:56Z</time>
      </trkpt>
      <trkpt lat="45.19284" lon="6.03631">
        <ele>1119.77</ele>
        <time>2018-09-09T08:43:57Z</time>
      </trkpt>
      <trkpt lat="45.19303" lon="6.0364">
        <ele>1121.85</ele>
        <time>2018-09-09T08:43:58Z</time>
      </trkpt>
      <trkpt lat="45.19322" lon="6.03651">
        <ele>1122.47</ele>
        <time>2018-09-09T08:43:59Z</time>
      </trkpt>
      <trkpt lat="45.19339" lon="6.03667">
        <ele>1124.76</ele>
        <time>2018-09-09T08:44:00Z</time>
      </trkpt>
      <trkpt lat="45.19358" lon="6.03683">
        <ele>1126.85</ele>
        <time>2018-09-09T08:44:01Z</time>
      </trkpt>
      <trkpt lat="45.19371" lon="6.03704">
        <ele>1130.97</ele>
        <time>2018-09-09T08:44:02Z</time>
      </trkpt>
      <trkpt lat="45.19389" lon="6.03717">
        <ele>1134.31</ele>
        <time>2018-09-09T08:44:03Z</time>
      </trkpt>
      <trkpt lat="45.19407" lon="6.03731">
        <ele>1136.01</ele>
        <time>2018-09-09T08:44:04Z</time>
      </trkpt>
      <trkpt lat="45.19426" lon="6.03742">
        <ele>1137.22</ele>
        <time>2018-09-09T08:44:05Z</time>
      </trkpt>
      <trkpt lat="45.19446" lon="6.03752">
        <ele>1138.29</ele>
        <time>2018-09-09T08:44:06Z</time>
      </trkpt>
      <trkpt lat="45.19466" lon="6.03759">
        <ele>1140.7</ele>
        <time>2018-09-09T08:44:07Z</time>
      </trkpt>
      <trkpt lat="45.19485" lon="6.03765">
        <ele>1144.93</ele>
        <time>2018-09-09T08:44:08Z</time>
      </trkpt>
      <trkpt lat="45.19504" lon="6.03768">
        <ele>1148.3</ele>
        <time>2018-09-09T08:44:09Z</time>
      </trkpt>
      <trkpt lat="45.19523" lon="6.03773">
        <ele>1151.41</ele>
        <time>2018-09-09T08:44:10Z</time>
      </trkpt>
      <trkpt lat="45.1954" lon="6.0378">
        <ele>1153.74</ele>
        <time>2018-09-09T08:44:11Z</time>
      </trkpt>
      <trkpt lat="45.19557" lon="6.03796">
        <ele>1158.64</ele>
        <time>2018-09-09T08:44:12Z</time>
      </trkpt>
      <trkpt lat="45.19574" lon="6.03811">
        <ele>1161.51</ele>
        <time>2018-09-09T08:44:13Z</time>
      </trkpt>
      <trkpt lat="45.19591" lon="6.03826">
        <ele>1163.07</ele>
        <time>2018-09-09T08:44:14Z</time>
      </trkpt>
      <trkpt lat="45.19606" lon="6.03839">
        <ele>1164.94</ele>
        <time>2018-09-09T08:44:15Z</time>
      </trkpt>
      <trkpt lat="45.19643" lon="6.03849">
        <ele>1167.28</ele>
        <time>2018-09-09T08:44:17Z</time>
      </trkpt>
      <trkpt lat="45.19662" lon="6.03852">
        <ele>1169</ele>
        <time>2018-09-09T08:44:18Z</time>
      </trkpt>
      <trkpt lat="45.19682" lon="6.03856">
        <ele>1173.02</ele>
        <time>2018-09-09T08:44:19Z</time>
      </trkpt>
      <trkpt lat="45.19702" lon="6.03859">
        <ele>1175.62</ele>
        <time>2018-09-09T08:44:20Z</time>
      </trkpt>
      <trkpt lat="45.19722" lon="6.03863">
        <ele>1178.51</ele>
        <time>2018-09-09T08:44:21Z</time>
      </trkpt>
      <trkpt lat="45.19742" lon="6.03866">
        <ele>1180.77</ele>
        <time>2018-09-09T08:44:22Z</time>
      </trkpt>
      <trkpt lat="45.19762" lon="6.03868">
        <ele>1182.15</ele>
        <time>2018-09-09T08:44:23Z</time>
      </trkpt>
      <trkpt lat="45.19781" lon="6.03875">
        <ele>1183.96</ele>
        <time>2018-09-09T08:44:24Z</time>
      </trkpt>
      <trkpt lat="45.19801" lon="6.0388">
        <ele>1185.91</ele>
        <time>2018-09-09T08:44:25Z</time>
      </trkpt>
      <trkpt lat="45.19821" lon="6.03886">
        <ele>1187.89</ele>
        <time>2018-09-09T08:44:26Z</time>
      </trkpt>
      <trkpt lat="45.19839" lon="6.03891">
        <ele>1188.49</ele>
        <time>2018-09-09T08:44:27Z</time>
      </trkpt>
      <trkpt lat="45.1987" lon="6.03905">
        <ele>1191.45</ele>
        <time>2018-09-09T08:44:29Z</time>
      </trkpt>
      <trkpt lat="45.19893" lon="6.0391">
        <ele>1194.02</ele>
        <time>2018-09-09T08:44:31Z</time>
      </trkpt>
      <trkpt lat="45.19918" lon="6.03902">
        <ele>1199.12</ele>
        <time>2018-09-09T08:44:34Z</time>
      </trkpt>
      <trkpt lat="45.1994" lon="6.03903">
        <ele>1206.01</ele>
        <time>2018-09-09T08:44:37Z</time>
      </trkpt>
      <trkpt lat="45.19962" lon="6.03894">
        <ele>1208.12</ele>
        <time>2018-09-09T08:44:40Z</time>
      </trkpt>
      <trkpt lat="45.19982" lon="6.03889">
        <ele>1210.33</ele>
        <time>2018-09-09T08:44:43Z</time>
      </trkpt>
      <trkpt lat="45.20001" lon="6.03896">
        <ele>1214.5</ele>
        <time>2018-09-09T08:44:46Z</time>
      </trkpt>
      <trkpt lat="45.20025" lon="6.03903">
        <ele>1218.99</ele>
        <time>2018-09-09T08:44:49Z</time>
      </trkpt>
      <trkpt lat="45.20042" lon="6.0391">
        <ele>1221.28</ele>
        <time>2018-09-09T08:44:51Z</time>
      </trkpt>
      <trkpt lat="45.20065" lon="6.03922">
        <ele>1225.28</ele>
        <time>2018-09-09T08:44:54Z</time>
      </trkpt>
      <trkpt lat="45.20087" lon="6.03933">
        <ele>1228.31</ele>
        <time>2018-09-09T08:44:57Z</time>
      </trkpt>
      <trkpt lat="45.20108" lon="6.03939">
        <ele>1229.43</ele>
        <time>2018-09-09T08:45:00Z</time>
      </trkpt>
      <trkpt lat="45.20134" lon="6.03941">
        <ele>1230.71</ele>
        <time>2018-09-09T08:45:03Z</time>
      </trkpt>
      <trkpt lat="45.20152" lon="6.03944">
        <ele>1231.65</ele>
        <time>2018-09-09T08:45:05Z</time>
      </trkpt>
      <trkpt lat="45.20175" lon="6.03953">
        <ele>1232.71</ele>
        <time>2018-09-09T08:45:08Z</time>
      </trkpt>
      <trkpt lat="45.20194" lon="6.03978">
        <ele>1232.74</ele>
        <time>2018-09-09T08:45:11Z</time>
      </trkpt>
      <trkpt lat="45.20208" lon="6.03996">
        <ele>1234.35</ele>
        <time>2018-09-09T08:45:13Z</time>
      </trkpt>
      <trkpt lat="45.20227" lon="6.04015">
        <ele>1237.25</ele>
        <time>2018-09-09T08:45:16Z</time>
      </trkpt>
      <trkpt lat="45.20247" lon="6.04026">
        <ele>1236.33</ele>
        <time>2018-09-09T08:45:19Z</time>
      </trkpt>
      <trkpt lat="45.20269" lon="6.04022">
        <ele>1239.31</ele>
        <time>2018-09-09T08:45:22Z</time>
      </trkpt>
      <trkpt lat="45.20292" lon="6.04015">
        <ele>1241.4</ele>
        <time>2018-09-09T08:45:25Z</time>
      </trkpt>
      <trkpt lat="45.20314" lon="6.04022">
        <ele>1245.92</ele>
        <time>2018-09-09T08:45:28Z</time>
      </trkpt>
      <trkpt lat="45.20332" lon="6.04042">
        <ele>1250.28</ele>
        <time>2018-09-09T08:45:31Z</time>
      </trkpt>
      <trkpt lat="45.20345" lon="6.04062">
        <ele>1251.61</ele>
        <time>2018-09-09T08:45:33Z</time>
      </trkpt>
      <trkpt lat="45.2036" lon="6.04078">
        <ele>1252.64</ele>
        <time>2018-09-09T08:45:35Z</time>
      </trkpt>
      <trkpt lat="45.20375" lon="6.04094">
        <ele>1252.73</ele>
        <time>2018-09-09T08:45:37Z</time>
      </trkpt>
      <trkpt lat="45.20392" lon="6.04112">
        <ele>1253.44</ele>
        <time>2018-09-09T08:45:39Z</time>
      </trkpt>
      <trkpt lat="45.20409" lon="6.0413">
        <ele>1254.62</ele>
        <time>2018-09-09T08:45:41Z</time>
      </trkpt>
      <trkpt lat="45.20426" lon="6.0415">
        <ele>1255.22</ele>
        <time>2018-09-09T08:45:43Z</time>
      </trkpt>
      <trkpt lat="45.20444" lon="6.0417">
        <ele>1256.6</ele>
        <time>2018-09-09T08:45:45Z</time>
      </trkpt>
      <trkpt lat="45.2046" lon="6.04195">
        <ele>1256.73</ele>
        <time>2018-09-09T08:45:47Z</time>
      </trkpt>
      <trkpt lat="45.2047" lon="6.04222">
        <ele>1257.44</ele>
        <time>2018-09-09T08:45:49Z</time>
      </trkpt>
      <trkpt lat="45.2048" lon="6.04249">
        <ele>1258.62</ele>
        <time>2018-09-09T08:45:51Z</time>
      </trkpt>
      <trkpt lat="45.20489" lon="6.04274">
        <ele>1260.34</ele>
        <time>2018-09-09T08:45:53Z</time>
      </trkpt>
      <trkpt lat="45.20502" lon="6.04304">
        <ele>1261.43</ele>
        <time>2018-09-09T08:45:56Z</time>
      </trkpt>
      <trkpt lat="45.20519" lon="6.0433">
        <ele>1262.71</ele>
        <time>2018-09-09T08:45:59Z</time>
      </trkpt>
      <trkpt lat="45.20537" lon="6.04345">
        <ele>1262.74</ele>
        <time>2018-09-09T08:46:01Z</time>
      </trkpt>
      <trkpt lat="45.20559" lon="6.04358">
        <ele>1263.44</ele>
        <time>2018-09-09T08:46:03Z</time>
      </trkpt>
      <trkpt lat="45.20586" lon="6.04367">
        <ele>1263.5</ele>
        <time>2018-09-09T08:46:05Z</time>
      </trkpt>
      <trkpt lat="45.20613" lon="6.04378">
        <ele>1263.72</ele>
        <time>2018-09-09T08:46:07Z</time>
      </trkpt>
      <trkpt lat="45.2064" lon="6.04398">
        <ele>1263.74</ele>
        <time>2018-09-09T08:46:09Z</time>
      </trkpt>
      <trkpt lat="45.20663" lon="6.04426">
        <ele>1264.65</ele>
        <time>2018-09-09T08:46:11Z</time>
      </trkpt>
      <trkpt lat="45.20689" lon="6.04452">
        <ele>1265.64</ele>
        <time>2018-09-09T08:46:13Z</time>
      </trkpt>
      <trkpt lat="45.20719" lon="6.04469">
        <ele>1265.73</ele>
        <time>2018-09-09T08:46:15Z</time>
      </trkpt>
      <trkpt lat="45.20751" lon="6.04478">
        <ele>1265.04</ele>
        <time>2018-09-09T08:46:17Z</time>
      </trkpt>
      <trkpt lat="45.20782" lon="6.04479">
        <ele>1264.77</ele>
        <time>2018-09-09T08:46:19Z</time>
      </trkpt>
      <trkpt lat="45.20808" lon="6.04483">
        <ele>1265.65</ele>
        <time>2018-09-09T08:46:21Z</time>
      </trkpt>
      <trkpt lat="45.20834" lon="6.04496">
        <ele>1265.73</ele>
        <time>2018-09-09T08:46:23Z</time>
      </trkpt>
      <trkpt lat="45.20849" lon="6.04532">
        <ele>1264.83</ele>
        <time>2018-09-09T08:46:25Z</time>
      </trkpt>
      <trkpt lat="45.20871" lon="6.04548">
        <ele>1266.36</ele>
        <time>2018-09-09T08:46:27Z</time>
      </trkpt>
      <trkpt lat="45.20896" lon="6.04539">
        <ele>1267.41</ele>
        <time>2018-09-09T08:46:29Z</time>
      </trkpt>
      <trkpt lat="45.2092" lon="6.04522">
        <ele>1267.01</ele>
        <time>2018-09-09T08:46:31Z</time>
      </trkpt>
      <trkpt lat="45.2094" lon="6.04525">
        <ele>1266.77</ele>
        <time>2018-09-09T08:46:33Z</time>
      </trkpt>
      <trkpt lat="45.2095" lon="6.04551">
        <ele>1266.74</ele>
        <time>2018-09-09T08:46:35Z</time>
      </trkpt>
      <trkpt lat="45.20946" lon="6.04588">
        <ele>1266.74</ele>
        <time>2018-09-09T08:46:37Z</time>
      </trkpt>
      <trkpt lat="45.20942" lon="6.04625">
        <ele>1265.83</ele>
        <time>2018-09-09T08:46:39Z</time>
      </trkpt>
      <trkpt lat="45.20954" lon="6.04651">
        <ele>1266.45</ele>
        <time>2018-09-09T08:46:41Z</time>
      </trkpt>
      <trkpt lat="45.20975" lon="6.04668">
        <ele>1267.62</ele>
        <time>2018-09-09T08:46:43Z</time>
      </trkpt>
      <trkpt lat="45.20998" lon="6.0468">
        <ele>1268.64</ele>
        <time>2018-09-09T08:46:45Z</time>
      </trkpt>
      <trkpt lat="45.21018" lon="6.047">
        <ele>1268.73</ele>
        <time>2018-09-09T08:46:47Z</time>
      </trkpt>
      <trkpt lat="45.21042" lon="6.04714">
        <ele>1267.83</ele>
        <time>2018-09-09T08:46:49Z</time>
      </trkpt>
      <trkpt lat="45.21071" lon="6.04722">
        <ele>1266.63</ele>
        <time>2018-09-09T08:46:51Z</time>
      </trkpt>
      <trkpt lat="45.21096" lon="6.04739">
        <ele>1268.34</ele>
        <time>2018-09-09T08:46:53Z</time>
      </trkpt>
      <trkpt lat="45.21117" lon="6.04752">
        <ele>1268.01</ele>
        <time>2018-09-09T08:46:55Z</time>
      </trkpt>
      <trkpt lat="45.21124" lon="6.04779">
        <ele>1268.67</ele>
        <time>2018-09-09T08:46:57Z</time>
      </trkpt>
      <trkpt lat="45.21114" lon="6.04806">
        <ele>1269.44</ele>
        <time>2018-09-09T08:46:59Z</time>
      </trkpt>
      <trkpt lat="45.21096" lon="6.04827">
        <ele>1269.71</ele>
        <time>2018-09-09T08:47:01Z</time>
      </trkpt>
      <trkpt lat="45.21082" lon="6.04855">
        <ele>1269.04</ele>
        <time>2018-09-09T08:47:03Z</time>
      </trkpt>
      <trkpt lat="45.2107" lon="6.04888">
        <ele>1267.86</ele>
        <time>2018-09-09T08:47:05Z</time>
      </trkpt>
      <trkpt lat="45.21071" lon="6.04932">
        <ele>1267.75</ele>
        <time>2018-09-09T08:47:07Z</time>
      </trkpt>
      <trkpt lat="45.21072" lon="6.04962">
        <ele>1264.31</ele>
        <time>2018-09-09T08:47:09Z</time>
      </trkpt>
      <trkpt lat="45.21091" lon="6.04988">
        <ele>1263.79</ele>
        <time>2018-09-09T08:47:11Z</time>
      </trkpt>
      <trkpt lat="45.21107" lon="6.05009">
        <ele>1263.75</ele>
        <time>2018-09-09T08:47:13Z</time>
      </trkpt>
      <trkpt lat="45.21115" lon="6.05036">
        <ele>1263.74</ele>
        <time>2018-09-09T08:47:15Z</time>
      </trkpt>
      <trkpt lat="45.21112" lon="6.05064">
        <ele>1263.74</ele>
        <time>2018-09-09T08:47:17Z</time>
      </trkpt>
      <trkpt lat="45.211" lon="6.05082">
        <ele>1262.83</ele>
        <time>2018-09-09T08:47:19Z</time>
      </trkpt>
      <trkpt lat="45.21084" lon="6.05102">
        <ele>1259.61</ele>
        <time>2018-09-09T08:47:22Z</time>
      </trkpt>
      <trkpt lat="45.21078" lon="6.0514">
        <ele>1258.97</ele>
        <time>2018-09-09T08:47:25Z</time>
      </trkpt>
      <trkpt lat="45.2108" lon="6.05176">
        <ele>1258.06</ele>
        <time>2018-09-09T08:47:27Z</time>
      </trkpt>
      <trkpt lat="45.2109" lon="6.05226">
        <ele>1257.07</ele>
        <time>2018-09-09T08:47:29Z</time>
      </trkpt>
      <trkpt lat="45.21094" lon="6.05271">
        <ele>1253.55</ele>
        <time>2018-09-09T08:47:31Z</time>
      </trkpt>
      <trkpt lat="45.21092" lon="6.05319">
        <ele>1252.6</ele>
        <time>2018-09-09T08:47:33Z</time>
      </trkpt>
      <trkpt lat="45.21091" lon="6.05345">
        <ele>1252.7</ele>
        <time>2018-09-09T08:47:34Z</time>
      </trkpt>
      <trkpt lat="45.2109" lon="6.05371">
        <ele>1253.43</ele>
        <time>2018-09-09T08:47:35Z</time>
      </trkpt>
      <trkpt lat="45.21088" lon="6.05397">
        <ele>1253.65</ele>
        <time>2018-09-09T08:47:36Z</time>
      </trkpt>
      <trkpt lat="45.21086" lon="6.05424">
        <ele>1253.71</ele>
        <time>2018-09-09T08:47:37Z</time>
      </trkpt>
      <trkpt lat="45.21084" lon="6.05451">
        <ele>1254.43</ele>
        <time>2018-09-09T08:47:38Z</time>
      </trkpt>
      <trkpt lat="45.21082" lon="6.05496">
        <ele>1254.01</ele>
        <time>2018-09-09T08:47:40Z</time>
      </trkpt>
      <trkpt lat="45.21087" lon="6.05536">
        <ele>1252.16</ele>
        <time>2018-09-09T08:47:42Z</time>
      </trkpt>
      <trkpt lat="45.21089" lon="6.05572">
        <ele>1249.26</ele>
        <time>2018-09-09T08:47:44Z</time>
      </trkpt>
      <trkpt lat="45.21086" lon="6.05608">
        <ele>1246.48</ele>
        <time>2018-09-09T08:47:46Z</time>
      </trkpt>
      <trkpt lat="45.21084" lon="6.05644">
        <ele>1242.59</ele>
        <time>2018-09-09T08:47:48Z</time>
      </trkpt>
      <trkpt lat="45.21086" lon="6.05673">
        <ele>1240</ele>
        <time>2018-09-09T08:47:50Z</time>
      </trkpt>
      <trkpt lat="45.21071" lon="6.05659">
        <ele>1237.66</ele>
        <time>2018-09-09T08:48:03Z</time>
      </trkpt>
      <trkpt lat="45.21063" lon="6.05627">
        <ele>1235.35</ele>
        <time>2018-09-09T08:48:25Z</time>
      </trkpt>
      <trkpt lat="45.2106" lon="6.05602">
        <ele>1233.19</ele>
        <time>2018-09-09T08:48:27Z</time>
      </trkpt>
      <trkpt lat="45.21058" lon="6.05573">
        <ele>1231.17</ele>
        <time>2018-09-09T08:48:29Z</time>
      </trkpt>
      <trkpt lat="45.21054" lon="6.05547">
        <ele>1228.26</ele>
        <time>2018-09-09T08:48:31Z</time>
      </trkpt>
      <trkpt lat="45.21037" lon="6.05576">
        <ele>1224.93</ele>
        <time>2018-09-09T08:48:36Z</time>
      </trkpt>
      <trkpt lat="45.21033" lon="6.05607">
        <ele>1222</ele>
        <time>2018-09-09T08:48:37Z</time>
      </trkpt>
      <trkpt lat="45.21028" lon="6.05635">
        <ele>1219.02</ele>
        <time>2018-09-09T08:48:38Z</time>
      </trkpt>
      <trkpt lat="45.21022" lon="6.05661">
        <ele>1216.02</ele>
        <time>2018-09-09T08:48:39Z</time>
      </trkpt>
      <trkpt lat="45.21017" lon="6.05703">
        <ele>1212.55</ele>
        <time>2018-09-09T08:48:41Z</time>
      </trkpt>
      <trkpt lat="45.21009" lon="6.05726">
        <ele>1207.3</ele>
        <time>2018-09-09T08:48:44Z</time>
      </trkpt>
      <trkpt lat="45.20995" lon="6.05702">
        <ele>1206.69</ele>
        <time>2018-09-09T08:48:47Z</time>
      </trkpt>
      <trkpt lat="45.20988" lon="6.05649">
        <ele>1203.73</ele>
        <time>2018-09-09T08:48:49Z</time>
      </trkpt>
      <trkpt lat="45.20984" lon="6.05623">
        <ele>1201.64</ele>
        <time>2018-09-09T08:48:50Z</time>
      </trkpt>
      <trkpt lat="45.20978" lon="6.05577">
        <ele>1198.3</ele>
        <time>2018-09-09T08:48:52Z</time>
      </trkpt>
      <trkpt lat="45.20984" lon="6.05537">
        <ele>1194.57</ele>
        <time>2018-09-09T08:48:54Z</time>
      </trkpt>
      <trkpt lat="45.2098" lon="6.05503">
        <ele>1191.88</ele>
        <time>2018-09-09T08:48:57Z</time>
      </trkpt>
      <trkpt lat="45.20952" lon="6.05549">
        <ele>1185.66</ele>
        <time>2018-09-09T08:49:02Z</time>
      </trkpt>
      <trkpt lat="45.20943" lon="6.05582">
        <ele>1185.02</ele>
        <time>2018-09-09T08:49:03Z</time>
      </trkpt>
      <trkpt lat="45.20935" lon="6.05614">
        <ele>1182.72</ele>
        <time>2018-09-09T08:49:04Z</time>
      </trkpt>
      <trkpt lat="45.20934" lon="6.05643">
        <ele>1179.94</ele>
        <time>2018-09-09T08:49:05Z</time>
      </trkpt>
      <trkpt lat="45.2093" lon="6.05674">
        <ele>1177</ele>
        <time>2018-09-09T08:49:06Z</time>
      </trkpt>
      <trkpt lat="45.20927" lon="6.05702">
        <ele>1174.02</ele>
        <time>2018-09-09T08:49:07Z</time>
      </trkpt>
      <trkpt lat="45.20914" lon="6.0574">
        <ele>1171.25</ele>
        <time>2018-09-09T08:49:09Z</time>
      </trkpt>
      <trkpt lat="45.20892" lon="6.05758">
        <ele>1170.09</ele>
        <time>2018-09-09T08:49:11Z</time>
      </trkpt>
      <trkpt lat="45.20877" lon="6.05781">
        <ele>1171.38</ele>
        <time>2018-09-09T08:49:13Z</time>
      </trkpt>
      <trkpt lat="45.20865" lon="6.0581">
        <ele>1171.71</ele>
        <time>2018-09-09T08:49:15Z</time>
      </trkpt>
      <trkpt lat="45.2086" lon="6.05835">
        <ele>1172.43</ele>
        <time>2018-09-09T08:49:16Z</time>
      </trkpt>
      <trkpt lat="45.20848" lon="6.05887">
        <ele>1173.41</ele>
        <time>2018-09-09T08:49:18Z</time>
      </trkpt>
      <trkpt lat="45.20841" lon="6.05921">
        <ele>1173.64</ele>
        <time>2018-09-09T08:49:19Z</time>
      </trkpt>
      <trkpt lat="45.20836" lon="6.05959">
        <ele>1174.41</ele>
        <time>2018-09-09T08:49:20Z</time>
      </trkpt>
      <trkpt lat="45.20828" lon="6.05999">
        <ele>1175.34</ele>
        <time>2018-09-09T08:49:21Z</time>
      </trkpt>
      <trkpt lat="45.2082" lon="6.06042">
        <ele>1176.32</ele>
        <time>2018-09-09T08:49:22Z</time>
      </trkpt>
      <trkpt lat="45.20812" lon="6.06085">
        <ele>1178.02</ele>
        <time>2018-09-09T08:49:23Z</time>
      </trkpt>
      <trkpt lat="45.20804" lon="6.06126">
        <ele>1178.52</ele>
        <time>2018-09-09T08:49:24Z</time>
      </trkpt>
      <trkpt lat="45.20796" lon="6.06163">
        <ele>1178.68</ele>
        <time>2018-09-09T08:49:25Z</time>
      </trkpt>
      <trkpt lat="45.20788" lon="6.062">
        <ele>1179.42</ele>
        <time>2018-09-09T08:49:26Z</time>
      </trkpt>
      <trkpt lat="45.20782" lon="6.06236">
        <ele>1180.35</ele>
        <time>2018-09-09T08:49:27Z</time>
      </trkpt>
      <trkpt lat="45.20785" lon="6.06274">
        <ele>1186.92</ele>
        <time>2018-09-09T08:49:28Z</time>
      </trkpt>
      <trkpt lat="45.20782" lon="6.06309">
        <ele>1191</ele>
        <time>2018-09-09T08:49:29Z</time>
      </trkpt>
      <trkpt lat="45.20779" lon="6.06339">
        <ele>1192.92</ele>
        <time>2018-09-09T08:49:30Z</time>
      </trkpt>
      <trkpt lat="45.20777" lon="6.06369">
        <ele>1194.89</ele>
        <time>2018-09-09T08:49:31Z</time>
      </trkpt>
      <trkpt lat="45.20775" lon="6.06398">
        <ele>1196.89</ele>
        <time>2018-09-09T08:49:32Z</time>
      </trkpt>
      <trkpt lat="45.20764" lon="6.06424">
        <ele>1203.08</ele>
        <time>2018-09-09T08:49:33Z</time>
      </trkpt>
      <trkpt lat="45.20754" lon="6.06451">
        <ele>1209.14</ele>
        <time>2018-09-09T08:49:34Z</time>
      </trkpt>
      <trkpt lat="45.20744" lon="6.06476">
        <ele>1213.76</ele>
        <time>2018-09-09T08:49:35Z</time>
      </trkpt>
      <trkpt lat="45.20734" lon="6.06501">
        <ele>1218.65</ele>
        <time>2018-09-09T08:49:36Z</time>
      </trkpt>
      <trkpt lat="45.20724" lon="6.06528">
        <ele>1222.21</ele>
        <time>2018-09-09T08:49:37Z</time>
      </trkpt>
      <trkpt lat="45.20713" lon="6.06555">
        <ele>1226.08</ele>
        <time>2018-09-09T08:49:38Z</time>
      </trkpt>
      <trkpt lat="45.207" lon="6.06582">
        <ele>1230.04</ele>
        <time>2018-09-09T08:49:39Z</time>
      </trkpt>
      <trkpt lat="45.20684" lon="6.06607">
        <ele>1233.33</ele>
        <time>2018-09-09T08:49:40Z</time>
      </trkpt>
      <trkpt lat="45.2067" lon="6.06633">
        <ele>1236.42</ele>
        <time>2018-09-09T08:49:41Z</time>
      </trkpt>
      <trkpt lat="45.20655" lon="6.06659">
        <ele>1238.04</ele>
        <time>2018-09-09T08:49:42Z</time>
      </trkpt>
      <trkpt lat="45.20641" lon="6.06686">
        <ele>1240.63</ele>
        <time>2018-09-09T08:49:43Z</time>
      </trkpt>
      <trkpt lat="45.20628" lon="6.06713">
        <ele>1243.51</ele>
        <time>2018-09-09T08:49:44Z</time>
      </trkpt>
      <trkpt lat="45.20615" lon="6.0674">
        <ele>1246.47</ele>
        <time>2018-09-09T08:49:45Z</time>
      </trkpt>
      <trkpt lat="45.20602" lon="6.06765">
        <ele>1248.76</ele>
        <time>2018-09-09T08:49:46Z</time>
      </trkpt>
      <trkpt lat="45.20592" lon="6.06789">
        <ele>1250.85</ele>
        <time>2018-09-09T08:49:47Z</time>
      </trkpt>
      <trkpt lat="45.20581" lon="6.06813">
        <ele>1252.17</ele>
        <time>2018-09-09T08:49:48Z</time>
      </trkpt>
      <trkpt lat="45.20572" lon="6.06837">
        <ele>1253.27</ele>
        <time>2018-09-09T08:49:49Z</time>
      </trkpt>
      <trkpt lat="45.20566" lon="6.06861">
        <ele>1254.3</ele>
        <time>2018-09-09T08:49:50Z</time>
      </trkpt>
      <trkpt lat="45.20554" lon="6.06909">
        <ele>1257.01</ele>
        <time>2018-09-09T08:49:52Z</time>
      </trkpt>
      <trkpt lat="45.20546" lon="6.06932">
        <ele>1257.52</ele>
        <time>2018-09-09T08:49:53Z</time>
      </trkpt>
      <trkpt lat="45.20538" lon="6.06956">
        <ele>1258.38</ele>
        <time>2018-09-09T08:49:54Z</time>
      </trkpt>
      <trkpt lat="45.20531" lon="6.06982">
        <ele>1260.03</ele>
        <time>2018-09-09T08:49:55Z</time>
      </trkpt>
      <trkpt lat="45.20522" lon="6.07005">
        <ele>1260.53</ele>
        <time>2018-09-09T08:49:56Z</time>
      </trkpt>
      <trkpt lat="45.20514" lon="6.07031">
        <ele>1261.38</ele>
        <time>2018-09-09T08:49:57Z</time>
      </trkpt>
      <trkpt lat="45.20505" lon="6.07055">
        <ele>1263.73</ele>
        <time>2018-09-09T08:49:58Z</time>
      </trkpt>
      <trkpt lat="45.20496" lon="6.0708">
        <ele>1265.14</ele>
        <time>2018-09-09T08:49:59Z</time>
      </trkpt>
      <trkpt lat="45.20488" lon="6.07104">
        <ele>1266.26</ele>
        <time>2018-09-09T08:50:00Z</time>
      </trkpt>
      <trkpt lat="45.20473" lon="6.0715">
        <ele>1267.61</ele>
        <time>2018-09-09T08:50:02Z</time>
      </trkpt>
      <trkpt lat="45.20464" lon="6.07196">
        <ele>1269.83</ele>
        <time>2018-09-09T08:50:04Z</time>
      </trkpt>
      <trkpt lat="45.20446" lon="6.07233">
        <ele>1270.66</ele>
        <time>2018-09-09T08:50:06Z</time>
      </trkpt>
      <trkpt lat="45.2043" lon="6.07264">
        <ele>1270.52</ele>
        <time>2018-09-09T08:50:08Z</time>
      </trkpt>
      <trkpt lat="45.20425" lon="6.07298">
        <ele>1270.72</ele>
        <time>2018-09-09T08:50:10Z</time>
      </trkpt>
      <trkpt lat="45.20438" lon="6.0733">
        <ele>1273.26</ele>
        <time>2018-09-09T08:50:12Z</time>
      </trkpt>
      <trkpt lat="45.20436" lon="6.07356">
        <ele>1277.62</ele>
        <time>2018-09-09T08:50:14Z</time>
      </trkpt>
      <trkpt lat="45.20423" lon="6.07383">
        <ele>1280.95</ele>
        <time>2018-09-09T08:50:16Z</time>
      </trkpt>
      <trkpt lat="45.20404" lon="6.07415">
        <ele>1286.5</ele>
        <time>2018-09-09T08:50:18Z</time>
      </trkpt>
      <trkpt lat="45.20385" lon="6.07446">
        <ele>1289.45</ele>
        <time>2018-09-09T08:50:20Z</time>
      </trkpt>
      <trkpt lat="45.20376" lon="6.07481">
        <ele>1292.72</ele>
        <time>2018-09-09T08:50:22Z</time>
      </trkpt>
      <trkpt lat="45.20364" lon="6.07517">
        <ele>1296.17</ele>
        <time>2018-09-09T08:50:24Z</time>
      </trkpt>
      <trkpt lat="45.20343" lon="6.07542">
        <ele>1301.73</ele>
        <time>2018-09-09T08:50:26Z</time>
      </trkpt>
      <trkpt lat="45.20319" lon="6.07564">
        <ele>1305.87</ele>
        <time>2018-09-09T08:50:28Z</time>
      </trkpt>
      <trkpt lat="45.20295" lon="6.07588">
        <ele>1308.97</ele>
        <time>2018-09-09T08:50:30Z</time>
      </trkpt>
      <trkpt lat="45.20271" lon="6.07613">
        <ele>1312.89</ele>
        <time>2018-09-09T08:50:32Z</time>
      </trkpt>
      <trkpt lat="45.20253" lon="6.07644">
        <ele>1317.58</ele>
        <time>2018-09-09T08:50:34Z</time>
      </trkpt>
      <trkpt lat="45.20231" lon="6.07668">
        <ele>1322.77</ele>
        <time>2018-09-09T08:50:36Z</time>
      </trkpt>
      <trkpt lat="45.20209" lon="6.07668">
        <ele>1326.87</ele>
        <time>2018-09-09T08:50:38Z</time>
      </trkpt>
      <trkpt lat="45.20188" lon="6.07668">
        <ele>1329.6</ele>
        <time>2018-09-09T08:50:41Z</time>
      </trkpt>
      <trkpt lat="45.20197" lon="6.07693">
        <ele>1331.41</ele>
        <time>2018-09-09T08:50:44Z</time>
      </trkpt>
      <trkpt lat="45.2022" lon="6.07708">
        <ele>1334.93</ele>
        <time>2018-09-09T08:50:46Z</time>
      </trkpt>
      <trkpt lat="45.20247" lon="6.07716">
        <ele>1336.58</ele>
        <time>2018-09-09T08:50:48Z</time>
      </trkpt>
      <trkpt lat="45.20277" lon="6.07696">
        <ele>1338.13</ele>
        <time>2018-09-09T08:50:50Z</time>
      </trkpt>
      <trkpt lat="45.20305" lon="6.0768">
        <ele>1341.21</ele>
        <time>2018-09-09T08:50:52Z</time>
      </trkpt>
      <trkpt lat="45.20332" lon="6.0766">
        <ele>1344.7</ele>
        <time>2018-09-09T08:50:54Z</time>
      </trkpt>
      <trkpt lat="45.20354" lon="6.07644">
        <ele>1349.08</ele>
        <time>2018-09-09T08:50:56Z</time>
      </trkpt>
      <trkpt lat="45.20373" lon="6.07636">
        <ele>1353.28</ele>
        <time>2018-09-09T08:50:59Z</time>
      </trkpt>
      <trkpt lat="45.20364" lon="6.0766">
        <ele>1358.16</ele>
        <time>2018-09-09T08:51:03Z</time>
      </trkpt>
      <trkpt lat="45.20345" lon="6.07675">
        <ele>1361</ele>
        <time>2018-09-09T08:51:05Z</time>
      </trkpt>
      <trkpt lat="45.20322" lon="6.07698">
        <ele>1364.19</ele>
        <time>2018-09-09T08:51:07Z</time>
      </trkpt>
      <trkpt lat="45.20296" lon="6.07724">
        <ele>1364.69</ele>
        <time>2018-09-09T08:51:09Z</time>
      </trkpt>
      <trkpt lat="45.20282" lon="6.0774">
        <ele>1365.43</ele>
        <time>2018-09-09T08:51:10Z</time>
      </trkpt>
      <trkpt lat="45.20255" lon="6.07771">
        <ele>1366.41</ele>
        <time>2018-09-09T08:51:12Z</time>
      </trkpt>
      <trkpt lat="45.20228" lon="6.07805">
        <ele>1369.23</ele>
        <time>2018-09-09T08:51:14Z</time>
      </trkpt>
      <trkpt lat="45.20201" lon="6.07838">
        <ele>1370.4</ele>
        <time>2018-09-09T08:51:16Z</time>
      </trkpt>
      <trkpt lat="45.20177" lon="6.07869">
        <ele>1371.41</ele>
        <time>2018-09-09T08:51:18Z</time>
      </trkpt>
      <trkpt lat="45.20158" lon="6.07893">
        <ele>1372.41</ele>
        <time>2018-09-09T08:51:20Z</time>
      </trkpt>
      <trkpt lat="45.20142" lon="6.0792">
        <ele>1375.51</ele>
        <time>2018-09-09T08:51:22Z</time>
      </trkpt>
      <trkpt lat="45.20128" lon="6.07957">
        <ele>1377.54</ele>
        <time>2018-09-09T08:51:24Z</time>
      </trkpt>
      <trkpt lat="45.20131" lon="6.07986">
        <ele>1377.68</ele>
        <time>2018-09-09T08:51:25Z</time>
      </trkpt>
      <trkpt lat="45.2013" lon="6.08012">
        <ele>1379.12</ele>
        <time>2018-09-09T08:51:26Z</time>
      </trkpt>
      <trkpt lat="45.20124" lon="6.08037">
        <ele>1380.26</ele>
        <time>2018-09-09T08:51:27Z</time>
      </trkpt>
      <trkpt lat="45.20119" lon="6.08062">
        <ele>1380.6</ele>
        <time>2018-09-09T08:51:28Z</time>
      </trkpt>
      <trkpt lat="45.20113" lon="6.08088">
        <ele>1382.1</ele>
        <time>2018-09-09T08:51:29Z</time>
      </trkpt>
      <trkpt lat="45.20111" lon="6.08114">
        <ele>1384.65</ele>
        <time>2018-09-09T08:51:30Z</time>
      </trkpt>
      <trkpt lat="45.20111" lon="6.0814">
        <ele>1386.11</ele>
        <time>2018-09-09T08:51:31Z</time>
      </trkpt>
      <trkpt lat="45.20113" lon="6.08166">
        <ele>1387.25</ele>
        <time>2018-09-09T08:51:32Z</time>
      </trkpt>
      <trkpt lat="45.20117" lon="6.08192">
        <ele>1388.29</ele>
        <time>2018-09-09T08:51:33Z</time>
      </trkpt>
      <trkpt lat="45.20121" lon="6.08219">
        <ele>1390.01</ele>
        <time>2018-09-09T08:51:34Z</time>
      </trkpt>
      <trkpt lat="45.20124" lon="6.08245">
        <ele>1391.92</ele>
        <time>2018-09-09T08:51:35Z</time>
      </trkpt>
      <trkpt lat="45.20125" lon="6.08271">
        <ele>1394.59</ele>
        <time>2018-09-09T08:51:36Z</time>
      </trkpt>
      <trkpt lat="45.20123" lon="6.08317">
        <ele>1400.26</ele>
        <time>2018-09-09T08:51:38Z</time>
      </trkpt>
      <trkpt lat="45.20111" lon="6.08357">
        <ele>1405.53</ele>
        <time>2018-09-09T08:51:40Z</time>
      </trkpt>
      <trkpt lat="45.20102" lon="6.08402">
        <ele>1408.94</ele>
        <time>2018-09-09T08:51:42Z</time>
      </trkpt>
      <trkpt lat="45.20099" lon="6.08444">
        <ele>1411.49</ele>
        <time>2018-09-09T08:51:44Z</time>
      </trkpt>
      <trkpt lat="45.20113" lon="6.0848">
        <ele>1416.06</ele>
        <time>2018-09-09T08:51:46Z</time>
      </trkpt>
      <trkpt lat="45.20127" lon="6.08522">
        <ele>1420.11</ele>
        <time>2018-09-09T08:51:48Z</time>
      </trkpt>
      <trkpt lat="45.20146" lon="6.08561">
        <ele>1422.08</ele>
        <time>2018-09-09T08:51:50Z</time>
      </trkpt>
      <trkpt lat="45.20168" lon="6.08599">
        <ele>1425.2</ele>
        <time>2018-09-09T08:51:52Z</time>
      </trkpt>
      <trkpt lat="45.20192" lon="6.08636">
        <ele>1427.3</ele>
        <time>2018-09-09T08:51:54Z</time>
      </trkpt>
      <trkpt lat="45.20207" lon="6.08653">
        <ele>1427.61</ele>
        <time>2018-09-09T08:51:55Z</time>
      </trkpt>
      <trkpt lat="45.20221" lon="6.0867">
        <ele>1428.4</ele>
        <time>2018-09-09T08:51:56Z</time>
      </trkpt>
      <trkpt lat="45.20235" lon="6.08687">
        <ele>1428.64</ele>
        <time>2018-09-09T08:51:57Z</time>
      </trkpt>
      <trkpt lat="45.2025" lon="6.08704">
        <ele>1429.41</ele>
        <time>2018-09-09T08:51:58Z</time>
      </trkpt>
      <trkpt lat="45.20266" lon="6.08721">
        <ele>1430.34</ele>
        <time>2018-09-09T08:51:59Z</time>
      </trkpt>
      <trkpt lat="45.20282" lon="6.08737">
        <ele>1432.02</ele>
        <time>2018-09-09T08:52:00Z</time>
      </trkpt>
      <trkpt lat="45.20298" lon="6.08752">
        <ele>1432.53</ele>
        <time>2018-09-09T08:52:01Z</time>
      </trkpt>
      <trkpt lat="45.20312" lon="6.08769">
        <ele>1433.38</ele>
        <time>2018-09-09T08:52:02Z</time>
      </trkpt>
      <trkpt lat="45.20337" lon="6.08805">
        <ele>1434.41</ele>
        <time>2018-09-09T08:52:04Z</time>
      </trkpt>
      <trkpt lat="45.2035" lon="6.08844">
        <ele>1436.32</ele>
        <time>2018-09-09T08:52:06Z</time>
      </trkpt>
      <trkpt lat="45.20353" lon="6.08886">
        <ele>1439.92</ele>
        <time>2018-09-09T08:52:08Z</time>
      </trkpt>
      <trkpt lat="45.20358" lon="6.08927">
        <ele>1440.67</ele>
        <time>2018-09-09T08:52:10Z</time>
      </trkpt>
      <trkpt lat="45.2037" lon="6.08964">
        <ele>1443.04</ele>
        <time>2018-09-09T08:52:12Z</time>
      </trkpt>
      <trkpt lat="45.20375" lon="6.09002">
        <ele>1445.29</ele>
        <time>2018-09-09T08:52:14Z</time>
      </trkpt>
      <trkpt lat="45.20372" lon="6.09043">
        <ele>1446.61</ele>
        <time>2018-09-09T08:52:16Z</time>
      </trkpt>
      <trkpt lat="45.20377" lon="6.09085">
        <ele>1449.46</ele>
        <time>2018-09-09T08:52:18Z</time>
      </trkpt>
      <trkpt lat="45.20398" lon="6.09119">
        <ele>1453.15</ele>
        <time>2018-09-09T08:52:20Z</time>
      </trkpt>
      <trkpt lat="45.20408" lon="6.09171">
        <ele>1456.7</ele>
        <time>2018-09-09T08:52:22Z</time>
      </trkpt>
      <trkpt lat="45.20413" lon="6.09201">
        <ele>1459.53</ele>
        <time>2018-09-09T08:52:23Z</time>
      </trkpt>
      <trkpt lat="45.2042" lon="6.0923">
        <ele>1461.08</ele>
        <time>2018-09-09T08:52:24Z</time>
      </trkpt>
      <trkpt lat="45.20427" lon="6.09258">
        <ele>1463.64</ele>
        <time>2018-09-09T08:52:25Z</time>
      </trkpt>
      <trkpt lat="45.20434" lon="6.09285">
        <ele>1466.51</ele>
        <time>2018-09-09T08:52:26Z</time>
      </trkpt>
      <trkpt lat="45.20443" lon="6.09311">
        <ele>1468.77</ele>
        <time>2018-09-09T08:52:27Z</time>
      </trkpt>
      <trkpt lat="45.20453" lon="6.09337">
        <ele>1471.55</ele>
        <time>2018-09-09T08:52:28Z</time>
      </trkpt>
      <trkpt lat="45.2046" lon="6.09365">
        <ele>1475.88</ele>
        <time>2018-09-09T08:52:29Z</time>
      </trkpt>
      <trkpt lat="45.20465" lon="6.09394">
        <ele>1478.58</ele>
        <time>2018-09-09T08:52:30Z</time>
      </trkpt>
      <trkpt lat="45.20468" lon="6.09423">
        <ele>1481.49</ele>
        <time>2018-09-09T08:52:31Z</time>
      </trkpt>
      <trkpt lat="45.20469" lon="6.09452">
        <ele>1484.47</ele>
        <time>2018-09-09T08:52:32Z</time>
      </trkpt>
      <trkpt lat="45.20469" lon="6.09481">
        <ele>1486.76</ele>
        <time>2018-09-09T08:52:33Z</time>
      </trkpt>
      <trkpt lat="45.20467" lon="6.09509">
        <ele>1489.55</ele>
        <time>2018-09-09T08:52:34Z</time>
      </trkpt>
      <trkpt lat="45.20465" lon="6.09536">
        <ele>1491.78</ele>
        <time>2018-09-09T08:52:35Z</time>
      </trkpt>
      <trkpt lat="45.20462" lon="6.09564">
        <ele>1493.85</ele>
        <time>2018-09-09T08:52:36Z</time>
      </trkpt>
      <trkpt lat="45.20458" lon="6.09592">
        <ele>1495.17</ele>
        <time>2018-09-09T08:52:37Z</time>
      </trkpt>
      <trkpt lat="45.20455" lon="6.09619">
        <ele>1497.67</ele>
        <time>2018-09-09T08:52:38Z</time>
      </trkpt>
      <trkpt lat="45.20453" lon="6.09646">
        <ele>1499.12</ele>
        <time>2018-09-09T08:52:39Z</time>
      </trkpt>
      <trkpt lat="45.20454" lon="6.09672">
        <ele>1500.95</ele>
        <time>2018-09-09T08:52:40Z</time>
      </trkpt>
      <trkpt lat="45.20457" lon="6.09721">
        <ele>1505.1</ele>
        <time>2018-09-09T08:52:42Z</time>
      </trkpt>
      <trkpt lat="45.20451" lon="6.09769">
        <ele>1507.78</ele>
        <time>2018-09-09T08:52:44Z</time>
      </trkpt>
      <trkpt lat="45.20445" lon="6.09794">
        <ele>1509.85</ele>
        <time>2018-09-09T08:52:45Z</time>
      </trkpt>
      <trkpt lat="45.2044" lon="6.0982">
        <ele>1512.57</ele>
        <time>2018-09-09T08:52:46Z</time>
      </trkpt>
      <trkpt lat="45.20436" lon="6.09847">
        <ele>1515.49</ele>
        <time>2018-09-09T08:52:47Z</time>
      </trkpt>
      <trkpt lat="45.20434" lon="6.09874">
        <ele>1517.77</ele>
        <time>2018-09-09T08:52:48Z</time>
      </trkpt>
      <trkpt lat="45.20435" lon="6.09902">
        <ele>1520.55</ele>
        <time>2018-09-09T08:52:49Z</time>
      </trkpt>
      <trkpt lat="45.20437" lon="6.09931">
        <ele>1522.78</ele>
        <time>2018-09-09T08:52:50Z</time>
      </trkpt>
      <trkpt lat="45.20438" lon="6.09959">
        <ele>1525.55</ele>
        <time>2018-09-09T08:52:51Z</time>
      </trkpt>
      <trkpt lat="45.2044" lon="6.09987">
        <ele>1527.78</ele>
        <time>2018-09-09T08:52:52Z</time>
      </trkpt>
      <trkpt lat="45.20443" lon="6.10015">
        <ele>1529.85</ele>
        <time>2018-09-09T08:52:53Z</time>
      </trkpt>
      <trkpt lat="45.20445" lon="6.10043">
        <ele>1531.88</ele>
        <time>2018-09-09T08:52:54Z</time>
      </trkpt>
      <trkpt lat="45.20447" lon="6.10071">
        <ele>1533.88</ele>
        <time>2018-09-09T08:52:55Z</time>
      </trkpt>
      <trkpt lat="45.20449" lon="6.10097">
        <ele>1535.88</ele>
        <time>2018-09-09T08:52:56Z</time>
      </trkpt>
      <trkpt lat="45.20452" lon="6.10145">
        <ele>1539.67</ele>
        <time>2018-09-09T08:52:58Z</time>
      </trkpt>
      <trkpt lat="45.20457" lon="6.10187">
        <ele>1541.55</ele>
        <time>2018-09-09T08:53:00Z</time>
      </trkpt>
      <trkpt lat="45.20472" lon="6.10224">
        <ele>1543.33</ele>
        <time>2018-09-09T08:53:02Z</time>
      </trkpt>
      <trkpt lat="45.20489" lon="6.10264">
        <ele>1546.22</ele>
        <time>2018-09-09T08:53:04Z</time>
      </trkpt>
      <trkpt lat="45.20504" lon="6.10306">
        <ele>1548.3</ele>
        <time>2018-09-09T08:53:06Z</time>
      </trkpt>
      <trkpt lat="45.20519" lon="6.1035">
        <ele>1551.92</ele>
        <time>2018-09-09T08:53:08Z</time>
      </trkpt>
      <trkpt lat="45.20532" lon="6.10392">
        <ele>1554.28</ele>
        <time>2018-09-09T08:53:10Z</time>
      </trkpt>
      <trkpt lat="45.20542" lon="6.10435">
        <ele>1557.01</ele>
        <time>2018-09-09T08:53:12Z</time>
      </trkpt>
      <trkpt lat="45.20551" lon="6.10477">
        <ele>1560.2</ele>
        <time>2018-09-09T08:53:14Z</time>
      </trkpt>
      <trkpt lat="45.20564" lon="6.10517">
        <ele>1563</ele>
        <time>2018-09-09T08:53:16Z</time>
      </trkpt>
      <trkpt lat="45.20579" lon="6.10556">
        <ele>1566.19</ele>
        <time>2018-09-09T08:53:18Z</time>
      </trkpt>
      <trkpt lat="45.20594" lon="6.10596">
        <ele>1569.21</ele>
        <time>2018-09-09T08:53:20Z</time>
      </trkpt>
      <trkpt lat="45.2061" lon="6.10636">
        <ele>1572.21</ele>
        <time>2018-09-09T08:53:22Z</time>
      </trkpt>
      <trkpt lat="45.20628" lon="6.10673">
        <ele>1575.21</ele>
        <time>2018-09-09T08:53:24Z</time>
      </trkpt>
      <trkpt lat="45.20645" lon="6.10712">
        <ele>1577.3</ele>
        <time>2018-09-09T08:53:26Z</time>
      </trkpt>
      <trkpt lat="45.20658" lon="6.10756">
        <ele>1580.01</ele>
        <time>2018-09-09T08:53:28Z</time>
      </trkpt>
      <trkpt lat="45.20669" lon="6.108">
        <ele>1583.2</ele>
        <time>2018-09-09T08:53:30Z</time>
      </trkpt>
      <trkpt lat="45.20677" lon="6.10839">
        <ele>1585.09</ele>
        <time>2018-09-09T08:53:32Z</time>
      </trkpt>
      <trkpt lat="45.20676" lon="6.10871">
        <ele>1586.59</ele>
        <time>2018-09-09T08:53:34Z</time>
      </trkpt>
      <trkpt lat="45.20687" lon="6.10895">
        <ele>1588.43</ele>
        <time>2018-09-09T08:53:38Z</time>
      </trkpt>
      <trkpt lat="45.20695" lon="6.10863">
        <ele>1589.65</ele>
        <time>2018-09-09T08:53:42Z</time>
      </trkpt>
      <trkpt lat="45.20687" lon="6.10831">
        <ele>1591.13</ele>
        <time>2018-09-09T08:53:44Z</time>
      </trkpt>
      <trkpt lat="45.2068" lon="6.10786">
        <ele>1591.69</ele>
        <time>2018-09-09T08:53:46Z</time>
      </trkpt>
      <trkpt lat="45.20675" lon="6.10735">
        <ele>1594.05</ele>
        <time>2018-09-09T08:53:48Z</time>
      </trkpt>
      <trkpt lat="45.20671" lon="6.10708">
        <ele>1594.53</ele>
        <time>2018-09-09T08:53:49Z</time>
      </trkpt>
      <trkpt lat="45.20666" lon="6.10682">
        <ele>1596.08</ele>
        <time>2018-09-09T08:53:50Z</time>
      </trkpt>
      <trkpt lat="45.20661" lon="6.10655">
        <ele>1598.64</ele>
        <time>2018-09-09T08:53:51Z</time>
      </trkpt>
      <trkpt lat="45.20656" lon="6.10627">
        <ele>1600.11</ele>
        <time>2018-09-09T08:53:52Z</time>
      </trkpt>
      <trkpt lat="45.20654" lon="6.106">
        <ele>1602.65</ele>
        <time>2018-09-09T08:53:53Z</time>
      </trkpt>
      <trkpt lat="45.20652" lon="6.10574">
        <ele>1604.11</ele>
        <time>2018-09-09T08:53:54Z</time>
      </trkpt>
      <trkpt lat="45.20639" lon="6.1053">
        <ele>1606.99</ele>
        <time>2018-09-09T08:53:56Z</time>
      </trkpt>
      <trkpt lat="45.20625" lon="6.10489">
        <ele>1610.19</ele>
        <time>2018-09-09T08:53:58Z</time>
      </trkpt>
      <trkpt lat="45.20616" lon="6.10444">
        <ele>1614.61</ele>
        <time>2018-09-09T08:54:00Z</time>
      </trkpt>
      <trkpt lat="45.20604" lon="6.10401">
        <ele>1615.64</ele>
        <time>2018-09-09T08:54:02Z</time>
      </trkpt>
      <trkpt lat="45.20589" lon="6.10372">
        <ele>1618.25</ele>
        <time>2018-09-09T08:54:04Z</time>
      </trkpt>
      <trkpt lat="45.20575" lon="6.10349">
        <ele>1620.52</ele>
        <time>2018-09-09T08:54:06Z</time>
      </trkpt>
      <trkpt lat="45.20573" lon="6.10322">
        <ele>1623.59</ele>
        <time>2018-09-09T08:54:09Z</time>
      </trkpt>
      <trkpt lat="45.2059" lon="6.10352">
        <ele>1624.72</ele>
        <time>2018-09-09T08:54:14Z</time>
      </trkpt>
      <trkpt lat="45.20603" lon="6.10382">
        <ele>1625.65</ele>
        <time>2018-09-09T08:54:16Z</time>
      </trkpt>
      <trkpt lat="45.20619" lon="6.10419">
        <ele>1627.34</ele>
        <time>2018-09-09T08:54:18Z</time>
      </trkpt>
      <trkpt lat="45.20633" lon="6.10458">
        <ele>1629.32</ele>
        <time>2018-09-09T08:54:20Z</time>
      </trkpt>
      <trkpt lat="45.20652" lon="6.10497">
        <ele>1631.1</ele>
        <time>2018-09-09T08:54:22Z</time>
      </trkpt>
      <trkpt lat="45.20675" lon="6.10535">
        <ele>1633.99</ele>
        <time>2018-09-09T08:54:24Z</time>
      </trkpt>
      <trkpt lat="45.20693" lon="6.10579">
        <ele>1636.98</ele>
        <time>2018-09-09T08:54:26Z</time>
      </trkpt>
      <trkpt lat="45.20706" lon="6.10624">
        <ele>1639.98</ele>
        <time>2018-09-09T08:54:28Z</time>
      </trkpt>
      <trkpt lat="45.20721" lon="6.10668">
        <ele>1642.28</ele>
        <time>2018-09-09T08:54:30Z</time>
      </trkpt>
      <trkpt lat="45.20738" lon="6.10712">
        <ele>1643.61</ele>
        <time>2018-09-09T08:54:32Z</time>
      </trkpt>
      <trkpt lat="45.20748" lon="6.1076">
        <ele>1646.04</ele>
        <time>2018-09-09T08:54:34Z</time>
      </trkpt>
      <trkpt lat="45.20754" lon="6.10808">
        <ele>1648.29</ele>
        <time>2018-09-09T08:54:36Z</time>
      </trkpt>
      <trkpt lat="45.20767" lon="6.10852">
        <ele>1650.31</ele>
        <time>2018-09-09T08:54:38Z</time>
      </trkpt>
      <trkpt lat="45.2078" lon="6.10897">
        <ele>1653.22</ele>
        <time>2018-09-09T08:54:40Z</time>
      </trkpt>
      <trkpt lat="45.20789" lon="6.10939">
        <ele>1656.21</ele>
        <time>2018-09-09T08:54:42Z</time>
      </trkpt>
      <trkpt lat="45.20788" lon="6.10978">
        <ele>1659.21</ele>
        <time>2018-09-09T08:54:44Z</time>
      </trkpt>
      <trkpt lat="45.20782" lon="6.11016">
        <ele>1661.3</ele>
        <time>2018-09-09T08:54:46Z</time>
      </trkpt>
      <trkpt lat="45.20783" lon="6.1106">
        <ele>1662.61</ele>
        <time>2018-09-09T08:54:48Z</time>
      </trkpt>
      <trkpt lat="45.2078" lon="6.11105">
        <ele>1665.25</ele>
        <time>2018-09-09T08:54:50Z</time>
      </trkpt>
      <trkpt lat="45.20775" lon="6.11142">
        <ele>1666.61</ele>
        <time>2018-09-09T08:54:52Z</time>
      </trkpt>
      <trkpt lat="45.20772" lon="6.11167">
        <ele>1667.71</ele>
        <time>2018-09-09T08:54:56Z</time>
      </trkpt>
      <trkpt lat="45.20781" lon="6.112">
        <ele>1673.59</ele>
        <time>2018-09-09T08:55:46Z</time>
      </trkpt>
      <trkpt lat="45.20786" lon="6.11226">
        <ele>1676.04</ele>
        <time>2018-09-09T08:55:48Z</time>
      </trkpt>
      <trkpt lat="45.20792" lon="6.11255">
        <ele>1678.29</ele>
        <time>2018-09-09T08:55:50Z</time>
      </trkpt>
      <trkpt lat="45.20797" lon="6.11287">
        <ele>1678.7</ele>
        <time>2018-09-09T08:55:52Z</time>
      </trkpt>
      <trkpt lat="45.20797" lon="6.11321">
        <ele>1679.65</ele>
        <time>2018-09-09T08:55:54Z</time>
      </trkpt>
      <trkpt lat="45.20791" lon="6.1135">
        <ele>1679.52</ele>
        <time>2018-09-09T08:55:56Z</time>
      </trkpt>
      <trkpt lat="45.20794" lon="6.1138">
        <ele>1680.84</ele>
        <time>2018-09-09T08:55:58Z</time>
      </trkpt>
      <trkpt lat="45.20802" lon="6.11411">
        <ele>1681.66</ele>
        <time>2018-09-09T08:56:00Z</time>
      </trkpt>
      <trkpt lat="45.20807" lon="6.11442">
        <ele>1683.13</ele>
        <time>2018-09-09T08:56:02Z</time>
      </trkpt>
      <trkpt lat="45.20813" lon="6.11473">
        <ele>1683.69</ele>
        <time>2018-09-09T08:56:04Z</time>
      </trkpt>
      <trkpt lat="45.20824" lon="6.11503">
        <ele>1683.74</ele>
        <time>2018-09-09T08:56:06Z</time>
      </trkpt>
      <trkpt lat="45.20833" lon="6.11537">
        <ele>1684.65</ele>
        <time>2018-09-09T08:56:08Z</time>
      </trkpt>
      <trkpt lat="45.2084" lon="6.11573">
        <ele>1684.73</ele>
        <time>2018-09-09T08:56:10Z</time>
      </trkpt>
      <trkpt lat="45.20845" lon="6.11608">
        <ele>1685.65</ele>
        <time>2018-09-09T08:56:12Z</time>
      </trkpt>
      <trkpt lat="45.20849" lon="6.11644">
        <ele>1687.34</ele>
        <time>2018-09-09T08:56:14Z</time>
      </trkpt>
      <trkpt lat="45.20849" lon="6.11676">
        <ele>1688.41</ele>
        <time>2018-09-09T08:56:16Z</time>
      </trkpt>
      <trkpt lat="45.20844" lon="6.11701">
        <ele>1688.73</ele>
        <time>2018-09-09T08:56:19Z</time>
      </trkpt>
      <trkpt lat="45.20852" lon="6.11731">
        <ele>1688.43</ele>
        <time>2018-09-09T08:59:31Z</time>
      </trkpt>
      <trkpt lat="45.20849" lon="6.11767">
        <ele>1689.71</ele>
        <time>2018-09-09T08:59:34Z</time>
      </trkpt>
      <trkpt lat="45.20846" lon="6.11793">
        <ele>1689.74</ele>
        <time>2018-09-09T08:59:36Z</time>
      </trkpt>
      <trkpt lat="45.20844" lon="6.11831">
        <ele>1690.44</ele>
        <time>2018-09-09T08:59:39Z</time>
      </trkpt>
      <trkpt lat="45.20853" lon="6.11867">
        <ele>1690.8</ele>
        <time>2018-09-09T08:59:42Z</time>
      </trkpt>
      <trkpt lat="45.20863" lon="6.11893">
        <ele>1690.05</ele>
        <time>2018-09-09T08:59:44Z</time>
      </trkpt>
      <trkpt lat="45.20864" lon="6.1192">
        <ele>1688.86</ele>
        <time>2018-09-09T08:59:46Z</time>
      </trkpt>
      <trkpt lat="45.20861" lon="6.1195">
        <ele>1688.54</ele>
        <time>2018-09-09T08:59:48Z</time>
      </trkpt>
      <trkpt lat="45.20859" lon="6.11983">
        <ele>1689.42</ele>
        <time>2018-09-09T08:59:50Z</time>
      </trkpt>
      <trkpt lat="45.2086" lon="6.12017">
        <ele>1691.32</ele>
        <time>2018-09-09T08:59:52Z</time>
      </trkpt>
      <trkpt lat="45.20865" lon="6.12053">
        <ele>1690.79</ele>
        <time>2018-09-09T08:59:54Z</time>
      </trkpt>
      <trkpt lat="45.20872" lon="6.12088">
        <ele>1692.36</ele>
        <time>2018-09-09T08:59:56Z</time>
      </trkpt>
      <trkpt lat="45.20882" lon="6.12124">
        <ele>1692.71</ele>
        <time>2018-09-09T08:59:58Z</time>
      </trkpt>
      <trkpt lat="45.20891" lon="6.12159">
        <ele>1694.35</ele>
        <time>2018-09-09T09:00:00Z</time>
      </trkpt>
      <trkpt lat="45.20901" lon="6.12193">
        <ele>1695.41</ele>
        <time>2018-09-09T09:00:02Z</time>
      </trkpt>
      <trkpt lat="45.20915" lon="6.12229">
        <ele>1695.71</ele>
        <time>2018-09-09T09:00:04Z</time>
      </trkpt>
      <trkpt lat="45.20931" lon="6.12265">
        <ele>1697.35</ele>
        <time>2018-09-09T09:00:06Z</time>
      </trkpt>
      <trkpt lat="45.20946" lon="6.12301">
        <ele>1698.41</ele>
        <time>2018-09-09T09:00:08Z</time>
      </trkpt>
      <trkpt lat="45.20962" lon="6.1234">
        <ele>1699.41</ele>
        <time>2018-09-09T09:00:10Z</time>
      </trkpt>
      <trkpt lat="45.20976" lon="6.12381">
        <ele>1700.62</ele>
        <time>2018-09-09T09:00:12Z</time>
      </trkpt>
      <trkpt lat="45.20991" lon="6.12422">
        <ele>1702.34</ele>
        <time>2018-09-09T09:00:14Z</time>
      </trkpt>
      <trkpt lat="45.21003" lon="6.12465">
        <ele>1704.1</ele>
        <time>2018-09-09T09:00:16Z</time>
      </trkpt>
      <trkpt lat="45.21014" lon="6.12509">
        <ele>1706.29</ele>
        <time>2018-09-09T09:00:18Z</time>
      </trkpt>
      <trkpt lat="45.21024" lon="6.12551">
        <ele>1707.61</ele>
        <time>2018-09-09T09:00:20Z</time>
      </trkpt>
      <trkpt lat="45.21038" lon="6.12592">
        <ele>1708.64</ele>
        <time>2018-09-09T09:00:22Z</time>
      </trkpt>
      <trkpt lat="45.21056" lon="6.12632">
        <ele>1710.34</ele>
        <time>2018-09-09T09:00:24Z</time>
      </trkpt>
      <trkpt lat="45.21075" lon="6.12671">
        <ele>1712.32</ele>
        <time>2018-09-09T09:00:26Z</time>
      </trkpt>
      <trkpt lat="45.21095" lon="6.12711">
        <ele>1713.61</ele>
        <time>2018-09-09T09:00:28Z</time>
      </trkpt>
      <trkpt lat="45.21118" lon="6.12746">
        <ele>1715.34</ele>
        <time>2018-09-09T09:00:30Z</time>
      </trkpt>
      <trkpt lat="45.21147" lon="6.12771">
        <ele>1716.4</ele>
        <time>2018-09-09T09:00:32Z</time>
      </trkpt>
      <trkpt lat="45.21178" lon="6.12783">
        <ele>1718.53</ele>
        <time>2018-09-09T09:00:34Z</time>
      </trkpt>
      <trkpt lat="45.21198" lon="6.12818">
        <ele>1720.33</ele>
        <time>2018-09-09T09:00:36Z</time>
      </trkpt>
      <trkpt lat="45.21216" lon="6.12859">
        <ele>1722.52</ele>
        <time>2018-09-09T09:00:38Z</time>
      </trkpt>
      <trkpt lat="45.21229" lon="6.12877">
        <ele>1724.08</ele>
        <time>2018-09-09T09:00:39Z</time>
      </trkpt>
      <trkpt lat="45.21243" lon="6.12894">
        <ele>1724.54</ele>
        <time>2018-09-09T09:00:40Z</time>
      </trkpt>
      <trkpt lat="45.21258" lon="6.1291">
        <ele>1726.08</ele>
        <time>2018-09-09T09:00:41Z</time>
      </trkpt>
      <trkpt lat="45.21273" lon="6.12929">
        <ele>1727.24</ele>
        <time>2018-09-09T09:00:42Z</time>
      </trkpt>
      <trkpt lat="45.21289" lon="6.12947">
        <ele>1728.29</ele>
        <time>2018-09-09T09:00:43Z</time>
      </trkpt>
      <trkpt lat="45.21304" lon="6.12965">
        <ele>1730.01</ele>
        <time>2018-09-09T09:00:44Z</time>
      </trkpt>
      <trkpt lat="45.21321" lon="6.12982">
        <ele>1731.22</ele>
        <time>2018-09-09T09:00:45Z</time>
      </trkpt>
      <trkpt lat="45.21337" lon="6.13">
        <ele>1732.98</ele>
        <time>2018-09-09T09:00:46Z</time>
      </trkpt>
      <trkpt lat="45.21354" lon="6.13016">
        <ele>1734.21</ele>
        <time>2018-09-09T09:00:47Z</time>
      </trkpt>
      <trkpt lat="45.21371" lon="6.13032">
        <ele>1735.28</ele>
        <time>2018-09-09T09:00:48Z</time>
      </trkpt>
      <trkpt lat="45.21388" lon="6.13047">
        <ele>1736.3</ele>
        <time>2018-09-09T09:00:49Z</time>
      </trkpt>
      <trkpt lat="45.21404" lon="6.13063">
        <ele>1737.31</ele>
        <time>2018-09-09T09:00:50Z</time>
      </trkpt>
      <trkpt lat="45.21419" lon="6.1308">
        <ele>1737.61</ele>
        <time>2018-09-09T09:00:51Z</time>
      </trkpt>
      <trkpt lat="45.21433" lon="6.13098">
        <ele>1739.1</ele>
        <time>2018-09-09T09:00:52Z</time>
      </trkpt>
      <trkpt lat="45.21449" lon="6.13112">
        <ele>1740.25</ele>
        <time>2018-09-09T09:00:53Z</time>
      </trkpt>
      <trkpt lat="45.21466" lon="6.13124">
        <ele>1740.59</ele>
        <time>2018-09-09T09:00:54Z</time>
      </trkpt>
      <trkpt lat="45.21485" lon="6.13133">
        <ele>1742.1</ele>
        <time>2018-09-09T09:00:55Z</time>
      </trkpt>
      <trkpt lat="45.21505" lon="6.13143">
        <ele>1743.25</ele>
        <time>2018-09-09T09:00:56Z</time>
      </trkpt>
      <trkpt lat="45.21524" lon="6.13152">
        <ele>1743.59</ele>
        <time>2018-09-09T09:00:57Z</time>
      </trkpt>
      <trkpt lat="45.21543" lon="6.13163">
        <ele>1745.1</ele>
        <time>2018-09-09T09:00:58Z</time>
      </trkpt>
      <trkpt lat="45.21562" lon="6.13175">
        <ele>1746.25</ele>
        <time>2018-09-09T09:00:59Z</time>
      </trkpt>
      <trkpt lat="45.2158" lon="6.13188">
        <ele>1747.99</ele>
        <time>2018-09-09T09:01:00Z</time>
      </trkpt>
      <trkpt lat="45.21599" lon="6.13202">
        <ele>1749.22</ele>
        <time>2018-09-09T09:01:01Z</time>
      </trkpt>
      <trkpt lat="45.21617" lon="6.13216">
        <ele>1750.28</ele>
        <time>2018-09-09T09:01:02Z</time>
      </trkpt>
      <trkpt lat="45.21635" lon="6.13229">
        <ele>1750.6</ele>
        <time>2018-09-09T09:01:03Z</time>
      </trkpt>
      <trkpt lat="45.21652" lon="6.13242">
        <ele>1752.1</ele>
        <time>2018-09-09T09:01:04Z</time>
      </trkpt>
      <trkpt lat="45.21669" lon="6.13256">
        <ele>1752.55</ele>
        <time>2018-09-09T09:01:05Z</time>
      </trkpt>
      <trkpt lat="45.21685" lon="6.13271">
        <ele>1752.68</ele>
        <time>2018-09-09T09:01:06Z</time>
      </trkpt>
      <trkpt lat="45.217" lon="6.13286">
        <ele>1752.72</ele>
        <time>2018-09-09T09:01:07Z</time>
      </trkpt>
      <trkpt lat="45.21716" lon="6.13302">
        <ele>1754.14</ele>
        <time>2018-09-09T09:01:08Z</time>
      </trkpt>
      <trkpt lat="45.21732" lon="6.13317">
        <ele>1755.26</ele>
        <time>2018-09-09T09:01:09Z</time>
      </trkpt>
      <trkpt lat="45.21749" lon="6.13331">
        <ele>1756.3</ele>
        <time>2018-09-09T09:01:10Z</time>
      </trkpt>
      <trkpt lat="45.21767" lon="6.13343">
        <ele>1757.31</ele>
        <time>2018-09-09T09:01:11Z</time>
      </trkpt>
      <trkpt lat="45.21784" lon="6.13355">
        <ele>1759.71</ele>
        <time>2018-09-09T09:01:12Z</time>
      </trkpt>
      <trkpt lat="45.21802" lon="6.13368">
        <ele>1761.13</ele>
        <time>2018-09-09T09:01:13Z</time>
      </trkpt>
      <trkpt lat="45.2182" lon="6.13382">
        <ele>1762.26</ele>
        <time>2018-09-09T09:01:14Z</time>
      </trkpt>
      <trkpt lat="45.21837" lon="6.13397">
        <ele>1763.3</ele>
        <time>2018-09-09T09:01:15Z</time>
      </trkpt>
      <trkpt lat="45.21856" lon="6.1341">
        <ele>1764.31</ele>
        <time>2018-09-09T09:01:16Z</time>
      </trkpt>
      <trkpt lat="45.21874" lon="6.13423">
        <ele>1765.31</ele>
        <time>2018-09-09T09:01:17Z</time>
      </trkpt>
      <trkpt lat="45.21891" lon="6.13438">
        <ele>1766.31</ele>
        <time>2018-09-09T09:01:18Z</time>
      </trkpt>
      <trkpt lat="45.21908" lon="6.13454">
        <ele>1767.31</ele>
        <time>2018-09-09T09:01:19Z</time>
      </trkpt>
      <trkpt lat="45.21924" lon="6.1347">
        <ele>1768.31</ele>
        <time>2018-09-09T09:01:20Z</time>
      </trkpt>
      <trkpt lat="45.21941" lon="6.13486">
        <ele>1769.31</ele>
        <time>2018-09-09T09:01:21Z</time>
      </trkpt>
      <trkpt lat="45.21957" lon="6.13502">
        <ele>1769.61</ele>
        <time>2018-09-09T09:01:22Z</time>
      </trkpt>
      <trkpt lat="45.21973" lon="6.13518">
        <ele>1770.4</ele>
        <time>2018-09-09T09:01:23Z</time>
      </trkpt>
      <trkpt lat="45.21989" lon="6.13533">
        <ele>1771.34</ele>
        <time>2018-09-09T09:01:24Z</time>
      </trkpt>
      <trkpt lat="45.22005" lon="6.13547">
        <ele>1772.32</ele>
        <time>2018-09-09T09:01:25Z</time>
      </trkpt>
      <trkpt lat="45.22021" lon="6.13559">
        <ele>1773.31</ele>
        <time>2018-09-09T09:01:26Z</time>
      </trkpt>
      <trkpt lat="45.22039" lon="6.13569">
        <ele>1774.31</ele>
        <time>2018-09-09T09:01:27Z</time>
      </trkpt>
      <trkpt lat="45.22057" lon="6.13578">
        <ele>1774.61</ele>
        <time>2018-09-09T09:01:28Z</time>
      </trkpt>
      <trkpt lat="45.22075" lon="6.13589">
        <ele>1775.4</ele>
        <time>2018-09-09T09:01:29Z</time>
      </trkpt>
      <trkpt lat="45.22093" lon="6.13601">
        <ele>1775.64</ele>
        <time>2018-09-09T09:01:30Z</time>
      </trkpt>
      <trkpt lat="45.2211" lon="6.13614">
        <ele>1775.71</ele>
        <time>2018-09-09T09:01:31Z</time>
      </trkpt>
      <trkpt lat="45.22127" lon="6.13629">
        <ele>1776.43</ele>
        <time>2018-09-09T09:01:32Z</time>
      </trkpt>
      <trkpt lat="45.22144" lon="6.13642">
        <ele>1776.65</ele>
        <time>2018-09-09T09:01:33Z</time>
      </trkpt>
      <trkpt lat="45.22161" lon="6.13652">
        <ele>1776.71</ele>
        <time>2018-09-09T09:01:34Z</time>
      </trkpt>
      <trkpt lat="45.22193" lon="6.1367">
        <ele>1776.74</ele>
        <time>2018-09-09T09:01:36Z</time>
      </trkpt>
      <trkpt lat="45.22218" lon="6.13695">
        <ele>1775.83</ele>
        <time>2018-09-09T09:01:38Z</time>
      </trkpt>
      <trkpt lat="45.22239" lon="6.13732">
        <ele>1775.26</ele>
        <time>2018-09-09T09:01:40Z</time>
      </trkpt>
      <trkpt lat="45.22248" lon="6.13755">
        <ele>1774.9</ele>
        <time>2018-09-09T09:01:41Z</time>
      </trkpt>
      <trkpt lat="45.22256" lon="6.13778">
        <ele>1773.39</ele>
        <time>2018-09-09T09:01:42Z</time>
      </trkpt>
      <trkpt lat="45.22265" lon="6.138">
        <ele>1772.23</ele>
        <time>2018-09-09T09:01:43Z</time>
      </trkpt>
      <trkpt lat="45.22283" lon="6.13842">
        <ele>1771.09</ele>
        <time>2018-09-09T09:01:45Z</time>
      </trkpt>
      <trkpt lat="45.22306" lon="6.13873">
        <ele>1770.07</ele>
        <time>2018-09-09T09:01:47Z</time>
      </trkpt>
      <trkpt lat="45.22337" lon="6.13882">
        <ele>1769.77</ele>
        <time>2018-09-09T09:01:49Z</time>
      </trkpt>
      <trkpt lat="45.22368" lon="6.13869">
        <ele>1769.04</ele>
        <time>2018-09-09T09:01:51Z</time>
      </trkpt>
      <trkpt lat="45.22395" lon="6.13858">
        <ele>1768.07</ele>
        <time>2018-09-09T09:01:53Z</time>
      </trkpt>
      <trkpt lat="45.22419" lon="6.13865">
        <ele>1767.07</ele>
        <time>2018-09-09T09:01:55Z</time>
      </trkpt>
      <trkpt lat="45.22435" lon="6.13893">
        <ele>1766.77</ele>
        <time>2018-09-09T09:01:57Z</time>
      </trkpt>
      <trkpt lat="45.22451" lon="6.13929">
        <ele>1765.13</ele>
        <time>2018-09-09T09:01:59Z</time>
      </trkpt>
      <trkpt lat="45.22467" lon="6.13968">
        <ele>1762.26</ele>
        <time>2018-09-09T09:02:01Z</time>
      </trkpt>
      <trkpt lat="45.22483" lon="6.14011">
        <ele>1760.18</ele>
        <time>2018-09-09T09:02:03Z</time>
      </trkpt>
      <trkpt lat="45.22495" lon="6.14058">
        <ele>1758.17</ele>
        <time>2018-09-09T09:02:05Z</time>
      </trkpt>
      <trkpt lat="45.22505" lon="6.14107">
        <ele>1756.17</ele>
        <time>2018-09-09T09:02:07Z</time>
      </trkpt>
      <trkpt lat="45.2251" lon="6.14132">
        <ele>1755.17</ele>
        <time>2018-09-09T09:02:08Z</time>
      </trkpt>
      <trkpt lat="45.22516" lon="6.14156">
        <ele>1754.17</ele>
        <time>2018-09-09T09:02:09Z</time>
      </trkpt>
      <trkpt lat="45.2253" lon="6.14202">
        <ele>1752.17</ele>
        <time>2018-09-09T09:02:11Z</time>
      </trkpt>
      <trkpt lat="45.22548" lon="6.14245">
        <ele>1751.08</ele>
        <time>2018-09-09T09:02:13Z</time>
      </trkpt>
      <trkpt lat="45.22557" lon="6.14267">
        <ele>1750.14</ele>
        <time>2018-09-09T09:02:14Z</time>
      </trkpt>
      <trkpt lat="45.22566" lon="6.14289">
        <ele>1749.86</ele>
        <time>2018-09-09T09:02:15Z</time>
      </trkpt>
      <trkpt lat="45.22583" lon="6.14334">
        <ele>1748.84</ele>
        <time>2018-09-09T09:02:17Z</time>
      </trkpt>
      <trkpt lat="45.22592" lon="6.14358">
        <ele>1748.07</ele>
        <time>2018-09-09T09:02:18Z</time>
      </trkpt>
      <trkpt lat="45.226" lon="6.14383">
        <ele>1746.44</ele>
        <time>2018-09-09T09:02:19Z</time>
      </trkpt>
      <trkpt lat="45.22607" lon="6.14407">
        <ele>1745.25</ele>
        <time>2018-09-09T09:02:20Z</time>
      </trkpt>
      <trkpt lat="45.22615" lon="6.14432">
        <ele>1744.19</ele>
        <time>2018-09-09T09:02:21Z</time>
      </trkpt>
      <trkpt lat="45.22624" lon="6.14456">
        <ele>1743.18</ele>
        <time>2018-09-09T09:02:22Z</time>
      </trkpt>
      <trkpt lat="45.22632" lon="6.1448">
        <ele>1741.47</ele>
        <time>2018-09-09T09:02:23Z</time>
      </trkpt>
      <trkpt lat="45.2264" lon="6.14506">
        <ele>1740.96</ele>
        <time>2018-09-09T09:02:24Z</time>
      </trkpt>
      <trkpt lat="45.22646" lon="6.14533">
        <ele>1740.11</ele>
        <time>2018-09-09T09:02:25Z</time>
      </trkpt>
      <trkpt lat="45.22651" lon="6.14561">
        <ele>1739.15</ele>
        <time>2018-09-09T09:02:26Z</time>
      </trkpt>
      <trkpt lat="45.22654" lon="6.14589">
        <ele>1737.46</ele>
        <time>2018-09-09T09:02:27Z</time>
      </trkpt>
      <trkpt lat="45.22656" lon="6.14617">
        <ele>1736.26</ele>
        <time>2018-09-09T09:02:28Z</time>
      </trkpt>
      <trkpt lat="45.22658" lon="6.14645">
        <ele>1735.2</ele>
        <time>2018-09-09T09:02:29Z</time>
      </trkpt>
      <trkpt lat="45.2266" lon="6.14672">
        <ele>1734.88</ele>
        <time>2018-09-09T09:02:30Z</time>
      </trkpt>
      <trkpt lat="45.22663" lon="6.147">
        <ele>1734.08</ele>
        <time>2018-09-09T09:02:31Z</time>
      </trkpt>
      <trkpt lat="45.22665" lon="6.14728">
        <ele>1732.44</ele>
        <time>2018-09-09T09:02:32Z</time>
      </trkpt>
      <trkpt lat="45.22667" lon="6.14756">
        <ele>1731.25</ele>
        <time>2018-09-09T09:02:33Z</time>
      </trkpt>
      <trkpt lat="45.22668" lon="6.14783">
        <ele>1729.49</ele>
        <time>2018-09-09T09:02:34Z</time>
      </trkpt>
      <trkpt lat="45.22667" lon="6.1481">
        <ele>1728.27</ele>
        <time>2018-09-09T09:02:35Z</time>
      </trkpt>
      <trkpt lat="45.22666" lon="6.14838">
        <ele>1727.2</ele>
        <time>2018-09-09T09:02:36Z</time>
      </trkpt>
      <trkpt lat="45.22664" lon="6.14863">
        <ele>1726.18</ele>
        <time>2018-09-09T09:02:37Z</time>
      </trkpt>
      <trkpt lat="45.22668" lon="6.14911">
        <ele>1724.17</ele>
        <time>2018-09-09T09:02:39Z</time>
      </trkpt>
      <trkpt lat="45.22683" lon="6.14946">
        <ele>1722.87</ele>
        <time>2018-09-09T09:02:41Z</time>
      </trkpt>
      <trkpt lat="45.22701" lon="6.14961">
        <ele>1722.78</ele>
        <time>2018-09-09T09:02:42Z</time>
      </trkpt>
      <trkpt lat="45.22726" lon="6.14995">
        <ele>1720.92</ele>
        <time>2018-09-09T09:02:44Z</time>
      </trkpt>
      <trkpt lat="45.22736" lon="6.15041">
        <ele>1718.45</ele>
        <time>2018-09-09T09:02:46Z</time>
      </trkpt>
      <trkpt lat="45.22737" lon="6.15066">
        <ele>1717.95</ele>
        <time>2018-09-09T09:02:47Z</time>
      </trkpt>
      <trkpt lat="45.22745" lon="6.15116">
        <ele>1716.15</ele>
        <time>2018-09-09T09:02:49Z</time>
      </trkpt>
      <trkpt lat="45.2276" lon="6.15152">
        <ele>1714.17</ele>
        <time>2018-09-09T09:02:51Z</time>
      </trkpt>
      <trkpt lat="45.22784" lon="6.15179">
        <ele>1713.08</ele>
        <time>2018-09-09T09:02:53Z</time>
      </trkpt>
      <trkpt lat="45.22794" lon="6.15225">
        <ele>1711.86</ele>
        <time>2018-09-09T09:02:55Z</time>
      </trkpt>
      <trkpt lat="45.228" lon="6.15249">
        <ele>1713.18</ele>
        <time>2018-09-09T09:02:56Z</time>
      </trkpt>
      <trkpt lat="45.22809" lon="6.15274">
        <ele>1713.57</ele>
        <time>2018-09-09T09:02:57Z</time>
      </trkpt>
      <trkpt lat="45.22821" lon="6.153">
        <ele>1715.09</ele>
        <time>2018-09-09T09:02:58Z</time>
      </trkpt>
      <trkpt lat="45.22831" lon="6.15328">
        <ele>1716.95</ele>
        <time>2018-09-09T09:02:59Z</time>
      </trkpt>
      <trkpt lat="45.22838" lon="6.15355">
        <ele>1718.2</ele>
        <time>2018-09-09T09:03:00Z</time>
      </trkpt>
      <trkpt lat="45.22844" lon="6.15381">
        <ele>1719.28</ele>
        <time>2018-09-09T09:03:01Z</time>
      </trkpt>
      <trkpt lat="45.22852" lon="6.15424">
        <ele>1722.22</ele>
        <time>2018-09-09T09:03:03Z</time>
      </trkpt>
      <trkpt lat="45.22846" lon="6.15465">
        <ele>1725.21</ele>
        <time>2018-09-09T09:03:05Z</time>
      </trkpt>
      <trkpt lat="45.22841" lon="6.15509">
        <ele>1726.6</ele>
        <time>2018-09-09T09:03:07Z</time>
      </trkpt>
      <trkpt lat="45.22852" lon="6.1555">
        <ele>1729.95</ele>
        <time>2018-09-09T09:03:09Z</time>
      </trkpt>
      <trkpt lat="45.22862" lon="6.15571">
        <ele>1731.9</ele>
        <time>2018-09-09T09:03:10Z</time>
      </trkpt>
      <trkpt lat="45.22873" lon="6.15593">
        <ele>1733.89</ele>
        <time>2018-09-09T09:03:11Z</time>
      </trkpt>
      <trkpt lat="45.22885" lon="6.15617">
        <ele>1735.89</ele>
        <time>2018-09-09T09:03:12Z</time>
      </trkpt>
      <trkpt lat="45.22898" lon="6.15641">
        <ele>1737.88</ele>
        <time>2018-09-09T09:03:13Z</time>
      </trkpt>
      <trkpt lat="45.22914" lon="6.15665">
        <ele>1739.88</ele>
        <time>2018-09-09T09:03:14Z</time>
      </trkpt>
      <trkpt lat="45.2293" lon="6.15689">
        <ele>1741.88</ele>
        <time>2018-09-09T09:03:15Z</time>
      </trkpt>
      <trkpt lat="45.22946" lon="6.15713">
        <ele>1743.18</ele>
        <time>2018-09-09T09:03:16Z</time>
      </trkpt>
      <trkpt lat="45.22959" lon="6.15738">
        <ele>1744.27</ele>
        <time>2018-09-09T09:03:17Z</time>
      </trkpt>
      <trkpt lat="45.22968" lon="6.15764">
        <ele>1746</ele>
        <time>2018-09-09T09:03:18Z</time>
      </trkpt>
      <trkpt lat="45.22973" lon="6.15792">
        <ele>1748.62</ele>
        <time>2018-09-09T09:03:19Z</time>
      </trkpt>
      <trkpt lat="45.22978" lon="6.15819">
        <ele>1750.1</ele>
        <time>2018-09-09T09:03:20Z</time>
      </trkpt>
      <trkpt lat="45.22984" lon="6.15846">
        <ele>1750.55</ele>
        <time>2018-09-09T09:03:21Z</time>
      </trkpt>
      <trkpt lat="45.22995" lon="6.15872">
        <ele>1752.08</ele>
        <time>2018-09-09T09:03:22Z</time>
      </trkpt>
      <trkpt lat="45.23003" lon="6.15896">
        <ele>1753.94</ele>
        <time>2018-09-09T09:03:23Z</time>
      </trkpt>
      <trkpt lat="45.23022" lon="6.15934">
        <ele>1755.58</ele>
        <time>2018-09-09T09:03:25Z</time>
      </trkpt>
      <trkpt lat="45.23053" lon="6.15958">
        <ele>1758.25</ele>
        <time>2018-09-09T09:03:27Z</time>
      </trkpt>
      <trkpt lat="45.23075" lon="6.15998">
        <ele>1761.01</ele>
        <time>2018-09-09T09:03:29Z</time>
      </trkpt>
      <trkpt lat="45.23097" lon="6.16038">
        <ele>1762.37</ele>
        <time>2018-09-09T09:03:31Z</time>
      </trkpt>
      <trkpt lat="45.23109" lon="6.16058">
        <ele>1763.33</ele>
        <time>2018-09-09T09:03:32Z</time>
      </trkpt>
      <trkpt lat="45.23126" lon="6.16097">
        <ele>1764.61</ele>
        <time>2018-09-09T09:03:34Z</time>
      </trkpt>
      <trkpt lat="45.23147" lon="6.16123">
        <ele>1767.04</ele>
        <time>2018-09-09T09:03:36Z</time>
      </trkpt>
      <trkpt lat="45.23167" lon="6.1615">
        <ele>1768.59</ele>
        <time>2018-09-09T09:03:38Z</time>
      </trkpt>
      <trkpt lat="45.23181" lon="6.16188">
        <ele>1771.04</ele>
        <time>2018-09-09T09:03:40Z</time>
      </trkpt>
      <trkpt lat="45.23194" lon="6.1623">
        <ele>1773.29</ele>
        <time>2018-09-09T09:03:42Z</time>
      </trkpt>
      <trkpt lat="45.23202" lon="6.16274">
        <ele>1777.13</ele>
        <time>2018-09-09T09:03:44Z</time>
      </trkpt>
      <trkpt lat="45.23209" lon="6.16318">
        <ele>1780</ele>
        <time>2018-09-09T09:03:46Z</time>
      </trkpt>
      <trkpt lat="45.23216" lon="6.16363">
        <ele>1783.19</ele>
        <time>2018-09-09T09:03:48Z</time>
      </trkpt>
      <trkpt lat="45.23228" lon="6.16409">
        <ele>1786</ele>
        <time>2018-09-09T09:03:50Z</time>
      </trkpt>
      <trkpt lat="45.23242" lon="6.16456">
        <ele>1788.28</ele>
        <time>2018-09-09T09:03:52Z</time>
      </trkpt>
      <trkpt lat="45.2325" lon="6.16481">
        <ele>1790</ele>
        <time>2018-09-09T09:03:53Z</time>
      </trkpt>
      <trkpt lat="45.23258" lon="6.16505">
        <ele>1791.22</ele>
        <time>2018-09-09T09:03:54Z</time>
      </trkpt>
      <trkpt lat="45.23264" lon="6.1653">
        <ele>1792.98</ele>
        <time>2018-09-09T09:03:55Z</time>
      </trkpt>
      <trkpt lat="45.23269" lon="6.16555">
        <ele>1794.21</ele>
        <time>2018-09-09T09:03:56Z</time>
      </trkpt>
      <trkpt lat="45.23276" lon="6.16579">
        <ele>1795.98</ele>
        <time>2018-09-09T09:03:57Z</time>
      </trkpt>
      <trkpt lat="45.23285" lon="6.16603">
        <ele>1797.91</ele>
        <time>2018-09-09T09:03:58Z</time>
      </trkpt>
      <trkpt lat="45.23294" lon="6.16627">
        <ele>1799.89</ele>
        <time>2018-09-09T09:03:59Z</time>
      </trkpt>
      <trkpt lat="45.23302" lon="6.16652">
        <ele>1800.49</ele>
        <time>2018-09-09T09:04:00Z</time>
      </trkpt>
      <trkpt lat="45.23307" lon="6.1668">
        <ele>1802.06</ele>
        <time>2018-09-09T09:04:01Z</time>
      </trkpt>
      <trkpt lat="45.2331" lon="6.16706">
        <ele>1803.24</ele>
        <time>2018-09-09T09:04:02Z</time>
      </trkpt>
      <trkpt lat="45.23316" lon="6.16732">
        <ele>1804.29</ele>
        <time>2018-09-09T09:04:03Z</time>
      </trkpt>
      <trkpt lat="45.23323" lon="6.16758">
        <ele>1806.01</ele>
        <time>2018-09-09T09:04:04Z</time>
      </trkpt>
      <trkpt lat="45.23332" lon="6.16782">
        <ele>1807.92</ele>
        <time>2018-09-09T09:04:05Z</time>
      </trkpt>
      <trkpt lat="45.23342" lon="6.16806">
        <ele>1809.19</ele>
        <time>2018-09-09T09:04:06Z</time>
      </trkpt>
      <trkpt lat="45.23349" lon="6.16831">
        <ele>1810.98</ele>
        <time>2018-09-09T09:04:07Z</time>
      </trkpt>
      <trkpt lat="45.23354" lon="6.16857">
        <ele>1812.21</ele>
        <time>2018-09-09T09:04:08Z</time>
      </trkpt>
      <trkpt lat="45.2336" lon="6.16882">
        <ele>1813.28</ele>
        <time>2018-09-09T09:04:09Z</time>
      </trkpt>
      <trkpt lat="45.23369" lon="6.16906">
        <ele>1815</ele>
        <time>2018-09-09T09:04:10Z</time>
      </trkpt>
      <trkpt lat="45.23378" lon="6.16929">
        <ele>1816.22</ele>
        <time>2018-09-09T09:04:11Z</time>
      </trkpt>
      <trkpt lat="45.23389" lon="6.16951">
        <ele>1818.68</ele>
        <time>2018-09-09T09:04:12Z</time>
      </trkpt>
      <trkpt lat="45.23402" lon="6.16972">
        <ele>1820.12</ele>
        <time>2018-09-09T09:04:13Z</time>
      </trkpt>
      <trkpt lat="45.23412" lon="6.16995">
        <ele>1820.56</ele>
        <time>2018-09-09T09:04:14Z</time>
      </trkpt>
      <trkpt lat="45.23419" lon="6.17021">
        <ele>1822.09</ele>
        <time>2018-09-09T09:04:15Z</time>
      </trkpt>
      <trkpt lat="45.23425" lon="6.17047">
        <ele>1823.94</ele>
        <time>2018-09-09T09:04:16Z</time>
      </trkpt>
      <trkpt lat="45.23432" lon="6.17074">
        <ele>1825.9</ele>
        <time>2018-09-09T09:04:17Z</time>
      </trkpt>
      <trkpt lat="45.2344" lon="6.17099">
        <ele>1827.19</ele>
        <time>2018-09-09T09:04:18Z</time>
      </trkpt>
      <trkpt lat="45.2345" lon="6.17124">
        <ele>1828.98</ele>
        <time>2018-09-09T09:04:19Z</time>
      </trkpt>
      <trkpt lat="45.2346" lon="6.17148">
        <ele>1830.91</ele>
        <time>2018-09-09T09:04:20Z</time>
      </trkpt>
      <trkpt lat="45.2347" lon="6.17171">
        <ele>1832.89</ele>
        <time>2018-09-09T09:04:21Z</time>
      </trkpt>
      <trkpt lat="45.2349" lon="6.17208">
        <ele>1835.97</ele>
        <time>2018-09-09T09:04:23Z</time>
      </trkpt>
      <trkpt lat="45.23517" lon="6.1723">
        <ele>1837.37</ele>
        <time>2018-09-09T09:04:25Z</time>
      </trkpt>
      <trkpt lat="45.23534" lon="6.17239">
        <ele>1838.33</ele>
        <time>2018-09-09T09:04:26Z</time>
      </trkpt>
      <trkpt lat="45.2355" lon="6.17252">
        <ele>1840.02</ele>
        <time>2018-09-09T09:04:27Z</time>
      </trkpt>
      <trkpt lat="45.23564" lon="6.17269">
        <ele>1841.22</ele>
        <time>2018-09-09T09:04:28Z</time>
      </trkpt>
      <trkpt lat="45.23585" lon="6.17309">
        <ele>1845.82</ele>
        <time>2018-09-09T09:04:30Z</time>
      </trkpt>
      <trkpt lat="45.23607" lon="6.17345">
        <ele>1848.97</ele>
        <time>2018-09-09T09:04:32Z</time>
      </trkpt>
      <trkpt lat="45.23634" lon="6.17365">
        <ele>1851.28</ele>
        <time>2018-09-09T09:04:34Z</time>
      </trkpt>
      <trkpt lat="45.23647" lon="6.17397">
        <ele>1854.92</ele>
        <time>2018-09-09T09:04:36Z</time>
      </trkpt>
      <trkpt lat="45.23659" lon="6.17435">
        <ele>1857.28</ele>
        <time>2018-09-09T09:04:38Z</time>
      </trkpt>
      <trkpt lat="45.23681" lon="6.17467">
        <ele>1860.01</ele>
        <time>2018-09-09T09:04:40Z</time>
      </trkpt>
      <trkpt lat="45.2371" lon="6.17484">
        <ele>1863.69</ele>
        <time>2018-09-09T09:04:42Z</time>
      </trkpt>
      <trkpt lat="45.23738" lon="6.17505">
        <ele>1866.05</ele>
        <time>2018-09-09T09:04:44Z</time>
      </trkpt>
      <trkpt lat="45.2377" lon="6.1752">
        <ele>1869.2</ele>
        <time>2018-09-09T09:04:46Z</time>
      </trkpt>
      <trkpt lat="45.23799" lon="6.17534">
        <ele>1872</ele>
        <time>2018-09-09T09:04:48Z</time>
      </trkpt>
      <trkpt lat="45.23826" lon="6.17552">
        <ele>1875.19</ele>
        <time>2018-09-09T09:04:50Z</time>
      </trkpt>
      <trkpt lat="45.23845" lon="6.17577">
        <ele>1877.3</ele>
        <time>2018-09-09T09:04:52Z</time>
      </trkpt>
      <trkpt lat="45.2385" lon="6.17609">
        <ele>1880.22</ele>
        <time>2018-09-09T09:04:54Z</time>
      </trkpt>
      <trkpt lat="45.23853" lon="6.17645">
        <ele>1882.3</ele>
        <time>2018-09-09T09:04:56Z</time>
      </trkpt>
      <trkpt lat="45.23862" lon="6.17681">
        <ele>1884.31</ele>
        <time>2018-09-09T09:04:58Z</time>
      </trkpt>
      <trkpt lat="45.2387" lon="6.17717">
        <ele>1887.22</ele>
        <time>2018-09-09T09:05:00Z</time>
      </trkpt>
      <trkpt lat="45.23868" lon="6.17748">
        <ele>1889.3</ele>
        <time>2018-09-09T09:05:02Z</time>
      </trkpt>
      <trkpt lat="45.23872" lon="6.17778">
        <ele>1890.7</ele>
        <time>2018-09-09T09:05:05Z</time>
      </trkpt>
      <trkpt lat="45.23889" lon="6.17768">
        <ele>1894.61</ele>
        <time>2018-09-09T09:05:10Z</time>
      </trkpt>
      <trkpt lat="45.23898" lon="6.17742">
        <ele>1896.14</ele>
        <time>2018-09-09T09:05:14Z</time>
      </trkpt>
      <trkpt lat="45.23903" lon="6.17705">
        <ele>1898.3</ele>
        <time>2018-09-09T09:05:16Z</time>
      </trkpt>
      <trkpt lat="45.23904" lon="6.17676">
        <ele>1900.52</ele>
        <time>2018-09-09T09:05:18Z</time>
      </trkpt>
      <trkpt lat="45.23912" lon="6.17653">
        <ele>1902.33</ele>
        <time>2018-09-09T09:05:20Z</time>
      </trkpt>
      <trkpt lat="45.23931" lon="6.17625">
        <ele>1905.38</ele>
        <time>2018-09-09T09:05:23Z</time>
      </trkpt>
      <trkpt lat="45.2394" lon="6.17593">
        <ele>1908.31</ele>
        <time>2018-09-09T09:05:26Z</time>
      </trkpt>
      <trkpt lat="45.23946" lon="6.17568">
        <ele>1910.34</ele>
        <time>2018-09-09T09:05:29Z</time>
      </trkpt>
      <trkpt lat="45.23965" lon="6.17561">
        <ele>1913.03</ele>
        <time>2018-09-09T09:05:35Z</time>
      </trkpt>
      <trkpt lat="45.23946" lon="6.17563">
        <ele>1908.53</ele>
        <time>2018-09-09T09:10:31Z</time>
      </trkpt>
      <trkpt lat="45.2394" lon="6.1759">
        <ele>1908.04</ele>
        <time>2018-09-09T09:10:35Z</time>
      </trkpt>
      <trkpt lat="45.23932" lon="6.17614">
        <ele>1907.75</ele>
        <time>2018-09-09T09:10:38Z</time>
      </trkpt>
      <trkpt lat="45.23917" lon="6.17638">
        <ele>1905.86</ele>
        <time>2018-09-09T09:10:41Z</time>
      </trkpt>
      <trkpt lat="45.23902" lon="6.17665">
        <ele>1904.77</ele>
        <time>2018-09-09T09:10:44Z</time>
      </trkpt>
      <trkpt lat="45.23899" lon="6.177">
        <ele>1902.16</ele>
        <time>2018-09-09T09:10:47Z</time>
      </trkpt>
      <trkpt lat="45.23897" lon="6.17727">
        <ele>1901.08</ele>
        <time>2018-09-09T09:10:49Z</time>
      </trkpt>
      <trkpt lat="45.23892" lon="6.17752">
        <ele>1899.86</ele>
        <time>2018-09-09T09:10:51Z</time>
      </trkpt>
      <trkpt lat="45.23882" lon="6.17782">
        <ele>1896.19</ele>
        <time>2018-09-09T09:10:54Z</time>
      </trkpt>
      <trkpt lat="45.2388" lon="6.17808">
        <ele>1895.74</ele>
        <time>2018-09-09T09:10:58Z</time>
      </trkpt>
      <trkpt lat="45.23883" lon="6.17836">
        <ele>1897.41</ele>
        <time>2018-09-09T09:11:01Z</time>
      </trkpt>
      <trkpt lat="45.23888" lon="6.17868">
        <ele>1897.71</ele>
        <time>2018-09-09T09:11:03Z</time>
      </trkpt>
      <trkpt lat="45.23896" lon="6.17907">
        <ele>1899.35</ele>
        <time>2018-09-09T09:11:05Z</time>
      </trkpt>
      <trkpt lat="45.23899" lon="6.17956">
        <ele>1902.23</ele>
        <time>2018-09-09T09:11:07Z</time>
      </trkpt>
      <trkpt lat="45.23902" lon="6.18007">
        <ele>1903.6</ele>
        <time>2018-09-09T09:11:09Z</time>
      </trkpt>
      <trkpt lat="45.23905" lon="6.18034">
        <ele>1905.1</ele>
        <time>2018-09-09T09:11:10Z</time>
      </trkpt>
      <trkpt lat="45.23908" lon="6.18059">
        <ele>1905.55</ele>
        <time>2018-09-09T09:11:11Z</time>
      </trkpt>
      <trkpt lat="45.2391" lon="6.18086">
        <ele>1907.08</ele>
        <time>2018-09-09T09:11:12Z</time>
      </trkpt>
      <trkpt lat="45.23911" lon="6.18112">
        <ele>1908.94</ele>
        <time>2018-09-09T09:11:13Z</time>
      </trkpt>
      <trkpt lat="45.2391" lon="6.18138">
        <ele>1909.5</ele>
        <time>2018-09-09T09:11:14Z</time>
      </trkpt>
      <trkpt lat="45.23903" lon="6.18185">
        <ele>1912.24</ele>
        <time>2018-09-09T09:11:16Z</time>
      </trkpt>
      <trkpt lat="45.23893" lon="6.18228">
        <ele>1912.7</ele>
        <time>2018-09-09T09:11:18Z</time>
      </trkpt>
      <trkpt lat="45.23894" lon="6.18256">
        <ele>1914.13</ele>
        <time>2018-09-09T09:11:19Z</time>
      </trkpt>
      <trkpt lat="45.23895" lon="6.18284">
        <ele>1915.26</ele>
        <time>2018-09-09T09:11:20Z</time>
      </trkpt>
      <trkpt lat="45.23896" lon="6.18313">
        <ele>1916.3</ele>
        <time>2018-09-09T09:11:21Z</time>
      </trkpt>
      <trkpt lat="45.23896" lon="6.18341">
        <ele>1917.31</ele>
        <time>2018-09-09T09:11:22Z</time>
      </trkpt>
      <trkpt lat="45.23894" lon="6.1837">
        <ele>1919.01</ele>
        <time>2018-09-09T09:11:23Z</time>
      </trkpt>
      <trkpt lat="45.23888" lon="6.18417">
        <ele>1921.29</ele>
        <time>2018-09-09T09:11:25Z</time>
      </trkpt>
      <trkpt lat="45.23889" lon="6.18454">
        <ele>1922.61</ele>
        <time>2018-09-09T09:11:27Z</time>
      </trkpt>
      <trkpt lat="45.23907" lon="6.18486">
        <ele>1925.04</ele>
        <time>2018-09-09T09:11:29Z</time>
      </trkpt>
      <trkpt lat="45.23921" lon="6.18517">
        <ele>1926.38</ele>
        <time>2018-09-09T09:11:31Z</time>
      </trkpt>
      <trkpt lat="45.23919" lon="6.18549">
        <ele>1929.23</ele>
        <time>2018-09-09T09:11:33Z</time>
      </trkpt>
      <trkpt lat="45.23911" lon="6.18577">
        <ele>1931.3</ele>
        <time>2018-09-09T09:11:35Z</time>
      </trkpt>
      <trkpt lat="45.2389" lon="6.18585">
        <ele>1932.61</ele>
        <time>2018-09-09T09:11:37Z</time>
      </trkpt>
      <trkpt lat="45.23864" lon="6.18598">
        <ele>1935.04</ele>
        <time>2018-09-09T09:11:39Z</time>
      </trkpt>
      <trkpt lat="45.23843" lon="6.18623">
        <ele>1937.29</ele>
        <time>2018-09-09T09:11:41Z</time>
      </trkpt>
      <trkpt lat="45.23828" lon="6.18659">
        <ele>1939.1</ele>
        <time>2018-09-09T09:11:43Z</time>
      </trkpt>
      <trkpt lat="45.23812" lon="6.18698">
        <ele>1939.68</ele>
        <time>2018-09-09T09:11:45Z</time>
      </trkpt>
      <trkpt lat="45.23796" lon="6.1874">
        <ele>1941.35</ele>
        <time>2018-09-09T09:11:47Z</time>
      </trkpt>
      <trkpt lat="45.23777" lon="6.18778">
        <ele>1942.41</ele>
        <time>2018-09-09T09:11:49Z</time>
      </trkpt>
      <trkpt lat="45.23762" lon="6.18813">
        <ele>1945.23</ele>
        <time>2018-09-09T09:11:51Z</time>
      </trkpt>
      <trkpt lat="45.23754" lon="6.18853">
        <ele>1946.61</ele>
        <time>2018-09-09T09:11:53Z</time>
      </trkpt>
      <trkpt lat="45.23745" lon="6.18892">
        <ele>1948.34</ele>
        <time>2018-09-09T09:11:55Z</time>
      </trkpt>
      <trkpt lat="45.23731" lon="6.1893">
        <ele>1950.1</ele>
        <time>2018-09-09T09:11:57Z</time>
      </trkpt>
      <trkpt lat="45.23718" lon="6.18973">
        <ele>1950.68</ele>
        <time>2018-09-09T09:11:59Z</time>
      </trkpt>
      <trkpt lat="45.23708" lon="6.19018">
        <ele>1953.26</ele>
        <time>2018-09-09T09:12:01Z</time>
      </trkpt>
      <trkpt lat="45.23697" lon="6.19061">
        <ele>1954.4</ele>
        <time>2018-09-09T09:12:03Z</time>
      </trkpt>
      <trkpt lat="45.23681" lon="6.19098">
        <ele>1956.32</ele>
        <time>2018-09-09T09:12:05Z</time>
      </trkpt>
      <trkpt lat="45.2366" lon="6.19133">
        <ele>1959.01</ele>
        <time>2018-09-09T09:12:07Z</time>
      </trkpt>
      <trkpt lat="45.23636" lon="6.19167">
        <ele>1961.29</ele>
        <time>2018-09-09T09:12:09Z</time>
      </trkpt>
      <trkpt lat="45.23611" lon="6.19202">
        <ele>1964.01</ele>
        <time>2018-09-09T09:12:11Z</time>
      </trkpt>
      <trkpt lat="45.23587" lon="6.19238">
        <ele>1967.2</ele>
        <time>2018-09-09T09:12:13Z</time>
      </trkpt>
      <trkpt lat="45.23562" lon="6.1927">
        <ele>1969.51</ele>
        <time>2018-09-09T09:12:15Z</time>
      </trkpt>
      <trkpt lat="45.23536" lon="6.1929">
        <ele>1973.64</ele>
        <time>2018-09-09T09:12:17Z</time>
      </trkpt>
      <trkpt lat="45.23506" lon="6.19304">
        <ele>1976.25</ele>
        <time>2018-09-09T09:12:19Z</time>
      </trkpt>
      <trkpt lat="45.23476" lon="6.19318">
        <ele>1979.22</ele>
        <time>2018-09-09T09:12:21Z</time>
      </trkpt>
      <trkpt lat="45.23446" lon="6.19322">
        <ele>1983.12</ele>
        <time>2018-09-09T09:12:23Z</time>
      </trkpt>
      <trkpt lat="45.23423" lon="6.19326">
        <ele>1985.3</ele>
        <time>2018-09-09T09:12:25Z</time>
      </trkpt>
      <trkpt lat="45.2341" lon="6.19345">
        <ele>1988.01</ele>
        <time>2018-09-09T09:12:27Z</time>
      </trkpt>
      <trkpt lat="45.23401" lon="6.19373">
        <ele>1988.68</ele>
        <time>2018-09-09T09:12:29Z</time>
      </trkpt>
      <trkpt lat="45.23389" lon="6.19405">
        <ele>1989.65</ele>
        <time>2018-09-09T09:12:31Z</time>
      </trkpt>
      <trkpt lat="45.23376" lon="6.1944">
        <ele>1990.43</ele>
        <time>2018-09-09T09:12:33Z</time>
      </trkpt>
      <trkpt lat="45.2336" lon="6.19474">
        <ele>1992.11</ele>
        <time>2018-09-09T09:12:35Z</time>
      </trkpt>
      <trkpt lat="45.23344" lon="6.19508">
        <ele>1993.59</ele>
        <time>2018-09-09T09:12:37Z</time>
      </trkpt>
      <trkpt lat="45.23333" lon="6.19548">
        <ele>1995.55</ele>
        <time>2018-09-09T09:12:39Z</time>
      </trkpt>
      <trkpt lat="45.23328" lon="6.19592">
        <ele>1997.33</ele>
        <time>2018-09-09T09:12:41Z</time>
      </trkpt>
      <trkpt lat="45.23319" lon="6.19634">
        <ele>1999.1</ele>
        <time>2018-09-09T09:12:43Z</time>
      </trkpt>
      <trkpt lat="45.23302" lon="6.19671">
        <ele>2000.38</ele>
        <time>2018-09-09T09:12:45Z</time>
      </trkpt>
      <trkpt lat="45.23285" lon="6.19704">
        <ele>2002.32</ele>
        <time>2018-09-09T09:12:47Z</time>
      </trkpt>
      <trkpt lat="45.23266" lon="6.19734">
        <ele>2002.7</ele>
        <time>2018-09-09T09:12:49Z</time>
      </trkpt>
      <trkpt lat="45.23245" lon="6.19758">
        <ele>2004.35</ele>
        <time>2018-09-09T09:12:51Z</time>
      </trkpt>
      <trkpt lat="45.23223" lon="6.19783">
        <ele>2006.32</ele>
        <time>2018-09-09T09:12:53Z</time>
      </trkpt>
      <trkpt lat="45.232" lon="6.19812">
        <ele>2009.01</ele>
        <time>2018-09-09T09:12:55Z</time>
      </trkpt>
      <trkpt lat="45.23179" lon="6.19841">
        <ele>2011.29</ele>
        <time>2018-09-09T09:12:57Z</time>
      </trkpt>
      <trkpt lat="45.23161" lon="6.19875">
        <ele>2013.31</ele>
        <time>2018-09-09T09:12:59Z</time>
      </trkpt>
      <trkpt lat="45.23144" lon="6.19912">
        <ele>2015.31</ele>
        <time>2018-09-09T09:13:01Z</time>
      </trkpt>
      <trkpt lat="45.23128" lon="6.1995">
        <ele>2017.1</ele>
        <time>2018-09-09T09:13:03Z</time>
      </trkpt>
      <trkpt lat="45.2311" lon="6.19989">
        <ele>2018.59</ele>
        <time>2018-09-09T09:13:05Z</time>
      </trkpt>
      <trkpt lat="45.23091" lon="6.20028">
        <ele>2019.43</ele>
        <time>2018-09-09T09:13:07Z</time>
      </trkpt>
      <trkpt lat="45.2307" lon="6.20066">
        <ele>2022.23</ele>
        <time>2018-09-09T09:13:09Z</time>
      </trkpt>
      <trkpt lat="45.23047" lon="6.201">
        <ele>2024.31</ele>
        <time>2018-09-09T09:13:11Z</time>
      </trkpt>
      <trkpt lat="45.23024" lon="6.20132">
        <ele>2027.22</ele>
        <time>2018-09-09T09:13:13Z</time>
      </trkpt>
      <trkpt lat="45.23001" lon="6.20163">
        <ele>2030.21</ele>
        <time>2018-09-09T09:13:15Z</time>
      </trkpt>
      <trkpt lat="45.22978" lon="6.20194">
        <ele>2033.21</ele>
        <time>2018-09-09T09:13:17Z</time>
      </trkpt>
      <trkpt lat="45.22955" lon="6.20218">
        <ele>2034.39</ele>
        <time>2018-09-09T09:13:19Z</time>
      </trkpt>
      <trkpt lat="45.22926" lon="6.20227">
        <ele>2037.23</ele>
        <time>2018-09-09T09:13:21Z</time>
      </trkpt>
      <trkpt lat="45.22896" lon="6.20231">
        <ele>2040.92</ele>
        <time>2018-09-09T09:13:23Z</time>
      </trkpt>
      <trkpt lat="45.22866" lon="6.20238">
        <ele>2043.28</ele>
        <time>2018-09-09T09:13:25Z</time>
      </trkpt>
      <trkpt lat="45.22837" lon="6.20246">
        <ele>2045.31</ele>
        <time>2018-09-09T09:13:27Z</time>
      </trkpt>
      <trkpt lat="45.22811" lon="6.20256">
        <ele>2048.22</ele>
        <time>2018-09-09T09:13:29Z</time>
      </trkpt>
      <trkpt lat="45.2279" lon="6.20266">
        <ele>2050.3</ele>
        <time>2018-09-09T09:13:31Z</time>
      </trkpt>
      <trkpt lat="45.22774" lon="6.20278">
        <ele>2052.31</ele>
        <time>2018-09-09T09:13:33Z</time>
      </trkpt>
      <trkpt lat="45.22757" lon="6.20299">
        <ele>2056.5</ele>
        <time>2018-09-09T09:13:36Z</time>
      </trkpt>
      <trkpt lat="45.22749" lon="6.20322">
        <ele>2056.94</ele>
        <time>2018-09-09T09:13:39Z</time>
      </trkpt>
      <trkpt lat="45.22746" lon="6.20349">
        <ele>2059.75</ele>
        <time>2018-09-09T09:16:33Z</time>
      </trkpt>
      <trkpt lat="45.22747" lon="6.20383">
        <ele>2057.86</ele>
        <time>2018-09-09T09:16:37Z</time>
      </trkpt>
      <trkpt lat="45.2275" lon="6.20417">
        <ele>2057.53</ele>
        <time>2018-09-09T09:16:40Z</time>
      </trkpt>
      <trkpt lat="45.22759" lon="6.20439">
        <ele>2056.32</ele>
        <time>2018-09-09T09:16:42Z</time>
      </trkpt>
      <trkpt lat="45.22783" lon="6.20458">
        <ele>2053.17</ele>
        <time>2018-09-09T09:16:45Z</time>
      </trkpt>
      <trkpt lat="45.22802" lon="6.20461">
        <ele>2052.08</ele>
        <time>2018-09-09T09:16:47Z</time>
      </trkpt>
      <trkpt lat="45.22822" lon="6.20462">
        <ele>2049.46</ele>
        <time>2018-09-09T09:16:49Z</time>
      </trkpt>
      <trkpt lat="45.2284" lon="6.20477">
        <ele>2047.9</ele>
        <time>2018-09-09T09:16:51Z</time>
      </trkpt>
      <trkpt lat="45.22855" lon="6.20502">
        <ele>2047.05</ele>
        <time>2018-09-09T09:16:53Z</time>
      </trkpt>
      <trkpt lat="45.2287" lon="6.20531">
        <ele>2044.95</ele>
        <time>2018-09-09T09:16:55Z</time>
      </trkpt>
      <trkpt lat="45.22886" lon="6.20562">
        <ele>2042.94</ele>
        <time>2018-09-09T09:16:57Z</time>
      </trkpt>
      <trkpt lat="45.22903" lon="6.20595">
        <ele>2041.15</ele>
        <time>2018-09-09T09:16:59Z</time>
      </trkpt>
      <trkpt lat="45.22919" lon="6.20632">
        <ele>2040.08</ele>
        <time>2018-09-09T09:17:01Z</time>
      </trkpt>
      <trkpt lat="45.22933" lon="6.2067">
        <ele>2038.86</ele>
        <time>2018-09-09T09:17:03Z</time>
      </trkpt>
      <trkpt lat="45.22949" lon="6.20708">
        <ele>2037.84</ele>
        <time>2018-09-09T09:17:05Z</time>
      </trkpt>
      <trkpt lat="45.22968" lon="6.20743">
        <ele>2036.14</ele>
        <time>2018-09-09T09:17:07Z</time>
      </trkpt>
      <trkpt lat="45.22986" lon="6.20778">
        <ele>2033.68</ele>
        <time>2018-09-09T09:17:09Z</time>
      </trkpt>
      <trkpt lat="45.23004" lon="6.20813">
        <ele>2030.52</ele>
        <time>2018-09-09T09:17:11Z</time>
      </trkpt>
      <trkpt lat="45.23022" lon="6.20846">
        <ele>2026.8</ele>
        <time>2018-09-09T09:17:13Z</time>
      </trkpt>
      <trkpt lat="45.2304" lon="6.20877">
        <ele>2023.53</ele>
        <time>2018-09-09T09:17:15Z</time>
      </trkpt>
      <trkpt lat="45.23054" lon="6.20908">
        <ele>2020.5</ele>
        <time>2018-09-09T09:17:17Z</time>
      </trkpt>
      <trkpt lat="45.23063" lon="6.20938">
        <ele>2017.29</ele>
        <time>2018-09-09T09:17:19Z</time>
      </trkpt>
      <trkpt lat="45.23066" lon="6.20965">
        <ele>2014.27</ele>
        <time>2018-09-09T09:17:21Z</time>
      </trkpt>
      <trkpt lat="45.23068" lon="6.21002">
        <ele>2011.17</ele>
        <time>2018-09-09T09:17:24Z</time>
      </trkpt>
      <trkpt lat="45.2307" lon="6.21028">
        <ele>2009.17</ele>
        <time>2018-09-09T09:17:26Z</time>
      </trkpt>
      <trkpt lat="45.23071" lon="6.21057">
        <ele>2008.05</ele>
        <time>2018-09-09T09:17:29Z</time>
      </trkpt>
      <trkpt lat="45.23058" lon="6.21032">
        <ele>2003.08</ele>
        <time>2018-09-09T09:17:39Z</time>
      </trkpt>
      <trkpt lat="45.23053" lon="6.20998">
        <ele>1999.47</ele>
        <time>2018-09-09T09:17:42Z</time>
      </trkpt>
      <trkpt lat="45.23041" lon="6.20965">
        <ele>1996.24</ele>
        <time>2018-09-09T09:17:45Z</time>
      </trkpt>
      <trkpt lat="45.2302" lon="6.20949">
        <ele>1993.17</ele>
        <time>2018-09-09T09:17:48Z</time>
      </trkpt>
      <trkpt lat="45.22996" lon="6.20933">
        <ele>1991.14</ele>
        <time>2018-09-09T09:17:51Z</time>
      </trkpt>
      <trkpt lat="45.2298" lon="6.20923">
        <ele>1990.08</ele>
        <time>2018-09-09T09:17:53Z</time>
      </trkpt>
      <trkpt lat="45.22962" lon="6.20911">
        <ele>1988.16</ele>
        <time>2018-09-09T09:17:55Z</time>
      </trkpt>
      <trkpt lat="45.22943" lon="6.20899">
        <ele>1987.08</ele>
        <time>2018-09-09T09:17:57Z</time>
      </trkpt>
      <trkpt lat="45.22924" lon="6.20887">
        <ele>1985.16</ele>
        <time>2018-09-09T09:17:59Z</time>
      </trkpt>
      <trkpt lat="45.22908" lon="6.20875">
        <ele>1983.87</ele>
        <time>2018-09-09T09:18:01Z</time>
      </trkpt>
      <trkpt lat="45.22897" lon="6.20896">
        <ele>1981.84</ele>
        <time>2018-09-09T09:18:05Z</time>
      </trkpt>
      <trkpt lat="45.229" lon="6.20933">
        <ele>1980.13</ele>
        <time>2018-09-09T09:18:08Z</time>
      </trkpt>
      <trkpt lat="45.22898" lon="6.20964">
        <ele>1977.47</ele>
        <time>2018-09-09T09:18:10Z</time>
      </trkpt>
      <trkpt lat="45.22896" lon="6.20994">
        <ele>1976.11</ele>
        <time>2018-09-09T09:18:12Z</time>
      </trkpt>
      <trkpt lat="45.22895" lon="6.21031">
        <ele>1973.17</ele>
        <time>2018-09-09T09:18:15Z</time>
      </trkpt>
      <trkpt lat="45.22896" lon="6.21056">
        <ele>1972.74</ele>
        <time>2018-09-09T09:18:30Z</time>
      </trkpt>
      <trkpt lat="45.2289" lon="6.21088">
        <ele>1970.16</ele>
        <time>2018-09-09T09:18:42Z</time>
      </trkpt>
      <trkpt lat="45.22888" lon="6.21125">
        <ele>1968.14</ele>
        <time>2018-09-09T09:18:45Z</time>
      </trkpt>
      <trkpt lat="45.22895" lon="6.21154">
        <ele>1965.47</ele>
        <time>2018-09-09T09:18:47Z</time>
      </trkpt>
      <trkpt lat="45.22898" lon="6.21189">
        <ele>1963.9</ele>
        <time>2018-09-09T09:18:49Z</time>
      </trkpt>
      <trkpt lat="45.22897" lon="6.21223">
        <ele>1961.93</ele>
        <time>2018-09-09T09:18:51Z</time>
      </trkpt>
      <trkpt lat="45.22891" lon="6.21257">
        <ele>1960.15</ele>
        <time>2018-09-09T09:18:53Z</time>
      </trkpt>
      <trkpt lat="45.22878" lon="6.21286">
        <ele>1957.47</ele>
        <time>2018-09-09T09:18:55Z</time>
      </trkpt>
      <trkpt lat="45.22864" lon="6.21312">
        <ele>1954.29</ele>
        <time>2018-09-09T09:18:57Z</time>
      </trkpt>
      <trkpt lat="45.22857" lon="6.21339">
        <ele>1952.18</ele>
        <time>2018-09-09T09:18:59Z</time>
      </trkpt>
      <trkpt lat="45.22872" lon="6.21366">
        <ele>1949.17</ele>
        <time>2018-09-09T09:19:02Z</time>
      </trkpt>
      <trkpt lat="45.22894" lon="6.21382">
        <ele>1947.17</ele>
        <time>2018-09-09T09:19:04Z</time>
      </trkpt>
      <trkpt lat="45.22912" lon="6.21407">
        <ele>1943.56</ele>
        <time>2018-09-09T09:19:06Z</time>
      </trkpt>
      <trkpt lat="45.22917" lon="6.21444">
        <ele>1941.2</ele>
        <time>2018-09-09T09:19:08Z</time>
      </trkpt>
      <trkpt lat="45.22921" lon="6.21475">
        <ele>1939.38</ele>
        <time>2018-09-09T09:19:10Z</time>
      </trkpt>
      <trkpt lat="45.22936" lon="6.21495">
        <ele>1936.28</ele>
        <time>2018-09-09T09:19:12Z</time>
      </trkpt>
      <trkpt lat="45.22961" lon="6.21506">
        <ele>1934.18</ele>
        <time>2018-09-09T09:19:14Z</time>
      </trkpt>
      <trkpt lat="45.2299" lon="6.21514">
        <ele>1931.26</ele>
        <time>2018-09-09T09:19:16Z</time>
      </trkpt>
      <trkpt lat="45.23019" lon="6.21526">
        <ele>1928.27</ele>
        <time>2018-09-09T09:19:18Z</time>
      </trkpt>
      <trkpt lat="45.23045" lon="6.21546">
        <ele>1926.18</ele>
        <time>2018-09-09T09:19:20Z</time>
      </trkpt>
      <trkpt lat="45.23067" lon="6.21574">
        <ele>1924.17</ele>
        <time>2018-09-09T09:19:22Z</time>
      </trkpt>
      <trkpt lat="45.23084" lon="6.21606">
        <ele>1921.47</ele>
        <time>2018-09-09T09:19:24Z</time>
      </trkpt>
      <trkpt lat="45.23102" lon="6.21644">
        <ele>1919.9</ele>
        <time>2018-09-09T09:19:26Z</time>
      </trkpt>
      <trkpt lat="45.23107" lon="6.21674">
        <ele>1917.16</ele>
        <time>2018-09-09T09:19:29Z</time>
      </trkpt>
      <trkpt lat="45.23087" lon="6.21649">
        <ele>1916.76</ele>
        <time>2018-09-09T09:19:33Z</time>
      </trkpt>
      <trkpt lat="45.23069" lon="6.21625">
        <ele>1914.22</ele>
        <time>2018-09-09T09:19:35Z</time>
      </trkpt>
      <trkpt lat="45.23042" lon="6.21609">
        <ele>1911.26</ele>
        <time>2018-09-09T09:19:37Z</time>
      </trkpt>
      <trkpt lat="45.23013" lon="6.21605">
        <ele>1909.18</ele>
        <time>2018-09-09T09:19:39Z</time>
      </trkpt>
      <trkpt lat="45.22986" lon="6.21603">
        <ele>1907.17</ele>
        <time>2018-09-09T09:19:41Z</time>
      </trkpt>
      <trkpt lat="45.22963" lon="6.21602">
        <ele>1905.17</ele>
        <time>2018-09-09T09:19:43Z</time>
      </trkpt>
      <trkpt lat="45.22942" lon="6.21599">
        <ele>1904.78</ele>
        <time>2018-09-09T09:19:45Z</time>
      </trkpt>
      <trkpt lat="45.22921" lon="6.21588">
        <ele>1902.8</ele>
        <time>2018-09-09T09:19:48Z</time>
      </trkpt>
      <trkpt lat="45.22906" lon="6.2157">
        <ele>1899.04</ele>
        <time>2018-09-09T09:20:08Z</time>
      </trkpt>
      <trkpt lat="45.22891" lon="6.21554">
        <ele>1897.16</ele>
        <time>2018-09-09T09:20:10Z</time>
      </trkpt>
      <trkpt lat="45.2287" lon="6.21538">
        <ele>1895.17</ele>
        <time>2018-09-09T09:20:12Z</time>
      </trkpt>
      <trkpt lat="45.22845" lon="6.21525">
        <ele>1892.47</ele>
        <time>2018-09-09T09:20:14Z</time>
      </trkpt>
      <trkpt lat="45.2282" lon="6.21514">
        <ele>1889.29</ele>
        <time>2018-09-09T09:20:16Z</time>
      </trkpt>
      <trkpt lat="45.22795" lon="6.215">
        <ele>1887.39</ele>
        <time>2018-09-09T09:20:18Z</time>
      </trkpt>
      <trkpt lat="45.22775" lon="6.21478">
        <ele>1885.19</ele>
        <time>2018-09-09T09:20:20Z</time>
      </trkpt>
      <trkpt lat="45.22759" lon="6.21444">
        <ele>1883.17</ele>
        <time>2018-09-09T09:20:22Z</time>
      </trkpt>
      <trkpt lat="45.22746" lon="6.21401">
        <ele>1878.86</ele>
        <time>2018-09-09T09:20:24Z</time>
      </trkpt>
      <trkpt lat="45.22731" lon="6.21361">
        <ele>1875.53</ele>
        <time>2018-09-09T09:20:26Z</time>
      </trkpt>
      <trkpt lat="45.22706" lon="6.21331">
        <ele>1871.59</ele>
        <time>2018-09-09T09:20:28Z</time>
      </trkpt>
      <trkpt lat="45.22673" lon="6.21311">
        <ele>1867.6</ele>
        <time>2018-09-09T09:20:30Z</time>
      </trkpt>
      <trkpt lat="45.22641" lon="6.21294">
        <ele>1864.3</ele>
        <time>2018-09-09T09:20:32Z</time>
      </trkpt>
      <trkpt lat="45.22614" lon="6.21271">
        <ele>1862.18</ele>
        <time>2018-09-09T09:20:34Z</time>
      </trkpt>
      <trkpt lat="45.22598" lon="6.21253">
        <ele>1859.26</ele>
        <time>2018-09-09T09:20:36Z</time>
      </trkpt>
      <trkpt lat="45.2258" lon="6.21255">
        <ele>1857.84</ele>
        <time>2018-09-09T09:20:39Z</time>
      </trkpt>
      <trkpt lat="45.22598" lon="6.21278">
        <ele>1857.04</ele>
        <time>2018-09-09T09:20:42Z</time>
      </trkpt>
      <trkpt lat="45.22618" lon="6.21299">
        <ele>1855.16</ele>
        <time>2018-09-09T09:20:44Z</time>
      </trkpt>
      <trkpt lat="45.2264" lon="6.21329">
        <ele>1853.17</ele>
        <time>2018-09-09T09:20:46Z</time>
      </trkpt>
      <trkpt lat="45.22664" lon="6.2136">
        <ele>1849.77</ele>
        <time>2018-09-09T09:20:48Z</time>
      </trkpt>
      <trkpt lat="45.22685" lon="6.21397">
        <ele>1846.52</ele>
        <time>2018-09-09T09:20:50Z</time>
      </trkpt>
      <trkpt lat="45.22705" lon="6.21438">
        <ele>1843.5</ele>
        <time>2018-09-09T09:20:52Z</time>
      </trkpt>
      <trkpt lat="45.22724" lon="6.21477">
        <ele>1838.89</ele>
        <time>2018-09-09T09:20:54Z</time>
      </trkpt>
      <trkpt lat="45.22742" lon="6.21516">
        <ele>1837.14</ele>
        <time>2018-09-09T09:20:56Z</time>
      </trkpt>
      <trkpt lat="45.22759" lon="6.21556">
        <ele>1836.08</ele>
        <time>2018-09-09T09:20:58Z</time>
      </trkpt>
      <trkpt lat="45.22772" lon="6.21596">
        <ele>1832.76</ele>
        <time>2018-09-09T09:21:00Z</time>
      </trkpt>
      <trkpt lat="45.22785" lon="6.21635">
        <ele>1829.52</ele>
        <time>2018-09-09T09:21:02Z</time>
      </trkpt>
      <trkpt lat="45.22795" lon="6.21663">
        <ele>1828.11</ele>
        <time>2018-09-09T09:21:04Z</time>
      </trkpt>
      <trkpt lat="45.22797" lon="6.21693">
        <ele>1826.78</ele>
        <time>2018-09-09T09:21:07Z</time>
      </trkpt>
      <trkpt lat="45.22776" lon="6.21646">
        <ele>1826.04</ele>
        <time>2018-09-09T09:21:11Z</time>
      </trkpt>
      <trkpt lat="45.22764" lon="6.21611">
        <ele>1823.46</ele>
        <time>2018-09-09T09:21:13Z</time>
      </trkpt>
      <trkpt lat="45.22749" lon="6.21575">
        <ele>1819.59</ele>
        <time>2018-09-09T09:21:15Z</time>
      </trkpt>
      <trkpt lat="45.22726" lon="6.21541">
        <ele>1817.42</ele>
        <time>2018-09-09T09:21:17Z</time>
      </trkpt>
      <trkpt lat="45.22697" lon="6.21508">
        <ele>1814.28</ele>
        <time>2018-09-09T09:21:19Z</time>
      </trkpt>
      <trkpt lat="45.22682" lon="6.21494">
        <ele>1812.5</ele>
        <time>2018-09-09T09:21:20Z</time>
      </trkpt>
      <trkpt lat="45.22654" lon="6.21464">
        <ele>1808.8</ele>
        <time>2018-09-09T09:21:22Z</time>
      </trkpt>
      <trkpt lat="45.22639" lon="6.2145">
        <ele>1807.36</ele>
        <time>2018-09-09T09:21:23Z</time>
      </trkpt>
      <trkpt lat="45.22607" lon="6.21429">
        <ele>1805.4</ele>
        <time>2018-09-09T09:21:25Z</time>
      </trkpt>
      <trkpt lat="45.22591" lon="6.21416">
        <ele>1803.54</ele>
        <time>2018-09-09T09:21:26Z</time>
      </trkpt>
      <trkpt lat="45.22576" lon="6.21403">
        <ele>1801.58</ele>
        <time>2018-09-09T09:21:27Z</time>
      </trkpt>
      <trkpt lat="45.22544" lon="6.21386">
        <ele>1799.21</ele>
        <time>2018-09-09T09:21:29Z</time>
      </trkpt>
      <trkpt lat="45.22514" lon="6.21366">
        <ele>1796.26</ele>
        <time>2018-09-09T09:21:31Z</time>
      </trkpt>
      <trkpt lat="45.22486" lon="6.21339">
        <ele>1794.18</ele>
        <time>2018-09-09T09:21:33Z</time>
      </trkpt>
      <trkpt lat="45.22458" lon="6.21312">
        <ele>1791.96</ele>
        <time>2018-09-09T09:21:35Z</time>
      </trkpt>
      <trkpt lat="45.22431" lon="6.21281">
        <ele>1789.45</ele>
        <time>2018-09-09T09:21:37Z</time>
      </trkpt>
      <trkpt lat="45.22418" lon="6.21262">
        <ele>1788.25</ele>
        <time>2018-09-09T09:21:38Z</time>
      </trkpt>
      <trkpt lat="45.22394" lon="6.21226">
        <ele>1785.48</ele>
        <time>2018-09-09T09:21:40Z</time>
      </trkpt>
      <trkpt lat="45.2238" lon="6.2121">
        <ele>1783.56</ele>
        <time>2018-09-09T09:21:41Z</time>
      </trkpt>
      <trkpt lat="45.22364" lon="6.21197">
        <ele>1781.59</ele>
        <time>2018-09-09T09:21:42Z</time>
      </trkpt>
      <trkpt lat="45.22347" lon="6.21185">
        <ele>1779.59</ele>
        <time>2018-09-09T09:21:43Z</time>
      </trkpt>
      <trkpt lat="45.22329" lon="6.21177">
        <ele>1777.6</ele>
        <time>2018-09-09T09:21:44Z</time>
      </trkpt>
      <trkpt lat="45.2231" lon="6.21171">
        <ele>1776.3</ele>
        <time>2018-09-09T09:21:45Z</time>
      </trkpt>
      <trkpt lat="45.22291" lon="6.21167">
        <ele>1774.51</ele>
        <time>2018-09-09T09:21:46Z</time>
      </trkpt>
      <trkpt lat="45.22271" lon="6.21167">
        <ele>1773.27</ele>
        <time>2018-09-09T09:21:47Z</time>
      </trkpt>
      <trkpt lat="45.22253" lon="6.21169">
        <ele>1772.2</ele>
        <time>2018-09-09T09:21:48Z</time>
      </trkpt>
      <trkpt lat="45.22234" lon="6.21173">
        <ele>1770.48</ele>
        <time>2018-09-09T09:21:49Z</time>
      </trkpt>
      <trkpt lat="45.22215" lon="6.21179">
        <ele>1769.26</ele>
        <time>2018-09-09T09:21:50Z</time>
      </trkpt>
      <trkpt lat="45.22196" lon="6.21187">
        <ele>1768.2</ele>
        <time>2018-09-09T09:21:51Z</time>
      </trkpt>
      <trkpt lat="45.22177" lon="6.21198">
        <ele>1766.48</ele>
        <time>2018-09-09T09:21:52Z</time>
      </trkpt>
      <trkpt lat="45.2216" lon="6.21209">
        <ele>1765.26</ele>
        <time>2018-09-09T09:21:53Z</time>
      </trkpt>
      <trkpt lat="45.22133" lon="6.21227">
        <ele>1762.27</ele>
        <time>2018-09-09T09:21:55Z</time>
      </trkpt>
      <trkpt lat="45.22124" lon="6.2125">
        <ele>1760.99</ele>
        <time>2018-09-09T09:21:58Z</time>
      </trkpt>
      <trkpt lat="45.22144" lon="6.21242">
        <ele>1760.76</ele>
        <time>2018-09-09T09:22:00Z</time>
      </trkpt>
      <trkpt lat="45.22173" lon="6.21235">
        <ele>1758.22</ele>
        <time>2018-09-09T09:22:02Z</time>
      </trkpt>
      <trkpt lat="45.22208" lon="6.21245">
        <ele>1755.26</ele>
        <time>2018-09-09T09:22:04Z</time>
      </trkpt>
      <trkpt lat="45.22226" lon="6.21255">
        <ele>1753.5</ele>
        <time>2018-09-09T09:22:05Z</time>
      </trkpt>
      <trkpt lat="45.22243" lon="6.21266">
        <ele>1751.57</ele>
        <time>2018-09-09T09:22:06Z</time>
      </trkpt>
      <trkpt lat="45.22261" lon="6.2128">
        <ele>1750.29</ele>
        <time>2018-09-09T09:22:07Z</time>
      </trkpt>
      <trkpt lat="45.22278" lon="6.21296">
        <ele>1749.21</ele>
        <time>2018-09-09T09:22:08Z</time>
      </trkpt>
      <trkpt lat="45.22295" lon="6.21312">
        <ele>1748.88</ele>
        <time>2018-09-09T09:22:09Z</time>
      </trkpt>
      <trkpt lat="45.22311" lon="6.21329">
        <ele>1748.78</ele>
        <time>2018-09-09T09:22:10Z</time>
      </trkpt>
      <trkpt lat="45.22326" lon="6.21345">
        <ele>1747.35</ele>
        <time>2018-09-09T09:22:11Z</time>
      </trkpt>
      <trkpt lat="45.22341" lon="6.21362">
        <ele>1746.22</ele>
        <time>2018-09-09T09:22:12Z</time>
      </trkpt>
      <trkpt lat="45.22354" lon="6.21381">
        <ele>1744.49</ele>
        <time>2018-09-09T09:22:13Z</time>
      </trkpt>
      <trkpt lat="45.22368" lon="6.214">
        <ele>1741.86</ele>
        <time>2018-09-09T09:22:14Z</time>
      </trkpt>
      <trkpt lat="45.2238" lon="6.21419">
        <ele>1739.68</ele>
        <time>2018-09-09T09:22:15Z</time>
      </trkpt>
      <trkpt lat="45.22399" lon="6.21458">
        <ele>1735.4</ele>
        <time>2018-09-09T09:22:17Z</time>
      </trkpt>
      <trkpt lat="45.22405" lon="6.21498">
        <ele>1731.37</ele>
        <time>2018-09-09T09:22:19Z</time>
      </trkpt>
      <trkpt lat="45.22409" lon="6.21531">
        <ele>1728.49</ele>
        <time>2018-09-09T09:22:21Z</time>
      </trkpt>
      <trkpt lat="45.22424" lon="6.21558">
        <ele>1724.59</ele>
        <time>2018-09-09T09:22:23Z</time>
      </trkpt>
      <trkpt lat="45.22446" lon="6.2159">
        <ele>1721.3</ele>
        <time>2018-09-09T09:22:25Z</time>
      </trkpt>
      <trkpt lat="45.22469" lon="6.21626">
        <ele>1719.18</ele>
        <time>2018-09-09T09:22:27Z</time>
      </trkpt>
      <trkpt lat="45.22492" lon="6.2166">
        <ele>1716.96</ele>
        <time>2018-09-09T09:22:29Z</time>
      </trkpt>
      <trkpt lat="45.22512" lon="6.2169">
        <ele>1716.06</ele>
        <time>2018-09-09T09:22:31Z</time>
      </trkpt>
      <trkpt lat="45.22522" lon="6.2172">
        <ele>1712.89</ele>
        <time>2018-09-09T09:22:34Z</time>
      </trkpt>
      <trkpt lat="45.22491" lon="6.21702">
        <ele>1709.86</ele>
        <time>2018-09-09T09:22:39Z</time>
      </trkpt>
      <trkpt lat="45.22463" lon="6.21682">
        <ele>1706.74</ele>
        <time>2018-09-09T09:22:41Z</time>
      </trkpt>
      <trkpt lat="45.22434" lon="6.21663">
        <ele>1702.4</ele>
        <time>2018-09-09T09:22:43Z</time>
      </trkpt>
      <trkpt lat="45.22405" lon="6.21644">
        <ele>1699.28</ele>
        <time>2018-09-09T09:22:45Z</time>
      </trkpt>
      <trkpt lat="45.22376" lon="6.21627">
        <ele>1697.18</ele>
        <time>2018-09-09T09:22:47Z</time>
      </trkpt>
      <trkpt lat="45.2235" lon="6.21615">
        <ele>1694.26</ele>
        <time>2018-09-09T09:22:49Z</time>
      </trkpt>
      <trkpt lat="45.22328" lon="6.21613">
        <ele>1692.88</ele>
        <time>2018-09-09T09:22:51Z</time>
      </trkpt>
      <trkpt lat="45.2231" lon="6.216">
        <ele>1691.84</ele>
        <time>2018-09-09T09:22:53Z</time>
      </trkpt>
      <trkpt lat="45.2229" lon="6.21589">
        <ele>1689.23</ele>
        <time>2018-09-09T09:22:55Z</time>
      </trkpt>
      <trkpt lat="45.22266" lon="6.21593">
        <ele>1687.18</ele>
        <time>2018-09-09T09:22:57Z</time>
      </trkpt>
      <trkpt lat="45.22241" lon="6.21614">
        <ele>1684.26</ele>
        <time>2018-09-09T09:22:59Z</time>
      </trkpt>
      <trkpt lat="45.22212" lon="6.21637">
        <ele>1679.66</ele>
        <time>2018-09-09T09:23:01Z</time>
      </trkpt>
      <trkpt lat="45.22181" lon="6.21657">
        <ele>1674.69</ele>
        <time>2018-09-09T09:23:03Z</time>
      </trkpt>
      <trkpt lat="45.2215" lon="6.21673">
        <ele>1671.31</ele>
        <time>2018-09-09T09:23:05Z</time>
      </trkpt>
      <trkpt lat="45.22122" lon="6.21695">
        <ele>1666.66</ele>
        <time>2018-09-09T09:23:07Z</time>
      </trkpt>
      <trkpt lat="45.22101" lon="6.21722">
        <ele>1663.72</ele>
        <time>2018-09-09T09:23:09Z</time>
      </trkpt>
      <trkpt lat="45.22078" lon="6.21733">
        <ele>1659.82</ele>
        <time>2018-09-09T09:23:11Z</time>
      </trkpt>
      <trkpt lat="45.22051" lon="6.21728">
        <ele>1656.53</ele>
        <time>2018-09-09T09:23:13Z</time>
      </trkpt>
      <trkpt lat="45.22023" lon="6.21715">
        <ele>1651.68</ele>
        <time>2018-09-09T09:23:15Z</time>
      </trkpt>
      <trkpt lat="45.21995" lon="6.2171">
        <ele>1649.22</ele>
        <time>2018-09-09T09:23:17Z</time>
      </trkpt>
      <trkpt lat="45.21971" lon="6.21715">
        <ele>1647.08</ele>
        <time>2018-09-09T09:23:20Z</time>
      </trkpt>
      <trkpt lat="45.21997" lon="6.2174">
        <ele>1643.36</ele>
        <time>2018-09-09T09:23:24Z</time>
      </trkpt>
      <trkpt lat="45.22019" lon="6.21753">
        <ele>1640.98</ele>
        <time>2018-09-09T09:23:26Z</time>
      </trkpt>
      <trkpt lat="45.22031" lon="6.21775">
        <ele>1636.63</ele>
        <time>2018-09-09T09:23:28Z</time>
      </trkpt>
      <trkpt lat="45.22039" lon="6.21807">
        <ele>1633.3</ele>
        <time>2018-09-09T09:23:30Z</time>
      </trkpt>
      <trkpt lat="45.22047" lon="6.21837">
        <ele>1631.88</ele>
        <time>2018-09-09T09:23:32Z</time>
      </trkpt>
      <trkpt lat="45.22054" lon="6.21867">
        <ele>1630.14</ele>
        <time>2018-09-09T09:23:34Z</time>
      </trkpt>
      <trkpt lat="45.22062" lon="6.21895">
        <ele>1627.96</ele>
        <time>2018-09-09T09:23:36Z</time>
      </trkpt>
      <trkpt lat="45.22068" lon="6.21926">
        <ele>1625.94</ele>
        <time>2018-09-09T09:23:38Z</time>
      </trkpt>
      <trkpt lat="45.22073" lon="6.21955">
        <ele>1624.15</ele>
        <time>2018-09-09T09:23:40Z</time>
      </trkpt>
      <trkpt lat="45.22081" lon="6.21984">
        <ele>1621.47</ele>
        <time>2018-09-09T09:23:42Z</time>
      </trkpt>
      <trkpt lat="45.22094" lon="6.22008">
        <ele>1618.29</ele>
        <time>2018-09-09T09:23:44Z</time>
      </trkpt>
      <trkpt lat="45.22113" lon="6.22024">
        <ele>1616.18</ele>
        <time>2018-09-09T09:23:46Z</time>
      </trkpt>
      <trkpt lat="45.22132" lon="6.22036">
        <ele>1614.38</ele>
        <time>2018-09-09T09:23:48Z</time>
      </trkpt>
      <trkpt lat="45.22144" lon="6.2206">
        <ele>1610.58</ele>
        <time>2018-09-09T09:23:50Z</time>
      </trkpt>
      <trkpt lat="45.22142" lon="6.22091">
        <ele>1608.21</ele>
        <time>2018-09-09T09:23:52Z</time>
      </trkpt>
      <trkpt lat="45.22147" lon="6.22123">
        <ele>1605.47</ele>
        <time>2018-09-09T09:23:54Z</time>
      </trkpt>
      <trkpt lat="45.22159" lon="6.2215">
        <ele>1603.2</ele>
        <time>2018-09-09T09:23:56Z</time>
      </trkpt>
      <trkpt lat="45.22172" lon="6.22176">
        <ele>1600.26</ele>
        <time>2018-09-09T09:23:58Z</time>
      </trkpt>
      <trkpt lat="45.22186" lon="6.22201">
        <ele>1597.97</ele>
        <time>2018-09-09T09:24:00Z</time>
      </trkpt>
      <trkpt lat="45.22198" lon="6.22225">
        <ele>1595.45</ele>
        <time>2018-09-09T09:24:02Z</time>
      </trkpt>
      <trkpt lat="45.22206" lon="6.22254">
        <ele>1594.8</ele>
        <time>2018-09-09T09:24:04Z</time>
      </trkpt>
      <trkpt lat="45.22209" lon="6.22285">
        <ele>1592.23</ele>
        <time>2018-09-09T09:24:06Z</time>
      </trkpt>
      <trkpt lat="45.22211" lon="6.22316">
        <ele>1590.38</ele>
        <time>2018-09-09T09:24:08Z</time>
      </trkpt>
      <trkpt lat="45.22212" lon="6.22347">
        <ele>1589.1</ele>
        <time>2018-09-09T09:24:10Z</time>
      </trkpt>
      <trkpt lat="45.2221" lon="6.22373">
        <ele>1587.16</ele>
        <time>2018-09-09T09:24:12Z</time>
      </trkpt>
      <trkpt lat="45.22194" lon="6.22343">
        <ele>1587.03</ele>
        <time>2018-09-09T09:24:18Z</time>
      </trkpt>
      <trkpt lat="45.22192" lon="6.2231">
        <ele>1585.16</ele>
        <time>2018-09-09T09:24:20Z</time>
      </trkpt>
      <trkpt lat="45.22181" lon="6.22287">
        <ele>1583.17</ele>
        <time>2018-09-09T09:24:22Z</time>
      </trkpt>
      <trkpt lat="45.2216" lon="6.22279">
        <ele>1583.48</ele>
        <time>2018-09-09T09:24:24Z</time>
      </trkpt>
      <trkpt lat="45.22137" lon="6.22284">
        <ele>1583.72</ele>
        <time>2018-09-09T09:24:26Z</time>
      </trkpt>
      <trkpt lat="45.22115" lon="6.22298">
        <ele>1580.31</ele>
        <time>2018-09-09T09:24:28Z</time>
      </trkpt>
      <trkpt lat="45.22094" lon="6.22313">
        <ele>1579.09</ele>
        <time>2018-09-09T09:24:30Z</time>
      </trkpt>
      <trkpt lat="45.22075" lon="6.22326">
        <ele>1577.16</ele>
        <time>2018-09-09T09:24:32Z</time>
      </trkpt>
      <trkpt lat="45.22055" lon="6.22332">
        <ele>1574.47</ele>
        <time>2018-09-09T09:24:34Z</time>
      </trkpt>
      <trkpt lat="45.22037" lon="6.22333">
        <ele>1571.29</ele>
        <time>2018-09-09T09:24:36Z</time>
      </trkpt>
      <trkpt lat="45.2202" lon="6.22346">
        <ele>1569.78</ele>
        <time>2018-09-09T09:24:39Z</time>
      </trkpt>
      <trkpt lat="45.22027" lon="6.22374">
        <ele>1568.13</ele>
        <time>2018-09-09T09:24:42Z</time>
      </trkpt>
      <trkpt lat="45.22064" lon="6.22386">
        <ele>1567.78</ele>
        <time>2018-09-09T09:24:44Z</time>
      </trkpt>
      <trkpt lat="45.22088" lon="6.22398">
        <ele>1564.03</ele>
        <time>2018-09-09T09:24:46Z</time>
      </trkpt>
      <trkpt lat="45.22107" lon="6.22412">
        <ele>1561.46</ele>
        <time>2018-09-09T09:24:48Z</time>
      </trkpt>
      <trkpt lat="45.22112" lon="6.22448">
        <ele>1554.89</ele>
        <time>2018-09-09T09:24:51Z</time>
      </trkpt>
      <trkpt lat="45.22108" lon="6.22479">
        <ele>1552.23</ele>
        <time>2018-09-09T09:24:53Z</time>
      </trkpt>
      <trkpt lat="45.22104" lon="6.22515">
        <ele>1549.27</ele>
        <time>2018-09-09T09:24:55Z</time>
      </trkpt>
      <trkpt lat="45.22102" lon="6.22551">
        <ele>1547.18</ele>
        <time>2018-09-09T09:24:57Z</time>
      </trkpt>
      <trkpt lat="45.22103" lon="6.22584">
        <ele>1545.87</ele>
        <time>2018-09-09T09:24:59Z</time>
      </trkpt>
      <trkpt lat="45.22104" lon="6.22618">
        <ele>1544.14</ele>
        <time>2018-09-09T09:25:01Z</time>
      </trkpt>
      <trkpt lat="45.22109" lon="6.2265">
        <ele>1541.47</ele>
        <time>2018-09-09T09:25:03Z</time>
      </trkpt>
      <trkpt lat="45.22123" lon="6.22673">
        <ele>1539.2</ele>
        <time>2018-09-09T09:25:05Z</time>
      </trkpt>
      <trkpt lat="45.22134" lon="6.22695">
        <ele>1537.17</ele>
        <time>2018-09-09T09:25:07Z</time>
      </trkpt>
      <trkpt lat="45.22137" lon="6.22726">
        <ele>1535.17</ele>
        <time>2018-09-09T09:25:09Z</time>
      </trkpt>
      <trkpt lat="45.22139" lon="6.2276">
        <ele>1532.26</ele>
        <time>2018-09-09T09:25:11Z</time>
      </trkpt>
      <trkpt lat="45.2214" lon="6.22795">
        <ele>1529.27</ele>
        <time>2018-09-09T09:25:13Z</time>
      </trkpt>
      <trkpt lat="45.22141" lon="6.22831">
        <ele>1527.18</ele>
        <time>2018-09-09T09:25:15Z</time>
      </trkpt>
      <trkpt lat="45.22143" lon="6.22867">
        <ele>1525.17</ele>
        <time>2018-09-09T09:25:17Z</time>
      </trkpt>
      <trkpt lat="45.22143" lon="6.22901">
        <ele>1523.38</ele>
        <time>2018-09-09T09:25:19Z</time>
      </trkpt>
      <trkpt lat="45.22143" lon="6.22933">
        <ele>1521.19</ele>
        <time>2018-09-09T09:25:21Z</time>
      </trkpt>
      <trkpt lat="45.22141" lon="6.22964">
        <ele>1518.96</ele>
        <time>2018-09-09T09:25:23Z</time>
      </trkpt>
      <trkpt lat="45.22141" lon="6.22994">
        <ele>1517.15</ele>
        <time>2018-09-09T09:25:25Z</time>
      </trkpt>
      <trkpt lat="45.22141" lon="6.23023">
        <ele>1515.87</ele>
        <time>2018-09-09T09:25:27Z</time>
      </trkpt>
      <trkpt lat="45.22141" lon="6.23052">
        <ele>1514.14</ele>
        <time>2018-09-09T09:25:29Z</time>
      </trkpt>
      <trkpt lat="45.2214" lon="6.2308">
        <ele>1511.26</ele>
        <time>2018-09-09T09:25:31Z</time>
      </trkpt>
      <trkpt lat="45.22139" lon="6.23107">
        <ele>1510.79</ele>
        <time>2018-09-09T09:25:33Z</time>
      </trkpt>
      <trkpt lat="45.22138" lon="6.23134">
        <ele>1509.14</ele>
        <time>2018-09-09T09:25:35Z</time>
      </trkpt>
      <trkpt lat="45.22138" lon="6.23161">
        <ele>1508.08</ele>
        <time>2018-09-09T09:25:37Z</time>
      </trkpt>
      <trkpt lat="45.2214" lon="6.23187">
        <ele>1507.77</ele>
        <time>2018-09-09T09:25:39Z</time>
      </trkpt>
      <trkpt lat="45.22146" lon="6.23222">
        <ele>1506.83</ele>
        <time>2018-09-09T09:25:42Z</time>
      </trkpt>
      <trkpt lat="45.22152" lon="6.23249">
        <ele>1505.77</ele>
        <time>2018-09-09T09:25:45Z</time>
      </trkpt>
      <trkpt lat="45.22151" lon="6.23278">
        <ele>1504.84</ele>
        <time>2018-09-09T09:25:50Z</time>
      </trkpt>
      <trkpt lat="45.22144" lon="6.23306">
        <ele>1503.98</ele>
        <time>2018-09-09T09:25:54Z</time>
      </trkpt>
      <trkpt lat="45.22136" lon="6.23339">
        <ele>1504.02</ele>
        <time>2018-09-09T09:25:57Z</time>
      </trkpt>
      <trkpt lat="45.22127" lon="6.23362">
        <ele>1504.47</ele>
        <time>2018-09-09T09:25:59Z</time>
      </trkpt>
      <trkpt lat="45.2212" lon="6.23398">
        <ele>1504.73</ele>
        <time>2018-09-09T09:26:02Z</time>
      </trkpt>
      <trkpt lat="45.22112" lon="6.23434">
        <ele>1504.53</ele>
        <time>2018-09-09T09:26:05Z</time>
      </trkpt>
      <trkpt lat="45.22108" lon="6.2346">
        <ele>1504.02</ele>
        <time>2018-09-09T09:26:07Z</time>
      </trkpt>
      <trkpt lat="45.22105" lon="6.23487">
        <ele>1503.98</ele>
        <time>2018-09-09T09:26:09Z</time>
      </trkpt>
      <trkpt lat="45.22103" lon="6.23515">
        <ele>1504.46</ele>
        <time>2018-09-09T09:26:11Z</time>
      </trkpt>
      <trkpt lat="45.22102" lon="6.23542">
        <ele>1504.72</ele>
        <time>2018-09-09T09:26:13Z</time>
      </trkpt>
      <trkpt lat="45.22098" lon="6.23577">
        <ele>1504.74</ele>
        <time>2018-09-09T09:26:16Z</time>
      </trkpt>
      <trkpt lat="45.22092" lon="6.23613">
        <ele>1503.83</ele>
        <time>2018-09-09T09:26:19Z</time>
      </trkpt>
      <trkpt lat="45.22085" lon="6.23651">
        <ele>1502.77</ele>
        <time>2018-09-09T09:26:22Z</time>
      </trkpt>
      <trkpt lat="45.2208" lon="6.23678">
        <ele>1501.83</ele>
        <time>2018-09-09T09:26:24Z</time>
      </trkpt>
      <trkpt lat="45.22074" lon="6.23704">
        <ele>1500.84</ele>
        <time>2018-09-09T09:26:26Z</time>
      </trkpt>
      <trkpt lat="45.2206" lon="6.23735">
        <ele>1499.83</ele>
        <time>2018-09-09T09:26:29Z</time>
      </trkpt>
      <trkpt lat="45.22042" lon="6.23756">
        <ele>1499.74</ele>
        <time>2018-09-09T09:26:32Z</time>
      </trkpt>
      <trkpt lat="45.22027" lon="6.23778">
        <ele>1498.77</ele>
        <time>2018-09-09T09:26:35Z</time>
      </trkpt>
      <trkpt lat="45.22019" lon="6.23804">
        <ele>1498.53</ele>
        <time>2018-09-09T09:26:38Z</time>
      </trkpt>
      <trkpt lat="45.22018" lon="6.23841">
        <ele>1498.74</ele>
        <time>2018-09-09T09:26:41Z</time>
      </trkpt>
      <trkpt lat="45.22017" lon="6.2387">
        <ele>1498.04</ele>
        <time>2018-09-09T09:26:43Z</time>
      </trkpt>
      <trkpt lat="45.22015" lon="6.239">
        <ele>1497.77</ele>
        <time>2018-09-09T09:26:45Z</time>
      </trkpt>
      <trkpt lat="45.2201" lon="6.23929">
        <ele>1497.74</ele>
        <time>2018-09-09T09:26:47Z</time>
      </trkpt>
      <trkpt lat="45.22006" lon="6.23959">
        <ele>1496.83</ele>
        <time>2018-09-09T09:26:49Z</time>
      </trkpt>
      <trkpt lat="45.21995" lon="6.23985">
        <ele>1496.05</ele>
        <time>2018-09-09T09:26:51Z</time>
      </trkpt>
      <trkpt lat="45.21983" lon="6.2401">
        <ele>1494.86</ele>
        <time>2018-09-09T09:26:53Z</time>
      </trkpt>
      <trkpt lat="45.21971" lon="6.24037">
        <ele>1493.14</ele>
        <time>2018-09-09T09:26:55Z</time>
      </trkpt>
      <trkpt lat="45.21961" lon="6.24065">
        <ele>1492.08</ele>
        <time>2018-09-09T09:26:57Z</time>
      </trkpt>
      <trkpt lat="45.2195" lon="6.24096">
        <ele>1491.07</ele>
        <time>2018-09-09T09:26:59Z</time>
      </trkpt>
      <trkpt lat="45.21935" lon="6.24125">
        <ele>1489.86</ele>
        <time>2018-09-09T09:27:01Z</time>
      </trkpt>
      <trkpt lat="45.21913" lon="6.2415">
        <ele>1489.75</ele>
        <time>2018-09-09T09:27:03Z</time>
      </trkpt>
      <trkpt lat="45.21896" lon="6.24183">
        <ele>1487.43</ele>
        <time>2018-09-09T09:27:05Z</time>
      </trkpt>
      <trkpt lat="45.21882" lon="6.24222">
        <ele>1487.71</ele>
        <time>2018-09-09T09:27:07Z</time>
      </trkpt>
      <trkpt lat="45.21867" lon="6.24263">
        <ele>1487.04</ele>
        <time>2018-09-09T09:27:09Z</time>
      </trkpt>
      <trkpt lat="45.21852" lon="6.24304">
        <ele>1485.16</ele>
        <time>2018-09-09T09:27:11Z</time>
      </trkpt>
      <trkpt lat="45.21835" lon="6.24341">
        <ele>1484.78</ele>
        <time>2018-09-09T09:27:13Z</time>
      </trkpt>
      <trkpt lat="45.21815" lon="6.24369">
        <ele>1484.53</ele>
        <time>2018-09-09T09:27:15Z</time>
      </trkpt>
      <trkpt lat="45.21795" lon="6.24395">
        <ele>1483.81</ele>
        <time>2018-09-09T09:27:17Z</time>
      </trkpt>
      <trkpt lat="45.21779" lon="6.24426">
        <ele>1483.75</ele>
        <time>2018-09-09T09:27:19Z</time>
      </trkpt>
      <trkpt lat="45.21766" lon="6.24459">
        <ele>1483.04</ele>
        <time>2018-09-09T09:27:21Z</time>
      </trkpt>
      <trkpt lat="45.2176" lon="6.24493">
        <ele>1482.07</ele>
        <time>2018-09-09T09:27:23Z</time>
      </trkpt>
      <trkpt lat="45.21761" lon="6.24526">
        <ele>1481.77</ele>
        <time>2018-09-09T09:27:25Z</time>
      </trkpt>
      <trkpt lat="45.21762" lon="6.24561">
        <ele>1479.92</ele>
        <time>2018-09-09T09:27:27Z</time>
      </trkpt>
      <trkpt lat="45.21759" lon="6.24594">
        <ele>1479.76</ele>
        <time>2018-09-09T09:27:29Z</time>
      </trkpt>
      <trkpt lat="45.21741" lon="6.24619">
        <ele>1477.22</ele>
        <time>2018-09-09T09:27:31Z</time>
      </trkpt>
      <trkpt lat="45.21724" lon="6.24652">
        <ele>1476.08</ele>
        <time>2018-09-09T09:27:33Z</time>
      </trkpt>
      <trkpt lat="45.21705" lon="6.24687">
        <ele>1475.07</ele>
        <time>2018-09-09T09:27:35Z</time>
      </trkpt>
      <trkpt lat="45.21687" lon="6.24723">
        <ele>1473.16</ele>
        <time>2018-09-09T09:27:37Z</time>
      </trkpt>
      <trkpt lat="45.21668" lon="6.24758">
        <ele>1471.17</ele>
        <time>2018-09-09T09:27:39Z</time>
      </trkpt>
      <trkpt lat="45.21649" lon="6.24791">
        <ele>1470.57</ele>
        <time>2018-09-09T09:27:41Z</time>
      </trkpt>
      <trkpt lat="45.21626" lon="6.24817">
        <ele>1469.82</ele>
        <time>2018-09-09T09:27:43Z</time>
      </trkpt>
      <trkpt lat="45.21601" lon="6.24835">
        <ele>1469.75</ele>
        <time>2018-09-09T09:27:45Z</time>
      </trkpt>
      <trkpt lat="45.21576" lon="6.2485">
        <ele>1469.53</ele>
        <time>2018-09-09T09:27:47Z</time>
      </trkpt>
      <trkpt lat="45.21554" lon="6.24868">
        <ele>1468.81</ele>
        <time>2018-09-09T09:27:49Z</time>
      </trkpt>
      <trkpt lat="45.21534" lon="6.24894">
        <ele>1468.75</ele>
        <time>2018-09-09T09:27:51Z</time>
      </trkpt>
      <trkpt lat="45.21518" lon="6.24922">
        <ele>1467.13</ele>
        <time>2018-09-09T09:27:53Z</time>
      </trkpt>
      <trkpt lat="45.21508" lon="6.24952">
        <ele>1464.26</ele>
        <time>2018-09-09T09:27:55Z</time>
      </trkpt>
      <trkpt lat="45.21501" lon="6.24983">
        <ele>1463.09</ele>
        <time>2018-09-09T09:27:57Z</time>
      </trkpt>
      <trkpt lat="45.21499" lon="6.25019">
        <ele>1459.07</ele>
        <time>2018-09-09T09:27:59Z</time>
      </trkpt>
      <trkpt lat="45.21497" lon="6.25059">
        <ele>1456.89</ele>
        <time>2018-09-09T09:28:01Z</time>
      </trkpt>
      <trkpt lat="45.21496" lon="6.25103">
        <ele>1456.49</ele>
        <time>2018-09-09T09:28:03Z</time>
      </trkpt>
      <trkpt lat="45.21494" lon="6.25147">
        <ele>1454.14</ele>
        <time>2018-09-09T09:28:05Z</time>
      </trkpt>
      <trkpt lat="45.21487" lon="6.25187">
        <ele>1450.29</ele>
        <time>2018-09-09T09:28:07Z</time>
      </trkpt>
      <trkpt lat="45.21469" lon="6.25211">
        <ele>1447.91</ele>
        <time>2018-09-09T09:28:09Z</time>
      </trkpt>
      <trkpt lat="45.21444" lon="6.25219">
        <ele>1445.88</ele>
        <time>2018-09-09T09:28:11Z</time>
      </trkpt>
      <trkpt lat="45.21416" lon="6.25225">
        <ele>1445.48</ele>
        <time>2018-09-09T09:28:13Z</time>
      </trkpt>
      <trkpt lat="45.21387" lon="6.25232">
        <ele>1443.84</ele>
        <time>2018-09-09T09:28:15Z</time>
      </trkpt>
      <trkpt lat="45.21359" lon="6.25242">
        <ele>1442.78</ele>
        <time>2018-09-09T09:28:17Z</time>
      </trkpt>
      <trkpt lat="45.21332" lon="6.25252">
        <ele>1440.87</ele>
        <time>2018-09-09T09:28:19Z</time>
      </trkpt>
      <trkpt lat="45.21308" lon="6.25263">
        <ele>1438.87</ele>
        <time>2018-09-09T09:28:21Z</time>
      </trkpt>
      <trkpt lat="45.21289" lon="6.25287">
        <ele>1438.48</ele>
        <time>2018-09-09T09:28:23Z</time>
      </trkpt>
      <trkpt lat="45.21272" lon="6.25317">
        <ele>1436.63</ele>
        <time>2018-09-09T09:28:25Z</time>
      </trkpt>
      <trkpt lat="45.21255" lon="6.25348">
        <ele>1434.85</ele>
        <time>2018-09-09T09:28:27Z</time>
      </trkpt>
      <trkpt lat="45.21244" lon="6.25385">
        <ele>1432.87</ele>
        <time>2018-09-09T09:28:29Z</time>
      </trkpt>
      <trkpt lat="45.21235" lon="6.25427">
        <ele>1430.87</ele>
        <time>2018-09-09T09:28:31Z</time>
      </trkpt>
      <trkpt lat="45.2122" lon="6.25466">
        <ele>1427.96</ele>
        <time>2018-09-09T09:28:33Z</time>
      </trkpt>
      <trkpt lat="45.21203" lon="6.25503">
        <ele>1425.88</ele>
        <time>2018-09-09T09:28:35Z</time>
      </trkpt>
      <trkpt lat="45.21186" lon="6.25542">
        <ele>1422.96</ele>
        <time>2018-09-09T09:28:37Z</time>
      </trkpt>
      <trkpt lat="45.2117" lon="6.25581">
        <ele>1421.58</ele>
        <time>2018-09-09T09:28:39Z</time>
      </trkpt>
      <trkpt lat="45.21153" lon="6.2562">
        <ele>1420.76</ele>
        <time>2018-09-09T09:28:41Z</time>
      </trkpt>
      <trkpt lat="45.21137" lon="6.25658">
        <ele>1419.77</ele>
        <time>2018-09-09T09:28:43Z</time>
      </trkpt>
      <trkpt lat="45.21121" lon="6.25695">
        <ele>1419.47</ele>
        <time>2018-09-09T09:28:45Z</time>
      </trkpt>
      <trkpt lat="45.21103" lon="6.2573">
        <ele>1419.45</ele>
        <time>2018-09-09T09:28:47Z</time>
      </trkpt>
      <trkpt lat="45.21078" lon="6.25756">
        <ele>1418.54</ele>
        <time>2018-09-09T09:28:49Z</time>
      </trkpt>
      <trkpt lat="45.21049" lon="6.25773">
        <ele>1418.45</ele>
        <time>2018-09-09T09:28:51Z</time>
      </trkpt>
      <trkpt lat="45.2102" lon="6.25791">
        <ele>1417.54</ele>
        <time>2018-09-09T09:28:53Z</time>
      </trkpt>
      <trkpt lat="45.20996" lon="6.25819">
        <ele>1418.36</ele>
        <time>2018-09-09T09:28:55Z</time>
      </trkpt>
      <trkpt lat="45.20975" lon="6.25854">
        <ele>1417.74</ele>
        <time>2018-09-09T09:28:57Z</time>
      </trkpt>
      <trkpt lat="45.20956" lon="6.25889">
        <ele>1417.47</ele>
        <time>2018-09-09T09:28:59Z</time>
      </trkpt>
      <trkpt lat="45.2094" lon="6.25928">
        <ele>1418.36</ele>
        <time>2018-09-09T09:29:01Z</time>
      </trkpt>
      <trkpt lat="45.20925" lon="6.25968">
        <ele>1417.53</ele>
        <time>2018-09-09T09:29:03Z</time>
      </trkpt>
      <trkpt lat="45.2091" lon="6.26007">
        <ele>1417.45</ele>
        <time>2018-09-09T09:29:05Z</time>
      </trkpt>
      <trkpt lat="45.20896" lon="6.26048">
        <ele>1416.75</ele>
        <time>2018-09-09T09:29:07Z</time>
      </trkpt>
      <trkpt lat="45.20886" lon="6.2609">
        <ele>1415.56</ele>
        <time>2018-09-09T09:29:09Z</time>
      </trkpt>
      <trkpt lat="45.20875" lon="6.26133">
        <ele>1414.06</ele>
        <time>2018-09-09T09:29:11Z</time>
      </trkpt>
      <trkpt lat="45.20862" lon="6.26171">
        <ele>1412.1</ele>
        <time>2018-09-09T09:29:13Z</time>
      </trkpt>
      <trkpt lat="45.20841" lon="6.26207">
        <ele>1409.89</ele>
        <time>2018-09-09T09:29:15Z</time>
      </trkpt>
      <trkpt lat="45.20815" lon="6.26231">
        <ele>1408.79</ele>
        <time>2018-09-09T09:29:17Z</time>
      </trkpt>
      <trkpt lat="45.20788" lon="6.26255">
        <ele>1407.78</ele>
        <time>2018-09-09T09:29:19Z</time>
      </trkpt>
      <trkpt lat="45.20761" lon="6.2627">
        <ele>1406.56</ele>
        <time>2018-09-09T09:29:21Z</time>
      </trkpt>
      <trkpt lat="45.20736" lon="6.26281">
        <ele>1405.76</ele>
        <time>2018-09-09T09:29:23Z</time>
      </trkpt>
      <trkpt lat="45.20712" lon="6.26291">
        <ele>1404.77</ele>
        <time>2018-09-09T09:29:25Z</time>
      </trkpt>
      <trkpt lat="45.2069" lon="6.26302">
        <ele>1404.47</ele>
        <time>2018-09-09T09:29:27Z</time>
      </trkpt>
      <trkpt lat="45.20671" lon="6.26315">
        <ele>1404.24</ele>
        <time>2018-09-09T09:29:29Z</time>
      </trkpt>
      <trkpt lat="45.20652" lon="6.26335">
        <ele>1403.52</ele>
        <time>2018-09-09T09:29:31Z</time>
      </trkpt>
      <trkpt lat="45.20633" lon="6.26359">
        <ele>1402.75</ele>
        <time>2018-09-09T09:29:33Z</time>
      </trkpt>
      <trkpt lat="45.20616" lon="6.26382">
        <ele>1403.38</ele>
        <time>2018-09-09T09:29:35Z</time>
      </trkpt>
      <trkpt lat="45.20605" lon="6.26407">
        <ele>1402.53</ele>
        <time>2018-09-09T09:29:37Z</time>
      </trkpt>
      <trkpt lat="45.20596" lon="6.26434">
        <ele>1401.75</ele>
        <time>2018-09-09T09:29:39Z</time>
      </trkpt>
      <trkpt lat="45.20581" lon="6.26456">
        <ele>1399.86</ele>
        <time>2018-09-09T09:29:41Z</time>
      </trkpt>
      <trkpt lat="45.2056" lon="6.26475">
        <ele>1397.87</ele>
        <time>2018-09-09T09:29:43Z</time>
      </trkpt>
      <trkpt lat="45.20538" lon="6.26493">
        <ele>1397.48</ele>
        <time>2018-09-09T09:29:45Z</time>
      </trkpt>
      <trkpt lat="45.20517" lon="6.26511">
        <ele>1396.75</ele>
        <time>2018-09-09T09:29:47Z</time>
      </trkpt>
      <trkpt lat="45.20495" lon="6.26532">
        <ele>1397.17</ele>
        <time>2018-09-09T09:29:49Z</time>
      </trkpt>
      <trkpt lat="45.20473" lon="6.26553">
        <ele>1394.9</ele>
        <time>2018-09-09T09:29:51Z</time>
      </trkpt>
      <trkpt lat="45.20451" lon="6.26568">
        <ele>1393.58</ele>
        <time>2018-09-09T09:29:53Z</time>
      </trkpt>
      <trkpt lat="45.20429" lon="6.26574">
        <ele>1391.57</ele>
        <time>2018-09-09T09:29:56Z</time>
      </trkpt>
      <trkpt lat="45.20411" lon="6.26577">
        <ele>1391.35</ele>
        <time>2018-09-09T09:31:36Z</time>
      </trkpt>
      <trkpt lat="45.20392" lon="6.2659">
        <ele>1391.38</ele>
        <time>2018-09-09T09:31:39Z</time>
      </trkpt>
      <trkpt lat="45.20374" lon="6.2661">
        <ele>1389.56</ele>
        <time>2018-09-09T09:31:42Z</time>
      </trkpt>
      <trkpt lat="45.20355" lon="6.26635">
        <ele>1386.87</ele>
        <time>2018-09-09T09:31:45Z</time>
      </trkpt>
      <trkpt lat="45.20345" lon="6.26658">
        <ele>1385.57</ele>
        <time>2018-09-09T09:31:47Z</time>
      </trkpt>
      <trkpt lat="45.20335" lon="6.26688">
        <ele>1383.85</ele>
        <time>2018-09-09T09:31:49Z</time>
      </trkpt>
      <trkpt lat="45.20323" lon="6.26721">
        <ele>1382.78</ele>
        <time>2018-09-09T09:31:51Z</time>
      </trkpt>
      <trkpt lat="45.20308" lon="6.26751">
        <ele>1381.57</ele>
        <time>2018-09-09T09:31:53Z</time>
      </trkpt>
      <trkpt lat="45.2029" lon="6.26779">
        <ele>1378.94</ele>
        <time>2018-09-09T09:31:55Z</time>
      </trkpt>
      <trkpt lat="45.20271" lon="6.26804">
        <ele>1376.67</ele>
        <time>2018-09-09T09:31:57Z</time>
      </trkpt>
      <trkpt lat="45.20248" lon="6.26823">
        <ele>1375.56</ele>
        <time>2018-09-09T09:31:59Z</time>
      </trkpt>
      <trkpt lat="45.20229" lon="6.2685">
        <ele>1375.24</ele>
        <time>2018-09-09T09:32:01Z</time>
      </trkpt>
      <trkpt lat="45.2021" lon="6.26879">
        <ele>1373.82</ele>
        <time>2018-09-09T09:32:03Z</time>
      </trkpt>
      <trkpt lat="45.20189" lon="6.26904">
        <ele>1372.78</ele>
        <time>2018-09-09T09:32:05Z</time>
      </trkpt>
      <trkpt lat="45.20169" lon="6.26929">
        <ele>1370.86</ele>
        <time>2018-09-09T09:32:07Z</time>
      </trkpt>
      <trkpt lat="45.20157" lon="6.26967">
        <ele>1368.87</ele>
        <time>2018-09-09T09:32:09Z</time>
      </trkpt>
      <trkpt lat="45.20149" lon="6.27007">
        <ele>1365.96</ele>
        <time>2018-09-09T09:32:11Z</time>
      </trkpt>
      <trkpt lat="45.2014" lon="6.27045">
        <ele>1363.67</ele>
        <time>2018-09-09T09:32:13Z</time>
      </trkpt>
      <trkpt lat="45.20132" lon="6.2708">
        <ele>1361.86</ele>
        <time>2018-09-09T09:32:15Z</time>
      </trkpt>
      <trkpt lat="45.20125" lon="6.2711">
        <ele>1360.57</ele>
        <time>2018-09-09T09:32:17Z</time>
      </trkpt>
      <trkpt lat="45.2012" lon="6.27136">
        <ele>1358.54</ele>
        <time>2018-09-09T09:32:21Z</time>
      </trkpt>
      <trkpt lat="45.20117" lon="6.27166">
        <ele>1356.8</ele>
        <time>2018-09-09T09:34:29Z</time>
      </trkpt>
      <trkpt lat="45.20116" lon="6.27192">
        <ele>1356.48</ele>
        <time>2018-09-09T09:34:31Z</time>
      </trkpt>
      <trkpt lat="45.20111" lon="6.27221">
        <ele>1354.84</ele>
        <time>2018-09-09T09:34:33Z</time>
      </trkpt>
      <trkpt lat="45.201" lon="6.27248">
        <ele>1353.78</ele>
        <time>2018-09-09T09:34:35Z</time>
      </trkpt>
      <trkpt lat="45.20085" lon="6.27272">
        <ele>1352.57</ele>
        <time>2018-09-09T09:34:37Z</time>
      </trkpt>
      <trkpt lat="45.20075" lon="6.27297">
        <ele>1352.46</ele>
        <time>2018-09-09T09:34:39Z</time>
      </trkpt>
      <trkpt lat="45.20078" lon="6.27324">
        <ele>1351.75</ele>
        <time>2018-09-09T09:34:41Z</time>
      </trkpt>
      <trkpt lat="45.20092" lon="6.27346">
        <ele>1351.47</ele>
        <time>2018-09-09T09:34:43Z</time>
      </trkpt>
      <trkpt lat="45.20107" lon="6.2737">
        <ele>1351.45</ele>
        <time>2018-09-09T09:34:45Z</time>
      </trkpt>
      <trkpt lat="45.20116" lon="6.27399">
        <ele>1351.45</ele>
        <time>2018-09-09T09:34:47Z</time>
      </trkpt>
      <trkpt lat="45.20114" lon="6.2743">
        <ele>1351.45</ele>
        <time>2018-09-09T09:34:49Z</time>
      </trkpt>
      <trkpt lat="45.20104" lon="6.27459">
        <ele>1351.44</ele>
        <time>2018-09-09T09:34:51Z</time>
      </trkpt>
      <trkpt lat="45.20086" lon="6.27487">
        <ele>1351.44</ele>
        <time>2018-09-09T09:34:53Z</time>
      </trkpt>
      <trkpt lat="45.20069" lon="6.27514">
        <ele>1351.44</ele>
        <time>2018-09-09T09:34:55Z</time>
      </trkpt>
      <trkpt lat="45.20055" lon="6.2754">
        <ele>1351.44</ele>
        <time>2018-09-09T09:34:57Z</time>
      </trkpt>
      <trkpt lat="45.20041" lon="6.27567">
        <ele>1350.74</ele>
        <time>2018-09-09T09:34:59Z</time>
      </trkpt>
      <trkpt lat="45.20026" lon="6.27585">
        <ele>1349.77</ele>
        <time>2018-09-09T09:35:01Z</time>
      </trkpt>
      <trkpt lat="45.20006" lon="6.27598">
        <ele>1351.08</ele>
        <time>2018-09-09T09:35:03Z</time>
      </trkpt>
      <trkpt lat="45.19989" lon="6.27621">
        <ele>1350.5</ele>
        <time>2018-09-09T09:35:05Z</time>
      </trkpt>
      <trkpt lat="45.19971" lon="6.2765">
        <ele>1349.75</ele>
        <time>2018-09-09T09:35:07Z</time>
      </trkpt>
      <trkpt lat="45.19949" lon="6.27674">
        <ele>1348.56</ele>
        <time>2018-09-09T09:35:09Z</time>
      </trkpt>
      <trkpt lat="45.19929" lon="6.27698">
        <ele>1347.76</ele>
        <time>2018-09-09T09:35:11Z</time>
      </trkpt>
      <trkpt lat="45.19914" lon="6.27729">
        <ele>1346.77</ele>
        <time>2018-09-09T09:35:13Z</time>
      </trkpt>
      <trkpt lat="45.19902" lon="6.27762">
        <ele>1345.77</ele>
        <time>2018-09-09T09:35:15Z</time>
      </trkpt>
      <trkpt lat="45.19884" lon="6.27789">
        <ele>1343.86</ele>
        <time>2018-09-09T09:35:17Z</time>
      </trkpt>
      <trkpt lat="45.19857" lon="6.27812">
        <ele>1342.78</ele>
        <time>2018-09-09T09:35:19Z</time>
      </trkpt>
      <trkpt lat="45.19832" lon="6.27841">
        <ele>1340.87</ele>
        <time>2018-09-09T09:35:21Z</time>
      </trkpt>
      <trkpt lat="45.19816" lon="6.27877">
        <ele>1339.78</ele>
        <time>2018-09-09T09:35:23Z</time>
      </trkpt>
      <trkpt lat="45.19804" lon="6.27913">
        <ele>1337.17</ele>
        <time>2018-09-09T09:35:25Z</time>
      </trkpt>
      <trkpt lat="45.19786" lon="6.27943">
        <ele>1334.41</ele>
        <time>2018-09-09T09:35:27Z</time>
      </trkpt>
      <trkpt lat="45.19763" lon="6.2797">
        <ele>1332.62</ele>
        <time>2018-09-09T09:35:29Z</time>
      </trkpt>
      <trkpt lat="45.19736" lon="6.27987">
        <ele>1329.45</ele>
        <time>2018-09-09T09:35:31Z</time>
      </trkpt>
      <trkpt lat="45.19715" lon="6.2801">
        <ele>1326.93</ele>
        <time>2018-09-09T09:35:33Z</time>
      </trkpt>
      <trkpt lat="45.19702" lon="6.28043">
        <ele>1323.97</ele>
        <time>2018-09-09T09:35:35Z</time>
      </trkpt>
      <trkpt lat="45.19694" lon="6.28083">
        <ele>1320.27</ele>
        <time>2018-09-09T09:35:37Z</time>
      </trkpt>
      <trkpt lat="45.19682" lon="6.28126">
        <ele>1317.21</ele>
        <time>2018-09-09T09:35:39Z</time>
      </trkpt>
      <trkpt lat="45.19664" lon="6.28162">
        <ele>1314.2</ele>
        <time>2018-09-09T09:35:41Z</time>
      </trkpt>
      <trkpt lat="45.19646" lon="6.28187">
        <ele>1312.11</ele>
        <time>2018-09-09T09:35:43Z</time>
      </trkpt>
      <trkpt lat="45.19623" lon="6.28189">
        <ele>1309.58</ele>
        <time>2018-09-09T09:35:46Z</time>
      </trkpt>
      <trkpt lat="45.19606" lon="6.2817">
        <ele>1309.45</ele>
        <time>2018-09-09T09:35:49Z</time>
      </trkpt>
      <trkpt lat="45.19588" lon="6.28178">
        <ele>1308.75</ele>
        <time>2018-09-09T09:35:52Z</time>
      </trkpt>
      <trkpt lat="45.19576" lon="6.28198">
        <ele>1307.77</ele>
        <time>2018-09-09T09:35:54Z</time>
      </trkpt>
      <trkpt lat="45.19561" lon="6.28222">
        <ele>1305.86</ele>
        <time>2018-09-09T09:35:56Z</time>
      </trkpt>
      <trkpt lat="45.19546" lon="6.28249">
        <ele>1304.78</ele>
        <time>2018-09-09T09:35:58Z</time>
      </trkpt>
      <trkpt lat="45.19531" lon="6.28281">
        <ele>1301.26</ele>
        <time>2018-09-09T09:36:00Z</time>
      </trkpt>
      <trkpt lat="45.19514" lon="6.28311">
        <ele>1299.61</ele>
        <time>2018-09-09T09:36:02Z</time>
      </trkpt>
      <trkpt lat="45.19494" lon="6.28342">
        <ele>1297.85</ele>
        <time>2018-09-09T09:36:04Z</time>
      </trkpt>
      <trkpt lat="45.19474" lon="6.28372">
        <ele>1296.78</ele>
        <time>2018-09-09T09:36:06Z</time>
      </trkpt>
      <trkpt lat="45.1945" lon="6.28396">
        <ele>1295.08</ele>
        <time>2018-09-09T09:36:08Z</time>
      </trkpt>
      <trkpt lat="45.19422" lon="6.28415">
        <ele>1292.89</ele>
        <time>2018-09-09T09:36:10Z</time>
      </trkpt>
      <trkpt lat="45.19394" lon="6.28427">
        <ele>1291.58</ele>
        <time>2018-09-09T09:36:12Z</time>
      </trkpt>
      <trkpt lat="45.19367" lon="6.28445">
        <ele>1288.94</ele>
        <time>2018-09-09T09:36:14Z</time>
      </trkpt>
      <trkpt lat="45.19342" lon="6.2847">
        <ele>1286.88</ele>
        <time>2018-09-09T09:36:16Z</time>
      </trkpt>
      <trkpt lat="45.19318" lon="6.28499">
        <ele>1286.48</ele>
        <time>2018-09-09T09:36:18Z</time>
      </trkpt>
      <trkpt lat="45.19294" lon="6.28527">
        <ele>1285.75</ele>
        <time>2018-09-09T09:36:20Z</time>
      </trkpt>
      <trkpt lat="45.19272" lon="6.28554">
        <ele>1284.56</ele>
        <time>2018-09-09T09:36:22Z</time>
      </trkpt>
      <trkpt lat="45.19253" lon="6.28578">
        <ele>1284.46</ele>
        <time>2018-09-09T09:36:24Z</time>
      </trkpt>
      <trkpt lat="45.19243" lon="6.286">
        <ele>1283.54</ele>
        <time>2018-09-09T09:36:26Z</time>
      </trkpt>
      <trkpt lat="45.19254" lon="6.28623">
        <ele>1282.75</ele>
        <time>2018-09-09T09:36:28Z</time>
      </trkpt>
      <trkpt lat="45.19267" lon="6.28649">
        <ele>1281.56</ele>
        <time>2018-09-09T09:36:30Z</time>
      </trkpt>
      <trkpt lat="45.19274" lon="6.28683">
        <ele>1280.55</ele>
        <time>2018-09-09T09:36:32Z</time>
      </trkpt>
      <trkpt lat="45.1927" lon="6.28721">
        <ele>1278.84</ele>
        <time>2018-09-09T09:36:34Z</time>
      </trkpt>
      <trkpt lat="45.19254" lon="6.28753">
        <ele>1277.78</ele>
        <time>2018-09-09T09:36:36Z</time>
      </trkpt>
      <trkpt lat="45.19235" lon="6.28782">
        <ele>1275.87</ele>
        <time>2018-09-09T09:36:38Z</time>
      </trkpt>
      <trkpt lat="45.19222" lon="6.28817">
        <ele>1274.57</ele>
        <time>2018-09-09T09:36:40Z</time>
      </trkpt>
      <trkpt lat="45.19224" lon="6.28857">
        <ele>1272.85</ele>
        <time>2018-09-09T09:36:42Z</time>
      </trkpt>
      <trkpt lat="45.19224" lon="6.289">
        <ele>1270.87</ele>
        <time>2018-09-09T09:36:44Z</time>
      </trkpt>
      <trkpt lat="45.19222" lon="6.28934">
        <ele>1270.48</ele>
        <time>2018-09-09T09:36:46Z</time>
      </trkpt>
      <trkpt lat="45.19231" lon="6.28959">
        <ele>1269.75</ele>
        <time>2018-09-09T09:36:48Z</time>
      </trkpt>
      <trkpt lat="45.1925" lon="6.2898">
        <ele>1268.07</ele>
        <time>2018-09-09T09:36:50Z</time>
      </trkpt>
      <trkpt lat="45.1927" lon="6.29004">
        <ele>1266.8</ele>
        <time>2018-09-09T09:36:52Z</time>
      </trkpt>
      <trkpt lat="45.19284" lon="6.29035">
        <ele>1264.87</ele>
        <time>2018-09-09T09:36:54Z</time>
      </trkpt>
      <trkpt lat="45.19289" lon="6.29066">
        <ele>1262.66</ele>
        <time>2018-09-09T09:36:56Z</time>
      </trkpt>
      <trkpt lat="45.19278" lon="6.29097">
        <ele>1259.94</ele>
        <time>2018-09-09T09:36:58Z</time>
      </trkpt>
      <trkpt lat="45.19262" lon="6.29128">
        <ele>1259.7</ele>
        <time>2018-09-09T09:37:00Z</time>
      </trkpt>
      <trkpt lat="45.19249" lon="6.29164">
        <ele>1257.65</ele>
        <time>2018-09-09T09:37:02Z</time>
      </trkpt>
      <trkpt lat="45.19241" lon="6.29203">
        <ele>1256.76</ele>
        <time>2018-09-09T09:37:04Z</time>
      </trkpt>
      <trkpt lat="45.19235" lon="6.29243">
        <ele>1254.86</ele>
        <time>2018-09-09T09:37:06Z</time>
      </trkpt>
      <trkpt lat="45.19237" lon="6.2928">
        <ele>1252.87</ele>
        <time>2018-09-09T09:37:08Z</time>
      </trkpt>
      <trkpt lat="45.19251" lon="6.29312">
        <ele>1251.99</ele>
        <time>2018-09-09T09:37:10Z</time>
      </trkpt>
      <trkpt lat="45.19272" lon="6.29337">
        <ele>1251.7</ele>
        <time>2018-09-09T09:37:12Z</time>
      </trkpt>
      <trkpt lat="45.19289" lon="6.2937">
        <ele>1251.47</ele>
        <time>2018-09-09T09:37:14Z</time>
      </trkpt>
      <trkpt lat="45.19302" lon="6.29411">
        <ele>1249.84</ele>
        <time>2018-09-09T09:37:16Z</time>
      </trkpt>
      <trkpt lat="45.19316" lon="6.29449">
        <ele>1247.17</ele>
        <time>2018-09-09T09:37:18Z</time>
      </trkpt>
      <trkpt lat="45.19329" lon="6.29487">
        <ele>1244.9</ele>
        <time>2018-09-09T09:37:20Z</time>
      </trkpt>
      <trkpt lat="45.19336" lon="6.29529">
        <ele>1242.88</ele>
        <time>2018-09-09T09:37:22Z</time>
      </trkpt>
      <trkpt lat="45.19339" lon="6.29569">
        <ele>1241.57</ele>
        <time>2018-09-09T09:37:24Z</time>
      </trkpt>
      <trkpt lat="45.19344" lon="6.29611">
        <ele>1239.85</ele>
        <time>2018-09-09T09:37:26Z</time>
      </trkpt>
      <trkpt lat="45.19355" lon="6.29652">
        <ele>1238.78</ele>
        <time>2018-09-09T09:37:28Z</time>
      </trkpt>
      <trkpt lat="45.1937" lon="6.29691">
        <ele>1237.78</ele>
        <time>2018-09-09T09:37:30Z</time>
      </trkpt>
      <trkpt lat="45.19385" lon="6.2973">
        <ele>1236.56</ele>
        <time>2018-09-09T09:37:32Z</time>
      </trkpt>
      <trkpt lat="45.19408" lon="6.29762">
        <ele>1234.85</ele>
        <time>2018-09-09T09:37:34Z</time>
      </trkpt>
      <trkpt lat="45.19436" lon="6.29784">
        <ele>1233.57</ele>
        <time>2018-09-09T09:37:36Z</time>
      </trkpt>
      <trkpt lat="45.19467" lon="6.29805">
        <ele>1231.64</ele>
        <time>2018-09-09T09:37:38Z</time>
      </trkpt>
      <trkpt lat="45.19499" lon="6.29824">
        <ele>1230.55</ele>
        <time>2018-09-09T09:37:40Z</time>
      </trkpt>
      <trkpt lat="45.19516" lon="6.29831">
        <ele>1230.48</ele>
        <time>2018-09-09T09:37:41Z</time>
      </trkpt>
      <trkpt lat="45.19547" lon="6.29848">
        <ele>1230.45</ele>
        <time>2018-09-09T09:37:43Z</time>
      </trkpt>
      <trkpt lat="45.19574" lon="6.29865">
        <ele>1229.54</ele>
        <time>2018-09-09T09:37:45Z</time>
      </trkpt>
      <trkpt lat="45.19591" lon="6.29889">
        <ele>1229.45</ele>
        <time>2018-09-09T09:37:47Z</time>
      </trkpt>
      <trkpt lat="45.19599" lon="6.29922">
        <ele>1229.45</ele>
        <time>2018-09-09T09:37:49Z</time>
      </trkpt>
      <trkpt lat="45.19601" lon="6.29958">
        <ele>1228.75</ele>
        <time>2018-09-09T09:37:51Z</time>
      </trkpt>
      <trkpt lat="45.19605" lon="6.29999">
        <ele>1228.47</ele>
        <time>2018-09-09T09:37:53Z</time>
      </trkpt>
      <trkpt lat="45.19617" lon="6.30033">
        <ele>1226.84</ele>
        <time>2018-09-09T09:37:55Z</time>
      </trkpt>
      <trkpt lat="45.1963" lon="6.30052">
        <ele>1228.09</ele>
        <time>2018-09-09T09:37:57Z</time>
      </trkpt>
      <trkpt lat="45.19649" lon="6.30066">
        <ele>1227.71</ele>
        <time>2018-09-09T09:37:59Z</time>
      </trkpt>
      <trkpt lat="45.19665" lon="6.30087">
        <ele>1228.17</ele>
        <time>2018-09-09T09:38:01Z</time>
      </trkpt>
      <trkpt lat="45.19679" lon="6.30107">
        <ele>1228.42</ele>
        <time>2018-09-09T09:38:03Z</time>
      </trkpt>
      <trkpt lat="45.19686" lon="6.30133">
        <ele>1227.45</ele>
        <time>2018-09-09T09:38:07Z</time>
      </trkpt>
      <trkpt lat="45.19679" lon="6.30167">
        <ele>1226.75</ele>
        <time>2018-09-09T09:38:11Z</time>
      </trkpt>
      <trkpt lat="45.19688" lon="6.30192">
        <ele>1226.26</ele>
        <time>2018-09-09T09:38:13Z</time>
      </trkpt>
      <trkpt lat="45.19697" lon="6.30217">
        <ele>1226.43</ele>
        <time>2018-09-09T09:38:15Z</time>
      </trkpt>
      <trkpt lat="45.19699" lon="6.30253">
        <ele>1226.44</ele>
        <time>2018-09-09T09:38:17Z</time>
      </trkpt>
      <trkpt lat="45.19704" lon="6.30284">
        <ele>1226.65</ele>
        <time>2018-09-09T09:38:19Z</time>
      </trkpt>
      <trkpt lat="45.19707" lon="6.30313">
        <ele>1226.67</ele>
        <time>2018-09-09T09:38:21Z</time>
      </trkpt>
      <trkpt lat="45.19689" lon="6.30337">
        <ele>1225.48</ele>
        <time>2018-09-09T09:38:24Z</time>
      </trkpt>
      <trkpt lat="45.19668" lon="6.30327">
        <ele>1227.06</ele>
        <time>2018-09-09T09:38:26Z</time>
      </trkpt>
      <trkpt lat="45.19655" lon="6.30356">
        <ele>1226.03</ele>
        <time>2018-09-09T09:38:29Z</time>
      </trkpt>
      <trkpt lat="45.19656" lon="6.3039">
        <ele>1226.16</ele>
        <time>2018-09-09T09:38:32Z</time>
      </trkpt>
      <trkpt lat="45.1967" lon="6.30417">
        <ele>1228.94</ele>
        <time>2018-09-09T09:38:34Z</time>
      </trkpt>
      <trkpt lat="45.19689" lon="6.30438">
        <ele>1231.71</ele>
        <time>2018-09-09T09:38:36Z</time>
      </trkpt>
      <trkpt lat="45.1971" lon="6.30455">
        <ele>1233.78</ele>
        <time>2018-09-09T09:38:38Z</time>
      </trkpt>
      <trkpt lat="45.19732" lon="6.30477">
        <ele>1235.3</ele>
        <time>2018-09-09T09:38:40Z</time>
      </trkpt>
      <trkpt lat="45.1975" lon="6.30505">
        <ele>1236.34</ele>
        <time>2018-09-09T09:38:42Z</time>
      </trkpt>
      <trkpt lat="45.19769" lon="6.30536">
        <ele>1234.83</ele>
        <time>2018-09-09T09:38:44Z</time>
      </trkpt>
      <trkpt lat="45.19792" lon="6.30561">
        <ele>1237</ele>
        <time>2018-09-09T09:38:46Z</time>
      </trkpt>
      <trkpt lat="45.19818" lon="6.30588">
        <ele>1240.62</ele>
        <time>2018-09-09T09:38:48Z</time>
      </trkpt>
      <trkpt lat="45.19842" lon="6.30616">
        <ele>1243.89</ele>
        <time>2018-09-09T09:38:50Z</time>
      </trkpt>
      <trkpt lat="45.19863" lon="6.30642">
        <ele>1246.92</ele>
        <time>2018-09-09T09:38:52Z</time>
      </trkpt>
      <trkpt lat="45.19885" lon="6.30661">
        <ele>1249.01</ele>
        <time>2018-09-09T09:38:54Z</time>
      </trkpt>
      <trkpt lat="45.19908" lon="6.30668">
        <ele>1253.33</ele>
        <time>2018-09-09T09:38:56Z</time>
      </trkpt>
      <trkpt lat="45.19925" lon="6.30691">
        <ele>1257.56</ele>
        <time>2018-09-09T09:38:58Z</time>
      </trkpt>
      <trkpt lat="45.1993" lon="6.30724">
        <ele>1259.98</ele>
        <time>2018-09-09T09:39:00Z</time>
      </trkpt>
      <trkpt lat="45.1993" lon="6.30761">
        <ele>1261.1</ele>
        <time>2018-09-09T09:39:02Z</time>
      </trkpt>
      <trkpt lat="45.19911" lon="6.3079">
        <ele>1264.84</ele>
        <time>2018-09-09T09:39:04Z</time>
      </trkpt>
      <trkpt lat="45.19897" lon="6.30825">
        <ele>1268.61</ele>
        <time>2018-09-09T09:39:06Z</time>
      </trkpt>
      <trkpt lat="45.1989" lon="6.30865">
        <ele>1269.37</ele>
        <time>2018-09-09T09:39:08Z</time>
      </trkpt>
      <trkpt lat="45.19894" lon="6.30898">
        <ele>1271.75</ele>
        <time>2018-09-09T09:39:10Z</time>
      </trkpt>
      <trkpt lat="45.19904" lon="6.30927">
        <ele>1273.08</ele>
        <time>2018-09-09T09:39:12Z</time>
      </trkpt>
      <trkpt lat="45.19922" lon="6.30948">
        <ele>1273.41</ele>
        <time>2018-09-09T09:39:14Z</time>
      </trkpt>
      <trkpt lat="45.19943" lon="6.30952">
        <ele>1275.54</ele>
        <time>2018-09-09T09:39:15Z</time>
      </trkpt>
      <trkpt lat="45.19972" lon="6.30969">
        <ele>1281.4</ele>
        <time>2018-09-09T09:39:17Z</time>
      </trkpt>
      <trkpt lat="45.19987" lon="6.30996">
        <ele>1286.27</ele>
        <time>2018-09-09T09:39:19Z</time>
      </trkpt>
      <trkpt lat="45.20011" lon="6.31022">
        <ele>1288.95</ele>
        <time>2018-09-09T09:39:21Z</time>
      </trkpt>
      <trkpt lat="45.2004" lon="6.31036">
        <ele>1292.41</ele>
        <time>2018-09-09T09:39:23Z</time>
      </trkpt>
      <trkpt lat="45.20063" lon="6.31062">
        <ele>1296.57</ele>
        <time>2018-09-09T09:39:25Z</time>
      </trkpt>
      <trkpt lat="45.20087" lon="6.31092">
        <ele>1299.68</ele>
        <time>2018-09-09T09:39:27Z</time>
      </trkpt>
      <trkpt lat="45.20112" lon="6.31118">
        <ele>1303.81</ele>
        <time>2018-09-09T09:39:29Z</time>
      </trkpt>
      <trkpt lat="45.20136" lon="6.31138">
        <ele>1306.7</ele>
        <time>2018-09-09T09:39:31Z</time>
      </trkpt>
      <trkpt lat="45.20141" lon="6.31166">
        <ele>1312.28</ele>
        <time>2018-09-09T09:39:35Z</time>
      </trkpt>
      <trkpt lat="45.20122" lon="6.31188">
        <ele>1313.29</ele>
        <time>2018-09-09T09:39:38Z</time>
      </trkpt>
      <trkpt lat="45.20109" lon="6.31212">
        <ele>1314.13</ele>
        <time>2018-09-09T09:39:40Z</time>
      </trkpt>
      <trkpt lat="45.20118" lon="6.31247">
        <ele>1318.63</ele>
        <time>2018-09-09T09:39:43Z</time>
      </trkpt>
      <trkpt lat="45.20136" lon="6.31264">
        <ele>1320.98</ele>
        <time>2018-09-09T09:39:45Z</time>
      </trkpt>
      <trkpt lat="45.20148" lon="6.3129">
        <ele>1322.8</ele>
        <time>2018-09-09T09:39:47Z</time>
      </trkpt>
      <trkpt lat="45.20151" lon="6.31331">
        <ele>1324.09</ele>
        <time>2018-09-09T09:39:49Z</time>
      </trkpt>
      <trkpt lat="45.20149" lon="6.31369">
        <ele>1326.72</ele>
        <time>2018-09-09T09:39:51Z</time>
      </trkpt>
      <trkpt lat="45.20147" lon="6.31409">
        <ele>1327.38</ele>
        <time>2018-09-09T09:39:53Z</time>
      </trkpt>
      <trkpt lat="45.20154" lon="6.3145">
        <ele>1328.35</ele>
        <time>2018-09-09T09:39:55Z</time>
      </trkpt>
      <trkpt lat="45.20167" lon="6.31472">
        <ele>1328.42</ele>
        <time>2018-09-09T09:39:56Z</time>
      </trkpt>
      <trkpt lat="45.20185" lon="6.31512">
        <ele>1331.87</ele>
        <time>2018-09-09T09:39:58Z</time>
      </trkpt>
      <trkpt lat="45.20195" lon="6.31557">
        <ele>1334.91</ele>
        <time>2018-09-09T09:40:00Z</time>
      </trkpt>
      <trkpt lat="45.20198" lon="6.31607">
        <ele>1337.01</ele>
        <time>2018-09-09T09:40:02Z</time>
      </trkpt>
      <trkpt lat="45.20201" lon="6.31651">
        <ele>1339.23</ele>
        <time>2018-09-09T09:40:04Z</time>
      </trkpt>
      <trkpt lat="45.20205" lon="6.31693">
        <ele>1340.13</ele>
        <time>2018-09-09T09:40:06Z</time>
      </trkpt>
      <trkpt lat="45.20198" lon="6.31721">
        <ele>1344.34</ele>
        <time>2018-09-09T09:40:08Z</time>
      </trkpt>
      <trkpt lat="45.20182" lon="6.31743">
        <ele>1347.87</ele>
        <time>2018-09-09T09:40:10Z</time>
      </trkpt>
      <trkpt lat="45.20168" lon="6.31775">
        <ele>1349.09</ele>
        <time>2018-09-09T09:40:12Z</time>
      </trkpt>
      <trkpt lat="45.20168" lon="6.31813">
        <ele>1350.81</ele>
        <time>2018-09-09T09:40:14Z</time>
      </trkpt>
      <trkpt lat="45.20166" lon="6.31851">
        <ele>1353</ele>
        <time>2018-09-09T09:40:16Z</time>
      </trkpt>
      <trkpt lat="45.20163" lon="6.31889">
        <ele>1356.62</ele>
        <time>2018-09-09T09:40:18Z</time>
      </trkpt>
      <trkpt lat="45.20156" lon="6.31925">
        <ele>1358.98</ele>
        <time>2018-09-09T09:40:20Z</time>
      </trkpt>
      <trkpt lat="45.20143" lon="6.31955">
        <ele>1359.4</ele>
        <time>2018-09-09T09:40:22Z</time>
      </trkpt>
      <trkpt lat="45.2013" lon="6.31983">
        <ele>1361.75</ele>
        <time>2018-09-09T09:40:24Z</time>
      </trkpt>
      <trkpt lat="45.2011" lon="6.31984">
        <ele>1363.99</ele>
        <time>2018-09-09T09:40:26Z</time>
      </trkpt>
      <trkpt lat="45.20086" lon="6.31964">
        <ele>1364.4</ele>
        <time>2018-09-09T09:40:28Z</time>
      </trkpt>
      <trkpt lat="45.20065" lon="6.3195">
        <ele>1365.13</ele>
        <time>2018-09-09T09:40:29Z</time>
      </trkpt>
      <trkpt lat="45.20033" lon="6.31942">
        <ele>1366.33</ele>
        <time>2018-09-09T09:40:31Z</time>
      </trkpt>
      <trkpt lat="45.20009" lon="6.31953">
        <ele>1367.34</ele>
        <time>2018-09-09T09:40:33Z</time>
      </trkpt>
      <trkpt lat="45.19991" lon="6.31985">
        <ele>1369.75</ele>
        <time>2018-09-09T09:40:35Z</time>
      </trkpt>
      <trkpt lat="45.19987" lon="6.32026">
        <ele>1372.2</ele>
        <time>2018-09-09T09:40:37Z</time>
      </trkpt>
      <trkpt lat="45.19972" lon="6.3206">
        <ele>1373.12</ele>
        <time>2018-09-09T09:40:39Z</time>
      </trkpt>
      <trkpt lat="45.19947" lon="6.32071">
        <ele>1372.3</ele>
        <time>2018-09-09T09:40:41Z</time>
      </trkpt>
      <trkpt lat="45.19929" lon="6.32089">
        <ele>1374.25</ele>
        <time>2018-09-09T09:40:43Z</time>
      </trkpt>
      <trkpt lat="45.19907" lon="6.32097">
        <ele>1376.74</ele>
        <time>2018-09-09T09:40:45Z</time>
      </trkpt>
      <trkpt lat="45.19883" lon="6.3211">
        <ele>1379.48</ele>
        <time>2018-09-09T09:40:47Z</time>
      </trkpt>
      <trkpt lat="45.19861" lon="6.3213">
        <ele>1381.06</ele>
        <time>2018-09-09T09:40:49Z</time>
      </trkpt>
      <trkpt lat="45.19849" lon="6.3216">
        <ele>1382.81</ele>
        <time>2018-09-09T09:40:51Z</time>
      </trkpt>
      <trkpt lat="45.19846" lon="6.32199">
        <ele>1385.91</ele>
        <time>2018-09-09T09:40:53Z</time>
      </trkpt>
      <trkpt lat="45.19837" lon="6.32229">
        <ele>1387.31</ele>
        <time>2018-09-09T09:40:55Z</time>
      </trkpt>
      <trkpt lat="45.19818" lon="6.32248">
        <ele>1388.34</ele>
        <time>2018-09-09T09:40:57Z</time>
      </trkpt>
      <trkpt lat="45.19803" lon="6.32265">
        <ele>1389.81</ele>
        <time>2018-09-09T09:40:58Z</time>
      </trkpt>
      <trkpt lat="45.19783" lon="6.32298">
        <ele>1394.31</ele>
        <time>2018-09-09T09:41:00Z</time>
      </trkpt>
      <trkpt lat="45.19768" lon="6.32333">
        <ele>1399.26</ele>
        <time>2018-09-09T09:41:02Z</time>
      </trkpt>
      <trkpt lat="45.19759" lon="6.32369">
        <ele>1401.25</ele>
        <time>2018-09-09T09:41:04Z</time>
      </trkpt>
      <trkpt lat="45.19749" lon="6.32406">
        <ele>1403.04</ele>
        <time>2018-09-09T09:41:06Z</time>
      </trkpt>
      <trkpt lat="45.19739" lon="6.32444">
        <ele>1406.63</ele>
        <time>2018-09-09T09:41:08Z</time>
      </trkpt>
      <trkpt lat="45.19725" lon="6.32478">
        <ele>1409.68</ele>
        <time>2018-09-09T09:41:10Z</time>
      </trkpt>
      <trkpt lat="45.19705" lon="6.32508">
        <ele>1411.08</ele>
        <time>2018-09-09T09:41:12Z</time>
      </trkpt>
      <trkpt lat="45.19682" lon="6.32534">
        <ele>1413.02</ele>
        <time>2018-09-09T09:41:14Z</time>
      </trkpt>
      <trkpt lat="45.19657" lon="6.32563">
        <ele>1415.51</ele>
        <time>2018-09-09T09:41:16Z</time>
      </trkpt>
      <trkpt lat="45.19634" lon="6.32595">
        <ele>1417.97</ele>
        <time>2018-09-09T09:41:18Z</time>
      </trkpt>
      <trkpt lat="45.19613" lon="6.3263">
        <ele>1419.8</ele>
        <time>2018-09-09T09:41:20Z</time>
      </trkpt>
      <trkpt lat="45.19598" lon="6.32668">
        <ele>1422.7</ele>
        <time>2018-09-09T09:41:22Z</time>
      </trkpt>
      <trkpt lat="45.19587" lon="6.32704">
        <ele>1425.69</ele>
        <time>2018-09-09T09:41:24Z</time>
      </trkpt>
      <trkpt lat="45.1958" lon="6.32737">
        <ele>1428.2</ele>
        <time>2018-09-09T09:41:26Z</time>
      </trkpt>
      <trkpt lat="45.19586" lon="6.32769">
        <ele>1428.21</ele>
        <time>2018-09-09T09:41:28Z</time>
      </trkpt>
      <trkpt lat="45.19589" lon="6.32798">
        <ele>1430.73</ele>
        <time>2018-09-09T09:41:30Z</time>
      </trkpt>
      <trkpt lat="45.19597" lon="6.32826">
        <ele>1432.08</ele>
        <time>2018-09-09T09:41:32Z</time>
      </trkpt>
      <trkpt lat="45.19602" lon="6.32861">
        <ele>1433.68</ele>
        <time>2018-09-09T09:41:35Z</time>
      </trkpt>
      <trkpt lat="45.19596" lon="6.32892">
        <ele>1436.8</ele>
        <time>2018-09-09T09:41:38Z</time>
      </trkpt>
      <trkpt lat="45.19591" lon="6.3292">
        <ele>1438.4</ele>
        <time>2018-09-09T09:41:41Z</time>
      </trkpt>
      <trkpt lat="45.19594" lon="6.32946">
        <ele>1437.47</ele>
        <time>2018-09-09T09:41:44Z</time>
      </trkpt>
      <trkpt lat="45.19593" lon="6.32978">
        <ele>1437.74</ele>
        <time>2018-09-09T09:41:48Z</time>
      </trkpt>
      <trkpt lat="45.19587" lon="6.33005">
        <ele>1440.04</ele>
        <time>2018-09-09T09:41:51Z</time>
      </trkpt>
      <trkpt lat="45.19583" lon="6.33041">
        <ele>1441.13</ele>
        <time>2018-09-09T09:41:54Z</time>
      </trkpt>
      <trkpt lat="45.19578" lon="6.33068">
        <ele>1442.12</ele>
        <time>2018-09-09T09:41:56Z</time>
      </trkpt>
      <trkpt lat="45.19581" lon="6.33097">
        <ele>1443.33</ele>
        <time>2018-09-09T09:41:58Z</time>
      </trkpt>
      <trkpt lat="45.19591" lon="6.33124">
        <ele>1443.43</ele>
        <time>2018-09-09T09:42:00Z</time>
      </trkpt>
      <trkpt lat="45.19605" lon="6.3315">
        <ele>1442.74</ele>
        <time>2018-09-09T09:42:02Z</time>
      </trkpt>
      <trkpt lat="45.19621" lon="6.33179">
        <ele>1442.47</ele>
        <time>2018-09-09T09:42:04Z</time>
      </trkpt>
      <trkpt lat="45.19639" lon="6.33206">
        <ele>1442.45</ele>
        <time>2018-09-09T09:42:06Z</time>
      </trkpt>
      <trkpt lat="45.19662" lon="6.33227">
        <ele>1442.45</ele>
        <time>2018-09-09T09:42:08Z</time>
      </trkpt>
      <trkpt lat="45.19686" lon="6.33244">
        <ele>1443.15</ele>
        <time>2018-09-09T09:42:10Z</time>
      </trkpt>
      <trkpt lat="45.19711" lon="6.33263">
        <ele>1444.33</ele>
        <time>2018-09-09T09:42:12Z</time>
      </trkpt>
      <trkpt lat="45.19734" lon="6.33289">
        <ele>1445.13</ele>
        <time>2018-09-09T09:42:14Z</time>
      </trkpt>
      <trkpt lat="45.19756" lon="6.33315">
        <ele>1445.42</ele>
        <time>2018-09-09T09:42:16Z</time>
      </trkpt>
      <trkpt lat="45.19782" lon="6.33328">
        <ele>1447.05</ele>
        <time>2018-09-09T09:42:18Z</time>
      </trkpt>
      <trkpt lat="45.19809" lon="6.33325">
        <ele>1447.41</ele>
        <time>2018-09-09T09:42:20Z</time>
      </trkpt>
      <trkpt lat="45.19833" lon="6.33311">
        <ele>1448.35</ele>
        <time>2018-09-09T09:42:22Z</time>
      </trkpt>
      <trkpt lat="45.1986" lon="6.33309">
        <ele>1448.44</ele>
        <time>2018-09-09T09:42:24Z</time>
      </trkpt>
      <trkpt lat="45.19889" lon="6.33314">
        <ele>1449.84</ele>
        <time>2018-09-09T09:42:26Z</time>
      </trkpt>
      <trkpt lat="45.19917" lon="6.3333">
        <ele>1452.91</ele>
        <time>2018-09-09T09:42:28Z</time>
      </trkpt>
      <trkpt lat="45.19939" lon="6.33357">
        <ele>1455.01</ele>
        <time>2018-09-09T09:42:30Z</time>
      </trkpt>
      <trkpt lat="45.19959" lon="6.33385">
        <ele>1455.41</ele>
        <time>2018-09-09T09:42:32Z</time>
      </trkpt>
      <trkpt lat="45.19982" lon="6.33404">
        <ele>1456.35</ele>
        <time>2018-09-09T09:42:34Z</time>
      </trkpt>
      <trkpt lat="45.20007" lon="6.33414">
        <ele>1456.93</ele>
        <time>2018-09-09T09:42:36Z</time>
      </trkpt>
      <trkpt lat="45.20032" lon="6.33411">
        <ele>1459.5</ele>
        <time>2018-09-09T09:42:38Z</time>
      </trkpt>
      <trkpt lat="45.20053" lon="6.33399">
        <ele>1463.58</ele>
        <time>2018-09-09T09:42:40Z</time>
      </trkpt>
      <trkpt lat="45.2007" lon="6.33382">
        <ele>1465.07</ele>
        <time>2018-09-09T09:42:42Z</time>
      </trkpt>
      <trkpt lat="45.20088" lon="6.33372">
        <ele>1467.11</ele>
        <time>2018-09-09T09:42:45Z</time>
      </trkpt>
      <trkpt lat="45.20077" lon="6.33393">
        <ele>1470.32</ele>
        <time>2018-09-09T09:42:49Z</time>
      </trkpt>
      <trkpt lat="45.20061" lon="6.33412">
        <ele>1472.74</ele>
        <time>2018-09-09T09:42:51Z</time>
      </trkpt>
      <trkpt lat="45.2005" lon="6.33438">
        <ele>1477.3</ele>
        <time>2018-09-09T09:42:53Z</time>
      </trkpt>
      <trkpt lat="45.2004" lon="6.33467">
        <ele>1479.95</ele>
        <time>2018-09-09T09:42:55Z</time>
      </trkpt>
      <trkpt lat="45.20027" lon="6.33497">
        <ele>1482.01</ele>
        <time>2018-09-09T09:42:57Z</time>
      </trkpt>
      <trkpt lat="45.20021" lon="6.33528">
        <ele>1484.72</ele>
        <time>2018-09-09T09:42:59Z</time>
      </trkpt>
      <trkpt lat="45.20028" lon="6.33553">
        <ele>1485.43</ele>
        <time>2018-09-09T09:43:02Z</time>
      </trkpt>
      <trkpt lat="45.20043" lon="6.33532">
        <ele>1488.94</ele>
        <time>2018-09-09T09:43:05Z</time>
      </trkpt>
      <trkpt lat="45.20053" lon="6.33497">
        <ele>1491.04</ele>
        <time>2018-09-09T09:43:08Z</time>
      </trkpt>
      <trkpt lat="45.20069" lon="6.3348">
        <ele>1493.02</ele>
        <time>2018-09-09T09:43:10Z</time>
      </trkpt>
      <trkpt lat="45.20087" lon="6.33468">
        <ele>1493.41</ele>
        <time>2018-09-09T09:43:12Z</time>
      </trkpt>
      <trkpt lat="45.20107" lon="6.33466">
        <ele>1494.14</ele>
        <time>2018-09-09T09:43:14Z</time>
      </trkpt>
      <trkpt lat="45.20127" lon="6.33469">
        <ele>1496.03</ele>
        <time>2018-09-09T09:43:16Z</time>
      </trkpt>
      <trkpt lat="45.20148" lon="6.33473">
        <ele>1498.02</ele>
        <time>2018-09-09T09:43:18Z</time>
      </trkpt>
      <trkpt lat="45.20169" lon="6.33479">
        <ele>1498.41</ele>
        <time>2018-09-09T09:43:20Z</time>
      </trkpt>
      <trkpt lat="45.20185" lon="6.33501">
        <ele>1498.44</ele>
        <time>2018-09-09T09:43:22Z</time>
      </trkpt>
      <trkpt lat="45.20201" lon="6.33525">
        <ele>1499.14</ele>
        <time>2018-09-09T09:43:24Z</time>
      </trkpt>
      <trkpt lat="45.20221" lon="6.33539">
        <ele>1501.73</ele>
        <time>2018-09-09T09:43:26Z</time>
      </trkpt>
      <trkpt lat="45.2024" lon="6.33535">
        <ele>1503.08</ele>
        <time>2018-09-09T09:43:28Z</time>
      </trkpt>
      <trkpt lat="45.20255" lon="6.33517">
        <ele>1505.02</ele>
        <time>2018-09-09T09:43:30Z</time>
      </trkpt>
      <trkpt lat="45.20264" lon="6.33493">
        <ele>1506.32</ele>
        <time>2018-09-09T09:43:32Z</time>
      </trkpt>
      <trkpt lat="45.20272" lon="6.33469">
        <ele>1507.13</ele>
        <time>2018-09-09T09:43:34Z</time>
      </trkpt>
      <trkpt lat="45.20291" lon="6.33447">
        <ele>1510.02</ele>
        <time>2018-09-09T09:43:37Z</time>
      </trkpt>
      <trkpt lat="45.20315" lon="6.33464">
        <ele>1509.73</ele>
        <time>2018-09-09T09:43:40Z</time>
      </trkpt>
      <trkpt lat="45.20334" lon="6.33493">
        <ele>1511.08</ele>
        <time>2018-09-09T09:43:42Z</time>
      </trkpt>
      <trkpt lat="45.20359" lon="6.33498">
        <ele>1513.93</ele>
        <time>2018-09-09T09:43:44Z</time>
      </trkpt>
      <trkpt lat="45.20382" lon="6.33485">
        <ele>1516.01</ele>
        <time>2018-09-09T09:43:46Z</time>
      </trkpt>
      <trkpt lat="45.20403" lon="6.3347">
        <ele>1517.32</ele>
        <time>2018-09-09T09:43:48Z</time>
      </trkpt>
      <trkpt lat="45.20421" lon="6.33451">
        <ele>1519.32</ele>
        <time>2018-09-09T09:43:51Z</time>
      </trkpt>
      <trkpt lat="45.20421" lon="6.33482">
        <ele>1522.11</ele>
        <time>2018-09-09T09:43:55Z</time>
      </trkpt>
      <trkpt lat="45.20406" lon="6.33513">
        <ele>1523.32</ele>
        <time>2018-09-09T09:43:57Z</time>
      </trkpt>
      <trkpt lat="45.2039" lon="6.33548">
        <ele>1526.65</ele>
        <time>2018-09-09T09:43:59Z</time>
      </trkpt>
      <trkpt lat="45.20368" lon="6.33578">
        <ele>1530.59</ele>
        <time>2018-09-09T09:44:01Z</time>
      </trkpt>
      <trkpt lat="45.20341" lon="6.336">
        <ele>1532.98</ele>
        <time>2018-09-09T09:44:03Z</time>
      </trkpt>
      <trkpt lat="45.20314" lon="6.33615">
        <ele>1535.92</ele>
        <time>2018-09-09T09:44:05Z</time>
      </trkpt>
      <trkpt lat="45.20292" lon="6.33615">
        <ele>1538.92</ele>
        <time>2018-09-09T09:44:07Z</time>
      </trkpt>
      <trkpt lat="45.20277" lon="6.33632">
        <ele>1541.1</ele>
        <time>2018-09-09T09:44:10Z</time>
      </trkpt>
      <trkpt lat="45.20296" lon="6.33643">
        <ele>1543.81</ele>
        <time>2018-09-09T09:44:13Z</time>
      </trkpt>
      <trkpt lat="45.20322" lon="6.33652">
        <ele>1546.04</ele>
        <time>2018-09-09T09:44:16Z</time>
      </trkpt>
      <trkpt lat="45.20341" lon="6.33662">
        <ele>1548.93</ele>
        <time>2018-09-09T09:44:18Z</time>
      </trkpt>
      <trkpt lat="45.20364" lon="6.33664">
        <ele>1551.04</ele>
        <time>2018-09-09T09:44:21Z</time>
      </trkpt>
      <trkpt lat="45.20383" lon="6.33664">
        <ele>1552.27</ele>
        <time>2018-09-09T09:45:07Z</time>
      </trkpt>
      <trkpt lat="45.20406" lon="6.33669">
        <ele>1554.04</ele>
        <time>2018-09-09T09:45:09Z</time>
      </trkpt>
      <trkpt lat="45.20423" lon="6.33688">
        <ele>1556.72</ele>
        <time>2018-09-09T09:45:11Z</time>
      </trkpt>
      <trkpt lat="45.20442" lon="6.33711">
        <ele>1559.2</ele>
        <time>2018-09-09T09:45:13Z</time>
      </trkpt>
      <trkpt lat="45.20467" lon="6.3372">
        <ele>1561.73</ele>
        <time>2018-09-09T09:45:15Z</time>
      </trkpt>
      <trkpt lat="45.2049" lon="6.33716">
        <ele>1563.99</ele>
        <time>2018-09-09T09:45:17Z</time>
      </trkpt>
      <trkpt lat="45.2051" lon="6.33722">
        <ele>1566.22</ele>
        <time>2018-09-09T09:45:19Z</time>
      </trkpt>
      <trkpt lat="45.20526" lon="6.33741">
        <ele>1568.04</ele>
        <time>2018-09-09T09:45:21Z</time>
      </trkpt>
      <trkpt lat="45.20545" lon="6.33749">
        <ele>1570.93</ele>
        <time>2018-09-09T09:45:23Z</time>
      </trkpt>
      <trkpt lat="45.20563" lon="6.33747">
        <ele>1573.22</ele>
        <time>2018-09-09T09:45:25Z</time>
      </trkpt>
      <trkpt lat="45.20568" lon="6.33706">
        <ele>1575.94</ele>
        <time>2018-09-09T09:45:27Z</time>
      </trkpt>
      <trkpt lat="45.20572" lon="6.33668">
        <ele>1578.01</ele>
        <time>2018-09-09T09:45:29Z</time>
      </trkpt>
      <trkpt lat="45.20573" lon="6.33629">
        <ele>1579.32</ele>
        <time>2018-09-09T09:45:31Z</time>
      </trkpt>
      <trkpt lat="45.2058" lon="6.33598">
        <ele>1581.74</ele>
        <time>2018-09-09T09:45:33Z</time>
      </trkpt>
      <trkpt lat="45.20594" lon="6.33573">
        <ele>1583.29</ele>
        <time>2018-09-09T09:45:35Z</time>
      </trkpt>
      <trkpt lat="45.20602" lon="6.33546">
        <ele>1585.74</ele>
        <time>2018-09-09T09:45:37Z</time>
      </trkpt>
      <trkpt lat="45.20607" lon="6.33519">
        <ele>1587.08</ele>
        <time>2018-09-09T09:45:39Z</time>
      </trkpt>
      <trkpt lat="45.20631" lon="6.33507">
        <ele>1590.99</ele>
        <time>2018-09-09T09:45:42Z</time>
      </trkpt>
      <trkpt lat="45.20652" lon="6.33509">
        <ele>1593.01</ele>
        <time>2018-09-09T09:45:44Z</time>
      </trkpt>
      <trkpt lat="45.20673" lon="6.335">
        <ele>1594.81</ele>
        <time>2018-09-09T09:45:46Z</time>
      </trkpt>
      <trkpt lat="45.20686" lon="6.33475">
        <ele>1597.31</ele>
        <time>2018-09-09T09:45:49Z</time>
      </trkpt>
      <trkpt lat="45.2068" lon="6.3345">
        <ele>1599.35</ele>
        <time>2018-09-09T09:45:57Z</time>
      </trkpt>
      <trkpt lat="45.20695" lon="6.33427">
        <ele>1603.72</ele>
        <time>2018-09-09T09:46:01Z</time>
      </trkpt>
      <trkpt lat="45.20712" lon="6.33438">
        <ele>1605.08</ele>
        <time>2018-09-09T09:46:03Z</time>
      </trkpt>
      <trkpt lat="45.20731" lon="6.3345">
        <ele>1607.02</ele>
        <time>2018-09-09T09:46:05Z</time>
      </trkpt>
      <trkpt lat="45.20754" lon="6.33467">
        <ele>1609.02</ele>
        <time>2018-09-09T09:46:07Z</time>
      </trkpt>
      <trkpt lat="45.20777" lon="6.33483">
        <ele>1611.72</ele>
        <time>2018-09-09T09:46:09Z</time>
      </trkpt>
      <trkpt lat="45.20801" lon="6.335">
        <ele>1613.99</ele>
        <time>2018-09-09T09:46:11Z</time>
      </trkpt>
      <trkpt lat="45.20823" lon="6.3352">
        <ele>1616.71</ele>
        <time>2018-09-09T09:46:13Z</time>
      </trkpt>
      <trkpt lat="45.20845" lon="6.33545">
        <ele>1619.69</ele>
        <time>2018-09-09T09:46:15Z</time>
      </trkpt>
      <trkpt lat="45.20867" lon="6.33573">
        <ele>1621.99</ele>
        <time>2018-09-09T09:46:17Z</time>
      </trkpt>
      <trkpt lat="45.20888" lon="6.33602">
        <ele>1624.01</ele>
        <time>2018-09-09T09:46:19Z</time>
      </trkpt>
      <trkpt lat="45.20907" lon="6.33631">
        <ele>1626.02</ele>
        <time>2018-09-09T09:46:21Z</time>
      </trkpt>
      <trkpt lat="45.20924" lon="6.33657">
        <ele>1628.02</ele>
        <time>2018-09-09T09:46:23Z</time>
      </trkpt>
      <trkpt lat="45.20942" lon="6.33678">
        <ele>1629.11</ele>
        <time>2018-09-09T09:46:25Z</time>
      </trkpt>
      <trkpt lat="45.20962" lon="6.33689">
        <ele>1630.11</ele>
        <time>2018-09-09T09:46:27Z</time>
      </trkpt>
      <trkpt lat="45.20983" lon="6.33694">
        <ele>1631.12</ele>
        <time>2018-09-09T09:46:29Z</time>
      </trkpt>
      <trkpt lat="45.21004" lon="6.337">
        <ele>1631.42</ele>
        <time>2018-09-09T09:46:31Z</time>
      </trkpt>
      <trkpt lat="45.21023" lon="6.33708">
        <ele>1631.23</ele>
        <time>2018-09-09T09:46:33Z</time>
      </trkpt>
      <trkpt lat="45.21045" lon="6.33719">
        <ele>1632.14</ele>
        <time>2018-09-09T09:46:36Z</time>
      </trkpt>
      <trkpt lat="45.21065" lon="6.3373">
        <ele>1631.53</ele>
        <time>2018-09-09T09:46:40Z</time>
      </trkpt>
      <trkpt lat="45.21083" lon="6.33732">
        <ele>1631.15</ele>
        <time>2018-09-09T09:46:46Z</time>
      </trkpt>
      <trkpt lat="45.21101" lon="6.33752">
        <ele>1630.74</ele>
        <time>2018-09-09T09:47:57Z</time>
      </trkpt>
      <trkpt lat="45.21123" lon="6.33772">
        <ele>1629.54</ele>
        <time>2018-09-09T09:48:00Z</time>
      </trkpt>
      <trkpt lat="45.21141" lon="6.3379">
        <ele>1628.75</ele>
        <time>2018-09-09T09:48:02Z</time>
      </trkpt>
      <trkpt lat="45.21161" lon="6.3381">
        <ele>1629.87</ele>
        <time>2018-09-09T09:48:04Z</time>
      </trkpt>
      <trkpt lat="45.21183" lon="6.3383">
        <ele>1628.29</ele>
        <time>2018-09-09T09:48:06Z</time>
      </trkpt>
      <trkpt lat="45.21203" lon="6.33859">
        <ele>1624.09</ele>
        <time>2018-09-09T09:48:08Z</time>
      </trkpt>
      <trkpt lat="45.21221" lon="6.33887">
        <ele>1620.98</ele>
        <time>2018-09-09T09:48:10Z</time>
      </trkpt>
      <trkpt lat="45.2124" lon="6.33912">
        <ele>1617.27</ele>
        <time>2018-09-09T09:48:12Z</time>
      </trkpt>
      <trkpt lat="45.21259" lon="6.33936">
        <ele>1614.21</ele>
        <time>2018-09-09T09:48:14Z</time>
      </trkpt>
      <trkpt lat="45.21279" lon="6.33957">
        <ele>1612.11</ele>
        <time>2018-09-09T09:48:16Z</time>
      </trkpt>
      <trkpt lat="45.21299" lon="6.33982">
        <ele>1609.2</ele>
        <time>2018-09-09T09:48:18Z</time>
      </trkpt>
      <trkpt lat="45.21318" lon="6.34012">
        <ele>1606.9</ele>
        <time>2018-09-09T09:48:20Z</time>
      </trkpt>
      <trkpt lat="45.21335" lon="6.34043">
        <ele>1604.88</ele>
        <time>2018-09-09T09:48:22Z</time>
      </trkpt>
      <trkpt lat="45.2135" lon="6.34074">
        <ele>1601.96</ele>
        <time>2018-09-09T09:48:24Z</time>
      </trkpt>
      <trkpt lat="45.21365" lon="6.34104">
        <ele>1599.88</ele>
        <time>2018-09-09T09:48:26Z</time>
      </trkpt>
      <trkpt lat="45.2138" lon="6.34133">
        <ele>1597.17</ele>
        <time>2018-09-09T09:48:28Z</time>
      </trkpt>
      <trkpt lat="45.21393" lon="6.34168">
        <ele>1595.11</ele>
        <time>2018-09-09T09:48:30Z</time>
      </trkpt>
      <trkpt lat="45.21408" lon="6.342">
        <ele>1591.98</ele>
        <time>2018-09-09T09:48:32Z</time>
      </trkpt>
      <trkpt lat="45.21427" lon="6.34227">
        <ele>1590.58</ele>
        <time>2018-09-09T09:48:34Z</time>
      </trkpt>
      <trkpt lat="45.21444" lon="6.34255">
        <ele>1589.06</ele>
        <time>2018-09-09T09:48:36Z</time>
      </trkpt>
      <trkpt lat="45.21462" lon="6.34275">
        <ele>1585.28</ele>
        <time>2018-09-09T09:48:38Z</time>
      </trkpt>
      <trkpt lat="45.21486" lon="6.34279">
        <ele>1582.91</ele>
        <time>2018-09-09T09:48:40Z</time>
      </trkpt>
      <trkpt lat="45.21509" lon="6.3427">
        <ele>1580.88</ele>
        <time>2018-09-09T09:48:42Z</time>
      </trkpt>
      <trkpt lat="45.21529" lon="6.34269">
        <ele>1578.66</ele>
        <time>2018-09-09T09:48:44Z</time>
      </trkpt>
      <trkpt lat="45.21549" lon="6.34298">
        <ele>1574.96</ele>
        <time>2018-09-09T09:48:47Z</time>
      </trkpt>
      <trkpt lat="45.21561" lon="6.34331">
        <ele>1573.58</ele>
        <time>2018-09-09T09:48:49Z</time>
      </trkpt>
      <trkpt lat="45.21577" lon="6.34365">
        <ele>1570.24</ele>
        <time>2018-09-09T09:48:51Z</time>
      </trkpt>
      <trkpt lat="45.21597" lon="6.34391">
        <ele>1567.21</ele>
        <time>2018-09-09T09:48:53Z</time>
      </trkpt>
      <trkpt lat="45.21613" lon="6.3441">
        <ele>1564.69</ele>
        <time>2018-09-09T09:48:55Z</time>
      </trkpt>
      <trkpt lat="45.2163" lon="6.3439">
        <ele>1561.57</ele>
        <time>2018-09-09T09:48:59Z</time>
      </trkpt>
      <trkpt lat="45.21625" lon="6.34364">
        <ele>1560.55</ele>
        <time>2018-09-09T09:49:01Z</time>
      </trkpt>
      <trkpt lat="45.21622" lon="6.34329">
        <ele>1558.84</ele>
        <time>2018-09-09T09:49:03Z</time>
      </trkpt>
      <trkpt lat="45.21618" lon="6.34292">
        <ele>1556.17</ele>
        <time>2018-09-09T09:49:05Z</time>
      </trkpt>
      <trkpt lat="45.21611" lon="6.34255">
        <ele>1552.99</ele>
        <time>2018-09-09T09:49:07Z</time>
      </trkpt>
      <trkpt lat="45.21603" lon="6.34221">
        <ele>1549.97</ele>
        <time>2018-09-09T09:49:09Z</time>
      </trkpt>
      <trkpt lat="45.21604" lon="6.34186">
        <ele>1546.97</ele>
        <time>2018-09-09T09:49:11Z</time>
      </trkpt>
      <trkpt lat="45.21611" lon="6.34153">
        <ele>1544.88</ele>
        <time>2018-09-09T09:49:13Z</time>
      </trkpt>
      <trkpt lat="45.21616" lon="6.3412">
        <ele>1542.87</ele>
        <time>2018-09-09T09:49:15Z</time>
      </trkpt>
      <trkpt lat="45.21625" lon="6.34087">
        <ele>1540.87</ele>
        <time>2018-09-09T09:49:17Z</time>
      </trkpt>
      <trkpt lat="45.21639" lon="6.34055">
        <ele>1539.57</ele>
        <time>2018-09-09T09:49:19Z</time>
      </trkpt>
      <trkpt lat="45.21656" lon="6.34024">
        <ele>1537.64</ele>
        <time>2018-09-09T09:49:21Z</time>
      </trkpt>
      <trkpt lat="45.21671" lon="6.34001">
        <ele>1535.85</ele>
        <time>2018-09-09T09:49:23Z</time>
      </trkpt>
      <trkpt lat="45.21694" lon="6.34006">
        <ele>1533.85</ele>
        <time>2018-09-09T09:49:26Z</time>
      </trkpt>
      <trkpt lat="45.217" lon="6.34033">
        <ele>1531.87</ele>
        <time>2018-09-09T09:49:28Z</time>
      </trkpt>
      <trkpt lat="45.21699" lon="6.34066">
        <ele>1529.87</ele>
        <time>2018-09-09T09:49:30Z</time>
      </trkpt>
      <trkpt lat="45.21697" lon="6.34104">
        <ele>1527.87</ele>
        <time>2018-09-09T09:49:32Z</time>
      </trkpt>
      <trkpt lat="45.21698" lon="6.34133">
        <ele>1526.78</ele>
        <time>2018-09-09T09:49:34Z</time>
      </trkpt>
      <trkpt lat="45.21714" lon="6.34149">
        <ele>1526.45</ele>
        <time>2018-09-09T09:49:37Z</time>
      </trkpt>
      <trkpt lat="45.21736" lon="6.34139">
        <ele>1523.86</ele>
        <time>2018-09-09T09:49:40Z</time>
      </trkpt>
      <trkpt lat="45.21761" lon="6.34126">
        <ele>1521.85</ele>
        <time>2018-09-09T09:49:43Z</time>
      </trkpt>
      <trkpt lat="45.21777" lon="6.34114">
        <ele>1520.78</ele>
        <time>2018-09-09T09:49:45Z</time>
      </trkpt>
      <trkpt lat="45.21794" lon="6.34103">
        <ele>1520.48</ele>
        <time>2018-09-09T09:49:47Z</time>
      </trkpt>
      <trkpt lat="45.21817" lon="6.3409">
        <ele>1518.77</ele>
        <time>2018-09-09T09:49:50Z</time>
      </trkpt>
      <trkpt lat="45.21839" lon="6.34083">
        <ele>1518.39</ele>
        <time>2018-09-09T09:49:53Z</time>
      </trkpt>
      <trkpt lat="45.21852" lon="6.3406">
        <ele>1516.75</ele>
        <time>2018-09-09T09:49:57Z</time>
      </trkpt>
      <trkpt lat="45.21868" lon="6.34081">
        <ele>1517.36</ele>
        <time>2018-09-09T09:50:02Z</time>
      </trkpt>
      <trkpt lat="45.21867" lon="6.34112">
        <ele>1517.44</ele>
        <time>2018-09-09T09:50:06Z</time>
      </trkpt>
      <trkpt lat="45.21858" lon="6.34138">
        <ele>1519.39</ele>
        <time>2018-09-09T09:50:09Z</time>
      </trkpt>
      <trkpt lat="45.21861" lon="6.34172">
        <ele>1520.21</ele>
        <time>2018-09-09T09:50:12Z</time>
      </trkpt>
      <trkpt lat="45.21865" lon="6.3421">
        <ele>1520.44</ele>
        <time>2018-09-09T09:50:15Z</time>
      </trkpt>
      <trkpt lat="45.21869" lon="6.34238">
        <ele>1519.53</ele>
        <time>2018-09-09T09:50:17Z</time>
      </trkpt>
      <trkpt lat="45.21873" lon="6.34267">
        <ele>1519.45</ele>
        <time>2018-09-09T09:50:19Z</time>
      </trkpt>
      <trkpt lat="45.21877" lon="6.34297">
        <ele>1519.45</ele>
        <time>2018-09-09T09:50:21Z</time>
      </trkpt>
      <trkpt lat="45.21881" lon="6.34328">
        <ele>1519.45</ele>
        <time>2018-09-09T09:50:23Z</time>
      </trkpt>
      <trkpt lat="45.21886" lon="6.34359">
        <ele>1519.44</ele>
        <time>2018-09-09T09:50:25Z</time>
      </trkpt>
      <trkpt lat="45.2189" lon="6.34393">
        <ele>1518.54</ele>
        <time>2018-09-09T09:50:27Z</time>
      </trkpt>
      <trkpt lat="45.21891" lon="6.34429">
        <ele>1516.84</ele>
        <time>2018-09-09T09:50:29Z</time>
      </trkpt>
      <trkpt lat="45.21885" lon="6.3446">
        <ele>1515.08</ele>
        <time>2018-09-09T09:50:31Z</time>
      </trkpt>
      <trkpt lat="45.21868" lon="6.34487">
        <ele>1512.89</ele>
        <time>2018-09-09T09:50:33Z</time>
      </trkpt>
      <trkpt lat="45.21849" lon="6.34512">
        <ele>1510.18</ele>
        <time>2018-09-09T09:50:35Z</time>
      </trkpt>
      <trkpt lat="45.21832" lon="6.34544">
        <ele>1508.6</ele>
        <time>2018-09-09T09:50:37Z</time>
      </trkpt>
      <trkpt lat="45.21816" lon="6.34576">
        <ele>1507.55</ele>
        <time>2018-09-09T09:50:39Z</time>
      </trkpt>
      <trkpt lat="45.218" lon="6.34613">
        <ele>1506.54</ele>
        <time>2018-09-09T09:50:41Z</time>
      </trkpt>
      <trkpt lat="45.21791" lon="6.34655">
        <ele>1505.54</ele>
        <time>2018-09-09T09:50:43Z</time>
      </trkpt>
      <trkpt lat="45.21782" lon="6.347">
        <ele>1504.54</ele>
        <time>2018-09-09T09:50:45Z</time>
      </trkpt>
      <trkpt lat="45.21778" lon="6.3474">
        <ele>1504.45</ele>
        <time>2018-09-09T09:50:47Z</time>
      </trkpt>
      <trkpt lat="45.21777" lon="6.34779">
        <ele>1502.84</ele>
        <time>2018-09-09T09:50:49Z</time>
      </trkpt>
      <trkpt lat="45.21781" lon="6.34818">
        <ele>1501.57</ele>
        <time>2018-09-09T09:50:51Z</time>
      </trkpt>
      <trkpt lat="45.2179" lon="6.34859">
        <ele>1500.55</ele>
        <time>2018-09-09T09:50:53Z</time>
      </trkpt>
      <trkpt lat="45.21805" lon="6.34896">
        <ele>1500.45</ele>
        <time>2018-09-09T09:50:55Z</time>
      </trkpt>
      <trkpt lat="45.21824" lon="6.3493">
        <ele>1499.75</ele>
        <time>2018-09-09T09:50:57Z</time>
      </trkpt>
      <trkpt lat="45.21847" lon="6.34959">
        <ele>1499.47</ele>
        <time>2018-09-09T09:50:59Z</time>
      </trkpt>
      <trkpt lat="45.2187" lon="6.34983">
        <ele>1499.45</ele>
        <time>2018-09-09T09:51:01Z</time>
      </trkpt>
      <trkpt lat="45.21883" lon="6.35008">
        <ele>1499.45</ele>
        <time>2018-09-09T09:51:03Z</time>
      </trkpt>
      <trkpt lat="45.21881" lon="6.35037">
        <ele>1499.23</ele>
        <time>2018-09-09T09:51:05Z</time>
      </trkpt>
      <trkpt lat="45.21865" lon="6.35066">
        <ele>1497.82</ele>
        <time>2018-09-09T09:51:07Z</time>
      </trkpt>
      <trkpt lat="45.21844" lon="6.35094">
        <ele>1496.78</ele>
        <time>2018-09-09T09:51:09Z</time>
      </trkpt>
      <trkpt lat="45.21827" lon="6.35125">
        <ele>1495.78</ele>
        <time>2018-09-09T09:51:11Z</time>
      </trkpt>
      <trkpt lat="45.21819" lon="6.35162">
        <ele>1495.47</ele>
        <time>2018-09-09T09:51:13Z</time>
      </trkpt>
      <trkpt lat="45.21815" lon="6.35202">
        <ele>1495.45</ele>
        <time>2018-09-09T09:51:15Z</time>
      </trkpt>
      <trkpt lat="45.21811" lon="6.35241">
        <ele>1496.15</ele>
        <time>2018-09-09T09:51:17Z</time>
      </trkpt>
      <trkpt lat="45.21817" lon="6.35275">
        <ele>1497.12</ele>
        <time>2018-09-09T09:51:19Z</time>
      </trkpt>
      <trkpt lat="45.21838" lon="6.35299">
        <ele>1499.03</ele>
        <time>2018-09-09T09:51:21Z</time>
      </trkpt>
      <trkpt lat="45.21862" lon="6.35319">
        <ele>1499.41</ele>
        <time>2018-09-09T09:51:23Z</time>
      </trkpt>
      <trkpt lat="45.21888" lon="6.35342">
        <ele>1501.05</ele>
        <time>2018-09-09T09:51:25Z</time>
      </trkpt>
      <trkpt lat="45.21912" lon="6.35354">
        <ele>1501.41</ele>
        <time>2018-09-09T09:51:27Z</time>
      </trkpt>
      <trkpt lat="45.21935" lon="6.35348">
        <ele>1502.35</ele>
        <time>2018-09-09T09:51:29Z</time>
      </trkpt>
      <trkpt lat="45.21963" lon="6.35342">
        <ele>1501.74</ele>
        <time>2018-09-09T09:51:31Z</time>
      </trkpt>
      <trkpt lat="45.21995" lon="6.35344">
        <ele>1499.86</ele>
        <time>2018-09-09T09:51:33Z</time>
      </trkpt>
      <trkpt lat="45.22025" lon="6.3535">
        <ele>1496.75</ele>
        <time>2018-09-09T09:51:35Z</time>
      </trkpt>
      <trkpt lat="45.22053" lon="6.35358">
        <ele>1494.86</ele>
        <time>2018-09-09T09:51:37Z</time>
      </trkpt>
      <trkpt lat="45.22076" lon="6.35387">
        <ele>1491.96</ele>
        <time>2018-09-09T09:51:39Z</time>
      </trkpt>
      <trkpt lat="45.221" lon="6.35412">
        <ele>1489.39</ele>
        <time>2018-09-09T09:51:41Z</time>
      </trkpt>
      <trkpt lat="45.2212" lon="6.35436">
        <ele>1486.22</ele>
        <time>2018-09-09T09:51:43Z</time>
      </trkpt>
      <trkpt lat="45.22141" lon="6.35455">
        <ele>1482.29</ele>
        <time>2018-09-09T09:51:45Z</time>
      </trkpt>
      <trkpt lat="45.22168" lon="6.35461">
        <ele>1480.61</ele>
        <time>2018-09-09T09:51:47Z</time>
      </trkpt>
      <trkpt lat="45.222" lon="6.35463">
        <ele>1477.24</ele>
        <time>2018-09-09T09:51:49Z</time>
      </trkpt>
      <trkpt lat="45.22232" lon="6.35465">
        <ele>1474.21</ele>
        <time>2018-09-09T09:51:51Z</time>
      </trkpt>
      <trkpt lat="45.22263" lon="6.35467">
        <ele>1471.2</ele>
        <time>2018-09-09T09:51:53Z</time>
      </trkpt>
      <trkpt lat="45.22293" lon="6.35468">
        <ele>1468.9</ele>
        <time>2018-09-09T09:51:55Z</time>
      </trkpt>
      <trkpt lat="45.22323" lon="6.35468">
        <ele>1466.88</ele>
        <time>2018-09-09T09:51:57Z</time>
      </trkpt>
      <trkpt lat="45.22352" lon="6.35468">
        <ele>1463.26</ele>
        <time>2018-09-09T09:51:59Z</time>
      </trkpt>
      <trkpt lat="45.22382" lon="6.35472">
        <ele>1460.91</ele>
        <time>2018-09-09T09:52:01Z</time>
      </trkpt>
      <trkpt lat="45.22411" lon="6.35473">
        <ele>1460.49</ele>
        <time>2018-09-09T09:52:03Z</time>
      </trkpt>
      <trkpt lat="45.22436" lon="6.35467">
        <ele>1459.75</ele>
        <time>2018-09-09T09:52:05Z</time>
      </trkpt>
      <trkpt lat="45.22445" lon="6.35425">
        <ele>1457.16</ele>
        <time>2018-09-09T09:52:07Z</time>
      </trkpt>
      <trkpt lat="45.22466" lon="6.35409">
        <ele>1454.9</ele>
        <time>2018-09-09T09:52:09Z</time>
      </trkpt>
      <trkpt lat="45.22495" lon="6.35407">
        <ele>1452.18</ele>
        <time>2018-09-09T09:52:11Z</time>
      </trkpt>
      <trkpt lat="45.22525" lon="6.35402">
        <ele>1448.29</ele>
        <time>2018-09-09T09:52:13Z</time>
      </trkpt>
      <trkpt lat="45.22553" lon="6.35407">
        <ele>1445.91</ele>
        <time>2018-09-09T09:52:15Z</time>
      </trkpt>
      <trkpt lat="45.22578" lon="6.35428">
        <ele>1444.79</ele>
        <time>2018-09-09T09:52:17Z</time>
      </trkpt>
      <trkpt lat="45.22603" lon="6.35451">
        <ele>1442.87</ele>
        <time>2018-09-09T09:52:19Z</time>
      </trkpt>
      <trkpt lat="45.22625" lon="6.35477">
        <ele>1442.69</ele>
        <time>2018-09-09T09:52:21Z</time>
      </trkpt>
      <trkpt lat="45.22634" lon="6.35516">
        <ele>1441.77</ele>
        <time>2018-09-09T09:52:23Z</time>
      </trkpt>
      <trkpt lat="45.22644" lon="6.3555">
        <ele>1440.56</ele>
        <time>2018-09-09T09:52:25Z</time>
      </trkpt>
      <trkpt lat="45.22643" lon="6.35587">
        <ele>1438.36</ele>
        <time>2018-09-09T09:52:27Z</time>
      </trkpt>
      <trkpt lat="45.22639" lon="6.35624">
        <ele>1435.92</ele>
        <time>2018-09-09T09:52:29Z</time>
      </trkpt>
      <trkpt lat="45.22634" lon="6.35657">
        <ele>1432.97</ele>
        <time>2018-09-09T09:52:31Z</time>
      </trkpt>
      <trkpt lat="45.22626" lon="6.35687">
        <ele>1429.06</ele>
        <time>2018-09-09T09:52:33Z</time>
      </trkpt>
      <trkpt lat="45.22622" lon="6.35716">
        <ele>1426.89</ele>
        <time>2018-09-09T09:52:35Z</time>
      </trkpt>
      <trkpt lat="45.2263" lon="6.35741">
        <ele>1423.97</ele>
        <time>2018-09-09T09:52:37Z</time>
      </trkpt>
      <trkpt lat="45.22648" lon="6.35759">
        <ele>1421.88</ele>
        <time>2018-09-09T09:52:39Z</time>
      </trkpt>
      <trkpt lat="45.22671" lon="6.35774">
        <ele>1422.18</ele>
        <time>2018-09-09T09:52:41Z</time>
      </trkpt>
      <trkpt lat="45.22693" lon="6.35773">
        <ele>1424.94</ele>
        <time>2018-09-09T09:52:43Z</time>
      </trkpt>
      <trkpt lat="45.22712" lon="6.35749">
        <ele>1427.01</ele>
        <time>2018-09-09T09:52:45Z</time>
      </trkpt>
      <trkpt lat="45.22728" lon="6.35718">
        <ele>1426.71</ele>
        <time>2018-09-09T09:52:47Z</time>
      </trkpt>
      <trkpt lat="45.22743" lon="6.35685">
        <ele>1426.26</ele>
        <time>2018-09-09T09:52:49Z</time>
      </trkpt>
      <trkpt lat="45.2276" lon="6.35655">
        <ele>1426.43</ele>
        <time>2018-09-09T09:52:51Z</time>
      </trkpt>
      <trkpt lat="45.2278" lon="6.35632">
        <ele>1427.35</ele>
        <time>2018-09-09T09:52:53Z</time>
      </trkpt>
      <trkpt lat="45.22798" lon="6.35608">
        <ele>1426.53</ele>
        <time>2018-09-09T09:52:55Z</time>
      </trkpt>
      <trkpt lat="45.22817" lon="6.3559">
        <ele>1424.84</ele>
        <time>2018-09-09T09:52:57Z</time>
      </trkpt>
      <trkpt lat="45.22836" lon="6.3559">
        <ele>1423.78</ele>
        <time>2018-09-09T09:52:59Z</time>
      </trkpt>
      <trkpt lat="45.22856" lon="6.35603">
        <ele>1422.78</ele>
        <time>2018-09-09T09:53:01Z</time>
      </trkpt>
      <trkpt lat="45.22881" lon="6.35616">
        <ele>1421.56</ele>
        <time>2018-09-09T09:53:03Z</time>
      </trkpt>
      <trkpt lat="45.22907" lon="6.3562">
        <ele>1420.55</ele>
        <time>2018-09-09T09:53:05Z</time>
      </trkpt>
      <trkpt lat="45.22933" lon="6.35612">
        <ele>1421.36</ele>
        <time>2018-09-09T09:53:07Z</time>
      </trkpt>
      <trkpt lat="45.22963" lon="6.35605">
        <ele>1419.62</ele>
        <time>2018-09-09T09:53:09Z</time>
      </trkpt>
      <trkpt lat="45.22989" lon="6.35602">
        <ele>1416.94</ele>
        <time>2018-09-09T09:53:11Z</time>
      </trkpt>
      <trkpt lat="45.23009" lon="6.35598">
        <ele>1415.58</ele>
        <time>2018-09-09T09:53:13Z</time>
      </trkpt>
      <trkpt lat="45.23032" lon="6.35581">
        <ele>1414.48</ele>
        <time>2018-09-09T09:53:16Z</time>
      </trkpt>
      <trkpt lat="45.23049" lon="6.35562">
        <ele>1413.54</ele>
        <time>2018-09-09T09:53:18Z</time>
      </trkpt>
      <trkpt lat="45.23069" lon="6.35538">
        <ele>1411.63</ele>
        <time>2018-09-09T09:53:20Z</time>
      </trkpt>
      <trkpt lat="45.23088" lon="6.35508">
        <ele>1411.46</ele>
        <time>2018-09-09T09:53:22Z</time>
      </trkpt>
      <trkpt lat="45.23105" lon="6.35482">
        <ele>1412.36</ele>
        <time>2018-09-09T09:53:24Z</time>
      </trkpt>
      <trkpt lat="45.23122" lon="6.35468">
        <ele>1410.83</ele>
        <time>2018-09-09T09:53:26Z</time>
      </trkpt>
      <trkpt lat="45.23144" lon="6.35472">
        <ele>1409.36</ele>
        <time>2018-09-09T09:53:28Z</time>
      </trkpt>
      <trkpt lat="45.23166" lon="6.3549">
        <ele>1408.53</ele>
        <time>2018-09-09T09:53:30Z</time>
      </trkpt>
      <trkpt lat="45.23189" lon="6.35519">
        <ele>1406.84</ele>
        <time>2018-09-09T09:53:32Z</time>
      </trkpt>
      <trkpt lat="45.23209" lon="6.35553">
        <ele>1405.78</ele>
        <time>2018-09-09T09:53:34Z</time>
      </trkpt>
      <trkpt lat="45.23228" lon="6.3558">
        <ele>1403.87</ele>
        <time>2018-09-09T09:53:36Z</time>
      </trkpt>
      <trkpt lat="45.23242" lon="6.35604">
        <ele>1402.78</ele>
        <time>2018-09-09T09:53:38Z</time>
      </trkpt>
      <trkpt lat="45.23263" lon="6.35612">
        <ele>1401.75</ele>
        <time>2018-09-09T09:53:41Z</time>
      </trkpt>
      <trkpt lat="45.23274" lon="6.35591">
        <ele>1402.38</ele>
        <time>2018-09-09T09:53:43Z</time>
      </trkpt>
      <trkpt lat="45.23285" lon="6.35564">
        <ele>1401.04</ele>
        <time>2018-09-09T09:53:45Z</time>
      </trkpt>
      <trkpt lat="45.23305" lon="6.35539">
        <ele>1399.8</ele>
        <time>2018-09-09T09:53:47Z</time>
      </trkpt>
      <trkpt lat="45.2333" lon="6.35515">
        <ele>1397.87</ele>
        <time>2018-09-09T09:53:49Z</time>
      </trkpt>
      <trkpt lat="45.23358" lon="6.35492">
        <ele>1396.57</ele>
        <time>2018-09-09T09:53:51Z</time>
      </trkpt>
      <trkpt lat="45.23384" lon="6.35466">
        <ele>1393.94</ele>
        <time>2018-09-09T09:53:53Z</time>
      </trkpt>
      <trkpt lat="45.23405" lon="6.35435">
        <ele>1392.58</ele>
        <time>2018-09-09T09:53:55Z</time>
      </trkpt>
      <trkpt lat="45.23422" lon="6.35406">
        <ele>1390.85</ele>
        <time>2018-09-09T09:53:57Z</time>
      </trkpt>
      <trkpt lat="45.23445" lon="6.35386">
        <ele>1389.57</ele>
        <time>2018-09-09T09:53:59Z</time>
      </trkpt>
      <trkpt lat="45.23471" lon="6.35363">
        <ele>1386.73</ele>
        <time>2018-09-09T09:54:01Z</time>
      </trkpt>
      <trkpt lat="45.23494" lon="6.35331">
        <ele>1384.86</ele>
        <time>2018-09-09T09:54:03Z</time>
      </trkpt>
      <trkpt lat="45.23512" lon="6.35293">
        <ele>1382.87</ele>
        <time>2018-09-09T09:54:05Z</time>
      </trkpt>
      <trkpt lat="45.23524" lon="6.35249">
        <ele>1380.87</ele>
        <time>2018-09-09T09:54:07Z</time>
      </trkpt>
      <trkpt lat="45.23538" lon="6.35215">
        <ele>1379.78</ele>
        <time>2018-09-09T09:54:09Z</time>
      </trkpt>
      <trkpt lat="45.2356" lon="6.35195">
        <ele>1379.48</ele>
        <time>2018-09-09T09:54:11Z</time>
      </trkpt>
      <trkpt lat="45.23585" lon="6.35168">
        <ele>1381.06</ele>
        <time>2018-09-09T09:54:13Z</time>
      </trkpt>
      <trkpt lat="45.23612" lon="6.3514">
        <ele>1383.02</ele>
        <time>2018-09-09T09:54:15Z</time>
      </trkpt>
      <trkpt lat="45.23643" lon="6.35117">
        <ele>1383.41</ele>
        <time>2018-09-09T09:54:17Z</time>
      </trkpt>
      <trkpt lat="45.23674" lon="6.35096">
        <ele>1383.44</ele>
        <time>2018-09-09T09:54:19Z</time>
      </trkpt>
      <trkpt lat="45.23699" lon="6.35077">
        <ele>1383.44</ele>
        <time>2018-09-09T09:54:21Z</time>
      </trkpt>
      <trkpt lat="45.23723" lon="6.35061">
        <ele>1381.83</ele>
        <time>2018-09-09T09:54:23Z</time>
      </trkpt>
      <trkpt lat="45.2375" lon="6.35058">
        <ele>1379.87</ele>
        <time>2018-09-09T09:54:25Z</time>
      </trkpt>
      <trkpt lat="45.2378" lon="6.35067">
        <ele>1376.96</ele>
        <time>2018-09-09T09:54:27Z</time>
      </trkpt>
      <trkpt lat="45.23807" lon="6.35088">
        <ele>1374.88</ele>
        <time>2018-09-09T09:54:29Z</time>
      </trkpt>
      <trkpt lat="45.23835" lon="6.35113">
        <ele>1372.17</ele>
        <time>2018-09-09T09:54:31Z</time>
      </trkpt>
      <trkpt lat="45.23867" lon="6.35126">
        <ele>1370.6</ele>
        <time>2018-09-09T09:54:33Z</time>
      </trkpt>
      <trkpt lat="45.23902" lon="6.3513">
        <ele>1369.55</ele>
        <time>2018-09-09T09:54:35Z</time>
      </trkpt>
      <trkpt lat="45.2392" lon="6.35128">
        <ele>1368.08</ele>
        <time>2018-09-09T09:54:36Z</time>
      </trkpt>
      <trkpt lat="45.23939" lon="6.35125">
        <ele>1366.93</ele>
        <time>2018-09-09T09:54:37Z</time>
      </trkpt>
      <trkpt lat="45.23957" lon="6.3512">
        <ele>1365.89</ele>
        <time>2018-09-09T09:54:38Z</time>
      </trkpt>
      <trkpt lat="45.23991" lon="6.3511">
        <ele>1364.79</ele>
        <time>2018-09-09T09:54:40Z</time>
      </trkpt>
      <trkpt lat="45.24025" lon="6.35106">
        <ele>1364.48</ele>
        <time>2018-09-09T09:54:42Z</time>
      </trkpt>
      <trkpt lat="45.24058" lon="6.35112">
        <ele>1363.75</ele>
        <time>2018-09-09T09:54:44Z</time>
      </trkpt>
      <trkpt lat="45.24092" lon="6.35117">
        <ele>1363.47</ele>
        <time>2018-09-09T09:54:46Z</time>
      </trkpt>
      <trkpt lat="45.24126" lon="6.35125">
        <ele>1361.84</ele>
        <time>2018-09-09T09:54:48Z</time>
      </trkpt>
      <trkpt lat="45.24154" lon="6.35147">
        <ele>1361.48</ele>
        <time>2018-09-09T09:54:50Z</time>
      </trkpt>
      <trkpt lat="45.24179" lon="6.35173">
        <ele>1361.66</ele>
        <time>2018-09-09T09:54:52Z</time>
      </trkpt>
      <trkpt lat="45.24205" lon="6.35196">
        <ele>1360.76</ele>
        <time>2018-09-09T09:54:54Z</time>
      </trkpt>
      <trkpt lat="45.24236" lon="6.3521">
        <ele>1359.56</ele>
        <time>2018-09-09T09:54:56Z</time>
      </trkpt>
      <trkpt lat="45.24268" lon="6.3522">
        <ele>1360.16</ele>
        <time>2018-09-09T09:54:58Z</time>
      </trkpt>
      <trkpt lat="45.243" lon="6.3523">
        <ele>1361.33</ele>
        <time>2018-09-09T09:55:00Z</time>
      </trkpt>
      <trkpt lat="45.2433" lon="6.3524">
        <ele>1361.43</ele>
        <time>2018-09-09T09:55:02Z</time>
      </trkpt>
      <trkpt lat="45.24359" lon="6.35248">
        <ele>1362.14</ele>
        <time>2018-09-09T09:55:04Z</time>
      </trkpt>
      <trkpt lat="45.24384" lon="6.3525">
        <ele>1364.24</ele>
        <time>2018-09-09T09:55:06Z</time>
      </trkpt>
      <trkpt lat="45.24407" lon="6.35242">
        <ele>1365.34</ele>
        <time>2018-09-09T09:55:08Z</time>
      </trkpt>
      <trkpt lat="45.24427" lon="6.35226">
        <ele>1366.42</ele>
        <time>2018-09-09T09:55:11Z</time>
      </trkpt>
      <trkpt lat="45.24443" lon="6.35206">
        <ele>1367.35</ele>
        <time>2018-09-09T09:55:14Z</time>
      </trkpt>
      <trkpt lat="45.24462" lon="6.35179">
        <ele>1366.53</ele>
        <time>2018-09-09T09:55:17Z</time>
      </trkpt>
      <trkpt lat="45.24476" lon="6.35164">
        <ele>1365.54</ele>
        <time>2018-09-09T09:55:19Z</time>
      </trkpt>
      <trkpt lat="45.24496" lon="6.35145">
        <ele>1364.54</ele>
        <time>2018-09-09T09:55:22Z</time>
      </trkpt>
      <trkpt lat="45.24516" lon="6.35151">
        <ele>1364.45</ele>
        <time>2018-09-09T09:55:25Z</time>
      </trkpt>
      <trkpt lat="45.24538" lon="6.35173">
        <ele>1365.36</ele>
        <time>2018-09-09T09:55:28Z</time>
      </trkpt>
      <trkpt lat="45.24557" lon="6.35191">
        <ele>1365.44</ele>
        <time>2018-09-09T09:55:30Z</time>
      </trkpt>
      <trkpt lat="45.24576" lon="6.3521">
        <ele>1365.44</ele>
        <time>2018-09-09T09:55:32Z</time>
      </trkpt>
      <trkpt lat="45.24597" lon="6.35229">
        <ele>1363.83</ele>
        <time>2018-09-09T09:55:34Z</time>
      </trkpt>
      <trkpt lat="45.24619" lon="6.35247">
        <ele>1362.78</ele>
        <time>2018-09-09T09:55:36Z</time>
      </trkpt>
      <trkpt lat="45.24643" lon="6.35263">
        <ele>1361.78</ele>
        <time>2018-09-09T09:55:38Z</time>
      </trkpt>
      <trkpt lat="45.2467" lon="6.35273">
        <ele>1360.07</ele>
        <time>2018-09-09T09:55:40Z</time>
      </trkpt>
      <trkpt lat="45.24697" lon="6.35288">
        <ele>1356.98</ele>
        <time>2018-09-09T09:55:42Z</time>
      </trkpt>
      <trkpt lat="45.24723" lon="6.35307">
        <ele>1354.88</ele>
        <time>2018-09-09T09:55:44Z</time>
      </trkpt>
      <trkpt lat="45.24749" lon="6.35328">
        <ele>1351.96</ele>
        <time>2018-09-09T09:55:46Z</time>
      </trkpt>
      <trkpt lat="45.24775" lon="6.35348">
        <ele>1350.79</ele>
        <time>2018-09-09T09:55:48Z</time>
      </trkpt>
      <trkpt lat="45.24801" lon="6.35368">
        <ele>1349.08</ele>
        <time>2018-09-09T09:55:50Z</time>
      </trkpt>
      <trkpt lat="45.24827" lon="6.35387">
        <ele>1346.89</ele>
        <time>2018-09-09T09:55:52Z</time>
      </trkpt>
      <trkpt lat="45.24849" lon="6.35404">
        <ele>1345.58</ele>
        <time>2018-09-09T09:55:54Z</time>
      </trkpt>
      <trkpt lat="45.2486" lon="6.35439">
        <ele>1341.96</ele>
        <time>2018-09-09T09:55:57Z</time>
      </trkpt>
      <trkpt lat="45.24855" lon="6.35472">
        <ele>1338.27</ele>
        <time>2018-09-09T09:55:59Z</time>
      </trkpt>
      <trkpt lat="45.24853" lon="6.35512">
        <ele>1335.91</ele>
        <time>2018-09-09T09:56:01Z</time>
      </trkpt>
      <trkpt lat="45.24851" lon="6.35558">
        <ele>1333.67</ele>
        <time>2018-09-09T09:56:03Z</time>
      </trkpt>
      <trkpt lat="45.24848" lon="6.35604">
        <ele>1331.15</ele>
        <time>2018-09-09T09:56:05Z</time>
      </trkpt>
      <trkpt lat="45.24844" lon="6.3565">
        <ele>1329.81</ele>
        <time>2018-09-09T09:56:07Z</time>
      </trkpt>
      <trkpt lat="45.24842" lon="6.3569">
        <ele>1327.87</ele>
        <time>2018-09-09T09:56:09Z</time>
      </trkpt>
      <trkpt lat="45.24856" lon="6.35714">
        <ele>1326.48</ele>
        <time>2018-09-09T09:56:12Z</time>
      </trkpt>
      <trkpt lat="45.24876" lon="6.35689">
        <ele>1325.81</ele>
        <time>2018-09-09T09:56:15Z</time>
      </trkpt>
      <trkpt lat="45.24889" lon="6.35666">
        <ele>1323.87</ele>
        <time>2018-09-09T09:56:17Z</time>
      </trkpt>
      <trkpt lat="45.24909" lon="6.35658">
        <ele>1321.87</ele>
        <time>2018-09-09T09:56:19Z</time>
      </trkpt>
      <trkpt lat="45.24929" lon="6.35671">
        <ele>1322.6</ele>
        <time>2018-09-09T09:56:21Z</time>
      </trkpt>
      <trkpt lat="45.24952" lon="6.35666">
        <ele>1320.15</ele>
        <time>2018-09-09T09:56:23Z</time>
      </trkpt>
      <trkpt lat="45.2498" lon="6.35644">
        <ele>1317.2</ele>
        <time>2018-09-09T09:56:25Z</time>
      </trkpt>
      <trkpt lat="45.24996" lon="6.35631">
        <ele>1315.27</ele>
        <time>2018-09-09T09:56:26Z</time>
      </trkpt>
      <trkpt lat="45.25012" lon="6.35618">
        <ele>1314.75</ele>
        <time>2018-09-09T09:56:27Z</time>
      </trkpt>
      <trkpt lat="45.25043" lon="6.35594">
        <ele>1312.03</ele>
        <time>2018-09-09T09:56:29Z</time>
      </trkpt>
      <trkpt lat="45.25074" lon="6.35571">
        <ele>1310.67</ele>
        <time>2018-09-09T09:56:31Z</time>
      </trkpt>
      <trkpt lat="45.25108" lon="6.35558">
        <ele>1309.84</ele>
        <time>2018-09-09T09:56:33Z</time>
      </trkpt>
      <trkpt lat="45.25139" lon="6.35545">
        <ele>1308.16</ele>
        <time>2018-09-09T09:56:35Z</time>
      </trkpt>
      <trkpt lat="45.25171" lon="6.35531">
        <ele>1307.8</ele>
        <time>2018-09-09T09:56:37Z</time>
      </trkpt>
      <trkpt lat="45.25199" lon="6.35514">
        <ele>1305.94</ele>
        <time>2018-09-09T09:56:39Z</time>
      </trkpt>
      <trkpt lat="45.25232" lon="6.35508">
        <ele>1302.35</ele>
        <time>2018-09-09T09:56:41Z</time>
      </trkpt>
      <trkpt lat="45.25266" lon="6.3551">
        <ele>1300.9</ele>
        <time>2018-09-09T09:56:43Z</time>
      </trkpt>
      <trkpt lat="45.25297" lon="6.35514">
        <ele>1299.86</ele>
        <time>2018-09-09T09:56:45Z</time>
      </trkpt>
      <trkpt lat="45.25324" lon="6.35511">
        <ele>1298.16</ele>
        <time>2018-09-09T09:56:47Z</time>
      </trkpt>
      <trkpt lat="45.25343" lon="6.35515">
        <ele>1293.66</ele>
        <time>2018-09-09T09:56:50Z</time>
      </trkpt>
      <trkpt lat="45.25327" lon="6.35541">
        <ele>1291.65</ele>
        <time>2018-09-09T09:56:53Z</time>
      </trkpt>
      <trkpt lat="45.25295" lon="6.35547">
        <ele>1288.74</ele>
        <time>2018-09-09T09:56:55Z</time>
      </trkpt>
      <trkpt lat="45.25263" lon="6.35562">
        <ele>1285.12</ele>
        <time>2018-09-09T09:56:57Z</time>
      </trkpt>
      <trkpt lat="45.25233" lon="6.35579">
        <ele>1282.06</ele>
        <time>2018-09-09T09:56:59Z</time>
      </trkpt>
      <trkpt lat="45.25201" lon="6.35599">
        <ele>1280.67</ele>
        <time>2018-09-09T09:57:01Z</time>
      </trkpt>
      <trkpt lat="45.25185" lon="6.3561">
        <ele>1279.87</ele>
        <time>2018-09-09T09:57:02Z</time>
      </trkpt>
      <trkpt lat="45.25156" lon="6.35638">
        <ele>1275.85</ele>
        <time>2018-09-09T09:57:04Z</time>
      </trkpt>
      <trkpt lat="45.25131" lon="6.35671">
        <ele>1273.95</ele>
        <time>2018-09-09T09:57:06Z</time>
      </trkpt>
      <trkpt lat="45.25113" lon="6.35709">
        <ele>1271.05</ele>
        <time>2018-09-09T09:57:08Z</time>
      </trkpt>
      <trkpt lat="45.25098" lon="6.35753">
        <ele>1267.29</ele>
        <time>2018-09-09T09:57:10Z</time>
      </trkpt>
      <trkpt lat="45.25085" lon="6.35795">
        <ele>1264.08</ele>
        <time>2018-09-09T09:57:12Z</time>
      </trkpt>
      <trkpt lat="45.25086" lon="6.3584">
        <ele>1262.67</ele>
        <time>2018-09-09T09:57:14Z</time>
      </trkpt>
      <trkpt lat="45.25084" lon="6.35876">
        <ele>1261.14</ele>
        <time>2018-09-09T09:57:16Z</time>
      </trkpt>
      <trkpt lat="45.25094" lon="6.35845">
        <ele>1255.89</ele>
        <time>2018-09-09T09:57:23Z</time>
      </trkpt>
      <trkpt lat="45.25104" lon="6.35817">
        <ele>1253.46</ele>
        <time>2018-09-09T09:57:25Z</time>
      </trkpt>
      <trkpt lat="45.2512" lon="6.35789">
        <ele>1251</ele>
        <time>2018-09-09T09:57:27Z</time>
      </trkpt>
      <trkpt lat="45.25134" lon="6.35765">
        <ele>1248.75</ele>
        <time>2018-09-09T09:57:29Z</time>
      </trkpt>
      <trkpt lat="45.25138" lon="6.35791">
        <ele>1243.65</ele>
        <time>2018-09-09T09:57:36Z</time>
      </trkpt>
      <trkpt lat="45.25129" lon="6.35814">
        <ele>1241.93</ele>
        <time>2018-09-09T09:57:38Z</time>
      </trkpt>
      <trkpt lat="45.25123" lon="6.35847">
        <ele>1239.75</ele>
        <time>2018-09-09T09:57:40Z</time>
      </trkpt>
      <trkpt lat="45.25119" lon="6.35886">
        <ele>1239.55</ele>
        <time>2018-09-09T09:57:42Z</time>
      </trkpt>
      <trkpt lat="45.25121" lon="6.35917">
        <ele>1237.86</ele>
        <time>2018-09-09T09:57:45Z</time>
      </trkpt>
      <trkpt lat="45.25138" lon="6.35903">
        <ele>1233.26</ele>
        <time>2018-09-09T09:57:49Z</time>
      </trkpt>
      <trkpt lat="45.25145" lon="6.3586">
        <ele>1232.11</ele>
        <time>2018-09-09T09:57:51Z</time>
      </trkpt>
      <trkpt lat="45.25154" lon="6.35817">
        <ele>1231.58</ele>
        <time>2018-09-09T09:57:53Z</time>
      </trkpt>
      <trkpt lat="45.25167" lon="6.35787">
        <ele>1229.72</ele>
        <time>2018-09-09T09:57:55Z</time>
      </trkpt>
      <trkpt lat="45.25182" lon="6.35762">
        <ele>1226.89</ele>
        <time>2018-09-09T09:57:58Z</time>
      </trkpt>
      <trkpt lat="45.25186" lon="6.35793">
        <ele>1225.2</ele>
        <time>2018-09-09T09:58:01Z</time>
      </trkpt>
      <trkpt lat="45.25177" lon="6.35819">
        <ele>1222.28</ele>
        <time>2018-09-09T09:58:03Z</time>
      </trkpt>
      <trkpt lat="45.25179" lon="6.35847">
        <ele>1222.46</ele>
        <time>2018-09-09T09:58:04Z</time>
      </trkpt>
      <trkpt lat="45.25183" lon="6.35875">
        <ele>1221.81</ele>
        <time>2018-09-09T09:58:05Z</time>
      </trkpt>
      <trkpt lat="45.25181" lon="6.35915">
        <ele>1220.86</ele>
        <time>2018-09-09T09:58:07Z</time>
      </trkpt>
      <trkpt lat="45.25167" lon="6.35943">
        <ele>1218.95</ele>
        <time>2018-09-09T09:58:09Z</time>
      </trkpt>
      <trkpt lat="45.25182" lon="6.35919">
        <ele>1213.45</ele>
        <time>2018-09-09T09:58:15Z</time>
      </trkpt>
      <trkpt lat="45.25195" lon="6.35886">
        <ele>1211.7</ele>
        <time>2018-09-09T09:58:17Z</time>
      </trkpt>
      <trkpt lat="45.25211" lon="6.35855">
        <ele>1209.24</ele>
        <time>2018-09-09T09:58:19Z</time>
      </trkpt>
      <trkpt lat="45.25222" lon="6.35823">
        <ele>1207.89</ele>
        <time>2018-09-09T09:58:21Z</time>
      </trkpt>
      <trkpt lat="45.25252" lon="6.35818">
        <ele>1205.74</ele>
        <time>2018-09-09T09:58:23Z</time>
      </trkpt>
      <trkpt lat="45.2527" lon="6.35818">
        <ele>1205.59</ele>
        <time>2018-09-09T09:58:24Z</time>
      </trkpt>
      <trkpt lat="45.25301" lon="6.35806">
        <ele>1204.14</ele>
        <time>2018-09-09T09:58:26Z</time>
      </trkpt>
      <trkpt lat="45.25317" lon="6.35796">
        <ele>1205.11</ele>
        <time>2018-09-09T09:58:27Z</time>
      </trkpt>
      <trkpt lat="45.25336" lon="6.35787">
        <ele>1206.11</ele>
        <time>2018-09-09T09:58:28Z</time>
      </trkpt>
      <trkpt lat="45.25369" lon="6.35782">
        <ele>1206.49</ele>
        <time>2018-09-09T09:58:30Z</time>
      </trkpt>
      <trkpt lat="45.25403" lon="6.35784">
        <ele>1203.31</ele>
        <time>2018-09-09T09:58:32Z</time>
      </trkpt>
      <trkpt lat="45.25435" lon="6.3578">
        <ele>1202.6</ele>
        <time>2018-09-09T09:58:34Z</time>
      </trkpt>
      <trkpt lat="45.25462" lon="6.35775">
        <ele>1200.72</ele>
        <time>2018-09-09T09:58:36Z</time>
      </trkpt>
      <trkpt lat="45.25485" lon="6.35759">
        <ele>1198.73</ele>
        <time>2018-09-09T09:58:38Z</time>
      </trkpt>
      <trkpt lat="45.25505" lon="6.35755">
        <ele>1197.07</ele>
        <time>2018-09-09T09:58:41Z</time>
      </trkpt>
      <trkpt lat="45.25485" lon="6.35771">
        <ele>1192.18</ele>
        <time>2018-09-09T09:58:45Z</time>
      </trkpt>
      <trkpt lat="45.25467" lon="6.35794">
        <ele>1190.68</ele>
        <time>2018-09-09T09:58:47Z</time>
      </trkpt>
      <trkpt lat="45.25436" lon="6.35819">
        <ele>1188.72</ele>
        <time>2018-09-09T09:58:49Z</time>
      </trkpt>
      <trkpt lat="45.25407" lon="6.35832">
        <ele>1184.91</ele>
        <time>2018-09-09T09:58:51Z</time>
      </trkpt>
      <trkpt lat="45.25383" lon="6.35859">
        <ele>1181.34</ele>
        <time>2018-09-09T09:58:53Z</time>
      </trkpt>
      <trkpt lat="45.25357" lon="6.35888">
        <ele>1177.59</ele>
        <time>2018-09-09T09:58:55Z</time>
      </trkpt>
      <trkpt lat="45.25334" lon="6.35921">
        <ele>1175.02</ele>
        <time>2018-09-09T09:58:57Z</time>
      </trkpt>
      <trkpt lat="45.25319" lon="6.35954">
        <ele>1170.02</ele>
        <time>2018-09-09T09:58:59Z</time>
      </trkpt>
      <trkpt lat="45.25307" lon="6.35988">
        <ele>1168.67</ele>
        <time>2018-09-09T09:59:01Z</time>
      </trkpt>
      <trkpt lat="45.25292" lon="6.36022">
        <ele>1167.63</ele>
        <time>2018-09-09T09:59:03Z</time>
      </trkpt>
      <trkpt lat="45.25287" lon="6.36066">
        <ele>1164.04</ele>
        <time>2018-09-09T09:59:05Z</time>
      </trkpt>
      <trkpt lat="45.25285" lon="6.36107">
        <ele>1161.76</ele>
        <time>2018-09-09T09:59:07Z</time>
      </trkpt>
      <trkpt lat="45.25288" lon="6.36136">
        <ele>1159.65</ele>
        <time>2018-09-09T09:59:10Z</time>
      </trkpt>
      <trkpt lat="45.253" lon="6.36111">
        <ele>1156.25</ele>
        <time>2018-09-09T09:59:13Z</time>
      </trkpt>
      <trkpt lat="45.25303" lon="6.36075">
        <ele>1154.9</ele>
        <time>2018-09-09T09:59:15Z</time>
      </trkpt>
      <trkpt lat="45.25319" lon="6.36041">
        <ele>1153.86</ele>
        <time>2018-09-09T09:59:17Z</time>
      </trkpt>
      <trkpt lat="45.25342" lon="6.36013">
        <ele>1152.44</ele>
        <time>2018-09-09T09:59:19Z</time>
      </trkpt>
      <trkpt lat="45.25362" lon="6.35987">
        <ele>1148.39</ele>
        <time>2018-09-09T09:59:21Z</time>
      </trkpt>
      <trkpt lat="45.2538" lon="6.35968">
        <ele>1146.7</ele>
        <time>2018-09-09T09:59:23Z</time>
      </trkpt>
      <trkpt lat="45.25409" lon="6.35973">
        <ele>1144.24</ele>
        <time>2018-09-09T09:59:25Z</time>
      </trkpt>
      <trkpt lat="45.25434" lon="6.35971">
        <ele>1140.09</ele>
        <time>2018-09-09T09:59:27Z</time>
      </trkpt>
      <trkpt lat="45.25465" lon="6.3597">
        <ele>1136.36</ele>
        <time>2018-09-09T09:59:29Z</time>
      </trkpt>
      <trkpt lat="45.25494" lon="6.35959">
        <ele>1134.21</ele>
        <time>2018-09-09T09:59:31Z</time>
      </trkpt>
      <trkpt lat="45.25523" lon="6.35956">
        <ele>1129.46</ele>
        <time>2018-09-09T09:59:33Z</time>
      </trkpt>
      <trkpt lat="45.25546" lon="6.35944">
        <ele>1129.31</ele>
        <time>2018-09-09T09:59:35Z</time>
      </trkpt>
      <trkpt lat="45.25523" lon="6.35977">
        <ele>1126.22</ele>
        <time>2018-09-09T09:59:43Z</time>
      </trkpt>
      <trkpt lat="45.25494" lon="6.36008">
        <ele>1125.8</ele>
        <time>2018-09-09T09:59:45Z</time>
      </trkpt>
      <trkpt lat="45.25467" lon="6.36032">
        <ele>1124.86</ele>
        <time>2018-09-09T09:59:47Z</time>
      </trkpt>
      <trkpt lat="45.25447" lon="6.36048">
        <ele>1119.94</ele>
        <time>2018-09-09T09:59:49Z</time>
      </trkpt>
      <trkpt lat="45.25427" lon="6.36049">
        <ele>1119.57</ele>
        <time>2018-09-09T09:59:51Z</time>
      </trkpt>
      <trkpt lat="45.25408" lon="6.36064">
        <ele>1119.32</ele>
        <time>2018-09-09T09:59:53Z</time>
      </trkpt>
      <trkpt lat="45.25396" lon="6.36089">
        <ele>1119.3</ele>
        <time>2018-09-09T09:59:55Z</time>
      </trkpt>
      <trkpt lat="45.25411" lon="6.36121">
        <ele>1118.6</ele>
        <time>2018-09-09T09:59:57Z</time>
      </trkpt>
      <trkpt lat="45.25416" lon="6.36159">
        <ele>1118.33</ele>
        <time>2018-09-09T09:59:59Z</time>
      </trkpt>
      <trkpt lat="45.2541" lon="6.36195">
        <ele>1115.5</ele>
        <time>2018-09-09T10:00:01Z</time>
      </trkpt>
      <trkpt lat="45.25403" lon="6.36231">
        <ele>1113.22</ele>
        <time>2018-09-09T10:00:03Z</time>
      </trkpt>
      <trkpt lat="45.25387" lon="6.36261">
        <ele>1110.98</ele>
        <time>2018-09-09T10:00:05Z</time>
      </trkpt>
      <trkpt lat="45.25367" lon="6.36279">
        <ele>1112.39</ele>
        <time>2018-09-09T10:00:07Z</time>
      </trkpt>
      <trkpt lat="45.25351" lon="6.36297">
        <ele>1110.79</ele>
        <time>2018-09-09T10:00:10Z</time>
      </trkpt>
      <trkpt lat="45.25376" lon="6.36285">
        <ele>1111.25</ele>
        <time>2018-09-09T10:00:12Z</time>
      </trkpt>
      <trkpt lat="45.25407" lon="6.36266">
        <ele>1111.23</ele>
        <time>2018-09-09T10:00:14Z</time>
      </trkpt>
      <trkpt lat="45.2543" lon="6.3625">
        <ele>1108.28</ele>
        <time>2018-09-09T10:00:16Z</time>
      </trkpt>
      <trkpt lat="45.25447" lon="6.36233">
        <ele>1104.87</ele>
        <time>2018-09-09T10:00:18Z</time>
      </trkpt>
      <trkpt lat="45.25461" lon="6.36214">
        <ele>1103.86</ele>
        <time>2018-09-09T10:00:20Z</time>
      </trkpt>
      <trkpt lat="45.25459" lon="6.36181">
        <ele>1101.66</ele>
        <time>2018-09-09T10:00:23Z</time>
      </trkpt>
      <trkpt lat="45.25467" lon="6.36216">
        <ele>1097.11</ele>
        <time>2018-09-09T10:00:28Z</time>
      </trkpt>
      <trkpt lat="45.25456" lon="6.36241">
        <ele>1093.36</ele>
        <time>2018-09-09T10:00:30Z</time>
      </trkpt>
      <trkpt lat="45.25438" lon="6.36255">
        <ele>1089.98</ele>
        <time>2018-09-09T10:00:31Z</time>
      </trkpt>
      <trkpt lat="45.25421" lon="6.36292">
        <ele>1084.04</ele>
        <time>2018-09-09T10:00:33Z</time>
      </trkpt>
      <trkpt lat="45.25399" lon="6.36326">
        <ele>1079.45</ele>
        <time>2018-09-09T10:00:35Z</time>
      </trkpt>
      <trkpt lat="45.25384" lon="6.36352">
        <ele>1076.09</ele>
        <time>2018-09-09T10:00:37Z</time>
      </trkpt>
      <trkpt lat="45.25374" lon="6.36373">
        <ele>1074.67</ele>
        <time>2018-09-09T10:00:39Z</time>
      </trkpt>
      <trkpt lat="45.25397" lon="6.3637">
        <ele>1073.13</ele>
        <time>2018-09-09T10:00:42Z</time>
      </trkpt>
      <trkpt lat="45.25415" lon="6.36346">
        <ele>1073.29</ele>
        <time>2018-09-09T10:00:44Z</time>
      </trkpt>
      <trkpt lat="45.25435" lon="6.3632">
        <ele>1074.42</ele>
        <time>2018-09-09T10:00:46Z</time>
      </trkpt>
      <trkpt lat="45.25452" lon="6.36307">
        <ele>1072</ele>
        <time>2018-09-09T10:00:48Z</time>
      </trkpt>
      <trkpt lat="45.25442" lon="6.36339">
        <ele>1070.13</ele>
        <time>2018-09-09T10:00:54Z</time>
      </trkpt>
      <trkpt lat="45.25426" lon="6.36369">
        <ele>1066.36</ele>
        <time>2018-09-09T10:00:56Z</time>
      </trkpt>
      <trkpt lat="45.25414" lon="6.36393">
        <ele>1064.91</ele>
        <time>2018-09-09T10:00:58Z</time>
      </trkpt>
      <trkpt lat="45.25445" lon="6.3637">
        <ele>1066.13</ele>
        <time>2018-09-09T10:01:04Z</time>
      </trkpt>
      <trkpt lat="45.25464" lon="6.36353">
        <ele>1063.07</ele>
        <time>2018-09-09T10:01:06Z</time>
      </trkpt>
      <trkpt lat="45.25462" lon="6.36384">
        <ele>1061.47</ele>
        <time>2018-09-09T10:01:11Z</time>
      </trkpt>
      <trkpt lat="45.25451" lon="6.36414">
        <ele>1060.83</ele>
        <time>2018-09-09T10:01:13Z</time>
      </trkpt>
      <trkpt lat="45.25431" lon="6.36441">
        <ele>1057.13</ele>
        <time>2018-09-09T10:01:15Z</time>
      </trkpt>
      <trkpt lat="45.25413" lon="6.36463">
        <ele>1056.58</ele>
        <time>2018-09-09T10:01:17Z</time>
      </trkpt>
      <trkpt lat="45.25425" lon="6.36486">
        <ele>1053.95</ele>
        <time>2018-09-09T10:01:22Z</time>
      </trkpt>
      <trkpt lat="45.2544" lon="6.3647">
        <ele>1055.18</ele>
        <time>2018-09-09T10:01:24Z</time>
      </trkpt>
      <trkpt lat="45.25454" lon="6.36434">
        <ele>1052.63</ele>
        <time>2018-09-09T10:01:25Z</time>
      </trkpt>
      <trkpt lat="45.25478" lon="6.36399">
        <ele>1047.71</ele>
        <time>2018-09-09T10:01:27Z</time>
      </trkpt>
      <trkpt lat="45.25498" lon="6.36374">
        <ele>1045.73</ele>
        <time>2018-09-09T10:01:29Z</time>
      </trkpt>
      <trkpt lat="45.25514" lon="6.36352">
        <ele>1043.45</ele>
        <time>2018-09-09T10:01:31Z</time>
      </trkpt>
      <trkpt lat="45.25533" lon="6.36353">
        <ele>1041.7</ele>
        <time>2018-09-09T10:01:33Z</time>
      </trkpt>
      <trkpt lat="45.2552" lon="6.36385">
        <ele>1038.6</ele>
        <time>2018-09-09T10:01:36Z</time>
      </trkpt>
      <trkpt lat="45.25487" lon="6.36413">
        <ele>1035.53</ele>
        <time>2018-09-09T10:01:38Z</time>
      </trkpt>
      <trkpt lat="45.25472" lon="6.36449">
        <ele>1030.21</ele>
        <time>2018-09-09T10:01:40Z</time>
      </trkpt>
      <trkpt lat="45.25455" lon="6.36483">
        <ele>1027.98</ele>
        <time>2018-09-09T10:01:42Z</time>
      </trkpt>
      <trkpt lat="45.25438" lon="6.36511">
        <ele>1027.36</ele>
        <time>2018-09-09T10:01:44Z</time>
      </trkpt>
      <trkpt lat="45.25428" lon="6.36533">
        <ele>1026.82</ele>
        <time>2018-09-09T10:01:46Z</time>
      </trkpt>
      <trkpt lat="45.25451" lon="6.36522">
        <ele>1028.5</ele>
        <time>2018-09-09T10:01:50Z</time>
      </trkpt>
      <trkpt lat="45.25465" lon="6.36494">
        <ele>1025.72</ele>
        <time>2018-09-09T10:01:51Z</time>
      </trkpt>
      <trkpt lat="45.25484" lon="6.36469">
        <ele>1024.85</ele>
        <time>2018-09-09T10:01:53Z</time>
      </trkpt>
      <trkpt lat="45.25509" lon="6.36444">
        <ele>1024.07</ele>
        <time>2018-09-09T10:01:55Z</time>
      </trkpt>
      <trkpt lat="45.25533" lon="6.36419">
        <ele>1022.67</ele>
        <time>2018-09-09T10:01:57Z</time>
      </trkpt>
      <trkpt lat="45.25555" lon="6.36395">
        <ele>1022.54</ele>
        <time>2018-09-09T10:01:59Z</time>
      </trkpt>
      <trkpt lat="45.25573" lon="6.36376">
        <ele>1021.83</ele>
        <time>2018-09-09T10:02:01Z</time>
      </trkpt>
      <trkpt lat="45.25588" lon="6.36351">
        <ele>1021.28</ele>
        <time>2018-09-09T10:02:03Z</time>
      </trkpt>
      <trkpt lat="45.25598" lon="6.36325">
        <ele>1018.99</ele>
        <time>2018-09-09T10:02:05Z</time>
      </trkpt>
      <trkpt lat="45.25606" lon="6.36299">
        <ele>1018.57</ele>
        <time>2018-09-09T10:02:07Z</time>
      </trkpt>
      <trkpt lat="45.25604" lon="6.36339">
        <ele>1015.66</ele>
        <time>2018-09-09T10:02:12Z</time>
      </trkpt>
      <trkpt lat="45.25603" lon="6.36364">
        <ele>1016.27</ele>
        <time>2018-09-09T10:02:13Z</time>
      </trkpt>
      <trkpt lat="45.25591" lon="6.36397">
        <ele>1014.2</ele>
        <time>2018-09-09T10:02:15Z</time>
      </trkpt>
      <trkpt lat="45.25571" lon="6.36426">
        <ele>1010.58</ele>
        <time>2018-09-09T10:02:17Z</time>
      </trkpt>
      <trkpt lat="45.25556" lon="6.36464">
        <ele>1006.41</ele>
        <time>2018-09-09T10:02:19Z</time>
      </trkpt>
      <trkpt lat="45.25539" lon="6.36499">
        <ele>1004</ele>
        <time>2018-09-09T10:02:21Z</time>
      </trkpt>
      <trkpt lat="45.25524" lon="6.36532">
        <ele>1000.77</ele>
        <time>2018-09-09T10:02:23Z</time>
      </trkpt>
      <trkpt lat="45.2552" lon="6.36562">
        <ele>999.85</ele>
        <time>2018-09-09T10:02:25Z</time>
      </trkpt>
      <trkpt lat="45.25519" lon="6.36591">
        <ele>997.74</ele>
        <time>2018-09-09T10:02:27Z</time>
      </trkpt>
      <trkpt lat="45.25534" lon="6.36622">
        <ele>994.82</ele>
        <time>2018-09-09T10:02:29Z</time>
      </trkpt>
      <trkpt lat="45.25522" lon="6.36648">
        <ele>987.43</ele>
        <time>2018-09-09T10:02:32Z</time>
      </trkpt>
      <trkpt lat="45.25519" lon="6.36673">
        <ele>986.83</ele>
        <time>2018-09-09T10:02:36Z</time>
      </trkpt>
      <trkpt lat="45.25545" lon="6.36663">
        <ele>986.81</ele>
        <time>2018-09-09T10:02:39Z</time>
      </trkpt>
      <trkpt lat="45.25568" lon="6.36646">
        <ele>984.25</ele>
        <time>2018-09-09T10:02:41Z</time>
      </trkpt>
      <trkpt lat="45.25582" lon="6.36621">
        <ele>984.51</ele>
        <time>2018-09-09T10:02:43Z</time>
      </trkpt>
      <trkpt lat="45.25582" lon="6.36582">
        <ele>982.71</ele>
        <time>2018-09-09T10:02:45Z</time>
      </trkpt>
      <trkpt lat="45.25591" lon="6.36548">
        <ele>978.21</ele>
        <time>2018-09-09T10:02:47Z</time>
      </trkpt>
      <trkpt lat="45.25615" lon="6.36525">
        <ele>976.68</ele>
        <time>2018-09-09T10:02:49Z</time>
      </trkpt>
      <trkpt lat="45.2564" lon="6.36505">
        <ele>974.93</ele>
        <time>2018-09-09T10:02:51Z</time>
      </trkpt>
      <trkpt lat="45.25667" lon="6.36489">
        <ele>972.96</ele>
        <time>2018-09-09T10:02:53Z</time>
      </trkpt>
      <trkpt lat="45.25683" lon="6.3647">
        <ele>970.26</ele>
        <time>2018-09-09T10:02:55Z</time>
      </trkpt>
      <trkpt lat="45.25694" lon="6.36441">
        <ele>968.69</ele>
        <time>2018-09-09T10:02:57Z</time>
      </trkpt>
      <trkpt lat="45.25708" lon="6.36412">
        <ele>966.93</ele>
        <time>2018-09-09T10:02:59Z</time>
      </trkpt>
      <trkpt lat="45.25724" lon="6.36395">
        <ele>964.87</ele>
        <time>2018-09-09T10:03:02Z</time>
      </trkpt>
      <trkpt lat="45.25717" lon="6.3643">
        <ele>962.92</ele>
        <time>2018-09-09T10:03:06Z</time>
      </trkpt>
      <trkpt lat="45.25707" lon="6.36463">
        <ele>961.87</ele>
        <time>2018-09-09T10:03:08Z</time>
      </trkpt>
      <trkpt lat="45.25698" lon="6.36503">
        <ele>959.95</ele>
        <time>2018-09-09T10:03:10Z</time>
      </trkpt>
      <trkpt lat="45.2569" lon="6.36542">
        <ele>957.96</ele>
        <time>2018-09-09T10:03:12Z</time>
      </trkpt>
      <trkpt lat="45.2569" lon="6.36579">
        <ele>955.26</ele>
        <time>2018-09-09T10:03:14Z</time>
      </trkpt>
      <trkpt lat="45.257" lon="6.36612">
        <ele>953.69</ele>
        <time>2018-09-09T10:03:16Z</time>
      </trkpt>
      <trkpt lat="45.25714" lon="6.36629">
        <ele>951.93</ele>
        <time>2018-09-09T10:03:18Z</time>
      </trkpt>
      <trkpt lat="45.25733" lon="6.36621">
        <ele>949.66</ele>
        <time>2018-09-09T10:03:21Z</time>
      </trkpt>
      <trkpt lat="45.25741" lon="6.36587">
        <ele>945.34</ele>
        <time>2018-09-09T10:03:24Z</time>
      </trkpt>
      <trkpt lat="45.25763" lon="6.36565">
        <ele>944.06</ele>
        <time>2018-09-09T10:03:27Z</time>
      </trkpt>
      <trkpt lat="45.25771" lon="6.3654">
        <ele>943.58</ele>
        <time>2018-09-09T10:03:29Z</time>
      </trkpt>
      <trkpt lat="45.25776" lon="6.3651">
        <ele>939.77</ele>
        <time>2018-09-09T10:03:32Z</time>
      </trkpt>
      <trkpt lat="45.25785" lon="6.36535">
        <ele>935.75</ele>
        <time>2018-09-09T10:03:37Z</time>
      </trkpt>
      <trkpt lat="45.25787" lon="6.36573">
        <ele>933.73</ele>
        <time>2018-09-09T10:03:39Z</time>
      </trkpt>
      <trkpt lat="45.2581" lon="6.36586">
        <ele>932.42</ele>
        <time>2018-09-09T10:03:42Z</time>
      </trkpt>
      <trkpt lat="45.25821" lon="6.36566">
        <ele>930.92</ele>
        <time>2018-09-09T10:03:45Z</time>
      </trkpt>
      <trkpt lat="45.25814" lon="6.36531">
        <ele>932.18</ele>
        <time>2018-09-09T10:03:47Z</time>
      </trkpt>
      <trkpt lat="45.25818" lon="6.36494">
        <ele>932.29</ele>
        <time>2018-09-09T10:03:49Z</time>
      </trkpt>
      <trkpt lat="45.25827" lon="6.36471">
        <ele>930.2</ele>
        <time>2018-09-09T10:03:51Z</time>
      </trkpt>
      <trkpt lat="45.25848" lon="6.36473">
        <ele>929.82</ele>
        <time>2018-09-09T10:03:54Z</time>
      </trkpt>
      <trkpt lat="45.25866" lon="6.36484">
        <ele>929.56</ele>
        <time>2018-09-09T10:03:56Z</time>
      </trkpt>
      <trkpt lat="45.25882" lon="6.36466">
        <ele>928.13</ele>
        <time>2018-09-09T10:03:58Z</time>
      </trkpt>
      <trkpt lat="45.25903" lon="6.36439">
        <ele>926.19</ele>
        <time>2018-09-09T10:04:00Z</time>
      </trkpt>
      <trkpt lat="45.25928" lon="6.3641">
        <ele>923.77</ele>
        <time>2018-09-09T10:04:02Z</time>
      </trkpt>
      <trkpt lat="45.2595" lon="6.36382">
        <ele>921.94</ele>
        <time>2018-09-09T10:04:04Z</time>
      </trkpt>
      <trkpt lat="45.25973" lon="6.36353">
        <ele>919.26</ele>
        <time>2018-09-09T10:04:06Z</time>
      </trkpt>
      <trkpt lat="45.25993" lon="6.36326">
        <ele>915.59</ele>
        <time>2018-09-09T10:04:08Z</time>
      </trkpt>
      <trkpt lat="45.26022" lon="6.36315">
        <ele>909.8</ele>
        <time>2018-09-09T10:04:10Z</time>
      </trkpt>
      <trkpt lat="45.26046" lon="6.36301">
        <ele>907.94</ele>
        <time>2018-09-09T10:04:12Z</time>
      </trkpt>
      <trkpt lat="45.26064" lon="6.36285">
        <ele>907.82</ele>
        <time>2018-09-09T10:04:15Z</time>
      </trkpt>
      <trkpt lat="45.26054" lon="6.36315">
        <ele>905.63</ele>
        <time>2018-09-09T10:04:19Z</time>
      </trkpt>
      <trkpt lat="45.26031" lon="6.36335">
        <ele>903.93</ele>
        <time>2018-09-09T10:04:21Z</time>
      </trkpt>
      <trkpt lat="45.26012" lon="6.36359">
        <ele>901.96</ele>
        <time>2018-09-09T10:04:23Z</time>
      </trkpt>
      <trkpt lat="45.26" lon="6.36392">
        <ele>900.87</ele>
        <time>2018-09-09T10:04:25Z</time>
      </trkpt>
      <trkpt lat="45.25987" lon="6.3642">
        <ele>899.65</ele>
        <time>2018-09-09T10:04:27Z</time>
      </trkpt>
      <trkpt lat="45.25975" lon="6.36452">
        <ele>898.13</ele>
        <time>2018-09-09T10:04:30Z</time>
      </trkpt>
      <trkpt lat="45.25977" lon="6.3648">
        <ele>895.98</ele>
        <time>2018-09-09T10:04:32Z</time>
      </trkpt>
      <trkpt lat="45.25978" lon="6.36517">
        <ele>892.96</ele>
        <time>2018-09-09T10:04:35Z</time>
      </trkpt>
      <trkpt lat="45.25951" lon="6.36543">
        <ele>888.69</ele>
        <time>2018-09-09T10:04:38Z</time>
      </trkpt>
      <trkpt lat="45.25935" lon="6.36557">
        <ele>887.63</ele>
        <time>2018-09-09T10:04:40Z</time>
      </trkpt>
      <trkpt lat="45.25961" lon="6.36547">
        <ele>888.44</ele>
        <time>2018-09-09T10:04:45Z</time>
      </trkpt>
      <trkpt lat="45.25984" lon="6.36531">
        <ele>887.82</ele>
        <time>2018-09-09T10:04:47Z</time>
      </trkpt>
      <trkpt lat="45.26004" lon="6.3651">
        <ele>885.95</ele>
        <time>2018-09-09T10:04:49Z</time>
      </trkpt>
      <trkpt lat="45.26019" lon="6.36484">
        <ele>884.45</ele>
        <time>2018-09-09T10:04:51Z</time>
      </trkpt>
      <trkpt lat="45.26025" lon="6.36458">
        <ele>884.52</ele>
        <time>2018-09-09T10:04:53Z</time>
      </trkpt>
      <trkpt lat="45.26036" lon="6.36436">
        <ele>883.83</ele>
        <time>2018-09-09T10:04:55Z</time>
      </trkpt>
      <trkpt lat="45.26055" lon="6.36424">
        <ele>882.16</ele>
        <time>2018-09-09T10:04:57Z</time>
      </trkpt>
      <trkpt lat="45.26068" lon="6.36404">
        <ele>880.89</ele>
        <time>2018-09-09T10:04:59Z</time>
      </trkpt>
      <trkpt lat="45.26085" lon="6.36396">
        <ele>878.44</ele>
        <time>2018-09-09T10:05:02Z</time>
      </trkpt>
      <trkpt lat="45.26067" lon="6.36424">
        <ele>876.86</ele>
        <time>2018-09-09T10:05:05Z</time>
      </trkpt>
      <trkpt lat="45.26049" lon="6.36441">
        <ele>875.86</ele>
        <time>2018-09-09T10:05:07Z</time>
      </trkpt>
      <trkpt lat="45.26034" lon="6.36473">
        <ele>871.77</ele>
        <time>2018-09-09T10:05:10Z</time>
      </trkpt>
      <trkpt lat="45.26031" lon="6.36503">
        <ele>870.64</ele>
        <time>2018-09-09T10:05:12Z</time>
      </trkpt>
      <trkpt lat="45.26025" lon="6.36532">
        <ele>868.02</ele>
        <time>2018-09-09T10:05:14Z</time>
      </trkpt>
      <trkpt lat="45.26006" lon="6.36556">
        <ele>865.97</ele>
        <time>2018-09-09T10:05:16Z</time>
      </trkpt>
      <trkpt lat="45.25987" lon="6.36575">
        <ele>864.66</ele>
        <time>2018-09-09T10:05:18Z</time>
      </trkpt>
      <trkpt lat="45.25974" lon="6.36593">
        <ele>863.63</ele>
        <time>2018-09-09T10:05:20Z</time>
      </trkpt>
      <trkpt lat="45.26002" lon="6.36581">
        <ele>862.64</ele>
        <time>2018-09-09T10:05:24Z</time>
      </trkpt>
      <trkpt lat="45.26022" lon="6.36565">
        <ele>861.63</ele>
        <time>2018-09-09T10:05:26Z</time>
      </trkpt>
      <trkpt lat="45.2604" lon="6.36541">
        <ele>862.24</ele>
        <time>2018-09-09T10:05:28Z</time>
      </trkpt>
      <trkpt lat="45.26055" lon="6.36522">
        <ele>861.59</ele>
        <time>2018-09-09T10:05:30Z</time>
      </trkpt>
      <trkpt lat="45.26059" lon="6.36562">
        <ele>861.06</ele>
        <time>2018-09-09T10:05:35Z</time>
      </trkpt>
      <trkpt lat="45.26031" lon="6.36579">
        <ele>859.99</ele>
        <time>2018-09-09T10:05:36Z</time>
      </trkpt>
      <trkpt lat="45.26012" lon="6.36599">
        <ele>858.45</ele>
        <time>2018-09-09T10:05:38Z</time>
      </trkpt>
      <trkpt lat="45.26005" lon="6.36623">
        <ele>854.97</ele>
        <time>2018-09-09T10:05:41Z</time>
      </trkpt>
      <trkpt lat="45.26023" lon="6.36632">
        <ele>851.9</ele>
        <time>2018-09-09T10:05:44Z</time>
      </trkpt>
      <trkpt lat="45.26045" lon="6.36593">
        <ele>851.07</ele>
        <time>2018-09-09T10:05:46Z</time>
      </trkpt>
      <trkpt lat="45.26064" lon="6.36565">
        <ele>848.76</ele>
        <time>2018-09-09T10:05:48Z</time>
      </trkpt>
      <trkpt lat="45.26074" lon="6.36539">
        <ele>846.03</ele>
        <time>2018-09-09T10:05:50Z</time>
      </trkpt>
      <trkpt lat="45.26092" lon="6.3655">
        <ele>846.45</ele>
        <time>2018-09-09T10:05:54Z</time>
      </trkpt>
      <trkpt lat="45.26073" lon="6.36565">
        <ele>844</ele>
        <time>2018-09-09T10:05:56Z</time>
      </trkpt>
      <trkpt lat="45.26058" lon="6.36586">
        <ele>842.27</ele>
        <time>2018-09-09T10:05:57Z</time>
      </trkpt>
      <trkpt lat="45.26042" lon="6.36617">
        <ele>840.9</ele>
        <time>2018-09-09T10:05:59Z</time>
      </trkpt>
      <trkpt lat="45.26029" lon="6.36637">
        <ele>840.56</ele>
        <time>2018-09-09T10:06:01Z</time>
      </trkpt>
      <trkpt lat="45.26048" lon="6.36635">
        <ele>838.81</ele>
        <time>2018-09-09T10:06:07Z</time>
      </trkpt>
      <trkpt lat="45.26062" lon="6.36614">
        <ele>837.92</ele>
        <time>2018-09-09T10:06:08Z</time>
      </trkpt>
      <trkpt lat="45.26083" lon="6.36587">
        <ele>833.44</ele>
        <time>2018-09-09T10:06:10Z</time>
      </trkpt>
      <trkpt lat="45.26109" lon="6.36569">
        <ele>831</ele>
        <time>2018-09-09T10:06:12Z</time>
      </trkpt>
      <trkpt lat="45.26125" lon="6.36554">
        <ele>828.96</ele>
        <time>2018-09-09T10:06:14Z</time>
      </trkpt>
      <trkpt lat="45.26112" lon="6.36582">
        <ele>823.96</ele>
        <time>2018-09-09T10:06:20Z</time>
      </trkpt>
      <trkpt lat="45.26089" lon="6.36607">
        <ele>822.17</ele>
        <time>2018-09-09T10:06:22Z</time>
      </trkpt>
      <trkpt lat="45.26069" lon="6.36641">
        <ele>819.98</ele>
        <time>2018-09-09T10:06:24Z</time>
      </trkpt>
      <trkpt lat="45.26055" lon="6.3667">
        <ele>817.05</ele>
        <time>2018-09-09T10:06:26Z</time>
      </trkpt>
      <trkpt lat="45.26047" lon="6.36701">
        <ele>814.63</ele>
        <time>2018-09-09T10:06:30Z</time>
      </trkpt>
      <trkpt lat="45.2607" lon="6.36685">
        <ele>813.62</ele>
        <time>2018-09-09T10:06:33Z</time>
      </trkpt>
      <trkpt lat="45.26082" lon="6.36658">
        <ele>813.56</ele>
        <time>2018-09-09T10:06:34Z</time>
      </trkpt>
      <trkpt lat="45.26104" lon="6.36631">
        <ele>810.1</ele>
        <time>2018-09-09T10:06:36Z</time>
      </trkpt>
      <trkpt lat="45.2613" lon="6.36618">
        <ele>807.97</ele>
        <time>2018-09-09T10:06:38Z</time>
      </trkpt>
      <trkpt lat="45.26157" lon="6.36604">
        <ele>804.35</ele>
        <time>2018-09-09T10:06:40Z</time>
      </trkpt>
      <trkpt lat="45.26177" lon="6.36589">
        <ele>802.9</ele>
        <time>2018-09-09T10:06:42Z</time>
      </trkpt>
      <trkpt lat="45.26159" lon="6.36617">
        <ele>800.18</ele>
        <time>2018-09-09T10:06:49Z</time>
      </trkpt>
      <trkpt lat="45.26138" lon="6.36648">
        <ele>798.89</ele>
        <time>2018-09-09T10:06:51Z</time>
      </trkpt>
      <trkpt lat="45.26122" lon="6.36686">
        <ele>797.86</ele>
        <time>2018-09-09T10:06:53Z</time>
      </trkpt>
      <trkpt lat="45.26112" lon="6.36729">
        <ele>794.34</ele>
        <time>2018-09-09T10:06:55Z</time>
      </trkpt>
      <trkpt lat="45.26108" lon="6.36767">
        <ele>791.08</ele>
        <time>2018-09-09T10:06:57Z</time>
      </trkpt>
      <trkpt lat="45.2611" lon="6.36793">
        <ele>788.97</ele>
        <time>2018-09-09T10:06:59Z</time>
      </trkpt>
      <trkpt lat="45.2609" lon="6.36804">
        <ele>787.63</ele>
        <time>2018-09-09T10:07:02Z</time>
      </trkpt>
      <trkpt lat="45.26071" lon="6.368">
        <ele>785.93</ele>
        <time>2018-09-09T10:07:04Z</time>
      </trkpt>
      <trkpt lat="45.26063" lon="6.36824">
        <ele>783.63</ele>
        <time>2018-09-09T10:07:08Z</time>
      </trkpt>
      <trkpt lat="45.26081" lon="6.36824">
        <ele>783.56</ele>
        <time>2018-09-09T10:07:09Z</time>
      </trkpt>
      <trkpt lat="45.26105" lon="6.36832">
        <ele>781.22</ele>
        <time>2018-09-09T10:07:11Z</time>
      </trkpt>
      <trkpt lat="45.26132" lon="6.36837">
        <ele>778.98</ele>
        <time>2018-09-09T10:07:13Z</time>
      </trkpt>
      <trkpt lat="45.2615" lon="6.36828">
        <ele>778.57</ele>
        <time>2018-09-09T10:07:15Z</time>
      </trkpt>
      <trkpt lat="45.26168" lon="6.36799">
        <ele>776.92</ele>
        <time>2018-09-09T10:07:17Z</time>
      </trkpt>
      <trkpt lat="45.26189" lon="6.36765">
        <ele>773.14</ele>
        <time>2018-09-09T10:07:19Z</time>
      </trkpt>
      <trkpt lat="45.26203" lon="6.36739">
        <ele>770.77</ele>
        <time>2018-09-09T10:07:21Z</time>
      </trkpt>
      <trkpt lat="45.26209" lon="6.36764">
        <ele>767.33</ele>
        <time>2018-09-09T10:07:27Z</time>
      </trkpt>
      <trkpt lat="45.26202" lon="6.36809">
        <ele>763.38</ele>
        <time>2018-09-09T10:07:29Z</time>
      </trkpt>
      <trkpt lat="45.26197" lon="6.36836">
        <ele>761.49</ele>
        <time>2018-09-09T10:07:31Z</time>
      </trkpt>
      <trkpt lat="45.26192" lon="6.36862">
        <ele>760.54</ele>
        <time>2018-09-09T10:07:35Z</time>
      </trkpt>
      <trkpt lat="45.26174" lon="6.36874">
        <ele>761.32</ele>
        <time>2018-09-09T10:12:07Z</time>
      </trkpt>
      <trkpt lat="45.26156" lon="6.36882">
        <ele>757.71</ele>
        <time>2018-09-09T10:12:13Z</time>
      </trkpt>
      <trkpt lat="45.26134" lon="6.36894">
        <ele>756.63</ele>
        <time>2018-09-09T10:12:16Z</time>
      </trkpt>
      <trkpt lat="45.26116" lon="6.36903">
        <ele>755.63</ele>
        <time>2018-09-09T10:12:18Z</time>
      </trkpt>
      <trkpt lat="45.26096" lon="6.36906">
        <ele>753.72</ele>
        <time>2018-09-09T10:12:20Z</time>
      </trkpt>
      <trkpt lat="45.26076" lon="6.36894">
        <ele>752.64</ele>
        <time>2018-09-09T10:12:22Z</time>
      </trkpt>
      <trkpt lat="45.26056" lon="6.36877">
        <ele>752.54</ele>
        <time>2018-09-09T10:12:24Z</time>
      </trkpt>
      <trkpt lat="45.26038" lon="6.3686">
        <ele>751.83</ele>
        <time>2018-09-09T10:12:26Z</time>
      </trkpt>
      <trkpt lat="45.26017" lon="6.36846">
        <ele>750.57</ele>
        <time>2018-09-09T10:12:29Z</time>
      </trkpt>
      <trkpt lat="45.26004" lon="6.3687">
        <ele>751.44</ele>
        <time>2018-09-09T10:12:31Z</time>
      </trkpt>
      <trkpt lat="45.26005" lon="6.36904">
        <ele>752.43</ele>
        <time>2018-09-09T10:12:33Z</time>
      </trkpt>
      <trkpt lat="45.25983" lon="6.36924">
        <ele>749.39</ele>
        <time>2018-09-09T10:12:36Z</time>
      </trkpt>
      <trkpt lat="45.25957" lon="6.36934">
        <ele>748.61</ele>
        <time>2018-09-09T10:12:38Z</time>
      </trkpt>
      <trkpt lat="45.25932" lon="6.36956">
        <ele>746.02</ele>
        <time>2018-09-09T10:12:40Z</time>
      </trkpt>
      <trkpt lat="45.25909" lon="6.36978">
        <ele>742.35</ele>
        <time>2018-09-09T10:12:42Z</time>
      </trkpt>
      <trkpt lat="45.25884" lon="6.36993">
        <ele>738.39</ele>
        <time>2018-09-09T10:12:44Z</time>
      </trkpt>
      <trkpt lat="45.25864" lon="6.37016">
        <ele>736.7</ele>
        <time>2018-09-09T10:12:46Z</time>
      </trkpt>
      <trkpt lat="45.2585" lon="6.37045">
        <ele>734.94</ele>
        <time>2018-09-09T10:12:48Z</time>
      </trkpt>
      <trkpt lat="45.25858" lon="6.37085">
        <ele>733.66</ele>
        <time>2018-09-09T10:12:50Z</time>
      </trkpt>
      <trkpt lat="45.25857" lon="6.3712">
        <ele>733.54</ele>
        <time>2018-09-09T10:12:52Z</time>
      </trkpt>
      <trkpt lat="45.25839" lon="6.3714">
        <ele>734.23</ele>
        <time>2018-09-09T10:12:54Z</time>
      </trkpt>
      <trkpt lat="45.25816" lon="6.3716">
        <ele>731.98</ele>
        <time>2018-09-09T10:12:56Z</time>
      </trkpt>
      <trkpt lat="45.25803" lon="6.37181">
        <ele>730.87</ele>
        <time>2018-09-09T10:12:58Z</time>
      </trkpt>
      <trkpt lat="45.25797" lon="6.37217">
        <ele>727.62</ele>
        <time>2018-09-09T10:13:01Z</time>
      </trkpt>
      <trkpt lat="45.25819" lon="6.37249">
        <ele>727.54</ele>
        <time>2018-09-09T10:13:03Z</time>
      </trkpt>
      <trkpt lat="45.25818" lon="6.37278">
        <ele>723.4</ele>
        <time>2018-09-09T10:13:05Z</time>
      </trkpt>
      <trkpt lat="45.2581" lon="6.37309">
        <ele>720.09</ele>
        <time>2018-09-09T10:13:07Z</time>
      </trkpt>
      <trkpt lat="45.2581" lon="6.37342">
        <ele>717.66</ele>
        <time>2018-09-09T10:13:10Z</time>
      </trkpt>
      <trkpt lat="45.2583" lon="6.37336">
        <ele>715.92</ele>
        <time>2018-09-09T10:13:13Z</time>
      </trkpt>
      <trkpt lat="45.25839" lon="6.3731">
        <ele>717.05</ele>
        <time>2018-09-09T10:13:14Z</time>
      </trkpt>
      <trkpt lat="45.25858" lon="6.37282">
        <ele>715.67</ele>
        <time>2018-09-09T10:13:16Z</time>
      </trkpt>
      <trkpt lat="45.25877" lon="6.37253">
        <ele>714.63</ele>
        <time>2018-09-09T10:13:18Z</time>
      </trkpt>
      <trkpt lat="45.25896" lon="6.37227">
        <ele>710.83</ele>
        <time>2018-09-09T10:13:20Z</time>
      </trkpt>
      <trkpt lat="45.25919" lon="6.37207">
        <ele>707.13</ele>
        <time>2018-09-09T10:13:22Z</time>
      </trkpt>
      <trkpt lat="45.25937" lon="6.37188">
        <ele>705.67</ele>
        <time>2018-09-09T10:13:24Z</time>
      </trkpt>
      <trkpt lat="45.25941" lon="6.37158">
        <ele>703.02</ele>
        <time>2018-09-09T10:13:26Z</time>
      </trkpt>
      <trkpt lat="45.25956" lon="6.3714">
        <ele>700.97</ele>
        <time>2018-09-09T10:13:28Z</time>
      </trkpt>
      <trkpt lat="45.25976" lon="6.37128">
        <ele>698.96</ele>
        <time>2018-09-09T10:13:30Z</time>
      </trkpt>
      <trkpt lat="45.25993" lon="6.37099">
        <ele>696.75</ele>
        <time>2018-09-09T10:13:32Z</time>
      </trkpt>
      <trkpt lat="45.26008" lon="6.37074">
        <ele>695.64</ele>
        <time>2018-09-09T10:13:34Z</time>
      </trkpt>
      <trkpt lat="45.26015" lon="6.37097">
        <ele>693.71</ele>
        <time>2018-09-09T10:13:38Z</time>
      </trkpt>
      <trkpt lat="45.26015" lon="6.37124">
        <ele>691.94</ele>
        <time>2018-09-09T10:13:40Z</time>
      </trkpt>
      <trkpt lat="45.26019" lon="6.37158">
        <ele>690.17</ele>
        <time>2018-09-09T10:13:42Z</time>
      </trkpt>
      <trkpt lat="45.26017" lon="6.37189">
        <ele>687.98</ele>
        <time>2018-09-09T10:13:44Z</time>
      </trkpt>
      <trkpt lat="45.2601" lon="6.37216">
        <ele>685.96</ele>
        <time>2018-09-09T10:13:46Z</time>
      </trkpt>
      <trkpt lat="45.26029" lon="6.37215">
        <ele>680.87</ele>
        <time>2018-09-09T10:13:52Z</time>
      </trkpt>
      <trkpt lat="45.26039" lon="6.37193">
        <ele>679.65</ele>
        <time>2018-09-09T10:13:54Z</time>
      </trkpt>
      <trkpt lat="45.26055" lon="6.37181">
        <ele>678.62</ele>
        <time>2018-09-09T10:13:57Z</time>
      </trkpt>
      <trkpt lat="45.26057" lon="6.3721">
        <ele>675.95</ele>
        <time>2018-09-09T10:14:00Z</time>
      </trkpt>
      <trkpt lat="45.26063" lon="6.37245">
        <ele>674.84</ele>
        <time>2018-09-09T10:14:03Z</time>
      </trkpt>
      <trkpt lat="45.26079" lon="6.37275">
        <ele>672.93</ele>
        <time>2018-09-09T10:14:06Z</time>
      </trkpt>
      <trkpt lat="45.26078" lon="6.37303">
        <ele>672.57</ele>
        <time>2018-09-09T10:14:08Z</time>
      </trkpt>
      <trkpt lat="45.26075" lon="6.37332">
        <ele>672.53</ele>
        <time>2018-09-09T10:14:10Z</time>
      </trkpt>
      <trkpt lat="45.26067" lon="6.37358">
        <ele>671.83</ele>
        <time>2018-09-09T10:14:12Z</time>
      </trkpt>
      <trkpt lat="45.26056" lon="6.37383">
        <ele>671.56</ele>
        <time>2018-09-09T10:14:14Z</time>
      </trkpt>
      <trkpt lat="45.26044" lon="6.37407">
        <ele>671.53</ele>
        <time>2018-09-09T10:14:16Z</time>
      </trkpt>
      <trkpt lat="45.2603" lon="6.37425">
        <ele>670.83</ele>
        <time>2018-09-09T10:14:18Z</time>
      </trkpt>
      <trkpt lat="45.26009" lon="6.37431">
        <ele>669.86</ele>
        <time>2018-09-09T10:14:20Z</time>
      </trkpt>
      <trkpt lat="45.25987" lon="6.37434">
        <ele>667.95</ele>
        <time>2018-09-09T10:14:22Z</time>
      </trkpt>
      <trkpt lat="45.25964" lon="6.37442">
        <ele>666.87</ele>
        <time>2018-09-09T10:14:24Z</time>
      </trkpt>
      <trkpt lat="45.25947" lon="6.37463">
        <ele>664.95</ele>
        <time>2018-09-09T10:14:26Z</time>
      </trkpt>
      <trkpt lat="45.25938" lon="6.37495">
        <ele>662.96</ele>
        <time>2018-09-09T10:14:28Z</time>
      </trkpt>
      <trkpt lat="45.25929" lon="6.37526">
        <ele>660.96</ele>
        <time>2018-09-09T10:14:30Z</time>
      </trkpt>
      <trkpt lat="45.25919" lon="6.37552">
        <ele>659.66</ele>
        <time>2018-09-09T10:14:32Z</time>
      </trkpt>
      <trkpt lat="45.25918" lon="6.37581">
        <ele>657.86</ele>
        <time>2018-09-09T10:14:35Z</time>
      </trkpt>
      <trkpt lat="45.25939" lon="6.37578">
        <ele>655.92</ele>
        <time>2018-09-09T10:14:39Z</time>
      </trkpt>
      <trkpt lat="45.25954" lon="6.37564">
        <ele>654.66</ele>
        <time>2018-09-09T10:14:41Z</time>
      </trkpt>
      <trkpt lat="45.25973" lon="6.37548">
        <ele>652.93</ele>
        <time>2018-09-09T10:14:43Z</time>
      </trkpt>
      <trkpt lat="45.25997" lon="6.37543">
        <ele>651.87</ele>
        <time>2018-09-09T10:14:45Z</time>
      </trkpt>
      <trkpt lat="45.26022" lon="6.3755">
        <ele>649.04</ele>
        <time>2018-09-09T10:14:47Z</time>
      </trkpt>
      <trkpt lat="45.26052" lon="6.37558">
        <ele>646.27</ele>
        <time>2018-09-09T10:14:49Z</time>
      </trkpt>
      <trkpt lat="45.26082" lon="6.37554">
        <ele>643.99</ele>
        <time>2018-09-09T10:14:51Z</time>
      </trkpt>
      <trkpt lat="45.26111" lon="6.37537">
        <ele>641.96</ele>
        <time>2018-09-09T10:14:53Z</time>
      </trkpt>
      <trkpt lat="45.26138" lon="6.37519">
        <ele>639.05</ele>
        <time>2018-09-09T10:14:55Z</time>
      </trkpt>
      <trkpt lat="45.26161" lon="6.37499">
        <ele>636.97</ele>
        <time>2018-09-09T10:14:57Z</time>
      </trkpt>
      <trkpt lat="45.2618" lon="6.37492">
        <ele>634.87</ele>
        <time>2018-09-09T10:15:00Z</time>
      </trkpt>
      <trkpt lat="45.26165" lon="6.37523">
        <ele>631.87</ele>
        <time>2018-09-09T10:15:04Z</time>
      </trkpt>
      <trkpt lat="45.26146" lon="6.37547">
        <ele>630.16</ele>
        <time>2018-09-09T10:15:06Z</time>
      </trkpt>
      <trkpt lat="45.26129" lon="6.3758">
        <ele>628.19</ele>
        <time>2018-09-09T10:15:08Z</time>
      </trkpt>
      <trkpt lat="45.26113" lon="6.3762">
        <ele>626.68</ele>
        <time>2018-09-09T10:15:10Z</time>
      </trkpt>
      <trkpt lat="45.26099" lon="6.37659">
        <ele>624.93</ele>
        <time>2018-09-09T10:15:12Z</time>
      </trkpt>
      <trkpt lat="45.26092" lon="6.377">
        <ele>623.87</ele>
        <time>2018-09-09T10:15:14Z</time>
      </trkpt>
      <trkpt lat="45.26092" lon="6.37741">
        <ele>621.95</ele>
        <time>2018-09-09T10:15:16Z</time>
      </trkpt>
      <trkpt lat="45.26093" lon="6.37783">
        <ele>620.87</ele>
        <time>2018-09-09T10:15:18Z</time>
      </trkpt>
      <trkpt lat="45.26091" lon="6.37821">
        <ele>618.74</ele>
        <time>2018-09-09T10:15:20Z</time>
      </trkpt>
      <trkpt lat="45.26079" lon="6.3785">
        <ele>616.86</ele>
        <time>2018-09-09T10:15:23Z</time>
      </trkpt>
      <trkpt lat="45.26077" lon="6.37885">
        <ele>615.83</ele>
        <time>2018-09-09T10:15:27Z</time>
      </trkpt>
      <trkpt lat="45.26072" lon="6.37922">
        <ele>614.57</ele>
        <time>2018-09-09T10:15:30Z</time>
      </trkpt>
      <trkpt lat="45.26066" lon="6.3795">
        <ele>613.83</ele>
        <time>2018-09-09T10:15:32Z</time>
      </trkpt>
      <trkpt lat="45.26059" lon="6.37978">
        <ele>611.04</ele>
        <time>2018-09-09T10:15:34Z</time>
      </trkpt>
      <trkpt lat="45.26053" lon="6.38012">
        <ele>608.97</ele>
        <time>2018-09-09T10:15:36Z</time>
      </trkpt>
      <trkpt lat="45.2605" lon="6.38048">
        <ele>606.26</ele>
        <time>2018-09-09T10:15:38Z</time>
      </trkpt>
      <trkpt lat="45.26047" lon="6.38083">
        <ele>604.9</ele>
        <time>2018-09-09T10:15:40Z</time>
      </trkpt>
      <trkpt lat="45.26046" lon="6.38116">
        <ele>603.86</ele>
        <time>2018-09-09T10:15:42Z</time>
      </trkpt>
      <trkpt lat="45.26048" lon="6.38144">
        <ele>602.86</ele>
        <time>2018-09-09T10:15:44Z</time>
      </trkpt>
      <trkpt lat="45.26064" lon="6.38163">
        <ele>601.63</ele>
        <time>2018-09-09T10:15:47Z</time>
      </trkpt>
      <trkpt lat="45.26086" lon="6.38161">
        <ele>599.86</ele>
        <time>2018-09-09T10:15:50Z</time>
      </trkpt>
      <trkpt lat="45.26105" lon="6.38155">
        <ele>597.25</ele>
        <time>2018-09-09T10:15:52Z</time>
      </trkpt>
      <trkpt lat="45.26124" lon="6.3816">
        <ele>594.99</ele>
        <time>2018-09-09T10:15:54Z</time>
      </trkpt>
      <trkpt lat="45.26138" lon="6.38185">
        <ele>592.72</ele>
        <time>2018-09-09T10:15:57Z</time>
      </trkpt>
      <trkpt lat="45.26125" lon="6.3822">
        <ele>591.56</ele>
        <time>2018-09-09T10:16:00Z</time>
      </trkpt>
      <trkpt lat="45.2611" lon="6.38247">
        <ele>590.83</ele>
        <time>2018-09-09T10:16:02Z</time>
      </trkpt>
      <trkpt lat="45.26096" lon="6.38278">
        <ele>589.65</ele>
        <time>2018-09-09T10:16:04Z</time>
      </trkpt>
      <trkpt lat="45.26086" lon="6.38307">
        <ele>588.84</ele>
        <time>2018-09-09T10:16:06Z</time>
      </trkpt>
      <trkpt lat="45.26069" lon="6.38335">
        <ele>589.51</ele>
        <time>2018-09-09T10:16:09Z</time>
      </trkpt>
      <trkpt lat="45.2604" lon="6.38341">
        <ele>589.53</ele>
        <time>2018-09-09T10:16:12Z</time>
      </trkpt>
      <trkpt lat="45.26014" lon="6.38343">
        <ele>588.62</ele>
        <time>2018-09-09T10:16:14Z</time>
      </trkpt>
      <trkpt lat="45.25986" lon="6.38345">
        <ele>586.93</ele>
        <time>2018-09-09T10:16:16Z</time>
      </trkpt>
      <trkpt lat="45.25955" lon="6.38349">
        <ele>584.05</ele>
        <time>2018-09-09T10:16:18Z</time>
      </trkpt>
      <trkpt lat="45.25926" lon="6.38356">
        <ele>581.27</ele>
        <time>2018-09-09T10:16:20Z</time>
      </trkpt>
      <trkpt lat="45.25896" lon="6.38363">
        <ele>578.99</ele>
        <time>2018-09-09T10:16:22Z</time>
      </trkpt>
      <trkpt lat="45.25864" lon="6.38371">
        <ele>576.96</ele>
        <time>2018-09-09T10:16:24Z</time>
      </trkpt>
      <trkpt lat="45.25832" lon="6.38379">
        <ele>575.87</ele>
        <time>2018-09-09T10:16:26Z</time>
      </trkpt>
      <trkpt lat="45.25801" lon="6.38386">
        <ele>573.95</ele>
        <time>2018-09-09T10:16:28Z</time>
      </trkpt>
      <trkpt lat="45.2577" lon="6.38391">
        <ele>572.87</ele>
        <time>2018-09-09T10:16:30Z</time>
      </trkpt>
      <trkpt lat="45.2574" lon="6.38399">
        <ele>571.86</ele>
        <time>2018-09-09T10:16:32Z</time>
      </trkpt>
      <trkpt lat="45.25712" lon="6.38406">
        <ele>571.56</ele>
        <time>2018-09-09T10:16:34Z</time>
      </trkpt>
      <trkpt lat="45.25688" lon="6.38407">
        <ele>572.23</ele>
        <time>2018-09-09T10:16:36Z</time>
      </trkpt>
      <trkpt lat="45.25665" lon="6.38403">
        <ele>572.73</ele>
        <time>2018-09-09T10:16:39Z</time>
      </trkpt>
      <trkpt lat="45.25641" lon="6.38417">
        <ele>573.45</ele>
        <time>2018-09-09T10:16:42Z</time>
      </trkpt>
      <trkpt lat="45.2562" lon="6.38426">
        <ele>573.52</ele>
        <time>2018-09-09T10:16:44Z</time>
      </trkpt>
      <trkpt lat="45.25595" lon="6.38431">
        <ele>575.14</ele>
        <time>2018-09-09T10:16:46Z</time>
      </trkpt>
      <trkpt lat="45.25567" lon="6.38438">
        <ele>575.5</ele>
        <time>2018-09-09T10:16:48Z</time>
      </trkpt>
      <trkpt lat="45.25537" lon="6.38442">
        <ele>575.53</ele>
        <time>2018-09-09T10:16:50Z</time>
      </trkpt>
      <trkpt lat="45.25508" lon="6.38452">
        <ele>576.44</ele>
        <time>2018-09-09T10:16:52Z</time>
      </trkpt>
      <trkpt lat="45.25479" lon="6.38467">
        <ele>576.73</ele>
        <time>2018-09-09T10:16:54Z</time>
      </trkpt>
      <trkpt lat="45.25451" lon="6.38491">
        <ele>576.55</ele>
        <time>2018-09-09T10:16:56Z</time>
      </trkpt>
      <trkpt lat="45.25427" lon="6.38521">
        <ele>577.44</ele>
        <time>2018-09-09T10:16:58Z</time>
      </trkpt>
      <trkpt lat="45.25405" lon="6.38556">
        <ele>579.13</ele>
        <time>2018-09-09T10:17:00Z</time>
      </trkpt>
      <trkpt lat="45.25384" lon="6.38591">
        <ele>580.2</ele>
        <time>2018-09-09T10:17:02Z</time>
      </trkpt>
      <trkpt lat="45.25363" lon="6.38627">
        <ele>581.2</ele>
        <time>2018-09-09T10:17:04Z</time>
      </trkpt>
      <trkpt lat="45.25342" lon="6.38661">
        <ele>582.2</ele>
        <time>2018-09-09T10:17:06Z</time>
      </trkpt>
      <trkpt lat="45.25321" lon="6.38696">
        <ele>582.5</ele>
        <time>2018-09-09T10:17:08Z</time>
      </trkpt>
      <trkpt lat="45.253" lon="6.38731">
        <ele>583.44</ele>
        <time>2018-09-09T10:17:10Z</time>
      </trkpt>
      <trkpt lat="45.2528" lon="6.38766">
        <ele>583.52</ele>
        <time>2018-09-09T10:17:12Z</time>
      </trkpt>
      <trkpt lat="45.25258" lon="6.38801">
        <ele>585.14</ele>
        <time>2018-09-09T10:17:14Z</time>
      </trkpt>
      <trkpt lat="45.25237" lon="6.38838">
        <ele>586.2</ele>
        <time>2018-09-09T10:17:16Z</time>
      </trkpt>
      <trkpt lat="45.25216" lon="6.38872">
        <ele>588.11</ele>
        <time>2018-09-09T10:17:18Z</time>
      </trkpt>
      <trkpt lat="45.25196" lon="6.38901">
        <ele>588.28</ele>
        <time>2018-09-09T10:17:20Z</time>
      </trkpt>
      <trkpt lat="45.25177" lon="6.38919">
        <ele>587.6</ele>
        <time>2018-09-09T10:17:22Z</time>
      </trkpt>
      <trkpt lat="45.2515" lon="6.3892">
        <ele>588.24</ele>
        <time>2018-09-09T10:17:24Z</time>
      </trkpt>
      <trkpt lat="45.25124" lon="6.38933">
        <ele>590.11</ele>
        <time>2018-09-09T10:17:26Z</time>
      </trkpt>
      <trkpt lat="45.25099" lon="6.38954">
        <ele>592.8</ele>
        <time>2018-09-09T10:17:28Z</time>
      </trkpt>
      <trkpt lat="45.25077" lon="6.38979">
        <ele>595.99</ele>
        <time>2018-09-09T10:17:30Z</time>
      </trkpt>
      <trkpt lat="45.25059" lon="6.39009">
        <ele>599.7</ele>
        <time>2018-09-09T10:17:32Z</time>
      </trkpt>
      <trkpt lat="45.25045" lon="6.3904">
        <ele>602.07</ele>
        <time>2018-09-09T10:17:34Z</time>
      </trkpt>
      <trkpt lat="45.25039" lon="6.39071">
        <ele>605.01</ele>
        <time>2018-09-09T10:17:36Z</time>
      </trkpt>
      <trkpt lat="45.25026" lon="6.39097">
        <ele>607.09</ele>
        <time>2018-09-09T10:17:38Z</time>
      </trkpt>
      <trkpt lat="45.25015" lon="6.3913">
        <ele>609.1</ele>
        <time>2018-09-09T10:17:40Z</time>
      </trkpt>
      <trkpt lat="45.24999" lon="6.39163">
        <ele>612.65</ele>
        <time>2018-09-09T10:17:42Z</time>
      </trkpt>
      <trkpt lat="45.24983" lon="6.39195">
        <ele>614.98</ele>
        <time>2018-09-09T10:17:44Z</time>
      </trkpt>
      <trkpt lat="45.2497" lon="6.39218">
        <ele>618.62</ele>
        <time>2018-09-09T10:17:46Z</time>
      </trkpt>
      <trkpt lat="45.24953" lon="6.39237">
        <ele>619.42</ele>
        <time>2018-09-09T10:17:49Z</time>
      </trkpt>
      <trkpt lat="45.24953" lon="6.39211">
        <ele>620.84</ele>
        <time>2018-09-09T10:17:50Z</time>
      </trkpt>
      <trkpt lat="45.24948" lon="6.39184">
        <ele>624.82</ele>
        <time>2018-09-09T10:17:52Z</time>
      </trkpt>
      <trkpt lat="45.24934" lon="6.39153">
        <ele>627.7</ele>
        <time>2018-09-09T10:17:54Z</time>
      </trkpt>
      <trkpt lat="45.24913" lon="6.39122">
        <ele>630.69</ele>
        <time>2018-09-09T10:17:56Z</time>
      </trkpt>
      <trkpt lat="45.24893" lon="6.39092">
        <ele>632.78</ele>
        <time>2018-09-09T10:17:58Z</time>
      </trkpt>
      <trkpt lat="45.24878" lon="6.39071">
        <ele>634.99</ele>
        <time>2018-09-09T10:18:00Z</time>
      </trkpt>
      <trkpt lat="45.24859" lon="6.39064">
        <ele>635.19</ele>
        <time>2018-09-09T10:18:02Z</time>
      </trkpt>
      <trkpt lat="45.24859" lon="6.39102">
        <ele>635.42</ele>
        <time>2018-09-09T10:18:04Z</time>
      </trkpt>
      <trkpt lat="45.24863" lon="6.39142">
        <ele>638.87</ele>
        <time>2018-09-09T10:18:06Z</time>
      </trkpt>
      <trkpt lat="45.24857" lon="6.39184">
        <ele>641</ele>
        <time>2018-09-09T10:18:08Z</time>
      </trkpt>
      <trkpt lat="45.24847" lon="6.39221">
        <ele>644.84</ele>
        <time>2018-09-09T10:18:10Z</time>
      </trkpt>
      <trkpt lat="45.24825" lon="6.39254">
        <ele>647.7</ele>
        <time>2018-09-09T10:18:12Z</time>
      </trkpt>
      <trkpt lat="45.24807" lon="6.39296">
        <ele>653.21</ele>
        <time>2018-09-09T10:18:14Z</time>
      </trkpt>
      <trkpt lat="45.24788" lon="6.39335">
        <ele>656.15</ele>
        <time>2018-09-09T10:18:16Z</time>
      </trkpt>
      <trkpt lat="45.24768" lon="6.39374">
        <ele>657.82</ele>
        <time>2018-09-09T10:18:18Z</time>
      </trkpt>
      <trkpt lat="45.24754" lon="6.39419">
        <ele>659.3</ele>
        <time>2018-09-09T10:18:20Z</time>
      </trkpt>
      <trkpt lat="45.24744" lon="6.39458">
        <ele>659.22</ele>
        <time>2018-09-09T10:18:22Z</time>
      </trkpt>
      <trkpt lat="45.24748" lon="6.39499">
        <ele>660.12</ele>
        <time>2018-09-09T10:18:24Z</time>
      </trkpt>
      <trkpt lat="45.24756" lon="6.39543">
        <ele>660.42</ele>
        <time>2018-09-09T10:18:26Z</time>
      </trkpt>
      <trkpt lat="45.24755" lon="6.3959">
        <ele>661.14</ele>
        <time>2018-09-09T10:18:28Z</time>
      </trkpt>
      <trkpt lat="45.24749" lon="6.39634">
        <ele>663.73</ele>
        <time>2018-09-09T10:18:30Z</time>
      </trkpt>
      <trkpt lat="45.24745" lon="6.39671">
        <ele>664.38</ele>
        <time>2018-09-09T10:18:32Z</time>
      </trkpt>
      <trkpt lat="45.24738" lon="6.39706">
        <ele>663.74</ele>
        <time>2018-09-09T10:18:34Z</time>
      </trkpt>
      <trkpt lat="45.2472" lon="6.3973">
        <ele>663.47</ele>
        <time>2018-09-09T10:18:36Z</time>
      </trkpt>
      <trkpt lat="45.24701" lon="6.39751">
        <ele>663.45</ele>
        <time>2018-09-09T10:18:38Z</time>
      </trkpt>
      <trkpt lat="45.24691" lon="6.39775">
        <ele>662.54</ele>
        <time>2018-09-09T10:18:40Z</time>
      </trkpt>
      <trkpt lat="45.24699" lon="6.39807">
        <ele>663.36</ele>
        <time>2018-09-09T10:18:42Z</time>
      </trkpt>
      <trkpt lat="45.24709" lon="6.39828">
        <ele>665.05</ele>
        <time>2018-09-09T10:18:44Z</time>
      </trkpt>
      <trkpt lat="45.24741" lon="6.39842">
        <ele>666.77</ele>
        <time>2018-09-09T10:18:47Z</time>
      </trkpt>
      <trkpt lat="45.24753" lon="6.39863">
        <ele>670.39</ele>
        <time>2018-09-09T10:18:49Z</time>
      </trkpt>
      <trkpt lat="45.24757" lon="6.39893">
        <ele>672.96</ele>
        <time>2018-09-09T10:18:51Z</time>
      </trkpt>
      <trkpt lat="45.2476" lon="6.39927">
        <ele>675.71</ele>
        <time>2018-09-09T10:18:53Z</time>
      </trkpt>
      <trkpt lat="45.24762" lon="6.39961">
        <ele>678.2</ele>
        <time>2018-09-09T10:18:55Z</time>
      </trkpt>
      <trkpt lat="45.24757" lon="6.39993">
        <ele>680.73</ele>
        <time>2018-09-09T10:18:57Z</time>
      </trkpt>
      <trkpt lat="45.24749" lon="6.40027">
        <ele>684.98</ele>
        <time>2018-09-09T10:19:00Z</time>
      </trkpt>
      <trkpt lat="45.24746" lon="6.40058">
        <ele>686.41</ele>
        <time>2018-09-09T10:19:03Z</time>
      </trkpt>
      <trkpt lat="45.24739" lon="6.40085">
        <ele>685.74</ele>
        <time>2018-09-09T10:19:06Z</time>
      </trkpt>
      <trkpt lat="45.24734" lon="6.40117">
        <ele>685.45</ele>
        <time>2018-09-09T10:19:09Z</time>
      </trkpt>
      <trkpt lat="45.2473" lon="6.40147">
        <ele>685.45</ele>
        <time>2018-09-09T10:19:11Z</time>
      </trkpt>
      <trkpt lat="45.24726" lon="6.40177">
        <ele>683.84</ele>
        <time>2018-09-09T10:19:13Z</time>
      </trkpt>
      <trkpt lat="45.24724" lon="6.40206">
        <ele>683.48</ele>
        <time>2018-09-09T10:19:15Z</time>
      </trkpt>
      <trkpt lat="45.24714" lon="6.40237">
        <ele>682.52</ele>
        <time>2018-09-09T10:19:19Z</time>
      </trkpt>
      <trkpt lat="45.24702" lon="6.4027">
        <ele>681.54</ele>
        <time>2018-09-09T10:19:22Z</time>
      </trkpt>
      <trkpt lat="45.2469" lon="6.40298">
        <ele>681.45</ele>
        <time>2018-09-09T10:19:25Z</time>
      </trkpt>
      <trkpt lat="45.24676" lon="6.40325">
        <ele>681.45</ele>
        <time>2018-09-09T10:19:28Z</time>
      </trkpt>
      <trkpt lat="45.2466" lon="6.40353">
        <ele>680.47</ele>
        <time>2018-09-09T10:19:31Z</time>
      </trkpt>
      <trkpt lat="45.24646" lon="6.4038">
        <ele>678.84</ele>
        <time>2018-09-09T10:19:34Z</time>
      </trkpt>
      <trkpt lat="45.24631" lon="6.4041">
        <ele>677.76</ele>
        <time>2018-09-09T10:19:37Z</time>
      </trkpt>
      <trkpt lat="45.24619" lon="6.4043">
        <ele>677.47</ele>
        <time>2018-09-09T10:19:39Z</time>
      </trkpt>
      <trkpt lat="45.24604" lon="6.40456">
        <ele>677.45</ele>
        <time>2018-09-09T10:19:42Z</time>
      </trkpt>
      <trkpt lat="45.24589" lon="6.40488">
        <ele>676.47</ele>
        <time>2018-09-09T10:19:45Z</time>
      </trkpt>
      <trkpt lat="45.24579" lon="6.40511">
        <ele>677.15</ele>
        <time>2018-09-09T10:19:47Z</time>
      </trkpt>
      <trkpt lat="45.24571" lon="6.40534">
        <ele>678.12</ele>
        <time>2018-09-09T10:19:49Z</time>
      </trkpt>
      <trkpt lat="45.24563" lon="6.40558">
        <ele>679.33</ele>
        <time>2018-09-09T10:19:51Z</time>
      </trkpt>
      <trkpt lat="45.24551" lon="6.40591">
        <ele>680.41</ele>
        <time>2018-09-09T10:19:54Z</time>
      </trkpt>
      <trkpt lat="45.24542" lon="6.40615">
        <ele>680.74</ele>
        <time>2018-09-09T10:19:58Z</time>
      </trkpt>
      <trkpt lat="45.24545" lon="6.40656">
        <ele>679.69</ele>
        <time>2018-09-09T10:20:01Z</time>
      </trkpt>
      <trkpt lat="45.24541" lon="6.407">
        <ele>677.86</ele>
        <time>2018-09-09T10:20:03Z</time>
      </trkpt>
      <trkpt lat="45.24536" lon="6.40726">
        <ele>677.57</ele>
        <time>2018-09-09T10:20:04Z</time>
      </trkpt>
      <trkpt lat="45.24528" lon="6.40752">
        <ele>677.48</ele>
        <time>2018-09-09T10:20:05Z</time>
      </trkpt>
      <trkpt lat="45.24519" lon="6.40778">
        <ele>676.76</ele>
        <time>2018-09-09T10:20:06Z</time>
      </trkpt>
      <trkpt lat="45.24507" lon="6.40803">
        <ele>675.14</ele>
        <time>2018-09-09T10:20:07Z</time>
      </trkpt>
      <trkpt lat="45.24494" lon="6.40824">
        <ele>673.25</ele>
        <time>2018-09-09T10:20:08Z</time>
      </trkpt>
      <trkpt lat="45.24475" lon="6.40867">
        <ele>671.82</ele>
        <time>2018-09-09T10:20:10Z</time>
      </trkpt>
      <trkpt lat="45.2447" lon="6.40893">
        <ele>671.56</ele>
        <time>2018-09-09T10:20:11Z</time>
      </trkpt>
      <trkpt lat="45.24464" lon="6.40921">
        <ele>670.78</ele>
        <time>2018-09-09T10:20:12Z</time>
      </trkpt>
      <trkpt lat="45.2446" lon="6.4095">
        <ele>668.45</ele>
        <time>2018-09-09T10:20:13Z</time>
      </trkpt>
      <trkpt lat="45.24455" lon="6.4098">
        <ele>667.74</ele>
        <time>2018-09-09T10:20:14Z</time>
      </trkpt>
      <trkpt lat="45.2445" lon="6.4101">
        <ele>666.84</ele>
        <time>2018-09-09T10:20:15Z</time>
      </trkpt>
      <trkpt lat="45.24446" lon="6.41039">
        <ele>665.86</ele>
        <time>2018-09-09T10:20:16Z</time>
      </trkpt>
      <trkpt lat="45.24442" lon="6.41068">
        <ele>663.47</ele>
        <time>2018-09-09T10:20:17Z</time>
      </trkpt>
      <trkpt lat="45.24439" lon="6.41098">
        <ele>662.05</ele>
        <time>2018-09-09T10:20:18Z</time>
      </trkpt>
      <trkpt lat="45.24436" lon="6.41127">
        <ele>660.93</ele>
        <time>2018-09-09T10:20:19Z</time>
      </trkpt>
      <trkpt lat="45.24434" lon="6.41154">
        <ele>659.89</ele>
        <time>2018-09-09T10:20:20Z</time>
      </trkpt>
      <trkpt lat="45.24435" lon="6.41181">
        <ele>658.88</ele>
        <time>2018-09-09T10:20:21Z</time>
      </trkpt>
      <trkpt lat="45.24439" lon="6.41207">
        <ele>658.58</ele>
        <time>2018-09-09T10:20:22Z</time>
      </trkpt>
      <trkpt lat="45.24446" lon="6.41231">
        <ele>657.78</ele>
        <time>2018-09-09T10:20:23Z</time>
      </trkpt>
      <trkpt lat="45.24458" lon="6.41268">
        <ele>654.26</ele>
        <time>2018-09-09T10:20:25Z</time>
      </trkpt>
      <trkpt lat="45.24461" lon="6.41309">
        <ele>653.31</ele>
        <time>2018-09-09T10:20:27Z</time>
      </trkpt>
      <trkpt lat="45.24467" lon="6.41346">
        <ele>652.52</ele>
        <time>2018-09-09T10:20:29Z</time>
      </trkpt>
      <trkpt lat="45.24486" lon="6.41377">
        <ele>650.84</ele>
        <time>2018-09-09T10:20:31Z</time>
      </trkpt>
      <trkpt lat="45.24508" lon="6.41404">
        <ele>650.48</ele>
        <time>2018-09-09T10:20:33Z</time>
      </trkpt>
      <trkpt lat="45.24529" lon="6.41414">
        <ele>650.46</ele>
        <time>2018-09-09T10:20:34Z</time>
      </trkpt>
      <trkpt lat="45.2456" lon="6.41433">
        <ele>649.75</ele>
        <time>2018-09-09T10:20:36Z</time>
      </trkpt>
      <trkpt lat="45.24588" lon="6.41448">
        <ele>647.65</ele>
        <time>2018-09-09T10:20:38Z</time>
      </trkpt>
      <trkpt lat="45.24609" lon="6.41457">
        <ele>646.55</ele>
        <time>2018-09-09T10:20:40Z</time>
      </trkpt>
      <trkpt lat="45.24627" lon="6.41441">
        <ele>644.77</ele>
        <time>2018-09-09T10:20:43Z</time>
      </trkpt>
      <trkpt lat="45.24637" lon="6.41415">
        <ele>643.77</ele>
        <time>2018-09-09T10:20:45Z</time>
      </trkpt>
      <trkpt lat="45.24647" lon="6.41384">
        <ele>642.56</ele>
        <time>2018-09-09T10:20:47Z</time>
      </trkpt>
      <trkpt lat="45.24659" lon="6.41349">
        <ele>641.55</ele>
        <time>2018-09-09T10:20:49Z</time>
      </trkpt>
      <trkpt lat="45.24666" lon="6.41312">
        <ele>639.84</ele>
        <time>2018-09-09T10:20:51Z</time>
      </trkpt>
      <trkpt lat="45.24677" lon="6.41273">
        <ele>638.78</ele>
        <time>2018-09-09T10:20:53Z</time>
      </trkpt>
      <trkpt lat="45.2469" lon="6.41236">
        <ele>636.87</ele>
        <time>2018-09-09T10:20:55Z</time>
      </trkpt>
      <trkpt lat="45.24702" lon="6.41201">
        <ele>635.78</ele>
        <time>2018-09-09T10:20:57Z</time>
      </trkpt>
      <trkpt lat="45.24713" lon="6.41171">
        <ele>635.48</ele>
        <time>2018-09-09T10:20:59Z</time>
      </trkpt>
      <trkpt lat="45.24731" lon="6.41151">
        <ele>632.86</ele>
        <time>2018-09-09T10:21:02Z</time>
      </trkpt>
      <trkpt lat="45.24753" lon="6.41166">
        <ele>633.37</ele>
        <time>2018-09-09T10:21:05Z</time>
      </trkpt>
      <trkpt lat="45.2476" lon="6.41196">
        <ele>633.44</ele>
        <time>2018-09-09T10:21:08Z</time>
      </trkpt>
      <trkpt lat="45.2475" lon="6.41222">
        <ele>634.14</ele>
        <time>2018-09-09T10:21:10Z</time>
      </trkpt>
      <trkpt lat="45.24733" lon="6.41259">
        <ele>635.12</ele>
        <time>2018-09-09T10:21:12Z</time>
      </trkpt>
      <trkpt lat="45.24717" lon="6.41298">
        <ele>637.03</ele>
        <time>2018-09-09T10:21:14Z</time>
      </trkpt>
      <trkpt lat="45.247" lon="6.41334">
        <ele>638.11</ele>
        <time>2018-09-09T10:21:16Z</time>
      </trkpt>
      <trkpt lat="45.2469" lon="6.41362">
        <ele>639.11</ele>
        <time>2018-09-09T10:21:18Z</time>
      </trkpt>
      <trkpt lat="45.24697" lon="6.41387">
        <ele>640.41</ele>
        <time>2018-09-09T10:21:21Z</time>
      </trkpt>
      <trkpt lat="45.24716" lon="6.41387">
        <ele>642.05</ele>
        <time>2018-09-09T10:21:23Z</time>
      </trkpt>
      <trkpt lat="45.24746" lon="6.41376">
        <ele>641.5</ele>
        <time>2018-09-09T10:21:25Z</time>
      </trkpt>
      <trkpt lat="45.24776" lon="6.41368">
        <ele>640.54</ele>
        <time>2018-09-09T10:21:27Z</time>
      </trkpt>
      <trkpt lat="45.24806" lon="6.41358">
        <ele>639.54</ele>
        <time>2018-09-09T10:21:29Z</time>
      </trkpt>
      <trkpt lat="45.24832" lon="6.41346">
        <ele>641.06</ele>
        <time>2018-09-09T10:21:31Z</time>
      </trkpt>
      <trkpt lat="45.24856" lon="6.41324">
        <ele>641.41</ele>
        <time>2018-09-09T10:21:33Z</time>
      </trkpt>
      <trkpt lat="45.24867" lon="6.41303">
        <ele>641.43</ele>
        <time>2018-09-09T10:21:34Z</time>
      </trkpt>
      <trkpt lat="45.2488" lon="6.41256">
        <ele>641.44</ele>
        <time>2018-09-09T10:21:36Z</time>
      </trkpt>
      <trkpt lat="45.24885" lon="6.41212">
        <ele>643.05</ele>
        <time>2018-09-09T10:21:38Z</time>
      </trkpt>
      <trkpt lat="45.24892" lon="6.41182">
        <ele>644.32</ele>
        <time>2018-09-09T10:21:40Z</time>
      </trkpt>
      <trkpt lat="45.24901" lon="6.41159">
        <ele>645.34</ele>
        <time>2018-09-09T10:21:42Z</time>
      </trkpt>
      <trkpt lat="45.24911" lon="6.41136">
        <ele>645.65</ele>
        <time>2018-09-09T10:21:44Z</time>
      </trkpt>
      <trkpt lat="45.24927" lon="6.4111">
        <ele>646.16</ele>
        <time>2018-09-09T10:21:46Z</time>
      </trkpt>
      <trkpt lat="45.24948" lon="6.41086">
        <ele>646.42</ele>
        <time>2018-09-09T10:21:48Z</time>
      </trkpt>
      <trkpt lat="45.2497" lon="6.41067">
        <ele>647.35</ele>
        <time>2018-09-09T10:21:50Z</time>
      </trkpt>
      <trkpt lat="45.24995" lon="6.41052">
        <ele>646.04</ele>
        <time>2018-09-09T10:21:52Z</time>
      </trkpt>
      <trkpt lat="45.25019" lon="6.41041">
        <ele>645.58</ele>
        <time>2018-09-09T10:21:54Z</time>
      </trkpt>
      <trkpt lat="45.25041" lon="6.41031">
        <ele>647.15</ele>
        <time>2018-09-09T10:21:56Z</time>
      </trkpt>
      <trkpt lat="45.25063" lon="6.41019">
        <ele>647.5</ele>
        <time>2018-09-09T10:21:58Z</time>
      </trkpt>
      <trkpt lat="45.25086" lon="6.41009">
        <ele>648.44</ele>
        <time>2018-09-09T10:22:00Z</time>
      </trkpt>
      <trkpt lat="45.25109" lon="6.41001">
        <ele>648.52</ele>
        <time>2018-09-09T10:22:02Z</time>
      </trkpt>
      <trkpt lat="45.25128" lon="6.40993">
        <ele>648.53</ele>
        <time>2018-09-09T10:22:04Z</time>
      </trkpt>
      <trkpt lat="45.2515" lon="6.40982">
        <ele>648.53</ele>
        <time>2018-09-09T10:22:07Z</time>
      </trkpt>
      <trkpt lat="45.25152" lon="6.40953">
        <ele>647.83</ele>
        <time>2018-09-09T10:22:10Z</time>
      </trkpt>
      <trkpt lat="45.2515" lon="6.40927">
        <ele>648.26</ele>
        <time>2018-09-09T10:22:12Z</time>
      </trkpt>
      <trkpt lat="45.25159" lon="6.40902">
        <ele>648.3</ele>
        <time>2018-09-09T10:22:14Z</time>
      </trkpt>
      <trkpt lat="45.25179" lon="6.40887">
        <ele>650.12</ele>
        <time>2018-09-09T10:22:16Z</time>
      </trkpt>
      <trkpt lat="45.252" lon="6.40872">
        <ele>650.49</ele>
        <time>2018-09-09T10:22:18Z</time>
      </trkpt>
      <trkpt lat="45.25217" lon="6.4086">
        <ele>651.44</ele>
        <time>2018-09-09T10:22:20Z</time>
      </trkpt>
      <trkpt lat="45.25236" lon="6.40867">
        <ele>651.53</ele>
        <time>2018-09-09T10:22:23Z</time>
      </trkpt>
      <trkpt lat="45.25239" lon="6.409">
        <ele>653.41</ele>
        <time>2018-09-09T10:22:26Z</time>
      </trkpt>
      <trkpt lat="45.2523" lon="6.40944">
        <ele>654.43</ele>
        <time>2018-09-09T10:22:28Z</time>
      </trkpt>
      <trkpt lat="45.25219" lon="6.40976">
        <ele>654.5</ele>
        <time>2018-09-09T10:22:29Z</time>
      </trkpt>
      <trkpt lat="45.25211" lon="6.41005">
        <ele>654.52</ele>
        <time>2018-09-09T10:22:30Z</time>
      </trkpt>
      <trkpt lat="45.25202" lon="6.41035">
        <ele>655.93</ele>
        <time>2018-09-09T10:22:31Z</time>
      </trkpt>
      <trkpt lat="45.25191" lon="6.41066">
        <ele>657.05</ele>
        <time>2018-09-09T10:22:32Z</time>
      </trkpt>
      <trkpt lat="45.2518" lon="6.41098">
        <ele>657.39</ele>
        <time>2018-09-09T10:22:33Z</time>
      </trkpt>
      <trkpt lat="45.25168" lon="6.41128">
        <ele>658.89</ele>
        <time>2018-09-09T10:22:34Z</time>
      </trkpt>
      <trkpt lat="45.25154" lon="6.41156">
        <ele>660.04</ele>
        <time>2018-09-09T10:22:35Z</time>
      </trkpt>
      <trkpt lat="45.25141" lon="6.41182">
        <ele>661.08</ele>
        <time>2018-09-09T10:22:36Z</time>
      </trkpt>
      <trkpt lat="45.25129" lon="6.41209">
        <ele>661.4</ele>
        <time>2018-09-09T10:22:37Z</time>
      </trkpt>
      <trkpt lat="45.25116" lon="6.41236">
        <ele>662.19</ele>
        <time>2018-09-09T10:22:38Z</time>
      </trkpt>
      <trkpt lat="45.25103" lon="6.41262">
        <ele>663.13</ele>
        <time>2018-09-09T10:22:39Z</time>
      </trkpt>
      <trkpt lat="45.25091" lon="6.41288">
        <ele>662.71</ele>
        <time>2018-09-09T10:22:40Z</time>
      </trkpt>
      <trkpt lat="45.25078" lon="6.41315">
        <ele>663.98</ele>
        <time>2018-09-09T10:22:41Z</time>
      </trkpt>
      <trkpt lat="45.25065" lon="6.41341">
        <ele>665.07</ele>
        <time>2018-09-09T10:22:42Z</time>
      </trkpt>
      <trkpt lat="45.25051" lon="6.41368">
        <ele>666.09</ele>
        <time>2018-09-09T10:22:43Z</time>
      </trkpt>
      <trkpt lat="45.25038" lon="6.41395">
        <ele>666.4</ele>
        <time>2018-09-09T10:22:44Z</time>
      </trkpt>
      <trkpt lat="45.25026" lon="6.41422">
        <ele>666.49</ele>
        <time>2018-09-09T10:22:45Z</time>
      </trkpt>
      <trkpt lat="45.25013" lon="6.4145">
        <ele>667.92</ele>
        <time>2018-09-09T10:22:46Z</time>
      </trkpt>
      <trkpt lat="45.25" lon="6.41477">
        <ele>667.59</ele>
        <time>2018-09-09T10:22:47Z</time>
      </trkpt>
      <trkpt lat="45.24987" lon="6.41505">
        <ele>668.19</ele>
        <time>2018-09-09T10:22:48Z</time>
      </trkpt>
      <trkpt lat="45.24974" lon="6.41531">
        <ele>669.07</ele>
        <time>2018-09-09T10:22:49Z</time>
      </trkpt>
      <trkpt lat="45.24962" lon="6.41557">
        <ele>669.33</ele>
        <time>2018-09-09T10:22:50Z</time>
      </trkpt>
      <trkpt lat="45.24949" lon="6.41583">
        <ele>670.11</ele>
        <time>2018-09-09T10:22:51Z</time>
      </trkpt>
      <trkpt lat="45.24937" lon="6.4161">
        <ele>670.34</ele>
        <time>2018-09-09T10:22:52Z</time>
      </trkpt>
      <trkpt lat="45.24925" lon="6.41635">
        <ele>671.11</ele>
        <time>2018-09-09T10:22:53Z</time>
      </trkpt>
      <trkpt lat="45.24913" lon="6.41659">
        <ele>672.05</ele>
        <time>2018-09-09T10:22:54Z</time>
      </trkpt>
      <trkpt lat="45.24901" lon="6.41684">
        <ele>672.33</ele>
        <time>2018-09-09T10:22:55Z</time>
      </trkpt>
      <trkpt lat="45.2489" lon="6.41708">
        <ele>673.11</ele>
        <time>2018-09-09T10:22:56Z</time>
      </trkpt>
      <trkpt lat="45.24878" lon="6.41732">
        <ele>674.04</ele>
        <time>2018-09-09T10:22:57Z</time>
      </trkpt>
      <trkpt lat="45.24866" lon="6.41756">
        <ele>674.32</ele>
        <time>2018-09-09T10:22:58Z</time>
      </trkpt>
      <trkpt lat="45.24856" lon="6.41781">
        <ele>675.11</ele>
        <time>2018-09-09T10:22:59Z</time>
      </trkpt>
      <trkpt lat="45.24847" lon="6.41807">
        <ele>675.34</ele>
        <time>2018-09-09T10:23:00Z</time>
      </trkpt>
      <trkpt lat="45.24836" lon="6.41833">
        <ele>675.41</ele>
        <time>2018-09-09T10:23:01Z</time>
      </trkpt>
      <trkpt lat="45.24827" lon="6.41859">
        <ele>675.44</ele>
        <time>2018-09-09T10:23:02Z</time>
      </trkpt>
      <trkpt lat="45.24819" lon="6.41886">
        <ele>676.14</ele>
        <time>2018-09-09T10:23:03Z</time>
      </trkpt>
      <trkpt lat="45.2481" lon="6.41913">
        <ele>676.35</ele>
        <time>2018-09-09T10:23:04Z</time>
      </trkpt>
      <trkpt lat="45.24802" lon="6.4194">
        <ele>676.42</ele>
        <time>2018-09-09T10:23:05Z</time>
      </trkpt>
      <trkpt lat="45.24794" lon="6.41967">
        <ele>676.44</ele>
        <time>2018-09-09T10:23:06Z</time>
      </trkpt>
      <trkpt lat="45.24786" lon="6.41995">
        <ele>677.14</ele>
        <time>2018-09-09T10:23:07Z</time>
      </trkpt>
      <trkpt lat="45.24778" lon="6.42023">
        <ele>678.05</ele>
        <time>2018-09-09T10:23:08Z</time>
      </trkpt>
      <trkpt lat="45.2477" lon="6.42051">
        <ele>678.33</ele>
        <time>2018-09-09T10:23:09Z</time>
      </trkpt>
      <trkpt lat="45.24761" lon="6.4208">
        <ele>678.41</ele>
        <time>2018-09-09T10:23:10Z</time>
      </trkpt>
      <trkpt lat="45.24753" lon="6.42108">
        <ele>677.73</ele>
        <time>2018-09-09T10:23:11Z</time>
      </trkpt>
      <trkpt lat="45.24745" lon="6.42137">
        <ele>678.23</ele>
        <time>2018-09-09T10:23:12Z</time>
      </trkpt>
      <trkpt lat="45.24737" lon="6.42165">
        <ele>678.38</ele>
        <time>2018-09-09T10:23:13Z</time>
      </trkpt>
      <trkpt lat="45.24729" lon="6.42193">
        <ele>678.43</ele>
        <time>2018-09-09T10:23:14Z</time>
      </trkpt>
      <trkpt lat="45.2472" lon="6.42221">
        <ele>679.14</ele>
        <time>2018-09-09T10:23:15Z</time>
      </trkpt>
      <trkpt lat="45.24712" lon="6.42249">
        <ele>679.35</ele>
        <time>2018-09-09T10:23:16Z</time>
      </trkpt>
      <trkpt lat="45.24704" lon="6.42277">
        <ele>679.42</ele>
        <time>2018-09-09T10:23:17Z</time>
      </trkpt>
      <trkpt lat="45.24696" lon="6.42305">
        <ele>678.74</ele>
        <time>2018-09-09T10:23:18Z</time>
      </trkpt>
      <trkpt lat="45.24688" lon="6.42333">
        <ele>678.53</ele>
        <time>2018-09-09T10:23:19Z</time>
      </trkpt>
      <trkpt lat="45.2468" lon="6.42361">
        <ele>679.17</ele>
        <time>2018-09-09T10:23:20Z</time>
      </trkpt>
      <trkpt lat="45.24671" lon="6.42389">
        <ele>679.36</ele>
        <time>2018-09-09T10:23:21Z</time>
      </trkpt>
      <trkpt lat="45.24663" lon="6.42417">
        <ele>678.72</ele>
        <time>2018-09-09T10:23:22Z</time>
      </trkpt>
      <trkpt lat="45.24656" lon="6.42445">
        <ele>679.23</ele>
        <time>2018-09-09T10:23:23Z</time>
      </trkpt>
      <trkpt lat="45.24648" lon="6.42473">
        <ele>679.38</ele>
        <time>2018-09-09T10:23:24Z</time>
      </trkpt>
      <trkpt lat="45.24639" lon="6.42501">
        <ele>679.43</ele>
        <time>2018-09-09T10:23:25Z</time>
      </trkpt>
      <trkpt lat="45.24631" lon="6.4253">
        <ele>679.44</ele>
        <time>2018-09-09T10:23:26Z</time>
      </trkpt>
      <trkpt lat="45.24622" lon="6.42559">
        <ele>679.44</ele>
        <time>2018-09-09T10:23:27Z</time>
      </trkpt>
      <trkpt lat="45.24613" lon="6.42588">
        <ele>679.44</ele>
        <time>2018-09-09T10:23:28Z</time>
      </trkpt>
      <trkpt lat="45.24605" lon="6.42616">
        <ele>678.04</ele>
        <time>2018-09-09T10:23:29Z</time>
      </trkpt>
      <trkpt lat="45.24597" lon="6.42646">
        <ele>677.62</ele>
        <time>2018-09-09T10:23:30Z</time>
      </trkpt>
      <trkpt lat="45.24589" lon="6.42673">
        <ele>678.2</ele>
        <time>2018-09-09T10:23:31Z</time>
      </trkpt>
      <trkpt lat="45.2458" lon="6.42701">
        <ele>678.37</ele>
        <time>2018-09-09T10:23:32Z</time>
      </trkpt>
      <trkpt lat="45.24572" lon="6.42729">
        <ele>679.12</ele>
        <time>2018-09-09T10:23:33Z</time>
      </trkpt>
      <trkpt lat="45.24563" lon="6.42757">
        <ele>679.35</ele>
        <time>2018-09-09T10:23:34Z</time>
      </trkpt>
      <trkpt lat="45.24555" lon="6.42787">
        <ele>678.72</ele>
        <time>2018-09-09T10:23:35Z</time>
      </trkpt>
      <trkpt lat="45.24547" lon="6.42815">
        <ele>678.53</ele>
        <time>2018-09-09T10:23:36Z</time>
      </trkpt>
      <trkpt lat="45.24539" lon="6.42843">
        <ele>679.17</ele>
        <time>2018-09-09T10:23:37Z</time>
      </trkpt>
      <trkpt lat="45.2453" lon="6.42869">
        <ele>679.36</ele>
        <time>2018-09-09T10:23:38Z</time>
      </trkpt>
      <trkpt lat="45.24521" lon="6.42897">
        <ele>679.42</ele>
        <time>2018-09-09T10:23:39Z</time>
      </trkpt>
      <trkpt lat="45.24511" lon="6.42924">
        <ele>679.44</ele>
        <time>2018-09-09T10:23:40Z</time>
      </trkpt>
      <trkpt lat="45.245" lon="6.4295">
        <ele>680.14</ele>
        <time>2018-09-09T10:23:41Z</time>
      </trkpt>
      <trkpt lat="45.24489" lon="6.42976">
        <ele>680.35</ele>
        <time>2018-09-09T10:23:42Z</time>
      </trkpt>
      <trkpt lat="45.24479" lon="6.43002">
        <ele>680.42</ele>
        <time>2018-09-09T10:23:43Z</time>
      </trkpt>
      <trkpt lat="45.24467" lon="6.43027">
        <ele>680.44</ele>
        <time>2018-09-09T10:23:44Z</time>
      </trkpt>
      <trkpt lat="45.24455" lon="6.43051">
        <ele>680.44</ele>
        <time>2018-09-09T10:23:45Z</time>
      </trkpt>
      <trkpt lat="45.24442" lon="6.43074">
        <ele>681.14</ele>
        <time>2018-09-09T10:23:46Z</time>
      </trkpt>
      <trkpt lat="45.24429" lon="6.43097">
        <ele>681.35</ele>
        <time>2018-09-09T10:23:47Z</time>
      </trkpt>
      <trkpt lat="45.24415" lon="6.4312">
        <ele>681.42</ele>
        <time>2018-09-09T10:23:48Z</time>
      </trkpt>
      <trkpt lat="45.24402" lon="6.43141">
        <ele>681.44</ele>
        <time>2018-09-09T10:23:49Z</time>
      </trkpt>
      <trkpt lat="45.24387" lon="6.43162">
        <ele>681.44</ele>
        <time>2018-09-09T10:23:50Z</time>
      </trkpt>
      <trkpt lat="45.24372" lon="6.43182">
        <ele>681.44</ele>
        <time>2018-09-09T10:23:51Z</time>
      </trkpt>
      <trkpt lat="45.24356" lon="6.43201">
        <ele>681.44</ele>
        <time>2018-09-09T10:23:52Z</time>
      </trkpt>
      <trkpt lat="45.2434" lon="6.4322">
        <ele>680.74</ele>
        <time>2018-09-09T10:23:53Z</time>
      </trkpt>
      <trkpt lat="45.24323" lon="6.43238">
        <ele>679.83</ele>
        <time>2018-09-09T10:23:54Z</time>
      </trkpt>
      <trkpt lat="45.24306" lon="6.43255">
        <ele>679.56</ele>
        <time>2018-09-09T10:23:55Z</time>
      </trkpt>
      <trkpt lat="45.24289" lon="6.4327">
        <ele>678.78</ele>
        <time>2018-09-09T10:23:56Z</time>
      </trkpt>
      <trkpt lat="45.24271" lon="6.43285">
        <ele>677.85</ele>
        <time>2018-09-09T10:23:57Z</time>
      </trkpt>
      <trkpt lat="45.24254" lon="6.433">
        <ele>677.57</ele>
        <time>2018-09-09T10:23:58Z</time>
      </trkpt>
      <trkpt lat="45.24237" lon="6.43315">
        <ele>677.48</ele>
        <time>2018-09-09T10:23:59Z</time>
      </trkpt>
      <trkpt lat="45.2422" lon="6.43331">
        <ele>677.46</ele>
        <time>2018-09-09T10:24:00Z</time>
      </trkpt>
      <trkpt lat="45.24202" lon="6.43346">
        <ele>677.45</ele>
        <time>2018-09-09T10:24:01Z</time>
      </trkpt>
      <trkpt lat="45.24185" lon="6.43361">
        <ele>677.45</ele>
        <time>2018-09-09T10:24:02Z</time>
      </trkpt>
      <trkpt lat="45.24169" lon="6.43377">
        <ele>677.45</ele>
        <time>2018-09-09T10:24:03Z</time>
      </trkpt>
      <trkpt lat="45.24152" lon="6.43393">
        <ele>677.45</ele>
        <time>2018-09-09T10:24:04Z</time>
      </trkpt>
      <trkpt lat="45.24136" lon="6.43408">
        <ele>677.45</ele>
        <time>2018-09-09T10:24:05Z</time>
      </trkpt>
      <trkpt lat="45.2412" lon="6.43424">
        <ele>677.45</ele>
        <time>2018-09-09T10:24:06Z</time>
      </trkpt>
      <trkpt lat="45.24103" lon="6.43439">
        <ele>677.45</ele>
        <time>2018-09-09T10:24:07Z</time>
      </trkpt>
      <trkpt lat="45.24087" lon="6.43454">
        <ele>677.45</ele>
        <time>2018-09-09T10:24:08Z</time>
      </trkpt>
      <trkpt lat="45.24071" lon="6.4347">
        <ele>677.45</ele>
        <time>2018-09-09T10:24:09Z</time>
      </trkpt>
      <trkpt lat="45.24055" lon="6.43485">
        <ele>678.15</ele>
        <time>2018-09-09T10:24:10Z</time>
      </trkpt>
      <trkpt lat="45.24038" lon="6.43501">
        <ele>677.66</ele>
        <time>2018-09-09T10:24:11Z</time>
      </trkpt>
      <trkpt lat="45.24021" lon="6.43516">
        <ele>678.21</ele>
        <time>2018-09-09T10:24:12Z</time>
      </trkpt>
      <trkpt lat="45.24004" lon="6.43532">
        <ele>677.67</ele>
        <time>2018-09-09T10:24:13Z</time>
      </trkpt>
      <trkpt lat="45.23988" lon="6.43548">
        <ele>677.51</ele>
        <time>2018-09-09T10:24:14Z</time>
      </trkpt>
      <trkpt lat="45.23971" lon="6.43564">
        <ele>677.47</ele>
        <time>2018-09-09T10:24:15Z</time>
      </trkpt>
      <trkpt lat="45.23954" lon="6.43579">
        <ele>677.45</ele>
        <time>2018-09-09T10:24:16Z</time>
      </trkpt>
      <trkpt lat="45.23935" lon="6.43593">
        <ele>677.45</ele>
        <time>2018-09-09T10:24:17Z</time>
      </trkpt>
      <trkpt lat="45.23916" lon="6.43605">
        <ele>677.45</ele>
        <time>2018-09-09T10:24:18Z</time>
      </trkpt>
      <trkpt lat="45.23897" lon="6.43614">
        <ele>677.45</ele>
        <time>2018-09-09T10:24:19Z</time>
      </trkpt>
      <trkpt lat="45.23878" lon="6.43623">
        <ele>678.15</ele>
        <time>2018-09-09T10:24:20Z</time>
      </trkpt>
      <trkpt lat="45.23858" lon="6.4363">
        <ele>679.05</ele>
        <time>2018-09-09T10:24:21Z</time>
      </trkpt>
      <trkpt lat="45.23839" lon="6.43638">
        <ele>679.33</ele>
        <time>2018-09-09T10:24:22Z</time>
      </trkpt>
      <trkpt lat="45.23822" lon="6.43647">
        <ele>679.41</ele>
        <time>2018-09-09T10:24:23Z</time>
      </trkpt>
      <trkpt lat="45.23803" lon="6.43657">
        <ele>680.13</ele>
        <time>2018-09-09T10:24:24Z</time>
      </trkpt>
      <trkpt lat="45.23784" lon="6.43667">
        <ele>681.05</ele>
        <time>2018-09-09T10:24:25Z</time>
      </trkpt>
      <trkpt lat="45.23767" lon="6.4368">
        <ele>680.63</ele>
        <time>2018-09-09T10:24:26Z</time>
      </trkpt>
      <trkpt lat="45.23751" lon="6.43694">
        <ele>681.2</ele>
        <time>2018-09-09T10:24:27Z</time>
      </trkpt>
      <trkpt lat="45.23735" lon="6.43711">
        <ele>681.37</ele>
        <time>2018-09-09T10:24:28Z</time>
      </trkpt>
      <trkpt lat="45.23721" lon="6.4373">
        <ele>681.42</ele>
        <time>2018-09-09T10:24:29Z</time>
      </trkpt>
      <trkpt lat="45.23709" lon="6.43751">
        <ele>681.44</ele>
        <time>2018-09-09T10:24:30Z</time>
      </trkpt>
      <trkpt lat="45.23698" lon="6.43774">
        <ele>682.14</ele>
        <time>2018-09-09T10:24:31Z</time>
      </trkpt>
      <trkpt lat="45.23689" lon="6.43799">
        <ele>682.35</ele>
        <time>2018-09-09T10:24:32Z</time>
      </trkpt>
      <trkpt lat="45.23681" lon="6.43825">
        <ele>681.72</ele>
        <time>2018-09-09T10:24:33Z</time>
      </trkpt>
      <trkpt lat="45.23673" lon="6.43852">
        <ele>680.13</ele>
        <time>2018-09-09T10:24:34Z</time>
      </trkpt>
      <trkpt lat="45.23667" lon="6.4388">
        <ele>678.25</ele>
        <time>2018-09-09T10:24:35Z</time>
      </trkpt>
      <trkpt lat="45.23663" lon="6.43908">
        <ele>677.69</ele>
        <time>2018-09-09T10:24:36Z</time>
      </trkpt>
      <trkpt lat="45.23659" lon="6.43935">
        <ele>678.92</ele>
        <time>2018-09-09T10:24:37Z</time>
      </trkpt>
      <trkpt lat="45.23655" lon="6.43964">
        <ele>680.69</ele>
        <time>2018-09-09T10:24:38Z</time>
      </trkpt>
      <trkpt lat="45.23651" lon="6.43992">
        <ele>681.22</ele>
        <time>2018-09-09T10:24:39Z</time>
      </trkpt>
      <trkpt lat="45.23646" lon="6.44019">
        <ele>682.78</ele>
        <time>2018-09-09T10:24:40Z</time>
      </trkpt>
      <trkpt lat="45.23641" lon="6.44045">
        <ele>683.24</ele>
        <time>2018-09-09T10:24:41Z</time>
      </trkpt>
      <trkpt lat="45.23636" lon="6.44071">
        <ele>684.08</ele>
        <time>2018-09-09T10:24:42Z</time>
      </trkpt>
      <trkpt lat="45.2363" lon="6.44096">
        <ele>685.04</ele>
        <time>2018-09-09T10:24:43Z</time>
      </trkpt>
      <trkpt lat="45.23617" lon="6.44144">
        <ele>686.11</ele>
        <time>2018-09-09T10:24:45Z</time>
      </trkpt>
      <trkpt lat="45.23609" lon="6.44167">
        <ele>686.34</ele>
        <time>2018-09-09T10:24:46Z</time>
      </trkpt>
      <trkpt lat="45.23599" lon="6.4419">
        <ele>687.11</ele>
        <time>2018-09-09T10:24:47Z</time>
      </trkpt>
      <trkpt lat="45.23588" lon="6.44212">
        <ele>687.35</ele>
        <time>2018-09-09T10:24:48Z</time>
      </trkpt>
      <trkpt lat="45.23576" lon="6.44234">
        <ele>686.72</ele>
        <time>2018-09-09T10:24:49Z</time>
      </trkpt>
      <trkpt lat="45.23562" lon="6.44255">
        <ele>687.23</ele>
        <time>2018-09-09T10:24:50Z</time>
      </trkpt>
      <trkpt lat="45.23549" lon="6.44275">
        <ele>687.38</ele>
        <time>2018-09-09T10:24:51Z</time>
      </trkpt>
      <trkpt lat="45.23534" lon="6.44293">
        <ele>686.73</ele>
        <time>2018-09-09T10:24:52Z</time>
      </trkpt>
      <trkpt lat="45.23518" lon="6.4431">
        <ele>687.23</ele>
        <time>2018-09-09T10:24:53Z</time>
      </trkpt>
      <trkpt lat="45.23502" lon="6.44327">
        <ele>686.68</ele>
        <time>2018-09-09T10:24:54Z</time>
      </trkpt>
      <trkpt lat="45.23486" lon="6.44342">
        <ele>687.22</ele>
        <time>2018-09-09T10:24:55Z</time>
      </trkpt>
      <trkpt lat="45.23469" lon="6.44357">
        <ele>687.38</ele>
        <time>2018-09-09T10:24:56Z</time>
      </trkpt>
      <trkpt lat="45.23452" lon="6.44371">
        <ele>687.42</ele>
        <time>2018-09-09T10:24:57Z</time>
      </trkpt>
      <trkpt lat="45.23435" lon="6.44386">
        <ele>687.44</ele>
        <time>2018-09-09T10:24:58Z</time>
      </trkpt>
      <trkpt lat="45.23418" lon="6.44401">
        <ele>687.44</ele>
        <time>2018-09-09T10:24:59Z</time>
      </trkpt>
      <trkpt lat="45.23402" lon="6.44416">
        <ele>687.44</ele>
        <time>2018-09-09T10:25:00Z</time>
      </trkpt>
      <trkpt lat="45.23385" lon="6.44431">
        <ele>687.44</ele>
        <time>2018-09-09T10:25:01Z</time>
      </trkpt>
      <trkpt lat="45.23368" lon="6.44447">
        <ele>687.44</ele>
        <time>2018-09-09T10:25:02Z</time>
      </trkpt>
      <trkpt lat="45.23351" lon="6.44463">
        <ele>687.45</ele>
        <time>2018-09-09T10:25:03Z</time>
      </trkpt>
      <trkpt lat="45.23335" lon="6.44479">
        <ele>687.45</ele>
        <time>2018-09-09T10:25:04Z</time>
      </trkpt>
      <trkpt lat="45.23318" lon="6.44495">
        <ele>687.45</ele>
        <time>2018-09-09T10:25:05Z</time>
      </trkpt>
      <trkpt lat="45.23302" lon="6.44512">
        <ele>687.45</ele>
        <time>2018-09-09T10:25:06Z</time>
      </trkpt>
      <trkpt lat="45.23286" lon="6.44529">
        <ele>686.74</ele>
        <time>2018-09-09T10:25:07Z</time>
      </trkpt>
      <trkpt lat="45.2327" lon="6.44546">
        <ele>686.53</ele>
        <time>2018-09-09T10:25:08Z</time>
      </trkpt>
      <trkpt lat="45.23254" lon="6.44564">
        <ele>686.47</ele>
        <time>2018-09-09T10:25:09Z</time>
      </trkpt>
      <trkpt lat="45.23238" lon="6.44581">
        <ele>686.45</ele>
        <time>2018-09-09T10:25:10Z</time>
      </trkpt>
      <trkpt lat="45.23223" lon="6.446">
        <ele>687.15</ele>
        <time>2018-09-09T10:25:11Z</time>
      </trkpt>
      <trkpt lat="45.23209" lon="6.44619">
        <ele>687.36</ele>
        <time>2018-09-09T10:25:12Z</time>
      </trkpt>
      <trkpt lat="45.23195" lon="6.44639">
        <ele>687.42</ele>
        <time>2018-09-09T10:25:13Z</time>
      </trkpt>
      <trkpt lat="45.23182" lon="6.44659">
        <ele>688.14</ele>
        <time>2018-09-09T10:25:14Z</time>
      </trkpt>
      <trkpt lat="45.23169" lon="6.4468">
        <ele>688.35</ele>
        <time>2018-09-09T10:25:15Z</time>
      </trkpt>
      <trkpt lat="45.23156" lon="6.447">
        <ele>689.12</ele>
        <time>2018-09-09T10:25:16Z</time>
      </trkpt>
      <trkpt lat="45.23142" lon="6.4472">
        <ele>688.65</ele>
        <time>2018-09-09T10:25:17Z</time>
      </trkpt>
      <trkpt lat="45.2313" lon="6.4474">
        <ele>689.21</ele>
        <time>2018-09-09T10:25:18Z</time>
      </trkpt>
      <trkpt lat="45.23118" lon="6.44761">
        <ele>689.37</ele>
        <time>2018-09-09T10:25:19Z</time>
      </trkpt>
      <trkpt lat="45.23104" lon="6.4478">
        <ele>688.72</ele>
        <time>2018-09-09T10:25:20Z</time>
      </trkpt>
      <trkpt lat="45.23091" lon="6.448">
        <ele>687.83</ele>
        <time>2018-09-09T10:25:21Z</time>
      </trkpt>
      <trkpt lat="45.23077" lon="6.44819">
        <ele>688.26</ele>
        <time>2018-09-09T10:25:22Z</time>
      </trkpt>
      <trkpt lat="45.23064" lon="6.44837">
        <ele>688.39</ele>
        <time>2018-09-09T10:25:23Z</time>
      </trkpt>
      <trkpt lat="45.23051" lon="6.44855">
        <ele>689.13</ele>
        <time>2018-09-09T10:25:24Z</time>
      </trkpt>
      <trkpt lat="45.23035" lon="6.44872">
        <ele>689.35</ele>
        <time>2018-09-09T10:25:25Z</time>
      </trkpt>
      <trkpt lat="45.2302" lon="6.44888">
        <ele>690.12</ele>
        <time>2018-09-09T10:25:26Z</time>
      </trkpt>
      <trkpt lat="45.23004" lon="6.44904">
        <ele>689.65</ele>
        <time>2018-09-09T10:25:27Z</time>
      </trkpt>
      <trkpt lat="45.22985" lon="6.44916">
        <ele>690.21</ele>
        <time>2018-09-09T10:25:28Z</time>
      </trkpt>
      <trkpt lat="45.22968" lon="6.44928">
        <ele>691.07</ele>
        <time>2018-09-09T10:25:29Z</time>
      </trkpt>
      <trkpt lat="45.22935" lon="6.44948">
        <ele>690.71</ele>
        <time>2018-09-09T10:25:31Z</time>
      </trkpt>
      <trkpt lat="45.22918" lon="6.44957">
        <ele>691.92</ele>
        <time>2018-09-09T10:25:32Z</time>
      </trkpt>
      <trkpt lat="45.229" lon="6.44967">
        <ele>692.99</ele>
        <time>2018-09-09T10:25:33Z</time>
      </trkpt>
      <trkpt lat="45.22882" lon="6.44976">
        <ele>692.61</ele>
        <time>2018-09-09T10:25:34Z</time>
      </trkpt>
      <trkpt lat="45.22864" lon="6.44984">
        <ele>693.19</ele>
        <time>2018-09-09T10:25:35Z</time>
      </trkpt>
      <trkpt lat="45.22844" lon="6.44992">
        <ele>692.67</ele>
        <time>2018-09-09T10:25:36Z</time>
      </trkpt>
      <trkpt lat="45.22824" lon="6.44997">
        <ele>691.81</ele>
        <time>2018-09-09T10:25:37Z</time>
      </trkpt>
      <trkpt lat="45.22806" lon="6.45002">
        <ele>690.86</ele>
        <time>2018-09-09T10:25:38Z</time>
      </trkpt>
      <trkpt lat="45.22788" lon="6.45008">
        <ele>689.87</ele>
        <time>2018-09-09T10:25:39Z</time>
      </trkpt>
      <trkpt lat="45.22769" lon="6.45013">
        <ele>690.27</ele>
        <time>2018-09-09T10:25:40Z</time>
      </trkpt>
      <trkpt lat="45.2275" lon="6.45018">
        <ele>689.69</ele>
        <time>2018-09-09T10:25:41Z</time>
      </trkpt>
      <trkpt lat="45.22731" lon="6.45021">
        <ele>689.52</ele>
        <time>2018-09-09T10:25:42Z</time>
      </trkpt>
      <trkpt lat="45.22713" lon="6.45024">
        <ele>689.47</ele>
        <time>2018-09-09T10:25:43Z</time>
      </trkpt>
      <trkpt lat="45.22693" lon="6.45025">
        <ele>689.45</ele>
        <time>2018-09-09T10:25:44Z</time>
      </trkpt>
      <trkpt lat="45.22674" lon="6.45027">
        <ele>689.45</ele>
        <time>2018-09-09T10:25:45Z</time>
      </trkpt>
      <trkpt lat="45.22655" lon="6.4503">
        <ele>689.45</ele>
        <time>2018-09-09T10:25:46Z</time>
      </trkpt>
      <trkpt lat="45.22636" lon="6.45032">
        <ele>690.15</ele>
        <time>2018-09-09T10:25:47Z</time>
      </trkpt>
      <trkpt lat="45.22617" lon="6.45034">
        <ele>690.36</ele>
        <time>2018-09-09T10:25:48Z</time>
      </trkpt>
      <trkpt lat="45.22598" lon="6.45036">
        <ele>691.12</ele>
        <time>2018-09-09T10:25:49Z</time>
      </trkpt>
      <trkpt lat="45.22579" lon="6.45038">
        <ele>692.05</ele>
        <time>2018-09-09T10:25:50Z</time>
      </trkpt>
      <trkpt lat="45.2256" lon="6.4504">
        <ele>693.03</ele>
        <time>2018-09-09T10:25:51Z</time>
      </trkpt>
      <trkpt lat="45.22541" lon="6.45041">
        <ele>693.32</ele>
        <time>2018-09-09T10:25:52Z</time>
      </trkpt>
      <trkpt lat="45.2252" lon="6.45042">
        <ele>694.11</ele>
        <time>2018-09-09T10:25:53Z</time>
      </trkpt>
      <trkpt lat="45.225" lon="6.45044">
        <ele>694.34</ele>
        <time>2018-09-09T10:25:54Z</time>
      </trkpt>
      <trkpt lat="45.22481" lon="6.45046">
        <ele>694.41</ele>
        <time>2018-09-09T10:25:55Z</time>
      </trkpt>
      <trkpt lat="45.22462" lon="6.45048">
        <ele>695.14</ele>
        <time>2018-09-09T10:25:56Z</time>
      </trkpt>
      <trkpt lat="45.22442" lon="6.45052">
        <ele>695.35</ele>
        <time>2018-09-09T10:25:57Z</time>
      </trkpt>
      <trkpt lat="45.22423" lon="6.45058">
        <ele>696.12</ele>
        <time>2018-09-09T10:25:58Z</time>
      </trkpt>
      <trkpt lat="45.22405" lon="6.45064">
        <ele>696.35</ele>
        <time>2018-09-09T10:25:59Z</time>
      </trkpt>
      <trkpt lat="45.22386" lon="6.45072">
        <ele>697.12</ele>
        <time>2018-09-09T10:26:00Z</time>
      </trkpt>
      <trkpt lat="45.22368" lon="6.4508">
        <ele>697.35</ele>
        <time>2018-09-09T10:26:01Z</time>
      </trkpt>
      <trkpt lat="45.2235" lon="6.45089">
        <ele>698.12</ele>
        <time>2018-09-09T10:26:02Z</time>
      </trkpt>
      <trkpt lat="45.22332" lon="6.451">
        <ele>698.35</ele>
        <time>2018-09-09T10:26:03Z</time>
      </trkpt>
      <trkpt lat="45.22316" lon="6.45113">
        <ele>699.12</ele>
        <time>2018-09-09T10:26:04Z</time>
      </trkpt>
      <trkpt lat="45.223" lon="6.45129">
        <ele>700.05</ele>
        <time>2018-09-09T10:26:05Z</time>
      </trkpt>
      <trkpt lat="45.22288" lon="6.4515">
        <ele>700.33</ele>
        <time>2018-09-09T10:26:06Z</time>
      </trkpt>
      <trkpt lat="45.22277" lon="6.4517">
        <ele>699.71</ele>
        <time>2018-09-09T10:26:07Z</time>
      </trkpt>
      <trkpt lat="45.22265" lon="6.45192">
        <ele>699.52</ele>
        <time>2018-09-09T10:26:08Z</time>
      </trkpt>
      <trkpt lat="45.22257" lon="6.45218">
        <ele>700.17</ele>
        <time>2018-09-09T10:26:09Z</time>
      </trkpt>
      <trkpt lat="45.2225" lon="6.45244">
        <ele>699.66</ele>
        <time>2018-09-09T10:26:10Z</time>
      </trkpt>
      <trkpt lat="45.2224" lon="6.45267">
        <ele>699.51</ele>
        <time>2018-09-09T10:26:11Z</time>
      </trkpt>
      <trkpt lat="45.22229" lon="6.45289">
        <ele>698.76</ele>
        <time>2018-09-09T10:26:12Z</time>
      </trkpt>
      <trkpt lat="45.22218" lon="6.45309">
        <ele>697.84</ele>
        <time>2018-09-09T10:26:13Z</time>
      </trkpt>
      <trkpt lat="45.22195" lon="6.45347">
        <ele>697.48</ele>
        <time>2018-09-09T10:26:15Z</time>
      </trkpt>
      <trkpt lat="45.22172" lon="6.45385">
        <ele>697.45</ele>
        <time>2018-09-09T10:26:17Z</time>
      </trkpt>
      <trkpt lat="45.2215" lon="6.45423">
        <ele>698.36</ele>
        <time>2018-09-09T10:26:19Z</time>
      </trkpt>
      <trkpt lat="45.22128" lon="6.45463">
        <ele>698.44</ele>
        <time>2018-09-09T10:26:21Z</time>
      </trkpt>
      <trkpt lat="45.22118" lon="6.45484">
        <ele>698.44</ele>
        <time>2018-09-09T10:26:22Z</time>
      </trkpt>
      <trkpt lat="45.22101" lon="6.4553">
        <ele>699.14</ele>
        <time>2018-09-09T10:26:24Z</time>
      </trkpt>
      <trkpt lat="45.22089" lon="6.45577">
        <ele>698.72</ele>
        <time>2018-09-09T10:26:26Z</time>
      </trkpt>
      <trkpt lat="45.22086" lon="6.45605">
        <ele>697.13</ele>
        <time>2018-09-09T10:26:27Z</time>
      </trkpt>
      <trkpt lat="45.22079" lon="6.45651">
        <ele>696.51</ele>
        <time>2018-09-09T10:26:29Z</time>
      </trkpt>
      <trkpt lat="45.22075" lon="6.45695">
        <ele>696.45</ele>
        <time>2018-09-09T10:26:31Z</time>
      </trkpt>
      <trkpt lat="45.22071" lon="6.45738">
        <ele>696.45</ele>
        <time>2018-09-09T10:26:33Z</time>
      </trkpt>
      <trkpt lat="45.22067" lon="6.4578">
        <ele>697.36</ele>
        <time>2018-09-09T10:26:35Z</time>
      </trkpt>
      <trkpt lat="45.22062" lon="6.45822">
        <ele>698.35</ele>
        <time>2018-09-09T10:26:37Z</time>
      </trkpt>
      <trkpt lat="45.22058" lon="6.45864">
        <ele>699.14</ele>
        <time>2018-09-09T10:26:39Z</time>
      </trkpt>
      <trkpt lat="45.22053" lon="6.45906">
        <ele>700.12</ele>
        <time>2018-09-09T10:26:41Z</time>
      </trkpt>
      <trkpt lat="45.22049" lon="6.45948">
        <ele>701.33</ele>
        <time>2018-09-09T10:26:43Z</time>
      </trkpt>
      <trkpt lat="45.22047" lon="6.4599">
        <ele>703.25</ele>
        <time>2018-09-09T10:26:45Z</time>
      </trkpt>
      <trkpt lat="45.22045" lon="6.4603">
        <ele>704.34</ele>
        <time>2018-09-09T10:26:47Z</time>
      </trkpt>
      <trkpt lat="45.2204" lon="6.46068">
        <ele>705.35</ele>
        <time>2018-09-09T10:26:49Z</time>
      </trkpt>
      <trkpt lat="45.22032" lon="6.46108">
        <ele>705.44</ele>
        <time>2018-09-09T10:26:51Z</time>
      </trkpt>
      <trkpt lat="45.22024" lon="6.46149">
        <ele>706.14</ele>
        <time>2018-09-09T10:26:53Z</time>
      </trkpt>
      <trkpt lat="45.22017" lon="6.4619">
        <ele>707.33</ele>
        <time>2018-09-09T10:26:55Z</time>
      </trkpt>
      <trkpt lat="45.2201" lon="6.46231">
        <ele>708.13</ele>
        <time>2018-09-09T10:26:57Z</time>
      </trkpt>
      <trkpt lat="45.22004" lon="6.46274">
        <ele>709.12</ele>
        <time>2018-09-09T10:26:59Z</time>
      </trkpt>
      <trkpt lat="45.21999" lon="6.46317">
        <ele>710.33</ele>
        <time>2018-09-09T10:27:01Z</time>
      </trkpt>
      <trkpt lat="45.21995" lon="6.46357">
        <ele>710.64</ele>
        <time>2018-09-09T10:27:03Z</time>
      </trkpt>
      <trkpt lat="45.21992" lon="6.46394">
        <ele>711.16</ele>
        <time>2018-09-09T10:27:05Z</time>
      </trkpt>
      <trkpt lat="45.21989" lon="6.46427">
        <ele>711.42</ele>
        <time>2018-09-09T10:27:07Z</time>
      </trkpt>
      <trkpt lat="45.21984" lon="6.46456">
        <ele>712.35</ele>
        <time>2018-09-09T10:27:09Z</time>
      </trkpt>
      <trkpt lat="45.21975" lon="6.46479">
        <ele>712.65</ele>
        <time>2018-09-09T10:27:11Z</time>
      </trkpt>
      <trkpt lat="45.21975" lon="6.46508">
        <ele>712.45</ele>
        <time>2018-09-09T10:27:14Z</time>
      </trkpt>
      <trkpt lat="45.21976" lon="6.46539">
        <ele>711.47</ele>
        <time>2018-09-09T10:27:17Z</time>
      </trkpt>
      <trkpt lat="45.21973" lon="6.46564">
        <ele>712.15</ele>
        <time>2018-09-09T10:27:19Z</time>
      </trkpt>
      <trkpt lat="45.21971" lon="6.46591">
        <ele>713.12</ele>
        <time>2018-09-09T10:27:21Z</time>
      </trkpt>
      <trkpt lat="45.2197" lon="6.46619">
        <ele>712.72</ele>
        <time>2018-09-09T10:27:23Z</time>
      </trkpt>
      <trkpt lat="45.21964" lon="6.46652">
        <ele>713.38</ele>
        <time>2018-09-09T10:27:25Z</time>
      </trkpt>
      <trkpt lat="45.2196" lon="6.46689">
        <ele>713.44</ele>
        <time>2018-09-09T10:27:27Z</time>
      </trkpt>
      <trkpt lat="45.21957" lon="6.46728">
        <ele>713.44</ele>
        <time>2018-09-09T10:27:29Z</time>
      </trkpt>
      <trkpt lat="45.21953" lon="6.46765">
        <ele>714.35</ele>
        <time>2018-09-09T10:27:31Z</time>
      </trkpt>
      <trkpt lat="45.21949" lon="6.468">
        <ele>714.44</ele>
        <time>2018-09-09T10:27:33Z</time>
      </trkpt>
      <trkpt lat="45.21946" lon="6.46835">
        <ele>714.44</ele>
        <time>2018-09-09T10:27:35Z</time>
      </trkpt>
      <trkpt lat="45.21942" lon="6.4687">
        <ele>716.05</ele>
        <time>2018-09-09T10:27:37Z</time>
      </trkpt>
      <trkpt lat="45.21935" lon="6.46903">
        <ele>717.32</ele>
        <time>2018-09-09T10:27:39Z</time>
      </trkpt>
      <trkpt lat="45.21921" lon="6.46932">
        <ele>717.43</ele>
        <time>2018-09-09T10:27:41Z</time>
      </trkpt>
      <trkpt lat="45.21906" lon="6.46958">
        <ele>717.44</ele>
        <time>2018-09-09T10:27:43Z</time>
      </trkpt>
      <trkpt lat="45.21892" lon="6.46985">
        <ele>717.44</ele>
        <time>2018-09-09T10:27:45Z</time>
      </trkpt>
      <trkpt lat="45.21876" lon="6.47011">
        <ele>717.45</ele>
        <time>2018-09-09T10:27:47Z</time>
      </trkpt>
      <trkpt lat="45.21858" lon="6.47036">
        <ele>717.45</ele>
        <time>2018-09-09T10:27:49Z</time>
      </trkpt>
      <trkpt lat="45.21841" lon="6.4706">
        <ele>718.15</ele>
        <time>2018-09-09T10:27:51Z</time>
      </trkpt>
      <trkpt lat="45.21822" lon="6.47083">
        <ele>718.42</ele>
        <time>2018-09-09T10:27:53Z</time>
      </trkpt>
      <trkpt lat="45.21806" lon="6.47107">
        <ele>718.44</ele>
        <time>2018-09-09T10:27:55Z</time>
      </trkpt>
      <trkpt lat="45.21785" lon="6.4713">
        <ele>718.65</ele>
        <time>2018-09-09T10:27:57Z</time>
      </trkpt>
      <trkpt lat="45.21767" lon="6.47148">
        <ele>719.16</ele>
        <time>2018-09-09T10:27:59Z</time>
      </trkpt>
      <trkpt lat="45.21755" lon="6.4717">
        <ele>719.42</ele>
        <time>2018-09-09T10:28:01Z</time>
      </trkpt>
      <trkpt lat="45.21744" lon="6.47195">
        <ele>720.14</ele>
        <time>2018-09-09T10:28:03Z</time>
      </trkpt>
      <trkpt lat="45.21732" lon="6.4722">
        <ele>720.42</ele>
        <time>2018-09-09T10:28:05Z</time>
      </trkpt>
      <trkpt lat="45.21718" lon="6.47244">
        <ele>720.23</ele>
        <time>2018-09-09T10:28:07Z</time>
      </trkpt>
      <trkpt lat="45.21704" lon="6.47268">
        <ele>721.34</ele>
        <time>2018-09-09T10:28:09Z</time>
      </trkpt>
      <trkpt lat="45.21689" lon="6.47291">
        <ele>722.14</ele>
        <time>2018-09-09T10:28:11Z</time>
      </trkpt>
      <trkpt lat="45.21674" lon="6.47314">
        <ele>722.42</ele>
        <time>2018-09-09T10:28:13Z</time>
      </trkpt>
      <trkpt lat="45.21659" lon="6.47339">
        <ele>722.65</ele>
        <time>2018-09-09T10:28:15Z</time>
      </trkpt>
      <trkpt lat="45.21646" lon="6.47362">
        <ele>721.76</ele>
        <time>2018-09-09T10:28:17Z</time>
      </trkpt>
      <trkpt lat="45.21634" lon="6.47382">
        <ele>721.47</ele>
        <time>2018-09-09T10:28:19Z</time>
      </trkpt>
      <trkpt lat="45.2162" lon="6.47409">
        <ele>721.45</ele>
        <time>2018-09-09T10:28:22Z</time>
      </trkpt>
      <trkpt lat="45.21606" lon="6.47434">
        <ele>722.15</ele>
        <time>2018-09-09T10:28:25Z</time>
      </trkpt>
      <trkpt lat="45.21593" lon="6.47459">
        <ele>724.05</ele>
        <time>2018-09-09T10:28:29Z</time>
      </trkpt>
      <trkpt lat="45.2158" lon="6.47479">
        <ele>724.74</ele>
        <time>2018-09-09T10:28:45Z</time>
      </trkpt>
      <trkpt lat="45.21563" lon="6.47504">
        <ele>723.48</ele>
        <time>2018-09-09T10:28:48Z</time>
      </trkpt>
      <trkpt lat="45.21547" lon="6.47523">
        <ele>722.54</ele>
        <time>2018-09-09T10:28:50Z</time>
      </trkpt>
      <trkpt lat="45.21531" lon="6.47543">
        <ele>721.54</ele>
        <time>2018-09-09T10:28:52Z</time>
      </trkpt>
      <trkpt lat="45.21514" lon="6.47565">
        <ele>721.45</ele>
        <time>2018-09-09T10:28:54Z</time>
      </trkpt>
      <trkpt lat="45.21497" lon="6.47587">
        <ele>721.45</ele>
        <time>2018-09-09T10:28:56Z</time>
      </trkpt>
      <trkpt lat="45.2148" lon="6.47609">
        <ele>720.33</ele>
        <time>2018-09-09T10:28:58Z</time>
      </trkpt>
      <trkpt lat="45.21462" lon="6.47632">
        <ele>721.34</ele>
        <time>2018-09-09T10:29:00Z</time>
      </trkpt>
      <trkpt lat="45.21441" lon="6.47651">
        <ele>722.35</ele>
        <time>2018-09-09T10:29:02Z</time>
      </trkpt>
      <trkpt lat="45.21419" lon="6.47667">
        <ele>723.14</ele>
        <time>2018-09-09T10:29:04Z</time>
      </trkpt>
      <trkpt lat="45.21399" lon="6.47685">
        <ele>722.51</ele>
        <time>2018-09-09T10:29:06Z</time>
      </trkpt>
      <trkpt lat="45.21378" lon="6.47703">
        <ele>722.24</ele>
        <time>2018-09-09T10:29:08Z</time>
      </trkpt>
      <trkpt lat="45.21355" lon="6.47719">
        <ele>723.83</ele>
        <time>2018-09-09T10:29:10Z</time>
      </trkpt>
      <trkpt lat="45.21333" lon="6.47734">
        <ele>724.39</ele>
        <time>2018-09-09T10:29:12Z</time>
      </trkpt>
      <trkpt lat="45.2131" lon="6.47749">
        <ele>724.23</ele>
        <time>2018-09-09T10:29:14Z</time>
      </trkpt>
      <trkpt lat="45.21288" lon="6.47766">
        <ele>721.91</ele>
        <time>2018-09-09T10:29:16Z</time>
      </trkpt>
      <trkpt lat="45.21264" lon="6.47782">
        <ele>721.49</ele>
        <time>2018-09-09T10:29:18Z</time>
      </trkpt>
      <trkpt lat="45.2124" lon="6.47797">
        <ele>720.75</ele>
        <time>2018-09-09T10:29:20Z</time>
      </trkpt>
      <trkpt lat="45.21214" lon="6.47814">
        <ele>719.77</ele>
        <time>2018-09-09T10:29:22Z</time>
      </trkpt>
      <trkpt lat="45.21188" lon="6.47831">
        <ele>720.38</ele>
        <time>2018-09-09T10:29:24Z</time>
      </trkpt>
      <trkpt lat="45.21161" lon="6.47849">
        <ele>721.35</ele>
        <time>2018-09-09T10:29:26Z</time>
      </trkpt>
      <trkpt lat="45.21134" lon="6.47866">
        <ele>722.14</ele>
        <time>2018-09-09T10:29:28Z</time>
      </trkpt>
      <trkpt lat="45.21105" lon="6.47884">
        <ele>722.63</ele>
        <time>2018-09-09T10:29:30Z</time>
      </trkpt>
      <trkpt lat="45.21079" lon="6.47905">
        <ele>722.67</ele>
        <time>2018-09-09T10:29:32Z</time>
      </trkpt>
      <trkpt lat="45.21052" lon="6.47927">
        <ele>724.08</ele>
        <time>2018-09-09T10:29:34Z</time>
      </trkpt>
      <trkpt lat="45.21034" lon="6.47957">
        <ele>725.81</ele>
        <time>2018-09-09T10:29:36Z</time>
      </trkpt>
      <trkpt lat="45.21025" lon="6.47995">
        <ele>727.09</ele>
        <time>2018-09-09T10:29:38Z</time>
      </trkpt>
      <trkpt lat="45.21028" lon="6.48044">
        <ele>729.02</ele>
        <time>2018-09-09T10:29:40Z</time>
      </trkpt>
      <trkpt lat="45.21034" lon="6.4807">
        <ele>730.72</ele>
        <time>2018-09-09T10:29:41Z</time>
      </trkpt>
      <trkpt lat="45.2104" lon="6.48098">
        <ele>731.23</ele>
        <time>2018-09-09T10:29:42Z</time>
      </trkpt>
      <trkpt lat="45.21047" lon="6.48126">
        <ele>732.08</ele>
        <time>2018-09-09T10:29:43Z</time>
      </trkpt>
      <trkpt lat="45.21054" lon="6.48155">
        <ele>733.04</ele>
        <time>2018-09-09T10:29:44Z</time>
      </trkpt>
      <trkpt lat="45.21059" lon="6.48183">
        <ele>733.32</ele>
        <time>2018-09-09T10:29:45Z</time>
      </trkpt>
      <trkpt lat="45.21064" lon="6.48212">
        <ele>734.11</ele>
        <time>2018-09-09T10:29:46Z</time>
      </trkpt>
      <trkpt lat="45.21068" lon="6.4824">
        <ele>735.04</ele>
        <time>2018-09-09T10:29:47Z</time>
      </trkpt>
      <trkpt lat="45.2107" lon="6.48269">
        <ele>736.02</ele>
        <time>2018-09-09T10:29:48Z</time>
      </trkpt>
      <trkpt lat="45.21071" lon="6.48298">
        <ele>737.02</ele>
        <time>2018-09-09T10:29:49Z</time>
      </trkpt>
      <trkpt lat="45.21072" lon="6.48326">
        <ele>738.02</ele>
        <time>2018-09-09T10:29:50Z</time>
      </trkpt>
      <trkpt lat="45.21073" lon="6.48355">
        <ele>739.02</ele>
        <time>2018-09-09T10:29:51Z</time>
      </trkpt>
      <trkpt lat="45.21075" lon="6.48382">
        <ele>740.02</ele>
        <time>2018-09-09T10:29:52Z</time>
      </trkpt>
      <trkpt lat="45.21076" lon="6.4841">
        <ele>741.02</ele>
        <time>2018-09-09T10:29:53Z</time>
      </trkpt>
      <trkpt lat="45.21075" lon="6.48438">
        <ele>742.72</ele>
        <time>2018-09-09T10:29:54Z</time>
      </trkpt>
      <trkpt lat="45.21073" lon="6.48466">
        <ele>743.93</ele>
        <time>2018-09-09T10:29:55Z</time>
      </trkpt>
      <trkpt lat="45.21068" lon="6.48493">
        <ele>744.99</ele>
        <time>2018-09-09T10:29:56Z</time>
      </trkpt>
      <trkpt lat="45.21062" lon="6.4852">
        <ele>745.31</ele>
        <time>2018-09-09T10:29:57Z</time>
      </trkpt>
      <trkpt lat="45.21053" lon="6.48545">
        <ele>746.1</ele>
        <time>2018-09-09T10:29:58Z</time>
      </trkpt>
      <trkpt lat="45.21044" lon="6.48572">
        <ele>746.34</ele>
        <time>2018-09-09T10:29:59Z</time>
      </trkpt>
      <trkpt lat="45.21035" lon="6.48598">
        <ele>746.41</ele>
        <time>2018-09-09T10:30:00Z</time>
      </trkpt>
      <trkpt lat="45.21027" lon="6.48625">
        <ele>747.14</ele>
        <time>2018-09-09T10:30:01Z</time>
      </trkpt>
      <trkpt lat="45.2102" lon="6.48651">
        <ele>748.05</ele>
        <time>2018-09-09T10:30:02Z</time>
      </trkpt>
      <trkpt lat="45.21017" lon="6.4868">
        <ele>748.33</ele>
        <time>2018-09-09T10:30:03Z</time>
      </trkpt>
      <trkpt lat="45.21015" lon="6.48709">
        <ele>749.11</ele>
        <time>2018-09-09T10:30:04Z</time>
      </trkpt>
      <trkpt lat="45.21016" lon="6.48738">
        <ele>750.04</ele>
        <time>2018-09-09T10:30:05Z</time>
      </trkpt>
      <trkpt lat="45.21017" lon="6.48766">
        <ele>750.32</ele>
        <time>2018-09-09T10:30:06Z</time>
      </trkpt>
      <trkpt lat="45.21019" lon="6.48794">
        <ele>750.41</ele>
        <time>2018-09-09T10:30:07Z</time>
      </trkpt>
      <trkpt lat="45.21021" lon="6.48822">
        <ele>750.43</ele>
        <time>2018-09-09T10:30:08Z</time>
      </trkpt>
      <trkpt lat="45.21024" lon="6.4885">
        <ele>750.44</ele>
        <time>2018-09-09T10:30:09Z</time>
      </trkpt>
      <trkpt lat="45.21028" lon="6.48877">
        <ele>750.44</ele>
        <time>2018-09-09T10:30:10Z</time>
      </trkpt>
      <trkpt lat="45.21033" lon="6.48905">
        <ele>750.44</ele>
        <time>2018-09-09T10:30:11Z</time>
      </trkpt>
      <trkpt lat="45.21039" lon="6.48932">
        <ele>750.44</ele>
        <time>2018-09-09T10:30:12Z</time>
      </trkpt>
      <trkpt lat="45.21044" lon="6.4896">
        <ele>750.44</ele>
        <time>2018-09-09T10:30:13Z</time>
      </trkpt>
      <trkpt lat="45.21049" lon="6.48986">
        <ele>750.45</ele>
        <time>2018-09-09T10:30:14Z</time>
      </trkpt>
      <trkpt lat="45.21056" lon="6.49014">
        <ele>751.15</ele>
        <time>2018-09-09T10:30:15Z</time>
      </trkpt>
      <trkpt lat="45.21062" lon="6.49042">
        <ele>751.35</ele>
        <time>2018-09-09T10:30:16Z</time>
      </trkpt>
      <trkpt lat="45.21068" lon="6.4907">
        <ele>752.82</ele>
        <time>2018-09-09T10:30:17Z</time>
      </trkpt>
      <trkpt lat="45.21071" lon="6.49098">
        <ele>753.26</ele>
        <time>2018-09-09T10:30:18Z</time>
      </trkpt>
      <trkpt lat="45.21073" lon="6.49127">
        <ele>754.09</ele>
        <time>2018-09-09T10:30:19Z</time>
      </trkpt>
      <trkpt lat="45.21075" lon="6.49155">
        <ele>754.34</ele>
        <time>2018-09-09T10:30:20Z</time>
      </trkpt>
      <trkpt lat="45.21076" lon="6.49184">
        <ele>755.11</ele>
        <time>2018-09-09T10:30:21Z</time>
      </trkpt>
      <trkpt lat="45.21076" lon="6.49213">
        <ele>756.05</ele>
        <time>2018-09-09T10:30:22Z</time>
      </trkpt>
      <trkpt lat="45.21076" lon="6.49241">
        <ele>757.03</ele>
        <time>2018-09-09T10:30:23Z</time>
      </trkpt>
      <trkpt lat="45.21077" lon="6.4927">
        <ele>758.02</ele>
        <time>2018-09-09T10:30:24Z</time>
      </trkpt>
      <trkpt lat="45.21079" lon="6.49299">
        <ele>759.02</ele>
        <time>2018-09-09T10:30:25Z</time>
      </trkpt>
      <trkpt lat="45.2108" lon="6.49327">
        <ele>760.02</ele>
        <time>2018-09-09T10:30:26Z</time>
      </trkpt>
      <trkpt lat="45.2108" lon="6.49356">
        <ele>760.32</ele>
        <time>2018-09-09T10:30:27Z</time>
      </trkpt>
      <trkpt lat="45.2108" lon="6.49385">
        <ele>761.11</ele>
        <time>2018-09-09T10:30:28Z</time>
      </trkpt>
      <trkpt lat="45.21081" lon="6.49414">
        <ele>761.34</ele>
        <time>2018-09-09T10:30:29Z</time>
      </trkpt>
      <trkpt lat="45.21081" lon="6.49443">
        <ele>762.11</ele>
        <time>2018-09-09T10:30:30Z</time>
      </trkpt>
      <trkpt lat="45.21083" lon="6.49472">
        <ele>763.05</ele>
        <time>2018-09-09T10:30:31Z</time>
      </trkpt>
      <trkpt lat="45.21084" lon="6.49502">
        <ele>764.03</ele>
        <time>2018-09-09T10:30:32Z</time>
      </trkpt>
      <trkpt lat="45.21086" lon="6.49531">
        <ele>765.02</ele>
        <time>2018-09-09T10:30:33Z</time>
      </trkpt>
      <trkpt lat="45.21086" lon="6.49559">
        <ele>766.02</ele>
        <time>2018-09-09T10:30:34Z</time>
      </trkpt>
      <trkpt lat="45.21087" lon="6.49588">
        <ele>767.02</ele>
        <time>2018-09-09T10:30:35Z</time>
      </trkpt>
      <trkpt lat="45.21088" lon="6.49616">
        <ele>768.02</ele>
        <time>2018-09-09T10:30:36Z</time>
      </trkpt>
      <trkpt lat="45.21088" lon="6.49644">
        <ele>768.32</ele>
        <time>2018-09-09T10:30:37Z</time>
      </trkpt>
      <trkpt lat="45.21088" lon="6.49672">
        <ele>769.11</ele>
        <time>2018-09-09T10:30:38Z</time>
      </trkpt>
      <trkpt lat="45.21088" lon="6.49699">
        <ele>769.34</ele>
        <time>2018-09-09T10:30:39Z</time>
      </trkpt>
      <trkpt lat="45.21089" lon="6.49727">
        <ele>769.41</ele>
        <time>2018-09-09T10:30:40Z</time>
      </trkpt>
      <trkpt lat="45.2109" lon="6.49756">
        <ele>770.14</ele>
        <time>2018-09-09T10:30:41Z</time>
      </trkpt>
      <trkpt lat="45.21091" lon="6.49784">
        <ele>771.05</ele>
        <time>2018-09-09T10:30:42Z</time>
      </trkpt>
      <trkpt lat="45.21092" lon="6.49812">
        <ele>772.03</ele>
        <time>2018-09-09T10:30:43Z</time>
      </trkpt>
      <trkpt lat="45.21093" lon="6.4984">
        <ele>772.32</ele>
        <time>2018-09-09T10:30:44Z</time>
      </trkpt>
      <trkpt lat="45.21094" lon="6.49868">
        <ele>773.11</ele>
        <time>2018-09-09T10:30:45Z</time>
      </trkpt>
      <trkpt lat="45.21095" lon="6.49896">
        <ele>774.04</ele>
        <time>2018-09-09T10:30:46Z</time>
      </trkpt>
      <trkpt lat="45.21097" lon="6.49925">
        <ele>774.32</ele>
        <time>2018-09-09T10:30:47Z</time>
      </trkpt>
      <trkpt lat="45.21098" lon="6.49953">
        <ele>775.11</ele>
        <time>2018-09-09T10:30:48Z</time>
      </trkpt>
      <trkpt lat="45.211" lon="6.49982">
        <ele>775.34</ele>
        <time>2018-09-09T10:30:49Z</time>
      </trkpt>
      <trkpt lat="45.21101" lon="6.50012">
        <ele>776.11</ele>
        <time>2018-09-09T10:30:50Z</time>
      </trkpt>
      <trkpt lat="45.21103" lon="6.50041">
        <ele>777.05</ele>
        <time>2018-09-09T10:30:51Z</time>
      </trkpt>
      <trkpt lat="45.21105" lon="6.5007">
        <ele>777.33</ele>
        <time>2018-09-09T10:30:52Z</time>
      </trkpt>
      <trkpt lat="45.21106" lon="6.501">
        <ele>778.11</ele>
        <time>2018-09-09T10:30:53Z</time>
      </trkpt>
      <trkpt lat="45.21108" lon="6.50129">
        <ele>779.04</ele>
        <time>2018-09-09T10:30:54Z</time>
      </trkpt>
      <trkpt lat="45.21109" lon="6.50159">
        <ele>780.02</ele>
        <time>2018-09-09T10:30:55Z</time>
      </trkpt>
      <trkpt lat="45.2111" lon="6.50189">
        <ele>781.02</ele>
        <time>2018-09-09T10:30:56Z</time>
      </trkpt>
      <trkpt lat="45.21111" lon="6.50219">
        <ele>782.02</ele>
        <time>2018-09-09T10:30:57Z</time>
      </trkpt>
      <trkpt lat="45.21112" lon="6.50249">
        <ele>783.02</ele>
        <time>2018-09-09T10:30:58Z</time>
      </trkpt>
      <trkpt lat="45.21114" lon="6.50278">
        <ele>783.32</ele>
        <time>2018-09-09T10:30:59Z</time>
      </trkpt>
      <trkpt lat="45.21116" lon="6.50309">
        <ele>783.41</ele>
        <time>2018-09-09T10:31:00Z</time>
      </trkpt>
      <trkpt lat="45.21117" lon="6.50339">
        <ele>784.13</ele>
        <time>2018-09-09T10:31:01Z</time>
      </trkpt>
      <trkpt lat="45.21119" lon="6.5037">
        <ele>785.05</ele>
        <time>2018-09-09T10:31:02Z</time>
      </trkpt>
      <trkpt lat="45.21121" lon="6.50401">
        <ele>786.03</ele>
        <time>2018-09-09T10:31:03Z</time>
      </trkpt>
      <trkpt lat="45.21123" lon="6.50431">
        <ele>786.32</ele>
        <time>2018-09-09T10:31:04Z</time>
      </trkpt>
      <trkpt lat="45.21125" lon="6.50462">
        <ele>786.41</ele>
        <time>2018-09-09T10:31:05Z</time>
      </trkpt>
      <trkpt lat="45.21126" lon="6.50493">
        <ele>787.13</ele>
        <time>2018-09-09T10:31:06Z</time>
      </trkpt>
      <trkpt lat="45.21127" lon="6.50524">
        <ele>787.35</ele>
        <time>2018-09-09T10:31:07Z</time>
      </trkpt>
      <trkpt lat="45.21127" lon="6.50554">
        <ele>788.12</ele>
        <time>2018-09-09T10:31:08Z</time>
      </trkpt>
      <trkpt lat="45.21126" lon="6.50586">
        <ele>789.05</ele>
        <time>2018-09-09T10:31:09Z</time>
      </trkpt>
      <trkpt lat="45.21126" lon="6.50617">
        <ele>790.03</ele>
        <time>2018-09-09T10:31:10Z</time>
      </trkpt>
      <trkpt lat="45.21125" lon="6.50648">
        <ele>791.02</ele>
        <time>2018-09-09T10:31:11Z</time>
      </trkpt>
      <trkpt lat="45.21124" lon="6.50678">
        <ele>792.02</ele>
        <time>2018-09-09T10:31:12Z</time>
      </trkpt>
      <trkpt lat="45.21125" lon="6.5071">
        <ele>793.02</ele>
        <time>2018-09-09T10:31:13Z</time>
      </trkpt>
      <trkpt lat="45.21124" lon="6.5074">
        <ele>794.02</ele>
        <time>2018-09-09T10:31:14Z</time>
      </trkpt>
      <trkpt lat="45.21124" lon="6.5077">
        <ele>795.02</ele>
        <time>2018-09-09T10:31:15Z</time>
      </trkpt>
      <trkpt lat="45.21123" lon="6.50799">
        <ele>796.02</ele>
        <time>2018-09-09T10:31:16Z</time>
      </trkpt>
      <trkpt lat="45.21122" lon="6.50828">
        <ele>797.02</ele>
        <time>2018-09-09T10:31:17Z</time>
      </trkpt>
      <trkpt lat="45.2112" lon="6.50856">
        <ele>798.02</ele>
        <time>2018-09-09T10:31:18Z</time>
      </trkpt>
      <trkpt lat="45.21118" lon="6.50884">
        <ele>799.72</ele>
        <time>2018-09-09T10:31:19Z</time>
      </trkpt>
      <trkpt lat="45.21116" lon="6.50912">
        <ele>800.93</ele>
        <time>2018-09-09T10:31:20Z</time>
      </trkpt>
      <trkpt lat="45.21113" lon="6.5094">
        <ele>802.69</ele>
        <time>2018-09-09T10:31:21Z</time>
      </trkpt>
      <trkpt lat="45.21107" lon="6.50968">
        <ele>803.92</ele>
        <time>2018-09-09T10:31:22Z</time>
      </trkpt>
      <trkpt lat="45.21102" lon="6.50995">
        <ele>804.99</ele>
        <time>2018-09-09T10:31:23Z</time>
      </trkpt>
      <trkpt lat="45.21095" lon="6.51021">
        <ele>806.71</ele>
        <time>2018-09-09T10:31:24Z</time>
      </trkpt>
      <trkpt lat="45.21087" lon="6.51047">
        <ele>807.92</ele>
        <time>2018-09-09T10:31:25Z</time>
      </trkpt>
      <trkpt lat="45.21079" lon="6.51073">
        <ele>808.99</ele>
        <time>2018-09-09T10:31:26Z</time>
      </trkpt>
      <trkpt lat="45.21069" lon="6.51099">
        <ele>810.71</ele>
        <time>2018-09-09T10:31:27Z</time>
      </trkpt>
      <trkpt lat="45.2106" lon="6.51125">
        <ele>811.92</ele>
        <time>2018-09-09T10:31:28Z</time>
      </trkpt>
      <trkpt lat="45.21051" lon="6.51152">
        <ele>813.69</ele>
        <time>2018-09-09T10:31:29Z</time>
      </trkpt>
      <trkpt lat="45.21042" lon="6.51179">
        <ele>814.92</ele>
        <time>2018-09-09T10:31:30Z</time>
      </trkpt>
      <trkpt lat="45.21034" lon="6.51205">
        <ele>816.69</ele>
        <time>2018-09-09T10:31:31Z</time>
      </trkpt>
      <trkpt lat="45.21025" lon="6.51231">
        <ele>817.92</ele>
        <time>2018-09-09T10:31:32Z</time>
      </trkpt>
      <trkpt lat="45.21017" lon="6.51259">
        <ele>818.99</ele>
        <time>2018-09-09T10:31:33Z</time>
      </trkpt>
      <trkpt lat="45.2101" lon="6.51286">
        <ele>820.01</ele>
        <time>2018-09-09T10:31:34Z</time>
      </trkpt>
      <trkpt lat="45.21007" lon="6.51315">
        <ele>821.01</ele>
        <time>2018-09-09T10:31:35Z</time>
      </trkpt>
      <trkpt lat="45.21004" lon="6.51343">
        <ele>822.02</ele>
        <time>2018-09-09T10:31:36Z</time>
      </trkpt>
      <trkpt lat="45.21001" lon="6.51372">
        <ele>822.32</ele>
        <time>2018-09-09T10:31:37Z</time>
      </trkpt>
      <trkpt lat="45.20998" lon="6.51401">
        <ele>823.11</ele>
        <time>2018-09-09T10:31:38Z</time>
      </trkpt>
      <trkpt lat="45.20996" lon="6.51429">
        <ele>823.34</ele>
        <time>2018-09-09T10:31:39Z</time>
      </trkpt>
      <trkpt lat="45.20993" lon="6.51458">
        <ele>823.41</ele>
        <time>2018-09-09T10:31:40Z</time>
      </trkpt>
      <trkpt lat="45.20989" lon="6.51486">
        <ele>824.84</ele>
        <time>2018-09-09T10:31:41Z</time>
      </trkpt>
      <trkpt lat="45.20985" lon="6.51514">
        <ele>825.26</ele>
        <time>2018-09-09T10:31:42Z</time>
      </trkpt>
      <trkpt lat="45.20981" lon="6.51543">
        <ele>826.09</ele>
        <time>2018-09-09T10:31:43Z</time>
      </trkpt>
      <trkpt lat="45.20975" lon="6.5157">
        <ele>827.04</ele>
        <time>2018-09-09T10:31:44Z</time>
      </trkpt>
      <trkpt lat="45.20968" lon="6.51598">
        <ele>827.32</ele>
        <time>2018-09-09T10:31:45Z</time>
      </trkpt>
      <trkpt lat="45.20959" lon="6.51624">
        <ele>828.11</ele>
        <time>2018-09-09T10:31:46Z</time>
      </trkpt>
      <trkpt lat="45.2095" lon="6.51648">
        <ele>828.34</ele>
        <time>2018-09-09T10:31:47Z</time>
      </trkpt>
      <trkpt lat="45.20935" lon="6.51692">
        <ele>829.14</ele>
        <time>2018-09-09T10:31:49Z</time>
      </trkpt>
      <trkpt lat="45.20926" lon="6.51736">
        <ele>829.42</ele>
        <time>2018-09-09T10:31:51Z</time>
      </trkpt>
      <trkpt lat="45.2093" lon="6.5178">
        <ele>829.44</ele>
        <time>2018-09-09T10:31:53Z</time>
      </trkpt>
      <trkpt lat="45.20929" lon="6.51828">
        <ele>830.14</ele>
        <time>2018-09-09T10:31:55Z</time>
      </trkpt>
      <trkpt lat="45.2092" lon="6.51877">
        <ele>830.42</ele>
        <time>2018-09-09T10:31:57Z</time>
      </trkpt>
      <trkpt lat="45.20912" lon="6.51902">
        <ele>830.44</ele>
        <time>2018-09-09T10:31:58Z</time>
      </trkpt>
      <trkpt lat="45.20901" lon="6.51926">
        <ele>830.44</ele>
        <time>2018-09-09T10:31:59Z</time>
      </trkpt>
      <trkpt lat="45.2089" lon="6.5195">
        <ele>831.14</ele>
        <time>2018-09-09T10:32:00Z</time>
      </trkpt>
      <trkpt lat="45.20879" lon="6.51975">
        <ele>832.05</ele>
        <time>2018-09-09T10:32:01Z</time>
      </trkpt>
      <trkpt lat="45.20867" lon="6.51999">
        <ele>832.33</ele>
        <time>2018-09-09T10:32:02Z</time>
      </trkpt>
      <trkpt lat="45.20856" lon="6.52023">
        <ele>832.41</ele>
        <time>2018-09-09T10:32:03Z</time>
      </trkpt>
      <trkpt lat="45.20846" lon="6.52047">
        <ele>832.43</ele>
        <time>2018-09-09T10:32:04Z</time>
      </trkpt>
      <trkpt lat="45.20836" lon="6.52072">
        <ele>832.44</ele>
        <time>2018-09-09T10:32:05Z</time>
      </trkpt>
      <trkpt lat="45.20828" lon="6.52098">
        <ele>832.44</ele>
        <time>2018-09-09T10:32:06Z</time>
      </trkpt>
      <trkpt lat="45.20821" lon="6.52124">
        <ele>832.44</ele>
        <time>2018-09-09T10:32:07Z</time>
      </trkpt>
      <trkpt lat="45.20815" lon="6.52151">
        <ele>832.44</ele>
        <time>2018-09-09T10:32:08Z</time>
      </trkpt>
      <trkpt lat="45.20812" lon="6.5218">
        <ele>833.14</ele>
        <time>2018-09-09T10:32:09Z</time>
      </trkpt>
      <trkpt lat="45.20808" lon="6.52207">
        <ele>834.05</ele>
        <time>2018-09-09T10:32:10Z</time>
      </trkpt>
      <trkpt lat="45.20804" lon="6.52236">
        <ele>834.33</ele>
        <time>2018-09-09T10:32:11Z</time>
      </trkpt>
      <trkpt lat="45.20801" lon="6.52265">
        <ele>834.41</ele>
        <time>2018-09-09T10:32:12Z</time>
      </trkpt>
      <trkpt lat="45.20797" lon="6.52292">
        <ele>834.43</ele>
        <time>2018-09-09T10:32:13Z</time>
      </trkpt>
      <trkpt lat="45.20793" lon="6.5232">
        <ele>834.44</ele>
        <time>2018-09-09T10:32:14Z</time>
      </trkpt>
      <trkpt lat="45.2079" lon="6.52349">
        <ele>834.44</ele>
        <time>2018-09-09T10:32:15Z</time>
      </trkpt>
      <trkpt lat="45.20786" lon="6.52376">
        <ele>834.44</ele>
        <time>2018-09-09T10:32:16Z</time>
      </trkpt>
      <trkpt lat="45.20782" lon="6.52404">
        <ele>835.14</ele>
        <time>2018-09-09T10:32:17Z</time>
      </trkpt>
      <trkpt lat="45.20778" lon="6.52431">
        <ele>835.35</ele>
        <time>2018-09-09T10:32:18Z</time>
      </trkpt>
      <trkpt lat="45.20774" lon="6.52459">
        <ele>835.42</ele>
        <time>2018-09-09T10:32:19Z</time>
      </trkpt>
      <trkpt lat="45.2077" lon="6.52486">
        <ele>835.44</ele>
        <time>2018-09-09T10:32:20Z</time>
      </trkpt>
      <trkpt lat="45.20766" lon="6.52514">
        <ele>835.44</ele>
        <time>2018-09-09T10:32:21Z</time>
      </trkpt>
      <trkpt lat="45.20762" lon="6.52542">
        <ele>836.14</ele>
        <time>2018-09-09T10:32:22Z</time>
      </trkpt>
      <trkpt lat="45.20761" lon="6.52569">
        <ele>835.65</ele>
        <time>2018-09-09T10:32:23Z</time>
      </trkpt>
      <trkpt lat="45.20761" lon="6.52597">
        <ele>835.51</ele>
        <time>2018-09-09T10:32:24Z</time>
      </trkpt>
      <trkpt lat="45.20763" lon="6.52624">
        <ele>836.16</ele>
        <time>2018-09-09T10:32:25Z</time>
      </trkpt>
      <trkpt lat="45.20764" lon="6.52651">
        <ele>836.36</ele>
        <time>2018-09-09T10:32:26Z</time>
      </trkpt>
      <trkpt lat="45.20766" lon="6.52679">
        <ele>836.42</ele>
        <time>2018-09-09T10:32:27Z</time>
      </trkpt>
      <trkpt lat="45.20768" lon="6.52707">
        <ele>837.14</ele>
        <time>2018-09-09T10:32:28Z</time>
      </trkpt>
      <trkpt lat="45.20769" lon="6.52735">
        <ele>837.35</ele>
        <time>2018-09-09T10:32:29Z</time>
      </trkpt>
      <trkpt lat="45.2077" lon="6.52762">
        <ele>837.42</ele>
        <time>2018-09-09T10:32:30Z</time>
      </trkpt>
      <trkpt lat="45.20772" lon="6.52789">
        <ele>837.44</ele>
        <time>2018-09-09T10:32:31Z</time>
      </trkpt>
      <trkpt lat="45.20773" lon="6.52817">
        <ele>838.14</ele>
        <time>2018-09-09T10:32:32Z</time>
      </trkpt>
      <trkpt lat="45.20775" lon="6.52845">
        <ele>838.35</ele>
        <time>2018-09-09T10:32:33Z</time>
      </trkpt>
      <trkpt lat="45.20776" lon="6.52873">
        <ele>839.12</ele>
        <time>2018-09-09T10:32:34Z</time>
      </trkpt>
      <trkpt lat="45.20777" lon="6.52901">
        <ele>839.35</ele>
        <time>2018-09-09T10:32:35Z</time>
      </trkpt>
      <trkpt lat="45.20779" lon="6.52929">
        <ele>840.12</ele>
        <time>2018-09-09T10:32:36Z</time>
      </trkpt>
      <trkpt lat="45.20781" lon="6.52956">
        <ele>841.05</ele>
        <time>2018-09-09T10:32:37Z</time>
      </trkpt>
      <trkpt lat="45.20782" lon="6.52983">
        <ele>841.33</ele>
        <time>2018-09-09T10:32:38Z</time>
      </trkpt>
      <trkpt lat="45.20782" lon="6.53011">
        <ele>842.11</ele>
        <time>2018-09-09T10:32:39Z</time>
      </trkpt>
      <trkpt lat="45.20781" lon="6.53039">
        <ele>842.34</ele>
        <time>2018-09-09T10:32:40Z</time>
      </trkpt>
      <trkpt lat="45.20779" lon="6.53066">
        <ele>843.11</ele>
        <time>2018-09-09T10:32:41Z</time>
      </trkpt>
      <trkpt lat="45.20775" lon="6.53093">
        <ele>843.35</ele>
        <time>2018-09-09T10:32:42Z</time>
      </trkpt>
      <trkpt lat="45.20769" lon="6.5312">
        <ele>843.42</ele>
        <time>2018-09-09T10:32:43Z</time>
      </trkpt>
      <trkpt lat="45.20764" lon="6.53146">
        <ele>844.14</ele>
        <time>2018-09-09T10:32:44Z</time>
      </trkpt>
      <trkpt lat="45.20757" lon="6.53173">
        <ele>844.35</ele>
        <time>2018-09-09T10:32:45Z</time>
      </trkpt>
      <trkpt lat="45.20753" lon="6.53199">
        <ele>845.12</ele>
        <time>2018-09-09T10:32:46Z</time>
      </trkpt>
      <trkpt lat="45.20753" lon="6.53251">
        <ele>846.12</ele>
        <time>2018-09-09T10:32:48Z</time>
      </trkpt>
      <trkpt lat="45.20755" lon="6.53279">
        <ele>846.35</ele>
        <time>2018-09-09T10:32:49Z</time>
      </trkpt>
      <trkpt lat="45.20756" lon="6.53306">
        <ele>847.12</ele>
        <time>2018-09-09T10:32:50Z</time>
      </trkpt>
      <trkpt lat="45.20758" lon="6.53335">
        <ele>847.35</ele>
        <time>2018-09-09T10:32:51Z</time>
      </trkpt>
      <trkpt lat="45.20759" lon="6.53363">
        <ele>847.42</ele>
        <time>2018-09-09T10:32:52Z</time>
      </trkpt>
      <trkpt lat="45.2076" lon="6.53392">
        <ele>847.44</ele>
        <time>2018-09-09T10:32:53Z</time>
      </trkpt>
      <trkpt lat="45.20761" lon="6.53419">
        <ele>847.44</ele>
        <time>2018-09-09T10:32:54Z</time>
      </trkpt>
      <trkpt lat="45.20763" lon="6.53446">
        <ele>847.44</ele>
        <time>2018-09-09T10:32:55Z</time>
      </trkpt>
      <trkpt lat="45.20765" lon="6.53474">
        <ele>847.44</ele>
        <time>2018-09-09T10:32:56Z</time>
      </trkpt>
      <trkpt lat="45.20767" lon="6.53503">
        <ele>848.14</ele>
        <time>2018-09-09T10:32:57Z</time>
      </trkpt>
      <trkpt lat="45.20768" lon="6.53531">
        <ele>849.76</ele>
        <time>2018-09-09T10:32:58Z</time>
      </trkpt>
      <trkpt lat="45.20767" lon="6.53559">
        <ele>850.94</ele>
        <time>2018-09-09T10:32:59Z</time>
      </trkpt>
      <trkpt lat="45.20765" lon="6.53587">
        <ele>852.69</ele>
        <time>2018-09-09T10:33:00Z</time>
      </trkpt>
      <trkpt lat="45.20762" lon="6.53615">
        <ele>853.92</ele>
        <time>2018-09-09T10:33:01Z</time>
      </trkpt>
      <trkpt lat="45.20756" lon="6.53642">
        <ele>854.99</ele>
        <time>2018-09-09T10:33:02Z</time>
      </trkpt>
      <trkpt lat="45.20752" lon="6.53669">
        <ele>856.01</ele>
        <time>2018-09-09T10:33:03Z</time>
      </trkpt>
      <trkpt lat="45.20747" lon="6.53697">
        <ele>856.31</ele>
        <time>2018-09-09T10:33:04Z</time>
      </trkpt>
      <trkpt lat="45.20743" lon="6.53725">
        <ele>856.41</ele>
        <time>2018-09-09T10:33:05Z</time>
      </trkpt>
      <trkpt lat="45.20738" lon="6.53752">
        <ele>857.13</ele>
        <time>2018-09-09T10:33:06Z</time>
      </trkpt>
      <trkpt lat="45.20733" lon="6.5378">
        <ele>858.05</ele>
        <time>2018-09-09T10:33:07Z</time>
      </trkpt>
      <trkpt lat="45.20728" lon="6.53808">
        <ele>859.03</ele>
        <time>2018-09-09T10:33:08Z</time>
      </trkpt>
      <trkpt lat="45.20723" lon="6.53836">
        <ele>860.02</ele>
        <time>2018-09-09T10:33:09Z</time>
      </trkpt>
      <trkpt lat="45.20717" lon="6.53863">
        <ele>860.32</ele>
        <time>2018-09-09T10:33:10Z</time>
      </trkpt>
      <trkpt lat="45.20711" lon="6.5389">
        <ele>861.81</ele>
        <time>2018-09-09T10:33:11Z</time>
      </trkpt>
      <trkpt lat="45.20707" lon="6.53917">
        <ele>861.55</ele>
        <time>2018-09-09T10:33:12Z</time>
      </trkpt>
      <trkpt lat="45.20706" lon="6.53945">
        <ele>861.48</ele>
        <time>2018-09-09T10:33:13Z</time>
      </trkpt>
      <trkpt lat="45.20707" lon="6.53973">
        <ele>862.15</ele>
        <time>2018-09-09T10:33:14Z</time>
      </trkpt>
      <trkpt lat="45.20709" lon="6.54003">
        <ele>863.06</ele>
        <time>2018-09-09T10:33:15Z</time>
      </trkpt>
      <trkpt lat="45.20711" lon="6.54031">
        <ele>863.33</ele>
        <time>2018-09-09T10:33:16Z</time>
      </trkpt>
      <trkpt lat="45.20712" lon="6.54059">
        <ele>864.11</ele>
        <time>2018-09-09T10:33:17Z</time>
      </trkpt>
      <trkpt lat="45.20712" lon="6.54087">
        <ele>864.34</ele>
        <time>2018-09-09T10:33:18Z</time>
      </trkpt>
      <trkpt lat="45.2071" lon="6.54115">
        <ele>865.11</ele>
        <time>2018-09-09T10:33:19Z</time>
      </trkpt>
      <trkpt lat="45.20707" lon="6.54142">
        <ele>865.35</ele>
        <time>2018-09-09T10:33:20Z</time>
      </trkpt>
      <trkpt lat="45.20704" lon="6.54168">
        <ele>866.12</ele>
        <time>2018-09-09T10:33:21Z</time>
      </trkpt>
      <trkpt lat="45.20702" lon="6.54194">
        <ele>867.05</ele>
        <time>2018-09-09T10:33:22Z</time>
      </trkpt>
      <trkpt lat="45.20704" lon="6.54245">
        <ele>868.32</ele>
        <time>2018-09-09T10:33:24Z</time>
      </trkpt>
      <trkpt lat="45.20711" lon="6.54293">
        <ele>870.25</ele>
        <time>2018-09-09T10:33:26Z</time>
      </trkpt>
      <trkpt lat="45.20721" lon="6.5434">
        <ele>871.13</ele>
        <time>2018-09-09T10:33:28Z</time>
      </trkpt>
      <trkpt lat="45.2073" lon="6.54386">
        <ele>871.42</ele>
        <time>2018-09-09T10:33:30Z</time>
      </trkpt>
      <trkpt lat="45.20739" lon="6.54432">
        <ele>873.05</ele>
        <time>2018-09-09T10:33:32Z</time>
      </trkpt>
      <trkpt lat="45.20746" lon="6.5448">
        <ele>875.02</ele>
        <time>2018-09-09T10:33:34Z</time>
      </trkpt>
      <trkpt lat="45.20748" lon="6.5453">
        <ele>876.32</ele>
        <time>2018-09-09T10:33:36Z</time>
      </trkpt>
      <trkpt lat="45.20748" lon="6.54555">
        <ele>877.11</ele>
        <time>2018-09-09T10:33:37Z</time>
      </trkpt>
      <trkpt lat="45.20747" lon="6.54606">
        <ele>878.11</ele>
        <time>2018-09-09T10:33:39Z</time>
      </trkpt>
      <trkpt lat="45.20746" lon="6.54632">
        <ele>879.05</ele>
        <time>2018-09-09T10:33:40Z</time>
      </trkpt>
      <trkpt lat="45.20744" lon="6.54684">
        <ele>879.41</ele>
        <time>2018-09-09T10:33:42Z</time>
      </trkpt>
      <trkpt lat="45.20743" lon="6.5471">
        <ele>880.13</ele>
        <time>2018-09-09T10:33:43Z</time>
      </trkpt>
      <trkpt lat="45.20742" lon="6.54737">
        <ele>880.35</ele>
        <time>2018-09-09T10:33:44Z</time>
      </trkpt>
      <trkpt lat="45.2074" lon="6.54763">
        <ele>880.42</ele>
        <time>2018-09-09T10:33:45Z</time>
      </trkpt>
      <trkpt lat="45.20738" lon="6.54789">
        <ele>881.14</ele>
        <time>2018-09-09T10:33:46Z</time>
      </trkpt>
      <trkpt lat="45.20737" lon="6.54816">
        <ele>881.35</ele>
        <time>2018-09-09T10:33:47Z</time>
      </trkpt>
      <trkpt lat="45.20734" lon="6.54843">
        <ele>882.12</ele>
        <time>2018-09-09T10:33:48Z</time>
      </trkpt>
      <trkpt lat="45.20732" lon="6.54868">
        <ele>882.35</ele>
        <time>2018-09-09T10:33:49Z</time>
      </trkpt>
      <trkpt lat="45.20731" lon="6.54895">
        <ele>882.42</ele>
        <time>2018-09-09T10:33:50Z</time>
      </trkpt>
      <trkpt lat="45.20729" lon="6.5492">
        <ele>883.14</ele>
        <time>2018-09-09T10:33:51Z</time>
      </trkpt>
      <trkpt lat="45.20726" lon="6.54946">
        <ele>883.35</ele>
        <time>2018-09-09T10:33:52Z</time>
      </trkpt>
      <trkpt lat="45.20721" lon="6.54971">
        <ele>884.12</ele>
        <time>2018-09-09T10:33:53Z</time>
      </trkpt>
      <trkpt lat="45.20711" lon="6.55009">
        <ele>886.94</ele>
        <time>2018-09-09T10:33:55Z</time>
      </trkpt>
      <trkpt lat="45.20709" lon="6.55049">
        <ele>888.1</ele>
        <time>2018-09-09T10:33:57Z</time>
      </trkpt>
      <trkpt lat="45.20712" lon="6.55093">
        <ele>887.5</ele>
        <time>2018-09-09T10:33:59Z</time>
      </trkpt>
      <trkpt lat="45.2071" lon="6.55119">
        <ele>888.16</ele>
        <time>2018-09-09T10:34:00Z</time>
      </trkpt>
      <trkpt lat="45.20707" lon="6.55148">
        <ele>888.36</ele>
        <time>2018-09-09T10:34:01Z</time>
      </trkpt>
      <trkpt lat="45.20703" lon="6.5518">
        <ele>889.12</ele>
        <time>2018-09-09T10:34:02Z</time>
      </trkpt>
      <trkpt lat="45.20698" lon="6.55213">
        <ele>889.35</ele>
        <time>2018-09-09T10:34:03Z</time>
      </trkpt>
      <trkpt lat="45.20694" lon="6.55247">
        <ele>890.12</ele>
        <time>2018-09-09T10:34:04Z</time>
      </trkpt>
      <trkpt lat="45.20689" lon="6.55281">
        <ele>890.35</ele>
        <time>2018-09-09T10:34:05Z</time>
      </trkpt>
      <trkpt lat="45.20684" lon="6.55317">
        <ele>890.42</ele>
        <time>2018-09-09T10:34:06Z</time>
      </trkpt>
      <trkpt lat="45.2068" lon="6.55351">
        <ele>891.14</ele>
        <time>2018-09-09T10:34:07Z</time>
      </trkpt>
      <trkpt lat="45.20676" lon="6.55384">
        <ele>892.05</ele>
        <time>2018-09-09T10:34:08Z</time>
      </trkpt>
      <trkpt lat="45.20672" lon="6.55417">
        <ele>893.03</ele>
        <time>2018-09-09T10:34:09Z</time>
      </trkpt>
      <trkpt lat="45.20668" lon="6.5545">
        <ele>894.72</ele>
        <time>2018-09-09T10:34:10Z</time>
      </trkpt>
      <trkpt lat="45.20664" lon="6.55483">
        <ele>896.63</ele>
        <time>2018-09-09T10:34:11Z</time>
      </trkpt>
      <trkpt lat="45.20663" lon="6.55515">
        <ele>897.9</ele>
        <time>2018-09-09T10:34:12Z</time>
      </trkpt>
      <trkpt lat="45.20664" lon="6.55546">
        <ele>899.68</ele>
        <time>2018-09-09T10:34:13Z</time>
      </trkpt>
      <trkpt lat="45.20667" lon="6.55578">
        <ele>901.62</ele>
        <time>2018-09-09T10:34:14Z</time>
      </trkpt>
      <trkpt lat="45.20671" lon="6.55608">
        <ele>902.9</ele>
        <time>2018-09-09T10:34:15Z</time>
      </trkpt>
      <trkpt lat="45.20678" lon="6.55639">
        <ele>903.98</ele>
        <time>2018-09-09T10:34:16Z</time>
      </trkpt>
      <trkpt lat="45.20684" lon="6.5567">
        <ele>904.31</ele>
        <time>2018-09-09T10:34:17Z</time>
      </trkpt>
      <trkpt lat="45.20691" lon="6.55701">
        <ele>905.1</ele>
        <time>2018-09-09T10:34:18Z</time>
      </trkpt>
      <trkpt lat="45.20697" lon="6.55732">
        <ele>906.04</ele>
        <time>2018-09-09T10:34:19Z</time>
      </trkpt>
      <trkpt lat="45.20702" lon="6.55762">
        <ele>907.72</ele>
        <time>2018-09-09T10:34:20Z</time>
      </trkpt>
      <trkpt lat="45.20705" lon="6.55793">
        <ele>908.23</ele>
        <time>2018-09-09T10:34:21Z</time>
      </trkpt>
      <trkpt lat="45.20704" lon="6.55822">
        <ele>909.78</ele>
        <time>2018-09-09T10:34:22Z</time>
      </trkpt>
      <trkpt lat="45.20702" lon="6.55852">
        <ele>910.25</ele>
        <time>2018-09-09T10:34:23Z</time>
      </trkpt>
      <trkpt lat="45.20698" lon="6.5588">
        <ele>911.09</ele>
        <time>2018-09-09T10:34:24Z</time>
      </trkpt>
      <trkpt lat="45.20693" lon="6.55908">
        <ele>911.34</ele>
        <time>2018-09-09T10:34:25Z</time>
      </trkpt>
      <trkpt lat="45.20688" lon="6.55937">
        <ele>911.41</ele>
        <time>2018-09-09T10:34:26Z</time>
      </trkpt>
      <trkpt lat="45.20685" lon="6.55967">
        <ele>911.44</ele>
        <time>2018-09-09T10:34:27Z</time>
      </trkpt>
      <trkpt lat="45.20684" lon="6.55997">
        <ele>911.44</ele>
        <time>2018-09-09T10:34:28Z</time>
      </trkpt>
      <trkpt lat="45.20684" lon="6.56025">
        <ele>912.14</ele>
        <time>2018-09-09T10:34:29Z</time>
      </trkpt>
      <trkpt lat="45.20685" lon="6.56053">
        <ele>912.35</ele>
        <time>2018-09-09T10:34:30Z</time>
      </trkpt>
      <trkpt lat="45.20698" lon="6.56081">
        <ele>913.12</ele>
        <time>2018-09-09T10:34:31Z</time>
      </trkpt>
      <trkpt lat="45.20706" lon="6.56108">
        <ele>914.05</ele>
        <time>2018-09-09T10:34:32Z</time>
      </trkpt>
      <trkpt lat="45.2071" lon="6.56136">
        <ele>913.63</ele>
        <time>2018-09-09T10:34:33Z</time>
      </trkpt>
      <trkpt lat="45.20713" lon="6.56166">
        <ele>914.2</ele>
        <time>2018-09-09T10:34:34Z</time>
      </trkpt>
      <trkpt lat="45.20715" lon="6.56193">
        <ele>914.37</ele>
        <time>2018-09-09T10:34:35Z</time>
      </trkpt>
      <trkpt lat="45.20719" lon="6.5622">
        <ele>915.12</ele>
        <time>2018-09-09T10:34:36Z</time>
      </trkpt>
      <trkpt lat="45.20722" lon="6.56246">
        <ele>916.05</ele>
        <time>2018-09-09T10:34:37Z</time>
      </trkpt>
      <trkpt lat="45.20729" lon="6.56272">
        <ele>916.33</ele>
        <time>2018-09-09T10:34:38Z</time>
      </trkpt>
      <trkpt lat="45.20735" lon="6.56299">
        <ele>917.11</ele>
        <time>2018-09-09T10:34:39Z</time>
      </trkpt>
      <trkpt lat="45.20741" lon="6.56327">
        <ele>916.64</ele>
        <time>2018-09-09T10:34:40Z</time>
      </trkpt>
      <trkpt lat="45.20744" lon="6.56355">
        <ele>917.2</ele>
        <time>2018-09-09T10:34:41Z</time>
      </trkpt>
      <trkpt lat="45.20745" lon="6.56383">
        <ele>917.37</ele>
        <time>2018-09-09T10:34:42Z</time>
      </trkpt>
      <trkpt lat="45.20742" lon="6.5641">
        <ele>918.12</ele>
        <time>2018-09-09T10:34:43Z</time>
      </trkpt>
      <trkpt lat="45.20738" lon="6.56436">
        <ele>919.05</ele>
        <time>2018-09-09T10:34:44Z</time>
      </trkpt>
      <trkpt lat="45.20733" lon="6.56462">
        <ele>919.33</ele>
        <time>2018-09-09T10:34:45Z</time>
      </trkpt>
      <trkpt lat="45.20725" lon="6.56487">
        <ele>919.41</ele>
        <time>2018-09-09T10:34:46Z</time>
      </trkpt>
      <trkpt lat="45.20717" lon="6.56513">
        <ele>920.13</ele>
        <time>2018-09-09T10:34:47Z</time>
      </trkpt>
      <trkpt lat="45.20709" lon="6.56539">
        <ele>920.35</ele>
        <time>2018-09-09T10:34:48Z</time>
      </trkpt>
      <trkpt lat="45.20705" lon="6.56565">
        <ele>921.12</ele>
        <time>2018-09-09T10:34:49Z</time>
      </trkpt>
      <trkpt lat="45.20703" lon="6.56593">
        <ele>921.35</ele>
        <time>2018-09-09T10:34:50Z</time>
      </trkpt>
      <trkpt lat="45.20702" lon="6.56621">
        <ele>922.12</ele>
        <time>2018-09-09T10:34:51Z</time>
      </trkpt>
      <trkpt lat="45.20702" lon="6.56649">
        <ele>922.35</ele>
        <time>2018-09-09T10:34:52Z</time>
      </trkpt>
      <trkpt lat="45.20702" lon="6.56678">
        <ele>922.42</ele>
        <time>2018-09-09T10:34:53Z</time>
      </trkpt>
      <trkpt lat="45.20702" lon="6.56706">
        <ele>923.14</ele>
        <time>2018-09-09T10:34:54Z</time>
      </trkpt>
      <trkpt lat="45.20701" lon="6.56736">
        <ele>923.35</ele>
        <time>2018-09-09T10:34:55Z</time>
      </trkpt>
      <trkpt lat="45.20699" lon="6.56766">
        <ele>924.12</ele>
        <time>2018-09-09T10:34:56Z</time>
      </trkpt>
      <trkpt lat="45.20696" lon="6.56795">
        <ele>924.35</ele>
        <time>2018-09-09T10:34:57Z</time>
      </trkpt>
      <trkpt lat="45.20692" lon="6.56825">
        <ele>925.12</ele>
        <time>2018-09-09T10:34:58Z</time>
      </trkpt>
      <trkpt lat="45.20689" lon="6.56854">
        <ele>925.35</ele>
        <time>2018-09-09T10:34:59Z</time>
      </trkpt>
      <trkpt lat="45.20684" lon="6.56883">
        <ele>926.12</ele>
        <time>2018-09-09T10:35:00Z</time>
      </trkpt>
      <trkpt lat="45.2068" lon="6.56913">
        <ele>926.35</ele>
        <time>2018-09-09T10:35:01Z</time>
      </trkpt>
      <trkpt lat="45.20675" lon="6.56942">
        <ele>926.42</ele>
        <time>2018-09-09T10:35:02Z</time>
      </trkpt>
      <trkpt lat="45.20671" lon="6.5697">
        <ele>926.44</ele>
        <time>2018-09-09T10:35:03Z</time>
      </trkpt>
      <trkpt lat="45.20666" lon="6.57">
        <ele>926.44</ele>
        <time>2018-09-09T10:35:04Z</time>
      </trkpt>
      <trkpt lat="45.20661" lon="6.57028">
        <ele>927.14</ele>
        <time>2018-09-09T10:35:05Z</time>
      </trkpt>
      <trkpt lat="45.20656" lon="6.57057">
        <ele>927.35</ele>
        <time>2018-09-09T10:35:06Z</time>
      </trkpt>
      <trkpt lat="45.20651" lon="6.57086">
        <ele>927.42</ele>
        <time>2018-09-09T10:35:07Z</time>
      </trkpt>
      <trkpt lat="45.20647" lon="6.57114">
        <ele>927.44</ele>
        <time>2018-09-09T10:35:08Z</time>
      </trkpt>
      <trkpt lat="45.20642" lon="6.57143">
        <ele>927.44</ele>
        <time>2018-09-09T10:35:09Z</time>
      </trkpt>
      <trkpt lat="45.20637" lon="6.57171">
        <ele>927.44</ele>
        <time>2018-09-09T10:35:10Z</time>
      </trkpt>
      <trkpt lat="45.20633" lon="6.572">
        <ele>927.44</ele>
        <time>2018-09-09T10:35:11Z</time>
      </trkpt>
      <trkpt lat="45.20629" lon="6.57228">
        <ele>927.44</ele>
        <time>2018-09-09T10:35:12Z</time>
      </trkpt>
      <trkpt lat="45.20624" lon="6.57255">
        <ele>926.74</ele>
        <time>2018-09-09T10:35:13Z</time>
      </trkpt>
      <trkpt lat="45.2062" lon="6.57283">
        <ele>926.53</ele>
        <time>2018-09-09T10:35:14Z</time>
      </trkpt>
      <trkpt lat="45.20615" lon="6.57311">
        <ele>926.47</ele>
        <time>2018-09-09T10:35:15Z</time>
      </trkpt>
      <trkpt lat="45.20611" lon="6.5734">
        <ele>926.45</ele>
        <time>2018-09-09T10:35:16Z</time>
      </trkpt>
      <trkpt lat="45.20607" lon="6.57368">
        <ele>927.15</ele>
        <time>2018-09-09T10:35:17Z</time>
      </trkpt>
      <trkpt lat="45.20602" lon="6.57396">
        <ele>927.36</ele>
        <time>2018-09-09T10:35:18Z</time>
      </trkpt>
      <trkpt lat="45.20599" lon="6.57425">
        <ele>927.42</ele>
        <time>2018-09-09T10:35:19Z</time>
      </trkpt>
      <trkpt lat="45.20594" lon="6.57452">
        <ele>927.44</ele>
        <time>2018-09-09T10:35:20Z</time>
      </trkpt>
      <trkpt lat="45.20589" lon="6.57479">
        <ele>927.44</ele>
        <time>2018-09-09T10:35:21Z</time>
      </trkpt>
      <trkpt lat="45.20585" lon="6.57507">
        <ele>927.44</ele>
        <time>2018-09-09T10:35:22Z</time>
      </trkpt>
      <trkpt lat="45.2058" lon="6.57535">
        <ele>928.14</ele>
        <time>2018-09-09T10:35:23Z</time>
      </trkpt>
      <trkpt lat="45.20576" lon="6.57563">
        <ele>928.35</ele>
        <time>2018-09-09T10:35:24Z</time>
      </trkpt>
      <trkpt lat="45.20571" lon="6.57591">
        <ele>928.42</ele>
        <time>2018-09-09T10:35:25Z</time>
      </trkpt>
      <trkpt lat="45.20566" lon="6.57619">
        <ele>928.44</ele>
        <time>2018-09-09T10:35:26Z</time>
      </trkpt>
      <trkpt lat="45.20561" lon="6.57647">
        <ele>929.14</ele>
        <time>2018-09-09T10:35:27Z</time>
      </trkpt>
      <trkpt lat="45.20556" lon="6.57675">
        <ele>929.35</ele>
        <time>2018-09-09T10:35:28Z</time>
      </trkpt>
      <trkpt lat="45.20552" lon="6.57703">
        <ele>929.42</ele>
        <time>2018-09-09T10:35:29Z</time>
      </trkpt>
      <trkpt lat="45.20547" lon="6.57731">
        <ele>929.44</ele>
        <time>2018-09-09T10:35:30Z</time>
      </trkpt>
      <trkpt lat="45.20542" lon="6.5776">
        <ele>929.44</ele>
        <time>2018-09-09T10:35:31Z</time>
      </trkpt>
      <trkpt lat="45.20537" lon="6.57789">
        <ele>929.44</ele>
        <time>2018-09-09T10:35:32Z</time>
      </trkpt>
      <trkpt lat="45.20532" lon="6.57817">
        <ele>929.44</ele>
        <time>2018-09-09T10:35:33Z</time>
      </trkpt>
      <trkpt lat="45.20527" lon="6.57846">
        <ele>930.14</ele>
        <time>2018-09-09T10:35:34Z</time>
      </trkpt>
      <trkpt lat="45.20522" lon="6.57875">
        <ele>929.65</ele>
        <time>2018-09-09T10:35:35Z</time>
      </trkpt>
      <trkpt lat="45.20516" lon="6.57902">
        <ele>929.51</ele>
        <time>2018-09-09T10:35:36Z</time>
      </trkpt>
      <trkpt lat="45.20509" lon="6.5793">
        <ele>929.46</ele>
        <time>2018-09-09T10:35:37Z</time>
      </trkpt>
      <trkpt lat="45.20501" lon="6.57956">
        <ele>929.45</ele>
        <time>2018-09-09T10:35:38Z</time>
      </trkpt>
      <trkpt lat="45.20493" lon="6.57982">
        <ele>929.45</ele>
        <time>2018-09-09T10:35:39Z</time>
      </trkpt>
      <trkpt lat="45.20485" lon="6.58007">
        <ele>929.45</ele>
        <time>2018-09-09T10:35:40Z</time>
      </trkpt>
      <trkpt lat="45.20476" lon="6.58032">
        <ele>930.15</ele>
        <time>2018-09-09T10:35:41Z</time>
      </trkpt>
      <trkpt lat="45.20466" lon="6.58057">
        <ele>931.06</ele>
        <time>2018-09-09T10:35:42Z</time>
      </trkpt>
      <trkpt lat="45.20456" lon="6.58081">
        <ele>931.33</ele>
        <time>2018-09-09T10:35:43Z</time>
      </trkpt>
      <trkpt lat="45.20446" lon="6.58106">
        <ele>932.11</ele>
        <time>2018-09-09T10:35:44Z</time>
      </trkpt>
      <trkpt lat="45.20437" lon="6.58131">
        <ele>932.34</ele>
        <time>2018-09-09T10:35:45Z</time>
      </trkpt>
      <trkpt lat="45.20427" lon="6.58156">
        <ele>932.41</ele>
        <time>2018-09-09T10:35:46Z</time>
      </trkpt>
      <trkpt lat="45.20417" lon="6.58182">
        <ele>933.14</ele>
        <time>2018-09-09T10:35:47Z</time>
      </trkpt>
      <trkpt lat="45.20407" lon="6.58207">
        <ele>934.05</ele>
        <time>2018-09-09T10:35:48Z</time>
      </trkpt>
      <trkpt lat="45.20397" lon="6.58231">
        <ele>934.33</ele>
        <time>2018-09-09T10:35:49Z</time>
      </trkpt>
      <trkpt lat="45.20387" lon="6.58256">
        <ele>934.41</ele>
        <time>2018-09-09T10:35:50Z</time>
      </trkpt>
      <trkpt lat="45.20376" lon="6.58281">
        <ele>935.13</ele>
        <time>2018-09-09T10:35:51Z</time>
      </trkpt>
      <trkpt lat="45.20366" lon="6.58307">
        <ele>936.05</ele>
        <time>2018-09-09T10:35:52Z</time>
      </trkpt>
      <trkpt lat="45.20357" lon="6.58332">
        <ele>937.03</ele>
        <time>2018-09-09T10:35:53Z</time>
      </trkpt>
      <trkpt lat="45.20347" lon="6.58359">
        <ele>938.02</ele>
        <time>2018-09-09T10:35:54Z</time>
      </trkpt>
      <trkpt lat="45.20339" lon="6.58386">
        <ele>938.32</ele>
        <time>2018-09-09T10:35:55Z</time>
      </trkpt>
      <trkpt lat="45.20332" lon="6.58413">
        <ele>938.41</ele>
        <time>2018-09-09T10:35:56Z</time>
      </trkpt>
      <trkpt lat="45.20324" lon="6.58442">
        <ele>938.43</ele>
        <time>2018-09-09T10:35:57Z</time>
      </trkpt>
      <trkpt lat="45.20317" lon="6.58469">
        <ele>939.14</ele>
        <time>2018-09-09T10:35:58Z</time>
      </trkpt>
      <trkpt lat="45.2031" lon="6.58496">
        <ele>939.35</ele>
        <time>2018-09-09T10:35:59Z</time>
      </trkpt>
      <trkpt lat="45.20303" lon="6.58523">
        <ele>940.12</ele>
        <time>2018-09-09T10:36:00Z</time>
      </trkpt>
      <trkpt lat="45.20297" lon="6.58551">
        <ele>940.35</ele>
        <time>2018-09-09T10:36:01Z</time>
      </trkpt>
      <trkpt lat="45.2029" lon="6.58578">
        <ele>940.42</ele>
        <time>2018-09-09T10:36:02Z</time>
      </trkpt>
      <trkpt lat="45.20283" lon="6.58605">
        <ele>940.44</ele>
        <time>2018-09-09T10:36:03Z</time>
      </trkpt>
      <trkpt lat="45.20276" lon="6.58632">
        <ele>941.14</ele>
        <time>2018-09-09T10:36:04Z</time>
      </trkpt>
      <trkpt lat="45.20269" lon="6.58658">
        <ele>941.35</ele>
        <time>2018-09-09T10:36:05Z</time>
      </trkpt>
      <trkpt lat="45.20261" lon="6.58684">
        <ele>941.42</ele>
        <time>2018-09-09T10:36:06Z</time>
      </trkpt>
      <trkpt lat="45.20253" lon="6.58709">
        <ele>941.44</ele>
        <time>2018-09-09T10:36:07Z</time>
      </trkpt>
      <trkpt lat="45.20243" lon="6.58733">
        <ele>942.84</ele>
        <time>2018-09-09T10:36:08Z</time>
      </trkpt>
      <trkpt lat="45.20232" lon="6.58757">
        <ele>943.96</ele>
        <time>2018-09-09T10:36:09Z</time>
      </trkpt>
      <trkpt lat="45.20221" lon="6.5878">
        <ele>945</ele>
        <time>2018-09-09T10:36:10Z</time>
      </trkpt>
      <trkpt lat="45.20209" lon="6.58804">
        <ele>946.71</ele>
        <time>2018-09-09T10:36:11Z</time>
      </trkpt>
      <trkpt lat="45.20198" lon="6.58828">
        <ele>947.93</ele>
        <time>2018-09-09T10:36:12Z</time>
      </trkpt>
      <trkpt lat="45.20189" lon="6.58854">
        <ele>948.99</ele>
        <time>2018-09-09T10:36:13Z</time>
      </trkpt>
      <trkpt lat="45.20181" lon="6.58881">
        <ele>950.01</ele>
        <time>2018-09-09T10:36:14Z</time>
      </trkpt>
      <trkpt lat="45.20175" lon="6.58909">
        <ele>951.71</ele>
        <time>2018-09-09T10:36:15Z</time>
      </trkpt>
      <trkpt lat="45.20171" lon="6.58938">
        <ele>952.23</ele>
        <time>2018-09-09T10:36:16Z</time>
      </trkpt>
      <trkpt lat="45.20167" lon="6.58966">
        <ele>953.08</ele>
        <time>2018-09-09T10:36:17Z</time>
      </trkpt>
      <trkpt lat="45.20164" lon="6.58995">
        <ele>954.04</ele>
        <time>2018-09-09T10:36:18Z</time>
      </trkpt>
      <trkpt lat="45.20161" lon="6.59024">
        <ele>954.32</ele>
        <time>2018-09-09T10:36:19Z</time>
      </trkpt>
      <trkpt lat="45.20158" lon="6.59053">
        <ele>954.41</ele>
        <time>2018-09-09T10:36:20Z</time>
      </trkpt>
      <trkpt lat="45.20155" lon="6.59081">
        <ele>954.43</ele>
        <time>2018-09-09T10:36:21Z</time>
      </trkpt>
      <trkpt lat="45.20152" lon="6.59108">
        <ele>954.44</ele>
        <time>2018-09-09T10:36:22Z</time>
      </trkpt>
      <trkpt lat="45.20149" lon="6.59134">
        <ele>955.14</ele>
        <time>2018-09-09T10:36:23Z</time>
      </trkpt>
      <trkpt lat="45.20145" lon="6.5916">
        <ele>954.65</ele>
        <time>2018-09-09T10:36:24Z</time>
      </trkpt>
      <trkpt lat="45.2014" lon="6.59184">
        <ele>955.21</ele>
        <time>2018-09-09T10:36:25Z</time>
      </trkpt>
      <trkpt lat="45.20131" lon="6.59226">
        <ele>954.51</ele>
        <time>2018-09-09T10:36:27Z</time>
      </trkpt>
      <trkpt lat="45.20122" lon="6.59252">
        <ele>954.45</ele>
        <time>2018-09-09T10:36:29Z</time>
      </trkpt>
      <trkpt lat="45.20116" lon="6.59283">
        <ele>956.45</ele>
        <time>2018-09-09T10:36:57Z</time>
      </trkpt>
      <trkpt lat="45.20117" lon="6.5931">
        <ele>955.33</ele>
        <time>2018-09-09T10:37:00Z</time>
      </trkpt>
      <trkpt lat="45.20125" lon="6.59335">
        <ele>951.74</ele>
        <time>2018-09-09T10:37:39Z</time>
      </trkpt>
      <trkpt lat="45.20116" lon="6.59309">
        <ele>948.51</ele>
        <time>2018-09-09T10:37:55Z</time>
      </trkpt>
      <trkpt lat="45.20102" lon="6.59326">
        <ele>949.57</ele>
        <time>2018-09-09T10:38:00Z</time>
      </trkpt>
      <trkpt lat="45.20094" lon="6.59349">
        <ele>950.16</ele>
        <time>2018-09-09T10:38:02Z</time>
      </trkpt>
      <trkpt lat="45.20085" lon="6.59372">
        <ele>951.12</ele>
        <time>2018-09-09T10:38:04Z</time>
      </trkpt>
      <trkpt lat="45.20078" lon="6.59396">
        <ele>952.33</ele>
        <time>2018-09-09T10:38:06Z</time>
      </trkpt>
      <trkpt lat="45.20069" lon="6.5942">
        <ele>952.43</ele>
        <time>2018-09-09T10:38:08Z</time>
      </trkpt>
      <trkpt lat="45.20063" lon="6.59446">
        <ele>953.14</ele>
        <time>2018-09-09T10:38:11Z</time>
      </trkpt>
      <trkpt lat="45.20054" lon="6.59471">
        <ele>953.06</ele>
        <time>2018-09-09T10:38:37Z</time>
      </trkpt>
      <trkpt lat="45.20045" lon="6.59495">
        <ele>952.5</ele>
        <time>2018-09-09T10:38:39Z</time>
      </trkpt>
      <trkpt lat="45.20032" lon="6.59538">
        <ele>954.97</ele>
        <time>2018-09-09T10:38:41Z</time>
      </trkpt>
      <trkpt lat="45.20024" lon="6.59586">
        <ele>956.1</ele>
        <time>2018-09-09T10:38:43Z</time>
      </trkpt>
      <trkpt lat="45.20021" lon="6.59613">
        <ele>955.64</ele>
        <time>2018-09-09T10:38:44Z</time>
      </trkpt>
      <trkpt lat="45.20019" lon="6.59639">
        <ele>956.9</ele>
        <time>2018-09-09T10:38:45Z</time>
      </trkpt>
      <trkpt lat="45.20017" lon="6.59665">
        <ele>957.28</ele>
        <time>2018-09-09T10:38:46Z</time>
      </trkpt>
      <trkpt lat="45.20017" lon="6.59691">
        <ele>957.4</ele>
        <time>2018-09-09T10:38:47Z</time>
      </trkpt>
      <trkpt lat="45.20019" lon="6.59717">
        <ele>958.13</ele>
        <time>2018-09-09T10:38:48Z</time>
      </trkpt>
      <trkpt lat="45.20022" lon="6.59743">
        <ele>959.05</ele>
        <time>2018-09-09T10:38:49Z</time>
      </trkpt>
      <trkpt lat="45.20026" lon="6.59793">
        <ele>960.11</ele>
        <time>2018-09-09T10:38:51Z</time>
      </trkpt>
      <trkpt lat="45.20024" lon="6.59819">
        <ele>961.04</ele>
        <time>2018-09-09T10:38:52Z</time>
      </trkpt>
      <trkpt lat="45.20022" lon="6.59845">
        <ele>962.02</ele>
        <time>2018-09-09T10:38:53Z</time>
      </trkpt>
      <trkpt lat="45.20018" lon="6.59873">
        <ele>962.32</ele>
        <time>2018-09-09T10:38:54Z</time>
      </trkpt>
      <trkpt lat="45.20011" lon="6.59899">
        <ele>963.11</ele>
        <time>2018-09-09T10:38:55Z</time>
      </trkpt>
      <trkpt lat="45.20004" lon="6.59925">
        <ele>964.04</ele>
        <time>2018-09-09T10:38:56Z</time>
      </trkpt>
      <trkpt lat="45.19994" lon="6.5995">
        <ele>964.32</ele>
        <time>2018-09-09T10:38:57Z</time>
      </trkpt>
      <trkpt lat="45.1998" lon="6.59973">
        <ele>965.11</ele>
        <time>2018-09-09T10:38:58Z</time>
      </trkpt>
      <trkpt lat="45.19967" lon="6.59996">
        <ele>966.04</ele>
        <time>2018-09-09T10:38:59Z</time>
      </trkpt>
      <trkpt lat="45.19953" lon="6.60018">
        <ele>966.32</ele>
        <time>2018-09-09T10:39:00Z</time>
      </trkpt>
      <trkpt lat="45.19938" lon="6.60041">
        <ele>966.41</ele>
        <time>2018-09-09T10:39:01Z</time>
      </trkpt>
      <trkpt lat="45.19925" lon="6.60065">
        <ele>966.43</ele>
        <time>2018-09-09T10:39:02Z</time>
      </trkpt>
      <trkpt lat="45.19912" lon="6.6009">
        <ele>967.14</ele>
        <time>2018-09-09T10:39:03Z</time>
      </trkpt>
      <trkpt lat="45.19899" lon="6.60114">
        <ele>967.35</ele>
        <time>2018-09-09T10:39:04Z</time>
      </trkpt>
      <trkpt lat="45.19889" lon="6.6014">
        <ele>968.12</ele>
        <time>2018-09-09T10:39:05Z</time>
      </trkpt>
      <trkpt lat="45.19882" lon="6.60168">
        <ele>970.45</ele>
        <time>2018-09-09T10:39:06Z</time>
      </trkpt>
      <trkpt lat="45.19877" lon="6.60195">
        <ele>971.15</ele>
        <time>2018-09-09T10:39:07Z</time>
      </trkpt>
      <trkpt lat="45.19873" lon="6.60224">
        <ele>972.06</ele>
        <time>2018-09-09T10:39:08Z</time>
      </trkpt>
      <trkpt lat="45.1987" lon="6.60254">
        <ele>973.03</ele>
        <time>2018-09-09T10:39:09Z</time>
      </trkpt>
      <trkpt lat="45.19869" lon="6.60282">
        <ele>973.32</ele>
        <time>2018-09-09T10:39:10Z</time>
      </trkpt>
      <trkpt lat="45.19872" lon="6.60311">
        <ele>973.41</ele>
        <time>2018-09-09T10:39:11Z</time>
      </trkpt>
      <trkpt lat="45.19887" lon="6.60339">
        <ele>974.83</ele>
        <time>2018-09-09T10:39:12Z</time>
      </trkpt>
      <trkpt lat="45.19892" lon="6.60367">
        <ele>975.96</ele>
        <time>2018-09-09T10:39:13Z</time>
      </trkpt>
      <trkpt lat="45.19895" lon="6.60396">
        <ele>977</ele>
        <time>2018-09-09T10:39:14Z</time>
      </trkpt>
      <trkpt lat="45.19896" lon="6.60425">
        <ele>978.01</ele>
        <time>2018-09-09T10:39:15Z</time>
      </trkpt>
      <trkpt lat="45.19896" lon="6.60454">
        <ele>978.31</ele>
        <time>2018-09-09T10:39:16Z</time>
      </trkpt>
      <trkpt lat="45.19897" lon="6.60483">
        <ele>979.11</ele>
        <time>2018-09-09T10:39:17Z</time>
      </trkpt>
      <trkpt lat="45.19898" lon="6.60512">
        <ele>980.04</ele>
        <time>2018-09-09T10:39:18Z</time>
      </trkpt>
      <trkpt lat="45.19899" lon="6.60542">
        <ele>981.02</ele>
        <time>2018-09-09T10:39:19Z</time>
      </trkpt>
      <trkpt lat="45.199" lon="6.60571">
        <ele>981.32</ele>
        <time>2018-09-09T10:39:20Z</time>
      </trkpt>
      <trkpt lat="45.19901" lon="6.60601">
        <ele>982.11</ele>
        <time>2018-09-09T10:39:21Z</time>
      </trkpt>
      <trkpt lat="45.19902" lon="6.60632">
        <ele>983.04</ele>
        <time>2018-09-09T10:39:22Z</time>
      </trkpt>
      <trkpt lat="45.19901" lon="6.60661">
        <ele>984.02</ele>
        <time>2018-09-09T10:39:23Z</time>
      </trkpt>
      <trkpt lat="45.199" lon="6.60691">
        <ele>984.32</ele>
        <time>2018-09-09T10:39:24Z</time>
      </trkpt>
      <trkpt lat="45.19897" lon="6.60722">
        <ele>984.41</ele>
        <time>2018-09-09T10:39:25Z</time>
      </trkpt>
      <trkpt lat="45.19893" lon="6.60751">
        <ele>985.13</ele>
        <time>2018-09-09T10:39:26Z</time>
      </trkpt>
      <trkpt lat="45.1989" lon="6.60781">
        <ele>986.05</ele>
        <time>2018-09-09T10:39:27Z</time>
      </trkpt>
      <trkpt lat="45.19887" lon="6.6081">
        <ele>986.33</ele>
        <time>2018-09-09T10:39:28Z</time>
      </trkpt>
      <trkpt lat="45.19884" lon="6.60839">
        <ele>987.11</ele>
        <time>2018-09-09T10:39:29Z</time>
      </trkpt>
      <trkpt lat="45.19881" lon="6.60869">
        <ele>988.04</ele>
        <time>2018-09-09T10:39:30Z</time>
      </trkpt>
      <trkpt lat="45.19878" lon="6.60898">
        <ele>989.02</ele>
        <time>2018-09-09T10:39:31Z</time>
      </trkpt>
      <trkpt lat="45.19875" lon="6.60928">
        <ele>990.02</ele>
        <time>2018-09-09T10:39:32Z</time>
      </trkpt>
      <trkpt lat="45.19872" lon="6.60957">
        <ele>991.02</ele>
        <time>2018-09-09T10:39:33Z</time>
      </trkpt>
      <trkpt lat="45.1987" lon="6.60985">
        <ele>992.02</ele>
        <time>2018-09-09T10:39:34Z</time>
      </trkpt>
      <trkpt lat="45.19869" lon="6.61014">
        <ele>993.02</ele>
        <time>2018-09-09T10:39:35Z</time>
      </trkpt>
      <trkpt lat="45.19867" lon="6.61043">
        <ele>994.02</ele>
        <time>2018-09-09T10:39:36Z</time>
      </trkpt>
      <trkpt lat="45.19867" lon="6.61072">
        <ele>995.02</ele>
        <time>2018-09-09T10:39:37Z</time>
      </trkpt>
      <trkpt lat="45.19866" lon="6.611">
        <ele>996.02</ele>
        <time>2018-09-09T10:39:38Z</time>
      </trkpt>
      <trkpt lat="45.19866" lon="6.61129">
        <ele>997.02</ele>
        <time>2018-09-09T10:39:39Z</time>
      </trkpt>
      <trkpt lat="45.19866" lon="6.61157">
        <ele>998.02</ele>
        <time>2018-09-09T10:39:40Z</time>
      </trkpt>
      <trkpt lat="45.19864" lon="6.61184">
        <ele>999.02</ele>
        <time>2018-09-09T10:39:41Z</time>
      </trkpt>
      <trkpt lat="45.19862" lon="6.61211">
        <ele>1000.02</ele>
        <time>2018-09-09T10:39:42Z</time>
      </trkpt>
      <trkpt lat="45.19858" lon="6.61237">
        <ele>1000.32</ele>
        <time>2018-09-09T10:39:43Z</time>
      </trkpt>
      <trkpt lat="45.19852" lon="6.61261">
        <ele>1001.11</ele>
        <time>2018-09-09T10:39:44Z</time>
      </trkpt>
      <trkpt lat="45.19837" lon="6.61305">
        <ele>1003.02</ele>
        <time>2018-09-09T10:39:46Z</time>
      </trkpt>
      <trkpt lat="45.19821" lon="6.61345">
        <ele>1005.02</ele>
        <time>2018-09-09T10:39:48Z</time>
      </trkpt>
      <trkpt lat="45.19803" lon="6.61391">
        <ele>1006.11</ele>
        <time>2018-09-09T10:39:50Z</time>
      </trkpt>
      <trkpt lat="45.19794" lon="6.61417">
        <ele>1007.04</ele>
        <time>2018-09-09T10:39:51Z</time>
      </trkpt>
      <trkpt lat="45.19785" lon="6.61448">
        <ele>1008.72</ele>
        <time>2018-09-09T10:39:52Z</time>
      </trkpt>
      <trkpt lat="45.19777" lon="6.61481">
        <ele>1009.93</ele>
        <time>2018-09-09T10:39:53Z</time>
      </trkpt>
      <trkpt lat="45.19769" lon="6.61513">
        <ele>1011.69</ele>
        <time>2018-09-09T10:39:54Z</time>
      </trkpt>
      <trkpt lat="45.19761" lon="6.61542">
        <ele>1012.92</ele>
        <time>2018-09-09T10:39:55Z</time>
      </trkpt>
      <trkpt lat="45.19754" lon="6.61568">
        <ele>1013.99</ele>
        <time>2018-09-09T10:39:56Z</time>
      </trkpt>
      <trkpt lat="45.19745" lon="6.61593">
        <ele>1014.31</ele>
        <time>2018-09-09T10:39:57Z</time>
      </trkpt>
      <trkpt lat="45.19734" lon="6.61616">
        <ele>1015.8</ele>
        <time>2018-09-09T10:39:58Z</time>
      </trkpt>
      <trkpt lat="45.19721" lon="6.61639">
        <ele>1016.25</ele>
        <time>2018-09-09T10:39:59Z</time>
      </trkpt>
      <trkpt lat="45.19707" lon="6.61662">
        <ele>1017.79</ele>
        <time>2018-09-09T10:40:00Z</time>
      </trkpt>
      <trkpt lat="45.19692" lon="6.61685">
        <ele>1018.95</ele>
        <time>2018-09-09T10:40:01Z</time>
      </trkpt>
      <trkpt lat="45.19677" lon="6.61708">
        <ele>1020</ele>
        <time>2018-09-09T10:40:02Z</time>
      </trkpt>
      <trkpt lat="45.19663" lon="6.61731">
        <ele>1020.31</ele>
        <time>2018-09-09T10:40:03Z</time>
      </trkpt>
      <trkpt lat="45.19649" lon="6.61753">
        <ele>1020.4</ele>
        <time>2018-09-09T10:40:04Z</time>
      </trkpt>
      <trkpt lat="45.19636" lon="6.61774">
        <ele>1020.43</ele>
        <time>2018-09-09T10:40:05Z</time>
      </trkpt>
      <trkpt lat="45.19625" lon="6.61796">
        <ele>1020.44</ele>
        <time>2018-09-09T10:40:06Z</time>
      </trkpt>
      <trkpt lat="45.19618" lon="6.61843">
        <ele>1022.26</ele>
        <time>2018-09-09T10:40:08Z</time>
      </trkpt>
      <trkpt lat="45.19613" lon="6.61891">
        <ele>1021.73</ele>
        <time>2018-09-09T10:40:10Z</time>
      </trkpt>
      <trkpt lat="45.19608" lon="6.61939">
        <ele>1023.08</ele>
        <time>2018-09-09T10:40:12Z</time>
      </trkpt>
      <trkpt lat="45.19608" lon="6.61987">
        <ele>1023.41</ele>
        <time>2018-09-09T10:40:14Z</time>
      </trkpt>
      <trkpt lat="45.19614" lon="6.62029">
        <ele>1024.14</ele>
        <time>2018-09-09T10:40:16Z</time>
      </trkpt>
      <trkpt lat="45.19621" lon="6.62064">
        <ele>1024.42</ele>
        <time>2018-09-09T10:40:18Z</time>
      </trkpt>
      <trkpt lat="45.19621" lon="6.62098">
        <ele>1024.65</ele>
        <time>2018-09-09T10:40:21Z</time>
      </trkpt>
      <trkpt lat="45.19606" lon="6.62125">
        <ele>1024.45</ele>
        <time>2018-09-09T10:40:24Z</time>
      </trkpt>
      <trkpt lat="45.19591" lon="6.62155">
        <ele>1025.36</ele>
        <time>2018-09-09T10:40:26Z</time>
      </trkpt>
      <trkpt lat="45.19581" lon="6.62196">
        <ele>1027.96</ele>
        <time>2018-09-09T10:40:28Z</time>
      </trkpt>
      <trkpt lat="45.1957" lon="6.62244">
        <ele>1030.01</ele>
        <time>2018-09-09T10:40:30Z</time>
      </trkpt>
      <trkpt lat="45.19563" lon="6.6227">
        <ele>1031.71</ele>
        <time>2018-09-09T10:40:31Z</time>
      </trkpt>
      <trkpt lat="45.19556" lon="6.62297">
        <ele>1032.93</ele>
        <time>2018-09-09T10:40:32Z</time>
      </trkpt>
      <trkpt lat="45.1955" lon="6.62325">
        <ele>1033.99</ele>
        <time>2018-09-09T10:40:33Z</time>
      </trkpt>
      <trkpt lat="45.19546" lon="6.62352">
        <ele>1035.01</ele>
        <time>2018-09-09T10:40:34Z</time>
      </trkpt>
      <trkpt lat="45.19542" lon="6.6238">
        <ele>1036.01</ele>
        <time>2018-09-09T10:40:35Z</time>
      </trkpt>
      <trkpt lat="45.1954" lon="6.62407">
        <ele>1036.32</ele>
        <time>2018-09-09T10:40:36Z</time>
      </trkpt>
      <trkpt lat="45.19536" lon="6.62435">
        <ele>1035.71</ele>
        <time>2018-09-09T10:40:37Z</time>
      </trkpt>
      <trkpt lat="45.19533" lon="6.62462">
        <ele>1035.52</ele>
        <time>2018-09-09T10:40:38Z</time>
      </trkpt>
      <trkpt lat="45.1953" lon="6.62489">
        <ele>1035.47</ele>
        <time>2018-09-09T10:40:39Z</time>
      </trkpt>
      <trkpt lat="45.19527" lon="6.62515">
        <ele>1035.45</ele>
        <time>2018-09-09T10:40:40Z</time>
      </trkpt>
      <trkpt lat="45.19523" lon="6.62542">
        <ele>1034.75</ele>
        <time>2018-09-09T10:40:41Z</time>
      </trkpt>
      <trkpt lat="45.19519" lon="6.62568">
        <ele>1034.54</ele>
        <time>2018-09-09T10:40:42Z</time>
      </trkpt>
      <trkpt lat="45.19512" lon="6.62617">
        <ele>1035.36</ele>
        <time>2018-09-09T10:40:44Z</time>
      </trkpt>
      <trkpt lat="45.19503" lon="6.6266">
        <ele>1034.74</ele>
        <time>2018-09-09T10:40:46Z</time>
      </trkpt>
      <trkpt lat="45.19495" lon="6.62697">
        <ele>1034.68</ele>
        <time>2018-09-09T10:40:48Z</time>
      </trkpt>
      <trkpt lat="45.19489" lon="6.62723">
        <ele>1035.17</ele>
        <time>2018-09-09T10:40:50Z</time>
      </trkpt>
      <trkpt lat="45.19483" lon="6.62748">
        <ele>1036.44</ele>
        <time>2018-09-09T10:40:57Z</time>
      </trkpt>
      <trkpt lat="45.19477" lon="6.62774">
        <ele>1037.42</ele>
        <time>2018-09-09T10:41:00Z</time>
      </trkpt>
      <trkpt lat="45.19469" lon="6.628">
        <ele>1037.44</ele>
        <time>2018-09-09T10:41:02Z</time>
      </trkpt>
      <trkpt lat="45.19463" lon="6.62831">
        <ele>1037.44</ele>
        <time>2018-09-09T10:41:04Z</time>
      </trkpt>
      <trkpt lat="45.19455" lon="6.62865">
        <ele>1038.35</ele>
        <time>2018-09-09T10:41:06Z</time>
      </trkpt>
      <trkpt lat="45.19445" lon="6.62897">
        <ele>1038.44</ele>
        <time>2018-09-09T10:41:08Z</time>
      </trkpt>
      <trkpt lat="45.19433" lon="6.62919">
        <ele>1038.65</ele>
        <time>2018-09-09T10:41:10Z</time>
      </trkpt>
      <trkpt lat="45.19426" lon="6.62948">
        <ele>1038.25</ele>
        <time>2018-09-09T10:41:12Z</time>
      </trkpt>
      <trkpt lat="45.19417" lon="6.62985">
        <ele>1038.43</ele>
        <time>2018-09-09T10:41:14Z</time>
      </trkpt>
      <trkpt lat="45.19409" lon="6.63027">
        <ele>1040.75</ele>
        <time>2018-09-09T10:41:16Z</time>
      </trkpt>
      <trkpt lat="45.19399" lon="6.63075">
        <ele>1042.08</ele>
        <time>2018-09-09T10:41:18Z</time>
      </trkpt>
      <trkpt lat="45.19393" lon="6.63102">
        <ele>1043.04</ele>
        <time>2018-09-09T10:41:19Z</time>
      </trkpt>
      <trkpt lat="45.19385" lon="6.6313">
        <ele>1044.02</ele>
        <time>2018-09-09T10:41:20Z</time>
      </trkpt>
      <trkpt lat="45.19377" lon="6.63157">
        <ele>1044.32</ele>
        <time>2018-09-09T10:41:21Z</time>
      </trkpt>
      <trkpt lat="45.19369" lon="6.63184">
        <ele>1045.11</ele>
        <time>2018-09-09T10:41:22Z</time>
      </trkpt>
      <trkpt lat="45.19361" lon="6.63212">
        <ele>1045.34</ele>
        <time>2018-09-09T10:41:23Z</time>
      </trkpt>
      <trkpt lat="45.19354" lon="6.63241">
        <ele>1046.11</ele>
        <time>2018-09-09T10:41:24Z</time>
      </trkpt>
      <trkpt lat="45.19348" lon="6.63271">
        <ele>1046.35</ele>
        <time>2018-09-09T10:41:25Z</time>
      </trkpt>
      <trkpt lat="45.19342" lon="6.63301">
        <ele>1047.12</ele>
        <time>2018-09-09T10:41:26Z</time>
      </trkpt>
      <trkpt lat="45.19336" lon="6.63333">
        <ele>1046.65</ele>
        <time>2018-09-09T10:41:27Z</time>
      </trkpt>
      <trkpt lat="45.19331" lon="6.63364">
        <ele>1047.21</ele>
        <time>2018-09-09T10:41:28Z</time>
      </trkpt>
      <trkpt lat="45.19327" lon="6.63395">
        <ele>1047.37</ele>
        <time>2018-09-09T10:41:29Z</time>
      </trkpt>
      <trkpt lat="45.19321" lon="6.63426">
        <ele>1048.12</ele>
        <time>2018-09-09T10:41:30Z</time>
      </trkpt>
      <trkpt lat="45.19317" lon="6.63456">
        <ele>1048.35</ele>
        <time>2018-09-09T10:41:31Z</time>
      </trkpt>
      <trkpt lat="45.19312" lon="6.63487">
        <ele>1047.72</ele>
        <time>2018-09-09T10:41:32Z</time>
      </trkpt>
      <trkpt lat="45.19307" lon="6.63518">
        <ele>1047.53</ele>
        <time>2018-09-09T10:41:33Z</time>
      </trkpt>
      <trkpt lat="45.19302" lon="6.6355">
        <ele>1047.47</ele>
        <time>2018-09-09T10:41:34Z</time>
      </trkpt>
      <trkpt lat="45.19297" lon="6.63581">
        <ele>1047.45</ele>
        <time>2018-09-09T10:41:35Z</time>
      </trkpt>
      <trkpt lat="45.19292" lon="6.63613">
        <ele>1048.15</ele>
        <time>2018-09-09T10:41:36Z</time>
      </trkpt>
      <trkpt lat="45.19285" lon="6.63644">
        <ele>1048.36</ele>
        <time>2018-09-09T10:41:37Z</time>
      </trkpt>
      <trkpt lat="45.19279" lon="6.63674">
        <ele>1048.42</ele>
        <time>2018-09-09T10:41:38Z</time>
      </trkpt>
      <trkpt lat="45.19272" lon="6.63703">
        <ele>1048.44</ele>
        <time>2018-09-09T10:41:39Z</time>
      </trkpt>
      <trkpt lat="45.19264" lon="6.63731">
        <ele>1049.14</ele>
        <time>2018-09-09T10:41:40Z</time>
      </trkpt>
      <trkpt lat="45.19255" lon="6.63757">
        <ele>1049.35</ele>
        <time>2018-09-09T10:41:41Z</time>
      </trkpt>
      <trkpt lat="45.19244" lon="6.63783">
        <ele>1049.42</ele>
        <time>2018-09-09T10:41:42Z</time>
      </trkpt>
      <trkpt lat="45.19232" lon="6.63807">
        <ele>1050.14</ele>
        <time>2018-09-09T10:41:43Z</time>
      </trkpt>
      <trkpt lat="45.19218" lon="6.63831">
        <ele>1050.35</ele>
        <time>2018-09-09T10:41:44Z</time>
      </trkpt>
      <trkpt lat="45.19203" lon="6.63854">
        <ele>1050.42</ele>
        <time>2018-09-09T10:41:45Z</time>
      </trkpt>
      <trkpt lat="45.19188" lon="6.63876">
        <ele>1050.44</ele>
        <time>2018-09-09T10:41:46Z</time>
      </trkpt>
      <trkpt lat="45.19172" lon="6.63897">
        <ele>1050.44</ele>
        <time>2018-09-09T10:41:47Z</time>
      </trkpt>
      <trkpt lat="45.19156" lon="6.63918">
        <ele>1051.14</ele>
        <time>2018-09-09T10:41:48Z</time>
      </trkpt>
      <trkpt lat="45.1914" lon="6.63939">
        <ele>1051.35</ele>
        <time>2018-09-09T10:41:49Z</time>
      </trkpt>
      <trkpt lat="45.19126" lon="6.63961">
        <ele>1051.42</ele>
        <time>2018-09-09T10:41:50Z</time>
      </trkpt>
      <trkpt lat="45.19111" lon="6.63983">
        <ele>1051.44</ele>
        <time>2018-09-09T10:41:51Z</time>
      </trkpt>
      <trkpt lat="45.19098" lon="6.64006">
        <ele>1052.14</ele>
        <time>2018-09-09T10:41:52Z</time>
      </trkpt>
      <trkpt lat="45.19089" lon="6.64031">
        <ele>1052.35</ele>
        <time>2018-09-09T10:41:53Z</time>
      </trkpt>
      <trkpt lat="45.19079" lon="6.64057">
        <ele>1051.72</ele>
        <time>2018-09-09T10:41:54Z</time>
      </trkpt>
      <trkpt lat="45.19074" lon="6.64084">
        <ele>1052.93</ele>
        <time>2018-09-09T10:41:55Z</time>
      </trkpt>
      <trkpt lat="45.1907" lon="6.64112">
        <ele>1053.29</ele>
        <time>2018-09-09T10:41:56Z</time>
      </trkpt>
      <trkpt lat="45.19068" lon="6.64139">
        <ele>1054.1</ele>
        <time>2018-09-09T10:41:57Z</time>
      </trkpt>
      <trkpt lat="45.19067" lon="6.64166">
        <ele>1053.64</ele>
        <time>2018-09-09T10:41:58Z</time>
      </trkpt>
      <trkpt lat="45.19066" lon="6.64193">
        <ele>1052.8</ele>
        <time>2018-09-09T10:41:59Z</time>
      </trkpt>
      <trkpt lat="45.19066" lon="6.6422">
        <ele>1053.25</ele>
        <time>2018-09-09T10:42:00Z</time>
      </trkpt>
      <trkpt lat="45.19064" lon="6.64245">
        <ele>1052.69</ele>
        <time>2018-09-09T10:42:01Z</time>
      </trkpt>
      <trkpt lat="45.19063" lon="6.64272">
        <ele>1052.52</ele>
        <time>2018-09-09T10:42:02Z</time>
      </trkpt>
      <trkpt lat="45.19062" lon="6.64299">
        <ele>1052.47</ele>
        <time>2018-09-09T10:42:03Z</time>
      </trkpt>
      <trkpt lat="45.1906" lon="6.64325">
        <ele>1052.45</ele>
        <time>2018-09-09T10:42:04Z</time>
      </trkpt>
      <trkpt lat="45.1906" lon="6.64352">
        <ele>1052.45</ele>
        <time>2018-09-09T10:42:05Z</time>
      </trkpt>
      <trkpt lat="45.1906" lon="6.64378">
        <ele>1051.75</ele>
        <time>2018-09-09T10:42:06Z</time>
      </trkpt>
      <trkpt lat="45.19061" lon="6.64404">
        <ele>1052.24</ele>
        <time>2018-09-09T10:42:07Z</time>
      </trkpt>
      <trkpt lat="45.19062" lon="6.64429">
        <ele>1052.38</ele>
        <time>2018-09-09T10:42:08Z</time>
      </trkpt>
      <trkpt lat="45.19068" lon="6.64478">
        <ele>1052.44</ele>
        <time>2018-09-09T10:42:10Z</time>
      </trkpt>
      <trkpt lat="45.19077" lon="6.64524">
        <ele>1053.35</ele>
        <time>2018-09-09T10:42:12Z</time>
      </trkpt>
      <trkpt lat="45.19085" lon="6.64567">
        <ele>1054.35</ele>
        <time>2018-09-09T10:42:14Z</time>
      </trkpt>
      <trkpt lat="45.19093" lon="6.6461">
        <ele>1054.44</ele>
        <time>2018-09-09T10:42:16Z</time>
      </trkpt>
      <trkpt lat="45.191" lon="6.6465">
        <ele>1054.44</ele>
        <time>2018-09-09T10:42:18Z</time>
      </trkpt>
      <trkpt lat="45.1911" lon="6.64686">
        <ele>1055.35</ele>
        <time>2018-09-09T10:42:20Z</time>
      </trkpt>
      <trkpt lat="45.19116" lon="6.6472">
        <ele>1056.14</ele>
        <time>2018-09-09T10:42:22Z</time>
      </trkpt>
      <trkpt lat="45.19125" lon="6.64754">
        <ele>1055.72</ele>
        <time>2018-09-09T10:42:24Z</time>
      </trkpt>
      <trkpt lat="45.1913" lon="6.64791">
        <ele>1056.38</ele>
        <time>2018-09-09T10:42:26Z</time>
      </trkpt>
      <trkpt lat="45.19134" lon="6.64828">
        <ele>1056.44</ele>
        <time>2018-09-09T10:42:28Z</time>
      </trkpt>
      <trkpt lat="45.19141" lon="6.64867">
        <ele>1056.44</ele>
        <time>2018-09-09T10:42:30Z</time>
      </trkpt>
      <trkpt lat="45.19147" lon="6.64904">
        <ele>1057.35</ele>
        <time>2018-09-09T10:42:32Z</time>
      </trkpt>
      <trkpt lat="45.19154" lon="6.64939">
        <ele>1057.44</ele>
        <time>2018-09-09T10:42:34Z</time>
      </trkpt>
      <trkpt lat="45.19161" lon="6.64973">
        <ele>1058.14</ele>
        <time>2018-09-09T10:42:36Z</time>
      </trkpt>
      <trkpt lat="45.19167" lon="6.65005">
        <ele>1058.21</ele>
        <time>2018-09-09T10:42:38Z</time>
      </trkpt>
      <trkpt lat="45.19173" lon="6.65034">
        <ele>1058.42</ele>
        <time>2018-09-09T10:42:40Z</time>
      </trkpt>
      <trkpt lat="45.19178" lon="6.65062">
        <ele>1058.44</ele>
        <time>2018-09-09T10:42:42Z</time>
      </trkpt>
      <trkpt lat="45.19182" lon="6.65088">
        <ele>1059.35</ele>
        <time>2018-09-09T10:42:44Z</time>
      </trkpt>
      <trkpt lat="45.19186" lon="6.65113">
        <ele>1059.23</ele>
        <time>2018-09-09T10:42:46Z</time>
      </trkpt>
      <trkpt lat="45.1919" lon="6.65139">
        <ele>1058.73</ele>
        <time>2018-09-09T10:42:48Z</time>
      </trkpt>
      <trkpt lat="45.19196" lon="6.65166">
        <ele>1059.17</ele>
        <time>2018-09-09T10:42:50Z</time>
      </trkpt>
      <trkpt lat="45.192" lon="6.65196">
        <ele>1058.51</ele>
        <time>2018-09-09T10:42:52Z</time>
      </trkpt>
      <trkpt lat="45.19206" lon="6.65227">
        <ele>1059.15</ele>
        <time>2018-09-09T10:42:54Z</time>
      </trkpt>
      <trkpt lat="45.19212" lon="6.65259">
        <ele>1059.42</ele>
        <time>2018-09-09T10:42:56Z</time>
      </trkpt>
      <trkpt lat="45.19219" lon="6.65292">
        <ele>1059.44</ele>
        <time>2018-09-09T10:42:58Z</time>
      </trkpt>
      <trkpt lat="45.19226" lon="6.65327">
        <ele>1060.35</ele>
        <time>2018-09-09T10:43:00Z</time>
      </trkpt>
      <trkpt lat="45.19232" lon="6.6536">
        <ele>1060.44</ele>
        <time>2018-09-09T10:43:02Z</time>
      </trkpt>
      <trkpt lat="45.19237" lon="6.65393">
        <ele>1060.44</ele>
        <time>2018-09-09T10:43:04Z</time>
      </trkpt>
      <trkpt lat="45.19244" lon="6.65427">
        <ele>1061.35</ele>
        <time>2018-09-09T10:43:06Z</time>
      </trkpt>
      <trkpt lat="45.19252" lon="6.65458">
        <ele>1061.44</ele>
        <time>2018-09-09T10:43:08Z</time>
      </trkpt>
      <trkpt lat="45.19257" lon="6.65488">
        <ele>1061.44</ele>
        <time>2018-09-09T10:43:10Z</time>
      </trkpt>
      <trkpt lat="45.19264" lon="6.65519">
        <ele>1061.65</ele>
        <time>2018-09-09T10:43:12Z</time>
      </trkpt>
      <trkpt lat="45.19271" lon="6.65552">
        <ele>1061.67</ele>
        <time>2018-09-09T10:43:14Z</time>
      </trkpt>
      <trkpt lat="45.19278" lon="6.65585">
        <ele>1061.68</ele>
        <time>2018-09-09T10:43:16Z</time>
      </trkpt>
      <trkpt lat="45.19285" lon="6.65617">
        <ele>1062.38</ele>
        <time>2018-09-09T10:43:18Z</time>
      </trkpt>
      <trkpt lat="45.19295" lon="6.65649">
        <ele>1062.44</ele>
        <time>2018-09-09T10:43:20Z</time>
      </trkpt>
      <trkpt lat="45.19305" lon="6.65679">
        <ele>1062.44</ele>
        <time>2018-09-09T10:43:22Z</time>
      </trkpt>
      <trkpt lat="45.19316" lon="6.65709">
        <ele>1062.44</ele>
        <time>2018-09-09T10:43:24Z</time>
      </trkpt>
      <trkpt lat="45.19324" lon="6.65739">
        <ele>1062.44</ele>
        <time>2018-09-09T10:43:26Z</time>
      </trkpt>
      <trkpt lat="45.19333" lon="6.65768">
        <ele>1063.15</ele>
        <time>2018-09-09T10:43:28Z</time>
      </trkpt>
      <trkpt lat="45.19343" lon="6.65797">
        <ele>1063.42</ele>
        <time>2018-09-09T10:43:30Z</time>
      </trkpt>
      <trkpt lat="45.19353" lon="6.65824">
        <ele>1063.44</ele>
        <time>2018-09-09T10:43:32Z</time>
      </trkpt>
      <trkpt lat="45.19364" lon="6.65848">
        <ele>1064.14</ele>
        <time>2018-09-09T10:43:34Z</time>
      </trkpt>
      <trkpt lat="45.19375" lon="6.65872">
        <ele>1064.42</ele>
        <time>2018-09-09T10:43:36Z</time>
      </trkpt>
      <trkpt lat="45.19386" lon="6.65898">
        <ele>1064.44</ele>
        <time>2018-09-09T10:43:38Z</time>
      </trkpt>
      <trkpt lat="45.19397" lon="6.65923">
        <ele>1063.74</ele>
        <time>2018-09-09T10:43:40Z</time>
      </trkpt>
      <trkpt lat="45.19408" lon="6.65946">
        <ele>1062.56</ele>
        <time>2018-09-09T10:43:42Z</time>
      </trkpt>
      <trkpt lat="45.19423" lon="6.65971">
        <ele>1061.76</ele>
        <time>2018-09-09T10:43:44Z</time>
      </trkpt>
      <trkpt lat="45.19439" lon="6.65996">
        <ele>1060.56</ele>
        <time>2018-09-09T10:43:46Z</time>
      </trkpt>
      <trkpt lat="45.19457" lon="6.66022">
        <ele>1059.76</ele>
        <time>2018-09-09T10:43:48Z</time>
      </trkpt>
      <trkpt lat="45.19475" lon="6.66046">
        <ele>1059.47</ele>
        <time>2018-09-09T10:43:50Z</time>
      </trkpt>
      <trkpt lat="45.19495" lon="6.66071">
        <ele>1058.54</ele>
        <time>2018-09-09T10:43:52Z</time>
      </trkpt>
      <trkpt lat="45.19515" lon="6.66095">
        <ele>1057.54</ele>
        <time>2018-09-09T10:43:54Z</time>
      </trkpt>
      <trkpt lat="45.19533" lon="6.66121">
        <ele>1058.15</ele>
        <time>2018-09-09T10:43:56Z</time>
      </trkpt>
      <trkpt lat="45.19549" lon="6.66146">
        <ele>1058.42</ele>
        <time>2018-09-09T10:43:58Z</time>
      </trkpt>
      <trkpt lat="45.19565" lon="6.66171">
        <ele>1058.44</ele>
        <time>2018-09-09T10:44:00Z</time>
      </trkpt>
      <trkpt lat="45.19584" lon="6.66196">
        <ele>1058.44</ele>
        <time>2018-09-09T10:44:02Z</time>
      </trkpt>
      <trkpt lat="45.19602" lon="6.66219">
        <ele>1060.05</ele>
        <time>2018-09-09T10:44:04Z</time>
      </trkpt>
      <trkpt lat="45.19621" lon="6.66242">
        <ele>1060.41</ele>
        <time>2018-09-09T10:44:06Z</time>
      </trkpt>
      <trkpt lat="45.19639" lon="6.66265">
        <ele>1060.44</ele>
        <time>2018-09-09T10:44:08Z</time>
      </trkpt>
      <trkpt lat="45.19655" lon="6.66288">
        <ele>1059.74</ele>
        <time>2018-09-09T10:44:10Z</time>
      </trkpt>
      <trkpt lat="45.1967" lon="6.66316">
        <ele>1059.68</ele>
        <time>2018-09-09T10:44:12Z</time>
      </trkpt>
      <trkpt lat="45.19687" lon="6.66342">
        <ele>1059.26</ele>
        <time>2018-09-09T10:44:14Z</time>
      </trkpt>
      <trkpt lat="45.19705" lon="6.66368">
        <ele>1060.13</ele>
        <time>2018-09-09T10:44:16Z</time>
      </trkpt>
      <trkpt lat="45.19723" lon="6.66392">
        <ele>1061.33</ele>
        <time>2018-09-09T10:44:18Z</time>
      </trkpt>
      <trkpt lat="45.19743" lon="6.66417">
        <ele>1061.43</ele>
        <time>2018-09-09T10:44:20Z</time>
      </trkpt>
      <trkpt lat="45.19764" lon="6.66442">
        <ele>1061.44</ele>
        <time>2018-09-09T10:44:22Z</time>
      </trkpt>
      <trkpt lat="45.19785" lon="6.66469">
        <ele>1062.14</ele>
        <time>2018-09-09T10:44:24Z</time>
      </trkpt>
      <trkpt lat="45.19805" lon="6.66501">
        <ele>1064.03</ele>
        <time>2018-09-09T10:44:26Z</time>
      </trkpt>
      <trkpt lat="45.1982" lon="6.66537">
        <ele>1065.11</ele>
        <time>2018-09-09T10:44:28Z</time>
      </trkpt>
      <trkpt lat="45.19831" lon="6.66576">
        <ele>1066.11</ele>
        <time>2018-09-09T10:44:30Z</time>
      </trkpt>
      <trkpt lat="45.19842" lon="6.66612">
        <ele>1066.42</ele>
        <time>2018-09-09T10:44:32Z</time>
      </trkpt>
      <trkpt lat="45.19852" lon="6.66647">
        <ele>1067.14</ele>
        <time>2018-09-09T10:44:34Z</time>
      </trkpt>
      <trkpt lat="45.19863" lon="6.66681">
        <ele>1066.72</ele>
        <time>2018-09-09T10:44:36Z</time>
      </trkpt>
      <trkpt lat="45.19877" lon="6.66713">
        <ele>1066.47</ele>
        <time>2018-09-09T10:44:38Z</time>
      </trkpt>
      <trkpt lat="45.19895" lon="6.66739">
        <ele>1064.84</ele>
        <time>2018-09-09T10:44:40Z</time>
      </trkpt>
      <trkpt lat="45.19916" lon="6.66762">
        <ele>1063.78</ele>
        <time>2018-09-09T10:44:42Z</time>
      </trkpt>
      <trkpt lat="45.19938" lon="6.66784">
        <ele>1062.78</ele>
        <time>2018-09-09T10:44:44Z</time>
      </trkpt>
      <trkpt lat="45.19958" lon="6.66805">
        <ele>1062.47</ele>
        <time>2018-09-09T10:44:46Z</time>
      </trkpt>
      <trkpt lat="45.19975" lon="6.66822">
        <ele>1062.45</ele>
        <time>2018-09-09T10:44:48Z</time>
      </trkpt>
      <trkpt lat="45.19984" lon="6.66852">
        <ele>1063.36</ele>
        <time>2018-09-09T10:44:51Z</time>
      </trkpt>
      <trkpt lat="45.20001" lon="6.66863">
        <ele>1062.74</ele>
        <time>2018-09-09T10:44:54Z</time>
      </trkpt>
      <trkpt lat="45.20019" lon="6.66867">
        <ele>1062.47</ele>
        <time>2018-09-09T10:44:56Z</time>
      </trkpt>
      <trkpt lat="45.2004" lon="6.66882">
        <ele>1061.75</ele>
        <time>2018-09-09T10:44:58Z</time>
      </trkpt>
      <trkpt lat="45.20059" lon="6.66901">
        <ele>1061.47</ele>
        <time>2018-09-09T10:45:00Z</time>
      </trkpt>
      <trkpt lat="45.20079" lon="6.66922">
        <ele>1060.54</ele>
        <time>2018-09-09T10:45:02Z</time>
      </trkpt>
      <trkpt lat="45.20101" lon="6.66946">
        <ele>1060.45</ele>
        <time>2018-09-09T10:45:04Z</time>
      </trkpt>
      <trkpt lat="45.20122" lon="6.6697">
        <ele>1061.36</ele>
        <time>2018-09-09T10:45:06Z</time>
      </trkpt>
      <trkpt lat="45.20144" lon="6.66994">
        <ele>1061.65</ele>
        <time>2018-09-09T10:45:08Z</time>
      </trkpt>
      <trkpt lat="45.20166" lon="6.67019">
        <ele>1061.46</ele>
        <time>2018-09-09T10:45:10Z</time>
      </trkpt>
      <trkpt lat="45.20185" lon="6.67044">
        <ele>1061.45</ele>
        <time>2018-09-09T10:45:12Z</time>
      </trkpt>
      <trkpt lat="45.20201" lon="6.67067">
        <ele>1061.45</ele>
        <time>2018-09-09T10:45:14Z</time>
      </trkpt>
      <trkpt lat="45.20216" lon="6.6709">
        <ele>1061.45</ele>
        <time>2018-09-09T10:45:16Z</time>
      </trkpt>
      <trkpt lat="45.20224" lon="6.67115">
        <ele>1062.35</ele>
        <time>2018-09-09T10:45:18Z</time>
      </trkpt>
      <trkpt lat="45.20244" lon="6.67136">
        <ele>1061.26</ele>
        <time>2018-09-09T10:45:21Z</time>
      </trkpt>
      <trkpt lat="45.2026" lon="6.67156">
        <ele>1062.13</ele>
        <time>2018-09-09T10:45:23Z</time>
      </trkpt>
      <trkpt lat="45.20276" lon="6.67184">
        <ele>1062.21</ele>
        <time>2018-09-09T10:45:25Z</time>
      </trkpt>
      <trkpt lat="45.20293" lon="6.67216">
        <ele>1062.21</ele>
        <time>2018-09-09T10:45:27Z</time>
      </trkpt>
      <trkpt lat="45.2031" lon="6.6725">
        <ele>1063.12</ele>
        <time>2018-09-09T10:45:29Z</time>
      </trkpt>
      <trkpt lat="45.20328" lon="6.67286">
        <ele>1064.12</ele>
        <time>2018-09-09T10:45:31Z</time>
      </trkpt>
      <trkpt lat="45.20345" lon="6.67323">
        <ele>1065.12</ele>
        <time>2018-09-09T10:45:33Z</time>
      </trkpt>
      <trkpt lat="45.2036" lon="6.67363">
        <ele>1066.33</ele>
        <time>2018-09-09T10:45:35Z</time>
      </trkpt>
      <trkpt lat="45.20374" lon="6.67406">
        <ele>1068.04</ele>
        <time>2018-09-09T10:45:37Z</time>
      </trkpt>
      <trkpt lat="45.20386" lon="6.67447">
        <ele>1071.63</ele>
        <time>2018-09-09T10:45:39Z</time>
      </trkpt>
      <trkpt lat="45.20399" lon="6.67488">
        <ele>1073.98</ele>
        <time>2018-09-09T10:45:41Z</time>
      </trkpt>
      <trkpt lat="45.20411" lon="6.67532">
        <ele>1076.71</ele>
        <time>2018-09-09T10:45:43Z</time>
      </trkpt>
      <trkpt lat="45.20423" lon="6.67578">
        <ele>1078.99</ele>
        <time>2018-09-09T10:45:45Z</time>
      </trkpt>
      <trkpt lat="45.20435" lon="6.67624">
        <ele>1081.92</ele>
        <time>2018-09-09T10:45:47Z</time>
      </trkpt>
      <trkpt lat="45.20442" lon="6.67648">
        <ele>1083.69</ele>
        <time>2018-09-09T10:45:48Z</time>
      </trkpt>
      <trkpt lat="45.20449" lon="6.67672">
        <ele>1084.92</ele>
        <time>2018-09-09T10:45:49Z</time>
      </trkpt>
      <trkpt lat="45.20463" lon="6.67718">
        <ele>1087.92</ele>
        <time>2018-09-09T10:45:51Z</time>
      </trkpt>
      <trkpt lat="45.20473" lon="6.67762">
        <ele>1091.62</ele>
        <time>2018-09-09T10:45:53Z</time>
      </trkpt>
      <trkpt lat="45.20479" lon="6.67805">
        <ele>1093.98</ele>
        <time>2018-09-09T10:45:55Z</time>
      </trkpt>
      <trkpt lat="45.20484" lon="6.67846">
        <ele>1095.31</ele>
        <time>2018-09-09T10:45:57Z</time>
      </trkpt>
      <trkpt lat="45.20481" lon="6.67893">
        <ele>1097.04</ele>
        <time>2018-09-09T10:45:59Z</time>
      </trkpt>
      <trkpt lat="45.20475" lon="6.67942">
        <ele>1099.02</ele>
        <time>2018-09-09T10:46:01Z</time>
      </trkpt>
      <trkpt lat="45.20471" lon="6.67967">
        <ele>1100.02</ele>
        <time>2018-09-09T10:46:02Z</time>
      </trkpt>
      <trkpt lat="45.20463" lon="6.68017">
        <ele>1101.81</ele>
        <time>2018-09-09T10:46:04Z</time>
      </trkpt>
      <trkpt lat="45.20454" lon="6.68067">
        <ele>1104.7</ele>
        <time>2018-09-09T10:46:06Z</time>
      </trkpt>
      <trkpt lat="45.20449" lon="6.68092">
        <ele>1105.92</ele>
        <time>2018-09-09T10:46:07Z</time>
      </trkpt>
      <trkpt lat="45.20445" lon="6.68117">
        <ele>1106.99</ele>
        <time>2018-09-09T10:46:08Z</time>
      </trkpt>
      <trkpt lat="45.20441" lon="6.68143">
        <ele>1108.01</ele>
        <time>2018-09-09T10:46:09Z</time>
      </trkpt>
      <trkpt lat="45.20437" lon="6.68169">
        <ele>1109.01</ele>
        <time>2018-09-09T10:46:10Z</time>
      </trkpt>
      <trkpt lat="45.20433" lon="6.68195">
        <ele>1110.72</ele>
        <time>2018-09-09T10:46:11Z</time>
      </trkpt>
      <trkpt lat="45.20428" lon="6.68222">
        <ele>1111.93</ele>
        <time>2018-09-09T10:46:12Z</time>
      </trkpt>
      <trkpt lat="45.20424" lon="6.68248">
        <ele>1112.99</ele>
        <time>2018-09-09T10:46:13Z</time>
      </trkpt>
      <trkpt lat="45.2042" lon="6.68275">
        <ele>1114.71</ele>
        <time>2018-09-09T10:46:14Z</time>
      </trkpt>
      <trkpt lat="45.20417" lon="6.68302">
        <ele>1115.92</ele>
        <time>2018-09-09T10:46:15Z</time>
      </trkpt>
      <trkpt lat="45.20416" lon="6.6833">
        <ele>1116.99</ele>
        <time>2018-09-09T10:46:16Z</time>
      </trkpt>
      <trkpt lat="45.20418" lon="6.68357">
        <ele>1118.01</ele>
        <time>2018-09-09T10:46:17Z</time>
      </trkpt>
      <trkpt lat="45.20422" lon="6.68385">
        <ele>1118.31</ele>
        <time>2018-09-09T10:46:18Z</time>
      </trkpt>
      <trkpt lat="45.20431" lon="6.68413">
        <ele>1119.81</ele>
        <time>2018-09-09T10:46:19Z</time>
      </trkpt>
      <trkpt lat="45.20442" lon="6.6844">
        <ele>1120.95</ele>
        <time>2018-09-09T10:46:20Z</time>
      </trkpt>
      <trkpt lat="45.20452" lon="6.68469">
        <ele>1122</ele>
        <time>2018-09-09T10:46:21Z</time>
      </trkpt>
      <trkpt lat="45.20464" lon="6.68499">
        <ele>1123.01</ele>
        <time>2018-09-09T10:46:22Z</time>
      </trkpt>
      <trkpt lat="45.20477" lon="6.68528">
        <ele>1124.01</ele>
        <time>2018-09-09T10:46:23Z</time>
      </trkpt>
      <trkpt lat="45.2049" lon="6.68557">
        <ele>1125.02</ele>
        <time>2018-09-09T10:46:24Z</time>
      </trkpt>
      <trkpt lat="45.20502" lon="6.68585">
        <ele>1126.02</ele>
        <time>2018-09-09T10:46:25Z</time>
      </trkpt>
      <trkpt lat="45.20516" lon="6.68614">
        <ele>1127.02</ele>
        <time>2018-09-09T10:46:26Z</time>
      </trkpt>
      <trkpt lat="45.20527" lon="6.68641">
        <ele>1128.02</ele>
        <time>2018-09-09T10:46:27Z</time>
      </trkpt>
      <trkpt lat="45.20539" lon="6.68669">
        <ele>1129.02</ele>
        <time>2018-09-09T10:46:28Z</time>
      </trkpt>
      <trkpt lat="45.20546" lon="6.68698">
        <ele>1130.02</ele>
        <time>2018-09-09T10:46:29Z</time>
      </trkpt>
      <trkpt lat="45.20552" lon="6.68727">
        <ele>1131.72</ele>
        <time>2018-09-09T10:46:30Z</time>
      </trkpt>
      <trkpt lat="45.20557" lon="6.68754">
        <ele>1132.23</ele>
        <time>2018-09-09T10:46:31Z</time>
      </trkpt>
      <trkpt lat="45.20566" lon="6.68781">
        <ele>1133.08</ele>
        <time>2018-09-09T10:46:32Z</time>
      </trkpt>
      <trkpt lat="45.20576" lon="6.68805">
        <ele>1134.74</ele>
        <time>2018-09-09T10:46:33Z</time>
      </trkpt>
      <trkpt lat="45.20585" lon="6.68829">
        <ele>1135.93</ele>
        <time>2018-09-09T10:46:34Z</time>
      </trkpt>
      <trkpt lat="45.20594" lon="6.68852">
        <ele>1136.99</ele>
        <time>2018-09-09T10:46:35Z</time>
      </trkpt>
      <trkpt lat="45.20605" lon="6.68877">
        <ele>1138.01</ele>
        <time>2018-09-09T10:46:36Z</time>
      </trkpt>
      <trkpt lat="45.20613" lon="6.68903">
        <ele>1139.71</ele>
        <time>2018-09-09T10:46:37Z</time>
      </trkpt>
      <trkpt lat="45.20622" lon="6.68932">
        <ele>1141.63</ele>
        <time>2018-09-09T10:46:38Z</time>
      </trkpt>
      <trkpt lat="45.20631" lon="6.6896">
        <ele>1142.9</ele>
        <time>2018-09-09T10:46:39Z</time>
      </trkpt>
      <trkpt lat="45.2064" lon="6.68989">
        <ele>1143.98</ele>
        <time>2018-09-09T10:46:40Z</time>
      </trkpt>
      <trkpt lat="45.20649" lon="6.69017">
        <ele>1145.71</ele>
        <time>2018-09-09T10:46:41Z</time>
      </trkpt>
      <trkpt lat="45.20659" lon="6.69047">
        <ele>1146.92</ele>
        <time>2018-09-09T10:46:42Z</time>
      </trkpt>
      <trkpt lat="45.20666" lon="6.69077">
        <ele>1148.69</ele>
        <time>2018-09-09T10:46:43Z</time>
      </trkpt>
      <trkpt lat="45.20672" lon="6.69108">
        <ele>1149.92</ele>
        <time>2018-09-09T10:46:44Z</time>
      </trkpt>
      <trkpt lat="45.20676" lon="6.6914">
        <ele>1150.99</ele>
        <time>2018-09-09T10:46:45Z</time>
      </trkpt>
      <trkpt lat="45.20682" lon="6.6917">
        <ele>1152.71</ele>
        <time>2018-09-09T10:46:46Z</time>
      </trkpt>
      <trkpt lat="45.20689" lon="6.692">
        <ele>1153.92</ele>
        <time>2018-09-09T10:46:47Z</time>
      </trkpt>
      <trkpt lat="45.20702" lon="6.69227">
        <ele>1155.69</ele>
        <time>2018-09-09T10:46:48Z</time>
      </trkpt>
      <trkpt lat="45.20712" lon="6.69254">
        <ele>1156.92</ele>
        <time>2018-09-09T10:46:49Z</time>
      </trkpt>
      <trkpt lat="45.2072" lon="6.69282">
        <ele>1158.69</ele>
        <time>2018-09-09T10:46:50Z</time>
      </trkpt>
      <trkpt lat="45.20727" lon="6.69309">
        <ele>1159.92</ele>
        <time>2018-09-09T10:46:51Z</time>
      </trkpt>
      <trkpt lat="45.20736" lon="6.69333">
        <ele>1160.99</ele>
        <time>2018-09-09T10:46:52Z</time>
      </trkpt>
      <trkpt lat="45.20749" lon="6.69352">
        <ele>1162.71</ele>
        <time>2018-09-09T10:46:53Z</time>
      </trkpt>
      <trkpt lat="45.20772" lon="6.69381">
        <ele>1165.9</ele>
        <time>2018-09-09T10:46:55Z</time>
      </trkpt>
      <trkpt lat="45.20771" lon="6.69415">
        <ele>1167.8</ele>
        <time>2018-09-09T10:46:57Z</time>
      </trkpt>
      <trkpt lat="45.2075" lon="6.69449">
        <ele>1170.7</ele>
        <time>2018-09-09T10:46:59Z</time>
      </trkpt>
      <trkpt lat="45.20735" lon="6.69468">
        <ele>1171.92</ele>
        <time>2018-09-09T10:47:00Z</time>
      </trkpt>
      <trkpt lat="45.20718" lon="6.69489">
        <ele>1173.69</ele>
        <time>2018-09-09T10:47:01Z</time>
      </trkpt>
      <trkpt lat="45.207" lon="6.69509">
        <ele>1175.62</ele>
        <time>2018-09-09T10:47:02Z</time>
      </trkpt>
      <trkpt lat="45.20683" lon="6.69525">
        <ele>1176.9</ele>
        <time>2018-09-09T10:47:03Z</time>
      </trkpt>
      <trkpt lat="45.20666" lon="6.69539">
        <ele>1177.98</ele>
        <time>2018-09-09T10:47:04Z</time>
      </trkpt>
      <trkpt lat="45.20651" lon="6.69554">
        <ele>1178.31</ele>
        <time>2018-09-09T10:47:05Z</time>
      </trkpt>
      <trkpt lat="45.20635" lon="6.69569">
        <ele>1178.4</ele>
        <time>2018-09-09T10:47:06Z</time>
      </trkpt>
      <trkpt lat="45.20627" lon="6.69595">
        <ele>1180.53</ele>
        <time>2018-09-09T10:47:07Z</time>
      </trkpt>
      <trkpt lat="45.20618" lon="6.6962">
        <ele>1181.17</ele>
        <time>2018-09-09T10:47:08Z</time>
      </trkpt>
      <trkpt lat="45.20609" lon="6.6965">
        <ele>1182.06</ele>
        <time>2018-09-09T10:47:09Z</time>
      </trkpt>
      <trkpt lat="45.20612" lon="6.69685">
        <ele>1184.43</ele>
        <time>2018-09-09T10:47:10Z</time>
      </trkpt>
      <trkpt lat="45.20608" lon="6.69719">
        <ele>1186.54</ele>
        <time>2018-09-09T10:47:11Z</time>
      </trkpt>
      <trkpt lat="45.20605" lon="6.69754">
        <ele>1187.87</ele>
        <time>2018-09-09T10:47:12Z</time>
      </trkpt>
      <trkpt lat="45.20601" lon="6.69788">
        <ele>1188.97</ele>
        <time>2018-09-09T10:47:13Z</time>
      </trkpt>
      <trkpt lat="45.20598" lon="6.69821">
        <ele>1190.7</ele>
        <time>2018-09-09T10:47:14Z</time>
      </trkpt>
      <trkpt lat="45.20596" lon="6.69856">
        <ele>1191.92</ele>
        <time>2018-09-09T10:47:15Z</time>
      </trkpt>
      <trkpt lat="45.20595" lon="6.69892">
        <ele>1192.29</ele>
        <time>2018-09-09T10:47:16Z</time>
      </trkpt>
      <trkpt lat="45.20594" lon="6.69927">
        <ele>1193.1</ele>
        <time>2018-09-09T10:47:17Z</time>
      </trkpt>
      <trkpt lat="45.20592" lon="6.69962">
        <ele>1194.04</ele>
        <time>2018-09-09T10:47:18Z</time>
      </trkpt>
      <trkpt lat="45.20589" lon="6.69997">
        <ele>1194.32</ele>
        <time>2018-09-09T10:47:19Z</time>
      </trkpt>
      <trkpt lat="45.20585" lon="6.7003">
        <ele>1195.81</ele>
        <time>2018-09-09T10:47:20Z</time>
      </trkpt>
      <trkpt lat="45.20582" lon="6.70064">
        <ele>1196.25</ele>
        <time>2018-09-09T10:47:21Z</time>
      </trkpt>
      <trkpt lat="45.20578" lon="6.70096">
        <ele>1197.09</ele>
        <time>2018-09-09T10:47:22Z</time>
      </trkpt>
      <trkpt lat="45.20575" lon="6.70129">
        <ele>1198.04</ele>
        <time>2018-09-09T10:47:23Z</time>
      </trkpt>
      <trkpt lat="45.20573" lon="6.70161">
        <ele>1198.32</ele>
        <time>2018-09-09T10:47:24Z</time>
      </trkpt>
      <trkpt lat="45.20573" lon="6.70191">
        <ele>1199.11</ele>
        <time>2018-09-09T10:47:25Z</time>
      </trkpt>
      <trkpt lat="45.20575" lon="6.70222">
        <ele>1199.34</ele>
        <time>2018-09-09T10:47:26Z</time>
      </trkpt>
      <trkpt lat="45.20579" lon="6.70251">
        <ele>1200.11</ele>
        <time>2018-09-09T10:47:27Z</time>
      </trkpt>
      <trkpt lat="45.20583" lon="6.70279">
        <ele>1199.65</ele>
        <time>2018-09-09T10:47:28Z</time>
      </trkpt>
      <trkpt lat="45.20584" lon="6.70305">
        <ele>1200.21</ele>
        <time>2018-09-09T10:47:29Z</time>
      </trkpt>
      <trkpt lat="45.20575" lon="6.70353">
        <ele>1201.33</ele>
        <time>2018-09-09T10:47:31Z</time>
      </trkpt>
      <trkpt lat="45.20567" lon="6.70379">
        <ele>1202.11</ele>
        <time>2018-09-09T10:47:32Z</time>
      </trkpt>
      <trkpt lat="45.20561" lon="6.70405">
        <ele>1202.34</ele>
        <time>2018-09-09T10:47:33Z</time>
      </trkpt>
      <trkpt lat="45.20557" lon="6.70431">
        <ele>1202.42</ele>
        <time>2018-09-09T10:47:34Z</time>
      </trkpt>
      <trkpt lat="45.20561" lon="6.70457">
        <ele>1203.14</ele>
        <time>2018-09-09T10:47:35Z</time>
      </trkpt>
      <trkpt lat="45.2056" lon="6.705">
        <ele>1204.12</ele>
        <time>2018-09-09T10:47:37Z</time>
      </trkpt>
      <trkpt lat="45.2056" lon="6.70528">
        <ele>1205.33</ele>
        <time>2018-09-09T10:47:39Z</time>
      </trkpt>
      <trkpt lat="45.20578" lon="6.70551">
        <ele>1205.43</ele>
        <time>2018-09-09T10:47:41Z</time>
      </trkpt>
      <trkpt lat="45.20598" lon="6.70586">
        <ele>1205.44</ele>
        <time>2018-09-09T10:47:43Z</time>
      </trkpt>
      <trkpt lat="45.20616" lon="6.70624">
        <ele>1206.35</ele>
        <time>2018-09-09T10:47:45Z</time>
      </trkpt>
      <trkpt lat="45.20634" lon="6.7066">
        <ele>1207.14</ele>
        <time>2018-09-09T10:47:47Z</time>
      </trkpt>
      <trkpt lat="45.20652" lon="6.70698">
        <ele>1208.12</ele>
        <time>2018-09-09T10:47:49Z</time>
      </trkpt>
      <trkpt lat="45.20667" lon="6.70739">
        <ele>1209.12</ele>
        <time>2018-09-09T10:47:51Z</time>
      </trkpt>
      <trkpt lat="45.20679" lon="6.70782">
        <ele>1210.12</ele>
        <time>2018-09-09T10:47:53Z</time>
      </trkpt>
      <trkpt lat="45.20693" lon="6.70826">
        <ele>1212.03</ele>
        <time>2018-09-09T10:47:55Z</time>
      </trkpt>
      <trkpt lat="45.20701" lon="6.70871">
        <ele>1213.32</ele>
        <time>2018-09-09T10:47:57Z</time>
      </trkpt>
      <trkpt lat="45.20699" lon="6.70918">
        <ele>1214.34</ele>
        <time>2018-09-09T10:47:59Z</time>
      </trkpt>
      <trkpt lat="45.20693" lon="6.70963">
        <ele>1216.05</ele>
        <time>2018-09-09T10:48:01Z</time>
      </trkpt>
      <trkpt lat="45.20696" lon="6.71011">
        <ele>1216.41</ele>
        <time>2018-09-09T10:48:03Z</time>
      </trkpt>
      <trkpt lat="45.20704" lon="6.7106">
        <ele>1217.35</ele>
        <time>2018-09-09T10:48:05Z</time>
      </trkpt>
      <trkpt lat="45.20707" lon="6.71085">
        <ele>1217.42</ele>
        <time>2018-09-09T10:48:06Z</time>
      </trkpt>
      <trkpt lat="45.2071" lon="6.71135">
        <ele>1218.14</ele>
        <time>2018-09-09T10:48:08Z</time>
      </trkpt>
      <trkpt lat="45.20707" lon="6.71185">
        <ele>1218.42</ele>
        <time>2018-09-09T10:48:10Z</time>
      </trkpt>
      <trkpt lat="45.20707" lon="6.71211">
        <ele>1219.14</ele>
        <time>2018-09-09T10:48:11Z</time>
      </trkpt>
      <trkpt lat="45.20709" lon="6.71237">
        <ele>1220.05</ele>
        <time>2018-09-09T10:48:12Z</time>
      </trkpt>
      <trkpt lat="45.20713" lon="6.71263">
        <ele>1220.33</ele>
        <time>2018-09-09T10:48:13Z</time>
      </trkpt>
      <trkpt lat="45.20717" lon="6.71289">
        <ele>1220.41</ele>
        <time>2018-09-09T10:48:14Z</time>
      </trkpt>
      <trkpt lat="45.20731" lon="6.71311">
        <ele>1220.43</ele>
        <time>2018-09-09T10:48:15Z</time>
      </trkpt>
      <trkpt lat="45.20742" lon="6.71335">
        <ele>1221.14</ele>
        <time>2018-09-09T10:48:16Z</time>
      </trkpt>
      <trkpt lat="45.20751" lon="6.7136">
        <ele>1220.65</ele>
        <time>2018-09-09T10:48:17Z</time>
      </trkpt>
      <trkpt lat="45.20756" lon="6.71386">
        <ele>1221.21</ele>
        <time>2018-09-09T10:48:18Z</time>
      </trkpt>
      <trkpt lat="45.20756" lon="6.71413">
        <ele>1221.37</ele>
        <time>2018-09-09T10:48:19Z</time>
      </trkpt>
      <trkpt lat="45.20753" lon="6.71441">
        <ele>1222.12</ele>
        <time>2018-09-09T10:48:20Z</time>
      </trkpt>
      <trkpt lat="45.20747" lon="6.7147">
        <ele>1222.35</ele>
        <time>2018-09-09T10:48:21Z</time>
      </trkpt>
      <trkpt lat="45.2074" lon="6.71499">
        <ele>1222.42</ele>
        <time>2018-09-09T10:48:22Z</time>
      </trkpt>
      <trkpt lat="45.20732" lon="6.71528">
        <ele>1222.44</ele>
        <time>2018-09-09T10:48:23Z</time>
      </trkpt>
      <trkpt lat="45.20726" lon="6.71554">
        <ele>1223.14</ele>
        <time>2018-09-09T10:48:24Z</time>
      </trkpt>
      <trkpt lat="45.20718" lon="6.71603">
        <ele>1223.63</ele>
        <time>2018-09-09T10:48:26Z</time>
      </trkpt>
      <trkpt lat="45.20727" lon="6.7163">
        <ele>1224.2</ele>
        <time>2018-09-09T10:48:27Z</time>
      </trkpt>
      <trkpt lat="45.20736" lon="6.71655">
        <ele>1224.37</ele>
        <time>2018-09-09T10:48:28Z</time>
      </trkpt>
      <trkpt lat="45.20746" lon="6.71678">
        <ele>1224.42</ele>
        <time>2018-09-09T10:48:29Z</time>
      </trkpt>
      <trkpt lat="45.20757" lon="6.71699">
        <ele>1224.44</ele>
        <time>2018-09-09T10:48:30Z</time>
      </trkpt>
      <trkpt lat="45.20786" lon="6.71723">
        <ele>1224.44</ele>
        <time>2018-09-09T10:48:32Z</time>
      </trkpt>
      <trkpt lat="45.20806" lon="6.71733">
        <ele>1224.44</ele>
        <time>2018-09-09T10:48:33Z</time>
      </trkpt>
      <trkpt lat="45.20832" lon="6.71743">
        <ele>1223.74</ele>
        <time>2018-09-09T10:48:34Z</time>
      </trkpt>
      <trkpt lat="45.20851" lon="6.71755">
        <ele>1224.23</ele>
        <time>2018-09-09T10:48:35Z</time>
      </trkpt>
      <trkpt lat="45.2087" lon="6.71768">
        <ele>1225.08</ele>
        <time>2018-09-09T10:48:36Z</time>
      </trkpt>
      <trkpt lat="45.20888" lon="6.71783">
        <ele>1225.34</ele>
        <time>2018-09-09T10:48:37Z</time>
      </trkpt>
      <trkpt lat="45.20906" lon="6.71798">
        <ele>1226.11</ele>
        <time>2018-09-09T10:48:38Z</time>
      </trkpt>
      <trkpt lat="45.20924" lon="6.71814">
        <ele>1227.05</ele>
        <time>2018-09-09T10:48:39Z</time>
      </trkpt>
      <trkpt lat="45.20942" lon="6.71832">
        <ele>1227.33</ele>
        <time>2018-09-09T10:48:40Z</time>
      </trkpt>
      <trkpt lat="45.2096" lon="6.7185">
        <ele>1228.11</ele>
        <time>2018-09-09T10:48:41Z</time>
      </trkpt>
      <trkpt lat="45.20974" lon="6.71868">
        <ele>1228.34</ele>
        <time>2018-09-09T10:48:42Z</time>
      </trkpt>
      <trkpt lat="45.20986" lon="6.71888">
        <ele>1229.11</ele>
        <time>2018-09-09T10:48:43Z</time>
      </trkpt>
      <trkpt lat="45.20994" lon="6.71912">
        <ele>1230.05</ele>
        <time>2018-09-09T10:48:44Z</time>
      </trkpt>
      <trkpt lat="45.21" lon="6.7194">
        <ele>1230.33</ele>
        <time>2018-09-09T10:48:45Z</time>
      </trkpt>
      <trkpt lat="45.21006" lon="6.71967">
        <ele>1230.41</ele>
        <time>2018-09-09T10:48:46Z</time>
      </trkpt>
      <trkpt lat="45.21013" lon="6.72014">
        <ele>1231.35</ele>
        <time>2018-09-09T10:48:48Z</time>
      </trkpt>
      <trkpt lat="45.21" lon="6.72037">
        <ele>1232.12</ele>
        <time>2018-09-09T10:48:49Z</time>
      </trkpt>
      <trkpt lat="45.21" lon="6.72064">
        <ele>1233.05</ele>
        <time>2018-09-09T10:48:50Z</time>
      </trkpt>
      <trkpt lat="45.21003" lon="6.72091">
        <ele>1233.33</ele>
        <time>2018-09-09T10:48:51Z</time>
      </trkpt>
      <trkpt lat="45.2101" lon="6.72121">
        <ele>1233.41</ele>
        <time>2018-09-09T10:48:52Z</time>
      </trkpt>
      <trkpt lat="45.21021" lon="6.72151">
        <ele>1234.13</ele>
        <time>2018-09-09T10:48:53Z</time>
      </trkpt>
      <trkpt lat="45.21031" lon="6.72181">
        <ele>1235.05</ele>
        <time>2018-09-09T10:48:54Z</time>
      </trkpt>
      <trkpt lat="45.2104" lon="6.72211">
        <ele>1235.33</ele>
        <time>2018-09-09T10:48:55Z</time>
      </trkpt>
      <trkpt lat="45.2105" lon="6.72241">
        <ele>1236.11</ele>
        <time>2018-09-09T10:48:56Z</time>
      </trkpt>
      <trkpt lat="45.2106" lon="6.7227">
        <ele>1236.34</ele>
        <time>2018-09-09T10:48:57Z</time>
      </trkpt>
      <trkpt lat="45.2107" lon="6.72299">
        <ele>1236.41</ele>
        <time>2018-09-09T10:48:58Z</time>
      </trkpt>
      <trkpt lat="45.21078" lon="6.72327">
        <ele>1236.44</ele>
        <time>2018-09-09T10:48:59Z</time>
      </trkpt>
      <trkpt lat="45.21086" lon="6.72354">
        <ele>1237.14</ele>
        <time>2018-09-09T10:49:00Z</time>
      </trkpt>
      <trkpt lat="45.21092" lon="6.7238">
        <ele>1237.35</ele>
        <time>2018-09-09T10:49:01Z</time>
      </trkpt>
      <trkpt lat="45.21081" lon="6.7243">
        <ele>1237.44</ele>
        <time>2018-09-09T10:49:03Z</time>
      </trkpt>
      <trkpt lat="45.21051" lon="6.72455">
        <ele>1238.14</ele>
        <time>2018-09-09T10:49:04Z</time>
      </trkpt>
      <trkpt lat="45.21039" lon="6.72483">
        <ele>1238.35</ele>
        <time>2018-09-09T10:49:05Z</time>
      </trkpt>
      <trkpt lat="45.21025" lon="6.72512">
        <ele>1239.82</ele>
        <time>2018-09-09T10:49:06Z</time>
      </trkpt>
      <trkpt lat="45.21013" lon="6.7254">
        <ele>1240.26</ele>
        <time>2018-09-09T10:49:07Z</time>
      </trkpt>
      <trkpt lat="45.21" lon="6.72568">
        <ele>1240.39</ele>
        <time>2018-09-09T10:49:08Z</time>
      </trkpt>
      <trkpt lat="45.20987" lon="6.72592">
        <ele>1241.13</ele>
        <time>2018-09-09T10:49:09Z</time>
      </trkpt>
      <trkpt lat="45.20971" lon="6.72612">
        <ele>1241.35</ele>
        <time>2018-09-09T10:49:10Z</time>
      </trkpt>
      <trkpt lat="45.20953" lon="6.72629">
        <ele>1242.12</ele>
        <time>2018-09-09T10:49:11Z</time>
      </trkpt>
      <trkpt lat="45.20937" lon="6.72649">
        <ele>1242.35</ele>
        <time>2018-09-09T10:49:12Z</time>
      </trkpt>
      <trkpt lat="45.20924" lon="6.72669">
        <ele>1242.42</ele>
        <time>2018-09-09T10:49:13Z</time>
      </trkpt>
      <trkpt lat="45.20914" lon="6.7269">
        <ele>1243.14</ele>
        <time>2018-09-09T10:49:14Z</time>
      </trkpt>
      <trkpt lat="45.20906" lon="6.72717">
        <ele>1244.75</ele>
        <time>2018-09-09T10:49:15Z</time>
      </trkpt>
      <trkpt lat="45.20901" lon="6.72742">
        <ele>1244.54</ele>
        <time>2018-09-09T10:49:16Z</time>
      </trkpt>
      <trkpt lat="45.20911" lon="6.72776">
        <ele>1245.87</ele>
        <time>2018-09-09T10:49:17Z</time>
      </trkpt>
      <trkpt lat="45.20909" lon="6.72808">
        <ele>1246.97</ele>
        <time>2018-09-09T10:49:18Z</time>
      </trkpt>
      <trkpt lat="45.20904" lon="6.72841">
        <ele>1247.3</ele>
        <time>2018-09-09T10:49:19Z</time>
      </trkpt>
      <trkpt lat="45.209" lon="6.72872">
        <ele>1248.1</ele>
        <time>2018-09-09T10:49:20Z</time>
      </trkpt>
      <trkpt lat="45.20896" lon="6.72904">
        <ele>1249.04</ele>
        <time>2018-09-09T10:49:21Z</time>
      </trkpt>
      <trkpt lat="45.20894" lon="6.72934">
        <ele>1250.02</ele>
        <time>2018-09-09T10:49:22Z</time>
      </trkpt>
      <trkpt lat="45.20894" lon="6.72965">
        <ele>1249.62</ele>
        <time>2018-09-09T10:49:23Z</time>
      </trkpt>
      <trkpt lat="45.20893" lon="6.72996">
        <ele>1250.2</ele>
        <time>2018-09-09T10:49:24Z</time>
      </trkpt>
      <trkpt lat="45.20893" lon="6.73026">
        <ele>1251.07</ele>
        <time>2018-09-09T10:49:25Z</time>
      </trkpt>
      <trkpt lat="45.20893" lon="6.73056">
        <ele>1250.63</ele>
        <time>2018-09-09T10:49:26Z</time>
      </trkpt>
      <trkpt lat="45.20893" lon="6.73085">
        <ele>1251.2</ele>
        <time>2018-09-09T10:49:27Z</time>
      </trkpt>
      <trkpt lat="45.20892" lon="6.73114">
        <ele>1251.37</ele>
        <time>2018-09-09T10:49:28Z</time>
      </trkpt>
      <trkpt lat="45.2089" lon="6.73144">
        <ele>1250.72</ele>
        <time>2018-09-09T10:49:29Z</time>
      </trkpt>
      <trkpt lat="45.20883" lon="6.73172">
        <ele>1251.23</ele>
        <time>2018-09-09T10:49:30Z</time>
      </trkpt>
      <trkpt lat="45.20876" lon="6.73199">
        <ele>1251.38</ele>
        <time>2018-09-09T10:49:31Z</time>
      </trkpt>
      <trkpt lat="45.20869" lon="6.73227">
        <ele>1252.13</ele>
        <time>2018-09-09T10:49:32Z</time>
      </trkpt>
      <trkpt lat="45.2086" lon="6.73253">
        <ele>1253.05</ele>
        <time>2018-09-09T10:49:33Z</time>
      </trkpt>
      <trkpt lat="45.2085" lon="6.73278">
        <ele>1253.33</ele>
        <time>2018-09-09T10:49:34Z</time>
      </trkpt>
      <trkpt lat="45.2084" lon="6.733">
        <ele>1253.41</ele>
        <time>2018-09-09T10:49:35Z</time>
      </trkpt>
      <trkpt lat="45.20812" lon="6.73328">
        <ele>1255.05</ele>
        <time>2018-09-09T10:49:37Z</time>
      </trkpt>
      <trkpt lat="45.2078" lon="6.73354">
        <ele>1256.32</ele>
        <time>2018-09-09T10:49:39Z</time>
      </trkpt>
      <trkpt lat="45.20764" lon="6.73368">
        <ele>1256.41</ele>
        <time>2018-09-09T10:49:40Z</time>
      </trkpt>
      <trkpt lat="45.20749" lon="6.73385">
        <ele>1256.43</ele>
        <time>2018-09-09T10:49:41Z</time>
      </trkpt>
      <trkpt lat="45.20723" lon="6.73418">
        <ele>1256.65</ele>
        <time>2018-09-09T10:49:43Z</time>
      </trkpt>
      <trkpt lat="45.20695" lon="6.73442">
        <ele>1257.37</ele>
        <time>2018-09-09T10:49:45Z</time>
      </trkpt>
      <trkpt lat="45.20675" lon="6.73444">
        <ele>1257.42</ele>
        <time>2018-09-09T10:49:46Z</time>
      </trkpt>
      <trkpt lat="45.20652" lon="6.7346">
        <ele>1259.26</ele>
        <time>2018-09-09T10:49:48Z</time>
      </trkpt>
      <trkpt lat="45.2063" lon="6.73482">
        <ele>1260.34</ele>
        <time>2018-09-09T10:49:50Z</time>
      </trkpt>
      <trkpt lat="45.20636" lon="6.73507">
        <ele>1256.44</ele>
        <time>2018-09-09T10:50:35Z</time>
      </trkpt>
      <trkpt lat="45.20646" lon="6.73542">
        <ele>1256.51</ele>
        <time>2018-09-09T10:50:38Z</time>
      </trkpt>
      <trkpt lat="45.20661" lon="6.73565">
        <ele>1257.15</ele>
        <time>2018-09-09T10:50:40Z</time>
      </trkpt>
      <trkpt lat="45.20682" lon="6.73578">
        <ele>1258.33</ele>
        <time>2018-09-09T10:50:42Z</time>
      </trkpt>
      <trkpt lat="45.20705" lon="6.73587">
        <ele>1257.73</ele>
        <time>2018-09-09T10:50:44Z</time>
      </trkpt>
      <trkpt lat="45.20725" lon="6.73599">
        <ele>1257.47</ele>
        <time>2018-09-09T10:50:46Z</time>
      </trkpt>
      <trkpt lat="45.20746" lon="6.73622">
        <ele>1258.36</ele>
        <time>2018-09-09T10:50:49Z</time>
      </trkpt>
      <trkpt lat="45.20756" lon="6.73646">
        <ele>1258.44</ele>
        <time>2018-09-09T10:50:51Z</time>
      </trkpt>
      <trkpt lat="45.20765" lon="6.73669">
        <ele>1257.53</ele>
        <time>2018-09-09T10:50:53Z</time>
      </trkpt>
      <trkpt lat="45.20776" lon="6.73696">
        <ele>1256.54</ele>
        <time>2018-09-09T10:50:56Z</time>
      </trkpt>
      <trkpt lat="45.20787" lon="6.73719">
        <ele>1255.75</ele>
        <time>2018-09-09T10:50:59Z</time>
      </trkpt>
      <trkpt lat="45.208" lon="6.7375">
        <ele>1255.45</ele>
        <time>2018-09-09T10:51:02Z</time>
      </trkpt>
      <trkpt lat="45.20809" lon="6.73774">
        <ele>1254.54</ele>
        <time>2018-09-09T10:51:04Z</time>
      </trkpt>
      <trkpt lat="45.20819" lon="6.73798">
        <ele>1254.45</ele>
        <time>2018-09-09T10:51:06Z</time>
      </trkpt>
      <trkpt lat="45.20828" lon="6.73826">
        <ele>1253.54</ele>
        <time>2018-09-09T10:51:08Z</time>
      </trkpt>
      <trkpt lat="45.20838" lon="6.73857">
        <ele>1253.45</ele>
        <time>2018-09-09T10:51:10Z</time>
      </trkpt>
      <trkpt lat="45.20846" lon="6.73888">
        <ele>1252.54</ele>
        <time>2018-09-09T10:51:12Z</time>
      </trkpt>
      <trkpt lat="45.20854" lon="6.73911">
        <ele>1255.44</ele>
        <time>2018-09-09T10:51:54Z</time>
      </trkpt>
      <trkpt lat="45.20864" lon="6.73949">
        <ele>1255.65</ele>
        <time>2018-09-09T10:51:56Z</time>
      </trkpt>
      <trkpt lat="45.20875" lon="6.73994">
        <ele>1254.76</ele>
        <time>2018-09-09T10:51:58Z</time>
      </trkpt>
      <trkpt lat="45.20891" lon="6.74037">
        <ele>1253.56</ele>
        <time>2018-09-09T10:52:00Z</time>
      </trkpt>
      <trkpt lat="45.20914" lon="6.7407">
        <ele>1252.55</ele>
        <time>2018-09-09T10:52:02Z</time>
      </trkpt>
      <trkpt lat="45.20939" lon="6.74086">
        <ele>1251.54</ele>
        <time>2018-09-09T10:52:04Z</time>
      </trkpt>
      <trkpt lat="45.20968" lon="6.74106">
        <ele>1248.93</ele>
        <time>2018-09-09T10:52:06Z</time>
      </trkpt>
      <trkpt lat="45.20998" lon="6.74137">
        <ele>1248.49</ele>
        <time>2018-09-09T10:52:08Z</time>
      </trkpt>
      <trkpt lat="45.21012" lon="6.74161">
        <ele>1248.46</ele>
        <time>2018-09-09T10:52:09Z</time>
      </trkpt>
      <trkpt lat="45.2102" lon="6.74192">
        <ele>1247.75</ele>
        <time>2018-09-09T10:52:10Z</time>
      </trkpt>
      <trkpt lat="45.21032" lon="6.74218">
        <ele>1246.84</ele>
        <time>2018-09-09T10:52:11Z</time>
      </trkpt>
      <trkpt lat="45.21045" lon="6.74241">
        <ele>1246.56</ele>
        <time>2018-09-09T10:52:12Z</time>
      </trkpt>
      <trkpt lat="45.21066" lon="6.74284">
        <ele>1246.46</ele>
        <time>2018-09-09T10:52:14Z</time>
      </trkpt>
      <trkpt lat="45.21069" lon="6.74314">
        <ele>1245.05</ele>
        <time>2018-09-09T10:52:15Z</time>
      </trkpt>
      <trkpt lat="45.21077" lon="6.74343">
        <ele>1244.63</ele>
        <time>2018-09-09T10:52:16Z</time>
      </trkpt>
      <trkpt lat="45.21084" lon="6.74373">
        <ele>1243.8</ele>
        <time>2018-09-09T10:52:17Z</time>
      </trkpt>
      <trkpt lat="45.21087" lon="6.74403">
        <ele>1243.55</ele>
        <time>2018-09-09T10:52:18Z</time>
      </trkpt>
      <trkpt lat="45.21092" lon="6.74431">
        <ele>1242.78</ele>
        <time>2018-09-09T10:52:19Z</time>
      </trkpt>
      <trkpt lat="45.211" lon="6.74458">
        <ele>1242.54</ele>
        <time>2018-09-09T10:52:20Z</time>
      </trkpt>
      <trkpt lat="45.21112" lon="6.74485">
        <ele>1242.47</ele>
        <time>2018-09-09T10:52:21Z</time>
      </trkpt>
      <trkpt lat="45.21124" lon="6.74513">
        <ele>1241.75</ele>
        <time>2018-09-09T10:52:22Z</time>
      </trkpt>
      <trkpt lat="45.21132" lon="6.74541">
        <ele>1241.54</ele>
        <time>2018-09-09T10:52:23Z</time>
      </trkpt>
      <trkpt lat="45.2114" lon="6.74568">
        <ele>1241.47</ele>
        <time>2018-09-09T10:52:24Z</time>
      </trkpt>
      <trkpt lat="45.2115" lon="6.74592">
        <ele>1240.75</ele>
        <time>2018-09-09T10:52:25Z</time>
      </trkpt>
      <trkpt lat="45.21163" lon="6.74611">
        <ele>1239.84</ele>
        <time>2018-09-09T10:52:26Z</time>
      </trkpt>
      <trkpt lat="45.21193" lon="6.74634">
        <ele>1238.08</ele>
        <time>2018-09-09T10:52:28Z</time>
      </trkpt>
      <trkpt lat="45.21228" lon="6.74642">
        <ele>1235.89</ele>
        <time>2018-09-09T10:52:30Z</time>
      </trkpt>
      <trkpt lat="45.21259" lon="6.7466">
        <ele>1232.97</ele>
        <time>2018-09-09T10:52:32Z</time>
      </trkpt>
      <trkpt lat="45.21277" lon="6.74678">
        <ele>1232.6</ele>
        <time>2018-09-09T10:52:33Z</time>
      </trkpt>
      <trkpt lat="45.21295" lon="6.74704">
        <ele>1232.49</ele>
        <time>2018-09-09T10:52:34Z</time>
      </trkpt>
      <trkpt lat="45.21311" lon="6.74727">
        <ele>1231.76</ele>
        <time>2018-09-09T10:52:35Z</time>
      </trkpt>
      <trkpt lat="45.21326" lon="6.74751">
        <ele>1232.94</ele>
        <time>2018-09-09T10:52:36Z</time>
      </trkpt>
      <trkpt lat="45.21341" lon="6.7478">
        <ele>1233.29</ele>
        <time>2018-09-09T10:52:37Z</time>
      </trkpt>
      <trkpt lat="45.21354" lon="6.74811">
        <ele>1234.1</ele>
        <time>2018-09-09T10:52:38Z</time>
      </trkpt>
      <trkpt lat="45.21364" lon="6.7484">
        <ele>1232.94</ele>
        <time>2018-09-09T10:52:39Z</time>
      </trkpt>
      <trkpt lat="45.21376" lon="6.74865">
        <ele>1231.19</ele>
        <time>2018-09-09T10:52:40Z</time>
      </trkpt>
      <trkpt lat="45.2139" lon="6.74886">
        <ele>1230.67</ele>
        <time>2018-09-09T10:52:41Z</time>
      </trkpt>
      <trkpt lat="45.21408" lon="6.749">
        <ele>1230.51</ele>
        <time>2018-09-09T10:52:42Z</time>
      </trkpt>
      <trkpt lat="45.21429" lon="6.74914">
        <ele>1230.47</ele>
        <time>2018-09-09T10:52:43Z</time>
      </trkpt>
      <trkpt lat="45.21443" lon="6.74939">
        <ele>1229.05</ele>
        <time>2018-09-09T10:52:44Z</time>
      </trkpt>
      <trkpt lat="45.21457" lon="6.74961">
        <ele>1227.93</ele>
        <time>2018-09-09T10:52:45Z</time>
      </trkpt>
      <trkpt lat="45.21468" lon="6.74993">
        <ele>1226.89</ele>
        <time>2018-09-09T10:52:46Z</time>
      </trkpt>
      <trkpt lat="45.21476" lon="6.75023">
        <ele>1227.16</ele>
        <time>2018-09-09T10:52:47Z</time>
      </trkpt>
      <trkpt lat="45.21483" lon="6.75054">
        <ele>1227.24</ele>
        <time>2018-09-09T10:52:48Z</time>
      </trkpt>
      <trkpt lat="45.21491" lon="6.75085">
        <ele>1227.26</ele>
        <time>2018-09-09T10:52:49Z</time>
      </trkpt>
      <trkpt lat="45.21493" lon="6.75119">
        <ele>1226.57</ele>
        <time>2018-09-09T10:52:50Z</time>
      </trkpt>
      <trkpt lat="45.21483" lon="6.75144">
        <ele>1227.06</ele>
        <time>2018-09-09T10:52:51Z</time>
      </trkpt>
      <trkpt lat="45.21483" lon="6.75172">
        <ele>1226.51</ele>
        <time>2018-09-09T10:52:52Z</time>
      </trkpt>
      <trkpt lat="45.21489" lon="6.752">
        <ele>1224.94</ele>
        <time>2018-09-09T10:52:53Z</time>
      </trkpt>
      <trkpt lat="45.21494" lon="6.75227">
        <ele>1224.47</ele>
        <time>2018-09-09T10:52:54Z</time>
      </trkpt>
      <trkpt lat="45.2151" lon="6.75251">
        <ele>1223.63</ele>
        <time>2018-09-09T10:52:55Z</time>
      </trkpt>
      <trkpt lat="45.21526" lon="6.75271">
        <ele>1223.38</ele>
        <time>2018-09-09T10:52:56Z</time>
      </trkpt>
      <trkpt lat="45.21544" lon="6.7529">
        <ele>1223.3</ele>
        <time>2018-09-09T10:52:57Z</time>
      </trkpt>
      <trkpt lat="45.21564" lon="6.75306">
        <ele>1222.58</ele>
        <time>2018-09-09T10:52:58Z</time>
      </trkpt>
      <trkpt lat="45.21583" lon="6.75321">
        <ele>1223.06</ele>
        <time>2018-09-09T10:52:59Z</time>
      </trkpt>
      <trkpt lat="45.21601" lon="6.75331">
        <ele>1222.51</ele>
        <time>2018-09-09T10:53:00Z</time>
      </trkpt>
      <trkpt lat="45.21622" lon="6.75336">
        <ele>1222.34</ele>
        <time>2018-09-09T10:53:01Z</time>
      </trkpt>
      <trkpt lat="45.2164" lon="6.75341">
        <ele>1221.59</ele>
        <time>2018-09-09T10:53:02Z</time>
      </trkpt>
      <trkpt lat="45.21671" lon="6.75362">
        <ele>1220.39</ele>
        <time>2018-09-09T10:53:04Z</time>
      </trkpt>
      <trkpt lat="45.21686" lon="6.7538">
        <ele>1220.31</ele>
        <time>2018-09-09T10:53:05Z</time>
      </trkpt>
      <trkpt lat="45.21695" lon="6.75409">
        <ele>1218.18</ele>
        <time>2018-09-09T10:53:06Z</time>
      </trkpt>
      <trkpt lat="45.21704" lon="6.75443">
        <ele>1216.84</ele>
        <time>2018-09-09T10:53:07Z</time>
      </trkpt>
      <trkpt lat="45.21717" lon="6.7547">
        <ele>1215.04</ele>
        <time>2018-09-09T10:53:08Z</time>
      </trkpt>
      <trkpt lat="45.21737" lon="6.75495">
        <ele>1214.5</ele>
        <time>2018-09-09T10:53:09Z</time>
      </trkpt>
      <trkpt lat="45.21757" lon="6.75519">
        <ele>1214.34</ele>
        <time>2018-09-09T10:53:10Z</time>
      </trkpt>
      <trkpt lat="45.21778" lon="6.75547">
        <ele>1214.29</ele>
        <time>2018-09-09T10:53:11Z</time>
      </trkpt>
      <trkpt lat="45.21796" lon="6.75574">
        <ele>1213.58</ele>
        <time>2018-09-09T10:53:12Z</time>
      </trkpt>
      <trkpt lat="45.21815" lon="6.75602">
        <ele>1213.36</ele>
        <time>2018-09-09T10:53:13Z</time>
      </trkpt>
      <trkpt lat="45.21832" lon="6.75631">
        <ele>1212.6</ele>
        <time>2018-09-09T10:53:14Z</time>
      </trkpt>
      <trkpt lat="45.21849" lon="6.75662">
        <ele>1212.37</ele>
        <time>2018-09-09T10:53:15Z</time>
      </trkpt>
      <trkpt lat="45.21866" lon="6.75692">
        <ele>1211.6</ele>
        <time>2018-09-09T10:53:16Z</time>
      </trkpt>
      <trkpt lat="45.21882" lon="6.75722">
        <ele>1211.37</ele>
        <time>2018-09-09T10:53:17Z</time>
      </trkpt>
      <trkpt lat="45.21896" lon="6.7575">
        <ele>1210.6</ele>
        <time>2018-09-09T10:53:18Z</time>
      </trkpt>
      <trkpt lat="45.21904" lon="6.75781">
        <ele>1211.07</ele>
        <time>2018-09-09T10:53:19Z</time>
      </trkpt>
      <trkpt lat="45.21914" lon="6.75812">
        <ele>1211.21</ele>
        <time>2018-09-09T10:53:20Z</time>
      </trkpt>
      <trkpt lat="45.21918" lon="6.7585">
        <ele>1211.25</ele>
        <time>2018-09-09T10:53:21Z</time>
      </trkpt>
      <trkpt lat="45.21917" lon="6.75891">
        <ele>1211.27</ele>
        <time>2018-09-09T10:53:22Z</time>
      </trkpt>
      <trkpt lat="45.21919" lon="6.7593">
        <ele>1210.57</ele>
        <time>2018-09-09T10:53:23Z</time>
      </trkpt>
      <trkpt lat="45.21919" lon="6.75967">
        <ele>1210.36</ele>
        <time>2018-09-09T10:53:24Z</time>
      </trkpt>
      <trkpt lat="45.21922" lon="6.76001">
        <ele>1208.9</ele>
        <time>2018-09-09T10:53:25Z</time>
      </trkpt>
      <trkpt lat="45.21926" lon="6.76035">
        <ele>1208.46</ele>
        <time>2018-09-09T10:53:26Z</time>
      </trkpt>
      <trkpt lat="45.2193" lon="6.76067">
        <ele>1208.33</ele>
        <time>2018-09-09T10:53:27Z</time>
      </trkpt>
      <trkpt lat="45.21946" lon="6.76092">
        <ele>1206.89</ele>
        <time>2018-09-09T10:53:28Z</time>
      </trkpt>
      <trkpt lat="45.21959" lon="6.76115">
        <ele>1206.46</ele>
        <time>2018-09-09T10:53:29Z</time>
      </trkpt>
      <trkpt lat="45.21977" lon="6.76133">
        <ele>1205.63</ele>
        <time>2018-09-09T10:53:30Z</time>
      </trkpt>
      <trkpt lat="45.21997" lon="6.76148">
        <ele>1204.68</ele>
        <time>2018-09-09T10:53:31Z</time>
      </trkpt>
      <trkpt lat="45.2202" lon="6.76161">
        <ele>1203.69</ele>
        <time>2018-09-09T10:53:32Z</time>
      </trkpt>
      <trkpt lat="45.22044" lon="6.76172">
        <ele>1202.7</ele>
        <time>2018-09-09T10:53:33Z</time>
      </trkpt>
      <trkpt lat="45.22069" lon="6.76181">
        <ele>1202.4</ele>
        <time>2018-09-09T10:53:34Z</time>
      </trkpt>
      <trkpt lat="45.22095" lon="6.7619">
        <ele>1202.31</ele>
        <time>2018-09-09T10:53:35Z</time>
      </trkpt>
      <trkpt lat="45.22121" lon="6.76198">
        <ele>1202.28</ele>
        <time>2018-09-09T10:53:36Z</time>
      </trkpt>
      <trkpt lat="45.22147" lon="6.76206">
        <ele>1201.57</ele>
        <time>2018-09-09T10:53:37Z</time>
      </trkpt>
      <trkpt lat="45.22173" lon="6.76213">
        <ele>1201.36</ele>
        <time>2018-09-09T10:53:38Z</time>
      </trkpt>
      <trkpt lat="45.22199" lon="6.76219">
        <ele>1200.6</ele>
        <time>2018-09-09T10:53:39Z</time>
      </trkpt>
      <trkpt lat="45.22226" lon="6.76223">
        <ele>1201.07</ele>
        <time>2018-09-09T10:53:40Z</time>
      </trkpt>
      <trkpt lat="45.22252" lon="6.76228">
        <ele>1200.51</ele>
        <time>2018-09-09T10:53:41Z</time>
      </trkpt>
      <trkpt lat="45.22276" lon="6.76234">
        <ele>1200.34</ele>
        <time>2018-09-09T10:53:42Z</time>
      </trkpt>
      <trkpt lat="45.22299" lon="6.76239">
        <ele>1200.99</ele>
        <time>2018-09-09T10:53:43Z</time>
      </trkpt>
      <trkpt lat="45.22321" lon="6.76247">
        <ele>1201.89</ele>
        <time>2018-09-09T10:53:44Z</time>
      </trkpt>
      <trkpt lat="45.2234" lon="6.7626">
        <ele>1202.16</ele>
        <time>2018-09-09T10:53:45Z</time>
      </trkpt>
      <trkpt lat="45.22355" lon="6.76277">
        <ele>1202.24</ele>
        <time>2018-09-09T10:53:46Z</time>
      </trkpt>
      <trkpt lat="45.22367" lon="6.76298">
        <ele>1201.56</ele>
        <time>2018-09-09T10:53:47Z</time>
      </trkpt>
      <trkpt lat="45.22378" lon="6.76319">
        <ele>1202.06</ele>
        <time>2018-09-09T10:53:48Z</time>
      </trkpt>
      <trkpt lat="45.22387" lon="6.76347">
        <ele>1202.21</ele>
        <time>2018-09-09T10:53:49Z</time>
      </trkpt>
      <trkpt lat="45.22389" lon="6.76382">
        <ele>1202.95</ele>
        <time>2018-09-09T10:53:50Z</time>
      </trkpt>
      <trkpt lat="45.22395" lon="6.76417">
        <ele>1203.88</ele>
        <time>2018-09-09T10:53:51Z</time>
      </trkpt>
      <trkpt lat="45.22402" lon="6.76454">
        <ele>1204.15</ele>
        <time>2018-09-09T10:53:52Z</time>
      </trkpt>
      <trkpt lat="45.2241" lon="6.76488">
        <ele>1204.24</ele>
        <time>2018-09-09T10:53:53Z</time>
      </trkpt>
      <trkpt lat="45.22422" lon="6.7652">
        <ele>1204.96</ele>
        <time>2018-09-09T10:53:54Z</time>
      </trkpt>
      <trkpt lat="45.22437" lon="6.76551">
        <ele>1204.48</ele>
        <time>2018-09-09T10:53:55Z</time>
      </trkpt>
      <trkpt lat="45.22451" lon="6.7658">
        <ele>1204.33</ele>
        <time>2018-09-09T10:53:56Z</time>
      </trkpt>
      <trkpt lat="45.22465" lon="6.7661">
        <ele>1204.99</ele>
        <time>2018-09-09T10:53:57Z</time>
      </trkpt>
      <trkpt lat="45.2248" lon="6.7664">
        <ele>1205.19</ele>
        <time>2018-09-09T10:53:58Z</time>
      </trkpt>
      <trkpt lat="45.22493" lon="6.76672">
        <ele>1205.25</ele>
        <time>2018-09-09T10:53:59Z</time>
      </trkpt>
      <trkpt lat="45.22503" lon="6.76705">
        <ele>1205.26</ele>
        <time>2018-09-09T10:54:00Z</time>
      </trkpt>
      <trkpt lat="45.22513" lon="6.76738">
        <ele>1205.97</ele>
        <time>2018-09-09T10:54:01Z</time>
      </trkpt>
      <trkpt lat="45.22521" lon="6.76772">
        <ele>1206.88</ele>
        <time>2018-09-09T10:54:02Z</time>
      </trkpt>
      <trkpt lat="45.22529" lon="6.76805">
        <ele>1207.85</ele>
        <time>2018-09-09T10:54:03Z</time>
      </trkpt>
      <trkpt lat="45.22536" lon="6.76839">
        <ele>1208.85</ele>
        <time>2018-09-09T10:54:04Z</time>
      </trkpt>
      <trkpt lat="45.22543" lon="6.76872">
        <ele>1209.84</ele>
        <time>2018-09-09T10:54:05Z</time>
      </trkpt>
      <trkpt lat="45.22551" lon="6.76904">
        <ele>1211.54</ele>
        <time>2018-09-09T10:54:06Z</time>
      </trkpt>
      <trkpt lat="45.22558" lon="6.76937">
        <ele>1212.75</ele>
        <time>2018-09-09T10:54:07Z</time>
      </trkpt>
      <trkpt lat="45.22566" lon="6.7697">
        <ele>1213.12</ele>
        <time>2018-09-09T10:54:08Z</time>
      </trkpt>
      <trkpt lat="45.22573" lon="6.77003">
        <ele>1214.62</ele>
        <time>2018-09-09T10:54:09Z</time>
      </trkpt>
      <trkpt lat="45.2258" lon="6.77036">
        <ele>1215.78</ele>
        <time>2018-09-09T10:54:10Z</time>
      </trkpt>
      <trkpt lat="45.22587" lon="6.77069">
        <ele>1216.12</ele>
        <time>2018-09-09T10:54:11Z</time>
      </trkpt>
      <trkpt lat="45.22595" lon="6.77103">
        <ele>1216.93</ele>
        <time>2018-09-09T10:54:12Z</time>
      </trkpt>
      <trkpt lat="45.22602" lon="6.77136">
        <ele>1217.87</ele>
        <time>2018-09-09T10:54:13Z</time>
      </trkpt>
      <trkpt lat="45.2261" lon="6.77169">
        <ele>1218.85</ele>
        <time>2018-09-09T10:54:14Z</time>
      </trkpt>
      <trkpt lat="45.22617" lon="6.77201">
        <ele>1219.14</ele>
        <time>2018-09-09T10:54:15Z</time>
      </trkpt>
      <trkpt lat="45.22624" lon="6.77233">
        <ele>1220.63</ele>
        <time>2018-09-09T10:54:16Z</time>
      </trkpt>
      <trkpt lat="45.22631" lon="6.77264">
        <ele>1221.78</ele>
        <time>2018-09-09T10:54:17Z</time>
      </trkpt>
      <trkpt lat="45.22638" lon="6.77292">
        <ele>1222.12</ele>
        <time>2018-09-09T10:54:18Z</time>
      </trkpt>
      <trkpt lat="45.22647" lon="6.77318">
        <ele>1222.93</ele>
        <time>2018-09-09T10:54:19Z</time>
      </trkpt>
      <trkpt lat="45.22657" lon="6.77345">
        <ele>1223.87</ele>
        <time>2018-09-09T10:54:20Z</time>
      </trkpt>
      <trkpt lat="45.22668" lon="6.77369">
        <ele>1224.15</ele>
        <time>2018-09-09T10:54:21Z</time>
      </trkpt>
      <trkpt lat="45.22679" lon="6.77391">
        <ele>1224.23</ele>
        <time>2018-09-09T10:54:22Z</time>
      </trkpt>
      <trkpt lat="45.22697" lon="6.7743">
        <ele>1225.18</ele>
        <time>2018-09-09T10:54:24Z</time>
      </trkpt>
      <trkpt lat="45.22714" lon="6.77463">
        <ele>1226.17</ele>
        <time>2018-09-09T10:54:26Z</time>
      </trkpt>
      <trkpt lat="45.22729" lon="6.77493">
        <ele>1226.05</ele>
        <time>2018-09-09T10:54:28Z</time>
      </trkpt>
      <trkpt lat="45.22742" lon="6.77526">
        <ele>1225.34</ele>
        <time>2018-09-09T10:54:30Z</time>
      </trkpt>
      <trkpt lat="45.22755" lon="6.77554">
        <ele>1225.28</ele>
        <time>2018-09-09T10:54:32Z</time>
      </trkpt>
      <trkpt lat="45.22769" lon="6.77571">
        <ele>1223.3</ele>
        <time>2018-09-09T10:54:41Z</time>
      </trkpt>
      <trkpt lat="45.22757" lon="6.77542">
        <ele>1223.27</ele>
        <time>2018-09-09T10:54:46Z</time>
      </trkpt>
      <trkpt lat="45.22744" lon="6.77516">
        <ele>1223.27</ele>
        <time>2018-09-09T10:54:48Z</time>
      </trkpt>
      <trkpt lat="45.22732" lon="6.77491">
        <ele>1223.97</ele>
        <time>2018-09-09T10:54:50Z</time>
      </trkpt>
      <trkpt lat="45.22717" lon="6.77466">
        <ele>1224.26</ele>
        <time>2018-09-09T10:54:53Z</time>
      </trkpt>
      <trkpt lat="45.22701" lon="6.77447">
        <ele>1223.28</ele>
        <time>2018-09-09T10:54:57Z</time>
      </trkpt>
      <trkpt lat="45.22689" lon="6.77467">
        <ele>1224.18</ele>
        <time>2018-09-09T10:55:02Z</time>
      </trkpt>
      <trkpt lat="45.22711" lon="6.77463">
        <ele>1221.58</ele>
        <time>2018-09-09T10:55:36Z</time>
      </trkpt>
      <trkpt lat="45.22729" lon="6.77495">
        <ele>1223.16</ele>
        <time>2018-09-09T10:55:39Z</time>
      </trkpt>
      <trkpt lat="45.22745" lon="6.77527">
        <ele>1223.26</ele>
        <time>2018-09-09T10:55:41Z</time>
      </trkpt>
      <trkpt lat="45.22761" lon="6.7756">
        <ele>1223.27</ele>
        <time>2018-09-09T10:55:43Z</time>
      </trkpt>
      <trkpt lat="45.22779" lon="6.77596">
        <ele>1223.27</ele>
        <time>2018-09-09T10:55:45Z</time>
      </trkpt>
      <trkpt lat="45.22797" lon="6.77632">
        <ele>1222.36</ele>
        <time>2018-09-09T10:55:47Z</time>
      </trkpt>
      <trkpt lat="45.22815" lon="6.7767">
        <ele>1222.28</ele>
        <time>2018-09-09T10:55:49Z</time>
      </trkpt>
      <trkpt lat="45.22833" lon="6.77706">
        <ele>1223.18</ele>
        <time>2018-09-09T10:55:51Z</time>
      </trkpt>
      <trkpt lat="45.22852" lon="6.77741">
        <ele>1223.05</ele>
        <time>2018-09-09T10:55:53Z</time>
      </trkpt>
      <trkpt lat="45.2287" lon="6.77779">
        <ele>1222.55</ele>
        <time>2018-09-09T10:55:55Z</time>
      </trkpt>
      <trkpt lat="45.22891" lon="6.77816">
        <ele>1221.6</ele>
        <time>2018-09-09T10:55:57Z</time>
      </trkpt>
      <trkpt lat="45.22909" lon="6.77855">
        <ele>1219.69</ele>
        <time>2018-09-09T10:55:59Z</time>
      </trkpt>
      <trkpt lat="45.22928" lon="6.77894">
        <ele>1219.52</ele>
        <time>2018-09-09T10:56:01Z</time>
      </trkpt>
      <trkpt lat="45.22947" lon="6.77933">
        <ele>1219.99</ele>
        <time>2018-09-09T10:56:03Z</time>
      </trkpt>
      <trkpt lat="45.22967" lon="6.77973">
        <ele>1220.25</ele>
        <time>2018-09-09T10:56:05Z</time>
      </trkpt>
      <trkpt lat="45.22987" lon="6.78013">
        <ele>1219.57</ele>
        <time>2018-09-09T10:56:07Z</time>
      </trkpt>
      <trkpt lat="45.23006" lon="6.78051">
        <ele>1220</ele>
        <time>2018-09-09T10:56:09Z</time>
      </trkpt>
      <trkpt lat="45.23024" lon="6.7809">
        <ele>1219.55</ele>
        <time>2018-09-09T10:56:11Z</time>
      </trkpt>
      <trkpt lat="45.23044" lon="6.78123">
        <ele>1219.3</ele>
        <time>2018-09-09T10:56:13Z</time>
      </trkpt>
      <trkpt lat="45.23063" lon="6.78151">
        <ele>1219.27</ele>
        <time>2018-09-09T10:56:15Z</time>
      </trkpt>
      <trkpt lat="45.23078" lon="6.78181">
        <ele>1219.27</ele>
        <time>2018-09-09T10:56:17Z</time>
      </trkpt>
      <trkpt lat="45.23088" lon="6.78209">
        <ele>1219.27</ele>
        <time>2018-09-09T10:56:19Z</time>
      </trkpt>
      <trkpt lat="45.23099" lon="6.78234">
        <ele>1219.97</ele>
        <time>2018-09-09T10:56:21Z</time>
      </trkpt>
      <trkpt lat="45.23114" lon="6.78261">
        <ele>1220.24</ele>
        <time>2018-09-09T10:56:23Z</time>
      </trkpt>
      <trkpt lat="45.23129" lon="6.78296">
        <ele>1219.36</ele>
        <time>2018-09-09T10:56:25Z</time>
      </trkpt>
      <trkpt lat="45.23144" lon="6.78329">
        <ele>1219.28</ele>
        <time>2018-09-09T10:56:27Z</time>
      </trkpt>
      <trkpt lat="45.23157" lon="6.7836">
        <ele>1219.27</ele>
        <time>2018-09-09T10:56:29Z</time>
      </trkpt>
      <trkpt lat="45.23172" lon="6.78389">
        <ele>1219.27</ele>
        <time>2018-09-09T10:56:31Z</time>
      </trkpt>
      <trkpt lat="45.23186" lon="6.78417">
        <ele>1219.27</ele>
        <time>2018-09-09T10:56:33Z</time>
      </trkpt>
      <trkpt lat="45.23198" lon="6.78444">
        <ele>1219.27</ele>
        <time>2018-09-09T10:56:35Z</time>
      </trkpt>
      <trkpt lat="45.23209" lon="6.78467">
        <ele>1220.18</ele>
        <time>2018-09-09T10:56:37Z</time>
      </trkpt>
      <trkpt lat="45.2322" lon="6.78488">
        <ele>1220.26</ele>
        <time>2018-09-09T10:56:39Z</time>
      </trkpt>
      <trkpt lat="45.23233" lon="6.78513">
        <ele>1219.36</ele>
        <time>2018-09-09T10:56:41Z</time>
      </trkpt>
      <trkpt lat="45.23248" lon="6.78542">
        <ele>1219.28</ele>
        <time>2018-09-09T10:56:43Z</time>
      </trkpt>
      <trkpt lat="45.23264" lon="6.78571">
        <ele>1219.27</ele>
        <time>2018-09-09T10:56:45Z</time>
      </trkpt>
      <trkpt lat="45.23281" lon="6.78597">
        <ele>1220.18</ele>
        <time>2018-09-09T10:56:47Z</time>
      </trkpt>
      <trkpt lat="45.23299" lon="6.78623">
        <ele>1220.26</ele>
        <time>2018-09-09T10:56:49Z</time>
      </trkpt>
      <trkpt lat="45.23321" lon="6.78649">
        <ele>1221.18</ele>
        <time>2018-09-09T10:56:51Z</time>
      </trkpt>
      <trkpt lat="45.23348" lon="6.78677">
        <ele>1221.26</ele>
        <time>2018-09-09T10:56:53Z</time>
      </trkpt>
      <trkpt lat="45.23378" lon="6.78704">
        <ele>1221.27</ele>
        <time>2018-09-09T10:56:55Z</time>
      </trkpt>
      <trkpt lat="45.23395" lon="6.78718">
        <ele>1221.97</ele>
        <time>2018-09-09T10:56:56Z</time>
      </trkpt>
      <trkpt lat="45.23412" lon="6.78731">
        <ele>1222.18</ele>
        <time>2018-09-09T10:56:57Z</time>
      </trkpt>
      <trkpt lat="45.23429" lon="6.78743">
        <ele>1222.24</ele>
        <time>2018-09-09T10:56:58Z</time>
      </trkpt>
      <trkpt lat="45.23448" lon="6.78755">
        <ele>1222.26</ele>
        <time>2018-09-09T10:56:59Z</time>
      </trkpt>
      <trkpt lat="45.23467" lon="6.78768">
        <ele>1222.27</ele>
        <time>2018-09-09T10:57:00Z</time>
      </trkpt>
      <trkpt lat="45.23486" lon="6.78781">
        <ele>1222.97</ele>
        <time>2018-09-09T10:57:01Z</time>
      </trkpt>
      <trkpt lat="45.23505" lon="6.78794">
        <ele>1223.18</ele>
        <time>2018-09-09T10:57:02Z</time>
      </trkpt>
      <trkpt lat="45.23525" lon="6.78807">
        <ele>1223.24</ele>
        <time>2018-09-09T10:57:03Z</time>
      </trkpt>
      <trkpt lat="45.23546" lon="6.78821">
        <ele>1223.26</ele>
        <time>2018-09-09T10:57:04Z</time>
      </trkpt>
      <trkpt lat="45.23566" lon="6.78835">
        <ele>1223.27</ele>
        <time>2018-09-09T10:57:05Z</time>
      </trkpt>
      <trkpt lat="45.23587" lon="6.7885">
        <ele>1223.27</ele>
        <time>2018-09-09T10:57:06Z</time>
      </trkpt>
      <trkpt lat="45.23608" lon="6.78865">
        <ele>1223.27</ele>
        <time>2018-09-09T10:57:07Z</time>
      </trkpt>
      <trkpt lat="45.23629" lon="6.78881">
        <ele>1223.97</ele>
        <time>2018-09-09T10:57:08Z</time>
      </trkpt>
      <trkpt lat="45.23649" lon="6.78898">
        <ele>1224.18</ele>
        <time>2018-09-09T10:57:09Z</time>
      </trkpt>
      <trkpt lat="45.23668" lon="6.78915">
        <ele>1224.24</ele>
        <time>2018-09-09T10:57:10Z</time>
      </trkpt>
      <trkpt lat="45.23687" lon="6.78934">
        <ele>1224.96</ele>
        <time>2018-09-09T10:57:11Z</time>
      </trkpt>
      <trkpt lat="45.23705" lon="6.78953">
        <ele>1225.18</ele>
        <time>2018-09-09T10:57:12Z</time>
      </trkpt>
      <trkpt lat="45.23724" lon="6.78973">
        <ele>1225.24</ele>
        <time>2018-09-09T10:57:13Z</time>
      </trkpt>
      <trkpt lat="45.23743" lon="6.78992">
        <ele>1225.96</ele>
        <time>2018-09-09T10:57:14Z</time>
      </trkpt>
      <trkpt lat="45.23763" lon="6.79012">
        <ele>1226.18</ele>
        <time>2018-09-09T10:57:15Z</time>
      </trkpt>
      <trkpt lat="45.23783" lon="6.79033">
        <ele>1226.24</ele>
        <time>2018-09-09T10:57:16Z</time>
      </trkpt>
      <trkpt lat="45.23803" lon="6.79054">
        <ele>1226.26</ele>
        <time>2018-09-09T10:57:17Z</time>
      </trkpt>
      <trkpt lat="45.23823" lon="6.79075">
        <ele>1226.27</ele>
        <time>2018-09-09T10:57:18Z</time>
      </trkpt>
      <trkpt lat="45.23846" lon="6.79098">
        <ele>1226.27</ele>
        <time>2018-09-09T10:57:19Z</time>
      </trkpt>
      <trkpt lat="45.23869" lon="6.79122">
        <ele>1226.27</ele>
        <time>2018-09-09T10:57:20Z</time>
      </trkpt>
      <trkpt lat="45.23893" lon="6.79147">
        <ele>1226.27</ele>
        <time>2018-09-09T10:57:21Z</time>
      </trkpt>
      <trkpt lat="45.23918" lon="6.79172">
        <ele>1226.27</ele>
        <time>2018-09-09T10:57:22Z</time>
      </trkpt>
      <trkpt lat="45.23942" lon="6.79196">
        <ele>1226.97</ele>
        <time>2018-09-09T10:57:23Z</time>
      </trkpt>
      <trkpt lat="45.23965" lon="6.79219">
        <ele>1227.18</ele>
        <time>2018-09-09T10:57:24Z</time>
      </trkpt>
      <trkpt lat="45.23987" lon="6.79242">
        <ele>1227.24</ele>
        <time>2018-09-09T10:57:25Z</time>
      </trkpt>
      <trkpt lat="45.24009" lon="6.79261">
        <ele>1227.26</ele>
        <time>2018-09-09T10:57:26Z</time>
      </trkpt>
      <trkpt lat="45.24031" lon="6.79278">
        <ele>1227.27</ele>
        <time>2018-09-09T10:57:27Z</time>
      </trkpt>
      <trkpt lat="45.24055" lon="6.79289">
        <ele>1227.97</ele>
        <time>2018-09-09T10:57:28Z</time>
      </trkpt>
      <trkpt lat="45.2408" lon="6.79296">
        <ele>1228.18</ele>
        <time>2018-09-09T10:57:29Z</time>
      </trkpt>
      <trkpt lat="45.24106" lon="6.79297">
        <ele>1228.94</ele>
        <time>2018-09-09T10:57:30Z</time>
      </trkpt>
      <trkpt lat="45.2413" lon="6.79293">
        <ele>1229.17</ele>
        <time>2018-09-09T10:57:31Z</time>
      </trkpt>
      <trkpt lat="45.24155" lon="6.79285">
        <ele>1229.24</ele>
        <time>2018-09-09T10:57:32Z</time>
      </trkpt>
      <trkpt lat="45.2418" lon="6.79274">
        <ele>1229.96</ele>
        <time>2018-09-09T10:57:33Z</time>
      </trkpt>
      <trkpt lat="45.24204" lon="6.79262">
        <ele>1230.88</ele>
        <time>2018-09-09T10:57:34Z</time>
      </trkpt>
      <trkpt lat="45.24227" lon="6.79252">
        <ele>1231.15</ele>
        <time>2018-09-09T10:57:35Z</time>
      </trkpt>
      <trkpt lat="45.24249" lon="6.79242">
        <ele>1231.94</ele>
        <time>2018-09-09T10:57:36Z</time>
      </trkpt>
      <trkpt lat="45.24273" lon="6.79237">
        <ele>1232.17</ele>
        <time>2018-09-09T10:57:37Z</time>
      </trkpt>
      <trkpt lat="45.24296" lon="6.79233">
        <ele>1232.24</ele>
        <time>2018-09-09T10:57:38Z</time>
      </trkpt>
      <trkpt lat="45.2432" lon="6.79233">
        <ele>1232.26</ele>
        <time>2018-09-09T10:57:39Z</time>
      </trkpt>
      <trkpt lat="45.24345" lon="6.79237">
        <ele>1232.27</ele>
        <time>2018-09-09T10:57:40Z</time>
      </trkpt>
      <trkpt lat="45.24369" lon="6.79249">
        <ele>1232.97</ele>
        <time>2018-09-09T10:57:41Z</time>
      </trkpt>
      <trkpt lat="45.24389" lon="6.79267">
        <ele>1233.88</ele>
        <time>2018-09-09T10:57:42Z</time>
      </trkpt>
      <trkpt lat="45.2441" lon="6.79289">
        <ele>1234.15</ele>
        <time>2018-09-09T10:57:43Z</time>
      </trkpt>
      <trkpt lat="45.24428" lon="6.79312">
        <ele>1234.24</ele>
        <time>2018-09-09T10:57:44Z</time>
      </trkpt>
      <trkpt lat="45.24442" lon="6.79345">
        <ele>1234.96</ele>
        <time>2018-09-09T10:57:45Z</time>
      </trkpt>
      <trkpt lat="45.24448" lon="6.7938">
        <ele>1235.88</ele>
        <time>2018-09-09T10:57:46Z</time>
      </trkpt>
      <trkpt lat="45.24461" lon="6.79408">
        <ele>1236.15</ele>
        <time>2018-09-09T10:57:47Z</time>
      </trkpt>
      <trkpt lat="45.24472" lon="6.79438">
        <ele>1236.94</ele>
        <time>2018-09-09T10:57:48Z</time>
      </trkpt>
      <trkpt lat="45.24482" lon="6.79469">
        <ele>1236.47</ele>
        <time>2018-09-09T10:57:49Z</time>
      </trkpt>
      <trkpt lat="45.24494" lon="6.79498">
        <ele>1236.33</ele>
        <time>2018-09-09T10:57:50Z</time>
      </trkpt>
      <trkpt lat="45.24504" lon="6.79527">
        <ele>1236.99</ele>
        <time>2018-09-09T10:57:51Z</time>
      </trkpt>
      <trkpt lat="45.24516" lon="6.79556">
        <ele>1237.19</ele>
        <time>2018-09-09T10:57:52Z</time>
      </trkpt>
      <trkpt lat="45.24528" lon="6.79582">
        <ele>1237.95</ele>
        <time>2018-09-09T10:57:53Z</time>
      </trkpt>
      <trkpt lat="45.24538" lon="6.79606">
        <ele>1238.17</ele>
        <time>2018-09-09T10:57:54Z</time>
      </trkpt>
      <trkpt lat="45.2455" lon="6.79626">
        <ele>1238.94</ele>
        <time>2018-09-09T10:57:55Z</time>
      </trkpt>
      <trkpt lat="45.24566" lon="6.79642">
        <ele>1240.57</ele>
        <time>2018-09-09T10:57:56Z</time>
      </trkpt>
      <trkpt lat="45.2458" lon="6.79659">
        <ele>1241.06</ele>
        <time>2018-09-09T10:57:57Z</time>
      </trkpt>
      <trkpt lat="45.24595" lon="6.79674">
        <ele>1241.21</ele>
        <time>2018-09-09T10:57:58Z</time>
      </trkpt>
      <trkpt lat="45.24613" lon="6.79686">
        <ele>1241.25</ele>
        <time>2018-09-09T10:57:59Z</time>
      </trkpt>
      <trkpt lat="45.24632" lon="6.79695">
        <ele>1241.27</ele>
        <time>2018-09-09T10:58:00Z</time>
      </trkpt>
      <trkpt lat="45.24653" lon="6.79703">
        <ele>1241.27</ele>
        <time>2018-09-09T10:58:01Z</time>
      </trkpt>
      <trkpt lat="45.24679" lon="6.79709">
        <ele>1241.97</ele>
        <time>2018-09-09T10:58:02Z</time>
      </trkpt>
      <trkpt lat="45.24703" lon="6.79717">
        <ele>1242.88</ele>
        <time>2018-09-09T10:58:03Z</time>
      </trkpt>
      <trkpt lat="45.24725" lon="6.79725">
        <ele>1243.15</ele>
        <time>2018-09-09T10:58:04Z</time>
      </trkpt>
      <trkpt lat="45.24747" lon="6.79733">
        <ele>1243.94</ele>
        <time>2018-09-09T10:58:05Z</time>
      </trkpt>
      <trkpt lat="45.24769" lon="6.79741">
        <ele>1244.17</ele>
        <time>2018-09-09T10:58:06Z</time>
      </trkpt>
      <trkpt lat="45.24792" lon="6.79748">
        <ele>1244.94</ele>
        <time>2018-09-09T10:58:07Z</time>
      </trkpt>
      <trkpt lat="45.24815" lon="6.79755">
        <ele>1245.87</ele>
        <time>2018-09-09T10:58:08Z</time>
      </trkpt>
      <trkpt lat="45.24838" lon="6.79763">
        <ele>1246.15</ele>
        <time>2018-09-09T10:58:09Z</time>
      </trkpt>
      <trkpt lat="45.24862" lon="6.7977">
        <ele>1246.94</ele>
        <time>2018-09-09T10:58:10Z</time>
      </trkpt>
      <trkpt lat="45.24886" lon="6.79777">
        <ele>1247.17</ele>
        <time>2018-09-09T10:58:11Z</time>
      </trkpt>
      <trkpt lat="45.2491" lon="6.79785">
        <ele>1247.94</ele>
        <time>2018-09-09T10:58:12Z</time>
      </trkpt>
      <trkpt lat="45.24933" lon="6.79792">
        <ele>1248.17</ele>
        <time>2018-09-09T10:58:13Z</time>
      </trkpt>
      <trkpt lat="45.24956" lon="6.79799">
        <ele>1248.24</ele>
        <time>2018-09-09T10:58:14Z</time>
      </trkpt>
      <trkpt lat="45.2498" lon="6.79804">
        <ele>1248.26</ele>
        <time>2018-09-09T10:58:15Z</time>
      </trkpt>
      <trkpt lat="45.25004" lon="6.79806">
        <ele>1248.79</ele>
        <time>2018-09-09T10:58:16Z</time>
      </trkpt>
      <trkpt lat="45.25028" lon="6.79804">
        <ele>1248.95</ele>
        <time>2018-09-09T10:58:17Z</time>
      </trkpt>
      <trkpt lat="45.25051" lon="6.79799">
        <ele>1249.69</ele>
        <time>2018-09-09T10:58:18Z</time>
      </trkpt>
      <trkpt lat="45.25073" lon="6.7979">
        <ele>1249.92</ele>
        <time>2018-09-09T10:58:19Z</time>
      </trkpt>
      <trkpt lat="45.25096" lon="6.79778">
        <ele>1249.29</ele>
        <time>2018-09-09T10:58:20Z</time>
      </trkpt>
      <trkpt lat="45.25117" lon="6.79764">
        <ele>1248.4</ele>
        <time>2018-09-09T10:58:21Z</time>
      </trkpt>
      <trkpt lat="45.25138" lon="6.79749">
        <ele>1248.13</ele>
        <time>2018-09-09T10:58:22Z</time>
      </trkpt>
      <trkpt lat="45.2516" lon="6.79732">
        <ele>1248.05</ele>
        <time>2018-09-09T10:58:23Z</time>
      </trkpt>
      <trkpt lat="45.25181" lon="6.79717">
        <ele>1248.03</ele>
        <time>2018-09-09T10:58:24Z</time>
      </trkpt>
      <trkpt lat="45.25202" lon="6.79702">
        <ele>1248.72</ele>
        <time>2018-09-09T10:58:25Z</time>
      </trkpt>
      <trkpt lat="45.25223" lon="6.7969">
        <ele>1248.93</ele>
        <time>2018-09-09T10:58:26Z</time>
      </trkpt>
      <trkpt lat="45.25246" lon="6.7968">
        <ele>1248.99</ele>
        <time>2018-09-09T10:58:27Z</time>
      </trkpt>
      <trkpt lat="45.25268" lon="6.79674">
        <ele>1249.01</ele>
        <time>2018-09-09T10:58:28Z</time>
      </trkpt>
      <trkpt lat="45.25291" lon="6.79669">
        <ele>1248.31</ele>
        <time>2018-09-09T10:58:29Z</time>
      </trkpt>
      <trkpt lat="45.25314" lon="6.79668">
        <ele>1248.1</ele>
        <time>2018-09-09T10:58:30Z</time>
      </trkpt>
      <trkpt lat="45.25337" lon="6.7967">
        <ele>1248.74</ele>
        <time>2018-09-09T10:58:31Z</time>
      </trkpt>
      <trkpt lat="45.25361" lon="6.79672">
        <ele>1248.93</ele>
        <time>2018-09-09T10:58:32Z</time>
      </trkpt>
      <trkpt lat="45.25383" lon="6.79678">
        <ele>1248.99</ele>
        <time>2018-09-09T10:58:33Z</time>
      </trkpt>
      <trkpt lat="45.25405" lon="6.79685">
        <ele>1249.71</ele>
        <time>2018-09-09T10:58:34Z</time>
      </trkpt>
      <trkpt lat="45.25424" lon="6.79704">
        <ele>1249.92</ele>
        <time>2018-09-09T10:58:35Z</time>
      </trkpt>
      <trkpt lat="45.25445" lon="6.79717">
        <ele>1250.69</ele>
        <time>2018-09-09T10:58:36Z</time>
      </trkpt>
      <trkpt lat="45.25465" lon="6.79732">
        <ele>1250.92</ele>
        <time>2018-09-09T10:58:37Z</time>
      </trkpt>
      <trkpt lat="45.25485" lon="6.79747">
        <ele>1250.99</ele>
        <time>2018-09-09T10:58:38Z</time>
      </trkpt>
      <trkpt lat="45.25505" lon="6.79763">
        <ele>1251.71</ele>
        <time>2018-09-09T10:58:39Z</time>
      </trkpt>
      <trkpt lat="45.25525" lon="6.7978">
        <ele>1251.92</ele>
        <time>2018-09-09T10:58:40Z</time>
      </trkpt>
      <trkpt lat="45.25545" lon="6.79795">
        <ele>1251.29</ele>
        <time>2018-09-09T10:58:41Z</time>
      </trkpt>
      <trkpt lat="45.25565" lon="6.79811">
        <ele>1251.1</ele>
        <time>2018-09-09T10:58:42Z</time>
      </trkpt>
      <trkpt lat="45.25586" lon="6.79826">
        <ele>1252.44</ele>
        <time>2018-09-09T10:58:43Z</time>
      </trkpt>
      <trkpt lat="45.25606" lon="6.79842">
        <ele>1252.14</ele>
        <time>2018-09-09T10:58:44Z</time>
      </trkpt>
      <trkpt lat="45.25626" lon="6.79857">
        <ele>1252.05</ele>
        <time>2018-09-09T10:58:45Z</time>
      </trkpt>
      <trkpt lat="45.25646" lon="6.79873">
        <ele>1251.33</ele>
        <time>2018-09-09T10:58:46Z</time>
      </trkpt>
      <trkpt lat="45.25667" lon="6.79888">
        <ele>1251.81</ele>
        <time>2018-09-09T10:58:47Z</time>
      </trkpt>
      <trkpt lat="45.25687" lon="6.79904">
        <ele>1251.95</ele>
        <time>2018-09-09T10:58:48Z</time>
      </trkpt>
      <trkpt lat="45.25708" lon="6.7992">
        <ele>1252</ele>
        <time>2018-09-09T10:58:49Z</time>
      </trkpt>
      <trkpt lat="45.25728" lon="6.79936">
        <ele>1252.71</ele>
        <time>2018-09-09T10:58:50Z</time>
      </trkpt>
      <trkpt lat="45.25748" lon="6.79951">
        <ele>1252.92</ele>
        <time>2018-09-09T10:58:51Z</time>
      </trkpt>
      <trkpt lat="45.25768" lon="6.79967">
        <ele>1252.99</ele>
        <time>2018-09-09T10:58:52Z</time>
      </trkpt>
      <trkpt lat="45.25789" lon="6.79981">
        <ele>1252.31</ele>
        <time>2018-09-09T10:58:53Z</time>
      </trkpt>
      <trkpt lat="45.2581" lon="6.79994">
        <ele>1252.8</ele>
        <time>2018-09-09T10:58:54Z</time>
      </trkpt>
      <trkpt lat="45.25831" lon="6.80007">
        <ele>1252.95</ele>
        <time>2018-09-09T10:58:55Z</time>
      </trkpt>
      <trkpt lat="45.25853" lon="6.8002">
        <ele>1252.3</ele>
        <time>2018-09-09T10:58:56Z</time>
      </trkpt>
      <trkpt lat="45.25875" lon="6.80031">
        <ele>1252.1</ele>
        <time>2018-09-09T10:58:57Z</time>
      </trkpt>
      <trkpt lat="45.25898" lon="6.80042">
        <ele>1252.04</ele>
        <time>2018-09-09T10:58:58Z</time>
      </trkpt>
      <trkpt lat="45.2592" lon="6.8005">
        <ele>1252.02</ele>
        <time>2018-09-09T10:58:59Z</time>
      </trkpt>
      <trkpt lat="45.25942" lon="6.8006">
        <ele>1252.02</ele>
        <time>2018-09-09T10:59:00Z</time>
      </trkpt>
      <trkpt lat="45.25964" lon="6.8007">
        <ele>1252.02</ele>
        <time>2018-09-09T10:59:01Z</time>
      </trkpt>
      <trkpt lat="45.25986" lon="6.80077">
        <ele>1252.02</ele>
        <time>2018-09-09T10:59:02Z</time>
      </trkpt>
      <trkpt lat="45.26008" lon="6.80085">
        <ele>1252.72</ele>
        <time>2018-09-09T10:59:03Z</time>
      </trkpt>
      <trkpt lat="45.26029" lon="6.80092">
        <ele>1252.93</ele>
        <time>2018-09-09T10:59:04Z</time>
      </trkpt>
      <trkpt lat="45.26049" lon="6.801">
        <ele>1253.69</ele>
        <time>2018-09-09T10:59:05Z</time>
      </trkpt>
      <trkpt lat="45.26069" lon="6.80109">
        <ele>1254.62</ele>
        <time>2018-09-09T10:59:06Z</time>
      </trkpt>
      <trkpt lat="45.26088" lon="6.8012">
        <ele>1254.9</ele>
        <time>2018-09-09T10:59:07Z</time>
      </trkpt>
      <trkpt lat="45.26107" lon="6.80134">
        <ele>1255.68</ele>
        <time>2018-09-09T10:59:08Z</time>
      </trkpt>
      <trkpt lat="45.26123" lon="6.8015">
        <ele>1255.91</ele>
        <time>2018-09-09T10:59:09Z</time>
      </trkpt>
      <trkpt lat="45.26139" lon="6.80168">
        <ele>1256.68</ele>
        <time>2018-09-09T10:59:10Z</time>
      </trkpt>
      <trkpt lat="45.26153" lon="6.80188">
        <ele>1256.92</ele>
        <time>2018-09-09T10:59:11Z</time>
      </trkpt>
      <trkpt lat="45.26166" lon="6.80209">
        <ele>1257.69</ele>
        <time>2018-09-09T10:59:12Z</time>
      </trkpt>
      <trkpt lat="45.26178" lon="6.80233">
        <ele>1258.62</ele>
        <time>2018-09-09T10:59:13Z</time>
      </trkpt>
      <trkpt lat="45.26189" lon="6.80259">
        <ele>1258.9</ele>
        <time>2018-09-09T10:59:14Z</time>
      </trkpt>
      <trkpt lat="45.26197" lon="6.80286">
        <ele>1259.68</ele>
        <time>2018-09-09T10:59:15Z</time>
      </trkpt>
      <trkpt lat="45.26204" lon="6.80315">
        <ele>1260.61</ele>
        <time>2018-09-09T10:59:16Z</time>
      </trkpt>
      <trkpt lat="45.2621" lon="6.80344">
        <ele>1261.59</ele>
        <time>2018-09-09T10:59:17Z</time>
      </trkpt>
      <trkpt lat="45.26216" lon="6.80373">
        <ele>1261.19</ele>
        <time>2018-09-09T10:59:18Z</time>
      </trkpt>
      <trkpt lat="45.26222" lon="6.80403">
        <ele>1261.77</ele>
        <time>2018-09-09T10:59:19Z</time>
      </trkpt>
      <trkpt lat="45.26229" lon="6.80432">
        <ele>1261.94</ele>
        <time>2018-09-09T10:59:20Z</time>
      </trkpt>
      <trkpt lat="45.26235" lon="6.80461">
        <ele>1262.69</ele>
        <time>2018-09-09T10:59:21Z</time>
      </trkpt>
      <trkpt lat="45.26241" lon="6.8049">
        <ele>1263.62</ele>
        <time>2018-09-09T10:59:22Z</time>
      </trkpt>
      <trkpt lat="45.26245" lon="6.80519">
        <ele>1263.9</ele>
        <time>2018-09-09T10:59:23Z</time>
      </trkpt>
      <trkpt lat="45.26247" lon="6.80549">
        <ele>1263.98</ele>
        <time>2018-09-09T10:59:24Z</time>
      </trkpt>
      <trkpt lat="45.26246" lon="6.80578">
        <ele>1264.7</ele>
        <time>2018-09-09T10:59:25Z</time>
      </trkpt>
      <trkpt lat="45.26243" lon="6.80606">
        <ele>1264.92</ele>
        <time>2018-09-09T10:59:26Z</time>
      </trkpt>
      <trkpt lat="45.2624" lon="6.80631">
        <ele>1264.99</ele>
        <time>2018-09-09T10:59:27Z</time>
      </trkpt>
      <trkpt lat="45.26237" lon="6.80679">
        <ele>1265.01</ele>
        <time>2018-09-09T10:59:29Z</time>
      </trkpt>
      <trkpt lat="45.26241" lon="6.80721">
        <ele>1265.71</ele>
        <time>2018-09-09T10:59:31Z</time>
      </trkpt>
      <trkpt lat="45.26252" lon="6.80764">
        <ele>1266.69</ele>
        <time>2018-09-09T10:59:33Z</time>
      </trkpt>
      <trkpt lat="45.26258" lon="6.80807">
        <ele>1266.99</ele>
        <time>2018-09-09T10:59:35Z</time>
      </trkpt>
      <trkpt lat="45.26258" lon="6.80852">
        <ele>1267.01</ele>
        <time>2018-09-09T10:59:37Z</time>
      </trkpt>
      <trkpt lat="45.26261" lon="6.80895">
        <ele>1267.22</ele>
        <time>2018-09-09T10:59:39Z</time>
      </trkpt>
      <trkpt lat="45.26272" lon="6.80933">
        <ele>1267.73</ele>
        <time>2018-09-09T10:59:41Z</time>
      </trkpt>
      <trkpt lat="45.26285" lon="6.80968">
        <ele>1267.99</ele>
        <time>2018-09-09T10:59:43Z</time>
      </trkpt>
      <trkpt lat="45.26295" lon="6.81002">
        <ele>1268.92</ele>
        <time>2018-09-09T10:59:45Z</time>
      </trkpt>
      <trkpt lat="45.26306" lon="6.81032">
        <ele>1269.01</ele>
        <time>2018-09-09T10:59:47Z</time>
      </trkpt>
      <trkpt lat="45.26313" lon="6.81061">
        <ele>1269.01</ele>
        <time>2018-09-09T10:59:50Z</time>
      </trkpt>
      <trkpt lat="45.26328" lon="6.81086">
        <ele>1268.33</ele>
        <time>2018-09-09T11:00:26Z</time>
      </trkpt>
      <trkpt lat="45.26341" lon="6.81105">
        <ele>1268.74</ele>
        <time>2018-09-09T11:00:28Z</time>
      </trkpt>
      <trkpt lat="45.2636" lon="6.81125">
        <ele>1268.99</ele>
        <time>2018-09-09T11:00:30Z</time>
      </trkpt>
      <trkpt lat="45.26386" lon="6.81144">
        <ele>1269.71</ele>
        <time>2018-09-09T11:00:32Z</time>
      </trkpt>
      <trkpt lat="45.26415" lon="6.81166">
        <ele>1269.99</ele>
        <time>2018-09-09T11:00:34Z</time>
      </trkpt>
      <trkpt lat="45.26444" lon="6.81188">
        <ele>1270.01</ele>
        <time>2018-09-09T11:00:36Z</time>
      </trkpt>
      <trkpt lat="45.26474" lon="6.8121">
        <ele>1270.01</ele>
        <time>2018-09-09T11:00:38Z</time>
      </trkpt>
      <trkpt lat="45.2649" lon="6.81223">
        <ele>1270.01</ele>
        <time>2018-09-09T11:00:39Z</time>
      </trkpt>
      <trkpt lat="45.26522" lon="6.81247">
        <ele>1270.02</ele>
        <time>2018-09-09T11:00:41Z</time>
      </trkpt>
      <trkpt lat="45.26538" lon="6.8126">
        <ele>1270.02</ele>
        <time>2018-09-09T11:00:42Z</time>
      </trkpt>
      <trkpt lat="45.2657" lon="6.81285">
        <ele>1270.93</ele>
        <time>2018-09-09T11:00:44Z</time>
      </trkpt>
      <trkpt lat="45.26587" lon="6.81299">
        <ele>1270.99</ele>
        <time>2018-09-09T11:00:45Z</time>
      </trkpt>
      <trkpt lat="45.26604" lon="6.81312">
        <ele>1271.01</ele>
        <time>2018-09-09T11:00:46Z</time>
      </trkpt>
      <trkpt lat="45.26622" lon="6.81325">
        <ele>1271.71</ele>
        <time>2018-09-09T11:00:47Z</time>
      </trkpt>
      <trkpt lat="45.26641" lon="6.81338">
        <ele>1271.92</ele>
        <time>2018-09-09T11:00:48Z</time>
      </trkpt>
      <trkpt lat="45.2666" lon="6.81351">
        <ele>1271.99</ele>
        <time>2018-09-09T11:00:49Z</time>
      </trkpt>
      <trkpt lat="45.26679" lon="6.81364">
        <ele>1272.71</ele>
        <time>2018-09-09T11:00:50Z</time>
      </trkpt>
      <trkpt lat="45.26698" lon="6.81377">
        <ele>1272.92</ele>
        <time>2018-09-09T11:00:51Z</time>
      </trkpt>
      <trkpt lat="45.26716" lon="6.81392">
        <ele>1272.99</ele>
        <time>2018-09-09T11:00:52Z</time>
      </trkpt>
      <trkpt lat="45.26735" lon="6.81406">
        <ele>1273.01</ele>
        <time>2018-09-09T11:00:53Z</time>
      </trkpt>
      <trkpt lat="45.26753" lon="6.8142">
        <ele>1273.71</ele>
        <time>2018-09-09T11:00:54Z</time>
      </trkpt>
      <trkpt lat="45.26771" lon="6.81433">
        <ele>1273.92</ele>
        <time>2018-09-09T11:00:55Z</time>
      </trkpt>
      <trkpt lat="45.26787" lon="6.81446">
        <ele>1274.69</ele>
        <time>2018-09-09T11:00:56Z</time>
      </trkpt>
      <trkpt lat="45.26804" lon="6.81457">
        <ele>1274.92</ele>
        <time>2018-09-09T11:00:57Z</time>
      </trkpt>
      <trkpt lat="45.26821" lon="6.81467">
        <ele>1275.69</ele>
        <time>2018-09-09T11:00:58Z</time>
      </trkpt>
      <trkpt lat="45.26854" lon="6.81476">
        <ele>1275.99</ele>
        <time>2018-09-09T11:01:00Z</time>
      </trkpt>
      <trkpt lat="45.26888" lon="6.81473">
        <ele>1276.01</ele>
        <time>2018-09-09T11:01:02Z</time>
      </trkpt>
      <trkpt lat="45.2692" lon="6.81455">
        <ele>1276.01</ele>
        <time>2018-09-09T11:01:04Z</time>
      </trkpt>
      <trkpt lat="45.26936" lon="6.81444">
        <ele>1276.01</ele>
        <time>2018-09-09T11:01:05Z</time>
      </trkpt>
      <trkpt lat="45.26953" lon="6.81432">
        <ele>1276.02</ele>
        <time>2018-09-09T11:01:06Z</time>
      </trkpt>
      <trkpt lat="45.26971" lon="6.8142">
        <ele>1276.02</ele>
        <time>2018-09-09T11:01:07Z</time>
      </trkpt>
      <trkpt lat="45.26989" lon="6.81408">
        <ele>1276.71</ele>
        <time>2018-09-09T11:01:08Z</time>
      </trkpt>
      <trkpt lat="45.27008" lon="6.81396">
        <ele>1276.93</ele>
        <time>2018-09-09T11:01:09Z</time>
      </trkpt>
      <trkpt lat="45.27027" lon="6.81385">
        <ele>1276.99</ele>
        <time>2018-09-09T11:01:10Z</time>
      </trkpt>
      <trkpt lat="45.27047" lon="6.81376">
        <ele>1277.01</ele>
        <time>2018-09-09T11:01:11Z</time>
      </trkpt>
      <trkpt lat="45.27068" lon="6.81369">
        <ele>1277.01</ele>
        <time>2018-09-09T11:01:12Z</time>
      </trkpt>
      <trkpt lat="45.27087" lon="6.81371">
        <ele>1277.71</ele>
        <time>2018-09-09T11:01:13Z</time>
      </trkpt>
      <trkpt lat="45.27107" lon="6.81374">
        <ele>1277.22</ele>
        <time>2018-09-09T11:01:14Z</time>
      </trkpt>
      <trkpt lat="45.27125" lon="6.81382">
        <ele>1277.78</ele>
        <time>2018-09-09T11:01:15Z</time>
      </trkpt>
      <trkpt lat="45.27141" lon="6.81392">
        <ele>1277.94</ele>
        <time>2018-09-09T11:01:16Z</time>
      </trkpt>
      <trkpt lat="45.27158" lon="6.81404">
        <ele>1278.69</ele>
        <time>2018-09-09T11:01:17Z</time>
      </trkpt>
      <trkpt lat="45.27175" lon="6.81416">
        <ele>1278.92</ele>
        <time>2018-09-09T11:01:18Z</time>
      </trkpt>
      <trkpt lat="45.27193" lon="6.81427">
        <ele>1278.99</ele>
        <time>2018-09-09T11:01:19Z</time>
      </trkpt>
      <trkpt lat="45.27211" lon="6.81437">
        <ele>1279.71</ele>
        <time>2018-09-09T11:01:20Z</time>
      </trkpt>
      <trkpt lat="45.27229" lon="6.81444">
        <ele>1279.92</ele>
        <time>2018-09-09T11:01:21Z</time>
      </trkpt>
      <trkpt lat="45.27264" lon="6.81441">
        <ele>1281.62</ele>
        <time>2018-09-09T11:01:23Z</time>
      </trkpt>
      <trkpt lat="45.27295" lon="6.81416">
        <ele>1281.98</ele>
        <time>2018-09-09T11:01:25Z</time>
      </trkpt>
      <trkpt lat="45.27308" lon="6.81395">
        <ele>1282.7</ele>
        <time>2018-09-09T11:01:26Z</time>
      </trkpt>
      <trkpt lat="45.27321" lon="6.81374">
        <ele>1282.92</ele>
        <time>2018-09-09T11:01:27Z</time>
      </trkpt>
      <trkpt lat="45.27334" lon="6.81353">
        <ele>1282.99</ele>
        <time>2018-09-09T11:01:28Z</time>
      </trkpt>
      <trkpt lat="45.27348" lon="6.81334">
        <ele>1283.01</ele>
        <time>2018-09-09T11:01:29Z</time>
      </trkpt>
      <trkpt lat="45.27362" lon="6.81316">
        <ele>1283.01</ele>
        <time>2018-09-09T11:01:30Z</time>
      </trkpt>
      <trkpt lat="45.27379" lon="6.81306">
        <ele>1283.01</ele>
        <time>2018-09-09T11:01:31Z</time>
      </trkpt>
      <trkpt lat="45.27396" lon="6.81297">
        <ele>1283.71</ele>
        <time>2018-09-09T11:01:32Z</time>
      </trkpt>
      <trkpt lat="45.27429" lon="6.81286">
        <ele>1283.99</ele>
        <time>2018-09-09T11:01:34Z</time>
      </trkpt>
      <trkpt lat="45.27462" lon="6.81286">
        <ele>1283.31</ele>
        <time>2018-09-09T11:01:36Z</time>
      </trkpt>
      <trkpt lat="45.27491" lon="6.81305">
        <ele>1283.04</ele>
        <time>2018-09-09T11:01:38Z</time>
      </trkpt>
      <trkpt lat="45.27516" lon="6.81319">
        <ele>1282.32</ele>
        <time>2018-09-09T11:01:40Z</time>
      </trkpt>
      <trkpt lat="45.27539" lon="6.81335">
        <ele>1283.65</ele>
        <time>2018-09-09T11:01:42Z</time>
      </trkpt>
      <trkpt lat="45.27559" lon="6.81349">
        <ele>1283.28</ele>
        <time>2018-09-09T11:01:44Z</time>
      </trkpt>
      <trkpt lat="45.27582" lon="6.81362">
        <ele>1283.95</ele>
        <time>2018-09-09T11:01:46Z</time>
      </trkpt>
      <trkpt lat="45.27606" lon="6.81373">
        <ele>1284.01</ele>
        <time>2018-09-09T11:01:48Z</time>
      </trkpt>
      <trkpt lat="45.2763" lon="6.81389">
        <ele>1284.71</ele>
        <time>2018-09-09T11:01:50Z</time>
      </trkpt>
      <trkpt lat="45.27653" lon="6.81405">
        <ele>1284.99</ele>
        <time>2018-09-09T11:01:52Z</time>
      </trkpt>
      <trkpt lat="45.27676" lon="6.81417">
        <ele>1286.62</ele>
        <time>2018-09-09T11:01:54Z</time>
      </trkpt>
      <trkpt lat="45.27695" lon="6.8143">
        <ele>1287.89</ele>
        <time>2018-09-09T11:01:56Z</time>
      </trkpt>
      <trkpt lat="45.27709" lon="6.81456">
        <ele>1288.01</ele>
        <time>2018-09-09T11:01:59Z</time>
      </trkpt>
      <trkpt lat="45.27706" lon="6.81486">
        <ele>1288.01</ele>
        <time>2018-09-09T11:02:02Z</time>
      </trkpt>
      <trkpt lat="45.27699" lon="6.81518">
        <ele>1288.02</ele>
        <time>2018-09-09T11:02:05Z</time>
      </trkpt>
      <trkpt lat="45.27693" lon="6.81554">
        <ele>1288.99</ele>
        <time>2018-09-09T11:02:08Z</time>
      </trkpt>
      <trkpt lat="45.27689" lon="6.8158">
        <ele>1289.71</ele>
        <time>2018-09-09T11:02:10Z</time>
      </trkpt>
      <trkpt lat="45.27684" lon="6.81606">
        <ele>1289.78</ele>
        <time>2018-09-09T11:02:12Z</time>
      </trkpt>
      <trkpt lat="45.27682" lon="6.81632">
        <ele>1289.99</ele>
        <time>2018-09-09T11:02:14Z</time>
      </trkpt>
      <trkpt lat="45.27679" lon="6.81666">
        <ele>1291.69</ele>
        <time>2018-09-09T11:02:17Z</time>
      </trkpt>
      <trkpt lat="45.27679" lon="6.81696">
        <ele>1292.98</ele>
        <time>2018-09-09T11:02:20Z</time>
      </trkpt>
      <trkpt lat="45.27692" lon="6.81724">
        <ele>1295.6</ele>
        <time>2018-09-09T11:02:23Z</time>
      </trkpt>
      <trkpt lat="45.27716" lon="6.81734">
        <ele>1298.59</ele>
        <time>2018-09-09T11:02:26Z</time>
      </trkpt>
      <trkpt lat="45.27741" lon="6.81727">
        <ele>1299.7</ele>
        <time>2018-09-09T11:02:29Z</time>
      </trkpt>
      <trkpt lat="45.27759" lon="6.8172">
        <ele>1301.6</ele>
        <time>2018-09-09T11:02:31Z</time>
      </trkpt>
      <trkpt lat="45.27779" lon="6.81712">
        <ele>1302.68</ele>
        <time>2018-09-09T11:02:33Z</time>
      </trkpt>
      <trkpt lat="45.27802" lon="6.81704">
        <ele>1303.89</ele>
        <time>2018-09-09T11:02:35Z</time>
      </trkpt>
      <trkpt lat="45.27828" lon="6.81695">
        <ele>1304.91</ele>
        <time>2018-09-09T11:02:37Z</time>
      </trkpt>
      <trkpt lat="45.27857" lon="6.81685">
        <ele>1307.53</ele>
        <time>2018-09-09T11:02:39Z</time>
      </trkpt>
      <trkpt lat="45.2789" lon="6.81677">
        <ele>1309.58</ele>
        <time>2018-09-09T11:02:41Z</time>
      </trkpt>
      <trkpt lat="45.27909" lon="6.81672">
        <ele>1311.28</ele>
        <time>2018-09-09T11:02:42Z</time>
      </trkpt>
      <trkpt lat="45.2793" lon="6.81666">
        <ele>1312.5</ele>
        <time>2018-09-09T11:02:43Z</time>
      </trkpt>
      <trkpt lat="45.27952" lon="6.8166">
        <ele>1314.26</ele>
        <time>2018-09-09T11:02:44Z</time>
      </trkpt>
      <trkpt lat="45.27976" lon="6.81655">
        <ele>1315.49</ele>
        <time>2018-09-09T11:02:45Z</time>
      </trkpt>
      <trkpt lat="45.28" lon="6.8165">
        <ele>1316.56</ele>
        <time>2018-09-09T11:02:46Z</time>
      </trkpt>
      <trkpt lat="45.28025" lon="6.81644">
        <ele>1318.28</ele>
        <time>2018-09-09T11:02:47Z</time>
      </trkpt>
      <trkpt lat="45.28047" lon="6.81636">
        <ele>1320.89</ele>
        <time>2018-09-09T11:02:48Z</time>
      </trkpt>
      <trkpt lat="45.28068" lon="6.8163">
        <ele>1322.38</ele>
        <time>2018-09-09T11:02:49Z</time>
      </trkpt>
      <trkpt lat="45.28087" lon="6.81624">
        <ele>1323.52</ele>
        <time>2018-09-09T11:02:50Z</time>
      </trkpt>
      <trkpt lat="45.28116" lon="6.81615">
        <ele>1325.37</ele>
        <time>2018-09-09T11:02:52Z</time>
      </trkpt>
      <trkpt lat="45.28134" lon="6.81627">
        <ele>1326.21</ele>
        <time>2018-09-09T11:02:55Z</time>
      </trkpt>
      <trkpt lat="45.28127" lon="6.8165">
        <ele>1325.38</ele>
        <time>2018-09-09T11:02:58Z</time>
      </trkpt>
      <trkpt lat="45.28099" lon="6.81662">
        <ele>1324.14</ele>
        <time>2018-09-09T11:03:00Z</time>
      </trkpt>
      <trkpt lat="45.28076" lon="6.8167">
        <ele>1326.15</ele>
        <time>2018-09-09T11:03:01Z</time>
      </trkpt>
      <trkpt lat="45.28058" lon="6.8168">
        <ele>1327.46</ele>
        <time>2018-09-09T11:03:02Z</time>
      </trkpt>
      <trkpt lat="45.28041" lon="6.81692">
        <ele>1329.25</ele>
        <time>2018-09-09T11:03:03Z</time>
      </trkpt>
      <trkpt lat="45.28024" lon="6.81705">
        <ele>1331.18</ele>
        <time>2018-09-09T11:03:04Z</time>
      </trkpt>
      <trkpt lat="45.28006" lon="6.81716">
        <ele>1333.17</ele>
        <time>2018-09-09T11:03:05Z</time>
      </trkpt>
      <trkpt lat="45.27988" lon="6.81728">
        <ele>1335.16</ele>
        <time>2018-09-09T11:03:06Z</time>
      </trkpt>
      <trkpt lat="45.2797" lon="6.81741">
        <ele>1337.16</ele>
        <time>2018-09-09T11:03:07Z</time>
      </trkpt>
      <trkpt lat="45.27953" lon="6.81753">
        <ele>1339.16</ele>
        <time>2018-09-09T11:03:08Z</time>
      </trkpt>
      <trkpt lat="45.27936" lon="6.81767">
        <ele>1341.16</ele>
        <time>2018-09-09T11:03:09Z</time>
      </trkpt>
      <trkpt lat="45.27919" lon="6.81782">
        <ele>1343.86</ele>
        <time>2018-09-09T11:03:10Z</time>
      </trkpt>
      <trkpt lat="45.27904" lon="6.81799">
        <ele>1346.07</ele>
        <time>2018-09-09T11:03:11Z</time>
      </trkpt>
      <trkpt lat="45.27891" lon="6.8182">
        <ele>1347.43</ele>
        <time>2018-09-09T11:03:12Z</time>
      </trkpt>
      <trkpt lat="45.27875" lon="6.81863">
        <ele>1350.69</ele>
        <time>2018-09-09T11:03:14Z</time>
      </trkpt>
      <trkpt lat="45.2788" lon="6.81889">
        <ele>1353.02</ele>
        <time>2018-09-09T11:03:15Z</time>
      </trkpt>
      <trkpt lat="45.27886" lon="6.81915">
        <ele>1355.82</ele>
        <time>2018-09-09T11:03:16Z</time>
      </trkpt>
      <trkpt lat="45.27893" lon="6.81942">
        <ele>1358.06</ele>
        <time>2018-09-09T11:03:17Z</time>
      </trkpt>
      <trkpt lat="45.27902" lon="6.81968">
        <ele>1359.43</ele>
        <time>2018-09-09T11:03:18Z</time>
      </trkpt>
      <trkpt lat="45.27914" lon="6.81993">
        <ele>1361.94</ele>
        <time>2018-09-09T11:03:19Z</time>
      </trkpt>
      <trkpt lat="45.27925" lon="6.82016">
        <ele>1363.39</ele>
        <time>2018-09-09T11:03:20Z</time>
      </trkpt>
      <trkpt lat="45.2794" lon="6.82039">
        <ele>1365.93</ele>
        <time>2018-09-09T11:03:21Z</time>
      </trkpt>
      <trkpt lat="45.27955" lon="6.82061">
        <ele>1368.79</ele>
        <time>2018-09-09T11:03:22Z</time>
      </trkpt>
      <trkpt lat="45.27969" lon="6.82084">
        <ele>1371.05</ele>
        <time>2018-09-09T11:03:23Z</time>
      </trkpt>
      <trkpt lat="45.27984" lon="6.82106">
        <ele>1373.12</ele>
        <time>2018-09-09T11:03:24Z</time>
      </trkpt>
      <trkpt lat="45.27998" lon="6.8213">
        <ele>1375.15</ele>
        <time>2018-09-09T11:03:25Z</time>
      </trkpt>
      <trkpt lat="45.28013" lon="6.82153">
        <ele>1377.15</ele>
        <time>2018-09-09T11:03:26Z</time>
      </trkpt>
      <trkpt lat="45.28027" lon="6.82176">
        <ele>1378.46</ele>
        <time>2018-09-09T11:03:27Z</time>
      </trkpt>
      <trkpt lat="45.2804" lon="6.82201">
        <ele>1380.25</ele>
        <time>2018-09-09T11:03:28Z</time>
      </trkpt>
      <trkpt lat="45.28051" lon="6.82228">
        <ele>1381.48</ele>
        <time>2018-09-09T11:03:29Z</time>
      </trkpt>
      <trkpt lat="45.28062" lon="6.82256">
        <ele>1381.86</ele>
        <time>2018-09-09T11:03:30Z</time>
      </trkpt>
      <trkpt lat="45.28073" lon="6.82283">
        <ele>1384.07</ele>
        <time>2018-09-09T11:03:31Z</time>
      </trkpt>
      <trkpt lat="45.28084" lon="6.82311">
        <ele>1384.73</ele>
        <time>2018-09-09T11:03:32Z</time>
      </trkpt>
      <trkpt lat="45.28095" lon="6.8234">
        <ele>1385.63</ele>
        <time>2018-09-09T11:03:33Z</time>
      </trkpt>
      <trkpt lat="45.28105" lon="6.82369">
        <ele>1386.6</ele>
        <time>2018-09-09T11:03:34Z</time>
      </trkpt>
      <trkpt lat="45.28116" lon="6.82399">
        <ele>1387.59</ele>
        <time>2018-09-09T11:03:35Z</time>
      </trkpt>
      <trkpt lat="45.28127" lon="6.82429">
        <ele>1387.89</ele>
        <time>2018-09-09T11:03:36Z</time>
      </trkpt>
      <trkpt lat="45.28138" lon="6.82459">
        <ele>1387.98</ele>
        <time>2018-09-09T11:03:37Z</time>
      </trkpt>
      <trkpt lat="45.28149" lon="6.8249">
        <ele>1388.7</ele>
        <time>2018-09-09T11:03:38Z</time>
      </trkpt>
      <trkpt lat="45.2816" lon="6.82522">
        <ele>1389.62</ele>
        <time>2018-09-09T11:03:39Z</time>
      </trkpt>
      <trkpt lat="45.28171" lon="6.82552">
        <ele>1389.2</ele>
        <time>2018-09-09T11:03:40Z</time>
      </trkpt>
      <trkpt lat="45.28182" lon="6.82584">
        <ele>1389.07</ele>
        <time>2018-09-09T11:03:41Z</time>
      </trkpt>
      <trkpt lat="45.28193" lon="6.82615">
        <ele>1389.03</ele>
        <time>2018-09-09T11:03:42Z</time>
      </trkpt>
      <trkpt lat="45.28204" lon="6.82645">
        <ele>1388.32</ele>
        <time>2018-09-09T11:03:43Z</time>
      </trkpt>
      <trkpt lat="45.28215" lon="6.82674">
        <ele>1388.11</ele>
        <time>2018-09-09T11:03:44Z</time>
      </trkpt>
      <trkpt lat="45.28226" lon="6.827">
        <ele>1388.04</ele>
        <time>2018-09-09T11:03:45Z</time>
      </trkpt>
      <trkpt lat="45.28239" lon="6.82724">
        <ele>1388.02</ele>
        <time>2018-09-09T11:03:46Z</time>
      </trkpt>
      <trkpt lat="45.28254" lon="6.82746">
        <ele>1388.02</ele>
        <time>2018-09-09T11:03:47Z</time>
      </trkpt>
      <trkpt lat="45.28268" lon="6.82768">
        <ele>1388.02</ele>
        <time>2018-09-09T11:03:48Z</time>
      </trkpt>
      <trkpt lat="45.28282" lon="6.82791">
        <ele>1388.02</ele>
        <time>2018-09-09T11:03:49Z</time>
      </trkpt>
      <trkpt lat="45.28294" lon="6.82817">
        <ele>1387.32</ele>
        <time>2018-09-09T11:03:50Z</time>
      </trkpt>
      <trkpt lat="45.28303" lon="6.82845">
        <ele>1386.41</ele>
        <time>2018-09-09T11:03:51Z</time>
      </trkpt>
      <trkpt lat="45.28312" lon="6.82874">
        <ele>1386.13</ele>
        <time>2018-09-09T11:03:52Z</time>
      </trkpt>
      <trkpt lat="45.28319" lon="6.82904">
        <ele>1385.35</ele>
        <time>2018-09-09T11:03:53Z</time>
      </trkpt>
      <trkpt lat="45.28326" lon="6.82933">
        <ele>1384.42</ele>
        <time>2018-09-09T11:03:54Z</time>
      </trkpt>
      <trkpt lat="45.28334" lon="6.82963">
        <ele>1384.14</ele>
        <time>2018-09-09T11:03:55Z</time>
      </trkpt>
      <trkpt lat="45.28343" lon="6.82991">
        <ele>1383.35</ele>
        <time>2018-09-09T11:03:56Z</time>
      </trkpt>
      <trkpt lat="45.28353" lon="6.83018">
        <ele>1382.42</ele>
        <time>2018-09-09T11:03:57Z</time>
      </trkpt>
      <trkpt lat="45.28363" lon="6.83047">
        <ele>1381.44</ele>
        <time>2018-09-09T11:03:58Z</time>
      </trkpt>
      <trkpt lat="45.28372" lon="6.83075">
        <ele>1380.44</ele>
        <time>2018-09-09T11:03:59Z</time>
      </trkpt>
      <trkpt lat="45.2838" lon="6.83105">
        <ele>1379.44</ele>
        <time>2018-09-09T11:04:00Z</time>
      </trkpt>
      <trkpt lat="45.28387" lon="6.83135">
        <ele>1378.44</ele>
        <time>2018-09-09T11:04:01Z</time>
      </trkpt>
      <trkpt lat="45.28394" lon="6.83166">
        <ele>1377.44</ele>
        <time>2018-09-09T11:04:02Z</time>
      </trkpt>
      <trkpt lat="45.284" lon="6.83197">
        <ele>1376.44</ele>
        <time>2018-09-09T11:04:03Z</time>
      </trkpt>
      <trkpt lat="45.28408" lon="6.83229">
        <ele>1376.14</ele>
        <time>2018-09-09T11:04:04Z</time>
      </trkpt>
      <trkpt lat="45.28415" lon="6.83261">
        <ele>1375.35</ele>
        <time>2018-09-09T11:04:05Z</time>
      </trkpt>
      <trkpt lat="45.28422" lon="6.83293">
        <ele>1374.42</ele>
        <time>2018-09-09T11:04:06Z</time>
      </trkpt>
      <trkpt lat="45.28431" lon="6.83325">
        <ele>1373.44</ele>
        <time>2018-09-09T11:04:07Z</time>
      </trkpt>
      <trkpt lat="45.28441" lon="6.83358">
        <ele>1372.44</ele>
        <time>2018-09-09T11:04:08Z</time>
      </trkpt>
      <trkpt lat="45.28451" lon="6.83391">
        <ele>1372.14</ele>
        <time>2018-09-09T11:04:09Z</time>
      </trkpt>
      <trkpt lat="45.2846" lon="6.83423">
        <ele>1371.35</ele>
        <time>2018-09-09T11:04:10Z</time>
      </trkpt>
      <trkpt lat="45.28469" lon="6.83455">
        <ele>1371.12</ele>
        <time>2018-09-09T11:04:11Z</time>
      </trkpt>
      <trkpt lat="45.28477" lon="6.83486">
        <ele>1370.35</ele>
        <time>2018-09-09T11:04:12Z</time>
      </trkpt>
      <trkpt lat="45.28486" lon="6.83517">
        <ele>1369.41</ele>
        <time>2018-09-09T11:04:13Z</time>
      </trkpt>
      <trkpt lat="45.28495" lon="6.83548">
        <ele>1368.43</ele>
        <time>2018-09-09T11:04:14Z</time>
      </trkpt>
      <trkpt lat="45.28504" lon="6.83579">
        <ele>1367.44</ele>
        <time>2018-09-09T11:04:15Z</time>
      </trkpt>
      <trkpt lat="45.28512" lon="6.8361">
        <ele>1366.44</ele>
        <time>2018-09-09T11:04:16Z</time>
      </trkpt>
      <trkpt lat="45.28516" lon="6.83642">
        <ele>1366.14</ele>
        <time>2018-09-09T11:04:17Z</time>
      </trkpt>
      <trkpt lat="45.28519" lon="6.83674">
        <ele>1365.35</ele>
        <time>2018-09-09T11:04:18Z</time>
      </trkpt>
      <trkpt lat="45.2852" lon="6.83706">
        <ele>1364.42</ele>
        <time>2018-09-09T11:04:19Z</time>
      </trkpt>
      <trkpt lat="45.28522" lon="6.83738">
        <ele>1364.14</ele>
        <time>2018-09-09T11:04:20Z</time>
      </trkpt>
      <trkpt lat="45.28526" lon="6.8377">
        <ele>1363.35</ele>
        <time>2018-09-09T11:04:21Z</time>
      </trkpt>
      <trkpt lat="45.28531" lon="6.83801">
        <ele>1362.42</ele>
        <time>2018-09-09T11:04:22Z</time>
      </trkpt>
      <trkpt lat="45.28536" lon="6.83832">
        <ele>1362.14</ele>
        <time>2018-09-09T11:04:23Z</time>
      </trkpt>
      <trkpt lat="45.28541" lon="6.83863">
        <ele>1361.35</ele>
        <time>2018-09-09T11:04:24Z</time>
      </trkpt>
      <trkpt lat="45.28545" lon="6.83896">
        <ele>1361.12</ele>
        <time>2018-09-09T11:04:25Z</time>
      </trkpt>
      <trkpt lat="45.28546" lon="6.83928">
        <ele>1360.35</ele>
        <time>2018-09-09T11:04:26Z</time>
      </trkpt>
      <trkpt lat="45.28548" lon="6.8396">
        <ele>1360.11</ele>
        <time>2018-09-09T11:04:27Z</time>
      </trkpt>
      <trkpt lat="45.2855" lon="6.83992">
        <ele>1359.34</ele>
        <time>2018-09-09T11:04:28Z</time>
      </trkpt>
      <trkpt lat="45.28551" lon="6.84024">
        <ele>1359.11</ele>
        <time>2018-09-09T11:04:29Z</time>
      </trkpt>
      <trkpt lat="45.28553" lon="6.84055">
        <ele>1358.34</ele>
        <time>2018-09-09T11:04:30Z</time>
      </trkpt>
      <trkpt lat="45.28555" lon="6.84086">
        <ele>1358.11</ele>
        <time>2018-09-09T11:04:31Z</time>
      </trkpt>
      <trkpt lat="45.28558" lon="6.84118">
        <ele>1357.34</ele>
        <time>2018-09-09T11:04:32Z</time>
      </trkpt>
      <trkpt lat="45.28562" lon="6.8415">
        <ele>1357.11</ele>
        <time>2018-09-09T11:04:33Z</time>
      </trkpt>
      <trkpt lat="45.28566" lon="6.84181">
        <ele>1357.04</ele>
        <time>2018-09-09T11:04:34Z</time>
      </trkpt>
      <trkpt lat="45.2857" lon="6.84211">
        <ele>1357.02</ele>
        <time>2018-09-09T11:04:35Z</time>
      </trkpt>
      <trkpt lat="45.28573" lon="6.84243">
        <ele>1357.02</ele>
        <time>2018-09-09T11:04:36Z</time>
      </trkpt>
      <trkpt lat="45.28577" lon="6.84273">
        <ele>1357.02</ele>
        <time>2018-09-09T11:04:37Z</time>
      </trkpt>
      <trkpt lat="45.28581" lon="6.84305">
        <ele>1357.02</ele>
        <time>2018-09-09T11:04:38Z</time>
      </trkpt>
      <trkpt lat="45.28585" lon="6.84336">
        <ele>1357.02</ele>
        <time>2018-09-09T11:04:39Z</time>
      </trkpt>
      <trkpt lat="45.28589" lon="6.84368">
        <ele>1357.02</ele>
        <time>2018-09-09T11:04:40Z</time>
      </trkpt>
      <trkpt lat="45.28593" lon="6.844">
        <ele>1357.02</ele>
        <time>2018-09-09T11:04:41Z</time>
      </trkpt>
      <trkpt lat="45.28597" lon="6.84431">
        <ele>1357.71</ele>
        <time>2018-09-09T11:04:42Z</time>
      </trkpt>
      <trkpt lat="45.28601" lon="6.84462">
        <ele>1357.93</ele>
        <time>2018-09-09T11:04:43Z</time>
      </trkpt>
      <trkpt lat="45.28605" lon="6.84493">
        <ele>1357.99</ele>
        <time>2018-09-09T11:04:44Z</time>
      </trkpt>
      <trkpt lat="45.28609" lon="6.84524">
        <ele>1358.01</ele>
        <time>2018-09-09T11:04:45Z</time>
      </trkpt>
      <trkpt lat="45.28612" lon="6.84555">
        <ele>1358.01</ele>
        <time>2018-09-09T11:04:46Z</time>
      </trkpt>
      <trkpt lat="45.28612" lon="6.84587">
        <ele>1358.01</ele>
        <time>2018-09-09T11:04:47Z</time>
      </trkpt>
      <trkpt lat="45.2861" lon="6.84617">
        <ele>1358.01</ele>
        <time>2018-09-09T11:04:48Z</time>
      </trkpt>
      <trkpt lat="45.28607" lon="6.84647">
        <ele>1358.71</ele>
        <time>2018-09-09T11:04:49Z</time>
      </trkpt>
      <trkpt lat="45.28604" lon="6.84678">
        <ele>1358.92</ele>
        <time>2018-09-09T11:04:50Z</time>
      </trkpt>
      <trkpt lat="45.286" lon="6.84709">
        <ele>1358.99</ele>
        <time>2018-09-09T11:04:51Z</time>
      </trkpt>
      <trkpt lat="45.28597" lon="6.8474">
        <ele>1359.71</ele>
        <time>2018-09-09T11:04:52Z</time>
      </trkpt>
      <trkpt lat="45.28594" lon="6.8477">
        <ele>1359.92</ele>
        <time>2018-09-09T11:04:53Z</time>
      </trkpt>
      <trkpt lat="45.28591" lon="6.848">
        <ele>1359.99</ele>
        <time>2018-09-09T11:04:54Z</time>
      </trkpt>
      <trkpt lat="45.28589" lon="6.8483">
        <ele>1360.71</ele>
        <time>2018-09-09T11:04:55Z</time>
      </trkpt>
      <trkpt lat="45.28588" lon="6.8486">
        <ele>1360.92</ele>
        <time>2018-09-09T11:04:56Z</time>
      </trkpt>
      <trkpt lat="45.28588" lon="6.8489">
        <ele>1360.99</ele>
        <time>2018-09-09T11:04:57Z</time>
      </trkpt>
      <trkpt lat="45.2859" lon="6.8492">
        <ele>1361.71</ele>
        <time>2018-09-09T11:04:58Z</time>
      </trkpt>
      <trkpt lat="45.28594" lon="6.84951">
        <ele>1361.92</ele>
        <time>2018-09-09T11:04:59Z</time>
      </trkpt>
      <trkpt lat="45.28597" lon="6.84981">
        <ele>1361.29</ele>
        <time>2018-09-09T11:05:00Z</time>
      </trkpt>
      <trkpt lat="45.286" lon="6.8501">
        <ele>1361.1</ele>
        <time>2018-09-09T11:05:01Z</time>
      </trkpt>
      <trkpt lat="45.28602" lon="6.85039">
        <ele>1361.74</ele>
        <time>2018-09-09T11:05:02Z</time>
      </trkpt>
      <trkpt lat="45.28604" lon="6.85069">
        <ele>1361.93</ele>
        <time>2018-09-09T11:05:03Z</time>
      </trkpt>
      <trkpt lat="45.28605" lon="6.85098">
        <ele>1362.69</ele>
        <time>2018-09-09T11:05:04Z</time>
      </trkpt>
      <trkpt lat="45.28606" lon="6.85127">
        <ele>1362.92</ele>
        <time>2018-09-09T11:05:05Z</time>
      </trkpt>
      <trkpt lat="45.28609" lon="6.85157">
        <ele>1362.99</ele>
        <time>2018-09-09T11:05:06Z</time>
      </trkpt>
      <trkpt lat="45.2861" lon="6.85186">
        <ele>1363.01</ele>
        <time>2018-09-09T11:05:07Z</time>
      </trkpt>
      <trkpt lat="45.28611" lon="6.85216">
        <ele>1363.71</ele>
        <time>2018-09-09T11:05:08Z</time>
      </trkpt>
      <trkpt lat="45.28612" lon="6.85245">
        <ele>1363.92</ele>
        <time>2018-09-09T11:05:09Z</time>
      </trkpt>
      <trkpt lat="45.28613" lon="6.85273">
        <ele>1363.99</ele>
        <time>2018-09-09T11:05:10Z</time>
      </trkpt>
      <trkpt lat="45.28615" lon="6.85303">
        <ele>1364.71</ele>
        <time>2018-09-09T11:05:11Z</time>
      </trkpt>
      <trkpt lat="45.28615" lon="6.8533">
        <ele>1364.92</ele>
        <time>2018-09-09T11:05:12Z</time>
      </trkpt>
      <trkpt lat="45.28616" lon="6.85358">
        <ele>1364.99</ele>
        <time>2018-09-09T11:05:13Z</time>
      </trkpt>
      <trkpt lat="45.28615" lon="6.85386">
        <ele>1365.01</ele>
        <time>2018-09-09T11:05:14Z</time>
      </trkpt>
      <trkpt lat="45.28614" lon="6.85413">
        <ele>1365.71</ele>
        <time>2018-09-09T11:05:15Z</time>
      </trkpt>
      <trkpt lat="45.28611" lon="6.8544">
        <ele>1365.92</ele>
        <time>2018-09-09T11:05:16Z</time>
      </trkpt>
      <trkpt lat="45.28607" lon="6.85468">
        <ele>1365.99</ele>
        <time>2018-09-09T11:05:17Z</time>
      </trkpt>
      <trkpt lat="45.28604" lon="6.85495">
        <ele>1366.01</ele>
        <time>2018-09-09T11:05:18Z</time>
      </trkpt>
      <trkpt lat="45.28598" lon="6.85523">
        <ele>1366.71</ele>
        <time>2018-09-09T11:05:19Z</time>
      </trkpt>
      <trkpt lat="45.28592" lon="6.85549">
        <ele>1366.92</ele>
        <time>2018-09-09T11:05:20Z</time>
      </trkpt>
      <trkpt lat="45.28587" lon="6.85576">
        <ele>1366.99</ele>
        <time>2018-09-09T11:05:21Z</time>
      </trkpt>
      <trkpt lat="45.28583" lon="6.85601">
        <ele>1367.71</ele>
        <time>2018-09-09T11:05:22Z</time>
      </trkpt>
      <trkpt lat="45.2858" lon="6.85628">
        <ele>1367.92</ele>
        <time>2018-09-09T11:05:23Z</time>
      </trkpt>
      <trkpt lat="45.28579" lon="6.85655">
        <ele>1367.99</ele>
        <time>2018-09-09T11:05:24Z</time>
      </trkpt>
      <trkpt lat="45.28579" lon="6.85682">
        <ele>1368.01</ele>
        <time>2018-09-09T11:05:25Z</time>
      </trkpt>
      <trkpt lat="45.28579" lon="6.85709">
        <ele>1368.01</ele>
        <time>2018-09-09T11:05:26Z</time>
      </trkpt>
      <trkpt lat="45.2858" lon="6.85736">
        <ele>1368.01</ele>
        <time>2018-09-09T11:05:27Z</time>
      </trkpt>
      <trkpt lat="45.2858" lon="6.85763">
        <ele>1368.01</ele>
        <time>2018-09-09T11:05:28Z</time>
      </trkpt>
      <trkpt lat="45.2858" lon="6.8579">
        <ele>1368.01</ele>
        <time>2018-09-09T11:05:29Z</time>
      </trkpt>
      <trkpt lat="45.28581" lon="6.85816">
        <ele>1368.02</ele>
        <time>2018-09-09T11:05:30Z</time>
      </trkpt>
      <trkpt lat="45.28581" lon="6.85842">
        <ele>1368.71</ele>
        <time>2018-09-09T11:05:31Z</time>
      </trkpt>
      <trkpt lat="45.28581" lon="6.85868">
        <ele>1368.93</ele>
        <time>2018-09-09T11:05:32Z</time>
      </trkpt>
      <trkpt lat="45.28581" lon="6.85919">
        <ele>1369.71</ele>
        <time>2018-09-09T11:05:34Z</time>
      </trkpt>
      <trkpt lat="45.28581" lon="6.85946">
        <ele>1369.92</ele>
        <time>2018-09-09T11:05:35Z</time>
      </trkpt>
      <trkpt lat="45.28581" lon="6.85972">
        <ele>1369.99</ele>
        <time>2018-09-09T11:05:36Z</time>
      </trkpt>
      <trkpt lat="45.28579" lon="6.85999">
        <ele>1370.01</ele>
        <time>2018-09-09T11:05:37Z</time>
      </trkpt>
      <trkpt lat="45.28576" lon="6.86025">
        <ele>1370.71</ele>
        <time>2018-09-09T11:05:38Z</time>
      </trkpt>
      <trkpt lat="45.28572" lon="6.86052">
        <ele>1370.92</ele>
        <time>2018-09-09T11:05:39Z</time>
      </trkpt>
      <trkpt lat="45.28567" lon="6.86078">
        <ele>1370.99</ele>
        <time>2018-09-09T11:05:40Z</time>
      </trkpt>
      <trkpt lat="45.28561" lon="6.86107">
        <ele>1371.01</ele>
        <time>2018-09-09T11:05:41Z</time>
      </trkpt>
      <trkpt lat="45.28554" lon="6.86137">
        <ele>1371.71</ele>
        <time>2018-09-09T11:05:42Z</time>
      </trkpt>
      <trkpt lat="45.28545" lon="6.86168">
        <ele>1371.92</ele>
        <time>2018-09-09T11:05:43Z</time>
      </trkpt>
      <trkpt lat="45.28534" lon="6.86196">
        <ele>1371.99</ele>
        <time>2018-09-09T11:05:44Z</time>
      </trkpt>
      <trkpt lat="45.28523" lon="6.86224">
        <ele>1372.01</ele>
        <time>2018-09-09T11:05:45Z</time>
      </trkpt>
      <trkpt lat="45.28513" lon="6.86252">
        <ele>1372.01</ele>
        <time>2018-09-09T11:05:46Z</time>
      </trkpt>
      <trkpt lat="45.28505" lon="6.8628">
        <ele>1372.01</ele>
        <time>2018-09-09T11:05:47Z</time>
      </trkpt>
      <trkpt lat="45.28499" lon="6.86309">
        <ele>1372.71</ele>
        <time>2018-09-09T11:05:48Z</time>
      </trkpt>
      <trkpt lat="45.28495" lon="6.86338">
        <ele>1372.92</ele>
        <time>2018-09-09T11:05:49Z</time>
      </trkpt>
      <trkpt lat="45.28491" lon="6.86367">
        <ele>1373.69</ele>
        <time>2018-09-09T11:05:50Z</time>
      </trkpt>
      <trkpt lat="45.28488" lon="6.86397">
        <ele>1374.62</ele>
        <time>2018-09-09T11:05:51Z</time>
      </trkpt>
      <trkpt lat="45.28484" lon="6.86425">
        <ele>1374.2</ele>
        <time>2018-09-09T11:05:52Z</time>
      </trkpt>
      <trkpt lat="45.28481" lon="6.86454">
        <ele>1374.07</ele>
        <time>2018-09-09T11:05:53Z</time>
      </trkpt>
      <trkpt lat="45.28478" lon="6.86483">
        <ele>1374.03</ele>
        <time>2018-09-09T11:05:54Z</time>
      </trkpt>
      <trkpt lat="45.28473" lon="6.86511">
        <ele>1374.72</ele>
        <time>2018-09-09T11:05:55Z</time>
      </trkpt>
      <trkpt lat="45.28469" lon="6.86539">
        <ele>1374.93</ele>
        <time>2018-09-09T11:05:56Z</time>
      </trkpt>
      <trkpt lat="45.28466" lon="6.86568">
        <ele>1375.69</ele>
        <time>2018-09-09T11:05:57Z</time>
      </trkpt>
      <trkpt lat="45.28462" lon="6.86597">
        <ele>1375.22</ele>
        <time>2018-09-09T11:05:58Z</time>
      </trkpt>
      <trkpt lat="45.28458" lon="6.86627">
        <ele>1375.08</ele>
        <time>2018-09-09T11:05:59Z</time>
      </trkpt>
      <trkpt lat="45.28455" lon="6.86657">
        <ele>1375.03</ele>
        <time>2018-09-09T11:06:00Z</time>
      </trkpt>
      <trkpt lat="45.28451" lon="6.86686">
        <ele>1375.72</ele>
        <time>2018-09-09T11:06:01Z</time>
      </trkpt>
      <trkpt lat="45.28447" lon="6.86715">
        <ele>1375.93</ele>
        <time>2018-09-09T11:06:02Z</time>
      </trkpt>
      <trkpt lat="45.28443" lon="6.86745">
        <ele>1375.99</ele>
        <time>2018-09-09T11:06:03Z</time>
      </trkpt>
      <trkpt lat="45.28439" lon="6.86774">
        <ele>1376.71</ele>
        <time>2018-09-09T11:06:04Z</time>
      </trkpt>
      <trkpt lat="45.28435" lon="6.86804">
        <ele>1377.62</ele>
        <time>2018-09-09T11:06:05Z</time>
      </trkpt>
      <trkpt lat="45.28431" lon="6.86833">
        <ele>1377.9</ele>
        <time>2018-09-09T11:06:06Z</time>
      </trkpt>
      <trkpt lat="45.28427" lon="6.86862">
        <ele>1378.68</ele>
        <time>2018-09-09T11:06:07Z</time>
      </trkpt>
      <trkpt lat="45.28425" lon="6.8689">
        <ele>1379.61</ele>
        <time>2018-09-09T11:06:08Z</time>
      </trkpt>
      <trkpt lat="45.28424" lon="6.86917">
        <ele>1379.89</ele>
        <time>2018-09-09T11:06:09Z</time>
      </trkpt>
      <trkpt lat="45.28423" lon="6.86945">
        <ele>1380.68</ele>
        <time>2018-09-09T11:06:10Z</time>
      </trkpt>
      <trkpt lat="45.28423" lon="6.86972">
        <ele>1381.61</ele>
        <time>2018-09-09T11:06:11Z</time>
      </trkpt>
      <trkpt lat="45.28425" lon="6.86998">
        <ele>1381.89</ele>
        <time>2018-09-09T11:06:12Z</time>
      </trkpt>
      <trkpt lat="45.28428" lon="6.87024">
        <ele>1382.68</ele>
        <time>2018-09-09T11:06:13Z</time>
      </trkpt>
      <trkpt lat="45.28436" lon="6.87071">
        <ele>1383.68</ele>
        <time>2018-09-09T11:06:15Z</time>
      </trkpt>
      <trkpt lat="45.28446" lon="6.87111">
        <ele>1383.99</ele>
        <time>2018-09-09T11:06:17Z</time>
      </trkpt>
      <trkpt lat="45.28455" lon="6.87147">
        <ele>1384.92</ele>
        <time>2018-09-09T11:06:19Z</time>
      </trkpt>
      <trkpt lat="45.28459" lon="6.87179">
        <ele>1385.92</ele>
        <time>2018-09-09T11:06:21Z</time>
      </trkpt>
      <trkpt lat="45.28461" lon="6.87211">
        <ele>1386.92</ele>
        <time>2018-09-09T11:06:23Z</time>
      </trkpt>
      <trkpt lat="45.28462" lon="6.87236">
        <ele>1387.22</ele>
        <time>2018-09-09T11:06:25Z</time>
      </trkpt>
      <trkpt lat="45.28474" lon="6.87255">
        <ele>1387.72</ele>
        <time>2018-09-09T11:06:28Z</time>
      </trkpt>
      <trkpt lat="45.28492" lon="6.87273">
        <ele>1388.01</ele>
        <time>2018-09-09T11:06:31Z</time>
      </trkpt>
      <trkpt lat="45.28498" lon="6.87297">
        <ele>1388.01</ele>
        <time>2018-09-09T11:06:33Z</time>
      </trkpt>
      <trkpt lat="45.28504" lon="6.87323">
        <ele>1388.92</ele>
        <time>2018-09-09T11:06:35Z</time>
      </trkpt>
      <trkpt lat="45.2851" lon="6.87348">
        <ele>1389.01</ele>
        <time>2018-09-09T11:06:37Z</time>
      </trkpt>
      <trkpt lat="45.28516" lon="6.87373">
        <ele>1389.71</ele>
        <time>2018-09-09T11:06:39Z</time>
      </trkpt>
      <trkpt lat="45.28522" lon="6.874">
        <ele>1389.99</ele>
        <time>2018-09-09T11:06:41Z</time>
      </trkpt>
      <trkpt lat="45.28526" lon="6.8743">
        <ele>1390.92</ele>
        <time>2018-09-09T11:06:43Z</time>
      </trkpt>
      <trkpt lat="45.28531" lon="6.87461">
        <ele>1391.92</ele>
        <time>2018-09-09T11:06:45Z</time>
      </trkpt>
      <trkpt lat="45.28534" lon="6.87494">
        <ele>1393.62</ele>
        <time>2018-09-09T11:06:47Z</time>
      </trkpt>
      <trkpt lat="45.28536" lon="6.87527">
        <ele>1393.77</ele>
        <time>2018-09-09T11:06:49Z</time>
      </trkpt>
      <trkpt lat="45.28536" lon="6.87561">
        <ele>1393.99</ele>
        <time>2018-09-09T11:06:51Z</time>
      </trkpt>
      <trkpt lat="45.28532" lon="6.87594">
        <ele>1394.01</ele>
        <time>2018-09-09T11:06:53Z</time>
      </trkpt>
      <trkpt lat="45.28528" lon="6.87625">
        <ele>1394.01</ele>
        <time>2018-09-09T11:06:55Z</time>
      </trkpt>
      <trkpt lat="45.28524" lon="6.87657">
        <ele>1394.02</ele>
        <time>2018-09-09T11:06:57Z</time>
      </trkpt>
      <trkpt lat="45.28522" lon="6.87688">
        <ele>1394.71</ele>
        <time>2018-09-09T11:06:59Z</time>
      </trkpt>
      <trkpt lat="45.28522" lon="6.87719">
        <ele>1394.08</ele>
        <time>2018-09-09T11:07:01Z</time>
      </trkpt>
      <trkpt lat="45.28524" lon="6.87748">
        <ele>1394.02</ele>
        <time>2018-09-09T11:07:03Z</time>
      </trkpt>
      <trkpt lat="45.28527" lon="6.87775">
        <ele>1394.72</ele>
        <time>2018-09-09T11:07:05Z</time>
      </trkpt>
      <trkpt lat="45.28528" lon="6.87805">
        <ele>1394.99</ele>
        <time>2018-09-09T11:07:07Z</time>
      </trkpt>
      <trkpt lat="45.28527" lon="6.87836">
        <ele>1395.71</ele>
        <time>2018-09-09T11:07:09Z</time>
      </trkpt>
      <trkpt lat="45.28528" lon="6.8787">
        <ele>1395.99</ele>
        <time>2018-09-09T11:07:11Z</time>
      </trkpt>
      <trkpt lat="45.28529" lon="6.87905">
        <ele>1396.01</ele>
        <time>2018-09-09T11:07:13Z</time>
      </trkpt>
      <trkpt lat="45.2853" lon="6.8794">
        <ele>1396.92</ele>
        <time>2018-09-09T11:07:15Z</time>
      </trkpt>
      <trkpt lat="45.28533" lon="6.87976">
        <ele>1397.01</ele>
        <time>2018-09-09T11:07:17Z</time>
      </trkpt>
      <trkpt lat="45.28537" lon="6.88012">
        <ele>1397.01</ele>
        <time>2018-09-09T11:07:19Z</time>
      </trkpt>
      <trkpt lat="45.28541" lon="6.88048">
        <ele>1397.92</ele>
        <time>2018-09-09T11:07:21Z</time>
      </trkpt>
      <trkpt lat="45.28544" lon="6.88083">
        <ele>1398.71</ele>
        <time>2018-09-09T11:07:23Z</time>
      </trkpt>
      <trkpt lat="45.28548" lon="6.88118">
        <ele>1398.99</ele>
        <time>2018-09-09T11:07:25Z</time>
      </trkpt>
      <trkpt lat="45.28551" lon="6.88154">
        <ele>1399.01</ele>
        <time>2018-09-09T11:07:27Z</time>
      </trkpt>
      <trkpt lat="45.28553" lon="6.8819">
        <ele>1399.92</ele>
        <time>2018-09-09T11:07:29Z</time>
      </trkpt>
      <trkpt lat="45.28556" lon="6.88227">
        <ele>1400.01</ele>
        <time>2018-09-09T11:07:31Z</time>
      </trkpt>
      <trkpt lat="45.28559" lon="6.88261">
        <ele>1400.71</ele>
        <time>2018-09-09T11:07:33Z</time>
      </trkpt>
      <trkpt lat="45.28558" lon="6.88297">
        <ele>1400.99</ele>
        <time>2018-09-09T11:07:35Z</time>
      </trkpt>
      <trkpt lat="45.28559" lon="6.88336">
        <ele>1401.92</ele>
        <time>2018-09-09T11:07:37Z</time>
      </trkpt>
      <trkpt lat="45.2856" lon="6.88373">
        <ele>1402.01</ele>
        <time>2018-09-09T11:07:39Z</time>
      </trkpt>
      <trkpt lat="45.28561" lon="6.88406">
        <ele>1402.71</ele>
        <time>2018-09-09T11:07:41Z</time>
      </trkpt>
      <trkpt lat="45.28566" lon="6.88431">
        <ele>1402.99</ele>
        <time>2018-09-09T11:07:43Z</time>
      </trkpt>
      <trkpt lat="45.28571" lon="6.88457">
        <ele>1403.01</ele>
        <time>2018-09-09T11:07:45Z</time>
      </trkpt>
      <trkpt lat="45.28574" lon="6.88486">
        <ele>1403.92</ele>
        <time>2018-09-09T11:07:47Z</time>
      </trkpt>
      <trkpt lat="45.28577" lon="6.88515">
        <ele>1404.01</ele>
        <time>2018-09-09T11:07:49Z</time>
      </trkpt>
      <trkpt lat="45.28579" lon="6.88545">
        <ele>1404.71</ele>
        <time>2018-09-09T11:07:51Z</time>
      </trkpt>
      <trkpt lat="45.28581" lon="6.88575">
        <ele>1404.99</ele>
        <time>2018-09-09T11:07:53Z</time>
      </trkpt>
      <trkpt lat="45.28584" lon="6.88605">
        <ele>1405.92</ele>
        <time>2018-09-09T11:07:55Z</time>
      </trkpt>
      <trkpt lat="45.28587" lon="6.88633">
        <ele>1406.71</ele>
        <time>2018-09-09T11:07:57Z</time>
      </trkpt>
      <trkpt lat="45.28589" lon="6.88662">
        <ele>1407.9</ele>
        <time>2018-09-09T11:07:59Z</time>
      </trkpt>
      <trkpt lat="45.28592" lon="6.88693">
        <ele>1408</ele>
        <time>2018-09-09T11:08:01Z</time>
      </trkpt>
      <trkpt lat="45.28595" lon="6.88723">
        <ele>1408.71</ele>
        <time>2018-09-09T11:08:03Z</time>
      </trkpt>
      <trkpt lat="45.28598" lon="6.88754">
        <ele>1408.08</ele>
        <time>2018-09-09T11:08:05Z</time>
      </trkpt>
      <trkpt lat="45.28601" lon="6.88785">
        <ele>1408.72</ele>
        <time>2018-09-09T11:08:07Z</time>
      </trkpt>
      <trkpt lat="45.28603" lon="6.88817">
        <ele>1409.69</ele>
        <time>2018-09-09T11:08:09Z</time>
      </trkpt>
      <trkpt lat="45.28606" lon="6.88852">
        <ele>1410.69</ele>
        <time>2018-09-09T11:08:11Z</time>
      </trkpt>
      <trkpt lat="45.28608" lon="6.88888">
        <ele>1411.9</ele>
        <time>2018-09-09T11:08:13Z</time>
      </trkpt>
      <trkpt lat="45.28611" lon="6.88924">
        <ele>1413.61</ele>
        <time>2018-09-09T11:08:15Z</time>
      </trkpt>
      <trkpt lat="45.28614" lon="6.88959">
        <ele>1414.89</ele>
        <time>2018-09-09T11:08:17Z</time>
      </trkpt>
      <trkpt lat="45.28617" lon="6.89">
        <ele>1415.7</ele>
        <time>2018-09-09T11:08:19Z</time>
      </trkpt>
      <trkpt lat="45.28619" lon="6.89044">
        <ele>1416.69</ele>
        <time>2018-09-09T11:08:21Z</time>
      </trkpt>
      <trkpt lat="45.28622" lon="6.89089">
        <ele>1417.69</ele>
        <time>2018-09-09T11:08:23Z</time>
      </trkpt>
      <trkpt lat="45.28625" lon="6.89135">
        <ele>1418.69</ele>
        <time>2018-09-09T11:08:25Z</time>
      </trkpt>
      <trkpt lat="45.28627" lon="6.89183">
        <ele>1420.6</ele>
        <time>2018-09-09T11:08:27Z</time>
      </trkpt>
      <trkpt lat="45.28631" lon="6.89234">
        <ele>1421.68</ele>
        <time>2018-09-09T11:08:29Z</time>
      </trkpt>
      <trkpt lat="45.28632" lon="6.8926">
        <ele>1421.91</ele>
        <time>2018-09-09T11:08:30Z</time>
      </trkpt>
      <trkpt lat="45.28634" lon="6.89287">
        <ele>1422.68</ele>
        <time>2018-09-09T11:08:31Z</time>
      </trkpt>
      <trkpt lat="45.28636" lon="6.89313">
        <ele>1422.92</ele>
        <time>2018-09-09T11:08:32Z</time>
      </trkpt>
      <trkpt lat="45.28637" lon="6.89339">
        <ele>1423.69</ele>
        <time>2018-09-09T11:08:33Z</time>
      </trkpt>
      <trkpt lat="45.28637" lon="6.89366">
        <ele>1423.92</ele>
        <time>2018-09-09T11:08:34Z</time>
      </trkpt>
      <trkpt lat="45.28636" lon="6.89392">
        <ele>1423.99</ele>
        <time>2018-09-09T11:08:35Z</time>
      </trkpt>
      <trkpt lat="45.28635" lon="6.89418">
        <ele>1424.01</ele>
        <time>2018-09-09T11:08:36Z</time>
      </trkpt>
      <trkpt lat="45.28634" lon="6.89444">
        <ele>1424.71</ele>
        <time>2018-09-09T11:08:37Z</time>
      </trkpt>
      <trkpt lat="45.28633" lon="6.8947">
        <ele>1424.92</ele>
        <time>2018-09-09T11:08:38Z</time>
      </trkpt>
      <trkpt lat="45.28633" lon="6.89495">
        <ele>1424.99</ele>
        <time>2018-09-09T11:08:39Z</time>
      </trkpt>
      <trkpt lat="45.28631" lon="6.89546">
        <ele>1425.71</ele>
        <time>2018-09-09T11:08:41Z</time>
      </trkpt>
      <trkpt lat="45.28628" lon="6.89596">
        <ele>1427.6</ele>
        <time>2018-09-09T11:08:43Z</time>
      </trkpt>
      <trkpt lat="45.28627" lon="6.89623">
        <ele>1427.89</ele>
        <time>2018-09-09T11:08:44Z</time>
      </trkpt>
      <trkpt lat="45.28625" lon="6.89649">
        <ele>1428.68</ele>
        <time>2018-09-09T11:08:45Z</time>
      </trkpt>
      <trkpt lat="45.28624" lon="6.89675">
        <ele>1429.61</ele>
        <time>2018-09-09T11:08:46Z</time>
      </trkpt>
      <trkpt lat="45.28623" lon="6.89701">
        <ele>1430.59</ele>
        <time>2018-09-09T11:08:47Z</time>
      </trkpt>
      <trkpt lat="45.28628" lon="6.8975">
        <ele>1431.68</ele>
        <time>2018-09-09T11:08:49Z</time>
      </trkpt>
      <trkpt lat="45.28639" lon="6.89798">
        <ele>1431.98</ele>
        <time>2018-09-09T11:08:51Z</time>
      </trkpt>
      <trkpt lat="45.28656" lon="6.89843">
        <ele>1432.01</ele>
        <time>2018-09-09T11:08:53Z</time>
      </trkpt>
      <trkpt lat="45.28676" lon="6.89887">
        <ele>1432.71</ele>
        <time>2018-09-09T11:08:55Z</time>
      </trkpt>
      <trkpt lat="45.28685" lon="6.8991">
        <ele>1432.92</ele>
        <time>2018-09-09T11:08:56Z</time>
      </trkpt>
      <trkpt lat="45.28693" lon="6.89934">
        <ele>1432.99</ele>
        <time>2018-09-09T11:08:57Z</time>
      </trkpt>
      <trkpt lat="45.28701" lon="6.89958">
        <ele>1433.71</ele>
        <time>2018-09-09T11:08:58Z</time>
      </trkpt>
      <trkpt lat="45.28707" lon="6.89983">
        <ele>1433.92</ele>
        <time>2018-09-09T11:08:59Z</time>
      </trkpt>
      <trkpt lat="45.28713" lon="6.90008">
        <ele>1434.69</ele>
        <time>2018-09-09T11:09:00Z</time>
      </trkpt>
      <trkpt lat="45.2872" lon="6.90033">
        <ele>1434.92</ele>
        <time>2018-09-09T11:09:01Z</time>
      </trkpt>
      <trkpt lat="45.28726" lon="6.90058">
        <ele>1435.69</ele>
        <time>2018-09-09T11:09:02Z</time>
      </trkpt>
      <trkpt lat="45.28732" lon="6.90082">
        <ele>1436.62</ele>
        <time>2018-09-09T11:09:03Z</time>
      </trkpt>
      <trkpt lat="45.28738" lon="6.90107">
        <ele>1437.6</ele>
        <time>2018-09-09T11:09:04Z</time>
      </trkpt>
      <trkpt lat="45.28755" lon="6.90152">
        <ele>1438.89</ele>
        <time>2018-09-09T11:09:06Z</time>
      </trkpt>
      <trkpt lat="45.28766" lon="6.90172">
        <ele>1439.68</ele>
        <time>2018-09-09T11:09:07Z</time>
      </trkpt>
      <trkpt lat="45.28787" lon="6.90202">
        <ele>1440.19</ele>
        <time>2018-09-09T11:09:09Z</time>
      </trkpt>
      <trkpt lat="45.28806" lon="6.90216">
        <ele>1440.03</ele>
        <time>2018-09-09T11:09:11Z</time>
      </trkpt>
      <trkpt lat="45.2882" lon="6.90241">
        <ele>1440.93</ele>
        <time>2018-09-09T11:09:14Z</time>
      </trkpt>
      <trkpt lat="45.28836" lon="6.90264">
        <ele>1441.92</ele>
        <time>2018-09-09T11:09:17Z</time>
      </trkpt>
      <trkpt lat="45.28851" lon="6.90294">
        <ele>1443.9</ele>
        <time>2018-09-09T11:09:20Z</time>
      </trkpt>
      <trkpt lat="45.28865" lon="6.90327">
        <ele>1444.98</ele>
        <time>2018-09-09T11:09:23Z</time>
      </trkpt>
      <trkpt lat="45.28876" lon="6.90355">
        <ele>1446.9</ele>
        <time>2018-09-09T11:09:26Z</time>
      </trkpt>
      <trkpt lat="45.28887" lon="6.90381">
        <ele>1448.62</ele>
        <time>2018-09-09T11:09:29Z</time>
      </trkpt>
      <trkpt lat="45.28899" lon="6.90409">
        <ele>1449.7</ele>
        <time>2018-09-09T11:09:32Z</time>
      </trkpt>
      <trkpt lat="45.28909" lon="6.90434">
        <ele>1451.68</ele>
        <time>2018-09-09T11:09:35Z</time>
      </trkpt>
      <trkpt lat="45.2892" lon="6.90458">
        <ele>1453.62</ele>
        <time>2018-09-09T11:09:38Z</time>
      </trkpt>
      <trkpt lat="45.28931" lon="6.90486">
        <ele>1454.98</ele>
        <time>2018-09-09T11:09:41Z</time>
      </trkpt>
      <trkpt lat="45.2894" lon="6.90509">
        <ele>1455.92</ele>
        <time>2018-09-09T11:09:43Z</time>
      </trkpt>
      <trkpt lat="45.28953" lon="6.90534">
        <ele>1457.62</ele>
        <time>2018-09-09T11:09:45Z</time>
      </trkpt>
      <trkpt lat="45.28969" lon="6.90562">
        <ele>1459.59</ele>
        <time>2018-09-09T11:09:47Z</time>
      </trkpt>
      <trkpt lat="45.28987" lon="6.90591">
        <ele>1459.98</ele>
        <time>2018-09-09T11:09:49Z</time>
      </trkpt>
      <trkpt lat="45.29006" lon="6.90618">
        <ele>1461.62</ele>
        <time>2018-09-09T11:09:51Z</time>
      </trkpt>
      <trkpt lat="45.29024" lon="6.9065">
        <ele>1461.98</ele>
        <time>2018-09-09T11:09:53Z</time>
      </trkpt>
      <trkpt lat="45.29036" lon="6.9069">
        <ele>1462.01</ele>
        <time>2018-09-09T11:09:55Z</time>
      </trkpt>
      <trkpt lat="45.29041" lon="6.90738">
        <ele>1462.22</ele>
        <time>2018-09-09T11:09:57Z</time>
      </trkpt>
      <trkpt lat="45.29041" lon="6.90786">
        <ele>1462.94</ele>
        <time>2018-09-09T11:09:59Z</time>
      </trkpt>
      <trkpt lat="45.29041" lon="6.90837">
        <ele>1463.71</ele>
        <time>2018-09-09T11:10:01Z</time>
      </trkpt>
      <trkpt lat="45.29042" lon="6.90887">
        <ele>1463.99</ele>
        <time>2018-09-09T11:10:03Z</time>
      </trkpt>
      <trkpt lat="45.29043" lon="6.90936">
        <ele>1464.01</ele>
        <time>2018-09-09T11:10:05Z</time>
      </trkpt>
      <trkpt lat="45.29042" lon="6.90984">
        <ele>1464.71</ele>
        <time>2018-09-09T11:10:07Z</time>
      </trkpt>
      <trkpt lat="45.29042" lon="6.91031">
        <ele>1464.99</ele>
        <time>2018-09-09T11:10:09Z</time>
      </trkpt>
      <trkpt lat="45.29041" lon="6.91076">
        <ele>1465.01</ele>
        <time>2018-09-09T11:10:11Z</time>
      </trkpt>
      <trkpt lat="45.29042" lon="6.91118">
        <ele>1464.1</ele>
        <time>2018-09-09T11:10:13Z</time>
      </trkpt>
      <trkpt lat="45.29041" lon="6.91155">
        <ele>1463.11</ele>
        <time>2018-09-09T11:10:15Z</time>
      </trkpt>
      <trkpt lat="45.29042" lon="6.91188">
        <ele>1463.02</ele>
        <time>2018-09-09T11:10:17Z</time>
      </trkpt>
      <trkpt lat="45.29043" lon="6.91217">
        <ele>1463.02</ele>
        <time>2018-09-09T11:10:19Z</time>
      </trkpt>
      <trkpt lat="45.29042" lon="6.91244">
        <ele>1463.02</ele>
        <time>2018-09-09T11:10:21Z</time>
      </trkpt>
      <trkpt lat="45.2904" lon="6.91272">
        <ele>1463.02</ele>
        <time>2018-09-09T11:10:24Z</time>
      </trkpt>
      <trkpt lat="45.29034" lon="6.91298">
        <ele>1463.02</ele>
        <time>2018-09-09T11:10:27Z</time>
      </trkpt>
      <trkpt lat="45.29033" lon="6.91325">
        <ele>1463.02</ele>
        <time>2018-09-09T11:10:29Z</time>
      </trkpt>
      <trkpt lat="45.29038" lon="6.91355">
        <ele>1463.02</ele>
        <time>2018-09-09T11:10:31Z</time>
      </trkpt>
      <trkpt lat="45.2905" lon="6.91387">
        <ele>1463.02</ele>
        <time>2018-09-09T11:10:33Z</time>
      </trkpt>
      <trkpt lat="45.29067" lon="6.91416">
        <ele>1463.71</ele>
        <time>2018-09-09T11:10:35Z</time>
      </trkpt>
      <trkpt lat="45.29085" lon="6.91445">
        <ele>1464.69</ele>
        <time>2018-09-09T11:10:37Z</time>
      </trkpt>
      <trkpt lat="45.29104" lon="6.91473">
        <ele>1465.69</ele>
        <time>2018-09-09T11:10:39Z</time>
      </trkpt>
      <trkpt lat="45.29121" lon="6.91502">
        <ele>1466.69</ele>
        <time>2018-09-09T11:10:41Z</time>
      </trkpt>
      <trkpt lat="45.29132" lon="6.91536">
        <ele>1467.69</ele>
        <time>2018-09-09T11:10:43Z</time>
      </trkpt>
      <trkpt lat="45.29142" lon="6.91573">
        <ele>1468.9</ele>
        <time>2018-09-09T11:10:45Z</time>
      </trkpt>
      <trkpt lat="45.29146" lon="6.9161">
        <ele>1470.61</ele>
        <time>2018-09-09T11:10:47Z</time>
      </trkpt>
      <trkpt lat="45.29146" lon="6.9165">
        <ele>1470.98</ele>
        <time>2018-09-09T11:10:49Z</time>
      </trkpt>
      <trkpt lat="45.2915" lon="6.91691">
        <ele>1471.71</ele>
        <time>2018-09-09T11:10:51Z</time>
      </trkpt>
      <trkpt lat="45.29151" lon="6.91732">
        <ele>1471.78</ele>
        <time>2018-09-09T11:10:53Z</time>
      </trkpt>
      <trkpt lat="45.29151" lon="6.91774">
        <ele>1472.69</ele>
        <time>2018-09-09T11:10:55Z</time>
      </trkpt>
      <trkpt lat="45.29152" lon="6.91815">
        <ele>1473.9</ele>
        <time>2018-09-09T11:10:57Z</time>
      </trkpt>
      <trkpt lat="45.29157" lon="6.91855">
        <ele>1476.52</ele>
        <time>2018-09-09T11:10:59Z</time>
      </trkpt>
      <trkpt lat="45.29165" lon="6.91896">
        <ele>1479.49</ele>
        <time>2018-09-09T11:11:01Z</time>
      </trkpt>
      <trkpt lat="45.29178" lon="6.91933">
        <ele>1482.28</ele>
        <time>2018-09-09T11:11:03Z</time>
      </trkpt>
      <trkpt lat="45.29195" lon="6.91968">
        <ele>1485.47</ele>
        <time>2018-09-09T11:11:05Z</time>
      </trkpt>
      <trkpt lat="45.29216" lon="6.92">
        <ele>1488.49</ele>
        <time>2018-09-09T11:11:07Z</time>
      </trkpt>
      <trkpt lat="45.29243" lon="6.9203">
        <ele>1492.89</ele>
        <time>2018-09-09T11:11:09Z</time>
      </trkpt>
      <trkpt lat="45.29265" lon="6.92062">
        <ele>1496.43</ele>
        <time>2018-09-09T11:11:11Z</time>
      </trkpt>
      <trkpt lat="45.29283" lon="6.92098">
        <ele>1500.18</ele>
        <time>2018-09-09T11:11:13Z</time>
      </trkpt>
      <trkpt lat="45.29301" lon="6.92138">
        <ele>1504.16</ele>
        <time>2018-09-09T11:11:15Z</time>
      </trkpt>
      <trkpt lat="45.29313" lon="6.92181">
        <ele>1507.46</ele>
        <time>2018-09-09T11:11:17Z</time>
      </trkpt>
      <trkpt lat="45.2932" lon="6.9222">
        <ele>1510.48</ele>
        <time>2018-09-09T11:11:19Z</time>
      </trkpt>
      <trkpt lat="45.29333" lon="6.92245">
        <ele>1512.58</ele>
        <time>2018-09-09T11:11:21Z</time>
      </trkpt>
      <trkpt lat="45.29355" lon="6.92249">
        <ele>1513.89</ele>
        <time>2018-09-09T11:11:23Z</time>
      </trkpt>
      <trkpt lat="45.29371" lon="6.92276">
        <ele>1516.66</ele>
        <time>2018-09-09T11:11:26Z</time>
      </trkpt>
      <trkpt lat="45.29362" lon="6.92304">
        <ele>1519.29</ele>
        <time>2018-09-09T11:11:28Z</time>
      </trkpt>
      <trkpt lat="45.29347" lon="6.92338">
        <ele>1522.26</ele>
        <time>2018-09-09T11:11:30Z</time>
      </trkpt>
      <trkpt lat="45.29336" lon="6.92375">
        <ele>1524.56</ele>
        <time>2018-09-09T11:11:32Z</time>
      </trkpt>
      <trkpt lat="45.29341" lon="6.9241">
        <ele>1527.28</ele>
        <time>2018-09-09T11:11:34Z</time>
      </trkpt>
      <trkpt lat="45.29362" lon="6.92438">
        <ele>1531.17</ele>
        <time>2018-09-09T11:11:36Z</time>
      </trkpt>
      <trkpt lat="45.29387" lon="6.92451">
        <ele>1533.34</ele>
        <time>2018-09-09T11:11:38Z</time>
      </trkpt>
      <trkpt lat="45.29411" lon="6.9245">
        <ele>1534.65</ele>
        <time>2018-09-09T11:11:40Z</time>
      </trkpt>
      <trkpt lat="45.29416" lon="6.92486">
        <ele>1539.26</ele>
        <time>2018-09-09T11:11:43Z</time>
      </trkpt>
      <trkpt lat="45.29419" lon="6.92524">
        <ele>1542.47</ele>
        <time>2018-09-09T11:11:45Z</time>
      </trkpt>
      <trkpt lat="45.29421" lon="6.92568">
        <ele>1544.79</ele>
        <time>2018-09-09T11:11:47Z</time>
      </trkpt>
      <trkpt lat="45.29411" lon="6.92607">
        <ele>1548.7</ele>
        <time>2018-09-09T11:11:49Z</time>
      </trkpt>
      <trkpt lat="45.29412" lon="6.92641">
        <ele>1551.51</ele>
        <time>2018-09-09T11:11:51Z</time>
      </trkpt>
      <trkpt lat="45.29422" lon="6.92667">
        <ele>1552.88</ele>
        <time>2018-09-09T11:11:53Z</time>
      </trkpt>
      <trkpt lat="45.29442" lon="6.92656">
        <ele>1555.77</ele>
        <time>2018-09-09T11:11:54Z</time>
      </trkpt>
      <trkpt lat="45.29463" lon="6.9265">
        <ele>1558.51</ele>
        <time>2018-09-09T11:11:56Z</time>
      </trkpt>
      <trkpt lat="45.29477" lon="6.92667">
        <ele>1560.58</ele>
        <time>2018-09-09T11:11:58Z</time>
      </trkpt>
      <trkpt lat="45.29484" lon="6.92701">
        <ele>1563.29</ele>
        <time>2018-09-09T11:12:00Z</time>
      </trkpt>
      <trkpt lat="45.29486" lon="6.92737">
        <ele>1565.56</ele>
        <time>2018-09-09T11:12:02Z</time>
      </trkpt>
      <trkpt lat="45.29466" lon="6.92768">
        <ele>1568.07</ele>
        <time>2018-09-09T11:12:04Z</time>
      </trkpt>
      <trkpt lat="45.2945" lon="6.92806">
        <ele>1572.15</ele>
        <time>2018-09-09T11:12:06Z</time>
      </trkpt>
      <trkpt lat="45.2943" lon="6.92839">
        <ele>1576.16</ele>
        <time>2018-09-09T11:12:08Z</time>
      </trkpt>
      <trkpt lat="45.29409" lon="6.92869">
        <ele>1580.16</ele>
        <time>2018-09-09T11:12:10Z</time>
      </trkpt>
      <trkpt lat="45.29388" lon="6.92901">
        <ele>1584.16</ele>
        <time>2018-09-09T11:12:12Z</time>
      </trkpt>
      <trkpt lat="45.29373" lon="6.92939">
        <ele>1587.46</ele>
        <time>2018-09-09T11:12:14Z</time>
      </trkpt>
      <trkpt lat="45.29368" lon="6.92983">
        <ele>1591.18</ele>
        <time>2018-09-09T11:12:16Z</time>
      </trkpt>
      <trkpt lat="45.29372" lon="6.93031">
        <ele>1595.16</ele>
        <time>2018-09-09T11:12:18Z</time>
      </trkpt>
      <trkpt lat="45.29377" lon="6.93077">
        <ele>1597.34</ele>
        <time>2018-09-09T11:12:20Z</time>
      </trkpt>
      <trkpt lat="45.29385" lon="6.93121">
        <ele>1599.56</ele>
        <time>2018-09-09T11:12:22Z</time>
      </trkpt>
      <trkpt lat="45.29398" lon="6.93166">
        <ele>1602.49</ele>
        <time>2018-09-09T11:12:24Z</time>
      </trkpt>
      <trkpt lat="45.29412" lon="6.93204">
        <ele>1604.58</ele>
        <time>2018-09-09T11:12:26Z</time>
      </trkpt>
      <trkpt lat="45.29425" lon="6.93236">
        <ele>1606.59</ele>
        <time>2018-09-09T11:12:28Z</time>
      </trkpt>
      <trkpt lat="45.29435" lon="6.93259">
        <ele>1608.59</ele>
        <time>2018-09-09T11:12:30Z</time>
      </trkpt>
      <trkpt lat="45.29444" lon="6.93284">
        <ele>1610.89</ele>
        <time>2018-09-09T11:12:33Z</time>
      </trkpt>
      <trkpt lat="45.2946" lon="6.93311">
        <ele>1613.62</ele>
        <time>2018-09-09T11:12:37Z</time>
      </trkpt>
      <trkpt lat="45.29472" lon="6.93334">
        <ele>1615.59</ele>
        <time>2018-09-09T11:12:39Z</time>
      </trkpt>
      <trkpt lat="45.29491" lon="6.93361">
        <ele>1618.5</ele>
        <time>2018-09-09T11:12:41Z</time>
      </trkpt>
      <trkpt lat="45.29512" lon="6.93385">
        <ele>1620.58</ele>
        <time>2018-09-09T11:12:43Z</time>
      </trkpt>
      <trkpt lat="45.29537" lon="6.93408">
        <ele>1623.5</ele>
        <time>2018-09-09T11:12:45Z</time>
      </trkpt>
      <trkpt lat="45.29562" lon="6.93429">
        <ele>1626.28</ele>
        <time>2018-09-09T11:12:47Z</time>
      </trkpt>
      <trkpt lat="45.2959" lon="6.93442">
        <ele>1629.26</ele>
        <time>2018-09-09T11:12:49Z</time>
      </trkpt>
      <trkpt lat="45.29618" lon="6.93434">
        <ele>1632.26</ele>
        <time>2018-09-09T11:12:51Z</time>
      </trkpt>
      <trkpt lat="45.29642" lon="6.9341">
        <ele>1634.56</ele>
        <time>2018-09-09T11:12:53Z</time>
      </trkpt>
      <trkpt lat="45.29662" lon="6.93378">
        <ele>1636.58</ele>
        <time>2018-09-09T11:12:55Z</time>
      </trkpt>
      <trkpt lat="45.29683" lon="6.93348">
        <ele>1638.59</ele>
        <time>2018-09-09T11:12:57Z</time>
      </trkpt>
      <trkpt lat="45.29709" lon="6.93327">
        <ele>1640.59</ele>
        <time>2018-09-09T11:12:59Z</time>
      </trkpt>
      <trkpt lat="45.29738" lon="6.93324">
        <ele>1642.59</ele>
        <time>2018-09-09T11:13:01Z</time>
      </trkpt>
      <trkpt lat="45.29767" lon="6.93344">
        <ele>1644.59</ele>
        <time>2018-09-09T11:13:03Z</time>
      </trkpt>
      <trkpt lat="45.29787" lon="6.93377">
        <ele>1646.59</ele>
        <time>2018-09-09T11:13:05Z</time>
      </trkpt>
      <trkpt lat="45.29796" lon="6.93421">
        <ele>1648.59</ele>
        <time>2018-09-09T11:13:07Z</time>
      </trkpt>
      <trkpt lat="45.29795" lon="6.9347">
        <ele>1650.38</ele>
        <time>2018-09-09T11:13:09Z</time>
      </trkpt>
      <trkpt lat="45.29786" lon="6.93515">
        <ele>1651.87</ele>
        <time>2018-09-09T11:13:11Z</time>
      </trkpt>
      <trkpt lat="45.29771" lon="6.93549">
        <ele>1653.61</ele>
        <time>2018-09-09T11:13:13Z</time>
      </trkpt>
      <trkpt lat="45.29747" lon="6.93569">
        <ele>1655.59</ele>
        <time>2018-09-09T11:13:15Z</time>
      </trkpt>
      <trkpt lat="45.29718" lon="6.93579">
        <ele>1657.59</ele>
        <time>2018-09-09T11:13:17Z</time>
      </trkpt>
      <trkpt lat="45.29694" lon="6.93596">
        <ele>1658.89</ele>
        <time>2018-09-09T11:13:19Z</time>
      </trkpt>
      <trkpt lat="45.29684" lon="6.93625">
        <ele>1659.91</ele>
        <time>2018-09-09T11:13:21Z</time>
      </trkpt>
      <trkpt lat="45.29691" lon="6.93659">
        <ele>1661.62</ele>
        <time>2018-09-09T11:13:23Z</time>
      </trkpt>
      <trkpt lat="45.2971" lon="6.93684">
        <ele>1662.89</ele>
        <time>2018-09-09T11:13:25Z</time>
      </trkpt>
      <trkpt lat="45.29732" lon="6.93695">
        <ele>1663</ele>
        <time>2018-09-09T11:13:27Z</time>
      </trkpt>
      <trkpt lat="45.29764" lon="6.93682">
        <ele>1663.01</ele>
        <time>2018-09-09T11:13:29Z</time>
      </trkpt>
      <trkpt lat="45.29774" lon="6.93651">
        <ele>1664.41</ele>
        <time>2018-09-09T11:13:30Z</time>
      </trkpt>
      <trkpt lat="45.29789" lon="6.93633">
        <ele>1666.23</ele>
        <time>2018-09-09T11:13:31Z</time>
      </trkpt>
      <trkpt lat="45.29807" lon="6.93625">
        <ele>1667.48</ele>
        <time>2018-09-09T11:13:32Z</time>
      </trkpt>
      <trkpt lat="45.29838" lon="6.93603">
        <ele>1670.49</ele>
        <time>2018-09-09T11:13:34Z</time>
      </trkpt>
      <trkpt lat="45.29862" lon="6.93572">
        <ele>1674.19</ele>
        <time>2018-09-09T11:13:36Z</time>
      </trkpt>
      <trkpt lat="45.29885" lon="6.93548">
        <ele>1677.25</ele>
        <time>2018-09-09T11:13:38Z</time>
      </trkpt>
      <trkpt lat="45.2991" lon="6.93537">
        <ele>1679.56</ele>
        <time>2018-09-09T11:13:40Z</time>
      </trkpt>
      <trkpt lat="45.29934" lon="6.93551">
        <ele>1681.58</ele>
        <time>2018-09-09T11:13:42Z</time>
      </trkpt>
      <trkpt lat="45.29948" lon="6.93585">
        <ele>1683.59</ele>
        <time>2018-09-09T11:13:44Z</time>
      </trkpt>
      <trkpt lat="45.29958" lon="6.93629">
        <ele>1686.5</ele>
        <time>2018-09-09T11:13:46Z</time>
      </trkpt>
      <trkpt lat="45.29969" lon="6.93676">
        <ele>1689.28</ele>
        <time>2018-09-09T11:13:48Z</time>
      </trkpt>
      <trkpt lat="45.29979" lon="6.93725">
        <ele>1692.47</ele>
        <time>2018-09-09T11:13:50Z</time>
      </trkpt>
      <trkpt lat="45.29982" lon="6.93774">
        <ele>1695.28</ele>
        <time>2018-09-09T11:13:52Z</time>
      </trkpt>
      <trkpt lat="45.29973" lon="6.93821">
        <ele>1698.26</ele>
        <time>2018-09-09T11:13:54Z</time>
      </trkpt>
      <trkpt lat="45.29968" lon="6.93846">
        <ele>1699.49</ele>
        <time>2018-09-09T11:13:55Z</time>
      </trkpt>
      <trkpt lat="45.29952" lon="6.93891">
        <ele>1702.49</ele>
        <time>2018-09-09T11:13:57Z</time>
      </trkpt>
      <trkpt lat="45.29945" lon="6.93914">
        <ele>1703.56</ele>
        <time>2018-09-09T11:13:58Z</time>
      </trkpt>
      <trkpt lat="45.29929" lon="6.9396">
        <ele>1706.28</ele>
        <time>2018-09-09T11:14:00Z</time>
      </trkpt>
      <trkpt lat="45.29921" lon="6.94006">
        <ele>1707.65</ele>
        <time>2018-09-09T11:14:02Z</time>
      </trkpt>
      <trkpt lat="45.29929" lon="6.94052">
        <ele>1708.89</ele>
        <time>2018-09-09T11:14:04Z</time>
      </trkpt>
      <trkpt lat="45.29952" lon="6.94092">
        <ele>1710.61</ele>
        <time>2018-09-09T11:14:06Z</time>
      </trkpt>
      <trkpt lat="45.29967" lon="6.94111">
        <ele>1711.59</ele>
        <time>2018-09-09T11:14:07Z</time>
      </trkpt>
      <trkpt lat="45.29981" lon="6.9413">
        <ele>1711.89</ele>
        <time>2018-09-09T11:14:08Z</time>
      </trkpt>
      <trkpt lat="45.29996" lon="6.94149">
        <ele>1712.68</ele>
        <time>2018-09-09T11:14:09Z</time>
      </trkpt>
      <trkpt lat="45.3001" lon="6.94166">
        <ele>1714.31</ele>
        <time>2018-09-09T11:14:10Z</time>
      </trkpt>
      <trkpt lat="45.30024" lon="6.94185">
        <ele>1715.5</ele>
        <time>2018-09-09T11:14:11Z</time>
      </trkpt>
      <trkpt lat="45.30037" lon="6.94206">
        <ele>1715.86</ele>
        <time>2018-09-09T11:14:12Z</time>
      </trkpt>
      <trkpt lat="45.30048" lon="6.94229">
        <ele>1716.67</ele>
        <time>2018-09-09T11:14:13Z</time>
      </trkpt>
      <trkpt lat="45.30064" lon="6.94275">
        <ele>1717.89</ele>
        <time>2018-09-09T11:14:15Z</time>
      </trkpt>
      <trkpt lat="45.3007" lon="6.943">
        <ele>1718.68</ele>
        <time>2018-09-09T11:14:16Z</time>
      </trkpt>
      <trkpt lat="45.30075" lon="6.94326">
        <ele>1720.31</ele>
        <time>2018-09-09T11:14:17Z</time>
      </trkpt>
      <trkpt lat="45.30079" lon="6.94353">
        <ele>1721.5</ele>
        <time>2018-09-09T11:14:18Z</time>
      </trkpt>
      <trkpt lat="45.3008" lon="6.94381">
        <ele>1723.26</ele>
        <time>2018-09-09T11:14:19Z</time>
      </trkpt>
      <trkpt lat="45.30081" lon="6.94409">
        <ele>1723.79</ele>
        <time>2018-09-09T11:14:20Z</time>
      </trkpt>
      <trkpt lat="45.30083" lon="6.94439">
        <ele>1724.65</ele>
        <time>2018-09-09T11:14:21Z</time>
      </trkpt>
      <trkpt lat="45.30085" lon="6.94469">
        <ele>1726.3</ele>
        <time>2018-09-09T11:14:22Z</time>
      </trkpt>
      <trkpt lat="45.30086" lon="6.94498">
        <ele>1727.5</ele>
        <time>2018-09-09T11:14:23Z</time>
      </trkpt>
      <trkpt lat="45.30088" lon="6.94528">
        <ele>1728.56</ele>
        <time>2018-09-09T11:14:24Z</time>
      </trkpt>
      <trkpt lat="45.30089" lon="6.94557">
        <ele>1729.58</ele>
        <time>2018-09-09T11:14:25Z</time>
      </trkpt>
      <trkpt lat="45.30089" lon="6.94587">
        <ele>1729.88</ele>
        <time>2018-09-09T11:14:26Z</time>
      </trkpt>
      <trkpt lat="45.30088" lon="6.94617">
        <ele>1729.98</ele>
        <time>2018-09-09T11:14:27Z</time>
      </trkpt>
      <trkpt lat="45.30085" lon="6.94646">
        <ele>1730.7</ele>
        <time>2018-09-09T11:14:28Z</time>
      </trkpt>
      <trkpt lat="45.3008" lon="6.94675">
        <ele>1732.32</ele>
        <time>2018-09-09T11:14:29Z</time>
      </trkpt>
      <trkpt lat="45.30073" lon="6.94704">
        <ele>1732.81</ele>
        <time>2018-09-09T11:14:30Z</time>
      </trkpt>
      <trkpt lat="45.30067" lon="6.9473">
        <ele>1733.65</ele>
        <time>2018-09-09T11:14:31Z</time>
      </trkpt>
      <trkpt lat="45.3006" lon="6.94757">
        <ele>1735.31</ele>
        <time>2018-09-09T11:14:32Z</time>
      </trkpt>
      <trkpt lat="45.30052" lon="6.94783">
        <ele>1737.2</ele>
        <time>2018-09-09T11:14:33Z</time>
      </trkpt>
      <trkpt lat="45.30043" lon="6.94807">
        <ele>1737.77</ele>
        <time>2018-09-09T11:14:34Z</time>
      </trkpt>
      <trkpt lat="45.30033" lon="6.94832">
        <ele>1738.64</ele>
        <time>2018-09-09T11:14:35Z</time>
      </trkpt>
      <trkpt lat="45.30024" lon="6.94857">
        <ele>1740.3</ele>
        <time>2018-09-09T11:14:36Z</time>
      </trkpt>
      <trkpt lat="45.30017" lon="6.94881">
        <ele>1741.5</ele>
        <time>2018-09-09T11:14:37Z</time>
      </trkpt>
      <trkpt lat="45.30005" lon="6.94927">
        <ele>1741.27</ele>
        <time>2018-09-09T11:14:39Z</time>
      </trkpt>
      <trkpt lat="45.30007" lon="6.94973">
        <ele>1739.22</ele>
        <time>2018-09-09T11:14:41Z</time>
      </trkpt>
      <trkpt lat="45.30017" lon="6.95024">
        <ele>1738.33</ele>
        <time>2018-09-09T11:14:43Z</time>
      </trkpt>
      <trkpt lat="45.30023" lon="6.95053">
        <ele>1736.71</ele>
        <time>2018-09-09T11:14:44Z</time>
      </trkpt>
      <trkpt lat="45.30029" lon="6.9508">
        <ele>1735.52</ele>
        <time>2018-09-09T11:14:45Z</time>
      </trkpt>
      <trkpt lat="45.30035" lon="6.95108">
        <ele>1735.17</ele>
        <time>2018-09-09T11:14:46Z</time>
      </trkpt>
      <trkpt lat="45.30042" lon="6.95136">
        <ele>1735.06</ele>
        <time>2018-09-09T11:14:47Z</time>
      </trkpt>
      <trkpt lat="45.30049" lon="6.95164">
        <ele>1735.03</ele>
        <time>2018-09-09T11:14:48Z</time>
      </trkpt>
      <trkpt lat="45.30054" lon="6.95192">
        <ele>1734.32</ele>
        <time>2018-09-09T11:14:49Z</time>
      </trkpt>
      <trkpt lat="45.30061" lon="6.95218">
        <ele>1734.11</ele>
        <time>2018-09-09T11:14:50Z</time>
      </trkpt>
      <trkpt lat="45.30066" lon="6.95244">
        <ele>1733.34</ele>
        <time>2018-09-09T11:14:51Z</time>
      </trkpt>
      <trkpt lat="45.30081" lon="6.95285">
        <ele>1730.52</ele>
        <time>2018-09-09T11:14:53Z</time>
      </trkpt>
      <trkpt lat="45.30107" lon="6.95309">
        <ele>1727.75</ele>
        <time>2018-09-09T11:14:55Z</time>
      </trkpt>
      <trkpt lat="45.30143" lon="6.9531">
        <ele>1723.86</ele>
        <time>2018-09-09T11:14:57Z</time>
      </trkpt>
      <trkpt lat="45.30161" lon="6.95304">
        <ele>1722.57</ele>
        <time>2018-09-09T11:14:58Z</time>
      </trkpt>
      <trkpt lat="45.30181" lon="6.95298">
        <ele>1720.78</ele>
        <time>2018-09-09T11:14:59Z</time>
      </trkpt>
      <trkpt lat="45.30199" lon="6.95295">
        <ele>1718.84</ele>
        <time>2018-09-09T11:15:00Z</time>
      </trkpt>
      <trkpt lat="45.30231" lon="6.95303">
        <ele>1716.48</ele>
        <time>2018-09-09T11:15:02Z</time>
      </trkpt>
      <trkpt lat="45.30259" lon="6.95329">
        <ele>1715.36</ele>
        <time>2018-09-09T11:15:04Z</time>
      </trkpt>
      <trkpt lat="45.30272" lon="6.95348">
        <ele>1715.12</ele>
        <time>2018-09-09T11:15:05Z</time>
      </trkpt>
      <trkpt lat="45.30276" lon="6.95409">
        <ele>1712.92</ele>
        <time>2018-09-09T11:15:07Z</time>
      </trkpt>
      <trkpt lat="45.3028" lon="6.95438">
        <ele>1711.59</ele>
        <time>2018-09-09T11:15:08Z</time>
      </trkpt>
      <trkpt lat="45.30285" lon="6.95467">
        <ele>1711.19</ele>
        <time>2018-09-09T11:15:09Z</time>
      </trkpt>
      <trkpt lat="45.30289" lon="6.95494">
        <ele>1709.67</ele>
        <time>2018-09-09T11:15:10Z</time>
      </trkpt>
      <trkpt lat="45.30296" lon="6.95518">
        <ele>1709.21</ele>
        <time>2018-09-09T11:15:11Z</time>
      </trkpt>
      <trkpt lat="45.30306" lon="6.95542">
        <ele>1707.67</ele>
        <time>2018-09-09T11:15:12Z</time>
      </trkpt>
      <trkpt lat="45.30317" lon="6.95564">
        <ele>1706.51</ele>
        <time>2018-09-09T11:15:13Z</time>
      </trkpt>
      <trkpt lat="45.3033" lon="6.95584">
        <ele>1704.76</ele>
        <time>2018-09-09T11:15:14Z</time>
      </trkpt>
      <trkpt lat="45.30345" lon="6.95602">
        <ele>1703.54</ele>
        <time>2018-09-09T11:15:15Z</time>
      </trkpt>
      <trkpt lat="45.30363" lon="6.95616">
        <ele>1703.17</ele>
        <time>2018-09-09T11:15:16Z</time>
      </trkpt>
      <trkpt lat="45.30382" lon="6.95627">
        <ele>1702.36</ele>
        <time>2018-09-09T11:15:17Z</time>
      </trkpt>
      <trkpt lat="45.30402" lon="6.95637">
        <ele>1700.72</ele>
        <time>2018-09-09T11:15:18Z</time>
      </trkpt>
      <trkpt lat="45.30422" lon="6.95645">
        <ele>1698.83</ele>
        <time>2018-09-09T11:15:19Z</time>
      </trkpt>
      <trkpt lat="45.30441" lon="6.95654">
        <ele>1697.56</ele>
        <time>2018-09-09T11:15:20Z</time>
      </trkpt>
      <trkpt lat="45.3046" lon="6.95663">
        <ele>1695.78</ele>
        <time>2018-09-09T11:15:21Z</time>
      </trkpt>
      <trkpt lat="45.30479" lon="6.95673">
        <ele>1693.84</ele>
        <time>2018-09-09T11:15:22Z</time>
      </trkpt>
      <trkpt lat="45.30497" lon="6.95683">
        <ele>1692.56</ele>
        <time>2018-09-09T11:15:23Z</time>
      </trkpt>
      <trkpt lat="45.30515" lon="6.95696">
        <ele>1691.48</ele>
        <time>2018-09-09T11:15:24Z</time>
      </trkpt>
      <trkpt lat="45.30531" lon="6.95711">
        <ele>1689.75</ele>
        <time>2018-09-09T11:15:25Z</time>
      </trkpt>
      <trkpt lat="45.30548" lon="6.95729">
        <ele>1687.84</ele>
        <time>2018-09-09T11:15:26Z</time>
      </trkpt>
      <trkpt lat="45.30563" lon="6.9575">
        <ele>1686.56</ele>
        <time>2018-09-09T11:15:27Z</time>
      </trkpt>
      <trkpt lat="45.30577" lon="6.95773">
        <ele>1685.48</ele>
        <time>2018-09-09T11:15:28Z</time>
      </trkpt>
      <trkpt lat="45.3059" lon="6.95798">
        <ele>1684.45</ele>
        <time>2018-09-09T11:15:29Z</time>
      </trkpt>
      <trkpt lat="45.306" lon="6.95825">
        <ele>1684.15</ele>
        <time>2018-09-09T11:15:30Z</time>
      </trkpt>
      <trkpt lat="45.30609" lon="6.95853">
        <ele>1682.65</ele>
        <time>2018-09-09T11:15:31Z</time>
      </trkpt>
      <trkpt lat="45.30617" lon="6.95882">
        <ele>1682.21</ele>
        <time>2018-09-09T11:15:32Z</time>
      </trkpt>
      <trkpt lat="45.30625" lon="6.95913">
        <ele>1681.37</ele>
        <time>2018-09-09T11:15:33Z</time>
      </trkpt>
      <trkpt lat="45.30631" lon="6.95943">
        <ele>1680.42</ele>
        <time>2018-09-09T11:15:34Z</time>
      </trkpt>
      <trkpt lat="45.30636" lon="6.95973">
        <ele>1680.14</ele>
        <time>2018-09-09T11:15:35Z</time>
      </trkpt>
      <trkpt lat="45.30641" lon="6.96001">
        <ele>1680.05</ele>
        <time>2018-09-09T11:15:36Z</time>
      </trkpt>
      <trkpt lat="45.30645" lon="6.96028">
        <ele>1680.03</ele>
        <time>2018-09-09T11:15:37Z</time>
      </trkpt>
      <trkpt lat="45.30647" lon="6.96056">
        <ele>1679.32</ele>
        <time>2018-09-09T11:15:38Z</time>
      </trkpt>
      <trkpt lat="45.30647" lon="6.96084">
        <ele>1679.11</ele>
        <time>2018-09-09T11:15:39Z</time>
      </trkpt>
      <trkpt lat="45.30645" lon="6.96113">
        <ele>1678.34</ele>
        <time>2018-09-09T11:15:40Z</time>
      </trkpt>
      <trkpt lat="45.30642" lon="6.96143">
        <ele>1678.11</ele>
        <time>2018-09-09T11:15:41Z</time>
      </trkpt>
      <trkpt lat="45.3064" lon="6.96172">
        <ele>1677.34</ele>
        <time>2018-09-09T11:15:42Z</time>
      </trkpt>
      <trkpt lat="45.30638" lon="6.96202">
        <ele>1676.41</ele>
        <time>2018-09-09T11:15:43Z</time>
      </trkpt>
      <trkpt lat="45.30637" lon="6.96231">
        <ele>1676.13</ele>
        <time>2018-09-09T11:15:44Z</time>
      </trkpt>
      <trkpt lat="45.30635" lon="6.96261">
        <ele>1676.05</ele>
        <time>2018-09-09T11:15:45Z</time>
      </trkpt>
      <trkpt lat="45.30632" lon="6.96291">
        <ele>1674.63</ele>
        <time>2018-09-09T11:15:46Z</time>
      </trkpt>
      <trkpt lat="45.3063" lon="6.9632">
        <ele>1674.2</ele>
        <time>2018-09-09T11:15:47Z</time>
      </trkpt>
      <trkpt lat="45.30629" lon="6.9635">
        <ele>1674.07</ele>
        <time>2018-09-09T11:15:48Z</time>
      </trkpt>
      <trkpt lat="45.30629" lon="6.96378">
        <ele>1673.33</ele>
        <time>2018-09-09T11:15:49Z</time>
      </trkpt>
      <trkpt lat="45.3063" lon="6.96408">
        <ele>1673.81</ele>
        <time>2018-09-09T11:15:50Z</time>
      </trkpt>
      <trkpt lat="45.30631" lon="6.96437">
        <ele>1673.25</ele>
        <time>2018-09-09T11:15:51Z</time>
      </trkpt>
      <trkpt lat="45.30632" lon="6.96467">
        <ele>1673.79</ele>
        <time>2018-09-09T11:15:52Z</time>
      </trkpt>
      <trkpt lat="45.30632" lon="6.96497">
        <ele>1673.95</ele>
        <time>2018-09-09T11:15:53Z</time>
      </trkpt>
      <trkpt lat="45.30634" lon="6.96526">
        <ele>1673.99</ele>
        <time>2018-09-09T11:15:54Z</time>
      </trkpt>
      <trkpt lat="45.30635" lon="6.96555">
        <ele>1674.01</ele>
        <time>2018-09-09T11:15:55Z</time>
      </trkpt>
      <trkpt lat="45.30636" lon="6.96584">
        <ele>1674.01</ele>
        <time>2018-09-09T11:15:56Z</time>
      </trkpt>
      <trkpt lat="45.30639" lon="6.96614">
        <ele>1674.01</ele>
        <time>2018-09-09T11:15:57Z</time>
      </trkpt>
      <trkpt lat="45.30641" lon="6.96642">
        <ele>1674.01</ele>
        <time>2018-09-09T11:15:58Z</time>
      </trkpt>
      <trkpt lat="45.30644" lon="6.96671">
        <ele>1674.71</ele>
        <time>2018-09-09T11:15:59Z</time>
      </trkpt>
      <trkpt lat="45.30649" lon="6.96699">
        <ele>1674.22</ele>
        <time>2018-09-09T11:16:00Z</time>
      </trkpt>
      <trkpt lat="45.30654" lon="6.96728">
        <ele>1674.78</ele>
        <time>2018-09-09T11:16:01Z</time>
      </trkpt>
      <trkpt lat="45.30661" lon="6.96756">
        <ele>1674.94</ele>
        <time>2018-09-09T11:16:02Z</time>
      </trkpt>
      <trkpt lat="45.30669" lon="6.96783">
        <ele>1674.99</ele>
        <time>2018-09-09T11:16:03Z</time>
      </trkpt>
      <trkpt lat="45.30678" lon="6.96809">
        <ele>1675.01</ele>
        <time>2018-09-09T11:16:04Z</time>
      </trkpt>
      <trkpt lat="45.30688" lon="6.96836">
        <ele>1675.01</ele>
        <time>2018-09-09T11:16:05Z</time>
      </trkpt>
      <trkpt lat="45.30699" lon="6.96863">
        <ele>1675.71</ele>
        <time>2018-09-09T11:16:06Z</time>
      </trkpt>
      <trkpt lat="45.30711" lon="6.96889">
        <ele>1675.92</ele>
        <time>2018-09-09T11:16:07Z</time>
      </trkpt>
      <trkpt lat="45.30724" lon="6.96914">
        <ele>1675.99</ele>
        <time>2018-09-09T11:16:08Z</time>
      </trkpt>
      <trkpt lat="45.30738" lon="6.9694">
        <ele>1676.01</ele>
        <time>2018-09-09T11:16:09Z</time>
      </trkpt>
      <trkpt lat="45.30752" lon="6.96964">
        <ele>1676.01</ele>
        <time>2018-09-09T11:16:10Z</time>
      </trkpt>
      <trkpt lat="45.30766" lon="6.96988">
        <ele>1676.01</ele>
        <time>2018-09-09T11:16:11Z</time>
      </trkpt>
      <trkpt lat="45.3078" lon="6.97012">
        <ele>1676.01</ele>
        <time>2018-09-09T11:16:12Z</time>
      </trkpt>
      <trkpt lat="45.30794" lon="6.97035">
        <ele>1676.01</ele>
        <time>2018-09-09T11:16:13Z</time>
      </trkpt>
      <trkpt lat="45.30807" lon="6.97058">
        <ele>1676.71</ele>
        <time>2018-09-09T11:16:14Z</time>
      </trkpt>
      <trkpt lat="45.30821" lon="6.97081">
        <ele>1677.62</ele>
        <time>2018-09-09T11:16:15Z</time>
      </trkpt>
      <trkpt lat="45.30833" lon="6.97104">
        <ele>1678.6</ele>
        <time>2018-09-09T11:16:16Z</time>
      </trkpt>
      <trkpt lat="45.30846" lon="6.97126">
        <ele>1679.59</ele>
        <time>2018-09-09T11:16:17Z</time>
      </trkpt>
      <trkpt lat="45.30859" lon="6.9715">
        <ele>1679.89</ele>
        <time>2018-09-09T11:16:18Z</time>
      </trkpt>
      <trkpt lat="45.30872" lon="6.97173">
        <ele>1679.98</ele>
        <time>2018-09-09T11:16:19Z</time>
      </trkpt>
      <trkpt lat="45.30881" lon="6.97198">
        <ele>1680.7</ele>
        <time>2018-09-09T11:16:20Z</time>
      </trkpt>
      <trkpt lat="45.30888" lon="6.97224">
        <ele>1680.92</ele>
        <time>2018-09-09T11:16:21Z</time>
      </trkpt>
      <trkpt lat="45.30894" lon="6.9725">
        <ele>1681.69</ele>
        <time>2018-09-09T11:16:22Z</time>
      </trkpt>
      <trkpt lat="45.30897" lon="6.97275">
        <ele>1681.92</ele>
        <time>2018-09-09T11:16:23Z</time>
      </trkpt>
      <trkpt lat="45.30899" lon="6.97301">
        <ele>1681.99</ele>
        <time>2018-09-09T11:16:24Z</time>
      </trkpt>
      <trkpt lat="45.30898" lon="6.97349">
        <ele>1682.92</ele>
        <time>2018-09-09T11:16:26Z</time>
      </trkpt>
      <trkpt lat="45.30889" lon="6.97398">
        <ele>1682.31</ele>
        <time>2018-09-09T11:16:28Z</time>
      </trkpt>
      <trkpt lat="45.30877" lon="6.97444">
        <ele>1682.95</ele>
        <time>2018-09-09T11:16:30Z</time>
      </trkpt>
      <trkpt lat="45.30866" lon="6.97488">
        <ele>1683.01</ele>
        <time>2018-09-09T11:16:32Z</time>
      </trkpt>
      <trkpt lat="45.30852" lon="6.97531">
        <ele>1683.71</ele>
        <time>2018-09-09T11:16:34Z</time>
      </trkpt>
      <trkpt lat="45.30841" lon="6.9757">
        <ele>1684.69</ele>
        <time>2018-09-09T11:16:36Z</time>
      </trkpt>
      <trkpt lat="45.30835" lon="6.97608">
        <ele>1686.6</ele>
        <time>2018-09-09T11:16:38Z</time>
      </trkpt>
      <trkpt lat="45.30836" lon="6.97633">
        <ele>1686.98</ele>
        <time>2018-09-09T11:16:40Z</time>
      </trkpt>
      <trkpt lat="45.30853" lon="6.97646">
        <ele>1686.31</ele>
        <time>2018-09-09T11:16:42Z</time>
      </trkpt>
      <trkpt lat="45.30868" lon="6.97668">
        <ele>1686.04</ele>
        <time>2018-09-09T11:16:44Z</time>
      </trkpt>
      <trkpt lat="45.30882" lon="6.97695">
        <ele>1686.02</ele>
        <time>2018-09-09T11:16:46Z</time>
      </trkpt>
      <trkpt lat="45.30899" lon="6.97723">
        <ele>1686.93</ele>
        <time>2018-09-09T11:16:48Z</time>
      </trkpt>
      <trkpt lat="45.30919" lon="6.9776">
        <ele>1687.92</ele>
        <time>2018-09-09T11:16:50Z</time>
      </trkpt>
      <trkpt lat="45.30933" lon="6.97782">
        <ele>1687.99</ele>
        <time>2018-09-09T11:16:51Z</time>
      </trkpt>
      <trkpt lat="45.30946" lon="6.97803">
        <ele>1688.01</ele>
        <time>2018-09-09T11:16:52Z</time>
      </trkpt>
      <trkpt lat="45.3096" lon="6.97826">
        <ele>1687.31</ele>
        <time>2018-09-09T11:16:53Z</time>
      </trkpt>
      <trkpt lat="45.30974" lon="6.97849">
        <ele>1687.8</ele>
        <time>2018-09-09T11:16:54Z</time>
      </trkpt>
      <trkpt lat="45.30988" lon="6.97873">
        <ele>1688.65</ele>
        <time>2018-09-09T11:16:55Z</time>
      </trkpt>
      <trkpt lat="45.31003" lon="6.97897">
        <ele>1689.61</ele>
        <time>2018-09-09T11:16:56Z</time>
      </trkpt>
      <trkpt lat="45.31019" lon="6.97921">
        <ele>1689.89</ele>
        <time>2018-09-09T11:16:57Z</time>
      </trkpt>
      <trkpt lat="45.31034" lon="6.97946">
        <ele>1690.68</ele>
        <time>2018-09-09T11:16:58Z</time>
      </trkpt>
      <trkpt lat="45.31049" lon="6.9797">
        <ele>1691.61</ele>
        <time>2018-09-09T11:16:59Z</time>
      </trkpt>
      <trkpt lat="45.31064" lon="6.97993">
        <ele>1691.89</ele>
        <time>2018-09-09T11:17:00Z</time>
      </trkpt>
      <trkpt lat="45.31078" lon="6.98016">
        <ele>1692.68</ele>
        <time>2018-09-09T11:17:01Z</time>
      </trkpt>
      <trkpt lat="45.31094" lon="6.98038">
        <ele>1692.91</ele>
        <time>2018-09-09T11:17:02Z</time>
      </trkpt>
      <trkpt lat="45.31111" lon="6.98059">
        <ele>1693.68</ele>
        <time>2018-09-09T11:17:03Z</time>
      </trkpt>
      <trkpt lat="45.3113" lon="6.98079">
        <ele>1694.62</ele>
        <time>2018-09-09T11:17:04Z</time>
      </trkpt>
      <trkpt lat="45.31149" lon="6.98097">
        <ele>1694.9</ele>
        <time>2018-09-09T11:17:05Z</time>
      </trkpt>
      <trkpt lat="45.31169" lon="6.98115">
        <ele>1694.98</ele>
        <time>2018-09-09T11:17:06Z</time>
      </trkpt>
      <trkpt lat="45.31188" lon="6.98133">
        <ele>1695</ele>
        <time>2018-09-09T11:17:07Z</time>
      </trkpt>
      <trkpt lat="45.31211" lon="6.9815">
        <ele>1694.31</ele>
        <time>2018-09-09T11:17:08Z</time>
      </trkpt>
      <trkpt lat="45.31236" lon="6.98166">
        <ele>1694.8</ele>
        <time>2018-09-09T11:17:09Z</time>
      </trkpt>
      <trkpt lat="45.31263" lon="6.98181">
        <ele>1695.65</ele>
        <time>2018-09-09T11:17:10Z</time>
      </trkpt>
      <trkpt lat="45.31291" lon="6.98196">
        <ele>1695.91</ele>
        <time>2018-09-09T11:17:11Z</time>
      </trkpt>
      <trkpt lat="45.31319" lon="6.98211">
        <ele>1696.68</ele>
        <time>2018-09-09T11:17:12Z</time>
      </trkpt>
      <trkpt lat="45.31347" lon="6.98226">
        <ele>1696.92</ele>
        <time>2018-09-09T11:17:13Z</time>
      </trkpt>
      <trkpt lat="45.31374" lon="6.9824">
        <ele>1697.69</ele>
        <time>2018-09-09T11:17:14Z</time>
      </trkpt>
      <trkpt lat="45.31399" lon="6.98253">
        <ele>1698.62</ele>
        <time>2018-09-09T11:17:15Z</time>
      </trkpt>
      <trkpt lat="45.31423" lon="6.98266">
        <ele>1698.9</ele>
        <time>2018-09-09T11:17:16Z</time>
      </trkpt>
      <trkpt lat="45.31446" lon="6.98279">
        <ele>1699.68</ele>
        <time>2018-09-09T11:17:17Z</time>
      </trkpt>
      <trkpt lat="45.31468" lon="6.98292">
        <ele>1700.61</ele>
        <time>2018-09-09T11:17:18Z</time>
      </trkpt>
      <trkpt lat="45.31487" lon="6.98307">
        <ele>1700.89</ele>
        <time>2018-09-09T11:17:19Z</time>
      </trkpt>
      <trkpt lat="45.31506" lon="6.98323">
        <ele>1700.98</ele>
        <time>2018-09-09T11:17:20Z</time>
      </trkpt>
      <trkpt lat="45.31525" lon="6.98338">
        <ele>1701</ele>
        <time>2018-09-09T11:17:21Z</time>
      </trkpt>
      <trkpt lat="45.31542" lon="6.98355">
        <ele>1701.01</ele>
        <time>2018-09-09T11:17:22Z</time>
      </trkpt>
      <trkpt lat="45.31559" lon="6.98369">
        <ele>1701.01</ele>
        <time>2018-09-09T11:17:23Z</time>
      </trkpt>
      <trkpt lat="45.31576" lon="6.98384">
        <ele>1701.71</ele>
        <time>2018-09-09T11:17:24Z</time>
      </trkpt>
      <trkpt lat="45.31592" lon="6.98399">
        <ele>1702.62</ele>
        <time>2018-09-09T11:17:25Z</time>
      </trkpt>
      <trkpt lat="45.31609" lon="6.98414">
        <ele>1702.9</ele>
        <time>2018-09-09T11:17:26Z</time>
      </trkpt>
      <trkpt lat="45.31626" lon="6.98429">
        <ele>1702.98</ele>
        <time>2018-09-09T11:17:27Z</time>
      </trkpt>
      <trkpt lat="45.31643" lon="6.98445">
        <ele>1703</ele>
        <time>2018-09-09T11:17:28Z</time>
      </trkpt>
      <trkpt lat="45.31661" lon="6.98461">
        <ele>1703.01</ele>
        <time>2018-09-09T11:17:29Z</time>
      </trkpt>
      <trkpt lat="45.31678" lon="6.98478">
        <ele>1703.01</ele>
        <time>2018-09-09T11:17:30Z</time>
      </trkpt>
      <trkpt lat="45.31695" lon="6.98496">
        <ele>1703.01</ele>
        <time>2018-09-09T11:17:31Z</time>
      </trkpt>
      <trkpt lat="45.31712" lon="6.98515">
        <ele>1702.31</ele>
        <time>2018-09-09T11:17:32Z</time>
      </trkpt>
      <trkpt lat="45.31728" lon="6.98535">
        <ele>1702.1</ele>
        <time>2018-09-09T11:17:33Z</time>
      </trkpt>
      <trkpt lat="45.31744" lon="6.98557">
        <ele>1702.04</ele>
        <time>2018-09-09T11:17:34Z</time>
      </trkpt>
      <trkpt lat="45.31759" lon="6.9858">
        <ele>1701.32</ele>
        <time>2018-09-09T11:17:35Z</time>
      </trkpt>
      <trkpt lat="45.31771" lon="6.98605">
        <ele>1701.11</ele>
        <time>2018-09-09T11:17:36Z</time>
      </trkpt>
      <trkpt lat="45.31784" lon="6.9863">
        <ele>1700.34</ele>
        <time>2018-09-09T11:17:37Z</time>
      </trkpt>
      <trkpt lat="45.31795" lon="6.98654">
        <ele>1700.81</ele>
        <time>2018-09-09T11:17:38Z</time>
      </trkpt>
      <trkpt lat="45.31806" lon="6.98678">
        <ele>1700.95</ele>
        <time>2018-09-09T11:17:39Z</time>
      </trkpt>
      <trkpt lat="45.31816" lon="6.98702">
        <ele>1701</ele>
        <time>2018-09-09T11:17:40Z</time>
      </trkpt>
      <trkpt lat="45.31825" lon="6.98728">
        <ele>1701.71</ele>
        <time>2018-09-09T11:17:41Z</time>
      </trkpt>
      <trkpt lat="45.31833" lon="6.98754">
        <ele>1701.92</ele>
        <time>2018-09-09T11:17:42Z</time>
      </trkpt>
      <trkpt lat="45.31841" lon="6.98781">
        <ele>1701.99</ele>
        <time>2018-09-09T11:17:43Z</time>
      </trkpt>
      <trkpt lat="45.31849" lon="6.98807">
        <ele>1702.01</ele>
        <time>2018-09-09T11:17:44Z</time>
      </trkpt>
      <trkpt lat="45.31856" lon="6.98832">
        <ele>1702.01</ele>
        <time>2018-09-09T11:17:45Z</time>
      </trkpt>
      <trkpt lat="45.31864" lon="6.98856">
        <ele>1702.01</ele>
        <time>2018-09-09T11:17:46Z</time>
      </trkpt>
      <trkpt lat="45.31871" lon="6.9888">
        <ele>1702.01</ele>
        <time>2018-09-09T11:17:47Z</time>
      </trkpt>
      <trkpt lat="45.31885" lon="6.98924">
        <ele>1702.02</ele>
        <time>2018-09-09T11:17:49Z</time>
      </trkpt>
      <trkpt lat="45.31896" lon="6.98962">
        <ele>1701.31</ele>
        <time>2018-09-09T11:17:51Z</time>
      </trkpt>
      <trkpt lat="45.31907" lon="6.98996">
        <ele>1700.13</ele>
        <time>2018-09-09T11:17:53Z</time>
      </trkpt>
      <trkpt lat="45.31917" lon="6.99027">
        <ele>1700.94</ele>
        <time>2018-09-09T11:17:55Z</time>
      </trkpt>
      <trkpt lat="45.31924" lon="6.99056">
        <ele>1701.01</ele>
        <time>2018-09-09T11:17:57Z</time>
      </trkpt>
      <trkpt lat="45.31929" lon="6.99083">
        <ele>1700.1</ele>
        <time>2018-09-09T11:17:59Z</time>
      </trkpt>
      <trkpt lat="45.31937" lon="6.99108">
        <ele>1700.02</ele>
        <time>2018-09-09T11:18:01Z</time>
      </trkpt>
      <trkpt lat="45.31946" lon="6.99136">
        <ele>1700.72</ele>
        <time>2018-09-09T11:18:03Z</time>
      </trkpt>
      <trkpt lat="45.31954" lon="6.99163">
        <ele>1700.99</ele>
        <time>2018-09-09T11:18:05Z</time>
      </trkpt>
      <trkpt lat="45.31961" lon="6.99192">
        <ele>1701.01</ele>
        <time>2018-09-09T11:18:07Z</time>
      </trkpt>
      <trkpt lat="45.31966" lon="6.9922">
        <ele>1701.92</ele>
        <time>2018-09-09T11:18:09Z</time>
      </trkpt>
      <trkpt lat="45.31976" lon="6.99246">
        <ele>1702.01</ele>
        <time>2018-09-09T11:18:11Z</time>
      </trkpt>
      <trkpt lat="45.31986" lon="6.99274">
        <ele>1703.62</ele>
        <time>2018-09-09T11:18:13Z</time>
      </trkpt>
      <trkpt lat="45.31994" lon="6.99302">
        <ele>1703.98</ele>
        <time>2018-09-09T11:18:15Z</time>
      </trkpt>
      <trkpt lat="45.32003" lon="6.99329">
        <ele>1704.71</ele>
        <time>2018-09-09T11:18:17Z</time>
      </trkpt>
      <trkpt lat="45.32014" lon="6.99354">
        <ele>1705.69</ele>
        <time>2018-09-09T11:18:19Z</time>
      </trkpt>
      <trkpt lat="45.32022" lon="6.9938">
        <ele>1707.6</ele>
        <time>2018-09-09T11:18:21Z</time>
      </trkpt>
      <trkpt lat="45.32029" lon="6.99407">
        <ele>1708.89</ele>
        <time>2018-09-09T11:18:23Z</time>
      </trkpt>
      <trkpt lat="45.32037" lon="6.99433">
        <ele>1709</ele>
        <time>2018-09-09T11:18:25Z</time>
      </trkpt>
      <trkpt lat="45.3205" lon="6.99456">
        <ele>1709.01</ele>
        <time>2018-09-09T11:18:27Z</time>
      </trkpt>
      <trkpt lat="45.32066" lon="6.99477">
        <ele>1710.62</ele>
        <time>2018-09-09T11:18:29Z</time>
      </trkpt>
      <trkpt lat="45.32081" lon="6.99496">
        <ele>1710.28</ele>
        <time>2018-09-09T11:18:31Z</time>
      </trkpt>
      <trkpt lat="45.32096" lon="6.99512">
        <ele>1710.04</ele>
        <time>2018-09-09T11:18:33Z</time>
      </trkpt>
      <trkpt lat="45.32113" lon="6.9953">
        <ele>1712.89</ele>
        <time>2018-09-09T11:18:37Z</time>
      </trkpt>
      <trkpt lat="45.32126" lon="6.99548">
        <ele>1711.32</ele>
        <time>2018-09-09T11:18:41Z</time>
      </trkpt>
      <trkpt lat="45.3211" lon="6.99527">
        <ele>1712.5</ele>
        <time>2018-09-09T11:19:06Z</time>
      </trkpt>
      <trkpt lat="45.32091" lon="6.99502">
        <ele>1712.3</ele>
        <time>2018-09-09T11:19:09Z</time>
      </trkpt>
      <trkpt lat="45.32072" lon="6.99478">
        <ele>1711.11</ele>
        <time>2018-09-09T11:19:12Z</time>
      </trkpt>
      <trkpt lat="45.32055" lon="6.99456">
        <ele>1711.02</ele>
        <time>2018-09-09T11:19:15Z</time>
      </trkpt>
      <trkpt lat="45.32041" lon="6.99433">
        <ele>1711.8</ele>
        <time>2018-09-09T11:19:19Z</time>
      </trkpt>
      <trkpt lat="45.32032" lon="6.9941">
        <ele>1711.78</ele>
        <time>2018-09-09T11:19:26Z</time>
      </trkpt>
      <trkpt lat="45.32041" lon="6.99441">
        <ele>1715</ele>
        <time>2018-09-09T11:52:50Z</time>
      </trkpt>
      <trkpt lat="45.32056" lon="6.99462">
        <ele>1715.92</ele>
        <time>2018-09-09T11:52:53Z</time>
      </trkpt>
      <trkpt lat="45.32073" lon="6.99483">
        <ele>1715.1</ele>
        <time>2018-09-09T11:52:56Z</time>
      </trkpt>
      <trkpt lat="45.3209" lon="6.99504">
        <ele>1714.04</ele>
        <time>2018-09-09T11:52:59Z</time>
      </trkpt>
      <trkpt lat="45.32108" lon="6.99527">
        <ele>1713.32</ele>
        <time>2018-09-09T11:53:02Z</time>
      </trkpt>
      <trkpt lat="45.32127" lon="6.99548">
        <ele>1713.02</ele>
        <time>2018-09-09T11:53:05Z</time>
      </trkpt>
      <trkpt lat="45.32144" lon="6.99572">
        <ele>1713.02</ele>
        <time>2018-09-09T11:53:08Z</time>
      </trkpt>
      <trkpt lat="45.32162" lon="6.99597">
        <ele>1713.02</ele>
        <time>2018-09-09T11:53:11Z</time>
      </trkpt>
      <trkpt lat="45.32178" lon="6.99619">
        <ele>1712.95</ele>
        <time>2018-09-09T11:53:14Z</time>
      </trkpt>
      <trkpt lat="45.32192" lon="6.99644">
        <ele>1714.62</ele>
        <time>2018-09-09T11:53:17Z</time>
      </trkpt>
      <trkpt lat="45.32205" lon="6.99676">
        <ele>1715.91</ele>
        <time>2018-09-09T11:53:20Z</time>
      </trkpt>
      <trkpt lat="45.32216" lon="6.99712">
        <ele>1717.9</ele>
        <time>2018-09-09T11:53:23Z</time>
      </trkpt>
      <trkpt lat="45.32223" lon="6.99738">
        <ele>1718.7</ele>
        <time>2018-09-09T11:53:25Z</time>
      </trkpt>
      <trkpt lat="45.32232" lon="6.99765">
        <ele>1718.99</ele>
        <time>2018-09-09T11:53:27Z</time>
      </trkpt>
      <trkpt lat="45.32242" lon="6.99793">
        <ele>1719.71</ele>
        <time>2018-09-09T11:53:29Z</time>
      </trkpt>
      <trkpt lat="45.32252" lon="6.99821">
        <ele>1719.99</ele>
        <time>2018-09-09T11:53:31Z</time>
      </trkpt>
      <trkpt lat="45.32265" lon="6.9985">
        <ele>1720.71</ele>
        <time>2018-09-09T11:53:33Z</time>
      </trkpt>
      <trkpt lat="45.32278" lon="6.99879">
        <ele>1720.99</ele>
        <time>2018-09-09T11:53:35Z</time>
      </trkpt>
      <trkpt lat="45.32291" lon="6.99907">
        <ele>1721.92</ele>
        <time>2018-09-09T11:53:37Z</time>
      </trkpt>
      <trkpt lat="45.32302" lon="6.99934">
        <ele>1722.71</ele>
        <time>2018-09-09T11:53:39Z</time>
      </trkpt>
      <trkpt lat="45.32314" lon="6.99961">
        <ele>1723.69</ele>
        <time>2018-09-09T11:53:41Z</time>
      </trkpt>
      <trkpt lat="45.32325" lon="6.99987">
        <ele>1725.39</ele>
        <time>2018-09-09T11:53:43Z</time>
      </trkpt>
      <trkpt lat="45.32335" lon="7.0001">
        <ele>1726.66</ele>
        <time>2018-09-09T11:53:45Z</time>
      </trkpt>
      <trkpt lat="45.32342" lon="7.00035">
        <ele>1728.59</ele>
        <time>2018-09-09T11:53:47Z</time>
      </trkpt>
      <trkpt lat="45.32344" lon="7.00062">
        <ele>1729.68</ele>
        <time>2018-09-09T11:53:49Z</time>
      </trkpt>
      <trkpt lat="45.32345" lon="7.00091">
        <ele>1731.59</ele>
        <time>2018-09-09T11:53:51Z</time>
      </trkpt>
      <trkpt lat="45.32346" lon="7.0012">
        <ele>1733.59</ele>
        <time>2018-09-09T11:53:53Z</time>
      </trkpt>
      <trkpt lat="45.32346" lon="7.00148">
        <ele>1734.91</ele>
        <time>2018-09-09T11:53:56Z</time>
      </trkpt>
      <trkpt lat="45.32355" lon="7.00173">
        <ele>1735.04</ele>
        <time>2018-09-09T11:54:01Z</time>
      </trkpt>
      <trkpt lat="45.32374" lon="7.00192">
        <ele>1734.74</ele>
        <time>2018-09-09T11:54:04Z</time>
      </trkpt>
      <trkpt lat="45.32392" lon="7.00207">
        <ele>1734.99</ele>
        <time>2018-09-09T11:54:06Z</time>
      </trkpt>
      <trkpt lat="45.32414" lon="7.00227">
        <ele>1734.31</ele>
        <time>2018-09-09T11:54:08Z</time>
      </trkpt>
      <trkpt lat="45.3244" lon="7.00251">
        <ele>1734.04</ele>
        <time>2018-09-09T11:54:10Z</time>
      </trkpt>
      <trkpt lat="45.32455" lon="7.00265">
        <ele>1734.72</ele>
        <time>2018-09-09T11:54:11Z</time>
      </trkpt>
      <trkpt lat="45.32471" lon="7.00283">
        <ele>1734.93</ele>
        <time>2018-09-09T11:54:12Z</time>
      </trkpt>
      <trkpt lat="45.3249" lon="7.00301">
        <ele>1735.69</ele>
        <time>2018-09-09T11:54:13Z</time>
      </trkpt>
      <trkpt lat="45.32509" lon="7.00321">
        <ele>1735.92</ele>
        <time>2018-09-09T11:54:14Z</time>
      </trkpt>
      <trkpt lat="45.32528" lon="7.00345">
        <ele>1735.99</ele>
        <time>2018-09-09T11:54:15Z</time>
      </trkpt>
      <trkpt lat="45.32547" lon="7.00368">
        <ele>1736.01</ele>
        <time>2018-09-09T11:54:16Z</time>
      </trkpt>
      <trkpt lat="45.32564" lon="7.00392">
        <ele>1736.71</ele>
        <time>2018-09-09T11:54:17Z</time>
      </trkpt>
      <trkpt lat="45.3258" lon="7.00419">
        <ele>1736.92</ele>
        <time>2018-09-09T11:54:18Z</time>
      </trkpt>
      <trkpt lat="45.32596" lon="7.00445">
        <ele>1736.99</ele>
        <time>2018-09-09T11:54:19Z</time>
      </trkpt>
      <trkpt lat="45.32611" lon="7.00471">
        <ele>1737.01</ele>
        <time>2018-09-09T11:54:20Z</time>
      </trkpt>
      <trkpt lat="45.32623" lon="7.00498">
        <ele>1737.01</ele>
        <time>2018-09-09T11:54:21Z</time>
      </trkpt>
      <trkpt lat="45.32635" lon="7.00525">
        <ele>1737.01</ele>
        <time>2018-09-09T11:54:22Z</time>
      </trkpt>
      <trkpt lat="45.32648" lon="7.00551">
        <ele>1737.71</ele>
        <time>2018-09-09T11:54:23Z</time>
      </trkpt>
      <trkpt lat="45.3266" lon="7.00577">
        <ele>1737.92</ele>
        <time>2018-09-09T11:54:24Z</time>
      </trkpt>
      <trkpt lat="45.32673" lon="7.00603">
        <ele>1737.29</ele>
        <time>2018-09-09T11:54:25Z</time>
      </trkpt>
      <trkpt lat="45.32685" lon="7.00628">
        <ele>1736.4</ele>
        <time>2018-09-09T11:54:26Z</time>
      </trkpt>
      <trkpt lat="45.32698" lon="7.00653">
        <ele>1735.43</ele>
        <time>2018-09-09T11:54:27Z</time>
      </trkpt>
      <trkpt lat="45.3271" lon="7.00677">
        <ele>1735.14</ele>
        <time>2018-09-09T11:54:28Z</time>
      </trkpt>
      <trkpt lat="45.32722" lon="7.00702">
        <ele>1735.05</ele>
        <time>2018-09-09T11:54:29Z</time>
      </trkpt>
      <trkpt lat="45.32735" lon="7.00726">
        <ele>1735.03</ele>
        <time>2018-09-09T11:54:30Z</time>
      </trkpt>
      <trkpt lat="45.32747" lon="7.0075">
        <ele>1735.02</ele>
        <time>2018-09-09T11:54:31Z</time>
      </trkpt>
      <trkpt lat="45.32758" lon="7.00775">
        <ele>1735.02</ele>
        <time>2018-09-09T11:54:32Z</time>
      </trkpt>
      <trkpt lat="45.32771" lon="7.008">
        <ele>1735.72</ele>
        <time>2018-09-09T11:54:33Z</time>
      </trkpt>
      <trkpt lat="45.32783" lon="7.00824">
        <ele>1735.93</ele>
        <time>2018-09-09T11:54:34Z</time>
      </trkpt>
      <trkpt lat="45.32795" lon="7.00848">
        <ele>1736.69</ele>
        <time>2018-09-09T11:54:35Z</time>
      </trkpt>
      <trkpt lat="45.32807" lon="7.00872">
        <ele>1736.92</ele>
        <time>2018-09-09T11:54:36Z</time>
      </trkpt>
      <trkpt lat="45.32818" lon="7.00896">
        <ele>1736.99</ele>
        <time>2018-09-09T11:54:37Z</time>
      </trkpt>
      <trkpt lat="45.32829" lon="7.0092">
        <ele>1737.01</ele>
        <time>2018-09-09T11:54:38Z</time>
      </trkpt>
      <trkpt lat="45.32841" lon="7.00943">
        <ele>1737.71</ele>
        <time>2018-09-09T11:54:39Z</time>
      </trkpt>
      <trkpt lat="45.32852" lon="7.00966">
        <ele>1737.92</ele>
        <time>2018-09-09T11:54:40Z</time>
      </trkpt>
      <trkpt lat="45.32864" lon="7.00987">
        <ele>1737.99</ele>
        <time>2018-09-09T11:54:41Z</time>
      </trkpt>
      <trkpt lat="45.32875" lon="7.01008">
        <ele>1738.01</ele>
        <time>2018-09-09T11:54:42Z</time>
      </trkpt>
      <trkpt lat="45.32894" lon="7.0105">
        <ele>1738.22</ele>
        <time>2018-09-09T11:54:44Z</time>
      </trkpt>
      <trkpt lat="45.32914" lon="7.0109">
        <ele>1738.94</ele>
        <time>2018-09-09T11:54:46Z</time>
      </trkpt>
      <trkpt lat="45.32932" lon="7.01134">
        <ele>1739.71</ele>
        <time>2018-09-09T11:54:48Z</time>
      </trkpt>
      <trkpt lat="45.3294" lon="7.01158">
        <ele>1739.92</ele>
        <time>2018-09-09T11:54:49Z</time>
      </trkpt>
      <trkpt lat="45.32947" lon="7.01183">
        <ele>1739.99</ele>
        <time>2018-09-09T11:54:50Z</time>
      </trkpt>
      <trkpt lat="45.32953" lon="7.01208">
        <ele>1740.01</ele>
        <time>2018-09-09T11:54:51Z</time>
      </trkpt>
      <trkpt lat="45.32961" lon="7.01234">
        <ele>1740.71</ele>
        <time>2018-09-09T11:54:52Z</time>
      </trkpt>
      <trkpt lat="45.32969" lon="7.01259">
        <ele>1740.92</ele>
        <time>2018-09-09T11:54:53Z</time>
      </trkpt>
      <trkpt lat="45.32977" lon="7.01285">
        <ele>1741.69</ele>
        <time>2018-09-09T11:54:54Z</time>
      </trkpt>
      <trkpt lat="45.32984" lon="7.0131">
        <ele>1741.92</ele>
        <time>2018-09-09T11:54:55Z</time>
      </trkpt>
      <trkpt lat="45.32992" lon="7.01336">
        <ele>1742.69</ele>
        <time>2018-09-09T11:54:56Z</time>
      </trkpt>
      <trkpt lat="45.33" lon="7.0136">
        <ele>1742.92</ele>
        <time>2018-09-09T11:54:57Z</time>
      </trkpt>
      <trkpt lat="45.33008" lon="7.01383">
        <ele>1742.99</ele>
        <time>2018-09-09T11:54:58Z</time>
      </trkpt>
      <trkpt lat="45.33017" lon="7.01405">
        <ele>1743.01</ele>
        <time>2018-09-09T11:54:59Z</time>
      </trkpt>
      <trkpt lat="45.33027" lon="7.01427">
        <ele>1743.01</ele>
        <time>2018-09-09T11:55:00Z</time>
      </trkpt>
      <trkpt lat="45.33038" lon="7.01448">
        <ele>1742.31</ele>
        <time>2018-09-09T11:55:01Z</time>
      </trkpt>
      <trkpt lat="45.3305" lon="7.01468">
        <ele>1740.7</ele>
        <time>2018-09-09T11:55:02Z</time>
      </trkpt>
      <trkpt lat="45.33062" lon="7.01487">
        <ele>1739.52</ele>
        <time>2018-09-09T11:55:03Z</time>
      </trkpt>
      <trkpt lat="45.33074" lon="7.01507">
        <ele>1738.47</ele>
        <time>2018-09-09T11:55:04Z</time>
      </trkpt>
      <trkpt lat="45.33087" lon="7.01526">
        <ele>1737.45</ele>
        <time>2018-09-09T11:55:05Z</time>
      </trkpt>
      <trkpt lat="45.33111" lon="7.01563">
        <ele>1736.14</ele>
        <time>2018-09-09T11:55:07Z</time>
      </trkpt>
      <trkpt lat="45.3313" lon="7.01595">
        <ele>1736.03</ele>
        <time>2018-09-09T11:55:09Z</time>
      </trkpt>
      <trkpt lat="45.3315" lon="7.01626">
        <ele>1736.02</ele>
        <time>2018-09-09T11:55:11Z</time>
      </trkpt>
      <trkpt lat="45.33172" lon="7.01657">
        <ele>1736.02</ele>
        <time>2018-09-09T11:55:13Z</time>
      </trkpt>
      <trkpt lat="45.332" lon="7.01683">
        <ele>1736.71</ele>
        <time>2018-09-09T11:55:15Z</time>
      </trkpt>
      <trkpt lat="45.33229" lon="7.01714">
        <ele>1736.99</ele>
        <time>2018-09-09T11:55:17Z</time>
      </trkpt>
      <trkpt lat="45.33245" lon="7.0173">
        <ele>1737.01</ele>
        <time>2018-09-09T11:55:18Z</time>
      </trkpt>
      <trkpt lat="45.33261" lon="7.01746">
        <ele>1737.01</ele>
        <time>2018-09-09T11:55:19Z</time>
      </trkpt>
      <trkpt lat="45.33277" lon="7.01763">
        <ele>1737.01</ele>
        <time>2018-09-09T11:55:20Z</time>
      </trkpt>
      <trkpt lat="45.33294" lon="7.01781">
        <ele>1737.71</ele>
        <time>2018-09-09T11:55:21Z</time>
      </trkpt>
      <trkpt lat="45.33311" lon="7.01798">
        <ele>1737.92</ele>
        <time>2018-09-09T11:55:22Z</time>
      </trkpt>
      <trkpt lat="45.33327" lon="7.01815">
        <ele>1737.99</ele>
        <time>2018-09-09T11:55:23Z</time>
      </trkpt>
      <trkpt lat="45.33344" lon="7.01832">
        <ele>1738.01</ele>
        <time>2018-09-09T11:55:24Z</time>
      </trkpt>
      <trkpt lat="45.33361" lon="7.01849">
        <ele>1738.01</ele>
        <time>2018-09-09T11:55:25Z</time>
      </trkpt>
      <trkpt lat="45.33378" lon="7.01865">
        <ele>1738.01</ele>
        <time>2018-09-09T11:55:26Z</time>
      </trkpt>
      <trkpt lat="45.33395" lon="7.01882">
        <ele>1738.01</ele>
        <time>2018-09-09T11:55:27Z</time>
      </trkpt>
      <trkpt lat="45.33412" lon="7.019">
        <ele>1738.71</ele>
        <time>2018-09-09T11:55:28Z</time>
      </trkpt>
      <trkpt lat="45.33429" lon="7.01917">
        <ele>1738.22</ele>
        <time>2018-09-09T11:55:29Z</time>
      </trkpt>
      <trkpt lat="45.33446" lon="7.01934">
        <ele>1738.08</ele>
        <time>2018-09-09T11:55:30Z</time>
      </trkpt>
      <trkpt lat="45.33463" lon="7.01952">
        <ele>1738.03</ele>
        <time>2018-09-09T11:55:31Z</time>
      </trkpt>
      <trkpt lat="45.33481" lon="7.0197">
        <ele>1738.72</ele>
        <time>2018-09-09T11:55:32Z</time>
      </trkpt>
      <trkpt lat="45.33499" lon="7.01987">
        <ele>1738.93</ele>
        <time>2018-09-09T11:55:33Z</time>
      </trkpt>
      <trkpt lat="45.33517" lon="7.02005">
        <ele>1738.99</ele>
        <time>2018-09-09T11:55:34Z</time>
      </trkpt>
      <trkpt lat="45.33535" lon="7.02023">
        <ele>1739.01</ele>
        <time>2018-09-09T11:55:35Z</time>
      </trkpt>
      <trkpt lat="45.33552" lon="7.0204">
        <ele>1739.71</ele>
        <time>2018-09-09T11:55:36Z</time>
      </trkpt>
      <trkpt lat="45.33569" lon="7.02058">
        <ele>1739.92</ele>
        <time>2018-09-09T11:55:37Z</time>
      </trkpt>
      <trkpt lat="45.33586" lon="7.02075">
        <ele>1740.69</ele>
        <time>2018-09-09T11:55:38Z</time>
      </trkpt>
      <trkpt lat="45.33603" lon="7.02092">
        <ele>1740.92</ele>
        <time>2018-09-09T11:55:39Z</time>
      </trkpt>
      <trkpt lat="45.3362" lon="7.02109">
        <ele>1740.99</ele>
        <time>2018-09-09T11:55:40Z</time>
      </trkpt>
      <trkpt lat="45.33636" lon="7.02126">
        <ele>1740.31</ele>
        <time>2018-09-09T11:55:41Z</time>
      </trkpt>
      <trkpt lat="45.33653" lon="7.02143">
        <ele>1740.1</ele>
        <time>2018-09-09T11:55:42Z</time>
      </trkpt>
      <trkpt lat="45.3367" lon="7.02161">
        <ele>1740.04</ele>
        <time>2018-09-09T11:55:43Z</time>
      </trkpt>
      <trkpt lat="45.33688" lon="7.02179">
        <ele>1740.02</ele>
        <time>2018-09-09T11:55:44Z</time>
      </trkpt>
      <trkpt lat="45.33705" lon="7.02197">
        <ele>1740.72</ele>
        <time>2018-09-09T11:55:45Z</time>
      </trkpt>
      <trkpt lat="45.33722" lon="7.02215">
        <ele>1740.93</ele>
        <time>2018-09-09T11:55:46Z</time>
      </trkpt>
      <trkpt lat="45.3374" lon="7.02233">
        <ele>1740.99</ele>
        <time>2018-09-09T11:55:47Z</time>
      </trkpt>
      <trkpt lat="45.33758" lon="7.0225">
        <ele>1741.71</ele>
        <time>2018-09-09T11:55:48Z</time>
      </trkpt>
      <trkpt lat="45.33775" lon="7.02268">
        <ele>1741.92</ele>
        <time>2018-09-09T11:55:49Z</time>
      </trkpt>
      <trkpt lat="45.33793" lon="7.02286">
        <ele>1742.69</ele>
        <time>2018-09-09T11:55:50Z</time>
      </trkpt>
      <trkpt lat="45.3381" lon="7.02303">
        <ele>1742.92</ele>
        <time>2018-09-09T11:55:51Z</time>
      </trkpt>
      <trkpt lat="45.33827" lon="7.02321">
        <ele>1743.69</ele>
        <time>2018-09-09T11:55:52Z</time>
      </trkpt>
      <trkpt lat="45.33844" lon="7.02338">
        <ele>1743.92</ele>
        <time>2018-09-09T11:55:53Z</time>
      </trkpt>
      <trkpt lat="45.3386" lon="7.02354">
        <ele>1743.99</ele>
        <time>2018-09-09T11:55:54Z</time>
      </trkpt>
      <trkpt lat="45.33876" lon="7.02371">
        <ele>1744.71</ele>
        <time>2018-09-09T11:55:55Z</time>
      </trkpt>
      <trkpt lat="45.33892" lon="7.0239">
        <ele>1744.92</ele>
        <time>2018-09-09T11:55:56Z</time>
      </trkpt>
      <trkpt lat="45.33908" lon="7.02409">
        <ele>1745.69</ele>
        <time>2018-09-09T11:55:57Z</time>
      </trkpt>
      <trkpt lat="45.33923" lon="7.02428">
        <ele>1745.92</ele>
        <time>2018-09-09T11:55:58Z</time>
      </trkpt>
      <trkpt lat="45.33938" lon="7.02448">
        <ele>1746.69</ele>
        <time>2018-09-09T11:55:59Z</time>
      </trkpt>
      <trkpt lat="45.33952" lon="7.02468">
        <ele>1747.62</ele>
        <time>2018-09-09T11:56:00Z</time>
      </trkpt>
      <trkpt lat="45.33966" lon="7.02489">
        <ele>1747.9</ele>
        <time>2018-09-09T11:56:01Z</time>
      </trkpt>
      <trkpt lat="45.3398" lon="7.02509">
        <ele>1747.98</ele>
        <time>2018-09-09T11:56:02Z</time>
      </trkpt>
      <trkpt lat="45.33995" lon="7.02528">
        <ele>1748.7</ele>
        <time>2018-09-09T11:56:03Z</time>
      </trkpt>
      <trkpt lat="45.34009" lon="7.02547">
        <ele>1748.92</ele>
        <time>2018-09-09T11:56:04Z</time>
      </trkpt>
      <trkpt lat="45.34025" lon="7.02564">
        <ele>1748.99</ele>
        <time>2018-09-09T11:56:05Z</time>
      </trkpt>
      <trkpt lat="45.3404" lon="7.0258">
        <ele>1749.01</ele>
        <time>2018-09-09T11:56:06Z</time>
      </trkpt>
      <trkpt lat="45.34057" lon="7.02596">
        <ele>1749.01</ele>
        <time>2018-09-09T11:56:07Z</time>
      </trkpt>
      <trkpt lat="45.34075" lon="7.0261">
        <ele>1749.71</ele>
        <time>2018-09-09T11:56:08Z</time>
      </trkpt>
      <trkpt lat="45.34093" lon="7.02623">
        <ele>1749.92</ele>
        <time>2018-09-09T11:56:09Z</time>
      </trkpt>
      <trkpt lat="45.34111" lon="7.02635">
        <ele>1749.99</ele>
        <time>2018-09-09T11:56:10Z</time>
      </trkpt>
      <trkpt lat="45.34129" lon="7.02649">
        <ele>1750.01</ele>
        <time>2018-09-09T11:56:11Z</time>
      </trkpt>
      <trkpt lat="45.34147" lon="7.02663">
        <ele>1748.61</ele>
        <time>2018-09-09T11:56:12Z</time>
      </trkpt>
      <trkpt lat="45.34165" lon="7.02676">
        <ele>1748.19</ele>
        <time>2018-09-09T11:56:13Z</time>
      </trkpt>
      <trkpt lat="45.34183" lon="7.02689">
        <ele>1748.07</ele>
        <time>2018-09-09T11:56:14Z</time>
      </trkpt>
      <trkpt lat="45.34201" lon="7.02702">
        <ele>1748.03</ele>
        <time>2018-09-09T11:56:15Z</time>
      </trkpt>
      <trkpt lat="45.34219" lon="7.02715">
        <ele>1748.02</ele>
        <time>2018-09-09T11:56:16Z</time>
      </trkpt>
      <trkpt lat="45.34237" lon="7.02728">
        <ele>1748.02</ele>
        <time>2018-09-09T11:56:17Z</time>
      </trkpt>
      <trkpt lat="45.34255" lon="7.02741">
        <ele>1748.72</ele>
        <time>2018-09-09T11:56:18Z</time>
      </trkpt>
      <trkpt lat="45.34272" lon="7.02755">
        <ele>1748.93</ele>
        <time>2018-09-09T11:56:19Z</time>
      </trkpt>
      <trkpt lat="45.3429" lon="7.02768">
        <ele>1748.99</ele>
        <time>2018-09-09T11:56:20Z</time>
      </trkpt>
      <trkpt lat="45.34308" lon="7.02781">
        <ele>1749.01</ele>
        <time>2018-09-09T11:56:21Z</time>
      </trkpt>
      <trkpt lat="45.34326" lon="7.02794">
        <ele>1749.01</ele>
        <time>2018-09-09T11:56:22Z</time>
      </trkpt>
      <trkpt lat="45.34343" lon="7.02806">
        <ele>1749.01</ele>
        <time>2018-09-09T11:56:23Z</time>
      </trkpt>
      <trkpt lat="45.3436" lon="7.02818">
        <ele>1749.01</ele>
        <time>2018-09-09T11:56:24Z</time>
      </trkpt>
      <trkpt lat="45.34377" lon="7.02829">
        <ele>1749.01</ele>
        <time>2018-09-09T11:56:25Z</time>
      </trkpt>
      <trkpt lat="45.34394" lon="7.02838">
        <ele>1749.02</ele>
        <time>2018-09-09T11:56:26Z</time>
      </trkpt>
      <trkpt lat="45.34411" lon="7.02847">
        <ele>1749.02</ele>
        <time>2018-09-09T11:56:27Z</time>
      </trkpt>
      <trkpt lat="45.34428" lon="7.02855">
        <ele>1749.02</ele>
        <time>2018-09-09T11:56:28Z</time>
      </trkpt>
      <trkpt lat="45.34446" lon="7.02863">
        <ele>1749.71</ele>
        <time>2018-09-09T11:56:29Z</time>
      </trkpt>
      <trkpt lat="45.34464" lon="7.0287">
        <ele>1749.93</ele>
        <time>2018-09-09T11:56:30Z</time>
      </trkpt>
      <trkpt lat="45.34481" lon="7.02877">
        <ele>1749.99</ele>
        <time>2018-09-09T11:56:31Z</time>
      </trkpt>
      <trkpt lat="45.34499" lon="7.02885">
        <ele>1750.01</ele>
        <time>2018-09-09T11:56:32Z</time>
      </trkpt>
      <trkpt lat="45.34517" lon="7.02892">
        <ele>1750.71</ele>
        <time>2018-09-09T11:56:33Z</time>
      </trkpt>
      <trkpt lat="45.34536" lon="7.029">
        <ele>1750.92</ele>
        <time>2018-09-09T11:56:34Z</time>
      </trkpt>
      <trkpt lat="45.34555" lon="7.02908">
        <ele>1750.99</ele>
        <time>2018-09-09T11:56:35Z</time>
      </trkpt>
      <trkpt lat="45.34574" lon="7.02915">
        <ele>1751.01</ele>
        <time>2018-09-09T11:56:36Z</time>
      </trkpt>
      <trkpt lat="45.34594" lon="7.02924">
        <ele>1751.01</ele>
        <time>2018-09-09T11:56:37Z</time>
      </trkpt>
      <trkpt lat="45.34614" lon="7.02931">
        <ele>1751.01</ele>
        <time>2018-09-09T11:56:38Z</time>
      </trkpt>
      <trkpt lat="45.34634" lon="7.02938">
        <ele>1751.01</ele>
        <time>2018-09-09T11:56:39Z</time>
      </trkpt>
      <trkpt lat="45.34654" lon="7.02944">
        <ele>1751.71</ele>
        <time>2018-09-09T11:56:40Z</time>
      </trkpt>
      <trkpt lat="45.34674" lon="7.0295">
        <ele>1751.92</ele>
        <time>2018-09-09T11:56:41Z</time>
      </trkpt>
      <trkpt lat="45.34694" lon="7.02954">
        <ele>1751.29</ele>
        <time>2018-09-09T11:56:42Z</time>
      </trkpt>
      <trkpt lat="45.34715" lon="7.02957">
        <ele>1750.4</ele>
        <time>2018-09-09T11:56:43Z</time>
      </trkpt>
      <trkpt lat="45.34736" lon="7.0296">
        <ele>1750.13</ele>
        <time>2018-09-09T11:56:44Z</time>
      </trkpt>
      <trkpt lat="45.34758" lon="7.02962">
        <ele>1750.05</ele>
        <time>2018-09-09T11:56:45Z</time>
      </trkpt>
      <trkpt lat="45.34779" lon="7.02964">
        <ele>1750.03</ele>
        <time>2018-09-09T11:56:46Z</time>
      </trkpt>
      <trkpt lat="45.348" lon="7.02966">
        <ele>1750.02</ele>
        <time>2018-09-09T11:56:47Z</time>
      </trkpt>
      <trkpt lat="45.34822" lon="7.02968">
        <ele>1750.02</ele>
        <time>2018-09-09T11:56:48Z</time>
      </trkpt>
      <trkpt lat="45.34843" lon="7.02971">
        <ele>1750.72</ele>
        <time>2018-09-09T11:56:49Z</time>
      </trkpt>
      <trkpt lat="45.34865" lon="7.02973">
        <ele>1750.23</ele>
        <time>2018-09-09T11:56:50Z</time>
      </trkpt>
      <trkpt lat="45.34886" lon="7.02975">
        <ele>1750.08</ele>
        <time>2018-09-09T11:56:51Z</time>
      </trkpt>
      <trkpt lat="45.34907" lon="7.02977">
        <ele>1750.73</ele>
        <time>2018-09-09T11:56:52Z</time>
      </trkpt>
      <trkpt lat="45.34929" lon="7.0298">
        <ele>1750.23</ele>
        <time>2018-09-09T11:56:53Z</time>
      </trkpt>
      <trkpt lat="45.3495" lon="7.02984">
        <ele>1750.78</ele>
        <time>2018-09-09T11:56:54Z</time>
      </trkpt>
      <trkpt lat="45.34971" lon="7.02989">
        <ele>1750.94</ele>
        <time>2018-09-09T11:56:55Z</time>
      </trkpt>
      <trkpt lat="45.34992" lon="7.02993">
        <ele>1750.99</ele>
        <time>2018-09-09T11:56:56Z</time>
      </trkpt>
      <trkpt lat="45.35012" lon="7.02996">
        <ele>1751.01</ele>
        <time>2018-09-09T11:56:57Z</time>
      </trkpt>
      <trkpt lat="45.35032" lon="7.02999">
        <ele>1751.01</ele>
        <time>2018-09-09T11:56:58Z</time>
      </trkpt>
      <trkpt lat="45.35053" lon="7.03002">
        <ele>1751.71</ele>
        <time>2018-09-09T11:56:59Z</time>
      </trkpt>
      <trkpt lat="45.35074" lon="7.03006">
        <ele>1751.92</ele>
        <time>2018-09-09T11:57:00Z</time>
      </trkpt>
      <trkpt lat="45.35094" lon="7.03009">
        <ele>1751.99</ele>
        <time>2018-09-09T11:57:01Z</time>
      </trkpt>
      <trkpt lat="45.35115" lon="7.03013">
        <ele>1752.01</ele>
        <time>2018-09-09T11:57:02Z</time>
      </trkpt>
      <trkpt lat="45.35135" lon="7.03016">
        <ele>1752.01</ele>
        <time>2018-09-09T11:57:03Z</time>
      </trkpt>
      <trkpt lat="45.35155" lon="7.03018">
        <ele>1752.01</ele>
        <time>2018-09-09T11:57:04Z</time>
      </trkpt>
      <trkpt lat="45.35174" lon="7.03019">
        <ele>1752.01</ele>
        <time>2018-09-09T11:57:05Z</time>
      </trkpt>
      <trkpt lat="45.35194" lon="7.03019">
        <ele>1752.01</ele>
        <time>2018-09-09T11:57:06Z</time>
      </trkpt>
      <trkpt lat="45.35215" lon="7.03018">
        <ele>1752.71</ele>
        <time>2018-09-09T11:57:07Z</time>
      </trkpt>
      <trkpt lat="45.35235" lon="7.03016">
        <ele>1753.62</ele>
        <time>2018-09-09T11:57:08Z</time>
      </trkpt>
      <trkpt lat="45.35255" lon="7.03013">
        <ele>1753.9</ele>
        <time>2018-09-09T11:57:09Z</time>
      </trkpt>
      <trkpt lat="45.35276" lon="7.0301">
        <ele>1753.98</ele>
        <time>2018-09-09T11:57:10Z</time>
      </trkpt>
      <trkpt lat="45.35296" lon="7.03007">
        <ele>1754</ele>
        <time>2018-09-09T11:57:11Z</time>
      </trkpt>
      <trkpt lat="45.35316" lon="7.03003">
        <ele>1754.71</ele>
        <time>2018-09-09T11:57:12Z</time>
      </trkpt>
      <trkpt lat="45.35337" lon="7.02999">
        <ele>1754.92</ele>
        <time>2018-09-09T11:57:13Z</time>
      </trkpt>
      <trkpt lat="45.35357" lon="7.02996">
        <ele>1754.99</ele>
        <time>2018-09-09T11:57:14Z</time>
      </trkpt>
      <trkpt lat="45.35377" lon="7.02991">
        <ele>1755.71</ele>
        <time>2018-09-09T11:57:15Z</time>
      </trkpt>
      <trkpt lat="45.35397" lon="7.02986">
        <ele>1756.62</ele>
        <time>2018-09-09T11:57:16Z</time>
      </trkpt>
      <trkpt lat="45.35417" lon="7.02982">
        <ele>1757.6</ele>
        <time>2018-09-09T11:57:17Z</time>
      </trkpt>
      <trkpt lat="45.35438" lon="7.02979">
        <ele>1758.59</ele>
        <time>2018-09-09T11:57:18Z</time>
      </trkpt>
      <trkpt lat="45.35458" lon="7.02975">
        <ele>1758.89</ele>
        <time>2018-09-09T11:57:19Z</time>
      </trkpt>
      <trkpt lat="45.35479" lon="7.02974">
        <ele>1758.28</ele>
        <time>2018-09-09T11:57:20Z</time>
      </trkpt>
      <trkpt lat="45.35499" lon="7.02972">
        <ele>1758.79</ele>
        <time>2018-09-09T11:57:21Z</time>
      </trkpt>
      <trkpt lat="45.3552" lon="7.0297">
        <ele>1758.95</ele>
        <time>2018-09-09T11:57:22Z</time>
      </trkpt>
      <trkpt lat="45.35541" lon="7.02968">
        <ele>1759</ele>
        <time>2018-09-09T11:57:23Z</time>
      </trkpt>
      <trkpt lat="45.35561" lon="7.02964">
        <ele>1759.01</ele>
        <time>2018-09-09T11:57:24Z</time>
      </trkpt>
      <trkpt lat="45.35582" lon="7.02962">
        <ele>1758.31</ele>
        <time>2018-09-09T11:57:25Z</time>
      </trkpt>
      <trkpt lat="45.35603" lon="7.02961">
        <ele>1758.1</ele>
        <time>2018-09-09T11:57:26Z</time>
      </trkpt>
      <trkpt lat="45.35623" lon="7.02963">
        <ele>1758.74</ele>
        <time>2018-09-09T11:57:27Z</time>
      </trkpt>
      <trkpt lat="45.35643" lon="7.0297">
        <ele>1758.93</ele>
        <time>2018-09-09T11:57:28Z</time>
      </trkpt>
      <trkpt lat="45.35662" lon="7.02979">
        <ele>1758.29</ele>
        <time>2018-09-09T11:57:29Z</time>
      </trkpt>
      <trkpt lat="45.35681" lon="7.0299">
        <ele>1758.8</ele>
        <time>2018-09-09T11:57:30Z</time>
      </trkpt>
      <trkpt lat="45.35699" lon="7.03004">
        <ele>1758.95</ele>
        <time>2018-09-09T11:57:31Z</time>
      </trkpt>
      <trkpt lat="45.35716" lon="7.0302">
        <ele>1759</ele>
        <time>2018-09-09T11:57:32Z</time>
      </trkpt>
      <trkpt lat="45.35733" lon="7.03037">
        <ele>1759.01</ele>
        <time>2018-09-09T11:57:33Z</time>
      </trkpt>
      <trkpt lat="45.3575" lon="7.03054">
        <ele>1759.71</ele>
        <time>2018-09-09T11:57:34Z</time>
      </trkpt>
      <trkpt lat="45.35767" lon="7.03068">
        <ele>1759.92</ele>
        <time>2018-09-09T11:57:35Z</time>
      </trkpt>
      <trkpt lat="45.35785" lon="7.03081">
        <ele>1760.69</ele>
        <time>2018-09-09T11:57:36Z</time>
      </trkpt>
      <trkpt lat="45.35804" lon="7.03093">
        <ele>1760.92</ele>
        <time>2018-09-09T11:57:37Z</time>
      </trkpt>
      <trkpt lat="45.35823" lon="7.03104">
        <ele>1761.69</ele>
        <time>2018-09-09T11:57:38Z</time>
      </trkpt>
      <trkpt lat="45.35841" lon="7.03116">
        <ele>1761.92</ele>
        <time>2018-09-09T11:57:39Z</time>
      </trkpt>
      <trkpt lat="45.3586" lon="7.03127">
        <ele>1761.29</ele>
        <time>2018-09-09T11:57:40Z</time>
      </trkpt>
      <trkpt lat="45.35878" lon="7.03139">
        <ele>1761.1</ele>
        <time>2018-09-09T11:57:41Z</time>
      </trkpt>
      <trkpt lat="45.35897" lon="7.03151">
        <ele>1761.74</ele>
        <time>2018-09-09T11:57:42Z</time>
      </trkpt>
      <trkpt lat="45.35915" lon="7.03164">
        <ele>1761.93</ele>
        <time>2018-09-09T11:57:43Z</time>
      </trkpt>
      <trkpt lat="45.35933" lon="7.03175">
        <ele>1761.99</ele>
        <time>2018-09-09T11:57:44Z</time>
      </trkpt>
      <trkpt lat="45.35952" lon="7.03187">
        <ele>1762.01</ele>
        <time>2018-09-09T11:57:45Z</time>
      </trkpt>
      <trkpt lat="45.35971" lon="7.032">
        <ele>1762.01</ele>
        <time>2018-09-09T11:57:46Z</time>
      </trkpt>
      <trkpt lat="45.35988" lon="7.03215">
        <ele>1762.01</ele>
        <time>2018-09-09T11:57:47Z</time>
      </trkpt>
      <trkpt lat="45.36005" lon="7.03233">
        <ele>1762.71</ele>
        <time>2018-09-09T11:57:48Z</time>
      </trkpt>
      <trkpt lat="45.36021" lon="7.03251">
        <ele>1763.62</ele>
        <time>2018-09-09T11:57:49Z</time>
      </trkpt>
      <trkpt lat="45.36037" lon="7.03269">
        <ele>1763.9</ele>
        <time>2018-09-09T11:57:50Z</time>
      </trkpt>
      <trkpt lat="45.36053" lon="7.03286">
        <ele>1763.98</ele>
        <time>2018-09-09T11:57:51Z</time>
      </trkpt>
      <trkpt lat="45.3607" lon="7.03304">
        <ele>1764.7</ele>
        <time>2018-09-09T11:57:52Z</time>
      </trkpt>
      <trkpt lat="45.36085" lon="7.03321">
        <ele>1765.62</ele>
        <time>2018-09-09T11:57:53Z</time>
      </trkpt>
      <trkpt lat="45.36102" lon="7.03339">
        <ele>1766.6</ele>
        <time>2018-09-09T11:57:54Z</time>
      </trkpt>
      <trkpt lat="45.36117" lon="7.03356">
        <ele>1767.59</ele>
        <time>2018-09-09T11:57:55Z</time>
      </trkpt>
      <trkpt lat="45.36133" lon="7.03373">
        <ele>1767.89</ele>
        <time>2018-09-09T11:57:56Z</time>
      </trkpt>
      <trkpt lat="45.36149" lon="7.03389">
        <ele>1768.68</ele>
        <time>2018-09-09T11:57:57Z</time>
      </trkpt>
      <trkpt lat="45.36164" lon="7.03406">
        <ele>1768.91</ele>
        <time>2018-09-09T11:57:58Z</time>
      </trkpt>
      <trkpt lat="45.3618" lon="7.03422">
        <ele>1769.68</ele>
        <time>2018-09-09T11:57:59Z</time>
      </trkpt>
      <trkpt lat="45.36196" lon="7.03438">
        <ele>1769.92</ele>
        <time>2018-09-09T11:58:00Z</time>
      </trkpt>
      <trkpt lat="45.36213" lon="7.03452">
        <ele>1769.99</ele>
        <time>2018-09-09T11:58:01Z</time>
      </trkpt>
      <trkpt lat="45.3623" lon="7.03465">
        <ele>1770.71</ele>
        <time>2018-09-09T11:58:02Z</time>
      </trkpt>
      <trkpt lat="45.36247" lon="7.03478">
        <ele>1770.92</ele>
        <time>2018-09-09T11:58:03Z</time>
      </trkpt>
      <trkpt lat="45.36264" lon="7.03492">
        <ele>1770.99</ele>
        <time>2018-09-09T11:58:04Z</time>
      </trkpt>
      <trkpt lat="45.36279" lon="7.03508">
        <ele>1771.71</ele>
        <time>2018-09-09T11:58:05Z</time>
      </trkpt>
      <trkpt lat="45.36295" lon="7.03525">
        <ele>1771.92</ele>
        <time>2018-09-09T11:58:06Z</time>
      </trkpt>
      <trkpt lat="45.36309" lon="7.03544">
        <ele>1772.69</ele>
        <time>2018-09-09T11:58:07Z</time>
      </trkpt>
      <trkpt lat="45.36324" lon="7.03563">
        <ele>1772.92</ele>
        <time>2018-09-09T11:58:08Z</time>
      </trkpt>
      <trkpt lat="45.36338" lon="7.03584">
        <ele>1772.99</ele>
        <time>2018-09-09T11:58:09Z</time>
      </trkpt>
      <trkpt lat="45.36352" lon="7.03606">
        <ele>1773.71</ele>
        <time>2018-09-09T11:58:10Z</time>
      </trkpt>
      <trkpt lat="45.36367" lon="7.03627">
        <ele>1774.62</ele>
        <time>2018-09-09T11:58:11Z</time>
      </trkpt>
      <trkpt lat="45.36382" lon="7.03647">
        <ele>1774.9</ele>
        <time>2018-09-09T11:58:12Z</time>
      </trkpt>
      <trkpt lat="45.36398" lon="7.03667">
        <ele>1774.98</ele>
        <time>2018-09-09T11:58:13Z</time>
      </trkpt>
      <trkpt lat="45.36414" lon="7.03685">
        <ele>1774.3</ele>
        <time>2018-09-09T11:58:14Z</time>
      </trkpt>
      <trkpt lat="45.36432" lon="7.03703">
        <ele>1774.8</ele>
        <time>2018-09-09T11:58:15Z</time>
      </trkpt>
      <trkpt lat="45.36448" lon="7.0372">
        <ele>1774.25</ele>
        <time>2018-09-09T11:58:16Z</time>
      </trkpt>
      <trkpt lat="45.36466" lon="7.03738">
        <ele>1774.09</ele>
        <time>2018-09-09T11:58:17Z</time>
      </trkpt>
      <trkpt lat="45.36482" lon="7.03755">
        <ele>1774.04</ele>
        <time>2018-09-09T11:58:18Z</time>
      </trkpt>
      <trkpt lat="45.36498" lon="7.03772">
        <ele>1774.02</ele>
        <time>2018-09-09T11:58:19Z</time>
      </trkpt>
      <trkpt lat="45.36515" lon="7.03789">
        <ele>1774.02</ele>
        <time>2018-09-09T11:58:20Z</time>
      </trkpt>
      <trkpt lat="45.3653" lon="7.03805">
        <ele>1774.02</ele>
        <time>2018-09-09T11:58:21Z</time>
      </trkpt>
      <trkpt lat="45.36547" lon="7.03821">
        <ele>1774.02</ele>
        <time>2018-09-09T11:58:22Z</time>
      </trkpt>
      <trkpt lat="45.36563" lon="7.03838">
        <ele>1774.72</ele>
        <time>2018-09-09T11:58:23Z</time>
      </trkpt>
      <trkpt lat="45.36579" lon="7.03854">
        <ele>1775.62</ele>
        <time>2018-09-09T11:58:24Z</time>
      </trkpt>
      <trkpt lat="45.36595" lon="7.0387">
        <ele>1775.9</ele>
        <time>2018-09-09T11:58:25Z</time>
      </trkpt>
      <trkpt lat="45.3661" lon="7.03885">
        <ele>1775.98</ele>
        <time>2018-09-09T11:58:26Z</time>
      </trkpt>
      <trkpt lat="45.36626" lon="7.039">
        <ele>1776.7</ele>
        <time>2018-09-09T11:58:27Z</time>
      </trkpt>
      <trkpt lat="45.36642" lon="7.03915">
        <ele>1777.62</ele>
        <time>2018-09-09T11:58:28Z</time>
      </trkpt>
      <trkpt lat="45.36657" lon="7.0393">
        <ele>1777.9</ele>
        <time>2018-09-09T11:58:29Z</time>
      </trkpt>
      <trkpt lat="45.36672" lon="7.03946">
        <ele>1778.68</ele>
        <time>2018-09-09T11:58:30Z</time>
      </trkpt>
      <trkpt lat="45.36687" lon="7.03961">
        <ele>1778.91</ele>
        <time>2018-09-09T11:58:31Z</time>
      </trkpt>
      <trkpt lat="45.36702" lon="7.03976">
        <ele>1779.68</ele>
        <time>2018-09-09T11:58:32Z</time>
      </trkpt>
      <trkpt lat="45.36717" lon="7.03993">
        <ele>1779.92</ele>
        <time>2018-09-09T11:58:33Z</time>
      </trkpt>
      <trkpt lat="45.36731" lon="7.0401">
        <ele>1780.69</ele>
        <time>2018-09-09T11:58:34Z</time>
      </trkpt>
      <trkpt lat="45.36745" lon="7.04028">
        <ele>1780.92</ele>
        <time>2018-09-09T11:58:35Z</time>
      </trkpt>
      <trkpt lat="45.36759" lon="7.04046">
        <ele>1780.99</ele>
        <time>2018-09-09T11:58:36Z</time>
      </trkpt>
      <trkpt lat="45.36773" lon="7.04065">
        <ele>1781.01</ele>
        <time>2018-09-09T11:58:37Z</time>
      </trkpt>
      <trkpt lat="45.36787" lon="7.04084">
        <ele>1781.71</ele>
        <time>2018-09-09T11:58:38Z</time>
      </trkpt>
      <trkpt lat="45.36801" lon="7.04103">
        <ele>1781.92</ele>
        <time>2018-09-09T11:58:39Z</time>
      </trkpt>
      <trkpt lat="45.36816" lon="7.04122">
        <ele>1782.69</ele>
        <time>2018-09-09T11:58:40Z</time>
      </trkpt>
      <trkpt lat="45.3683" lon="7.04141">
        <ele>1782.92</ele>
        <time>2018-09-09T11:58:41Z</time>
      </trkpt>
      <trkpt lat="45.36844" lon="7.0416">
        <ele>1782.99</ele>
        <time>2018-09-09T11:58:42Z</time>
      </trkpt>
      <trkpt lat="45.36858" lon="7.04179">
        <ele>1783.01</ele>
        <time>2018-09-09T11:58:43Z</time>
      </trkpt>
      <trkpt lat="45.36872" lon="7.04197">
        <ele>1783.71</ele>
        <time>2018-09-09T11:58:44Z</time>
      </trkpt>
      <trkpt lat="45.36886" lon="7.04216">
        <ele>1783.92</ele>
        <time>2018-09-09T11:58:45Z</time>
      </trkpt>
      <trkpt lat="45.369" lon="7.04235">
        <ele>1783.99</ele>
        <time>2018-09-09T11:58:46Z</time>
      </trkpt>
      <trkpt lat="45.36913" lon="7.04255">
        <ele>1784.01</ele>
        <time>2018-09-09T11:58:47Z</time>
      </trkpt>
      <trkpt lat="45.36926" lon="7.04276">
        <ele>1784.01</ele>
        <time>2018-09-09T11:58:48Z</time>
      </trkpt>
      <trkpt lat="45.36936" lon="7.04299">
        <ele>1784.01</ele>
        <time>2018-09-09T11:58:49Z</time>
      </trkpt>
      <trkpt lat="45.36945" lon="7.04324">
        <ele>1784.71</ele>
        <time>2018-09-09T11:58:50Z</time>
      </trkpt>
      <trkpt lat="45.36953" lon="7.04349">
        <ele>1784.92</ele>
        <time>2018-09-09T11:58:51Z</time>
      </trkpt>
      <trkpt lat="45.3696" lon="7.04375">
        <ele>1784.99</ele>
        <time>2018-09-09T11:58:52Z</time>
      </trkpt>
      <trkpt lat="45.36967" lon="7.04401">
        <ele>1785.01</ele>
        <time>2018-09-09T11:58:53Z</time>
      </trkpt>
      <trkpt lat="45.36975" lon="7.04426">
        <ele>1785.01</ele>
        <time>2018-09-09T11:58:54Z</time>
      </trkpt>
      <trkpt lat="45.36982" lon="7.0445">
        <ele>1785.01</ele>
        <time>2018-09-09T11:58:55Z</time>
      </trkpt>
      <trkpt lat="45.36989" lon="7.04475">
        <ele>1785.01</ele>
        <time>2018-09-09T11:58:56Z</time>
      </trkpt>
      <trkpt lat="45.36995" lon="7.045">
        <ele>1785.71</ele>
        <time>2018-09-09T11:58:57Z</time>
      </trkpt>
      <trkpt lat="45.37002" lon="7.04524">
        <ele>1785.92</ele>
        <time>2018-09-09T11:58:58Z</time>
      </trkpt>
      <trkpt lat="45.37009" lon="7.04547">
        <ele>1785.99</ele>
        <time>2018-09-09T11:58:59Z</time>
      </trkpt>
      <trkpt lat="45.37016" lon="7.04571">
        <ele>1786.71</ele>
        <time>2018-09-09T11:59:00Z</time>
      </trkpt>
      <trkpt lat="45.3703" lon="7.04618">
        <ele>1786.99</ele>
        <time>2018-09-09T11:59:02Z</time>
      </trkpt>
      <trkpt lat="45.37043" lon="7.04661">
        <ele>1787.92</ele>
        <time>2018-09-09T11:59:04Z</time>
      </trkpt>
      <trkpt lat="45.37057" lon="7.04697">
        <ele>1788.01</ele>
        <time>2018-09-09T11:59:06Z</time>
      </trkpt>
      <trkpt lat="45.37071" lon="7.04732">
        <ele>1788.71</ele>
        <time>2018-09-09T11:59:08Z</time>
      </trkpt>
      <trkpt lat="45.37086" lon="7.04767">
        <ele>1788.99</ele>
        <time>2018-09-09T11:59:10Z</time>
      </trkpt>
      <trkpt lat="45.37101" lon="7.04802">
        <ele>1789.92</ele>
        <time>2018-09-09T11:59:12Z</time>
      </trkpt>
      <trkpt lat="45.37116" lon="7.04839">
        <ele>1790.01</ele>
        <time>2018-09-09T11:59:14Z</time>
      </trkpt>
      <trkpt lat="45.37132" lon="7.04876">
        <ele>1790.92</ele>
        <time>2018-09-09T11:59:16Z</time>
      </trkpt>
      <trkpt lat="45.37148" lon="7.04914">
        <ele>1790.8</ele>
        <time>2018-09-09T11:59:18Z</time>
      </trkpt>
      <trkpt lat="45.37164" lon="7.04953">
        <ele>1791.7</ele>
        <time>2018-09-09T11:59:20Z</time>
      </trkpt>
      <trkpt lat="45.37181" lon="7.04993">
        <ele>1792.69</ele>
        <time>2018-09-09T11:59:22Z</time>
      </trkpt>
      <trkpt lat="45.37199" lon="7.05033">
        <ele>1793.9</ele>
        <time>2018-09-09T11:59:24Z</time>
      </trkpt>
      <trkpt lat="45.37219" lon="7.05073">
        <ele>1795.61</ele>
        <time>2018-09-09T11:59:26Z</time>
      </trkpt>
      <trkpt lat="45.37236" lon="7.05113">
        <ele>1797.59</ele>
        <time>2018-09-09T11:59:28Z</time>
      </trkpt>
      <trkpt lat="45.37256" lon="7.05154">
        <ele>1799.59</ele>
        <time>2018-09-09T11:59:30Z</time>
      </trkpt>
      <trkpt lat="45.37275" lon="7.05195">
        <ele>1801.38</ele>
        <time>2018-09-09T11:59:32Z</time>
      </trkpt>
      <trkpt lat="45.37293" lon="7.05234">
        <ele>1801.05</ele>
        <time>2018-09-09T11:59:34Z</time>
      </trkpt>
      <trkpt lat="45.37312" lon="7.05264">
        <ele>1802.63</ele>
        <time>2018-09-09T11:59:36Z</time>
      </trkpt>
      <trkpt lat="45.37335" lon="7.05283">
        <ele>1804.59</ele>
        <time>2018-09-09T11:59:38Z</time>
      </trkpt>
      <trkpt lat="45.3736" lon="7.05287">
        <ele>1805.89</ele>
        <time>2018-09-09T11:59:40Z</time>
      </trkpt>
      <trkpt lat="45.37383" lon="7.05281">
        <ele>1807.61</ele>
        <time>2018-09-09T11:59:42Z</time>
      </trkpt>
      <trkpt lat="45.37403" lon="7.05263">
        <ele>1809.59</ele>
        <time>2018-09-09T11:59:44Z</time>
      </trkpt>
      <trkpt lat="45.37418" lon="7.05236">
        <ele>1810.89</ele>
        <time>2018-09-09T11:59:46Z</time>
      </trkpt>
      <trkpt lat="45.37429" lon="7.05199">
        <ele>1812.61</ele>
        <time>2018-09-09T11:59:48Z</time>
      </trkpt>
      <trkpt lat="45.37431" lon="7.05155">
        <ele>1814.59</ele>
        <time>2018-09-09T11:59:50Z</time>
      </trkpt>
      <trkpt lat="45.37429" lon="7.05102">
        <ele>1817.5</ele>
        <time>2018-09-09T11:59:52Z</time>
      </trkpt>
      <trkpt lat="45.37425" lon="7.05072">
        <ele>1819.26</ele>
        <time>2018-09-09T11:59:53Z</time>
      </trkpt>
      <trkpt lat="45.3742" lon="7.0504">
        <ele>1821.89</ele>
        <time>2018-09-09T11:59:54Z</time>
      </trkpt>
      <trkpt lat="45.37414" lon="7.05007">
        <ele>1824.08</ele>
        <time>2018-09-09T11:59:55Z</time>
      </trkpt>
      <trkpt lat="45.37409" lon="7.04974">
        <ele>1826.83</ele>
        <time>2018-09-09T11:59:56Z</time>
      </trkpt>
      <trkpt lat="45.37404" lon="7.04942">
        <ele>1829.06</ele>
        <time>2018-09-09T11:59:57Z</time>
      </trkpt>
      <trkpt lat="45.374" lon="7.04911">
        <ele>1831.13</ele>
        <time>2018-09-09T11:59:58Z</time>
      </trkpt>
      <trkpt lat="45.37394" lon="7.04884">
        <ele>1833.15</ele>
        <time>2018-09-09T11:59:59Z</time>
      </trkpt>
      <trkpt lat="45.37388" lon="7.04856">
        <ele>1835.16</ele>
        <time>2018-09-09T12:00:00Z</time>
      </trkpt>
      <trkpt lat="45.37382" lon="7.04829">
        <ele>1837.86</ele>
        <time>2018-09-09T12:00:01Z</time>
      </trkpt>
      <trkpt lat="45.37376" lon="7.04801">
        <ele>1840.07</ele>
        <time>2018-09-09T12:00:02Z</time>
      </trkpt>
      <trkpt lat="45.37374" lon="7.04773">
        <ele>1842.13</ele>
        <time>2018-09-09T12:00:03Z</time>
      </trkpt>
      <trkpt lat="45.37371" lon="7.04748">
        <ele>1843.45</ele>
        <time>2018-09-09T12:00:04Z</time>
      </trkpt>
      <trkpt lat="45.37367" lon="7.04722">
        <ele>1845.25</ele>
        <time>2018-09-09T12:00:05Z</time>
      </trkpt>
      <trkpt lat="45.37364" lon="7.04696">
        <ele>1846.48</ele>
        <time>2018-09-09T12:00:06Z</time>
      </trkpt>
      <trkpt lat="45.37363" lon="7.04669">
        <ele>1847.56</ele>
        <time>2018-09-09T12:00:07Z</time>
      </trkpt>
      <trkpt lat="45.37363" lon="7.04641">
        <ele>1849.28</ele>
        <time>2018-09-09T12:00:08Z</time>
      </trkpt>
      <trkpt lat="45.37363" lon="7.04615">
        <ele>1851.19</ele>
        <time>2018-09-09T12:00:09Z</time>
      </trkpt>
      <trkpt lat="45.37366" lon="7.04567">
        <ele>1853.34</ele>
        <time>2018-09-09T12:00:11Z</time>
      </trkpt>
      <trkpt lat="45.37372" lon="7.0452">
        <ele>1856.26</ele>
        <time>2018-09-09T12:00:13Z</time>
      </trkpt>
      <trkpt lat="45.37373" lon="7.04494">
        <ele>1858.19</ele>
        <time>2018-09-09T12:00:14Z</time>
      </trkpt>
      <trkpt lat="45.37372" lon="7.04467">
        <ele>1859.47</ele>
        <time>2018-09-09T12:00:15Z</time>
      </trkpt>
      <trkpt lat="45.37369" lon="7.0444">
        <ele>1861.25</ele>
        <time>2018-09-09T12:00:16Z</time>
      </trkpt>
      <trkpt lat="45.37364" lon="7.04413">
        <ele>1863.19</ele>
        <time>2018-09-09T12:00:17Z</time>
      </trkpt>
      <trkpt lat="45.37359" lon="7.04386">
        <ele>1865.17</ele>
        <time>2018-09-09T12:00:18Z</time>
      </trkpt>
      <trkpt lat="45.37353" lon="7.04359">
        <ele>1866.46</ele>
        <time>2018-09-09T12:00:19Z</time>
      </trkpt>
      <trkpt lat="45.37349" lon="7.04332">
        <ele>1868.25</ele>
        <time>2018-09-09T12:00:20Z</time>
      </trkpt>
      <trkpt lat="45.37345" lon="7.04304">
        <ele>1870.19</ele>
        <time>2018-09-09T12:00:21Z</time>
      </trkpt>
      <trkpt lat="45.3734" lon="7.04277">
        <ele>1872.17</ele>
        <time>2018-09-09T12:00:22Z</time>
      </trkpt>
      <trkpt lat="45.37335" lon="7.04251">
        <ele>1873.46</ele>
        <time>2018-09-09T12:00:23Z</time>
      </trkpt>
      <trkpt lat="45.37329" lon="7.04224">
        <ele>1875.25</ele>
        <time>2018-09-09T12:00:24Z</time>
      </trkpt>
      <trkpt lat="45.37322" lon="7.04198">
        <ele>1877.19</ele>
        <time>2018-09-09T12:00:25Z</time>
      </trkpt>
      <trkpt lat="45.37315" lon="7.04173">
        <ele>1879.17</ele>
        <time>2018-09-09T12:00:26Z</time>
      </trkpt>
      <trkpt lat="45.37309" lon="7.04147">
        <ele>1881.16</ele>
        <time>2018-09-09T12:00:27Z</time>
      </trkpt>
      <trkpt lat="45.37302" lon="7.04122">
        <ele>1882.46</ele>
        <time>2018-09-09T12:00:28Z</time>
      </trkpt>
      <trkpt lat="45.37296" lon="7.04098">
        <ele>1884.25</ele>
        <time>2018-09-09T12:00:29Z</time>
      </trkpt>
      <trkpt lat="45.37291" lon="7.04073">
        <ele>1885.48</ele>
        <time>2018-09-09T12:00:30Z</time>
      </trkpt>
      <trkpt lat="45.37279" lon="7.04023">
        <ele>1888.49</ele>
        <time>2018-09-09T12:00:32Z</time>
      </trkpt>
      <trkpt lat="45.37273" lon="7.03998">
        <ele>1890.26</ele>
        <time>2018-09-09T12:00:33Z</time>
      </trkpt>
      <trkpt lat="45.37267" lon="7.03973">
        <ele>1892.19</ele>
        <time>2018-09-09T12:00:34Z</time>
      </trkpt>
      <trkpt lat="45.37256" lon="7.03928">
        <ele>1896.16</ele>
        <time>2018-09-09T12:00:36Z</time>
      </trkpt>
      <trkpt lat="45.37245" lon="7.03886">
        <ele>1898.55</ele>
        <time>2018-09-09T12:00:38Z</time>
      </trkpt>
      <trkpt lat="45.37228" lon="7.0385">
        <ele>1902.4</ele>
        <time>2018-09-09T12:00:40Z</time>
      </trkpt>
      <trkpt lat="45.37218" lon="7.03812">
        <ele>1904.57</ele>
        <time>2018-09-09T12:00:42Z</time>
      </trkpt>
      <trkpt lat="45.37211" lon="7.03765">
        <ele>1907.49</ele>
        <time>2018-09-09T12:00:44Z</time>
      </trkpt>
      <trkpt lat="45.37206" lon="7.0374">
        <ele>1909.26</ele>
        <time>2018-09-09T12:00:45Z</time>
      </trkpt>
      <trkpt lat="45.37203" lon="7.03691">
        <ele>1912.26</ele>
        <time>2018-09-09T12:00:47Z</time>
      </trkpt>
      <trkpt lat="45.372" lon="7.03665">
        <ele>1913.49</ele>
        <time>2018-09-09T12:00:48Z</time>
      </trkpt>
      <trkpt lat="45.37196" lon="7.03639">
        <ele>1915.26</ele>
        <time>2018-09-09T12:00:49Z</time>
      </trkpt>
      <trkpt lat="45.37191" lon="7.0359">
        <ele>1919.17</ele>
        <time>2018-09-09T12:00:51Z</time>
      </trkpt>
      <trkpt lat="45.37186" lon="7.03542">
        <ele>1922.46</ele>
        <time>2018-09-09T12:00:53Z</time>
      </trkpt>
      <trkpt lat="45.37172" lon="7.03497">
        <ele>1923.66</ele>
        <time>2018-09-09T12:00:55Z</time>
      </trkpt>
      <trkpt lat="45.37148" lon="7.03461">
        <ele>1926.08</ele>
        <time>2018-09-09T12:00:57Z</time>
      </trkpt>
      <trkpt lat="45.37135" lon="7.03441">
        <ele>1928.14</ele>
        <time>2018-09-09T12:00:58Z</time>
      </trkpt>
      <trkpt lat="45.37114" lon="7.03402">
        <ele>1932.16</ele>
        <time>2018-09-09T12:01:00Z</time>
      </trkpt>
      <trkpt lat="45.37095" lon="7.03359">
        <ele>1936.16</ele>
        <time>2018-09-09T12:01:02Z</time>
      </trkpt>
      <trkpt lat="45.3708" lon="7.03315">
        <ele>1940.16</ele>
        <time>2018-09-09T12:01:04Z</time>
      </trkpt>
      <trkpt lat="45.3706" lon="7.03282">
        <ele>1942.34</ele>
        <time>2018-09-09T12:01:06Z</time>
      </trkpt>
      <trkpt lat="45.37036" lon="7.0326">
        <ele>1946.17</ele>
        <time>2018-09-09T12:01:08Z</time>
      </trkpt>
      <trkpt lat="45.37015" lon="7.03241">
        <ele>1948.34</ele>
        <time>2018-09-09T12:01:10Z</time>
      </trkpt>
      <trkpt lat="45.37001" lon="7.03221">
        <ele>1950.56</ele>
        <time>2018-09-09T12:01:12Z</time>
      </trkpt>
      <trkpt lat="45.36986" lon="7.03203">
        <ele>1951.88</ele>
        <time>2018-09-09T12:01:14Z</time>
      </trkpt>
      <trkpt lat="45.3697" lon="7.03181">
        <ele>1953.89</ele>
        <time>2018-09-09T12:01:17Z</time>
      </trkpt>
      <trkpt lat="45.36989" lon="7.03182">
        <ele>1958.19</ele>
        <time>2018-09-09T12:01:26Z</time>
      </trkpt>
      <trkpt lat="45.3701" lon="7.03204">
        <ele>1959.69</ele>
        <time>2018-09-09T12:01:29Z</time>
      </trkpt>
      <trkpt lat="45.37032" lon="7.0322">
        <ele>1963.29</ele>
        <time>2018-09-09T12:01:32Z</time>
      </trkpt>
      <trkpt lat="45.37056" lon="7.03224">
        <ele>1966.58</ele>
        <time>2018-09-09T12:01:35Z</time>
      </trkpt>
      <trkpt lat="45.37075" lon="7.03227">
        <ele>1968.38</ele>
        <time>2018-09-09T12:01:37Z</time>
      </trkpt>
      <trkpt lat="45.37098" lon="7.03238">
        <ele>1969.87</ele>
        <time>2018-09-09T12:01:39Z</time>
      </trkpt>
      <trkpt lat="45.37118" lon="7.03261">
        <ele>1972.52</ele>
        <time>2018-09-09T12:01:41Z</time>
      </trkpt>
      <trkpt lat="45.3713" lon="7.03286">
        <ele>1974.58</ele>
        <time>2018-09-09T12:01:43Z</time>
      </trkpt>
      <trkpt lat="45.37142" lon="7.03306">
        <ele>1975.89</ele>
        <time>2018-09-09T12:01:45Z</time>
      </trkpt>
      <trkpt lat="45.37162" lon="7.03322">
        <ele>1977.61</ele>
        <time>2018-09-09T12:01:47Z</time>
      </trkpt>
      <trkpt lat="45.3719" lon="7.03339">
        <ele>1980.29</ele>
        <time>2018-09-09T12:01:49Z</time>
      </trkpt>
      <trkpt lat="45.37218" lon="7.03357">
        <ele>1983.26</ele>
        <time>2018-09-09T12:01:51Z</time>
      </trkpt>
      <trkpt lat="45.37243" lon="7.0338">
        <ele>1986.26</ele>
        <time>2018-09-09T12:01:53Z</time>
      </trkpt>
      <trkpt lat="45.37259" lon="7.03404">
        <ele>1988.56</ele>
        <time>2018-09-09T12:01:55Z</time>
      </trkpt>
      <trkpt lat="45.37275" lon="7.03422">
        <ele>1991.71</ele>
        <time>2018-09-09T12:02:16Z</time>
      </trkpt>
      <trkpt lat="45.37293" lon="7.03445">
        <ele>1992.92</ele>
        <time>2018-09-09T12:02:19Z</time>
      </trkpt>
      <trkpt lat="45.37309" lon="7.03468">
        <ele>1993.71</ele>
        <time>2018-09-09T12:02:21Z</time>
      </trkpt>
      <trkpt lat="45.37324" lon="7.03497">
        <ele>1996.51</ele>
        <time>2018-09-09T12:02:23Z</time>
      </trkpt>
      <trkpt lat="45.37328" lon="7.03531">
        <ele>1998.58</ele>
        <time>2018-09-09T12:02:25Z</time>
      </trkpt>
      <trkpt lat="45.37329" lon="7.03558">
        <ele>2001.29</ele>
        <time>2018-09-09T12:02:27Z</time>
      </trkpt>
      <trkpt lat="45.37345" lon="7.03595">
        <ele>2003.61</ele>
        <time>2018-09-09T12:02:30Z</time>
      </trkpt>
      <trkpt lat="45.37355" lon="7.03627">
        <ele>2006.5</ele>
        <time>2018-09-09T12:02:32Z</time>
      </trkpt>
      <trkpt lat="45.37355" lon="7.03658">
        <ele>2009.49</ele>
        <time>2018-09-09T12:02:34Z</time>
      </trkpt>
      <trkpt lat="45.37363" lon="7.03688">
        <ele>2012.79</ele>
        <time>2018-09-09T12:02:37Z</time>
      </trkpt>
      <trkpt lat="45.37381" lon="7.03713">
        <ele>2015.59</ele>
        <time>2018-09-09T12:02:40Z</time>
      </trkpt>
      <trkpt lat="45.3739" lon="7.03736">
        <ele>2017.59</ele>
        <time>2018-09-09T12:02:42Z</time>
      </trkpt>
      <trkpt lat="45.37401" lon="7.03762">
        <ele>2019.8</ele>
        <time>2018-09-09T12:02:44Z</time>
      </trkpt>
      <trkpt lat="45.37417" lon="7.03796">
        <ele>2022.31</ele>
        <time>2018-09-09T12:02:46Z</time>
      </trkpt>
      <trkpt lat="45.37433" lon="7.03838">
        <ele>2024.56</ele>
        <time>2018-09-09T12:02:48Z</time>
      </trkpt>
      <trkpt lat="45.37442" lon="7.03861">
        <ele>2026.98</ele>
        <time>2018-09-09T12:02:49Z</time>
      </trkpt>
      <trkpt lat="45.37451" lon="7.03883">
        <ele>2029.1</ele>
        <time>2018-09-09T12:02:50Z</time>
      </trkpt>
      <trkpt lat="45.37467" lon="7.03928">
        <ele>2032.24</ele>
        <time>2018-09-09T12:02:52Z</time>
      </trkpt>
      <trkpt lat="45.37485" lon="7.0397">
        <ele>2035.47</ele>
        <time>2018-09-09T12:02:54Z</time>
      </trkpt>
      <trkpt lat="45.37504" lon="7.04011">
        <ele>2037.58</ele>
        <time>2018-09-09T12:02:56Z</time>
      </trkpt>
      <trkpt lat="45.37521" lon="7.0405">
        <ele>2041.2</ele>
        <time>2018-09-09T12:02:58Z</time>
      </trkpt>
      <trkpt lat="45.37535" lon="7.04094">
        <ele>2043.55</ele>
        <time>2018-09-09T12:03:00Z</time>
      </trkpt>
      <trkpt lat="45.37546" lon="7.0414">
        <ele>2046.49</ele>
        <time>2018-09-09T12:03:02Z</time>
      </trkpt>
      <trkpt lat="45.3756" lon="7.04185">
        <ele>2049.49</ele>
        <time>2018-09-09T12:03:04Z</time>
      </trkpt>
      <trkpt lat="45.37569" lon="7.04208">
        <ele>2051.26</ele>
        <time>2018-09-09T12:03:05Z</time>
      </trkpt>
      <trkpt lat="45.37576" lon="7.04232">
        <ele>2053.19</ele>
        <time>2018-09-09T12:03:06Z</time>
      </trkpt>
      <trkpt lat="45.37585" lon="7.04255">
        <ele>2054.47</ele>
        <time>2018-09-09T12:03:07Z</time>
      </trkpt>
      <trkpt lat="45.37602" lon="7.04295">
        <ele>2057.49</ele>
        <time>2018-09-09T12:03:09Z</time>
      </trkpt>
      <trkpt lat="45.37609" lon="7.04335">
        <ele>2060.28</ele>
        <time>2018-09-09T12:03:11Z</time>
      </trkpt>
      <trkpt lat="45.37621" lon="7.04375">
        <ele>2063.26</ele>
        <time>2018-09-09T12:03:13Z</time>
      </trkpt>
      <trkpt lat="45.37637" lon="7.04416">
        <ele>2066.47</ele>
        <time>2018-09-09T12:03:15Z</time>
      </trkpt>
      <trkpt lat="45.3765" lon="7.04453">
        <ele>2070.19</ele>
        <time>2018-09-09T12:03:17Z</time>
      </trkpt>
      <trkpt lat="45.37658" lon="7.04479">
        <ele>2072.88</ele>
        <time>2018-09-09T12:03:20Z</time>
      </trkpt>
      <trkpt lat="45.37676" lon="7.04505">
        <ele>2074.69</ele>
        <time>2018-09-09T12:03:35Z</time>
      </trkpt>
      <trkpt lat="45.37688" lon="7.04531">
        <ele>2075.69</ele>
        <time>2018-09-09T12:03:37Z</time>
      </trkpt>
      <trkpt lat="45.37695" lon="7.04565">
        <ele>2078.3</ele>
        <time>2018-09-09T12:03:39Z</time>
      </trkpt>
      <trkpt lat="45.37703" lon="7.04601">
        <ele>2080.56</ele>
        <time>2018-09-09T12:03:41Z</time>
      </trkpt>
      <trkpt lat="45.37713" lon="7.04636">
        <ele>2083.49</ele>
        <time>2018-09-09T12:03:43Z</time>
      </trkpt>
      <trkpt lat="45.37726" lon="7.04671">
        <ele>2086.49</ele>
        <time>2018-09-09T12:03:45Z</time>
      </trkpt>
      <trkpt lat="45.37735" lon="7.04708">
        <ele>2089.28</ele>
        <time>2018-09-09T12:03:47Z</time>
      </trkpt>
      <trkpt lat="45.37745" lon="7.04743">
        <ele>2091.35</ele>
        <time>2018-09-09T12:03:49Z</time>
      </trkpt>
      <trkpt lat="45.3776" lon="7.04774">
        <ele>2093.56</ele>
        <time>2018-09-09T12:03:51Z</time>
      </trkpt>
      <trkpt lat="45.37774" lon="7.04807">
        <ele>2095.79</ele>
        <time>2018-09-09T12:03:53Z</time>
      </trkpt>
      <trkpt lat="45.37786" lon="7.04841">
        <ele>2099.43</ele>
        <time>2018-09-09T12:03:55Z</time>
      </trkpt>
      <trkpt lat="45.37807" lon="7.04869">
        <ele>2101.78</ele>
        <time>2018-09-09T12:03:57Z</time>
      </trkpt>
      <trkpt lat="45.37829" lon="7.049">
        <ele>2105.21</ele>
        <time>2018-09-09T12:03:59Z</time>
      </trkpt>
      <trkpt lat="45.37851" lon="7.04931">
        <ele>2108.25</ele>
        <time>2018-09-09T12:04:01Z</time>
      </trkpt>
      <trkpt lat="45.3787" lon="7.04961">
        <ele>2110.56</ele>
        <time>2018-09-09T12:04:03Z</time>
      </trkpt>
      <trkpt lat="45.37891" lon="7.04982">
        <ele>2112.58</ele>
        <time>2018-09-09T12:04:05Z</time>
      </trkpt>
      <trkpt lat="45.37912" lon="7.04997">
        <ele>2114.59</ele>
        <time>2018-09-09T12:04:07Z</time>
      </trkpt>
      <trkpt lat="45.37935" lon="7.05006">
        <ele>2116.8</ele>
        <time>2018-09-09T12:04:09Z</time>
      </trkpt>
      <trkpt lat="45.37958" lon="7.05012">
        <ele>2117.91</ele>
        <time>2018-09-09T12:04:11Z</time>
      </trkpt>
      <trkpt lat="45.37982" lon="7.05015">
        <ele>2118.92</ele>
        <time>2018-09-09T12:04:13Z</time>
      </trkpt>
      <trkpt lat="45.38009" lon="7.05007">
        <ele>2119.71</ele>
        <time>2018-09-09T12:04:15Z</time>
      </trkpt>
      <trkpt lat="45.38031" lon="7.04999">
        <ele>2119.99</ele>
        <time>2018-09-09T12:04:17Z</time>
      </trkpt>
      <trkpt lat="45.38051" lon="7.04995">
        <ele>2120.71</ele>
        <time>2018-09-09T12:04:19Z</time>
      </trkpt>
      <trkpt lat="45.3807" lon="7.04983">
        <ele>2120.08</ele>
        <time>2018-09-09T12:04:21Z</time>
      </trkpt>
      <trkpt lat="45.38081" lon="7.0496">
        <ele>2119.32</ele>
        <time>2018-09-09T12:04:23Z</time>
      </trkpt>
      <trkpt lat="45.38083" lon="7.04925">
        <ele>2119.95</ele>
        <time>2018-09-09T12:04:25Z</time>
      </trkpt>
      <trkpt lat="45.381" lon="7.04894">
        <ele>2120.71</ele>
        <time>2018-09-09T12:04:27Z</time>
      </trkpt>
      <trkpt lat="45.38119" lon="7.04862">
        <ele>2120.99</ele>
        <time>2018-09-09T12:04:29Z</time>
      </trkpt>
      <trkpt lat="45.38127" lon="7.04831">
        <ele>2120.8</ele>
        <time>2018-09-09T12:04:31Z</time>
      </trkpt>
      <trkpt lat="45.3813" lon="7.04788">
        <ele>2120.09</ele>
        <time>2018-09-09T12:04:33Z</time>
      </trkpt>
      <trkpt lat="45.3814" lon="7.04744">
        <ele>2120.93</ele>
        <time>2018-09-09T12:04:35Z</time>
      </trkpt>
      <trkpt lat="45.38154" lon="7.04705">
        <ele>2122.41</ele>
        <time>2018-09-09T12:04:37Z</time>
      </trkpt>
      <trkpt lat="45.38171" lon="7.04674">
        <ele>2122.96</ele>
        <time>2018-09-09T12:04:39Z</time>
      </trkpt>
      <trkpt lat="45.38204" lon="7.04655">
        <ele>2123.71</ele>
        <time>2018-09-09T12:04:41Z</time>
      </trkpt>
      <trkpt lat="45.38236" lon="7.04639">
        <ele>2125.6</ele>
        <time>2018-09-09T12:04:43Z</time>
      </trkpt>
      <trkpt lat="45.38262" lon="7.04622">
        <ele>2126.89</ele>
        <time>2018-09-09T12:04:45Z</time>
      </trkpt>
      <trkpt lat="45.38287" lon="7.04598">
        <ele>2127.7</ele>
        <time>2018-09-09T12:04:47Z</time>
      </trkpt>
      <trkpt lat="45.38289" lon="7.04567">
        <ele>2127.92</ele>
        <time>2018-09-09T12:04:48Z</time>
      </trkpt>
      <trkpt lat="45.38308" lon="7.04525">
        <ele>2128.71</ele>
        <time>2018-09-09T12:04:50Z</time>
      </trkpt>
      <trkpt lat="45.3832" lon="7.04505">
        <ele>2128.92</ele>
        <time>2018-09-09T12:04:51Z</time>
      </trkpt>
      <trkpt lat="45.38346" lon="7.04473">
        <ele>2129.71</ele>
        <time>2018-09-09T12:04:53Z</time>
      </trkpt>
      <trkpt lat="45.3837" lon="7.04437">
        <ele>2129.99</ele>
        <time>2018-09-09T12:04:55Z</time>
      </trkpt>
      <trkpt lat="45.3839" lon="7.04397">
        <ele>2130.92</ele>
        <time>2018-09-09T12:04:57Z</time>
      </trkpt>
      <trkpt lat="45.38408" lon="7.04359">
        <ele>2131.92</ele>
        <time>2018-09-09T12:04:59Z</time>
      </trkpt>
      <trkpt lat="45.38426" lon="7.04327">
        <ele>2132.71</ele>
        <time>2018-09-09T12:05:01Z</time>
      </trkpt>
      <trkpt lat="45.38441" lon="7.04302">
        <ele>2133.9</ele>
        <time>2018-09-09T12:05:03Z</time>
      </trkpt>
      <trkpt lat="45.38455" lon="7.04279">
        <ele>2135.61</ele>
        <time>2018-09-09T12:05:05Z</time>
      </trkpt>
      <trkpt lat="45.38472" lon="7.04265">
        <ele>2135.98</ele>
        <time>2018-09-09T12:05:07Z</time>
      </trkpt>
      <trkpt lat="45.38491" lon="7.0427">
        <ele>2136.71</ele>
        <time>2018-09-09T12:05:09Z</time>
      </trkpt>
      <trkpt lat="45.38511" lon="7.04281">
        <ele>2137.69</ele>
        <time>2018-09-09T12:05:11Z</time>
      </trkpt>
      <trkpt lat="45.38531" lon="7.04295">
        <ele>2137.99</ele>
        <time>2018-09-09T12:05:13Z</time>
      </trkpt>
      <trkpt lat="45.38546" lon="7.04323">
        <ele>2138.92</ele>
        <time>2018-09-09T12:05:15Z</time>
      </trkpt>
      <trkpt lat="45.38547" lon="7.04361">
        <ele>2140.41</ele>
        <time>2018-09-09T12:05:17Z</time>
      </trkpt>
      <trkpt lat="45.38541" lon="7.04399">
        <ele>2142.36</ele>
        <time>2018-09-09T12:05:19Z</time>
      </trkpt>
      <trkpt lat="45.38536" lon="7.04436">
        <ele>2142.75</ele>
        <time>2018-09-09T12:05:21Z</time>
      </trkpt>
      <trkpt lat="45.38532" lon="7.04472">
        <ele>2145.3</ele>
        <time>2018-09-09T12:05:23Z</time>
      </trkpt>
      <trkpt lat="45.38526" lon="7.04504">
        <ele>2148.26</ele>
        <time>2018-09-09T12:05:25Z</time>
      </trkpt>
      <trkpt lat="45.38518" lon="7.04533">
        <ele>2150.56</ele>
        <time>2018-09-09T12:05:27Z</time>
      </trkpt>
      <trkpt lat="45.38507" lon="7.04556">
        <ele>2153.28</ele>
        <time>2018-09-09T12:05:29Z</time>
      </trkpt>
      <trkpt lat="45.38496" lon="7.0458">
        <ele>2154.98</ele>
        <time>2018-09-09T12:05:33Z</time>
      </trkpt>
      <trkpt lat="45.38511" lon="7.04606">
        <ele>2155.93</ele>
        <time>2018-09-09T12:05:54Z</time>
      </trkpt>
      <trkpt lat="45.38532" lon="7.04605">
        <ele>2157.62</ele>
        <time>2018-09-09T12:05:56Z</time>
      </trkpt>
      <trkpt lat="45.38557" lon="7.04594">
        <ele>2159.59</ele>
        <time>2018-09-09T12:05:58Z</time>
      </trkpt>
      <trkpt lat="45.38584" lon="7.04573">
        <ele>2162.5</ele>
        <time>2018-09-09T12:06:00Z</time>
      </trkpt>
      <trkpt lat="45.38602" lon="7.04538">
        <ele>2164.79</ele>
        <time>2018-09-09T12:06:02Z</time>
      </trkpt>
      <trkpt lat="45.38625" lon="7.04508">
        <ele>2165.2</ele>
        <time>2018-09-09T12:06:04Z</time>
      </trkpt>
      <trkpt lat="45.38646" lon="7.04496">
        <ele>2166.47</ele>
        <time>2018-09-09T12:06:05Z</time>
      </trkpt>
      <trkpt lat="45.38665" lon="7.04486">
        <ele>2169.65</ele>
        <time>2018-09-09T12:06:06Z</time>
      </trkpt>
      <trkpt lat="45.38683" lon="7.04474">
        <ele>2172.01</ele>
        <time>2018-09-09T12:06:07Z</time>
      </trkpt>
      <trkpt lat="45.38699" lon="7.04459">
        <ele>2174.11</ele>
        <time>2018-09-09T12:06:08Z</time>
      </trkpt>
      <trkpt lat="45.38714" lon="7.04442">
        <ele>2175.44</ele>
        <time>2018-09-09T12:06:09Z</time>
      </trkpt>
      <trkpt lat="45.3873" lon="7.04428">
        <ele>2177.94</ele>
        <time>2018-09-09T12:06:10Z</time>
      </trkpt>
      <trkpt lat="45.38747" lon="7.04414">
        <ele>2179.39</ele>
        <time>2018-09-09T12:06:11Z</time>
      </trkpt>
      <trkpt lat="45.38766" lon="7.04404">
        <ele>2181.23</ele>
        <time>2018-09-09T12:06:12Z</time>
      </trkpt>
      <trkpt lat="45.38785" lon="7.04392">
        <ele>2183.18</ele>
        <time>2018-09-09T12:06:13Z</time>
      </trkpt>
      <trkpt lat="45.38802" lon="7.04379">
        <ele>2184.46</ele>
        <time>2018-09-09T12:06:14Z</time>
      </trkpt>
      <trkpt lat="45.3882" lon="7.04364">
        <ele>2186.25</ele>
        <time>2018-09-09T12:06:15Z</time>
      </trkpt>
      <trkpt lat="45.38837" lon="7.04351">
        <ele>2188.19</ele>
        <time>2018-09-09T12:06:16Z</time>
      </trkpt>
      <trkpt lat="45.38854" lon="7.04336">
        <ele>2190.87</ele>
        <time>2018-09-09T12:06:17Z</time>
      </trkpt>
      <trkpt lat="45.38871" lon="7.04322">
        <ele>2193.07</ele>
        <time>2018-09-09T12:06:18Z</time>
      </trkpt>
      <trkpt lat="45.38886" lon="7.04307">
        <ele>2195.13</ele>
        <time>2018-09-09T12:06:19Z</time>
      </trkpt>
      <trkpt lat="45.38902" lon="7.04292">
        <ele>2197.15</ele>
        <time>2018-09-09T12:06:20Z</time>
      </trkpt>
      <trkpt lat="45.38933" lon="7.04267">
        <ele>2200.46</ele>
        <time>2018-09-09T12:06:22Z</time>
      </trkpt>
      <trkpt lat="45.38967" lon="7.04246">
        <ele>2202.78</ele>
        <time>2018-09-09T12:06:24Z</time>
      </trkpt>
      <trkpt lat="45.38983" lon="7.04234">
        <ele>2204.35</ele>
        <time>2018-09-09T12:06:25Z</time>
      </trkpt>
      <trkpt lat="45.39012" lon="7.04207">
        <ele>2206.35</ele>
        <time>2018-09-09T12:06:27Z</time>
      </trkpt>
      <trkpt lat="45.39045" lon="7.0419">
        <ele>2210.88</ele>
        <time>2018-09-09T12:06:29Z</time>
      </trkpt>
      <trkpt lat="45.39064" lon="7.04185">
        <ele>2213.07</ele>
        <time>2018-09-09T12:06:30Z</time>
      </trkpt>
      <trkpt lat="45.39083" lon="7.04179">
        <ele>2215.83</ele>
        <time>2018-09-09T12:06:31Z</time>
      </trkpt>
      <trkpt lat="45.39103" lon="7.04173">
        <ele>2218.76</ele>
        <time>2018-09-09T12:06:32Z</time>
      </trkpt>
      <trkpt lat="45.39124" lon="7.04167">
        <ele>2221.74</ele>
        <time>2018-09-09T12:06:33Z</time>
      </trkpt>
      <trkpt lat="45.39145" lon="7.0416">
        <ele>2224.03</ele>
        <time>2018-09-09T12:06:34Z</time>
      </trkpt>
      <trkpt lat="45.39165" lon="7.04153">
        <ele>2226.12</ele>
        <time>2018-09-09T12:06:35Z</time>
      </trkpt>
      <trkpt lat="45.39186" lon="7.04145">
        <ele>2227.45</ele>
        <time>2018-09-09T12:06:36Z</time>
      </trkpt>
      <trkpt lat="45.39207" lon="7.04137">
        <ele>2228.54</ele>
        <time>2018-09-09T12:06:37Z</time>
      </trkpt>
      <trkpt lat="45.39225" lon="7.04129">
        <ele>2230.97</ele>
        <time>2018-09-09T12:06:38Z</time>
      </trkpt>
      <trkpt lat="45.39244" lon="7.04121">
        <ele>2232.4</ele>
        <time>2018-09-09T12:06:39Z</time>
      </trkpt>
      <trkpt lat="45.39274" lon="7.04106">
        <ele>2235.27</ele>
        <time>2018-09-09T12:06:41Z</time>
      </trkpt>
      <trkpt lat="45.39297" lon="7.04089">
        <ele>2239.17</ele>
        <time>2018-09-09T12:06:43Z</time>
      </trkpt>
      <trkpt lat="45.39314" lon="7.04066">
        <ele>2240.64</ele>
        <time>2018-09-09T12:06:45Z</time>
      </trkpt>
      <trkpt lat="45.39326" lon="7.04039">
        <ele>2241.68</ele>
        <time>2018-09-09T12:06:47Z</time>
      </trkpt>
      <trkpt lat="45.39345" lon="7.04025">
        <ele>2244.5</ele>
        <time>2018-09-09T12:06:49Z</time>
      </trkpt>
      <trkpt lat="45.39373" lon="7.04018">
        <ele>2247.28</ele>
        <time>2018-09-09T12:06:51Z</time>
      </trkpt>
      <trkpt lat="45.39405" lon="7.04011">
        <ele>2250.26</ele>
        <time>2018-09-09T12:06:53Z</time>
      </trkpt>
      <trkpt lat="45.39441" lon="7.04003">
        <ele>2253.26</ele>
        <time>2018-09-09T12:06:55Z</time>
      </trkpt>
      <trkpt lat="45.3946" lon="7.04">
        <ele>2254.49</ele>
        <time>2018-09-09T12:06:56Z</time>
      </trkpt>
      <trkpt lat="45.39479" lon="7.03998">
        <ele>2256.26</ele>
        <time>2018-09-09T12:06:57Z</time>
      </trkpt>
      <trkpt lat="45.39498" lon="7.03994">
        <ele>2257.49</ele>
        <time>2018-09-09T12:06:58Z</time>
      </trkpt>
      <trkpt lat="45.39517" lon="7.03989">
        <ele>2258.56</ele>
        <time>2018-09-09T12:06:59Z</time>
      </trkpt>
      <trkpt lat="45.39535" lon="7.03984">
        <ele>2259.58</ele>
        <time>2018-09-09T12:07:00Z</time>
      </trkpt>
      <trkpt lat="45.39569" lon="7.0397">
        <ele>2260.68</ele>
        <time>2018-09-09T12:07:02Z</time>
      </trkpt>
      <trkpt lat="45.396" lon="7.03954">
        <ele>2264.41</ele>
        <time>2018-09-09T12:07:04Z</time>
      </trkpt>
      <trkpt lat="45.39631" lon="7.03945">
        <ele>2267.27</ele>
        <time>2018-09-09T12:07:06Z</time>
      </trkpt>
      <trkpt lat="45.39657" lon="7.03943">
        <ele>2269.56</ele>
        <time>2018-09-09T12:07:08Z</time>
      </trkpt>
      <trkpt lat="45.39676" lon="7.03947">
        <ele>2269.97</ele>
        <time>2018-09-09T12:07:10Z</time>
      </trkpt>
      <trkpt lat="45.39663" lon="7.03971">
        <ele>2271.83</ele>
        <time>2018-09-09T12:07:13Z</time>
      </trkpt>
      <trkpt lat="45.39643" lon="7.03975">
        <ele>2272.7</ele>
        <time>2018-09-09T12:07:15Z</time>
      </trkpt>
      <trkpt lat="45.39619" lon="7.03983">
        <ele>2273.9</ele>
        <time>2018-09-09T12:07:17Z</time>
      </trkpt>
      <trkpt lat="45.39591" lon="7.04">
        <ele>2274.91</ele>
        <time>2018-09-09T12:07:19Z</time>
      </trkpt>
      <trkpt lat="45.39562" lon="7.04018">
        <ele>2276.62</ele>
        <time>2018-09-09T12:07:21Z</time>
      </trkpt>
      <trkpt lat="45.39531" lon="7.04036">
        <ele>2278.38</ele>
        <time>2018-09-09T12:07:23Z</time>
      </trkpt>
      <trkpt lat="45.39502" lon="7.04056">
        <ele>2280.57</ele>
        <time>2018-09-09T12:07:25Z</time>
      </trkpt>
      <trkpt lat="45.39474" lon="7.04078">
        <ele>2282.58</ele>
        <time>2018-09-09T12:07:27Z</time>
      </trkpt>
      <trkpt lat="45.39447" lon="7.04102">
        <ele>2285.99</ele>
        <time>2018-09-09T12:07:29Z</time>
      </trkpt>
      <trkpt lat="45.3942" lon="7.04127">
        <ele>2289.44</ele>
        <time>2018-09-09T12:07:31Z</time>
      </trkpt>
      <trkpt lat="45.39395" lon="7.04153">
        <ele>2293.18</ele>
        <time>2018-09-09T12:07:33Z</time>
      </trkpt>
      <trkpt lat="45.3937" lon="7.04178">
        <ele>2297.16</ele>
        <time>2018-09-09T12:07:35Z</time>
      </trkpt>
      <trkpt lat="45.39344" lon="7.04204">
        <ele>2301.16</ele>
        <time>2018-09-09T12:07:37Z</time>
      </trkpt>
      <trkpt lat="45.39321" lon="7.04229">
        <ele>2304.46</ele>
        <time>2018-09-09T12:07:39Z</time>
      </trkpt>
      <trkpt lat="45.39302" lon="7.04251">
        <ele>2307.48</ele>
        <time>2018-09-09T12:07:41Z</time>
      </trkpt>
      <trkpt lat="45.39285" lon="7.04273">
        <ele>2310.49</ele>
        <time>2018-09-09T12:07:43Z</time>
      </trkpt>
      <trkpt lat="45.39262" lon="7.04298">
        <ele>2314.19</ele>
        <time>2018-09-09T12:07:45Z</time>
      </trkpt>
      <trkpt lat="45.39234" lon="7.04321">
        <ele>2318.16</ele>
        <time>2018-09-09T12:07:47Z</time>
      </trkpt>
      <trkpt lat="45.39207" lon="7.04343">
        <ele>2322.16</ele>
        <time>2018-09-09T12:07:49Z</time>
      </trkpt>
      <trkpt lat="45.39182" lon="7.04363">
        <ele>2324.55</ele>
        <time>2018-09-09T12:07:51Z</time>
      </trkpt>
      <trkpt lat="45.39164" lon="7.04397">
        <ele>2329.1</ele>
        <time>2018-09-09T12:07:53Z</time>
      </trkpt>
      <trkpt lat="45.39141" lon="7.04427">
        <ele>2332.94</ele>
        <time>2018-09-09T12:07:55Z</time>
      </trkpt>
      <trkpt lat="45.39117" lon="7.04455">
        <ele>2336.23</ele>
        <time>2018-09-09T12:07:57Z</time>
      </trkpt>
      <trkpt lat="45.39096" lon="7.0449">
        <ele>2340.86</ele>
        <time>2018-09-09T12:07:59Z</time>
      </trkpt>
      <trkpt lat="45.39075" lon="7.04525">
        <ele>2345.13</ele>
        <time>2018-09-09T12:08:01Z</time>
      </trkpt>
      <trkpt lat="45.39053" lon="7.04559">
        <ele>2349.25</ele>
        <time>2018-09-09T12:08:03Z</time>
      </trkpt>
      <trkpt lat="45.39028" lon="7.0459">
        <ele>2353.87</ele>
        <time>2018-09-09T12:08:05Z</time>
      </trkpt>
      <trkpt lat="45.39006" lon="7.04624">
        <ele>2358.13</ele>
        <time>2018-09-09T12:08:07Z</time>
      </trkpt>
      <trkpt lat="45.38985" lon="7.04656">
        <ele>2362.16</ele>
        <time>2018-09-09T12:08:09Z</time>
      </trkpt>
      <trkpt lat="45.38967" lon="7.04679">
        <ele>2364.55</ele>
        <time>2018-09-09T12:08:11Z</time>
      </trkpt>
      <trkpt lat="45.38955" lon="7.04699">
        <ele>2369.01</ele>
        <time>2018-09-09T12:08:34Z</time>
      </trkpt>
      <trkpt lat="45.38965" lon="7.04721">
        <ele>2370.92</ele>
        <time>2018-09-09T12:08:38Z</time>
      </trkpt>
      <trkpt lat="45.38985" lon="7.04742">
        <ele>2371.99</ele>
        <time>2018-09-09T12:08:41Z</time>
      </trkpt>
      <trkpt lat="45.39004" lon="7.04752">
        <ele>2372.92</ele>
        <time>2018-09-09T12:08:43Z</time>
      </trkpt>
      <trkpt lat="45.39028" lon="7.04754">
        <ele>2374.62</ele>
        <time>2018-09-09T12:08:45Z</time>
      </trkpt>
      <trkpt lat="45.39056" lon="7.04737">
        <ele>2375.68</ele>
        <time>2018-09-09T12:08:47Z</time>
      </trkpt>
      <trkpt lat="45.39068" lon="7.04716">
        <ele>2378.01</ele>
        <time>2018-09-09T12:08:48Z</time>
      </trkpt>
      <trkpt lat="45.39091" lon="7.04679">
        <ele>2381.44</ele>
        <time>2018-09-09T12:08:50Z</time>
      </trkpt>
      <trkpt lat="45.39112" lon="7.04649">
        <ele>2385.39</ele>
        <time>2018-09-09T12:08:52Z</time>
      </trkpt>
      <trkpt lat="45.39136" lon="7.04626">
        <ele>2387.57</ele>
        <time>2018-09-09T12:08:54Z</time>
      </trkpt>
      <trkpt lat="45.39164" lon="7.04614">
        <ele>2390.07</ele>
        <time>2018-09-09T12:08:56Z</time>
      </trkpt>
      <trkpt lat="45.39191" lon="7.04607">
        <ele>2393.94</ele>
        <time>2018-09-09T12:08:58Z</time>
      </trkpt>
      <trkpt lat="45.39215" lon="7.04586">
        <ele>2396.53</ele>
        <time>2018-09-09T12:09:00Z</time>
      </trkpt>
      <trkpt lat="45.39235" lon="7.04555">
        <ele>2398.37</ele>
        <time>2018-09-09T12:09:02Z</time>
      </trkpt>
      <trkpt lat="45.39256" lon="7.04532">
        <ele>2400.36</ele>
        <time>2018-09-09T12:09:04Z</time>
      </trkpt>
      <trkpt lat="45.39283" lon="7.04515">
        <ele>2404.18</ele>
        <time>2018-09-09T12:09:06Z</time>
      </trkpt>
      <trkpt lat="45.39314" lon="7.04488">
        <ele>2407.25</ele>
        <time>2018-09-09T12:09:08Z</time>
      </trkpt>
      <trkpt lat="45.3934" lon="7.04456">
        <ele>2410.47</ele>
        <time>2018-09-09T12:09:10Z</time>
      </trkpt>
      <trkpt lat="45.3937" lon="7.04434">
        <ele>2414.19</ele>
        <time>2018-09-09T12:09:12Z</time>
      </trkpt>
      <trkpt lat="45.39402" lon="7.04415">
        <ele>2417.46</ele>
        <time>2018-09-09T12:09:14Z</time>
      </trkpt>
      <trkpt lat="45.39433" lon="7.04408">
        <ele>2421.19</ele>
        <time>2018-09-09T12:09:16Z</time>
      </trkpt>
      <trkpt lat="45.39462" lon="7.04393">
        <ele>2423.55</ele>
        <time>2018-09-09T12:09:18Z</time>
      </trkpt>
      <trkpt lat="45.39489" lon="7.0437">
        <ele>2424.88</ele>
        <time>2018-09-09T12:09:20Z</time>
      </trkpt>
      <trkpt lat="45.39512" lon="7.04336">
        <ele>2427.1</ele>
        <time>2018-09-09T12:09:22Z</time>
      </trkpt>
      <trkpt lat="45.39533" lon="7.04304">
        <ele>2431.15</ele>
        <time>2018-09-09T12:09:24Z</time>
      </trkpt>
      <trkpt lat="45.39556" lon="7.04281">
        <ele>2434.25</ele>
        <time>2018-09-09T12:09:26Z</time>
      </trkpt>
      <trkpt lat="45.39586" lon="7.04271">
        <ele>2438.17</ele>
        <time>2018-09-09T12:09:28Z</time>
      </trkpt>
      <trkpt lat="45.3962" lon="7.04264">
        <ele>2440.55</ele>
        <time>2018-09-09T12:09:30Z</time>
      </trkpt>
      <trkpt lat="45.39654" lon="7.04261">
        <ele>2444.4</ele>
        <time>2018-09-09T12:09:32Z</time>
      </trkpt>
      <trkpt lat="45.3969" lon="7.04265">
        <ele>2448.18</ele>
        <time>2018-09-09T12:09:34Z</time>
      </trkpt>
      <trkpt lat="45.39708" lon="7.04269">
        <ele>2449.46</ele>
        <time>2018-09-09T12:09:35Z</time>
      </trkpt>
      <trkpt lat="45.39743" lon="7.04284">
        <ele>2453.4</ele>
        <time>2018-09-09T12:09:37Z</time>
      </trkpt>
      <trkpt lat="45.3976" lon="7.04295">
        <ele>2455.23</ele>
        <time>2018-09-09T12:09:38Z</time>
      </trkpt>
      <trkpt lat="45.39777" lon="7.04305">
        <ele>2457.18</ele>
        <time>2018-09-09T12:09:39Z</time>
      </trkpt>
      <trkpt lat="45.39809" lon="7.04316">
        <ele>2461.16</ele>
        <time>2018-09-09T12:09:41Z</time>
      </trkpt>
      <trkpt lat="45.39839" lon="7.04324">
        <ele>2463.55</ele>
        <time>2018-09-09T12:09:43Z</time>
      </trkpt>
      <trkpt lat="45.39864" lon="7.04336">
        <ele>2466.49</ele>
        <time>2018-09-09T12:09:45Z</time>
      </trkpt>
      <trkpt lat="45.39889" lon="7.04345">
        <ele>2468.58</ele>
        <time>2018-09-09T12:09:47Z</time>
      </trkpt>
      <trkpt lat="45.39915" lon="7.04345">
        <ele>2470.59</ele>
        <time>2018-09-09T12:09:49Z</time>
      </trkpt>
      <trkpt lat="45.3994" lon="7.0433">
        <ele>2471.89</ele>
        <time>2018-09-09T12:09:51Z</time>
      </trkpt>
      <trkpt lat="45.39963" lon="7.04297">
        <ele>2472.7</ele>
        <time>2018-09-09T12:09:53Z</time>
      </trkpt>
      <trkpt lat="45.39982" lon="7.04265">
        <ele>2473.9</ele>
        <time>2018-09-09T12:09:55Z</time>
      </trkpt>
      <trkpt lat="45.40007" lon="7.04247">
        <ele>2474.7</ele>
        <time>2018-09-09T12:09:57Z</time>
      </trkpt>
      <trkpt lat="45.40035" lon="7.04228">
        <ele>2476.6</ele>
        <time>2018-09-09T12:09:59Z</time>
      </trkpt>
      <trkpt lat="45.40053" lon="7.0419">
        <ele>2477.89</ele>
        <time>2018-09-09T12:10:01Z</time>
      </trkpt>
      <trkpt lat="45.40065" lon="7.04143">
        <ele>2478.7</ele>
        <time>2018-09-09T12:10:03Z</time>
      </trkpt>
      <trkpt lat="45.40065" lon="7.04115">
        <ele>2478.92</ele>
        <time>2018-09-09T12:10:04Z</time>
      </trkpt>
      <trkpt lat="45.40067" lon="7.04089">
        <ele>2479.69</ele>
        <time>2018-09-09T12:10:05Z</time>
      </trkpt>
      <trkpt lat="45.40072" lon="7.04064">
        <ele>2479.92</ele>
        <time>2018-09-09T12:10:06Z</time>
      </trkpt>
      <trkpt lat="45.40081" lon="7.0402">
        <ele>2481.62</ele>
        <time>2018-09-09T12:10:08Z</time>
      </trkpt>
      <trkpt lat="45.40087" lon="7.03981">
        <ele>2482.89</ele>
        <time>2018-09-09T12:10:10Z</time>
      </trkpt>
      <trkpt lat="45.40099" lon="7.03949">
        <ele>2483</ele>
        <time>2018-09-09T12:10:12Z</time>
      </trkpt>
      <trkpt lat="45.40102" lon="7.0391">
        <ele>2483.71</ele>
        <time>2018-09-09T12:10:14Z</time>
      </trkpt>
      <trkpt lat="45.40103" lon="7.03879">
        <ele>2485.6</ele>
        <time>2018-09-09T12:10:16Z</time>
      </trkpt>
      <trkpt lat="45.40114" lon="7.03848">
        <ele>2486.68</ele>
        <time>2018-09-09T12:10:18Z</time>
      </trkpt>
      <trkpt lat="45.40124" lon="7.03813">
        <ele>2487.68</ele>
        <time>2018-09-09T12:10:20Z</time>
      </trkpt>
      <trkpt lat="45.4014" lon="7.03786">
        <ele>2487.08</ele>
        <time>2018-09-09T12:10:22Z</time>
      </trkpt>
      <trkpt lat="45.40155" lon="7.03767">
        <ele>2488.84</ele>
        <time>2018-09-09T12:10:24Z</time>
      </trkpt>
      <trkpt lat="45.40168" lon="7.03747">
        <ele>2489.91</ele>
        <time>2018-09-09T12:10:26Z</time>
      </trkpt>
      <trkpt lat="45.40158" lon="7.03663">
        <ele>2489.98</ele>
        <time>2018-09-09T12:10:30Z</time>
      </trkpt>
      <trkpt lat="45.40157" lon="7.03628">
        <ele>2492.53</ele>
        <time>2018-09-09T12:10:32Z</time>
      </trkpt>
      <trkpt lat="45.40173" lon="7.03604">
        <ele>2493.91</ele>
        <time>2018-09-09T12:10:35Z</time>
      </trkpt>
      <trkpt lat="45.40192" lon="7.03588">
        <ele>2496.32</ele>
        <time>2018-09-09T12:10:37Z</time>
      </trkpt>
      <trkpt lat="45.40215" lon="7.03566">
        <ele>2496.95</ele>
        <time>2018-09-09T12:10:39Z</time>
      </trkpt>
      <trkpt lat="45.4024" lon="7.0354">
        <ele>2497.92</ele>
        <time>2018-09-09T12:10:41Z</time>
      </trkpt>
      <trkpt lat="45.40258" lon="7.03507">
        <ele>2498.92</ele>
        <time>2018-09-09T12:10:43Z</time>
      </trkpt>
      <trkpt lat="45.40268" lon="7.03464">
        <ele>2499.92</ele>
        <time>2018-09-09T12:10:45Z</time>
      </trkpt>
      <trkpt lat="45.40279" lon="7.03417">
        <ele>2500.92</ele>
        <time>2018-09-09T12:10:47Z</time>
      </trkpt>
      <trkpt lat="45.40291" lon="7.03374">
        <ele>2501.01</ele>
        <time>2018-09-09T12:10:49Z</time>
      </trkpt>
      <trkpt lat="45.40303" lon="7.03334">
        <ele>2501.71</ele>
        <time>2018-09-09T12:10:51Z</time>
      </trkpt>
      <trkpt lat="45.40321" lon="7.033">
        <ele>2502.69</ele>
        <time>2018-09-09T12:10:53Z</time>
      </trkpt>
      <trkpt lat="45.40346" lon="7.03272">
        <ele>2503.9</ele>
        <time>2018-09-09T12:10:55Z</time>
      </trkpt>
      <trkpt lat="45.40375" lon="7.03248">
        <ele>2505.61</ele>
        <time>2018-09-09T12:10:57Z</time>
      </trkpt>
      <trkpt lat="45.40404" lon="7.03225">
        <ele>2506.68</ele>
        <time>2018-09-09T12:10:59Z</time>
      </trkpt>
      <trkpt lat="45.40431" lon="7.03212">
        <ele>2508.8</ele>
        <time>2018-09-09T12:11:01Z</time>
      </trkpt>
      <trkpt lat="45.40452" lon="7.03182">
        <ele>2511.52</ele>
        <time>2018-09-09T12:11:03Z</time>
      </trkpt>
      <trkpt lat="45.4047" lon="7.03145">
        <ele>2515.89</ele>
        <time>2018-09-09T12:11:05Z</time>
      </trkpt>
      <trkpt lat="45.40483" lon="7.03106">
        <ele>2517.61</ele>
        <time>2018-09-09T12:11:07Z</time>
      </trkpt>
      <trkpt lat="45.40478" lon="7.03069">
        <ele>2520.5</ele>
        <time>2018-09-09T12:11:09Z</time>
      </trkpt>
      <trkpt lat="45.40477" lon="7.03038">
        <ele>2521.88</ele>
        <time>2018-09-09T12:11:11Z</time>
      </trkpt>
      <trkpt lat="45.40487" lon="7.0301">
        <ele>2522.91</ele>
        <time>2018-09-09T12:11:13Z</time>
      </trkpt>
      <trkpt lat="45.40508" lon="7.0298">
        <ele>2523.01</ele>
        <time>2018-09-09T12:11:15Z</time>
      </trkpt>
      <trkpt lat="45.40528" lon="7.0295">
        <ele>2523.71</ele>
        <time>2018-09-09T12:11:17Z</time>
      </trkpt>
      <trkpt lat="45.40552" lon="7.02926">
        <ele>2524.69</ele>
        <time>2018-09-09T12:11:19Z</time>
      </trkpt>
      <trkpt lat="45.40577" lon="7.0291">
        <ele>2525.69</ele>
        <time>2018-09-09T12:11:21Z</time>
      </trkpt>
      <trkpt lat="45.40596" lon="7.02895">
        <ele>2528.3</ele>
        <time>2018-09-09T12:11:23Z</time>
      </trkpt>
      <trkpt lat="45.40609" lon="7.02871">
        <ele>2527.34</ele>
        <time>2018-09-09T12:11:25Z</time>
      </trkpt>
      <trkpt lat="45.40621" lon="7.0284">
        <ele>2527.74</ele>
        <time>2018-09-09T12:11:27Z</time>
      </trkpt>
      <trkpt lat="45.40633" lon="7.02811">
        <ele>2528.9</ele>
        <time>2018-09-09T12:11:29Z</time>
      </trkpt>
      <trkpt lat="45.40646" lon="7.02789">
        <ele>2529.91</ele>
        <time>2018-09-09T12:11:31Z</time>
      </trkpt>
      <trkpt lat="45.40669" lon="7.02774">
        <ele>2532.6</ele>
        <time>2018-09-09T12:11:34Z</time>
      </trkpt>
      <trkpt lat="45.40694" lon="7.0277">
        <ele>2533.7</ele>
        <time>2018-09-09T12:11:37Z</time>
      </trkpt>
      <trkpt lat="45.40715" lon="7.02774">
        <ele>2534.9</ele>
        <time>2018-09-09T12:11:39Z</time>
      </trkpt>
      <trkpt lat="45.40737" lon="7.02781">
        <ele>2537.31</ele>
        <time>2018-09-09T12:11:41Z</time>
      </trkpt>
      <trkpt lat="45.40765" lon="7.0278">
        <ele>2539.35</ele>
        <time>2018-09-09T12:11:43Z</time>
      </trkpt>
      <trkpt lat="45.40796" lon="7.02778">
        <ele>2542.27</ele>
        <time>2018-09-09T12:11:45Z</time>
      </trkpt>
      <trkpt lat="45.40824" lon="7.02786">
        <ele>2545.26</ele>
        <time>2018-09-09T12:11:47Z</time>
      </trkpt>
      <trkpt lat="45.40852" lon="7.02796">
        <ele>2548.47</ele>
        <time>2018-09-09T12:11:49Z</time>
      </trkpt>
      <trkpt lat="45.40883" lon="7.02797">
        <ele>2551.28</ele>
        <time>2018-09-09T12:11:51Z</time>
      </trkpt>
      <trkpt lat="45.40913" lon="7.02775">
        <ele>2555.17</ele>
        <time>2018-09-09T12:11:53Z</time>
      </trkpt>
      <trkpt lat="45.40942" lon="7.02758">
        <ele>2558.25</ele>
        <time>2018-09-09T12:11:55Z</time>
      </trkpt>
      <trkpt lat="45.40973" lon="7.02758">
        <ele>2561.47</ele>
        <time>2018-09-09T12:11:57Z</time>
      </trkpt>
      <trkpt lat="45.41003" lon="7.02771">
        <ele>2566.31</ele>
        <time>2018-09-09T12:11:59Z</time>
      </trkpt>
      <trkpt lat="45.4103" lon="7.02796">
        <ele>2570.38</ele>
        <time>2018-09-09T12:12:01Z</time>
      </trkpt>
      <trkpt lat="45.41054" lon="7.02827">
        <ele>2573.48</ele>
        <time>2018-09-09T12:12:03Z</time>
      </trkpt>
      <trkpt lat="45.41078" lon="7.02859">
        <ele>2578.1</ele>
        <time>2018-09-09T12:12:05Z</time>
      </trkpt>
      <trkpt lat="45.41104" lon="7.0289">
        <ele>2581.45</ele>
        <time>2018-09-09T12:12:07Z</time>
      </trkpt>
      <trkpt lat="45.41132" lon="7.02914">
        <ele>2585.88</ele>
        <time>2018-09-09T12:12:09Z</time>
      </trkpt>
      <trkpt lat="45.41165" lon="7.02928">
        <ele>2590.13</ele>
        <time>2018-09-09T12:12:11Z</time>
      </trkpt>
      <trkpt lat="45.41198" lon="7.02944">
        <ele>2594.16</ele>
        <time>2018-09-09T12:12:13Z</time>
      </trkpt>
      <trkpt lat="45.41232" lon="7.02962">
        <ele>2598.16</ele>
        <time>2018-09-09T12:12:15Z</time>
      </trkpt>
      <trkpt lat="45.41249" lon="7.02972">
        <ele>2600.16</ele>
        <time>2018-09-09T12:12:16Z</time>
      </trkpt>
      <trkpt lat="45.4128" lon="7.02996">
        <ele>2604.16</ele>
        <time>2018-09-09T12:12:18Z</time>
      </trkpt>
      <trkpt lat="45.41296" lon="7.0301">
        <ele>2606.86</ele>
        <time>2018-09-09T12:12:19Z</time>
      </trkpt>
      <trkpt lat="45.41311" lon="7.03024">
        <ele>2609.07</ele>
        <time>2018-09-09T12:12:20Z</time>
      </trkpt>
      <trkpt lat="45.41325" lon="7.0304">
        <ele>2611.13</ele>
        <time>2018-09-09T12:12:21Z</time>
      </trkpt>
      <trkpt lat="45.41338" lon="7.03059">
        <ele>2613.15</ele>
        <time>2018-09-09T12:12:22Z</time>
      </trkpt>
      <trkpt lat="45.41362" lon="7.03098">
        <ele>2617.16</ele>
        <time>2018-09-09T12:12:24Z</time>
      </trkpt>
      <trkpt lat="45.41373" lon="7.03119">
        <ele>2619.16</ele>
        <time>2018-09-09T12:12:25Z</time>
      </trkpt>
      <trkpt lat="45.41384" lon="7.0314">
        <ele>2621.16</ele>
        <time>2018-09-09T12:12:26Z</time>
      </trkpt>
      <trkpt lat="45.41396" lon="7.03161">
        <ele>2623.16</ele>
        <time>2018-09-09T12:12:27Z</time>
      </trkpt>
      <trkpt lat="45.41408" lon="7.03181">
        <ele>2625.16</ele>
        <time>2018-09-09T12:12:28Z</time>
      </trkpt>
      <trkpt lat="45.4142" lon="7.03201">
        <ele>2627.86</ele>
        <time>2018-09-09T12:12:29Z</time>
      </trkpt>
      <trkpt lat="45.41444" lon="7.03237">
        <ele>2631.22</ele>
        <time>2018-09-09T12:12:31Z</time>
      </trkpt>
      <trkpt lat="45.41473" lon="7.03263">
        <ele>2635.16</ele>
        <time>2018-09-09T12:12:33Z</time>
      </trkpt>
      <trkpt lat="45.41502" lon="7.03284">
        <ele>2639.37</ele>
        <time>2018-09-09T12:12:35Z</time>
      </trkpt>
      <trkpt lat="45.41527" lon="7.03309">
        <ele>2642.48</ele>
        <time>2018-09-09T12:12:37Z</time>
      </trkpt>
      <trkpt lat="45.41543" lon="7.03335">
        <ele>2645.49</ele>
        <time>2018-09-09T12:12:39Z</time>
      </trkpt>
      <trkpt lat="45.41564" lon="7.03355">
        <ele>2648.28</ele>
        <time>2018-09-09T12:12:41Z</time>
      </trkpt>
      <trkpt lat="45.41592" lon="7.03375">
        <ele>2652.17</ele>
        <time>2018-09-09T12:12:43Z</time>
      </trkpt>
      <trkpt lat="45.41624" lon="7.03393">
        <ele>2655.46</ele>
        <time>2018-09-09T12:12:45Z</time>
      </trkpt>
      <trkpt lat="45.41658" lon="7.0341">
        <ele>2658.48</ele>
        <time>2018-09-09T12:12:47Z</time>
      </trkpt>
      <trkpt lat="45.41685" lon="7.03441">
        <ele>2661.28</ele>
        <time>2018-09-09T12:12:49Z</time>
      </trkpt>
      <trkpt lat="45.41708" lon="7.03477">
        <ele>2665.38</ele>
        <time>2018-09-09T12:12:51Z</time>
      </trkpt>
      <trkpt lat="45.41737" lon="7.03502">
        <ele>2669.39</ele>
        <time>2018-09-09T12:12:53Z</time>
      </trkpt>
      <trkpt lat="45.41771" lon="7.03514">
        <ele>2672.48</ele>
        <time>2018-09-09T12:12:55Z</time>
      </trkpt>
      <trkpt lat="45.41807" lon="7.03519">
        <ele>2675.49</ele>
        <time>2018-09-09T12:12:57Z</time>
      </trkpt>
      <trkpt lat="45.41824" lon="7.03533">
        <ele>2678.66</ele>
        <time>2018-09-09T12:12:58Z</time>
      </trkpt>
      <trkpt lat="45.41841" lon="7.03547">
        <ele>2681.01</ele>
        <time>2018-09-09T12:12:59Z</time>
      </trkpt>
      <trkpt lat="45.41857" lon="7.03562">
        <ele>2682.41</ele>
        <time>2018-09-09T12:13:00Z</time>
      </trkpt>
      <trkpt lat="45.41871" lon="7.03578">
        <ele>2684.93</ele>
        <time>2018-09-09T12:13:01Z</time>
      </trkpt>
      <trkpt lat="45.41886" lon="7.03594">
        <ele>2687.09</ele>
        <time>2018-09-09T12:13:02Z</time>
      </trkpt>
      <trkpt lat="45.419" lon="7.03609">
        <ele>2688.44</ele>
        <time>2018-09-09T12:13:03Z</time>
      </trkpt>
      <trkpt lat="45.41929" lon="7.03633">
        <ele>2692.18</ele>
        <time>2018-09-09T12:13:05Z</time>
      </trkpt>
      <trkpt lat="45.41961" lon="7.0365">
        <ele>2696.86</ele>
        <time>2018-09-09T12:13:07Z</time>
      </trkpt>
      <trkpt lat="45.41993" lon="7.0367">
        <ele>2701.34</ele>
        <time>2018-09-09T12:13:09Z</time>
      </trkpt>
      <trkpt lat="45.42021" lon="7.03699">
        <ele>2704.47</ele>
        <time>2018-09-09T12:13:11Z</time>
      </trkpt>
      <trkpt lat="45.42041" lon="7.0373">
        <ele>2707.49</ele>
        <time>2018-09-09T12:13:13Z</time>
      </trkpt>
      <trkpt lat="45.42057" lon="7.03756">
        <ele>2708.88</ele>
        <time>2018-09-09T12:13:15Z</time>
      </trkpt>
      <trkpt lat="45.4208" lon="7.03757">
        <ele>2709.35</ele>
        <time>2018-09-09T12:13:18Z</time>
      </trkpt>
      <trkpt lat="45.42066" lon="7.03729">
        <ele>2710.51</ele>
        <time>2018-09-09T12:13:19Z</time>
      </trkpt>
      <trkpt lat="45.42047" lon="7.03698">
        <ele>2712.58</ele>
        <time>2018-09-09T12:13:21Z</time>
      </trkpt>
      <trkpt lat="45.42021" lon="7.03667">
        <ele>2714.59</ele>
        <time>2018-09-09T12:13:23Z</time>
      </trkpt>
      <trkpt lat="45.41994" lon="7.03634">
        <ele>2717.5</ele>
        <time>2018-09-09T12:13:25Z</time>
      </trkpt>
      <trkpt lat="45.41981" lon="7.03615">
        <ele>2718.56</ele>
        <time>2018-09-09T12:13:26Z</time>
      </trkpt>
      <trkpt lat="45.41968" lon="7.03595">
        <ele>2720.28</ele>
        <time>2018-09-09T12:13:27Z</time>
      </trkpt>
      <trkpt lat="45.41955" lon="7.03574">
        <ele>2722.89</ele>
        <time>2018-09-09T12:13:28Z</time>
      </trkpt>
      <trkpt lat="45.41942" lon="7.03553">
        <ele>2725.08</ele>
        <time>2018-09-09T12:13:29Z</time>
      </trkpt>
      <trkpt lat="45.41921" lon="7.03517">
        <ele>2729.15</ele>
        <time>2018-09-09T12:13:31Z</time>
      </trkpt>
      <trkpt lat="45.41906" lon="7.03477">
        <ele>2731.55</ele>
        <time>2018-09-09T12:13:33Z</time>
      </trkpt>
      <trkpt lat="45.41898" lon="7.03427">
        <ele>2735.4</ele>
        <time>2018-09-09T12:13:35Z</time>
      </trkpt>
      <trkpt lat="45.41895" lon="7.034">
        <ele>2737.23</ele>
        <time>2018-09-09T12:13:36Z</time>
      </trkpt>
      <trkpt lat="45.41891" lon="7.03373">
        <ele>2738.48</ele>
        <time>2018-09-09T12:13:37Z</time>
      </trkpt>
      <trkpt lat="45.41888" lon="7.03346">
        <ele>2739.55</ele>
        <time>2018-09-09T12:13:38Z</time>
      </trkpt>
      <trkpt lat="45.41878" lon="7.03299">
        <ele>2742.28</ele>
        <time>2018-09-09T12:13:40Z</time>
      </trkpt>
      <trkpt lat="45.41855" lon="7.03268">
        <ele>2746.87</ele>
        <time>2018-09-09T12:13:42Z</time>
      </trkpt>
      <trkpt lat="45.41821" lon="7.03247">
        <ele>2750.43</ele>
        <time>2018-09-09T12:13:44Z</time>
      </trkpt>
      <trkpt lat="45.41803" lon="7.03233">
        <ele>2752.24</ele>
        <time>2018-09-09T12:13:45Z</time>
      </trkpt>
      <trkpt lat="45.41787" lon="7.03219">
        <ele>2754.18</ele>
        <time>2018-09-09T12:13:46Z</time>
      </trkpt>
      <trkpt lat="45.4177" lon="7.03208">
        <ele>2756.17</ele>
        <time>2018-09-09T12:13:47Z</time>
      </trkpt>
      <trkpt lat="45.41752" lon="7.03201">
        <ele>2757.46</ele>
        <time>2018-09-09T12:13:48Z</time>
      </trkpt>
      <trkpt lat="45.41722" lon="7.03192">
        <ele>2759.57</ele>
        <time>2018-09-09T12:13:50Z</time>
      </trkpt>
      <trkpt lat="45.41701" lon="7.03174">
        <ele>2761.8</ele>
        <time>2018-09-09T12:13:52Z</time>
      </trkpt>
      <trkpt lat="45.41696" lon="7.03143">
        <ele>2761.95</ele>
        <time>2018-09-09T12:13:55Z</time>
      </trkpt>
      <trkpt lat="45.417" lon="7.03116">
        <ele>2762.92</ele>
        <time>2018-09-09T12:13:57Z</time>
      </trkpt>
      <trkpt lat="45.41711" lon="7.03087">
        <ele>2762.31</ele>
        <time>2018-09-09T12:14:00Z</time>
      </trkpt>
      <trkpt lat="45.41721" lon="7.03062">
        <ele>2761.1</ele>
        <time>2018-09-09T12:14:23Z</time>
      </trkpt>
      <trkpt lat="45.41739" lon="7.03064">
        <ele>2762.41</ele>
        <time>2018-09-09T12:21:47Z</time>
      </trkpt>
      <trkpt lat="45.41757" lon="7.03057">
        <ele>2761.05</ele>
        <time>2018-09-09T12:21:50Z</time>
      </trkpt>
      <trkpt lat="45.41779" lon="7.03052">
        <ele>2759.34</ele>
        <time>2018-09-09T12:21:53Z</time>
      </trkpt>
      <trkpt lat="45.41804" lon="7.03044">
        <ele>2757.41</ele>
        <time>2018-09-09T12:21:56Z</time>
      </trkpt>
      <trkpt lat="45.41828" lon="7.0303">
        <ele>2755.14</ele>
        <time>2018-09-09T12:21:59Z</time>
      </trkpt>
      <trkpt lat="45.41842" lon="7.03011">
        <ele>2753.21</ele>
        <time>2018-09-09T12:22:01Z</time>
      </trkpt>
      <trkpt lat="45.41854" lon="7.02992">
        <ele>2751.42</ele>
        <time>2018-09-09T12:22:03Z</time>
      </trkpt>
      <trkpt lat="45.41874" lon="7.02971">
        <ele>2748.44</ele>
        <time>2018-09-09T12:22:06Z</time>
      </trkpt>
      <trkpt lat="45.41897" lon="7.02972">
        <ele>2746.42</ele>
        <time>2018-09-09T12:22:09Z</time>
      </trkpt>
      <trkpt lat="45.41915" lon="7.02992">
        <ele>2743.23</ele>
        <time>2018-09-09T12:22:12Z</time>
      </trkpt>
      <trkpt lat="45.41928" lon="7.03016">
        <ele>2742.32</ele>
        <time>2018-09-09T12:22:15Z</time>
      </trkpt>
      <trkpt lat="45.41941" lon="7.02999">
        <ele>2740.32</ele>
        <time>2018-09-09T12:22:20Z</time>
      </trkpt>
      <trkpt lat="45.41932" lon="7.02967">
        <ele>2738.35</ele>
        <time>2018-09-09T12:22:23Z</time>
      </trkpt>
      <trkpt lat="45.41922" lon="7.02943">
        <ele>2735.74</ele>
        <time>2018-09-09T12:22:25Z</time>
      </trkpt>
      <trkpt lat="45.41912" lon="7.0292">
        <ele>2734.38</ele>
        <time>2018-09-09T12:22:27Z</time>
      </trkpt>
      <trkpt lat="45.41893" lon="7.029">
        <ele>2732.35</ele>
        <time>2018-09-09T12:22:30Z</time>
      </trkpt>
      <trkpt lat="45.41874" lon="7.02894">
        <ele>2732.02</ele>
        <time>2018-09-09T12:22:33Z</time>
      </trkpt>
      <trkpt lat="45.41889" lon="7.02874">
        <ele>2731.04</ele>
        <time>2018-09-09T12:22:36Z</time>
      </trkpt>
      <trkpt lat="45.41912" lon="7.02877">
        <ele>2728.92</ele>
        <time>2018-09-09T12:22:38Z</time>
      </trkpt>
      <trkpt lat="45.41937" lon="7.02881">
        <ele>2726.49</ele>
        <time>2018-09-09T12:22:40Z</time>
      </trkpt>
      <trkpt lat="45.41964" lon="7.02884">
        <ele>2724.45</ele>
        <time>2018-09-09T12:22:42Z</time>
      </trkpt>
      <trkpt lat="45.4199" lon="7.02888">
        <ele>2721.53</ele>
        <time>2018-09-09T12:22:44Z</time>
      </trkpt>
      <trkpt lat="45.42015" lon="7.02886">
        <ele>2718.75</ele>
        <time>2018-09-09T12:22:46Z</time>
      </trkpt>
      <trkpt lat="45.42037" lon="7.0287">
        <ele>2717.38</ele>
        <time>2018-09-09T12:22:48Z</time>
      </trkpt>
      <trkpt lat="45.42056" lon="7.02839">
        <ele>2715.23</ele>
        <time>2018-09-09T12:22:50Z</time>
      </trkpt>
      <trkpt lat="45.42069" lon="7.02804">
        <ele>2713.42</ele>
        <time>2018-09-09T12:22:52Z</time>
      </trkpt>
      <trkpt lat="45.4208" lon="7.02772">
        <ele>2711.23</ele>
        <time>2018-09-09T12:22:54Z</time>
      </trkpt>
      <trkpt lat="45.42092" lon="7.0275">
        <ele>2708.72</ele>
        <time>2018-09-09T12:22:56Z</time>
      </trkpt>
      <trkpt lat="45.42117" lon="7.02751">
        <ele>2706.15</ele>
        <time>2018-09-09T12:22:59Z</time>
      </trkpt>
      <trkpt lat="45.42133" lon="7.0277">
        <ele>2704.42</ele>
        <time>2018-09-09T12:23:01Z</time>
      </trkpt>
      <trkpt lat="45.42151" lon="7.02794">
        <ele>2703.35</ele>
        <time>2018-09-09T12:23:03Z</time>
      </trkpt>
      <trkpt lat="45.4217" lon="7.0282">
        <ele>2700.74</ele>
        <time>2018-09-09T12:23:05Z</time>
      </trkpt>
      <trkpt lat="45.42191" lon="7.02847">
        <ele>2697.56</ele>
        <time>2018-09-09T12:23:07Z</time>
      </trkpt>
      <trkpt lat="45.42212" lon="7.02872">
        <ele>2695.45</ele>
        <time>2018-09-09T12:23:09Z</time>
      </trkpt>
      <trkpt lat="45.42234" lon="7.02883">
        <ele>2693.44</ele>
        <time>2018-09-09T12:23:11Z</time>
      </trkpt>
      <trkpt lat="45.42252" lon="7.02874">
        <ele>2689.83</ele>
        <time>2018-09-09T12:23:13Z</time>
      </trkpt>
      <trkpt lat="45.42268" lon="7.02854">
        <ele>2688.18</ele>
        <time>2018-09-09T12:23:15Z</time>
      </trkpt>
      <trkpt lat="45.42282" lon="7.02833">
        <ele>2686.42</ele>
        <time>2018-09-09T12:23:17Z</time>
      </trkpt>
      <trkpt lat="45.42295" lon="7.02813">
        <ele>2684.44</ele>
        <time>2018-09-09T12:23:19Z</time>
      </trkpt>
      <trkpt lat="45.42307" lon="7.02793">
        <ele>2684.05</ele>
        <time>2018-09-09T12:23:21Z</time>
      </trkpt>
      <trkpt lat="45.42316" lon="7.02771">
        <ele>2680.01</ele>
        <time>2018-09-09T12:24:02Z</time>
      </trkpt>
      <trkpt lat="45.42326" lon="7.02746">
        <ele>2679.04</ele>
        <time>2018-09-09T12:24:05Z</time>
      </trkpt>
      <trkpt lat="45.42336" lon="7.02721">
        <ele>2677.41</ele>
        <time>2018-09-09T12:24:07Z</time>
      </trkpt>
      <trkpt lat="45.42344" lon="7.02695">
        <ele>2675.44</ele>
        <time>2018-09-09T12:24:09Z</time>
      </trkpt>
      <trkpt lat="45.42345" lon="7.0267">
        <ele>2674.35</ele>
        <time>2018-09-09T12:24:11Z</time>
      </trkpt>
      <trkpt lat="45.42341" lon="7.02642">
        <ele>2671.74</ele>
        <time>2018-09-09T12:24:13Z</time>
      </trkpt>
      <trkpt lat="45.42341" lon="7.02609">
        <ele>2670.38</ele>
        <time>2018-09-09T12:24:15Z</time>
      </trkpt>
      <trkpt lat="45.4235" lon="7.02575">
        <ele>2667.53</ele>
        <time>2018-09-09T12:24:17Z</time>
      </trkpt>
      <trkpt lat="45.42361" lon="7.02538">
        <ele>2666.36</ele>
        <time>2018-09-09T12:24:19Z</time>
      </trkpt>
      <trkpt lat="45.42371" lon="7.02496">
        <ele>2663.53</ele>
        <time>2018-09-09T12:24:21Z</time>
      </trkpt>
      <trkpt lat="45.4237" lon="7.02449">
        <ele>2660.75</ele>
        <time>2018-09-09T12:24:23Z</time>
      </trkpt>
      <trkpt lat="45.42363" lon="7.02401">
        <ele>2657.77</ele>
        <time>2018-09-09T12:24:25Z</time>
      </trkpt>
      <trkpt lat="45.42363" lon="7.02356">
        <ele>2655.47</ele>
        <time>2018-09-09T12:24:27Z</time>
      </trkpt>
      <trkpt lat="45.42378" lon="7.02316">
        <ele>2652.75</ele>
        <time>2018-09-09T12:24:29Z</time>
      </trkpt>
      <trkpt lat="45.42401" lon="7.02287">
        <ele>2650.68</ele>
        <time>2018-09-09T12:24:31Z</time>
      </trkpt>
      <trkpt lat="45.42435" lon="7.0228">
        <ele>2648.46</ele>
        <time>2018-09-09T12:24:33Z</time>
      </trkpt>
      <trkpt lat="45.4247" lon="7.02273">
        <ele>2646.45</ele>
        <time>2018-09-09T12:24:35Z</time>
      </trkpt>
      <trkpt lat="45.42505" lon="7.02269">
        <ele>2643.53</ele>
        <time>2018-09-09T12:24:37Z</time>
      </trkpt>
      <trkpt lat="45.4254" lon="7.02268">
        <ele>2641.45</ele>
        <time>2018-09-09T12:24:39Z</time>
      </trkpt>
      <trkpt lat="45.42572" lon="7.02271">
        <ele>2638.53</ele>
        <time>2018-09-09T12:24:41Z</time>
      </trkpt>
      <trkpt lat="45.426" lon="7.02266">
        <ele>2635.75</ele>
        <time>2018-09-09T12:24:43Z</time>
      </trkpt>
      <trkpt lat="45.42628" lon="7.02251">
        <ele>2632.77</ele>
        <time>2018-09-09T12:24:45Z</time>
      </trkpt>
      <trkpt lat="45.42655" lon="7.02227">
        <ele>2629.56</ele>
        <time>2018-09-09T12:24:47Z</time>
      </trkpt>
      <trkpt lat="45.42685" lon="7.02207">
        <ele>2626.54</ele>
        <time>2018-09-09T12:24:49Z</time>
      </trkpt>
      <trkpt lat="45.42718" lon="7.02191">
        <ele>2624.45</ele>
        <time>2018-09-09T12:24:51Z</time>
      </trkpt>
      <trkpt lat="45.42736" lon="7.02183">
        <ele>2622.75</ele>
        <time>2018-09-09T12:24:52Z</time>
      </trkpt>
      <trkpt lat="45.4277" lon="7.02168">
        <ele>2621.17</ele>
        <time>2018-09-09T12:24:54Z</time>
      </trkpt>
      <trkpt lat="45.42803" lon="7.02153">
        <ele>2619.42</ele>
        <time>2018-09-09T12:24:56Z</time>
      </trkpt>
      <trkpt lat="45.42834" lon="7.02139">
        <ele>2617.44</ele>
        <time>2018-09-09T12:24:58Z</time>
      </trkpt>
      <trkpt lat="45.42864" lon="7.02126">
        <ele>2614.53</ele>
        <time>2018-09-09T12:25:00Z</time>
      </trkpt>
      <trkpt lat="45.42889" lon="7.02112">
        <ele>2611.54</ele>
        <time>2018-09-09T12:25:02Z</time>
      </trkpt>
      <trkpt lat="45.42907" lon="7.02089">
        <ele>2610.36</ele>
        <time>2018-09-09T12:25:04Z</time>
      </trkpt>
      <trkpt lat="45.42926" lon="7.0206">
        <ele>2608.44</ele>
        <time>2018-09-09T12:25:06Z</time>
      </trkpt>
      <trkpt lat="45.42948" lon="7.02031">
        <ele>2606.44</ele>
        <time>2018-09-09T12:25:08Z</time>
      </trkpt>
      <trkpt lat="45.42971" lon="7.02001">
        <ele>2605.35</ele>
        <time>2018-09-09T12:25:10Z</time>
      </trkpt>
      <trkpt lat="45.42993" lon="7.01971">
        <ele>2603.44</ele>
        <time>2018-09-09T12:25:12Z</time>
      </trkpt>
      <trkpt lat="45.43015" lon="7.01939">
        <ele>2599.83</ele>
        <time>2018-09-09T12:25:14Z</time>
      </trkpt>
      <trkpt lat="45.43038" lon="7.01912">
        <ele>2597.48</ele>
        <time>2018-09-09T12:25:16Z</time>
      </trkpt>
      <trkpt lat="45.43065" lon="7.0189">
        <ele>2596.15</ele>
        <time>2018-09-09T12:25:18Z</time>
      </trkpt>
      <trkpt lat="45.43093" lon="7.01872">
        <ele>2594.42</ele>
        <time>2018-09-09T12:25:20Z</time>
      </trkpt>
      <trkpt lat="45.4312" lon="7.01855">
        <ele>2593.35</ele>
        <time>2018-09-09T12:25:22Z</time>
      </trkpt>
      <trkpt lat="45.43147" lon="7.0184">
        <ele>2592.14</ele>
        <time>2018-09-09T12:25:24Z</time>
      </trkpt>
      <trkpt lat="45.4317" lon="7.01827">
        <ele>2590.42</ele>
        <time>2018-09-09T12:25:26Z</time>
      </trkpt>
      <trkpt lat="45.43193" lon="7.0181">
        <ele>2588.44</ele>
        <time>2018-09-09T12:25:28Z</time>
      </trkpt>
      <trkpt lat="45.43217" lon="7.01788">
        <ele>2586.44</ele>
        <time>2018-09-09T12:25:30Z</time>
      </trkpt>
      <trkpt lat="45.4324" lon="7.01766">
        <ele>2584.44</ele>
        <time>2018-09-09T12:25:32Z</time>
      </trkpt>
      <trkpt lat="45.43262" lon="7.01745">
        <ele>2583.35</ele>
        <time>2018-09-09T12:25:34Z</time>
      </trkpt>
      <trkpt lat="45.43283" lon="7.01727">
        <ele>2581.65</ele>
        <time>2018-09-09T12:25:36Z</time>
      </trkpt>
      <trkpt lat="45.433" lon="7.01703">
        <ele>2579.46</ele>
        <time>2018-09-09T12:25:38Z</time>
      </trkpt>
      <trkpt lat="45.43314" lon="7.01672">
        <ele>2578.36</ele>
        <time>2018-09-09T12:25:40Z</time>
      </trkpt>
      <trkpt lat="45.4333" lon="7.01639">
        <ele>2575.74</ele>
        <time>2018-09-09T12:25:42Z</time>
      </trkpt>
      <trkpt lat="45.43346" lon="7.01604">
        <ele>2573.68</ele>
        <time>2018-09-09T12:25:44Z</time>
      </trkpt>
      <trkpt lat="45.43363" lon="7.01568">
        <ele>2572.16</ele>
        <time>2018-09-09T12:25:46Z</time>
      </trkpt>
      <trkpt lat="45.43381" lon="7.01534">
        <ele>2569.72</ele>
        <time>2018-09-09T12:25:48Z</time>
      </trkpt>
      <trkpt lat="45.43403" lon="7.01506">
        <ele>2568.17</ele>
        <time>2018-09-09T12:25:50Z</time>
      </trkpt>
      <trkpt lat="45.43429" lon="7.01487">
        <ele>2566.42</ele>
        <time>2018-09-09T12:25:52Z</time>
      </trkpt>
      <trkpt lat="45.43455" lon="7.0147">
        <ele>2564.44</ele>
        <time>2018-09-09T12:25:54Z</time>
      </trkpt>
      <trkpt lat="45.43479" lon="7.01453">
        <ele>2563.35</ele>
        <time>2018-09-09T12:25:56Z</time>
      </trkpt>
      <trkpt lat="45.43502" lon="7.01436">
        <ele>2562.14</ele>
        <time>2018-09-09T12:25:58Z</time>
      </trkpt>
      <trkpt lat="45.43523" lon="7.01415">
        <ele>2560.42</ele>
        <time>2018-09-09T12:26:00Z</time>
      </trkpt>
      <trkpt lat="45.43541" lon="7.01393">
        <ele>2559.14</ele>
        <time>2018-09-09T12:26:02Z</time>
      </trkpt>
      <trkpt lat="45.43558" lon="7.01381">
        <ele>2558.12</ele>
        <time>2018-09-09T12:26:04Z</time>
      </trkpt>
      <trkpt lat="45.43585" lon="7.01386">
        <ele>2557.04</ele>
        <time>2018-09-09T12:26:07Z</time>
      </trkpt>
      <trkpt lat="45.43603" lon="7.01386">
        <ele>2556.11</ele>
        <time>2018-09-09T12:26:09Z</time>
      </trkpt>
      <trkpt lat="45.43621" lon="7.0138">
        <ele>2555.32</ele>
        <time>2018-09-09T12:26:11Z</time>
      </trkpt>
      <trkpt lat="45.43641" lon="7.01352">
        <ele>2554.11</ele>
        <time>2018-09-09T12:26:14Z</time>
      </trkpt>
      <trkpt lat="45.43656" lon="7.01328">
        <ele>2552.41</ele>
        <time>2018-09-09T12:26:16Z</time>
      </trkpt>
      <trkpt lat="45.43675" lon="7.01302">
        <ele>2550.44</ele>
        <time>2018-09-09T12:26:18Z</time>
      </trkpt>
      <trkpt lat="45.43695" lon="7.01275">
        <ele>2548.44</ele>
        <time>2018-09-09T12:26:20Z</time>
      </trkpt>
      <trkpt lat="45.43711" lon="7.01249">
        <ele>2545.53</ele>
        <time>2018-09-09T12:26:22Z</time>
      </trkpt>
      <trkpt lat="45.43718" lon="7.01214">
        <ele>2543.45</ele>
        <time>2018-09-09T12:26:24Z</time>
      </trkpt>
      <trkpt lat="45.4373" lon="7.01184">
        <ele>2541.44</ele>
        <time>2018-09-09T12:26:26Z</time>
      </trkpt>
      <trkpt lat="45.43745" lon="7.01158">
        <ele>2539.44</ele>
        <time>2018-09-09T12:26:28Z</time>
      </trkpt>
      <trkpt lat="45.43758" lon="7.01128">
        <ele>2536.53</ele>
        <time>2018-09-09T12:26:30Z</time>
      </trkpt>
      <trkpt lat="45.4377" lon="7.01098">
        <ele>2535.15</ele>
        <time>2018-09-09T12:26:32Z</time>
      </trkpt>
      <trkpt lat="45.43782" lon="7.01068">
        <ele>2533.42</ele>
        <time>2018-09-09T12:26:34Z</time>
      </trkpt>
      <trkpt lat="45.43795" lon="7.01045">
        <ele>2532.14</ele>
        <time>2018-09-09T12:26:36Z</time>
      </trkpt>
      <trkpt lat="45.43813" lon="7.01034">
        <ele>2530.42</ele>
        <time>2018-09-09T12:26:38Z</time>
      </trkpt>
      <trkpt lat="45.43837" lon="7.01042">
        <ele>2528.14</ele>
        <time>2018-09-09T12:26:41Z</time>
      </trkpt>
      <trkpt lat="45.43856" lon="7.01044">
        <ele>2527.32</ele>
        <time>2018-09-09T12:26:44Z</time>
      </trkpt>
      <trkpt lat="45.43861" lon="7.01014">
        <ele>2525.34</ele>
        <time>2018-09-09T12:26:48Z</time>
      </trkpt>
      <trkpt lat="45.43849" lon="7.00992">
        <ele>2526.08</ele>
        <time>2018-09-09T12:27:17Z</time>
      </trkpt>
      <trkpt lat="45.43837" lon="7.00969">
        <ele>2524.13</ele>
        <time>2018-09-09T12:27:20Z</time>
      </trkpt>
      <trkpt lat="45.43823" lon="7.00949">
        <ele>2521.72</ele>
        <time>2018-09-09T12:27:22Z</time>
      </trkpt>
      <trkpt lat="45.43806" lon="7.0093">
        <ele>2519.47</ele>
        <time>2018-09-09T12:27:24Z</time>
      </trkpt>
      <trkpt lat="45.43788" lon="7.0091">
        <ele>2518.36</ele>
        <time>2018-09-09T12:27:26Z</time>
      </trkpt>
      <trkpt lat="45.43765" lon="7.0089">
        <ele>2515.74</ele>
        <time>2018-09-09T12:27:28Z</time>
      </trkpt>
      <trkpt lat="45.4374" lon="7.00866">
        <ele>2512.77</ele>
        <time>2018-09-09T12:27:30Z</time>
      </trkpt>
      <trkpt lat="45.43714" lon="7.00836">
        <ele>2510.68</ele>
        <time>2018-09-09T12:27:32Z</time>
      </trkpt>
      <trkpt lat="45.4369" lon="7.008">
        <ele>2508.68</ele>
        <time>2018-09-09T12:27:34Z</time>
      </trkpt>
      <trkpt lat="45.43668" lon="7.00763">
        <ele>2508.07</ele>
        <time>2018-09-09T12:27:36Z</time>
      </trkpt>
      <trkpt lat="45.43645" lon="7.00728">
        <ele>2507.11</ele>
        <time>2018-09-09T12:27:38Z</time>
      </trkpt>
      <trkpt lat="45.43624" lon="7.00697">
        <ele>2506.32</ele>
        <time>2018-09-09T12:27:40Z</time>
      </trkpt>
      <trkpt lat="45.43605" lon="7.00673">
        <ele>2505.34</ele>
        <time>2018-09-09T12:27:42Z</time>
      </trkpt>
      <trkpt lat="45.43581" lon="7.00659">
        <ele>2502.73</ele>
        <time>2018-09-09T12:27:44Z</time>
      </trkpt>
      <trkpt lat="45.43556" lon="7.00638">
        <ele>2499.77</ele>
        <time>2018-09-09T12:27:46Z</time>
      </trkpt>
      <trkpt lat="45.43532" lon="7.00616">
        <ele>2497.47</ele>
        <time>2018-09-09T12:27:48Z</time>
      </trkpt>
      <trkpt lat="45.43507" lon="7.00615">
        <ele>2495.45</ele>
        <time>2018-09-09T12:27:50Z</time>
      </trkpt>
      <trkpt lat="45.43479" lon="7.00626">
        <ele>2492.53</ele>
        <time>2018-09-09T12:27:52Z</time>
      </trkpt>
      <trkpt lat="45.4345" lon="7.00623">
        <ele>2489.75</ele>
        <time>2018-09-09T12:27:54Z</time>
      </trkpt>
      <trkpt lat="45.43429" lon="7.00616">
        <ele>2488.38</ele>
        <time>2018-09-09T12:27:56Z</time>
      </trkpt>
      <trkpt lat="45.43444" lon="7.00596">
        <ele>2485.43</ele>
        <time>2018-09-09T12:28:01Z</time>
      </trkpt>
      <trkpt lat="45.43467" lon="7.00598">
        <ele>2484.35</ele>
        <time>2018-09-09T12:28:03Z</time>
      </trkpt>
      <trkpt lat="45.43495" lon="7.00591">
        <ele>2482.23</ele>
        <time>2018-09-09T12:28:05Z</time>
      </trkpt>
      <trkpt lat="45.43527" lon="7.0058">
        <ele>2480.42</ele>
        <time>2018-09-09T12:28:07Z</time>
      </trkpt>
      <trkpt lat="45.43559" lon="7.00574">
        <ele>2478.44</ele>
        <time>2018-09-09T12:28:09Z</time>
      </trkpt>
      <trkpt lat="45.43591" lon="7.00585">
        <ele>2475.74</ele>
        <time>2018-09-09T12:28:11Z</time>
      </trkpt>
      <trkpt lat="45.43622" lon="7.00605">
        <ele>2472.77</ele>
        <time>2018-09-09T12:28:13Z</time>
      </trkpt>
      <trkpt lat="45.43651" lon="7.00619">
        <ele>2470.47</ele>
        <time>2018-09-09T12:28:15Z</time>
      </trkpt>
      <trkpt lat="45.43677" lon="7.00628">
        <ele>2468.24</ele>
        <time>2018-09-09T12:28:17Z</time>
      </trkpt>
      <trkpt lat="45.43697" lon="7.00646">
        <ele>2467.33</ele>
        <time>2018-09-09T12:28:19Z</time>
      </trkpt>
      <trkpt lat="45.43718" lon="7.00651">
        <ele>2466.11</ele>
        <time>2018-09-09T12:28:22Z</time>
      </trkpt>
      <trkpt lat="45.43711" lon="7.00623">
        <ele>2463.43</ele>
        <time>2018-09-09T12:28:25Z</time>
      </trkpt>
      <trkpt lat="45.43686" lon="7.00605">
        <ele>2462.35</ele>
        <time>2018-09-09T12:28:27Z</time>
      </trkpt>
      <trkpt lat="45.43656" lon="7.00584">
        <ele>2460.44</ele>
        <time>2018-09-09T12:28:29Z</time>
      </trkpt>
      <trkpt lat="45.43623" lon="7.00563">
        <ele>2458.44</ele>
        <time>2018-09-09T12:28:31Z</time>
      </trkpt>
      <trkpt lat="45.43595" lon="7.00535">
        <ele>2455.74</ele>
        <time>2018-09-09T12:28:33Z</time>
      </trkpt>
      <trkpt lat="45.43571" lon="7.00509">
        <ele>2452.56</ele>
        <time>2018-09-09T12:28:35Z</time>
      </trkpt>
      <trkpt lat="45.43542" lon="7.00503">
        <ele>2449.75</ele>
        <time>2018-09-09T12:28:37Z</time>
      </trkpt>
      <trkpt lat="45.43507" lon="7.00504">
        <ele>2446.77</ele>
        <time>2018-09-09T12:28:39Z</time>
      </trkpt>
      <trkpt lat="45.43488" lon="7.005">
        <ele>2445.54</ele>
        <time>2018-09-09T12:28:40Z</time>
      </trkpt>
      <trkpt lat="45.4347" lon="7.00493">
        <ele>2444.47</ele>
        <time>2018-09-09T12:28:41Z</time>
      </trkpt>
      <trkpt lat="45.43438" lon="7.00467">
        <ele>2441.54</ele>
        <time>2018-09-09T12:28:43Z</time>
      </trkpt>
      <trkpt lat="45.43425" lon="7.0045">
        <ele>2439.77</ele>
        <time>2018-09-09T12:28:44Z</time>
      </trkpt>
      <trkpt lat="45.434" lon="7.00417">
        <ele>2436.56</ele>
        <time>2018-09-09T12:28:46Z</time>
      </trkpt>
      <trkpt lat="45.43379" lon="7.00391">
        <ele>2433.54</ele>
        <time>2018-09-09T12:28:48Z</time>
      </trkpt>
      <trkpt lat="45.43369" lon="7.00364">
        <ele>2432.15</ele>
        <time>2018-09-09T12:28:50Z</time>
      </trkpt>
      <trkpt lat="45.43361" lon="7.00339">
        <ele>2432.03</ele>
        <time>2018-09-09T12:28:52Z</time>
      </trkpt>
      <trkpt lat="45.43335" lon="7.0033">
        <ele>2430.13</ele>
        <time>2018-09-09T12:28:55Z</time>
      </trkpt>
      <trkpt lat="45.43304" lon="7.00334">
        <ele>2429.33</ele>
        <time>2018-09-09T12:28:57Z</time>
      </trkpt>
      <trkpt lat="45.43272" lon="7.00333">
        <ele>2426.73</ele>
        <time>2018-09-09T12:28:59Z</time>
      </trkpt>
      <trkpt lat="45.43249" lon="7.00312">
        <ele>2424.47</ele>
        <time>2018-09-09T12:29:01Z</time>
      </trkpt>
      <trkpt lat="45.4323" lon="7.00293">
        <ele>2423.15</ele>
        <time>2018-09-09T12:29:03Z</time>
      </trkpt>
      <trkpt lat="45.43209" lon="7.00287">
        <ele>2422.12</ele>
        <time>2018-09-09T12:29:05Z</time>
      </trkpt>
      <trkpt lat="45.43185" lon="7.00291">
        <ele>2419.01</ele>
        <time>2018-09-09T12:29:07Z</time>
      </trkpt>
      <trkpt lat="45.43155" lon="7.00292">
        <ele>2416.49</ele>
        <time>2018-09-09T12:29:09Z</time>
      </trkpt>
      <trkpt lat="45.4313" lon="7.00277">
        <ele>2416.06</ele>
        <time>2018-09-09T12:29:11Z</time>
      </trkpt>
      <trkpt lat="45.43115" lon="7.00241">
        <ele>2415.11</ele>
        <time>2018-09-09T12:29:13Z</time>
      </trkpt>
      <trkpt lat="45.4312" lon="7.00199">
        <ele>2413.41</ele>
        <time>2018-09-09T12:29:15Z</time>
      </trkpt>
      <trkpt lat="45.43139" lon="7.00171">
        <ele>2412.35</ele>
        <time>2018-09-09T12:29:17Z</time>
      </trkpt>
      <trkpt lat="45.43168" lon="7.00163">
        <ele>2410.44</ele>
        <time>2018-09-09T12:29:19Z</time>
      </trkpt>
      <trkpt lat="45.43187" lon="7.00169">
        <ele>2410.14</ele>
        <time>2018-09-09T12:29:20Z</time>
      </trkpt>
      <trkpt lat="45.43215" lon="7.002">
        <ele>2409.35</ele>
        <time>2018-09-09T12:29:21Z</time>
      </trkpt>
      <trkpt lat="45.43236" lon="7.00212">
        <ele>2407.72</ele>
        <time>2018-09-09T12:29:22Z</time>
      </trkpt>
      <trkpt lat="45.43259" lon="7.00221">
        <ele>2405.83</ele>
        <time>2018-09-09T12:29:23Z</time>
      </trkpt>
      <trkpt lat="45.43282" lon="7.00228">
        <ele>2403.86</ele>
        <time>2018-09-09T12:29:24Z</time>
      </trkpt>
      <trkpt lat="45.43302" lon="7.00233">
        <ele>2401.87</ele>
        <time>2018-09-09T12:29:25Z</time>
      </trkpt>
      <trkpt lat="45.4332" lon="7.00243">
        <ele>2400.57</ele>
        <time>2018-09-09T12:29:26Z</time>
      </trkpt>
      <trkpt lat="45.43351" lon="7.00259">
        <ele>2398.25</ele>
        <time>2018-09-09T12:29:28Z</time>
      </trkpt>
      <trkpt lat="45.43377" lon="7.00249">
        <ele>2395.52</ele>
        <time>2018-09-09T12:29:30Z</time>
      </trkpt>
      <trkpt lat="45.43399" lon="7.00219">
        <ele>2393.66</ele>
        <time>2018-09-09T12:29:32Z</time>
      </trkpt>
      <trkpt lat="45.43422" lon="7.00205">
        <ele>2388.94</ele>
        <time>2018-09-09T12:29:34Z</time>
      </trkpt>
      <trkpt lat="45.43452" lon="7.00219">
        <ele>2385.79</ele>
        <time>2018-09-09T12:29:36Z</time>
      </trkpt>
      <trkpt lat="45.43469" lon="7.00227">
        <ele>2383.85</ele>
        <time>2018-09-09T12:29:37Z</time>
      </trkpt>
      <trkpt lat="45.43505" lon="7.00227">
        <ele>2379.87</ele>
        <time>2018-09-09T12:29:39Z</time>
      </trkpt>
      <trkpt lat="45.43534" lon="7.00236">
        <ele>2376.78</ele>
        <time>2018-09-09T12:29:41Z</time>
      </trkpt>
      <trkpt lat="45.4355" lon="7.00249">
        <ele>2375.55</ele>
        <time>2018-09-09T12:29:42Z</time>
      </trkpt>
      <trkpt lat="45.43569" lon="7.00263">
        <ele>2373.77</ele>
        <time>2018-09-09T12:29:43Z</time>
      </trkpt>
      <trkpt lat="45.43587" lon="7.00275">
        <ele>2372.54</ele>
        <time>2018-09-09T12:29:44Z</time>
      </trkpt>
      <trkpt lat="45.43605" lon="7.00285">
        <ele>2370.77</ele>
        <time>2018-09-09T12:29:45Z</time>
      </trkpt>
      <trkpt lat="45.4363" lon="7.0031">
        <ele>2368.47</ele>
        <time>2018-09-09T12:29:47Z</time>
      </trkpt>
      <trkpt lat="45.43651" lon="7.00355">
        <ele>2364.84</ele>
        <time>2018-09-09T12:29:49Z</time>
      </trkpt>
      <trkpt lat="45.43665" lon="7.00376">
        <ele>2363.56</ele>
        <time>2018-09-09T12:29:50Z</time>
      </trkpt>
      <trkpt lat="45.43682" lon="7.00394">
        <ele>2362.48</ele>
        <time>2018-09-09T12:29:51Z</time>
      </trkpt>
      <trkpt lat="45.437" lon="7.0041">
        <ele>2360.75</ele>
        <time>2018-09-09T12:29:52Z</time>
      </trkpt>
      <trkpt lat="45.43719" lon="7.00423">
        <ele>2359.54</ele>
        <time>2018-09-09T12:29:53Z</time>
      </trkpt>
      <trkpt lat="45.4374" lon="7.00432">
        <ele>2357.77</ele>
        <time>2018-09-09T12:29:54Z</time>
      </trkpt>
      <trkpt lat="45.43759" lon="7.0044">
        <ele>2356.54</ele>
        <time>2018-09-09T12:29:55Z</time>
      </trkpt>
      <trkpt lat="45.43777" lon="7.00451">
        <ele>2354.77</ele>
        <time>2018-09-09T12:29:56Z</time>
      </trkpt>
      <trkpt lat="45.43796" lon="7.00465">
        <ele>2352.84</ele>
        <time>2018-09-09T12:29:57Z</time>
      </trkpt>
      <trkpt lat="45.43816" lon="7.0048">
        <ele>2351.56</ele>
        <time>2018-09-09T12:29:58Z</time>
      </trkpt>
      <trkpt lat="45.43836" lon="7.00494">
        <ele>2349.78</ele>
        <time>2018-09-09T12:29:59Z</time>
      </trkpt>
      <trkpt lat="45.43857" lon="7.00504">
        <ele>2347.14</ele>
        <time>2018-09-09T12:30:00Z</time>
      </trkpt>
      <trkpt lat="45.43876" lon="7.00513">
        <ele>2344.95</ele>
        <time>2018-09-09T12:30:01Z</time>
      </trkpt>
      <trkpt lat="45.43908" lon="7.00528">
        <ele>2342.28</ele>
        <time>2018-09-09T12:30:03Z</time>
      </trkpt>
      <trkpt lat="45.43933" lon="7.00565">
        <ele>2339.03</ele>
        <time>2018-09-09T12:30:05Z</time>
      </trkpt>
      <trkpt lat="45.4395" lon="7.00583">
        <ele>2337.62</ele>
        <time>2018-09-09T12:30:06Z</time>
      </trkpt>
      <trkpt lat="45.43969" lon="7.00597">
        <ele>2335.8</ele>
        <time>2018-09-09T12:30:07Z</time>
      </trkpt>
      <trkpt lat="45.43988" lon="7.0061">
        <ele>2333.85</ele>
        <time>2018-09-09T12:30:08Z</time>
      </trkpt>
      <trkpt lat="45.44006" lon="7.00624">
        <ele>2331.87</ele>
        <time>2018-09-09T12:30:09Z</time>
      </trkpt>
      <trkpt lat="45.44021" lon="7.0064">
        <ele>2330.57</ele>
        <time>2018-09-09T12:30:10Z</time>
      </trkpt>
      <trkpt lat="45.44034" lon="7.00661">
        <ele>2328.78</ele>
        <time>2018-09-09T12:30:11Z</time>
      </trkpt>
      <trkpt lat="45.44046" lon="7.00685">
        <ele>2326.84</ele>
        <time>2018-09-09T12:30:12Z</time>
      </trkpt>
      <trkpt lat="45.44059" lon="7.00711">
        <ele>2324.86</ele>
        <time>2018-09-09T12:30:13Z</time>
      </trkpt>
      <trkpt lat="45.44075" lon="7.00737">
        <ele>2322.87</ele>
        <time>2018-09-09T12:30:14Z</time>
      </trkpt>
      <trkpt lat="45.44091" lon="7.00763">
        <ele>2320.87</ele>
        <time>2018-09-09T12:30:15Z</time>
      </trkpt>
      <trkpt lat="45.44106" lon="7.00791">
        <ele>2319.57</ele>
        <time>2018-09-09T12:30:16Z</time>
      </trkpt>
      <trkpt lat="45.44118" lon="7.00819">
        <ele>2319.18</ele>
        <time>2018-09-09T12:30:17Z</time>
      </trkpt>
      <trkpt lat="45.44128" lon="7.00845">
        <ele>2319.77</ele>
        <time>2018-09-09T12:30:18Z</time>
      </trkpt>
      <trkpt lat="45.44136" lon="7.00869">
        <ele>2320.64</ele>
        <time>2018-09-09T12:30:19Z</time>
      </trkpt>
      <trkpt lat="45.4414" lon="7.00896">
        <ele>2321.6</ele>
        <time>2018-09-09T12:30:20Z</time>
      </trkpt>
      <trkpt lat="45.44144" lon="7.00925">
        <ele>2322.59</ele>
        <time>2018-09-09T12:30:21Z</time>
      </trkpt>
      <trkpt lat="45.44147" lon="7.00954">
        <ele>2323.59</ele>
        <time>2018-09-09T12:30:22Z</time>
      </trkpt>
      <trkpt lat="45.44151" lon="7.00983">
        <ele>2324.59</ele>
        <time>2018-09-09T12:30:23Z</time>
      </trkpt>
      <trkpt lat="45.44158" lon="7.01012">
        <ele>2326.29</ele>
        <time>2018-09-09T12:30:24Z</time>
      </trkpt>
      <trkpt lat="45.44166" lon="7.01041">
        <ele>2327.5</ele>
        <time>2018-09-09T12:30:25Z</time>
      </trkpt>
      <trkpt lat="45.44174" lon="7.01069">
        <ele>2327.86</ele>
        <time>2018-09-09T12:30:26Z</time>
      </trkpt>
      <trkpt lat="45.44182" lon="7.01096">
        <ele>2328.67</ele>
        <time>2018-09-09T12:30:27Z</time>
      </trkpt>
      <trkpt lat="45.44188" lon="7.01121">
        <ele>2328.91</ele>
        <time>2018-09-09T12:30:28Z</time>
      </trkpt>
      <trkpt lat="45.44197" lon="7.01165">
        <ele>2329.92</ele>
        <time>2018-09-09T12:30:30Z</time>
      </trkpt>
      <trkpt lat="45.44195" lon="7.01207">
        <ele>2329.31</ele>
        <time>2018-09-09T12:30:32Z</time>
      </trkpt>
      <trkpt lat="45.44197" lon="7.01257">
        <ele>2329.04</ele>
        <time>2018-09-09T12:30:34Z</time>
      </trkpt>
      <trkpt lat="45.44201" lon="7.01284">
        <ele>2328.32</ele>
        <time>2018-09-09T12:30:35Z</time>
      </trkpt>
      <trkpt lat="45.44206" lon="7.01311">
        <ele>2327.41</ele>
        <time>2018-09-09T12:30:36Z</time>
      </trkpt>
      <trkpt lat="45.4421" lon="7.01337">
        <ele>2326.43</ele>
        <time>2018-09-09T12:30:37Z</time>
      </trkpt>
      <trkpt lat="45.44211" lon="7.01385">
        <ele>2323.53</ele>
        <time>2018-09-09T12:30:39Z</time>
      </trkpt>
      <trkpt lat="45.44208" lon="7.01412">
        <ele>2322.47</ele>
        <time>2018-09-09T12:30:40Z</time>
      </trkpt>
      <trkpt lat="45.44203" lon="7.01439">
        <ele>2320.75</ele>
        <time>2018-09-09T12:30:41Z</time>
      </trkpt>
      <trkpt lat="45.44196" lon="7.01466">
        <ele>2318.84</ele>
        <time>2018-09-09T12:30:42Z</time>
      </trkpt>
      <trkpt lat="45.4419" lon="7.01493">
        <ele>2317.56</ele>
        <time>2018-09-09T12:30:43Z</time>
      </trkpt>
      <trkpt lat="45.44184" lon="7.01519">
        <ele>2317.18</ele>
        <time>2018-09-09T12:30:44Z</time>
      </trkpt>
      <trkpt lat="45.44181" lon="7.01547">
        <ele>2317.06</ele>
        <time>2018-09-09T12:30:45Z</time>
      </trkpt>
      <trkpt lat="45.44181" lon="7.01577">
        <ele>2316.33</ele>
        <time>2018-09-09T12:30:46Z</time>
      </trkpt>
      <trkpt lat="45.4418" lon="7.01605">
        <ele>2315.41</ele>
        <time>2018-09-09T12:30:47Z</time>
      </trkpt>
      <trkpt lat="45.44182" lon="7.01648">
        <ele>2313.44</ele>
        <time>2018-09-09T12:30:49Z</time>
      </trkpt>
      <trkpt lat="45.44192" lon="7.01679">
        <ele>2312.35</ele>
        <time>2018-09-09T12:30:51Z</time>
      </trkpt>
      <trkpt lat="45.44217" lon="7.01699">
        <ele>2312.75</ele>
        <time>2018-09-09T12:30:53Z</time>
      </trkpt>
      <trkpt lat="45.44241" lon="7.01684">
        <ele>2310.83</ele>
        <time>2018-09-09T12:30:54Z</time>
      </trkpt>
      <trkpt lat="45.4427" lon="7.01699">
        <ele>2307.78</ele>
        <time>2018-09-09T12:30:56Z</time>
      </trkpt>
      <trkpt lat="45.44287" lon="7.01731">
        <ele>2307.99</ele>
        <time>2018-09-09T12:30:58Z</time>
      </trkpt>
      <trkpt lat="45.44291" lon="7.01771">
        <ele>2306.4</ele>
        <time>2018-09-09T12:31:00Z</time>
      </trkpt>
      <trkpt lat="45.4428" lon="7.01811">
        <ele>2304.44</ele>
        <time>2018-09-09T12:31:02Z</time>
      </trkpt>
      <trkpt lat="45.44277" lon="7.01846">
        <ele>2302.65</ele>
        <time>2018-09-09T12:31:04Z</time>
      </trkpt>
      <trkpt lat="45.44285" lon="7.01881">
        <ele>2301.16</ele>
        <time>2018-09-09T12:31:06Z</time>
      </trkpt>
      <trkpt lat="45.44324" lon="7.01902">
        <ele>2299.42</ele>
        <time>2018-09-09T12:31:08Z</time>
      </trkpt>
      <trkpt lat="45.44341" lon="7.01913">
        <ele>2298.44</ele>
        <time>2018-09-09T12:31:09Z</time>
      </trkpt>
      <trkpt lat="45.44359" lon="7.01928">
        <ele>2297.44</ele>
        <time>2018-09-09T12:31:10Z</time>
      </trkpt>
      <trkpt lat="45.44375" lon="7.01947">
        <ele>2296.44</ele>
        <time>2018-09-09T12:31:11Z</time>
      </trkpt>
      <trkpt lat="45.44391" lon="7.01969">
        <ele>2294.74</ele>
        <time>2018-09-09T12:31:12Z</time>
      </trkpt>
      <trkpt lat="45.44408" lon="7.01993">
        <ele>2292.83</ele>
        <time>2018-09-09T12:31:13Z</time>
      </trkpt>
      <trkpt lat="45.44424" lon="7.02019">
        <ele>2290.16</ele>
        <time>2018-09-09T12:31:14Z</time>
      </trkpt>
      <trkpt lat="45.44441" lon="7.02046">
        <ele>2287.26</ele>
        <time>2018-09-09T12:31:15Z</time>
      </trkpt>
      <trkpt lat="45.44458" lon="7.02073">
        <ele>2284.99</ele>
        <time>2018-09-09T12:31:16Z</time>
      </trkpt>
      <trkpt lat="45.44474" lon="7.021">
        <ele>2282.91</ele>
        <time>2018-09-09T12:31:17Z</time>
      </trkpt>
      <trkpt lat="45.4449" lon="7.02126">
        <ele>2280.18</ele>
        <time>2018-09-09T12:31:18Z</time>
      </trkpt>
      <trkpt lat="45.44504" lon="7.02154">
        <ele>2277.97</ele>
        <time>2018-09-09T12:31:19Z</time>
      </trkpt>
      <trkpt lat="45.44516" lon="7.02182">
        <ele>2275.9</ele>
        <time>2018-09-09T12:31:20Z</time>
      </trkpt>
      <trkpt lat="45.4453" lon="7.02209">
        <ele>2273.18</ele>
        <time>2018-09-09T12:31:21Z</time>
      </trkpt>
      <trkpt lat="45.44546" lon="7.02235">
        <ele>2270.96</ele>
        <time>2018-09-09T12:31:22Z</time>
      </trkpt>
      <trkpt lat="45.44564" lon="7.02257">
        <ele>2268.9</ele>
        <time>2018-09-09T12:31:23Z</time>
      </trkpt>
      <trkpt lat="45.44583" lon="7.02276">
        <ele>2266.88</ele>
        <time>2018-09-09T12:31:24Z</time>
      </trkpt>
      <trkpt lat="45.44601" lon="7.02294">
        <ele>2264.87</ele>
        <time>2018-09-09T12:31:25Z</time>
      </trkpt>
      <trkpt lat="45.44616" lon="7.0231">
        <ele>2262.87</ele>
        <time>2018-09-09T12:31:26Z</time>
      </trkpt>
      <trkpt lat="45.4464" lon="7.02349">
        <ele>2259.78</ele>
        <time>2018-09-09T12:31:28Z</time>
      </trkpt>
      <trkpt lat="45.4465" lon="7.02372">
        <ele>2257.85</ele>
        <time>2018-09-09T12:31:29Z</time>
      </trkpt>
      <trkpt lat="45.44662" lon="7.02408">
        <ele>2256.18</ele>
        <time>2018-09-09T12:31:31Z</time>
      </trkpt>
      <trkpt lat="45.44679" lon="7.02429">
        <ele>2255.11</ele>
        <time>2018-09-09T12:31:34Z</time>
      </trkpt>
      <trkpt lat="45.4468" lon="7.02399">
        <ele>2252.5</ele>
        <time>2018-09-09T12:31:36Z</time>
      </trkpt>
      <trkpt lat="45.44664" lon="7.02361">
        <ele>2250.45</ele>
        <time>2018-09-09T12:31:38Z</time>
      </trkpt>
      <trkpt lat="45.44656" lon="7.02335">
        <ele>2250.15</ele>
        <time>2018-09-09T12:31:39Z</time>
      </trkpt>
      <trkpt lat="45.44648" lon="7.0231">
        <ele>2249.35</ele>
        <time>2018-09-09T12:31:40Z</time>
      </trkpt>
      <trkpt lat="45.44637" lon="7.02286">
        <ele>2248.42</ele>
        <time>2018-09-09T12:31:41Z</time>
      </trkpt>
      <trkpt lat="45.44623" lon="7.02263">
        <ele>2247.44</ele>
        <time>2018-09-09T12:31:42Z</time>
      </trkpt>
      <trkpt lat="45.44607" lon="7.02239">
        <ele>2246.44</ele>
        <time>2018-09-09T12:31:43Z</time>
      </trkpt>
      <trkpt lat="45.44593" lon="7.02211">
        <ele>2244.74</ele>
        <time>2018-09-09T12:31:44Z</time>
      </trkpt>
      <trkpt lat="45.44581" lon="7.0218">
        <ele>2242.83</ele>
        <time>2018-09-09T12:31:45Z</time>
      </trkpt>
      <trkpt lat="45.44572" lon="7.02146">
        <ele>2240.86</ele>
        <time>2018-09-09T12:31:46Z</time>
      </trkpt>
      <trkpt lat="45.44564" lon="7.02111">
        <ele>2238.87</ele>
        <time>2018-09-09T12:31:47Z</time>
      </trkpt>
      <trkpt lat="45.44555" lon="7.02077">
        <ele>2236.87</ele>
        <time>2018-09-09T12:31:48Z</time>
      </trkpt>
      <trkpt lat="45.44545" lon="7.02044">
        <ele>2235.57</ele>
        <time>2018-09-09T12:31:49Z</time>
      </trkpt>
      <trkpt lat="45.44535" lon="7.02012">
        <ele>2234.48</ele>
        <time>2018-09-09T12:31:50Z</time>
      </trkpt>
      <trkpt lat="45.44526" lon="7.01982">
        <ele>2233.46</ele>
        <time>2018-09-09T12:31:51Z</time>
      </trkpt>
      <trkpt lat="45.44517" lon="7.01953">
        <ele>2233.15</ele>
        <time>2018-09-09T12:31:52Z</time>
      </trkpt>
      <trkpt lat="45.4451" lon="7.01928">
        <ele>2232.35</ele>
        <time>2018-09-09T12:31:53Z</time>
      </trkpt>
      <trkpt lat="45.44498" lon="7.01891">
        <ele>2231.14</ele>
        <time>2018-09-09T12:31:55Z</time>
      </trkpt>
      <trkpt lat="45.44488" lon="7.01868">
        <ele>2229.42</ele>
        <time>2018-09-09T12:31:57Z</time>
      </trkpt>
      <trkpt lat="45.44509" lon="7.01877">
        <ele>2224.14</ele>
        <time>2018-09-09T12:32:02Z</time>
      </trkpt>
      <trkpt lat="45.44524" lon="7.01923">
        <ele>2221.72</ele>
        <time>2018-09-09T12:32:04Z</time>
      </trkpt>
      <trkpt lat="45.44534" lon="7.01948">
        <ele>2221.23</ele>
        <time>2018-09-09T12:32:05Z</time>
      </trkpt>
      <trkpt lat="45.44546" lon="7.01972">
        <ele>2219.68</ele>
        <time>2018-09-09T12:32:06Z</time>
      </trkpt>
      <trkpt lat="45.4456" lon="7.01996">
        <ele>2217.81</ele>
        <time>2018-09-09T12:32:07Z</time>
      </trkpt>
      <trkpt lat="45.44573" lon="7.02022">
        <ele>2215.85</ele>
        <time>2018-09-09T12:32:08Z</time>
      </trkpt>
      <trkpt lat="45.44587" lon="7.02045">
        <ele>2213.87</ele>
        <time>2018-09-09T12:32:09Z</time>
      </trkpt>
      <trkpt lat="45.44602" lon="7.02067">
        <ele>2212.57</ele>
        <time>2018-09-09T12:32:10Z</time>
      </trkpt>
      <trkpt lat="45.44618" lon="7.02089">
        <ele>2210.08</ele>
        <time>2018-09-09T12:32:11Z</time>
      </trkpt>
      <trkpt lat="45.44632" lon="7.0211">
        <ele>2207.94</ele>
        <time>2018-09-09T12:32:12Z</time>
      </trkpt>
      <trkpt lat="45.44648" lon="7.02131">
        <ele>2206.59</ele>
        <time>2018-09-09T12:32:13Z</time>
      </trkpt>
      <trkpt lat="45.44663" lon="7.02151">
        <ele>2204.79</ele>
        <time>2018-09-09T12:32:14Z</time>
      </trkpt>
      <trkpt lat="45.44678" lon="7.02172">
        <ele>2203.55</ele>
        <time>2018-09-09T12:32:15Z</time>
      </trkpt>
      <trkpt lat="45.44693" lon="7.02196">
        <ele>2201.07</ele>
        <time>2018-09-09T12:32:16Z</time>
      </trkpt>
      <trkpt lat="45.44706" lon="7.02222">
        <ele>2199.63</ele>
        <time>2018-09-09T12:32:17Z</time>
      </trkpt>
      <trkpt lat="45.44719" lon="7.02248">
        <ele>2198.5</ele>
        <time>2018-09-09T12:32:18Z</time>
      </trkpt>
      <trkpt lat="45.44731" lon="7.02274">
        <ele>2196.76</ele>
        <time>2018-09-09T12:32:19Z</time>
      </trkpt>
      <trkpt lat="45.44743" lon="7.02299">
        <ele>2194.84</ele>
        <time>2018-09-09T12:32:20Z</time>
      </trkpt>
      <trkpt lat="45.44756" lon="7.02324">
        <ele>2193.56</ele>
        <time>2018-09-09T12:32:21Z</time>
      </trkpt>
      <trkpt lat="45.44768" lon="7.02348">
        <ele>2191.78</ele>
        <time>2018-09-09T12:32:22Z</time>
      </trkpt>
      <trkpt lat="45.44779" lon="7.02372">
        <ele>2190.54</ele>
        <time>2018-09-09T12:32:23Z</time>
      </trkpt>
      <trkpt lat="45.44788" lon="7.02394">
        <ele>2188.77</ele>
        <time>2018-09-09T12:32:24Z</time>
      </trkpt>
      <trkpt lat="45.44804" lon="7.02436">
        <ele>2187.17</ele>
        <time>2018-09-09T12:32:26Z</time>
      </trkpt>
      <trkpt lat="45.44824" lon="7.02473">
        <ele>2184.51</ele>
        <time>2018-09-09T12:32:28Z</time>
      </trkpt>
      <trkpt lat="45.44843" lon="7.02515">
        <ele>2181.54</ele>
        <time>2018-09-09T12:32:30Z</time>
      </trkpt>
      <trkpt lat="45.44853" lon="7.02545">
        <ele>2179.07</ele>
        <time>2018-09-09T12:32:31Z</time>
      </trkpt>
      <trkpt lat="45.44861" lon="7.02573">
        <ele>2176.93</ele>
        <time>2018-09-09T12:32:32Z</time>
      </trkpt>
      <trkpt lat="45.44869" lon="7.026">
        <ele>2174.89</ele>
        <time>2018-09-09T12:32:33Z</time>
      </trkpt>
      <trkpt lat="45.44877" lon="7.02628">
        <ele>2172.88</ele>
        <time>2018-09-09T12:32:34Z</time>
      </trkpt>
      <trkpt lat="45.44885" lon="7.02655">
        <ele>2171.57</ele>
        <time>2018-09-09T12:32:35Z</time>
      </trkpt>
      <trkpt lat="45.44893" lon="7.02682">
        <ele>2169.78</ele>
        <time>2018-09-09T12:32:36Z</time>
      </trkpt>
      <trkpt lat="45.449" lon="7.02709">
        <ele>2167.85</ele>
        <time>2018-09-09T12:32:37Z</time>
      </trkpt>
      <trkpt lat="45.44906" lon="7.02735">
        <ele>2166.56</ele>
        <time>2018-09-09T12:32:38Z</time>
      </trkpt>
      <trkpt lat="45.44913" lon="7.02761">
        <ele>2164.78</ele>
        <time>2018-09-09T12:32:39Z</time>
      </trkpt>
      <trkpt lat="45.44922" lon="7.02786">
        <ele>2163.54</ele>
        <time>2018-09-09T12:32:40Z</time>
      </trkpt>
      <trkpt lat="45.44932" lon="7.02809">
        <ele>2161.77</ele>
        <time>2018-09-09T12:32:41Z</time>
      </trkpt>
      <trkpt lat="45.44941" lon="7.02833">
        <ele>2160.54</ele>
        <time>2018-09-09T12:32:42Z</time>
      </trkpt>
      <trkpt lat="45.44951" lon="7.02857">
        <ele>2158.77</ele>
        <time>2018-09-09T12:32:43Z</time>
      </trkpt>
      <trkpt lat="45.44959" lon="7.02883">
        <ele>2157.54</ele>
        <time>2018-09-09T12:32:44Z</time>
      </trkpt>
      <trkpt lat="45.44967" lon="7.02909">
        <ele>2155.77</ele>
        <time>2018-09-09T12:32:45Z</time>
      </trkpt>
      <trkpt lat="45.44975" lon="7.02935">
        <ele>2154.54</ele>
        <time>2018-09-09T12:32:46Z</time>
      </trkpt>
      <trkpt lat="45.44983" lon="7.02962">
        <ele>2153.47</ele>
        <time>2018-09-09T12:32:47Z</time>
      </trkpt>
      <trkpt lat="45.44993" lon="7.02989">
        <ele>2152.45</ele>
        <time>2018-09-09T12:32:48Z</time>
      </trkpt>
      <trkpt lat="45.45004" lon="7.03014">
        <ele>2151.45</ele>
        <time>2018-09-09T12:32:49Z</time>
      </trkpt>
      <trkpt lat="45.45016" lon="7.03037">
        <ele>2150.44</ele>
        <time>2018-09-09T12:32:50Z</time>
      </trkpt>
      <trkpt lat="45.45038" lon="7.0307">
        <ele>2147.53</ele>
        <time>2018-09-09T12:32:52Z</time>
      </trkpt>
      <trkpt lat="45.45051" lon="7.03111">
        <ele>2145.45</ele>
        <time>2018-09-09T12:32:54Z</time>
      </trkpt>
      <trkpt lat="45.45065" lon="7.03157">
        <ele>2143.44</ele>
        <time>2018-09-09T12:32:56Z</time>
      </trkpt>
      <trkpt lat="45.45076" lon="7.03178">
        <ele>2142.44</ele>
        <time>2018-09-09T12:32:57Z</time>
      </trkpt>
      <trkpt lat="45.45087" lon="7.03198">
        <ele>2140.74</ele>
        <time>2018-09-09T12:32:58Z</time>
      </trkpt>
      <trkpt lat="45.45097" lon="7.03222">
        <ele>2138.83</ele>
        <time>2018-09-09T12:32:59Z</time>
      </trkpt>
      <trkpt lat="45.45106" lon="7.03247">
        <ele>2136.86</ele>
        <time>2018-09-09T12:33:00Z</time>
      </trkpt>
      <trkpt lat="45.45115" lon="7.03275">
        <ele>2134.87</ele>
        <time>2018-09-09T12:33:01Z</time>
      </trkpt>
      <trkpt lat="45.45125" lon="7.03302">
        <ele>2134.27</ele>
        <time>2018-09-09T12:33:02Z</time>
      </trkpt>
      <trkpt lat="45.45134" lon="7.03331">
        <ele>2132.69</ele>
        <time>2018-09-09T12:33:03Z</time>
      </trkpt>
      <trkpt lat="45.45143" lon="7.03358">
        <ele>2131.52</ele>
        <time>2018-09-09T12:33:04Z</time>
      </trkpt>
      <trkpt lat="45.45152" lon="7.03383">
        <ele>2129.77</ele>
        <time>2018-09-09T12:33:05Z</time>
      </trkpt>
      <trkpt lat="45.45162" lon="7.03406">
        <ele>2128.54</ele>
        <time>2018-09-09T12:33:06Z</time>
      </trkpt>
      <trkpt lat="45.45175" lon="7.03425">
        <ele>2127.47</ele>
        <time>2018-09-09T12:33:07Z</time>
      </trkpt>
      <trkpt lat="45.45198" lon="7.03462">
        <ele>2123.84</ele>
        <time>2018-09-09T12:33:09Z</time>
      </trkpt>
      <trkpt lat="45.45209" lon="7.03486">
        <ele>2122.56</ele>
        <time>2018-09-09T12:33:10Z</time>
      </trkpt>
      <trkpt lat="45.45218" lon="7.03512">
        <ele>2120.78</ele>
        <time>2018-09-09T12:33:11Z</time>
      </trkpt>
      <trkpt lat="45.45228" lon="7.03539">
        <ele>2118.84</ele>
        <time>2018-09-09T12:33:12Z</time>
      </trkpt>
      <trkpt lat="45.45238" lon="7.03567">
        <ele>2116.86</ele>
        <time>2018-09-09T12:33:13Z</time>
      </trkpt>
      <trkpt lat="45.45248" lon="7.03593">
        <ele>2115.57</ele>
        <time>2018-09-09T12:33:14Z</time>
      </trkpt>
      <trkpt lat="45.45259" lon="7.03618">
        <ele>2114.48</ele>
        <time>2018-09-09T12:33:15Z</time>
      </trkpt>
      <trkpt lat="45.45271" lon="7.03642">
        <ele>2112.75</ele>
        <time>2018-09-09T12:33:16Z</time>
      </trkpt>
      <trkpt lat="45.45281" lon="7.03666">
        <ele>2110.84</ele>
        <time>2018-09-09T12:33:17Z</time>
      </trkpt>
      <trkpt lat="45.45291" lon="7.0369">
        <ele>2109.56</ele>
        <time>2018-09-09T12:33:18Z</time>
      </trkpt>
      <trkpt lat="45.45302" lon="7.03713">
        <ele>2107.78</ele>
        <time>2018-09-09T12:33:19Z</time>
      </trkpt>
      <trkpt lat="45.45312" lon="7.03736">
        <ele>2106.54</ele>
        <time>2018-09-09T12:33:20Z</time>
      </trkpt>
      <trkpt lat="45.45321" lon="7.03761">
        <ele>2105.47</ele>
        <time>2018-09-09T12:33:21Z</time>
      </trkpt>
      <trkpt lat="45.4533" lon="7.03785">
        <ele>2103.75</ele>
        <time>2018-09-09T12:33:22Z</time>
      </trkpt>
      <trkpt lat="45.45339" lon="7.03808">
        <ele>2101.84</ele>
        <time>2018-09-09T12:33:23Z</time>
      </trkpt>
      <trkpt lat="45.45347" lon="7.03831">
        <ele>2099.86</ele>
        <time>2018-09-09T12:33:24Z</time>
      </trkpt>
      <trkpt lat="45.45354" lon="7.03854">
        <ele>2097.87</ele>
        <time>2018-09-09T12:33:25Z</time>
      </trkpt>
      <trkpt lat="45.45359" lon="7.03879">
        <ele>2096.57</ele>
        <time>2018-09-09T12:33:26Z</time>
      </trkpt>
      <trkpt lat="45.45366" lon="7.03926">
        <ele>2094.46</ele>
        <time>2018-09-09T12:33:28Z</time>
      </trkpt>
      <trkpt lat="45.45371" lon="7.03962">
        <ele>2093.35</ele>
        <time>2018-09-09T12:33:30Z</time>
      </trkpt>
      <trkpt lat="45.45387" lon="7.03983">
        <ele>2092.11</ele>
        <time>2018-09-09T12:33:33Z</time>
      </trkpt>
      <trkpt lat="45.45401" lon="7.03964">
        <ele>2090.34</ele>
        <time>2018-09-09T12:33:36Z</time>
      </trkpt>
      <trkpt lat="45.45386" lon="7.03939">
        <ele>2089.41</ele>
        <time>2018-09-09T12:33:37Z</time>
      </trkpt>
      <trkpt lat="45.45379" lon="7.03904">
        <ele>2088.14</ele>
        <time>2018-09-09T12:33:39Z</time>
      </trkpt>
      <trkpt lat="45.45383" lon="7.03861">
        <ele>2085.51</ele>
        <time>2018-09-09T12:33:41Z</time>
      </trkpt>
      <trkpt lat="45.45382" lon="7.03813">
        <ele>2082.75</ele>
        <time>2018-09-09T12:33:43Z</time>
      </trkpt>
      <trkpt lat="45.45377" lon="7.03762">
        <ele>2078.86</ele>
        <time>2018-09-09T12:33:45Z</time>
      </trkpt>
      <trkpt lat="45.45374" lon="7.03736">
        <ele>2076.87</ele>
        <time>2018-09-09T12:33:46Z</time>
      </trkpt>
      <trkpt lat="45.45365" lon="7.03687">
        <ele>2073.57</ele>
        <time>2018-09-09T12:33:48Z</time>
      </trkpt>
      <trkpt lat="45.45357" lon="7.0364">
        <ele>2070.55</ele>
        <time>2018-09-09T12:33:50Z</time>
      </trkpt>
      <trkpt lat="45.45348" lon="7.03596">
        <ele>2068.45</ele>
        <time>2018-09-09T12:33:52Z</time>
      </trkpt>
      <trkpt lat="45.45336" lon="7.03561">
        <ele>2065.74</ele>
        <time>2018-09-09T12:33:54Z</time>
      </trkpt>
      <trkpt lat="45.45324" lon="7.03534">
        <ele>2064.38</ele>
        <time>2018-09-09T12:33:56Z</time>
      </trkpt>
      <trkpt lat="45.45331" lon="7.03508">
        <ele>2064.09</ele>
        <time>2018-09-09T12:33:59Z</time>
      </trkpt>
      <trkpt lat="45.45344" lon="7.03542">
        <ele>2063.32</ele>
        <time>2018-09-09T12:34:02Z</time>
      </trkpt>
      <trkpt lat="45.45353" lon="7.03577">
        <ele>2061.84</ele>
        <time>2018-09-09T12:34:05Z</time>
      </trkpt>
      <trkpt lat="45.45366" lon="7.03602">
        <ele>2060.39</ele>
        <time>2018-09-09T12:34:07Z</time>
      </trkpt>
      <trkpt lat="45.45379" lon="7.03627">
        <ele>2059.84</ele>
        <time>2018-09-09T12:34:09Z</time>
      </trkpt>
      <trkpt lat="45.45391" lon="7.03648">
        <ele>2059.09</ele>
        <time>2018-09-09T12:34:11Z</time>
      </trkpt>
      <trkpt lat="45.45407" lon="7.03659">
        <ele>2058.32</ele>
        <time>2018-09-09T12:34:13Z</time>
      </trkpt>
      <trkpt lat="45.45432" lon="7.03665">
        <ele>2055.44</ele>
        <time>2018-09-09T12:34:16Z</time>
      </trkpt>
      <trkpt lat="45.45457" lon="7.03669">
        <ele>2054.33</ele>
        <time>2018-09-09T12:34:19Z</time>
      </trkpt>
      <trkpt lat="45.45475" lon="7.03661">
        <ele>2053.34</ele>
        <time>2018-09-09T12:34:21Z</time>
      </trkpt>
      <trkpt lat="45.45487" lon="7.0364">
        <ele>2052.34</ele>
        <time>2018-09-09T12:34:23Z</time>
      </trkpt>
      <trkpt lat="45.45493" lon="7.0361">
        <ele>2051.34</ele>
        <time>2018-09-09T12:34:25Z</time>
      </trkpt>
      <trkpt lat="45.45496" lon="7.03575">
        <ele>2050.13</ele>
        <time>2018-09-09T12:34:27Z</time>
      </trkpt>
      <trkpt lat="45.45499" lon="7.03533">
        <ele>2048.42</ele>
        <time>2018-09-09T12:34:29Z</time>
      </trkpt>
      <trkpt lat="45.45496" lon="7.03484">
        <ele>2047.35</ele>
        <time>2018-09-09T12:34:31Z</time>
      </trkpt>
      <trkpt lat="45.45492" lon="7.03457">
        <ele>2047.12</ele>
        <time>2018-09-09T12:34:32Z</time>
      </trkpt>
      <trkpt lat="45.45486" lon="7.0343">
        <ele>2047.05</ele>
        <time>2018-09-09T12:34:33Z</time>
      </trkpt>
      <trkpt lat="45.45481" lon="7.03403">
        <ele>2047.72</ele>
        <time>2018-09-09T12:34:34Z</time>
      </trkpt>
      <trkpt lat="45.45475" lon="7.03377">
        <ele>2047.93</ele>
        <time>2018-09-09T12:34:35Z</time>
      </trkpt>
      <trkpt lat="45.45468" lon="7.0335">
        <ele>2047.99</ele>
        <time>2018-09-09T12:34:36Z</time>
      </trkpt>
      <trkpt lat="45.45458" lon="7.03325">
        <ele>2048.01</ele>
        <time>2018-09-09T12:34:37Z</time>
      </trkpt>
      <trkpt lat="45.45448" lon="7.03301">
        <ele>2047.31</ele>
        <time>2018-09-09T12:34:38Z</time>
      </trkpt>
      <trkpt lat="45.45437" lon="7.03278">
        <ele>2047.1</ele>
        <time>2018-09-09T12:34:39Z</time>
      </trkpt>
      <trkpt lat="45.45425" lon="7.03254">
        <ele>2047.04</ele>
        <time>2018-09-09T12:34:40Z</time>
      </trkpt>
      <trkpt lat="45.45414" lon="7.03231">
        <ele>2047.72</ele>
        <time>2018-09-09T12:34:41Z</time>
      </trkpt>
      <trkpt lat="45.45402" lon="7.03209">
        <ele>2047.93</ele>
        <time>2018-09-09T12:34:42Z</time>
      </trkpt>
      <trkpt lat="45.45392" lon="7.03186">
        <ele>2047.99</ele>
        <time>2018-09-09T12:34:43Z</time>
      </trkpt>
      <trkpt lat="45.45383" lon="7.03163">
        <ele>2047.31</ele>
        <time>2018-09-09T12:34:44Z</time>
      </trkpt>
      <trkpt lat="45.45373" lon="7.03139">
        <ele>2046.4</ele>
        <time>2018-09-09T12:34:45Z</time>
      </trkpt>
      <trkpt lat="45.45363" lon="7.03115">
        <ele>2045.43</ele>
        <time>2018-09-09T12:34:46Z</time>
      </trkpt>
      <trkpt lat="45.45354" lon="7.0309">
        <ele>2045.14</ele>
        <time>2018-09-09T12:34:47Z</time>
      </trkpt>
      <trkpt lat="45.45344" lon="7.03065">
        <ele>2044.35</ele>
        <time>2018-09-09T12:34:48Z</time>
      </trkpt>
      <trkpt lat="45.45334" lon="7.03039">
        <ele>2042.72</ele>
        <time>2018-09-09T12:34:49Z</time>
      </trkpt>
      <trkpt lat="45.45323" lon="7.03014">
        <ele>2042.23</ele>
        <time>2018-09-09T12:34:50Z</time>
      </trkpt>
      <trkpt lat="45.45313" lon="7.02988">
        <ele>2041.38</ele>
        <time>2018-09-09T12:34:51Z</time>
      </trkpt>
      <trkpt lat="45.45302" lon="7.02962">
        <ele>2040.42</ele>
        <time>2018-09-09T12:34:52Z</time>
      </trkpt>
      <trkpt lat="45.45292" lon="7.02936">
        <ele>2039.44</ele>
        <time>2018-09-09T12:34:53Z</time>
      </trkpt>
      <trkpt lat="45.45281" lon="7.02909">
        <ele>2039.14</ele>
        <time>2018-09-09T12:34:54Z</time>
      </trkpt>
      <trkpt lat="45.45271" lon="7.02883">
        <ele>2038.35</ele>
        <time>2018-09-09T12:34:55Z</time>
      </trkpt>
      <trkpt lat="45.45265" lon="7.02856">
        <ele>2037.42</ele>
        <time>2018-09-09T12:34:56Z</time>
      </trkpt>
      <trkpt lat="45.45259" lon="7.02828">
        <ele>2036.44</ele>
        <time>2018-09-09T12:34:57Z</time>
      </trkpt>
      <trkpt lat="45.45258" lon="7.02798">
        <ele>2035.44</ele>
        <time>2018-09-09T12:34:58Z</time>
      </trkpt>
      <trkpt lat="45.45255" lon="7.02767">
        <ele>2035.14</ele>
        <time>2018-09-09T12:34:59Z</time>
      </trkpt>
      <trkpt lat="45.45251" lon="7.02735">
        <ele>2034.35</ele>
        <time>2018-09-09T12:35:00Z</time>
      </trkpt>
      <trkpt lat="45.45245" lon="7.02705">
        <ele>2033.42</ele>
        <time>2018-09-09T12:35:01Z</time>
      </trkpt>
      <trkpt lat="45.45237" lon="7.02676">
        <ele>2032.44</ele>
        <time>2018-09-09T12:35:02Z</time>
      </trkpt>
      <trkpt lat="45.45227" lon="7.02647">
        <ele>2032.14</ele>
        <time>2018-09-09T12:35:03Z</time>
      </trkpt>
      <trkpt lat="45.45216" lon="7.02618">
        <ele>2032.05</ele>
        <time>2018-09-09T12:35:04Z</time>
      </trkpt>
      <trkpt lat="45.45206" lon="7.0259">
        <ele>2031.33</ele>
        <time>2018-09-09T12:35:05Z</time>
      </trkpt>
      <trkpt lat="45.45196" lon="7.02562">
        <ele>2030.41</ele>
        <time>2018-09-09T12:35:06Z</time>
      </trkpt>
      <trkpt lat="45.45186" lon="7.02535">
        <ele>2029.43</ele>
        <time>2018-09-09T12:35:07Z</time>
      </trkpt>
      <trkpt lat="45.45177" lon="7.02509">
        <ele>2028.44</ele>
        <time>2018-09-09T12:35:08Z</time>
      </trkpt>
      <trkpt lat="45.45168" lon="7.02484">
        <ele>2027.44</ele>
        <time>2018-09-09T12:35:09Z</time>
      </trkpt>
      <trkpt lat="45.45159" lon="7.0246">
        <ele>2026.44</ele>
        <time>2018-09-09T12:35:10Z</time>
      </trkpt>
      <trkpt lat="45.45151" lon="7.02437">
        <ele>2025.44</ele>
        <time>2018-09-09T12:35:11Z</time>
      </trkpt>
      <trkpt lat="45.45144" lon="7.02391">
        <ele>2024.35</ele>
        <time>2018-09-09T12:35:13Z</time>
      </trkpt>
      <trkpt lat="45.45153" lon="7.02348">
        <ele>2022.44</ele>
        <time>2018-09-09T12:35:15Z</time>
      </trkpt>
      <trkpt lat="45.45174" lon="7.0231">
        <ele>2019.74</ele>
        <time>2018-09-09T12:35:17Z</time>
      </trkpt>
      <trkpt lat="45.45202" lon="7.0229">
        <ele>2015.86</ele>
        <time>2018-09-09T12:35:19Z</time>
      </trkpt>
      <trkpt lat="45.4523" lon="7.02279">
        <ele>2014.39</ele>
        <time>2018-09-09T12:35:21Z</time>
      </trkpt>
      <trkpt lat="45.45251" lon="7.02248">
        <ele>2012.44</ele>
        <time>2018-09-09T12:35:23Z</time>
      </trkpt>
      <trkpt lat="45.45264" lon="7.02204">
        <ele>2008.83</ele>
        <time>2018-09-09T12:35:25Z</time>
      </trkpt>
      <trkpt lat="45.45263" lon="7.02155">
        <ele>2006.48</ele>
        <time>2018-09-09T12:35:27Z</time>
      </trkpt>
      <trkpt lat="45.45262" lon="7.0211">
        <ele>2005.15</ele>
        <time>2018-09-09T12:35:29Z</time>
      </trkpt>
      <trkpt lat="45.45279" lon="7.02065">
        <ele>2002.51</ele>
        <time>2018-09-09T12:35:31Z</time>
      </trkpt>
      <trkpt lat="45.45286" lon="7.02041">
        <ele>2000.76</ele>
        <time>2018-09-09T12:35:32Z</time>
      </trkpt>
      <trkpt lat="45.45294" lon="7.02015">
        <ele>1999.54</ele>
        <time>2018-09-09T12:35:33Z</time>
      </trkpt>
      <trkpt lat="45.45299" lon="7.0199">
        <ele>1997.77</ele>
        <time>2018-09-09T12:35:34Z</time>
      </trkpt>
      <trkpt lat="45.45299" lon="7.01962">
        <ele>1996.54</ele>
        <time>2018-09-09T12:35:35Z</time>
      </trkpt>
      <trkpt lat="45.45295" lon="7.01933">
        <ele>1995.47</ele>
        <time>2018-09-09T12:35:36Z</time>
      </trkpt>
      <trkpt lat="45.4529" lon="7.01902">
        <ele>1993.75</ele>
        <time>2018-09-09T12:35:37Z</time>
      </trkpt>
      <trkpt lat="45.45284" lon="7.01871">
        <ele>1992.54</ele>
        <time>2018-09-09T12:35:38Z</time>
      </trkpt>
      <trkpt lat="45.45279" lon="7.01839">
        <ele>1990.77</ele>
        <time>2018-09-09T12:35:39Z</time>
      </trkpt>
      <trkpt lat="45.45274" lon="7.01806">
        <ele>1988.84</ele>
        <time>2018-09-09T12:35:40Z</time>
      </trkpt>
      <trkpt lat="45.45269" lon="7.01773">
        <ele>1986.86</ele>
        <time>2018-09-09T12:35:41Z</time>
      </trkpt>
      <trkpt lat="45.45263" lon="7.01741">
        <ele>1985.57</ele>
        <time>2018-09-09T12:35:42Z</time>
      </trkpt>
      <trkpt lat="45.45253" lon="7.0171">
        <ele>1983.08</ele>
        <time>2018-09-09T12:35:43Z</time>
      </trkpt>
      <trkpt lat="45.45242" lon="7.0168">
        <ele>1980.93</ele>
        <time>2018-09-09T12:35:44Z</time>
      </trkpt>
      <trkpt lat="45.4523" lon="7.01652">
        <ele>1978.89</ele>
        <time>2018-09-09T12:35:45Z</time>
      </trkpt>
      <trkpt lat="45.45217" lon="7.01624">
        <ele>1978.28</ele>
        <time>2018-09-09T12:35:46Z</time>
      </trkpt>
      <trkpt lat="45.45206" lon="7.01595">
        <ele>1977.39</ele>
        <time>2018-09-09T12:35:47Z</time>
      </trkpt>
      <trkpt lat="45.45196" lon="7.01565">
        <ele>1975.73</ele>
        <time>2018-09-09T12:35:48Z</time>
      </trkpt>
      <trkpt lat="45.45186" lon="7.01536">
        <ele>1973.83</ele>
        <time>2018-09-09T12:35:49Z</time>
      </trkpt>
      <trkpt lat="45.45176" lon="7.01507">
        <ele>1971.86</ele>
        <time>2018-09-09T12:35:50Z</time>
      </trkpt>
      <trkpt lat="45.45166" lon="7.01479">
        <ele>1970.57</ele>
        <time>2018-09-09T12:35:51Z</time>
      </trkpt>
      <trkpt lat="45.45155" lon="7.01451">
        <ele>1968.08</ele>
        <time>2018-09-09T12:35:52Z</time>
      </trkpt>
      <trkpt lat="45.45144" lon="7.01423">
        <ele>1965.93</ele>
        <time>2018-09-09T12:35:53Z</time>
      </trkpt>
      <trkpt lat="45.45134" lon="7.01395">
        <ele>1963.19</ele>
        <time>2018-09-09T12:35:54Z</time>
      </trkpt>
      <trkpt lat="45.45124" lon="7.01367">
        <ele>1960.97</ele>
        <time>2018-09-09T12:35:55Z</time>
      </trkpt>
      <trkpt lat="45.45114" lon="7.0134">
        <ele>1959.6</ele>
        <time>2018-09-09T12:35:56Z</time>
      </trkpt>
      <trkpt lat="45.45104" lon="7.01315">
        <ele>1957.79</ele>
        <time>2018-09-09T12:35:57Z</time>
      </trkpt>
      <trkpt lat="45.45095" lon="7.01291">
        <ele>1956.55</ele>
        <time>2018-09-09T12:35:58Z</time>
      </trkpt>
      <trkpt lat="45.45082" lon="7.01251">
        <ele>1954.45</ele>
        <time>2018-09-09T12:36:00Z</time>
      </trkpt>
      <trkpt lat="45.45076" lon="7.01216">
        <ele>1951.74</ele>
        <time>2018-09-09T12:36:02Z</time>
      </trkpt>
      <trkpt lat="45.45069" lon="7.01184">
        <ele>1950.38</ele>
        <time>2018-09-09T12:36:04Z</time>
      </trkpt>
      <trkpt lat="45.45056" lon="7.01157">
        <ele>1949.14</ele>
        <time>2018-09-09T12:36:06Z</time>
      </trkpt>
      <trkpt lat="45.45047" lon="7.0113">
        <ele>1948.33</ele>
        <time>2018-09-09T12:36:08Z</time>
      </trkpt>
      <trkpt lat="45.45045" lon="7.01095">
        <ele>1945.73</ele>
        <time>2018-09-09T12:36:10Z</time>
      </trkpt>
      <trkpt lat="45.45032" lon="7.01062">
        <ele>1944.17</ele>
        <time>2018-09-09T12:36:12Z</time>
      </trkpt>
      <trkpt lat="45.45014" lon="7.01032">
        <ele>1942.21</ele>
        <time>2018-09-09T12:36:14Z</time>
      </trkpt>
      <trkpt lat="45.44994" lon="7.01008">
        <ele>1940.42</ele>
        <time>2018-09-09T12:36:16Z</time>
      </trkpt>
      <trkpt lat="45.44978" lon="7.00983">
        <ele>1938.44</ele>
        <time>2018-09-09T12:36:18Z</time>
      </trkpt>
      <trkpt lat="45.44964" lon="7.00957">
        <ele>1936.44</ele>
        <time>2018-09-09T12:36:20Z</time>
      </trkpt>
      <trkpt lat="45.44952" lon="7.00929">
        <ele>1934.44</ele>
        <time>2018-09-09T12:36:22Z</time>
      </trkpt>
      <trkpt lat="45.44937" lon="7.00897">
        <ele>1931.53</ele>
        <time>2018-09-09T12:36:24Z</time>
      </trkpt>
      <trkpt lat="45.4492" lon="7.00862">
        <ele>1929.45</ele>
        <time>2018-09-09T12:36:26Z</time>
      </trkpt>
      <trkpt lat="45.44903" lon="7.00824">
        <ele>1926.74</ele>
        <time>2018-09-09T12:36:28Z</time>
      </trkpt>
      <trkpt lat="45.44884" lon="7.00783">
        <ele>1923.77</ele>
        <time>2018-09-09T12:36:30Z</time>
      </trkpt>
      <trkpt lat="45.44866" lon="7.0074">
        <ele>1920.56</ele>
        <time>2018-09-09T12:36:32Z</time>
      </trkpt>
      <trkpt lat="45.44857" lon="7.00718">
        <ele>1918.78</ele>
        <time>2018-09-09T12:36:33Z</time>
      </trkpt>
      <trkpt lat="45.44848" lon="7.00696">
        <ele>1917.54</ele>
        <time>2018-09-09T12:36:34Z</time>
      </trkpt>
      <trkpt lat="45.44841" lon="7.00672">
        <ele>1915.77</ele>
        <time>2018-09-09T12:36:35Z</time>
      </trkpt>
      <trkpt lat="45.44835" lon="7.00648">
        <ele>1914.54</ele>
        <time>2018-09-09T12:36:36Z</time>
      </trkpt>
      <trkpt lat="45.44832" lon="7.00621">
        <ele>1913.47</ele>
        <time>2018-09-09T12:36:37Z</time>
      </trkpt>
      <trkpt lat="45.44831" lon="7.00594">
        <ele>1912.45</ele>
        <time>2018-09-09T12:36:38Z</time>
      </trkpt>
      <trkpt lat="45.4483" lon="7.00566">
        <ele>1910.75</ele>
        <time>2018-09-09T12:36:39Z</time>
      </trkpt>
      <trkpt lat="45.44829" lon="7.00538">
        <ele>1909.53</ele>
        <time>2018-09-09T12:36:40Z</time>
      </trkpt>
      <trkpt lat="45.44828" lon="7.00511">
        <ele>1908.47</ele>
        <time>2018-09-09T12:36:41Z</time>
      </trkpt>
      <trkpt lat="45.44827" lon="7.00484">
        <ele>1907.45</ele>
        <time>2018-09-09T12:36:42Z</time>
      </trkpt>
      <trkpt lat="45.44826" lon="7.00456">
        <ele>1906.45</ele>
        <time>2018-09-09T12:36:43Z</time>
      </trkpt>
      <trkpt lat="45.44825" lon="7.00428">
        <ele>1905.44</ele>
        <time>2018-09-09T12:36:44Z</time>
      </trkpt>
      <trkpt lat="45.44823" lon="7.004">
        <ele>1903.74</ele>
        <time>2018-09-09T12:36:45Z</time>
      </trkpt>
      <trkpt lat="45.44822" lon="7.00372">
        <ele>1902.53</ele>
        <time>2018-09-09T12:36:46Z</time>
      </trkpt>
      <trkpt lat="45.4482" lon="7.00344">
        <ele>1901.47</ele>
        <time>2018-09-09T12:36:47Z</time>
      </trkpt>
      <trkpt lat="45.44818" lon="7.00315">
        <ele>1900.45</ele>
        <time>2018-09-09T12:36:48Z</time>
      </trkpt>
      <trkpt lat="45.44814" lon="7.00286">
        <ele>1899.45</ele>
        <time>2018-09-09T12:36:49Z</time>
      </trkpt>
      <trkpt lat="45.44809" lon="7.00258">
        <ele>1899.14</ele>
        <time>2018-09-09T12:36:50Z</time>
      </trkpt>
      <trkpt lat="45.44805" lon="7.00228">
        <ele>1897.65</ele>
        <time>2018-09-09T12:36:51Z</time>
      </trkpt>
      <trkpt lat="45.44799" lon="7.00198">
        <ele>1896.51</ele>
        <time>2018-09-09T12:36:52Z</time>
      </trkpt>
      <trkpt lat="45.44794" lon="7.00169">
        <ele>1895.46</ele>
        <time>2018-09-09T12:36:53Z</time>
      </trkpt>
      <trkpt lat="45.44791" lon="7.00139">
        <ele>1893.75</ele>
        <time>2018-09-09T12:36:54Z</time>
      </trkpt>
      <trkpt lat="45.4479" lon="7.00108">
        <ele>1891.84</ele>
        <time>2018-09-09T12:36:55Z</time>
      </trkpt>
      <trkpt lat="45.44789" lon="7.00077">
        <ele>1889.86</ele>
        <time>2018-09-09T12:36:56Z</time>
      </trkpt>
      <trkpt lat="45.44787" lon="7.00045">
        <ele>1888.57</ele>
        <time>2018-09-09T12:36:57Z</time>
      </trkpt>
      <trkpt lat="45.44781" lon="7.00014">
        <ele>1886.78</ele>
        <time>2018-09-09T12:36:58Z</time>
      </trkpt>
      <trkpt lat="45.44775" lon="6.99984">
        <ele>1885.54</ele>
        <time>2018-09-09T12:36:59Z</time>
      </trkpt>
      <trkpt lat="45.44769" lon="6.99954">
        <ele>1884.47</ele>
        <time>2018-09-09T12:37:00Z</time>
      </trkpt>
      <trkpt lat="45.44763" lon="6.99923">
        <ele>1882.75</ele>
        <time>2018-09-09T12:37:01Z</time>
      </trkpt>
      <trkpt lat="45.44758" lon="6.99892">
        <ele>1881.54</ele>
        <time>2018-09-09T12:37:02Z</time>
      </trkpt>
      <trkpt lat="45.44754" lon="6.99862">
        <ele>1880.47</ele>
        <time>2018-09-09T12:37:03Z</time>
      </trkpt>
      <trkpt lat="45.44751" lon="6.9983">
        <ele>1878.75</ele>
        <time>2018-09-09T12:37:04Z</time>
      </trkpt>
      <trkpt lat="45.44748" lon="6.998">
        <ele>1876.84</ele>
        <time>2018-09-09T12:37:05Z</time>
      </trkpt>
      <trkpt lat="45.44746" lon="6.99769">
        <ele>1875.56</ele>
        <time>2018-09-09T12:37:06Z</time>
      </trkpt>
      <trkpt lat="45.44745" lon="6.99739">
        <ele>1874.48</ele>
        <time>2018-09-09T12:37:07Z</time>
      </trkpt>
      <trkpt lat="45.44743" lon="6.99709">
        <ele>1873.45</ele>
        <time>2018-09-09T12:37:08Z</time>
      </trkpt>
      <trkpt lat="45.44742" lon="6.9968">
        <ele>1871.75</ele>
        <time>2018-09-09T12:37:09Z</time>
      </trkpt>
      <trkpt lat="45.44741" lon="6.99651">
        <ele>1870.53</ele>
        <time>2018-09-09T12:37:10Z</time>
      </trkpt>
      <trkpt lat="45.4474" lon="6.99623">
        <ele>1870.17</ele>
        <time>2018-09-09T12:37:11Z</time>
      </trkpt>
      <trkpt lat="45.4474" lon="6.99596">
        <ele>1869.36</ele>
        <time>2018-09-09T12:37:12Z</time>
      </trkpt>
      <trkpt lat="45.44739" lon="6.99568">
        <ele>1868.42</ele>
        <time>2018-09-09T12:37:13Z</time>
      </trkpt>
      <trkpt lat="45.44738" lon="6.99541">
        <ele>1867.44</ele>
        <time>2018-09-09T12:37:14Z</time>
      </trkpt>
      <trkpt lat="45.44739" lon="6.99515">
        <ele>1866.44</ele>
        <time>2018-09-09T12:37:15Z</time>
      </trkpt>
      <trkpt lat="45.44739" lon="6.99488">
        <ele>1866.14</ele>
        <time>2018-09-09T12:37:16Z</time>
      </trkpt>
      <trkpt lat="45.4474" lon="6.99463">
        <ele>1865.35</ele>
        <time>2018-09-09T12:37:17Z</time>
      </trkpt>
      <trkpt lat="45.44742" lon="6.99437">
        <ele>1864.42</ele>
        <time>2018-09-09T12:37:18Z</time>
      </trkpt>
      <trkpt lat="45.44744" lon="6.99386">
        <ele>1862.44</ele>
        <time>2018-09-09T12:37:20Z</time>
      </trkpt>
      <trkpt lat="45.44744" lon="6.9936">
        <ele>1862.14</ele>
        <time>2018-09-09T12:37:21Z</time>
      </trkpt>
      <trkpt lat="45.44743" lon="6.99333">
        <ele>1861.35</ele>
        <time>2018-09-09T12:37:22Z</time>
      </trkpt>
      <trkpt lat="45.44741" lon="6.99307">
        <ele>1861.12</ele>
        <time>2018-09-09T12:37:23Z</time>
      </trkpt>
      <trkpt lat="45.44738" lon="6.99282">
        <ele>1860.35</ele>
        <time>2018-09-09T12:37:24Z</time>
      </trkpt>
      <trkpt lat="45.44735" lon="6.99256">
        <ele>1859.41</ele>
        <time>2018-09-09T12:37:25Z</time>
      </trkpt>
      <trkpt lat="45.44731" lon="6.99231">
        <ele>1859.13</ele>
        <time>2018-09-09T12:37:26Z</time>
      </trkpt>
      <trkpt lat="45.44728" lon="6.99205">
        <ele>1858.35</ele>
        <time>2018-09-09T12:37:27Z</time>
      </trkpt>
      <trkpt lat="45.44721" lon="6.99158">
        <ele>1856.44</ele>
        <time>2018-09-09T12:37:29Z</time>
      </trkpt>
      <trkpt lat="45.44713" lon="6.99113">
        <ele>1855.35</ele>
        <time>2018-09-09T12:37:31Z</time>
      </trkpt>
      <trkpt lat="45.44705" lon="6.99067">
        <ele>1854.14</ele>
        <time>2018-09-09T12:37:33Z</time>
      </trkpt>
      <trkpt lat="45.44698" lon="6.99023">
        <ele>1853.33</ele>
        <time>2018-09-09T12:37:35Z</time>
      </trkpt>
      <trkpt lat="45.44691" lon="6.98981">
        <ele>1850.73</ele>
        <time>2018-09-09T12:37:37Z</time>
      </trkpt>
      <trkpt lat="45.44683" lon="6.98942">
        <ele>1849.38</ele>
        <time>2018-09-09T12:37:39Z</time>
      </trkpt>
      <trkpt lat="45.44677" lon="6.98906">
        <ele>1849.05</ele>
        <time>2018-09-09T12:37:41Z</time>
      </trkpt>
      <trkpt lat="45.44671" lon="6.98869">
        <ele>1848.32</ele>
        <time>2018-09-09T12:37:43Z</time>
      </trkpt>
      <trkpt lat="45.44669" lon="6.98835">
        <ele>1848.04</ele>
        <time>2018-09-09T12:37:45Z</time>
      </trkpt>
      <trkpt lat="45.44667" lon="6.98804">
        <ele>1848.02</ele>
        <time>2018-09-09T12:37:47Z</time>
      </trkpt>
      <trkpt lat="45.44662" lon="6.98776">
        <ele>1847.32</ele>
        <time>2018-09-09T12:37:49Z</time>
      </trkpt>
      <trkpt lat="45.4466" lon="6.98748">
        <ele>1847.04</ele>
        <time>2018-09-09T12:37:51Z</time>
      </trkpt>
      <trkpt lat="45.44663" lon="6.9872">
        <ele>1846.32</ele>
        <time>2018-09-09T12:37:53Z</time>
      </trkpt>
      <trkpt lat="45.44665" lon="6.98693">
        <ele>1845.13</ele>
        <time>2018-09-09T12:37:55Z</time>
      </trkpt>
      <trkpt lat="45.4467" lon="6.98666">
        <ele>1844.33</ele>
        <time>2018-09-09T12:37:57Z</time>
      </trkpt>
      <trkpt lat="45.44678" lon="6.98638">
        <ele>1843.34</ele>
        <time>2018-09-09T12:37:59Z</time>
      </trkpt>
      <trkpt lat="45.44686" lon="6.9861">
        <ele>1843.04</ele>
        <time>2018-09-09T12:38:01Z</time>
      </trkpt>
      <trkpt lat="45.44695" lon="6.98581">
        <ele>1843.72</ele>
        <time>2018-09-09T12:38:03Z</time>
      </trkpt>
      <trkpt lat="45.44705" lon="6.9855">
        <ele>1844.69</ele>
        <time>2018-09-09T12:38:05Z</time>
      </trkpt>
      <trkpt lat="45.44714" lon="6.98519">
        <ele>1844.99</ele>
        <time>2018-09-09T12:38:07Z</time>
      </trkpt>
      <trkpt lat="45.44723" lon="6.98486">
        <ele>1843.19</ele>
        <time>2018-09-09T12:38:09Z</time>
      </trkpt>
      <trkpt lat="45.44733" lon="6.98454">
        <ele>1843.03</ele>
        <time>2018-09-09T12:38:11Z</time>
      </trkpt>
      <trkpt lat="45.44744" lon="6.98423">
        <ele>1843.23</ele>
        <time>2018-09-09T12:38:13Z</time>
      </trkpt>
      <trkpt lat="45.44753" lon="6.98391">
        <ele>1842.33</ele>
        <time>2018-09-09T12:38:15Z</time>
      </trkpt>
      <trkpt lat="45.44762" lon="6.9836">
        <ele>1841.34</ele>
        <time>2018-09-09T12:38:17Z</time>
      </trkpt>
      <trkpt lat="45.44772" lon="6.9833">
        <ele>1841.04</ele>
        <time>2018-09-09T12:38:19Z</time>
      </trkpt>
      <trkpt lat="45.44781" lon="6.98301">
        <ele>1840.32</ele>
        <time>2018-09-09T12:38:21Z</time>
      </trkpt>
      <trkpt lat="45.4479" lon="6.98272">
        <ele>1840.25</ele>
        <time>2018-09-09T12:38:23Z</time>
      </trkpt>
      <trkpt lat="45.44799" lon="6.98248">
        <ele>1839.34</ele>
        <time>2018-09-09T12:38:25Z</time>
      </trkpt>
      <trkpt lat="45.44811" lon="6.9822">
        <ele>1836.65</ele>
        <time>2018-09-09T12:38:28Z</time>
      </trkpt>
      <trkpt lat="45.44819" lon="6.98193">
        <ele>1834.02</ele>
        <time>2018-09-09T12:39:28Z</time>
      </trkpt>
      <trkpt lat="45.44828" lon="6.98169">
        <ele>1832.13</ele>
        <time>2018-09-09T12:39:31Z</time>
      </trkpt>
      <trkpt lat="45.4484" lon="6.9814">
        <ele>1830.14</ele>
        <time>2018-09-09T12:39:34Z</time>
      </trkpt>
      <trkpt lat="45.44854" lon="6.98112">
        <ele>1829.32</ele>
        <time>2018-09-09T12:39:37Z</time>
      </trkpt>
      <trkpt lat="45.44867" lon="6.98084">
        <ele>1828.11</ele>
        <time>2018-09-09T12:39:40Z</time>
      </trkpt>
      <trkpt lat="45.4488" lon="6.98057">
        <ele>1828.02</ele>
        <time>2018-09-09T12:39:43Z</time>
      </trkpt>
      <trkpt lat="45.44892" lon="6.9803">
        <ele>1825.43</ele>
        <time>2018-09-09T12:39:46Z</time>
      </trkpt>
      <trkpt lat="45.44905" lon="6.98008">
        <ele>1824.12</ele>
        <time>2018-09-09T12:39:49Z</time>
      </trkpt>
      <trkpt lat="45.4491" lon="6.97977">
        <ele>1824.93</ele>
        <time>2018-09-09T12:39:52Z</time>
      </trkpt>
      <trkpt lat="45.44919" lon="6.97953">
        <ele>1823.4</ele>
        <time>2018-09-09T12:39:54Z</time>
      </trkpt>
      <trkpt lat="45.4493" lon="6.9793">
        <ele>1822.35</ele>
        <time>2018-09-09T12:39:56Z</time>
      </trkpt>
      <trkpt lat="45.44942" lon="6.97906">
        <ele>1822.05</ele>
        <time>2018-09-09T12:39:58Z</time>
      </trkpt>
      <trkpt lat="45.44955" lon="6.97881">
        <ele>1821.11</ele>
        <time>2018-09-09T12:40:00Z</time>
      </trkpt>
      <trkpt lat="45.44966" lon="6.97856">
        <ele>1821.02</ele>
        <time>2018-09-09T12:40:02Z</time>
      </trkpt>
      <trkpt lat="45.44976" lon="6.9783">
        <ele>1821.02</ele>
        <time>2018-09-09T12:40:04Z</time>
      </trkpt>
      <trkpt lat="45.44985" lon="6.97804">
        <ele>1821.02</ele>
        <time>2018-09-09T12:40:06Z</time>
      </trkpt>
      <trkpt lat="45.44996" lon="6.9778">
        <ele>1821.02</ele>
        <time>2018-09-09T12:40:08Z</time>
      </trkpt>
      <trkpt lat="45.45009" lon="6.97758">
        <ele>1820.1</ele>
        <time>2018-09-09T12:40:10Z</time>
      </trkpt>
      <trkpt lat="45.45025" lon="6.97739">
        <ele>1820.02</ele>
        <time>2018-09-09T12:40:12Z</time>
      </trkpt>
      <trkpt lat="45.4504" lon="6.97718">
        <ele>1819.32</ele>
        <time>2018-09-09T12:40:14Z</time>
      </trkpt>
      <trkpt lat="45.45055" lon="6.97692">
        <ele>1818.34</ele>
        <time>2018-09-09T12:40:16Z</time>
      </trkpt>
      <trkpt lat="45.45068" lon="6.97665">
        <ele>1818.04</ele>
        <time>2018-09-09T12:40:18Z</time>
      </trkpt>
      <trkpt lat="45.45082" lon="6.97635">
        <ele>1818.02</ele>
        <time>2018-09-09T12:40:20Z</time>
      </trkpt>
      <trkpt lat="45.45096" lon="6.97604">
        <ele>1818.02</ele>
        <time>2018-09-09T12:40:22Z</time>
      </trkpt>
      <trkpt lat="45.45111" lon="6.97573">
        <ele>1816.41</ele>
        <time>2018-09-09T12:40:24Z</time>
      </trkpt>
      <trkpt lat="45.45126" lon="6.97542">
        <ele>1815.35</ele>
        <time>2018-09-09T12:40:26Z</time>
      </trkpt>
      <trkpt lat="45.45144" lon="6.97511">
        <ele>1815.05</ele>
        <time>2018-09-09T12:40:28Z</time>
      </trkpt>
      <trkpt lat="45.45162" lon="6.97481">
        <ele>1814.11</ele>
        <time>2018-09-09T12:40:30Z</time>
      </trkpt>
      <trkpt lat="45.45182" lon="6.97454">
        <ele>1813.32</ele>
        <time>2018-09-09T12:40:32Z</time>
      </trkpt>
      <trkpt lat="45.45202" lon="6.97428">
        <ele>1813.04</ele>
        <time>2018-09-09T12:40:34Z</time>
      </trkpt>
      <trkpt lat="45.45224" lon="6.97405">
        <ele>1813.02</ele>
        <time>2018-09-09T12:40:36Z</time>
      </trkpt>
      <trkpt lat="45.45246" lon="6.97383">
        <ele>1813.02</ele>
        <time>2018-09-09T12:40:38Z</time>
      </trkpt>
      <trkpt lat="45.45266" lon="6.97361">
        <ele>1813.93</ele>
        <time>2018-09-09T12:40:40Z</time>
      </trkpt>
      <trkpt lat="45.45286" lon="6.97336">
        <ele>1813.31</ele>
        <time>2018-09-09T12:40:42Z</time>
      </trkpt>
      <trkpt lat="45.45306" lon="6.97309">
        <ele>1813.04</ele>
        <time>2018-09-09T12:40:44Z</time>
      </trkpt>
      <trkpt lat="45.45324" lon="6.9728">
        <ele>1812.11</ele>
        <time>2018-09-09T12:40:46Z</time>
      </trkpt>
      <trkpt lat="45.45343" lon="6.97251">
        <ele>1812.02</ele>
        <time>2018-09-09T12:40:48Z</time>
      </trkpt>
      <trkpt lat="45.4536" lon="6.97221">
        <ele>1810.41</ele>
        <time>2018-09-09T12:40:50Z</time>
      </trkpt>
      <trkpt lat="45.45377" lon="6.9719">
        <ele>1810.26</ele>
        <time>2018-09-09T12:40:52Z</time>
      </trkpt>
      <trkpt lat="45.45395" lon="6.97161">
        <ele>1807.52</ele>
        <time>2018-09-09T12:40:54Z</time>
      </trkpt>
      <trkpt lat="45.45414" lon="6.97131">
        <ele>1807.97</ele>
        <time>2018-09-09T12:40:56Z</time>
      </trkpt>
      <trkpt lat="45.45432" lon="6.971">
        <ele>1807.1</ele>
        <time>2018-09-09T12:40:58Z</time>
      </trkpt>
      <trkpt lat="45.45452" lon="6.97069">
        <ele>1805.41</ele>
        <time>2018-09-09T12:41:00Z</time>
      </trkpt>
      <trkpt lat="45.45472" lon="6.9704">
        <ele>1805.75</ele>
        <time>2018-09-09T12:41:02Z</time>
      </trkpt>
      <trkpt lat="45.4549" lon="6.97016">
        <ele>1805.99</ele>
        <time>2018-09-09T12:41:04Z</time>
      </trkpt>
      <trkpt lat="45.45508" lon="6.96997">
        <ele>1805.31</ele>
        <time>2018-09-09T12:41:06Z</time>
      </trkpt>
      <trkpt lat="45.45527" lon="6.96982">
        <ele>1804.13</ele>
        <time>2018-09-09T12:41:08Z</time>
      </trkpt>
      <trkpt lat="45.45546" lon="6.96966">
        <ele>1803.33</ele>
        <time>2018-09-09T12:41:10Z</time>
      </trkpt>
      <trkpt lat="45.45567" lon="6.96948">
        <ele>1803.95</ele>
        <time>2018-09-09T12:41:12Z</time>
      </trkpt>
      <trkpt lat="45.4559" lon="6.96931">
        <ele>1804.01</ele>
        <time>2018-09-09T12:41:14Z</time>
      </trkpt>
      <trkpt lat="45.45613" lon="6.96912">
        <ele>1804.01</ele>
        <time>2018-09-09T12:41:16Z</time>
      </trkpt>
      <trkpt lat="45.45638" lon="6.96893">
        <ele>1804.02</ele>
        <time>2018-09-09T12:41:18Z</time>
      </trkpt>
      <trkpt lat="45.45662" lon="6.96873">
        <ele>1804.02</ele>
        <time>2018-09-09T12:41:20Z</time>
      </trkpt>
      <trkpt lat="45.45686" lon="6.96852">
        <ele>1804.02</ele>
        <time>2018-09-09T12:41:22Z</time>
      </trkpt>
      <trkpt lat="45.4571" lon="6.96832">
        <ele>1804.02</ele>
        <time>2018-09-09T12:41:24Z</time>
      </trkpt>
      <trkpt lat="45.45735" lon="6.96813">
        <ele>1804.71</ele>
        <time>2018-09-09T12:41:26Z</time>
      </trkpt>
      <trkpt lat="45.45758" lon="6.96794">
        <ele>1804.99</ele>
        <time>2018-09-09T12:41:28Z</time>
      </trkpt>
      <trkpt lat="45.45782" lon="6.96774">
        <ele>1804.1</ele>
        <time>2018-09-09T12:41:30Z</time>
      </trkpt>
      <trkpt lat="45.45805" lon="6.96755">
        <ele>1804.02</ele>
        <time>2018-09-09T12:41:32Z</time>
      </trkpt>
      <trkpt lat="45.4583" lon="6.96735">
        <ele>1803.11</ele>
        <time>2018-09-09T12:41:34Z</time>
      </trkpt>
      <trkpt lat="45.45854" lon="6.96716">
        <ele>1803.23</ele>
        <time>2018-09-09T12:41:36Z</time>
      </trkpt>
      <trkpt lat="45.45878" lon="6.96696">
        <ele>1803.03</ele>
        <time>2018-09-09T12:41:38Z</time>
      </trkpt>
      <trkpt lat="45.45902" lon="6.96678">
        <ele>1802.32</ele>
        <time>2018-09-09T12:41:40Z</time>
      </trkpt>
      <trkpt lat="45.45925" lon="6.96661">
        <ele>1801.13</ele>
        <time>2018-09-09T12:41:42Z</time>
      </trkpt>
      <trkpt lat="45.45946" lon="6.96647">
        <ele>1800.12</ele>
        <time>2018-09-09T12:41:44Z</time>
      </trkpt>
      <trkpt lat="45.45965" lon="6.96637">
        <ele>1799.32</ele>
        <time>2018-09-09T12:41:46Z</time>
      </trkpt>
      <trkpt lat="45.45982" lon="6.9662">
        <ele>1798.34</ele>
        <time>2018-09-09T12:41:48Z</time>
      </trkpt>
      <trkpt lat="45.46" lon="6.96601">
        <ele>1798.95</ele>
        <time>2018-09-09T12:41:50Z</time>
      </trkpt>
      <trkpt lat="45.46021" lon="6.96584">
        <ele>1799.01</ele>
        <time>2018-09-09T12:41:52Z</time>
      </trkpt>
      <trkpt lat="45.46044" lon="6.96566">
        <ele>1798.31</ele>
        <time>2018-09-09T12:41:54Z</time>
      </trkpt>
      <trkpt lat="45.46068" lon="6.96549">
        <ele>1798.04</ele>
        <time>2018-09-09T12:41:56Z</time>
      </trkpt>
      <trkpt lat="45.46092" lon="6.96531">
        <ele>1798.02</ele>
        <time>2018-09-09T12:41:58Z</time>
      </trkpt>
      <trkpt lat="45.46116" lon="6.96513">
        <ele>1797.11</ele>
        <time>2018-09-09T12:42:00Z</time>
      </trkpt>
      <trkpt lat="45.46137" lon="6.96498">
        <ele>1796.32</ele>
        <time>2018-09-09T12:42:02Z</time>
      </trkpt>
      <trkpt lat="45.46157" lon="6.96483">
        <ele>1796.04</ele>
        <time>2018-09-09T12:42:04Z</time>
      </trkpt>
      <trkpt lat="45.46177" lon="6.96471">
        <ele>1796.02</ele>
        <time>2018-09-09T12:42:06Z</time>
      </trkpt>
      <trkpt lat="45.46198" lon="6.96464">
        <ele>1794.41</ele>
        <time>2018-09-09T12:42:08Z</time>
      </trkpt>
      <trkpt lat="45.4622" lon="6.96456">
        <ele>1794.96</ele>
        <time>2018-09-09T12:42:10Z</time>
      </trkpt>
      <trkpt lat="45.46242" lon="6.96445">
        <ele>1795.01</ele>
        <time>2018-09-09T12:42:12Z</time>
      </trkpt>
      <trkpt lat="45.46264" lon="6.96438">
        <ele>1795.01</ele>
        <time>2018-09-09T12:42:14Z</time>
      </trkpt>
      <trkpt lat="45.46285" lon="6.96428">
        <ele>1795.71</ele>
        <time>2018-09-09T12:42:16Z</time>
      </trkpt>
      <trkpt lat="45.46305" lon="6.9641">
        <ele>1795.99</ele>
        <time>2018-09-09T12:42:18Z</time>
      </trkpt>
      <trkpt lat="45.46322" lon="6.96389">
        <ele>1796.01</ele>
        <time>2018-09-09T12:42:20Z</time>
      </trkpt>
      <trkpt lat="45.46339" lon="6.96366">
        <ele>1796.92</ele>
        <time>2018-09-09T12:42:22Z</time>
      </trkpt>
      <trkpt lat="45.46357" lon="6.96341">
        <ele>1798.62</ele>
        <time>2018-09-09T12:42:24Z</time>
      </trkpt>
      <trkpt lat="45.46376" lon="6.96317">
        <ele>1799.89</ele>
        <time>2018-09-09T12:42:26Z</time>
      </trkpt>
      <trkpt lat="45.46396" lon="6.96297">
        <ele>1801.61</ele>
        <time>2018-09-09T12:42:28Z</time>
      </trkpt>
      <trkpt lat="45.46418" lon="6.96276">
        <ele>1802.68</ele>
        <time>2018-09-09T12:42:30Z</time>
      </trkpt>
      <trkpt lat="45.46445" lon="6.96254">
        <ele>1802.98</ele>
        <time>2018-09-09T12:42:32Z</time>
      </trkpt>
      <trkpt lat="45.46476" lon="6.96229">
        <ele>1804.62</ele>
        <time>2018-09-09T12:42:34Z</time>
      </trkpt>
      <trkpt lat="45.46492" lon="6.96216">
        <ele>1804.9</ele>
        <time>2018-09-09T12:42:35Z</time>
      </trkpt>
      <trkpt lat="45.46508" lon="6.96202">
        <ele>1805.68</ele>
        <time>2018-09-09T12:42:36Z</time>
      </trkpt>
      <trkpt lat="45.46524" lon="6.96188">
        <ele>1806.61</ele>
        <time>2018-09-09T12:42:37Z</time>
      </trkpt>
      <trkpt lat="45.46539" lon="6.96172">
        <ele>1806.89</ele>
        <time>2018-09-09T12:42:38Z</time>
      </trkpt>
      <trkpt lat="45.46554" lon="6.96154">
        <ele>1807.68</ele>
        <time>2018-09-09T12:42:39Z</time>
      </trkpt>
      <trkpt lat="45.46569" lon="6.96135">
        <ele>1808.61</ele>
        <time>2018-09-09T12:42:40Z</time>
      </trkpt>
      <trkpt lat="45.46585" lon="6.96115">
        <ele>1808.89</ele>
        <time>2018-09-09T12:42:41Z</time>
      </trkpt>
      <trkpt lat="45.46601" lon="6.96094">
        <ele>1809.68</ele>
        <time>2018-09-09T12:42:42Z</time>
      </trkpt>
      <trkpt lat="45.46617" lon="6.96072">
        <ele>1809.91</ele>
        <time>2018-09-09T12:42:43Z</time>
      </trkpt>
      <trkpt lat="45.46633" lon="6.96051">
        <ele>1810.68</ele>
        <time>2018-09-09T12:42:44Z</time>
      </trkpt>
      <trkpt lat="45.4665" lon="6.9603">
        <ele>1810.92</ele>
        <time>2018-09-09T12:42:45Z</time>
      </trkpt>
      <trkpt lat="45.46667" lon="6.96009">
        <ele>1810.99</ele>
        <time>2018-09-09T12:42:46Z</time>
      </trkpt>
      <trkpt lat="45.46683" lon="6.95992">
        <ele>1811.71</ele>
        <time>2018-09-09T12:42:47Z</time>
      </trkpt>
      <trkpt lat="45.467" lon="6.95978">
        <ele>1812.62</ele>
        <time>2018-09-09T12:42:48Z</time>
      </trkpt>
      <trkpt lat="45.46731" lon="6.95959">
        <ele>1812.28</ele>
        <time>2018-09-09T12:42:50Z</time>
      </trkpt>
      <trkpt lat="45.46758" lon="6.95958">
        <ele>1812.95</ele>
        <time>2018-09-09T12:42:52Z</time>
      </trkpt>
      <trkpt lat="45.46784" lon="6.95959">
        <ele>1813.01</ele>
        <time>2018-09-09T12:42:54Z</time>
      </trkpt>
      <trkpt lat="45.47218" lon="6.95346">
        <ele>1818.61</ele>
        <time>2018-09-09T12:43:48Z</time>
      </trkpt>
      <trkpt lat="45.47235" lon="6.95321">
        <ele>1814.85</ele>
        <time>2018-09-09T12:43:50Z</time>
      </trkpt>
      <trkpt lat="45.47252" lon="6.953">
        <ele>1812.48</ele>
        <time>2018-09-09T12:43:52Z</time>
      </trkpt>
      <trkpt lat="45.4727" lon="6.9528">
        <ele>1812.06</ele>
        <time>2018-09-09T12:43:54Z</time>
      </trkpt>
      <trkpt lat="45.47385" lon="6.94975">
        <ele>1811.33</ele>
        <time>2018-09-09T12:44:14Z</time>
      </trkpt>
      <trkpt lat="45.47387" lon="6.94948">
        <ele>1811.11</ele>
        <time>2018-09-09T12:44:15Z</time>
      </trkpt>
      <trkpt lat="45.47395" lon="6.94901">
        <ele>1812.42</ele>
        <time>2018-09-09T12:44:17Z</time>
      </trkpt>
      <trkpt lat="45.47409" lon="6.94864">
        <ele>1814.57</ele>
        <time>2018-09-09T12:44:19Z</time>
      </trkpt>
      <trkpt lat="45.47433" lon="6.9483">
        <ele>1812.67</ele>
        <time>2018-09-09T12:44:21Z</time>
      </trkpt>
      <trkpt lat="45.47459" lon="6.94818">
        <ele>1808.64</ele>
        <time>2018-09-09T12:44:23Z</time>
      </trkpt>
      <trkpt lat="45.47477" lon="6.94849">
        <ele>1803.3</ele>
        <time>2018-09-09T12:44:24Z</time>
      </trkpt>
      <trkpt lat="45.47495" lon="6.9487">
        <ele>1800.3</ele>
        <time>2018-09-09T12:44:25Z</time>
      </trkpt>
      <trkpt lat="45.47508" lon="6.9489">
        <ele>1800.1</ele>
        <time>2018-09-09T12:44:26Z</time>
      </trkpt>
      <trkpt lat="45.47538" lon="6.94909">
        <ele>1799.32</ele>
        <time>2018-09-09T12:44:28Z</time>
      </trkpt>
      <trkpt lat="45.4757" lon="6.94912">
        <ele>1798.34</ele>
        <time>2018-09-09T12:44:30Z</time>
      </trkpt>
      <trkpt lat="45.47603" lon="6.94912">
        <ele>1798.04</ele>
        <time>2018-09-09T12:44:32Z</time>
      </trkpt>
      <trkpt lat="45.47634" lon="6.94918">
        <ele>1798.02</ele>
        <time>2018-09-09T12:44:34Z</time>
      </trkpt>
      <trkpt lat="45.47659" lon="6.94937">
        <ele>1797.81</ele>
        <time>2018-09-09T12:44:36Z</time>
      </trkpt>
      <trkpt lat="45.47675" lon="6.94971">
        <ele>1798</ele>
        <time>2018-09-09T12:44:38Z</time>
      </trkpt>
      <trkpt lat="45.47689" lon="6.95009">
        <ele>1798.92</ele>
        <time>2018-09-09T12:44:40Z</time>
      </trkpt>
      <trkpt lat="45.47706" lon="6.95046">
        <ele>1799.92</ele>
        <time>2018-09-09T12:44:42Z</time>
      </trkpt>
      <trkpt lat="45.47728" lon="6.95076">
        <ele>1800.01</ele>
        <time>2018-09-09T12:44:44Z</time>
      </trkpt>
      <trkpt lat="45.47763" lon="6.95102">
        <ele>1799.31</ele>
        <time>2018-09-09T12:44:46Z</time>
      </trkpt>
      <trkpt lat="45.47781" lon="6.95076">
        <ele>1799.1</ele>
        <time>2018-09-09T12:44:47Z</time>
      </trkpt>
      <trkpt lat="45.47796" lon="6.9504">
        <ele>1799.74</ele>
        <time>2018-09-09T12:44:48Z</time>
      </trkpt>
      <trkpt lat="45.47821" lon="6.9499">
        <ele>1800.63</ele>
        <time>2018-09-09T12:44:49Z</time>
      </trkpt>
      <trkpt lat="45.47837" lon="6.94969">
        <ele>1801.6</ele>
        <time>2018-09-09T12:44:50Z</time>
      </trkpt>
      <trkpt lat="45.47854" lon="6.94953">
        <ele>1802.59</ele>
        <time>2018-09-09T12:44:51Z</time>
      </trkpt>
      <trkpt lat="45.4787" lon="6.94934">
        <ele>1801.49</ele>
        <time>2018-09-09T12:44:52Z</time>
      </trkpt>
      <trkpt lat="45.47885" lon="6.94915">
        <ele>1801.16</ele>
        <time>2018-09-09T12:44:53Z</time>
      </trkpt>
      <trkpt lat="45.47899" lon="6.94895">
        <ele>1802.46</ele>
        <time>2018-09-09T12:44:54Z</time>
      </trkpt>
      <trkpt lat="45.47914" lon="6.94874">
        <ele>1802.15</ele>
        <time>2018-09-09T12:44:55Z</time>
      </trkpt>
      <trkpt lat="45.47928" lon="6.94853">
        <ele>1802.05</ele>
        <time>2018-09-09T12:44:56Z</time>
      </trkpt>
      <trkpt lat="45.47942" lon="6.94832">
        <ele>1802.03</ele>
        <time>2018-09-09T12:44:57Z</time>
      </trkpt>
      <trkpt lat="45.47955" lon="6.9481">
        <ele>1802.72</ele>
        <time>2018-09-09T12:44:58Z</time>
      </trkpt>
      <trkpt lat="45.47967" lon="6.94787">
        <ele>1803.63</ele>
        <time>2018-09-09T12:44:59Z</time>
      </trkpt>
      <trkpt lat="45.47978" lon="6.94763">
        <ele>1804.6</ele>
        <time>2018-09-09T12:45:00Z</time>
      </trkpt>
      <trkpt lat="45.47988" lon="6.94739">
        <ele>1804.89</ele>
        <time>2018-09-09T12:45:01Z</time>
      </trkpt>
      <trkpt lat="45.47998" lon="6.94715">
        <ele>1806.38</ele>
        <time>2018-09-09T12:45:02Z</time>
      </trkpt>
      <trkpt lat="45.4801" lon="6.94693">
        <ele>1808.22</ele>
        <time>2018-09-09T12:45:03Z</time>
      </trkpt>
      <trkpt lat="45.48023" lon="6.94674">
        <ele>1808.78</ele>
        <time>2018-09-09T12:45:04Z</time>
      </trkpt>
      <trkpt lat="45.48037" lon="6.94658">
        <ele>1808.94</ele>
        <time>2018-09-09T12:45:05Z</time>
      </trkpt>
      <trkpt lat="45.48069" lon="6.94636">
        <ele>1809.71</ele>
        <time>2018-09-09T12:45:07Z</time>
      </trkpt>
      <trkpt lat="45.48103" lon="6.94618">
        <ele>1811.6</ele>
        <time>2018-09-09T12:45:09Z</time>
      </trkpt>
      <trkpt lat="45.48121" lon="6.94608">
        <ele>1812.59</ele>
        <time>2018-09-09T12:45:10Z</time>
      </trkpt>
      <trkpt lat="45.48139" lon="6.94599">
        <ele>1812.89</ele>
        <time>2018-09-09T12:45:11Z</time>
      </trkpt>
      <trkpt lat="45.48158" lon="6.9459">
        <ele>1812.98</ele>
        <time>2018-09-09T12:45:12Z</time>
      </trkpt>
      <trkpt lat="45.48176" lon="6.9458">
        <ele>1813.7</ele>
        <time>2018-09-09T12:45:13Z</time>
      </trkpt>
      <trkpt lat="45.48194" lon="6.94571">
        <ele>1813.22</ele>
        <time>2018-09-09T12:45:14Z</time>
      </trkpt>
      <trkpt lat="45.48227" lon="6.94556">
        <ele>1812.33</ele>
        <time>2018-09-09T12:45:16Z</time>
      </trkpt>
      <trkpt lat="45.48258" lon="6.94546">
        <ele>1812.04</ele>
        <time>2018-09-09T12:45:18Z</time>
      </trkpt>
      <trkpt lat="45.48288" lon="6.94536">
        <ele>1812.72</ele>
        <time>2018-09-09T12:45:20Z</time>
      </trkpt>
      <trkpt lat="45.48477" lon="6.94487">
        <ele>1813.63</ele>
        <time>2018-09-09T12:45:34Z</time>
      </trkpt>
      <trkpt lat="45.48499" lon="6.94471">
        <ele>1813.98</ele>
        <time>2018-09-09T12:45:36Z</time>
      </trkpt>
      <trkpt lat="45.48519" lon="6.94462">
        <ele>1812.61</ele>
        <time>2018-09-09T12:45:38Z</time>
      </trkpt>
      <trkpt lat="45.48544" lon="6.9445">
        <ele>1810.46</ele>
        <time>2018-09-09T12:45:40Z</time>
      </trkpt>
      <trkpt lat="45.48568" lon="6.94435">
        <ele>1809.14</ele>
        <time>2018-09-09T12:45:42Z</time>
      </trkpt>
      <trkpt lat="45.48593" lon="6.94417">
        <ele>1809.03</ele>
        <time>2018-09-09T12:45:44Z</time>
      </trkpt>
      <trkpt lat="45.48618" lon="6.944">
        <ele>1809.02</ele>
        <time>2018-09-09T12:45:46Z</time>
      </trkpt>
      <trkpt lat="45.49537" lon="6.93497">
        <ele>1809.02</ele>
        <time>2018-09-09T12:47:08Z</time>
      </trkpt>
      <trkpt lat="45.49547" lon="6.93459">
        <ele>1813.78</ele>
        <time>2018-09-09T12:47:10Z</time>
      </trkpt>
      <trkpt lat="45.49562" lon="6.93433">
        <ele>1812.17</ele>
        <time>2018-09-09T12:47:12Z</time>
      </trkpt>
      <trkpt lat="45.49583" lon="6.93415">
        <ele>1805.87</ele>
        <time>2018-09-09T12:47:14Z</time>
      </trkpt>
      <trkpt lat="45.49602" lon="6.93399">
        <ele>1806</ele>
        <time>2018-09-09T12:47:16Z</time>
      </trkpt>
      <trkpt lat="45.49625" lon="6.93386">
        <ele>1806.22</ele>
        <time>2018-09-09T12:47:18Z</time>
      </trkpt>
      <trkpt lat="45.4965" lon="6.93372">
        <ele>1805.33</ele>
        <time>2018-09-09T12:47:20Z</time>
      </trkpt>
      <trkpt lat="45.49673" lon="6.93356">
        <ele>1804.13</ele>
        <time>2018-09-09T12:47:22Z</time>
      </trkpt>
      <trkpt lat="45.49696" lon="6.93338">
        <ele>1803.33</ele>
        <time>2018-09-09T12:47:24Z</time>
      </trkpt>
      <trkpt lat="45.49721" lon="6.93317">
        <ele>1800.52</ele>
        <time>2018-09-09T12:47:26Z</time>
      </trkpt>
      <trkpt lat="45.49744" lon="6.93296">
        <ele>1798.45</ele>
        <time>2018-09-09T12:47:28Z</time>
      </trkpt>
      <trkpt lat="45.49769" lon="6.93274">
        <ele>1797.14</ele>
        <time>2018-09-09T12:47:30Z</time>
      </trkpt>
      <trkpt lat="45.49795" lon="6.93251">
        <ele>1795.42</ele>
        <time>2018-09-09T12:47:32Z</time>
      </trkpt>
      <trkpt lat="45.49823" lon="6.93228">
        <ele>1792.74</ele>
        <time>2018-09-09T12:47:34Z</time>
      </trkpt>
      <trkpt lat="45.49856" lon="6.93206">
        <ele>1789.56</ele>
        <time>2018-09-09T12:47:36Z</time>
      </trkpt>
      <trkpt lat="45.49873" lon="6.93196">
        <ele>1787.78</ele>
        <time>2018-09-09T12:47:37Z</time>
      </trkpt>
      <trkpt lat="45.49891" lon="6.93186">
        <ele>1786.54</ele>
        <time>2018-09-09T12:47:38Z</time>
      </trkpt>
      <trkpt lat="45.4991" lon="6.93176">
        <ele>1784.07</ele>
        <time>2018-09-09T12:47:39Z</time>
      </trkpt>
      <trkpt lat="45.49927" lon="6.93166">
        <ele>1781.93</ele>
        <time>2018-09-09T12:47:40Z</time>
      </trkpt>
      <trkpt lat="45.49945" lon="6.93155">
        <ele>1779.89</ele>
        <time>2018-09-09T12:47:41Z</time>
      </trkpt>
      <trkpt lat="45.49963" lon="6.93144">
        <ele>1778.58</ele>
        <time>2018-09-09T12:47:42Z</time>
      </trkpt>
      <trkpt lat="45.49981" lon="6.93133">
        <ele>1777.48</ele>
        <time>2018-09-09T12:47:43Z</time>
      </trkpt>
      <trkpt lat="45.49999" lon="6.9312">
        <ele>1775.76</ele>
        <time>2018-09-09T12:47:44Z</time>
      </trkpt>
      <trkpt lat="45.50017" lon="6.93107">
        <ele>1773.84</ele>
        <time>2018-09-09T12:47:45Z</time>
      </trkpt>
      <trkpt lat="45.50036" lon="6.93097">
        <ele>1771.86</ele>
        <time>2018-09-09T12:47:46Z</time>
      </trkpt>
      <trkpt lat="45.50055" lon="6.93089">
        <ele>1770.57</ele>
        <time>2018-09-09T12:47:47Z</time>
      </trkpt>
      <trkpt lat="45.50074" lon="6.93082">
        <ele>1768.78</ele>
        <time>2018-09-09T12:47:48Z</time>
      </trkpt>
      <trkpt lat="45.50095" lon="6.93075">
        <ele>1766.84</ele>
        <time>2018-09-09T12:47:49Z</time>
      </trkpt>
      <trkpt lat="45.50115" lon="6.93067">
        <ele>1764.86</ele>
        <time>2018-09-09T12:47:50Z</time>
      </trkpt>
      <trkpt lat="45.50135" lon="6.93057">
        <ele>1763.57</ele>
        <time>2018-09-09T12:47:51Z</time>
      </trkpt>
      <trkpt lat="45.50155" lon="6.93046">
        <ele>1761.78</ele>
        <time>2018-09-09T12:47:52Z</time>
      </trkpt>
      <trkpt lat="45.50174" lon="6.93035">
        <ele>1759.14</ele>
        <time>2018-09-09T12:47:53Z</time>
      </trkpt>
      <trkpt lat="45.50192" lon="6.93027">
        <ele>1757.65</ele>
        <time>2018-09-09T12:47:54Z</time>
      </trkpt>
      <trkpt lat="45.5021" lon="6.93022">
        <ele>1756.51</ele>
        <time>2018-09-09T12:47:55Z</time>
      </trkpt>
      <trkpt lat="45.50231" lon="6.93026">
        <ele>1754.06</ele>
        <time>2018-09-09T12:47:56Z</time>
      </trkpt>
      <trkpt lat="45.50252" lon="6.93028">
        <ele>1751.93</ele>
        <time>2018-09-09T12:47:57Z</time>
      </trkpt>
      <trkpt lat="45.50273" lon="6.93027">
        <ele>1750.59</ele>
        <time>2018-09-09T12:47:58Z</time>
      </trkpt>
      <trkpt lat="45.50294" lon="6.93023">
        <ele>1748.79</ele>
        <time>2018-09-09T12:47:59Z</time>
      </trkpt>
      <trkpt lat="45.50315" lon="6.93017">
        <ele>1747.55</ele>
        <time>2018-09-09T12:48:00Z</time>
      </trkpt>
      <trkpt lat="45.50337" lon="6.9301">
        <ele>1745.77</ele>
        <time>2018-09-09T12:48:01Z</time>
      </trkpt>
      <trkpt lat="45.50358" lon="6.93">
        <ele>1744.54</ele>
        <time>2018-09-09T12:48:02Z</time>
      </trkpt>
      <trkpt lat="45.5038" lon="6.92988">
        <ele>1742.07</ele>
        <time>2018-09-09T12:48:03Z</time>
      </trkpt>
      <trkpt lat="45.50401" lon="6.92973">
        <ele>1739.93</ele>
        <time>2018-09-09T12:48:04Z</time>
      </trkpt>
      <trkpt lat="45.50421" lon="6.92955">
        <ele>1738.59</ele>
        <time>2018-09-09T12:48:05Z</time>
      </trkpt>
      <trkpt lat="45.5044" lon="6.92938">
        <ele>1736.09</ele>
        <time>2018-09-09T12:48:06Z</time>
      </trkpt>
      <trkpt lat="45.50458" lon="6.9292">
        <ele>1733.94</ele>
        <time>2018-09-09T12:48:07Z</time>
      </trkpt>
      <trkpt lat="45.50475" lon="6.92902">
        <ele>1731.89</ele>
        <time>2018-09-09T12:48:08Z</time>
      </trkpt>
      <trkpt lat="45.50491" lon="6.92883">
        <ele>1729.88</ele>
        <time>2018-09-09T12:48:09Z</time>
      </trkpt>
      <trkpt lat="45.50505" lon="6.92861">
        <ele>1727.87</ele>
        <time>2018-09-09T12:48:10Z</time>
      </trkpt>
      <trkpt lat="45.50518" lon="6.9284">
        <ele>1726.57</ele>
        <time>2018-09-09T12:48:11Z</time>
      </trkpt>
      <trkpt lat="45.50532" lon="6.9282">
        <ele>1725.48</ele>
        <time>2018-09-09T12:48:12Z</time>
      </trkpt>
      <trkpt lat="45.50546" lon="6.92801">
        <ele>1725.16</ele>
        <time>2018-09-09T12:48:13Z</time>
      </trkpt>
      <trkpt lat="45.5056" lon="6.92781">
        <ele>1725.06</ele>
        <time>2018-09-09T12:48:14Z</time>
      </trkpt>
      <trkpt lat="45.507" lon="6.92615">
        <ele>1723.63</ele>
        <time>2018-09-09T12:48:23Z</time>
      </trkpt>
      <trkpt lat="45.50723" lon="6.92577">
        <ele>1721.46</ele>
        <time>2018-09-09T12:48:25Z</time>
      </trkpt>
      <trkpt lat="45.50734" lon="6.92556">
        <ele>1719.75</ele>
        <time>2018-09-09T12:48:26Z</time>
      </trkpt>
      <trkpt lat="45.50762" lon="6.92526">
        <ele>1714.32</ele>
        <time>2018-09-09T12:48:28Z</time>
      </trkpt>
      <trkpt lat="45.5078" lon="6.92517">
        <ele>1712.71</ele>
        <time>2018-09-09T12:48:29Z</time>
      </trkpt>
      <trkpt lat="45.508" lon="6.92509">
        <ele>1710.82</ele>
        <time>2018-09-09T12:48:30Z</time>
      </trkpt>
      <trkpt lat="45.50819" lon="6.925">
        <ele>1708.16</ele>
        <time>2018-09-09T12:48:31Z</time>
      </trkpt>
      <trkpt lat="45.50839" lon="6.9249">
        <ele>1705.96</ele>
        <time>2018-09-09T12:48:32Z</time>
      </trkpt>
      <trkpt lat="45.50859" lon="6.92481">
        <ele>1703.9</ele>
        <time>2018-09-09T12:48:33Z</time>
      </trkpt>
      <trkpt lat="45.50879" lon="6.92472">
        <ele>1701.18</ele>
        <time>2018-09-09T12:48:34Z</time>
      </trkpt>
      <trkpt lat="45.50897" lon="6.92464">
        <ele>1699.66</ele>
        <time>2018-09-09T12:48:35Z</time>
      </trkpt>
      <trkpt lat="45.50915" lon="6.92451">
        <ele>1698.51</ele>
        <time>2018-09-09T12:48:36Z</time>
      </trkpt>
      <trkpt lat="45.50932" lon="6.92438">
        <ele>1697.46</ele>
        <time>2018-09-09T12:48:37Z</time>
      </trkpt>
      <trkpt lat="45.50948" lon="6.92419">
        <ele>1694.35</ele>
        <time>2018-09-09T12:48:38Z</time>
      </trkpt>
      <trkpt lat="45.50964" lon="6.92401">
        <ele>1691.32</ele>
        <time>2018-09-09T12:48:39Z</time>
      </trkpt>
      <trkpt lat="45.50979" lon="6.92379">
        <ele>1689.01</ele>
        <time>2018-09-09T12:48:40Z</time>
      </trkpt>
      <trkpt lat="45.50992" lon="6.92355">
        <ele>1687.61</ele>
        <time>2018-09-09T12:48:41Z</time>
      </trkpt>
      <trkpt lat="45.51004" lon="6.9233">
        <ele>1686.49</ele>
        <time>2018-09-09T12:48:42Z</time>
      </trkpt>
      <trkpt lat="45.51014" lon="6.92302">
        <ele>1684.06</ele>
        <time>2018-09-09T12:48:43Z</time>
      </trkpt>
      <trkpt lat="45.51025" lon="6.92274">
        <ele>1681.93</ele>
        <time>2018-09-09T12:48:44Z</time>
      </trkpt>
      <trkpt lat="45.51035" lon="6.92247">
        <ele>1679.89</ele>
        <time>2018-09-09T12:48:45Z</time>
      </trkpt>
      <trkpt lat="45.51048" lon="6.92223">
        <ele>1676.48</ele>
        <time>2018-09-09T12:48:46Z</time>
      </trkpt>
      <trkpt lat="45.5106" lon="6.92199">
        <ele>1674.75</ele>
        <time>2018-09-09T12:48:47Z</time>
      </trkpt>
      <trkpt lat="45.51074" lon="6.92176">
        <ele>1672.84</ele>
        <time>2018-09-09T12:48:48Z</time>
      </trkpt>
      <trkpt lat="45.51088" lon="6.92155">
        <ele>1670.86</ele>
        <time>2018-09-09T12:48:49Z</time>
      </trkpt>
      <trkpt lat="45.51102" lon="6.92134">
        <ele>1668.17</ele>
        <time>2018-09-09T12:48:50Z</time>
      </trkpt>
      <trkpt lat="45.51117" lon="6.92113">
        <ele>1665.96</ele>
        <time>2018-09-09T12:48:51Z</time>
      </trkpt>
      <trkpt lat="45.51132" lon="6.92093">
        <ele>1663.9</ele>
        <time>2018-09-09T12:48:52Z</time>
      </trkpt>
      <trkpt lat="45.51146" lon="6.92073">
        <ele>1661.88</ele>
        <time>2018-09-09T12:48:53Z</time>
      </trkpt>
      <trkpt lat="45.51161" lon="6.92052">
        <ele>1659.87</ele>
        <time>2018-09-09T12:48:54Z</time>
      </trkpt>
      <trkpt lat="45.51177" lon="6.92032">
        <ele>1658.57</ele>
        <time>2018-09-09T12:48:55Z</time>
      </trkpt>
      <trkpt lat="45.51194" lon="6.92013">
        <ele>1656.08</ele>
        <time>2018-09-09T12:48:56Z</time>
      </trkpt>
      <trkpt lat="45.51212" lon="6.91993">
        <ele>1653.94</ele>
        <time>2018-09-09T12:48:57Z</time>
      </trkpt>
      <trkpt lat="45.51228" lon="6.91974">
        <ele>1651.89</ele>
        <time>2018-09-09T12:48:58Z</time>
      </trkpt>
      <trkpt lat="45.51244" lon="6.91954">
        <ele>1649.88</ele>
        <time>2018-09-09T12:48:59Z</time>
      </trkpt>
      <trkpt lat="45.5126" lon="6.91934">
        <ele>1647.87</ele>
        <time>2018-09-09T12:49:00Z</time>
      </trkpt>
      <trkpt lat="45.51274" lon="6.91913">
        <ele>1645.17</ele>
        <time>2018-09-09T12:49:01Z</time>
      </trkpt>
      <trkpt lat="45.51289" lon="6.91893">
        <ele>1642.96</ele>
        <time>2018-09-09T12:49:02Z</time>
      </trkpt>
      <trkpt lat="45.51303" lon="6.91874">
        <ele>1641.6</ele>
        <time>2018-09-09T12:49:03Z</time>
      </trkpt>
      <trkpt lat="45.51317" lon="6.91854">
        <ele>1639.79</ele>
        <time>2018-09-09T12:49:04Z</time>
      </trkpt>
      <trkpt lat="45.51331" lon="6.91833">
        <ele>1638.55</ele>
        <time>2018-09-09T12:49:05Z</time>
      </trkpt>
      <trkpt lat="45.51345" lon="6.91812">
        <ele>1636.77</ele>
        <time>2018-09-09T12:49:06Z</time>
      </trkpt>
      <trkpt lat="45.51359" lon="6.91792">
        <ele>1635.54</ele>
        <time>2018-09-09T12:49:07Z</time>
      </trkpt>
      <trkpt lat="45.51374" lon="6.91773">
        <ele>1633.77</ele>
        <time>2018-09-09T12:49:08Z</time>
      </trkpt>
      <trkpt lat="45.51389" lon="6.91754">
        <ele>1631.84</ele>
        <time>2018-09-09T12:49:09Z</time>
      </trkpt>
      <trkpt lat="45.51405" lon="6.91737">
        <ele>1630.56</ele>
        <time>2018-09-09T12:49:10Z</time>
      </trkpt>
      <trkpt lat="45.51423" lon="6.91722">
        <ele>1628.78</ele>
        <time>2018-09-09T12:49:11Z</time>
      </trkpt>
      <trkpt lat="45.51442" lon="6.9171">
        <ele>1626.84</ele>
        <time>2018-09-09T12:49:12Z</time>
      </trkpt>
      <trkpt lat="45.51461" lon="6.91699">
        <ele>1624.16</ele>
        <time>2018-09-09T12:49:13Z</time>
      </trkpt>
      <trkpt lat="45.5148" lon="6.91689">
        <ele>1621.96</ele>
        <time>2018-09-09T12:49:14Z</time>
      </trkpt>
      <trkpt lat="45.51499" lon="6.9168">
        <ele>1620.6</ele>
        <time>2018-09-09T12:49:15Z</time>
      </trkpt>
      <trkpt lat="45.51518" lon="6.91671">
        <ele>1618.79</ele>
        <time>2018-09-09T12:49:16Z</time>
      </trkpt>
      <trkpt lat="45.51538" lon="6.91664">
        <ele>1616.85</ele>
        <time>2018-09-09T12:49:17Z</time>
      </trkpt>
      <trkpt lat="45.51557" lon="6.91657">
        <ele>1615.56</ele>
        <time>2018-09-09T12:49:18Z</time>
      </trkpt>
      <trkpt lat="45.51576" lon="6.9165">
        <ele>1614.48</ele>
        <time>2018-09-09T12:49:19Z</time>
      </trkpt>
      <trkpt lat="45.51595" lon="6.91644">
        <ele>1612.75</ele>
        <time>2018-09-09T12:49:20Z</time>
      </trkpt>
      <trkpt lat="45.51615" lon="6.91639">
        <ele>1611.54</ele>
        <time>2018-09-09T12:49:21Z</time>
      </trkpt>
      <trkpt lat="45.51635" lon="6.91635">
        <ele>1609.77</ele>
        <time>2018-09-09T12:49:22Z</time>
      </trkpt>
      <trkpt lat="45.51654" lon="6.91634">
        <ele>1609.24</ele>
        <time>2018-09-09T12:49:23Z</time>
      </trkpt>
      <trkpt lat="45.51674" lon="6.91633">
        <ele>1607.68</ele>
        <time>2018-09-09T12:49:24Z</time>
      </trkpt>
      <trkpt lat="45.51694" lon="6.91631">
        <ele>1605.82</ele>
        <time>2018-09-09T12:49:25Z</time>
      </trkpt>
      <trkpt lat="45.51714" lon="6.91625">
        <ele>1603.86</ele>
        <time>2018-09-09T12:49:26Z</time>
      </trkpt>
      <trkpt lat="45.51732" lon="6.91616">
        <ele>1601.87</ele>
        <time>2018-09-09T12:49:27Z</time>
      </trkpt>
      <trkpt lat="45.5175" lon="6.91606">
        <ele>1601.27</ele>
        <time>2018-09-09T12:49:28Z</time>
      </trkpt>
      <trkpt lat="45.51767" lon="6.91591">
        <ele>1601.09</ele>
        <time>2018-09-09T12:49:29Z</time>
      </trkpt>
      <trkpt lat="45.5178" lon="6.91565">
        <ele>1599.64</ele>
        <time>2018-09-09T12:49:30Z</time>
      </trkpt>
      <trkpt lat="45.51797" lon="6.91546">
        <ele>1598.5</ele>
        <time>2018-09-09T12:49:31Z</time>
      </trkpt>
      <trkpt lat="45.51817" lon="6.91535">
        <ele>1595.36</ele>
        <time>2018-09-09T12:49:32Z</time>
      </trkpt>
      <trkpt lat="45.51838" lon="6.91526">
        <ele>1591.62</ele>
        <time>2018-09-09T12:49:33Z</time>
      </trkpt>
      <trkpt lat="45.51859" lon="6.91517">
        <ele>1589.1</ele>
        <time>2018-09-09T12:49:34Z</time>
      </trkpt>
      <trkpt lat="45.5188" lon="6.91508">
        <ele>1586.94</ele>
        <time>2018-09-09T12:49:35Z</time>
      </trkpt>
      <trkpt lat="45.519" lon="6.91496">
        <ele>1584.89</ele>
        <time>2018-09-09T12:49:36Z</time>
      </trkpt>
      <trkpt lat="45.51918" lon="6.91483">
        <ele>1583.58</ele>
        <time>2018-09-09T12:49:37Z</time>
      </trkpt>
      <trkpt lat="45.51937" lon="6.91469">
        <ele>1581.78</ele>
        <time>2018-09-09T12:49:38Z</time>
      </trkpt>
      <trkpt lat="45.51955" lon="6.91455">
        <ele>1580.55</ele>
        <time>2018-09-09T12:49:39Z</time>
      </trkpt>
      <trkpt lat="45.51972" lon="6.91441">
        <ele>1578.77</ele>
        <time>2018-09-09T12:49:40Z</time>
      </trkpt>
      <trkpt lat="45.51988" lon="6.91425">
        <ele>1576.84</ele>
        <time>2018-09-09T12:49:41Z</time>
      </trkpt>
      <trkpt lat="45.52001" lon="6.91405">
        <ele>1574.86</ele>
        <time>2018-09-09T12:49:42Z</time>
      </trkpt>
      <trkpt lat="45.52014" lon="6.91384">
        <ele>1573.57</ele>
        <time>2018-09-09T12:49:43Z</time>
      </trkpt>
      <trkpt lat="45.52026" lon="6.91364">
        <ele>1572.48</ele>
        <time>2018-09-09T12:49:44Z</time>
      </trkpt>
      <trkpt lat="45.52055" lon="6.91337">
        <ele>1569.54</ele>
        <time>2018-09-09T12:49:46Z</time>
      </trkpt>
      <trkpt lat="45.52085" lon="6.91335">
        <ele>1568.15</ele>
        <time>2018-09-09T12:49:48Z</time>
      </trkpt>
      <trkpt lat="45.52113" lon="6.91357">
        <ele>1568.03</ele>
        <time>2018-09-09T12:49:50Z</time>
      </trkpt>
      <trkpt lat="45.5214" lon="6.91385">
        <ele>1568.02</ele>
        <time>2018-09-09T12:49:52Z</time>
      </trkpt>
      <trkpt lat="45.52173" lon="6.91399">
        <ele>1567.11</ele>
        <time>2018-09-09T12:49:54Z</time>
      </trkpt>
      <trkpt lat="45.52191" lon="6.91401">
        <ele>1567.04</ele>
        <time>2018-09-09T12:49:55Z</time>
      </trkpt>
      <trkpt lat="45.5221" lon="6.91398">
        <ele>1567.02</ele>
        <time>2018-09-09T12:49:56Z</time>
      </trkpt>
      <trkpt lat="45.52231" lon="6.9138">
        <ele>1566.32</ele>
        <time>2018-09-09T12:49:57Z</time>
      </trkpt>
      <trkpt lat="45.52252" lon="6.91371">
        <ele>1564.71</ele>
        <time>2018-09-09T12:49:58Z</time>
      </trkpt>
      <trkpt lat="45.52274" lon="6.91365">
        <ele>1564.22</ele>
        <time>2018-09-09T12:49:59Z</time>
      </trkpt>
      <trkpt lat="45.52296" lon="6.91359">
        <ele>1563.38</ele>
        <time>2018-09-09T12:50:00Z</time>
      </trkpt>
      <trkpt lat="45.52319" lon="6.91347">
        <ele>1561.72</ele>
        <time>2018-09-09T12:50:01Z</time>
      </trkpt>
      <trkpt lat="45.52341" lon="6.91334">
        <ele>1561.23</ele>
        <time>2018-09-09T12:50:02Z</time>
      </trkpt>
      <trkpt lat="45.52362" lon="6.91313">
        <ele>1560.38</ele>
        <time>2018-09-09T12:50:03Z</time>
      </trkpt>
      <trkpt lat="45.52384" lon="6.91301">
        <ele>1559.42</ele>
        <time>2018-09-09T12:50:04Z</time>
      </trkpt>
      <trkpt lat="45.52407" lon="6.91289">
        <ele>1559.14</ele>
        <time>2018-09-09T12:50:05Z</time>
      </trkpt>
      <trkpt lat="45.52429" lon="6.91279">
        <ele>1559.05</ele>
        <time>2018-09-09T12:50:06Z</time>
      </trkpt>
      <trkpt lat="45.52452" lon="6.91271">
        <ele>1559.03</ele>
        <time>2018-09-09T12:50:07Z</time>
      </trkpt>
      <trkpt lat="45.52474" lon="6.91266">
        <ele>1559.02</ele>
        <time>2018-09-09T12:50:08Z</time>
      </trkpt>
      <trkpt lat="45.52497" lon="6.91264">
        <ele>1559.02</ele>
        <time>2018-09-09T12:50:09Z</time>
      </trkpt>
      <trkpt lat="45.52519" lon="6.91268">
        <ele>1557.62</ele>
        <time>2018-09-09T12:50:10Z</time>
      </trkpt>
      <trkpt lat="45.5254" lon="6.91268">
        <ele>1557.9</ele>
        <time>2018-09-09T12:50:11Z</time>
      </trkpt>
      <trkpt lat="45.52561" lon="6.91271">
        <ele>1556.58</ele>
        <time>2018-09-09T12:50:12Z</time>
      </trkpt>
      <trkpt lat="45.52582" lon="6.91274">
        <ele>1556.18</ele>
        <time>2018-09-09T12:50:13Z</time>
      </trkpt>
      <trkpt lat="45.52604" lon="6.91274">
        <ele>1556.07</ele>
        <time>2018-09-09T12:50:14Z</time>
      </trkpt>
      <trkpt lat="45.52625" lon="6.91275">
        <ele>1555.33</ele>
        <time>2018-09-09T12:50:15Z</time>
      </trkpt>
      <trkpt lat="45.52646" lon="6.9128">
        <ele>1554.41</ele>
        <time>2018-09-09T12:50:16Z</time>
      </trkpt>
      <trkpt lat="45.52666" lon="6.91289">
        <ele>1554.83</ele>
        <time>2018-09-09T12:50:17Z</time>
      </trkpt>
      <trkpt lat="45.52687" lon="6.91301">
        <ele>1553.56</ele>
        <time>2018-09-09T12:50:18Z</time>
      </trkpt>
      <trkpt lat="45.52707" lon="6.9131">
        <ele>1552.48</ele>
        <time>2018-09-09T12:50:19Z</time>
      </trkpt>
      <trkpt lat="45.52729" lon="6.91316">
        <ele>1552.15</ele>
        <time>2018-09-09T12:50:20Z</time>
      </trkpt>
      <trkpt lat="45.52751" lon="6.91323">
        <ele>1549.96</ele>
        <time>2018-09-09T12:50:21Z</time>
      </trkpt>
      <trkpt lat="45.52774" lon="6.91328">
        <ele>1548.6</ele>
        <time>2018-09-09T12:50:22Z</time>
      </trkpt>
      <trkpt lat="45.52796" lon="6.91334">
        <ele>1546.79</ele>
        <time>2018-09-09T12:50:23Z</time>
      </trkpt>
      <trkpt lat="45.52818" lon="6.91342">
        <ele>1544.15</ele>
        <time>2018-09-09T12:50:24Z</time>
      </trkpt>
      <trkpt lat="45.5284" lon="6.91351">
        <ele>1541.95</ele>
        <time>2018-09-09T12:50:25Z</time>
      </trkpt>
      <trkpt lat="45.52861" lon="6.91359">
        <ele>1539.9</ele>
        <time>2018-09-09T12:50:26Z</time>
      </trkpt>
      <trkpt lat="45.52883" lon="6.91363">
        <ele>1538.58</ele>
        <time>2018-09-09T12:50:27Z</time>
      </trkpt>
      <trkpt lat="45.52904" lon="6.91368">
        <ele>1536.08</ele>
        <time>2018-09-09T12:50:28Z</time>
      </trkpt>
      <trkpt lat="45.52923" lon="6.91376">
        <ele>1533.94</ele>
        <time>2018-09-09T12:50:29Z</time>
      </trkpt>
      <trkpt lat="45.52941" lon="6.9139">
        <ele>1531.89</ele>
        <time>2018-09-09T12:50:30Z</time>
      </trkpt>
      <trkpt lat="45.52958" lon="6.91406">
        <ele>1530.58</ele>
        <time>2018-09-09T12:50:31Z</time>
      </trkpt>
      <trkpt lat="45.52975" lon="6.91421">
        <ele>1529.48</ele>
        <time>2018-09-09T12:50:32Z</time>
      </trkpt>
      <trkpt lat="45.5299" lon="6.91441">
        <ele>1528.46</ele>
        <time>2018-09-09T12:50:33Z</time>
      </trkpt>
      <trkpt lat="45.53006" lon="6.91458">
        <ele>1526.75</ele>
        <time>2018-09-09T12:50:34Z</time>
      </trkpt>
      <trkpt lat="45.53024" lon="6.9147">
        <ele>1525.53</ele>
        <time>2018-09-09T12:50:35Z</time>
      </trkpt>
      <trkpt lat="45.53044" lon="6.91479">
        <ele>1523.77</ele>
        <time>2018-09-09T12:50:36Z</time>
      </trkpt>
      <trkpt lat="45.53063" lon="6.91487">
        <ele>1522.54</ele>
        <time>2018-09-09T12:50:37Z</time>
      </trkpt>
      <trkpt lat="45.53082" lon="6.91497">
        <ele>1521.47</ele>
        <time>2018-09-09T12:50:38Z</time>
      </trkpt>
      <trkpt lat="45.53099" lon="6.91509">
        <ele>1520.45</ele>
        <time>2018-09-09T12:50:39Z</time>
      </trkpt>
      <trkpt lat="45.53113" lon="6.91528">
        <ele>1518.75</ele>
        <time>2018-09-09T12:50:40Z</time>
      </trkpt>
      <trkpt lat="45.53135" lon="6.91565">
        <ele>1517.17</ele>
        <time>2018-09-09T12:50:42Z</time>
      </trkpt>
      <trkpt lat="45.53153" lon="6.91599">
        <ele>1516.12</ele>
        <time>2018-09-09T12:50:44Z</time>
      </trkpt>
      <trkpt lat="45.53285" lon="6.91545">
        <ele>1511.82</ele>
        <time>2018-09-09T12:50:55Z</time>
      </trkpt>
      <trkpt lat="45.53302" lon="6.9152">
        <ele>1509.86</ele>
        <time>2018-09-09T12:50:56Z</time>
      </trkpt>
      <trkpt lat="45.53321" lon="6.91509">
        <ele>1508.57</ele>
        <time>2018-09-09T12:50:57Z</time>
      </trkpt>
      <trkpt lat="45.53342" lon="6.91506">
        <ele>1506.78</ele>
        <time>2018-09-09T12:50:58Z</time>
      </trkpt>
      <trkpt lat="45.53361" lon="6.91504">
        <ele>1504.84</ele>
        <time>2018-09-09T12:50:59Z</time>
      </trkpt>
      <trkpt lat="45.53381" lon="6.91501">
        <ele>1503.56</ele>
        <time>2018-09-09T12:51:00Z</time>
      </trkpt>
      <trkpt lat="45.53401" lon="6.91496">
        <ele>1501.08</ele>
        <time>2018-09-09T12:51:01Z</time>
      </trkpt>
      <trkpt lat="45.5342" lon="6.91492">
        <ele>1500.33</ele>
        <time>2018-09-09T12:51:02Z</time>
      </trkpt>
      <trkpt lat="45.53439" lon="6.9148">
        <ele>1498.71</ele>
        <time>2018-09-09T12:51:03Z</time>
      </trkpt>
      <trkpt lat="45.53458" lon="6.9147">
        <ele>1497.52</ele>
        <time>2018-09-09T12:51:04Z</time>
      </trkpt>
      <trkpt lat="45.53477" lon="6.91464">
        <ele>1495.77</ele>
        <time>2018-09-09T12:51:05Z</time>
      </trkpt>
      <trkpt lat="45.53496" lon="6.91463">
        <ele>1494.54</ele>
        <time>2018-09-09T12:51:06Z</time>
      </trkpt>
      <trkpt lat="45.53514" lon="6.9146">
        <ele>1494.17</ele>
        <time>2018-09-09T12:51:07Z</time>
      </trkpt>
      <trkpt lat="45.53551" lon="6.91451">
        <ele>1494.03</ele>
        <time>2018-09-09T12:51:09Z</time>
      </trkpt>
      <trkpt lat="45.53581" lon="6.91435">
        <ele>1493.32</ele>
        <time>2018-09-09T12:51:11Z</time>
      </trkpt>
      <trkpt lat="45.53615" lon="6.91441">
        <ele>1491.22</ele>
        <time>2018-09-09T12:51:13Z</time>
      </trkpt>
      <trkpt lat="45.53647" lon="6.91441">
        <ele>1491.03</ele>
        <time>2018-09-09T12:51:15Z</time>
      </trkpt>
      <trkpt lat="45.53678" lon="6.91433">
        <ele>1491.02</ele>
        <time>2018-09-09T12:51:17Z</time>
      </trkpt>
      <trkpt lat="45.53685" lon="6.91403">
        <ele>1490.32</ele>
        <time>2018-09-09T12:51:18Z</time>
      </trkpt>
      <trkpt lat="45.53684" lon="6.91364">
        <ele>1490.11</ele>
        <time>2018-09-09T12:51:19Z</time>
      </trkpt>
      <trkpt lat="45.53686" lon="6.91334">
        <ele>1488.64</ele>
        <time>2018-09-09T12:51:20Z</time>
      </trkpt>
      <trkpt lat="45.53699" lon="6.91299">
        <ele>1484.64</ele>
        <time>2018-09-09T12:51:22Z</time>
      </trkpt>
      <trkpt lat="45.53724" lon="6.91268">
        <ele>1480.64</ele>
        <time>2018-09-09T12:51:24Z</time>
      </trkpt>
      <trkpt lat="45.5375" lon="6.91233">
        <ele>1475.94</ele>
        <time>2018-09-09T12:51:26Z</time>
      </trkpt>
      <trkpt lat="45.53764" lon="6.91216">
        <ele>1473.89</ele>
        <time>2018-09-09T12:51:27Z</time>
      </trkpt>
      <trkpt lat="45.53779" lon="6.91199">
        <ele>1472.58</ele>
        <time>2018-09-09T12:51:28Z</time>
      </trkpt>
      <trkpt lat="45.53795" lon="6.91184">
        <ele>1470.08</ele>
        <time>2018-09-09T12:51:29Z</time>
      </trkpt>
      <trkpt lat="45.53811" lon="6.91172">
        <ele>1468.64</ele>
        <time>2018-09-09T12:51:30Z</time>
      </trkpt>
      <trkpt lat="45.53829" lon="6.91162">
        <ele>1467.5</ele>
        <time>2018-09-09T12:51:31Z</time>
      </trkpt>
      <trkpt lat="45.53848" lon="6.91156">
        <ele>1466.46</ele>
        <time>2018-09-09T12:51:32Z</time>
      </trkpt>
      <trkpt lat="45.53867" lon="6.91153">
        <ele>1464.75</ele>
        <time>2018-09-09T12:51:33Z</time>
      </trkpt>
      <trkpt lat="45.53887" lon="6.91155">
        <ele>1463.54</ele>
        <time>2018-09-09T12:51:34Z</time>
      </trkpt>
      <trkpt lat="45.53907" lon="6.91154">
        <ele>1463.17</ele>
        <time>2018-09-09T12:51:35Z</time>
      </trkpt>
      <trkpt lat="45.53928" lon="6.91152">
        <ele>1463.06</ele>
        <time>2018-09-09T12:51:36Z</time>
      </trkpt>
      <trkpt lat="45.53947" lon="6.91136">
        <ele>1461.63</ele>
        <time>2018-09-09T12:51:37Z</time>
      </trkpt>
      <trkpt lat="45.53967" lon="6.91124">
        <ele>1459.8</ele>
        <time>2018-09-09T12:51:38Z</time>
      </trkpt>
      <trkpt lat="45.53986" lon="6.91112">
        <ele>1457.85</ele>
        <time>2018-09-09T12:51:39Z</time>
      </trkpt>
      <trkpt lat="45.54003" lon="6.911">
        <ele>1456.57</ele>
        <time>2018-09-09T12:51:40Z</time>
      </trkpt>
      <trkpt lat="45.54033" lon="6.91082">
        <ele>1455.15</ele>
        <time>2018-09-09T12:51:42Z</time>
      </trkpt>
      <trkpt lat="45.54062" lon="6.91086">
        <ele>1455.03</ele>
        <time>2018-09-09T12:51:44Z</time>
      </trkpt>
      <trkpt lat="45.54096" lon="6.91096">
        <ele>1455.93</ele>
        <time>2018-09-09T12:51:46Z</time>
      </trkpt>
      <trkpt lat="45.54114" lon="6.91092">
        <ele>1455.99</ele>
        <time>2018-09-09T12:51:47Z</time>
      </trkpt>
      <trkpt lat="45.54135" lon="6.91075">
        <ele>1455.31</ele>
        <time>2018-09-09T12:51:48Z</time>
      </trkpt>
      <trkpt lat="45.54154" lon="6.91065">
        <ele>1454.4</ele>
        <time>2018-09-09T12:51:49Z</time>
      </trkpt>
      <trkpt lat="45.54173" lon="6.91055">
        <ele>1453.43</ele>
        <time>2018-09-09T12:51:50Z</time>
      </trkpt>
      <trkpt lat="45.54191" lon="6.9104">
        <ele>1451.74</ele>
        <time>2018-09-09T12:51:51Z</time>
      </trkpt>
      <trkpt lat="45.54208" lon="6.91023">
        <ele>1450.53</ele>
        <time>2018-09-09T12:51:52Z</time>
      </trkpt>
      <trkpt lat="45.54224" lon="6.91003">
        <ele>1449.47</ele>
        <time>2018-09-09T12:51:53Z</time>
      </trkpt>
      <trkpt lat="45.54241" lon="6.90983">
        <ele>1447.75</ele>
        <time>2018-09-09T12:51:54Z</time>
      </trkpt>
      <trkpt lat="45.54258" lon="6.90965">
        <ele>1445.84</ele>
        <time>2018-09-09T12:51:55Z</time>
      </trkpt>
      <trkpt lat="45.54277" lon="6.9095">
        <ele>1444.56</ele>
        <time>2018-09-09T12:51:56Z</time>
      </trkpt>
      <trkpt lat="45.54296" lon="6.90936">
        <ele>1443.48</ele>
        <time>2018-09-09T12:51:57Z</time>
      </trkpt>
      <trkpt lat="45.54315" lon="6.90921">
        <ele>1442.45</ele>
        <time>2018-09-09T12:51:58Z</time>
      </trkpt>
      <trkpt lat="45.54333" lon="6.90907">
        <ele>1439.35</ele>
        <time>2018-09-09T12:51:59Z</time>
      </trkpt>
      <trkpt lat="45.5435" lon="6.90892">
        <ele>1437.01</ele>
        <time>2018-09-09T12:52:00Z</time>
      </trkpt>
      <trkpt lat="45.54369" lon="6.90881">
        <ele>1434.21</ele>
        <time>2018-09-09T12:52:01Z</time>
      </trkpt>
      <trkpt lat="45.54388" lon="6.90873">
        <ele>1431.97</ele>
        <time>2018-09-09T12:52:02Z</time>
      </trkpt>
      <trkpt lat="45.54409" lon="6.90865">
        <ele>1429.9</ele>
        <time>2018-09-09T12:52:03Z</time>
      </trkpt>
      <trkpt lat="45.54431" lon="6.90857">
        <ele>1428.58</ele>
        <time>2018-09-09T12:52:04Z</time>
      </trkpt>
      <trkpt lat="45.54452" lon="6.90846">
        <ele>1426.78</ele>
        <time>2018-09-09T12:52:05Z</time>
      </trkpt>
      <trkpt lat="45.54472" lon="6.90833">
        <ele>1425.55</ele>
        <time>2018-09-09T12:52:06Z</time>
      </trkpt>
      <trkpt lat="45.54491" lon="6.90818">
        <ele>1423.77</ele>
        <time>2018-09-09T12:52:07Z</time>
      </trkpt>
      <trkpt lat="45.5451" lon="6.90805">
        <ele>1422.54</ele>
        <time>2018-09-09T12:52:08Z</time>
      </trkpt>
      <trkpt lat="45.5453" lon="6.90795">
        <ele>1421.47</ele>
        <time>2018-09-09T12:52:09Z</time>
      </trkpt>
      <trkpt lat="45.54551" lon="6.90788">
        <ele>1420.45</ele>
        <time>2018-09-09T12:52:10Z</time>
      </trkpt>
      <trkpt lat="45.54572" lon="6.90783">
        <ele>1419.45</ele>
        <time>2018-09-09T12:52:11Z</time>
      </trkpt>
      <trkpt lat="45.54594" lon="6.90777">
        <ele>1418.44</ele>
        <time>2018-09-09T12:52:12Z</time>
      </trkpt>
      <trkpt lat="45.54615" lon="6.90767">
        <ele>1416.74</ele>
        <time>2018-09-09T12:52:13Z</time>
      </trkpt>
      <trkpt lat="45.54635" lon="6.90756">
        <ele>1416.23</ele>
        <time>2018-09-09T12:52:14Z</time>
      </trkpt>
      <trkpt lat="45.54655" lon="6.90748">
        <ele>1416.08</ele>
        <time>2018-09-09T12:52:15Z</time>
      </trkpt>
      <trkpt lat="45.54675" lon="6.90746">
        <ele>1415.33</ele>
        <time>2018-09-09T12:52:16Z</time>
      </trkpt>
      <trkpt lat="45.54696" lon="6.90744">
        <ele>1414.41</ele>
        <time>2018-09-09T12:52:17Z</time>
      </trkpt>
      <trkpt lat="45.54717" lon="6.90738">
        <ele>1413.43</ele>
        <time>2018-09-09T12:52:18Z</time>
      </trkpt>
      <trkpt lat="45.54738" lon="6.90719">
        <ele>1412.44</ele>
        <time>2018-09-09T12:52:19Z</time>
      </trkpt>
      <trkpt lat="45.54761" lon="6.90703">
        <ele>1410.74</ele>
        <time>2018-09-09T12:52:20Z</time>
      </trkpt>
      <trkpt lat="45.54783" lon="6.90687">
        <ele>1408.83</ele>
        <time>2018-09-09T12:52:21Z</time>
      </trkpt>
      <trkpt lat="45.54804" lon="6.90673">
        <ele>1407.56</ele>
        <time>2018-09-09T12:52:22Z</time>
      </trkpt>
      <trkpt lat="45.54825" lon="6.9066">
        <ele>1406.48</ele>
        <time>2018-09-09T12:52:23Z</time>
      </trkpt>
      <trkpt lat="45.54844" lon="6.90646">
        <ele>1404.75</ele>
        <time>2018-09-09T12:52:24Z</time>
      </trkpt>
      <trkpt lat="45.54863" lon="6.90629">
        <ele>1404.24</ele>
        <time>2018-09-09T12:52:25Z</time>
      </trkpt>
      <trkpt lat="45.54877" lon="6.90605">
        <ele>1403.38</ele>
        <time>2018-09-09T12:52:26Z</time>
      </trkpt>
      <trkpt lat="45.54891" lon="6.90579">
        <ele>1401.72</ele>
        <time>2018-09-09T12:52:27Z</time>
      </trkpt>
      <trkpt lat="45.54906" lon="6.90554">
        <ele>1400.53</ele>
        <time>2018-09-09T12:52:28Z</time>
      </trkpt>
      <trkpt lat="45.54922" lon="6.90528">
        <ele>1399.47</ele>
        <time>2018-09-09T12:52:29Z</time>
      </trkpt>
      <trkpt lat="45.54937" lon="6.90501">
        <ele>1397.75</ele>
        <time>2018-09-09T12:52:30Z</time>
      </trkpt>
      <trkpt lat="45.54952" lon="6.90473">
        <ele>1395.84</ele>
        <time>2018-09-09T12:52:31Z</time>
      </trkpt>
      <trkpt lat="45.54966" lon="6.90448">
        <ele>1394.56</ele>
        <time>2018-09-09T12:52:32Z</time>
      </trkpt>
      <trkpt lat="45.54981" lon="6.90424">
        <ele>1392.78</ele>
        <time>2018-09-09T12:52:33Z</time>
      </trkpt>
      <trkpt lat="45.54998" lon="6.90402">
        <ele>1390.84</ele>
        <time>2018-09-09T12:52:34Z</time>
      </trkpt>
      <trkpt lat="45.55016" lon="6.9038">
        <ele>1389.56</ele>
        <time>2018-09-09T12:52:35Z</time>
      </trkpt>
      <trkpt lat="45.55033" lon="6.90357">
        <ele>1387.78</ele>
        <time>2018-09-09T12:52:36Z</time>
      </trkpt>
      <trkpt lat="45.55049" lon="6.90335">
        <ele>1386.54</ele>
        <time>2018-09-09T12:52:37Z</time>
      </trkpt>
      <trkpt lat="45.55066" lon="6.90315">
        <ele>1385.47</ele>
        <time>2018-09-09T12:52:38Z</time>
      </trkpt>
      <trkpt lat="45.55084" lon="6.90297">
        <ele>1383.05</ele>
        <time>2018-09-09T12:52:39Z</time>
      </trkpt>
      <trkpt lat="45.55103" lon="6.9028">
        <ele>1381.63</ele>
        <time>2018-09-09T12:52:40Z</time>
      </trkpt>
      <trkpt lat="45.55124" lon="6.90264">
        <ele>1380.5</ele>
        <time>2018-09-09T12:52:41Z</time>
      </trkpt>
      <trkpt lat="45.55144" lon="6.90247">
        <ele>1379.46</ele>
        <time>2018-09-09T12:52:42Z</time>
      </trkpt>
      <trkpt lat="45.55165" lon="6.90231">
        <ele>1377.75</ele>
        <time>2018-09-09T12:52:43Z</time>
      </trkpt>
      <trkpt lat="45.55187" lon="6.90215">
        <ele>1376.54</ele>
        <time>2018-09-09T12:52:44Z</time>
      </trkpt>
      <trkpt lat="45.55208" lon="6.902">
        <ele>1375.47</ele>
        <time>2018-09-09T12:52:45Z</time>
      </trkpt>
      <trkpt lat="45.55228" lon="6.90185">
        <ele>1373.75</ele>
        <time>2018-09-09T12:52:46Z</time>
      </trkpt>
      <trkpt lat="45.55247" lon="6.90171">
        <ele>1372.54</ele>
        <time>2018-09-09T12:52:47Z</time>
      </trkpt>
      <trkpt lat="45.55266" lon="6.90158">
        <ele>1371.47</ele>
        <time>2018-09-09T12:52:48Z</time>
      </trkpt>
      <trkpt lat="45.55285" lon="6.90152">
        <ele>1370.45</ele>
        <time>2018-09-09T12:52:49Z</time>
      </trkpt>
      <trkpt lat="45.55304" lon="6.9015">
        <ele>1369.45</ele>
        <time>2018-09-09T12:52:50Z</time>
      </trkpt>
      <trkpt lat="45.55325" lon="6.90155">
        <ele>1368.44</ele>
        <time>2018-09-09T12:52:51Z</time>
      </trkpt>
      <trkpt lat="45.55346" lon="6.9016">
        <ele>1367.44</ele>
        <time>2018-09-09T12:52:52Z</time>
      </trkpt>
      <trkpt lat="45.55367" lon="6.9016">
        <ele>1366.44</ele>
        <time>2018-09-09T12:52:53Z</time>
      </trkpt>
      <trkpt lat="45.55389" lon="6.90161">
        <ele>1364.74</ele>
        <time>2018-09-09T12:52:54Z</time>
      </trkpt>
      <trkpt lat="45.5541" lon="6.90166">
        <ele>1363.53</ele>
        <time>2018-09-09T12:52:55Z</time>
      </trkpt>
      <trkpt lat="45.5543" lon="6.90168">
        <ele>1362.47</ele>
        <time>2018-09-09T12:52:56Z</time>
      </trkpt>
      <trkpt lat="45.5545" lon="6.90169">
        <ele>1362.15</ele>
        <time>2018-09-09T12:52:57Z</time>
      </trkpt>
      <trkpt lat="45.55473" lon="6.90166">
        <ele>1362.06</ele>
        <time>2018-09-09T12:52:58Z</time>
      </trkpt>
      <trkpt lat="45.55495" lon="6.90145">
        <ele>1361.33</ele>
        <time>2018-09-09T12:52:59Z</time>
      </trkpt>
      <trkpt lat="45.55517" lon="6.90133">
        <ele>1360.41</ele>
        <time>2018-09-09T12:53:00Z</time>
      </trkpt>
      <trkpt lat="45.5554" lon="6.90125">
        <ele>1358.73</ele>
        <time>2018-09-09T12:53:01Z</time>
      </trkpt>
      <trkpt lat="45.55563" lon="6.90116">
        <ele>1357.53</ele>
        <time>2018-09-09T12:53:02Z</time>
      </trkpt>
      <trkpt lat="45.55585" lon="6.90104">
        <ele>1356.47</ele>
        <time>2018-09-09T12:53:03Z</time>
      </trkpt>
      <trkpt lat="45.55607" lon="6.90091">
        <ele>1355.45</ele>
        <time>2018-09-09T12:53:04Z</time>
      </trkpt>
      <trkpt lat="45.55627" lon="6.90077">
        <ele>1355.85</ele>
        <time>2018-09-09T12:53:05Z</time>
      </trkpt>
      <trkpt lat="45.55638" lon="6.90041">
        <ele>1355.26</ele>
        <time>2018-09-09T12:53:06Z</time>
      </trkpt>
      <trkpt lat="45.55654" lon="6.90017">
        <ele>1352.99</ele>
        <time>2018-09-09T12:53:07Z</time>
      </trkpt>
      <trkpt lat="45.5567" lon="6.89994">
        <ele>1350.91</ele>
        <time>2018-09-09T12:53:08Z</time>
      </trkpt>
      <trkpt lat="45.55688" lon="6.89973">
        <ele>1349.58</ele>
        <time>2018-09-09T12:53:09Z</time>
      </trkpt>
      <trkpt lat="45.55705" lon="6.89953">
        <ele>1349.19</ele>
        <time>2018-09-09T12:53:10Z</time>
      </trkpt>
      <trkpt lat="45.5572" lon="6.89931">
        <ele>1349.07</ele>
        <time>2018-09-09T12:53:11Z</time>
      </trkpt>
      <trkpt lat="45.55735" lon="6.89908">
        <ele>1348.33</ele>
        <time>2018-09-09T12:53:12Z</time>
      </trkpt>
      <trkpt lat="45.55748" lon="6.89883">
        <ele>1347.41</ele>
        <time>2018-09-09T12:53:13Z</time>
      </trkpt>
      <trkpt lat="45.55763" lon="6.89864">
        <ele>1347.83</ele>
        <time>2018-09-09T12:53:14Z</time>
      </trkpt>
      <trkpt lat="45.55779" lon="6.89845">
        <ele>1347.96</ele>
        <time>2018-09-09T12:53:15Z</time>
      </trkpt>
      <trkpt lat="45.55793" lon="6.89827">
        <ele>1347.3</ele>
        <time>2018-09-09T12:53:16Z</time>
      </trkpt>
      <trkpt lat="45.55806" lon="6.89807">
        <ele>1347.1</ele>
        <time>2018-09-09T12:53:17Z</time>
      </trkpt>
      <trkpt lat="45.55823" lon="6.89765">
        <ele>1347.02</ele>
        <time>2018-09-09T12:53:19Z</time>
      </trkpt>
      <trkpt lat="45.55841" lon="6.89731">
        <ele>1347.02</ele>
        <time>2018-09-09T12:53:21Z</time>
      </trkpt>
      <trkpt lat="45.55859" lon="6.89725">
        <ele>1345.62</ele>
        <time>2018-09-09T12:53:22Z</time>
      </trkpt>
      <trkpt lat="45.55875" lon="6.89709">
        <ele>1343.8</ele>
        <time>2018-09-09T12:53:23Z</time>
      </trkpt>
      <trkpt lat="45.55892" lon="6.89695">
        <ele>1343.25</ele>
        <time>2018-09-09T12:53:24Z</time>
      </trkpt>
      <trkpt lat="45.55905" lon="6.89668">
        <ele>1343.09</ele>
        <time>2018-09-09T12:53:25Z</time>
      </trkpt>
      <trkpt lat="45.55918" lon="6.89645">
        <ele>1342.34</ele>
        <time>2018-09-09T12:53:26Z</time>
      </trkpt>
      <trkpt lat="45.55932" lon="6.89623">
        <ele>1342.11</ele>
        <time>2018-09-09T12:53:27Z</time>
      </trkpt>
      <trkpt lat="45.55938" lon="6.89598">
        <ele>1342.04</ele>
        <time>2018-09-09T12:53:28Z</time>
      </trkpt>
      <trkpt lat="45.55945" lon="6.89574">
        <ele>1341.32</ele>
        <time>2018-09-09T12:53:29Z</time>
      </trkpt>
      <trkpt lat="45.55959" lon="6.89534">
        <ele>1340.34</ele>
        <time>2018-09-09T12:53:31Z</time>
      </trkpt>
      <trkpt lat="45.5597" lon="6.89504">
        <ele>1339.34</ele>
        <time>2018-09-09T12:53:33Z</time>
      </trkpt>
      <trkpt lat="45.5599" lon="6.8948">
        <ele>1338.83</ele>
        <time>2018-09-09T12:53:35Z</time>
      </trkpt>
      <trkpt lat="45.56021" lon="6.89466">
        <ele>1338.79</ele>
        <time>2018-09-09T12:53:37Z</time>
      </trkpt>
      <trkpt lat="45.56059" lon="6.89461">
        <ele>1337.38</ele>
        <time>2018-09-09T12:53:39Z</time>
      </trkpt>
      <trkpt lat="45.5608" lon="6.89457">
        <ele>1337.13</ele>
        <time>2018-09-09T12:53:40Z</time>
      </trkpt>
      <trkpt lat="45.56104" lon="6.8945">
        <ele>1336.35</ele>
        <time>2018-09-09T12:53:41Z</time>
      </trkpt>
      <trkpt lat="45.56127" lon="6.89441">
        <ele>1336.11</ele>
        <time>2018-09-09T12:53:42Z</time>
      </trkpt>
      <trkpt lat="45.5615" lon="6.89427">
        <ele>1336.05</ele>
        <time>2018-09-09T12:53:43Z</time>
      </trkpt>
      <trkpt lat="45.56171" lon="6.89398">
        <ele>1336.02</ele>
        <time>2018-09-09T12:53:44Z</time>
      </trkpt>
      <trkpt lat="45.56192" lon="6.89377">
        <ele>1335.32</ele>
        <time>2018-09-09T12:53:45Z</time>
      </trkpt>
      <trkpt lat="45.56214" lon="6.89357">
        <ele>1335.11</ele>
        <time>2018-09-09T12:53:46Z</time>
      </trkpt>
      <trkpt lat="45.56235" lon="6.89337">
        <ele>1334.34</ele>
        <time>2018-09-09T12:53:47Z</time>
      </trkpt>
      <trkpt lat="45.56255" lon="6.89319">
        <ele>1334.11</ele>
        <time>2018-09-09T12:53:48Z</time>
      </trkpt>
      <trkpt lat="45.56274" lon="6.89302">
        <ele>1332.64</ele>
        <time>2018-09-09T12:53:49Z</time>
      </trkpt>
      <trkpt lat="45.56291" lon="6.89289">
        <ele>1331.5</ele>
        <time>2018-09-09T12:53:50Z</time>
      </trkpt>
      <trkpt lat="45.56324" lon="6.8927">
        <ele>1327.42</ele>
        <time>2018-09-09T12:53:52Z</time>
      </trkpt>
      <trkpt lat="45.56341" lon="6.89263">
        <ele>1327.14</ele>
        <time>2018-09-09T12:53:53Z</time>
      </trkpt>
      <trkpt lat="45.56362" lon="6.89263">
        <ele>1327.05</ele>
        <time>2018-09-09T12:53:54Z</time>
      </trkpt>
      <trkpt lat="45.56382" lon="6.89253">
        <ele>1326.33</ele>
        <time>2018-09-09T12:53:55Z</time>
      </trkpt>
      <trkpt lat="45.56402" lon="6.89243">
        <ele>1326.11</ele>
        <time>2018-09-09T12:53:56Z</time>
      </trkpt>
      <trkpt lat="45.56419" lon="6.8922">
        <ele>1323.94</ele>
        <time>2018-09-09T12:53:57Z</time>
      </trkpt>
      <trkpt lat="45.56437" lon="6.892">
        <ele>1321.89</ele>
        <time>2018-09-09T12:53:58Z</time>
      </trkpt>
      <trkpt lat="45.56455" lon="6.8918">
        <ele>1320.58</ele>
        <time>2018-09-09T12:53:59Z</time>
      </trkpt>
      <trkpt lat="45.56473" lon="6.89162">
        <ele>1318.08</ele>
        <time>2018-09-09T12:54:00Z</time>
      </trkpt>
      <trkpt lat="45.56492" lon="6.89145">
        <ele>1315.24</ele>
        <time>2018-09-09T12:54:01Z</time>
      </trkpt>
      <trkpt lat="45.5651" lon="6.89133">
        <ele>1312.98</ele>
        <time>2018-09-09T12:54:02Z</time>
      </trkpt>
      <trkpt lat="45.56529" lon="6.89121">
        <ele>1312.3</ele>
        <time>2018-09-09T12:54:03Z</time>
      </trkpt>
      <trkpt lat="45.5655" lon="6.8911">
        <ele>1310.7</ele>
        <time>2018-09-09T12:54:04Z</time>
      </trkpt>
      <trkpt lat="45.5657" lon="6.89098">
        <ele>1309.52</ele>
        <time>2018-09-09T12:54:05Z</time>
      </trkpt>
      <trkpt lat="45.56589" lon="6.89083">
        <ele>1307.77</ele>
        <time>2018-09-09T12:54:06Z</time>
      </trkpt>
      <trkpt lat="45.56607" lon="6.89065">
        <ele>1305.84</ele>
        <time>2018-09-09T12:54:07Z</time>
      </trkpt>
      <trkpt lat="45.56623" lon="6.89044">
        <ele>1303.86</ele>
        <time>2018-09-09T12:54:08Z</time>
      </trkpt>
      <trkpt lat="45.56639" lon="6.89024">
        <ele>1302.57</ele>
        <time>2018-09-09T12:54:09Z</time>
      </trkpt>
      <trkpt lat="45.56654" lon="6.89002">
        <ele>1300.78</ele>
        <time>2018-09-09T12:54:10Z</time>
      </trkpt>
      <trkpt lat="45.56668" lon="6.88981">
        <ele>1299.54</ele>
        <time>2018-09-09T12:54:11Z</time>
      </trkpt>
      <trkpt lat="45.56679" lon="6.88962">
        <ele>1298.47</ele>
        <time>2018-09-09T12:54:12Z</time>
      </trkpt>
      <trkpt lat="45.56703" lon="6.88932">
        <ele>1295.33</ele>
        <time>2018-09-09T12:54:14Z</time>
      </trkpt>
      <trkpt lat="45.56729" lon="6.8892">
        <ele>1294.34</ele>
        <time>2018-09-09T12:54:16Z</time>
      </trkpt>
      <trkpt lat="45.56765" lon="6.88928">
        <ele>1294.04</ele>
        <time>2018-09-09T12:54:18Z</time>
      </trkpt>
      <trkpt lat="45.56787" lon="6.88914">
        <ele>1293.32</ele>
        <time>2018-09-09T12:54:19Z</time>
      </trkpt>
      <trkpt lat="45.56809" lon="6.88904">
        <ele>1290.31</ele>
        <time>2018-09-09T12:54:20Z</time>
      </trkpt>
      <trkpt lat="45.56829" lon="6.88891">
        <ele>1287.3</ele>
        <time>2018-09-09T12:54:21Z</time>
      </trkpt>
      <trkpt lat="45.5685" lon="6.88881">
        <ele>1285</ele>
        <time>2018-09-09T12:54:22Z</time>
      </trkpt>
      <trkpt lat="45.56871" lon="6.88873">
        <ele>1282.91</ele>
        <time>2018-09-09T12:54:23Z</time>
      </trkpt>
      <trkpt lat="45.56892" lon="6.88866">
        <ele>1280.88</ele>
        <time>2018-09-09T12:54:24Z</time>
      </trkpt>
      <trkpt lat="45.56913" lon="6.88857">
        <ele>1278.88</ele>
        <time>2018-09-09T12:54:25Z</time>
      </trkpt>
      <trkpt lat="45.56932" lon="6.88843">
        <ele>1276.87</ele>
        <time>2018-09-09T12:54:26Z</time>
      </trkpt>
      <trkpt lat="45.56951" lon="6.88825">
        <ele>1273.47</ele>
        <time>2018-09-09T12:54:27Z</time>
      </trkpt>
      <trkpt lat="45.5697" lon="6.88809">
        <ele>1271.05</ele>
        <time>2018-09-09T12:54:28Z</time>
      </trkpt>
      <trkpt lat="45.56989" lon="6.88787">
        <ele>1268.93</ele>
        <time>2018-09-09T12:54:29Z</time>
      </trkpt>
      <trkpt lat="45.57006" lon="6.88765">
        <ele>1266.89</ele>
        <time>2018-09-09T12:54:30Z</time>
      </trkpt>
      <trkpt lat="45.57022" lon="6.88743">
        <ele>1264.18</ele>
        <time>2018-09-09T12:54:31Z</time>
      </trkpt>
      <trkpt lat="45.57037" lon="6.88725">
        <ele>1262.66</ele>
        <time>2018-09-09T12:54:32Z</time>
      </trkpt>
      <trkpt lat="45.57066" lon="6.88701">
        <ele>1259.06</ele>
        <time>2018-09-09T12:54:34Z</time>
      </trkpt>
      <trkpt lat="45.57095" lon="6.88683">
        <ele>1256.5</ele>
        <time>2018-09-09T12:54:36Z</time>
      </trkpt>
      <trkpt lat="45.57122" lon="6.88667">
        <ele>1254.45</ele>
        <time>2018-09-09T12:54:38Z</time>
      </trkpt>
      <trkpt lat="45.57147" lon="6.88654">
        <ele>1254.05</ele>
        <time>2018-09-09T12:54:40Z</time>
      </trkpt>
      <trkpt lat="45.57173" lon="6.88646">
        <ele>1253.11</ele>
        <time>2018-09-09T12:54:42Z</time>
      </trkpt>
      <trkpt lat="45.57198" lon="6.88639">
        <ele>1253.02</ele>
        <time>2018-09-09T12:54:44Z</time>
      </trkpt>
      <trkpt lat="45.57221" lon="6.88633">
        <ele>1252.81</ele>
        <time>2018-09-09T12:54:46Z</time>
      </trkpt>
      <trkpt lat="45.57242" lon="6.88629">
        <ele>1251.6</ele>
        <time>2018-09-09T12:54:48Z</time>
      </trkpt>
      <trkpt lat="45.57262" lon="6.88627">
        <ele>1249.46</ele>
        <time>2018-09-09T12:54:50Z</time>
      </trkpt>
      <trkpt lat="45.5728" lon="6.8862">
        <ele>1248.35</ele>
        <time>2018-09-09T12:54:52Z</time>
      </trkpt>
      <trkpt lat="45.57296" lon="6.88605">
        <ele>1246.44</ele>
        <time>2018-09-09T12:54:54Z</time>
      </trkpt>
      <trkpt lat="45.57309" lon="6.88583">
        <ele>1246.05</ele>
        <time>2018-09-09T12:54:56Z</time>
      </trkpt>
      <trkpt lat="45.57321" lon="6.88561">
        <ele>1243.5</ele>
        <time>2018-09-09T12:54:58Z</time>
      </trkpt>
      <trkpt lat="45.57336" lon="6.88541">
        <ele>1241.45</ele>
        <time>2018-09-09T12:55:00Z</time>
      </trkpt>
      <trkpt lat="45.57354" lon="6.88529">
        <ele>1239.44</ele>
        <time>2018-09-09T12:55:02Z</time>
      </trkpt>
      <trkpt lat="45.57373" lon="6.88518">
        <ele>1237.44</ele>
        <time>2018-09-09T12:55:04Z</time>
      </trkpt>
      <trkpt lat="45.5739" lon="6.88502">
        <ele>1235.44</ele>
        <time>2018-09-09T12:55:06Z</time>
      </trkpt>
      <trkpt lat="45.5741" lon="6.88482">
        <ele>1234.14</ele>
        <time>2018-09-09T12:55:08Z</time>
      </trkpt>
      <trkpt lat="45.57432" lon="6.88462">
        <ele>1231.72</ele>
        <time>2018-09-09T12:55:10Z</time>
      </trkpt>
      <trkpt lat="45.57455" lon="6.88442">
        <ele>1228.56</ele>
        <time>2018-09-09T12:55:12Z</time>
      </trkpt>
      <trkpt lat="45.57479" lon="6.88435">
        <ele>1224.84</ele>
        <time>2018-09-09T12:55:14Z</time>
      </trkpt>
      <trkpt lat="45.57507" lon="6.88439">
        <ele>1222.48</ele>
        <time>2018-09-09T12:55:16Z</time>
      </trkpt>
      <trkpt lat="45.57541" lon="6.88446">
        <ele>1218.84</ele>
        <time>2018-09-09T12:55:18Z</time>
      </trkpt>
      <trkpt lat="45.57559" lon="6.88448">
        <ele>1217.56</ele>
        <time>2018-09-09T12:55:19Z</time>
      </trkpt>
      <trkpt lat="45.57594" lon="6.88437">
        <ele>1214.26</ele>
        <time>2018-09-09T12:55:21Z</time>
      </trkpt>
      <trkpt lat="45.57626" lon="6.88416">
        <ele>1211.31</ele>
        <time>2018-09-09T12:55:23Z</time>
      </trkpt>
      <trkpt lat="45.57647" lon="6.8837">
        <ele>1208.94</ele>
        <time>2018-09-09T12:55:25Z</time>
      </trkpt>
      <trkpt lat="45.57659" lon="6.88351">
        <ele>1206.89</ele>
        <time>2018-09-09T12:55:26Z</time>
      </trkpt>
      <trkpt lat="45.57676" lon="6.88335">
        <ele>1204.88</ele>
        <time>2018-09-09T12:55:27Z</time>
      </trkpt>
      <trkpt lat="45.57694" lon="6.88321">
        <ele>1202.87</ele>
        <time>2018-09-09T12:55:28Z</time>
      </trkpt>
      <trkpt lat="45.57711" lon="6.88308">
        <ele>1201.57</ele>
        <time>2018-09-09T12:55:29Z</time>
      </trkpt>
      <trkpt lat="45.57728" lon="6.88299">
        <ele>1199.78</ele>
        <time>2018-09-09T12:55:30Z</time>
      </trkpt>
      <trkpt lat="45.57765" lon="6.88298">
        <ele>1195.37</ele>
        <time>2018-09-09T12:55:32Z</time>
      </trkpt>
      <trkpt lat="45.57783" lon="6.88298">
        <ele>1193.02</ele>
        <time>2018-09-09T12:55:33Z</time>
      </trkpt>
      <trkpt lat="45.57815" lon="6.88303">
        <ele>1189.59</ele>
        <time>2018-09-09T12:55:35Z</time>
      </trkpt>
      <trkpt lat="45.57843" lon="6.8833">
        <ele>1186.55</ele>
        <time>2018-09-09T12:55:37Z</time>
      </trkpt>
      <trkpt lat="45.57857" lon="6.88348">
        <ele>1184.77</ele>
        <time>2018-09-09T12:55:38Z</time>
      </trkpt>
      <trkpt lat="45.57872" lon="6.88367">
        <ele>1183.54</ele>
        <time>2018-09-09T12:55:39Z</time>
      </trkpt>
      <trkpt lat="45.57888" lon="6.88386">
        <ele>1181.07</ele>
        <time>2018-09-09T12:55:40Z</time>
      </trkpt>
      <trkpt lat="45.57904" lon="6.88405">
        <ele>1178.93</ele>
        <time>2018-09-09T12:55:41Z</time>
      </trkpt>
      <trkpt lat="45.57919" lon="6.88424">
        <ele>1176.89</ele>
        <time>2018-09-09T12:55:42Z</time>
      </trkpt>
      <trkpt lat="45.57933" lon="6.88444">
        <ele>1174.88</ele>
        <time>2018-09-09T12:55:43Z</time>
      </trkpt>
      <trkpt lat="45.57947" lon="6.88461">
        <ele>1172.87</ele>
        <time>2018-09-09T12:55:44Z</time>
      </trkpt>
      <trkpt lat="45.57974" lon="6.88485">
        <ele>1171.18</ele>
        <time>2018-09-09T12:55:46Z</time>
      </trkpt>
      <trkpt lat="45.57994" lon="6.88489">
        <ele>1169.21</ele>
        <time>2018-09-09T12:55:48Z</time>
      </trkpt>
      <trkpt lat="45.58011" lon="6.8847">
        <ele>1168.11</ele>
        <time>2018-09-09T12:55:51Z</time>
      </trkpt>
      <trkpt lat="45.57988" lon="6.88454">
        <ele>1167.81</ele>
        <time>2018-09-09T12:55:53Z</time>
      </trkpt>
      <trkpt lat="45.57968" lon="6.88444">
        <ele>1165.69</ele>
        <time>2018-09-09T12:55:55Z</time>
      </trkpt>
      <trkpt lat="45.57946" lon="6.88422">
        <ele>1163.47</ele>
        <time>2018-09-09T12:55:57Z</time>
      </trkpt>
      <trkpt lat="45.57923" lon="6.88389">
        <ele>1161.45</ele>
        <time>2018-09-09T12:55:59Z</time>
      </trkpt>
      <trkpt lat="45.57911" lon="6.88369">
        <ele>1160.44</ele>
        <time>2018-09-09T12:56:00Z</time>
      </trkpt>
      <trkpt lat="45.57898" lon="6.88349">
        <ele>1159.44</ele>
        <time>2018-09-09T12:56:01Z</time>
      </trkpt>
      <trkpt lat="45.57886" lon="6.8833">
        <ele>1158.44</ele>
        <time>2018-09-09T12:56:02Z</time>
      </trkpt>
      <trkpt lat="45.57864" lon="6.88292">
        <ele>1157.84</ele>
        <time>2018-09-09T12:56:04Z</time>
      </trkpt>
      <trkpt lat="45.57845" lon="6.88262">
        <ele>1157.09</ele>
        <time>2018-09-09T12:56:06Z</time>
      </trkpt>
      <trkpt lat="45.57843" lon="6.88232">
        <ele>1154.43</ele>
        <time>2018-09-09T12:56:09Z</time>
      </trkpt>
      <trkpt lat="45.57863" lon="6.88261">
        <ele>1153.38</ele>
        <time>2018-09-09T12:56:13Z</time>
      </trkpt>
      <trkpt lat="45.57876" lon="6.88293">
        <ele>1152.35</ele>
        <time>2018-09-09T12:56:15Z</time>
      </trkpt>
      <trkpt lat="45.57895" lon="6.88327">
        <ele>1150.43</ele>
        <time>2018-09-09T12:56:17Z</time>
      </trkpt>
      <trkpt lat="45.5792" lon="6.88357">
        <ele>1147.74</ele>
        <time>2018-09-09T12:56:19Z</time>
      </trkpt>
      <trkpt lat="45.57949" lon="6.88382">
        <ele>1145.47</ele>
        <time>2018-09-09T12:56:21Z</time>
      </trkpt>
      <trkpt lat="45.57979" lon="6.884">
        <ele>1144.15</ele>
        <time>2018-09-09T12:56:23Z</time>
      </trkpt>
      <trkpt lat="45.57999" lon="6.88391">
        <ele>1143.35</ele>
        <time>2018-09-09T12:56:24Z</time>
      </trkpt>
      <trkpt lat="45.58017" lon="6.88385">
        <ele>1142.42</ele>
        <time>2018-09-09T12:56:25Z</time>
      </trkpt>
      <trkpt lat="45.58036" lon="6.8838">
        <ele>1140.74</ele>
        <time>2018-09-09T12:56:26Z</time>
      </trkpt>
      <trkpt lat="45.58056" lon="6.8838">
        <ele>1140.23</ele>
        <time>2018-09-09T12:56:27Z</time>
      </trkpt>
      <trkpt lat="45.58077" lon="6.88382">
        <ele>1139.38</ele>
        <time>2018-09-09T12:56:28Z</time>
      </trkpt>
      <trkpt lat="45.58098" lon="6.88384">
        <ele>1137.72</ele>
        <time>2018-09-09T12:56:29Z</time>
      </trkpt>
      <trkpt lat="45.58119" lon="6.8839">
        <ele>1135.83</ele>
        <time>2018-09-09T12:56:30Z</time>
      </trkpt>
      <trkpt lat="45.58139" lon="6.88397">
        <ele>1133.16</ele>
        <time>2018-09-09T12:56:31Z</time>
      </trkpt>
      <trkpt lat="45.58159" lon="6.88405">
        <ele>1130.96</ele>
        <time>2018-09-09T12:56:32Z</time>
      </trkpt>
      <trkpt lat="45.5818" lon="6.88413">
        <ele>1128.9</ele>
        <time>2018-09-09T12:56:33Z</time>
      </trkpt>
      <trkpt lat="45.582" lon="6.88419">
        <ele>1126.88</ele>
        <time>2018-09-09T12:56:34Z</time>
      </trkpt>
      <trkpt lat="45.5822" lon="6.88422">
        <ele>1125.57</ele>
        <time>2018-09-09T12:56:35Z</time>
      </trkpt>
      <trkpt lat="45.58239" lon="6.88422">
        <ele>1123.78</ele>
        <time>2018-09-09T12:56:36Z</time>
      </trkpt>
      <trkpt lat="45.58258" lon="6.88422">
        <ele>1121.85</ele>
        <time>2018-09-09T12:56:37Z</time>
      </trkpt>
      <trkpt lat="45.58276" lon="6.88426">
        <ele>1120.56</ele>
        <time>2018-09-09T12:56:38Z</time>
      </trkpt>
      <trkpt lat="45.58294" lon="6.88434">
        <ele>1119.48</ele>
        <time>2018-09-09T12:56:39Z</time>
      </trkpt>
      <trkpt lat="45.58322" lon="6.88457">
        <ele>1117.66</ele>
        <time>2018-09-09T12:56:41Z</time>
      </trkpt>
      <trkpt lat="45.58354" lon="6.88478">
        <ele>1114.55</ele>
        <time>2018-09-09T12:56:43Z</time>
      </trkpt>
      <trkpt lat="45.58389" lon="6.88487">
        <ele>1111.75</ele>
        <time>2018-09-09T12:56:45Z</time>
      </trkpt>
      <trkpt lat="45.58411" lon="6.8849">
        <ele>1110.54</ele>
        <time>2018-09-09T12:56:46Z</time>
      </trkpt>
      <trkpt lat="45.58434" lon="6.88493">
        <ele>1109.47</ele>
        <time>2018-09-09T12:56:47Z</time>
      </trkpt>
      <trkpt lat="45.58456" lon="6.88495">
        <ele>1107.05</ele>
        <time>2018-09-09T12:56:48Z</time>
      </trkpt>
      <trkpt lat="45.58477" lon="6.885">
        <ele>1104.93</ele>
        <time>2018-09-09T12:56:49Z</time>
      </trkpt>
      <trkpt lat="45.58496" lon="6.88507">
        <ele>1103.59</ele>
        <time>2018-09-09T12:56:50Z</time>
      </trkpt>
      <trkpt lat="45.58526" lon="6.88512">
        <ele>1101.25</ele>
        <time>2018-09-09T12:56:52Z</time>
      </trkpt>
      <trkpt lat="45.58545" lon="6.88498">
        <ele>1099.22</ele>
        <time>2018-09-09T12:56:54Z</time>
      </trkpt>
      <trkpt lat="45.58564" lon="6.88482">
        <ele>1096.72</ele>
        <time>2018-09-09T12:56:56Z</time>
      </trkpt>
      <trkpt lat="45.58584" lon="6.88463">
        <ele>1093.77</ele>
        <time>2018-09-09T12:56:58Z</time>
      </trkpt>
      <trkpt lat="45.58605" lon="6.88445">
        <ele>1091.47</ele>
        <time>2018-09-09T12:57:00Z</time>
      </trkpt>
      <trkpt lat="45.58627" lon="6.88438">
        <ele>1090.15</ele>
        <time>2018-09-09T12:57:02Z</time>
      </trkpt>
      <trkpt lat="45.58648" lon="6.88442">
        <ele>1088.42</ele>
        <time>2018-09-09T12:57:04Z</time>
      </trkpt>
      <trkpt lat="45.5867" lon="6.88452">
        <ele>1085.74</ele>
        <time>2018-09-09T12:57:06Z</time>
      </trkpt>
      <trkpt lat="45.58694" lon="6.88463">
        <ele>1083.68</ele>
        <time>2018-09-09T12:57:08Z</time>
      </trkpt>
      <trkpt lat="45.58718" lon="6.88474">
        <ele>1080.55</ele>
        <time>2018-09-09T12:57:10Z</time>
      </trkpt>
      <trkpt lat="45.58741" lon="6.88486">
        <ele>1078.45</ele>
        <time>2018-09-09T12:57:12Z</time>
      </trkpt>
      <trkpt lat="45.58765" lon="6.88497">
        <ele>1076.44</ele>
        <time>2018-09-09T12:57:14Z</time>
      </trkpt>
      <trkpt lat="45.58789" lon="6.88493">
        <ele>1075.14</ele>
        <time>2018-09-09T12:57:16Z</time>
      </trkpt>
      <trkpt lat="45.58811" lon="6.88475">
        <ele>1074.12</ele>
        <time>2018-09-09T12:57:18Z</time>
      </trkpt>
      <trkpt lat="45.58833" lon="6.88458">
        <ele>1071.71</ele>
        <time>2018-09-09T12:57:20Z</time>
      </trkpt>
      <trkpt lat="45.58852" lon="6.88436">
        <ele>1069.47</ele>
        <time>2018-09-09T12:57:22Z</time>
      </trkpt>
      <trkpt lat="45.58859" lon="6.88406">
        <ele>1066.75</ele>
        <time>2018-09-09T12:57:24Z</time>
      </trkpt>
      <trkpt lat="45.58866" lon="6.88375">
        <ele>1063.56</ele>
        <time>2018-09-09T12:57:26Z</time>
      </trkpt>
      <trkpt lat="45.58879" lon="6.8835">
        <ele>1062.36</ele>
        <time>2018-09-09T12:57:28Z</time>
      </trkpt>
      <trkpt lat="45.589" lon="6.88342">
        <ele>1060.44</ele>
        <time>2018-09-09T12:57:30Z</time>
      </trkpt>
      <trkpt lat="45.58923" lon="6.88341">
        <ele>1058.23</ele>
        <time>2018-09-09T12:57:32Z</time>
      </trkpt>
      <trkpt lat="45.58946" lon="6.88354">
        <ele>1056.42</ele>
        <time>2018-09-09T12:57:34Z</time>
      </trkpt>
      <trkpt lat="45.58965" lon="6.88378">
        <ele>1055.14</ele>
        <time>2018-09-09T12:57:36Z</time>
      </trkpt>
      <trkpt lat="45.58984" lon="6.88401">
        <ele>1052.51</ele>
        <time>2018-09-09T12:57:38Z</time>
      </trkpt>
      <trkpt lat="45.59006" lon="6.88415">
        <ele>1051.36</ele>
        <time>2018-09-09T12:57:40Z</time>
      </trkpt>
      <trkpt lat="45.59026" lon="6.88408">
        <ele>1049.44</ele>
        <time>2018-09-09T12:57:42Z</time>
      </trkpt>
      <trkpt lat="45.59038" lon="6.88384">
        <ele>1048.35</ele>
        <time>2018-09-09T12:57:44Z</time>
      </trkpt>
      <trkpt lat="45.59043" lon="6.8835">
        <ele>1048.05</ele>
        <time>2018-09-09T12:57:46Z</time>
      </trkpt>
      <trkpt lat="45.59053" lon="6.88318">
        <ele>1047.32</ele>
        <time>2018-09-09T12:57:48Z</time>
      </trkpt>
      <trkpt lat="45.59069" lon="6.88291">
        <ele>1044.73</ele>
        <time>2018-09-09T12:57:50Z</time>
      </trkpt>
      <trkpt lat="45.59095" lon="6.88275">
        <ele>1041.77</ele>
        <time>2018-09-09T12:57:52Z</time>
      </trkpt>
      <trkpt lat="45.59123" lon="6.88264">
        <ele>1039.68</ele>
        <time>2018-09-09T12:57:54Z</time>
      </trkpt>
      <trkpt lat="45.59156" lon="6.88256">
        <ele>1036.77</ele>
        <time>2018-09-09T12:57:56Z</time>
      </trkpt>
      <trkpt lat="45.59191" lon="6.88254">
        <ele>1033.77</ele>
        <time>2018-09-09T12:57:58Z</time>
      </trkpt>
      <trkpt lat="45.59209" lon="6.88253">
        <ele>1032.54</ele>
        <time>2018-09-09T12:57:59Z</time>
      </trkpt>
      <trkpt lat="45.59227" lon="6.88251">
        <ele>1030.77</ele>
        <time>2018-09-09T12:58:00Z</time>
      </trkpt>
      <trkpt lat="45.59247" lon="6.88253">
        <ele>1028.84</ele>
        <time>2018-09-09T12:58:01Z</time>
      </trkpt>
      <trkpt lat="45.59265" lon="6.88256">
        <ele>1027.56</ele>
        <time>2018-09-09T12:58:02Z</time>
      </trkpt>
      <trkpt lat="45.59299" lon="6.88254">
        <ele>1024.54</ele>
        <time>2018-09-09T12:58:04Z</time>
      </trkpt>
      <trkpt lat="45.5933" lon="6.88242">
        <ele>1021.54</ele>
        <time>2018-09-09T12:58:06Z</time>
      </trkpt>
      <trkpt lat="45.59361" lon="6.88236">
        <ele>1020.15</ele>
        <time>2018-09-09T12:58:08Z</time>
      </trkpt>
      <trkpt lat="45.59395" lon="6.88239">
        <ele>1018.21</ele>
        <time>2018-09-09T12:58:10Z</time>
      </trkpt>
      <trkpt lat="45.59431" lon="6.88242">
        <ele>1016.42</ele>
        <time>2018-09-09T12:58:12Z</time>
      </trkpt>
      <trkpt lat="45.5945" lon="6.88242">
        <ele>1014.74</ele>
        <time>2018-09-09T12:58:13Z</time>
      </trkpt>
      <trkpt lat="45.59468" lon="6.88243">
        <ele>1012.83</ele>
        <time>2018-09-09T12:58:14Z</time>
      </trkpt>
      <trkpt lat="45.59486" lon="6.88248">
        <ele>1011.56</ele>
        <time>2018-09-09T12:58:15Z</time>
      </trkpt>
      <trkpt lat="45.5952" lon="6.8826">
        <ele>1008.75</ele>
        <time>2018-09-09T12:58:17Z</time>
      </trkpt>
      <trkpt lat="45.59553" lon="6.88257">
        <ele>1006.47</ele>
        <time>2018-09-09T12:58:19Z</time>
      </trkpt>
      <trkpt lat="45.59582" lon="6.8826">
        <ele>1002.84</ele>
        <time>2018-09-09T12:58:21Z</time>
      </trkpt>
      <trkpt lat="45.59602" lon="6.88269">
        <ele>1002.09</ele>
        <time>2018-09-09T12:58:23Z</time>
      </trkpt>
      <trkpt lat="45.59626" lon="6.88266">
        <ele>1001.04</ele>
        <time>2018-09-09T12:58:26Z</time>
      </trkpt>
      <trkpt lat="45.59619" lon="6.88237">
        <ele>999.41</ele>
        <time>2018-09-09T12:58:28Z</time>
      </trkpt>
      <trkpt lat="45.59598" lon="6.88224">
        <ele>998.82</ele>
        <time>2018-09-09T12:58:31Z</time>
      </trkpt>
      <trkpt lat="45.59579" lon="6.8823">
        <ele>999.21</ele>
        <time>2018-09-09T12:58:33Z</time>
      </trkpt>
      <trkpt lat="45.59559" lon="6.88233">
        <ele>999.03</ele>
        <time>2018-09-09T12:58:35Z</time>
      </trkpt>
      <trkpt lat="45.59529" lon="6.88233">
        <ele>997.41</ele>
        <time>2018-09-09T12:58:37Z</time>
      </trkpt>
      <trkpt lat="45.59506" lon="6.88217">
        <ele>995.23</ele>
        <time>2018-09-09T12:58:39Z</time>
      </trkpt>
      <trkpt lat="45.59486" lon="6.88191">
        <ele>991.81</ele>
        <time>2018-09-09T12:58:41Z</time>
      </trkpt>
      <trkpt lat="45.59464" lon="6.88169">
        <ele>988.57</ele>
        <time>2018-09-09T12:58:43Z</time>
      </trkpt>
      <trkpt lat="45.59437" lon="6.88154">
        <ele>988.06</ele>
        <time>2018-09-09T12:58:45Z</time>
      </trkpt>
      <trkpt lat="45.59407" lon="6.88149">
        <ele>985.92</ele>
        <time>2018-09-09T12:58:47Z</time>
      </trkpt>
      <trkpt lat="45.59376" lon="6.88146">
        <ele>984.19</ele>
        <time>2018-09-09T12:58:49Z</time>
      </trkpt>
      <trkpt lat="45.59345" lon="6.88144">
        <ele>981.72</ele>
        <time>2018-09-09T12:58:51Z</time>
      </trkpt>
      <trkpt lat="45.59317" lon="6.88141">
        <ele>979.68</ele>
        <time>2018-09-09T12:58:53Z</time>
      </trkpt>
      <trkpt lat="45.59288" lon="6.88135">
        <ele>976.76</ele>
        <time>2018-09-09T12:58:55Z</time>
      </trkpt>
      <trkpt lat="45.59262" lon="6.88118">
        <ele>975.38</ele>
        <time>2018-09-09T12:58:57Z</time>
      </trkpt>
      <trkpt lat="45.59237" lon="6.88106">
        <ele>972.53</ele>
        <time>2018-09-09T12:58:59Z</time>
      </trkpt>
      <trkpt lat="45.59219" lon="6.88094">
        <ele>970.66</ele>
        <time>2018-09-09T12:59:01Z</time>
      </trkpt>
      <trkpt lat="45.59223" lon="6.88066">
        <ele>969.33</ele>
        <time>2018-09-09T12:59:04Z</time>
      </trkpt>
      <trkpt lat="45.59247" lon="6.88079">
        <ele>969.02</ele>
        <time>2018-09-09T12:59:07Z</time>
      </trkpt>
      <trkpt lat="45.59267" lon="6.881">
        <ele>968.11</ele>
        <time>2018-09-09T12:59:09Z</time>
      </trkpt>
      <trkpt lat="45.59297" lon="6.88112">
        <ele>967.32</ele>
        <time>2018-09-09T12:59:11Z</time>
      </trkpt>
      <trkpt lat="45.59316" lon="6.88112">
        <ele>966.41</ele>
        <time>2018-09-09T12:59:12Z</time>
      </trkpt>
      <trkpt lat="45.59353" lon="6.88108">
        <ele>964.44</ele>
        <time>2018-09-09T12:59:14Z</time>
      </trkpt>
      <trkpt lat="45.59371" lon="6.88098">
        <ele>962.04</ele>
        <time>2018-09-09T12:59:15Z</time>
      </trkpt>
      <trkpt lat="45.59388" lon="6.88087">
        <ele>959.92</ele>
        <time>2018-09-09T12:59:16Z</time>
      </trkpt>
      <trkpt lat="45.59421" lon="6.88072">
        <ele>957.49</ele>
        <time>2018-09-09T12:59:18Z</time>
      </trkpt>
      <trkpt lat="45.5944" lon="6.88075">
        <ele>955.06</ele>
        <time>2018-09-09T12:59:19Z</time>
      </trkpt>
      <trkpt lat="45.59458" lon="6.88078">
        <ele>954.33</ele>
        <time>2018-09-09T12:59:20Z</time>
      </trkpt>
      <trkpt lat="45.59476" lon="6.88082">
        <ele>953.41</ele>
        <time>2018-09-09T12:59:21Z</time>
      </trkpt>
      <trkpt lat="45.59509" lon="6.88098">
        <ele>950.53</ele>
        <time>2018-09-09T12:59:23Z</time>
      </trkpt>
      <trkpt lat="45.59535" lon="6.88122">
        <ele>948.45</ele>
        <time>2018-09-09T12:59:25Z</time>
      </trkpt>
      <trkpt lat="45.59563" lon="6.88126">
        <ele>947.14</ele>
        <time>2018-09-09T12:59:27Z</time>
      </trkpt>
      <trkpt lat="45.59593" lon="6.88092">
        <ele>944.72</ele>
        <time>2018-09-09T12:59:29Z</time>
      </trkpt>
      <trkpt lat="45.59609" lon="6.88077">
        <ele>942.83</ele>
        <time>2018-09-09T12:59:30Z</time>
      </trkpt>
      <trkpt lat="45.59626" lon="6.88062">
        <ele>941.56</ele>
        <time>2018-09-09T12:59:31Z</time>
      </trkpt>
      <trkpt lat="45.59643" lon="6.88046">
        <ele>939.78</ele>
        <time>2018-09-09T12:59:32Z</time>
      </trkpt>
      <trkpt lat="45.59659" lon="6.88029">
        <ele>938.54</ele>
        <time>2018-09-09T12:59:33Z</time>
      </trkpt>
      <trkpt lat="45.59675" lon="6.88013">
        <ele>936.77</ele>
        <time>2018-09-09T12:59:34Z</time>
      </trkpt>
      <trkpt lat="45.5969" lon="6.87997">
        <ele>934.84</ele>
        <time>2018-09-09T12:59:35Z</time>
      </trkpt>
      <trkpt lat="45.59704" lon="6.8798">
        <ele>932.86</ele>
        <time>2018-09-09T12:59:36Z</time>
      </trkpt>
      <trkpt lat="45.59718" lon="6.87962">
        <ele>930.87</ele>
        <time>2018-09-09T12:59:37Z</time>
      </trkpt>
      <trkpt lat="45.59736" lon="6.87924">
        <ele>927.78</ele>
        <time>2018-09-09T12:59:39Z</time>
      </trkpt>
      <trkpt lat="45.59741" lon="6.87875">
        <ele>922.95</ele>
        <time>2018-09-09T12:59:41Z</time>
      </trkpt>
      <trkpt lat="45.59744" lon="6.87846">
        <ele>921.6</ele>
        <time>2018-09-09T12:59:42Z</time>
      </trkpt>
      <trkpt lat="45.5975" lon="6.87815">
        <ele>918.39</ele>
        <time>2018-09-09T12:59:43Z</time>
      </trkpt>
      <trkpt lat="45.59755" lon="6.87784">
        <ele>917.43</ele>
        <time>2018-09-09T12:59:44Z</time>
      </trkpt>
      <trkpt lat="45.5976" lon="6.87756">
        <ele>915.04</ele>
        <time>2018-09-09T12:59:45Z</time>
      </trkpt>
      <trkpt lat="45.59764" lon="6.87728">
        <ele>912.92</ele>
        <time>2018-09-09T12:59:46Z</time>
      </trkpt>
      <trkpt lat="45.59772" lon="6.8768">
        <ele>911.4</ele>
        <time>2018-09-09T12:59:48Z</time>
      </trkpt>
      <trkpt lat="45.5978" lon="6.87634">
        <ele>908.74</ele>
        <time>2018-09-09T12:59:50Z</time>
      </trkpt>
      <trkpt lat="45.59785" lon="6.87609">
        <ele>907.53</ele>
        <time>2018-09-09T12:59:51Z</time>
      </trkpt>
      <trkpt lat="45.59792" lon="6.87579">
        <ele>906.47</ele>
        <time>2018-09-09T12:59:52Z</time>
      </trkpt>
      <trkpt lat="45.598" lon="6.87549">
        <ele>906.15</ele>
        <time>2018-09-09T12:59:53Z</time>
      </trkpt>
      <trkpt lat="45.59809" lon="6.87519">
        <ele>905.36</ele>
        <time>2018-09-09T12:59:54Z</time>
      </trkpt>
      <trkpt lat="45.59818" lon="6.87488">
        <ele>904.42</ele>
        <time>2018-09-09T12:59:55Z</time>
      </trkpt>
      <trkpt lat="45.59826" lon="6.87458">
        <ele>902.74</ele>
        <time>2018-09-09T12:59:56Z</time>
      </trkpt>
      <trkpt lat="45.59834" lon="6.87427">
        <ele>901.53</ele>
        <time>2018-09-09T12:59:57Z</time>
      </trkpt>
      <trkpt lat="45.59842" lon="6.87395">
        <ele>900.47</ele>
        <time>2018-09-09T12:59:58Z</time>
      </trkpt>
      <trkpt lat="45.5985" lon="6.87364">
        <ele>900.15</ele>
        <time>2018-09-09T12:59:59Z</time>
      </trkpt>
      <trkpt lat="45.59858" lon="6.87332">
        <ele>900.06</ele>
        <time>2018-09-09T13:00:00Z</time>
      </trkpt>
      <trkpt lat="45.59866" lon="6.873">
        <ele>900.03</ele>
        <time>2018-09-09T13:00:01Z</time>
      </trkpt>
      <trkpt lat="45.59874" lon="6.87269">
        <ele>900.02</ele>
        <time>2018-09-09T13:00:02Z</time>
      </trkpt>
      <trkpt lat="45.59883" lon="6.87238">
        <ele>899.32</ele>
        <time>2018-09-09T13:00:03Z</time>
      </trkpt>
      <trkpt lat="45.59891" lon="6.87207">
        <ele>898.41</ele>
        <time>2018-09-09T13:00:04Z</time>
      </trkpt>
      <trkpt lat="45.59899" lon="6.87176">
        <ele>897.43</ele>
        <time>2018-09-09T13:00:05Z</time>
      </trkpt>
      <trkpt lat="45.59907" lon="6.87144">
        <ele>896.44</ele>
        <time>2018-09-09T13:00:06Z</time>
      </trkpt>
      <trkpt lat="45.59916" lon="6.87113">
        <ele>896.14</ele>
        <time>2018-09-09T13:00:07Z</time>
      </trkpt>
      <trkpt lat="45.59925" lon="6.87083">
        <ele>896.05</ele>
        <time>2018-09-09T13:00:08Z</time>
      </trkpt>
      <trkpt lat="45.59934" lon="6.87053">
        <ele>896.03</ele>
        <time>2018-09-09T13:00:09Z</time>
      </trkpt>
      <trkpt lat="45.59943" lon="6.87022">
        <ele>895.32</ele>
        <time>2018-09-09T13:00:10Z</time>
      </trkpt>
      <trkpt lat="45.59952" lon="6.86991">
        <ele>895.11</ele>
        <time>2018-09-09T13:00:11Z</time>
      </trkpt>
      <trkpt lat="45.5996" lon="6.8696">
        <ele>894.34</ele>
        <time>2018-09-09T13:00:12Z</time>
      </trkpt>
      <trkpt lat="45.59967" lon="6.86928">
        <ele>893.41</ele>
        <time>2018-09-09T13:00:13Z</time>
      </trkpt>
      <trkpt lat="45.59974" lon="6.86897">
        <ele>893.13</ele>
        <time>2018-09-09T13:00:14Z</time>
      </trkpt>
      <trkpt lat="45.59982" lon="6.86866">
        <ele>893.05</ele>
        <time>2018-09-09T13:00:15Z</time>
      </trkpt>
      <trkpt lat="45.59992" lon="6.86835">
        <ele>893.03</ele>
        <time>2018-09-09T13:00:16Z</time>
      </trkpt>
      <trkpt lat="45.60007" lon="6.86809">
        <ele>892.32</ele>
        <time>2018-09-09T13:00:17Z</time>
      </trkpt>
      <trkpt lat="45.6002" lon="6.86782">
        <ele>892.11</ele>
        <time>2018-09-09T13:00:18Z</time>
      </trkpt>
      <trkpt lat="45.60036" lon="6.86757">
        <ele>892.04</ele>
        <time>2018-09-09T13:00:19Z</time>
      </trkpt>
      <trkpt lat="45.60053" lon="6.86737">
        <ele>892.72</ele>
        <time>2018-09-09T13:00:20Z</time>
      </trkpt>
      <trkpt lat="45.60073" lon="6.86718">
        <ele>892.93</ele>
        <time>2018-09-09T13:00:21Z</time>
      </trkpt>
      <trkpt lat="45.60092" lon="6.86698">
        <ele>892.29</ele>
        <time>2018-09-09T13:00:22Z</time>
      </trkpt>
      <trkpt lat="45.60112" lon="6.86679">
        <ele>892.1</ele>
        <time>2018-09-09T13:00:23Z</time>
      </trkpt>
      <trkpt lat="45.60132" lon="6.86659">
        <ele>891.34</ele>
        <time>2018-09-09T13:00:24Z</time>
      </trkpt>
      <trkpt lat="45.60151" lon="6.86639">
        <ele>891.11</ele>
        <time>2018-09-09T13:00:25Z</time>
      </trkpt>
      <trkpt lat="45.60169" lon="6.8662">
        <ele>891.74</ele>
        <time>2018-09-09T13:00:26Z</time>
      </trkpt>
      <trkpt lat="45.60187" lon="6.86602">
        <ele>891.93</ele>
        <time>2018-09-09T13:00:27Z</time>
      </trkpt>
      <trkpt lat="45.60206" lon="6.86584">
        <ele>891.99</ele>
        <time>2018-09-09T13:00:28Z</time>
      </trkpt>
      <trkpt lat="45.60225" lon="6.86566">
        <ele>891.31</ele>
        <time>2018-09-09T13:00:29Z</time>
      </trkpt>
      <trkpt lat="45.60242" lon="6.86546">
        <ele>890.4</ele>
        <time>2018-09-09T13:00:30Z</time>
      </trkpt>
      <trkpt lat="45.60258" lon="6.86523">
        <ele>889.43</ele>
        <time>2018-09-09T13:00:31Z</time>
      </trkpt>
      <trkpt lat="45.60271" lon="6.86498">
        <ele>889.14</ele>
        <time>2018-09-09T13:00:32Z</time>
      </trkpt>
      <trkpt lat="45.60281" lon="6.8647">
        <ele>889.05</ele>
        <time>2018-09-09T13:00:33Z</time>
      </trkpt>
      <trkpt lat="45.60289" lon="6.86442">
        <ele>888.33</ele>
        <time>2018-09-09T13:00:34Z</time>
      </trkpt>
      <trkpt lat="45.60296" lon="6.86416">
        <ele>888.11</ele>
        <time>2018-09-09T13:00:35Z</time>
      </trkpt>
      <trkpt lat="45.60301" lon="6.86391">
        <ele>888.04</ele>
        <time>2018-09-09T13:00:36Z</time>
      </trkpt>
      <trkpt lat="45.60308" lon="6.86343">
        <ele>887.32</ele>
        <time>2018-09-09T13:00:38Z</time>
      </trkpt>
      <trkpt lat="45.60317" lon="6.86301">
        <ele>887.04</ele>
        <time>2018-09-09T13:00:40Z</time>
      </trkpt>
      <trkpt lat="45.60326" lon="6.8626">
        <ele>886.11</ele>
        <time>2018-09-09T13:00:42Z</time>
      </trkpt>
      <trkpt lat="45.60334" lon="6.86217">
        <ele>886.02</ele>
        <time>2018-09-09T13:00:44Z</time>
      </trkpt>
      <trkpt lat="45.60341" lon="6.86175">
        <ele>886.93</ele>
        <time>2018-09-09T13:00:46Z</time>
      </trkpt>
      <trkpt lat="45.60348" lon="6.86136">
        <ele>887.01</ele>
        <time>2018-09-09T13:00:48Z</time>
      </trkpt>
      <trkpt lat="45.60353" lon="6.86096">
        <ele>887.92</ele>
        <time>2018-09-09T13:00:50Z</time>
      </trkpt>
      <trkpt lat="45.60356" lon="6.86056">
        <ele>888.01</ele>
        <time>2018-09-09T13:00:52Z</time>
      </trkpt>
      <trkpt lat="45.60355" lon="6.86012">
        <ele>888.01</ele>
        <time>2018-09-09T13:00:54Z</time>
      </trkpt>
      <trkpt lat="45.60354" lon="6.85967">
        <ele>887.1</ele>
        <time>2018-09-09T13:00:56Z</time>
      </trkpt>
      <trkpt lat="45.60356" lon="6.85921">
        <ele>887.02</ele>
        <time>2018-09-09T13:00:58Z</time>
      </trkpt>
      <trkpt lat="45.60365" lon="6.85876">
        <ele>887.02</ele>
        <time>2018-09-09T13:01:00Z</time>
      </trkpt>
      <trkpt lat="45.6038" lon="6.85831">
        <ele>887.72</ele>
        <time>2018-09-09T13:01:02Z</time>
      </trkpt>
      <trkpt lat="45.60396" lon="6.85788">
        <ele>888.69</ele>
        <time>2018-09-09T13:01:04Z</time>
      </trkpt>
      <trkpt lat="45.60413" lon="6.85746">
        <ele>888.99</ele>
        <time>2018-09-09T13:01:06Z</time>
      </trkpt>
      <trkpt lat="45.60434" lon="6.85706">
        <ele>888.31</ele>
        <time>2018-09-09T13:01:08Z</time>
      </trkpt>
      <trkpt lat="45.60447" lon="6.85684">
        <ele>888.1</ele>
        <time>2018-09-09T13:01:09Z</time>
      </trkpt>
      <trkpt lat="45.60461" lon="6.85662">
        <ele>888.04</ele>
        <time>2018-09-09T13:01:10Z</time>
      </trkpt>
      <trkpt lat="45.60476" lon="6.85638">
        <ele>887.32</ele>
        <time>2018-09-09T13:01:11Z</time>
      </trkpt>
      <trkpt lat="45.60492" lon="6.85614">
        <ele>887.11</ele>
        <time>2018-09-09T13:01:12Z</time>
      </trkpt>
      <trkpt lat="45.60508" lon="6.85589">
        <ele>887.04</ele>
        <time>2018-09-09T13:01:13Z</time>
      </trkpt>
      <trkpt lat="45.60524" lon="6.85564">
        <ele>886.32</ele>
        <time>2018-09-09T13:01:14Z</time>
      </trkpt>
      <trkpt lat="45.6054" lon="6.85539">
        <ele>886.11</ele>
        <time>2018-09-09T13:01:15Z</time>
      </trkpt>
      <trkpt lat="45.60554" lon="6.85513">
        <ele>885.34</ele>
        <time>2018-09-09T13:01:16Z</time>
      </trkpt>
      <trkpt lat="45.60566" lon="6.85485">
        <ele>885.11</ele>
        <time>2018-09-09T13:01:17Z</time>
      </trkpt>
      <trkpt lat="45.60575" lon="6.85455">
        <ele>885.04</ele>
        <time>2018-09-09T13:01:18Z</time>
      </trkpt>
      <trkpt lat="45.60581" lon="6.85423">
        <ele>885.72</ele>
        <time>2018-09-09T13:01:19Z</time>
      </trkpt>
      <trkpt lat="45.60587" lon="6.85391">
        <ele>885.93</ele>
        <time>2018-09-09T13:01:20Z</time>
      </trkpt>
      <trkpt lat="45.60591" lon="6.8536">
        <ele>885.99</ele>
        <time>2018-09-09T13:01:21Z</time>
      </trkpt>
      <trkpt lat="45.60594" lon="6.85328">
        <ele>884.61</ele>
        <time>2018-09-09T13:01:22Z</time>
      </trkpt>
      <trkpt lat="45.60595" lon="6.85298">
        <ele>883.49</ele>
        <time>2018-09-09T13:01:23Z</time>
      </trkpt>
      <trkpt lat="45.60597" lon="6.85266">
        <ele>883.16</ele>
        <time>2018-09-09T13:01:24Z</time>
      </trkpt>
      <trkpt lat="45.60597" lon="6.85236">
        <ele>883.06</ele>
        <time>2018-09-09T13:01:25Z</time>
      </trkpt>
      <trkpt lat="45.60598" lon="6.85205">
        <ele>883.03</ele>
        <time>2018-09-09T13:01:26Z</time>
      </trkpt>
      <trkpt lat="45.606" lon="6.85176">
        <ele>883.02</ele>
        <time>2018-09-09T13:01:27Z</time>
      </trkpt>
      <trkpt lat="45.60603" lon="6.85147">
        <ele>883.72</ele>
        <time>2018-09-09T13:01:28Z</time>
      </trkpt>
      <trkpt lat="45.6061" lon="6.85117">
        <ele>884.63</ele>
        <time>2018-09-09T13:01:29Z</time>
      </trkpt>
      <trkpt lat="45.60619" lon="6.85089">
        <ele>884.9</ele>
        <time>2018-09-09T13:01:30Z</time>
      </trkpt>
      <trkpt lat="45.6063" lon="6.85064">
        <ele>885.68</ele>
        <time>2018-09-09T13:01:31Z</time>
      </trkpt>
      <trkpt lat="45.60641" lon="6.85037">
        <ele>885.21</ele>
        <time>2018-09-09T13:01:32Z</time>
      </trkpt>
      <trkpt lat="45.60649" lon="6.8501">
        <ele>886.47</ele>
        <time>2018-09-09T13:01:33Z</time>
      </trkpt>
      <trkpt lat="45.60655" lon="6.84981">
        <ele>887.55</ele>
        <time>2018-09-09T13:01:34Z</time>
      </trkpt>
      <trkpt lat="45.60659" lon="6.84951">
        <ele>887.88</ele>
        <time>2018-09-09T13:01:35Z</time>
      </trkpt>
      <trkpt lat="45.60663" lon="6.8492">
        <ele>888.67</ele>
        <time>2018-09-09T13:01:36Z</time>
      </trkpt>
      <trkpt lat="45.60666" lon="6.8489">
        <ele>888.91</ele>
        <time>2018-09-09T13:01:37Z</time>
      </trkpt>
      <trkpt lat="45.60668" lon="6.84861">
        <ele>888.28</ele>
        <time>2018-09-09T13:01:38Z</time>
      </trkpt>
      <trkpt lat="45.60672" lon="6.84831">
        <ele>888.1</ele>
        <time>2018-09-09T13:01:39Z</time>
      </trkpt>
      <trkpt lat="45.6068" lon="6.84801">
        <ele>887.34</ele>
        <time>2018-09-09T13:01:40Z</time>
      </trkpt>
      <trkpt lat="45.60686" lon="6.84773">
        <ele>887.11</ele>
        <time>2018-09-09T13:01:41Z</time>
      </trkpt>
      <trkpt lat="45.60694" lon="6.84743">
        <ele>886.34</ele>
        <time>2018-09-09T13:01:42Z</time>
      </trkpt>
      <trkpt lat="45.60701" lon="6.84714">
        <ele>884.71</ele>
        <time>2018-09-09T13:01:43Z</time>
      </trkpt>
      <trkpt lat="45.60708" lon="6.84685">
        <ele>884.22</ele>
        <time>2018-09-09T13:01:44Z</time>
      </trkpt>
      <trkpt lat="45.60716" lon="6.84657">
        <ele>881.98</ele>
        <time>2018-09-09T13:01:45Z</time>
      </trkpt>
      <trkpt lat="45.60726" lon="6.84629">
        <ele>880.6</ele>
        <time>2018-09-09T13:01:46Z</time>
      </trkpt>
      <trkpt lat="45.60736" lon="6.84601">
        <ele>880.19</ele>
        <time>2018-09-09T13:01:47Z</time>
      </trkpt>
      <trkpt lat="45.60746" lon="6.84574">
        <ele>880.07</ele>
        <time>2018-09-09T13:01:48Z</time>
      </trkpt>
      <trkpt lat="45.60755" lon="6.84546">
        <ele>879.33</ele>
        <time>2018-09-09T13:01:49Z</time>
      </trkpt>
      <trkpt lat="45.60763" lon="6.84517">
        <ele>878.41</ele>
        <time>2018-09-09T13:01:50Z</time>
      </trkpt>
      <trkpt lat="45.60769" lon="6.84487">
        <ele>878.83</ele>
        <time>2018-09-09T13:01:51Z</time>
      </trkpt>
      <trkpt lat="45.60775" lon="6.84458">
        <ele>878.26</ele>
        <time>2018-09-09T13:01:52Z</time>
      </trkpt>
      <trkpt lat="45.6078" lon="6.84427">
        <ele>878.09</ele>
        <time>2018-09-09T13:01:53Z</time>
      </trkpt>
      <trkpt lat="45.60785" lon="6.84396">
        <ele>878.04</ele>
        <time>2018-09-09T13:01:54Z</time>
      </trkpt>
      <trkpt lat="45.6079" lon="6.84365">
        <ele>877.32</ele>
        <time>2018-09-09T13:01:55Z</time>
      </trkpt>
      <trkpt lat="45.60795" lon="6.84334">
        <ele>877.11</ele>
        <time>2018-09-09T13:01:56Z</time>
      </trkpt>
      <trkpt lat="45.608" lon="6.84304">
        <ele>876.34</ele>
        <time>2018-09-09T13:01:57Z</time>
      </trkpt>
      <trkpt lat="45.60803" lon="6.84274">
        <ele>876.11</ele>
        <time>2018-09-09T13:01:58Z</time>
      </trkpt>
      <trkpt lat="45.60804" lon="6.84245">
        <ele>874.64</ele>
        <time>2018-09-09T13:01:59Z</time>
      </trkpt>
      <trkpt lat="45.60806" lon="6.84217">
        <ele>873.5</ele>
        <time>2018-09-09T13:02:00Z</time>
      </trkpt>
      <trkpt lat="45.60812" lon="6.84189">
        <ele>873.16</ele>
        <time>2018-09-09T13:02:01Z</time>
      </trkpt>
      <trkpt lat="45.6082" lon="6.84162">
        <ele>872.36</ele>
        <time>2018-09-09T13:02:02Z</time>
      </trkpt>
      <trkpt lat="45.60828" lon="6.84134">
        <ele>871.42</ele>
        <time>2018-09-09T13:02:03Z</time>
      </trkpt>
      <trkpt lat="45.60835" lon="6.84106">
        <ele>871.14</ele>
        <time>2018-09-09T13:02:04Z</time>
      </trkpt>
      <trkpt lat="45.60842" lon="6.84076">
        <ele>870.35</ele>
        <time>2018-09-09T13:02:05Z</time>
      </trkpt>
      <trkpt lat="45.60848" lon="6.84047">
        <ele>869.42</ele>
        <time>2018-09-09T13:02:06Z</time>
      </trkpt>
      <trkpt lat="45.60854" lon="6.84016">
        <ele>869.14</ele>
        <time>2018-09-09T13:02:07Z</time>
      </trkpt>
      <trkpt lat="45.60862" lon="6.83986">
        <ele>869.05</ele>
        <time>2018-09-09T13:02:08Z</time>
      </trkpt>
      <trkpt lat="45.60871" lon="6.83956">
        <ele>867.63</ele>
        <time>2018-09-09T13:02:09Z</time>
      </trkpt>
      <trkpt lat="45.60881" lon="6.83928">
        <ele>867.2</ele>
        <time>2018-09-09T13:02:10Z</time>
      </trkpt>
      <trkpt lat="45.60894" lon="6.83902">
        <ele>866.37</ele>
        <time>2018-09-09T13:02:11Z</time>
      </trkpt>
      <trkpt lat="45.60908" lon="6.83878">
        <ele>865.42</ele>
        <time>2018-09-09T13:02:12Z</time>
      </trkpt>
      <trkpt lat="45.60921" lon="6.83852">
        <ele>865.14</ele>
        <time>2018-09-09T13:02:13Z</time>
      </trkpt>
      <trkpt lat="45.60934" lon="6.83826">
        <ele>865.05</ele>
        <time>2018-09-09T13:02:14Z</time>
      </trkpt>
      <trkpt lat="45.60944" lon="6.83797">
        <ele>864.33</ele>
        <time>2018-09-09T13:02:15Z</time>
      </trkpt>
      <trkpt lat="45.60955" lon="6.83769">
        <ele>862.71</ele>
        <time>2018-09-09T13:02:16Z</time>
      </trkpt>
      <trkpt lat="45.60966" lon="6.83741">
        <ele>862.22</ele>
        <time>2018-09-09T13:02:17Z</time>
      </trkpt>
      <trkpt lat="45.6098" lon="6.83717">
        <ele>862.08</ele>
        <time>2018-09-09T13:02:18Z</time>
      </trkpt>
      <trkpt lat="45.60995" lon="6.83693">
        <ele>862.03</ele>
        <time>2018-09-09T13:02:19Z</time>
      </trkpt>
      <trkpt lat="45.61011" lon="6.83671">
        <ele>862.02</ele>
        <time>2018-09-09T13:02:20Z</time>
      </trkpt>
      <trkpt lat="45.61028" lon="6.83649">
        <ele>862.72</ele>
        <time>2018-09-09T13:02:21Z</time>
      </trkpt>
      <trkpt lat="45.61045" lon="6.83626">
        <ele>862.93</ele>
        <time>2018-09-09T13:02:22Z</time>
      </trkpt>
      <trkpt lat="45.61061" lon="6.83602">
        <ele>862.29</ele>
        <time>2018-09-09T13:02:23Z</time>
      </trkpt>
      <trkpt lat="45.61077" lon="6.83576">
        <ele>861.4</ele>
        <time>2018-09-09T13:02:24Z</time>
      </trkpt>
      <trkpt lat="45.61088" lon="6.83548">
        <ele>861.83</ele>
        <time>2018-09-09T13:02:25Z</time>
      </trkpt>
      <trkpt lat="45.61098" lon="6.83516">
        <ele>861.96</ele>
        <time>2018-09-09T13:02:26Z</time>
      </trkpt>
      <trkpt lat="45.61108" lon="6.83485">
        <ele>862</ele>
        <time>2018-09-09T13:02:27Z</time>
      </trkpt>
      <trkpt lat="45.61117" lon="6.83452">
        <ele>862.01</ele>
        <time>2018-09-09T13:02:28Z</time>
      </trkpt>
      <trkpt lat="45.61127" lon="6.83421">
        <ele>861.31</ele>
        <time>2018-09-09T13:02:29Z</time>
      </trkpt>
      <trkpt lat="45.61138" lon="6.8339">
        <ele>860.4</ele>
        <time>2018-09-09T13:02:30Z</time>
      </trkpt>
      <trkpt lat="45.61148" lon="6.83358">
        <ele>860.13</ele>
        <time>2018-09-09T13:02:31Z</time>
      </trkpt>
      <trkpt lat="45.61158" lon="6.83326">
        <ele>859.35</ele>
        <time>2018-09-09T13:02:32Z</time>
      </trkpt>
      <trkpt lat="45.61167" lon="6.83294">
        <ele>859.12</ele>
        <time>2018-09-09T13:02:33Z</time>
      </trkpt>
      <trkpt lat="45.61177" lon="6.83263">
        <ele>858.35</ele>
        <time>2018-09-09T13:02:34Z</time>
      </trkpt>
      <trkpt lat="45.61187" lon="6.83231">
        <ele>858.11</ele>
        <time>2018-09-09T13:02:35Z</time>
      </trkpt>
      <trkpt lat="45.61197" lon="6.83199">
        <ele>858.04</ele>
        <time>2018-09-09T13:02:36Z</time>
      </trkpt>
      <trkpt lat="45.61207" lon="6.83167">
        <ele>857.32</ele>
        <time>2018-09-09T13:02:37Z</time>
      </trkpt>
      <trkpt lat="45.61216" lon="6.83136">
        <ele>857.11</ele>
        <time>2018-09-09T13:02:38Z</time>
      </trkpt>
      <trkpt lat="45.61226" lon="6.83105">
        <ele>856.34</ele>
        <time>2018-09-09T13:02:39Z</time>
      </trkpt>
      <trkpt lat="45.61235" lon="6.83074">
        <ele>856.11</ele>
        <time>2018-09-09T13:02:40Z</time>
      </trkpt>
      <trkpt lat="45.61244" lon="6.83043">
        <ele>856.04</ele>
        <time>2018-09-09T13:02:41Z</time>
      </trkpt>
      <trkpt lat="45.61253" lon="6.8301">
        <ele>855.32</ele>
        <time>2018-09-09T13:02:42Z</time>
      </trkpt>
      <trkpt lat="45.6126" lon="6.82978">
        <ele>854.41</ele>
        <time>2018-09-09T13:02:43Z</time>
      </trkpt>
      <trkpt lat="45.61267" lon="6.82948">
        <ele>853.43</ele>
        <time>2018-09-09T13:02:44Z</time>
      </trkpt>
      <trkpt lat="45.61275" lon="6.82917">
        <ele>853.14</ele>
        <time>2018-09-09T13:02:45Z</time>
      </trkpt>
      <trkpt lat="45.61282" lon="6.82887">
        <ele>853.05</ele>
        <time>2018-09-09T13:02:46Z</time>
      </trkpt>
      <trkpt lat="45.6129" lon="6.82858">
        <ele>853.03</ele>
        <time>2018-09-09T13:02:47Z</time>
      </trkpt>
      <trkpt lat="45.61296" lon="6.82831">
        <ele>853.02</ele>
        <time>2018-09-09T13:02:48Z</time>
      </trkpt>
      <trkpt lat="45.613" lon="6.82806">
        <ele>853.02</ele>
        <time>2018-09-09T13:02:49Z</time>
      </trkpt>
      <trkpt lat="45.61304" lon="6.82779">
        <ele>852.32</ele>
        <time>2018-09-09T13:02:50Z</time>
      </trkpt>
      <trkpt lat="45.61304" lon="6.82753">
        <ele>852.11</ele>
        <time>2018-09-09T13:02:51Z</time>
      </trkpt>
      <trkpt lat="45.61295" lon="6.82708">
        <ele>852.72</ele>
        <time>2018-09-09T13:02:53Z</time>
      </trkpt>
      <trkpt lat="45.61291" lon="6.82658">
        <ele>853.69</ele>
        <time>2018-09-09T13:02:55Z</time>
      </trkpt>
      <trkpt lat="45.61293" lon="6.82606">
        <ele>852.17</ele>
        <time>2018-09-09T13:02:57Z</time>
      </trkpt>
      <trkpt lat="45.61296" lon="6.8258">
        <ele>851.36</ele>
        <time>2018-09-09T13:02:58Z</time>
      </trkpt>
      <trkpt lat="45.61302" lon="6.82553">
        <ele>851.12</ele>
        <time>2018-09-09T13:02:59Z</time>
      </trkpt>
      <trkpt lat="45.61309" lon="6.82528">
        <ele>851.05</ele>
        <time>2018-09-09T13:03:00Z</time>
      </trkpt>
      <trkpt lat="45.61323" lon="6.82483">
        <ele>851.02</ele>
        <time>2018-09-09T13:03:02Z</time>
      </trkpt>
      <trkpt lat="45.61339" lon="6.8244">
        <ele>850.11</ele>
        <time>2018-09-09T13:03:04Z</time>
      </trkpt>
      <trkpt lat="45.6136" lon="6.82399">
        <ele>849.32</ele>
        <time>2018-09-09T13:03:06Z</time>
      </trkpt>
      <trkpt lat="45.61385" lon="6.82363">
        <ele>848.34</ele>
        <time>2018-09-09T13:03:08Z</time>
      </trkpt>
      <trkpt lat="45.61399" lon="6.82346">
        <ele>848.11</ele>
        <time>2018-09-09T13:03:09Z</time>
      </trkpt>
      <trkpt lat="45.61413" lon="6.82329">
        <ele>848.04</ele>
        <time>2018-09-09T13:03:10Z</time>
      </trkpt>
      <trkpt lat="45.61427" lon="6.8231">
        <ele>847.32</ele>
        <time>2018-09-09T13:03:11Z</time>
      </trkpt>
      <trkpt lat="45.61444" lon="6.82288">
        <ele>846.41</ele>
        <time>2018-09-09T13:03:12Z</time>
      </trkpt>
      <trkpt lat="45.61462" lon="6.82265">
        <ele>846.13</ele>
        <time>2018-09-09T13:03:13Z</time>
      </trkpt>
      <trkpt lat="45.6148" lon="6.82243">
        <ele>846.05</ele>
        <time>2018-09-09T13:03:14Z</time>
      </trkpt>
      <trkpt lat="45.61498" lon="6.82221">
        <ele>846.03</ele>
        <time>2018-09-09T13:03:15Z</time>
      </trkpt>
      <trkpt lat="45.61515" lon="6.82199">
        <ele>846.02</ele>
        <time>2018-09-09T13:03:16Z</time>
      </trkpt>
      <trkpt lat="45.6153" lon="6.82175">
        <ele>846.02</ele>
        <time>2018-09-09T13:03:17Z</time>
      </trkpt>
      <trkpt lat="45.61544" lon="6.8215">
        <ele>846.02</ele>
        <time>2018-09-09T13:03:18Z</time>
      </trkpt>
      <trkpt lat="45.61554" lon="6.82122">
        <ele>846.02</ele>
        <time>2018-09-09T13:03:19Z</time>
      </trkpt>
      <trkpt lat="45.61565" lon="6.82094">
        <ele>846.02</ele>
        <time>2018-09-09T13:03:20Z</time>
      </trkpt>
      <trkpt lat="45.61574" lon="6.82066">
        <ele>846.02</ele>
        <time>2018-09-09T13:03:21Z</time>
      </trkpt>
      <trkpt lat="45.61584" lon="6.82038">
        <ele>846.02</ele>
        <time>2018-09-09T13:03:22Z</time>
      </trkpt>
      <trkpt lat="45.61593" lon="6.8201">
        <ele>846.02</ele>
        <time>2018-09-09T13:03:23Z</time>
      </trkpt>
      <trkpt lat="45.61602" lon="6.81984">
        <ele>846.02</ele>
        <time>2018-09-09T13:03:24Z</time>
      </trkpt>
      <trkpt lat="45.61611" lon="6.81957">
        <ele>846.72</ele>
        <time>2018-09-09T13:03:25Z</time>
      </trkpt>
      <trkpt lat="45.61621" lon="6.81929">
        <ele>846.92</ele>
        <time>2018-09-09T13:03:26Z</time>
      </trkpt>
      <trkpt lat="45.6163" lon="6.81901">
        <ele>846.99</ele>
        <time>2018-09-09T13:03:27Z</time>
      </trkpt>
      <trkpt lat="45.61639" lon="6.81875">
        <ele>847.01</ele>
        <time>2018-09-09T13:03:28Z</time>
      </trkpt>
      <trkpt lat="45.61649" lon="6.81848">
        <ele>847.71</ele>
        <time>2018-09-09T13:03:29Z</time>
      </trkpt>
      <trkpt lat="45.61657" lon="6.81821">
        <ele>847.22</ele>
        <time>2018-09-09T13:03:30Z</time>
      </trkpt>
      <trkpt lat="45.61667" lon="6.81794">
        <ele>847.78</ele>
        <time>2018-09-09T13:03:31Z</time>
      </trkpt>
      <trkpt lat="45.61676" lon="6.81766">
        <ele>849.34</ele>
        <time>2018-09-09T13:03:32Z</time>
      </trkpt>
      <trkpt lat="45.61685" lon="6.81739">
        <ele>849.81</ele>
        <time>2018-09-09T13:03:33Z</time>
      </trkpt>
      <trkpt lat="45.61693" lon="6.81711">
        <ele>850.65</ele>
        <time>2018-09-09T13:03:34Z</time>
      </trkpt>
      <trkpt lat="45.617" lon="6.81682">
        <ele>851.61</ele>
        <time>2018-09-09T13:03:35Z</time>
      </trkpt>
      <trkpt lat="45.61706" lon="6.81652">
        <ele>852.59</ele>
        <time>2018-09-09T13:03:36Z</time>
      </trkpt>
      <trkpt lat="45.61709" lon="6.81622">
        <ele>853.59</ele>
        <time>2018-09-09T13:03:37Z</time>
      </trkpt>
      <trkpt lat="45.61711" lon="6.81593">
        <ele>855.99</ele>
        <time>2018-09-09T13:03:38Z</time>
      </trkpt>
      <trkpt lat="45.61712" lon="6.81563">
        <ele>856.71</ele>
        <time>2018-09-09T13:03:39Z</time>
      </trkpt>
      <trkpt lat="45.61714" lon="6.81533">
        <ele>858.32</ele>
        <time>2018-09-09T13:03:40Z</time>
      </trkpt>
      <trkpt lat="45.61716" lon="6.81505">
        <ele>859.51</ele>
        <time>2018-09-09T13:03:41Z</time>
      </trkpt>
      <trkpt lat="45.61719" lon="6.81476">
        <ele>860.56</ele>
        <time>2018-09-09T13:03:42Z</time>
      </trkpt>
      <trkpt lat="45.61721" lon="6.81447">
        <ele>861.58</ele>
        <time>2018-09-09T13:03:43Z</time>
      </trkpt>
      <trkpt lat="45.61723" lon="6.81418">
        <ele>862.58</ele>
        <time>2018-09-09T13:03:44Z</time>
      </trkpt>
      <trkpt lat="45.61725" lon="6.8139">
        <ele>863.59</ele>
        <time>2018-09-09T13:03:45Z</time>
      </trkpt>
      <trkpt lat="45.61727" lon="6.81361">
        <ele>864.59</ele>
        <time>2018-09-09T13:03:46Z</time>
      </trkpt>
      <trkpt lat="45.61729" lon="6.81331">
        <ele>864.89</ele>
        <time>2018-09-09T13:03:47Z</time>
      </trkpt>
      <trkpt lat="45.61731" lon="6.81302">
        <ele>864.98</ele>
        <time>2018-09-09T13:03:48Z</time>
      </trkpt>
      <trkpt lat="45.61733" lon="6.81272">
        <ele>865.7</ele>
        <time>2018-09-09T13:03:49Z</time>
      </trkpt>
      <trkpt lat="45.61736" lon="6.81242">
        <ele>866.62</ele>
        <time>2018-09-09T13:03:50Z</time>
      </trkpt>
      <trkpt lat="45.61738" lon="6.81213">
        <ele>866.9</ele>
        <time>2018-09-09T13:03:51Z</time>
      </trkpt>
      <trkpt lat="45.61742" lon="6.81183">
        <ele>867.68</ele>
        <time>2018-09-09T13:03:52Z</time>
      </trkpt>
      <trkpt lat="45.61746" lon="6.81153">
        <ele>868.61</ele>
        <time>2018-09-09T13:03:53Z</time>
      </trkpt>
      <trkpt lat="45.61751" lon="6.81123">
        <ele>869.59</ele>
        <time>2018-09-09T13:03:54Z</time>
      </trkpt>
      <trkpt lat="45.61755" lon="6.81094">
        <ele>870.59</ele>
        <time>2018-09-09T13:03:55Z</time>
      </trkpt>
      <trkpt lat="45.61759" lon="6.81064">
        <ele>870.89</ele>
        <time>2018-09-09T13:03:56Z</time>
      </trkpt>
      <trkpt lat="45.61763" lon="6.81035">
        <ele>871.68</ele>
        <time>2018-09-09T13:03:57Z</time>
      </trkpt>
      <trkpt lat="45.61767" lon="6.81005">
        <ele>871.91</ele>
        <time>2018-09-09T13:03:58Z</time>
      </trkpt>
      <trkpt lat="45.61772" lon="6.80976">
        <ele>871.98</ele>
        <time>2018-09-09T13:03:59Z</time>
      </trkpt>
      <trkpt lat="45.61776" lon="6.80948">
        <ele>872.71</ele>
        <time>2018-09-09T13:04:00Z</time>
      </trkpt>
      <trkpt lat="45.61781" lon="6.8092">
        <ele>873.62</ele>
        <time>2018-09-09T13:04:01Z</time>
      </trkpt>
      <trkpt lat="45.61785" lon="6.80892">
        <ele>874.6</ele>
        <time>2018-09-09T13:04:02Z</time>
      </trkpt>
      <trkpt lat="45.6179" lon="6.80865">
        <ele>874.89</ele>
        <time>2018-09-09T13:04:03Z</time>
      </trkpt>
      <trkpt lat="45.61794" lon="6.80838">
        <ele>875.68</ele>
        <time>2018-09-09T13:04:04Z</time>
      </trkpt>
      <trkpt lat="45.61801" lon="6.80812">
        <ele>876.61</ele>
        <time>2018-09-09T13:04:05Z</time>
      </trkpt>
      <trkpt lat="45.6181" lon="6.80786">
        <ele>877.59</ele>
        <time>2018-09-09T13:04:06Z</time>
      </trkpt>
      <trkpt lat="45.6182" lon="6.80761">
        <ele>877.89</ele>
        <time>2018-09-09T13:04:07Z</time>
      </trkpt>
      <trkpt lat="45.61831" lon="6.80735">
        <ele>877.98</ele>
        <time>2018-09-09T13:04:08Z</time>
      </trkpt>
      <trkpt lat="45.61841" lon="6.8071">
        <ele>878.7</ele>
        <time>2018-09-09T13:04:09Z</time>
      </trkpt>
      <trkpt lat="45.61852" lon="6.80684">
        <ele>878.92</ele>
        <time>2018-09-09T13:04:10Z</time>
      </trkpt>
      <trkpt lat="45.61862" lon="6.80659">
        <ele>879.69</ele>
        <time>2018-09-09T13:04:11Z</time>
      </trkpt>
      <trkpt lat="45.61873" lon="6.80633">
        <ele>879.92</ele>
        <time>2018-09-09T13:04:12Z</time>
      </trkpt>
      <trkpt lat="45.61884" lon="6.80607">
        <ele>879.99</ele>
        <time>2018-09-09T13:04:13Z</time>
      </trkpt>
      <trkpt lat="45.61895" lon="6.80583">
        <ele>880.01</ele>
        <time>2018-09-09T13:04:14Z</time>
      </trkpt>
      <trkpt lat="45.61906" lon="6.80558">
        <ele>880.71</ele>
        <time>2018-09-09T13:04:15Z</time>
      </trkpt>
      <trkpt lat="45.61916" lon="6.80533">
        <ele>881.62</ele>
        <time>2018-09-09T13:04:16Z</time>
      </trkpt>
      <trkpt lat="45.61927" lon="6.80508">
        <ele>881.9</ele>
        <time>2018-09-09T13:04:17Z</time>
      </trkpt>
      <trkpt lat="45.61937" lon="6.80484">
        <ele>882.68</ele>
        <time>2018-09-09T13:04:18Z</time>
      </trkpt>
      <trkpt lat="45.61946" lon="6.80459">
        <ele>882.91</ele>
        <time>2018-09-09T13:04:19Z</time>
      </trkpt>
      <trkpt lat="45.61956" lon="6.80437">
        <ele>883.68</ele>
        <time>2018-09-09T13:04:20Z</time>
      </trkpt>
      <trkpt lat="45.61966" lon="6.80414">
        <ele>884.62</ele>
        <time>2018-09-09T13:04:21Z</time>
      </trkpt>
      <trkpt lat="45.61985" lon="6.80376">
        <ele>885.68</ele>
        <time>2018-09-09T13:04:23Z</time>
      </trkpt>
      <trkpt lat="45.62004" lon="6.80346">
        <ele>887.38</ele>
        <time>2018-09-09T13:04:25Z</time>
      </trkpt>
      <trkpt lat="45.62022" lon="6.80322">
        <ele>887.96</ele>
        <time>2018-09-09T13:04:27Z</time>
      </trkpt>
      <trkpt lat="45.62037" lon="6.80299">
        <ele>888.71</ele>
        <time>2018-09-09T13:04:29Z</time>
      </trkpt>
      <trkpt lat="45.62053" lon="6.80282">
        <ele>889.9</ele>
        <time>2018-09-09T13:04:31Z</time>
      </trkpt>
      <trkpt lat="45.62069" lon="6.80266">
        <ele>890.7</ele>
        <time>2018-09-09T13:04:33Z</time>
      </trkpt>
      <trkpt lat="45.62085" lon="6.80249">
        <ele>890.78</ele>
        <time>2018-09-09T13:04:35Z</time>
      </trkpt>
      <trkpt lat="45.62102" lon="6.80231">
        <ele>890.99</ele>
        <time>2018-09-09T13:04:37Z</time>
      </trkpt>
      <trkpt lat="45.62118" lon="6.80215">
        <ele>891.01</ele>
        <time>2018-09-09T13:04:39Z</time>
      </trkpt>
      <trkpt lat="45.62135" lon="6.80201">
        <ele>890.8</ele>
        <time>2018-09-09T13:04:41Z</time>
      </trkpt>
      <trkpt lat="45.62154" lon="6.80179">
        <ele>891.92</ele>
        <time>2018-09-09T13:04:44Z</time>
      </trkpt>
      <trkpt lat="45.62173" lon="6.80173">
        <ele>892.99</ele>
        <time>2018-09-09T13:04:48Z</time>
      </trkpt>
      <trkpt lat="45.62187" lon="6.80154">
        <ele>893.1</ele>
        <time>2018-09-09T13:04:53Z</time>
      </trkpt>
      <trkpt lat="45.62193" lon="6.80125">
        <ele>892.04</ele>
        <time>2018-09-09T13:04:56Z</time>
      </trkpt>
      <trkpt lat="45.62205" lon="6.80098">
        <ele>892.72</ele>
        <time>2018-09-09T13:04:59Z</time>
      </trkpt>
      <trkpt lat="45.62219" lon="6.80065">
        <ele>891.33</ele>
        <time>2018-09-09T13:05:02Z</time>
      </trkpt>
      <trkpt lat="45.62233" lon="6.8004">
        <ele>890.11</ele>
        <time>2018-09-09T13:05:05Z</time>
      </trkpt>
      <trkpt lat="45.62247" lon="6.80018">
        <ele>889.32</ele>
        <time>2018-09-09T13:05:08Z</time>
      </trkpt>
      <trkpt lat="45.62265" lon="6.79994">
        <ele>888.6</ele>
        <time>2018-09-09T13:05:11Z</time>
      </trkpt>
      <trkpt lat="45.62282" lon="6.79973">
        <ele>887.82</ele>
        <time>2018-09-09T13:05:14Z</time>
      </trkpt>
      <trkpt lat="45.62297" lon="6.7995">
        <ele>885.85</ele>
        <time>2018-09-09T13:05:17Z</time>
      </trkpt>
      <trkpt lat="45.62309" lon="6.79925">
        <ele>885.31</ele>
        <time>2018-09-09T13:05:20Z</time>
      </trkpt>
      <trkpt lat="45.62322" lon="6.79896">
        <ele>884.05</ele>
        <time>2018-09-09T13:05:23Z</time>
      </trkpt>
      <trkpt lat="45.62335" lon="6.79867">
        <ele>882.41</ele>
        <time>2018-09-09T13:05:26Z</time>
      </trkpt>
      <trkpt lat="45.62349" lon="6.7984">
        <ele>880.84</ele>
        <time>2018-09-09T13:05:29Z</time>
      </trkpt>
      <trkpt lat="45.62361" lon="6.79817">
        <ele>880.95</ele>
        <time>2018-09-09T13:05:32Z</time>
      </trkpt>
      <trkpt lat="45.62373" lon="6.79789">
        <ele>879.13</ele>
        <time>2018-09-09T13:05:35Z</time>
      </trkpt>
      <trkpt lat="45.62386" lon="6.7976">
        <ele>878.05</ele>
        <time>2018-09-09T13:05:38Z</time>
      </trkpt>
      <trkpt lat="45.624" lon="6.79728">
        <ele>876.77</ele>
        <time>2018-09-09T13:05:41Z</time>
      </trkpt>
      <trkpt lat="45.62412" lon="6.79698">
        <ele>875.38</ele>
        <time>2018-09-09T13:05:43Z</time>
      </trkpt>
      <trkpt lat="45.62425" lon="6.79673">
        <ele>875.05</ele>
        <time>2018-09-09T13:05:45Z</time>
      </trkpt>
      <trkpt lat="45.62436" lon="6.79649">
        <ele>873.41</ele>
        <time>2018-09-09T13:05:47Z</time>
      </trkpt>
      <trkpt lat="45.62448" lon="6.79625">
        <ele>872.35</ele>
        <time>2018-09-09T13:05:49Z</time>
      </trkpt>
      <trkpt lat="45.62463" lon="6.79594">
        <ele>872.05</ele>
        <time>2018-09-09T13:05:51Z</time>
      </trkpt>
      <trkpt lat="45.6248" lon="6.79562">
        <ele>871.11</ele>
        <time>2018-09-09T13:05:53Z</time>
      </trkpt>
      <trkpt lat="45.62497" lon="6.7953">
        <ele>869.41</ele>
        <time>2018-09-09T13:05:55Z</time>
      </trkpt>
      <trkpt lat="45.62511" lon="6.795">
        <ele>868.14</ele>
        <time>2018-09-09T13:05:57Z</time>
      </trkpt>
      <trkpt lat="45.62528" lon="6.79476">
        <ele>867.12</ele>
        <time>2018-09-09T13:05:59Z</time>
      </trkpt>
      <trkpt lat="45.62544" lon="6.79454">
        <ele>866.32</ele>
        <time>2018-09-09T13:06:01Z</time>
      </trkpt>
      <trkpt lat="45.62563" lon="6.79425">
        <ele>866.25</ele>
        <time>2018-09-09T13:06:03Z</time>
      </trkpt>
      <trkpt lat="45.62589" lon="6.79397">
        <ele>864.43</ele>
        <time>2018-09-09T13:06:05Z</time>
      </trkpt>
      <trkpt lat="45.62613" lon="6.79361">
        <ele>863.35</ele>
        <time>2018-09-09T13:06:07Z</time>
      </trkpt>
      <trkpt lat="45.62622" lon="6.79337">
        <ele>862.42</ele>
        <time>2018-09-09T13:06:08Z</time>
      </trkpt>
      <trkpt lat="45.6263" lon="6.79312">
        <ele>862.84</ele>
        <time>2018-09-09T13:06:09Z</time>
      </trkpt>
      <trkpt lat="45.62638" lon="6.79286">
        <ele>861.56</ele>
        <time>2018-09-09T13:06:10Z</time>
      </trkpt>
      <trkpt lat="45.62646" lon="6.7926">
        <ele>860.48</ele>
        <time>2018-09-09T13:06:11Z</time>
      </trkpt>
      <trkpt lat="45.62652" lon="6.79232">
        <ele>859.45</ele>
        <time>2018-09-09T13:06:12Z</time>
      </trkpt>
      <trkpt lat="45.62659" lon="6.79203">
        <ele>858.45</ele>
        <time>2018-09-09T13:06:13Z</time>
      </trkpt>
      <trkpt lat="45.62665" lon="6.79178">
        <ele>856.74</ele>
        <time>2018-09-09T13:06:14Z</time>
      </trkpt>
      <trkpt lat="45.62673" lon="6.79151">
        <ele>855.53</ele>
        <time>2018-09-09T13:06:15Z</time>
      </trkpt>
      <trkpt lat="45.6268" lon="6.79123">
        <ele>854.47</ele>
        <time>2018-09-09T13:06:16Z</time>
      </trkpt>
      <trkpt lat="45.62685" lon="6.79094">
        <ele>852.75</ele>
        <time>2018-09-09T13:06:17Z</time>
      </trkpt>
      <trkpt lat="45.6269" lon="6.79065">
        <ele>851.54</ele>
        <time>2018-09-09T13:06:18Z</time>
      </trkpt>
      <trkpt lat="45.62693" lon="6.79036">
        <ele>849.77</ele>
        <time>2018-09-09T13:06:19Z</time>
      </trkpt>
      <trkpt lat="45.62696" lon="6.79007">
        <ele>847.84</ele>
        <time>2018-09-09T13:06:20Z</time>
      </trkpt>
      <trkpt lat="45.62699" lon="6.78977">
        <ele>847.26</ele>
        <time>2018-09-09T13:06:21Z</time>
      </trkpt>
      <trkpt lat="45.62701" lon="6.78946">
        <ele>846.39</ele>
        <time>2018-09-09T13:06:22Z</time>
      </trkpt>
      <trkpt lat="45.62704" lon="6.78916">
        <ele>845.43</ele>
        <time>2018-09-09T13:06:23Z</time>
      </trkpt>
      <trkpt lat="45.62705" lon="6.78884">
        <ele>845.14</ele>
        <time>2018-09-09T13:06:24Z</time>
      </trkpt>
      <trkpt lat="45.62708" lon="6.78854">
        <ele>844.35</ele>
        <time>2018-09-09T13:06:25Z</time>
      </trkpt>
      <trkpt lat="45.62709" lon="6.78823">
        <ele>842.72</ele>
        <time>2018-09-09T13:06:26Z</time>
      </trkpt>
      <trkpt lat="45.62711" lon="6.78794">
        <ele>841.53</ele>
        <time>2018-09-09T13:06:27Z</time>
      </trkpt>
      <trkpt lat="45.62712" lon="6.78765">
        <ele>839.77</ele>
        <time>2018-09-09T13:06:28Z</time>
      </trkpt>
      <trkpt lat="45.62714" lon="6.78737">
        <ele>838.54</ele>
        <time>2018-09-09T13:06:29Z</time>
      </trkpt>
      <trkpt lat="45.62716" lon="6.7871">
        <ele>837.47</ele>
        <time>2018-09-09T13:06:30Z</time>
      </trkpt>
      <trkpt lat="45.62714" lon="6.78659">
        <ele>836.36</ele>
        <time>2018-09-09T13:06:32Z</time>
      </trkpt>
      <trkpt lat="45.62706" lon="6.78634">
        <ele>836.12</ele>
        <time>2018-09-09T13:06:33Z</time>
      </trkpt>
      <trkpt lat="45.62684" lon="6.78597">
        <ele>833.71</ele>
        <time>2018-09-09T13:06:35Z</time>
      </trkpt>
      <trkpt lat="45.62659" lon="6.7857">
        <ele>832.17</ele>
        <time>2018-09-09T13:06:37Z</time>
      </trkpt>
      <trkpt lat="45.62637" lon="6.78545">
        <ele>831.12</ele>
        <time>2018-09-09T13:06:39Z</time>
      </trkpt>
      <trkpt lat="45.62624" lon="6.78514">
        <ele>830.32</ele>
        <time>2018-09-09T13:06:41Z</time>
      </trkpt>
      <trkpt lat="45.62614" lon="6.78475">
        <ele>829.34</ele>
        <time>2018-09-09T13:06:43Z</time>
      </trkpt>
      <trkpt lat="45.62603" lon="6.78434">
        <ele>828.13</ele>
        <time>2018-09-09T13:06:45Z</time>
      </trkpt>
      <trkpt lat="45.6259" lon="6.78392">
        <ele>826.42</ele>
        <time>2018-09-09T13:06:47Z</time>
      </trkpt>
      <trkpt lat="45.62578" lon="6.78347">
        <ele>824.44</ele>
        <time>2018-09-09T13:06:49Z</time>
      </trkpt>
      <trkpt lat="45.62571" lon="6.78301">
        <ele>823.14</ele>
        <time>2018-09-09T13:06:51Z</time>
      </trkpt>
      <trkpt lat="45.62572" lon="6.78251">
        <ele>822.12</ele>
        <time>2018-09-09T13:06:53Z</time>
      </trkpt>
      <trkpt lat="45.62571" lon="6.78199">
        <ele>821.32</ele>
        <time>2018-09-09T13:06:55Z</time>
      </trkpt>
      <trkpt lat="45.62568" lon="6.78174">
        <ele>821.11</ele>
        <time>2018-09-09T13:06:56Z</time>
      </trkpt>
      <trkpt lat="45.62559" lon="6.78124">
        <ele>821.02</ele>
        <time>2018-09-09T13:06:58Z</time>
      </trkpt>
      <trkpt lat="45.62548" lon="6.78102">
        <ele>819.62</ele>
        <time>2018-09-09T13:06:59Z</time>
      </trkpt>
      <trkpt lat="45.62539" lon="6.78079">
        <ele>818.5</ele>
        <time>2018-09-09T13:07:00Z</time>
      </trkpt>
      <trkpt lat="45.62529" lon="6.78057">
        <ele>818.16</ele>
        <time>2018-09-09T13:07:01Z</time>
      </trkpt>
      <trkpt lat="45.62519" lon="6.78035">
        <ele>817.36</ele>
        <time>2018-09-09T13:07:02Z</time>
      </trkpt>
      <trkpt lat="45.62507" lon="6.78014">
        <ele>816.42</ele>
        <time>2018-09-09T13:07:03Z</time>
      </trkpt>
      <trkpt lat="45.62495" lon="6.77995">
        <ele>815.44</ele>
        <time>2018-09-09T13:07:04Z</time>
      </trkpt>
      <trkpt lat="45.62471" lon="6.77963">
        <ele>814.35</ele>
        <time>2018-09-09T13:07:06Z</time>
      </trkpt>
      <trkpt lat="45.62449" lon="6.77937">
        <ele>812.44</ele>
        <time>2018-09-09T13:07:08Z</time>
      </trkpt>
      <trkpt lat="45.62428" lon="6.77913">
        <ele>811.14</ele>
        <time>2018-09-09T13:07:10Z</time>
      </trkpt>
      <trkpt lat="45.6241" lon="6.77891">
        <ele>811.03</ele>
        <time>2018-09-09T13:07:12Z</time>
      </trkpt>
      <trkpt lat="45.62393" lon="6.77872">
        <ele>811.02</ele>
        <time>2018-09-09T13:07:14Z</time>
      </trkpt>
      <trkpt lat="45.62373" lon="6.77851">
        <ele>811.93</ele>
        <time>2018-09-09T13:07:17Z</time>
      </trkpt>
      <trkpt lat="45.62357" lon="6.77832">
        <ele>811.91</ele>
        <time>2018-09-09T13:07:21Z</time>
      </trkpt>
      <trkpt lat="45.62337" lon="6.77826">
        <ele>811.02</ele>
        <time>2018-09-09T13:07:25Z</time>
      </trkpt>
      <trkpt lat="45.62333" lon="6.77857">
        <ele>811.93</ele>
        <time>2018-09-09T13:07:28Z</time>
      </trkpt>
      <trkpt lat="45.62332" lon="6.77896">
        <ele>812.01</ele>
        <time>2018-09-09T13:07:31Z</time>
      </trkpt>
      <trkpt lat="45.62332" lon="6.77928">
        <ele>812.01</ele>
        <time>2018-09-09T13:07:33Z</time>
      </trkpt>
      <trkpt lat="45.62331" lon="6.77959">
        <ele>811.32</ele>
        <time>2018-09-09T13:07:35Z</time>
      </trkpt>
      <trkpt lat="45.62331" lon="6.77989">
        <ele>811.74</ele>
        <time>2018-09-09T13:07:37Z</time>
      </trkpt>
      <trkpt lat="45.62339" lon="6.78023">
        <ele>812.64</ele>
        <time>2018-09-09T13:07:40Z</time>
      </trkpt>
      <trkpt lat="45.62346" lon="6.78052">
        <ele>812.02</ele>
        <time>2018-09-09T13:07:44Z</time>
      </trkpt>
      <trkpt lat="45.62343" lon="6.78079">
        <ele>812.92</ele>
        <time>2018-09-09T13:07:51Z</time>
      </trkpt>
      <trkpt lat="45.62357" lon="6.781">
        <ele>808.44</ele>
        <time>2018-09-09T13:15:55Z</time>
      </trkpt>
      <trkpt lat="45.62376" lon="6.78105">
        <ele>808.11</ele>
        <time>2018-09-09T13:16:02Z</time>
      </trkpt>
      <trkpt lat="45.6237" lon="6.78077">
        <ele>807.66</ele>
        <time>2018-09-09T13:16:06Z</time>
      </trkpt>
      <trkpt lat="45.6236" lon="6.78051">
        <ele>809</ele>
        <time>2018-09-09T13:16:10Z</time>
      </trkpt>
      <trkpt lat="45.62352" lon="6.78024">
        <ele>810.01</ele>
        <time>2018-09-09T13:16:14Z</time>
      </trkpt>
      <trkpt lat="45.62339" lon="6.77999">
        <ele>810.03</ele>
        <time>2018-09-09T13:16:19Z</time>
      </trkpt>
      <trkpt lat="45.62337" lon="6.77963">
        <ele>809.25</ele>
        <time>2018-09-09T13:16:23Z</time>
      </trkpt>
      <trkpt lat="45.62337" lon="6.77935">
        <ele>809.95</ele>
        <time>2018-09-09T13:16:25Z</time>
      </trkpt>
      <trkpt lat="45.62337" lon="6.77905">
        <ele>809.1</ele>
        <time>2018-09-09T13:16:27Z</time>
      </trkpt>
      <trkpt lat="45.62341" lon="6.77871">
        <ele>809.02</ele>
        <time>2018-09-09T13:16:30Z</time>
      </trkpt>
      <trkpt lat="45.62356" lon="6.77851">
        <ele>809.02</ele>
        <time>2018-09-09T13:16:34Z</time>
      </trkpt>
      <trkpt lat="45.62355" lon="6.77824">
        <ele>808.04</ele>
        <time>2018-09-09T13:16:37Z</time>
      </trkpt>
      <trkpt lat="45.62336" lon="6.77806">
        <ele>808.29</ele>
        <time>2018-09-09T13:16:40Z</time>
      </trkpt>
      <trkpt lat="45.62325" lon="6.77784">
        <ele>808.95</ele>
        <time>2018-09-09T13:16:42Z</time>
      </trkpt>
      <trkpt lat="45.62313" lon="6.77756">
        <ele>809.01</ele>
        <time>2018-09-09T13:16:44Z</time>
      </trkpt>
      <trkpt lat="45.623" lon="6.77726">
        <ele>809.71</ele>
        <time>2018-09-09T13:16:46Z</time>
      </trkpt>
      <trkpt lat="45.62285" lon="6.77694">
        <ele>808.38</ele>
        <time>2018-09-09T13:16:48Z</time>
      </trkpt>
      <trkpt lat="45.6227" lon="6.77662">
        <ele>808.05</ele>
        <time>2018-09-09T13:16:50Z</time>
      </trkpt>
      <trkpt lat="45.62256" lon="6.7763">
        <ele>807.11</ele>
        <time>2018-09-09T13:16:52Z</time>
      </trkpt>
      <trkpt lat="45.6224" lon="6.77596">
        <ele>807.02</ele>
        <time>2018-09-09T13:16:54Z</time>
      </trkpt>
      <trkpt lat="45.62224" lon="6.77562">
        <ele>807.02</ele>
        <time>2018-09-09T13:16:56Z</time>
      </trkpt>
      <trkpt lat="45.6221" lon="6.77529">
        <ele>807.02</ele>
        <time>2018-09-09T13:16:58Z</time>
      </trkpt>
      <trkpt lat="45.62195" lon="6.77496">
        <ele>807.72</ele>
        <time>2018-09-09T13:17:00Z</time>
      </trkpt>
      <trkpt lat="45.6218" lon="6.77464">
        <ele>807.99</ele>
        <time>2018-09-09T13:17:02Z</time>
      </trkpt>
      <trkpt lat="45.62166" lon="6.77432">
        <ele>808.01</ele>
        <time>2018-09-09T13:17:04Z</time>
      </trkpt>
      <trkpt lat="45.62154" lon="6.774">
        <ele>808.01</ele>
        <time>2018-09-09T13:17:06Z</time>
      </trkpt>
      <trkpt lat="45.62143" lon="6.77368">
        <ele>808.01</ele>
        <time>2018-09-09T13:17:08Z</time>
      </trkpt>
      <trkpt lat="45.62131" lon="6.77334">
        <ele>808.92</ele>
        <time>2018-09-09T13:17:10Z</time>
      </trkpt>
      <trkpt lat="45.62119" lon="6.77303">
        <ele>809.92</ele>
        <time>2018-09-09T13:17:12Z</time>
      </trkpt>
      <trkpt lat="45.62107" lon="6.77272">
        <ele>810.71</ele>
        <time>2018-09-09T13:17:14Z</time>
      </trkpt>
      <trkpt lat="45.62095" lon="6.77243">
        <ele>810.99</ele>
        <time>2018-09-09T13:17:16Z</time>
      </trkpt>
      <trkpt lat="45.62084" lon="6.77214">
        <ele>810.1</ele>
        <time>2018-09-09T13:17:18Z</time>
      </trkpt>
      <trkpt lat="45.62073" lon="6.77189">
        <ele>810.72</ele>
        <time>2018-09-09T13:17:20Z</time>
      </trkpt>
      <trkpt lat="45.62061" lon="6.77158">
        <ele>810.73</ele>
        <time>2018-09-09T13:17:23Z</time>
      </trkpt>
      <trkpt lat="45.62051" lon="6.77133">
        <ele>811.71</ele>
        <time>2018-09-09T13:17:27Z</time>
      </trkpt>
      <trkpt lat="45.62055" lon="6.77107">
        <ele>812.01</ele>
        <time>2018-09-09T13:17:30Z</time>
      </trkpt>
      <trkpt lat="45.62078" lon="6.7709">
        <ele>812.99</ele>
        <time>2018-09-09T13:17:33Z</time>
      </trkpt>
      <trkpt lat="45.62098" lon="6.77089">
        <ele>813.01</ele>
        <time>2018-09-09T13:17:35Z</time>
      </trkpt>
      <trkpt lat="45.6212" lon="6.77088">
        <ele>812.8</ele>
        <time>2018-09-09T13:17:37Z</time>
      </trkpt>
      <trkpt lat="45.62142" lon="6.77086">
        <ele>813</ele>
        <time>2018-09-09T13:17:39Z</time>
      </trkpt>
      <trkpt lat="45.62166" lon="6.77086">
        <ele>813.71</ele>
        <time>2018-09-09T13:17:41Z</time>
      </trkpt>
      <trkpt lat="45.62187" lon="6.77087">
        <ele>814.9</ele>
        <time>2018-09-09T13:17:43Z</time>
      </trkpt>
      <trkpt lat="45.62209" lon="6.77087">
        <ele>814.09</ele>
        <time>2018-09-09T13:17:45Z</time>
      </trkpt>
      <trkpt lat="45.62229" lon="6.7709">
        <ele>815.42</ele>
        <time>2018-09-09T13:17:47Z</time>
      </trkpt>
      <trkpt lat="45.62249" lon="6.77095">
        <ele>817.36</ele>
        <time>2018-09-09T13:17:49Z</time>
      </trkpt>
      <trkpt lat="45.62269" lon="6.77104">
        <ele>818.66</ele>
        <time>2018-09-09T13:17:51Z</time>
      </trkpt>
      <trkpt lat="45.62292" lon="6.77117">
        <ele>819.68</ele>
        <time>2018-09-09T13:17:53Z</time>
      </trkpt>
      <trkpt lat="45.62316" lon="6.77134">
        <ele>820.69</ele>
        <time>2018-09-09T13:17:55Z</time>
      </trkpt>
      <trkpt lat="45.62338" lon="6.77157">
        <ele>822.39</ele>
        <time>2018-09-09T13:17:57Z</time>
      </trkpt>
      <trkpt lat="45.62358" lon="6.77189">
        <ele>825.27</ele>
        <time>2018-09-09T13:17:59Z</time>
      </trkpt>
      <trkpt lat="45.62379" lon="6.77226">
        <ele>826.86</ele>
        <time>2018-09-09T13:18:01Z</time>
      </trkpt>
      <trkpt lat="45.62398" lon="6.77264">
        <ele>828.61</ele>
        <time>2018-09-09T13:18:03Z</time>
      </trkpt>
      <trkpt lat="45.62414" lon="6.77308">
        <ele>830.59</ele>
        <time>2018-09-09T13:18:05Z</time>
      </trkpt>
      <trkpt lat="45.62429" lon="6.77352">
        <ele>832.59</ele>
        <time>2018-09-09T13:18:07Z</time>
      </trkpt>
      <trkpt lat="45.62445" lon="6.77394">
        <ele>834.59</ele>
        <time>2018-09-09T13:18:09Z</time>
      </trkpt>
      <trkpt lat="45.6246" lon="6.77437">
        <ele>835.89</ele>
        <time>2018-09-09T13:18:11Z</time>
      </trkpt>
      <trkpt lat="45.62474" lon="6.77478">
        <ele>838.52</ele>
        <time>2018-09-09T13:18:13Z</time>
      </trkpt>
      <trkpt lat="45.62491" lon="6.77518">
        <ele>839.67</ele>
        <time>2018-09-09T13:18:15Z</time>
      </trkpt>
      <trkpt lat="45.62506" lon="6.77556">
        <ele>842.5</ele>
        <time>2018-09-09T13:18:17Z</time>
      </trkpt>
      <trkpt lat="45.62509" lon="6.7759">
        <ele>844.58</ele>
        <time>2018-09-09T13:18:19Z</time>
      </trkpt>
      <trkpt lat="45.62503" lon="6.77623">
        <ele>846.8</ele>
        <time>2018-09-09T13:18:21Z</time>
      </trkpt>
      <trkpt lat="45.62501" lon="6.77661">
        <ele>848.61</ele>
        <time>2018-09-09T13:18:23Z</time>
      </trkpt>
      <trkpt lat="45.62507" lon="6.77703">
        <ele>848.98</ele>
        <time>2018-09-09T13:18:25Z</time>
      </trkpt>
      <trkpt lat="45.6252" lon="6.77743">
        <ele>852.23</ele>
        <time>2018-09-09T13:18:27Z</time>
      </trkpt>
      <trkpt lat="45.62533" lon="6.77773">
        <ele>853.85</ele>
        <time>2018-09-09T13:18:29Z</time>
      </trkpt>
      <trkpt lat="45.62558" lon="6.77787">
        <ele>855.62</ele>
        <time>2018-09-09T13:18:32Z</time>
      </trkpt>
      <trkpt lat="45.62582" lon="6.7778">
        <ele>856.68</ele>
        <time>2018-09-09T13:18:34Z</time>
      </trkpt>
      <trkpt lat="45.62606" lon="6.77783">
        <ele>856.77</ele>
        <time>2018-09-09T13:18:36Z</time>
      </trkpt>
      <trkpt lat="45.6262" lon="6.77799">
        <ele>859.51</ele>
        <time>2018-09-09T13:18:38Z</time>
      </trkpt>
      <trkpt lat="45.62623" lon="6.77828">
        <ele>860.88</ele>
        <time>2018-09-09T13:18:40Z</time>
      </trkpt>
      <trkpt lat="45.62617" lon="6.77864">
        <ele>861.7</ele>
        <time>2018-09-09T13:18:42Z</time>
      </trkpt>
      <trkpt lat="45.62616" lon="6.77901">
        <ele>862.69</ele>
        <time>2018-09-09T13:18:44Z</time>
      </trkpt>
      <trkpt lat="45.62626" lon="6.77929">
        <ele>866.91</ele>
        <time>2018-09-09T13:18:46Z</time>
      </trkpt>
      <trkpt lat="45.62646" lon="6.77953">
        <ele>870.23</ele>
        <time>2018-09-09T13:18:48Z</time>
      </trkpt>
      <trkpt lat="45.62666" lon="6.77986">
        <ele>873.25</ele>
        <time>2018-09-09T13:18:50Z</time>
      </trkpt>
      <trkpt lat="45.62681" lon="6.78028">
        <ele>874.86</ele>
        <time>2018-09-09T13:18:52Z</time>
      </trkpt>
      <trkpt lat="45.62694" lon="6.7807">
        <ele>875.91</ele>
        <time>2018-09-09T13:18:54Z</time>
      </trkpt>
      <trkpt lat="45.62713" lon="6.78109">
        <ele>878.53</ele>
        <time>2018-09-09T13:18:56Z</time>
      </trkpt>
      <trkpt lat="45.62733" lon="6.78149">
        <ele>879.88</ele>
        <time>2018-09-09T13:18:58Z</time>
      </trkpt>
      <trkpt lat="45.62749" lon="6.78189">
        <ele>883.22</ele>
        <time>2018-09-09T13:19:00Z</time>
      </trkpt>
      <trkpt lat="45.62759" lon="6.78235">
        <ele>887.16</ele>
        <time>2018-09-09T13:19:02Z</time>
      </trkpt>
      <trkpt lat="45.62768" lon="6.78281">
        <ele>887.94</ele>
        <time>2018-09-09T13:19:04Z</time>
      </trkpt>
      <trkpt lat="45.62774" lon="6.78326">
        <ele>889.62</ele>
        <time>2018-09-09T13:19:06Z</time>
      </trkpt>
      <trkpt lat="45.62782" lon="6.78365">
        <ele>892.29</ele>
        <time>2018-09-09T13:19:08Z</time>
      </trkpt>
      <trkpt lat="45.628" lon="6.78394">
        <ele>895.26</ele>
        <time>2018-09-09T13:19:10Z</time>
      </trkpt>
      <trkpt lat="45.62822" lon="6.7842">
        <ele>898.47</ele>
        <time>2018-09-09T13:19:12Z</time>
      </trkpt>
      <trkpt lat="45.62839" lon="6.78453">
        <ele>900.58</ele>
        <time>2018-09-09T13:19:14Z</time>
      </trkpt>
      <trkpt lat="45.6286" lon="6.78485">
        <ele>901.68</ele>
        <time>2018-09-09T13:19:16Z</time>
      </trkpt>
      <trkpt lat="45.62884" lon="6.78512">
        <ele>904.5</ele>
        <time>2018-09-09T13:19:18Z</time>
      </trkpt>
      <trkpt lat="45.6291" lon="6.78531">
        <ele>906.79</ele>
        <time>2018-09-09T13:19:20Z</time>
      </trkpt>
      <trkpt lat="45.62939" lon="6.78542">
        <ele>907.69</ele>
        <time>2018-09-09T13:19:22Z</time>
      </trkpt>
      <trkpt lat="45.62969" lon="6.7855">
        <ele>908.9</ele>
        <time>2018-09-09T13:19:24Z</time>
      </trkpt>
      <trkpt lat="45.62988" lon="6.78564">
        <ele>910.82</ele>
        <time>2018-09-09T13:19:26Z</time>
      </trkpt>
      <trkpt lat="45.63006" lon="6.78557">
        <ele>912.89</ele>
        <time>2018-09-09T13:19:29Z</time>
      </trkpt>
      <trkpt lat="45.62989" lon="6.78533">
        <ele>916.29</ele>
        <time>2018-09-09T13:19:32Z</time>
      </trkpt>
      <trkpt lat="45.62959" lon="6.78517">
        <ele>918.56</ele>
        <time>2018-09-09T13:19:34Z</time>
      </trkpt>
      <trkpt lat="45.6293" lon="6.78498">
        <ele>921.49</ele>
        <time>2018-09-09T13:19:36Z</time>
      </trkpt>
      <trkpt lat="45.62905" lon="6.78477">
        <ele>923.58</ele>
        <time>2018-09-09T13:19:38Z</time>
      </trkpt>
      <trkpt lat="45.6289" lon="6.78445">
        <ele>924.89</ele>
        <time>2018-09-09T13:19:40Z</time>
      </trkpt>
      <trkpt lat="45.62884" lon="6.78408">
        <ele>928.22</ele>
        <time>2018-09-09T13:19:42Z</time>
      </trkpt>
      <trkpt lat="45.62879" lon="6.78371">
        <ele>930.55</ele>
        <time>2018-09-09T13:19:44Z</time>
      </trkpt>
      <trkpt lat="45.62878" lon="6.78338">
        <ele>933.49</ele>
        <time>2018-09-09T13:19:46Z</time>
      </trkpt>
      <trkpt lat="45.62885" lon="6.78314">
        <ele>934.88</ele>
        <time>2018-09-09T13:19:48Z</time>
      </trkpt>
      <trkpt lat="45.62903" lon="6.783">
        <ele>936.61</ele>
        <time>2018-09-09T13:19:50Z</time>
      </trkpt>
      <trkpt lat="45.62927" lon="6.78306">
        <ele>939.38</ele>
        <time>2018-09-09T13:19:53Z</time>
      </trkpt>
      <trkpt lat="45.62945" lon="6.78321">
        <ele>940.66</ele>
        <time>2018-09-09T13:19:55Z</time>
      </trkpt>
      <trkpt lat="45.62964" lon="6.7834">
        <ele>942.59</ele>
        <time>2018-09-09T13:19:57Z</time>
      </trkpt>
      <trkpt lat="45.62985" lon="6.78361">
        <ele>944.38</ele>
        <time>2018-09-09T13:19:59Z</time>
      </trkpt>
      <trkpt lat="45.63008" lon="6.78379">
        <ele>945.66</ele>
        <time>2018-09-09T13:20:01Z</time>
      </trkpt>
      <trkpt lat="45.63036" lon="6.78394">
        <ele>946.68</ele>
        <time>2018-09-09T13:20:03Z</time>
      </trkpt>
      <trkpt lat="45.63068" lon="6.78408">
        <ele>946.99</ele>
        <time>2018-09-09T13:20:05Z</time>
      </trkpt>
      <trkpt lat="45.63086" lon="6.78413">
        <ele>947.71</ele>
        <time>2018-09-09T13:20:06Z</time>
      </trkpt>
      <trkpt lat="45.63103" lon="6.78419">
        <ele>947.92</ele>
        <time>2018-09-09T13:20:07Z</time>
      </trkpt>
      <trkpt lat="45.63122" lon="6.78422">
        <ele>947.99</ele>
        <time>2018-09-09T13:20:08Z</time>
      </trkpt>
      <trkpt lat="45.6314" lon="6.78422">
        <ele>948.71</ele>
        <time>2018-09-09T13:20:09Z</time>
      </trkpt>
      <trkpt lat="45.63158" lon="6.7842">
        <ele>948.92</ele>
        <time>2018-09-09T13:20:10Z</time>
      </trkpt>
      <trkpt lat="45.63193" lon="6.78415">
        <ele>949.92</ele>
        <time>2018-09-09T13:20:12Z</time>
      </trkpt>
      <trkpt lat="45.63226" lon="6.78417">
        <ele>952.53</ele>
        <time>2018-09-09T13:20:14Z</time>
      </trkpt>
      <trkpt lat="45.63251" lon="6.78427">
        <ele>952.27</ele>
        <time>2018-09-09T13:20:16Z</time>
      </trkpt>
      <trkpt lat="45.63277" lon="6.78453">
        <ele>952.04</ele>
        <time>2018-09-09T13:20:18Z</time>
      </trkpt>
      <trkpt lat="45.63307" lon="6.78477">
        <ele>952.02</ele>
        <time>2018-09-09T13:20:20Z</time>
      </trkpt>
      <trkpt lat="45.63335" lon="6.78497">
        <ele>952.72</ele>
        <time>2018-09-09T13:20:22Z</time>
      </trkpt>
      <trkpt lat="45.63367" lon="6.78516">
        <ele>952.29</ele>
        <time>2018-09-09T13:20:24Z</time>
      </trkpt>
      <trkpt lat="45.63395" lon="6.78538">
        <ele>952.74</ele>
        <time>2018-09-09T13:20:26Z</time>
      </trkpt>
      <trkpt lat="45.63425" lon="6.78547">
        <ele>953.9</ele>
        <time>2018-09-09T13:20:28Z</time>
      </trkpt>
      <trkpt lat="45.63455" lon="6.78542">
        <ele>956.31</ele>
        <time>2018-09-09T13:20:30Z</time>
      </trkpt>
      <trkpt lat="45.63485" lon="6.78543">
        <ele>957.65</ele>
        <time>2018-09-09T13:20:32Z</time>
      </trkpt>
      <trkpt lat="45.6352" lon="6.78551">
        <ele>956.86</ele>
        <time>2018-09-09T13:20:34Z</time>
      </trkpt>
      <trkpt lat="45.63554" lon="6.78555">
        <ele>957</ele>
        <time>2018-09-09T13:20:36Z</time>
      </trkpt>
      <trkpt lat="45.63585" lon="6.78549">
        <ele>956.8</ele>
        <time>2018-09-09T13:20:38Z</time>
      </trkpt>
      <trkpt lat="45.63617" lon="6.78537">
        <ele>958.61</ele>
        <time>2018-09-09T13:20:40Z</time>
      </trkpt>
      <trkpt lat="45.63649" lon="6.78529">
        <ele>959.68</ele>
        <time>2018-09-09T13:20:42Z</time>
      </trkpt>
      <trkpt lat="45.63671" lon="6.78514">
        <ele>961.8</ele>
        <time>2018-09-09T13:20:44Z</time>
      </trkpt>
      <trkpt lat="45.63694" lon="6.7849">
        <ele>962.7</ele>
        <time>2018-09-09T13:20:46Z</time>
      </trkpt>
      <trkpt lat="45.63726" lon="6.78471">
        <ele>962.99</ele>
        <time>2018-09-09T13:20:48Z</time>
      </trkpt>
      <trkpt lat="45.63759" lon="6.78458">
        <ele>963.92</ele>
        <time>2018-09-09T13:20:50Z</time>
      </trkpt>
      <trkpt lat="45.63794" lon="6.78448">
        <ele>964.01</ele>
        <time>2018-09-09T13:20:52Z</time>
      </trkpt>
      <trkpt lat="45.63826" lon="6.78452">
        <ele>963.52</ele>
        <time>2018-09-09T13:20:54Z</time>
      </trkpt>
      <trkpt lat="45.63857" lon="6.78453">
        <ele>963.55</ele>
        <time>2018-09-09T13:20:56Z</time>
      </trkpt>
      <trkpt lat="45.63888" lon="6.78443">
        <ele>964.88</ele>
        <time>2018-09-09T13:20:58Z</time>
      </trkpt>
      <trkpt lat="45.63915" lon="6.78444">
        <ele>965.7</ele>
        <time>2018-09-09T13:21:00Z</time>
      </trkpt>
      <trkpt lat="45.63938" lon="6.78464">
        <ele>966.9</ele>
        <time>2018-09-09T13:21:02Z</time>
      </trkpt>
      <trkpt lat="45.63964" lon="6.78488">
        <ele>967</ele>
        <time>2018-09-09T13:21:04Z</time>
      </trkpt>
      <trkpt lat="45.63992" lon="6.78504">
        <ele>965.4</ele>
        <time>2018-09-09T13:21:06Z</time>
      </trkpt>
      <trkpt lat="45.64025" lon="6.78506">
        <ele>965.05</ele>
        <time>2018-09-09T13:21:08Z</time>
      </trkpt>
      <trkpt lat="45.64058" lon="6.78512">
        <ele>965.02</ele>
        <time>2018-09-09T13:21:10Z</time>
      </trkpt>
      <trkpt lat="45.64075" lon="6.78523">
        <ele>965.72</ele>
        <time>2018-09-09T13:21:11Z</time>
      </trkpt>
      <trkpt lat="45.64092" lon="6.78532">
        <ele>965.23</ele>
        <time>2018-09-09T13:21:12Z</time>
      </trkpt>
      <trkpt lat="45.64124" lon="6.78554">
        <ele>966.64</ele>
        <time>2018-09-09T13:21:14Z</time>
      </trkpt>
      <trkpt lat="45.64153" lon="6.78581">
        <ele>966.98</ele>
        <time>2018-09-09T13:21:16Z</time>
      </trkpt>
      <trkpt lat="45.64183" lon="6.78605">
        <ele>967.29</ele>
        <time>2018-09-09T13:21:18Z</time>
      </trkpt>
      <trkpt lat="45.64214" lon="6.78618">
        <ele>969.35</ele>
        <time>2018-09-09T13:21:20Z</time>
      </trkpt>
      <trkpt lat="45.64249" lon="6.7862">
        <ele>970.66</ele>
        <time>2018-09-09T13:21:22Z</time>
      </trkpt>
      <trkpt lat="45.64268" lon="6.78619">
        <ele>971.61</ele>
        <time>2018-09-09T13:21:23Z</time>
      </trkpt>
      <trkpt lat="45.64289" lon="6.78616">
        <ele>972.59</ele>
        <time>2018-09-09T13:21:24Z</time>
      </trkpt>
      <trkpt lat="45.64309" lon="6.78613">
        <ele>972.89</ele>
        <time>2018-09-09T13:21:25Z</time>
      </trkpt>
      <trkpt lat="45.6433" lon="6.78613">
        <ele>972.98</ele>
        <time>2018-09-09T13:21:26Z</time>
      </trkpt>
      <trkpt lat="45.64349" lon="6.78614">
        <ele>973</ele>
        <time>2018-09-09T13:21:27Z</time>
      </trkpt>
      <trkpt lat="45.64369" lon="6.78613">
        <ele>973.71</ele>
        <time>2018-09-09T13:21:28Z</time>
      </trkpt>
      <trkpt lat="45.6439" lon="6.78612">
        <ele>973.22</ele>
        <time>2018-09-09T13:21:29Z</time>
      </trkpt>
      <trkpt lat="45.64412" lon="6.78608">
        <ele>972.38</ele>
        <time>2018-09-09T13:21:30Z</time>
      </trkpt>
      <trkpt lat="45.64432" lon="6.78604">
        <ele>972.12</ele>
        <time>2018-09-09T13:21:31Z</time>
      </trkpt>
      <trkpt lat="45.64453" lon="6.786">
        <ele>971.35</ele>
        <time>2018-09-09T13:21:32Z</time>
      </trkpt>
      <trkpt lat="45.64474" lon="6.78595">
        <ele>971.81</ele>
        <time>2018-09-09T13:21:33Z</time>
      </trkpt>
      <trkpt lat="45.64494" lon="6.78595">
        <ele>972.65</ele>
        <time>2018-09-09T13:21:34Z</time>
      </trkpt>
      <trkpt lat="45.64513" lon="6.78595">
        <ele>972.91</ele>
        <time>2018-09-09T13:21:35Z</time>
      </trkpt>
      <trkpt lat="45.64532" lon="6.78592">
        <ele>973.68</ele>
        <time>2018-09-09T13:21:36Z</time>
      </trkpt>
      <trkpt lat="45.64551" lon="6.78589">
        <ele>974.62</ele>
        <time>2018-09-09T13:21:37Z</time>
      </trkpt>
      <trkpt lat="45.6457" lon="6.78589">
        <ele>974.9</ele>
        <time>2018-09-09T13:21:38Z</time>
      </trkpt>
      <trkpt lat="45.64589" lon="6.78593">
        <ele>975.68</ele>
        <time>2018-09-09T13:21:39Z</time>
      </trkpt>
      <trkpt lat="45.64607" lon="6.78599">
        <ele>977.31</ele>
        <time>2018-09-09T13:21:40Z</time>
      </trkpt>
      <trkpt lat="45.64625" lon="6.78607">
        <ele>977.8</ele>
        <time>2018-09-09T13:21:41Z</time>
      </trkpt>
      <trkpt lat="45.6466" lon="6.78614">
        <ele>980.31</ele>
        <time>2018-09-09T13:21:43Z</time>
      </trkpt>
      <trkpt lat="45.64678" lon="6.78612">
        <ele>982.2</ele>
        <time>2018-09-09T13:21:44Z</time>
      </trkpt>
      <trkpt lat="45.64697" lon="6.78611">
        <ele>982.77</ele>
        <time>2018-09-09T13:21:45Z</time>
      </trkpt>
      <trkpt lat="45.64716" lon="6.7861">
        <ele>985.04</ele>
        <time>2018-09-09T13:21:46Z</time>
      </trkpt>
      <trkpt lat="45.64736" lon="6.78615">
        <ele>986.42</ele>
        <time>2018-09-09T13:21:47Z</time>
      </trkpt>
      <trkpt lat="45.64754" lon="6.78622">
        <ele>988.94</ele>
        <time>2018-09-09T13:21:48Z</time>
      </trkpt>
      <trkpt lat="45.64774" lon="6.7863">
        <ele>990.39</ele>
        <time>2018-09-09T13:21:49Z</time>
      </trkpt>
      <trkpt lat="45.64793" lon="6.78641">
        <ele>992.23</ele>
        <time>2018-09-09T13:21:50Z</time>
      </trkpt>
      <trkpt lat="45.64813" lon="6.7865">
        <ele>992.78</ele>
        <time>2018-09-09T13:21:51Z</time>
      </trkpt>
      <trkpt lat="45.64831" lon="6.78662">
        <ele>992.94</ele>
        <time>2018-09-09T13:21:52Z</time>
      </trkpt>
      <trkpt lat="45.6485" lon="6.78675">
        <ele>993.69</ele>
        <time>2018-09-09T13:21:53Z</time>
      </trkpt>
      <trkpt lat="45.64868" lon="6.78689">
        <ele>994.62</ele>
        <time>2018-09-09T13:21:54Z</time>
      </trkpt>
      <trkpt lat="45.64885" lon="6.78704">
        <ele>997</ele>
        <time>2018-09-09T13:21:55Z</time>
      </trkpt>
      <trkpt lat="45.64902" lon="6.78718">
        <ele>1000.51</ele>
        <time>2018-09-09T13:21:56Z</time>
      </trkpt>
      <trkpt lat="45.6492" lon="6.78732">
        <ele>1002.26</ele>
        <time>2018-09-09T13:21:57Z</time>
      </trkpt>
      <trkpt lat="45.64938" lon="6.78745">
        <ele>1002.79</ele>
        <time>2018-09-09T13:21:58Z</time>
      </trkpt>
      <trkpt lat="45.64955" lon="6.78757">
        <ele>1005.05</ele>
        <time>2018-09-09T13:21:59Z</time>
      </trkpt>
      <trkpt lat="45.64972" lon="6.78769">
        <ele>1006.42</ele>
        <time>2018-09-09T13:22:00Z</time>
      </trkpt>
      <trkpt lat="45.64991" lon="6.78777">
        <ele>1007.54</ele>
        <time>2018-09-09T13:22:01Z</time>
      </trkpt>
      <trkpt lat="45.6501" lon="6.78782">
        <ele>1007.87</ele>
        <time>2018-09-09T13:22:02Z</time>
      </trkpt>
      <trkpt lat="45.6503" lon="6.78786">
        <ele>1007.97</ele>
        <time>2018-09-09T13:22:03Z</time>
      </trkpt>
      <trkpt lat="45.65051" lon="6.78788">
        <ele>1008.7</ele>
        <time>2018-09-09T13:22:04Z</time>
      </trkpt>
      <trkpt lat="45.65072" lon="6.78786">
        <ele>1009.62</ele>
        <time>2018-09-09T13:22:05Z</time>
      </trkpt>
      <trkpt lat="45.65092" lon="6.78784">
        <ele>1009.9</ele>
        <time>2018-09-09T13:22:06Z</time>
      </trkpt>
      <trkpt lat="45.65113" lon="6.78784">
        <ele>1010.68</ele>
        <time>2018-09-09T13:22:07Z</time>
      </trkpt>
      <trkpt lat="45.65133" lon="6.78779">
        <ele>1010.91</ele>
        <time>2018-09-09T13:22:08Z</time>
      </trkpt>
      <trkpt lat="45.65152" lon="6.78775">
        <ele>1010.98</ele>
        <time>2018-09-09T13:22:09Z</time>
      </trkpt>
      <trkpt lat="45.65169" lon="6.78762">
        <ele>1011.71</ele>
        <time>2018-09-09T13:22:10Z</time>
      </trkpt>
      <trkpt lat="45.65185" lon="6.78747">
        <ele>1014.02</ele>
        <time>2018-09-09T13:22:11Z</time>
      </trkpt>
      <trkpt lat="45.65202" lon="6.78733">
        <ele>1016.12</ele>
        <time>2018-09-09T13:22:12Z</time>
      </trkpt>
      <trkpt lat="45.65221" lon="6.78724">
        <ele>1018.15</ele>
        <time>2018-09-09T13:22:13Z</time>
      </trkpt>
      <trkpt lat="45.65239" lon="6.78716">
        <ele>1021.55</ele>
        <time>2018-09-09T13:22:14Z</time>
      </trkpt>
      <trkpt lat="45.65257" lon="6.78708">
        <ele>1023.28</ele>
        <time>2018-09-09T13:22:15Z</time>
      </trkpt>
      <trkpt lat="45.65292" lon="6.78699">
        <ele>1026.47</ele>
        <time>2018-09-09T13:22:17Z</time>
      </trkpt>
      <trkpt lat="45.6531" lon="6.78697">
        <ele>1026.85</ele>
        <time>2018-09-09T13:22:18Z</time>
      </trkpt>
      <trkpt lat="45.65329" lon="6.78698">
        <ele>1027.67</ele>
        <time>2018-09-09T13:22:19Z</time>
      </trkpt>
      <trkpt lat="45.65347" lon="6.78697">
        <ele>1028.61</ele>
        <time>2018-09-09T13:22:20Z</time>
      </trkpt>
      <trkpt lat="45.65368" lon="6.78693">
        <ele>1029.59</ele>
        <time>2018-09-09T13:22:21Z</time>
      </trkpt>
      <trkpt lat="45.65387" lon="6.78682">
        <ele>1030.59</ele>
        <time>2018-09-09T13:22:22Z</time>
      </trkpt>
      <trkpt lat="45.65401" lon="6.78661">
        <ele>1031.59</ele>
        <time>2018-09-09T13:22:23Z</time>
      </trkpt>
      <trkpt lat="45.65418" lon="6.78647">
        <ele>1033.99</ele>
        <time>2018-09-09T13:22:24Z</time>
      </trkpt>
      <trkpt lat="45.65434" lon="6.78633">
        <ele>1035.41</ele>
        <time>2018-09-09T13:22:25Z</time>
      </trkpt>
      <trkpt lat="45.6545" lon="6.78617">
        <ele>1037.93</ele>
        <time>2018-09-09T13:22:26Z</time>
      </trkpt>
      <trkpt lat="45.65465" lon="6.786">
        <ele>1040.09</ele>
        <time>2018-09-09T13:22:27Z</time>
      </trkpt>
      <trkpt lat="45.6548" lon="6.78585">
        <ele>1042.84</ele>
        <time>2018-09-09T13:22:28Z</time>
      </trkpt>
      <trkpt lat="45.65495" lon="6.78569">
        <ele>1044.36</ele>
        <time>2018-09-09T13:22:29Z</time>
      </trkpt>
      <trkpt lat="45.65511" lon="6.78551">
        <ele>1046.22</ele>
        <time>2018-09-09T13:22:30Z</time>
      </trkpt>
      <trkpt lat="45.65527" lon="6.78535">
        <ele>1048.18</ele>
        <time>2018-09-09T13:22:31Z</time>
      </trkpt>
      <trkpt lat="45.65543" lon="6.7852">
        <ele>1050.86</ele>
        <time>2018-09-09T13:22:32Z</time>
      </trkpt>
      <trkpt lat="45.65559" lon="6.78504">
        <ele>1052.37</ele>
        <time>2018-09-09T13:22:33Z</time>
      </trkpt>
      <trkpt lat="45.65575" lon="6.78488">
        <ele>1054.22</ele>
        <time>2018-09-09T13:22:34Z</time>
      </trkpt>
      <trkpt lat="45.6559" lon="6.7847">
        <ele>1055.48</ele>
        <time>2018-09-09T13:22:35Z</time>
      </trkpt>
      <trkpt lat="45.65606" lon="6.78452">
        <ele>1056.55</ele>
        <time>2018-09-09T13:22:36Z</time>
      </trkpt>
      <trkpt lat="45.6562" lon="6.78435">
        <ele>1057.58</ele>
        <time>2018-09-09T13:22:37Z</time>
      </trkpt>
      <trkpt lat="45.65634" lon="6.78417">
        <ele>1059.98</ele>
        <time>2018-09-09T13:22:38Z</time>
      </trkpt>
      <trkpt lat="45.65649" lon="6.78401">
        <ele>1061.41</ele>
        <time>2018-09-09T13:22:39Z</time>
      </trkpt>
      <trkpt lat="45.65665" lon="6.78388">
        <ele>1061.83</ele>
        <time>2018-09-09T13:22:40Z</time>
      </trkpt>
      <trkpt lat="45.65683" lon="6.78376">
        <ele>1062.66</ele>
        <time>2018-09-09T13:22:41Z</time>
      </trkpt>
      <trkpt lat="45.65701" lon="6.78364">
        <ele>1062.91</ele>
        <time>2018-09-09T13:22:42Z</time>
      </trkpt>
      <trkpt lat="45.6572" lon="6.7835">
        <ele>1063.68</ele>
        <time>2018-09-09T13:22:43Z</time>
      </trkpt>
      <trkpt lat="45.65737" lon="6.78336">
        <ele>1066.02</ele>
        <time>2018-09-09T13:22:44Z</time>
      </trkpt>
      <trkpt lat="45.65755" lon="6.78323">
        <ele>1067.42</ele>
        <time>2018-09-09T13:22:45Z</time>
      </trkpt>
      <trkpt lat="45.65774" lon="6.78312">
        <ele>1068.54</ele>
        <time>2018-09-09T13:22:46Z</time>
      </trkpt>
      <trkpt lat="45.65794" lon="6.78302">
        <ele>1069.57</ele>
        <time>2018-09-09T13:22:47Z</time>
      </trkpt>
      <trkpt lat="45.65814" lon="6.78296">
        <ele>1070.58</ele>
        <time>2018-09-09T13:22:48Z</time>
      </trkpt>
      <trkpt lat="45.65832" lon="6.78289">
        <ele>1072.29</ele>
        <time>2018-09-09T13:22:49Z</time>
      </trkpt>
      <trkpt lat="45.6585" lon="6.78283">
        <ele>1074.2</ele>
        <time>2018-09-09T13:22:50Z</time>
      </trkpt>
      <trkpt lat="45.65868" lon="6.78274">
        <ele>1076.17</ele>
        <time>2018-09-09T13:22:51Z</time>
      </trkpt>
      <trkpt lat="45.65885" lon="6.78265">
        <ele>1078.16</ele>
        <time>2018-09-09T13:22:52Z</time>
      </trkpt>
      <trkpt lat="45.65915" lon="6.78237">
        <ele>1081.46</ele>
        <time>2018-09-09T13:22:54Z</time>
      </trkpt>
      <trkpt lat="45.65926" lon="6.78209">
        <ele>1083.25</ele>
        <time>2018-09-09T13:22:55Z</time>
      </trkpt>
      <trkpt lat="45.65953" lon="6.78182">
        <ele>1086.26</ele>
        <time>2018-09-09T13:22:57Z</time>
      </trkpt>
      <trkpt lat="45.65987" lon="6.78175">
        <ele>1090.66</ele>
        <time>2018-09-09T13:22:59Z</time>
      </trkpt>
      <trkpt lat="45.66005" lon="6.78174">
        <ele>1091.61</ele>
        <time>2018-09-09T13:23:00Z</time>
      </trkpt>
      <trkpt lat="45.66037" lon="6.78173">
        <ele>1095.69</ele>
        <time>2018-09-09T13:23:02Z</time>
      </trkpt>
      <trkpt lat="45.66067" lon="6.78154">
        <ele>1098.51</ele>
        <time>2018-09-09T13:23:04Z</time>
      </trkpt>
      <trkpt lat="45.66093" lon="6.78109">
        <ele>1100.58</ele>
        <time>2018-09-09T13:23:06Z</time>
      </trkpt>
      <trkpt lat="45.66106" lon="6.78089">
        <ele>1100.88</ele>
        <time>2018-09-09T13:23:07Z</time>
      </trkpt>
      <trkpt lat="45.66119" lon="6.78068">
        <ele>1100.98</ele>
        <time>2018-09-09T13:23:08Z</time>
      </trkpt>
      <trkpt lat="45.66135" lon="6.78056">
        <ele>1102.4</ele>
        <time>2018-09-09T13:23:09Z</time>
      </trkpt>
      <trkpt lat="45.66152" lon="6.78041">
        <ele>1102.83</ele>
        <time>2018-09-09T13:23:10Z</time>
      </trkpt>
      <trkpt lat="45.66172" lon="6.78031">
        <ele>1104.36</ele>
        <time>2018-09-09T13:23:11Z</time>
      </trkpt>
      <trkpt lat="45.66191" lon="6.78015">
        <ele>1104.82</ele>
        <time>2018-09-09T13:23:12Z</time>
      </trkpt>
      <trkpt lat="45.66207" lon="6.78">
        <ele>1107.06</ele>
        <time>2018-09-09T13:23:13Z</time>
      </trkpt>
      <trkpt lat="45.66222" lon="6.77982">
        <ele>1108.43</ele>
        <time>2018-09-09T13:23:14Z</time>
      </trkpt>
      <trkpt lat="45.66236" lon="6.77961">
        <ele>1109.54</ele>
        <time>2018-09-09T13:23:15Z</time>
      </trkpt>
      <trkpt lat="45.66249" lon="6.77939">
        <ele>1109.87</ele>
        <time>2018-09-09T13:23:16Z</time>
      </trkpt>
      <trkpt lat="45.66272" lon="6.77909">
        <ele>1112.31</ele>
        <time>2018-09-09T13:23:18Z</time>
      </trkpt>
      <trkpt lat="45.66297" lon="6.77891">
        <ele>1113.86</ele>
        <time>2018-09-09T13:23:20Z</time>
      </trkpt>
      <trkpt lat="45.66317" lon="6.779">
        <ele>1114.67</ele>
        <time>2018-09-09T13:23:21Z</time>
      </trkpt>
      <trkpt lat="45.66347" lon="6.77892">
        <ele>1117.5</ele>
        <time>2018-09-09T13:23:23Z</time>
      </trkpt>
      <trkpt lat="45.66376" lon="6.77868">
        <ele>1119.79</ele>
        <time>2018-09-09T13:23:25Z</time>
      </trkpt>
      <trkpt lat="45.6639" lon="6.7785">
        <ele>1119.95</ele>
        <time>2018-09-09T13:23:26Z</time>
      </trkpt>
      <trkpt lat="45.66405" lon="6.77822">
        <ele>1120.69</ele>
        <time>2018-09-09T13:23:27Z</time>
      </trkpt>
      <trkpt lat="45.66422" lon="6.77805">
        <ele>1120.92</ele>
        <time>2018-09-09T13:23:28Z</time>
      </trkpt>
      <trkpt lat="45.6644" lon="6.77789">
        <ele>1120.99</ele>
        <time>2018-09-09T13:23:29Z</time>
      </trkpt>
      <trkpt lat="45.66457" lon="6.77774">
        <ele>1123.11</ele>
        <time>2018-09-09T13:23:30Z</time>
      </trkpt>
      <trkpt lat="45.66474" lon="6.77758">
        <ele>1125.14</ele>
        <time>2018-09-09T13:23:31Z</time>
      </trkpt>
      <trkpt lat="45.66488" lon="6.77742">
        <ele>1127.85</ele>
        <time>2018-09-09T13:23:32Z</time>
      </trkpt>
      <trkpt lat="45.66515" lon="6.77713">
        <ele>1132.34</ele>
        <time>2018-09-09T13:23:34Z</time>
      </trkpt>
      <trkpt lat="45.66533" lon="6.77676">
        <ele>1135.26</ele>
        <time>2018-09-09T13:23:36Z</time>
      </trkpt>
      <trkpt lat="45.66544" lon="6.77622">
        <ele>1139.17</ele>
        <time>2018-09-09T13:23:38Z</time>
      </trkpt>
      <trkpt lat="45.66548" lon="6.77596">
        <ele>1141.16</ele>
        <time>2018-09-09T13:23:39Z</time>
      </trkpt>
      <trkpt lat="45.66554" lon="6.77572">
        <ele>1143.16</ele>
        <time>2018-09-09T13:23:40Z</time>
      </trkpt>
      <trkpt lat="45.66569" lon="6.77531">
        <ele>1144.64</ele>
        <time>2018-09-09T13:23:42Z</time>
      </trkpt>
      <trkpt lat="45.66588" lon="6.77495">
        <ele>1147.29</ele>
        <time>2018-09-09T13:23:44Z</time>
      </trkpt>
      <trkpt lat="45.66604" lon="6.77463">
        <ele>1152.08</ele>
        <time>2018-09-09T13:23:46Z</time>
      </trkpt>
      <trkpt lat="45.66619" lon="6.77443">
        <ele>1155.24</ele>
        <time>2018-09-09T13:23:48Z</time>
      </trkpt>
      <trkpt lat="45.66639" lon="6.77452">
        <ele>1159.82</ele>
        <time>2018-09-09T13:23:51Z</time>
      </trkpt>
      <trkpt lat="45.66631" lon="6.77492">
        <ele>1162.38</ele>
        <time>2018-09-09T13:23:54Z</time>
      </trkpt>
      <trkpt lat="45.66625" lon="6.77526">
        <ele>1164.36</ele>
        <time>2018-09-09T13:23:56Z</time>
      </trkpt>
      <trkpt lat="45.66639" lon="6.77558">
        <ele>1163.35</ele>
        <time>2018-09-09T13:23:58Z</time>
      </trkpt>
      <trkpt lat="45.66647" lon="6.77589">
        <ele>1165.35</ele>
        <time>2018-09-09T13:24:00Z</time>
      </trkpt>
      <trkpt lat="45.66647" lon="6.7762">
        <ele>1166.91</ele>
        <time>2018-09-09T13:24:03Z</time>
      </trkpt>
      <trkpt lat="45.66665" lon="6.77576">
        <ele>1170.57</ele>
        <time>2018-09-09T13:24:07Z</time>
      </trkpt>
      <trkpt lat="45.66682" lon="6.77535">
        <ele>1170.97</ele>
        <time>2018-09-09T13:24:09Z</time>
      </trkpt>
      <trkpt lat="45.66702" lon="6.77495">
        <ele>1173.11</ele>
        <time>2018-09-09T13:24:11Z</time>
      </trkpt>
      <trkpt lat="45.6672" lon="6.77458">
        <ele>1176.45</ele>
        <time>2018-09-09T13:24:13Z</time>
      </trkpt>
      <trkpt lat="45.66731" lon="6.77413">
        <ele>1177.66</ele>
        <time>2018-09-09T13:24:15Z</time>
      </trkpt>
      <trkpt lat="45.66716" lon="6.77379">
        <ele>1180.29</ele>
        <time>2018-09-09T13:24:17Z</time>
      </trkpt>
      <trkpt lat="45.66699" lon="6.7736">
        <ele>1183.68</ele>
        <time>2018-09-09T13:24:19Z</time>
      </trkpt>
      <trkpt lat="45.66697" lon="6.7733">
        <ele>1185.59</ele>
        <time>2018-09-09T13:24:21Z</time>
      </trkpt>
      <trkpt lat="45.66702" lon="6.77297">
        <ele>1188.29</ele>
        <time>2018-09-09T13:24:23Z</time>
      </trkpt>
      <trkpt lat="45.66711" lon="6.7727">
        <ele>1190.56</ele>
        <time>2018-09-09T13:24:25Z</time>
      </trkpt>
      <trkpt lat="45.66712" lon="6.77236">
        <ele>1194.19</ele>
        <time>2018-09-09T13:24:27Z</time>
      </trkpt>
      <trkpt lat="45.66716" lon="6.77273">
        <ele>1205.93</ele>
        <time>2018-09-09T13:24:36Z</time>
      </trkpt>
      <trkpt lat="45.66732" lon="6.77303">
        <ele>1207.62</ele>
        <time>2018-09-09T13:24:39Z</time>
      </trkpt>
      <trkpt lat="45.66745" lon="6.77322">
        <ele>1207.07</ele>
        <time>2018-09-09T13:24:41Z</time>
      </trkpt>
      <trkpt lat="45.66739" lon="6.77352">
        <ele>1207.93</ele>
        <time>2018-09-09T13:24:43Z</time>
      </trkpt>
      <trkpt lat="45.66737" lon="6.77381">
        <ele>1210.32</ele>
        <time>2018-09-09T13:24:45Z</time>
      </trkpt>
      <trkpt lat="45.6675" lon="6.77417">
        <ele>1212.56</ele>
        <time>2018-09-09T13:24:47Z</time>
      </trkpt>
      <trkpt lat="45.6677" lon="6.7745">
        <ele>1212.97</ele>
        <time>2018-09-09T13:24:49Z</time>
      </trkpt>
      <trkpt lat="45.66777" lon="6.77482">
        <ele>1214.62</ele>
        <time>2018-09-09T13:24:51Z</time>
      </trkpt>
      <trkpt lat="45.66796" lon="6.77486">
        <ele>1220.28</ele>
        <time>2018-09-09T13:24:55Z</time>
      </trkpt>
      <trkpt lat="45.66791" lon="6.77445">
        <ele>1222.88</ele>
        <time>2018-09-09T13:24:58Z</time>
      </trkpt>
      <trkpt lat="45.66783" lon="6.77405">
        <ele>1223.7</ele>
        <time>2018-09-09T13:25:00Z</time>
      </trkpt>
      <trkpt lat="45.66773" lon="6.77361">
        <ele>1228.12</ele>
        <time>2018-09-09T13:25:02Z</time>
      </trkpt>
      <trkpt lat="45.66768" lon="6.77318">
        <ele>1231.24</ele>
        <time>2018-09-09T13:25:04Z</time>
      </trkpt>
      <trkpt lat="45.66771" lon="6.77281">
        <ele>1236.78</ele>
        <time>2018-09-09T13:25:06Z</time>
      </trkpt>
      <trkpt lat="45.66766" lon="6.77251">
        <ele>1238.39</ele>
        <time>2018-09-09T13:25:08Z</time>
      </trkpt>
      <trkpt lat="45.66779" lon="6.77228">
        <ele>1243.25</ele>
        <time>2018-09-09T13:25:11Z</time>
      </trkpt>
      <trkpt lat="45.66799" lon="6.77221">
        <ele>1245.56</ele>
        <time>2018-09-09T13:25:13Z</time>
      </trkpt>
      <trkpt lat="45.66808" lon="6.77188">
        <ele>1248.31</ele>
        <time>2018-09-09T13:25:16Z</time>
      </trkpt>
      <trkpt lat="45.6682" lon="6.77211">
        <ele>1254.59</ele>
        <time>2018-09-09T13:25:22Z</time>
      </trkpt>
      <trkpt lat="45.66814" lon="6.77241">
        <ele>1255.68</ele>
        <time>2018-09-09T13:25:24Z</time>
      </trkpt>
      <trkpt lat="45.66801" lon="6.77272">
        <ele>1259.29</ele>
        <time>2018-09-09T13:25:27Z</time>
      </trkpt>
      <trkpt lat="45.66809" lon="6.77303">
        <ele>1262.26</ele>
        <time>2018-09-09T13:25:29Z</time>
      </trkpt>
      <trkpt lat="45.66822" lon="6.77335">
        <ele>1262.74</ele>
        <time>2018-09-09T13:25:31Z</time>
      </trkpt>
      <trkpt lat="45.66827" lon="6.77375">
        <ele>1265.51</ele>
        <time>2018-09-09T13:25:33Z</time>
      </trkpt>
      <trkpt lat="45.6683" lon="6.77415">
        <ele>1268.49</ele>
        <time>2018-09-09T13:25:35Z</time>
      </trkpt>
      <trkpt lat="45.6684" lon="6.77445">
        <ele>1270.79</ele>
        <time>2018-09-09T13:25:37Z</time>
      </trkpt>
      <trkpt lat="45.66857" lon="6.7747">
        <ele>1274</ele>
        <time>2018-09-09T13:25:39Z</time>
      </trkpt>
      <trkpt lat="45.66866" lon="6.77497">
        <ele>1276.53</ele>
        <time>2018-09-09T13:25:41Z</time>
      </trkpt>
      <trkpt lat="45.66858" lon="6.77524">
        <ele>1277.67</ele>
        <time>2018-09-09T13:25:43Z</time>
      </trkpt>
      <trkpt lat="45.66877" lon="6.77494">
        <ele>1279.41</ele>
        <time>2018-09-09T13:25:50Z</time>
      </trkpt>
      <trkpt lat="45.66885" lon="6.77459">
        <ele>1282.48</ele>
        <time>2018-09-09T13:25:52Z</time>
      </trkpt>
      <trkpt lat="45.66873" lon="6.77429">
        <ele>1286.4</ele>
        <time>2018-09-09T13:25:54Z</time>
      </trkpt>
      <trkpt lat="45.66874" lon="6.77396">
        <ele>1290.39</ele>
        <time>2018-09-09T13:25:56Z</time>
      </trkpt>
      <trkpt lat="45.66876" lon="6.77357">
        <ele>1291.87</ele>
        <time>2018-09-09T13:25:58Z</time>
      </trkpt>
      <trkpt lat="45.66874" lon="6.77316">
        <ele>1293.61</ele>
        <time>2018-09-09T13:26:00Z</time>
      </trkpt>
      <trkpt lat="45.66873" lon="6.77277">
        <ele>1293.07</ele>
        <time>2018-09-09T13:26:02Z</time>
      </trkpt>
      <trkpt lat="45.66884" lon="6.77235">
        <ele>1295.54</ele>
        <time>2018-09-09T13:26:04Z</time>
      </trkpt>
      <trkpt lat="45.66886" lon="6.77197">
        <ele>1299.4</ele>
        <time>2018-09-09T13:26:06Z</time>
      </trkpt>
      <trkpt lat="45.66898" lon="6.77233">
        <ele>1305.53</ele>
        <time>2018-09-09T13:26:13Z</time>
      </trkpt>
      <trkpt lat="45.66901" lon="6.77281">
        <ele>1308.49</ele>
        <time>2018-09-09T13:26:15Z</time>
      </trkpt>
      <trkpt lat="45.66908" lon="6.77326">
        <ele>1310.58</ele>
        <time>2018-09-09T13:26:17Z</time>
      </trkpt>
      <trkpt lat="45.66917" lon="6.77361">
        <ele>1314.41</ele>
        <time>2018-09-09T13:26:19Z</time>
      </trkpt>
      <trkpt lat="45.66923" lon="6.77389">
        <ele>1316.57</ele>
        <time>2018-09-09T13:26:21Z</time>
      </trkpt>
      <trkpt lat="45.66926" lon="6.77417">
        <ele>1318.89</ele>
        <time>2018-09-09T13:26:24Z</time>
      </trkpt>
      <trkpt lat="45.6694" lon="6.77398">
        <ele>1319.01</ele>
        <time>2018-09-09T13:26:28Z</time>
      </trkpt>
      <trkpt lat="45.66935" lon="6.77369">
        <ele>1320.41</ele>
        <time>2018-09-09T13:26:29Z</time>
      </trkpt>
      <trkpt lat="45.66934" lon="6.77326">
        <ele>1324.18</ele>
        <time>2018-09-09T13:26:31Z</time>
      </trkpt>
      <trkpt lat="45.66935" lon="6.77279">
        <ele>1327.25</ele>
        <time>2018-09-09T13:26:33Z</time>
      </trkpt>
      <trkpt lat="45.66938" lon="6.77241">
        <ele>1330.47</ele>
        <time>2018-09-09T13:26:35Z</time>
      </trkpt>
      <trkpt lat="45.66952" lon="6.7721">
        <ele>1330.97</ele>
        <time>2018-09-09T13:26:37Z</time>
      </trkpt>
      <trkpt lat="45.6696" lon="6.7718">
        <ele>1332.62</ele>
        <time>2018-09-09T13:26:39Z</time>
      </trkpt>
      <trkpt lat="45.66979" lon="6.77178">
        <ele>1336.97</ele>
        <time>2018-09-09T13:26:44Z</time>
      </trkpt>
      <trkpt lat="45.66971" lon="6.77209">
        <ele>1338.41</ele>
        <time>2018-09-09T13:26:46Z</time>
      </trkpt>
      <trkpt lat="45.66973" lon="6.77248">
        <ele>1338.75</ele>
        <time>2018-09-09T13:26:48Z</time>
      </trkpt>
      <trkpt lat="45.66977" lon="6.77299">
        <ele>1342.21</ele>
        <time>2018-09-09T13:26:50Z</time>
      </trkpt>
      <trkpt lat="45.66979" lon="6.77327">
        <ele>1344.87</ele>
        <time>2018-09-09T13:26:51Z</time>
      </trkpt>
      <trkpt lat="45.66982" lon="6.77353">
        <ele>1346.37</ele>
        <time>2018-09-09T13:26:52Z</time>
      </trkpt>
      <trkpt lat="45.66985" lon="6.77397">
        <ele>1347.87</ele>
        <time>2018-09-09T13:26:54Z</time>
      </trkpt>
      <trkpt lat="45.66979" lon="6.77424">
        <ele>1349.82</ele>
        <time>2018-09-09T13:26:56Z</time>
      </trkpt>
      <trkpt lat="45.66983" lon="6.77452">
        <ele>1354.66</ele>
        <time>2018-09-09T13:27:00Z</time>
      </trkpt>
      <trkpt lat="45.66996" lon="6.77408">
        <ele>1356.68</ele>
        <time>2018-09-09T13:27:03Z</time>
      </trkpt>
      <trkpt lat="45.67007" lon="6.77367">
        <ele>1360.2</ele>
        <time>2018-09-09T13:27:05Z</time>
      </trkpt>
      <trkpt lat="45.67014" lon="6.77316">
        <ele>1363.25</ele>
        <time>2018-09-09T13:27:07Z</time>
      </trkpt>
      <trkpt lat="45.67015" lon="6.7729">
        <ele>1365.89</ele>
        <time>2018-09-09T13:27:08Z</time>
      </trkpt>
      <trkpt lat="45.67015" lon="6.77263">
        <ele>1368.08</ele>
        <time>2018-09-09T13:27:09Z</time>
      </trkpt>
      <trkpt lat="45.67014" lon="6.77236">
        <ele>1369.43</ele>
        <time>2018-09-09T13:27:10Z</time>
      </trkpt>
      <trkpt lat="45.67013" lon="6.77209">
        <ele>1371.94</ele>
        <time>2018-09-09T13:27:11Z</time>
      </trkpt>
      <trkpt lat="45.67019" lon="6.7716">
        <ele>1376.14</ele>
        <time>2018-09-09T13:27:13Z</time>
      </trkpt>
      <trkpt lat="45.67026" lon="6.77126">
        <ele>1380.16</ele>
        <time>2018-09-09T13:27:15Z</time>
      </trkpt>
      <trkpt lat="45.67035" lon="6.77101">
        <ele>1381.85</ele>
        <time>2018-09-09T13:27:17Z</time>
      </trkpt>
      <trkpt lat="45.67033" lon="6.7707">
        <ele>1384</ele>
        <time>2018-09-09T13:27:21Z</time>
      </trkpt>
      <trkpt lat="45.67022" lon="6.77036">
        <ele>1384.92</ele>
        <time>2018-09-09T13:27:24Z</time>
      </trkpt>
      <trkpt lat="45.67028" lon="6.77007">
        <ele>1386.83</ele>
        <time>2018-09-09T13:27:26Z</time>
      </trkpt>
      <trkpt lat="45.67051" lon="6.76972">
        <ele>1388.4</ele>
        <time>2018-09-09T13:27:28Z</time>
      </trkpt>
      <trkpt lat="45.67074" lon="6.76934">
        <ele>1391.27</ele>
        <time>2018-09-09T13:27:30Z</time>
      </trkpt>
      <trkpt lat="45.67084" lon="6.76912">
        <ele>1392.49</ele>
        <time>2018-09-09T13:27:31Z</time>
      </trkpt>
      <trkpt lat="45.67094" lon="6.76889">
        <ele>1392.16</ele>
        <time>2018-09-09T13:27:32Z</time>
      </trkpt>
      <trkpt lat="45.67101" lon="6.76864">
        <ele>1392.76</ele>
        <time>2018-09-09T13:27:33Z</time>
      </trkpt>
      <trkpt lat="45.67103" lon="6.76836">
        <ele>1393.64</ele>
        <time>2018-09-09T13:27:34Z</time>
      </trkpt>
      <trkpt lat="45.67111" lon="6.76792">
        <ele>1394.47</ele>
        <time>2018-09-09T13:27:36Z</time>
      </trkpt>
      <trkpt lat="45.67117" lon="6.76748">
        <ele>1395.88</ele>
        <time>2018-09-09T13:27:38Z</time>
      </trkpt>
      <trkpt lat="45.67111" lon="6.76709">
        <ele>1399.01</ele>
        <time>2018-09-09T13:27:40Z</time>
      </trkpt>
      <trkpt lat="45.67115" lon="6.76666">
        <ele>1402.65</ele>
        <time>2018-09-09T13:27:42Z</time>
      </trkpt>
      <trkpt lat="45.67118" lon="6.76616">
        <ele>1404.59</ele>
        <time>2018-09-09T13:27:44Z</time>
      </trkpt>
      <trkpt lat="45.67116" lon="6.76589">
        <ele>1406.99</ele>
        <time>2018-09-09T13:27:45Z</time>
      </trkpt>
      <trkpt lat="45.67114" lon="6.76542">
        <ele>1410.23</ele>
        <time>2018-09-09T13:27:47Z</time>
      </trkpt>
      <trkpt lat="45.67123" lon="6.76506">
        <ele>1411.85</ele>
        <time>2018-09-09T13:27:49Z</time>
      </trkpt>
      <trkpt lat="45.67133" lon="6.76469">
        <ele>1413.4</ele>
        <time>2018-09-09T13:27:51Z</time>
      </trkpt>
      <trkpt lat="45.67136" lon="6.76443">
        <ele>1414.53</ele>
        <time>2018-09-09T13:27:52Z</time>
      </trkpt>
      <trkpt lat="45.67135" lon="6.76416">
        <ele>1415.57</ele>
        <time>2018-09-09T13:27:53Z</time>
      </trkpt>
      <trkpt lat="45.67127" lon="6.76392">
        <ele>1417.28</ele>
        <time>2018-09-09T13:27:54Z</time>
      </trkpt>
      <trkpt lat="45.67119" lon="6.76351">
        <ele>1422.08</ele>
        <time>2018-09-09T13:27:56Z</time>
      </trkpt>
      <trkpt lat="45.67115" lon="6.76314">
        <ele>1424.75</ele>
        <time>2018-09-09T13:27:58Z</time>
      </trkpt>
      <trkpt lat="45.67127" lon="6.76287">
        <ele>1426.34</ele>
        <time>2018-09-09T13:27:59Z</time>
      </trkpt>
      <trkpt lat="45.67133" lon="6.76234">
        <ele>1431.36</ele>
        <time>2018-09-09T13:28:01Z</time>
      </trkpt>
      <trkpt lat="45.67134" lon="6.76207">
        <ele>1433.92</ele>
        <time>2018-09-09T13:28:02Z</time>
      </trkpt>
      <trkpt lat="45.67133" lon="6.76179">
        <ele>1436.79</ele>
        <time>2018-09-09T13:28:03Z</time>
      </trkpt>
      <trkpt lat="45.67132" lon="6.76151">
        <ele>1438.35</ele>
        <time>2018-09-09T13:28:04Z</time>
      </trkpt>
      <trkpt lat="45.6713" lon="6.76125">
        <ele>1440.91</ele>
        <time>2018-09-09T13:28:05Z</time>
      </trkpt>
      <trkpt lat="45.67129" lon="6.76077">
        <ele>1442.83</ele>
        <time>2018-09-09T13:28:07Z</time>
      </trkpt>
      <trkpt lat="45.67115" lon="6.76043">
        <ele>1446.71</ele>
        <time>2018-09-09T13:28:09Z</time>
      </trkpt>
      <trkpt lat="45.6711" lon="6.76011">
        <ele>1449.72</ele>
        <time>2018-09-09T13:28:11Z</time>
      </trkpt>
      <trkpt lat="45.671" lon="6.75979">
        <ele>1451.39</ele>
        <time>2018-09-09T13:28:13Z</time>
      </trkpt>
      <trkpt lat="45.67081" lon="6.75953">
        <ele>1454.48</ele>
        <time>2018-09-09T13:28:15Z</time>
      </trkpt>
      <trkpt lat="45.67061" lon="6.75931">
        <ele>1458.4</ele>
        <time>2018-09-09T13:28:17Z</time>
      </trkpt>
      <trkpt lat="45.67048" lon="6.75907">
        <ele>1461.27</ele>
        <time>2018-09-09T13:28:19Z</time>
      </trkpt>
      <trkpt lat="45.67047" lon="6.7588">
        <ele>1462.86</ele>
        <time>2018-09-09T13:28:21Z</time>
      </trkpt>
      <trkpt lat="45.67068" lon="6.75845">
        <ele>1464.61</ele>
        <time>2018-09-09T13:28:23Z</time>
      </trkpt>
      <trkpt lat="45.67087" lon="6.75807">
        <ele>1466.59</ele>
        <time>2018-09-09T13:28:25Z</time>
      </trkpt>
      <trkpt lat="45.67106" lon="6.75769">
        <ele>1466.98</ele>
        <time>2018-09-09T13:28:27Z</time>
      </trkpt>
      <trkpt lat="45.67123" lon="6.75749">
        <ele>1467.22</ele>
        <time>2018-09-09T13:28:29Z</time>
      </trkpt>
      <trkpt lat="45.67147" lon="6.75751">
        <ele>1468.64</ele>
        <time>2018-09-09T13:28:31Z</time>
      </trkpt>
      <trkpt lat="45.67174" lon="6.75754">
        <ele>1468.98</ele>
        <time>2018-09-09T13:28:33Z</time>
      </trkpt>
      <trkpt lat="45.67202" lon="6.75741">
        <ele>1469.01</ele>
        <time>2018-09-09T13:28:35Z</time>
      </trkpt>
      <trkpt lat="45.6723" lon="6.75725">
        <ele>1469.92</ele>
        <time>2018-09-09T13:28:37Z</time>
      </trkpt>
      <trkpt lat="45.67253" lon="6.75697">
        <ele>1470.92</ele>
        <time>2018-09-09T13:28:39Z</time>
      </trkpt>
      <trkpt lat="45.67276" lon="6.75665">
        <ele>1471.92</ele>
        <time>2018-09-09T13:28:41Z</time>
      </trkpt>
      <trkpt lat="45.67298" lon="6.75636">
        <ele>1471.31</ele>
        <time>2018-09-09T13:28:43Z</time>
      </trkpt>
      <trkpt lat="45.6731" lon="6.75597">
        <ele>1471.95</ele>
        <time>2018-09-09T13:28:45Z</time>
      </trkpt>
      <trkpt lat="45.67322" lon="6.75554">
        <ele>1472.01</ele>
        <time>2018-09-09T13:28:47Z</time>
      </trkpt>
      <trkpt lat="45.67341" lon="6.75517">
        <ele>1472.01</ele>
        <time>2018-09-09T13:28:49Z</time>
      </trkpt>
      <trkpt lat="45.67366" lon="6.75485">
        <ele>1472.92</ele>
        <time>2018-09-09T13:28:51Z</time>
      </trkpt>
      <trkpt lat="45.67379" lon="6.75467">
        <ele>1472.29</ele>
        <time>2018-09-09T13:28:52Z</time>
      </trkpt>
      <trkpt lat="45.67393" lon="6.75448">
        <ele>1472.8</ele>
        <time>2018-09-09T13:28:53Z</time>
      </trkpt>
      <trkpt lat="45.67402" lon="6.75425">
        <ele>1472.95</ele>
        <time>2018-09-09T13:28:54Z</time>
      </trkpt>
      <trkpt lat="45.67416" lon="6.7538">
        <ele>1472.31</ele>
        <time>2018-09-09T13:28:56Z</time>
      </trkpt>
      <trkpt lat="45.67422" lon="6.7534">
        <ele>1472.25</ele>
        <time>2018-09-09T13:28:58Z</time>
      </trkpt>
      <trkpt lat="45.67419" lon="6.75298">
        <ele>1472.95</ele>
        <time>2018-09-09T13:29:00Z</time>
      </trkpt>
      <trkpt lat="45.67416" lon="6.75249">
        <ele>1473.01</ele>
        <time>2018-09-09T13:29:02Z</time>
      </trkpt>
      <trkpt lat="45.67417" lon="6.75223">
        <ele>1473.01</ele>
        <time>2018-09-09T13:29:03Z</time>
      </trkpt>
      <trkpt lat="45.67423" lon="6.75173">
        <ele>1473.92</ele>
        <time>2018-09-09T13:29:05Z</time>
      </trkpt>
      <trkpt lat="45.67441" lon="6.75132">
        <ele>1474.92</ele>
        <time>2018-09-09T13:29:07Z</time>
      </trkpt>
      <trkpt lat="45.67466" lon="6.75094">
        <ele>1475.92</ele>
        <time>2018-09-09T13:29:09Z</time>
      </trkpt>
      <trkpt lat="45.67479" lon="6.75076">
        <ele>1475.99</ele>
        <time>2018-09-09T13:29:10Z</time>
      </trkpt>
      <trkpt lat="45.67495" lon="6.75059">
        <ele>1476.71</ele>
        <time>2018-09-09T13:29:11Z</time>
      </trkpt>
      <trkpt lat="45.6751" lon="6.75043">
        <ele>1476.92</ele>
        <time>2018-09-09T13:29:12Z</time>
      </trkpt>
      <trkpt lat="45.67526" lon="6.75025">
        <ele>1476.29</ele>
        <time>2018-09-09T13:29:13Z</time>
      </trkpt>
      <trkpt lat="45.6754" lon="6.75006">
        <ele>1476.1</ele>
        <time>2018-09-09T13:29:14Z</time>
      </trkpt>
      <trkpt lat="45.67552" lon="6.74986">
        <ele>1477.1</ele>
        <time>2018-09-09T13:29:15Z</time>
      </trkpt>
      <trkpt lat="45.67562" lon="6.74962">
        <ele>1477.4</ele>
        <time>2018-09-09T13:29:16Z</time>
      </trkpt>
      <trkpt lat="45.67563" lon="6.74932">
        <ele>1477.49</ele>
        <time>2018-09-09T13:29:17Z</time>
      </trkpt>
      <trkpt lat="45.67566" lon="6.74904">
        <ele>1477.52</ele>
        <time>2018-09-09T13:29:18Z</time>
      </trkpt>
      <trkpt lat="45.67571" lon="6.74856">
        <ele>1478.44</ele>
        <time>2018-09-09T13:29:20Z</time>
      </trkpt>
      <trkpt lat="45.67585" lon="6.74811">
        <ele>1479.43</ele>
        <time>2018-09-09T13:29:22Z</time>
      </trkpt>
      <trkpt lat="45.67604" lon="6.74772">
        <ele>1481.13</ele>
        <time>2018-09-09T13:29:24Z</time>
      </trkpt>
      <trkpt lat="45.67618" lon="6.74731">
        <ele>1483.32</ele>
        <time>2018-09-09T13:29:26Z</time>
      </trkpt>
      <trkpt lat="45.67642" lon="6.747">
        <ele>1485.12</ele>
        <time>2018-09-09T13:29:28Z</time>
      </trkpt>
      <trkpt lat="45.67673" lon="6.74676">
        <ele>1486.4</ele>
        <time>2018-09-09T13:29:30Z</time>
      </trkpt>
      <trkpt lat="45.67689" lon="6.74659">
        <ele>1487.19</ele>
        <time>2018-09-09T13:29:31Z</time>
      </trkpt>
      <trkpt lat="45.67704" lon="6.74643">
        <ele>1488.13</ele>
        <time>2018-09-09T13:29:32Z</time>
      </trkpt>
      <trkpt lat="45.67719" lon="6.74624">
        <ele>1487.71</ele>
        <time>2018-09-09T13:29:33Z</time>
      </trkpt>
      <trkpt lat="45.6773" lon="6.74595">
        <ele>1488.28</ele>
        <time>2018-09-09T13:29:34Z</time>
      </trkpt>
      <trkpt lat="45.6774" lon="6.74565">
        <ele>1490.56</ele>
        <time>2018-09-09T13:29:35Z</time>
      </trkpt>
      <trkpt lat="45.67752" lon="6.74531">
        <ele>1491.94</ele>
        <time>2018-09-09T13:29:36Z</time>
      </trkpt>
      <trkpt lat="45.67765" lon="6.74497">
        <ele>1493.75</ele>
        <time>2018-09-09T13:29:37Z</time>
      </trkpt>
      <trkpt lat="45.6778" lon="6.74462">
        <ele>1495</ele>
        <time>2018-09-09T13:29:38Z</time>
      </trkpt>
      <trkpt lat="45.67792" lon="6.7443">
        <ele>1496.77</ele>
        <time>2018-09-09T13:29:39Z</time>
      </trkpt>
      <trkpt lat="45.67804" lon="6.74399">
        <ele>1498.7</ele>
        <time>2018-09-09T13:29:40Z</time>
      </trkpt>
      <trkpt lat="45.67815" lon="6.74371">
        <ele>1499.98</ele>
        <time>2018-09-09T13:29:41Z</time>
      </trkpt>
      <trkpt lat="45.67827" lon="6.74344">
        <ele>1501.77</ele>
        <time>2018-09-09T13:29:42Z</time>
      </trkpt>
      <trkpt lat="45.67841" lon="6.74319">
        <ele>1502.3</ele>
        <time>2018-09-09T13:29:43Z</time>
      </trkpt>
      <trkpt lat="45.67856" lon="6.74296">
        <ele>1503.16</ele>
        <time>2018-09-09T13:29:44Z</time>
      </trkpt>
      <trkpt lat="45.67874" lon="6.74274">
        <ele>1504.82</ele>
        <time>2018-09-09T13:29:45Z</time>
      </trkpt>
      <trkpt lat="45.67892" lon="6.74253">
        <ele>1506.02</ele>
        <time>2018-09-09T13:29:46Z</time>
      </trkpt>
      <trkpt lat="45.6791" lon="6.74232">
        <ele>1507.08</ele>
        <time>2018-09-09T13:29:47Z</time>
      </trkpt>
      <trkpt lat="45.67929" lon="6.7421">
        <ele>1508.09</ele>
        <time>2018-09-09T13:29:48Z</time>
      </trkpt>
      <trkpt lat="45.67948" lon="6.74187">
        <ele>1509.8</ele>
        <time>2018-09-09T13:29:49Z</time>
      </trkpt>
      <trkpt lat="45.67968" lon="6.74164">
        <ele>1511.71</ele>
        <time>2018-09-09T13:29:50Z</time>
      </trkpt>
      <trkpt lat="45.67987" lon="6.74139">
        <ele>1513.69</ele>
        <time>2018-09-09T13:29:51Z</time>
      </trkpt>
      <trkpt lat="45.68008" lon="6.74115">
        <ele>1514.98</ele>
        <time>2018-09-09T13:29:52Z</time>
      </trkpt>
      <trkpt lat="45.68029" lon="6.74092">
        <ele>1517.46</ele>
        <time>2018-09-09T13:29:53Z</time>
      </trkpt>
      <trkpt lat="45.6805" lon="6.7407">
        <ele>1520.31</ele>
        <time>2018-09-09T13:29:54Z</time>
      </trkpt>
      <trkpt lat="45.6807" lon="6.7405">
        <ele>1521.86</ele>
        <time>2018-09-09T13:29:55Z</time>
      </trkpt>
      <trkpt lat="45.6809" lon="6.74029">
        <ele>1523.73</ele>
        <time>2018-09-09T13:29:56Z</time>
      </trkpt>
      <trkpt lat="45.68109" lon="6.74008">
        <ele>1524.99</ele>
        <time>2018-09-09T13:29:57Z</time>
      </trkpt>
      <trkpt lat="45.68129" lon="6.73989">
        <ele>1526.07</ele>
        <time>2018-09-09T13:29:58Z</time>
      </trkpt>
      <trkpt lat="45.6815" lon="6.73975">
        <ele>1527.09</ele>
        <time>2018-09-09T13:29:59Z</time>
      </trkpt>
      <trkpt lat="45.68171" lon="6.73962">
        <ele>1527.4</ele>
        <time>2018-09-09T13:30:00Z</time>
      </trkpt>
      <trkpt lat="45.68191" lon="6.7395">
        <ele>1527.49</ele>
        <time>2018-09-09T13:30:01Z</time>
      </trkpt>
      <trkpt lat="45.68222" lon="6.73926">
        <ele>1528.23</ele>
        <time>2018-09-09T13:30:03Z</time>
      </trkpt>
      <trkpt lat="45.68241" lon="6.7391">
        <ele>1528.44</ele>
        <time>2018-09-09T13:30:04Z</time>
      </trkpt>
      <trkpt lat="45.68257" lon="6.73891">
        <ele>1528.5</ele>
        <time>2018-09-09T13:30:05Z</time>
      </trkpt>
      <trkpt lat="45.68267" lon="6.73854">
        <ele>1529.92</ele>
        <time>2018-09-09T13:30:06Z</time>
      </trkpt>
      <trkpt lat="45.6828" lon="6.73827">
        <ele>1531.05</ele>
        <time>2018-09-09T13:30:07Z</time>
      </trkpt>
      <trkpt lat="45.68294" lon="6.73806">
        <ele>1531.39</ele>
        <time>2018-09-09T13:30:08Z</time>
      </trkpt>
      <trkpt lat="45.6831" lon="6.73787">
        <ele>1532.19</ele>
        <time>2018-09-09T13:30:09Z</time>
      </trkpt>
      <trkpt lat="45.68328" lon="6.73772">
        <ele>1532.43</ele>
        <time>2018-09-09T13:30:10Z</time>
      </trkpt>
      <trkpt lat="45.68347" lon="6.73761">
        <ele>1533.2</ele>
        <time>2018-09-09T13:30:11Z</time>
      </trkpt>
      <trkpt lat="45.68367" lon="6.73755">
        <ele>1534.13</ele>
        <time>2018-09-09T13:30:12Z</time>
      </trkpt>
      <trkpt lat="45.68385" lon="6.7375">
        <ele>1535.11</ele>
        <time>2018-09-09T13:30:13Z</time>
      </trkpt>
      <trkpt lat="45.68403" lon="6.73745">
        <ele>1535.41</ele>
        <time>2018-09-09T13:30:14Z</time>
      </trkpt>
      <trkpt lat="45.68437" lon="6.73732">
        <ele>1536.43</ele>
        <time>2018-09-09T13:30:16Z</time>
      </trkpt>
      <trkpt lat="45.68454" lon="6.73724">
        <ele>1536.5</ele>
        <time>2018-09-09T13:30:17Z</time>
      </trkpt>
      <trkpt lat="45.68485" lon="6.73705">
        <ele>1537.23</ele>
        <time>2018-09-09T13:30:19Z</time>
      </trkpt>
      <trkpt lat="45.68502" lon="6.73692">
        <ele>1537.44</ele>
        <time>2018-09-09T13:30:20Z</time>
      </trkpt>
      <trkpt lat="45.6853" lon="6.73663">
        <ele>1539.13</ele>
        <time>2018-09-09T13:30:22Z</time>
      </trkpt>
      <trkpt lat="45.68541" lon="6.73639">
        <ele>1540.11</ele>
        <time>2018-09-09T13:30:23Z</time>
      </trkpt>
      <trkpt lat="45.68553" lon="6.73618">
        <ele>1540.41</ele>
        <time>2018-09-09T13:30:24Z</time>
      </trkpt>
      <trkpt lat="45.68563" lon="6.73596">
        <ele>1541.19</ele>
        <time>2018-09-09T13:30:25Z</time>
      </trkpt>
      <trkpt lat="45.68572" lon="6.73573">
        <ele>1542.13</ele>
        <time>2018-09-09T13:30:26Z</time>
      </trkpt>
      <trkpt lat="45.68581" lon="6.73549">
        <ele>1543.11</ele>
        <time>2018-09-09T13:30:27Z</time>
      </trkpt>
      <trkpt lat="45.68587" lon="6.73524">
        <ele>1542.7</ele>
        <time>2018-09-09T13:30:28Z</time>
      </trkpt>
      <trkpt lat="45.68589" lon="6.73497">
        <ele>1544.68</ele>
        <time>2018-09-09T13:30:29Z</time>
      </trkpt>
      <trkpt lat="45.6859" lon="6.7347">
        <ele>1545.28</ele>
        <time>2018-09-09T13:30:30Z</time>
      </trkpt>
      <trkpt lat="45.6859" lon="6.73444">
        <ele>1546.15</ele>
        <time>2018-09-09T13:30:31Z</time>
      </trkpt>
      <trkpt lat="45.68594" lon="6.73394">
        <ele>1548.11</ele>
        <time>2018-09-09T13:30:33Z</time>
      </trkpt>
      <trkpt lat="45.68611" lon="6.7335">
        <ele>1549.19</ele>
        <time>2018-09-09T13:30:35Z</time>
      </trkpt>
      <trkpt lat="45.68625" lon="6.73334">
        <ele>1550.13</ele>
        <time>2018-09-09T13:30:36Z</time>
      </trkpt>
      <trkpt lat="45.68642" lon="6.73321">
        <ele>1551.81</ele>
        <time>2018-09-09T13:30:37Z</time>
      </trkpt>
      <trkpt lat="45.6866" lon="6.73312">
        <ele>1553.71</ele>
        <time>2018-09-09T13:30:38Z</time>
      </trkpt>
      <trkpt lat="45.68679" lon="6.73306">
        <ele>1555.69</ele>
        <time>2018-09-09T13:30:39Z</time>
      </trkpt>
      <trkpt lat="45.68699" lon="6.73301">
        <ele>1557.68</ele>
        <time>2018-09-09T13:30:40Z</time>
      </trkpt>
      <trkpt lat="45.68719" lon="6.73296">
        <ele>1559.67</ele>
        <time>2018-09-09T13:30:41Z</time>
      </trkpt>
      <trkpt lat="45.68739" lon="6.7329">
        <ele>1562.37</ele>
        <time>2018-09-09T13:30:42Z</time>
      </trkpt>
      <trkpt lat="45.6876" lon="6.73285">
        <ele>1563.88</ele>
        <time>2018-09-09T13:30:43Z</time>
      </trkpt>
      <trkpt lat="45.6878" lon="6.73281">
        <ele>1565.04</ele>
        <time>2018-09-09T13:30:44Z</time>
      </trkpt>
      <trkpt lat="45.688" lon="6.73278">
        <ele>1566.78</ele>
        <time>2018-09-09T13:30:45Z</time>
      </trkpt>
      <trkpt lat="45.6882" lon="6.73281">
        <ele>1568.71</ele>
        <time>2018-09-09T13:30:46Z</time>
      </trkpt>
      <trkpt lat="45.68839" lon="6.73286">
        <ele>1569.98</ele>
        <time>2018-09-09T13:30:47Z</time>
      </trkpt>
      <trkpt lat="45.68857" lon="6.73294">
        <ele>1571.77</ele>
        <time>2018-09-09T13:30:48Z</time>
      </trkpt>
      <trkpt lat="45.68891" lon="6.73304">
        <ele>1574.07</ele>
        <time>2018-09-09T13:30:50Z</time>
      </trkpt>
      <trkpt lat="45.68929" lon="6.73301">
        <ele>1576.8</ele>
        <time>2018-09-09T13:30:52Z</time>
      </trkpt>
      <trkpt lat="45.6895" lon="6.73297">
        <ele>1579.41</ele>
        <time>2018-09-09T13:30:53Z</time>
      </trkpt>
      <trkpt lat="45.68972" lon="6.7329">
        <ele>1580.2</ele>
        <time>2018-09-09T13:30:54Z</time>
      </trkpt>
      <trkpt lat="45.68993" lon="6.73286">
        <ele>1581.13</ele>
        <time>2018-09-09T13:30:55Z</time>
      </trkpt>
      <trkpt lat="45.69013" lon="6.73282">
        <ele>1583.51</ele>
        <time>2018-09-09T13:30:56Z</time>
      </trkpt>
      <trkpt lat="45.69032" lon="6.73276">
        <ele>1585.62</ele>
        <time>2018-09-09T13:30:57Z</time>
      </trkpt>
      <trkpt lat="45.69052" lon="6.73268">
        <ele>1588.36</ele>
        <time>2018-09-09T13:30:58Z</time>
      </trkpt>
      <trkpt lat="45.69071" lon="6.73263">
        <ele>1590.58</ele>
        <time>2018-09-09T13:30:59Z</time>
      </trkpt>
      <trkpt lat="45.69092" lon="6.7326">
        <ele>1592.65</ele>
        <time>2018-09-09T13:31:00Z</time>
      </trkpt>
      <trkpt lat="45.69113" lon="6.73259">
        <ele>1594.67</ele>
        <time>2018-09-09T13:31:01Z</time>
      </trkpt>
      <trkpt lat="45.69134" lon="6.73258">
        <ele>1595.97</ele>
        <time>2018-09-09T13:31:02Z</time>
      </trkpt>
      <trkpt lat="45.69155" lon="6.73256">
        <ele>1597.76</ele>
        <time>2018-09-09T13:31:03Z</time>
      </trkpt>
      <trkpt lat="45.69177" lon="6.73252">
        <ele>1599.7</ele>
        <time>2018-09-09T13:31:04Z</time>
      </trkpt>
      <trkpt lat="45.69199" lon="6.73247">
        <ele>1601.68</ele>
        <time>2018-09-09T13:31:05Z</time>
      </trkpt>
      <trkpt lat="45.6922" lon="6.73242">
        <ele>1603.68</ele>
        <time>2018-09-09T13:31:06Z</time>
      </trkpt>
      <trkpt lat="45.6924" lon="6.73237">
        <ele>1604.97</ele>
        <time>2018-09-09T13:31:07Z</time>
      </trkpt>
      <trkpt lat="45.69259" lon="6.73233">
        <ele>1606.76</ele>
        <time>2018-09-09T13:31:08Z</time>
      </trkpt>
      <trkpt lat="45.69278" lon="6.73228">
        <ele>1608.7</ele>
        <time>2018-09-09T13:31:09Z</time>
      </trkpt>
      <trkpt lat="45.69295" lon="6.7322">
        <ele>1610.68</ele>
        <time>2018-09-09T13:31:10Z</time>
      </trkpt>
      <trkpt lat="45.69325" lon="6.73202">
        <ele>1613.06</ele>
        <time>2018-09-09T13:31:12Z</time>
      </trkpt>
      <trkpt lat="45.69342" lon="6.73182">
        <ele>1614.4</ele>
        <time>2018-09-09T13:31:14Z</time>
      </trkpt>
      <trkpt lat="45.6935" lon="6.73153">
        <ele>1615.43</ele>
        <time>2018-09-09T13:31:16Z</time>
      </trkpt>
      <trkpt lat="45.6934" lon="6.73113">
        <ele>1616.9</ele>
        <time>2018-09-09T13:31:17Z</time>
      </trkpt>
      <trkpt lat="45.69342" lon="6.73081">
        <ele>1620.14</ele>
        <time>2018-09-09T13:31:18Z</time>
      </trkpt>
      <trkpt lat="45.69346" lon="6.73049">
        <ele>1623.91</ele>
        <time>2018-09-09T13:31:19Z</time>
      </trkpt>
      <trkpt lat="45.69351" lon="6.73013">
        <ele>1626.45</ele>
        <time>2018-09-09T13:31:20Z</time>
      </trkpt>
      <trkpt lat="45.69357" lon="6.72976">
        <ele>1628.61</ele>
        <time>2018-09-09T13:31:21Z</time>
      </trkpt>
      <trkpt lat="45.69362" lon="6.72935">
        <ele>1632.05</ele>
        <time>2018-09-09T13:31:22Z</time>
      </trkpt>
      <trkpt lat="45.69366" lon="6.72892">
        <ele>1635.19</ele>
        <time>2018-09-09T13:31:23Z</time>
      </trkpt>
      <trkpt lat="45.69373" lon="6.72847">
        <ele>1638.23</ele>
        <time>2018-09-09T13:31:24Z</time>
      </trkpt>
      <trkpt lat="45.69381" lon="6.72805">
        <ele>1641.94</ele>
        <time>2018-09-09T13:31:25Z</time>
      </trkpt>
      <trkpt lat="45.69388" lon="6.72766">
        <ele>1644.45</ele>
        <time>2018-09-09T13:31:26Z</time>
      </trkpt>
      <trkpt lat="45.69394" lon="6.72729">
        <ele>1647.31</ele>
        <time>2018-09-09T13:31:27Z</time>
      </trkpt>
      <trkpt lat="45.694" lon="6.72692">
        <ele>1649.56</ele>
        <time>2018-09-09T13:31:28Z</time>
      </trkpt>
      <trkpt lat="45.69404" lon="6.72656">
        <ele>1651.64</ele>
        <time>2018-09-09T13:31:29Z</time>
      </trkpt>
      <trkpt lat="45.69408" lon="6.72621">
        <ele>1652.96</ele>
        <time>2018-09-09T13:31:30Z</time>
      </trkpt>
      <trkpt lat="45.69407" lon="6.72584">
        <ele>1655.46</ele>
        <time>2018-09-09T13:31:31Z</time>
      </trkpt>
      <trkpt lat="45.69406" lon="6.72547">
        <ele>1658.31</ele>
        <time>2018-09-09T13:31:32Z</time>
      </trkpt>
      <trkpt lat="45.69403" lon="6.72513">
        <ele>1660.56</ele>
        <time>2018-09-09T13:31:33Z</time>
      </trkpt>
      <trkpt lat="45.69401" lon="6.7248">
        <ele>1664.04</ele>
        <time>2018-09-09T13:31:34Z</time>
      </trkpt>
      <trkpt lat="45.69397" lon="6.72449">
        <ele>1666.48</ele>
        <time>2018-09-09T13:31:35Z</time>
      </trkpt>
      <trkpt lat="45.69393" lon="6.72422">
        <ele>1669.32</ele>
        <time>2018-09-09T13:31:36Z</time>
      </trkpt>
      <trkpt lat="45.6939" lon="6.72395">
        <ele>1670.87</ele>
        <time>2018-09-09T13:31:37Z</time>
      </trkpt>
      <trkpt lat="45.69394" lon="6.72346">
        <ele>1673.99</ele>
        <time>2018-09-09T13:31:39Z</time>
      </trkpt>
      <trkpt lat="45.69409" lon="6.72301">
        <ele>1677</ele>
        <time>2018-09-09T13:31:41Z</time>
      </trkpt>
      <trkpt lat="45.6942" lon="6.72279">
        <ele>1678.77</ele>
        <time>2018-09-09T13:31:42Z</time>
      </trkpt>
      <trkpt lat="45.69431" lon="6.72257">
        <ele>1680</ele>
        <time>2018-09-09T13:31:43Z</time>
      </trkpt>
      <trkpt lat="45.69442" lon="6.72236">
        <ele>1681.07</ele>
        <time>2018-09-09T13:31:44Z</time>
      </trkpt>
      <trkpt lat="45.69465" lon="6.72209">
        <ele>1683.8</ele>
        <time>2018-09-09T13:31:46Z</time>
      </trkpt>
      <trkpt lat="45.6949" lon="6.72204">
        <ele>1685.38</ele>
        <time>2018-09-09T13:31:48Z</time>
      </trkpt>
      <trkpt lat="45.69511" lon="6.72229">
        <ele>1687.13</ele>
        <time>2018-09-09T13:31:50Z</time>
      </trkpt>
      <trkpt lat="45.69528" lon="6.7227">
        <ele>1688.4</ele>
        <time>2018-09-09T13:31:52Z</time>
      </trkpt>
      <trkpt lat="45.69531" lon="6.7232">
        <ele>1690.13</ele>
        <time>2018-09-09T13:31:54Z</time>
      </trkpt>
      <trkpt lat="45.69526" lon="6.72364">
        <ele>1691.89</ele>
        <time>2018-09-09T13:31:56Z</time>
      </trkpt>
      <trkpt lat="45.69519" lon="6.72405">
        <ele>1693.38</ele>
        <time>2018-09-09T13:31:58Z</time>
      </trkpt>
      <trkpt lat="45.69524" lon="6.72447">
        <ele>1693.73</ele>
        <time>2018-09-09T13:32:00Z</time>
      </trkpt>
      <trkpt lat="45.69535" lon="6.72467">
        <ele>1694.29</ele>
        <time>2018-09-09T13:32:01Z</time>
      </trkpt>
      <trkpt lat="45.69551" lon="6.72487">
        <ele>1695.16</ele>
        <time>2018-09-09T13:32:02Z</time>
      </trkpt>
      <trkpt lat="45.69564" lon="6.72514">
        <ele>1696.12</ele>
        <time>2018-09-09T13:32:03Z</time>
      </trkpt>
      <trkpt lat="45.69575" lon="6.72543">
        <ele>1697.11</ele>
        <time>2018-09-09T13:32:04Z</time>
      </trkpt>
      <trkpt lat="45.69586" lon="6.72572">
        <ele>1697.4</ele>
        <time>2018-09-09T13:32:05Z</time>
      </trkpt>
      <trkpt lat="45.69592" lon="6.726">
        <ele>1698.19</ele>
        <time>2018-09-09T13:32:06Z</time>
      </trkpt>
      <trkpt lat="45.69598" lon="6.72626">
        <ele>1698.43</ele>
        <time>2018-09-09T13:32:07Z</time>
      </trkpt>
      <trkpt lat="45.69606" lon="6.72672">
        <ele>1699.43</ele>
        <time>2018-09-09T13:32:09Z</time>
      </trkpt>
      <trkpt lat="45.6963" lon="6.72683">
        <ele>1701.2</ele>
        <time>2018-09-09T13:32:12Z</time>
      </trkpt>
      <trkpt lat="45.69645" lon="6.72668">
        <ele>1700.1</ele>
        <time>2018-09-09T13:32:14Z</time>
      </trkpt>
      <trkpt lat="45.6964" lon="6.72623">
        <ele>1698.88</ele>
        <time>2018-09-09T13:32:16Z</time>
      </trkpt>
      <trkpt lat="45.69624" lon="6.72573">
        <ele>1701.44</ele>
        <time>2018-09-09T13:32:17Z</time>
      </trkpt>
      <trkpt lat="45.69618" lon="6.7254">
        <ele>1703.6</ele>
        <time>2018-09-09T13:32:18Z</time>
      </trkpt>
      <trkpt lat="45.69614" lon="6.72504">
        <ele>1705.65</ele>
        <time>2018-09-09T13:32:19Z</time>
      </trkpt>
      <trkpt lat="45.69611" lon="6.72467">
        <ele>1707.67</ele>
        <time>2018-09-09T13:32:20Z</time>
      </trkpt>
      <trkpt lat="45.69611" lon="6.72429">
        <ele>1711.07</ele>
        <time>2018-09-09T13:32:21Z</time>
      </trkpt>
      <trkpt lat="45.69611" lon="6.72395">
        <ele>1714.89</ele>
        <time>2018-09-09T13:32:22Z</time>
      </trkpt>
      <trkpt lat="45.6961" lon="6.72364">
        <ele>1717.44</ele>
        <time>2018-09-09T13:32:23Z</time>
      </trkpt>
      <trkpt lat="45.69606" lon="6.72336">
        <ele>1719.6</ele>
        <time>2018-09-09T13:32:24Z</time>
      </trkpt>
      <trkpt lat="45.69593" lon="6.72292">
        <ele>1725.28</ele>
        <time>2018-09-09T13:32:26Z</time>
      </trkpt>
      <trkpt lat="45.69587" lon="6.72265">
        <ele>1728.03</ele>
        <time>2018-09-09T13:32:28Z</time>
      </trkpt>
      <trkpt lat="45.69607" lon="6.72263">
        <ele>1729.49</ele>
        <time>2018-09-09T13:32:31Z</time>
      </trkpt>
      <trkpt lat="45.69624" lon="6.72296">
        <ele>1731.84</ele>
        <time>2018-09-09T13:32:33Z</time>
      </trkpt>
      <trkpt lat="45.69634" lon="6.72318">
        <ele>1733.72</ele>
        <time>2018-09-09T13:32:34Z</time>
      </trkpt>
      <trkpt lat="45.69644" lon="6.72342">
        <ele>1734.99</ele>
        <time>2018-09-09T13:32:35Z</time>
      </trkpt>
      <trkpt lat="45.69654" lon="6.72364">
        <ele>1737.47</ele>
        <time>2018-09-09T13:32:36Z</time>
      </trkpt>
      <trkpt lat="45.69664" lon="6.72387">
        <ele>1738.91</ele>
        <time>2018-09-09T13:32:37Z</time>
      </trkpt>
      <trkpt lat="45.69682" lon="6.72429">
        <ele>1742.7</ele>
        <time>2018-09-09T13:32:39Z</time>
      </trkpt>
      <trkpt lat="45.69696" lon="6.72466">
        <ele>1745.77</ele>
        <time>2018-09-09T13:32:41Z</time>
      </trkpt>
      <trkpt lat="45.69707" lon="6.72495">
        <ele>1748.77</ele>
        <time>2018-09-09T13:32:43Z</time>
      </trkpt>
      <trkpt lat="45.69727" lon="6.72516">
        <ele>1751.18</ele>
        <time>2018-09-09T13:32:46Z</time>
      </trkpt>
      <trkpt lat="45.69753" lon="6.72525">
        <ele>1752.49</ele>
        <time>2018-09-09T13:32:49Z</time>
      </trkpt>
      <trkpt lat="45.69773" lon="6.72531">
        <ele>1753.44</ele>
        <time>2018-09-09T13:32:51Z</time>
      </trkpt>
      <trkpt lat="45.69799" lon="6.72527">
        <ele>1756.25</ele>
        <time>2018-09-09T13:32:53Z</time>
      </trkpt>
      <trkpt lat="45.69815" lon="6.72515">
        <ele>1757.42</ele>
        <time>2018-09-09T13:32:55Z</time>
      </trkpt>
      <trkpt lat="45.69823" lon="6.72484">
        <ele>1756.82</ele>
        <time>2018-09-09T13:32:57Z</time>
      </trkpt>
      <trkpt lat="45.69813" lon="6.72442">
        <ele>1758.17</ele>
        <time>2018-09-09T13:32:59Z</time>
      </trkpt>
      <trkpt lat="45.69774" lon="6.72423">
        <ele>1760.52</ele>
        <time>2018-09-09T13:33:00Z</time>
      </trkpt>
      <trkpt lat="45.6976" lon="6.72406">
        <ele>1761.93</ele>
        <time>2018-09-09T13:33:01Z</time>
      </trkpt>
      <trkpt lat="45.69745" lon="6.72366">
        <ele>1763.6</ele>
        <time>2018-09-09T13:33:03Z</time>
      </trkpt>
      <trkpt lat="45.69752" lon="6.72323">
        <ele>1764.45</ele>
        <time>2018-09-09T13:33:05Z</time>
      </trkpt>
      <trkpt lat="45.6977" lon="6.7228">
        <ele>1766.13</ele>
        <time>2018-09-09T13:33:07Z</time>
      </trkpt>
      <trkpt lat="45.69773" lon="6.72235">
        <ele>1766.99</ele>
        <time>2018-09-09T13:33:09Z</time>
      </trkpt>
      <trkpt lat="45.69756" lon="6.72193">
        <ele>1769.09</ele>
        <time>2018-09-09T13:33:11Z</time>
      </trkpt>
      <trkpt lat="45.6973" lon="6.7216">
        <ele>1770.4</ele>
        <time>2018-09-09T13:33:13Z</time>
      </trkpt>
      <trkpt lat="45.69731" lon="6.72123">
        <ele>1773.04</ele>
        <time>2018-09-09T13:33:15Z</time>
      </trkpt>
      <trkpt lat="45.69737" lon="6.72075">
        <ele>1775.8</ele>
        <time>2018-09-09T13:33:17Z</time>
      </trkpt>
      <trkpt lat="45.69739" lon="6.72046">
        <ele>1776.31</ele>
        <time>2018-09-09T13:33:18Z</time>
      </trkpt>
      <trkpt lat="45.69742" lon="6.72017">
        <ele>1777.16</ele>
        <time>2018-09-09T13:33:19Z</time>
      </trkpt>
      <trkpt lat="45.69742" lon="6.71989">
        <ele>1778.12</ele>
        <time>2018-09-09T13:33:20Z</time>
      </trkpt>
      <trkpt lat="45.69737" lon="6.71964">
        <ele>1779.11</ele>
        <time>2018-09-09T13:33:21Z</time>
      </trkpt>
      <trkpt lat="45.69713" lon="6.71929">
        <ele>1780.89</ele>
        <time>2018-09-09T13:33:23Z</time>
      </trkpt>
      <trkpt lat="45.69694" lon="6.71918">
        <ele>1782.74</ele>
        <time>2018-09-09T13:33:24Z</time>
      </trkpt>
      <trkpt lat="45.69674" lon="6.71905">
        <ele>1783.99</ele>
        <time>2018-09-09T13:33:25Z</time>
      </trkpt>
      <trkpt lat="45.69653" lon="6.71892">
        <ele>1785.07</ele>
        <time>2018-09-09T13:33:26Z</time>
      </trkpt>
      <trkpt lat="45.69633" lon="6.71878">
        <ele>1786.09</ele>
        <time>2018-09-09T13:33:27Z</time>
      </trkpt>
      <trkpt lat="45.69615" lon="6.71867">
        <ele>1787.8</ele>
        <time>2018-09-09T13:33:28Z</time>
      </trkpt>
      <trkpt lat="45.69584" lon="6.71841">
        <ele>1788.47</ele>
        <time>2018-09-09T13:33:30Z</time>
      </trkpt>
      <trkpt lat="45.69574" lon="6.7179">
        <ele>1790.84</ele>
        <time>2018-09-09T13:33:32Z</time>
      </trkpt>
      <trkpt lat="45.69572" lon="6.71763">
        <ele>1792.02</ele>
        <time>2018-09-09T13:33:33Z</time>
      </trkpt>
      <trkpt lat="45.69573" lon="6.71719">
        <ele>1793.89</ele>
        <time>2018-09-09T13:33:35Z</time>
      </trkpt>
      <trkpt lat="45.69588" lon="6.71683">
        <ele>1794.26</ele>
        <time>2018-09-09T13:33:37Z</time>
      </trkpt>
      <trkpt lat="45.69582" lon="6.7165">
        <ele>1795.21</ele>
        <time>2018-09-09T13:33:39Z</time>
      </trkpt>
      <trkpt lat="45.6956" lon="6.71629">
        <ele>1798.02</ele>
        <time>2018-09-09T13:33:41Z</time>
      </trkpt>
      <trkpt lat="45.69531" lon="6.71637">
        <ele>1800.8</ele>
        <time>2018-09-09T13:33:43Z</time>
      </trkpt>
      <trkpt lat="45.69506" lon="6.71653">
        <ele>1802.16</ele>
        <time>2018-09-09T13:33:45Z</time>
      </trkpt>
      <trkpt lat="45.69486" lon="6.7166">
        <ele>1803.2</ele>
        <time>2018-09-09T13:33:47Z</time>
      </trkpt>
      <trkpt lat="45.69467" lon="6.71657">
        <ele>1804.2</ele>
        <time>2018-09-09T13:33:49Z</time>
      </trkpt>
      <trkpt lat="45.6945" lon="6.71641">
        <ele>1806.11</ele>
        <time>2018-09-09T13:33:51Z</time>
      </trkpt>
      <trkpt lat="45.69438" lon="6.71618">
        <ele>1807.89</ele>
        <time>2018-09-09T13:33:53Z</time>
      </trkpt>
      <trkpt lat="45.69434" lon="6.7159">
        <ele>1809.38</ele>
        <time>2018-09-09T13:33:55Z</time>
      </trkpt>
      <trkpt lat="45.69441" lon="6.71561">
        <ele>1810.43</ele>
        <time>2018-09-09T13:33:57Z</time>
      </trkpt>
      <trkpt lat="45.69449" lon="6.71533">
        <ele>1811.43</ele>
        <time>2018-09-09T13:33:59Z</time>
      </trkpt>
      <trkpt lat="45.6945" lon="6.71499">
        <ele>1812.22</ele>
        <time>2018-09-09T13:34:01Z</time>
      </trkpt>
      <trkpt lat="45.69443" lon="6.71451">
        <ele>1814.11</ele>
        <time>2018-09-09T13:34:03Z</time>
      </trkpt>
      <trkpt lat="45.69437" lon="6.71424">
        <ele>1815.81</ele>
        <time>2018-09-09T13:34:04Z</time>
      </trkpt>
      <trkpt lat="45.69427" lon="6.71395">
        <ele>1817.01</ele>
        <time>2018-09-09T13:34:05Z</time>
      </trkpt>
      <trkpt lat="45.69416" lon="6.71363">
        <ele>1818.78</ele>
        <time>2018-09-09T13:34:06Z</time>
      </trkpt>
      <trkpt lat="45.69406" lon="6.71332">
        <ele>1820</ele>
        <time>2018-09-09T13:34:07Z</time>
      </trkpt>
      <trkpt lat="45.69398" lon="6.71299">
        <ele>1821.77</ele>
        <time>2018-09-09T13:34:08Z</time>
      </trkpt>
      <trkpt lat="45.69393" lon="6.71264">
        <ele>1823</ele>
        <time>2018-09-09T13:34:09Z</time>
      </trkpt>
      <trkpt lat="45.69389" lon="6.71228">
        <ele>1824.77</ele>
        <time>2018-09-09T13:34:10Z</time>
      </trkpt>
      <trkpt lat="45.69385" lon="6.71193">
        <ele>1826.7</ele>
        <time>2018-09-09T13:34:11Z</time>
      </trkpt>
      <trkpt lat="45.69381" lon="6.71157">
        <ele>1828.68</ele>
        <time>2018-09-09T13:34:12Z</time>
      </trkpt>
      <trkpt lat="45.69377" lon="6.71121">
        <ele>1830.68</ele>
        <time>2018-09-09T13:34:13Z</time>
      </trkpt>
      <trkpt lat="45.69373" lon="6.71085">
        <ele>1832.67</ele>
        <time>2018-09-09T13:34:14Z</time>
      </trkpt>
      <trkpt lat="45.69369" lon="6.7105">
        <ele>1834.67</ele>
        <time>2018-09-09T13:34:15Z</time>
      </trkpt>
      <trkpt lat="45.69365" lon="6.71015">
        <ele>1836.67</ele>
        <time>2018-09-09T13:34:16Z</time>
      </trkpt>
      <trkpt lat="45.6936" lon="6.7098">
        <ele>1839.37</ele>
        <time>2018-09-09T13:34:17Z</time>
      </trkpt>
      <trkpt lat="45.69356" lon="6.70944">
        <ele>1841.58</ele>
        <time>2018-09-09T13:34:18Z</time>
      </trkpt>
      <trkpt lat="45.6935" lon="6.70909">
        <ele>1843.65</ele>
        <time>2018-09-09T13:34:19Z</time>
      </trkpt>
      <trkpt lat="45.69346" lon="6.70874">
        <ele>1846.37</ele>
        <time>2018-09-09T13:34:20Z</time>
      </trkpt>
      <trkpt lat="45.69342" lon="6.70839">
        <ele>1848.58</ele>
        <time>2018-09-09T13:34:21Z</time>
      </trkpt>
      <trkpt lat="45.69338" lon="6.70805">
        <ele>1850.65</ele>
        <time>2018-09-09T13:34:22Z</time>
      </trkpt>
      <trkpt lat="45.69334" lon="6.70771">
        <ele>1852.67</ele>
        <time>2018-09-09T13:34:23Z</time>
      </trkpt>
      <trkpt lat="45.6933" lon="6.70735">
        <ele>1853.97</ele>
        <time>2018-09-09T13:34:24Z</time>
      </trkpt>
      <trkpt lat="45.69326" lon="6.707">
        <ele>1855.76</ele>
        <time>2018-09-09T13:34:25Z</time>
      </trkpt>
      <trkpt lat="45.69323" lon="6.70665">
        <ele>1857.7</ele>
        <time>2018-09-09T13:34:26Z</time>
      </trkpt>
      <trkpt lat="45.69318" lon="6.70631">
        <ele>1858.98</ele>
        <time>2018-09-09T13:34:27Z</time>
      </trkpt>
      <trkpt lat="45.69314" lon="6.70595">
        <ele>1860.07</ele>
        <time>2018-09-09T13:34:28Z</time>
      </trkpt>
      <trkpt lat="45.69311" lon="6.70559">
        <ele>1861.09</ele>
        <time>2018-09-09T13:34:29Z</time>
      </trkpt>
      <trkpt lat="45.69307" lon="6.70523">
        <ele>1862.1</ele>
        <time>2018-09-09T13:34:30Z</time>
      </trkpt>
      <trkpt lat="45.69303" lon="6.70487">
        <ele>1863.1</ele>
        <time>2018-09-09T13:34:31Z</time>
      </trkpt>
      <trkpt lat="45.69298" lon="6.70452">
        <ele>1864.8</ele>
        <time>2018-09-09T13:34:32Z</time>
      </trkpt>
      <trkpt lat="45.69291" lon="6.70417">
        <ele>1866.71</ele>
        <time>2018-09-09T13:34:33Z</time>
      </trkpt>
      <trkpt lat="45.69282" lon="6.70384">
        <ele>1868.69</ele>
        <time>2018-09-09T13:34:34Z</time>
      </trkpt>
      <trkpt lat="45.69273" lon="6.70352">
        <ele>1869.98</ele>
        <time>2018-09-09T13:34:35Z</time>
      </trkpt>
      <trkpt lat="45.69262" lon="6.7032">
        <ele>1871.06</ele>
        <time>2018-09-09T13:34:36Z</time>
      </trkpt>
      <trkpt lat="45.69251" lon="6.7029">
        <ele>1872.09</ele>
        <time>2018-09-09T13:34:37Z</time>
      </trkpt>
      <trkpt lat="45.69241" lon="6.7026">
        <ele>1873.8</ele>
        <time>2018-09-09T13:34:38Z</time>
      </trkpt>
      <trkpt lat="45.69232" lon="6.70233">
        <ele>1875.01</ele>
        <time>2018-09-09T13:34:39Z</time>
      </trkpt>
      <trkpt lat="45.69225" lon="6.70207">
        <ele>1876.08</ele>
        <time>2018-09-09T13:34:40Z</time>
      </trkpt>
      <trkpt lat="45.69215" lon="6.7017">
        <ele>1882.23</ele>
        <time>2018-09-09T13:34:42Z</time>
      </trkpt>
      <trkpt lat="45.69213" lon="6.70136">
        <ele>1886.63</ele>
        <time>2018-09-09T13:34:44Z</time>
      </trkpt>
      <trkpt lat="45.69214" lon="6.70105">
        <ele>1889.06</ele>
        <time>2018-09-09T13:34:46Z</time>
      </trkpt>
      <trkpt lat="45.69218" lon="6.70078">
        <ele>1892.01</ele>
        <time>2018-09-09T13:34:48Z</time>
      </trkpt>
      <trkpt lat="45.69224" lon="6.70053">
        <ele>1894.09</ele>
        <time>2018-09-09T13:34:50Z</time>
      </trkpt>
      <trkpt lat="45.69232" lon="6.70028">
        <ele>1896.1</ele>
        <time>2018-09-09T13:34:52Z</time>
      </trkpt>
      <trkpt lat="45.69244" lon="6.69996">
        <ele>1896.49</ele>
        <time>2018-09-09T13:34:54Z</time>
      </trkpt>
      <trkpt lat="45.69263" lon="6.69958">
        <ele>1900.66</ele>
        <time>2018-09-09T13:34:56Z</time>
      </trkpt>
      <trkpt lat="45.69273" lon="6.69936">
        <ele>1901.97</ele>
        <time>2018-09-09T13:34:57Z</time>
      </trkpt>
      <trkpt lat="45.69284" lon="6.6991">
        <ele>1903.06</ele>
        <time>2018-09-09T13:34:58Z</time>
      </trkpt>
      <trkpt lat="45.69295" lon="6.69885">
        <ele>1904.79</ele>
        <time>2018-09-09T13:34:59Z</time>
      </trkpt>
      <trkpt lat="45.69306" lon="6.69859">
        <ele>1906.71</ele>
        <time>2018-09-09T13:35:00Z</time>
      </trkpt>
      <trkpt lat="45.69316" lon="6.69834">
        <ele>1909.38</ele>
        <time>2018-09-09T13:35:01Z</time>
      </trkpt>
      <trkpt lat="45.69326" lon="6.69809">
        <ele>1910.89</ele>
        <time>2018-09-09T13:35:02Z</time>
      </trkpt>
      <trkpt lat="45.69338" lon="6.69782">
        <ele>1912.74</ele>
        <time>2018-09-09T13:35:03Z</time>
      </trkpt>
      <trkpt lat="45.6935" lon="6.69754">
        <ele>1913.99</ele>
        <time>2018-09-09T13:35:04Z</time>
      </trkpt>
      <trkpt lat="45.69359" lon="6.69722">
        <ele>1916.47</ele>
        <time>2018-09-09T13:35:05Z</time>
      </trkpt>
      <trkpt lat="45.69368" lon="6.69691">
        <ele>1918.61</ele>
        <time>2018-09-09T13:35:06Z</time>
      </trkpt>
      <trkpt lat="45.69375" lon="6.69659">
        <ele>1920.66</ele>
        <time>2018-09-09T13:35:07Z</time>
      </trkpt>
      <trkpt lat="45.69382" lon="6.69625">
        <ele>1921.27</ele>
        <time>2018-09-09T13:35:08Z</time>
      </trkpt>
      <trkpt lat="45.69388" lon="6.6959">
        <ele>1922.15</ele>
        <time>2018-09-09T13:35:09Z</time>
      </trkpt>
      <trkpt lat="45.69391" lon="6.69554">
        <ele>1923.82</ele>
        <time>2018-09-09T13:35:10Z</time>
      </trkpt>
      <trkpt lat="45.69394" lon="6.6952">
        <ele>1925.02</ele>
        <time>2018-09-09T13:35:11Z</time>
      </trkpt>
      <trkpt lat="45.69394" lon="6.69487">
        <ele>1925.38</ele>
        <time>2018-09-09T13:35:12Z</time>
      </trkpt>
      <trkpt lat="45.6939" lon="6.69453">
        <ele>1928.28</ele>
        <time>2018-09-09T13:35:13Z</time>
      </trkpt>
      <trkpt lat="45.69385" lon="6.6942">
        <ele>1931.26</ele>
        <time>2018-09-09T13:35:14Z</time>
      </trkpt>
      <trkpt lat="45.69377" lon="6.69389">
        <ele>1933.55</ele>
        <time>2018-09-09T13:35:15Z</time>
      </trkpt>
      <trkpt lat="45.69366" lon="6.6936">
        <ele>1935.64</ele>
        <time>2018-09-09T13:35:16Z</time>
      </trkpt>
      <trkpt lat="45.69353" lon="6.69332">
        <ele>1937.66</ele>
        <time>2018-09-09T13:35:17Z</time>
      </trkpt>
      <trkpt lat="45.69339" lon="6.69306">
        <ele>1938.97</ele>
        <time>2018-09-09T13:35:18Z</time>
      </trkpt>
      <trkpt lat="45.69323" lon="6.69282">
        <ele>1940.76</ele>
        <time>2018-09-09T13:35:19Z</time>
      </trkpt>
      <trkpt lat="45.69306" lon="6.69264">
        <ele>1942.7</ele>
        <time>2018-09-09T13:35:20Z</time>
      </trkpt>
      <trkpt lat="45.69288" lon="6.69251">
        <ele>1944.68</ele>
        <time>2018-09-09T13:35:21Z</time>
      </trkpt>
      <trkpt lat="45.6927" lon="6.69246">
        <ele>1947.38</ele>
        <time>2018-09-09T13:35:22Z</time>
      </trkpt>
      <trkpt lat="45.69234" lon="6.69243">
        <ele>1950.04</ele>
        <time>2018-09-09T13:35:24Z</time>
      </trkpt>
      <trkpt lat="45.69201" lon="6.69235">
        <ele>1953.01</ele>
        <time>2018-09-09T13:35:26Z</time>
      </trkpt>
      <trkpt lat="45.69177" lon="6.69216">
        <ele>1956</ele>
        <time>2018-09-09T13:35:28Z</time>
      </trkpt>
      <trkpt lat="45.69162" lon="6.69185">
        <ele>1959</ele>
        <time>2018-09-09T13:35:30Z</time>
      </trkpt>
      <trkpt lat="45.69153" lon="6.69155">
        <ele>1959.48</ele>
        <time>2018-09-09T13:35:32Z</time>
      </trkpt>
      <trkpt lat="45.69148" lon="6.6913">
        <ele>1960.44</ele>
        <time>2018-09-09T13:35:34Z</time>
      </trkpt>
      <trkpt lat="45.6914" lon="6.69097">
        <ele>1960.53</ele>
        <time>2018-09-09T13:35:37Z</time>
      </trkpt>
      <trkpt lat="45.69142" lon="6.69067">
        <ele>1964.04</ele>
        <time>2018-09-09T13:35:41Z</time>
      </trkpt>
      <trkpt lat="45.69133" lon="6.69041">
        <ele>1965.8</ele>
        <time>2018-09-09T13:37:46Z</time>
      </trkpt>
      <trkpt lat="45.69128" lon="6.69011">
        <ele>1964.56</ele>
        <time>2018-09-09T13:37:50Z</time>
      </trkpt>
      <trkpt lat="45.69123" lon="6.6898">
        <ele>1964.53</ele>
        <time>2018-09-09T13:37:53Z</time>
      </trkpt>
      <trkpt lat="45.69126" lon="6.68942">
        <ele>1964.26</ele>
        <time>2018-09-09T13:37:56Z</time>
      </trkpt>
      <trkpt lat="45.69135" lon="6.68909">
        <ele>1964.25</ele>
        <time>2018-09-09T13:37:59Z</time>
      </trkpt>
      <trkpt lat="45.69135" lon="6.6888">
        <ele>1963.55</ele>
        <time>2018-09-09T13:38:02Z</time>
      </trkpt>
      <trkpt lat="45.69133" lon="6.68854">
        <ele>1963.8</ele>
        <time>2018-09-09T13:38:05Z</time>
      </trkpt>
      <trkpt lat="45.69137" lon="6.68821">
        <ele>1964.45</ele>
        <time>2018-09-09T13:38:08Z</time>
      </trkpt>
      <trkpt lat="45.69147" lon="6.68787">
        <ele>1963.56</ele>
        <time>2018-09-09T13:38:11Z</time>
      </trkpt>
      <trkpt lat="45.69148" lon="6.68761">
        <ele>1962.62</ele>
        <time>2018-09-09T13:38:13Z</time>
      </trkpt>
      <trkpt lat="45.69137" lon="6.68731">
        <ele>1962.53</ele>
        <time>2018-09-09T13:38:16Z</time>
      </trkpt>
      <trkpt lat="45.6912" lon="6.68712">
        <ele>1961.83</ele>
        <time>2018-09-09T13:38:19Z</time>
      </trkpt>
      <trkpt lat="45.69109" lon="6.68685">
        <ele>1961.48</ele>
        <time>2018-09-09T13:38:22Z</time>
      </trkpt>
      <trkpt lat="45.69111" lon="6.68656">
        <ele>1960.83</ele>
        <time>2018-09-09T13:38:24Z</time>
      </trkpt>
      <trkpt lat="45.69114" lon="6.6862">
        <ele>1958.95</ele>
        <time>2018-09-09T13:38:26Z</time>
      </trkpt>
      <trkpt lat="45.69116" lon="6.68582">
        <ele>1956.96</ele>
        <time>2018-09-09T13:38:28Z</time>
      </trkpt>
      <trkpt lat="45.69118" lon="6.68541">
        <ele>1955.87</ele>
        <time>2018-09-09T13:38:30Z</time>
      </trkpt>
      <trkpt lat="45.69123" lon="6.68501">
        <ele>1954.65</ele>
        <time>2018-09-09T13:38:32Z</time>
      </trkpt>
      <trkpt lat="45.69136" lon="6.6847">
        <ele>1953.63</ele>
        <time>2018-09-09T13:38:34Z</time>
      </trkpt>
      <trkpt lat="45.6915" lon="6.68446">
        <ele>1952.84</ele>
        <time>2018-09-09T13:38:36Z</time>
      </trkpt>
      <trkpt lat="45.69159" lon="6.68422">
        <ele>1951.86</ele>
        <time>2018-09-09T13:38:38Z</time>
      </trkpt>
      <trkpt lat="45.69156" lon="6.68396">
        <ele>1950.65</ele>
        <time>2018-09-09T13:38:40Z</time>
      </trkpt>
      <trkpt lat="45.69143" lon="6.68372">
        <ele>1949.63</ele>
        <time>2018-09-09T13:38:42Z</time>
      </trkpt>
      <trkpt lat="45.6913" lon="6.68353">
        <ele>1948.63</ele>
        <time>2018-09-09T13:38:44Z</time>
      </trkpt>
      <trkpt lat="45.69118" lon="6.68329">
        <ele>1947.63</ele>
        <time>2018-09-09T13:38:46Z</time>
      </trkpt>
      <trkpt lat="45.6911" lon="6.68302">
        <ele>1945.93</ele>
        <time>2018-09-09T13:38:48Z</time>
      </trkpt>
      <trkpt lat="45.691" lon="6.68272">
        <ele>1943.96</ele>
        <time>2018-09-09T13:38:50Z</time>
      </trkpt>
      <trkpt lat="45.69086" lon="6.68244">
        <ele>1942.66</ele>
        <time>2018-09-09T13:38:52Z</time>
      </trkpt>
      <trkpt lat="45.69064" lon="6.68224">
        <ele>1941.84</ele>
        <time>2018-09-09T13:38:54Z</time>
      </trkpt>
      <trkpt lat="45.69042" lon="6.68206">
        <ele>1940.86</ele>
        <time>2018-09-09T13:38:56Z</time>
      </trkpt>
      <trkpt lat="45.69022" lon="6.68187">
        <ele>1939.86</ele>
        <time>2018-09-09T13:38:58Z</time>
      </trkpt>
      <trkpt lat="45.6901" lon="6.6816">
        <ele>1938.65</ele>
        <time>2018-09-09T13:39:00Z</time>
      </trkpt>
      <trkpt lat="45.69006" lon="6.68127">
        <ele>1937.84</ele>
        <time>2018-09-09T13:39:02Z</time>
      </trkpt>
      <trkpt lat="45.69007" lon="6.68093">
        <ele>1936.86</ele>
        <time>2018-09-09T13:39:04Z</time>
      </trkpt>
      <trkpt lat="45.69016" lon="6.68059">
        <ele>1935.86</ele>
        <time>2018-09-09T13:39:06Z</time>
      </trkpt>
      <trkpt lat="45.6903" lon="6.68032">
        <ele>1933.95</ele>
        <time>2018-09-09T13:39:08Z</time>
      </trkpt>
      <trkpt lat="45.69048" lon="6.68012">
        <ele>1932.66</ele>
        <time>2018-09-09T13:39:10Z</time>
      </trkpt>
      <trkpt lat="45.6907" lon="6.67999">
        <ele>1930.02</ele>
        <time>2018-09-09T13:39:12Z</time>
      </trkpt>
      <trkpt lat="45.69095" lon="6.67999">
        <ele>1928.67</ele>
        <time>2018-09-09T13:39:14Z</time>
      </trkpt>
      <trkpt lat="45.69116" lon="6.68011">
        <ele>1926.93</ele>
        <time>2018-09-09T13:39:16Z</time>
      </trkpt>
      <trkpt lat="45.69139" lon="6.68034">
        <ele>1925.87</ele>
        <time>2018-09-09T13:39:18Z</time>
      </trkpt>
      <trkpt lat="45.69165" lon="6.68059">
        <ele>1924.86</ele>
        <time>2018-09-09T13:39:20Z</time>
      </trkpt>
      <trkpt lat="45.69191" lon="6.68089">
        <ele>1922.95</ele>
        <time>2018-09-09T13:39:22Z</time>
      </trkpt>
      <trkpt lat="45.69218" lon="6.68124">
        <ele>1920.96</ele>
        <time>2018-09-09T13:39:24Z</time>
      </trkpt>
      <trkpt lat="45.69231" lon="6.68144">
        <ele>1919.96</ele>
        <time>2018-09-09T13:39:25Z</time>
      </trkpt>
      <trkpt lat="45.69244" lon="6.68161">
        <ele>1918.96</ele>
        <time>2018-09-09T13:39:26Z</time>
      </trkpt>
      <trkpt lat="45.69273" lon="6.6819">
        <ele>1917.45</ele>
        <time>2018-09-09T13:39:28Z</time>
      </trkpt>
      <trkpt lat="45.69302" lon="6.68208">
        <ele>1915</ele>
        <time>2018-09-09T13:39:30Z</time>
      </trkpt>
      <trkpt lat="45.69332" lon="6.68224">
        <ele>1914.57</ele>
        <time>2018-09-09T13:39:32Z</time>
      </trkpt>
      <trkpt lat="45.69359" lon="6.6824">
        <ele>1913.83</ele>
        <time>2018-09-09T13:39:34Z</time>
      </trkpt>
      <trkpt lat="45.69383" lon="6.68259">
        <ele>1912.86</ele>
        <time>2018-09-09T13:39:36Z</time>
      </trkpt>
      <trkpt lat="45.69405" lon="6.68276">
        <ele>1910.95</ele>
        <time>2018-09-09T13:39:38Z</time>
      </trkpt>
      <trkpt lat="45.69424" lon="6.68278">
        <ele>1910.57</ele>
        <time>2018-09-09T13:39:40Z</time>
      </trkpt>
      <trkpt lat="45.69435" lon="6.68253">
        <ele>1908.01</ele>
        <time>2018-09-09T13:39:43Z</time>
      </trkpt>
      <trkpt lat="45.69416" lon="6.68235">
        <ele>1907.68</ele>
        <time>2018-09-09T13:39:44Z</time>
      </trkpt>
      <trkpt lat="45.69392" lon="6.68216">
        <ele>1906.63</ele>
        <time>2018-09-09T13:39:46Z</time>
      </trkpt>
      <trkpt lat="45.69368" lon="6.6819">
        <ele>1904.02</ele>
        <time>2018-09-09T13:39:48Z</time>
      </trkpt>
      <trkpt lat="45.69346" lon="6.68165">
        <ele>1901.97</ele>
        <time>2018-09-09T13:39:50Z</time>
      </trkpt>
      <trkpt lat="45.69332" lon="6.68136">
        <ele>1899.96</ele>
        <time>2018-09-09T13:39:52Z</time>
      </trkpt>
      <trkpt lat="45.69328" lon="6.68101">
        <ele>1897.96</ele>
        <time>2018-09-09T13:39:54Z</time>
      </trkpt>
      <trkpt lat="45.69324" lon="6.68067">
        <ele>1895.96</ele>
        <time>2018-09-09T13:39:56Z</time>
      </trkpt>
      <trkpt lat="45.69316" lon="6.68032">
        <ele>1893.96</ele>
        <time>2018-09-09T13:39:58Z</time>
      </trkpt>
      <trkpt lat="45.69307" lon="6.67995">
        <ele>1891.26</ele>
        <time>2018-09-09T13:40:00Z</time>
      </trkpt>
      <trkpt lat="45.69295" lon="6.67965">
        <ele>1888.99</ele>
        <time>2018-09-09T13:40:02Z</time>
      </trkpt>
      <trkpt lat="45.69274" lon="6.67945">
        <ele>1886.05</ele>
        <time>2018-09-09T13:40:04Z</time>
      </trkpt>
      <trkpt lat="45.69247" lon="6.67934">
        <ele>1883.27</ele>
        <time>2018-09-09T13:40:06Z</time>
      </trkpt>
      <trkpt lat="45.69222" lon="6.67912">
        <ele>1880.08</ele>
        <time>2018-09-09T13:40:08Z</time>
      </trkpt>
      <trkpt lat="45.69206" lon="6.67874">
        <ele>1877.97</ele>
        <time>2018-09-09T13:40:10Z</time>
      </trkpt>
      <trkpt lat="45.69187" lon="6.67836">
        <ele>1875.26</ele>
        <time>2018-09-09T13:40:12Z</time>
      </trkpt>
      <trkpt lat="45.69164" lon="6.67797">
        <ele>1872.99</ele>
        <time>2018-09-09T13:40:14Z</time>
      </trkpt>
      <trkpt lat="45.69141" lon="6.67761">
        <ele>1870.26</ele>
        <time>2018-09-09T13:40:16Z</time>
      </trkpt>
      <trkpt lat="45.69122" lon="6.67727">
        <ele>1868.69</ele>
        <time>2018-09-09T13:40:18Z</time>
      </trkpt>
      <trkpt lat="45.69112" lon="6.67691">
        <ele>1867.84</ele>
        <time>2018-09-09T13:40:20Z</time>
      </trkpt>
      <trkpt lat="45.69107" lon="6.6765">
        <ele>1865.95</ele>
        <time>2018-09-09T13:40:22Z</time>
      </trkpt>
      <trkpt lat="45.69099" lon="6.67606">
        <ele>1863.96</ele>
        <time>2018-09-09T13:40:24Z</time>
      </trkpt>
      <trkpt lat="45.69092" lon="6.67561">
        <ele>1861.05</ele>
        <time>2018-09-09T13:40:26Z</time>
      </trkpt>
      <trkpt lat="45.69088" lon="6.67514">
        <ele>1858.27</ele>
        <time>2018-09-09T13:40:28Z</time>
      </trkpt>
      <trkpt lat="45.69091" lon="6.67472">
        <ele>1855.99</ele>
        <time>2018-09-09T13:40:30Z</time>
      </trkpt>
      <trkpt lat="45.69098" lon="6.67433">
        <ele>1853.96</ele>
        <time>2018-09-09T13:40:32Z</time>
      </trkpt>
      <trkpt lat="45.6911" lon="6.67401">
        <ele>1851.96</ele>
        <time>2018-09-09T13:40:34Z</time>
      </trkpt>
      <trkpt lat="45.69115" lon="6.67369">
        <ele>1850.66</ele>
        <time>2018-09-09T13:40:36Z</time>
      </trkpt>
      <trkpt lat="45.6912" lon="6.67333">
        <ele>1848.93</ele>
        <time>2018-09-09T13:40:38Z</time>
      </trkpt>
      <trkpt lat="45.69136" lon="6.67303">
        <ele>1847.17</ele>
        <time>2018-09-09T13:40:40Z</time>
      </trkpt>
      <trkpt lat="45.6916" lon="6.67285">
        <ele>1844.07</ele>
        <time>2018-09-09T13:40:42Z</time>
      </trkpt>
      <trkpt lat="45.69181" lon="6.67266">
        <ele>1842.67</ele>
        <time>2018-09-09T13:40:44Z</time>
      </trkpt>
      <trkpt lat="45.69196" lon="6.67238">
        <ele>1840.93</ele>
        <time>2018-09-09T13:40:46Z</time>
      </trkpt>
      <trkpt lat="45.69211" lon="6.67205">
        <ele>1838.05</ele>
        <time>2018-09-09T13:40:48Z</time>
      </trkpt>
      <trkpt lat="45.69229" lon="6.67176">
        <ele>1835.97</ele>
        <time>2018-09-09T13:40:50Z</time>
      </trkpt>
      <trkpt lat="45.69246" lon="6.67151">
        <ele>1833.96</ele>
        <time>2018-09-09T13:40:52Z</time>
      </trkpt>
      <trkpt lat="45.69255" lon="6.67121">
        <ele>1832.87</ele>
        <time>2018-09-09T13:40:54Z</time>
      </trkpt>
      <trkpt lat="45.69262" lon="6.67088">
        <ele>1830.95</ele>
        <time>2018-09-09T13:40:56Z</time>
      </trkpt>
      <trkpt lat="45.69274" lon="6.67061">
        <ele>1828.26</ele>
        <time>2018-09-09T13:40:58Z</time>
      </trkpt>
      <trkpt lat="45.6929" lon="6.67037">
        <ele>1825.99</ele>
        <time>2018-09-09T13:41:00Z</time>
      </trkpt>
      <trkpt lat="45.69301" lon="6.6701">
        <ele>1823.05</ele>
        <time>2018-09-09T13:41:02Z</time>
      </trkpt>
      <trkpt lat="45.69308" lon="6.6698">
        <ele>1821.88</ele>
        <time>2018-09-09T13:41:04Z</time>
      </trkpt>
      <trkpt lat="45.69314" lon="6.6695">
        <ele>1820.86</ele>
        <time>2018-09-09T13:41:06Z</time>
      </trkpt>
      <trkpt lat="45.69319" lon="6.66925">
        <ele>1820.56</ele>
        <time>2018-09-09T13:41:08Z</time>
      </trkpt>
      <trkpt lat="45.69327" lon="6.66893">
        <ele>1819.83</ele>
        <time>2018-09-09T13:41:11Z</time>
      </trkpt>
      <trkpt lat="45.69334" lon="6.66858">
        <ele>1818.63</ele>
        <time>2018-09-09T13:41:14Z</time>
      </trkpt>
      <trkpt lat="45.69341" lon="6.66828">
        <ele>1817.63</ele>
        <time>2018-09-09T13:41:16Z</time>
      </trkpt>
      <trkpt lat="45.69349" lon="6.66795">
        <ele>1815.93</ele>
        <time>2018-09-09T13:41:18Z</time>
      </trkpt>
      <trkpt lat="45.69354" lon="6.66759">
        <ele>1813.96</ele>
        <time>2018-09-09T13:41:20Z</time>
      </trkpt>
      <trkpt lat="45.69357" lon="6.66723">
        <ele>1812.87</ele>
        <time>2018-09-09T13:41:22Z</time>
      </trkpt>
      <trkpt lat="45.69356" lon="6.66689">
        <ele>1811.16</ele>
        <time>2018-09-09T13:41:24Z</time>
      </trkpt>
      <trkpt lat="45.69357" lon="6.66656">
        <ele>1809.68</ele>
        <time>2018-09-09T13:41:26Z</time>
      </trkpt>
      <trkpt lat="45.69364" lon="6.66626">
        <ele>1807.93</ele>
        <time>2018-09-09T13:41:28Z</time>
      </trkpt>
      <trkpt lat="45.69375" lon="6.666">
        <ele>1806.66</ele>
        <time>2018-09-09T13:41:30Z</time>
      </trkpt>
      <trkpt lat="45.69381" lon="6.66574">
        <ele>1804.93</ele>
        <time>2018-09-09T13:41:32Z</time>
      </trkpt>
      <trkpt lat="45.69391" lon="6.6655">
        <ele>1802.96</ele>
        <time>2018-09-09T13:41:34Z</time>
      </trkpt>
      <trkpt lat="45.69409" lon="6.66533">
        <ele>1800.96</ele>
        <time>2018-09-09T13:41:36Z</time>
      </trkpt>
      <trkpt lat="45.69431" lon="6.66516">
        <ele>1800.57</ele>
        <time>2018-09-09T13:41:38Z</time>
      </trkpt>
      <trkpt lat="45.69453" lon="6.66504">
        <ele>1797.31</ele>
        <time>2018-09-09T13:41:40Z</time>
      </trkpt>
      <trkpt lat="45.69477" lon="6.66497">
        <ele>1795.69</ele>
        <time>2018-09-09T13:41:42Z</time>
      </trkpt>
      <trkpt lat="45.69501" lon="6.66498">
        <ele>1793.03</ele>
        <time>2018-09-09T13:41:44Z</time>
      </trkpt>
      <trkpt lat="45.69523" lon="6.66509">
        <ele>1790.97</ele>
        <time>2018-09-09T13:41:46Z</time>
      </trkpt>
      <trkpt lat="45.69542" lon="6.66519">
        <ele>1788.96</ele>
        <time>2018-09-09T13:41:48Z</time>
      </trkpt>
      <trkpt lat="45.6956" lon="6.66513">
        <ele>1786.96</ele>
        <time>2018-09-09T13:41:50Z</time>
      </trkpt>
      <trkpt lat="45.69576" lon="6.6649">
        <ele>1785.66</ele>
        <time>2018-09-09T13:41:52Z</time>
      </trkpt>
      <trkpt lat="45.69588" lon="6.66459">
        <ele>1783.93</ele>
        <time>2018-09-09T13:41:54Z</time>
      </trkpt>
      <trkpt lat="45.69601" lon="6.6643">
        <ele>1781.96</ele>
        <time>2018-09-09T13:41:56Z</time>
      </trkpt>
      <trkpt lat="45.69618" lon="6.66403">
        <ele>1780.87</ele>
        <time>2018-09-09T13:41:58Z</time>
      </trkpt>
      <trkpt lat="45.6963" lon="6.66374">
        <ele>1778.95</ele>
        <time>2018-09-09T13:42:00Z</time>
      </trkpt>
      <trkpt lat="45.69631" lon="6.6634">
        <ele>1776.96</ele>
        <time>2018-09-09T13:42:02Z</time>
      </trkpt>
      <trkpt lat="45.69629" lon="6.66305">
        <ele>1774.75</ele>
        <time>2018-09-09T13:42:04Z</time>
      </trkpt>
      <trkpt lat="45.69627" lon="6.66277">
        <ele>1772.03</ele>
        <time>2018-09-09T13:42:06Z</time>
      </trkpt>
      <trkpt lat="45.6962" lon="6.6625">
        <ele>1771.09</ele>
        <time>2018-09-09T13:42:08Z</time>
      </trkpt>
      <trkpt lat="45.69615" lon="6.66222">
        <ele>1768.97</ele>
        <time>2018-09-09T13:42:10Z</time>
      </trkpt>
      <trkpt lat="45.69608" lon="6.66195">
        <ele>1766.96</ele>
        <time>2018-09-09T13:42:12Z</time>
      </trkpt>
      <trkpt lat="45.69599" lon="6.66169">
        <ele>1765.66</ele>
        <time>2018-09-09T13:42:14Z</time>
      </trkpt>
      <trkpt lat="45.69588" lon="6.66144">
        <ele>1763.72</ele>
        <time>2018-09-09T13:42:16Z</time>
      </trkpt>
      <trkpt lat="45.69576" lon="6.6612">
        <ele>1762.85</ele>
        <time>2018-09-09T13:42:18Z</time>
      </trkpt>
      <trkpt lat="45.69565" lon="6.66097">
        <ele>1760.95</ele>
        <time>2018-09-09T13:42:20Z</time>
      </trkpt>
      <trkpt lat="45.69553" lon="6.66072">
        <ele>1758.96</ele>
        <time>2018-09-09T13:42:22Z</time>
      </trkpt>
      <trkpt lat="45.6954" lon="6.66047">
        <ele>1757.17</ele>
        <time>2018-09-09T13:42:24Z</time>
      </trkpt>
      <trkpt lat="45.69526" lon="6.66024">
        <ele>1754.98</ele>
        <time>2018-09-09T13:42:26Z</time>
      </trkpt>
      <trkpt lat="45.69505" lon="6.66005">
        <ele>1752.96</ele>
        <time>2018-09-09T13:42:28Z</time>
      </trkpt>
      <trkpt lat="45.69475" lon="6.6598">
        <ele>1750.75</ele>
        <time>2018-09-09T13:42:30Z</time>
      </trkpt>
      <trkpt lat="45.69459" lon="6.65966">
        <ele>1749.2</ele>
        <time>2018-09-09T13:42:31Z</time>
      </trkpt>
      <trkpt lat="45.69443" lon="6.6595">
        <ele>1748.03</ele>
        <time>2018-09-09T13:42:32Z</time>
      </trkpt>
      <trkpt lat="45.6943" lon="6.65932">
        <ele>1746.28</ele>
        <time>2018-09-09T13:42:33Z</time>
      </trkpt>
      <trkpt lat="45.69416" lon="6.65912">
        <ele>1743.66</ele>
        <time>2018-09-09T13:42:34Z</time>
      </trkpt>
      <trkpt lat="45.69403" lon="6.65892">
        <ele>1741.47</ele>
        <time>2018-09-09T13:42:35Z</time>
      </trkpt>
      <trkpt lat="45.6939" lon="6.65873">
        <ele>1739.41</ele>
        <time>2018-09-09T13:42:36Z</time>
      </trkpt>
      <trkpt lat="45.69378" lon="6.65851">
        <ele>1738.1</ele>
        <time>2018-09-09T13:42:37Z</time>
      </trkpt>
      <trkpt lat="45.69366" lon="6.65831">
        <ele>1736.3</ele>
        <time>2018-09-09T13:42:38Z</time>
      </trkpt>
      <trkpt lat="45.69353" lon="6.65812">
        <ele>1734.36</ele>
        <time>2018-09-09T13:42:39Z</time>
      </trkpt>
      <trkpt lat="45.69329" lon="6.6578">
        <ele>1731.3</ele>
        <time>2018-09-09T13:42:41Z</time>
      </trkpt>
      <trkpt lat="45.69312" lon="6.65745">
        <ele>1728.29</ele>
        <time>2018-09-09T13:42:43Z</time>
      </trkpt>
      <trkpt lat="45.69292" lon="6.65711">
        <ele>1725.08</ele>
        <time>2018-09-09T13:42:45Z</time>
      </trkpt>
      <trkpt lat="45.69272" lon="6.65674">
        <ele>1722.06</ele>
        <time>2018-09-09T13:42:47Z</time>
      </trkpt>
      <trkpt lat="45.69259" lon="6.65655">
        <ele>1720.29</ele>
        <time>2018-09-09T13:42:48Z</time>
      </trkpt>
      <trkpt lat="45.69247" lon="6.65634">
        <ele>1718.36</ele>
        <time>2018-09-09T13:42:49Z</time>
      </trkpt>
      <trkpt lat="45.69235" lon="6.65612">
        <ele>1717.08</ele>
        <time>2018-09-09T13:42:50Z</time>
      </trkpt>
      <trkpt lat="45.69223" lon="6.65588">
        <ele>1715.3</ele>
        <time>2018-09-09T13:42:51Z</time>
      </trkpt>
      <trkpt lat="45.69213" lon="6.65564">
        <ele>1713.36</ele>
        <time>2018-09-09T13:42:52Z</time>
      </trkpt>
      <trkpt lat="45.69204" lon="6.6554">
        <ele>1712.08</ele>
        <time>2018-09-09T13:42:53Z</time>
      </trkpt>
      <trkpt lat="45.69189" lon="6.65495">
        <ele>1709.06</ele>
        <time>2018-09-09T13:42:55Z</time>
      </trkpt>
      <trkpt lat="45.69169" lon="6.65457">
        <ele>1705.36</ele>
        <time>2018-09-09T13:42:57Z</time>
      </trkpt>
      <trkpt lat="45.69145" lon="6.6542">
        <ele>1702.09</ele>
        <time>2018-09-09T13:42:59Z</time>
      </trkpt>
      <trkpt lat="45.69125" lon="6.65393">
        <ele>1698.36</ele>
        <time>2018-09-09T13:43:01Z</time>
      </trkpt>
      <trkpt lat="45.69112" lon="6.65369">
        <ele>1694.27</ele>
        <time>2018-09-09T13:43:04Z</time>
      </trkpt>
      <trkpt lat="45.69134" lon="6.65374">
        <ele>1692.77</ele>
        <time>2018-09-09T13:43:08Z</time>
      </trkpt>
      <trkpt lat="45.69148" lon="6.65394">
        <ele>1691.85</ele>
        <time>2018-09-09T13:43:10Z</time>
      </trkpt>
      <trkpt lat="45.69167" lon="6.65418">
        <ele>1689.95</ele>
        <time>2018-09-09T13:43:12Z</time>
      </trkpt>
      <trkpt lat="45.69188" lon="6.65442">
        <ele>1688.87</ele>
        <time>2018-09-09T13:43:14Z</time>
      </trkpt>
      <trkpt lat="45.6921" lon="6.65465">
        <ele>1687.65</ele>
        <time>2018-09-09T13:43:16Z</time>
      </trkpt>
      <trkpt lat="45.69227" lon="6.65494">
        <ele>1685.72</ele>
        <time>2018-09-09T13:43:18Z</time>
      </trkpt>
      <trkpt lat="45.69248" lon="6.65526">
        <ele>1683.94</ele>
        <time>2018-09-09T13:43:20Z</time>
      </trkpt>
      <trkpt lat="45.69271" lon="6.65556">
        <ele>1681.26</ele>
        <time>2018-09-09T13:43:22Z</time>
      </trkpt>
      <trkpt lat="45.69296" lon="6.65582">
        <ele>1678.99</ele>
        <time>2018-09-09T13:43:24Z</time>
      </trkpt>
      <trkpt lat="45.69322" lon="6.65607">
        <ele>1676.26</ele>
        <time>2018-09-09T13:43:26Z</time>
      </trkpt>
      <trkpt lat="45.69346" lon="6.65632">
        <ele>1674.2</ele>
        <time>2018-09-09T13:43:28Z</time>
      </trkpt>
      <trkpt lat="45.69369" lon="6.65661">
        <ele>1671.28</ele>
        <time>2018-09-09T13:43:30Z</time>
      </trkpt>
      <trkpt lat="45.69391" lon="6.6569">
        <ele>1668.08</ele>
        <time>2018-09-09T13:43:32Z</time>
      </trkpt>
      <trkpt lat="45.69409" lon="6.6572">
        <ele>1666.67</ele>
        <time>2018-09-09T13:43:34Z</time>
      </trkpt>
      <trkpt lat="45.69418" lon="6.65744">
        <ele>1666.54</ele>
        <time>2018-09-09T13:43:36Z</time>
      </trkpt>
      <trkpt lat="45.69434" lon="6.6576">
        <ele>1667.44</ele>
        <time>2018-09-09T13:43:38Z</time>
      </trkpt>
      <trkpt lat="45.69458" lon="6.65771">
        <ele>1665.91</ele>
        <time>2018-09-09T13:43:40Z</time>
      </trkpt>
      <trkpt lat="45.69485" lon="6.6578">
        <ele>1663.96</ele>
        <time>2018-09-09T13:43:42Z</time>
      </trkpt>
      <trkpt lat="45.69516" lon="6.65784">
        <ele>1662.17</ele>
        <time>2018-09-09T13:43:44Z</time>
      </trkpt>
      <trkpt lat="45.69545" lon="6.65792">
        <ele>1659.28</ele>
        <time>2018-09-09T13:43:46Z</time>
      </trkpt>
      <trkpt lat="45.6957" lon="6.65794">
        <ele>1655.38</ele>
        <time>2018-09-09T13:43:48Z</time>
      </trkpt>
      <trkpt lat="45.69593" lon="6.65773">
        <ele>1653</ele>
        <time>2018-09-09T13:43:50Z</time>
      </trkpt>
      <trkpt lat="45.69604" lon="6.65739">
        <ele>1651.17</ele>
        <time>2018-09-09T13:43:52Z</time>
      </trkpt>
      <trkpt lat="45.6961" lon="6.65704">
        <ele>1649.89</ele>
        <time>2018-09-09T13:43:54Z</time>
      </trkpt>
      <trkpt lat="45.69588" lon="6.65686">
        <ele>1647.54</ele>
        <time>2018-09-09T13:43:55Z</time>
      </trkpt>
      <trkpt lat="45.69561" lon="6.65666">
        <ele>1644.1</ele>
        <time>2018-09-09T13:43:57Z</time>
      </trkpt>
      <trkpt lat="45.69527" lon="6.65672">
        <ele>1641.97</ele>
        <time>2018-09-09T13:43:59Z</time>
      </trkpt>
      <trkpt lat="45.69497" lon="6.65677">
        <ele>1639.96</ele>
        <time>2018-09-09T13:44:01Z</time>
      </trkpt>
      <trkpt lat="45.69472" lon="6.65669">
        <ele>1637.96</ele>
        <time>2018-09-09T13:44:03Z</time>
      </trkpt>
      <trkpt lat="45.69454" lon="6.65648">
        <ele>1636.66</ele>
        <time>2018-09-09T13:44:05Z</time>
      </trkpt>
      <trkpt lat="45.69445" lon="6.65616">
        <ele>1634.93</ele>
        <time>2018-09-09T13:44:07Z</time>
      </trkpt>
      <trkpt lat="45.69447" lon="6.65582">
        <ele>1632.05</ele>
        <time>2018-09-09T13:44:09Z</time>
      </trkpt>
      <trkpt lat="45.6946" lon="6.65558">
        <ele>1630.88</ele>
        <time>2018-09-09T13:44:11Z</time>
      </trkpt>
      <trkpt lat="45.69478" lon="6.65543">
        <ele>1628.95</ele>
        <time>2018-09-09T13:44:13Z</time>
      </trkpt>
      <trkpt lat="45.69499" lon="6.65541">
        <ele>1626.96</ele>
        <time>2018-09-09T13:44:15Z</time>
      </trkpt>
      <trkpt lat="45.69531" lon="6.65551">
        <ele>1624.96</ele>
        <time>2018-09-09T13:44:17Z</time>
      </trkpt>
      <trkpt lat="45.6955" lon="6.65558">
        <ele>1623.26</ele>
        <time>2018-09-09T13:44:18Z</time>
      </trkpt>
      <trkpt lat="45.69568" lon="6.65567">
        <ele>1622.05</ele>
        <time>2018-09-09T13:44:19Z</time>
      </trkpt>
      <trkpt lat="45.69596" lon="6.65578">
        <ele>1621.58</ele>
        <time>2018-09-09T13:44:21Z</time>
      </trkpt>
      <trkpt lat="45.69619" lon="6.65587">
        <ele>1619.93</ele>
        <time>2018-09-09T13:44:23Z</time>
      </trkpt>
      <trkpt lat="45.69652" lon="6.65601">
        <ele>1616.35</ele>
        <time>2018-09-09T13:44:25Z</time>
      </trkpt>
      <trkpt lat="45.69686" lon="6.65618">
        <ele>1612.38</ele>
        <time>2018-09-09T13:44:27Z</time>
      </trkpt>
      <trkpt lat="45.69703" lon="6.65627">
        <ele>1610.39</ele>
        <time>2018-09-09T13:44:28Z</time>
      </trkpt>
      <trkpt lat="45.69722" lon="6.65633">
        <ele>1609.09</ele>
        <time>2018-09-09T13:44:29Z</time>
      </trkpt>
      <trkpt lat="45.69757" lon="6.65639">
        <ele>1606.97</ele>
        <time>2018-09-09T13:44:31Z</time>
      </trkpt>
      <trkpt lat="45.69793" lon="6.6563">
        <ele>1604.47</ele>
        <time>2018-09-09T13:44:33Z</time>
      </trkpt>
      <trkpt lat="45.69812" lon="6.65622">
        <ele>1603.81</ele>
        <time>2018-09-09T13:44:34Z</time>
      </trkpt>
      <trkpt lat="45.69829" lon="6.6561">
        <ele>1603.62</ele>
        <time>2018-09-09T13:44:35Z</time>
      </trkpt>
      <trkpt lat="45.69842" lon="6.65587">
        <ele>1601.46</ele>
        <time>2018-09-09T13:44:36Z</time>
      </trkpt>
      <trkpt lat="45.69865" lon="6.65555">
        <ele>1598.09</ele>
        <time>2018-09-09T13:44:38Z</time>
      </trkpt>
      <trkpt lat="45.69895" lon="6.65534">
        <ele>1595.06</ele>
        <time>2018-09-09T13:44:40Z</time>
      </trkpt>
      <trkpt lat="45.69929" lon="6.65526">
        <ele>1593.88</ele>
        <time>2018-09-09T13:44:42Z</time>
      </trkpt>
      <trkpt lat="45.6996" lon="6.65511">
        <ele>1593.56</ele>
        <time>2018-09-09T13:44:44Z</time>
      </trkpt>
      <trkpt lat="45.69981" lon="6.65485">
        <ele>1591.92</ele>
        <time>2018-09-09T13:44:46Z</time>
      </trkpt>
      <trkpt lat="45.69979" lon="6.65443">
        <ele>1591.65</ele>
        <time>2018-09-09T13:44:47Z</time>
      </trkpt>
      <trkpt lat="45.69986" lon="6.65418">
        <ele>1591.57</ele>
        <time>2018-09-09T13:44:48Z</time>
      </trkpt>
      <trkpt lat="45.69997" lon="6.65396">
        <ele>1591.54</ele>
        <time>2018-09-09T13:44:49Z</time>
      </trkpt>
      <trkpt lat="45.70008" lon="6.65374">
        <ele>1590.83</ele>
        <time>2018-09-09T13:44:50Z</time>
      </trkpt>
      <trkpt lat="45.70028" lon="6.65332">
        <ele>1589.86</ele>
        <time>2018-09-09T13:44:52Z</time>
      </trkpt>
      <trkpt lat="45.70042" lon="6.65285">
        <ele>1589.56</ele>
        <time>2018-09-09T13:44:54Z</time>
      </trkpt>
      <trkpt lat="45.70047" lon="6.6526">
        <ele>1588.84</ele>
        <time>2018-09-09T13:44:55Z</time>
      </trkpt>
      <trkpt lat="45.70036" lon="6.65234">
        <ele>1590.02</ele>
        <time>2018-09-09T13:44:56Z</time>
      </trkpt>
      <trkpt lat="45.70033" lon="6.65208">
        <ele>1590.38</ele>
        <time>2018-09-09T13:44:57Z</time>
      </trkpt>
      <trkpt lat="45.70033" lon="6.65181">
        <ele>1591.19</ele>
        <time>2018-09-09T13:44:58Z</time>
      </trkpt>
      <trkpt lat="45.70034" lon="6.65152">
        <ele>1592.13</ele>
        <time>2018-09-09T13:44:59Z</time>
      </trkpt>
      <trkpt lat="45.70033" lon="6.65126">
        <ele>1593.81</ele>
        <time>2018-09-09T13:45:00Z</time>
      </trkpt>
      <trkpt lat="45.70028" lon="6.65077">
        <ele>1596.08</ele>
        <time>2018-09-09T13:45:02Z</time>
      </trkpt>
      <trkpt lat="45.70028" lon="6.65037">
        <ele>1598.1</ele>
        <time>2018-09-09T13:45:04Z</time>
      </trkpt>
      <trkpt lat="45.70045" lon="6.65007">
        <ele>1599.19</ele>
        <time>2018-09-09T13:45:06Z</time>
      </trkpt>
      <trkpt lat="45.70074" lon="6.64985">
        <ele>1600.41</ele>
        <time>2018-09-09T13:45:08Z</time>
      </trkpt>
      <trkpt lat="45.70099" lon="6.64949">
        <ele>1601.43</ele>
        <time>2018-09-09T13:45:10Z</time>
      </trkpt>
      <trkpt lat="45.70109" lon="6.64902">
        <ele>1602.22</ele>
        <time>2018-09-09T13:45:12Z</time>
      </trkpt>
      <trkpt lat="45.70113" lon="6.64853">
        <ele>1601.8</ele>
        <time>2018-09-09T13:45:14Z</time>
      </trkpt>
      <trkpt lat="45.70095" lon="6.64832">
        <ele>1603.71</ele>
        <time>2018-09-09T13:45:15Z</time>
      </trkpt>
      <trkpt lat="45.7007" lon="6.64797">
        <ele>1606.07</ele>
        <time>2018-09-09T13:45:17Z</time>
      </trkpt>
      <trkpt lat="45.70056" lon="6.64776">
        <ele>1606.39</ele>
        <time>2018-09-09T13:45:18Z</time>
      </trkpt>
      <trkpt lat="45.70043" lon="6.64754">
        <ele>1607.19</ele>
        <time>2018-09-09T13:45:19Z</time>
      </trkpt>
      <trkpt lat="45.70033" lon="6.6473">
        <ele>1608.13</ele>
        <time>2018-09-09T13:45:20Z</time>
      </trkpt>
      <trkpt lat="45.70024" lon="6.64707">
        <ele>1609.11</ele>
        <time>2018-09-09T13:45:21Z</time>
      </trkpt>
      <trkpt lat="45.70015" lon="6.64683">
        <ele>1609.4</ele>
        <time>2018-09-09T13:45:22Z</time>
      </trkpt>
      <trkpt lat="45.69997" lon="6.64639">
        <ele>1610.22</ele>
        <time>2018-09-09T13:45:24Z</time>
      </trkpt>
      <trkpt lat="45.69983" lon="6.646">
        <ele>1612.11</ele>
        <time>2018-09-09T13:45:26Z</time>
      </trkpt>
      <trkpt lat="45.69982" lon="6.64571">
        <ele>1612.49</ele>
        <time>2018-09-09T13:45:28Z</time>
      </trkpt>
      <trkpt lat="45.6999" lon="6.64545">
        <ele>1613.23</ele>
        <time>2018-09-09T13:45:30Z</time>
      </trkpt>
      <trkpt lat="45.70013" lon="6.64525">
        <ele>1614.41</ele>
        <time>2018-09-09T13:45:32Z</time>
      </trkpt>
      <trkpt lat="45.70037" lon="6.64508">
        <ele>1613.82</ele>
        <time>2018-09-09T13:45:34Z</time>
      </trkpt>
      <trkpt lat="45.70059" lon="6.64485">
        <ele>1610.55</ele>
        <time>2018-09-09T13:45:36Z</time>
      </trkpt>
      <trkpt lat="45.70074" lon="6.64451">
        <ele>1608.01</ele>
        <time>2018-09-09T13:45:38Z</time>
      </trkpt>
      <trkpt lat="45.70079" lon="6.64413">
        <ele>1606.17</ele>
        <time>2018-09-09T13:45:40Z</time>
      </trkpt>
      <trkpt lat="45.70072" lon="6.64378">
        <ele>1606.5</ele>
        <time>2018-09-09T13:45:42Z</time>
      </trkpt>
      <trkpt lat="45.70059" lon="6.64348">
        <ele>1606.53</ele>
        <time>2018-09-09T13:45:44Z</time>
      </trkpt>
      <trkpt lat="45.70046" lon="6.64312">
        <ele>1606.53</ele>
        <time>2018-09-09T13:45:46Z</time>
      </trkpt>
      <trkpt lat="45.70038" lon="6.64268">
        <ele>1605.62</ele>
        <time>2018-09-09T13:45:48Z</time>
      </trkpt>
      <trkpt lat="45.70028" lon="6.64227">
        <ele>1606.45</ele>
        <time>2018-09-09T13:45:50Z</time>
      </trkpt>
      <trkpt lat="45.70014" lon="6.64191">
        <ele>1607.43</ele>
        <time>2018-09-09T13:45:52Z</time>
      </trkpt>
      <trkpt lat="45.7" lon="6.64155">
        <ele>1606.82</ele>
        <time>2018-09-09T13:45:54Z</time>
      </trkpt>
      <trkpt lat="45.69985" lon="6.64115">
        <ele>1606.56</ele>
        <time>2018-09-09T13:45:56Z</time>
      </trkpt>
      <trkpt lat="45.69965" lon="6.64074">
        <ele>1606.53</ele>
        <time>2018-09-09T13:45:58Z</time>
      </trkpt>
      <trkpt lat="45.69953" lon="6.64054">
        <ele>1605.83</ele>
        <time>2018-09-09T13:45:59Z</time>
      </trkpt>
      <trkpt lat="45.69941" lon="6.64034">
        <ele>1606.32</ele>
        <time>2018-09-09T13:46:00Z</time>
      </trkpt>
      <trkpt lat="45.69929" lon="6.64014">
        <ele>1606.47</ele>
        <time>2018-09-09T13:46:01Z</time>
      </trkpt>
      <trkpt lat="45.69903" lon="6.63978">
        <ele>1606.53</ele>
        <time>2018-09-09T13:46:03Z</time>
      </trkpt>
      <trkpt lat="45.69877" lon="6.63944">
        <ele>1607.44</ele>
        <time>2018-09-09T13:46:05Z</time>
      </trkpt>
      <trkpt lat="45.69851" lon="6.63909">
        <ele>1607.52</ele>
        <time>2018-09-09T13:46:07Z</time>
      </trkpt>
      <trkpt lat="45.69826" lon="6.63875">
        <ele>1606.62</ele>
        <time>2018-09-09T13:46:09Z</time>
      </trkpt>
      <trkpt lat="45.698" lon="6.63844">
        <ele>1605.84</ele>
        <time>2018-09-09T13:46:11Z</time>
      </trkpt>
      <trkpt lat="45.69768" lon="6.63819">
        <ele>1604.65</ele>
        <time>2018-09-09T13:46:13Z</time>
      </trkpt>
      <trkpt lat="45.69751" lon="6.63809">
        <ele>1603.87</ele>
        <time>2018-09-09T13:46:14Z</time>
      </trkpt>
      <trkpt lat="45.69733" lon="6.63798">
        <ele>1603.63</ele>
        <time>2018-09-09T13:46:15Z</time>
      </trkpt>
      <trkpt lat="45.69716" lon="6.63787">
        <ele>1603.56</ele>
        <time>2018-09-09T13:46:16Z</time>
      </trkpt>
      <trkpt lat="45.69699" lon="6.63773">
        <ele>1602.84</ele>
        <time>2018-09-09T13:46:17Z</time>
      </trkpt>
      <trkpt lat="45.69686" lon="6.63755">
        <ele>1602.62</ele>
        <time>2018-09-09T13:46:18Z</time>
      </trkpt>
      <trkpt lat="45.69674" lon="6.63735">
        <ele>1602.56</ele>
        <time>2018-09-09T13:46:19Z</time>
      </trkpt>
      <trkpt lat="45.69664" lon="6.63712">
        <ele>1601.84</ele>
        <time>2018-09-09T13:46:20Z</time>
      </trkpt>
      <trkpt lat="45.69653" lon="6.63689">
        <ele>1601.62</ele>
        <time>2018-09-09T13:46:21Z</time>
      </trkpt>
      <trkpt lat="45.69641" lon="6.63669">
        <ele>1601.56</ele>
        <time>2018-09-09T13:46:22Z</time>
      </trkpt>
      <trkpt lat="45.69611" lon="6.63638">
        <ele>1601.53</ele>
        <time>2018-09-09T13:46:24Z</time>
      </trkpt>
      <trkpt lat="45.69595" lon="6.63625">
        <ele>1601.53</ele>
        <time>2018-09-09T13:46:25Z</time>
      </trkpt>
      <trkpt lat="45.69581" lon="6.6361">
        <ele>1601.53</ele>
        <time>2018-09-09T13:46:26Z</time>
      </trkpt>
      <trkpt lat="45.69568" lon="6.6359">
        <ele>1601.53</ele>
        <time>2018-09-09T13:46:27Z</time>
      </trkpt>
      <trkpt lat="45.69546" lon="6.63552">
        <ele>1603.14</ele>
        <time>2018-09-09T13:46:29Z</time>
      </trkpt>
      <trkpt lat="45.69525" lon="6.63514">
        <ele>1605.11</ele>
        <time>2018-09-09T13:46:31Z</time>
      </trkpt>
      <trkpt lat="45.6951" lon="6.63476">
        <ele>1606.4</ele>
        <time>2018-09-09T13:46:33Z</time>
      </trkpt>
      <trkpt lat="45.69499" lon="6.63432">
        <ele>1607.43</ele>
        <time>2018-09-09T13:46:35Z</time>
      </trkpt>
      <trkpt lat="45.69494" lon="6.63386">
        <ele>1607.52</ele>
        <time>2018-09-09T13:46:37Z</time>
      </trkpt>
      <trkpt lat="45.69497" lon="6.63345">
        <ele>1605.92</ele>
        <time>2018-09-09T13:46:39Z</time>
      </trkpt>
      <trkpt lat="45.6951" lon="6.63311">
        <ele>1605.57</ele>
        <time>2018-09-09T13:46:41Z</time>
      </trkpt>
      <trkpt lat="45.69532" lon="6.63303">
        <ele>1604.62</ele>
        <time>2018-09-09T13:46:43Z</time>
      </trkpt>
      <trkpt lat="45.69558" lon="6.63309">
        <ele>1603.84</ele>
        <time>2018-09-09T13:46:45Z</time>
      </trkpt>
      <trkpt lat="45.69583" lon="6.63328">
        <ele>1602.86</ele>
        <time>2018-09-09T13:46:47Z</time>
      </trkpt>
      <trkpt lat="45.69612" lon="6.63344">
        <ele>1601.86</ele>
        <time>2018-09-09T13:46:49Z</time>
      </trkpt>
      <trkpt lat="45.69645" lon="6.63353">
        <ele>1599.95</ele>
        <time>2018-09-09T13:46:51Z</time>
      </trkpt>
      <trkpt lat="45.69663" lon="6.63358">
        <ele>1598.96</ele>
        <time>2018-09-09T13:46:52Z</time>
      </trkpt>
      <trkpt lat="45.6968" lon="6.63367">
        <ele>1597.96</ele>
        <time>2018-09-09T13:46:53Z</time>
      </trkpt>
      <trkpt lat="45.69699" lon="6.63376">
        <ele>1596.96</ele>
        <time>2018-09-09T13:46:54Z</time>
      </trkpt>
      <trkpt lat="45.69719" lon="6.63381">
        <ele>1596.66</ele>
        <time>2018-09-09T13:46:55Z</time>
      </trkpt>
      <trkpt lat="45.69737" lon="6.63384">
        <ele>1595.87</ele>
        <time>2018-09-09T13:46:56Z</time>
      </trkpt>
      <trkpt lat="45.69773" lon="6.63381">
        <ele>1594.16</ele>
        <time>2018-09-09T13:46:58Z</time>
      </trkpt>
      <trkpt lat="45.69806" lon="6.63384">
        <ele>1592.89</ele>
        <time>2018-09-09T13:47:00Z</time>
      </trkpt>
      <trkpt lat="45.69834" lon="6.63401">
        <ele>1593.47</ele>
        <time>2018-09-09T13:47:02Z</time>
      </trkpt>
      <trkpt lat="45.69864" lon="6.63417">
        <ele>1590.8</ele>
        <time>2018-09-09T13:47:04Z</time>
      </trkpt>
      <trkpt lat="45.69902" lon="6.63409">
        <ele>1588.45</ele>
        <time>2018-09-09T13:47:06Z</time>
      </trkpt>
      <trkpt lat="45.69921" lon="6.63403">
        <ele>1585.71</ele>
        <time>2018-09-09T13:47:07Z</time>
      </trkpt>
      <trkpt lat="45.69953" lon="6.63385">
        <ele>1580.72</ele>
        <time>2018-09-09T13:47:09Z</time>
      </trkpt>
      <trkpt lat="45.69984" lon="6.63384">
        <ele>1578.03</ele>
        <time>2018-09-09T13:47:11Z</time>
      </trkpt>
      <trkpt lat="45.70002" lon="6.63387">
        <ele>1576.98</ele>
        <time>2018-09-09T13:47:12Z</time>
      </trkpt>
      <trkpt lat="45.70022" lon="6.63387">
        <ele>1575.97</ele>
        <time>2018-09-09T13:47:13Z</time>
      </trkpt>
      <trkpt lat="45.70042" lon="6.63386">
        <ele>1574.96</ele>
        <time>2018-09-09T13:47:14Z</time>
      </trkpt>
      <trkpt lat="45.70064" lon="6.63385">
        <ele>1573.96</ele>
        <time>2018-09-09T13:47:15Z</time>
      </trkpt>
      <trkpt lat="45.70085" lon="6.63385">
        <ele>1572.96</ele>
        <time>2018-09-09T13:47:16Z</time>
      </trkpt>
      <trkpt lat="45.70107" lon="6.63383">
        <ele>1571.96</ele>
        <time>2018-09-09T13:47:17Z</time>
      </trkpt>
      <trkpt lat="45.70129" lon="6.6338">
        <ele>1570.96</ele>
        <time>2018-09-09T13:47:18Z</time>
      </trkpt>
      <trkpt lat="45.70151" lon="6.63378">
        <ele>1569.26</ele>
        <time>2018-09-09T13:47:19Z</time>
      </trkpt>
      <trkpt lat="45.70174" lon="6.63376">
        <ele>1567.35</ele>
        <time>2018-09-09T13:47:20Z</time>
      </trkpt>
      <trkpt lat="45.70197" lon="6.63373">
        <ele>1566.08</ele>
        <time>2018-09-09T13:47:21Z</time>
      </trkpt>
      <trkpt lat="45.70219" lon="6.6337">
        <ele>1563.59</ele>
        <time>2018-09-09T13:47:22Z</time>
      </trkpt>
      <trkpt lat="45.70241" lon="6.63365">
        <ele>1561.45</ele>
        <time>2018-09-09T13:47:23Z</time>
      </trkpt>
      <trkpt lat="45.70262" lon="6.63358">
        <ele>1559.41</ele>
        <time>2018-09-09T13:47:24Z</time>
      </trkpt>
      <trkpt lat="45.70283" lon="6.63351">
        <ele>1557.39</ele>
        <time>2018-09-09T13:47:25Z</time>
      </trkpt>
      <trkpt lat="45.70302" lon="6.63344">
        <ele>1556.79</ele>
        <time>2018-09-09T13:47:26Z</time>
      </trkpt>
      <trkpt lat="45.7032" lon="6.63341">
        <ele>1555.21</ele>
        <time>2018-09-09T13:47:27Z</time>
      </trkpt>
      <trkpt lat="45.70355" lon="6.6335">
        <ele>1552.07</ele>
        <time>2018-09-09T13:47:29Z</time>
      </trkpt>
      <trkpt lat="45.70389" lon="6.6335">
        <ele>1548.57</ele>
        <time>2018-09-09T13:47:31Z</time>
      </trkpt>
      <trkpt lat="45.70421" lon="6.63342">
        <ele>1546.01</ele>
        <time>2018-09-09T13:47:33Z</time>
      </trkpt>
      <trkpt lat="45.70456" lon="6.63349">
        <ele>1544.17</ele>
        <time>2018-09-09T13:47:35Z</time>
      </trkpt>
      <trkpt lat="45.70475" lon="6.63352">
        <ele>1542.32</ele>
        <time>2018-09-09T13:47:36Z</time>
      </trkpt>
      <trkpt lat="45.70498" lon="6.63353">
        <ele>1540.37</ele>
        <time>2018-09-09T13:47:37Z</time>
      </trkpt>
      <trkpt lat="45.70521" lon="6.63351">
        <ele>1537.68</ele>
        <time>2018-09-09T13:47:38Z</time>
      </trkpt>
      <trkpt lat="45.70543" lon="6.63347">
        <ele>1536.18</ele>
        <time>2018-09-09T13:47:39Z</time>
      </trkpt>
      <trkpt lat="45.70563" lon="6.63342">
        <ele>1535.02</ele>
        <time>2018-09-09T13:47:40Z</time>
      </trkpt>
      <trkpt lat="45.70582" lon="6.63337">
        <ele>1533.98</ele>
        <time>2018-09-09T13:47:41Z</time>
      </trkpt>
      <trkpt lat="45.70601" lon="6.63332">
        <ele>1531.57</ele>
        <time>2018-09-09T13:47:42Z</time>
      </trkpt>
      <trkpt lat="45.7062" lon="6.63329">
        <ele>1530.14</ele>
        <time>2018-09-09T13:47:43Z</time>
      </trkpt>
      <trkpt lat="45.70652" lon="6.63316">
        <ele>1528.68</ele>
        <time>2018-09-09T13:47:45Z</time>
      </trkpt>
      <trkpt lat="45.70677" lon="6.6331">
        <ele>1526.93</ele>
        <time>2018-09-09T13:47:47Z</time>
      </trkpt>
      <trkpt lat="45.70699" lon="6.63305">
        <ele>1520.73</ele>
        <time>2018-09-09T13:47:50Z</time>
      </trkpt>
      <trkpt lat="45.70684" lon="6.63286">
        <ele>1509.79</ele>
        <time>2018-09-09T13:47:55Z</time>
      </trkpt>
      <trkpt lat="45.70666" lon="6.63295">
        <ele>1508.64</ele>
        <time>2018-09-09T13:47:57Z</time>
      </trkpt>
      <trkpt lat="45.70644" lon="6.63303">
        <ele>1506.93</ele>
        <time>2018-09-09T13:47:59Z</time>
      </trkpt>
      <trkpt lat="45.70617" lon="6.6331">
        <ele>1506.57</ele>
        <time>2018-09-09T13:48:01Z</time>
      </trkpt>
      <trkpt lat="45.70588" lon="6.63311">
        <ele>1504.22</ele>
        <time>2018-09-09T13:48:03Z</time>
      </trkpt>
      <trkpt lat="45.70565" lon="6.63305">
        <ele>1502.34</ele>
        <time>2018-09-09T13:48:04Z</time>
      </trkpt>
      <trkpt lat="45.70544" lon="6.633">
        <ele>1501.07</ele>
        <time>2018-09-09T13:48:05Z</time>
      </trkpt>
      <trkpt lat="45.70524" lon="6.63294">
        <ele>1499.99</ele>
        <time>2018-09-09T13:48:06Z</time>
      </trkpt>
      <trkpt lat="45.70505" lon="6.63283">
        <ele>1498.97</ele>
        <time>2018-09-09T13:48:07Z</time>
      </trkpt>
      <trkpt lat="45.70488" lon="6.6327">
        <ele>1497.96</ele>
        <time>2018-09-09T13:48:08Z</time>
      </trkpt>
      <trkpt lat="45.7046" lon="6.63249">
        <ele>1492.74</ele>
        <time>2018-09-09T13:48:10Z</time>
      </trkpt>
      <trkpt lat="45.70428" lon="6.63233">
        <ele>1487.72</ele>
        <time>2018-09-09T13:48:12Z</time>
      </trkpt>
      <trkpt lat="45.70411" lon="6.63226">
        <ele>1486.89</ele>
        <time>2018-09-09T13:48:13Z</time>
      </trkpt>
      <trkpt lat="45.70381" lon="6.63207">
        <ele>1484.95</ele>
        <time>2018-09-09T13:48:15Z</time>
      </trkpt>
      <trkpt lat="45.70347" lon="6.63206">
        <ele>1481.77</ele>
        <time>2018-09-09T13:48:17Z</time>
      </trkpt>
      <trkpt lat="45.70328" lon="6.63211">
        <ele>1480.2</ele>
        <time>2018-09-09T13:48:18Z</time>
      </trkpt>
      <trkpt lat="45.70309" lon="6.63214">
        <ele>1479.73</ele>
        <time>2018-09-09T13:48:19Z</time>
      </trkpt>
      <trkpt lat="45.70291" lon="6.63217">
        <ele>1478.89</ele>
        <time>2018-09-09T13:48:20Z</time>
      </trkpt>
      <trkpt lat="45.70272" lon="6.63217">
        <ele>1477.94</ele>
        <time>2018-09-09T13:48:21Z</time>
      </trkpt>
      <trkpt lat="45.70249" lon="6.63209">
        <ele>1477.65</ele>
        <time>2018-09-09T13:48:22Z</time>
      </trkpt>
      <trkpt lat="45.70226" lon="6.63205">
        <ele>1477.57</ele>
        <time>2018-09-09T13:48:23Z</time>
      </trkpt>
      <trkpt lat="45.70203" lon="6.63203">
        <ele>1477.54</ele>
        <time>2018-09-09T13:48:24Z</time>
      </trkpt>
      <trkpt lat="45.70183" lon="6.63197">
        <ele>1476.13</ele>
        <time>2018-09-09T13:48:25Z</time>
      </trkpt>
      <trkpt lat="45.70162" lon="6.63189">
        <ele>1475.01</ele>
        <time>2018-09-09T13:48:26Z</time>
      </trkpt>
      <trkpt lat="45.70144" lon="6.63178">
        <ele>1473.98</ele>
        <time>2018-09-09T13:48:27Z</time>
      </trkpt>
      <trkpt lat="45.70126" lon="6.63167">
        <ele>1473.66</ele>
        <time>2018-09-09T13:48:28Z</time>
      </trkpt>
      <trkpt lat="45.70107" lon="6.63155">
        <ele>1472.87</ele>
        <time>2018-09-09T13:48:29Z</time>
      </trkpt>
      <trkpt lat="45.7009" lon="6.6314">
        <ele>1472.63</ele>
        <time>2018-09-09T13:48:30Z</time>
      </trkpt>
      <trkpt lat="45.70071" lon="6.63124">
        <ele>1471.86</ele>
        <time>2018-09-09T13:48:31Z</time>
      </trkpt>
      <trkpt lat="45.70055" lon="6.63108">
        <ele>1470.93</ele>
        <time>2018-09-09T13:48:32Z</time>
      </trkpt>
      <trkpt lat="45.70033" lon="6.63086">
        <ele>1465.95</ele>
        <time>2018-09-09T13:48:34Z</time>
      </trkpt>
      <trkpt lat="45.70059" lon="6.63086">
        <ele>1449.01</ele>
        <time>2018-09-09T13:48:41Z</time>
      </trkpt>
      <trkpt lat="45.70093" lon="6.63098">
        <ele>1446.96</ele>
        <time>2018-09-09T13:48:43Z</time>
      </trkpt>
      <trkpt lat="45.7011" lon="6.63104">
        <ele>1445.96</ele>
        <time>2018-09-09T13:48:44Z</time>
      </trkpt>
      <trkpt lat="45.70128" lon="6.6311">
        <ele>1444.96</ele>
        <time>2018-09-09T13:48:45Z</time>
      </trkpt>
      <trkpt lat="45.70146" lon="6.63119">
        <ele>1443.26</ele>
        <time>2018-09-09T13:48:46Z</time>
      </trkpt>
      <trkpt lat="45.7018" lon="6.63136">
        <ele>1440.29</ele>
        <time>2018-09-09T13:48:48Z</time>
      </trkpt>
      <trkpt lat="45.70211" lon="6.63134">
        <ele>1436.59</ele>
        <time>2018-09-09T13:48:50Z</time>
      </trkpt>
      <trkpt lat="45.70243" lon="6.63123">
        <ele>1434.72</ele>
        <time>2018-09-09T13:48:52Z</time>
      </trkpt>
      <trkpt lat="45.70278" lon="6.63124">
        <ele>1432.03</ele>
        <time>2018-09-09T13:48:54Z</time>
      </trkpt>
      <trkpt lat="45.70313" lon="6.63114">
        <ele>1431.79</ele>
        <time>2018-09-09T13:48:56Z</time>
      </trkpt>
      <trkpt lat="45.70352" lon="6.631">
        <ele>1429.24</ele>
        <time>2018-09-09T13:48:58Z</time>
      </trkpt>
      <trkpt lat="45.70373" lon="6.63094">
        <ele>1427.34</ele>
        <time>2018-09-09T13:48:59Z</time>
      </trkpt>
      <trkpt lat="45.70393" lon="6.6309">
        <ele>1426.08</ele>
        <time>2018-09-09T13:49:00Z</time>
      </trkpt>
      <trkpt lat="45.70414" lon="6.63087">
        <ele>1424.29</ele>
        <time>2018-09-09T13:49:01Z</time>
      </trkpt>
      <trkpt lat="45.70433" lon="6.63084">
        <ele>1423.06</ele>
        <time>2018-09-09T13:49:02Z</time>
      </trkpt>
      <trkpt lat="45.70453" lon="6.63081">
        <ele>1421.99</ele>
        <time>2018-09-09T13:49:03Z</time>
      </trkpt>
      <trkpt lat="45.70484" lon="6.63071">
        <ele>1416.11</ele>
        <time>2018-09-09T13:49:05Z</time>
      </trkpt>
      <trkpt lat="45.70507" lon="6.63065">
        <ele>1411.66</ele>
        <time>2018-09-09T13:49:07Z</time>
      </trkpt>
      <trkpt lat="45.70532" lon="6.63076">
        <ele>1407.41</ele>
        <time>2018-09-09T13:49:09Z</time>
      </trkpt>
      <trkpt lat="45.7056" lon="6.63087">
        <ele>1405</ele>
        <time>2018-09-09T13:49:11Z</time>
      </trkpt>
      <trkpt lat="45.70592" lon="6.63084">
        <ele>1402.47</ele>
        <time>2018-09-09T13:49:13Z</time>
      </trkpt>
      <trkpt lat="45.70625" lon="6.63087">
        <ele>1397.49</ele>
        <time>2018-09-09T13:49:15Z</time>
      </trkpt>
      <trkpt lat="45.70643" lon="6.6309">
        <ele>1395.42</ele>
        <time>2018-09-09T13:49:16Z</time>
      </trkpt>
      <trkpt lat="45.70664" lon="6.63096">
        <ele>1394.8</ele>
        <time>2018-09-09T13:49:17Z</time>
      </trkpt>
      <trkpt lat="45.70684" lon="6.631">
        <ele>1394.61</ele>
        <time>2018-09-09T13:49:18Z</time>
      </trkpt>
      <trkpt lat="45.70702" lon="6.63105">
        <ele>1394.55</ele>
        <time>2018-09-09T13:49:19Z</time>
      </trkpt>
      <trkpt lat="45.70734" lon="6.63112">
        <ele>1393.62</ele>
        <time>2018-09-09T13:49:21Z</time>
      </trkpt>
      <trkpt lat="45.70758" lon="6.6311">
        <ele>1392.84</ele>
        <time>2018-09-09T13:49:23Z</time>
      </trkpt>
      <trkpt lat="45.70752" lon="6.63085">
        <ele>1387.94</ele>
        <time>2018-09-09T13:49:25Z</time>
      </trkpt>
      <trkpt lat="45.70728" lon="6.63068">
        <ele>1381.02</ele>
        <time>2018-09-09T13:49:29Z</time>
      </trkpt>
      <trkpt lat="45.70696" lon="6.63065">
        <ele>1379.28</ele>
        <time>2018-09-09T13:49:30Z</time>
      </trkpt>
      <trkpt lat="45.70663" lon="6.6305">
        <ele>1376.29</ele>
        <time>2018-09-09T13:49:32Z</time>
      </trkpt>
      <trkpt lat="45.70629" lon="6.63033">
        <ele>1373.99</ele>
        <time>2018-09-09T13:49:34Z</time>
      </trkpt>
      <trkpt lat="45.70612" lon="6.63024">
        <ele>1373.67</ele>
        <time>2018-09-09T13:49:35Z</time>
      </trkpt>
      <trkpt lat="45.70579" lon="6.63003">
        <ele>1370.32</ele>
        <time>2018-09-09T13:49:37Z</time>
      </trkpt>
      <trkpt lat="45.70561" lon="6.62993">
        <ele>1369.07</ele>
        <time>2018-09-09T13:49:38Z</time>
      </trkpt>
      <trkpt lat="45.70544" lon="6.62981">
        <ele>1367.29</ele>
        <time>2018-09-09T13:49:39Z</time>
      </trkpt>
      <trkpt lat="45.70518" lon="6.62954">
        <ele>1361.98</ele>
        <time>2018-09-09T13:49:41Z</time>
      </trkpt>
      <trkpt lat="45.70486" lon="6.6294">
        <ele>1356.74</ele>
        <time>2018-09-09T13:49:43Z</time>
      </trkpt>
      <trkpt lat="45.70468" lon="6.62939">
        <ele>1354.49</ele>
        <time>2018-09-09T13:49:44Z</time>
      </trkpt>
      <trkpt lat="45.70449" lon="6.62937">
        <ele>1352.42</ele>
        <time>2018-09-09T13:49:45Z</time>
      </trkpt>
      <trkpt lat="45.70431" lon="6.62936">
        <ele>1351.1</ele>
        <time>2018-09-09T13:49:46Z</time>
      </trkpt>
      <trkpt lat="45.7041" lon="6.62937">
        <ele>1349.3</ele>
        <time>2018-09-09T13:49:47Z</time>
      </trkpt>
      <trkpt lat="45.70388" lon="6.62941">
        <ele>1347.36</ele>
        <time>2018-09-09T13:49:48Z</time>
      </trkpt>
      <trkpt lat="45.70368" lon="6.62945">
        <ele>1346.08</ele>
        <time>2018-09-09T13:49:49Z</time>
      </trkpt>
      <trkpt lat="45.70347" lon="6.62948">
        <ele>1345</ele>
        <time>2018-09-09T13:49:50Z</time>
      </trkpt>
      <trkpt lat="45.70327" lon="6.62949">
        <ele>1344.67</ele>
        <time>2018-09-09T13:49:51Z</time>
      </trkpt>
      <trkpt lat="45.70307" lon="6.62948">
        <ele>1343.87</ele>
        <time>2018-09-09T13:49:52Z</time>
      </trkpt>
      <trkpt lat="45.70289" lon="6.62943">
        <ele>1343.63</ele>
        <time>2018-09-09T13:49:53Z</time>
      </trkpt>
      <trkpt lat="45.70271" lon="6.62937">
        <ele>1342.86</ele>
        <time>2018-09-09T13:49:54Z</time>
      </trkpt>
      <trkpt lat="45.70252" lon="6.62927">
        <ele>1341.93</ele>
        <time>2018-09-09T13:49:55Z</time>
      </trkpt>
      <trkpt lat="45.70234" lon="6.62916">
        <ele>1341.65</ele>
        <time>2018-09-09T13:49:56Z</time>
      </trkpt>
      <trkpt lat="45.70206" lon="6.62887">
        <ele>1340.14</ele>
        <time>2018-09-09T13:49:58Z</time>
      </trkpt>
      <trkpt lat="45.70178" lon="6.6286">
        <ele>1337.28</ele>
        <time>2018-09-09T13:50:00Z</time>
      </trkpt>
      <trkpt lat="45.70151" lon="6.6284">
        <ele>1333.38</ele>
        <time>2018-09-09T13:50:02Z</time>
      </trkpt>
      <trkpt lat="45.70133" lon="6.62835">
        <ele>1331.39</ele>
        <time>2018-09-09T13:50:03Z</time>
      </trkpt>
      <trkpt lat="45.70103" lon="6.62823">
        <ele>1329</ele>
        <time>2018-09-09T13:50:05Z</time>
      </trkpt>
      <trkpt lat="45.70079" lon="6.62802">
        <ele>1326.96</ele>
        <time>2018-09-09T13:50:07Z</time>
      </trkpt>
      <trkpt lat="45.70071" lon="6.62771">
        <ele>1324.47</ele>
        <time>2018-09-09T13:50:09Z</time>
      </trkpt>
      <trkpt lat="45.70053" lon="6.62739">
        <ele>1318.37</ele>
        <time>2018-09-09T13:50:11Z</time>
      </trkpt>
      <trkpt lat="45.70039" lon="6.62718">
        <ele>1317.78</ele>
        <time>2018-09-09T13:50:12Z</time>
      </trkpt>
      <trkpt lat="45.70022" lon="6.627">
        <ele>1314.81</ele>
        <time>2018-09-09T13:50:13Z</time>
      </trkpt>
      <trkpt lat="45.70006" lon="6.62681">
        <ele>1311.81</ele>
        <time>2018-09-09T13:50:14Z</time>
      </trkpt>
      <trkpt lat="45.69989" lon="6.62662">
        <ele>1310.22</ele>
        <time>2018-09-09T13:50:15Z</time>
      </trkpt>
      <trkpt lat="45.69973" lon="6.62643">
        <ele>1309.04</ele>
        <time>2018-09-09T13:50:16Z</time>
      </trkpt>
      <trkpt lat="45.6996" lon="6.62622">
        <ele>1308.68</ele>
        <time>2018-09-09T13:50:17Z</time>
      </trkpt>
      <trkpt lat="45.69948" lon="6.62601">
        <ele>1308.58</ele>
        <time>2018-09-09T13:50:18Z</time>
      </trkpt>
      <trkpt lat="45.69936" lon="6.62579">
        <ele>1307.84</ele>
        <time>2018-09-09T13:50:19Z</time>
      </trkpt>
      <trkpt lat="45.6993" lon="6.6255">
        <ele>1305.53</ele>
        <time>2018-09-09T13:50:20Z</time>
      </trkpt>
      <trkpt lat="45.69929" lon="6.62516">
        <ele>1301.33</ele>
        <time>2018-09-09T13:50:21Z</time>
      </trkpt>
      <trkpt lat="45.69925" lon="6.62486">
        <ele>1299.37</ele>
        <time>2018-09-09T13:50:22Z</time>
      </trkpt>
      <trkpt lat="45.69919" lon="6.62458">
        <ele>1297.38</ele>
        <time>2018-09-09T13:50:23Z</time>
      </trkpt>
      <trkpt lat="45.69915" lon="6.62432">
        <ele>1295.39</ele>
        <time>2018-09-09T13:50:24Z</time>
      </trkpt>
      <trkpt lat="45.69909" lon="6.62391">
        <ele>1293</ele>
        <time>2018-09-09T13:50:26Z</time>
      </trkpt>
      <trkpt lat="45.69906" lon="6.62351">
        <ele>1290.75</ele>
        <time>2018-09-09T13:50:28Z</time>
      </trkpt>
      <trkpt lat="45.69892" lon="6.62314">
        <ele>1288.03</ele>
        <time>2018-09-09T13:50:30Z</time>
      </trkpt>
      <trkpt lat="45.69884" lon="6.62289">
        <ele>1286.98</ele>
        <time>2018-09-09T13:50:31Z</time>
      </trkpt>
      <trkpt lat="45.69874" lon="6.62261">
        <ele>1285.97</ele>
        <time>2018-09-09T13:50:32Z</time>
      </trkpt>
      <trkpt lat="45.69864" lon="6.62233">
        <ele>1283.56</ele>
        <time>2018-09-09T13:50:33Z</time>
      </trkpt>
      <trkpt lat="45.69855" lon="6.62206">
        <ele>1281.44</ele>
        <time>2018-09-09T13:50:34Z</time>
      </trkpt>
      <trkpt lat="45.6985" lon="6.6218">
        <ele>1279.4</ele>
        <time>2018-09-09T13:50:35Z</time>
      </trkpt>
      <trkpt lat="45.69849" lon="6.62154">
        <ele>1278.09</ele>
        <time>2018-09-09T13:50:36Z</time>
      </trkpt>
      <trkpt lat="45.69851" lon="6.62112">
        <ele>1275.97</ele>
        <time>2018-09-09T13:50:38Z</time>
      </trkpt>
      <trkpt lat="45.69842" lon="6.62084">
        <ele>1273.96</ele>
        <time>2018-09-09T13:50:40Z</time>
      </trkpt>
      <trkpt lat="45.69822" lon="6.62058">
        <ele>1272.87</ele>
        <time>2018-09-09T13:50:42Z</time>
      </trkpt>
      <trkpt lat="45.69799" lon="6.6202">
        <ele>1271.86</ele>
        <time>2018-09-09T13:50:44Z</time>
      </trkpt>
      <trkpt lat="45.69787" lon="6.61994">
        <ele>1270.93</ele>
        <time>2018-09-09T13:50:45Z</time>
      </trkpt>
      <trkpt lat="45.69776" lon="6.61969">
        <ele>1268.55</ele>
        <time>2018-09-09T13:50:46Z</time>
      </trkpt>
      <trkpt lat="45.69764" lon="6.61944">
        <ele>1266.44</ele>
        <time>2018-09-09T13:50:47Z</time>
      </trkpt>
      <trkpt lat="45.69752" lon="6.61922">
        <ele>1265.8</ele>
        <time>2018-09-09T13:50:48Z</time>
      </trkpt>
      <trkpt lat="45.69739" lon="6.61901">
        <ele>1264.21</ele>
        <time>2018-09-09T13:50:49Z</time>
      </trkpt>
      <trkpt lat="45.6973" lon="6.61877">
        <ele>1262.34</ele>
        <time>2018-09-09T13:50:50Z</time>
      </trkpt>
      <trkpt lat="45.69721" lon="6.61853">
        <ele>1261.07</ele>
        <time>2018-09-09T13:50:51Z</time>
      </trkpt>
      <trkpt lat="45.69718" lon="6.61821">
        <ele>1257.89</ele>
        <time>2018-09-09T13:50:52Z</time>
      </trkpt>
      <trkpt lat="45.69713" lon="6.61792">
        <ele>1255.54</ele>
        <time>2018-09-09T13:50:53Z</time>
      </trkpt>
      <trkpt lat="45.69706" lon="6.61764">
        <ele>1253.43</ele>
        <time>2018-09-09T13:50:54Z</time>
      </trkpt>
      <trkpt lat="45.69699" lon="6.61737">
        <ele>1250.7</ele>
        <time>2018-09-09T13:50:55Z</time>
      </trkpt>
      <trkpt lat="45.69691" lon="6.61695">
        <ele>1245.72</ele>
        <time>2018-09-09T13:50:57Z</time>
      </trkpt>
      <trkpt lat="45.69696" lon="6.6167">
        <ele>1241.07</ele>
        <time>2018-09-09T13:51:00Z</time>
      </trkpt>
      <trkpt lat="45.69716" lon="6.617">
        <ele>1239.64</ele>
        <time>2018-09-09T13:51:03Z</time>
      </trkpt>
      <trkpt lat="45.69731" lon="6.6174">
        <ele>1238.84</ele>
        <time>2018-09-09T13:51:05Z</time>
      </trkpt>
      <trkpt lat="45.6974" lon="6.61762">
        <ele>1238.62</ele>
        <time>2018-09-09T13:51:06Z</time>
      </trkpt>
      <trkpt lat="45.69749" lon="6.61785">
        <ele>1237.16</ele>
        <time>2018-09-09T13:51:07Z</time>
      </trkpt>
      <trkpt lat="45.69765" lon="6.6183">
        <ele>1235.68</ele>
        <time>2018-09-09T13:51:09Z</time>
      </trkpt>
      <trkpt lat="45.69779" lon="6.61879">
        <ele>1230.71</ele>
        <time>2018-09-09T13:51:11Z</time>
      </trkpt>
      <trkpt lat="45.69793" lon="6.61899">
        <ele>1228.49</ele>
        <time>2018-09-09T13:51:12Z</time>
      </trkpt>
      <trkpt lat="45.69806" lon="6.61919">
        <ele>1227.12</ele>
        <time>2018-09-09T13:51:13Z</time>
      </trkpt>
      <trkpt lat="45.6982" lon="6.6194">
        <ele>1225.31</ele>
        <time>2018-09-09T13:51:14Z</time>
      </trkpt>
      <trkpt lat="45.69832" lon="6.61961">
        <ele>1224.06</ele>
        <time>2018-09-09T13:51:15Z</time>
      </trkpt>
      <trkpt lat="45.69852" lon="6.61999">
        <ele>1223.58</ele>
        <time>2018-09-09T13:51:17Z</time>
      </trkpt>
      <trkpt lat="45.69872" lon="6.62019">
        <ele>1223.54</ele>
        <time>2018-09-09T13:51:19Z</time>
      </trkpt>
      <trkpt lat="45.69891" lon="6.62009">
        <ele>1221.65</ele>
        <time>2018-09-09T13:51:22Z</time>
      </trkpt>
      <trkpt lat="45.69849" lon="6.61961">
        <ele>1216.43</ele>
        <time>2018-09-09T13:51:24Z</time>
      </trkpt>
      <trkpt lat="45.69829" lon="6.61925">
        <ele>1212.39</ele>
        <time>2018-09-09T13:51:26Z</time>
      </trkpt>
      <trkpt lat="45.69814" lon="6.61879">
        <ele>1208.39</ele>
        <time>2018-09-09T13:51:28Z</time>
      </trkpt>
      <trkpt lat="45.69809" lon="6.61853">
        <ele>1207.79</ele>
        <time>2018-09-09T13:51:29Z</time>
      </trkpt>
      <trkpt lat="45.69806" lon="6.61825">
        <ele>1206.21</ele>
        <time>2018-09-09T13:51:30Z</time>
      </trkpt>
      <trkpt lat="45.69804" lon="6.61796">
        <ele>1204.33</ele>
        <time>2018-09-09T13:51:31Z</time>
      </trkpt>
      <trkpt lat="45.69802" lon="6.61769">
        <ele>1203.07</ele>
        <time>2018-09-09T13:51:32Z</time>
      </trkpt>
      <trkpt lat="45.698" lon="6.61742">
        <ele>1201.99</ele>
        <time>2018-09-09T13:51:33Z</time>
      </trkpt>
      <trkpt lat="45.69807" lon="6.61693">
        <ele>1200.17</ele>
        <time>2018-09-09T13:51:35Z</time>
      </trkpt>
      <trkpt lat="45.69814" lon="6.61646">
        <ele>1197.98</ele>
        <time>2018-09-09T13:51:37Z</time>
      </trkpt>
      <trkpt lat="45.69812" lon="6.61605">
        <ele>1195.96</ele>
        <time>2018-09-09T13:51:39Z</time>
      </trkpt>
      <trkpt lat="45.69803" lon="6.61562">
        <ele>1194.17</ele>
        <time>2018-09-09T13:51:41Z</time>
      </trkpt>
      <trkpt lat="45.69794" lon="6.6154">
        <ele>1194.42</ele>
        <time>2018-09-09T13:51:42Z</time>
      </trkpt>
      <trkpt lat="45.69783" lon="6.61515">
        <ele>1193.8</ele>
        <time>2018-09-09T13:51:43Z</time>
      </trkpt>
      <trkpt lat="45.69767" lon="6.61496">
        <ele>1193.61</ele>
        <time>2018-09-09T13:51:44Z</time>
      </trkpt>
      <trkpt lat="45.69748" lon="6.61482">
        <ele>1192.86</ele>
        <time>2018-09-09T13:51:45Z</time>
      </trkpt>
      <trkpt lat="45.69722" lon="6.61451">
        <ele>1190.95</ele>
        <time>2018-09-09T13:51:47Z</time>
      </trkpt>
      <trkpt lat="45.69704" lon="6.61434">
        <ele>1190.78</ele>
        <time>2018-09-09T13:51:49Z</time>
      </trkpt>
      <trkpt lat="45.69723" lon="6.61428">
        <ele>1182.68</ele>
        <time>2018-09-09T13:51:54Z</time>
      </trkpt>
      <trkpt lat="45.69747" lon="6.61447">
        <ele>1181.84</ele>
        <time>2018-09-09T13:51:56Z</time>
      </trkpt>
      <trkpt lat="45.69781" lon="6.61459">
        <ele>1178.13</ele>
        <time>2018-09-09T13:51:58Z</time>
      </trkpt>
      <trkpt lat="45.69815" lon="6.61466">
        <ele>1172.68</ele>
        <time>2018-09-09T13:52:00Z</time>
      </trkpt>
      <trkpt lat="45.69841" lon="6.61487">
        <ele>1167.5</ele>
        <time>2018-09-09T13:52:02Z</time>
      </trkpt>
      <trkpt lat="45.69863" lon="6.61515">
        <ele>1166.62</ele>
        <time>2018-09-09T13:52:04Z</time>
      </trkpt>
      <trkpt lat="45.69863" lon="6.61542">
        <ele>1166.56</ele>
        <time>2018-09-09T13:52:05Z</time>
      </trkpt>
      <trkpt lat="45.69875" lon="6.6159">
        <ele>1164.5</ele>
        <time>2018-09-09T13:52:07Z</time>
      </trkpt>
      <trkpt lat="45.69881" lon="6.61615">
        <ele>1163.82</ele>
        <time>2018-09-09T13:52:08Z</time>
      </trkpt>
      <trkpt lat="45.69889" lon="6.6164">
        <ele>1163.62</ele>
        <time>2018-09-09T13:52:09Z</time>
      </trkpt>
      <trkpt lat="45.69895" lon="6.61667">
        <ele>1162.86</ele>
        <time>2018-09-09T13:52:10Z</time>
      </trkpt>
      <trkpt lat="45.69902" lon="6.61693">
        <ele>1162.63</ele>
        <time>2018-09-09T13:52:11Z</time>
      </trkpt>
      <trkpt lat="45.6991" lon="6.61719">
        <ele>1162.56</ele>
        <time>2018-09-09T13:52:12Z</time>
      </trkpt>
      <trkpt lat="45.6992" lon="6.61744">
        <ele>1161.84</ele>
        <time>2018-09-09T13:52:13Z</time>
      </trkpt>
      <trkpt lat="45.6993" lon="6.61771">
        <ele>1158.12</ele>
        <time>2018-09-09T13:52:14Z</time>
      </trkpt>
      <trkpt lat="45.69943" lon="6.61795">
        <ele>1154.91</ele>
        <time>2018-09-09T13:52:15Z</time>
      </trkpt>
      <trkpt lat="45.69956" lon="6.61818">
        <ele>1152.54</ele>
        <time>2018-09-09T13:52:16Z</time>
      </trkpt>
      <trkpt lat="45.6997" lon="6.61836">
        <ele>1151.14</ele>
        <time>2018-09-09T13:52:17Z</time>
      </trkpt>
      <trkpt lat="45.69987" lon="6.6185">
        <ele>1148.61</ele>
        <time>2018-09-09T13:52:18Z</time>
      </trkpt>
      <trkpt lat="45.70005" lon="6.61861">
        <ele>1146.46</ele>
        <time>2018-09-09T13:52:19Z</time>
      </trkpt>
      <trkpt lat="45.70023" lon="6.61871">
        <ele>1145.11</ele>
        <time>2018-09-09T13:52:20Z</time>
      </trkpt>
      <trkpt lat="45.70041" lon="6.61882">
        <ele>1144</ele>
        <time>2018-09-09T13:52:21Z</time>
      </trkpt>
      <trkpt lat="45.70058" lon="6.61892">
        <ele>1142.97</ele>
        <time>2018-09-09T13:52:22Z</time>
      </trkpt>
      <trkpt lat="45.70081" lon="6.61914">
        <ele>1139.56</ele>
        <time>2018-09-09T13:52:24Z</time>
      </trkpt>
      <trkpt lat="45.70092" lon="6.61952">
        <ele>1136.1</ele>
        <time>2018-09-09T13:52:26Z</time>
      </trkpt>
      <trkpt lat="45.701" lon="6.61998">
        <ele>1134.88</ele>
        <time>2018-09-09T13:52:28Z</time>
      </trkpt>
      <trkpt lat="45.70109" lon="6.62037">
        <ele>1132.46</ele>
        <time>2018-09-09T13:52:30Z</time>
      </trkpt>
      <trkpt lat="45.70121" lon="6.62081">
        <ele>1129.09</ele>
        <time>2018-09-09T13:52:32Z</time>
      </trkpt>
      <trkpt lat="45.70126" lon="6.62106">
        <ele>1128</ele>
        <time>2018-09-09T13:52:33Z</time>
      </trkpt>
      <trkpt lat="45.70142" lon="6.62155">
        <ele>1123.65</ele>
        <time>2018-09-09T13:52:35Z</time>
      </trkpt>
      <trkpt lat="45.70151" lon="6.62178">
        <ele>1120.77</ele>
        <time>2018-09-09T13:52:36Z</time>
      </trkpt>
      <trkpt lat="45.70163" lon="6.62202">
        <ele>1118.5</ele>
        <time>2018-09-09T13:52:37Z</time>
      </trkpt>
      <trkpt lat="45.70178" lon="6.62226">
        <ele>1117.12</ele>
        <time>2018-09-09T13:52:38Z</time>
      </trkpt>
      <trkpt lat="45.7019" lon="6.6225">
        <ele>1116.01</ele>
        <time>2018-09-09T13:52:39Z</time>
      </trkpt>
      <trkpt lat="45.70204" lon="6.62273">
        <ele>1115.67</ele>
        <time>2018-09-09T13:52:40Z</time>
      </trkpt>
      <trkpt lat="45.70217" lon="6.62295">
        <ele>1114.87</ele>
        <time>2018-09-09T13:52:41Z</time>
      </trkpt>
      <trkpt lat="45.7023" lon="6.62316">
        <ele>1113.23</ele>
        <time>2018-09-09T13:52:42Z</time>
      </trkpt>
      <trkpt lat="45.70244" lon="6.62334">
        <ele>1112.04</ele>
        <time>2018-09-09T13:52:43Z</time>
      </trkpt>
      <trkpt lat="45.70271" lon="6.62356">
        <ele>1111.58</ele>
        <time>2018-09-09T13:52:45Z</time>
      </trkpt>
      <trkpt lat="45.70303" lon="6.62378">
        <ele>1110.63</ele>
        <time>2018-09-09T13:52:47Z</time>
      </trkpt>
      <trkpt lat="45.70323" lon="6.62395">
        <ele>1109.16</ele>
        <time>2018-09-09T13:52:48Z</time>
      </trkpt>
      <trkpt lat="45.70344" lon="6.62408">
        <ele>1109.42</ele>
        <time>2018-09-09T13:52:49Z</time>
      </trkpt>
      <trkpt lat="45.70366" lon="6.62419">
        <ele>1108.8</ele>
        <time>2018-09-09T13:52:50Z</time>
      </trkpt>
      <trkpt lat="45.70387" lon="6.62429">
        <ele>1107.91</ele>
        <time>2018-09-09T13:52:51Z</time>
      </trkpt>
      <trkpt lat="45.70409" lon="6.62438">
        <ele>1107.65</ele>
        <time>2018-09-09T13:52:52Z</time>
      </trkpt>
      <trkpt lat="45.7043" lon="6.62447">
        <ele>1105.47</ele>
        <time>2018-09-09T13:52:53Z</time>
      </trkpt>
      <trkpt lat="45.70455" lon="6.62447">
        <ele>1103.41</ele>
        <time>2018-09-09T13:52:54Z</time>
      </trkpt>
      <trkpt lat="45.70475" lon="6.62451">
        <ele>1099.3</ele>
        <time>2018-09-09T13:52:55Z</time>
      </trkpt>
      <trkpt lat="45.70497" lon="6.62455">
        <ele>1095.96</ele>
        <time>2018-09-09T13:52:56Z</time>
      </trkpt>
      <trkpt lat="45.70519" lon="6.62461">
        <ele>1093.56</ele>
        <time>2018-09-09T13:52:57Z</time>
      </trkpt>
      <trkpt lat="45.7055" lon="6.62464">
        <ele>1090.1</ele>
        <time>2018-09-09T13:52:59Z</time>
      </trkpt>
      <trkpt lat="45.70568" lon="6.62469">
        <ele>1088.18</ele>
        <time>2018-09-09T13:53:01Z</time>
      </trkpt>
      <trkpt lat="45.70554" lon="6.62447">
        <ele>1086.33</ele>
        <time>2018-09-09T13:53:02Z</time>
      </trkpt>
      <trkpt lat="45.70518" lon="6.62435">
        <ele>1083.67</ele>
        <time>2018-09-09T13:53:03Z</time>
      </trkpt>
      <trkpt lat="45.70487" lon="6.62432">
        <ele>1079.2</ele>
        <time>2018-09-09T13:53:05Z</time>
      </trkpt>
      <trkpt lat="45.70454" lon="6.62412">
        <ele>1077.89</ele>
        <time>2018-09-09T13:53:07Z</time>
      </trkpt>
      <trkpt lat="45.7042" lon="6.62384">
        <ele>1074.55</ele>
        <time>2018-09-09T13:53:09Z</time>
      </trkpt>
      <trkpt lat="45.70405" lon="6.62368">
        <ele>1073.14</ele>
        <time>2018-09-09T13:53:10Z</time>
      </trkpt>
      <trkpt lat="45.70388" lon="6.62333">
        <ele>1070.28</ele>
        <time>2018-09-09T13:53:12Z</time>
      </trkpt>
      <trkpt lat="45.70377" lon="6.62305">
        <ele>1060.83</ele>
        <time>2018-09-09T13:53:15Z</time>
      </trkpt>
      <trkpt lat="45.70371" lon="6.62273">
        <ele>1055.37</ele>
        <time>2018-09-09T13:53:18Z</time>
      </trkpt>
      <trkpt lat="45.70374" lon="6.62235">
        <ele>1051.21</ele>
        <time>2018-09-09T13:53:21Z</time>
      </trkpt>
      <trkpt lat="45.70378" lon="6.62204">
        <ele>1048.07</ele>
        <time>2018-09-09T13:53:23Z</time>
      </trkpt>
      <trkpt lat="45.70381" lon="6.6217">
        <ele>1045.97</ele>
        <time>2018-09-09T13:53:25Z</time>
      </trkpt>
      <trkpt lat="45.70374" lon="6.62144">
        <ele>1045.36</ele>
        <time>2018-09-09T13:53:27Z</time>
      </trkpt>
      <trkpt lat="45.70358" lon="6.62118">
        <ele>1044.55</ele>
        <time>2018-09-09T13:53:30Z</time>
      </trkpt>
      <trkpt lat="45.70352" lon="6.62089">
        <ele>1042.01</ele>
        <time>2018-09-09T13:53:33Z</time>
      </trkpt>
      <trkpt lat="45.7036" lon="6.62064">
        <ele>1040.57</ele>
        <time>2018-09-09T13:53:36Z</time>
      </trkpt>
      <trkpt lat="45.7038" lon="6.62049">
        <ele>1041.44</ele>
        <time>2018-09-09T13:53:38Z</time>
      </trkpt>
      <trkpt lat="45.70409" lon="6.62037">
        <ele>1038.51</ele>
        <time>2018-09-09T13:53:40Z</time>
      </trkpt>
      <trkpt lat="45.70443" lon="6.62023">
        <ele>1036.92</ele>
        <time>2018-09-09T13:53:42Z</time>
      </trkpt>
      <trkpt lat="45.70477" lon="6.6201">
        <ele>1035.66</ele>
        <time>2018-09-09T13:53:44Z</time>
      </trkpt>
      <trkpt lat="45.7051" lon="6.62">
        <ele>1033.93</ele>
        <time>2018-09-09T13:53:46Z</time>
      </trkpt>
      <trkpt lat="45.70541" lon="6.61981">
        <ele>1033.57</ele>
        <time>2018-09-09T13:53:48Z</time>
      </trkpt>
      <trkpt lat="45.70571" lon="6.61954">
        <ele>1032.62</ele>
        <time>2018-09-09T13:53:50Z</time>
      </trkpt>
      <trkpt lat="45.70599" lon="6.61925">
        <ele>1031.14</ele>
        <time>2018-09-09T13:53:52Z</time>
      </trkpt>
      <trkpt lat="45.70615" lon="6.61885">
        <ele>1029.19</ele>
        <time>2018-09-09T13:53:54Z</time>
      </trkpt>
      <trkpt lat="45.70627" lon="6.61836">
        <ele>1027.68</ele>
        <time>2018-09-09T13:53:56Z</time>
      </trkpt>
      <trkpt lat="45.70632" lon="6.61809">
        <ele>1026.18</ele>
        <time>2018-09-09T13:53:57Z</time>
      </trkpt>
      <trkpt lat="45.70635" lon="6.6178">
        <ele>1025.72</ele>
        <time>2018-09-09T13:53:58Z</time>
      </trkpt>
      <trkpt lat="45.70637" lon="6.61751">
        <ele>1024.89</ele>
        <time>2018-09-09T13:53:59Z</time>
      </trkpt>
      <trkpt lat="45.7064" lon="6.61722">
        <ele>1023.94</ele>
        <time>2018-09-09T13:54:00Z</time>
      </trkpt>
      <trkpt lat="45.70643" lon="6.61692">
        <ele>1023.65</ele>
        <time>2018-09-09T13:54:01Z</time>
      </trkpt>
      <trkpt lat="45.70645" lon="6.61661">
        <ele>1022.87</ele>
        <time>2018-09-09T13:54:02Z</time>
      </trkpt>
      <trkpt lat="45.70646" lon="6.6163">
        <ele>1021.93</ele>
        <time>2018-09-09T13:54:03Z</time>
      </trkpt>
      <trkpt lat="45.70646" lon="6.61599">
        <ele>1021.65</ele>
        <time>2018-09-09T13:54:04Z</time>
      </trkpt>
      <trkpt lat="45.70645" lon="6.61568">
        <ele>1020.87</ele>
        <time>2018-09-09T13:54:05Z</time>
      </trkpt>
      <trkpt lat="45.70644" lon="6.61537">
        <ele>1019.93</ele>
        <time>2018-09-09T13:54:06Z</time>
      </trkpt>
      <trkpt lat="45.70643" lon="6.61508">
        <ele>1019.65</ele>
        <time>2018-09-09T13:54:07Z</time>
      </trkpt>
      <trkpt lat="45.70646" lon="6.6148">
        <ele>1019.57</ele>
        <time>2018-09-09T13:54:08Z</time>
      </trkpt>
      <trkpt lat="45.70648" lon="6.61454">
        <ele>1018.84</ele>
        <time>2018-09-09T13:54:09Z</time>
      </trkpt>
      <trkpt lat="45.7066" lon="6.61427">
        <ele>1018.62</ele>
        <time>2018-09-09T13:54:10Z</time>
      </trkpt>
      <trkpt lat="45.70669" lon="6.61401">
        <ele>1018.56</ele>
        <time>2018-09-09T13:54:11Z</time>
      </trkpt>
      <trkpt lat="45.70678" lon="6.61375">
        <ele>1017.84</ele>
        <time>2018-09-09T13:54:12Z</time>
      </trkpt>
      <trkpt lat="45.70687" lon="6.6135">
        <ele>1016.92</ele>
        <time>2018-09-09T13:54:13Z</time>
      </trkpt>
      <trkpt lat="45.70707" lon="6.61316">
        <ele>1014.26</ele>
        <time>2018-09-09T13:54:15Z</time>
      </trkpt>
      <trkpt lat="45.70714" lon="6.61286">
        <ele>1012.2</ele>
        <time>2018-09-09T13:54:17Z</time>
      </trkpt>
      <trkpt lat="45.70706" lon="6.61254">
        <ele>1009.77</ele>
        <time>2018-09-09T13:54:19Z</time>
      </trkpt>
      <trkpt lat="45.70704" lon="6.6122">
        <ele>1008.64</ele>
        <time>2018-09-09T13:54:21Z</time>
      </trkpt>
      <trkpt lat="45.70716" lon="6.61188">
        <ele>1006.72</ele>
        <time>2018-09-09T13:54:23Z</time>
      </trkpt>
      <trkpt lat="45.70693" lon="6.61153">
        <ele>1003.05</ele>
        <time>2018-09-09T13:54:25Z</time>
      </trkpt>
      <trkpt lat="45.70673" lon="6.61123">
        <ele>999.36</ele>
        <time>2018-09-09T13:54:27Z</time>
      </trkpt>
      <trkpt lat="45.70662" lon="6.61082">
        <ele>998.61</ele>
        <time>2018-09-09T13:54:29Z</time>
      </trkpt>
      <trkpt lat="45.70684" lon="6.61046">
        <ele>997.15</ele>
        <time>2018-09-09T13:54:30Z</time>
      </trkpt>
      <trkpt lat="45.7069" lon="6.61019">
        <ele>996.72</ele>
        <time>2018-09-09T13:54:31Z</time>
      </trkpt>
      <trkpt lat="45.70697" lon="6.60991">
        <ele>994.49</ele>
        <time>2018-09-09T13:54:32Z</time>
      </trkpt>
      <trkpt lat="45.70703" lon="6.60965">
        <ele>991.72</ele>
        <time>2018-09-09T13:54:33Z</time>
      </trkpt>
      <trkpt lat="45.70719" lon="6.60924">
        <ele>987.21</ele>
        <time>2018-09-09T13:54:35Z</time>
      </trkpt>
      <trkpt lat="45.70735" lon="6.60888">
        <ele>984.77</ele>
        <time>2018-09-09T13:54:37Z</time>
      </trkpt>
      <trkpt lat="45.70736" lon="6.60855">
        <ele>982.24</ele>
        <time>2018-09-09T13:54:39Z</time>
      </trkpt>
      <trkpt lat="45.70727" lon="6.60814">
        <ele>980.2</ele>
        <time>2018-09-09T13:54:41Z</time>
      </trkpt>
      <trkpt lat="45.70713" lon="6.60767">
        <ele>975.25</ele>
        <time>2018-09-09T13:54:43Z</time>
      </trkpt>
      <trkpt lat="45.70703" lon="6.6072">
        <ele>972.99</ele>
        <time>2018-09-09T13:54:45Z</time>
      </trkpt>
      <trkpt lat="45.70711" lon="6.60676">
        <ele>969.56</ele>
        <time>2018-09-09T13:54:47Z</time>
      </trkpt>
      <trkpt lat="45.70725" lon="6.60633">
        <ele>965.61</ele>
        <time>2018-09-09T13:54:49Z</time>
      </trkpt>
      <trkpt lat="45.70738" lon="6.6059">
        <ele>962.81</ele>
        <time>2018-09-09T13:54:51Z</time>
      </trkpt>
      <trkpt lat="45.70736" lon="6.60548">
        <ele>960.04</ele>
        <time>2018-09-09T13:54:53Z</time>
      </trkpt>
      <trkpt lat="45.70745" lon="6.60519">
        <ele>957.76</ele>
        <time>2018-09-09T13:54:55Z</time>
      </trkpt>
      <trkpt lat="45.70759" lon="6.60499">
        <ele>956.15</ele>
        <time>2018-09-09T13:54:57Z</time>
      </trkpt>
      <trkpt lat="45.70764" lon="6.60468">
        <ele>953.98</ele>
        <time>2018-09-09T13:54:59Z</time>
      </trkpt>
      <trkpt lat="45.70755" lon="6.60418">
        <ele>952.87</ele>
        <time>2018-09-09T13:55:01Z</time>
      </trkpt>
      <trkpt lat="45.70749" lon="6.60391">
        <ele>951.93</ele>
        <time>2018-09-09T13:55:02Z</time>
      </trkpt>
      <trkpt lat="45.70743" lon="6.60341">
        <ele>949.96</ele>
        <time>2018-09-09T13:55:04Z</time>
      </trkpt>
      <trkpt lat="45.70727" lon="6.60295">
        <ele>947.05</ele>
        <time>2018-09-09T13:55:06Z</time>
      </trkpt>
      <trkpt lat="45.70706" lon="6.60248">
        <ele>944.27</ele>
        <time>2018-09-09T13:55:08Z</time>
      </trkpt>
      <trkpt lat="45.70696" lon="6.60223">
        <ele>942.35</ele>
        <time>2018-09-09T13:55:09Z</time>
      </trkpt>
      <trkpt lat="45.70688" lon="6.60195">
        <ele>941.08</ele>
        <time>2018-09-09T13:55:10Z</time>
      </trkpt>
      <trkpt lat="45.70681" lon="6.60167">
        <ele>939.29</ele>
        <time>2018-09-09T13:55:11Z</time>
      </trkpt>
      <trkpt lat="45.70673" lon="6.6014">
        <ele>937.36</ele>
        <time>2018-09-09T13:55:12Z</time>
      </trkpt>
      <trkpt lat="45.70667" lon="6.60114">
        <ele>936.08</ele>
        <time>2018-09-09T13:55:13Z</time>
      </trkpt>
      <trkpt lat="45.70666" lon="6.60086">
        <ele>934.3</ele>
        <time>2018-09-09T13:55:14Z</time>
      </trkpt>
      <trkpt lat="45.70667" lon="6.60057">
        <ele>931.66</ele>
        <time>2018-09-09T13:55:15Z</time>
      </trkpt>
      <trkpt lat="45.70669" lon="6.60027">
        <ele>930.17</ele>
        <time>2018-09-09T13:55:16Z</time>
      </trkpt>
      <trkpt lat="45.70672" lon="6.59997">
        <ele>929.02</ele>
        <time>2018-09-09T13:55:17Z</time>
      </trkpt>
      <trkpt lat="45.70674" lon="6.59966">
        <ele>928.68</ele>
        <time>2018-09-09T13:55:18Z</time>
      </trkpt>
      <trkpt lat="45.70678" lon="6.59936">
        <ele>927.88</ele>
        <time>2018-09-09T13:55:19Z</time>
      </trkpt>
      <trkpt lat="45.70684" lon="6.59906">
        <ele>926.93</ele>
        <time>2018-09-09T13:55:20Z</time>
      </trkpt>
      <trkpt lat="45.7069" lon="6.59878">
        <ele>926.65</ele>
        <time>2018-09-09T13:55:21Z</time>
      </trkpt>
      <trkpt lat="45.70695" lon="6.5985">
        <ele>925.87</ele>
        <time>2018-09-09T13:55:22Z</time>
      </trkpt>
      <trkpt lat="45.707" lon="6.59823">
        <ele>924.93</ele>
        <time>2018-09-09T13:55:23Z</time>
      </trkpt>
      <trkpt lat="45.70704" lon="6.59796">
        <ele>923.95</ele>
        <time>2018-09-09T13:55:24Z</time>
      </trkpt>
      <trkpt lat="45.70708" lon="6.59768">
        <ele>922.96</ele>
        <time>2018-09-09T13:55:25Z</time>
      </trkpt>
      <trkpt lat="45.70709" lon="6.59739">
        <ele>921.96</ele>
        <time>2018-09-09T13:55:26Z</time>
      </trkpt>
      <trkpt lat="45.7071" lon="6.5971">
        <ele>917.46</ele>
        <time>2018-09-09T13:55:27Z</time>
      </trkpt>
      <trkpt lat="45.70712" lon="6.59679">
        <ele>911.91</ele>
        <time>2018-09-09T13:55:28Z</time>
      </trkpt>
      <trkpt lat="45.7071" lon="6.59649">
        <ele>909.54</ele>
        <time>2018-09-09T13:55:29Z</time>
      </trkpt>
      <trkpt lat="45.70709" lon="6.59618">
        <ele>908.14</ele>
        <time>2018-09-09T13:55:30Z</time>
      </trkpt>
      <trkpt lat="45.70706" lon="6.59567">
        <ele>906.68</ele>
        <time>2018-09-09T13:55:32Z</time>
      </trkpt>
      <trkpt lat="45.70705" lon="6.59521">
        <ele>905.63</ele>
        <time>2018-09-09T13:55:34Z</time>
      </trkpt>
      <trkpt lat="45.70713" lon="6.59479">
        <ele>903.44</ele>
        <time>2018-09-09T13:55:36Z</time>
      </trkpt>
      <trkpt lat="45.70715" lon="6.59453">
        <ele>902.1</ele>
        <time>2018-09-09T13:55:37Z</time>
      </trkpt>
      <trkpt lat="45.70718" lon="6.59426">
        <ele>900.3</ele>
        <time>2018-09-09T13:55:38Z</time>
      </trkpt>
      <trkpt lat="45.70719" lon="6.59399">
        <ele>896.96</ele>
        <time>2018-09-09T13:55:39Z</time>
      </trkpt>
      <trkpt lat="45.70734" lon="6.5935">
        <ele>891.53</ele>
        <time>2018-09-09T13:55:41Z</time>
      </trkpt>
      <trkpt lat="45.70745" lon="6.59326">
        <ele>890.13</ele>
        <time>2018-09-09T13:55:42Z</time>
      </trkpt>
      <trkpt lat="45.70756" lon="6.59305">
        <ele>888.31</ele>
        <time>2018-09-09T13:55:43Z</time>
      </trkpt>
      <trkpt lat="45.70766" lon="6.59282">
        <ele>886.36</ele>
        <time>2018-09-09T13:55:44Z</time>
      </trkpt>
      <trkpt lat="45.70774" lon="6.59258">
        <ele>885.08</ele>
        <time>2018-09-09T13:55:45Z</time>
      </trkpt>
      <trkpt lat="45.70786" lon="6.59213">
        <ele>881.36</ele>
        <time>2018-09-09T13:55:47Z</time>
      </trkpt>
      <trkpt lat="45.70806" lon="6.59181">
        <ele>877.39</ele>
        <time>2018-09-09T13:55:49Z</time>
      </trkpt>
      <trkpt lat="45.70832" lon="6.59168">
        <ele>873.39</ele>
        <time>2018-09-09T13:55:51Z</time>
      </trkpt>
      <trkpt lat="45.70857" lon="6.59163">
        <ele>871.21</ele>
        <time>2018-09-09T13:55:53Z</time>
      </trkpt>
      <trkpt lat="45.70877" lon="6.59138">
        <ele>868.98</ele>
        <time>2018-09-09T13:55:55Z</time>
      </trkpt>
      <trkpt lat="45.70898" lon="6.59103">
        <ele>866.26</ele>
        <time>2018-09-09T13:55:57Z</time>
      </trkpt>
      <trkpt lat="45.7091" lon="6.59083">
        <ele>865.05</ele>
        <time>2018-09-09T13:55:58Z</time>
      </trkpt>
      <trkpt lat="45.70925" lon="6.59056">
        <ele>863.99</ele>
        <time>2018-09-09T13:55:59Z</time>
      </trkpt>
      <trkpt lat="45.7094" lon="6.59033">
        <ele>862.97</ele>
        <time>2018-09-09T13:56:00Z</time>
      </trkpt>
      <trkpt lat="45.70954" lon="6.5901">
        <ele>861.26</ele>
        <time>2018-09-09T13:56:01Z</time>
      </trkpt>
      <trkpt lat="45.70978" lon="6.58981">
        <ele>857.17</ele>
        <time>2018-09-09T13:56:03Z</time>
      </trkpt>
      <trkpt lat="45.70996" lon="6.58965">
        <ele>854.98</ele>
        <time>2018-09-09T13:56:05Z</time>
      </trkpt>
      <trkpt lat="45.71012" lon="6.58942">
        <ele>852.02</ele>
        <time>2018-09-09T13:56:08Z</time>
      </trkpt>
      <trkpt lat="45.71031" lon="6.58938">
        <ele>849.63</ele>
        <time>2018-09-09T13:56:12Z</time>
      </trkpt>
      <trkpt lat="45.71026" lon="6.58966">
        <ele>848.56</ele>
        <time>2018-09-09T13:56:15Z</time>
      </trkpt>
      <trkpt lat="45.71008" lon="6.58989">
        <ele>847.62</ele>
        <time>2018-09-09T13:56:18Z</time>
      </trkpt>
      <trkpt lat="45.70992" lon="6.59002">
        <ele>846.56</ele>
        <time>2018-09-09T13:56:21Z</time>
      </trkpt>
      <trkpt lat="45.71005" lon="6.5902">
        <ele>844.86</ele>
        <time>2018-09-09T13:56:25Z</time>
      </trkpt>
      <trkpt lat="45.7103" lon="6.59003">
        <ele>844.07</ele>
        <time>2018-09-09T13:56:27Z</time>
      </trkpt>
      <trkpt lat="45.71059" lon="6.58978">
        <ele>840.36</ele>
        <time>2018-09-09T13:56:29Z</time>
      </trkpt>
      <trkpt lat="45.71086" lon="6.58957">
        <ele>838</ele>
        <time>2018-09-09T13:56:31Z</time>
      </trkpt>
      <trkpt lat="45.71106" lon="6.58931">
        <ele>834.14</ele>
        <time>2018-09-09T13:56:33Z</time>
      </trkpt>
      <trkpt lat="45.7112" lon="6.58884">
        <ele>832.68</ele>
        <time>2018-09-09T13:56:35Z</time>
      </trkpt>
      <trkpt lat="45.71126" lon="6.58856">
        <ele>831.87</ele>
        <time>2018-09-09T13:56:36Z</time>
      </trkpt>
      <trkpt lat="45.71132" lon="6.5883">
        <ele>830.93</ele>
        <time>2018-09-09T13:56:37Z</time>
      </trkpt>
      <trkpt lat="45.71138" lon="6.58803">
        <ele>830.65</ele>
        <time>2018-09-09T13:56:38Z</time>
      </trkpt>
      <trkpt lat="45.71146" lon="6.58755">
        <ele>828.23</ele>
        <time>2018-09-09T13:56:40Z</time>
      </trkpt>
      <trkpt lat="45.71163" lon="6.58712">
        <ele>825.98</ele>
        <time>2018-09-09T13:56:42Z</time>
      </trkpt>
      <trkpt lat="45.71172" lon="6.58688">
        <ele>824.97</ele>
        <time>2018-09-09T13:56:43Z</time>
      </trkpt>
      <trkpt lat="45.71178" lon="6.58659">
        <ele>823.96</ele>
        <time>2018-09-09T13:56:44Z</time>
      </trkpt>
      <trkpt lat="45.71181" lon="6.58626">
        <ele>822.26</ele>
        <time>2018-09-09T13:56:45Z</time>
      </trkpt>
      <trkpt lat="45.71183" lon="6.58588">
        <ele>819.65</ele>
        <time>2018-09-09T13:56:46Z</time>
      </trkpt>
      <trkpt lat="45.71186" lon="6.58551">
        <ele>817.47</ele>
        <time>2018-09-09T13:56:47Z</time>
      </trkpt>
      <trkpt lat="45.71188" lon="6.58515">
        <ele>816.11</ele>
        <time>2018-09-09T13:56:48Z</time>
      </trkpt>
      <trkpt lat="45.71191" lon="6.58482">
        <ele>815.01</ele>
        <time>2018-09-09T13:56:49Z</time>
      </trkpt>
      <trkpt lat="45.71193" lon="6.58452">
        <ele>813.27</ele>
        <time>2018-09-09T13:56:50Z</time>
      </trkpt>
      <trkpt lat="45.71197" lon="6.58426">
        <ele>811.35</ele>
        <time>2018-09-09T13:56:51Z</time>
      </trkpt>
      <trkpt lat="45.71202" lon="6.58399">
        <ele>810.08</ele>
        <time>2018-09-09T13:56:52Z</time>
      </trkpt>
      <trkpt lat="45.71207" lon="6.58373">
        <ele>809.7</ele>
        <time>2018-09-09T13:56:53Z</time>
      </trkpt>
      <trkpt lat="45.71217" lon="6.58346">
        <ele>809.58</ele>
        <time>2018-09-09T13:56:54Z</time>
      </trkpt>
      <trkpt lat="45.7124" lon="6.5831">
        <ele>807.45</ele>
        <time>2018-09-09T13:56:55Z</time>
      </trkpt>
      <trkpt lat="45.71258" lon="6.58278">
        <ele>804.01</ele>
        <time>2018-09-09T13:56:56Z</time>
      </trkpt>
      <trkpt lat="45.71272" lon="6.58249">
        <ele>802.27</ele>
        <time>2018-09-09T13:56:57Z</time>
      </trkpt>
      <trkpt lat="45.71283" lon="6.58223">
        <ele>800.35</ele>
        <time>2018-09-09T13:56:58Z</time>
      </trkpt>
      <trkpt lat="45.71292" lon="6.58194">
        <ele>799.08</ele>
        <time>2018-09-09T13:56:59Z</time>
      </trkpt>
      <trkpt lat="45.71296" lon="6.58162">
        <ele>798</ele>
        <time>2018-09-09T13:57:00Z</time>
      </trkpt>
      <trkpt lat="45.713" lon="6.5813">
        <ele>797.67</ele>
        <time>2018-09-09T13:57:01Z</time>
      </trkpt>
      <trkpt lat="45.71307" lon="6.58099">
        <ele>796.87</ele>
        <time>2018-09-09T13:57:02Z</time>
      </trkpt>
      <trkpt lat="45.71313" lon="6.58066">
        <ele>796.63</ele>
        <time>2018-09-09T13:57:03Z</time>
      </trkpt>
      <trkpt lat="45.71317" lon="6.58034">
        <ele>795.16</ele>
        <time>2018-09-09T13:57:04Z</time>
      </trkpt>
      <trkpt lat="45.71319" lon="6.58006">
        <ele>794.02</ele>
        <time>2018-09-09T13:57:05Z</time>
      </trkpt>
      <trkpt lat="45.7132" lon="6.57962">
        <ele>792.67</ele>
        <time>2018-09-09T13:57:07Z</time>
      </trkpt>
      <trkpt lat="45.71342" lon="6.57928">
        <ele>789.32</ele>
        <time>2018-09-09T13:57:09Z</time>
      </trkpt>
      <trkpt lat="45.71358" lon="6.57904">
        <ele>786.67</ele>
        <time>2018-09-09T13:57:10Z</time>
      </trkpt>
      <trkpt lat="45.71376" lon="6.57878">
        <ele>783.77</ele>
        <time>2018-09-09T13:57:11Z</time>
      </trkpt>
      <trkpt lat="45.71396" lon="6.57859">
        <ele>781.5</ele>
        <time>2018-09-09T13:57:12Z</time>
      </trkpt>
      <trkpt lat="45.71408" lon="6.57837">
        <ele>778.72</ele>
        <time>2018-09-09T13:57:13Z</time>
      </trkpt>
      <trkpt lat="45.71424" lon="6.57795">
        <ele>774.42</ele>
        <time>2018-09-09T13:57:15Z</time>
      </trkpt>
      <trkpt lat="45.71428" lon="6.57768">
        <ele>773.1</ele>
        <time>2018-09-09T13:57:16Z</time>
      </trkpt>
      <trkpt lat="45.71432" lon="6.5774">
        <ele>772</ele>
        <time>2018-09-09T13:57:17Z</time>
      </trkpt>
      <trkpt lat="45.71437" lon="6.57713">
        <ele>770.97</ele>
        <time>2018-09-09T13:57:18Z</time>
      </trkpt>
      <trkpt lat="45.71443" lon="6.57688">
        <ele>769.96</ele>
        <time>2018-09-09T13:57:19Z</time>
      </trkpt>
      <trkpt lat="45.71448" lon="6.57663">
        <ele>769.66</ele>
        <time>2018-09-09T13:57:20Z</time>
      </trkpt>
      <trkpt lat="45.71456" lon="6.57638">
        <ele>768.17</ele>
        <time>2018-09-09T13:57:21Z</time>
      </trkpt>
      <trkpt lat="45.71482" lon="6.57613">
        <ele>765.98</ele>
        <time>2018-09-09T13:57:23Z</time>
      </trkpt>
      <trkpt lat="45.71504" lon="6.57626">
        <ele>764.97</ele>
        <time>2018-09-09T13:57:24Z</time>
      </trkpt>
      <trkpt lat="45.71533" lon="6.57624">
        <ele>761.35</ele>
        <time>2018-09-09T13:57:26Z</time>
      </trkpt>
      <trkpt lat="45.71555" lon="6.57625">
        <ele>758.78</ele>
        <time>2018-09-09T13:57:28Z</time>
      </trkpt>
      <trkpt lat="45.71574" lon="6.57625">
        <ele>757.63</ele>
        <time>2018-09-09T13:57:31Z</time>
      </trkpt>
      <trkpt lat="45.71596" lon="6.57624">
        <ele>754.95</ele>
        <time>2018-09-09T13:57:34Z</time>
      </trkpt>
      <trkpt lat="45.7162" lon="6.57622">
        <ele>751.96</ele>
        <time>2018-09-09T13:57:37Z</time>
      </trkpt>
      <trkpt lat="45.71644" lon="6.57613">
        <ele>749.72</ele>
        <time>2018-09-09T13:57:40Z</time>
      </trkpt>
      <trkpt lat="45.71667" lon="6.57607">
        <ele>748.14</ele>
        <time>2018-09-09T13:57:43Z</time>
      </trkpt>
      <trkpt lat="45.71687" lon="6.57599">
        <ele>745.94</ele>
        <time>2018-09-09T13:57:46Z</time>
      </trkpt>
      <trkpt lat="45.71708" lon="6.57584">
        <ele>745.74</ele>
        <time>2018-09-09T13:57:50Z</time>
      </trkpt>
      <trkpt lat="45.71726" lon="6.57574">
        <ele>745.39</ele>
        <time>2018-09-09T13:57:53Z</time>
      </trkpt>
      <trkpt lat="45.71742" lon="6.57559">
        <ele>745.45</ele>
        <time>2018-09-09T13:57:57Z</time>
      </trkpt>
      <trkpt lat="45.71763" lon="6.57549">
        <ele>745.53</ele>
        <time>2018-09-09T13:58:00Z</time>
      </trkpt>
      <trkpt lat="45.71782" lon="6.57536">
        <ele>743.65</ele>
        <time>2018-09-09T13:58:03Z</time>
      </trkpt>
      <trkpt lat="45.71801" lon="6.57515">
        <ele>742.81</ele>
        <time>2018-09-09T13:58:07Z</time>
      </trkpt>
      <trkpt lat="45.71815" lon="6.57498">
        <ele>742.48</ele>
        <time>2018-09-09T13:58:10Z</time>
      </trkpt>
      <trkpt lat="45.71829" lon="6.57478">
        <ele>741.56</ele>
        <time>2018-09-09T13:58:13Z</time>
      </trkpt>
      <trkpt lat="45.71842" lon="6.57459">
        <ele>741.32</ele>
        <time>2018-09-09T13:58:16Z</time>
      </trkpt>
      <trkpt lat="45.71856" lon="6.57441">
        <ele>740.55</ele>
        <time>2018-09-09T13:58:19Z</time>
      </trkpt>
      <trkpt lat="45.71872" lon="6.57424">
        <ele>740.53</ele>
        <time>2018-09-09T13:58:22Z</time>
      </trkpt>
      <trkpt lat="45.71888" lon="6.57406">
        <ele>739.56</ele>
        <time>2018-09-09T13:58:26Z</time>
      </trkpt>
      <trkpt lat="45.71904" lon="6.57388">
        <ele>737.63</ele>
        <time>2018-09-09T13:58:30Z</time>
      </trkpt>
      <trkpt lat="45.71919" lon="6.57373">
        <ele>736.62</ele>
        <time>2018-09-09T13:58:34Z</time>
      </trkpt>
      <trkpt lat="45.71934" lon="6.57351">
        <ele>734.84</ele>
        <time>2018-09-09T13:58:39Z</time>
      </trkpt>
      <trkpt lat="45.71949" lon="6.57337">
        <ele>732.64</ele>
        <time>2018-09-09T14:06:28Z</time>
      </trkpt>
      <trkpt lat="45.71959" lon="6.57306">
        <ele>733.93</ele>
        <time>2018-09-09T14:12:48Z</time>
      </trkpt>
      <trkpt lat="45.7197" lon="6.57283">
        <ele>733.33</ele>
        <time>2018-09-09T14:12:51Z</time>
      </trkpt>
      <trkpt lat="45.71982" lon="6.57259">
        <ele>730.67</ele>
        <time>2018-09-09T14:12:54Z</time>
      </trkpt>
      <trkpt lat="45.71997" lon="6.57237">
        <ele>731.23</ele>
        <time>2018-09-09T14:12:57Z</time>
      </trkpt>
      <trkpt lat="45.72007" lon="6.57215">
        <ele>730.61</ele>
        <time>2018-09-09T14:13:00Z</time>
      </trkpt>
      <trkpt lat="45.72006" lon="6.57189">
        <ele>729.62</ele>
        <time>2018-09-09T14:13:03Z</time>
      </trkpt>
      <trkpt lat="45.72006" lon="6.57162">
        <ele>729.54</ele>
        <time>2018-09-09T14:13:05Z</time>
      </trkpt>
      <trkpt lat="45.72005" lon="6.5713">
        <ele>729.53</ele>
        <time>2018-09-09T14:13:07Z</time>
      </trkpt>
      <trkpt lat="45.72003" lon="6.57099">
        <ele>728.83</ele>
        <time>2018-09-09T14:13:09Z</time>
      </trkpt>
      <trkpt lat="45.72001" lon="6.57065">
        <ele>728.56</ele>
        <time>2018-09-09T14:13:11Z</time>
      </trkpt>
      <trkpt lat="45.71999" lon="6.5703">
        <ele>727.62</ele>
        <time>2018-09-09T14:13:13Z</time>
      </trkpt>
      <trkpt lat="45.71996" lon="6.56995">
        <ele>726.63</ele>
        <time>2018-09-09T14:13:15Z</time>
      </trkpt>
      <trkpt lat="45.71993" lon="6.5696">
        <ele>725.84</ele>
        <time>2018-09-09T14:13:17Z</time>
      </trkpt>
      <trkpt lat="45.71991" lon="6.56925">
        <ele>725.56</ele>
        <time>2018-09-09T14:13:19Z</time>
      </trkpt>
      <trkpt lat="45.71988" lon="6.5689">
        <ele>724.62</ele>
        <time>2018-09-09T14:13:21Z</time>
      </trkpt>
      <trkpt lat="45.71986" lon="6.56856">
        <ele>722.93</ele>
        <time>2018-09-09T14:13:23Z</time>
      </trkpt>
      <trkpt lat="45.71984" lon="6.56822">
        <ele>722.57</ele>
        <time>2018-09-09T14:13:25Z</time>
      </trkpt>
      <trkpt lat="45.71981" lon="6.56786">
        <ele>721.62</ele>
        <time>2018-09-09T14:13:27Z</time>
      </trkpt>
      <trkpt lat="45.71978" lon="6.56747">
        <ele>721.54</ele>
        <time>2018-09-09T14:13:29Z</time>
      </trkpt>
      <trkpt lat="45.71975" lon="6.56706">
        <ele>720.62</ele>
        <time>2018-09-09T14:13:31Z</time>
      </trkpt>
      <trkpt lat="45.71973" lon="6.56663">
        <ele>719.84</ele>
        <time>2018-09-09T14:13:33Z</time>
      </trkpt>
      <trkpt lat="45.71971" lon="6.56622">
        <ele>718.86</ele>
        <time>2018-09-09T14:13:35Z</time>
      </trkpt>
      <trkpt lat="45.71971" lon="6.56585">
        <ele>718.56</ele>
        <time>2018-09-09T14:13:37Z</time>
      </trkpt>
      <trkpt lat="45.71975" lon="6.56548">
        <ele>716.92</ele>
        <time>2018-09-09T14:13:39Z</time>
      </trkpt>
      <trkpt lat="45.71969" lon="6.56511">
        <ele>715.87</ele>
        <time>2018-09-09T14:13:41Z</time>
      </trkpt>
      <trkpt lat="45.71963" lon="6.56469">
        <ele>714.65</ele>
        <time>2018-09-09T14:13:43Z</time>
      </trkpt>
      <trkpt lat="45.71959" lon="6.56423">
        <ele>714.54</ele>
        <time>2018-09-09T14:13:45Z</time>
      </trkpt>
      <trkpt lat="45.71958" lon="6.56376">
        <ele>713.62</ele>
        <time>2018-09-09T14:13:47Z</time>
      </trkpt>
      <trkpt lat="45.71961" lon="6.56326">
        <ele>712.84</ele>
        <time>2018-09-09T14:13:49Z</time>
      </trkpt>
      <trkpt lat="45.71965" lon="6.563">
        <ele>712.62</ele>
        <time>2018-09-09T14:13:50Z</time>
      </trkpt>
      <trkpt lat="45.71971" lon="6.56275">
        <ele>712.56</ele>
        <time>2018-09-09T14:13:51Z</time>
      </trkpt>
      <trkpt lat="45.71977" lon="6.5625">
        <ele>711.84</ele>
        <time>2018-09-09T14:13:52Z</time>
      </trkpt>
      <trkpt lat="45.71984" lon="6.56226">
        <ele>711.62</ele>
        <time>2018-09-09T14:13:53Z</time>
      </trkpt>
      <trkpt lat="45.71994" lon="6.56202">
        <ele>710.86</ele>
        <time>2018-09-09T14:13:54Z</time>
      </trkpt>
      <trkpt lat="45.72004" lon="6.56178">
        <ele>710.63</ele>
        <time>2018-09-09T14:13:55Z</time>
      </trkpt>
      <trkpt lat="45.72014" lon="6.56154">
        <ele>709.86</ele>
        <time>2018-09-09T14:13:56Z</time>
      </trkpt>
      <trkpt lat="45.72023" lon="6.56129">
        <ele>709.63</ele>
        <time>2018-09-09T14:13:57Z</time>
      </trkpt>
      <trkpt lat="45.72032" lon="6.56106">
        <ele>710.26</ele>
        <time>2018-09-09T14:13:58Z</time>
      </trkpt>
      <trkpt lat="45.72041" lon="6.56082">
        <ele>709.75</ele>
        <time>2018-09-09T14:13:59Z</time>
      </trkpt>
      <trkpt lat="45.7205" lon="6.56058">
        <ele>708.9</ele>
        <time>2018-09-09T14:14:00Z</time>
      </trkpt>
      <trkpt lat="45.72058" lon="6.56034">
        <ele>708.64</ele>
        <time>2018-09-09T14:14:01Z</time>
      </trkpt>
      <trkpt lat="45.72067" lon="6.5601">
        <ele>707.86</ele>
        <time>2018-09-09T14:14:02Z</time>
      </trkpt>
      <trkpt lat="45.72075" lon="6.55987">
        <ele>706.93</ele>
        <time>2018-09-09T14:14:03Z</time>
      </trkpt>
      <trkpt lat="45.72084" lon="6.55964">
        <ele>706.65</ele>
        <time>2018-09-09T14:14:04Z</time>
      </trkpt>
      <trkpt lat="45.72092" lon="6.55941">
        <ele>706.57</ele>
        <time>2018-09-09T14:14:05Z</time>
      </trkpt>
      <trkpt lat="45.72101" lon="6.55918">
        <ele>705.84</ele>
        <time>2018-09-09T14:14:06Z</time>
      </trkpt>
      <trkpt lat="45.7211" lon="6.55895">
        <ele>705.62</ele>
        <time>2018-09-09T14:14:07Z</time>
      </trkpt>
      <trkpt lat="45.72119" lon="6.55873">
        <ele>704.86</ele>
        <time>2018-09-09T14:14:08Z</time>
      </trkpt>
      <trkpt lat="45.72128" lon="6.5585">
        <ele>704.63</ele>
        <time>2018-09-09T14:14:09Z</time>
      </trkpt>
      <trkpt lat="45.72137" lon="6.55827">
        <ele>703.86</ele>
        <time>2018-09-09T14:14:10Z</time>
      </trkpt>
      <trkpt lat="45.72146" lon="6.55804">
        <ele>703.63</ele>
        <time>2018-09-09T14:14:11Z</time>
      </trkpt>
      <trkpt lat="45.72156" lon="6.55783">
        <ele>702.86</ele>
        <time>2018-09-09T14:14:12Z</time>
      </trkpt>
      <trkpt lat="45.72178" lon="6.55742">
        <ele>701.86</ele>
        <time>2018-09-09T14:14:14Z</time>
      </trkpt>
      <trkpt lat="45.72191" lon="6.55722">
        <ele>702.33</ele>
        <time>2018-09-09T14:14:15Z</time>
      </trkpt>
      <trkpt lat="45.72204" lon="6.55703">
        <ele>702.47</ele>
        <time>2018-09-09T14:14:16Z</time>
      </trkpt>
      <trkpt lat="45.72217" lon="6.55683">
        <ele>702.51</ele>
        <time>2018-09-09T14:14:17Z</time>
      </trkpt>
      <trkpt lat="45.72229" lon="6.55663">
        <ele>701.83</ele>
        <time>2018-09-09T14:14:18Z</time>
      </trkpt>
      <trkpt lat="45.72241" lon="6.55643">
        <ele>701.62</ele>
        <time>2018-09-09T14:14:19Z</time>
      </trkpt>
      <trkpt lat="45.72253" lon="6.55624">
        <ele>702.26</ele>
        <time>2018-09-09T14:14:20Z</time>
      </trkpt>
      <trkpt lat="45.72266" lon="6.55603">
        <ele>702.45</ele>
        <time>2018-09-09T14:14:21Z</time>
      </trkpt>
      <trkpt lat="45.72279" lon="6.55582">
        <ele>702.51</ele>
        <time>2018-09-09T14:14:22Z</time>
      </trkpt>
      <trkpt lat="45.72293" lon="6.5556">
        <ele>701.82</ele>
        <time>2018-09-09T14:14:23Z</time>
      </trkpt>
      <trkpt lat="45.72307" lon="6.55537">
        <ele>701.62</ele>
        <time>2018-09-09T14:14:24Z</time>
      </trkpt>
      <trkpt lat="45.72321" lon="6.55515">
        <ele>701.56</ele>
        <time>2018-09-09T14:14:25Z</time>
      </trkpt>
      <trkpt lat="45.72334" lon="6.55492">
        <ele>700.84</ele>
        <time>2018-09-09T14:14:26Z</time>
      </trkpt>
      <trkpt lat="45.72348" lon="6.5547">
        <ele>700.62</ele>
        <time>2018-09-09T14:14:27Z</time>
      </trkpt>
      <trkpt lat="45.72362" lon="6.55448">
        <ele>699.86</ele>
        <time>2018-09-09T14:14:28Z</time>
      </trkpt>
      <trkpt lat="45.72376" lon="6.55427">
        <ele>699.63</ele>
        <time>2018-09-09T14:14:29Z</time>
      </trkpt>
      <trkpt lat="45.72391" lon="6.55405">
        <ele>699.56</ele>
        <time>2018-09-09T14:14:30Z</time>
      </trkpt>
      <trkpt lat="45.72404" lon="6.55383">
        <ele>699.54</ele>
        <time>2018-09-09T14:14:31Z</time>
      </trkpt>
      <trkpt lat="45.72419" lon="6.55361">
        <ele>698.83</ele>
        <time>2018-09-09T14:14:32Z</time>
      </trkpt>
      <trkpt lat="45.72433" lon="6.55339">
        <ele>698.62</ele>
        <time>2018-09-09T14:14:33Z</time>
      </trkpt>
      <trkpt lat="45.72447" lon="6.55317">
        <ele>698.56</ele>
        <time>2018-09-09T14:14:34Z</time>
      </trkpt>
      <trkpt lat="45.72461" lon="6.55295">
        <ele>697.84</ele>
        <time>2018-09-09T14:14:35Z</time>
      </trkpt>
      <trkpt lat="45.72475" lon="6.55273">
        <ele>697.62</ele>
        <time>2018-09-09T14:14:36Z</time>
      </trkpt>
      <trkpt lat="45.72489" lon="6.55249">
        <ele>696.86</ele>
        <time>2018-09-09T14:14:37Z</time>
      </trkpt>
      <trkpt lat="45.72502" lon="6.55226">
        <ele>697.33</ele>
        <time>2018-09-09T14:14:38Z</time>
      </trkpt>
      <trkpt lat="45.72514" lon="6.55202">
        <ele>697.47</ele>
        <time>2018-09-09T14:14:39Z</time>
      </trkpt>
      <trkpt lat="45.72525" lon="6.55178">
        <ele>696.81</ele>
        <time>2018-09-09T14:14:40Z</time>
      </trkpt>
      <trkpt lat="45.72535" lon="6.55153">
        <ele>697.32</ele>
        <time>2018-09-09T14:14:41Z</time>
      </trkpt>
      <trkpt lat="45.72544" lon="6.55127">
        <ele>696.77</ele>
        <time>2018-09-09T14:14:42Z</time>
      </trkpt>
      <trkpt lat="45.72552" lon="6.55101">
        <ele>695.9</ele>
        <time>2018-09-09T14:14:43Z</time>
      </trkpt>
      <trkpt lat="45.72559" lon="6.55074">
        <ele>695.64</ele>
        <time>2018-09-09T14:14:44Z</time>
      </trkpt>
      <trkpt lat="45.72565" lon="6.55046">
        <ele>695.56</ele>
        <time>2018-09-09T14:14:45Z</time>
      </trkpt>
      <trkpt lat="45.7257" lon="6.55018">
        <ele>695.54</ele>
        <time>2018-09-09T14:14:46Z</time>
      </trkpt>
      <trkpt lat="45.72575" lon="6.5499">
        <ele>694.83</ele>
        <time>2018-09-09T14:14:47Z</time>
      </trkpt>
      <trkpt lat="45.72578" lon="6.54962">
        <ele>694.62</ele>
        <time>2018-09-09T14:14:48Z</time>
      </trkpt>
      <trkpt lat="45.72581" lon="6.54933">
        <ele>695.26</ele>
        <time>2018-09-09T14:14:49Z</time>
      </trkpt>
      <trkpt lat="45.72583" lon="6.54904">
        <ele>695.45</ele>
        <time>2018-09-09T14:14:50Z</time>
      </trkpt>
      <trkpt lat="45.72585" lon="6.54876">
        <ele>695.51</ele>
        <time>2018-09-09T14:14:51Z</time>
      </trkpt>
      <trkpt lat="45.72588" lon="6.54848">
        <ele>695.52</ele>
        <time>2018-09-09T14:14:52Z</time>
      </trkpt>
      <trkpt lat="45.72591" lon="6.5482">
        <ele>695.53</ele>
        <time>2018-09-09T14:14:53Z</time>
      </trkpt>
      <trkpt lat="45.72594" lon="6.54792">
        <ele>696.23</ele>
        <time>2018-09-09T14:14:54Z</time>
      </trkpt>
      <trkpt lat="45.72599" lon="6.54767">
        <ele>696.44</ele>
        <time>2018-09-09T14:14:55Z</time>
      </trkpt>
      <trkpt lat="45.72606" lon="6.54743">
        <ele>697.2</ele>
        <time>2018-09-09T14:14:56Z</time>
      </trkpt>
      <trkpt lat="45.72616" lon="6.54721">
        <ele>698.13</ele>
        <time>2018-09-09T14:14:57Z</time>
      </trkpt>
      <trkpt lat="45.72629" lon="6.54701">
        <ele>698.41</ele>
        <time>2018-09-09T14:14:58Z</time>
      </trkpt>
      <trkpt lat="45.72641" lon="6.5468">
        <ele>698.5</ele>
        <time>2018-09-09T14:14:59Z</time>
      </trkpt>
      <trkpt lat="45.72653" lon="6.54659">
        <ele>698.52</ele>
        <time>2018-09-09T14:15:00Z</time>
      </trkpt>
      <trkpt lat="45.72663" lon="6.54637">
        <ele>698.53</ele>
        <time>2018-09-09T14:15:01Z</time>
      </trkpt>
      <trkpt lat="45.72672" lon="6.54612">
        <ele>697.83</ele>
        <time>2018-09-09T14:15:02Z</time>
      </trkpt>
      <trkpt lat="45.7268" lon="6.54586">
        <ele>697.62</ele>
        <time>2018-09-09T14:15:03Z</time>
      </trkpt>
      <trkpt lat="45.72686" lon="6.54558">
        <ele>697.56</ele>
        <time>2018-09-09T14:15:04Z</time>
      </trkpt>
      <trkpt lat="45.72689" lon="6.54529">
        <ele>697.54</ele>
        <time>2018-09-09T14:15:05Z</time>
      </trkpt>
      <trkpt lat="45.72689" lon="6.545">
        <ele>696.83</ele>
        <time>2018-09-09T14:15:06Z</time>
      </trkpt>
      <trkpt lat="45.72687" lon="6.54471">
        <ele>696.62</ele>
        <time>2018-09-09T14:15:07Z</time>
      </trkpt>
      <trkpt lat="45.72683" lon="6.54443">
        <ele>696.56</ele>
        <time>2018-09-09T14:15:08Z</time>
      </trkpt>
      <trkpt lat="45.72679" lon="6.54415">
        <ele>697.24</ele>
        <time>2018-09-09T14:15:09Z</time>
      </trkpt>
      <trkpt lat="45.72674" lon="6.54386">
        <ele>697.44</ele>
        <time>2018-09-09T14:15:10Z</time>
      </trkpt>
      <trkpt lat="45.72669" lon="6.54359">
        <ele>698.2</ele>
        <time>2018-09-09T14:15:11Z</time>
      </trkpt>
      <trkpt lat="45.72663" lon="6.54333">
        <ele>698.43</ele>
        <time>2018-09-09T14:15:12Z</time>
      </trkpt>
      <trkpt lat="45.72656" lon="6.54308">
        <ele>698.5</ele>
        <time>2018-09-09T14:15:13Z</time>
      </trkpt>
      <trkpt lat="45.72647" lon="6.54285">
        <ele>699.22</ele>
        <time>2018-09-09T14:15:14Z</time>
      </trkpt>
      <trkpt lat="45.72636" lon="6.54263">
        <ele>699.44</ele>
        <time>2018-09-09T14:15:15Z</time>
      </trkpt>
      <trkpt lat="45.72624" lon="6.54241">
        <ele>698.8</ele>
        <time>2018-09-09T14:15:16Z</time>
      </trkpt>
      <trkpt lat="45.7261" lon="6.5422">
        <ele>699.31</ele>
        <time>2018-09-09T14:15:17Z</time>
      </trkpt>
      <trkpt lat="45.72597" lon="6.54199">
        <ele>699.47</ele>
        <time>2018-09-09T14:15:18Z</time>
      </trkpt>
      <trkpt lat="45.72583" lon="6.54177">
        <ele>700.21</ele>
        <time>2018-09-09T14:15:19Z</time>
      </trkpt>
      <trkpt lat="45.72569" lon="6.54156">
        <ele>700.44</ele>
        <time>2018-09-09T14:15:20Z</time>
      </trkpt>
      <trkpt lat="45.72556" lon="6.54134">
        <ele>700.5</ele>
        <time>2018-09-09T14:15:21Z</time>
      </trkpt>
      <trkpt lat="45.72544" lon="6.54111">
        <ele>701.22</ele>
        <time>2018-09-09T14:15:22Z</time>
      </trkpt>
      <trkpt lat="45.72536" lon="6.54085">
        <ele>702.14</ele>
        <time>2018-09-09T14:15:23Z</time>
      </trkpt>
      <trkpt lat="45.7253" lon="6.54058">
        <ele>702.41</ele>
        <time>2018-09-09T14:15:24Z</time>
      </trkpt>
      <trkpt lat="45.72526" lon="6.54029">
        <ele>703.2</ele>
        <time>2018-09-09T14:15:25Z</time>
      </trkpt>
      <trkpt lat="45.72523" lon="6.54001">
        <ele>704.13</ele>
        <time>2018-09-09T14:15:26Z</time>
      </trkpt>
      <trkpt lat="45.72521" lon="6.53971">
        <ele>704.41</ele>
        <time>2018-09-09T14:15:27Z</time>
      </trkpt>
      <trkpt lat="45.7252" lon="6.53942">
        <ele>705.19</ele>
        <time>2018-09-09T14:15:28Z</time>
      </trkpt>
      <trkpt lat="45.72519" lon="6.53912">
        <ele>705.43</ele>
        <time>2018-09-09T14:15:29Z</time>
      </trkpt>
      <trkpt lat="45.72519" lon="6.53882">
        <ele>706.2</ele>
        <time>2018-09-09T14:15:30Z</time>
      </trkpt>
      <trkpt lat="45.7252" lon="6.53853">
        <ele>707.13</ele>
        <time>2018-09-09T14:15:31Z</time>
      </trkpt>
      <trkpt lat="45.72523" lon="6.53824">
        <ele>708.11</ele>
        <time>2018-09-09T14:15:32Z</time>
      </trkpt>
      <trkpt lat="45.72529" lon="6.53796">
        <ele>708.41</ele>
        <time>2018-09-09T14:15:33Z</time>
      </trkpt>
      <trkpt lat="45.72536" lon="6.53769">
        <ele>709.19</ele>
        <time>2018-09-09T14:15:34Z</time>
      </trkpt>
      <trkpt lat="45.72544" lon="6.53742">
        <ele>710.13</ele>
        <time>2018-09-09T14:15:35Z</time>
      </trkpt>
      <trkpt lat="45.72553" lon="6.53717">
        <ele>711.11</ele>
        <time>2018-09-09T14:15:36Z</time>
      </trkpt>
      <trkpt lat="45.72562" lon="6.53692">
        <ele>711.4</ele>
        <time>2018-09-09T14:15:37Z</time>
      </trkpt>
      <trkpt lat="45.72571" lon="6.53668">
        <ele>712.19</ele>
        <time>2018-09-09T14:15:38Z</time>
      </trkpt>
      <trkpt lat="45.72579" lon="6.53644">
        <ele>713.13</ele>
        <time>2018-09-09T14:15:39Z</time>
      </trkpt>
      <trkpt lat="45.72597" lon="6.53602">
        <ele>713.49</ele>
        <time>2018-09-09T14:15:41Z</time>
      </trkpt>
      <trkpt lat="45.7262" lon="6.5357">
        <ele>713.53</ele>
        <time>2018-09-09T14:15:43Z</time>
      </trkpt>
      <trkpt lat="45.72645" lon="6.53542">
        <ele>714.44</ele>
        <time>2018-09-09T14:15:45Z</time>
      </trkpt>
      <trkpt lat="45.72665" lon="6.53506">
        <ele>713.61</ele>
        <time>2018-09-09T14:15:47Z</time>
      </trkpt>
      <trkpt lat="45.72676" lon="6.53466">
        <ele>713.54</ele>
        <time>2018-09-09T14:15:49Z</time>
      </trkpt>
      <trkpt lat="45.72683" lon="6.53424">
        <ele>712.83</ele>
        <time>2018-09-09T14:15:51Z</time>
      </trkpt>
      <trkpt lat="45.72688" lon="6.53385">
        <ele>711.86</ele>
        <time>2018-09-09T14:15:53Z</time>
      </trkpt>
      <trkpt lat="45.72694" lon="6.53348">
        <ele>711.56</ele>
        <time>2018-09-09T14:15:55Z</time>
      </trkpt>
      <trkpt lat="45.72698" lon="6.53313">
        <ele>710.62</ele>
        <time>2018-09-09T14:15:57Z</time>
      </trkpt>
      <trkpt lat="45.72696" lon="6.53274">
        <ele>708.93</ele>
        <time>2018-09-09T14:15:59Z</time>
      </trkpt>
      <trkpt lat="45.72686" lon="6.5323">
        <ele>707.66</ele>
        <time>2018-09-09T14:16:01Z</time>
      </trkpt>
      <trkpt lat="45.72666" lon="6.53188">
        <ele>705.93</ele>
        <time>2018-09-09T14:16:03Z</time>
      </trkpt>
      <trkpt lat="45.72644" lon="6.5315">
        <ele>704.87</ele>
        <time>2018-09-09T14:16:05Z</time>
      </trkpt>
      <trkpt lat="45.72624" lon="6.53113">
        <ele>703.65</ele>
        <time>2018-09-09T14:16:07Z</time>
      </trkpt>
      <trkpt lat="45.72615" lon="6.5309">
        <ele>702.87</ele>
        <time>2018-09-09T14:16:08Z</time>
      </trkpt>
      <trkpt lat="45.72606" lon="6.53066">
        <ele>701.93</ele>
        <time>2018-09-09T14:16:09Z</time>
      </trkpt>
      <trkpt lat="45.72594" lon="6.5304">
        <ele>700.95</ele>
        <time>2018-09-09T14:16:10Z</time>
      </trkpt>
      <trkpt lat="45.72582" lon="6.53013">
        <ele>699.96</ele>
        <time>2018-09-09T14:16:11Z</time>
      </trkpt>
      <trkpt lat="45.72569" lon="6.52987">
        <ele>698.96</ele>
        <time>2018-09-09T14:16:12Z</time>
      </trkpt>
      <trkpt lat="45.72556" lon="6.52961">
        <ele>697.96</ele>
        <time>2018-09-09T14:16:13Z</time>
      </trkpt>
      <trkpt lat="45.72544" lon="6.52936">
        <ele>696.96</ele>
        <time>2018-09-09T14:16:14Z</time>
      </trkpt>
      <trkpt lat="45.72533" lon="6.52912">
        <ele>695.96</ele>
        <time>2018-09-09T14:16:15Z</time>
      </trkpt>
      <trkpt lat="45.72522" lon="6.52887">
        <ele>694.96</ele>
        <time>2018-09-09T14:16:16Z</time>
      </trkpt>
      <trkpt lat="45.72512" lon="6.52862">
        <ele>693.96</ele>
        <time>2018-09-09T14:16:17Z</time>
      </trkpt>
      <trkpt lat="45.72502" lon="6.52838">
        <ele>692.96</ele>
        <time>2018-09-09T14:16:18Z</time>
      </trkpt>
      <trkpt lat="45.72492" lon="6.52813">
        <ele>691.96</ele>
        <time>2018-09-09T14:16:19Z</time>
      </trkpt>
      <trkpt lat="45.72482" lon="6.52788">
        <ele>690.96</ele>
        <time>2018-09-09T14:16:20Z</time>
      </trkpt>
      <trkpt lat="45.72472" lon="6.52764">
        <ele>689.96</ele>
        <time>2018-09-09T14:16:21Z</time>
      </trkpt>
      <trkpt lat="45.72464" lon="6.52739">
        <ele>688.96</ele>
        <time>2018-09-09T14:16:22Z</time>
      </trkpt>
      <trkpt lat="45.72456" lon="6.52713">
        <ele>687.96</ele>
        <time>2018-09-09T14:16:23Z</time>
      </trkpt>
      <trkpt lat="45.72449" lon="6.52686">
        <ele>686.96</ele>
        <time>2018-09-09T14:16:24Z</time>
      </trkpt>
      <trkpt lat="45.72444" lon="6.52658">
        <ele>685.96</ele>
        <time>2018-09-09T14:16:25Z</time>
      </trkpt>
      <trkpt lat="45.72439" lon="6.52631">
        <ele>684.96</ele>
        <time>2018-09-09T14:16:26Z</time>
      </trkpt>
      <trkpt lat="45.72434" lon="6.52602">
        <ele>683.96</ele>
        <time>2018-09-09T14:16:27Z</time>
      </trkpt>
      <trkpt lat="45.72429" lon="6.52574">
        <ele>682.96</ele>
        <time>2018-09-09T14:16:28Z</time>
      </trkpt>
      <trkpt lat="45.72422" lon="6.52545">
        <ele>681.96</ele>
        <time>2018-09-09T14:16:29Z</time>
      </trkpt>
      <trkpt lat="45.72414" lon="6.52519">
        <ele>680.26</ele>
        <time>2018-09-09T14:16:30Z</time>
      </trkpt>
      <trkpt lat="45.72404" lon="6.52492">
        <ele>679.05</ele>
        <time>2018-09-09T14:16:31Z</time>
      </trkpt>
      <trkpt lat="45.72393" lon="6.52466">
        <ele>677.99</ele>
        <time>2018-09-09T14:16:32Z</time>
      </trkpt>
      <trkpt lat="45.72381" lon="6.5244">
        <ele>676.97</ele>
        <time>2018-09-09T14:16:33Z</time>
      </trkpt>
      <trkpt lat="45.7237" lon="6.52413">
        <ele>675.96</ele>
        <time>2018-09-09T14:16:34Z</time>
      </trkpt>
      <trkpt lat="45.72358" lon="6.52387">
        <ele>674.96</ele>
        <time>2018-09-09T14:16:35Z</time>
      </trkpt>
      <trkpt lat="45.72346" lon="6.5236">
        <ele>673.96</ele>
        <time>2018-09-09T14:16:36Z</time>
      </trkpt>
      <trkpt lat="45.72333" lon="6.52332">
        <ele>672.26</ele>
        <time>2018-09-09T14:16:37Z</time>
      </trkpt>
      <trkpt lat="45.72319" lon="6.52306">
        <ele>671.05</ele>
        <time>2018-09-09T14:16:38Z</time>
      </trkpt>
      <trkpt lat="45.72305" lon="6.5228">
        <ele>669.99</ele>
        <time>2018-09-09T14:16:39Z</time>
      </trkpt>
      <trkpt lat="45.72292" lon="6.52257">
        <ele>669.67</ele>
        <time>2018-09-09T14:16:40Z</time>
      </trkpt>
      <trkpt lat="45.72278" lon="6.52236">
        <ele>668.87</ele>
        <time>2018-09-09T14:16:41Z</time>
      </trkpt>
      <trkpt lat="45.72264" lon="6.52217">
        <ele>667.93</ele>
        <time>2018-09-09T14:16:42Z</time>
      </trkpt>
      <trkpt lat="45.7225" lon="6.522">
        <ele>667.65</ele>
        <time>2018-09-09T14:16:43Z</time>
      </trkpt>
      <trkpt lat="45.7222" lon="6.52174">
        <ele>666.63</ele>
        <time>2018-09-09T14:16:45Z</time>
      </trkpt>
      <trkpt lat="45.7219" lon="6.52155">
        <ele>664.93</ele>
        <time>2018-09-09T14:16:47Z</time>
      </trkpt>
      <trkpt lat="45.7215" lon="6.52169">
        <ele>664.57</ele>
        <time>2018-09-09T14:16:49Z</time>
      </trkpt>
      <trkpt lat="45.72115" lon="6.52168">
        <ele>662.71</ele>
        <time>2018-09-09T14:16:51Z</time>
      </trkpt>
      <trkpt lat="45.72078" lon="6.5215">
        <ele>661.64</ele>
        <time>2018-09-09T14:16:53Z</time>
      </trkpt>
      <trkpt lat="45.72061" lon="6.52128">
        <ele>660.86</ele>
        <time>2018-09-09T14:16:54Z</time>
      </trkpt>
      <trkpt lat="45.7205" lon="6.52094">
        <ele>659.93</ele>
        <time>2018-09-09T14:16:55Z</time>
      </trkpt>
      <trkpt lat="45.72038" lon="6.52068">
        <ele>658.95</ele>
        <time>2018-09-09T14:16:56Z</time>
      </trkpt>
      <trkpt lat="45.72026" lon="6.52042">
        <ele>658.66</ele>
        <time>2018-09-09T14:16:57Z</time>
      </trkpt>
      <trkpt lat="45.72017" lon="6.52014">
        <ele>657.87</ele>
        <time>2018-09-09T14:16:58Z</time>
      </trkpt>
      <trkpt lat="45.72011" lon="6.51987">
        <ele>657.63</ele>
        <time>2018-09-09T14:16:59Z</time>
      </trkpt>
      <trkpt lat="45.72008" lon="6.51961">
        <ele>658.26</ele>
        <time>2018-09-09T14:17:00Z</time>
      </trkpt>
      <trkpt lat="45.72006" lon="6.51931">
        <ele>657.75</ele>
        <time>2018-09-09T14:17:01Z</time>
      </trkpt>
      <trkpt lat="45.72007" lon="6.51899">
        <ele>656.9</ele>
        <time>2018-09-09T14:17:02Z</time>
      </trkpt>
      <trkpt lat="45.72009" lon="6.51866">
        <ele>655.94</ele>
        <time>2018-09-09T14:17:03Z</time>
      </trkpt>
      <trkpt lat="45.72011" lon="6.51832">
        <ele>655.65</ele>
        <time>2018-09-09T14:17:04Z</time>
      </trkpt>
      <trkpt lat="45.72014" lon="6.518">
        <ele>655.57</ele>
        <time>2018-09-09T14:17:05Z</time>
      </trkpt>
      <trkpt lat="45.72015" lon="6.51766">
        <ele>655.54</ele>
        <time>2018-09-09T14:17:06Z</time>
      </trkpt>
      <trkpt lat="45.72016" lon="6.51731">
        <ele>655.53</ele>
        <time>2018-09-09T14:17:07Z</time>
      </trkpt>
      <trkpt lat="45.72017" lon="6.51698">
        <ele>654.83</ele>
        <time>2018-09-09T14:17:08Z</time>
      </trkpt>
      <trkpt lat="45.72016" lon="6.51662">
        <ele>653.92</ele>
        <time>2018-09-09T14:17:09Z</time>
      </trkpt>
      <trkpt lat="45.72012" lon="6.51626">
        <ele>653.65</ele>
        <time>2018-09-09T14:17:10Z</time>
      </trkpt>
      <trkpt lat="45.72006" lon="6.51592">
        <ele>653.57</ele>
        <time>2018-09-09T14:17:11Z</time>
      </trkpt>
      <trkpt lat="45.71999" lon="6.51561">
        <ele>652.84</ele>
        <time>2018-09-09T14:17:12Z</time>
      </trkpt>
      <trkpt lat="45.7199" lon="6.51533">
        <ele>651.92</ele>
        <time>2018-09-09T14:17:13Z</time>
      </trkpt>
      <trkpt lat="45.71982" lon="6.51506">
        <ele>651.65</ele>
        <time>2018-09-09T14:17:14Z</time>
      </trkpt>
      <trkpt lat="45.71974" lon="6.51479">
        <ele>650.87</ele>
        <time>2018-09-09T14:17:15Z</time>
      </trkpt>
      <trkpt lat="45.71966" lon="6.51454">
        <ele>650.63</ele>
        <time>2018-09-09T14:17:16Z</time>
      </trkpt>
      <trkpt lat="45.71958" lon="6.51429">
        <ele>649.86</ele>
        <time>2018-09-09T14:17:17Z</time>
      </trkpt>
      <trkpt lat="45.71949" lon="6.51405">
        <ele>649.63</ele>
        <time>2018-09-09T14:17:18Z</time>
      </trkpt>
      <trkpt lat="45.71941" lon="6.51379">
        <ele>648.86</ele>
        <time>2018-09-09T14:17:19Z</time>
      </trkpt>
      <trkpt lat="45.71932" lon="6.51351">
        <ele>648.63</ele>
        <time>2018-09-09T14:17:20Z</time>
      </trkpt>
      <trkpt lat="45.71922" lon="6.51322">
        <ele>647.86</ele>
        <time>2018-09-09T14:17:21Z</time>
      </trkpt>
      <trkpt lat="45.71912" lon="6.51292">
        <ele>647.63</ele>
        <time>2018-09-09T14:17:22Z</time>
      </trkpt>
      <trkpt lat="45.71902" lon="6.51261">
        <ele>646.86</ele>
        <time>2018-09-09T14:17:23Z</time>
      </trkpt>
      <trkpt lat="45.71893" lon="6.51231">
        <ele>646.63</ele>
        <time>2018-09-09T14:17:24Z</time>
      </trkpt>
      <trkpt lat="45.71883" lon="6.512">
        <ele>646.56</ele>
        <time>2018-09-09T14:17:25Z</time>
      </trkpt>
      <trkpt lat="45.71873" lon="6.5117">
        <ele>645.84</ele>
        <time>2018-09-09T14:17:26Z</time>
      </trkpt>
      <trkpt lat="45.71863" lon="6.51141">
        <ele>645.62</ele>
        <time>2018-09-09T14:17:27Z</time>
      </trkpt>
      <trkpt lat="45.71853" lon="6.51111">
        <ele>645.56</ele>
        <time>2018-09-09T14:17:28Z</time>
      </trkpt>
      <trkpt lat="45.71842" lon="6.5108">
        <ele>644.84</ele>
        <time>2018-09-09T14:17:29Z</time>
      </trkpt>
      <trkpt lat="45.71831" lon="6.51047">
        <ele>644.62</ele>
        <time>2018-09-09T14:17:30Z</time>
      </trkpt>
      <trkpt lat="45.71822" lon="6.51014">
        <ele>644.56</ele>
        <time>2018-09-09T14:17:31Z</time>
      </trkpt>
      <trkpt lat="45.71813" lon="6.50983">
        <ele>643.84</ele>
        <time>2018-09-09T14:17:32Z</time>
      </trkpt>
      <trkpt lat="45.71806" lon="6.50956">
        <ele>643.62</ele>
        <time>2018-09-09T14:17:33Z</time>
      </trkpt>
      <trkpt lat="45.718" lon="6.5093">
        <ele>643.56</ele>
        <time>2018-09-09T14:17:34Z</time>
      </trkpt>
      <trkpt lat="45.71795" lon="6.50905">
        <ele>642.84</ele>
        <time>2018-09-09T14:17:35Z</time>
      </trkpt>
      <trkpt lat="45.71793" lon="6.50858">
        <ele>642.56</ele>
        <time>2018-09-09T14:17:37Z</time>
      </trkpt>
      <trkpt lat="45.71792" lon="6.50811">
        <ele>642.53</ele>
        <time>2018-09-09T14:17:39Z</time>
      </trkpt>
      <trkpt lat="45.71788" lon="6.50766">
        <ele>642.74</ele>
        <time>2018-09-09T14:17:41Z</time>
      </trkpt>
      <trkpt lat="45.7178" lon="6.50719">
        <ele>642.55</ele>
        <time>2018-09-09T14:17:43Z</time>
      </trkpt>
      <trkpt lat="45.71769" lon="6.50692">
        <ele>642.54</ele>
        <time>2018-09-09T14:17:44Z</time>
      </trkpt>
      <trkpt lat="45.71753" lon="6.5066">
        <ele>642.53</ele>
        <time>2018-09-09T14:17:45Z</time>
      </trkpt>
      <trkpt lat="45.71741" lon="6.5063">
        <ele>642.53</ele>
        <time>2018-09-09T14:17:46Z</time>
      </trkpt>
      <trkpt lat="45.71728" lon="6.506">
        <ele>642.53</ele>
        <time>2018-09-09T14:17:47Z</time>
      </trkpt>
      <trkpt lat="45.71717" lon="6.50568">
        <ele>641.83</ele>
        <time>2018-09-09T14:17:48Z</time>
      </trkpt>
      <trkpt lat="45.71709" lon="6.50535">
        <ele>641.62</ele>
        <time>2018-09-09T14:17:49Z</time>
      </trkpt>
      <trkpt lat="45.71706" lon="6.50502">
        <ele>640.16</ele>
        <time>2018-09-09T14:17:50Z</time>
      </trkpt>
      <trkpt lat="45.71707" lon="6.50468">
        <ele>639.72</ele>
        <time>2018-09-09T14:17:51Z</time>
      </trkpt>
      <trkpt lat="45.71711" lon="6.50435">
        <ele>639.59</ele>
        <time>2018-09-09T14:17:52Z</time>
      </trkpt>
      <trkpt lat="45.71718" lon="6.50403">
        <ele>638.85</ele>
        <time>2018-09-09T14:17:53Z</time>
      </trkpt>
      <trkpt lat="45.71725" lon="6.5037">
        <ele>638.63</ele>
        <time>2018-09-09T14:17:54Z</time>
      </trkpt>
      <trkpt lat="45.71733" lon="6.50337">
        <ele>637.86</ele>
        <time>2018-09-09T14:17:55Z</time>
      </trkpt>
      <trkpt lat="45.71742" lon="6.50305">
        <ele>636.93</ele>
        <time>2018-09-09T14:17:56Z</time>
      </trkpt>
      <trkpt lat="45.7175" lon="6.50274">
        <ele>636.65</ele>
        <time>2018-09-09T14:17:57Z</time>
      </trkpt>
      <trkpt lat="45.71759" lon="6.50242">
        <ele>636.57</ele>
        <time>2018-09-09T14:17:58Z</time>
      </trkpt>
      <trkpt lat="45.71768" lon="6.5021">
        <ele>636.54</ele>
        <time>2018-09-09T14:17:59Z</time>
      </trkpt>
      <trkpt lat="45.71775" lon="6.50178">
        <ele>637.23</ele>
        <time>2018-09-09T14:18:00Z</time>
      </trkpt>
      <trkpt lat="45.71782" lon="6.50146">
        <ele>637.44</ele>
        <time>2018-09-09T14:18:01Z</time>
      </trkpt>
      <trkpt lat="45.7179" lon="6.50114">
        <ele>637.5</ele>
        <time>2018-09-09T14:18:02Z</time>
      </trkpt>
      <trkpt lat="45.71797" lon="6.50083">
        <ele>637.52</ele>
        <time>2018-09-09T14:18:03Z</time>
      </trkpt>
      <trkpt lat="45.71806" lon="6.50052">
        <ele>637.53</ele>
        <time>2018-09-09T14:18:04Z</time>
      </trkpt>
      <trkpt lat="45.71815" lon="6.50022">
        <ele>637.53</ele>
        <time>2018-09-09T14:18:05Z</time>
      </trkpt>
      <trkpt lat="45.71826" lon="6.49994">
        <ele>637.53</ele>
        <time>2018-09-09T14:18:06Z</time>
      </trkpt>
      <trkpt lat="45.71838" lon="6.49966">
        <ele>638.23</ele>
        <time>2018-09-09T14:18:07Z</time>
      </trkpt>
      <trkpt lat="45.71848" lon="6.49938">
        <ele>638.44</ele>
        <time>2018-09-09T14:18:08Z</time>
      </trkpt>
      <trkpt lat="45.71855" lon="6.49907">
        <ele>638.5</ele>
        <time>2018-09-09T14:18:09Z</time>
      </trkpt>
      <trkpt lat="45.71862" lon="6.49877">
        <ele>637.82</ele>
        <time>2018-09-09T14:18:10Z</time>
      </trkpt>
      <trkpt lat="45.71868" lon="6.49846">
        <ele>636.92</ele>
        <time>2018-09-09T14:18:11Z</time>
      </trkpt>
      <trkpt lat="45.71871" lon="6.49813">
        <ele>636.65</ele>
        <time>2018-09-09T14:18:12Z</time>
      </trkpt>
      <trkpt lat="45.71872" lon="6.49781">
        <ele>637.27</ele>
        <time>2018-09-09T14:18:13Z</time>
      </trkpt>
      <trkpt lat="45.71869" lon="6.49748">
        <ele>637.45</ele>
        <time>2018-09-09T14:18:14Z</time>
      </trkpt>
      <trkpt lat="45.71866" lon="6.49716">
        <ele>636.81</ele>
        <time>2018-09-09T14:18:15Z</time>
      </trkpt>
      <trkpt lat="45.71863" lon="6.49684">
        <ele>636.61</ele>
        <time>2018-09-09T14:18:16Z</time>
      </trkpt>
      <trkpt lat="45.7186" lon="6.49655">
        <ele>637.26</ele>
        <time>2018-09-09T14:18:17Z</time>
      </trkpt>
      <trkpt lat="45.71862" lon="6.49605">
        <ele>636.6</ele>
        <time>2018-09-09T14:18:19Z</time>
      </trkpt>
      <trkpt lat="45.71878" lon="6.49575">
        <ele>637.45</ele>
        <time>2018-09-09T14:18:21Z</time>
      </trkpt>
      <trkpt lat="45.71882" lon="6.49548">
        <ele>635.91</ele>
        <time>2018-09-09T14:18:23Z</time>
      </trkpt>
      <trkpt lat="45.71868" lon="6.49526">
        <ele>634.87</ele>
        <time>2018-09-09T14:18:25Z</time>
      </trkpt>
      <trkpt lat="45.71842" lon="6.49494">
        <ele>633.86</ele>
        <time>2018-09-09T14:18:27Z</time>
      </trkpt>
      <trkpt lat="45.7183" lon="6.49472">
        <ele>632.93</ele>
        <time>2018-09-09T14:18:28Z</time>
      </trkpt>
      <trkpt lat="45.71819" lon="6.49449">
        <ele>631.95</ele>
        <time>2018-09-09T14:18:29Z</time>
      </trkpt>
      <trkpt lat="45.71812" lon="6.49422">
        <ele>631.66</ele>
        <time>2018-09-09T14:18:30Z</time>
      </trkpt>
      <trkpt lat="45.71805" lon="6.49397">
        <ele>630.87</ele>
        <time>2018-09-09T14:18:31Z</time>
      </trkpt>
      <trkpt lat="45.71791" lon="6.4935">
        <ele>629.65</ele>
        <time>2018-09-09T14:18:33Z</time>
      </trkpt>
      <trkpt lat="45.71781" lon="6.49312">
        <ele>628.84</ele>
        <time>2018-09-09T14:18:35Z</time>
      </trkpt>
      <trkpt lat="45.71781" lon="6.49282">
        <ele>627.86</ele>
        <time>2018-09-09T14:18:37Z</time>
      </trkpt>
      <trkpt lat="45.71779" lon="6.49244">
        <ele>626.84</ele>
        <time>2018-09-09T14:18:40Z</time>
      </trkpt>
      <trkpt lat="45.71769" lon="6.49218">
        <ele>624.46</ele>
        <time>2018-09-09T14:18:42Z</time>
      </trkpt>
      <trkpt lat="45.71749" lon="6.49183">
        <ele>621.3</ele>
        <time>2018-09-09T14:18:44Z</time>
      </trkpt>
      <trkpt lat="45.71735" lon="6.49152">
        <ele>619.9</ele>
        <time>2018-09-09T14:18:46Z</time>
      </trkpt>
      <trkpt lat="45.71721" lon="6.49119">
        <ele>617.95</ele>
        <time>2018-09-09T14:18:48Z</time>
      </trkpt>
      <trkpt lat="45.7171" lon="6.49085">
        <ele>616.87</ele>
        <time>2018-09-09T14:18:50Z</time>
      </trkpt>
      <trkpt lat="45.71704" lon="6.49049">
        <ele>614.95</ele>
        <time>2018-09-09T14:18:52Z</time>
      </trkpt>
      <trkpt lat="45.71705" lon="6.49015">
        <ele>612.96</ele>
        <time>2018-09-09T14:18:54Z</time>
      </trkpt>
      <trkpt lat="45.71716" lon="6.48969">
        <ele>609.56</ele>
        <time>2018-09-09T14:18:56Z</time>
      </trkpt>
      <trkpt lat="45.71725" lon="6.48941">
        <ele>607.44</ele>
        <time>2018-09-09T14:18:57Z</time>
      </trkpt>
      <trkpt lat="45.71733" lon="6.48911">
        <ele>606.1</ele>
        <time>2018-09-09T14:18:58Z</time>
      </trkpt>
      <trkpt lat="45.71738" lon="6.48877">
        <ele>604.3</ele>
        <time>2018-09-09T14:18:59Z</time>
      </trkpt>
      <trkpt lat="45.7174" lon="6.48843">
        <ele>603.06</ele>
        <time>2018-09-09T14:19:00Z</time>
      </trkpt>
      <trkpt lat="45.7174" lon="6.48812">
        <ele>601.29</ele>
        <time>2018-09-09T14:19:01Z</time>
      </trkpt>
      <trkpt lat="45.71737" lon="6.48783">
        <ele>600.06</ele>
        <time>2018-09-09T14:19:02Z</time>
      </trkpt>
      <trkpt lat="45.71731" lon="6.48757">
        <ele>598.99</ele>
        <time>2018-09-09T14:19:03Z</time>
      </trkpt>
      <trkpt lat="45.71721" lon="6.48733">
        <ele>597.97</ele>
        <time>2018-09-09T14:19:04Z</time>
      </trkpt>
      <trkpt lat="45.71705" lon="6.48695">
        <ele>595.05</ele>
        <time>2018-09-09T14:19:06Z</time>
      </trkpt>
      <trkpt lat="45.71694" lon="6.4865">
        <ele>593.88</ele>
        <time>2018-09-09T14:19:08Z</time>
      </trkpt>
      <trkpt lat="45.71694" lon="6.48617">
        <ele>592.93</ele>
        <time>2018-09-09T14:19:09Z</time>
      </trkpt>
      <trkpt lat="45.7169" lon="6.48586">
        <ele>591.95</ele>
        <time>2018-09-09T14:19:10Z</time>
      </trkpt>
      <trkpt lat="45.71685" lon="6.48555">
        <ele>590.96</ele>
        <time>2018-09-09T14:19:11Z</time>
      </trkpt>
      <trkpt lat="45.71679" lon="6.48524">
        <ele>589.96</ele>
        <time>2018-09-09T14:19:12Z</time>
      </trkpt>
      <trkpt lat="45.71673" lon="6.48492">
        <ele>588.96</ele>
        <time>2018-09-09T14:19:13Z</time>
      </trkpt>
      <trkpt lat="45.71667" lon="6.48463">
        <ele>588.66</ele>
        <time>2018-09-09T14:19:14Z</time>
      </trkpt>
      <trkpt lat="45.7166" lon="6.48436">
        <ele>587.87</ele>
        <time>2018-09-09T14:19:15Z</time>
      </trkpt>
      <trkpt lat="45.71651" lon="6.48411">
        <ele>586.23</ele>
        <time>2018-09-09T14:19:16Z</time>
      </trkpt>
      <trkpt lat="45.71638" lon="6.48388">
        <ele>585.74</ele>
        <time>2018-09-09T14:19:17Z</time>
      </trkpt>
      <trkpt lat="45.71621" lon="6.48368">
        <ele>585.59</ele>
        <time>2018-09-09T14:19:18Z</time>
      </trkpt>
      <trkpt lat="45.71602" lon="6.48354">
        <ele>584.85</ele>
        <time>2018-09-09T14:19:19Z</time>
      </trkpt>
      <trkpt lat="45.71582" lon="6.48344">
        <ele>584.63</ele>
        <time>2018-09-09T14:19:20Z</time>
      </trkpt>
      <trkpt lat="45.71562" lon="6.48337">
        <ele>584.56</ele>
        <time>2018-09-09T14:19:21Z</time>
      </trkpt>
      <trkpt lat="45.71543" lon="6.48328">
        <ele>583.84</ele>
        <time>2018-09-09T14:19:22Z</time>
      </trkpt>
      <trkpt lat="45.71526" lon="6.48315">
        <ele>583.62</ele>
        <time>2018-09-09T14:19:23Z</time>
      </trkpt>
      <trkpt lat="45.71512" lon="6.48292">
        <ele>582.86</ele>
        <time>2018-09-09T14:19:24Z</time>
      </trkpt>
      <trkpt lat="45.71497" lon="6.4827">
        <ele>581.93</ele>
        <time>2018-09-09T14:19:25Z</time>
      </trkpt>
      <trkpt lat="45.71482" lon="6.48246">
        <ele>581.65</ele>
        <time>2018-09-09T14:19:26Z</time>
      </trkpt>
      <trkpt lat="45.71467" lon="6.48224">
        <ele>581.57</ele>
        <time>2018-09-09T14:19:27Z</time>
      </trkpt>
      <trkpt lat="45.71454" lon="6.48203">
        <ele>580.14</ele>
        <time>2018-09-09T14:19:28Z</time>
      </trkpt>
      <trkpt lat="45.71435" lon="6.48163">
        <ele>578.68</ele>
        <time>2018-09-09T14:19:30Z</time>
      </trkpt>
      <trkpt lat="45.71421" lon="6.48119">
        <ele>578.54</ele>
        <time>2018-09-09T14:19:32Z</time>
      </trkpt>
      <trkpt lat="45.71415" lon="6.48091">
        <ele>578.53</ele>
        <time>2018-09-09T14:19:33Z</time>
      </trkpt>
      <trkpt lat="45.71466" lon="6.48046">
        <ele>576.43</ele>
        <time>2018-09-09T14:19:35Z</time>
      </trkpt>
      <trkpt lat="45.71498" lon="6.48024">
        <ele>575.8</ele>
        <time>2018-09-09T14:19:36Z</time>
      </trkpt>
      <trkpt lat="45.71518" lon="6.48001">
        <ele>576.31</ele>
        <time>2018-09-09T14:19:37Z</time>
      </trkpt>
      <trkpt lat="45.71539" lon="6.47975">
        <ele>575.77</ele>
        <time>2018-09-09T14:19:38Z</time>
      </trkpt>
      <trkpt lat="45.71557" lon="6.4795">
        <ele>575.6</ele>
        <time>2018-09-09T14:19:39Z</time>
      </trkpt>
      <trkpt lat="45.71576" lon="6.47924">
        <ele>574.85</ele>
        <time>2018-09-09T14:19:40Z</time>
      </trkpt>
      <trkpt lat="45.71592" lon="6.479">
        <ele>573.93</ele>
        <time>2018-09-09T14:19:41Z</time>
      </trkpt>
      <trkpt lat="45.71604" lon="6.47875">
        <ele>573.65</ele>
        <time>2018-09-09T14:19:42Z</time>
      </trkpt>
      <trkpt lat="45.71613" lon="6.47848">
        <ele>573.57</ele>
        <time>2018-09-09T14:19:43Z</time>
      </trkpt>
      <trkpt lat="45.71617" lon="6.47821">
        <ele>573.54</ele>
        <time>2018-09-09T14:19:44Z</time>
      </trkpt>
      <trkpt lat="45.71622" lon="6.47795">
        <ele>572.83</ele>
        <time>2018-09-09T14:19:45Z</time>
      </trkpt>
      <trkpt lat="45.71623" lon="6.47768">
        <ele>572.62</ele>
        <time>2018-09-09T14:19:46Z</time>
      </trkpt>
      <trkpt lat="45.7161" lon="6.4773">
        <ele>571.86</ele>
        <time>2018-09-09T14:19:47Z</time>
      </trkpt>
      <trkpt lat="45.71605" lon="6.47698">
        <ele>571.63</ele>
        <time>2018-09-09T14:19:48Z</time>
      </trkpt>
      <trkpt lat="45.71601" lon="6.47668">
        <ele>570.86</ele>
        <time>2018-09-09T14:19:49Z</time>
      </trkpt>
      <trkpt lat="45.71596" lon="6.4764">
        <ele>570.63</ele>
        <time>2018-09-09T14:19:50Z</time>
      </trkpt>
      <trkpt lat="45.7159" lon="6.47613">
        <ele>571.26</ele>
        <time>2018-09-09T14:19:51Z</time>
      </trkpt>
      <trkpt lat="45.71578" lon="6.47588">
        <ele>570.75</ele>
        <time>2018-09-09T14:19:52Z</time>
      </trkpt>
      <trkpt lat="45.71563" lon="6.47567">
        <ele>570.6</ele>
        <time>2018-09-09T14:19:53Z</time>
      </trkpt>
      <trkpt lat="45.71548" lon="6.47548">
        <ele>570.55</ele>
        <time>2018-09-09T14:19:54Z</time>
      </trkpt>
      <trkpt lat="45.71536" lon="6.47527">
        <ele>569.14</ele>
        <time>2018-09-09T14:19:55Z</time>
      </trkpt>
      <trkpt lat="45.71519" lon="6.47486">
        <ele>567.89</ele>
        <time>2018-09-09T14:19:57Z</time>
      </trkpt>
      <trkpt lat="45.71513" lon="6.4746">
        <ele>568.34</ele>
        <time>2018-09-09T14:19:58Z</time>
      </trkpt>
      <trkpt lat="45.71518" lon="6.47394">
        <ele>568.51</ele>
        <time>2018-09-09T14:20:00Z</time>
      </trkpt>
      <trkpt lat="45.71517" lon="6.47361">
        <ele>569.23</ele>
        <time>2018-09-09T14:20:01Z</time>
      </trkpt>
      <trkpt lat="45.71504" lon="6.47327">
        <ele>568.74</ele>
        <time>2018-09-09T14:20:02Z</time>
      </trkpt>
      <trkpt lat="45.71493" lon="6.47295">
        <ele>567.19</ele>
        <time>2018-09-09T14:20:03Z</time>
      </trkpt>
      <trkpt lat="45.71484" lon="6.47266">
        <ele>566.73</ele>
        <time>2018-09-09T14:20:04Z</time>
      </trkpt>
      <trkpt lat="45.71479" lon="6.47238">
        <ele>566.59</ele>
        <time>2018-09-09T14:20:05Z</time>
      </trkpt>
      <trkpt lat="45.71476" lon="6.4721">
        <ele>565.85</ele>
        <time>2018-09-09T14:20:06Z</time>
      </trkpt>
      <trkpt lat="45.71477" lon="6.47163">
        <ele>564.16</ele>
        <time>2018-09-09T14:20:08Z</time>
      </trkpt>
      <trkpt lat="45.71479" lon="6.47121">
        <ele>561.77</ele>
        <time>2018-09-09T14:20:10Z</time>
      </trkpt>
      <trkpt lat="45.71488" lon="6.47079">
        <ele>560.85</ele>
        <time>2018-09-09T14:20:12Z</time>
      </trkpt>
      <trkpt lat="45.71499" lon="6.47057">
        <ele>559.23</ele>
        <time>2018-09-09T14:20:13Z</time>
      </trkpt>
      <trkpt lat="45.7151" lon="6.47032">
        <ele>558.74</ele>
        <time>2018-09-09T14:20:14Z</time>
      </trkpt>
      <trkpt lat="45.71521" lon="6.47003">
        <ele>557.89</ele>
        <time>2018-09-09T14:20:15Z</time>
      </trkpt>
      <trkpt lat="45.71532" lon="6.46972">
        <ele>557.64</ele>
        <time>2018-09-09T14:20:16Z</time>
      </trkpt>
      <trkpt lat="45.71544" lon="6.46936">
        <ele>557.56</ele>
        <time>2018-09-09T14:20:17Z</time>
      </trkpt>
      <trkpt lat="45.71557" lon="6.46897">
        <ele>556.84</ele>
        <time>2018-09-09T14:20:18Z</time>
      </trkpt>
      <trkpt lat="45.71572" lon="6.46858">
        <ele>555.92</ele>
        <time>2018-09-09T14:20:19Z</time>
      </trkpt>
      <trkpt lat="45.71586" lon="6.46822">
        <ele>554.95</ele>
        <time>2018-09-09T14:20:20Z</time>
      </trkpt>
      <trkpt lat="45.71599" lon="6.46789">
        <ele>555.36</ele>
        <time>2018-09-09T14:20:21Z</time>
      </trkpt>
      <trkpt lat="45.71613" lon="6.46758">
        <ele>555.48</ele>
        <time>2018-09-09T14:20:22Z</time>
      </trkpt>
      <trkpt lat="45.7163" lon="6.46731">
        <ele>554.82</ele>
        <time>2018-09-09T14:20:23Z</time>
      </trkpt>
      <trkpt lat="45.71648" lon="6.46704">
        <ele>554.62</ele>
        <time>2018-09-09T14:20:24Z</time>
      </trkpt>
      <trkpt lat="45.71666" lon="6.46678">
        <ele>555.26</ele>
        <time>2018-09-09T14:20:25Z</time>
      </trkpt>
      <trkpt lat="45.71684" lon="6.46657">
        <ele>556.15</ele>
        <time>2018-09-09T14:20:26Z</time>
      </trkpt>
      <trkpt lat="45.717" lon="6.46633">
        <ele>555.02</ele>
        <time>2018-09-09T14:20:27Z</time>
      </trkpt>
      <trkpt lat="45.71714" lon="6.46609">
        <ele>554.68</ele>
        <time>2018-09-09T14:20:28Z</time>
      </trkpt>
      <trkpt lat="45.71725" lon="6.46583">
        <ele>553.87</ele>
        <time>2018-09-09T14:20:29Z</time>
      </trkpt>
      <trkpt lat="45.71733" lon="6.46555">
        <ele>553.63</ele>
        <time>2018-09-09T14:20:30Z</time>
      </trkpt>
      <trkpt lat="45.71739" lon="6.46528">
        <ele>553.56</ele>
        <time>2018-09-09T14:20:31Z</time>
      </trkpt>
      <trkpt lat="45.71744" lon="6.46501">
        <ele>553.54</ele>
        <time>2018-09-09T14:20:32Z</time>
      </trkpt>
      <trkpt lat="45.71746" lon="6.46475">
        <ele>552.83</ele>
        <time>2018-09-09T14:20:33Z</time>
      </trkpt>
      <trkpt lat="45.71745" lon="6.46443">
        <ele>551.92</ele>
        <time>2018-09-09T14:20:34Z</time>
      </trkpt>
      <trkpt lat="45.71736" lon="6.46418">
        <ele>551.65</ele>
        <time>2018-09-09T14:20:35Z</time>
      </trkpt>
      <trkpt lat="45.71723" lon="6.46393">
        <ele>550.87</ele>
        <time>2018-09-09T14:20:36Z</time>
      </trkpt>
      <trkpt lat="45.71708" lon="6.46348">
        <ele>547.34</ele>
        <time>2018-09-09T14:20:38Z</time>
      </trkpt>
      <trkpt lat="45.71697" lon="6.46303">
        <ele>545.9</ele>
        <time>2018-09-09T14:20:40Z</time>
      </trkpt>
      <trkpt lat="45.7169" lon="6.46255">
        <ele>544.65</ele>
        <time>2018-09-09T14:20:42Z</time>
      </trkpt>
      <trkpt lat="45.71684" lon="6.46209">
        <ele>543.63</ele>
        <time>2018-09-09T14:20:44Z</time>
      </trkpt>
      <trkpt lat="45.7168" lon="6.46163">
        <ele>542.63</ele>
        <time>2018-09-09T14:20:46Z</time>
      </trkpt>
      <trkpt lat="45.71676" lon="6.46117">
        <ele>543.03</ele>
        <time>2018-09-09T14:20:48Z</time>
      </trkpt>
      <trkpt lat="45.71674" lon="6.4607">
        <ele>541.88</ele>
        <time>2018-09-09T14:20:50Z</time>
      </trkpt>
      <trkpt lat="45.71675" lon="6.46026">
        <ele>541.56</ele>
        <time>2018-09-09T14:20:52Z</time>
      </trkpt>
      <trkpt lat="45.71681" lon="6.45989">
        <ele>540.83</ele>
        <time>2018-09-09T14:20:54Z</time>
      </trkpt>
      <trkpt lat="45.71696" lon="6.45956">
        <ele>539.86</ele>
        <time>2018-09-09T14:20:56Z</time>
      </trkpt>
      <trkpt lat="45.71715" lon="6.45931">
        <ele>539.56</ele>
        <time>2018-09-09T14:20:58Z</time>
      </trkpt>
      <trkpt lat="45.71734" lon="6.45907">
        <ele>538.83</ele>
        <time>2018-09-09T14:21:00Z</time>
      </trkpt>
      <trkpt lat="45.7175" lon="6.45883">
        <ele>539.26</ele>
        <time>2018-09-09T14:21:02Z</time>
      </trkpt>
      <trkpt lat="45.71767" lon="6.45855">
        <ele>538.55</ele>
        <time>2018-09-09T14:21:05Z</time>
      </trkpt>
      <trkpt lat="45.7178" lon="6.45833">
        <ele>537.83</ele>
        <time>2018-09-09T14:21:07Z</time>
      </trkpt>
      <trkpt lat="45.71791" lon="6.45797">
        <ele>537.56</ele>
        <time>2018-09-09T14:21:09Z</time>
      </trkpt>
      <trkpt lat="45.718" lon="6.45752">
        <ele>536.62</ele>
        <time>2018-09-09T14:21:11Z</time>
      </trkpt>
      <trkpt lat="45.718" lon="6.45726">
        <ele>536.56</ele>
        <time>2018-09-09T14:21:12Z</time>
      </trkpt>
      <trkpt lat="45.71799" lon="6.457">
        <ele>535.84</ele>
        <time>2018-09-09T14:21:13Z</time>
      </trkpt>
      <trkpt lat="45.71795" lon="6.45674">
        <ele>535.62</ele>
        <time>2018-09-09T14:21:14Z</time>
      </trkpt>
      <trkpt lat="45.71792" lon="6.45646">
        <ele>534.16</ele>
        <time>2018-09-09T14:21:15Z</time>
      </trkpt>
      <trkpt lat="45.71786" lon="6.45598">
        <ele>532.68</ele>
        <time>2018-09-09T14:21:17Z</time>
      </trkpt>
      <trkpt lat="45.7178" lon="6.45555">
        <ele>532.54</ele>
        <time>2018-09-09T14:21:19Z</time>
      </trkpt>
      <trkpt lat="45.71776" lon="6.45512">
        <ele>533.44</ele>
        <time>2018-09-09T14:21:21Z</time>
      </trkpt>
      <trkpt lat="45.71778" lon="6.45469">
        <ele>532.61</ele>
        <time>2018-09-09T14:21:23Z</time>
      </trkpt>
      <trkpt lat="45.71784" lon="6.45423">
        <ele>533.45</ele>
        <time>2018-09-09T14:21:25Z</time>
      </trkpt>
      <trkpt lat="45.71788" lon="6.45396">
        <ele>532.81</ele>
        <time>2018-09-09T14:21:26Z</time>
      </trkpt>
      <trkpt lat="45.71794" lon="6.45367">
        <ele>531.91</ele>
        <time>2018-09-09T14:21:27Z</time>
      </trkpt>
      <trkpt lat="45.71799" lon="6.45336">
        <ele>530.95</ele>
        <time>2018-09-09T14:21:28Z</time>
      </trkpt>
      <trkpt lat="45.71804" lon="6.45303">
        <ele>529.96</ele>
        <time>2018-09-09T14:21:29Z</time>
      </trkpt>
      <trkpt lat="45.71806" lon="6.45271">
        <ele>529.66</ele>
        <time>2018-09-09T14:21:30Z</time>
      </trkpt>
      <trkpt lat="45.71805" lon="6.45241">
        <ele>529.57</ele>
        <time>2018-09-09T14:21:31Z</time>
      </trkpt>
      <trkpt lat="45.71802" lon="6.45214">
        <ele>529.54</ele>
        <time>2018-09-09T14:21:32Z</time>
      </trkpt>
      <trkpt lat="45.71795" lon="6.45168">
        <ele>528.62</ele>
        <time>2018-09-09T14:21:34Z</time>
      </trkpt>
      <trkpt lat="45.71791" lon="6.45124">
        <ele>528.75</ele>
        <time>2018-09-09T14:21:36Z</time>
      </trkpt>
      <trkpt lat="45.71795" lon="6.45072">
        <ele>528.55</ele>
        <time>2018-09-09T14:21:38Z</time>
      </trkpt>
      <trkpt lat="45.718" lon="6.45041">
        <ele>528.54</ele>
        <time>2018-09-09T14:21:39Z</time>
      </trkpt>
      <trkpt lat="45.71808" lon="6.45006">
        <ele>527.83</ele>
        <time>2018-09-09T14:21:40Z</time>
      </trkpt>
      <trkpt lat="45.71814" lon="6.44971">
        <ele>527.62</ele>
        <time>2018-09-09T14:21:41Z</time>
      </trkpt>
      <trkpt lat="45.71819" lon="6.44937">
        <ele>526.86</ele>
        <time>2018-09-09T14:21:42Z</time>
      </trkpt>
      <trkpt lat="45.71825" lon="6.44906">
        <ele>526.63</ele>
        <time>2018-09-09T14:21:43Z</time>
      </trkpt>
      <trkpt lat="45.71832" lon="6.44878">
        <ele>525.86</ele>
        <time>2018-09-09T14:21:44Z</time>
      </trkpt>
      <trkpt lat="45.71838" lon="6.44851">
        <ele>525.63</ele>
        <time>2018-09-09T14:21:45Z</time>
      </trkpt>
      <trkpt lat="45.71839" lon="6.44805">
        <ele>524.84</ele>
        <time>2018-09-09T14:21:47Z</time>
      </trkpt>
      <trkpt lat="45.71832" lon="6.44771">
        <ele>522.46</ele>
        <time>2018-09-09T14:21:49Z</time>
      </trkpt>
      <trkpt lat="45.7181" lon="6.44743">
        <ele>521.82</ele>
        <time>2018-09-09T14:21:51Z</time>
      </trkpt>
      <trkpt lat="45.71789" lon="6.44732">
        <ele>522.32</ele>
        <time>2018-09-09T14:21:52Z</time>
      </trkpt>
      <trkpt lat="45.7176" lon="6.44718">
        <ele>520.37</ele>
        <time>2018-09-09T14:21:53Z</time>
      </trkpt>
      <trkpt lat="45.7174" lon="6.44709">
        <ele>520.48</ele>
        <time>2018-09-09T14:21:54Z</time>
      </trkpt>
      <trkpt lat="45.71722" lon="6.44696">
        <ele>519.82</ele>
        <time>2018-09-09T14:21:55Z</time>
      </trkpt>
      <trkpt lat="45.71705" lon="6.44678">
        <ele>519.62</ele>
        <time>2018-09-09T14:21:56Z</time>
      </trkpt>
      <trkpt lat="45.71689" lon="6.44655">
        <ele>518.86</ele>
        <time>2018-09-09T14:21:57Z</time>
      </trkpt>
      <trkpt lat="45.71674" lon="6.44631">
        <ele>517.93</ele>
        <time>2018-09-09T14:21:58Z</time>
      </trkpt>
      <trkpt lat="45.71657" lon="6.44605">
        <ele>516.25</ele>
        <time>2018-09-09T14:21:59Z</time>
      </trkpt>
      <trkpt lat="45.71641" lon="6.44577">
        <ele>515.05</ele>
        <time>2018-09-09T14:22:00Z</time>
      </trkpt>
      <trkpt lat="45.71624" lon="6.4455">
        <ele>515.39</ele>
        <time>2018-09-09T14:22:01Z</time>
      </trkpt>
      <trkpt lat="45.71608" lon="6.44523">
        <ele>515.49</ele>
        <time>2018-09-09T14:22:02Z</time>
      </trkpt>
      <trkpt lat="45.71593" lon="6.44497">
        <ele>515.52</ele>
        <time>2018-09-09T14:22:03Z</time>
      </trkpt>
      <trkpt lat="45.71578" lon="6.44473">
        <ele>515.53</ele>
        <time>2018-09-09T14:22:04Z</time>
      </trkpt>
      <trkpt lat="45.71562" lon="6.44452">
        <ele>515.53</ele>
        <time>2018-09-09T14:22:05Z</time>
      </trkpt>
      <trkpt lat="45.71545" lon="6.44433">
        <ele>515.53</ele>
        <time>2018-09-09T14:22:06Z</time>
      </trkpt>
      <trkpt lat="45.71526" lon="6.44417">
        <ele>514.83</ele>
        <time>2018-09-09T14:22:07Z</time>
      </trkpt>
      <trkpt lat="45.71505" lon="6.44404">
        <ele>514.62</ele>
        <time>2018-09-09T14:22:08Z</time>
      </trkpt>
      <trkpt lat="45.71484" lon="6.44394">
        <ele>515.26</ele>
        <time>2018-09-09T14:22:09Z</time>
      </trkpt>
      <trkpt lat="45.71464" lon="6.44385">
        <ele>514.75</ele>
        <time>2018-09-09T14:22:10Z</time>
      </trkpt>
      <trkpt lat="45.71444" lon="6.44377">
        <ele>514.6</ele>
        <time>2018-09-09T14:22:11Z</time>
      </trkpt>
      <trkpt lat="45.71427" lon="6.44365">
        <ele>514.55</ele>
        <time>2018-09-09T14:22:12Z</time>
      </trkpt>
      <trkpt lat="45.7141" lon="6.44352">
        <ele>514.54</ele>
        <time>2018-09-09T14:22:13Z</time>
      </trkpt>
      <trkpt lat="45.71394" lon="6.44334">
        <ele>513.83</ele>
        <time>2018-09-09T14:22:14Z</time>
      </trkpt>
      <trkpt lat="45.7138" lon="6.44314">
        <ele>513.62</ele>
        <time>2018-09-09T14:22:15Z</time>
      </trkpt>
      <trkpt lat="45.71366" lon="6.44291">
        <ele>513.56</ele>
        <time>2018-09-09T14:22:16Z</time>
      </trkpt>
      <trkpt lat="45.71362" lon="6.44265">
        <ele>512.84</ele>
        <time>2018-09-09T14:22:17Z</time>
      </trkpt>
      <trkpt lat="45.71358" lon="6.44237">
        <ele>512.62</ele>
        <time>2018-09-09T14:22:18Z</time>
      </trkpt>
      <trkpt lat="45.7137" lon="6.442">
        <ele>510.46</ele>
        <time>2018-09-09T14:22:19Z</time>
      </trkpt>
      <trkpt lat="45.71367" lon="6.4417">
        <ele>509.81</ele>
        <time>2018-09-09T14:22:20Z</time>
      </trkpt>
      <trkpt lat="45.71358" lon="6.44146">
        <ele>509.61</ele>
        <time>2018-09-09T14:22:21Z</time>
      </trkpt>
      <trkpt lat="45.71349" lon="6.44119">
        <ele>508.86</ele>
        <time>2018-09-09T14:22:22Z</time>
      </trkpt>
      <trkpt lat="45.71339" lon="6.44096">
        <ele>508.63</ele>
        <time>2018-09-09T14:22:23Z</time>
      </trkpt>
      <trkpt lat="45.71315" lon="6.44072">
        <ele>508.56</ele>
        <time>2018-09-09T14:22:24Z</time>
      </trkpt>
      <trkpt lat="45.71296" lon="6.44049">
        <ele>508.54</ele>
        <time>2018-09-09T14:22:25Z</time>
      </trkpt>
      <trkpt lat="45.71279" lon="6.44024">
        <ele>507.83</ele>
        <time>2018-09-09T14:22:26Z</time>
      </trkpt>
      <trkpt lat="45.7126" lon="6.44">
        <ele>509.02</ele>
        <time>2018-09-09T14:22:27Z</time>
      </trkpt>
      <trkpt lat="45.71242" lon="6.43975">
        <ele>510.08</ele>
        <time>2018-09-09T14:22:28Z</time>
      </trkpt>
      <trkpt lat="45.71224" lon="6.43952">
        <ele>510.4</ele>
        <time>2018-09-09T14:22:29Z</time>
      </trkpt>
      <trkpt lat="45.71203" lon="6.43933">
        <ele>510.49</ele>
        <time>2018-09-09T14:22:30Z</time>
      </trkpt>
      <trkpt lat="45.71183" lon="6.43916">
        <ele>511.22</ele>
        <time>2018-09-09T14:22:31Z</time>
      </trkpt>
      <trkpt lat="45.71163" lon="6.43902">
        <ele>511.44</ele>
        <time>2018-09-09T14:22:32Z</time>
      </trkpt>
      <trkpt lat="45.71144" lon="6.43887">
        <ele>510.8</ele>
        <time>2018-09-09T14:22:33Z</time>
      </trkpt>
      <trkpt lat="45.71126" lon="6.4387">
        <ele>510.61</ele>
        <time>2018-09-09T14:22:34Z</time>
      </trkpt>
      <trkpt lat="45.7111" lon="6.43855">
        <ele>511.26</ele>
        <time>2018-09-09T14:22:35Z</time>
      </trkpt>
      <trkpt lat="45.71101" lon="6.4382">
        <ele>510.05</ele>
        <time>2018-09-09T14:22:36Z</time>
      </trkpt>
      <trkpt lat="45.71085" lon="6.43794">
        <ele>508.99</ele>
        <time>2018-09-09T14:22:37Z</time>
      </trkpt>
      <trkpt lat="45.71065" lon="6.43771">
        <ele>508.67</ele>
        <time>2018-09-09T14:22:38Z</time>
      </trkpt>
      <trkpt lat="45.71045" lon="6.43747">
        <ele>507.87</ele>
        <time>2018-09-09T14:22:39Z</time>
      </trkpt>
      <trkpt lat="45.71027" lon="6.43721">
        <ele>507.63</ele>
        <time>2018-09-09T14:22:40Z</time>
      </trkpt>
      <trkpt lat="45.71011" lon="6.43695">
        <ele>506.86</ele>
        <time>2018-09-09T14:22:41Z</time>
      </trkpt>
      <trkpt lat="45.70995" lon="6.43672">
        <ele>505.93</ele>
        <time>2018-09-09T14:22:42Z</time>
      </trkpt>
      <trkpt lat="45.70977" lon="6.43652">
        <ele>504.95</ele>
        <time>2018-09-09T14:22:43Z</time>
      </trkpt>
      <trkpt lat="45.70957" lon="6.43634">
        <ele>504.66</ele>
        <time>2018-09-09T14:22:44Z</time>
      </trkpt>
      <trkpt lat="45.70937" lon="6.43616">
        <ele>504.57</ele>
        <time>2018-09-09T14:22:45Z</time>
      </trkpt>
      <trkpt lat="45.70918" lon="6.43596">
        <ele>504.54</ele>
        <time>2018-09-09T14:22:46Z</time>
      </trkpt>
      <trkpt lat="45.70897" lon="6.4358">
        <ele>504.53</ele>
        <time>2018-09-09T14:22:47Z</time>
      </trkpt>
      <trkpt lat="45.70879" lon="6.43567">
        <ele>503.83</ele>
        <time>2018-09-09T14:22:48Z</time>
      </trkpt>
      <trkpt lat="45.70861" lon="6.4355">
        <ele>503.62</ele>
        <time>2018-09-09T14:22:49Z</time>
      </trkpt>
      <trkpt lat="45.70845" lon="6.43531">
        <ele>502.86</ele>
        <time>2018-09-09T14:22:50Z</time>
      </trkpt>
      <trkpt lat="45.70831" lon="6.43511">
        <ele>502.63</ele>
        <time>2018-09-09T14:22:51Z</time>
      </trkpt>
      <trkpt lat="45.70818" lon="6.43489">
        <ele>501.86</ele>
        <time>2018-09-09T14:22:52Z</time>
      </trkpt>
      <trkpt lat="45.70802" lon="6.43471">
        <ele>500.93</ele>
        <time>2018-09-09T14:22:53Z</time>
      </trkpt>
      <trkpt lat="45.70783" lon="6.43457">
        <ele>500.65</ele>
        <time>2018-09-09T14:22:54Z</time>
      </trkpt>
      <trkpt lat="45.70763" lon="6.43443">
        <ele>499.87</ele>
        <time>2018-09-09T14:22:55Z</time>
      </trkpt>
      <trkpt lat="45.70742" lon="6.4343">
        <ele>500.33</ele>
        <time>2018-09-09T14:22:56Z</time>
      </trkpt>
      <trkpt lat="45.70723" lon="6.43419">
        <ele>499.77</ele>
        <time>2018-09-09T14:22:57Z</time>
      </trkpt>
      <trkpt lat="45.70703" lon="6.43407">
        <ele>499.6</ele>
        <time>2018-09-09T14:22:58Z</time>
      </trkpt>
      <trkpt lat="45.70686" lon="6.4339">
        <ele>498.85</ele>
        <time>2018-09-09T14:22:59Z</time>
      </trkpt>
      <trkpt lat="45.70669" lon="6.43372">
        <ele>498.63</ele>
        <time>2018-09-09T14:23:00Z</time>
      </trkpt>
      <trkpt lat="45.70653" lon="6.43354">
        <ele>497.86</ele>
        <time>2018-09-09T14:23:01Z</time>
      </trkpt>
      <trkpt lat="45.70636" lon="6.43335">
        <ele>497.63</ele>
        <time>2018-09-09T14:23:02Z</time>
      </trkpt>
      <trkpt lat="45.70626" lon="6.43312">
        <ele>496.86</ele>
        <time>2018-09-09T14:23:03Z</time>
      </trkpt>
      <trkpt lat="45.70616" lon="6.4329">
        <ele>496.63</ele>
        <time>2018-09-09T14:23:04Z</time>
      </trkpt>
      <trkpt lat="45.70607" lon="6.43266">
        <ele>495.86</ele>
        <time>2018-09-09T14:23:05Z</time>
      </trkpt>
      <trkpt lat="45.70593" lon="6.43247">
        <ele>496.33</ele>
        <time>2018-09-09T14:23:06Z</time>
      </trkpt>
      <trkpt lat="45.70577" lon="6.43228">
        <ele>496.47</ele>
        <time>2018-09-09T14:23:07Z</time>
      </trkpt>
      <trkpt lat="45.70561" lon="6.43209">
        <ele>496.51</ele>
        <time>2018-09-09T14:23:08Z</time>
      </trkpt>
      <trkpt lat="45.70547" lon="6.43191">
        <ele>496.53</ele>
        <time>2018-09-09T14:23:09Z</time>
      </trkpt>
      <trkpt lat="45.70535" lon="6.43168">
        <ele>497.23</ele>
        <time>2018-09-09T14:23:10Z</time>
      </trkpt>
      <trkpt lat="45.70524" lon="6.43145">
        <ele>497.44</ele>
        <time>2018-09-09T14:23:11Z</time>
      </trkpt>
      <trkpt lat="45.70514" lon="6.43121">
        <ele>496.8</ele>
        <time>2018-09-09T14:23:12Z</time>
      </trkpt>
      <trkpt lat="45.705" lon="6.43103">
        <ele>496.61</ele>
        <time>2018-09-09T14:23:13Z</time>
      </trkpt>
      <trkpt lat="45.70482" lon="6.43089">
        <ele>497.26</ele>
        <time>2018-09-09T14:23:14Z</time>
      </trkpt>
      <trkpt lat="45.70464" lon="6.43078">
        <ele>497.45</ele>
        <time>2018-09-09T14:23:15Z</time>
      </trkpt>
      <trkpt lat="45.70444" lon="6.43068">
        <ele>496.81</ele>
        <time>2018-09-09T14:23:16Z</time>
      </trkpt>
      <trkpt lat="45.70424" lon="6.43059">
        <ele>497.31</ele>
        <time>2018-09-09T14:23:17Z</time>
      </trkpt>
      <trkpt lat="45.70394" lon="6.4305">
        <ele>496.81</ele>
        <time>2018-09-09T14:23:19Z</time>
      </trkpt>
      <trkpt lat="45.70369" lon="6.43065">
        <ele>495.65</ele>
        <time>2018-09-09T14:23:21Z</time>
      </trkpt>
      <trkpt lat="45.70349" lon="6.43089">
        <ele>496.24</ele>
        <time>2018-09-09T14:23:23Z</time>
      </trkpt>
      <trkpt lat="45.70323" lon="6.43085">
        <ele>496.5</ele>
        <time>2018-09-09T14:23:25Z</time>
      </trkpt>
      <trkpt lat="45.70292" lon="6.43065">
        <ele>497.44</ele>
        <time>2018-09-09T14:23:27Z</time>
      </trkpt>
      <trkpt lat="45.70276" lon="6.43052">
        <ele>498.2</ele>
        <time>2018-09-09T14:23:28Z</time>
      </trkpt>
      <trkpt lat="45.70258" lon="6.43037">
        <ele>498.43</ele>
        <time>2018-09-09T14:23:29Z</time>
      </trkpt>
      <trkpt lat="45.70239" lon="6.43021">
        <ele>498.5</ele>
        <time>2018-09-09T14:23:30Z</time>
      </trkpt>
      <trkpt lat="45.70222" lon="6.43003">
        <ele>499.22</ele>
        <time>2018-09-09T14:23:31Z</time>
      </trkpt>
      <trkpt lat="45.70206" lon="6.42985">
        <ele>500.14</ele>
        <time>2018-09-09T14:23:32Z</time>
      </trkpt>
      <trkpt lat="45.70194" lon="6.42962">
        <ele>500.41</ele>
        <time>2018-09-09T14:23:33Z</time>
      </trkpt>
      <trkpt lat="45.7018" lon="6.42941">
        <ele>501.2</ele>
        <time>2018-09-09T14:23:34Z</time>
      </trkpt>
      <trkpt lat="45.70165" lon="6.42925">
        <ele>502.13</ele>
        <time>2018-09-09T14:23:35Z</time>
      </trkpt>
      <trkpt lat="45.70148" lon="6.42913">
        <ele>503.11</ele>
        <time>2018-09-09T14:23:36Z</time>
      </trkpt>
      <trkpt lat="45.70129" lon="6.42906">
        <ele>504.1</ele>
        <time>2018-09-09T14:23:37Z</time>
      </trkpt>
      <trkpt lat="45.7011" lon="6.42899">
        <ele>504.4</ele>
        <time>2018-09-09T14:23:38Z</time>
      </trkpt>
      <trkpt lat="45.70078" lon="6.42879">
        <ele>504.73</ele>
        <time>2018-09-09T14:23:40Z</time>
      </trkpt>
      <trkpt lat="45.70059" lon="6.42848">
        <ele>504.55</ele>
        <time>2018-09-09T14:23:42Z</time>
      </trkpt>
      <trkpt lat="45.70036" lon="6.4284">
        <ele>504.32</ele>
        <time>2018-09-09T14:23:44Z</time>
      </trkpt>
      <trkpt lat="45.70016" lon="6.42852">
        <ele>504.47</ele>
        <time>2018-09-09T14:23:45Z</time>
      </trkpt>
      <trkpt lat="45.69985" lon="6.42857">
        <ele>505.44</ele>
        <time>2018-09-09T14:23:47Z</time>
      </trkpt>
      <trkpt lat="45.69965" lon="6.4283">
        <ele>506.2</ele>
        <time>2018-09-09T14:23:48Z</time>
      </trkpt>
      <trkpt lat="45.69945" lon="6.42816">
        <ele>507.13</ele>
        <time>2018-09-09T14:23:49Z</time>
      </trkpt>
      <trkpt lat="45.69926" lon="6.42803">
        <ele>507.41</ele>
        <time>2018-09-09T14:23:50Z</time>
      </trkpt>
      <trkpt lat="45.69906" lon="6.42788">
        <ele>508.2</ele>
        <time>2018-09-09T14:23:51Z</time>
      </trkpt>
      <trkpt lat="45.69887" lon="6.42773">
        <ele>509.13</ele>
        <time>2018-09-09T14:23:52Z</time>
      </trkpt>
      <trkpt lat="45.69869" lon="6.42756">
        <ele>509.41</ele>
        <time>2018-09-09T14:23:53Z</time>
      </trkpt>
      <trkpt lat="45.6985" lon="6.42742">
        <ele>510.19</ele>
        <time>2018-09-09T14:23:54Z</time>
      </trkpt>
      <trkpt lat="45.69832" lon="6.42729">
        <ele>510.43</ele>
        <time>2018-09-09T14:23:55Z</time>
      </trkpt>
      <trkpt lat="45.69815" lon="6.42719">
        <ele>511.2</ele>
        <time>2018-09-09T14:23:56Z</time>
      </trkpt>
      <trkpt lat="45.69798" lon="6.42709">
        <ele>510.73</ele>
        <time>2018-09-09T14:23:57Z</time>
      </trkpt>
      <trkpt lat="45.69775" lon="6.42682">
        <ele>511.46</ele>
        <time>2018-09-09T14:23:59Z</time>
      </trkpt>
      <trkpt lat="45.69752" lon="6.4267">
        <ele>513.83</ele>
        <time>2018-09-09T14:24:01Z</time>
      </trkpt>
      <trkpt lat="45.69728" lon="6.42678">
        <ele>515.38</ele>
        <time>2018-09-09T14:24:03Z</time>
      </trkpt>
      <trkpt lat="45.69702" lon="6.4267">
        <ele>515.52</ele>
        <time>2018-09-09T14:24:05Z</time>
      </trkpt>
      <trkpt lat="45.69667" lon="6.42656">
        <ele>516.44</ele>
        <time>2018-09-09T14:24:07Z</time>
      </trkpt>
      <trkpt lat="45.69648" lon="6.42645">
        <ele>516.5</ele>
        <time>2018-09-09T14:24:08Z</time>
      </trkpt>
      <trkpt lat="45.69632" lon="6.42632">
        <ele>516.52</ele>
        <time>2018-09-09T14:24:09Z</time>
      </trkpt>
      <trkpt lat="45.69615" lon="6.42617">
        <ele>515.83</ele>
        <time>2018-09-09T14:24:10Z</time>
      </trkpt>
      <trkpt lat="45.69601" lon="6.4258">
        <ele>516.26</ele>
        <time>2018-09-09T14:24:12Z</time>
      </trkpt>
      <trkpt lat="45.69585" lon="6.42557">
        <ele>517.42</ele>
        <time>2018-09-09T14:24:14Z</time>
      </trkpt>
      <trkpt lat="45.69569" lon="6.42539">
        <ele>519.83</ele>
        <time>2018-09-09T14:24:16Z</time>
      </trkpt>
      <trkpt lat="45.69557" lon="6.42511">
        <ele>521.38</ele>
        <time>2018-09-09T14:24:18Z</time>
      </trkpt>
      <trkpt lat="45.6954" lon="6.42487">
        <ele>523.13</ele>
        <time>2018-09-09T14:24:20Z</time>
      </trkpt>
      <trkpt lat="45.69519" lon="6.42471">
        <ele>524.4</ele>
        <time>2018-09-09T14:24:22Z</time>
      </trkpt>
      <trkpt lat="45.69493" lon="6.42461">
        <ele>526.13</ele>
        <time>2018-09-09T14:24:24Z</time>
      </trkpt>
      <trkpt lat="45.69464" lon="6.42452">
        <ele>526.49</ele>
        <time>2018-09-09T14:24:26Z</time>
      </trkpt>
      <trkpt lat="45.6944" lon="6.4243">
        <ele>527.23</ele>
        <time>2018-09-09T14:24:28Z</time>
      </trkpt>
      <trkpt lat="45.69416" lon="6.42394">
        <ele>527.71</ele>
        <time>2018-09-09T14:24:30Z</time>
      </trkpt>
      <trkpt lat="45.69403" lon="6.42374">
        <ele>528.29</ele>
        <time>2018-09-09T14:24:31Z</time>
      </trkpt>
      <trkpt lat="45.6938" lon="6.42338">
        <ele>528.51</ele>
        <time>2018-09-09T14:24:33Z</time>
      </trkpt>
      <trkpt lat="45.6936" lon="6.42306">
        <ele>527.83</ele>
        <time>2018-09-09T14:24:35Z</time>
      </trkpt>
      <trkpt lat="45.69346" lon="6.42269">
        <ele>526.65</ele>
        <time>2018-09-09T14:24:37Z</time>
      </trkpt>
      <trkpt lat="45.69329" lon="6.42234">
        <ele>527.24</ele>
        <time>2018-09-09T14:24:39Z</time>
      </trkpt>
      <trkpt lat="45.6931" lon="6.42199">
        <ele>527.5</ele>
        <time>2018-09-09T14:24:41Z</time>
      </trkpt>
      <trkpt lat="45.6929" lon="6.4217">
        <ele>527.53</ele>
        <time>2018-09-09T14:24:43Z</time>
      </trkpt>
      <trkpt lat="45.69266" lon="6.42144">
        <ele>527.53</ele>
        <time>2018-09-09T14:24:45Z</time>
      </trkpt>
      <trkpt lat="45.69241" lon="6.42133">
        <ele>526.83</ele>
        <time>2018-09-09T14:24:47Z</time>
      </trkpt>
      <trkpt lat="45.69218" lon="6.42123">
        <ele>525.86</ele>
        <time>2018-09-09T14:24:49Z</time>
      </trkpt>
      <trkpt lat="45.69197" lon="6.42114">
        <ele>527.17</ele>
        <time>2018-09-09T14:24:51Z</time>
      </trkpt>
      <trkpt lat="45.69176" lon="6.42114">
        <ele>527.29</ele>
        <time>2018-09-09T14:24:53Z</time>
      </trkpt>
      <trkpt lat="45.69151" lon="6.42108">
        <ele>525.58</ele>
        <time>2018-09-09T14:24:56Z</time>
      </trkpt>
      <trkpt lat="45.69141" lon="6.42078">
        <ele>527.21</ele>
        <time>2018-09-09T14:24:59Z</time>
      </trkpt>
      <trkpt lat="45.69129" lon="6.42053">
        <ele>528.43</ele>
        <time>2018-09-09T14:25:02Z</time>
      </trkpt>
      <trkpt lat="45.69105" lon="6.42032">
        <ele>528.53</ele>
        <time>2018-09-09T14:25:05Z</time>
      </trkpt>
      <trkpt lat="45.69087" lon="6.42011">
        <ele>527.62</ele>
        <time>2018-09-09T14:25:07Z</time>
      </trkpt>
      <trkpt lat="45.69065" lon="6.41996">
        <ele>526.84</ele>
        <time>2018-09-09T14:25:09Z</time>
      </trkpt>
      <trkpt lat="45.69036" lon="6.41984">
        <ele>526.56</ele>
        <time>2018-09-09T14:25:11Z</time>
      </trkpt>
      <trkpt lat="45.69007" lon="6.41968">
        <ele>524.01</ele>
        <time>2018-09-09T14:25:13Z</time>
      </trkpt>
      <trkpt lat="45.68987" lon="6.41959">
        <ele>521.05</ele>
        <time>2018-09-09T14:25:15Z</time>
      </trkpt>
      <trkpt lat="45.68967" lon="6.41941">
        <ele>518.76</ele>
        <time>2018-09-09T14:25:17Z</time>
      </trkpt>
      <trkpt lat="45.6895" lon="6.41914">
        <ele>518.55</ele>
        <time>2018-09-09T14:25:19Z</time>
      </trkpt>
      <trkpt lat="45.68948" lon="6.41882">
        <ele>517.14</ele>
        <time>2018-09-09T14:25:20Z</time>
      </trkpt>
      <trkpt lat="45.68939" lon="6.4184">
        <ele>516.59</ele>
        <time>2018-09-09T14:25:22Z</time>
      </trkpt>
      <trkpt lat="45.68938" lon="6.41807">
        <ele>515.84</ele>
        <time>2018-09-09T14:25:24Z</time>
      </trkpt>
      <trkpt lat="45.68944" lon="6.41778">
        <ele>514.86</ele>
        <time>2018-09-09T14:25:26Z</time>
      </trkpt>
      <trkpt lat="45.68943" lon="6.41748">
        <ele>514.56</ele>
        <time>2018-09-09T14:25:28Z</time>
      </trkpt>
      <trkpt lat="45.68934" lon="6.41711">
        <ele>513.62</ele>
        <time>2018-09-09T14:25:30Z</time>
      </trkpt>
      <trkpt lat="45.68926" lon="6.41672">
        <ele>511.02</ele>
        <time>2018-09-09T14:25:32Z</time>
      </trkpt>
      <trkpt lat="45.68916" lon="6.41642">
        <ele>508.96</ele>
        <time>2018-09-09T14:25:34Z</time>
      </trkpt>
      <trkpt lat="45.68911" lon="6.41616">
        <ele>507.87</ele>
        <time>2018-09-09T14:25:36Z</time>
      </trkpt>
      <trkpt lat="45.68915" lon="6.41591">
        <ele>507.56</ele>
        <time>2018-09-09T14:25:38Z</time>
      </trkpt>
      <trkpt lat="45.68929" lon="6.41571">
        <ele>507.53</ele>
        <time>2018-09-09T14:25:40Z</time>
      </trkpt>
      <trkpt lat="45.68942" lon="6.41552">
        <ele>506.83</ele>
        <time>2018-09-09T14:25:42Z</time>
      </trkpt>
      <trkpt lat="45.68949" lon="6.41525">
        <ele>504.95</ele>
        <time>2018-09-09T14:25:44Z</time>
      </trkpt>
      <trkpt lat="45.68952" lon="6.41493">
        <ele>502.96</ele>
        <time>2018-09-09T14:25:46Z</time>
      </trkpt>
      <trkpt lat="45.68954" lon="6.41459">
        <ele>499.35</ele>
        <time>2018-09-09T14:25:48Z</time>
      </trkpt>
      <trkpt lat="45.68961" lon="6.41427">
        <ele>497.9</ele>
        <time>2018-09-09T14:25:50Z</time>
      </trkpt>
      <trkpt lat="45.68974" lon="6.41398">
        <ele>495.95</ele>
        <time>2018-09-09T14:25:52Z</time>
      </trkpt>
      <trkpt lat="45.6899" lon="6.41369">
        <ele>493.96</ele>
        <time>2018-09-09T14:25:54Z</time>
      </trkpt>
      <trkpt lat="45.69004" lon="6.4134">
        <ele>491.05</ele>
        <time>2018-09-09T14:25:56Z</time>
      </trkpt>
      <trkpt lat="45.69011" lon="6.41307">
        <ele>488.97</ele>
        <time>2018-09-09T14:25:58Z</time>
      </trkpt>
      <trkpt lat="45.69019" lon="6.41273">
        <ele>487.87</ele>
        <time>2018-09-09T14:26:00Z</time>
      </trkpt>
      <trkpt lat="45.69025" lon="6.41241">
        <ele>485.04</ele>
        <time>2018-09-09T14:26:02Z</time>
      </trkpt>
      <trkpt lat="45.69022" lon="6.41211">
        <ele>483.88</ele>
        <time>2018-09-09T14:26:04Z</time>
      </trkpt>
      <trkpt lat="45.6901" lon="6.41185">
        <ele>482.65</ele>
        <time>2018-09-09T14:26:06Z</time>
      </trkpt>
      <trkpt lat="45.68995" lon="6.41166">
        <ele>481.84</ele>
        <time>2018-09-09T14:26:08Z</time>
      </trkpt>
      <trkpt lat="45.68979" lon="6.41138">
        <ele>479.66</ele>
        <time>2018-09-09T14:26:11Z</time>
      </trkpt>
      <trkpt lat="45.68987" lon="6.41101">
        <ele>476.25</ele>
        <time>2018-09-09T14:26:14Z</time>
      </trkpt>
      <trkpt lat="45.68999" lon="6.41076">
        <ele>474.9</ele>
        <time>2018-09-09T14:26:16Z</time>
      </trkpt>
      <trkpt lat="45.69005" lon="6.41048">
        <ele>472.95</ele>
        <time>2018-09-09T14:26:18Z</time>
      </trkpt>
      <trkpt lat="45.69006" lon="6.41019">
        <ele>472.57</ele>
        <time>2018-09-09T14:26:20Z</time>
      </trkpt>
      <trkpt lat="45.69008" lon="6.40992">
        <ele>471.62</ele>
        <time>2018-09-09T14:26:22Z</time>
      </trkpt>
      <trkpt lat="45.69018" lon="6.40969">
        <ele>469.93</ele>
        <time>2018-09-09T14:26:24Z</time>
      </trkpt>
      <trkpt lat="45.69036" lon="6.40954">
        <ele>469.08</ele>
        <time>2018-09-09T14:26:26Z</time>
      </trkpt>
      <trkpt lat="45.69058" lon="6.40946">
        <ele>468.58</ele>
        <time>2018-09-09T14:26:28Z</time>
      </trkpt>
      <trkpt lat="45.69078" lon="6.40935">
        <ele>466.93</ele>
        <time>2018-09-09T14:26:30Z</time>
      </trkpt>
      <trkpt lat="45.69091" lon="6.40913">
        <ele>465.66</ele>
        <time>2018-09-09T14:26:32Z</time>
      </trkpt>
      <trkpt lat="45.69091" lon="6.40886">
        <ele>463.93</ele>
        <time>2018-09-09T14:26:34Z</time>
      </trkpt>
      <trkpt lat="45.69078" lon="6.40866">
        <ele>462.87</ele>
        <time>2018-09-09T14:26:36Z</time>
      </trkpt>
      <trkpt lat="45.69061" lon="6.40851">
        <ele>460.95</ele>
        <time>2018-09-09T14:26:38Z</time>
      </trkpt>
      <trkpt lat="45.69043" lon="6.40835">
        <ele>459.66</ele>
        <time>2018-09-09T14:26:40Z</time>
      </trkpt>
      <trkpt lat="45.69024" lon="6.40814">
        <ele>458.63</ele>
        <time>2018-09-09T14:26:42Z</time>
      </trkpt>
      <trkpt lat="45.69013" lon="6.40786">
        <ele>456.23</ele>
        <time>2018-09-09T14:26:44Z</time>
      </trkpt>
      <trkpt lat="45.69009" lon="6.40756">
        <ele>454.89</ele>
        <time>2018-09-09T14:26:46Z</time>
      </trkpt>
      <trkpt lat="45.69012" lon="6.40725">
        <ele>453.65</ele>
        <time>2018-09-09T14:26:48Z</time>
      </trkpt>
      <trkpt lat="45.69022" lon="6.40698">
        <ele>452.84</ele>
        <time>2018-09-09T14:26:50Z</time>
      </trkpt>
      <trkpt lat="45.69032" lon="6.40675">
        <ele>451.86</ele>
        <time>2018-09-09T14:26:52Z</time>
      </trkpt>
      <trkpt lat="45.69029" lon="6.40638">
        <ele>449.93</ele>
        <time>2018-09-09T14:26:55Z</time>
      </trkpt>
      <trkpt lat="45.69015" lon="6.40618">
        <ele>447.96</ele>
        <time>2018-09-09T14:26:57Z</time>
      </trkpt>
      <trkpt lat="45.68995" lon="6.40603">
        <ele>446.66</ele>
        <time>2018-09-09T14:26:59Z</time>
      </trkpt>
      <trkpt lat="45.68974" lon="6.40589">
        <ele>444.93</ele>
        <time>2018-09-09T14:27:01Z</time>
      </trkpt>
      <trkpt lat="45.68954" lon="6.40581">
        <ele>443.66</ele>
        <time>2018-09-09T14:27:03Z</time>
      </trkpt>
      <trkpt lat="45.68934" lon="6.4059">
        <ele>442.63</ele>
        <time>2018-09-09T14:27:05Z</time>
      </trkpt>
      <trkpt lat="45.68915" lon="6.40604">
        <ele>440.93</ele>
        <time>2018-09-09T14:27:07Z</time>
      </trkpt>
      <trkpt lat="45.68895" lon="6.40597">
        <ele>439.17</ele>
        <time>2018-09-09T14:27:09Z</time>
      </trkpt>
      <trkpt lat="45.6888" lon="6.40569">
        <ele>437.89</ele>
        <time>2018-09-09T14:27:11Z</time>
      </trkpt>
      <trkpt lat="45.68871" lon="6.40536">
        <ele>435.95</ele>
        <time>2018-09-09T14:27:13Z</time>
      </trkpt>
      <trkpt lat="45.68859" lon="6.40512">
        <ele>434.66</ele>
        <time>2018-09-09T14:27:15Z</time>
      </trkpt>
      <trkpt lat="45.6884" lon="6.40503">
        <ele>433.63</ele>
        <time>2018-09-09T14:27:17Z</time>
      </trkpt>
      <trkpt lat="45.68821" lon="6.40504">
        <ele>432.84</ele>
        <time>2018-09-09T14:27:19Z</time>
      </trkpt>
      <trkpt lat="45.68801" lon="6.40498">
        <ele>430.95</ele>
        <time>2018-09-09T14:27:21Z</time>
      </trkpt>
      <trkpt lat="45.68785" lon="6.40475">
        <ele>429.66</ele>
        <time>2018-09-09T14:27:23Z</time>
      </trkpt>
      <trkpt lat="45.68774" lon="6.40446">
        <ele>427.93</ele>
        <time>2018-09-09T14:27:25Z</time>
      </trkpt>
      <trkpt lat="45.68757" lon="6.40424">
        <ele>426.66</ele>
        <time>2018-09-09T14:27:27Z</time>
      </trkpt>
      <trkpt lat="45.68735" lon="6.40413">
        <ele>424.93</ele>
        <time>2018-09-09T14:27:29Z</time>
      </trkpt>
      <trkpt lat="45.68712" lon="6.40401">
        <ele>423.66</ele>
        <time>2018-09-09T14:27:31Z</time>
      </trkpt>
      <trkpt lat="45.6869" lon="6.4038">
        <ele>421.93</ele>
        <time>2018-09-09T14:27:33Z</time>
      </trkpt>
      <trkpt lat="45.68674" lon="6.40351">
        <ele>420.66</ele>
        <time>2018-09-09T14:27:35Z</time>
      </trkpt>
      <trkpt lat="45.68667" lon="6.40316">
        <ele>418.02</ele>
        <time>2018-09-09T14:27:37Z</time>
      </trkpt>
      <trkpt lat="45.68663" lon="6.40282">
        <ele>416.88</ele>
        <time>2018-09-09T14:27:39Z</time>
      </trkpt>
      <trkpt lat="45.68654" lon="6.4025">
        <ele>415.16</ele>
        <time>2018-09-09T14:27:41Z</time>
      </trkpt>
      <trkpt lat="45.68638" lon="6.40223">
        <ele>412.98</ele>
        <time>2018-09-09T14:27:43Z</time>
      </trkpt>
      <trkpt lat="45.68625" lon="6.4019">
        <ele>412.57</ele>
        <time>2018-09-09T14:27:45Z</time>
      </trkpt>
      <trkpt lat="45.68614" lon="6.40156">
        <ele>411.83</ele>
        <time>2018-09-09T14:27:47Z</time>
      </trkpt>
      <trkpt lat="45.68598" lon="6.40128">
        <ele>410.86</ele>
        <time>2018-09-09T14:27:49Z</time>
      </trkpt>
      <trkpt lat="45.68575" lon="6.40111">
        <ele>408.95</ele>
        <time>2018-09-09T14:27:51Z</time>
      </trkpt>
      <trkpt lat="45.6855" lon="6.40101">
        <ele>407.87</ele>
        <time>2018-09-09T14:27:53Z</time>
      </trkpt>
      <trkpt lat="45.68521" lon="6.40087">
        <ele>406.65</ele>
        <time>2018-09-09T14:27:55Z</time>
      </trkpt>
      <trkpt lat="45.68491" lon="6.40063">
        <ele>404.93</ele>
        <time>2018-09-09T14:27:57Z</time>
      </trkpt>
      <trkpt lat="45.68462" lon="6.40046">
        <ele>405.27</ele>
        <time>2018-09-09T14:27:59Z</time>
      </trkpt>
      <trkpt lat="45.68432" lon="6.40017">
        <ele>403.41</ele>
        <time>2018-09-09T14:28:01Z</time>
      </trkpt>
      <trkpt lat="45.68406" lon="6.39992">
        <ele>401.91</ele>
        <time>2018-09-09T14:28:03Z</time>
      </trkpt>
      <trkpt lat="45.68383" lon="6.39971">
        <ele>400.17</ele>
        <time>2018-09-09T14:28:05Z</time>
      </trkpt>
      <trkpt lat="45.68361" lon="6.3995">
        <ele>398.19</ele>
        <time>2018-09-09T14:28:07Z</time>
      </trkpt>
      <trkpt lat="45.68343" lon="6.39924">
        <ele>396.68</ele>
        <time>2018-09-09T14:28:09Z</time>
      </trkpt>
      <trkpt lat="45.68329" lon="6.39895">
        <ele>394.02</ele>
        <time>2018-09-09T14:28:11Z</time>
      </trkpt>
      <trkpt lat="45.68314" lon="6.39869">
        <ele>391.97</ele>
        <time>2018-09-09T14:28:13Z</time>
      </trkpt>
      <trkpt lat="45.68293" lon="6.39852">
        <ele>389.26</ele>
        <time>2018-09-09T14:28:15Z</time>
      </trkpt>
      <trkpt lat="45.68267" lon="6.39839">
        <ele>387.69</ele>
        <time>2018-09-09T14:28:17Z</time>
      </trkpt>
      <trkpt lat="45.68239" lon="6.39829">
        <ele>385.73</ele>
        <time>2018-09-09T14:28:19Z</time>
      </trkpt>
      <trkpt lat="45.68213" lon="6.3982">
        <ele>384.64</ele>
        <time>2018-09-09T14:28:21Z</time>
      </trkpt>
      <trkpt lat="45.68187" lon="6.39808">
        <ele>382.93</ele>
        <time>2018-09-09T14:28:23Z</time>
      </trkpt>
      <trkpt lat="45.68164" lon="6.39789">
        <ele>381.87</ele>
        <time>2018-09-09T14:28:25Z</time>
      </trkpt>
      <trkpt lat="45.68139" lon="6.39772">
        <ele>380.65</ele>
        <time>2018-09-09T14:28:27Z</time>
      </trkpt>
      <trkpt lat="45.68108" lon="6.39763">
        <ele>379.14</ele>
        <time>2018-09-09T14:28:29Z</time>
      </trkpt>
      <trkpt lat="45.6809" lon="6.39757">
        <ele>378.71</ele>
        <time>2018-09-09T14:28:30Z</time>
      </trkpt>
      <trkpt lat="45.68071" lon="6.39751">
        <ele>378.59</ele>
        <time>2018-09-09T14:28:31Z</time>
      </trkpt>
      <trkpt lat="45.68052" lon="6.39745">
        <ele>378.55</ele>
        <time>2018-09-09T14:28:32Z</time>
      </trkpt>
      <trkpt lat="45.68022" lon="6.39734">
        <ele>376.01</ele>
        <time>2018-09-09T14:28:34Z</time>
      </trkpt>
      <trkpt lat="45.67998" lon="6.39727">
        <ele>374.87</ele>
        <time>2018-09-09T14:28:36Z</time>
      </trkpt>
      <trkpt lat="45.67976" lon="6.39714">
        <ele>373.16</ele>
        <time>2018-09-09T14:28:38Z</time>
      </trkpt>
      <trkpt lat="45.67954" lon="6.39704">
        <ele>371.89</ele>
        <time>2018-09-09T14:28:40Z</time>
      </trkpt>
      <trkpt lat="45.67933" lon="6.39692">
        <ele>371.56</ele>
        <time>2018-09-09T14:28:42Z</time>
      </trkpt>
      <trkpt lat="45.67914" lon="6.39679">
        <ele>369.71</ele>
        <time>2018-09-09T14:28:44Z</time>
      </trkpt>
      <trkpt lat="45.67895" lon="6.39661">
        <ele>367.73</ele>
        <time>2018-09-09T14:28:46Z</time>
      </trkpt>
      <trkpt lat="45.67877" lon="6.39644">
        <ele>365.03</ele>
        <time>2018-09-09T14:28:48Z</time>
      </trkpt>
      <trkpt lat="45.67857" lon="6.39632">
        <ele>365.28</ele>
        <time>2018-09-09T14:28:50Z</time>
      </trkpt>
      <trkpt lat="45.67837" lon="6.39624">
        <ele>363.9</ele>
        <time>2018-09-09T14:28:52Z</time>
      </trkpt>
      <trkpt lat="45.67818" lon="6.39626">
        <ele>362.86</ele>
        <time>2018-09-09T14:28:54Z</time>
      </trkpt>
      <trkpt lat="45.67792" lon="6.39634">
        <ele>360.66</ele>
        <time>2018-09-09T14:28:57Z</time>
      </trkpt>
      <trkpt lat="45.67773" lon="6.39628">
        <ele>358.93</ele>
        <time>2018-09-09T14:28:59Z</time>
      </trkpt>
      <trkpt lat="45.67757" lon="6.39615">
        <ele>357.66</ele>
        <time>2018-09-09T14:29:01Z</time>
      </trkpt>
      <trkpt lat="45.67737" lon="6.39592">
        <ele>355.65</ele>
        <time>2018-09-09T14:29:04Z</time>
      </trkpt>
      <trkpt lat="45.67715" lon="6.39578">
        <ele>353.65</ele>
        <time>2018-09-09T14:29:07Z</time>
      </trkpt>
      <trkpt lat="45.67692" lon="6.39571">
        <ele>351.86</ele>
        <time>2018-09-09T14:29:10Z</time>
      </trkpt>
      <trkpt lat="45.67668" lon="6.39563">
        <ele>351.54</ele>
        <time>2018-09-09T14:29:13Z</time>
      </trkpt>
      <trkpt lat="45.67646" lon="6.39556">
        <ele>350.56</ele>
        <time>2018-09-09T14:29:16Z</time>
      </trkpt>
      <trkpt lat="45.67626" lon="6.39547">
        <ele>350.53</ele>
        <time>2018-09-09T14:29:21Z</time>
      </trkpt>
      <trkpt lat="45.67608" lon="6.39541">
        <ele>350.23</ele>
        <time>2018-09-09T14:29:27Z</time>
      </trkpt>
      <trkpt lat="45.67609" lon="6.39514">
        <ele>348.53</ele>
        <time>2018-09-09T14:29:33Z</time>
      </trkpt>
      <trkpt lat="45.67622" lon="6.39487">
        <ele>350.14</ele>
        <time>2018-09-09T14:29:37Z</time>
      </trkpt>
      <trkpt lat="45.67628" lon="6.39458">
        <ele>350.73</ele>
        <time>2018-09-09T14:29:40Z</time>
      </trkpt>
      <trkpt lat="45.67633" lon="6.39426">
        <ele>349.84</ele>
        <time>2018-09-09T14:29:43Z</time>
      </trkpt>
      <trkpt lat="45.67637" lon="6.39399">
        <ele>348.78</ele>
        <time>2018-09-09T14:29:46Z</time>
      </trkpt>
      <trkpt lat="45.67642" lon="6.39374">
        <ele>348.23</ele>
        <time>2018-09-09T14:30:46Z</time>
      </trkpt>
      <trkpt lat="45.67647" lon="6.39343">
        <ele>345.84</ele>
        <time>2018-09-09T14:30:52Z</time>
      </trkpt>
      <trkpt lat="45.67632" lon="6.39321">
        <ele>344.83</ele>
        <time>2018-09-09T14:30:56Z</time>
      </trkpt>
      <trkpt lat="45.67614" lon="6.39314">
        <ele>343.84</ele>
        <time>2018-09-09T14:30:59Z</time>
      </trkpt>
      <trkpt lat="45.67592" lon="6.39301">
        <ele>342.63</ele>
        <time>2018-09-09T14:31:02Z</time>
      </trkpt>
      <trkpt lat="45.67575" lon="6.39288">
        <ele>342.32</ele>
        <time>2018-09-09T14:31:05Z</time>
      </trkpt>
      <trkpt lat="45.67553" lon="6.39281">
        <ele>336.5</ele>
        <time>2018-09-09T14:35:23Z</time>
      </trkpt>
      <trkpt lat="45.67534" lon="6.39275">
        <ele>338.41</ele>
        <time>2018-09-09T14:35:26Z</time>
      </trkpt>
      <trkpt lat="45.67511" lon="6.39273">
        <ele>338.53</ele>
        <time>2018-09-09T14:35:29Z</time>
      </trkpt>
      <trkpt lat="45.67484" lon="6.39268">
        <ele>338.53</ele>
        <time>2018-09-09T14:35:32Z</time>
      </trkpt>
      <trkpt lat="45.67465" lon="6.39262">
        <ele>338.53</ele>
        <time>2018-09-09T14:35:34Z</time>
      </trkpt>
      <trkpt lat="45.67443" lon="6.39255">
        <ele>337.83</ele>
        <time>2018-09-09T14:35:36Z</time>
      </trkpt>
      <trkpt lat="45.67421" lon="6.39249">
        <ele>337.56</ele>
        <time>2018-09-09T14:35:38Z</time>
      </trkpt>
      <trkpt lat="45.674" lon="6.39243">
        <ele>338.23</ele>
        <time>2018-09-09T14:35:40Z</time>
      </trkpt>
      <trkpt lat="45.67379" lon="6.39235">
        <ele>338.71</ele>
        <time>2018-09-09T14:35:42Z</time>
      </trkpt>
      <trkpt lat="45.67357" lon="6.39228">
        <ele>338.76</ele>
        <time>2018-09-09T14:35:44Z</time>
      </trkpt>
      <trkpt lat="45.67332" lon="6.3922">
        <ele>339.46</ele>
        <time>2018-09-09T14:35:46Z</time>
      </trkpt>
      <trkpt lat="45.67307" lon="6.39212">
        <ele>339.52</ele>
        <time>2018-09-09T14:35:48Z</time>
      </trkpt>
      <trkpt lat="45.67282" lon="6.39202">
        <ele>339.53</ele>
        <time>2018-09-09T14:35:50Z</time>
      </trkpt>
      <trkpt lat="45.67258" lon="6.39194">
        <ele>339.53</ele>
        <time>2018-09-09T14:35:52Z</time>
      </trkpt>
      <trkpt lat="45.67235" lon="6.39185">
        <ele>339.53</ele>
        <time>2018-09-09T14:35:54Z</time>
      </trkpt>
      <trkpt lat="45.67211" lon="6.39176">
        <ele>339.74</ele>
        <time>2018-09-09T14:35:56Z</time>
      </trkpt>
      <trkpt lat="45.67186" lon="6.39169">
        <ele>339.55</ele>
        <time>2018-09-09T14:35:58Z</time>
      </trkpt>
      <trkpt lat="45.67163" lon="6.39161">
        <ele>339.53</ele>
        <time>2018-09-09T14:36:00Z</time>
      </trkpt>
      <trkpt lat="45.67138" lon="6.39152">
        <ele>339.53</ele>
        <time>2018-09-09T14:36:02Z</time>
      </trkpt>
      <trkpt lat="45.67113" lon="6.39142">
        <ele>338.62</ele>
        <time>2018-09-09T14:36:04Z</time>
      </trkpt>
      <trkpt lat="45.67089" lon="6.39134">
        <ele>338.54</ele>
        <time>2018-09-09T14:36:06Z</time>
      </trkpt>
      <trkpt lat="45.67065" lon="6.39126">
        <ele>337.83</ele>
        <time>2018-09-09T14:36:08Z</time>
      </trkpt>
      <trkpt lat="45.6704" lon="6.39119">
        <ele>338.47</ele>
        <time>2018-09-09T14:36:10Z</time>
      </trkpt>
      <trkpt lat="45.67016" lon="6.3911">
        <ele>338.53</ele>
        <time>2018-09-09T14:36:12Z</time>
      </trkpt>
      <trkpt lat="45.66992" lon="6.39099">
        <ele>338.53</ele>
        <time>2018-09-09T14:36:14Z</time>
      </trkpt>
      <trkpt lat="45.66966" lon="6.3909">
        <ele>337.83</ele>
        <time>2018-09-09T14:36:16Z</time>
      </trkpt>
      <trkpt lat="45.66942" lon="6.39079">
        <ele>337.56</ele>
        <time>2018-09-09T14:36:18Z</time>
      </trkpt>
      <trkpt lat="45.66918" lon="6.39068">
        <ele>336.62</ele>
        <time>2018-09-09T14:36:20Z</time>
      </trkpt>
      <trkpt lat="45.66894" lon="6.39059">
        <ele>337.24</ele>
        <time>2018-09-09T14:36:22Z</time>
      </trkpt>
      <trkpt lat="45.66871" lon="6.3905">
        <ele>336.8</ele>
        <time>2018-09-09T14:36:24Z</time>
      </trkpt>
      <trkpt lat="45.66846" lon="6.39041">
        <ele>337.26</ele>
        <time>2018-09-09T14:36:26Z</time>
      </trkpt>
      <trkpt lat="45.66822" lon="6.39032">
        <ele>336.6</ele>
        <time>2018-09-09T14:36:28Z</time>
      </trkpt>
      <trkpt lat="45.66797" lon="6.39022">
        <ele>336.54</ele>
        <time>2018-09-09T14:36:30Z</time>
      </trkpt>
      <trkpt lat="45.66771" lon="6.39013">
        <ele>335.83</ele>
        <time>2018-09-09T14:36:32Z</time>
      </trkpt>
      <trkpt lat="45.66745" lon="6.39002">
        <ele>334.86</ele>
        <time>2018-09-09T14:36:34Z</time>
      </trkpt>
      <trkpt lat="45.66718" lon="6.38993">
        <ele>334.77</ele>
        <time>2018-09-09T14:36:36Z</time>
      </trkpt>
      <trkpt lat="45.66689" lon="6.38983">
        <ele>333.64</ele>
        <time>2018-09-09T14:36:38Z</time>
      </trkpt>
      <trkpt lat="45.6666" lon="6.38973">
        <ele>331.93</ele>
        <time>2018-09-09T14:36:40Z</time>
      </trkpt>
      <trkpt lat="45.66633" lon="6.38966">
        <ele>331.57</ele>
        <time>2018-09-09T14:36:42Z</time>
      </trkpt>
      <trkpt lat="45.66609" lon="6.38957">
        <ele>333.84</ele>
        <time>2018-09-09T14:36:44Z</time>
      </trkpt>
      <trkpt lat="45.66588" lon="6.38949">
        <ele>334.47</ele>
        <time>2018-09-09T14:36:46Z</time>
      </trkpt>
      <trkpt lat="45.66564" lon="6.38937">
        <ele>334.53</ele>
        <time>2018-09-09T14:36:49Z</time>
      </trkpt>
      <trkpt lat="45.66546" lon="6.38931">
        <ele>334.53</ele>
        <time>2018-09-09T14:36:52Z</time>
      </trkpt>
      <trkpt lat="45.66528" lon="6.38919">
        <ele>334.53</ele>
        <time>2018-09-09T14:36:56Z</time>
      </trkpt>
      <trkpt lat="45.66508" lon="6.38914">
        <ele>334.53</ele>
        <time>2018-09-09T14:36:59Z</time>
      </trkpt>
      <trkpt lat="45.6649" lon="6.38913">
        <ele>334.53</ele>
        <time>2018-09-09T14:37:01Z</time>
      </trkpt>
      <trkpt lat="45.66472" lon="6.38904">
        <ele>335.23</ele>
        <time>2018-09-09T14:37:03Z</time>
      </trkpt>
      <trkpt lat="45.66452" lon="6.38893">
        <ele>336.2</ele>
        <time>2018-09-09T14:37:05Z</time>
      </trkpt>
      <trkpt lat="45.6643" lon="6.38882">
        <ele>335.8</ele>
        <time>2018-09-09T14:37:07Z</time>
      </trkpt>
      <trkpt lat="45.6641" lon="6.38868">
        <ele>335.56</ele>
        <time>2018-09-09T14:37:09Z</time>
      </trkpt>
      <trkpt lat="45.66387" lon="6.38851">
        <ele>334.62</ele>
        <time>2018-09-09T14:37:11Z</time>
      </trkpt>
      <trkpt lat="45.66367" lon="6.38826">
        <ele>334.54</ele>
        <time>2018-09-09T14:37:13Z</time>
      </trkpt>
      <trkpt lat="45.66349" lon="6.388">
        <ele>334.53</ele>
        <time>2018-09-09T14:37:15Z</time>
      </trkpt>
      <trkpt lat="45.66331" lon="6.38781">
        <ele>333.62</ele>
        <time>2018-09-09T14:37:17Z</time>
      </trkpt>
      <trkpt lat="45.66322" lon="6.38757">
        <ele>333.33</ele>
        <time>2018-09-09T14:37:19Z</time>
      </trkpt>
      <trkpt lat="45.66316" lon="6.38732">
        <ele>332.6</ele>
        <time>2018-09-09T14:37:21Z</time>
      </trkpt>
      <trkpt lat="45.66303" lon="6.38705">
        <ele>331.84</ele>
        <time>2018-09-09T14:37:23Z</time>
      </trkpt>
      <trkpt lat="45.66293" lon="6.38674">
        <ele>333.17</ele>
        <time>2018-09-09T14:37:25Z</time>
      </trkpt>
      <trkpt lat="45.66285" lon="6.38637">
        <ele>335.11</ele>
        <time>2018-09-09T14:37:27Z</time>
      </trkpt>
      <trkpt lat="45.66274" lon="6.38599">
        <ele>336.19</ele>
        <time>2018-09-09T14:37:29Z</time>
      </trkpt>
      <trkpt lat="45.66257" lon="6.38557">
        <ele>335.8</ele>
        <time>2018-09-09T14:37:31Z</time>
      </trkpt>
      <trkpt lat="45.66237" lon="6.38515">
        <ele>333.95</ele>
        <time>2018-09-09T14:37:33Z</time>
      </trkpt>
      <trkpt lat="45.66225" lon="6.38493">
        <ele>333.66</ele>
        <time>2018-09-09T14:37:34Z</time>
      </trkpt>
      <trkpt lat="45.66212" lon="6.3847">
        <ele>332.87</ele>
        <time>2018-09-09T14:37:35Z</time>
      </trkpt>
      <trkpt lat="45.66199" lon="6.38447">
        <ele>332.63</ele>
        <time>2018-09-09T14:37:36Z</time>
      </trkpt>
      <trkpt lat="45.66187" lon="6.38422">
        <ele>332.56</ele>
        <time>2018-09-09T14:37:37Z</time>
      </trkpt>
      <trkpt lat="45.66174" lon="6.38398">
        <ele>332.54</ele>
        <time>2018-09-09T14:37:38Z</time>
      </trkpt>
      <trkpt lat="45.66162" lon="6.38373">
        <ele>332.53</ele>
        <time>2018-09-09T14:37:39Z</time>
      </trkpt>
      <trkpt lat="45.6615" lon="6.38348">
        <ele>332.53</ele>
        <time>2018-09-09T14:37:40Z</time>
      </trkpt>
      <trkpt lat="45.66138" lon="6.38322">
        <ele>332.53</ele>
        <time>2018-09-09T14:37:41Z</time>
      </trkpt>
      <trkpt lat="45.66126" lon="6.38296">
        <ele>331.83</ele>
        <time>2018-09-09T14:37:42Z</time>
      </trkpt>
      <trkpt lat="45.66114" lon="6.3827">
        <ele>331.62</ele>
        <time>2018-09-09T14:37:43Z</time>
      </trkpt>
      <trkpt lat="45.66103" lon="6.38243">
        <ele>331.56</ele>
        <time>2018-09-09T14:37:44Z</time>
      </trkpt>
      <trkpt lat="45.66091" lon="6.38215">
        <ele>330.84</ele>
        <time>2018-09-09T14:37:45Z</time>
      </trkpt>
      <trkpt lat="45.66079" lon="6.38187">
        <ele>331.32</ele>
        <time>2018-09-09T14:37:46Z</time>
      </trkpt>
      <trkpt lat="45.66067" lon="6.38159">
        <ele>330.77</ele>
        <time>2018-09-09T14:37:47Z</time>
      </trkpt>
      <trkpt lat="45.66054" lon="6.38131">
        <ele>330.6</ele>
        <time>2018-09-09T14:37:48Z</time>
      </trkpt>
      <trkpt lat="45.66042" lon="6.38103">
        <ele>329.85</ele>
        <time>2018-09-09T14:37:49Z</time>
      </trkpt>
      <trkpt lat="45.66029" lon="6.38076">
        <ele>329.63</ele>
        <time>2018-09-09T14:37:50Z</time>
      </trkpt>
      <trkpt lat="45.66017" lon="6.38048">
        <ele>328.86</ele>
        <time>2018-09-09T14:37:51Z</time>
      </trkpt>
      <trkpt lat="45.66005" lon="6.38021">
        <ele>328.63</ele>
        <time>2018-09-09T14:37:52Z</time>
      </trkpt>
      <trkpt lat="45.65993" lon="6.37995">
        <ele>328.56</ele>
        <time>2018-09-09T14:37:53Z</time>
      </trkpt>
      <trkpt lat="45.65981" lon="6.37969">
        <ele>328.54</ele>
        <time>2018-09-09T14:37:54Z</time>
      </trkpt>
      <trkpt lat="45.65969" lon="6.37942">
        <ele>328.53</ele>
        <time>2018-09-09T14:37:55Z</time>
      </trkpt>
      <trkpt lat="45.65956" lon="6.37915">
        <ele>327.83</ele>
        <time>2018-09-09T14:37:56Z</time>
      </trkpt>
      <trkpt lat="45.65944" lon="6.37887">
        <ele>328.32</ele>
        <time>2018-09-09T14:37:57Z</time>
      </trkpt>
      <trkpt lat="45.65932" lon="6.37859">
        <ele>328.47</ele>
        <time>2018-09-09T14:37:58Z</time>
      </trkpt>
      <trkpt lat="45.6592" lon="6.37832">
        <ele>328.51</ele>
        <time>2018-09-09T14:37:59Z</time>
      </trkpt>
      <trkpt lat="45.65907" lon="6.37804">
        <ele>328.53</ele>
        <time>2018-09-09T14:38:00Z</time>
      </trkpt>
      <trkpt lat="45.65895" lon="6.37777">
        <ele>329.23</ele>
        <time>2018-09-09T14:38:01Z</time>
      </trkpt>
      <trkpt lat="45.65884" lon="6.3775">
        <ele>329.44</ele>
        <time>2018-09-09T14:38:02Z</time>
      </trkpt>
      <trkpt lat="45.65872" lon="6.37724">
        <ele>329.5</ele>
        <time>2018-09-09T14:38:03Z</time>
      </trkpt>
      <trkpt lat="45.6586" lon="6.37698">
        <ele>329.52</ele>
        <time>2018-09-09T14:38:04Z</time>
      </trkpt>
      <trkpt lat="45.65849" lon="6.37673">
        <ele>329.53</ele>
        <time>2018-09-09T14:38:05Z</time>
      </trkpt>
      <trkpt lat="45.65837" lon="6.37648">
        <ele>329.53</ele>
        <time>2018-09-09T14:38:06Z</time>
      </trkpt>
      <trkpt lat="45.65824" lon="6.37623">
        <ele>329.53</ele>
        <time>2018-09-09T14:38:07Z</time>
      </trkpt>
      <trkpt lat="45.65812" lon="6.37598">
        <ele>328.83</ele>
        <time>2018-09-09T14:38:08Z</time>
      </trkpt>
      <trkpt lat="45.65799" lon="6.37573">
        <ele>328.62</ele>
        <time>2018-09-09T14:38:09Z</time>
      </trkpt>
      <trkpt lat="45.65785" lon="6.37549">
        <ele>328.56</ele>
        <time>2018-09-09T14:38:10Z</time>
      </trkpt>
      <trkpt lat="45.65772" lon="6.37523">
        <ele>328.54</ele>
        <time>2018-09-09T14:38:11Z</time>
      </trkpt>
      <trkpt lat="45.65758" lon="6.37496">
        <ele>328.53</ele>
        <time>2018-09-09T14:38:12Z</time>
      </trkpt>
      <trkpt lat="45.65745" lon="6.37469">
        <ele>328.53</ele>
        <time>2018-09-09T14:38:13Z</time>
      </trkpt>
      <trkpt lat="45.65732" lon="6.37441">
        <ele>328.53</ele>
        <time>2018-09-09T14:38:14Z</time>
      </trkpt>
      <trkpt lat="45.6572" lon="6.37412">
        <ele>327.83</ele>
        <time>2018-09-09T14:38:15Z</time>
      </trkpt>
      <trkpt lat="45.65708" lon="6.37383">
        <ele>327.62</ele>
        <time>2018-09-09T14:38:16Z</time>
      </trkpt>
      <trkpt lat="45.65696" lon="6.37354">
        <ele>326.86</ele>
        <time>2018-09-09T14:38:17Z</time>
      </trkpt>
      <trkpt lat="45.65685" lon="6.37325">
        <ele>326.63</ele>
        <time>2018-09-09T14:38:18Z</time>
      </trkpt>
      <trkpt lat="45.65675" lon="6.37296">
        <ele>326.56</ele>
        <time>2018-09-09T14:38:19Z</time>
      </trkpt>
      <trkpt lat="45.65664" lon="6.37267">
        <ele>325.84</ele>
        <time>2018-09-09T14:38:20Z</time>
      </trkpt>
      <trkpt lat="45.65654" lon="6.37238">
        <ele>325.62</ele>
        <time>2018-09-09T14:38:21Z</time>
      </trkpt>
      <trkpt lat="45.65644" lon="6.37209">
        <ele>325.56</ele>
        <time>2018-09-09T14:38:22Z</time>
      </trkpt>
      <trkpt lat="45.65635" lon="6.3718">
        <ele>325.54</ele>
        <time>2018-09-09T14:38:23Z</time>
      </trkpt>
      <trkpt lat="45.65626" lon="6.37153">
        <ele>325.53</ele>
        <time>2018-09-09T14:38:24Z</time>
      </trkpt>
      <trkpt lat="45.65617" lon="6.37123">
        <ele>325.53</ele>
        <time>2018-09-09T14:38:25Z</time>
      </trkpt>
      <trkpt lat="45.65608" lon="6.37094">
        <ele>325.53</ele>
        <time>2018-09-09T14:38:26Z</time>
      </trkpt>
      <trkpt lat="45.65599" lon="6.37066">
        <ele>325.53</ele>
        <time>2018-09-09T14:38:27Z</time>
      </trkpt>
      <trkpt lat="45.65591" lon="6.37036">
        <ele>324.83</ele>
        <time>2018-09-09T14:38:28Z</time>
      </trkpt>
      <trkpt lat="45.65584" lon="6.37006">
        <ele>324.62</ele>
        <time>2018-09-09T14:38:29Z</time>
      </trkpt>
      <trkpt lat="45.65577" lon="6.36977">
        <ele>325.26</ele>
        <time>2018-09-09T14:38:30Z</time>
      </trkpt>
      <trkpt lat="45.6557" lon="6.36946">
        <ele>325.45</ele>
        <time>2018-09-09T14:38:31Z</time>
      </trkpt>
      <trkpt lat="45.65563" lon="6.36914">
        <ele>325.51</ele>
        <time>2018-09-09T14:38:32Z</time>
      </trkpt>
      <trkpt lat="45.65557" lon="6.36883">
        <ele>324.82</ele>
        <time>2018-09-09T14:38:33Z</time>
      </trkpt>
      <trkpt lat="45.65551" lon="6.36853">
        <ele>324.62</ele>
        <time>2018-09-09T14:38:34Z</time>
      </trkpt>
      <trkpt lat="45.65546" lon="6.36822">
        <ele>324.56</ele>
        <time>2018-09-09T14:38:35Z</time>
      </trkpt>
      <trkpt lat="45.6554" lon="6.36791">
        <ele>325.24</ele>
        <time>2018-09-09T14:38:36Z</time>
      </trkpt>
      <trkpt lat="45.65531" lon="6.36727">
        <ele>325.44</ele>
        <time>2018-09-09T14:38:38Z</time>
      </trkpt>
      <trkpt lat="45.65527" lon="6.36695">
        <ele>325.5</ele>
        <time>2018-09-09T14:38:39Z</time>
      </trkpt>
      <trkpt lat="45.65522" lon="6.36663">
        <ele>326.22</ele>
        <time>2018-09-09T14:38:40Z</time>
      </trkpt>
      <trkpt lat="45.65518" lon="6.36631">
        <ele>326.44</ele>
        <time>2018-09-09T14:38:41Z</time>
      </trkpt>
      <trkpt lat="45.65513" lon="6.366">
        <ele>325.8</ele>
        <time>2018-09-09T14:38:42Z</time>
      </trkpt>
      <trkpt lat="45.65509" lon="6.36568">
        <ele>325.61</ele>
        <time>2018-09-09T14:38:43Z</time>
      </trkpt>
      <trkpt lat="45.65504" lon="6.36536">
        <ele>325.56</ele>
        <time>2018-09-09T14:38:44Z</time>
      </trkpt>
      <trkpt lat="45.655" lon="6.36505">
        <ele>325.54</ele>
        <time>2018-09-09T14:38:45Z</time>
      </trkpt>
      <trkpt lat="45.65495" lon="6.36473">
        <ele>325.53</ele>
        <time>2018-09-09T14:38:46Z</time>
      </trkpt>
      <trkpt lat="45.65491" lon="6.36442">
        <ele>325.53</ele>
        <time>2018-09-09T14:38:47Z</time>
      </trkpt>
      <trkpt lat="45.65486" lon="6.36411">
        <ele>325.53</ele>
        <time>2018-09-09T14:38:48Z</time>
      </trkpt>
      <trkpt lat="45.65481" lon="6.3638">
        <ele>325.53</ele>
        <time>2018-09-09T14:38:49Z</time>
      </trkpt>
      <trkpt lat="45.65477" lon="6.36349">
        <ele>325.53</ele>
        <time>2018-09-09T14:38:50Z</time>
      </trkpt>
      <trkpt lat="45.65472" lon="6.36319">
        <ele>326.23</ele>
        <time>2018-09-09T14:38:51Z</time>
      </trkpt>
      <trkpt lat="45.65466" lon="6.36289">
        <ele>326.44</ele>
        <time>2018-09-09T14:38:52Z</time>
      </trkpt>
      <trkpt lat="45.6546" lon="6.36258">
        <ele>326.5</ele>
        <time>2018-09-09T14:38:53Z</time>
      </trkpt>
      <trkpt lat="45.65454" lon="6.36228">
        <ele>326.52</ele>
        <time>2018-09-09T14:38:54Z</time>
      </trkpt>
      <trkpt lat="45.65448" lon="6.36197">
        <ele>326.53</ele>
        <time>2018-09-09T14:38:55Z</time>
      </trkpt>
      <trkpt lat="45.65442" lon="6.36168">
        <ele>326.53</ele>
        <time>2018-09-09T14:38:56Z</time>
      </trkpt>
      <trkpt lat="45.65436" lon="6.36137">
        <ele>326.53</ele>
        <time>2018-09-09T14:38:57Z</time>
      </trkpt>
      <trkpt lat="45.6543" lon="6.36107">
        <ele>326.53</ele>
        <time>2018-09-09T14:38:58Z</time>
      </trkpt>
      <trkpt lat="45.65423" lon="6.36076">
        <ele>326.53</ele>
        <time>2018-09-09T14:38:59Z</time>
      </trkpt>
      <trkpt lat="45.65417" lon="6.36045">
        <ele>326.53</ele>
        <time>2018-09-09T14:39:00Z</time>
      </trkpt>
      <trkpt lat="45.6541" lon="6.36014">
        <ele>326.53</ele>
        <time>2018-09-09T14:39:01Z</time>
      </trkpt>
      <trkpt lat="45.65403" lon="6.35982">
        <ele>325.83</ele>
        <time>2018-09-09T14:39:02Z</time>
      </trkpt>
      <trkpt lat="45.65394" lon="6.3595">
        <ele>324.92</ele>
        <time>2018-09-09T14:39:03Z</time>
      </trkpt>
      <trkpt lat="45.65386" lon="6.35918">
        <ele>324.65</ele>
        <time>2018-09-09T14:39:04Z</time>
      </trkpt>
      <trkpt lat="45.65379" lon="6.35885">
        <ele>324.57</ele>
        <time>2018-09-09T14:39:05Z</time>
      </trkpt>
      <trkpt lat="45.6537" lon="6.35852">
        <ele>323.84</ele>
        <time>2018-09-09T14:39:06Z</time>
      </trkpt>
      <trkpt lat="45.65362" lon="6.35819">
        <ele>323.62</ele>
        <time>2018-09-09T14:39:07Z</time>
      </trkpt>
      <trkpt lat="45.65352" lon="6.35784">
        <ele>323.56</ele>
        <time>2018-09-09T14:39:08Z</time>
      </trkpt>
      <trkpt lat="45.65343" lon="6.3575">
        <ele>322.84</ele>
        <time>2018-09-09T14:39:09Z</time>
      </trkpt>
      <trkpt lat="45.65334" lon="6.35716">
        <ele>322.62</ele>
        <time>2018-09-09T14:39:10Z</time>
      </trkpt>
      <trkpt lat="45.65324" lon="6.35682">
        <ele>322.56</ele>
        <time>2018-09-09T14:39:11Z</time>
      </trkpt>
      <trkpt lat="45.65315" lon="6.35648">
        <ele>322.54</ele>
        <time>2018-09-09T14:39:12Z</time>
      </trkpt>
      <trkpt lat="45.65305" lon="6.35612">
        <ele>321.83</ele>
        <time>2018-09-09T14:39:13Z</time>
      </trkpt>
      <trkpt lat="45.65295" lon="6.35577">
        <ele>321.62</ele>
        <time>2018-09-09T14:39:14Z</time>
      </trkpt>
      <trkpt lat="45.65285" lon="6.35542">
        <ele>321.56</ele>
        <time>2018-09-09T14:39:15Z</time>
      </trkpt>
      <trkpt lat="45.65274" lon="6.35506">
        <ele>322.24</ele>
        <time>2018-09-09T14:39:16Z</time>
      </trkpt>
      <trkpt lat="45.65264" lon="6.35471">
        <ele>322.44</ele>
        <time>2018-09-09T14:39:17Z</time>
      </trkpt>
      <trkpt lat="45.65253" lon="6.35436">
        <ele>322.5</ele>
        <time>2018-09-09T14:39:18Z</time>
      </trkpt>
      <trkpt lat="45.65243" lon="6.354">
        <ele>322.52</ele>
        <time>2018-09-09T14:39:19Z</time>
      </trkpt>
      <trkpt lat="45.65233" lon="6.35363">
        <ele>322.53</ele>
        <time>2018-09-09T14:39:20Z</time>
      </trkpt>
      <trkpt lat="45.65223" lon="6.35327">
        <ele>322.53</ele>
        <time>2018-09-09T14:39:21Z</time>
      </trkpt>
      <trkpt lat="45.65213" lon="6.35291">
        <ele>321.83</ele>
        <time>2018-09-09T14:39:22Z</time>
      </trkpt>
      <trkpt lat="45.65203" lon="6.35254">
        <ele>321.62</ele>
        <time>2018-09-09T14:39:23Z</time>
      </trkpt>
      <trkpt lat="45.65193" lon="6.35217">
        <ele>321.56</ele>
        <time>2018-09-09T14:39:24Z</time>
      </trkpt>
      <trkpt lat="45.65183" lon="6.3518">
        <ele>321.54</ele>
        <time>2018-09-09T14:39:25Z</time>
      </trkpt>
      <trkpt lat="45.65173" lon="6.35142">
        <ele>321.53</ele>
        <time>2018-09-09T14:39:26Z</time>
      </trkpt>
      <trkpt lat="45.65162" lon="6.35104">
        <ele>321.53</ele>
        <time>2018-09-09T14:39:27Z</time>
      </trkpt>
      <trkpt lat="45.65152" lon="6.35066">
        <ele>321.53</ele>
        <time>2018-09-09T14:39:28Z</time>
      </trkpt>
      <trkpt lat="45.65142" lon="6.35026">
        <ele>321.53</ele>
        <time>2018-09-09T14:39:29Z</time>
      </trkpt>
      <trkpt lat="45.65131" lon="6.34986">
        <ele>322.23</ele>
        <time>2018-09-09T14:39:30Z</time>
      </trkpt>
      <trkpt lat="45.6512" lon="6.34946">
        <ele>322.44</ele>
        <time>2018-09-09T14:39:31Z</time>
      </trkpt>
      <trkpt lat="45.6511" lon="6.34904">
        <ele>321.8</ele>
        <time>2018-09-09T14:39:32Z</time>
      </trkpt>
      <trkpt lat="45.65099" lon="6.34865">
        <ele>321.61</ele>
        <time>2018-09-09T14:39:33Z</time>
      </trkpt>
      <trkpt lat="45.65089" lon="6.34829">
        <ele>321.56</ele>
        <time>2018-09-09T14:39:34Z</time>
      </trkpt>
      <trkpt lat="45.6508" lon="6.34793">
        <ele>321.54</ele>
        <time>2018-09-09T14:39:35Z</time>
      </trkpt>
      <trkpt lat="45.6507" lon="6.34756">
        <ele>321.53</ele>
        <time>2018-09-09T14:39:36Z</time>
      </trkpt>
      <trkpt lat="45.6506" lon="6.3472">
        <ele>321.53</ele>
        <time>2018-09-09T14:39:37Z</time>
      </trkpt>
      <trkpt lat="45.6505" lon="6.34684">
        <ele>321.53</ele>
        <time>2018-09-09T14:39:38Z</time>
      </trkpt>
      <trkpt lat="45.6504" lon="6.34648">
        <ele>321.53</ele>
        <time>2018-09-09T14:39:39Z</time>
      </trkpt>
      <trkpt lat="45.6503" lon="6.34611">
        <ele>321.53</ele>
        <time>2018-09-09T14:39:40Z</time>
      </trkpt>
      <trkpt lat="45.6502" lon="6.34574">
        <ele>320.83</ele>
        <time>2018-09-09T14:39:41Z</time>
      </trkpt>
      <trkpt lat="45.6501" lon="6.34537">
        <ele>320.62</ele>
        <time>2018-09-09T14:39:42Z</time>
      </trkpt>
      <trkpt lat="45.65" lon="6.34499">
        <ele>320.56</ele>
        <time>2018-09-09T14:39:43Z</time>
      </trkpt>
      <trkpt lat="45.6499" lon="6.34461">
        <ele>320.54</ele>
        <time>2018-09-09T14:39:44Z</time>
      </trkpt>
      <trkpt lat="45.64981" lon="6.34422">
        <ele>320.53</ele>
        <time>2018-09-09T14:39:45Z</time>
      </trkpt>
      <trkpt lat="45.64974" lon="6.34383">
        <ele>320.53</ele>
        <time>2018-09-09T14:39:46Z</time>
      </trkpt>
      <trkpt lat="45.64967" lon="6.34345">
        <ele>320.53</ele>
        <time>2018-09-09T14:39:47Z</time>
      </trkpt>
      <trkpt lat="45.64962" lon="6.34305">
        <ele>319.83</ele>
        <time>2018-09-09T14:39:48Z</time>
      </trkpt>
      <trkpt lat="45.64957" lon="6.34265">
        <ele>319.62</ele>
        <time>2018-09-09T14:39:49Z</time>
      </trkpt>
      <trkpt lat="45.64954" lon="6.34226">
        <ele>320.26</ele>
        <time>2018-09-09T14:39:50Z</time>
      </trkpt>
      <trkpt lat="45.64951" lon="6.34186">
        <ele>320.45</ele>
        <time>2018-09-09T14:39:51Z</time>
      </trkpt>
      <trkpt lat="45.6495" lon="6.34147">
        <ele>320.51</ele>
        <time>2018-09-09T14:39:52Z</time>
      </trkpt>
      <trkpt lat="45.64949" lon="6.34107">
        <ele>321.22</ele>
        <time>2018-09-09T14:39:53Z</time>
      </trkpt>
      <trkpt lat="45.64948" lon="6.34068">
        <ele>320.74</ele>
        <time>2018-09-09T14:39:54Z</time>
      </trkpt>
      <trkpt lat="45.64947" lon="6.34028">
        <ele>320.59</ele>
        <time>2018-09-09T14:39:55Z</time>
      </trkpt>
      <trkpt lat="45.64945" lon="6.33988">
        <ele>320.55</ele>
        <time>2018-09-09T14:39:56Z</time>
      </trkpt>
      <trkpt lat="45.64942" lon="6.33949">
        <ele>320.54</ele>
        <time>2018-09-09T14:39:57Z</time>
      </trkpt>
      <trkpt lat="45.64939" lon="6.3391">
        <ele>321.23</ele>
        <time>2018-09-09T14:39:58Z</time>
      </trkpt>
      <trkpt lat="45.64934" lon="6.33871">
        <ele>321.44</ele>
        <time>2018-09-09T14:39:59Z</time>
      </trkpt>
      <trkpt lat="45.64927" lon="6.33833">
        <ele>321.5</ele>
        <time>2018-09-09T14:40:00Z</time>
      </trkpt>
      <trkpt lat="45.64918" lon="6.33796">
        <ele>322.22</ele>
        <time>2018-09-09T14:40:01Z</time>
      </trkpt>
      <trkpt lat="45.64908" lon="6.3376">
        <ele>322.44</ele>
        <time>2018-09-09T14:40:02Z</time>
      </trkpt>
      <trkpt lat="45.64896" lon="6.33725">
        <ele>322.5</ele>
        <time>2018-09-09T14:40:03Z</time>
      </trkpt>
      <trkpt lat="45.64883" lon="6.33691">
        <ele>322.52</ele>
        <time>2018-09-09T14:40:04Z</time>
      </trkpt>
      <trkpt lat="45.64868" lon="6.33659">
        <ele>323.23</ele>
        <time>2018-09-09T14:40:05Z</time>
      </trkpt>
      <trkpt lat="45.64851" lon="6.33628">
        <ele>324.14</ele>
        <time>2018-09-09T14:40:06Z</time>
      </trkpt>
      <trkpt lat="45.64832" lon="6.33599">
        <ele>324.41</ele>
        <time>2018-09-09T14:40:07Z</time>
      </trkpt>
      <trkpt lat="45.64812" lon="6.33571">
        <ele>324.5</ele>
        <time>2018-09-09T14:40:08Z</time>
      </trkpt>
      <trkpt lat="45.6479" lon="6.33545">
        <ele>324.52</ele>
        <time>2018-09-09T14:40:09Z</time>
      </trkpt>
      <trkpt lat="45.64767" lon="6.33521">
        <ele>325.23</ele>
        <time>2018-09-09T14:40:10Z</time>
      </trkpt>
      <trkpt lat="45.64743" lon="6.33501">
        <ele>325.44</ele>
        <time>2018-09-09T14:40:11Z</time>
      </trkpt>
      <trkpt lat="45.64717" lon="6.33483">
        <ele>325.5</ele>
        <time>2018-09-09T14:40:12Z</time>
      </trkpt>
      <trkpt lat="45.6469" lon="6.33467">
        <ele>325.52</ele>
        <time>2018-09-09T14:40:13Z</time>
      </trkpt>
      <trkpt lat="45.64662" lon="6.33455">
        <ele>325.53</ele>
        <time>2018-09-09T14:40:14Z</time>
      </trkpt>
      <trkpt lat="45.64634" lon="6.33444">
        <ele>325.53</ele>
        <time>2018-09-09T14:40:15Z</time>
      </trkpt>
      <trkpt lat="45.64605" lon="6.33436">
        <ele>325.53</ele>
        <time>2018-09-09T14:40:16Z</time>
      </trkpt>
      <trkpt lat="45.64577" lon="6.33429">
        <ele>325.53</ele>
        <time>2018-09-09T14:40:17Z</time>
      </trkpt>
      <trkpt lat="45.64548" lon="6.33424">
        <ele>324.83</ele>
        <time>2018-09-09T14:40:18Z</time>
      </trkpt>
      <trkpt lat="45.64519" lon="6.33419">
        <ele>324.62</ele>
        <time>2018-09-09T14:40:19Z</time>
      </trkpt>
      <trkpt lat="45.6449" lon="6.33414">
        <ele>323.86</ele>
        <time>2018-09-09T14:40:20Z</time>
      </trkpt>
      <trkpt lat="45.64461" lon="6.33408">
        <ele>323.63</ele>
        <time>2018-09-09T14:40:21Z</time>
      </trkpt>
      <trkpt lat="45.64432" lon="6.33403">
        <ele>323.56</ele>
        <time>2018-09-09T14:40:22Z</time>
      </trkpt>
      <trkpt lat="45.64403" lon="6.33398">
        <ele>323.54</ele>
        <time>2018-09-09T14:40:23Z</time>
      </trkpt>
      <trkpt lat="45.64374" lon="6.33394">
        <ele>322.83</ele>
        <time>2018-09-09T14:40:24Z</time>
      </trkpt>
      <trkpt lat="45.64345" lon="6.33389">
        <ele>322.62</ele>
        <time>2018-09-09T14:40:25Z</time>
      </trkpt>
      <trkpt lat="45.64315" lon="6.33384">
        <ele>321.86</ele>
        <time>2018-09-09T14:40:26Z</time>
      </trkpt>
      <trkpt lat="45.64285" lon="6.33379">
        <ele>322.33</ele>
        <time>2018-09-09T14:40:27Z</time>
      </trkpt>
      <trkpt lat="45.64254" lon="6.33374">
        <ele>321.77</ele>
        <time>2018-09-09T14:40:28Z</time>
      </trkpt>
      <trkpt lat="45.64222" lon="6.33369">
        <ele>321.6</ele>
        <time>2018-09-09T14:40:29Z</time>
      </trkpt>
      <trkpt lat="45.64189" lon="6.33364">
        <ele>321.55</ele>
        <time>2018-09-09T14:40:30Z</time>
      </trkpt>
      <trkpt lat="45.64156" lon="6.33359">
        <ele>320.84</ele>
        <time>2018-09-09T14:40:31Z</time>
      </trkpt>
      <trkpt lat="45.64122" lon="6.33353">
        <ele>320.62</ele>
        <time>2018-09-09T14:40:32Z</time>
      </trkpt>
      <trkpt lat="45.64088" lon="6.33347">
        <ele>319.86</ele>
        <time>2018-09-09T14:40:33Z</time>
      </trkpt>
      <trkpt lat="45.64054" lon="6.33341">
        <ele>318.93</ele>
        <time>2018-09-09T14:40:34Z</time>
      </trkpt>
      <trkpt lat="45.64019" lon="6.33335">
        <ele>317.95</ele>
        <time>2018-09-09T14:40:35Z</time>
      </trkpt>
      <trkpt lat="45.63985" lon="6.33329">
        <ele>316.96</ele>
        <time>2018-09-09T14:40:36Z</time>
      </trkpt>
      <trkpt lat="45.63951" lon="6.33324">
        <ele>316.66</ele>
        <time>2018-09-09T14:40:37Z</time>
      </trkpt>
      <trkpt lat="45.63917" lon="6.33319">
        <ele>316.57</ele>
        <time>2018-09-09T14:40:38Z</time>
      </trkpt>
      <trkpt lat="45.63883" lon="6.33313">
        <ele>315.84</ele>
        <time>2018-09-09T14:40:39Z</time>
      </trkpt>
      <trkpt lat="45.63849" lon="6.33307">
        <ele>315.62</ele>
        <time>2018-09-09T14:40:40Z</time>
      </trkpt>
      <trkpt lat="45.63815" lon="6.33301">
        <ele>314.86</ele>
        <time>2018-09-09T14:40:41Z</time>
      </trkpt>
      <trkpt lat="45.63782" lon="6.33295">
        <ele>314.63</ele>
        <time>2018-09-09T14:40:42Z</time>
      </trkpt>
      <trkpt lat="45.63748" lon="6.33289">
        <ele>314.56</ele>
        <time>2018-09-09T14:40:43Z</time>
      </trkpt>
      <trkpt lat="45.63715" lon="6.33283">
        <ele>314.54</ele>
        <time>2018-09-09T14:40:44Z</time>
      </trkpt>
      <trkpt lat="45.63681" lon="6.33277">
        <ele>313.83</ele>
        <time>2018-09-09T14:40:45Z</time>
      </trkpt>
      <trkpt lat="45.63648" lon="6.33269">
        <ele>313.62</ele>
        <time>2018-09-09T14:40:46Z</time>
      </trkpt>
      <trkpt lat="45.63615" lon="6.33262">
        <ele>313.56</ele>
        <time>2018-09-09T14:40:47Z</time>
      </trkpt>
      <trkpt lat="45.63581" lon="6.33253">
        <ele>313.54</ele>
        <time>2018-09-09T14:40:48Z</time>
      </trkpt>
      <trkpt lat="45.63549" lon="6.33243">
        <ele>313.53</ele>
        <time>2018-09-09T14:40:49Z</time>
      </trkpt>
      <trkpt lat="45.63516" lon="6.33232">
        <ele>313.53</ele>
        <time>2018-09-09T14:40:50Z</time>
      </trkpt>
      <trkpt lat="45.63484" lon="6.33221">
        <ele>313.53</ele>
        <time>2018-09-09T14:40:51Z</time>
      </trkpt>
      <trkpt lat="45.63452" lon="6.33209">
        <ele>313.53</ele>
        <time>2018-09-09T14:40:52Z</time>
      </trkpt>
      <trkpt lat="45.6342" lon="6.33196">
        <ele>313.53</ele>
        <time>2018-09-09T14:40:53Z</time>
      </trkpt>
      <trkpt lat="45.63388" lon="6.33182">
        <ele>313.53</ele>
        <time>2018-09-09T14:40:54Z</time>
      </trkpt>
      <trkpt lat="45.63356" lon="6.33168">
        <ele>313.53</ele>
        <time>2018-09-09T14:40:55Z</time>
      </trkpt>
      <trkpt lat="45.63325" lon="6.33152">
        <ele>313.53</ele>
        <time>2018-09-09T14:40:56Z</time>
      </trkpt>
      <trkpt lat="45.63294" lon="6.33135">
        <ele>313.53</ele>
        <time>2018-09-09T14:40:57Z</time>
      </trkpt>
      <trkpt lat="45.63263" lon="6.33118">
        <ele>313.53</ele>
        <time>2018-09-09T14:40:58Z</time>
      </trkpt>
      <trkpt lat="45.63232" lon="6.33099">
        <ele>313.53</ele>
        <time>2018-09-09T14:40:59Z</time>
      </trkpt>
      <trkpt lat="45.63202" lon="6.33079">
        <ele>312.83</ele>
        <time>2018-09-09T14:41:00Z</time>
      </trkpt>
      <trkpt lat="45.63172" lon="6.33058">
        <ele>312.62</ele>
        <time>2018-09-09T14:41:01Z</time>
      </trkpt>
      <trkpt lat="45.63141" lon="6.33035">
        <ele>312.56</ele>
        <time>2018-09-09T14:41:02Z</time>
      </trkpt>
      <trkpt lat="45.63112" lon="6.33012">
        <ele>312.54</ele>
        <time>2018-09-09T14:41:03Z</time>
      </trkpt>
      <trkpt lat="45.63083" lon="6.32987">
        <ele>312.53</ele>
        <time>2018-09-09T14:41:04Z</time>
      </trkpt>
      <trkpt lat="45.63054" lon="6.32962">
        <ele>312.53</ele>
        <time>2018-09-09T14:41:05Z</time>
      </trkpt>
      <trkpt lat="45.63026" lon="6.32936">
        <ele>312.53</ele>
        <time>2018-09-09T14:41:06Z</time>
      </trkpt>
      <trkpt lat="45.62998" lon="6.3291">
        <ele>312.53</ele>
        <time>2018-09-09T14:41:07Z</time>
      </trkpt>
      <trkpt lat="45.6297" lon="6.32884">
        <ele>312.53</ele>
        <time>2018-09-09T14:41:08Z</time>
      </trkpt>
      <trkpt lat="45.62943" lon="6.32857">
        <ele>312.53</ele>
        <time>2018-09-09T14:41:09Z</time>
      </trkpt>
      <trkpt lat="45.62917" lon="6.32829">
        <ele>312.53</ele>
        <time>2018-09-09T14:41:10Z</time>
      </trkpt>
      <trkpt lat="45.62891" lon="6.328">
        <ele>312.53</ele>
        <time>2018-09-09T14:41:11Z</time>
      </trkpt>
      <trkpt lat="45.62866" lon="6.32772">
        <ele>311.83</ele>
        <time>2018-09-09T14:41:12Z</time>
      </trkpt>
      <trkpt lat="45.62842" lon="6.32743">
        <ele>311.62</ele>
        <time>2018-09-09T14:41:13Z</time>
      </trkpt>
      <trkpt lat="45.62818" lon="6.32714">
        <ele>311.56</ele>
        <time>2018-09-09T14:41:14Z</time>
      </trkpt>
      <trkpt lat="45.62794" lon="6.32683">
        <ele>311.54</ele>
        <time>2018-09-09T14:41:15Z</time>
      </trkpt>
      <trkpt lat="45.62771" lon="6.32653">
        <ele>311.53</ele>
        <time>2018-09-09T14:41:16Z</time>
      </trkpt>
      <trkpt lat="45.62749" lon="6.32622">
        <ele>311.53</ele>
        <time>2018-09-09T14:41:17Z</time>
      </trkpt>
      <trkpt lat="45.62726" lon="6.32591">
        <ele>312.23</ele>
        <time>2018-09-09T14:41:18Z</time>
      </trkpt>
      <trkpt lat="45.62703" lon="6.3256">
        <ele>312.44</ele>
        <time>2018-09-09T14:41:19Z</time>
      </trkpt>
      <trkpt lat="45.62681" lon="6.32528">
        <ele>312.5</ele>
        <time>2018-09-09T14:41:20Z</time>
      </trkpt>
      <trkpt lat="45.62659" lon="6.32496">
        <ele>312.52</ele>
        <time>2018-09-09T14:41:21Z</time>
      </trkpt>
      <trkpt lat="45.62637" lon="6.32463">
        <ele>313.23</ele>
        <time>2018-09-09T14:41:22Z</time>
      </trkpt>
      <trkpt lat="45.62616" lon="6.3243">
        <ele>313.44</ele>
        <time>2018-09-09T14:41:23Z</time>
      </trkpt>
      <trkpt lat="45.62594" lon="6.32397">
        <ele>314.2</ele>
        <time>2018-09-09T14:41:24Z</time>
      </trkpt>
      <trkpt lat="45.62573" lon="6.32363">
        <ele>314.43</ele>
        <time>2018-09-09T14:41:25Z</time>
      </trkpt>
      <trkpt lat="45.62553" lon="6.32329">
        <ele>314.5</ele>
        <time>2018-09-09T14:41:26Z</time>
      </trkpt>
      <trkpt lat="45.62532" lon="6.32295">
        <ele>314.52</ele>
        <time>2018-09-09T14:41:27Z</time>
      </trkpt>
      <trkpt lat="45.62511" lon="6.3226">
        <ele>315.23</ele>
        <time>2018-09-09T14:41:28Z</time>
      </trkpt>
      <trkpt lat="45.62491" lon="6.32225">
        <ele>315.44</ele>
        <time>2018-09-09T14:41:29Z</time>
      </trkpt>
      <trkpt lat="45.6247" lon="6.32189">
        <ele>315.5</ele>
        <time>2018-09-09T14:41:30Z</time>
      </trkpt>
      <trkpt lat="45.62451" lon="6.32153">
        <ele>315.52</ele>
        <time>2018-09-09T14:41:31Z</time>
      </trkpt>
      <trkpt lat="45.62432" lon="6.32116">
        <ele>315.53</ele>
        <time>2018-09-09T14:41:32Z</time>
      </trkpt>
      <trkpt lat="45.62413" lon="6.3208">
        <ele>315.53</ele>
        <time>2018-09-09T14:41:33Z</time>
      </trkpt>
      <trkpt lat="45.62394" lon="6.32042">
        <ele>315.53</ele>
        <time>2018-09-09T14:41:34Z</time>
      </trkpt>
      <trkpt lat="45.62376" lon="6.32005">
        <ele>314.83</ele>
        <time>2018-09-09T14:41:35Z</time>
      </trkpt>
      <trkpt lat="45.62359" lon="6.31967">
        <ele>314.62</ele>
        <time>2018-09-09T14:41:36Z</time>
      </trkpt>
      <trkpt lat="45.62343" lon="6.31931">
        <ele>313.86</ele>
        <time>2018-09-09T14:41:37Z</time>
      </trkpt>
      <trkpt lat="45.62327" lon="6.31895">
        <ele>312.93</ele>
        <time>2018-09-09T14:41:38Z</time>
      </trkpt>
      <trkpt lat="45.62312" lon="6.31859">
        <ele>312.65</ele>
        <time>2018-09-09T14:41:39Z</time>
      </trkpt>
      <trkpt lat="45.62296" lon="6.31824">
        <ele>312.57</ele>
        <time>2018-09-09T14:41:40Z</time>
      </trkpt>
      <trkpt lat="45.6228" lon="6.31789">
        <ele>311.84</ele>
        <time>2018-09-09T14:41:41Z</time>
      </trkpt>
      <trkpt lat="45.62265" lon="6.31755">
        <ele>311.62</ele>
        <time>2018-09-09T14:41:42Z</time>
      </trkpt>
      <trkpt lat="45.6225" lon="6.31721">
        <ele>310.86</ele>
        <time>2018-09-09T14:41:43Z</time>
      </trkpt>
      <trkpt lat="45.62234" lon="6.31686">
        <ele>310.63</ele>
        <time>2018-09-09T14:41:44Z</time>
      </trkpt>
      <trkpt lat="45.62219" lon="6.31652">
        <ele>310.56</ele>
        <time>2018-09-09T14:41:45Z</time>
      </trkpt>
      <trkpt lat="45.62205" lon="6.31618">
        <ele>309.84</ele>
        <time>2018-09-09T14:41:46Z</time>
      </trkpt>
      <trkpt lat="45.62191" lon="6.31586">
        <ele>309.62</ele>
        <time>2018-09-09T14:41:47Z</time>
      </trkpt>
      <trkpt lat="45.62177" lon="6.31556">
        <ele>309.56</ele>
        <time>2018-09-09T14:41:48Z</time>
      </trkpt>
      <trkpt lat="45.62164" lon="6.31526">
        <ele>309.54</ele>
        <time>2018-09-09T14:41:49Z</time>
      </trkpt>
      <trkpt lat="45.62151" lon="6.31498">
        <ele>309.53</ele>
        <time>2018-09-09T14:41:50Z</time>
      </trkpt>
      <trkpt lat="45.62139" lon="6.31471">
        <ele>309.53</ele>
        <time>2018-09-09T14:41:51Z</time>
      </trkpt>
      <trkpt lat="45.62126" lon="6.31443">
        <ele>308.83</ele>
        <time>2018-09-09T14:41:52Z</time>
      </trkpt>
      <trkpt lat="45.62113" lon="6.31415">
        <ele>308.62</ele>
        <time>2018-09-09T14:41:53Z</time>
      </trkpt>
      <trkpt lat="45.621" lon="6.31388">
        <ele>308.56</ele>
        <time>2018-09-09T14:41:54Z</time>
      </trkpt>
      <trkpt lat="45.62088" lon="6.31363">
        <ele>308.54</ele>
        <time>2018-09-09T14:41:55Z</time>
      </trkpt>
      <trkpt lat="45.62076" lon="6.31338">
        <ele>308.53</ele>
        <time>2018-09-09T14:41:56Z</time>
      </trkpt>
      <trkpt lat="45.62065" lon="6.31315">
        <ele>308.53</ele>
        <time>2018-09-09T14:41:57Z</time>
      </trkpt>
      <trkpt lat="45.62055" lon="6.31293">
        <ele>309.23</ele>
        <time>2018-09-09T14:41:58Z</time>
      </trkpt>
      <trkpt lat="45.62037" lon="6.31252">
        <ele>309.5</ele>
        <time>2018-09-09T14:42:00Z</time>
      </trkpt>
      <trkpt lat="45.62022" lon="6.3122">
        <ele>308.62</ele>
        <time>2018-09-09T14:42:02Z</time>
      </trkpt>
      <trkpt lat="45.62012" lon="6.31197">
        <ele>308.54</ele>
        <time>2018-09-09T14:42:04Z</time>
      </trkpt>
      <trkpt lat="45.61997" lon="6.31169">
        <ele>305.71</ele>
        <time>2018-09-09T14:42:21Z</time>
      </trkpt>
      <trkpt lat="45.61981" lon="6.31124">
        <ele>306.95</ele>
        <time>2018-09-09T14:42:23Z</time>
      </trkpt>
      <trkpt lat="45.61971" lon="6.31099">
        <ele>305.96</ele>
        <time>2018-09-09T14:42:24Z</time>
      </trkpt>
      <trkpt lat="45.61959" lon="6.31071">
        <ele>305.66</ele>
        <time>2018-09-09T14:42:25Z</time>
      </trkpt>
      <trkpt lat="45.61944" lon="6.31041">
        <ele>306.27</ele>
        <time>2018-09-09T14:42:26Z</time>
      </trkpt>
      <trkpt lat="45.61928" lon="6.31007">
        <ele>305.75</ele>
        <time>2018-09-09T14:42:27Z</time>
      </trkpt>
      <trkpt lat="45.61912" lon="6.30966">
        <ele>305.6</ele>
        <time>2018-09-09T14:42:28Z</time>
      </trkpt>
      <trkpt lat="45.61893" lon="6.30924">
        <ele>305.55</ele>
        <time>2018-09-09T14:42:29Z</time>
      </trkpt>
      <trkpt lat="45.61872" lon="6.30879">
        <ele>305.54</ele>
        <time>2018-09-09T14:42:30Z</time>
      </trkpt>
      <trkpt lat="45.61851" lon="6.30831">
        <ele>305.53</ele>
        <time>2018-09-09T14:42:31Z</time>
      </trkpt>
      <trkpt lat="45.61829" lon="6.30783">
        <ele>305.53</ele>
        <time>2018-09-09T14:42:32Z</time>
      </trkpt>
      <trkpt lat="45.61808" lon="6.30737">
        <ele>305.53</ele>
        <time>2018-09-09T14:42:33Z</time>
      </trkpt>
      <trkpt lat="45.61787" lon="6.30692">
        <ele>305.53</ele>
        <time>2018-09-09T14:42:34Z</time>
      </trkpt>
      <trkpt lat="45.61766" lon="6.30646">
        <ele>305.53</ele>
        <time>2018-09-09T14:42:35Z</time>
      </trkpt>
      <trkpt lat="45.61745" lon="6.30601">
        <ele>305.53</ele>
        <time>2018-09-09T14:42:36Z</time>
      </trkpt>
      <trkpt lat="45.61724" lon="6.30555">
        <ele>305.53</ele>
        <time>2018-09-09T14:42:37Z</time>
      </trkpt>
      <trkpt lat="45.61703" lon="6.30508">
        <ele>305.53</ele>
        <time>2018-09-09T14:42:38Z</time>
      </trkpt>
      <trkpt lat="45.61682" lon="6.30461">
        <ele>305.53</ele>
        <time>2018-09-09T14:42:39Z</time>
      </trkpt>
      <trkpt lat="45.6166" lon="6.30415">
        <ele>305.53</ele>
        <time>2018-09-09T14:42:40Z</time>
      </trkpt>
      <trkpt lat="45.61639" lon="6.3037">
        <ele>305.53</ele>
        <time>2018-09-09T14:42:41Z</time>
      </trkpt>
      <trkpt lat="45.61617" lon="6.30327">
        <ele>305.53</ele>
        <time>2018-09-09T14:42:42Z</time>
      </trkpt>
      <trkpt lat="45.61596" lon="6.30285">
        <ele>304.83</ele>
        <time>2018-09-09T14:42:43Z</time>
      </trkpt>
      <trkpt lat="45.61576" lon="6.30244">
        <ele>304.62</ele>
        <time>2018-09-09T14:42:44Z</time>
      </trkpt>
      <trkpt lat="45.61556" lon="6.30205">
        <ele>304.56</ele>
        <time>2018-09-09T14:42:45Z</time>
      </trkpt>
      <trkpt lat="45.61536" lon="6.30167">
        <ele>304.54</ele>
        <time>2018-09-09T14:42:46Z</time>
      </trkpt>
      <trkpt lat="45.61517" lon="6.30128">
        <ele>304.53</ele>
        <time>2018-09-09T14:42:47Z</time>
      </trkpt>
      <trkpt lat="45.61497" lon="6.30089">
        <ele>304.53</ele>
        <time>2018-09-09T14:42:48Z</time>
      </trkpt>
      <trkpt lat="45.61478" lon="6.3005">
        <ele>304.53</ele>
        <time>2018-09-09T14:42:49Z</time>
      </trkpt>
      <trkpt lat="45.61458" lon="6.30012">
        <ele>305.23</ele>
        <time>2018-09-09T14:42:50Z</time>
      </trkpt>
      <trkpt lat="45.61439" lon="6.29973">
        <ele>305.44</ele>
        <time>2018-09-09T14:42:51Z</time>
      </trkpt>
      <trkpt lat="45.61419" lon="6.29935">
        <ele>305.5</ele>
        <time>2018-09-09T14:42:52Z</time>
      </trkpt>
      <trkpt lat="45.61399" lon="6.29895">
        <ele>305.52</ele>
        <time>2018-09-09T14:42:53Z</time>
      </trkpt>
      <trkpt lat="45.61379" lon="6.29856">
        <ele>305.53</ele>
        <time>2018-09-09T14:42:54Z</time>
      </trkpt>
      <trkpt lat="45.61359" lon="6.29816">
        <ele>305.53</ele>
        <time>2018-09-09T14:42:55Z</time>
      </trkpt>
      <trkpt lat="45.61339" lon="6.29776">
        <ele>305.53</ele>
        <time>2018-09-09T14:42:56Z</time>
      </trkpt>
      <trkpt lat="45.61318" lon="6.29736">
        <ele>305.53</ele>
        <time>2018-09-09T14:42:57Z</time>
      </trkpt>
      <trkpt lat="45.61298" lon="6.29695">
        <ele>305.53</ele>
        <time>2018-09-09T14:42:58Z</time>
      </trkpt>
      <trkpt lat="45.61278" lon="6.29654">
        <ele>305.53</ele>
        <time>2018-09-09T14:42:59Z</time>
      </trkpt>
      <trkpt lat="45.61258" lon="6.29614">
        <ele>305.53</ele>
        <time>2018-09-09T14:43:00Z</time>
      </trkpt>
      <trkpt lat="45.61238" lon="6.29574">
        <ele>305.53</ele>
        <time>2018-09-09T14:43:01Z</time>
      </trkpt>
      <trkpt lat="45.61219" lon="6.29534">
        <ele>305.53</ele>
        <time>2018-09-09T14:43:02Z</time>
      </trkpt>
      <trkpt lat="45.61199" lon="6.29493">
        <ele>305.53</ele>
        <time>2018-09-09T14:43:03Z</time>
      </trkpt>
      <trkpt lat="45.61179" lon="6.29453">
        <ele>305.53</ele>
        <time>2018-09-09T14:43:04Z</time>
      </trkpt>
      <trkpt lat="45.61159" lon="6.29413">
        <ele>305.53</ele>
        <time>2018-09-09T14:43:05Z</time>
      </trkpt>
      <trkpt lat="45.61139" lon="6.29373">
        <ele>304.83</ele>
        <time>2018-09-09T14:43:06Z</time>
      </trkpt>
      <trkpt lat="45.61118" lon="6.29333">
        <ele>305.32</ele>
        <time>2018-09-09T14:43:07Z</time>
      </trkpt>
      <trkpt lat="45.61098" lon="6.29294">
        <ele>304.77</ele>
        <time>2018-09-09T14:43:08Z</time>
      </trkpt>
      <trkpt lat="45.61079" lon="6.29254">
        <ele>304.6</ele>
        <time>2018-09-09T14:43:09Z</time>
      </trkpt>
      <trkpt lat="45.61059" lon="6.29214">
        <ele>304.55</ele>
        <time>2018-09-09T14:43:10Z</time>
      </trkpt>
      <trkpt lat="45.61039" lon="6.29174">
        <ele>304.54</ele>
        <time>2018-09-09T14:43:11Z</time>
      </trkpt>
      <trkpt lat="45.61019" lon="6.29134">
        <ele>304.53</ele>
        <time>2018-09-09T14:43:12Z</time>
      </trkpt>
      <trkpt lat="45.60999" lon="6.29094">
        <ele>304.53</ele>
        <time>2018-09-09T14:43:13Z</time>
      </trkpt>
      <trkpt lat="45.60979" lon="6.29055">
        <ele>304.53</ele>
        <time>2018-09-09T14:43:14Z</time>
      </trkpt>
      <trkpt lat="45.60959" lon="6.29015">
        <ele>304.53</ele>
        <time>2018-09-09T14:43:15Z</time>
      </trkpt>
      <trkpt lat="45.60939" lon="6.28975">
        <ele>304.53</ele>
        <time>2018-09-09T14:43:16Z</time>
      </trkpt>
      <trkpt lat="45.60918" lon="6.28936">
        <ele>303.83</ele>
        <time>2018-09-09T14:43:17Z</time>
      </trkpt>
      <trkpt lat="45.60898" lon="6.28897">
        <ele>303.62</ele>
        <time>2018-09-09T14:43:18Z</time>
      </trkpt>
      <trkpt lat="45.60877" lon="6.28858">
        <ele>303.56</ele>
        <time>2018-09-09T14:43:19Z</time>
      </trkpt>
      <trkpt lat="45.60857" lon="6.28821">
        <ele>303.54</ele>
        <time>2018-09-09T14:43:20Z</time>
      </trkpt>
      <trkpt lat="45.60835" lon="6.28783">
        <ele>303.53</ele>
        <time>2018-09-09T14:43:21Z</time>
      </trkpt>
      <trkpt lat="45.60813" lon="6.28745">
        <ele>302.83</ele>
        <time>2018-09-09T14:43:22Z</time>
      </trkpt>
      <trkpt lat="45.6079" lon="6.28709">
        <ele>302.62</ele>
        <time>2018-09-09T14:43:23Z</time>
      </trkpt>
      <trkpt lat="45.60767" lon="6.28673">
        <ele>302.56</ele>
        <time>2018-09-09T14:43:24Z</time>
      </trkpt>
      <trkpt lat="45.60744" lon="6.28638">
        <ele>302.54</ele>
        <time>2018-09-09T14:43:25Z</time>
      </trkpt>
      <trkpt lat="45.6072" lon="6.28604">
        <ele>302.53</ele>
        <time>2018-09-09T14:43:26Z</time>
      </trkpt>
      <trkpt lat="45.60696" lon="6.2857">
        <ele>302.53</ele>
        <time>2018-09-09T14:43:27Z</time>
      </trkpt>
      <trkpt lat="45.60671" lon="6.28537">
        <ele>302.53</ele>
        <time>2018-09-09T14:43:28Z</time>
      </trkpt>
      <trkpt lat="45.60646" lon="6.28503">
        <ele>302.53</ele>
        <time>2018-09-09T14:43:29Z</time>
      </trkpt>
      <trkpt lat="45.6062" lon="6.28471">
        <ele>302.53</ele>
        <time>2018-09-09T14:43:30Z</time>
      </trkpt>
      <trkpt lat="45.60594" lon="6.2844">
        <ele>302.53</ele>
        <time>2018-09-09T14:43:31Z</time>
      </trkpt>
      <trkpt lat="45.60567" lon="6.2841">
        <ele>301.83</ele>
        <time>2018-09-09T14:43:32Z</time>
      </trkpt>
      <trkpt lat="45.60541" lon="6.2838">
        <ele>301.62</ele>
        <time>2018-09-09T14:43:33Z</time>
      </trkpt>
      <trkpt lat="45.60513" lon="6.28351">
        <ele>301.56</ele>
        <time>2018-09-09T14:43:34Z</time>
      </trkpt>
      <trkpt lat="45.60486" lon="6.28323">
        <ele>301.54</ele>
        <time>2018-09-09T14:43:35Z</time>
      </trkpt>
      <trkpt lat="45.60458" lon="6.28296">
        <ele>301.53</ele>
        <time>2018-09-09T14:43:36Z</time>
      </trkpt>
      <trkpt lat="45.60429" lon="6.28269">
        <ele>301.53</ele>
        <time>2018-09-09T14:43:37Z</time>
      </trkpt>
      <trkpt lat="45.604" lon="6.28244">
        <ele>301.53</ele>
        <time>2018-09-09T14:43:38Z</time>
      </trkpt>
      <trkpt lat="45.60371" lon="6.28219">
        <ele>301.53</ele>
        <time>2018-09-09T14:43:39Z</time>
      </trkpt>
      <trkpt lat="45.60342" lon="6.28195">
        <ele>301.53</ele>
        <time>2018-09-09T14:43:40Z</time>
      </trkpt>
      <trkpt lat="45.60312" lon="6.28171">
        <ele>300.83</ele>
        <time>2018-09-09T14:43:41Z</time>
      </trkpt>
      <trkpt lat="45.60282" lon="6.28149">
        <ele>300.62</ele>
        <time>2018-09-09T14:43:42Z</time>
      </trkpt>
      <trkpt lat="45.60252" lon="6.28127">
        <ele>300.56</ele>
        <time>2018-09-09T14:43:43Z</time>
      </trkpt>
      <trkpt lat="45.60221" lon="6.28105">
        <ele>300.54</ele>
        <time>2018-09-09T14:43:44Z</time>
      </trkpt>
      <trkpt lat="45.6019" lon="6.28084">
        <ele>300.53</ele>
        <time>2018-09-09T14:43:45Z</time>
      </trkpt>
      <trkpt lat="45.6016" lon="6.28064">
        <ele>300.53</ele>
        <time>2018-09-09T14:43:46Z</time>
      </trkpt>
      <trkpt lat="45.60128" lon="6.28046">
        <ele>300.53</ele>
        <time>2018-09-09T14:43:47Z</time>
      </trkpt>
      <trkpt lat="45.60097" lon="6.28028">
        <ele>300.53</ele>
        <time>2018-09-09T14:43:48Z</time>
      </trkpt>
      <trkpt lat="45.60066" lon="6.28011">
        <ele>300.53</ele>
        <time>2018-09-09T14:43:49Z</time>
      </trkpt>
      <trkpt lat="45.60034" lon="6.27995">
        <ele>300.53</ele>
        <time>2018-09-09T14:43:50Z</time>
      </trkpt>
      <trkpt lat="45.60002" lon="6.2798">
        <ele>300.53</ele>
        <time>2018-09-09T14:43:51Z</time>
      </trkpt>
      <trkpt lat="45.5997" lon="6.27966">
        <ele>300.53</ele>
        <time>2018-09-09T14:43:52Z</time>
      </trkpt>
      <trkpt lat="45.59938" lon="6.27951">
        <ele>300.53</ele>
        <time>2018-09-09T14:43:53Z</time>
      </trkpt>
      <trkpt lat="45.59906" lon="6.27937">
        <ele>300.53</ele>
        <time>2018-09-09T14:43:54Z</time>
      </trkpt>
      <trkpt lat="45.59874" lon="6.27923">
        <ele>299.83</ele>
        <time>2018-09-09T14:43:55Z</time>
      </trkpt>
      <trkpt lat="45.59843" lon="6.2791">
        <ele>300.32</ele>
        <time>2018-09-09T14:43:56Z</time>
      </trkpt>
      <trkpt lat="45.59812" lon="6.27897">
        <ele>300.47</ele>
        <time>2018-09-09T14:43:57Z</time>
      </trkpt>
      <trkpt lat="45.5978" lon="6.27883">
        <ele>300.51</ele>
        <time>2018-09-09T14:43:58Z</time>
      </trkpt>
      <trkpt lat="45.59748" lon="6.27869">
        <ele>300.53</ele>
        <time>2018-09-09T14:43:59Z</time>
      </trkpt>
      <trkpt lat="45.59717" lon="6.27855">
        <ele>300.53</ele>
        <time>2018-09-09T14:44:00Z</time>
      </trkpt>
      <trkpt lat="45.59686" lon="6.27841">
        <ele>300.53</ele>
        <time>2018-09-09T14:44:01Z</time>
      </trkpt>
      <trkpt lat="45.59655" lon="6.27826">
        <ele>300.53</ele>
        <time>2018-09-09T14:44:02Z</time>
      </trkpt>
      <trkpt lat="45.59624" lon="6.27812">
        <ele>300.53</ele>
        <time>2018-09-09T14:44:03Z</time>
      </trkpt>
      <trkpt lat="45.59593" lon="6.27798">
        <ele>300.53</ele>
        <time>2018-09-09T14:44:04Z</time>
      </trkpt>
      <trkpt lat="45.59562" lon="6.27783">
        <ele>300.53</ele>
        <time>2018-09-09T14:44:05Z</time>
      </trkpt>
      <trkpt lat="45.59531" lon="6.27769">
        <ele>299.83</ele>
        <time>2018-09-09T14:44:06Z</time>
      </trkpt>
      <trkpt lat="45.59499" lon="6.27756">
        <ele>299.62</ele>
        <time>2018-09-09T14:44:07Z</time>
      </trkpt>
      <trkpt lat="45.59468" lon="6.27741">
        <ele>299.56</ele>
        <time>2018-09-09T14:44:08Z</time>
      </trkpt>
      <trkpt lat="45.59437" lon="6.27727">
        <ele>299.54</ele>
        <time>2018-09-09T14:44:09Z</time>
      </trkpt>
      <trkpt lat="45.59406" lon="6.27713">
        <ele>299.53</ele>
        <time>2018-09-09T14:44:10Z</time>
      </trkpt>
      <trkpt lat="45.59374" lon="6.27699">
        <ele>299.53</ele>
        <time>2018-09-09T14:44:11Z</time>
      </trkpt>
      <trkpt lat="45.59342" lon="6.27684">
        <ele>299.53</ele>
        <time>2018-09-09T14:44:12Z</time>
      </trkpt>
      <trkpt lat="45.59311" lon="6.2767">
        <ele>298.83</ele>
        <time>2018-09-09T14:44:13Z</time>
      </trkpt>
      <trkpt lat="45.59279" lon="6.27656">
        <ele>299.32</ele>
        <time>2018-09-09T14:44:14Z</time>
      </trkpt>
      <trkpt lat="45.59247" lon="6.27641">
        <ele>299.47</ele>
        <time>2018-09-09T14:44:15Z</time>
      </trkpt>
      <trkpt lat="45.59215" lon="6.27627">
        <ele>300.21</ele>
        <time>2018-09-09T14:44:16Z</time>
      </trkpt>
      <trkpt lat="45.59182" lon="6.27614">
        <ele>299.74</ele>
        <time>2018-09-09T14:44:17Z</time>
      </trkpt>
      <trkpt lat="45.59149" lon="6.276">
        <ele>299.59</ele>
        <time>2018-09-09T14:44:18Z</time>
      </trkpt>
      <trkpt lat="45.59117" lon="6.27586">
        <ele>299.55</ele>
        <time>2018-09-09T14:44:19Z</time>
      </trkpt>
      <trkpt lat="45.59085" lon="6.27572">
        <ele>298.84</ele>
        <time>2018-09-09T14:44:20Z</time>
      </trkpt>
      <trkpt lat="45.59053" lon="6.27558">
        <ele>298.62</ele>
        <time>2018-09-09T14:44:21Z</time>
      </trkpt>
      <trkpt lat="45.59022" lon="6.27543">
        <ele>298.56</ele>
        <time>2018-09-09T14:44:22Z</time>
      </trkpt>
      <trkpt lat="45.5899" lon="6.27527">
        <ele>297.84</ele>
        <time>2018-09-09T14:44:23Z</time>
      </trkpt>
      <trkpt lat="45.58958" lon="6.27512">
        <ele>297.62</ele>
        <time>2018-09-09T14:44:24Z</time>
      </trkpt>
      <trkpt lat="45.58926" lon="6.27496">
        <ele>297.56</ele>
        <time>2018-09-09T14:44:25Z</time>
      </trkpt>
      <trkpt lat="45.58894" lon="6.27481">
        <ele>298.24</ele>
        <time>2018-09-09T14:44:26Z</time>
      </trkpt>
      <trkpt lat="45.58862" lon="6.27466">
        <ele>298.44</ele>
        <time>2018-09-09T14:44:27Z</time>
      </trkpt>
      <trkpt lat="45.5883" lon="6.27452">
        <ele>298.5</ele>
        <time>2018-09-09T14:44:28Z</time>
      </trkpt>
      <trkpt lat="45.58798" lon="6.27438">
        <ele>297.82</ele>
        <time>2018-09-09T14:44:29Z</time>
      </trkpt>
      <trkpt lat="45.58766" lon="6.27423">
        <ele>297.62</ele>
        <time>2018-09-09T14:44:30Z</time>
      </trkpt>
      <trkpt lat="45.58734" lon="6.27408">
        <ele>297.56</ele>
        <time>2018-09-09T14:44:31Z</time>
      </trkpt>
      <trkpt lat="45.58702" lon="6.27393">
        <ele>297.54</ele>
        <time>2018-09-09T14:44:32Z</time>
      </trkpt>
      <trkpt lat="45.5867" lon="6.27379">
        <ele>298.23</ele>
        <time>2018-09-09T14:44:33Z</time>
      </trkpt>
      <trkpt lat="45.58638" lon="6.27364">
        <ele>298.44</ele>
        <time>2018-09-09T14:44:34Z</time>
      </trkpt>
      <trkpt lat="45.58606" lon="6.2735">
        <ele>298.5</ele>
        <time>2018-09-09T14:44:35Z</time>
      </trkpt>
      <trkpt lat="45.58574" lon="6.27335">
        <ele>299.22</ele>
        <time>2018-09-09T14:44:36Z</time>
      </trkpt>
      <trkpt lat="45.58542" lon="6.2732">
        <ele>299.44</ele>
        <time>2018-09-09T14:44:37Z</time>
      </trkpt>
      <trkpt lat="45.58511" lon="6.27304">
        <ele>300.2</ele>
        <time>2018-09-09T14:44:38Z</time>
      </trkpt>
      <trkpt lat="45.5848" lon="6.27286">
        <ele>300.43</ele>
        <time>2018-09-09T14:44:39Z</time>
      </trkpt>
      <trkpt lat="45.5845" lon="6.27267">
        <ele>300.5</ele>
        <time>2018-09-09T14:44:40Z</time>
      </trkpt>
      <trkpt lat="45.58421" lon="6.27246">
        <ele>301.22</ele>
        <time>2018-09-09T14:44:41Z</time>
      </trkpt>
      <trkpt lat="45.58393" lon="6.27223">
        <ele>301.44</ele>
        <time>2018-09-09T14:44:42Z</time>
      </trkpt>
      <trkpt lat="45.58365" lon="6.27199">
        <ele>301.5</ele>
        <time>2018-09-09T14:44:43Z</time>
      </trkpt>
      <trkpt lat="45.58338" lon="6.27175">
        <ele>301.52</ele>
        <time>2018-09-09T14:44:44Z</time>
      </trkpt>
      <trkpt lat="45.58311" lon="6.27149">
        <ele>301.53</ele>
        <time>2018-09-09T14:44:45Z</time>
      </trkpt>
      <trkpt lat="45.58285" lon="6.27121">
        <ele>301.53</ele>
        <time>2018-09-09T14:44:46Z</time>
      </trkpt>
      <trkpt lat="45.5826" lon="6.27092">
        <ele>301.53</ele>
        <time>2018-09-09T14:44:47Z</time>
      </trkpt>
      <trkpt lat="45.58235" lon="6.27062">
        <ele>301.53</ele>
        <time>2018-09-09T14:44:48Z</time>
      </trkpt>
      <trkpt lat="45.58211" lon="6.27031">
        <ele>301.53</ele>
        <time>2018-09-09T14:44:49Z</time>
      </trkpt>
      <trkpt lat="45.58188" lon="6.26999">
        <ele>301.53</ele>
        <time>2018-09-09T14:44:50Z</time>
      </trkpt>
      <trkpt lat="45.58166" lon="6.26965">
        <ele>301.53</ele>
        <time>2018-09-09T14:44:51Z</time>
      </trkpt>
      <trkpt lat="45.58145" lon="6.2693">
        <ele>301.53</ele>
        <time>2018-09-09T14:44:52Z</time>
      </trkpt>
      <trkpt lat="45.58124" lon="6.26894">
        <ele>300.83</ele>
        <time>2018-09-09T14:44:53Z</time>
      </trkpt>
      <trkpt lat="45.58105" lon="6.26857">
        <ele>300.62</ele>
        <time>2018-09-09T14:44:54Z</time>
      </trkpt>
      <trkpt lat="45.58087" lon="6.26818">
        <ele>300.56</ele>
        <time>2018-09-09T14:44:55Z</time>
      </trkpt>
      <trkpt lat="45.58069" lon="6.26778">
        <ele>299.84</ele>
        <time>2018-09-09T14:44:56Z</time>
      </trkpt>
      <trkpt lat="45.58052" lon="6.26737">
        <ele>298.92</ele>
        <time>2018-09-09T14:44:57Z</time>
      </trkpt>
      <trkpt lat="45.58036" lon="6.26696">
        <ele>298.65</ele>
        <time>2018-09-09T14:44:58Z</time>
      </trkpt>
      <trkpt lat="45.58021" lon="6.26653">
        <ele>298.57</ele>
        <time>2018-09-09T14:44:59Z</time>
      </trkpt>
      <trkpt lat="45.58008" lon="6.2661">
        <ele>297.84</ele>
        <time>2018-09-09T14:45:00Z</time>
      </trkpt>
      <trkpt lat="45.57996" lon="6.26565">
        <ele>297.62</ele>
        <time>2018-09-09T14:45:01Z</time>
      </trkpt>
      <trkpt lat="45.57984" lon="6.26521">
        <ele>297.56</ele>
        <time>2018-09-09T14:45:02Z</time>
      </trkpt>
      <trkpt lat="45.57972" lon="6.26476">
        <ele>297.54</ele>
        <time>2018-09-09T14:45:03Z</time>
      </trkpt>
      <trkpt lat="45.5796" lon="6.26431">
        <ele>297.53</ele>
        <time>2018-09-09T14:45:04Z</time>
      </trkpt>
      <trkpt lat="45.57949" lon="6.26386">
        <ele>297.53</ele>
        <time>2018-09-09T14:45:05Z</time>
      </trkpt>
      <trkpt lat="45.57937" lon="6.26341">
        <ele>296.83</ele>
        <time>2018-09-09T14:45:06Z</time>
      </trkpt>
      <trkpt lat="45.57925" lon="6.26295">
        <ele>296.62</ele>
        <time>2018-09-09T14:45:07Z</time>
      </trkpt>
      <trkpt lat="45.57914" lon="6.2625">
        <ele>297.26</ele>
        <time>2018-09-09T14:45:08Z</time>
      </trkpt>
      <trkpt lat="45.57902" lon="6.26205">
        <ele>297.45</ele>
        <time>2018-09-09T14:45:09Z</time>
      </trkpt>
      <trkpt lat="45.5789" lon="6.26159">
        <ele>296.81</ele>
        <time>2018-09-09T14:45:10Z</time>
      </trkpt>
      <trkpt lat="45.57878" lon="6.26114">
        <ele>296.61</ele>
        <time>2018-09-09T14:45:11Z</time>
      </trkpt>
      <trkpt lat="45.57866" lon="6.26069">
        <ele>296.56</ele>
        <time>2018-09-09T14:45:12Z</time>
      </trkpt>
      <trkpt lat="45.57854" lon="6.26024">
        <ele>296.54</ele>
        <time>2018-09-09T14:45:13Z</time>
      </trkpt>
      <trkpt lat="45.57842" lon="6.25978">
        <ele>296.53</ele>
        <time>2018-09-09T14:45:14Z</time>
      </trkpt>
      <trkpt lat="45.57831" lon="6.25933">
        <ele>296.53</ele>
        <time>2018-09-09T14:45:15Z</time>
      </trkpt>
      <trkpt lat="45.57819" lon="6.25887">
        <ele>296.53</ele>
        <time>2018-09-09T14:45:16Z</time>
      </trkpt>
      <trkpt lat="45.57808" lon="6.25841">
        <ele>296.53</ele>
        <time>2018-09-09T14:45:17Z</time>
      </trkpt>
      <trkpt lat="45.57796" lon="6.25796">
        <ele>296.53</ele>
        <time>2018-09-09T14:45:18Z</time>
      </trkpt>
      <trkpt lat="45.57784" lon="6.25751">
        <ele>297.23</ele>
        <time>2018-09-09T14:45:19Z</time>
      </trkpt>
      <trkpt lat="45.57772" lon="6.25706">
        <ele>296.74</ele>
        <time>2018-09-09T14:45:20Z</time>
      </trkpt>
      <trkpt lat="45.5776" lon="6.2566">
        <ele>296.59</ele>
        <time>2018-09-09T14:45:21Z</time>
      </trkpt>
      <trkpt lat="45.57749" lon="6.25615">
        <ele>296.55</ele>
        <time>2018-09-09T14:45:22Z</time>
      </trkpt>
      <trkpt lat="45.57737" lon="6.2557">
        <ele>296.54</ele>
        <time>2018-09-09T14:45:23Z</time>
      </trkpt>
      <trkpt lat="45.57725" lon="6.25524">
        <ele>296.53</ele>
        <time>2018-09-09T14:45:24Z</time>
      </trkpt>
      <trkpt lat="45.57714" lon="6.2548">
        <ele>296.53</ele>
        <time>2018-09-09T14:45:25Z</time>
      </trkpt>
      <trkpt lat="45.57703" lon="6.25435">
        <ele>297.23</ele>
        <time>2018-09-09T14:45:26Z</time>
      </trkpt>
      <trkpt lat="45.57691" lon="6.2539">
        <ele>296.74</ele>
        <time>2018-09-09T14:45:27Z</time>
      </trkpt>
      <trkpt lat="45.57679" lon="6.25345">
        <ele>296.59</ele>
        <time>2018-09-09T14:45:28Z</time>
      </trkpt>
      <trkpt lat="45.57668" lon="6.253">
        <ele>296.55</ele>
        <time>2018-09-09T14:45:29Z</time>
      </trkpt>
      <trkpt lat="45.57656" lon="6.25255">
        <ele>296.54</ele>
        <time>2018-09-09T14:45:30Z</time>
      </trkpt>
      <trkpt lat="45.57644" lon="6.2521">
        <ele>296.53</ele>
        <time>2018-09-09T14:45:31Z</time>
      </trkpt>
      <trkpt lat="45.57633" lon="6.25164">
        <ele>296.53</ele>
        <time>2018-09-09T14:45:32Z</time>
      </trkpt>
      <trkpt lat="45.57621" lon="6.25119">
        <ele>296.53</ele>
        <time>2018-09-09T14:45:33Z</time>
      </trkpt>
      <trkpt lat="45.5761" lon="6.25074">
        <ele>296.53</ele>
        <time>2018-09-09T14:45:34Z</time>
      </trkpt>
      <trkpt lat="45.57598" lon="6.25029">
        <ele>296.53</ele>
        <time>2018-09-09T14:45:35Z</time>
      </trkpt>
      <trkpt lat="45.57586" lon="6.24984">
        <ele>297.47</ele>
        <time>2018-09-09T14:45:36Z</time>
      </trkpt>
      <trkpt lat="45.57574" lon="6.24939">
        <ele>297.76</ele>
        <time>2018-09-09T14:45:37Z</time>
      </trkpt>
      <trkpt lat="45.57562" lon="6.24894">
        <ele>297.14</ele>
        <time>2018-09-09T14:45:38Z</time>
      </trkpt>
      <trkpt lat="45.5755" lon="6.24849">
        <ele>296.96</ele>
        <time>2018-09-09T14:45:39Z</time>
      </trkpt>
      <trkpt lat="45.57538" lon="6.24805">
        <ele>296.9</ele>
        <time>2018-09-09T14:45:40Z</time>
      </trkpt>
      <trkpt lat="45.57526" lon="6.24761">
        <ele>296.89</ele>
        <time>2018-09-09T14:45:41Z</time>
      </trkpt>
      <trkpt lat="45.57513" lon="6.24717">
        <ele>296.88</ele>
        <time>2018-09-09T14:45:42Z</time>
      </trkpt>
      <trkpt lat="45.575" lon="6.24674">
        <ele>296.88</ele>
        <time>2018-09-09T14:45:43Z</time>
      </trkpt>
      <trkpt lat="45.57488" lon="6.24632">
        <ele>296.88</ele>
        <time>2018-09-09T14:45:44Z</time>
      </trkpt>
      <trkpt lat="45.57475" lon="6.2459">
        <ele>296.88</ele>
        <time>2018-09-09T14:45:45Z</time>
      </trkpt>
      <trkpt lat="45.57463" lon="6.24547">
        <ele>296.88</ele>
        <time>2018-09-09T14:45:46Z</time>
      </trkpt>
      <trkpt lat="45.57451" lon="6.24505">
        <ele>296.88</ele>
        <time>2018-09-09T14:45:47Z</time>
      </trkpt>
      <trkpt lat="45.57439" lon="6.24463">
        <ele>296.88</ele>
        <time>2018-09-09T14:45:48Z</time>
      </trkpt>
      <trkpt lat="45.57427" lon="6.2442">
        <ele>296.18</ele>
        <time>2018-09-09T14:45:49Z</time>
      </trkpt>
      <trkpt lat="45.57414" lon="6.24379">
        <ele>295.97</ele>
        <time>2018-09-09T14:45:50Z</time>
      </trkpt>
      <trkpt lat="45.57403" lon="6.24338">
        <ele>296.61</ele>
        <time>2018-09-09T14:45:51Z</time>
      </trkpt>
      <trkpt lat="45.5739" lon="6.24296">
        <ele>296.8</ele>
        <time>2018-09-09T14:45:52Z</time>
      </trkpt>
      <trkpt lat="45.57378" lon="6.24254">
        <ele>296.85</ele>
        <time>2018-09-09T14:45:53Z</time>
      </trkpt>
      <trkpt lat="45.57366" lon="6.24212">
        <ele>296.87</ele>
        <time>2018-09-09T14:45:54Z</time>
      </trkpt>
      <trkpt lat="45.57354" lon="6.2417">
        <ele>296.88</ele>
        <time>2018-09-09T14:45:55Z</time>
      </trkpt>
      <trkpt lat="45.57342" lon="6.24127">
        <ele>296.18</ele>
        <time>2018-09-09T14:45:56Z</time>
      </trkpt>
      <trkpt lat="45.57329" lon="6.24084">
        <ele>295.97</ele>
        <time>2018-09-09T14:45:57Z</time>
      </trkpt>
      <trkpt lat="45.57317" lon="6.24039">
        <ele>295.9</ele>
        <time>2018-09-09T14:45:58Z</time>
      </trkpt>
      <trkpt lat="45.57303" lon="6.23995">
        <ele>295.89</ele>
        <time>2018-09-09T14:45:59Z</time>
      </trkpt>
      <trkpt lat="45.5729" lon="6.2395">
        <ele>295.88</ele>
        <time>2018-09-09T14:46:00Z</time>
      </trkpt>
      <trkpt lat="45.57276" lon="6.23906">
        <ele>295.88</ele>
        <time>2018-09-09T14:46:01Z</time>
      </trkpt>
      <trkpt lat="45.57263" lon="6.23863">
        <ele>295.88</ele>
        <time>2018-09-09T14:46:02Z</time>
      </trkpt>
      <trkpt lat="45.57251" lon="6.23819">
        <ele>296.58</ele>
        <time>2018-09-09T14:46:03Z</time>
      </trkpt>
      <trkpt lat="45.57238" lon="6.23776">
        <ele>296.79</ele>
        <time>2018-09-09T14:46:04Z</time>
      </trkpt>
      <trkpt lat="45.57224" lon="6.23734">
        <ele>296.85</ele>
        <time>2018-09-09T14:46:05Z</time>
      </trkpt>
      <trkpt lat="45.57211" lon="6.23692">
        <ele>296.87</ele>
        <time>2018-09-09T14:46:06Z</time>
      </trkpt>
      <trkpt lat="45.57197" lon="6.2365">
        <ele>296.88</ele>
        <time>2018-09-09T14:46:07Z</time>
      </trkpt>
      <trkpt lat="45.57184" lon="6.23608">
        <ele>296.88</ele>
        <time>2018-09-09T14:46:08Z</time>
      </trkpt>
      <trkpt lat="45.57169" lon="6.23566">
        <ele>296.88</ele>
        <time>2018-09-09T14:46:09Z</time>
      </trkpt>
      <trkpt lat="45.57156" lon="6.23524">
        <ele>296.18</ele>
        <time>2018-09-09T14:46:10Z</time>
      </trkpt>
      <trkpt lat="45.57142" lon="6.23482">
        <ele>295.97</ele>
        <time>2018-09-09T14:46:11Z</time>
      </trkpt>
      <trkpt lat="45.57128" lon="6.23441">
        <ele>295.9</ele>
        <time>2018-09-09T14:46:12Z</time>
      </trkpt>
      <trkpt lat="45.57114" lon="6.234">
        <ele>295.89</ele>
        <time>2018-09-09T14:46:13Z</time>
      </trkpt>
      <trkpt lat="45.57099" lon="6.23359">
        <ele>295.88</ele>
        <time>2018-09-09T14:46:14Z</time>
      </trkpt>
      <trkpt lat="45.57085" lon="6.23317">
        <ele>295.88</ele>
        <time>2018-09-09T14:46:15Z</time>
      </trkpt>
      <trkpt lat="45.57071" lon="6.23276">
        <ele>295.88</ele>
        <time>2018-09-09T14:46:16Z</time>
      </trkpt>
      <trkpt lat="45.57057" lon="6.23235">
        <ele>295.88</ele>
        <time>2018-09-09T14:46:17Z</time>
      </trkpt>
      <trkpt lat="45.57043" lon="6.23195">
        <ele>295.88</ele>
        <time>2018-09-09T14:46:18Z</time>
      </trkpt>
      <trkpt lat="45.5703" lon="6.23154">
        <ele>295.88</ele>
        <time>2018-09-09T14:46:19Z</time>
      </trkpt>
      <trkpt lat="45.57016" lon="6.23114">
        <ele>295.88</ele>
        <time>2018-09-09T14:46:20Z</time>
      </trkpt>
      <trkpt lat="45.57003" lon="6.23075">
        <ele>295.88</ele>
        <time>2018-09-09T14:46:21Z</time>
      </trkpt>
      <trkpt lat="45.56989" lon="6.23037">
        <ele>295.88</ele>
        <time>2018-09-09T14:46:22Z</time>
      </trkpt>
      <trkpt lat="45.56976" lon="6.22998">
        <ele>295.88</ele>
        <time>2018-09-09T14:46:23Z</time>
      </trkpt>
      <trkpt lat="45.56963" lon="6.2296">
        <ele>295.88</ele>
        <time>2018-09-09T14:46:24Z</time>
      </trkpt>
      <trkpt lat="45.56951" lon="6.22922">
        <ele>295.88</ele>
        <time>2018-09-09T14:46:25Z</time>
      </trkpt>
      <trkpt lat="45.56938" lon="6.22885">
        <ele>295.88</ele>
        <time>2018-09-09T14:46:26Z</time>
      </trkpt>
      <trkpt lat="45.56925" lon="6.22848">
        <ele>295.88</ele>
        <time>2018-09-09T14:46:27Z</time>
      </trkpt>
      <trkpt lat="45.56913" lon="6.22813">
        <ele>295.88</ele>
        <time>2018-09-09T14:46:28Z</time>
      </trkpt>
      <trkpt lat="45.56901" lon="6.22778">
        <ele>295.18</ele>
        <time>2018-09-09T14:46:29Z</time>
      </trkpt>
      <trkpt lat="45.56889" lon="6.22743">
        <ele>294.97</ele>
        <time>2018-09-09T14:46:30Z</time>
      </trkpt>
      <trkpt lat="45.56877" lon="6.2271">
        <ele>294.9</ele>
        <time>2018-09-09T14:46:31Z</time>
      </trkpt>
      <trkpt lat="45.56866" lon="6.22676">
        <ele>294.89</ele>
        <time>2018-09-09T14:46:32Z</time>
      </trkpt>
      <trkpt lat="45.56855" lon="6.22643">
        <ele>294.88</ele>
        <time>2018-09-09T14:46:33Z</time>
      </trkpt>
      <trkpt lat="45.56844" lon="6.2261">
        <ele>294.88</ele>
        <time>2018-09-09T14:46:34Z</time>
      </trkpt>
      <trkpt lat="45.56833" lon="6.22578">
        <ele>294.88</ele>
        <time>2018-09-09T14:46:35Z</time>
      </trkpt>
      <trkpt lat="45.56822" lon="6.22545">
        <ele>294.88</ele>
        <time>2018-09-09T14:46:36Z</time>
      </trkpt>
      <trkpt lat="45.56811" lon="6.22513">
        <ele>294.88</ele>
        <time>2018-09-09T14:46:37Z</time>
      </trkpt>
      <trkpt lat="45.568" lon="6.22481">
        <ele>295.58</ele>
        <time>2018-09-09T14:46:38Z</time>
      </trkpt>
      <trkpt lat="45.5679" lon="6.22448">
        <ele>295.09</ele>
        <time>2018-09-09T14:46:39Z</time>
      </trkpt>
      <trkpt lat="45.56779" lon="6.22417">
        <ele>294.94</ele>
        <time>2018-09-09T14:46:40Z</time>
      </trkpt>
      <trkpt lat="45.56768" lon="6.22385">
        <ele>294.9</ele>
        <time>2018-09-09T14:46:41Z</time>
      </trkpt>
      <trkpt lat="45.56757" lon="6.22353">
        <ele>294.88</ele>
        <time>2018-09-09T14:46:42Z</time>
      </trkpt>
      <trkpt lat="45.56746" lon="6.22321">
        <ele>294.88</ele>
        <time>2018-09-09T14:46:43Z</time>
      </trkpt>
      <trkpt lat="45.56735" lon="6.2229">
        <ele>294.18</ele>
        <time>2018-09-09T14:46:44Z</time>
      </trkpt>
      <trkpt lat="45.56724" lon="6.22259">
        <ele>293.97</ele>
        <time>2018-09-09T14:46:45Z</time>
      </trkpt>
      <trkpt lat="45.56714" lon="6.22229">
        <ele>293.91</ele>
        <time>2018-09-09T14:46:46Z</time>
      </trkpt>
      <trkpt lat="45.56704" lon="6.22199">
        <ele>293.89</ele>
        <time>2018-09-09T14:46:47Z</time>
      </trkpt>
      <trkpt lat="45.56694" lon="6.22169">
        <ele>293.88</ele>
        <time>2018-09-09T14:46:48Z</time>
      </trkpt>
      <trkpt lat="45.56685" lon="6.2214">
        <ele>293.18</ele>
        <time>2018-09-09T14:46:49Z</time>
      </trkpt>
      <trkpt lat="45.56674" lon="6.2211">
        <ele>292.97</ele>
        <time>2018-09-09T14:46:50Z</time>
      </trkpt>
      <trkpt lat="45.56666" lon="6.2208">
        <ele>293.61</ele>
        <time>2018-09-09T14:46:51Z</time>
      </trkpt>
      <trkpt lat="45.56657" lon="6.2205">
        <ele>293.8</ele>
        <time>2018-09-09T14:46:52Z</time>
      </trkpt>
      <trkpt lat="45.56648" lon="6.22019">
        <ele>293.85</ele>
        <time>2018-09-09T14:46:53Z</time>
      </trkpt>
      <trkpt lat="45.56639" lon="6.21989">
        <ele>293.87</ele>
        <time>2018-09-09T14:46:54Z</time>
      </trkpt>
      <trkpt lat="45.56629" lon="6.21959">
        <ele>293.88</ele>
        <time>2018-09-09T14:46:55Z</time>
      </trkpt>
      <trkpt lat="45.5662" lon="6.2193">
        <ele>293.88</ele>
        <time>2018-09-09T14:46:56Z</time>
      </trkpt>
      <trkpt lat="45.56611" lon="6.21901">
        <ele>293.18</ele>
        <time>2018-09-09T14:46:57Z</time>
      </trkpt>
      <trkpt lat="45.56603" lon="6.21872">
        <ele>292.97</ele>
        <time>2018-09-09T14:46:58Z</time>
      </trkpt>
      <trkpt lat="45.56594" lon="6.21844">
        <ele>292.9</ele>
        <time>2018-09-09T14:46:59Z</time>
      </trkpt>
      <trkpt lat="45.56587" lon="6.21816">
        <ele>292.89</ele>
        <time>2018-09-09T14:47:00Z</time>
      </trkpt>
      <trkpt lat="45.56579" lon="6.21789">
        <ele>292.88</ele>
        <time>2018-09-09T14:47:01Z</time>
      </trkpt>
      <trkpt lat="45.56572" lon="6.21765">
        <ele>292.18</ele>
        <time>2018-09-09T14:47:02Z</time>
      </trkpt>
      <trkpt lat="45.56559" lon="6.21717">
        <ele>292.61</ele>
        <time>2018-09-09T14:47:04Z</time>
      </trkpt>
      <trkpt lat="45.56547" lon="6.2167">
        <ele>292.15</ele>
        <time>2018-09-09T14:47:06Z</time>
      </trkpt>
      <trkpt lat="45.56535" lon="6.21623">
        <ele>291.9</ele>
        <time>2018-09-09T14:47:08Z</time>
      </trkpt>
      <trkpt lat="45.56524" lon="6.21576">
        <ele>291.88</ele>
        <time>2018-09-09T14:47:10Z</time>
      </trkpt>
      <trkpt lat="45.56513" lon="6.21529">
        <ele>291.88</ele>
        <time>2018-09-09T14:47:12Z</time>
      </trkpt>
      <trkpt lat="45.56502" lon="6.21482">
        <ele>291.88</ele>
        <time>2018-09-09T14:47:14Z</time>
      </trkpt>
      <trkpt lat="45.56491" lon="6.21437">
        <ele>291.88</ele>
        <time>2018-09-09T14:47:16Z</time>
      </trkpt>
      <trkpt lat="45.56481" lon="6.21393">
        <ele>291.88</ele>
        <time>2018-09-09T14:47:18Z</time>
      </trkpt>
      <trkpt lat="45.56472" lon="6.21349">
        <ele>292.58</ele>
        <time>2018-09-09T14:47:20Z</time>
      </trkpt>
      <trkpt lat="45.56463" lon="6.21305">
        <ele>292.85</ele>
        <time>2018-09-09T14:47:22Z</time>
      </trkpt>
      <trkpt lat="45.56454" lon="6.21262">
        <ele>292.88</ele>
        <time>2018-09-09T14:47:24Z</time>
      </trkpt>
      <trkpt lat="45.56446" lon="6.21219">
        <ele>292.88</ele>
        <time>2018-09-09T14:47:26Z</time>
      </trkpt>
      <trkpt lat="45.56438" lon="6.21176">
        <ele>292.18</ele>
        <time>2018-09-09T14:47:28Z</time>
      </trkpt>
      <trkpt lat="45.5643" lon="6.21134">
        <ele>292.82</ele>
        <time>2018-09-09T14:47:30Z</time>
      </trkpt>
      <trkpt lat="45.56422" lon="6.21091">
        <ele>292.87</ele>
        <time>2018-09-09T14:47:32Z</time>
      </trkpt>
      <trkpt lat="45.56414" lon="6.21049">
        <ele>293.58</ele>
        <time>2018-09-09T14:47:34Z</time>
      </trkpt>
      <trkpt lat="45.56406" lon="6.21006">
        <ele>293.85</ele>
        <time>2018-09-09T14:47:36Z</time>
      </trkpt>
      <trkpt lat="45.56398" lon="6.20965">
        <ele>294.79</ele>
        <time>2018-09-09T14:47:38Z</time>
      </trkpt>
      <trkpt lat="45.56391" lon="6.20922">
        <ele>294.87</ele>
        <time>2018-09-09T14:47:40Z</time>
      </trkpt>
      <trkpt lat="45.56383" lon="6.2088">
        <ele>295.79</ele>
        <time>2018-09-09T14:47:42Z</time>
      </trkpt>
      <trkpt lat="45.56376" lon="6.20838">
        <ele>295.87</ele>
        <time>2018-09-09T14:47:44Z</time>
      </trkpt>
      <trkpt lat="45.56367" lon="6.20797">
        <ele>296.58</ele>
        <time>2018-09-09T14:47:46Z</time>
      </trkpt>
      <trkpt lat="45.56358" lon="6.20756">
        <ele>296.85</ele>
        <time>2018-09-09T14:47:48Z</time>
      </trkpt>
      <trkpt lat="45.56349" lon="6.20716">
        <ele>297.79</ele>
        <time>2018-09-09T14:47:50Z</time>
      </trkpt>
      <trkpt lat="45.56339" lon="6.20676">
        <ele>298.57</ele>
        <time>2018-09-09T14:47:52Z</time>
      </trkpt>
      <trkpt lat="45.56329" lon="6.20635">
        <ele>298.85</ele>
        <time>2018-09-09T14:47:54Z</time>
      </trkpt>
      <trkpt lat="45.56318" lon="6.20595">
        <ele>299.58</ele>
        <time>2018-09-09T14:47:56Z</time>
      </trkpt>
      <trkpt lat="45.56306" lon="6.20554">
        <ele>299.85</ele>
        <time>2018-09-09T14:47:58Z</time>
      </trkpt>
      <trkpt lat="45.56294" lon="6.2051">
        <ele>300.58</ele>
        <time>2018-09-09T14:48:00Z</time>
      </trkpt>
      <trkpt lat="45.56281" lon="6.20465">
        <ele>299.24</ele>
        <time>2018-09-09T14:48:02Z</time>
      </trkpt>
      <trkpt lat="45.56273" lon="6.20442">
        <ele>298.99</ele>
        <time>2018-09-09T14:48:03Z</time>
      </trkpt>
      <trkpt lat="45.56265" lon="6.20418">
        <ele>298.91</ele>
        <time>2018-09-09T14:48:04Z</time>
      </trkpt>
      <trkpt lat="45.56256" lon="6.20394">
        <ele>298.89</ele>
        <time>2018-09-09T14:48:05Z</time>
      </trkpt>
      <trkpt lat="45.56247" lon="6.20369">
        <ele>298.88</ele>
        <time>2018-09-09T14:48:06Z</time>
      </trkpt>
      <trkpt lat="45.56237" lon="6.20344">
        <ele>299.58</ele>
        <time>2018-09-09T14:48:07Z</time>
      </trkpt>
      <trkpt lat="45.56227" lon="6.20317">
        <ele>299.09</ele>
        <time>2018-09-09T14:48:08Z</time>
      </trkpt>
      <trkpt lat="45.56217" lon="6.20292">
        <ele>298.94</ele>
        <time>2018-09-09T14:48:09Z</time>
      </trkpt>
      <trkpt lat="45.56207" lon="6.20266">
        <ele>298.9</ele>
        <time>2018-09-09T14:48:10Z</time>
      </trkpt>
      <trkpt lat="45.56197" lon="6.2024">
        <ele>298.88</ele>
        <time>2018-09-09T14:48:11Z</time>
      </trkpt>
      <trkpt lat="45.56186" lon="6.20214">
        <ele>298.88</ele>
        <time>2018-09-09T14:48:12Z</time>
      </trkpt>
      <trkpt lat="45.56175" lon="6.20189">
        <ele>298.88</ele>
        <time>2018-09-09T14:48:13Z</time>
      </trkpt>
      <trkpt lat="45.56163" lon="6.20163">
        <ele>298.88</ele>
        <time>2018-09-09T14:48:14Z</time>
      </trkpt>
      <trkpt lat="45.56151" lon="6.20138">
        <ele>298.88</ele>
        <time>2018-09-09T14:48:15Z</time>
      </trkpt>
      <trkpt lat="45.56138" lon="6.20113">
        <ele>298.88</ele>
        <time>2018-09-09T14:48:16Z</time>
      </trkpt>
      <trkpt lat="45.56126" lon="6.20088">
        <ele>298.88</ele>
        <time>2018-09-09T14:48:17Z</time>
      </trkpt>
      <trkpt lat="45.56114" lon="6.20064">
        <ele>298.88</ele>
        <time>2018-09-09T14:48:18Z</time>
      </trkpt>
      <trkpt lat="45.56101" lon="6.2004">
        <ele>298.88</ele>
        <time>2018-09-09T14:48:19Z</time>
      </trkpt>
      <trkpt lat="45.56089" lon="6.20016">
        <ele>298.88</ele>
        <time>2018-09-09T14:48:20Z</time>
      </trkpt>
      <trkpt lat="45.56077" lon="6.19991">
        <ele>298.88</ele>
        <time>2018-09-09T14:48:21Z</time>
      </trkpt>
      <trkpt lat="45.56065" lon="6.19968">
        <ele>298.88</ele>
        <time>2018-09-09T14:48:22Z</time>
      </trkpt>
      <trkpt lat="45.56053" lon="6.19944">
        <ele>298.88</ele>
        <time>2018-09-09T14:48:23Z</time>
      </trkpt>
      <trkpt lat="45.5604" lon="6.19921">
        <ele>298.18</ele>
        <time>2018-09-09T14:48:24Z</time>
      </trkpt>
      <trkpt lat="45.56029" lon="6.19897">
        <ele>297.97</ele>
        <time>2018-09-09T14:48:25Z</time>
      </trkpt>
      <trkpt lat="45.56016" lon="6.19873">
        <ele>297.9</ele>
        <time>2018-09-09T14:48:26Z</time>
      </trkpt>
      <trkpt lat="45.56004" lon="6.19847">
        <ele>297.89</ele>
        <time>2018-09-09T14:48:27Z</time>
      </trkpt>
      <trkpt lat="45.55991" lon="6.19819">
        <ele>297.88</ele>
        <time>2018-09-09T14:48:28Z</time>
      </trkpt>
      <trkpt lat="45.55976" lon="6.19788">
        <ele>297.88</ele>
        <time>2018-09-09T14:48:29Z</time>
      </trkpt>
      <trkpt lat="45.5596" lon="6.19753">
        <ele>297.18</ele>
        <time>2018-09-09T14:48:30Z</time>
      </trkpt>
      <trkpt lat="45.55943" lon="6.19716">
        <ele>297.67</ele>
        <time>2018-09-09T14:48:31Z</time>
      </trkpt>
      <trkpt lat="45.55926" lon="6.19676">
        <ele>297.12</ele>
        <time>2018-09-09T14:48:32Z</time>
      </trkpt>
      <trkpt lat="45.55909" lon="6.19634">
        <ele>296.25</ele>
        <time>2018-09-09T14:48:33Z</time>
      </trkpt>
      <trkpt lat="45.55894" lon="6.1959">
        <ele>295.99</ele>
        <time>2018-09-09T14:48:34Z</time>
      </trkpt>
      <trkpt lat="45.55878" lon="6.19544">
        <ele>295.21</ele>
        <time>2018-09-09T14:48:35Z</time>
      </trkpt>
      <trkpt lat="45.55863" lon="6.19496">
        <ele>294.98</ele>
        <time>2018-09-09T14:48:36Z</time>
      </trkpt>
      <trkpt lat="45.55848" lon="6.19447">
        <ele>294.21</ele>
        <time>2018-09-09T14:48:37Z</time>
      </trkpt>
      <trkpt lat="45.55834" lon="6.19397">
        <ele>293.28</ele>
        <time>2018-09-09T14:48:38Z</time>
      </trkpt>
      <trkpt lat="45.55822" lon="6.19347">
        <ele>292.3</ele>
        <time>2018-09-09T14:48:39Z</time>
      </trkpt>
      <trkpt lat="45.55812" lon="6.19297">
        <ele>292</ele>
        <time>2018-09-09T14:48:40Z</time>
      </trkpt>
      <trkpt lat="45.55802" lon="6.19247">
        <ele>291.22</ele>
        <time>2018-09-09T14:48:41Z</time>
      </trkpt>
      <trkpt lat="45.55793" lon="6.19198">
        <ele>290.98</ele>
        <time>2018-09-09T14:48:42Z</time>
      </trkpt>
      <trkpt lat="45.55785" lon="6.19148">
        <ele>290.21</ele>
        <time>2018-09-09T14:48:43Z</time>
      </trkpt>
      <trkpt lat="45.55778" lon="6.19099">
        <ele>289.28</ele>
        <time>2018-09-09T14:48:44Z</time>
      </trkpt>
      <trkpt lat="45.55772" lon="6.1905">
        <ele>288.3</ele>
        <time>2018-09-09T14:48:45Z</time>
      </trkpt>
      <trkpt lat="45.55766" lon="6.19001">
        <ele>288</ele>
        <time>2018-09-09T14:48:46Z</time>
      </trkpt>
      <trkpt lat="45.55762" lon="6.18953">
        <ele>287.22</ele>
        <time>2018-09-09T14:48:47Z</time>
      </trkpt>
      <trkpt lat="45.55757" lon="6.18904">
        <ele>286.98</ele>
        <time>2018-09-09T14:48:48Z</time>
      </trkpt>
      <trkpt lat="45.55752" lon="6.18857">
        <ele>286.21</ele>
        <time>2018-09-09T14:48:49Z</time>
      </trkpt>
      <trkpt lat="45.55747" lon="6.18809">
        <ele>286.68</ele>
        <time>2018-09-09T14:48:50Z</time>
      </trkpt>
      <trkpt lat="45.55742" lon="6.18762">
        <ele>286.82</ele>
        <time>2018-09-09T14:48:51Z</time>
      </trkpt>
      <trkpt lat="45.55736" lon="6.18715">
        <ele>286.86</ele>
        <time>2018-09-09T14:48:52Z</time>
      </trkpt>
      <trkpt lat="45.5573" lon="6.18668">
        <ele>286.87</ele>
        <time>2018-09-09T14:48:53Z</time>
      </trkpt>
      <trkpt lat="45.55723" lon="6.18622">
        <ele>286.88</ele>
        <time>2018-09-09T14:48:54Z</time>
      </trkpt>
      <trkpt lat="45.55716" lon="6.18576">
        <ele>286.88</ele>
        <time>2018-09-09T14:48:55Z</time>
      </trkpt>
      <trkpt lat="45.55708" lon="6.1853">
        <ele>286.88</ele>
        <time>2018-09-09T14:48:56Z</time>
      </trkpt>
      <trkpt lat="45.55699" lon="6.18484">
        <ele>286.88</ele>
        <time>2018-09-09T14:48:57Z</time>
      </trkpt>
      <trkpt lat="45.5569" lon="6.18438">
        <ele>286.88</ele>
        <time>2018-09-09T14:48:58Z</time>
      </trkpt>
      <trkpt lat="45.5568" lon="6.18392">
        <ele>286.88</ele>
        <time>2018-09-09T14:48:59Z</time>
      </trkpt>
      <trkpt lat="45.55669" lon="6.18347">
        <ele>286.88</ele>
        <time>2018-09-09T14:49:00Z</time>
      </trkpt>
      <trkpt lat="45.55658" lon="6.18301">
        <ele>286.88</ele>
        <time>2018-09-09T14:49:01Z</time>
      </trkpt>
      <trkpt lat="45.55646" lon="6.18255">
        <ele>286.88</ele>
        <time>2018-09-09T14:49:02Z</time>
      </trkpt>
      <trkpt lat="45.55633" lon="6.1821">
        <ele>286.88</ele>
        <time>2018-09-09T14:49:03Z</time>
      </trkpt>
      <trkpt lat="45.55619" lon="6.18165">
        <ele>286.18</ele>
        <time>2018-09-09T14:49:04Z</time>
      </trkpt>
      <trkpt lat="45.55605" lon="6.1812">
        <ele>285.97</ele>
        <time>2018-09-09T14:49:05Z</time>
      </trkpt>
      <trkpt lat="45.55591" lon="6.18075">
        <ele>285.9</ele>
        <time>2018-09-09T14:49:06Z</time>
      </trkpt>
      <trkpt lat="45.55576" lon="6.18031">
        <ele>285.89</ele>
        <time>2018-09-09T14:49:07Z</time>
      </trkpt>
      <trkpt lat="45.5556" lon="6.17987">
        <ele>285.88</ele>
        <time>2018-09-09T14:49:08Z</time>
      </trkpt>
      <trkpt lat="45.55544" lon="6.17945">
        <ele>285.88</ele>
        <time>2018-09-09T14:49:09Z</time>
      </trkpt>
      <trkpt lat="45.55528" lon="6.17901">
        <ele>285.88</ele>
        <time>2018-09-09T14:49:10Z</time>
      </trkpt>
      <trkpt lat="45.55513" lon="6.17858">
        <ele>285.18</ele>
        <time>2018-09-09T14:49:11Z</time>
      </trkpt>
      <trkpt lat="45.55498" lon="6.17813">
        <ele>284.97</ele>
        <time>2018-09-09T14:49:12Z</time>
      </trkpt>
      <trkpt lat="45.55483" lon="6.17768">
        <ele>284.9</ele>
        <time>2018-09-09T14:49:13Z</time>
      </trkpt>
      <trkpt lat="45.55468" lon="6.17724">
        <ele>285.59</ele>
        <time>2018-09-09T14:49:14Z</time>
      </trkpt>
      <trkpt lat="45.55455" lon="6.17679">
        <ele>285.79</ele>
        <time>2018-09-09T14:49:15Z</time>
      </trkpt>
      <trkpt lat="45.55442" lon="6.17634">
        <ele>285.15</ele>
        <time>2018-09-09T14:49:16Z</time>
      </trkpt>
      <trkpt lat="45.55429" lon="6.17589">
        <ele>284.96</ele>
        <time>2018-09-09T14:49:17Z</time>
      </trkpt>
      <trkpt lat="45.55418" lon="6.17544">
        <ele>284.9</ele>
        <time>2018-09-09T14:49:18Z</time>
      </trkpt>
      <trkpt lat="45.55408" lon="6.17498">
        <ele>284.19</ele>
        <time>2018-09-09T14:49:19Z</time>
      </trkpt>
      <trkpt lat="45.55398" lon="6.17453">
        <ele>284.67</ele>
        <time>2018-09-09T14:49:20Z</time>
      </trkpt>
      <trkpt lat="45.55388" lon="6.17407">
        <ele>284.82</ele>
        <time>2018-09-09T14:49:21Z</time>
      </trkpt>
      <trkpt lat="45.55379" lon="6.17361">
        <ele>284.86</ele>
        <time>2018-09-09T14:49:22Z</time>
      </trkpt>
      <trkpt lat="45.55371" lon="6.17315">
        <ele>284.87</ele>
        <time>2018-09-09T14:49:23Z</time>
      </trkpt>
      <trkpt lat="45.55363" lon="6.17269">
        <ele>284.88</ele>
        <time>2018-09-09T14:49:24Z</time>
      </trkpt>
      <trkpt lat="45.55356" lon="6.17222">
        <ele>284.88</ele>
        <time>2018-09-09T14:49:25Z</time>
      </trkpt>
      <trkpt lat="45.55349" lon="6.17176">
        <ele>284.88</ele>
        <time>2018-09-09T14:49:26Z</time>
      </trkpt>
      <trkpt lat="45.55342" lon="6.1713">
        <ele>285.58</ele>
        <time>2018-09-09T14:49:27Z</time>
      </trkpt>
      <trkpt lat="45.55335" lon="6.17085">
        <ele>285.79</ele>
        <time>2018-09-09T14:49:28Z</time>
      </trkpt>
      <trkpt lat="45.55327" lon="6.17039">
        <ele>286.55</ele>
        <time>2018-09-09T14:49:29Z</time>
      </trkpt>
      <trkpt lat="45.55319" lon="6.16994">
        <ele>287.48</ele>
        <time>2018-09-09T14:49:30Z</time>
      </trkpt>
      <trkpt lat="45.5531" lon="6.16949">
        <ele>287.76</ele>
        <time>2018-09-09T14:49:31Z</time>
      </trkpt>
      <trkpt lat="45.55301" lon="6.16905">
        <ele>287.84</ele>
        <time>2018-09-09T14:49:32Z</time>
      </trkpt>
      <trkpt lat="45.55291" lon="6.16863">
        <ele>287.17</ele>
        <time>2018-09-09T14:49:33Z</time>
      </trkpt>
      <trkpt lat="45.55279" lon="6.1682">
        <ele>286.96</ele>
        <time>2018-09-09T14:49:34Z</time>
      </trkpt>
      <trkpt lat="45.55265" lon="6.16778">
        <ele>286.9</ele>
        <time>2018-09-09T14:49:35Z</time>
      </trkpt>
      <trkpt lat="45.5525" lon="6.16736">
        <ele>286.89</ele>
        <time>2018-09-09T14:49:36Z</time>
      </trkpt>
      <trkpt lat="45.55234" lon="6.16695">
        <ele>286.88</ele>
        <time>2018-09-09T14:49:37Z</time>
      </trkpt>
      <trkpt lat="45.55217" lon="6.16656">
        <ele>286.18</ele>
        <time>2018-09-09T14:49:38Z</time>
      </trkpt>
      <trkpt lat="45.55199" lon="6.16617">
        <ele>286.67</ele>
        <time>2018-09-09T14:49:39Z</time>
      </trkpt>
      <trkpt lat="45.55179" lon="6.16579">
        <ele>286.12</ele>
        <time>2018-09-09T14:49:40Z</time>
      </trkpt>
      <trkpt lat="45.5516" lon="6.16541">
        <ele>285.25</ele>
        <time>2018-09-09T14:49:41Z</time>
      </trkpt>
      <trkpt lat="45.5514" lon="6.16504">
        <ele>284.99</ele>
        <time>2018-09-09T14:49:42Z</time>
      </trkpt>
      <trkpt lat="45.55121" lon="6.16467">
        <ele>284.21</ele>
        <time>2018-09-09T14:49:43Z</time>
      </trkpt>
      <trkpt lat="45.55101" lon="6.1643">
        <ele>283.98</ele>
        <time>2018-09-09T14:49:44Z</time>
      </trkpt>
      <trkpt lat="45.55082" lon="6.16394">
        <ele>283.91</ele>
        <time>2018-09-09T14:49:45Z</time>
      </trkpt>
      <trkpt lat="45.55062" lon="6.16357">
        <ele>283.19</ele>
        <time>2018-09-09T14:49:46Z</time>
      </trkpt>
      <trkpt lat="45.55043" lon="6.16321">
        <ele>282.27</ele>
        <time>2018-09-09T14:49:47Z</time>
      </trkpt>
      <trkpt lat="45.55024" lon="6.16284">
        <ele>282</ele>
        <time>2018-09-09T14:49:48Z</time>
      </trkpt>
      <trkpt lat="45.55007" lon="6.16247">
        <ele>281.21</ele>
        <time>2018-09-09T14:49:49Z</time>
      </trkpt>
      <trkpt lat="45.54989" lon="6.1621">
        <ele>280.98</ele>
        <time>2018-09-09T14:49:50Z</time>
      </trkpt>
      <trkpt lat="45.54972" lon="6.16172">
        <ele>280.91</ele>
        <time>2018-09-09T14:49:51Z</time>
      </trkpt>
      <trkpt lat="45.54956" lon="6.16134">
        <ele>280.89</ele>
        <time>2018-09-09T14:49:52Z</time>
      </trkpt>
      <trkpt lat="45.5494" lon="6.16095">
        <ele>280.88</ele>
        <time>2018-09-09T14:49:53Z</time>
      </trkpt>
      <trkpt lat="45.54925" lon="6.16056">
        <ele>280.88</ele>
        <time>2018-09-09T14:49:54Z</time>
      </trkpt>
      <trkpt lat="45.54909" lon="6.16016">
        <ele>280.88</ele>
        <time>2018-09-09T14:49:55Z</time>
      </trkpt>
      <trkpt lat="45.54894" lon="6.15976">
        <ele>280.88</ele>
        <time>2018-09-09T14:49:56Z</time>
      </trkpt>
      <trkpt lat="45.54881" lon="6.15935">
        <ele>280.88</ele>
        <time>2018-09-09T14:49:57Z</time>
      </trkpt>
      <trkpt lat="45.54867" lon="6.15895">
        <ele>280.18</ele>
        <time>2018-09-09T14:49:58Z</time>
      </trkpt>
      <trkpt lat="45.54855" lon="6.15853">
        <ele>280.67</ele>
        <time>2018-09-09T14:49:59Z</time>
      </trkpt>
      <trkpt lat="45.54843" lon="6.15812">
        <ele>280.82</ele>
        <time>2018-09-09T14:50:00Z</time>
      </trkpt>
      <trkpt lat="45.54831" lon="6.15769">
        <ele>280.16</ele>
        <time>2018-09-09T14:50:01Z</time>
      </trkpt>
      <trkpt lat="45.5482" lon="6.15727">
        <ele>279.96</ele>
        <time>2018-09-09T14:50:02Z</time>
      </trkpt>
      <trkpt lat="45.54809" lon="6.15685">
        <ele>279.9</ele>
        <time>2018-09-09T14:50:03Z</time>
      </trkpt>
      <trkpt lat="45.54799" lon="6.15641">
        <ele>279.89</ele>
        <time>2018-09-09T14:50:04Z</time>
      </trkpt>
      <trkpt lat="45.5479" lon="6.15598">
        <ele>279.88</ele>
        <time>2018-09-09T14:50:05Z</time>
      </trkpt>
      <trkpt lat="45.54781" lon="6.15554">
        <ele>279.88</ele>
        <time>2018-09-09T14:50:06Z</time>
      </trkpt>
      <trkpt lat="45.54773" lon="6.15511">
        <ele>279.88</ele>
        <time>2018-09-09T14:50:07Z</time>
      </trkpt>
      <trkpt lat="45.54764" lon="6.15467">
        <ele>279.88</ele>
        <time>2018-09-09T14:50:08Z</time>
      </trkpt>
      <trkpt lat="45.54756" lon="6.15423">
        <ele>279.88</ele>
        <time>2018-09-09T14:50:09Z</time>
      </trkpt>
      <trkpt lat="45.54748" lon="6.15378">
        <ele>280.58</ele>
        <time>2018-09-09T14:50:10Z</time>
      </trkpt>
      <trkpt lat="45.54739" lon="6.15332">
        <ele>280.09</ele>
        <time>2018-09-09T14:50:11Z</time>
      </trkpt>
      <trkpt lat="45.54729" lon="6.15287">
        <ele>279.94</ele>
        <time>2018-09-09T14:50:12Z</time>
      </trkpt>
      <trkpt lat="45.5472" lon="6.15242">
        <ele>279.9</ele>
        <time>2018-09-09T14:50:13Z</time>
      </trkpt>
      <trkpt lat="45.5471" lon="6.15197">
        <ele>280.58</ele>
        <time>2018-09-09T14:50:14Z</time>
      </trkpt>
      <trkpt lat="45.547" lon="6.15153">
        <ele>280.79</ele>
        <time>2018-09-09T14:50:15Z</time>
      </trkpt>
      <trkpt lat="45.54689" lon="6.1511">
        <ele>280.85</ele>
        <time>2018-09-09T14:50:16Z</time>
      </trkpt>
      <trkpt lat="45.54676" lon="6.15066">
        <ele>280.17</ele>
        <time>2018-09-09T14:50:17Z</time>
      </trkpt>
      <trkpt lat="45.54663" lon="6.15023">
        <ele>279.97</ele>
        <time>2018-09-09T14:50:18Z</time>
      </trkpt>
      <trkpt lat="45.54649" lon="6.14981">
        <ele>279.9</ele>
        <time>2018-09-09T14:50:19Z</time>
      </trkpt>
      <trkpt lat="45.54635" lon="6.14938">
        <ele>279.89</ele>
        <time>2018-09-09T14:50:20Z</time>
      </trkpt>
      <trkpt lat="45.5462" lon="6.14896">
        <ele>279.88</ele>
        <time>2018-09-09T14:50:21Z</time>
      </trkpt>
      <trkpt lat="45.54606" lon="6.14854">
        <ele>279.88</ele>
        <time>2018-09-09T14:50:22Z</time>
      </trkpt>
      <trkpt lat="45.54592" lon="6.14813">
        <ele>279.88</ele>
        <time>2018-09-09T14:50:23Z</time>
      </trkpt>
      <trkpt lat="45.54576" lon="6.14771">
        <ele>279.88</ele>
        <time>2018-09-09T14:50:24Z</time>
      </trkpt>
      <trkpt lat="45.5456" lon="6.14731">
        <ele>279.88</ele>
        <time>2018-09-09T14:50:25Z</time>
      </trkpt>
      <trkpt lat="45.54542" lon="6.14691">
        <ele>279.88</ele>
        <time>2018-09-09T14:50:26Z</time>
      </trkpt>
      <trkpt lat="45.54525" lon="6.14651">
        <ele>279.88</ele>
        <time>2018-09-09T14:50:27Z</time>
      </trkpt>
      <trkpt lat="45.54506" lon="6.14612">
        <ele>279.18</ele>
        <time>2018-09-09T14:50:28Z</time>
      </trkpt>
      <trkpt lat="45.54487" lon="6.14574">
        <ele>278.97</ele>
        <time>2018-09-09T14:50:29Z</time>
      </trkpt>
      <trkpt lat="45.54468" lon="6.14536">
        <ele>278.9</ele>
        <time>2018-09-09T14:50:30Z</time>
      </trkpt>
      <trkpt lat="45.54447" lon="6.145">
        <ele>278.89</ele>
        <time>2018-09-09T14:50:31Z</time>
      </trkpt>
      <trkpt lat="45.54426" lon="6.14463">
        <ele>278.88</ele>
        <time>2018-09-09T14:50:32Z</time>
      </trkpt>
      <trkpt lat="45.54404" lon="6.14427">
        <ele>279.58</ele>
        <time>2018-09-09T14:50:33Z</time>
      </trkpt>
      <trkpt lat="45.54383" lon="6.14392">
        <ele>279.79</ele>
        <time>2018-09-09T14:50:34Z</time>
      </trkpt>
      <trkpt lat="45.54361" lon="6.14357">
        <ele>279.85</ele>
        <time>2018-09-09T14:50:35Z</time>
      </trkpt>
      <trkpt lat="45.5434" lon="6.14322">
        <ele>279.17</ele>
        <time>2018-09-09T14:50:36Z</time>
      </trkpt>
      <trkpt lat="45.54319" lon="6.14287">
        <ele>278.97</ele>
        <time>2018-09-09T14:50:37Z</time>
      </trkpt>
      <trkpt lat="45.54297" lon="6.14252">
        <ele>278.9</ele>
        <time>2018-09-09T14:50:38Z</time>
      </trkpt>
      <trkpt lat="45.54276" lon="6.14217">
        <ele>278.89</ele>
        <time>2018-09-09T14:50:39Z</time>
      </trkpt>
      <trkpt lat="45.54256" lon="6.14183">
        <ele>278.88</ele>
        <time>2018-09-09T14:50:40Z</time>
      </trkpt>
      <trkpt lat="45.54235" lon="6.14148">
        <ele>278.88</ele>
        <time>2018-09-09T14:50:41Z</time>
      </trkpt>
      <trkpt lat="45.54213" lon="6.14114">
        <ele>278.88</ele>
        <time>2018-09-09T14:50:42Z</time>
      </trkpt>
      <trkpt lat="45.54193" lon="6.14081">
        <ele>278.88</ele>
        <time>2018-09-09T14:50:43Z</time>
      </trkpt>
      <trkpt lat="45.54172" lon="6.14046">
        <ele>278.88</ele>
        <time>2018-09-09T14:50:44Z</time>
      </trkpt>
      <trkpt lat="45.54151" lon="6.14012">
        <ele>278.88</ele>
        <time>2018-09-09T14:50:45Z</time>
      </trkpt>
      <trkpt lat="45.54131" lon="6.13977">
        <ele>278.88</ele>
        <time>2018-09-09T14:50:46Z</time>
      </trkpt>
      <trkpt lat="45.5411" lon="6.13943">
        <ele>278.88</ele>
        <time>2018-09-09T14:50:47Z</time>
      </trkpt>
      <trkpt lat="45.54089" lon="6.1391">
        <ele>278.88</ele>
        <time>2018-09-09T14:50:48Z</time>
      </trkpt>
      <trkpt lat="45.54068" lon="6.13876">
        <ele>278.88</ele>
        <time>2018-09-09T14:50:49Z</time>
      </trkpt>
      <trkpt lat="45.54047" lon="6.13842">
        <ele>278.88</ele>
        <time>2018-09-09T14:50:50Z</time>
      </trkpt>
      <trkpt lat="45.54027" lon="6.13808">
        <ele>279.58</ele>
        <time>2018-09-09T14:50:51Z</time>
      </trkpt>
      <trkpt lat="45.54006" lon="6.13774">
        <ele>279.79</ele>
        <time>2018-09-09T14:50:52Z</time>
      </trkpt>
      <trkpt lat="45.53985" lon="6.13738">
        <ele>279.15</ele>
        <time>2018-09-09T14:50:53Z</time>
      </trkpt>
      <trkpt lat="45.53964" lon="6.13703">
        <ele>279.66</ele>
        <time>2018-09-09T14:50:54Z</time>
      </trkpt>
      <trkpt lat="45.53943" lon="6.13668">
        <ele>279.11</ele>
        <time>2018-09-09T14:50:55Z</time>
      </trkpt>
      <trkpt lat="45.53921" lon="6.13634">
        <ele>278.95</ele>
        <time>2018-09-09T14:50:56Z</time>
      </trkpt>
      <trkpt lat="45.53899" lon="6.13598">
        <ele>278.9</ele>
        <time>2018-09-09T14:50:57Z</time>
      </trkpt>
      <trkpt lat="45.53877" lon="6.13562">
        <ele>278.18</ele>
        <time>2018-09-09T14:50:58Z</time>
      </trkpt>
      <trkpt lat="45.53855" lon="6.13526">
        <ele>277.97</ele>
        <time>2018-09-09T14:50:59Z</time>
      </trkpt>
      <trkpt lat="45.53833" lon="6.1349">
        <ele>277.91</ele>
        <time>2018-09-09T14:51:00Z</time>
      </trkpt>
      <trkpt lat="45.53811" lon="6.13453">
        <ele>277.89</ele>
        <time>2018-09-09T14:51:01Z</time>
      </trkpt>
      <trkpt lat="45.53789" lon="6.13417">
        <ele>277.88</ele>
        <time>2018-09-09T14:51:02Z</time>
      </trkpt>
      <trkpt lat="45.53767" lon="6.13381">
        <ele>277.88</ele>
        <time>2018-09-09T14:51:03Z</time>
      </trkpt>
      <trkpt lat="45.53745" lon="6.13345">
        <ele>278.58</ele>
        <time>2018-09-09T14:51:04Z</time>
      </trkpt>
      <trkpt lat="45.53723" lon="6.13309">
        <ele>278.79</ele>
        <time>2018-09-09T14:51:05Z</time>
      </trkpt>
      <trkpt lat="45.53701" lon="6.13273">
        <ele>278.85</ele>
        <time>2018-09-09T14:51:06Z</time>
      </trkpt>
      <trkpt lat="45.5368" lon="6.13238">
        <ele>278.87</ele>
        <time>2018-09-09T14:51:07Z</time>
      </trkpt>
      <trkpt lat="45.53658" lon="6.13202">
        <ele>278.88</ele>
        <time>2018-09-09T14:51:08Z</time>
      </trkpt>
      <trkpt lat="45.53637" lon="6.13167">
        <ele>278.88</ele>
        <time>2018-09-09T14:51:09Z</time>
      </trkpt>
      <trkpt lat="45.53615" lon="6.13132">
        <ele>278.88</ele>
        <time>2018-09-09T14:51:10Z</time>
      </trkpt>
      <trkpt lat="45.53593" lon="6.13097">
        <ele>278.88</ele>
        <time>2018-09-09T14:51:11Z</time>
      </trkpt>
      <trkpt lat="45.53572" lon="6.13062">
        <ele>278.88</ele>
        <time>2018-09-09T14:51:12Z</time>
      </trkpt>
      <trkpt lat="45.53551" lon="6.13027">
        <ele>278.88</ele>
        <time>2018-09-09T14:51:13Z</time>
      </trkpt>
      <trkpt lat="45.53529" lon="6.12992">
        <ele>278.88</ele>
        <time>2018-09-09T14:51:14Z</time>
      </trkpt>
      <trkpt lat="45.53508" lon="6.12957">
        <ele>278.18</ele>
        <time>2018-09-09T14:51:15Z</time>
      </trkpt>
      <trkpt lat="45.53487" lon="6.12922">
        <ele>277.97</ele>
        <time>2018-09-09T14:51:16Z</time>
      </trkpt>
      <trkpt lat="45.53465" lon="6.12886">
        <ele>277.9</ele>
        <time>2018-09-09T14:51:17Z</time>
      </trkpt>
      <trkpt lat="45.53443" lon="6.12851">
        <ele>277.89</ele>
        <time>2018-09-09T14:51:18Z</time>
      </trkpt>
      <trkpt lat="45.53421" lon="6.12815">
        <ele>277.88</ele>
        <time>2018-09-09T14:51:19Z</time>
      </trkpt>
      <trkpt lat="45.53399" lon="6.12779">
        <ele>277.18</ele>
        <time>2018-09-09T14:51:20Z</time>
      </trkpt>
      <trkpt lat="45.53377" lon="6.12744">
        <ele>276.97</ele>
        <time>2018-09-09T14:51:21Z</time>
      </trkpt>
      <trkpt lat="45.53356" lon="6.12708">
        <ele>276.91</ele>
        <time>2018-09-09T14:51:22Z</time>
      </trkpt>
      <trkpt lat="45.53334" lon="6.12673">
        <ele>276.89</ele>
        <time>2018-09-09T14:51:23Z</time>
      </trkpt>
      <trkpt lat="45.53312" lon="6.12639">
        <ele>276.18</ele>
        <time>2018-09-09T14:51:24Z</time>
      </trkpt>
      <trkpt lat="45.53291" lon="6.12605">
        <ele>276.67</ele>
        <time>2018-09-09T14:51:25Z</time>
      </trkpt>
      <trkpt lat="45.53269" lon="6.12572">
        <ele>276.82</ele>
        <time>2018-09-09T14:51:26Z</time>
      </trkpt>
      <trkpt lat="45.53248" lon="6.12539">
        <ele>276.86</ele>
        <time>2018-09-09T14:51:27Z</time>
      </trkpt>
      <trkpt lat="45.53226" lon="6.12507">
        <ele>276.87</ele>
        <time>2018-09-09T14:51:28Z</time>
      </trkpt>
      <trkpt lat="45.53204" lon="6.12475">
        <ele>276.18</ele>
        <time>2018-09-09T14:51:29Z</time>
      </trkpt>
      <trkpt lat="45.53182" lon="6.12443">
        <ele>275.97</ele>
        <time>2018-09-09T14:51:30Z</time>
      </trkpt>
      <trkpt lat="45.5316" lon="6.12412">
        <ele>275.9</ele>
        <time>2018-09-09T14:51:31Z</time>
      </trkpt>
      <trkpt lat="45.53137" lon="6.12381">
        <ele>275.19</ele>
        <time>2018-09-09T14:51:32Z</time>
      </trkpt>
      <trkpt lat="45.53114" lon="6.12351">
        <ele>274.97</ele>
        <time>2018-09-09T14:51:33Z</time>
      </trkpt>
      <trkpt lat="45.53091" lon="6.12322">
        <ele>274.91</ele>
        <time>2018-09-09T14:51:34Z</time>
      </trkpt>
      <trkpt lat="45.53068" lon="6.12292">
        <ele>274.89</ele>
        <time>2018-09-09T14:51:35Z</time>
      </trkpt>
      <trkpt lat="45.53045" lon="6.12263">
        <ele>274.88</ele>
        <time>2018-09-09T14:51:36Z</time>
      </trkpt>
      <trkpt lat="45.53022" lon="6.12233">
        <ele>274.88</ele>
        <time>2018-09-09T14:51:37Z</time>
      </trkpt>
      <trkpt lat="45.52999" lon="6.12204">
        <ele>275.58</ele>
        <time>2018-09-09T14:51:38Z</time>
      </trkpt>
      <trkpt lat="45.52976" lon="6.12175">
        <ele>275.79</ele>
        <time>2018-09-09T14:51:39Z</time>
      </trkpt>
      <trkpt lat="45.52953" lon="6.12146">
        <ele>275.85</ele>
        <time>2018-09-09T14:51:40Z</time>
      </trkpt>
      <trkpt lat="45.5293" lon="6.12117">
        <ele>275.17</ele>
        <time>2018-09-09T14:51:41Z</time>
      </trkpt>
      <trkpt lat="45.52907" lon="6.12088">
        <ele>274.97</ele>
        <time>2018-09-09T14:51:42Z</time>
      </trkpt>
      <trkpt lat="45.52884" lon="6.12059">
        <ele>274.9</ele>
        <time>2018-09-09T14:51:43Z</time>
      </trkpt>
      <trkpt lat="45.52861" lon="6.1203">
        <ele>274.89</ele>
        <time>2018-09-09T14:51:44Z</time>
      </trkpt>
      <trkpt lat="45.52837" lon="6.12001">
        <ele>274.88</ele>
        <time>2018-09-09T14:51:45Z</time>
      </trkpt>
      <trkpt lat="45.52815" lon="6.11972">
        <ele>274.18</ele>
        <time>2018-09-09T14:51:46Z</time>
      </trkpt>
      <trkpt lat="45.52791" lon="6.11943">
        <ele>273.97</ele>
        <time>2018-09-09T14:51:47Z</time>
      </trkpt>
      <trkpt lat="45.52768" lon="6.11914">
        <ele>273.91</ele>
        <time>2018-09-09T14:51:48Z</time>
      </trkpt>
      <trkpt lat="45.52745" lon="6.11885">
        <ele>273.89</ele>
        <time>2018-09-09T14:51:49Z</time>
      </trkpt>
      <trkpt lat="45.52722" lon="6.11856">
        <ele>273.88</ele>
        <time>2018-09-09T14:51:50Z</time>
      </trkpt>
      <trkpt lat="45.52699" lon="6.11827">
        <ele>273.88</ele>
        <time>2018-09-09T14:51:51Z</time>
      </trkpt>
      <trkpt lat="45.52676" lon="6.11798">
        <ele>274.58</ele>
        <time>2018-09-09T14:51:52Z</time>
      </trkpt>
      <trkpt lat="45.52653" lon="6.11768">
        <ele>274.09</ele>
        <time>2018-09-09T14:51:53Z</time>
      </trkpt>
      <trkpt lat="45.52629" lon="6.11739">
        <ele>273.94</ele>
        <time>2018-09-09T14:51:54Z</time>
      </trkpt>
      <trkpt lat="45.52606" lon="6.11709">
        <ele>273.9</ele>
        <time>2018-09-09T14:51:55Z</time>
      </trkpt>
      <trkpt lat="45.52583" lon="6.1168">
        <ele>273.88</ele>
        <time>2018-09-09T14:51:56Z</time>
      </trkpt>
      <trkpt lat="45.5256" lon="6.1165">
        <ele>274.58</ele>
        <time>2018-09-09T14:51:57Z</time>
      </trkpt>
      <trkpt lat="45.52537" lon="6.1162">
        <ele>274.09</ele>
        <time>2018-09-09T14:51:58Z</time>
      </trkpt>
      <trkpt lat="45.52513" lon="6.11589">
        <ele>273.94</ele>
        <time>2018-09-09T14:51:59Z</time>
      </trkpt>
      <trkpt lat="45.5249" lon="6.11559">
        <ele>273.9</ele>
        <time>2018-09-09T14:52:00Z</time>
      </trkpt>
      <trkpt lat="45.52466" lon="6.11529">
        <ele>273.18</ele>
        <time>2018-09-09T14:52:01Z</time>
      </trkpt>
      <trkpt lat="45.52441" lon="6.115">
        <ele>272.97</ele>
        <time>2018-09-09T14:52:02Z</time>
      </trkpt>
      <trkpt lat="45.52415" lon="6.11471">
        <ele>272.91</ele>
        <time>2018-09-09T14:52:03Z</time>
      </trkpt>
      <trkpt lat="45.5239" lon="6.11444">
        <ele>272.89</ele>
        <time>2018-09-09T14:52:04Z</time>
      </trkpt>
      <trkpt lat="45.52363" lon="6.11416">
        <ele>272.88</ele>
        <time>2018-09-09T14:52:05Z</time>
      </trkpt>
      <trkpt lat="45.52336" lon="6.1139">
        <ele>272.88</ele>
        <time>2018-09-09T14:52:06Z</time>
      </trkpt>
      <trkpt lat="45.52309" lon="6.11364">
        <ele>272.18</ele>
        <time>2018-09-09T14:52:07Z</time>
      </trkpt>
      <trkpt lat="45.52281" lon="6.11338">
        <ele>271.97</ele>
        <time>2018-09-09T14:52:08Z</time>
      </trkpt>
      <trkpt lat="45.52253" lon="6.11314">
        <ele>271.91</ele>
        <time>2018-09-09T14:52:09Z</time>
      </trkpt>
      <trkpt lat="45.52224" lon="6.11291">
        <ele>271.89</ele>
        <time>2018-09-09T14:52:10Z</time>
      </trkpt>
      <trkpt lat="45.52195" lon="6.11267">
        <ele>272.58</ele>
        <time>2018-09-09T14:52:11Z</time>
      </trkpt>
      <trkpt lat="45.52166" lon="6.11245">
        <ele>272.79</ele>
        <time>2018-09-09T14:52:12Z</time>
      </trkpt>
      <trkpt lat="45.52137" lon="6.11222">
        <ele>272.85</ele>
        <time>2018-09-09T14:52:13Z</time>
      </trkpt>
      <trkpt lat="45.52108" lon="6.11201">
        <ele>272.17</ele>
        <time>2018-09-09T14:52:14Z</time>
      </trkpt>
      <trkpt lat="45.52078" lon="6.1118">
        <ele>271.97</ele>
        <time>2018-09-09T14:52:15Z</time>
      </trkpt>
      <trkpt lat="45.52049" lon="6.11157">
        <ele>271.2</ele>
        <time>2018-09-09T14:52:16Z</time>
      </trkpt>
      <trkpt lat="45.5202" lon="6.11134">
        <ele>271.68</ele>
        <time>2018-09-09T14:52:17Z</time>
      </trkpt>
      <trkpt lat="45.51991" lon="6.11111">
        <ele>271.82</ele>
        <time>2018-09-09T14:52:18Z</time>
      </trkpt>
      <trkpt lat="45.51962" lon="6.11088">
        <ele>271.16</ele>
        <time>2018-09-09T14:52:19Z</time>
      </trkpt>
      <trkpt lat="45.51933" lon="6.11064">
        <ele>270.96</ele>
        <time>2018-09-09T14:52:20Z</time>
      </trkpt>
      <trkpt lat="45.51905" lon="6.1104">
        <ele>270.9</ele>
        <time>2018-09-09T14:52:21Z</time>
      </trkpt>
      <trkpt lat="45.51878" lon="6.11015">
        <ele>270.89</ele>
        <time>2018-09-09T14:52:22Z</time>
      </trkpt>
      <trkpt lat="45.5185" lon="6.10989">
        <ele>270.88</ele>
        <time>2018-09-09T14:52:23Z</time>
      </trkpt>
      <trkpt lat="45.51823" lon="6.10962">
        <ele>270.18</ele>
        <time>2018-09-09T14:52:24Z</time>
      </trkpt>
      <trkpt lat="45.51795" lon="6.10935">
        <ele>269.97</ele>
        <time>2018-09-09T14:52:25Z</time>
      </trkpt>
      <trkpt lat="45.51768" lon="6.10907">
        <ele>269.91</ele>
        <time>2018-09-09T14:52:26Z</time>
      </trkpt>
      <trkpt lat="45.51742" lon="6.10878">
        <ele>269.89</ele>
        <time>2018-09-09T14:52:27Z</time>
      </trkpt>
      <trkpt lat="45.51716" lon="6.10848">
        <ele>269.88</ele>
        <time>2018-09-09T14:52:28Z</time>
      </trkpt>
      <trkpt lat="45.51691" lon="6.10818">
        <ele>269.88</ele>
        <time>2018-09-09T14:52:29Z</time>
      </trkpt>
      <trkpt lat="45.51665" lon="6.10786">
        <ele>269.88</ele>
        <time>2018-09-09T14:52:30Z</time>
      </trkpt>
      <trkpt lat="45.5164" lon="6.10755">
        <ele>269.88</ele>
        <time>2018-09-09T14:52:31Z</time>
      </trkpt>
      <trkpt lat="45.51615" lon="6.10722">
        <ele>269.18</ele>
        <time>2018-09-09T14:52:32Z</time>
      </trkpt>
      <trkpt lat="45.5159" lon="6.1069">
        <ele>268.97</ele>
        <time>2018-09-09T14:52:33Z</time>
      </trkpt>
      <trkpt lat="45.51566" lon="6.10658">
        <ele>268.9</ele>
        <time>2018-09-09T14:52:34Z</time>
      </trkpt>
      <trkpt lat="45.51542" lon="6.10625">
        <ele>268.89</ele>
        <time>2018-09-09T14:52:35Z</time>
      </trkpt>
      <trkpt lat="45.51518" lon="6.10591">
        <ele>268.88</ele>
        <time>2018-09-09T14:52:36Z</time>
      </trkpt>
      <trkpt lat="45.51494" lon="6.10559">
        <ele>269.58</ele>
        <time>2018-09-09T14:52:37Z</time>
      </trkpt>
      <trkpt lat="45.51469" lon="6.10526">
        <ele>269.79</ele>
        <time>2018-09-09T14:52:38Z</time>
      </trkpt>
      <trkpt lat="45.51445" lon="6.10494">
        <ele>269.85</ele>
        <time>2018-09-09T14:52:39Z</time>
      </trkpt>
      <trkpt lat="45.51421" lon="6.10461">
        <ele>269.87</ele>
        <time>2018-09-09T14:52:40Z</time>
      </trkpt>
      <trkpt lat="45.51396" lon="6.10429">
        <ele>269.88</ele>
        <time>2018-09-09T14:52:41Z</time>
      </trkpt>
      <trkpt lat="45.51372" lon="6.10398">
        <ele>269.88</ele>
        <time>2018-09-09T14:52:42Z</time>
      </trkpt>
      <trkpt lat="45.51348" lon="6.10366">
        <ele>269.88</ele>
        <time>2018-09-09T14:52:43Z</time>
      </trkpt>
      <trkpt lat="45.51324" lon="6.10334">
        <ele>269.88</ele>
        <time>2018-09-09T14:52:44Z</time>
      </trkpt>
      <trkpt lat="45.513" lon="6.10302">
        <ele>269.88</ele>
        <time>2018-09-09T14:52:45Z</time>
      </trkpt>
      <trkpt lat="45.51277" lon="6.1027">
        <ele>269.88</ele>
        <time>2018-09-09T14:52:46Z</time>
      </trkpt>
      <trkpt lat="45.51253" lon="6.10238">
        <ele>269.88</ele>
        <time>2018-09-09T14:52:47Z</time>
      </trkpt>
      <trkpt lat="45.51229" lon="6.10206">
        <ele>269.88</ele>
        <time>2018-09-09T14:52:48Z</time>
      </trkpt>
      <trkpt lat="45.51206" lon="6.10174">
        <ele>269.18</ele>
        <time>2018-09-09T14:52:49Z</time>
      </trkpt>
      <trkpt lat="45.51182" lon="6.10142">
        <ele>268.97</ele>
        <time>2018-09-09T14:52:50Z</time>
      </trkpt>
      <trkpt lat="45.51159" lon="6.10109">
        <ele>268.9</ele>
        <time>2018-09-09T14:52:51Z</time>
      </trkpt>
      <trkpt lat="45.51136" lon="6.10076">
        <ele>268.19</ele>
        <time>2018-09-09T14:52:52Z</time>
      </trkpt>
      <trkpt lat="45.51114" lon="6.10043">
        <ele>268.67</ele>
        <time>2018-09-09T14:52:53Z</time>
      </trkpt>
      <trkpt lat="45.51093" lon="6.10009">
        <ele>268.82</ele>
        <time>2018-09-09T14:52:54Z</time>
      </trkpt>
      <trkpt lat="45.51072" lon="6.09975">
        <ele>268.86</ele>
        <time>2018-09-09T14:52:55Z</time>
      </trkpt>
      <trkpt lat="45.51053" lon="6.0994">
        <ele>268.87</ele>
        <time>2018-09-09T14:52:56Z</time>
      </trkpt>
      <trkpt lat="45.51034" lon="6.09904">
        <ele>269.58</ele>
        <time>2018-09-09T14:52:57Z</time>
      </trkpt>
      <trkpt lat="45.51015" lon="6.09867">
        <ele>269.79</ele>
        <time>2018-09-09T14:52:58Z</time>
      </trkpt>
      <trkpt lat="45.50996" lon="6.0983">
        <ele>269.15</ele>
        <time>2018-09-09T14:52:59Z</time>
      </trkpt>
      <trkpt lat="45.50977" lon="6.09792">
        <ele>268.96</ele>
        <time>2018-09-09T14:53:00Z</time>
      </trkpt>
      <trkpt lat="45.50959" lon="6.09754">
        <ele>268.9</ele>
        <time>2018-09-09T14:53:01Z</time>
      </trkpt>
      <trkpt lat="45.50941" lon="6.09714">
        <ele>268.89</ele>
        <time>2018-09-09T14:53:02Z</time>
      </trkpt>
      <trkpt lat="45.50923" lon="6.09673">
        <ele>268.88</ele>
        <time>2018-09-09T14:53:03Z</time>
      </trkpt>
      <trkpt lat="45.50906" lon="6.09632">
        <ele>268.88</ele>
        <time>2018-09-09T14:53:04Z</time>
      </trkpt>
      <trkpt lat="45.50891" lon="6.0959">
        <ele>268.88</ele>
        <time>2018-09-09T14:53:05Z</time>
      </trkpt>
      <trkpt lat="45.50875" lon="6.09548">
        <ele>268.88</ele>
        <time>2018-09-09T14:53:06Z</time>
      </trkpt>
      <trkpt lat="45.50861" lon="6.09506">
        <ele>268.88</ele>
        <time>2018-09-09T14:53:07Z</time>
      </trkpt>
      <trkpt lat="45.50847" lon="6.09463">
        <ele>268.18</ele>
        <time>2018-09-09T14:53:08Z</time>
      </trkpt>
      <trkpt lat="45.50833" lon="6.0942">
        <ele>267.97</ele>
        <time>2018-09-09T14:53:09Z</time>
      </trkpt>
      <trkpt lat="45.50819" lon="6.09378">
        <ele>267.9</ele>
        <time>2018-09-09T14:53:10Z</time>
      </trkpt>
      <trkpt lat="45.50806" lon="6.09335">
        <ele>267.89</ele>
        <time>2018-09-09T14:53:11Z</time>
      </trkpt>
      <trkpt lat="45.50793" lon="6.09292">
        <ele>267.88</ele>
        <time>2018-09-09T14:53:12Z</time>
      </trkpt>
      <trkpt lat="45.50779" lon="6.0925">
        <ele>267.88</ele>
        <time>2018-09-09T14:53:13Z</time>
      </trkpt>
      <trkpt lat="45.50765" lon="6.09207">
        <ele>267.88</ele>
        <time>2018-09-09T14:53:14Z</time>
      </trkpt>
      <trkpt lat="45.50752" lon="6.09165">
        <ele>267.88</ele>
        <time>2018-09-09T14:53:15Z</time>
      </trkpt>
      <trkpt lat="45.50739" lon="6.09122">
        <ele>267.88</ele>
        <time>2018-09-09T14:53:16Z</time>
      </trkpt>
      <trkpt lat="45.50725" lon="6.0908">
        <ele>267.88</ele>
        <time>2018-09-09T14:53:17Z</time>
      </trkpt>
      <trkpt lat="45.50712" lon="6.09039">
        <ele>267.88</ele>
        <time>2018-09-09T14:53:18Z</time>
      </trkpt>
      <trkpt lat="45.50698" lon="6.08997">
        <ele>267.88</ele>
        <time>2018-09-09T14:53:19Z</time>
      </trkpt>
      <trkpt lat="45.50684" lon="6.08956">
        <ele>267.88</ele>
        <time>2018-09-09T14:53:20Z</time>
      </trkpt>
      <trkpt lat="45.5067" lon="6.08915">
        <ele>267.88</ele>
        <time>2018-09-09T14:53:21Z</time>
      </trkpt>
      <trkpt lat="45.50656" lon="6.08874">
        <ele>267.88</ele>
        <time>2018-09-09T14:53:22Z</time>
      </trkpt>
      <trkpt lat="45.50641" lon="6.08833">
        <ele>267.88</ele>
        <time>2018-09-09T14:53:23Z</time>
      </trkpt>
      <trkpt lat="45.50626" lon="6.08793">
        <ele>267.88</ele>
        <time>2018-09-09T14:53:24Z</time>
      </trkpt>
      <trkpt lat="45.5061" lon="6.08754">
        <ele>267.88</ele>
        <time>2018-09-09T14:53:25Z</time>
      </trkpt>
      <trkpt lat="45.50596" lon="6.08715">
        <ele>267.88</ele>
        <time>2018-09-09T14:53:26Z</time>
      </trkpt>
      <trkpt lat="45.5058" lon="6.08675">
        <ele>267.88</ele>
        <time>2018-09-09T14:53:27Z</time>
      </trkpt>
      <trkpt lat="45.50564" lon="6.08637">
        <ele>267.88</ele>
        <time>2018-09-09T14:53:28Z</time>
      </trkpt>
      <trkpt lat="45.50547" lon="6.08599">
        <ele>267.88</ele>
        <time>2018-09-09T14:53:29Z</time>
      </trkpt>
      <trkpt lat="45.5053" lon="6.08561">
        <ele>267.88</ele>
        <time>2018-09-09T14:53:30Z</time>
      </trkpt>
      <trkpt lat="45.50512" lon="6.08524">
        <ele>267.88</ele>
        <time>2018-09-09T14:53:31Z</time>
      </trkpt>
      <trkpt lat="45.50495" lon="6.08487">
        <ele>267.88</ele>
        <time>2018-09-09T14:53:32Z</time>
      </trkpt>
      <trkpt lat="45.50477" lon="6.0845">
        <ele>267.88</ele>
        <time>2018-09-09T14:53:33Z</time>
      </trkpt>
      <trkpt lat="45.50458" lon="6.08415">
        <ele>267.88</ele>
        <time>2018-09-09T14:53:34Z</time>
      </trkpt>
      <trkpt lat="45.50439" lon="6.08378">
        <ele>267.88</ele>
        <time>2018-09-09T14:53:35Z</time>
      </trkpt>
      <trkpt lat="45.50419" lon="6.08343">
        <ele>267.88</ele>
        <time>2018-09-09T14:53:36Z</time>
      </trkpt>
      <trkpt lat="45.50399" lon="6.08307">
        <ele>267.88</ele>
        <time>2018-09-09T14:53:37Z</time>
      </trkpt>
      <trkpt lat="45.50379" lon="6.08272">
        <ele>268.58</ele>
        <time>2018-09-09T14:53:38Z</time>
      </trkpt>
      <trkpt lat="45.50359" lon="6.08237">
        <ele>268.09</ele>
        <time>2018-09-09T14:53:39Z</time>
      </trkpt>
      <trkpt lat="45.50338" lon="6.08203">
        <ele>267.94</ele>
        <time>2018-09-09T14:53:40Z</time>
      </trkpt>
      <trkpt lat="45.50318" lon="6.0817">
        <ele>267.9</ele>
        <time>2018-09-09T14:53:41Z</time>
      </trkpt>
      <trkpt lat="45.50296" lon="6.08136">
        <ele>267.88</ele>
        <time>2018-09-09T14:53:42Z</time>
      </trkpt>
      <trkpt lat="45.50274" lon="6.08104">
        <ele>267.88</ele>
        <time>2018-09-09T14:53:43Z</time>
      </trkpt>
      <trkpt lat="45.50252" lon="6.08071">
        <ele>267.88</ele>
        <time>2018-09-09T14:53:44Z</time>
      </trkpt>
      <trkpt lat="45.5023" lon="6.08038">
        <ele>267.88</ele>
        <time>2018-09-09T14:53:45Z</time>
      </trkpt>
      <trkpt lat="45.50207" lon="6.08006">
        <ele>267.88</ele>
        <time>2018-09-09T14:53:46Z</time>
      </trkpt>
      <trkpt lat="45.50183" lon="6.07973">
        <ele>267.88</ele>
        <time>2018-09-09T14:53:47Z</time>
      </trkpt>
      <trkpt lat="45.5016" lon="6.0794">
        <ele>267.88</ele>
        <time>2018-09-09T14:53:48Z</time>
      </trkpt>
      <trkpt lat="45.50136" lon="6.07907">
        <ele>267.18</ele>
        <time>2018-09-09T14:53:49Z</time>
      </trkpt>
      <trkpt lat="45.50112" lon="6.07874">
        <ele>266.97</ele>
        <time>2018-09-09T14:53:50Z</time>
      </trkpt>
      <trkpt lat="45.50088" lon="6.07841">
        <ele>266.9</ele>
        <time>2018-09-09T14:53:51Z</time>
      </trkpt>
      <trkpt lat="45.50065" lon="6.07807">
        <ele>266.89</ele>
        <time>2018-09-09T14:53:52Z</time>
      </trkpt>
      <trkpt lat="45.50041" lon="6.07773">
        <ele>266.88</ele>
        <time>2018-09-09T14:53:53Z</time>
      </trkpt>
      <trkpt lat="45.50018" lon="6.0774">
        <ele>266.88</ele>
        <time>2018-09-09T14:53:54Z</time>
      </trkpt>
      <trkpt lat="45.49995" lon="6.07707">
        <ele>266.88</ele>
        <time>2018-09-09T14:53:55Z</time>
      </trkpt>
      <trkpt lat="45.49972" lon="6.07673">
        <ele>266.88</ele>
        <time>2018-09-09T14:53:56Z</time>
      </trkpt>
      <trkpt lat="45.4995" lon="6.07638">
        <ele>266.88</ele>
        <time>2018-09-09T14:53:57Z</time>
      </trkpt>
      <trkpt lat="45.49929" lon="6.07603">
        <ele>266.88</ele>
        <time>2018-09-09T14:53:58Z</time>
      </trkpt>
      <trkpt lat="45.49908" lon="6.07568">
        <ele>266.88</ele>
        <time>2018-09-09T14:53:59Z</time>
      </trkpt>
      <trkpt lat="45.49888" lon="6.07531">
        <ele>266.88</ele>
        <time>2018-09-09T14:54:00Z</time>
      </trkpt>
      <trkpt lat="45.49869" lon="6.07495">
        <ele>266.88</ele>
        <time>2018-09-09T14:54:01Z</time>
      </trkpt>
      <trkpt lat="45.4985" lon="6.07457">
        <ele>266.88</ele>
        <time>2018-09-09T14:54:02Z</time>
      </trkpt>
      <trkpt lat="45.49814" lon="6.0738">
        <ele>266.88</ele>
        <time>2018-09-09T14:54:04Z</time>
      </trkpt>
      <trkpt lat="45.49796" lon="6.07342">
        <ele>267.58</ele>
        <time>2018-09-09T14:54:05Z</time>
      </trkpt>
      <trkpt lat="45.4978" lon="6.07303">
        <ele>267.09</ele>
        <time>2018-09-09T14:54:06Z</time>
      </trkpt>
      <trkpt lat="45.49763" lon="6.07264">
        <ele>266.94</ele>
        <time>2018-09-09T14:54:07Z</time>
      </trkpt>
      <trkpt lat="45.49748" lon="6.07223">
        <ele>267.6</ele>
        <time>2018-09-09T14:54:08Z</time>
      </trkpt>
      <trkpt lat="45.49733" lon="6.07183">
        <ele>267.09</ele>
        <time>2018-09-09T14:54:09Z</time>
      </trkpt>
      <trkpt lat="45.49718" lon="6.07142">
        <ele>267.64</ele>
        <time>2018-09-09T14:54:10Z</time>
      </trkpt>
      <trkpt lat="45.49705" lon="6.07101">
        <ele>267.11</ele>
        <time>2018-09-09T14:54:11Z</time>
      </trkpt>
      <trkpt lat="45.49692" lon="6.07059">
        <ele>267.65</ele>
        <time>2018-09-09T14:54:12Z</time>
      </trkpt>
      <trkpt lat="45.4968" lon="6.07017">
        <ele>267.81</ele>
        <time>2018-09-09T14:54:13Z</time>
      </trkpt>
      <trkpt lat="45.49669" lon="6.06974">
        <ele>267.16</ele>
        <time>2018-09-09T14:54:14Z</time>
      </trkpt>
      <trkpt lat="45.49658" lon="6.06932">
        <ele>266.96</ele>
        <time>2018-09-09T14:54:15Z</time>
      </trkpt>
      <trkpt lat="45.49647" lon="6.0689">
        <ele>266.9</ele>
        <time>2018-09-09T14:54:16Z</time>
      </trkpt>
      <trkpt lat="45.49637" lon="6.06848">
        <ele>266.89</ele>
        <time>2018-09-09T14:54:17Z</time>
      </trkpt>
      <trkpt lat="45.49627" lon="6.06806">
        <ele>267.58</ele>
        <time>2018-09-09T14:54:18Z</time>
      </trkpt>
      <trkpt lat="45.49618" lon="6.06764">
        <ele>267.79</ele>
        <time>2018-09-09T14:54:19Z</time>
      </trkpt>
      <trkpt lat="45.49609" lon="6.06722">
        <ele>267.15</ele>
        <time>2018-09-09T14:54:20Z</time>
      </trkpt>
      <trkpt lat="45.49601" lon="6.0668">
        <ele>267.66</ele>
        <time>2018-09-09T14:54:21Z</time>
      </trkpt>
      <trkpt lat="45.49594" lon="6.06638">
        <ele>267.11</ele>
        <time>2018-09-09T14:54:22Z</time>
      </trkpt>
      <trkpt lat="45.49586" lon="6.06596">
        <ele>267.65</ele>
        <time>2018-09-09T14:54:23Z</time>
      </trkpt>
      <trkpt lat="45.49579" lon="6.06554">
        <ele>267.81</ele>
        <time>2018-09-09T14:54:24Z</time>
      </trkpt>
      <trkpt lat="45.49571" lon="6.06512">
        <ele>267.16</ele>
        <time>2018-09-09T14:54:25Z</time>
      </trkpt>
      <trkpt lat="45.49564" lon="6.06469">
        <ele>266.96</ele>
        <time>2018-09-09T14:54:26Z</time>
      </trkpt>
      <trkpt lat="45.49556" lon="6.06427">
        <ele>267.6</ele>
        <time>2018-09-09T14:54:27Z</time>
      </trkpt>
      <trkpt lat="45.49548" lon="6.06384">
        <ele>267.8</ele>
        <time>2018-09-09T14:54:28Z</time>
      </trkpt>
      <trkpt lat="45.49541" lon="6.06341">
        <ele>267.85</ele>
        <time>2018-09-09T14:54:29Z</time>
      </trkpt>
      <trkpt lat="45.49533" lon="6.06298">
        <ele>267.87</ele>
        <time>2018-09-09T14:54:30Z</time>
      </trkpt>
      <trkpt lat="45.49524" lon="6.06254">
        <ele>267.88</ele>
        <time>2018-09-09T14:54:31Z</time>
      </trkpt>
      <trkpt lat="45.49515" lon="6.0621">
        <ele>267.88</ele>
        <time>2018-09-09T14:54:32Z</time>
      </trkpt>
      <trkpt lat="45.49505" lon="6.06165">
        <ele>267.88</ele>
        <time>2018-09-09T14:54:33Z</time>
      </trkpt>
      <trkpt lat="45.49495" lon="6.06121">
        <ele>267.88</ele>
        <time>2018-09-09T14:54:34Z</time>
      </trkpt>
      <trkpt lat="45.49486" lon="6.06076">
        <ele>267.88</ele>
        <time>2018-09-09T14:54:35Z</time>
      </trkpt>
      <trkpt lat="45.49475" lon="6.06031">
        <ele>267.88</ele>
        <time>2018-09-09T14:54:36Z</time>
      </trkpt>
      <trkpt lat="45.49465" lon="6.05986">
        <ele>268.58</ele>
        <time>2018-09-09T14:54:37Z</time>
      </trkpt>
      <trkpt lat="45.49454" lon="6.05942">
        <ele>268.79</ele>
        <time>2018-09-09T14:54:38Z</time>
      </trkpt>
      <trkpt lat="45.49443" lon="6.05898">
        <ele>268.15</ele>
        <time>2018-09-09T14:54:39Z</time>
      </trkpt>
      <trkpt lat="45.49431" lon="6.05854">
        <ele>267.96</ele>
        <time>2018-09-09T14:54:40Z</time>
      </trkpt>
      <trkpt lat="45.49419" lon="6.05811">
        <ele>267.9</ele>
        <time>2018-09-09T14:54:41Z</time>
      </trkpt>
      <trkpt lat="45.49406" lon="6.05769">
        <ele>267.89</ele>
        <time>2018-09-09T14:54:42Z</time>
      </trkpt>
      <trkpt lat="45.49393" lon="6.05727">
        <ele>267.88</ele>
        <time>2018-09-09T14:54:43Z</time>
      </trkpt>
      <trkpt lat="45.4938" lon="6.05684">
        <ele>267.88</ele>
        <time>2018-09-09T14:54:44Z</time>
      </trkpt>
      <trkpt lat="45.49367" lon="6.05643">
        <ele>267.88</ele>
        <time>2018-09-09T14:54:45Z</time>
      </trkpt>
      <trkpt lat="45.49354" lon="6.05602">
        <ele>267.18</ele>
        <time>2018-09-09T14:54:46Z</time>
      </trkpt>
      <trkpt lat="45.49341" lon="6.05562">
        <ele>266.97</ele>
        <time>2018-09-09T14:54:47Z</time>
      </trkpt>
      <trkpt lat="45.49327" lon="6.05521">
        <ele>267.61</ele>
        <time>2018-09-09T14:54:48Z</time>
      </trkpt>
      <trkpt lat="45.49313" lon="6.05481">
        <ele>267.8</ele>
        <time>2018-09-09T14:54:49Z</time>
      </trkpt>
      <trkpt lat="45.49299" lon="6.05441">
        <ele>267.85</ele>
        <time>2018-09-09T14:54:50Z</time>
      </trkpt>
      <trkpt lat="45.49284" lon="6.05402">
        <ele>267.87</ele>
        <time>2018-09-09T14:54:51Z</time>
      </trkpt>
      <trkpt lat="45.49269" lon="6.05363">
        <ele>267.88</ele>
        <time>2018-09-09T14:54:52Z</time>
      </trkpt>
      <trkpt lat="45.49254" lon="6.05324">
        <ele>267.18</ele>
        <time>2018-09-09T14:54:53Z</time>
      </trkpt>
      <trkpt lat="45.49238" lon="6.05286">
        <ele>267.67</ele>
        <time>2018-09-09T14:54:54Z</time>
      </trkpt>
      <trkpt lat="45.49222" lon="6.05248">
        <ele>267.11</ele>
        <time>2018-09-09T14:54:55Z</time>
      </trkpt>
      <trkpt lat="45.49205" lon="6.0521">
        <ele>266.95</ele>
        <time>2018-09-09T14:54:56Z</time>
      </trkpt>
      <trkpt lat="45.49189" lon="6.05172">
        <ele>266.9</ele>
        <time>2018-09-09T14:54:57Z</time>
      </trkpt>
      <trkpt lat="45.49172" lon="6.05135">
        <ele>266.88</ele>
        <time>2018-09-09T14:54:58Z</time>
      </trkpt>
      <trkpt lat="45.49154" lon="6.05098">
        <ele>267.58</ele>
        <time>2018-09-09T14:54:59Z</time>
      </trkpt>
      <trkpt lat="45.49137" lon="6.0506">
        <ele>267.79</ele>
        <time>2018-09-09T14:55:00Z</time>
      </trkpt>
      <trkpt lat="45.49119" lon="6.05023">
        <ele>267.85</ele>
        <time>2018-09-09T14:55:01Z</time>
      </trkpt>
      <trkpt lat="45.491" lon="6.04987">
        <ele>267.87</ele>
        <time>2018-09-09T14:55:02Z</time>
      </trkpt>
      <trkpt lat="45.49082" lon="6.0495">
        <ele>267.88</ele>
        <time>2018-09-09T14:55:03Z</time>
      </trkpt>
      <trkpt lat="45.49062" lon="6.04914">
        <ele>268.58</ele>
        <time>2018-09-09T14:55:04Z</time>
      </trkpt>
      <trkpt lat="45.49043" lon="6.04879">
        <ele>268.79</ele>
        <time>2018-09-09T14:55:05Z</time>
      </trkpt>
      <trkpt lat="45.49023" lon="6.04844">
        <ele>268.85</ele>
        <time>2018-09-09T14:55:06Z</time>
      </trkpt>
      <trkpt lat="45.49003" lon="6.04809">
        <ele>268.87</ele>
        <time>2018-09-09T14:55:07Z</time>
      </trkpt>
      <trkpt lat="45.48983" lon="6.04775">
        <ele>268.88</ele>
        <time>2018-09-09T14:55:08Z</time>
      </trkpt>
      <trkpt lat="45.48963" lon="6.04741">
        <ele>268.88</ele>
        <time>2018-09-09T14:55:09Z</time>
      </trkpt>
      <trkpt lat="45.48943" lon="6.04708">
        <ele>268.88</ele>
        <time>2018-09-09T14:55:10Z</time>
      </trkpt>
      <trkpt lat="45.48922" lon="6.04676">
        <ele>268.88</ele>
        <time>2018-09-09T14:55:11Z</time>
      </trkpt>
      <trkpt lat="45.48901" lon="6.04643">
        <ele>268.88</ele>
        <time>2018-09-09T14:55:12Z</time>
      </trkpt>
      <trkpt lat="45.4888" lon="6.04611">
        <ele>269.58</ele>
        <time>2018-09-09T14:55:13Z</time>
      </trkpt>
      <trkpt lat="45.48859" lon="6.04581">
        <ele>269.79</ele>
        <time>2018-09-09T14:55:14Z</time>
      </trkpt>
      <trkpt lat="45.48836" lon="6.04551">
        <ele>269.85</ele>
        <time>2018-09-09T14:55:15Z</time>
      </trkpt>
      <trkpt lat="45.48814" lon="6.04521">
        <ele>269.17</ele>
        <time>2018-09-09T14:55:16Z</time>
      </trkpt>
      <trkpt lat="45.48792" lon="6.04492">
        <ele>268.97</ele>
        <time>2018-09-09T14:55:17Z</time>
      </trkpt>
      <trkpt lat="45.48769" lon="6.04464">
        <ele>268.2</ele>
        <time>2018-09-09T14:55:18Z</time>
      </trkpt>
      <trkpt lat="45.48745" lon="6.04436">
        <ele>267.28</ele>
        <time>2018-09-09T14:55:19Z</time>
      </trkpt>
      <trkpt lat="45.48721" lon="6.04408">
        <ele>267</ele>
        <time>2018-09-09T14:55:20Z</time>
      </trkpt>
      <trkpt lat="45.48696" lon="6.04382">
        <ele>266.21</ele>
        <time>2018-09-09T14:55:21Z</time>
      </trkpt>
      <trkpt lat="45.48671" lon="6.04355">
        <ele>265.28</ele>
        <time>2018-09-09T14:55:22Z</time>
      </trkpt>
      <trkpt lat="45.48645" lon="6.04328">
        <ele>264.3</ele>
        <time>2018-09-09T14:55:23Z</time>
      </trkpt>
      <trkpt lat="45.48619" lon="6.04302">
        <ele>263.3</ele>
        <time>2018-09-09T14:55:24Z</time>
      </trkpt>
      <trkpt lat="45.48593" lon="6.04276">
        <ele>263.01</ele>
        <time>2018-09-09T14:55:25Z</time>
      </trkpt>
      <trkpt lat="45.48568" lon="6.0425">
        <ele>262.22</ele>
        <time>2018-09-09T14:55:26Z</time>
      </trkpt>
      <trkpt lat="45.48542" lon="6.04225">
        <ele>261.28</ele>
        <time>2018-09-09T14:55:27Z</time>
      </trkpt>
      <trkpt lat="45.48516" lon="6.04198">
        <ele>261</ele>
        <time>2018-09-09T14:55:28Z</time>
      </trkpt>
      <trkpt lat="45.4849" lon="6.04172">
        <ele>260.91</ele>
        <time>2018-09-09T14:55:29Z</time>
      </trkpt>
      <trkpt lat="45.48464" lon="6.04144">
        <ele>260.19</ele>
        <time>2018-09-09T14:55:30Z</time>
      </trkpt>
      <trkpt lat="45.4844" lon="6.04116">
        <ele>259.27</ele>
        <time>2018-09-09T14:55:31Z</time>
      </trkpt>
      <trkpt lat="45.48415" lon="6.04086">
        <ele>259</ele>
        <time>2018-09-09T14:55:32Z</time>
      </trkpt>
      <trkpt lat="45.48392" lon="6.04053">
        <ele>258.91</ele>
        <time>2018-09-09T14:55:33Z</time>
      </trkpt>
      <trkpt lat="45.48369" lon="6.0402">
        <ele>258.89</ele>
        <time>2018-09-09T14:55:34Z</time>
      </trkpt>
      <trkpt lat="45.48347" lon="6.03987">
        <ele>258.88</ele>
        <time>2018-09-09T14:55:35Z</time>
      </trkpt>
      <trkpt lat="45.48328" lon="6.03951">
        <ele>258.88</ele>
        <time>2018-09-09T14:55:36Z</time>
      </trkpt>
      <trkpt lat="45.4831" lon="6.03915">
        <ele>259.58</ele>
        <time>2018-09-09T14:55:37Z</time>
      </trkpt>
      <trkpt lat="45.48294" lon="6.03878">
        <ele>259.79</ele>
        <time>2018-09-09T14:55:38Z</time>
      </trkpt>
      <trkpt lat="45.48278" lon="6.03841">
        <ele>259.85</ele>
        <time>2018-09-09T14:55:39Z</time>
      </trkpt>
      <trkpt lat="45.48262" lon="6.03803">
        <ele>259.87</ele>
        <time>2018-09-09T14:55:40Z</time>
      </trkpt>
      <trkpt lat="45.48249" lon="6.03765">
        <ele>259.88</ele>
        <time>2018-09-09T14:55:41Z</time>
      </trkpt>
      <trkpt lat="45.48237" lon="6.03727">
        <ele>259.88</ele>
        <time>2018-09-09T14:55:42Z</time>
      </trkpt>
      <trkpt lat="45.48226" lon="6.03688">
        <ele>260.58</ele>
        <time>2018-09-09T14:55:43Z</time>
      </trkpt>
      <trkpt lat="45.48216" lon="6.03648">
        <ele>260.79</ele>
        <time>2018-09-09T14:55:44Z</time>
      </trkpt>
      <trkpt lat="45.48207" lon="6.03609">
        <ele>260.85</ele>
        <time>2018-09-09T14:55:45Z</time>
      </trkpt>
      <trkpt lat="45.482" lon="6.03568">
        <ele>261.57</ele>
        <time>2018-09-09T14:55:46Z</time>
      </trkpt>
      <trkpt lat="45.48193" lon="6.03528">
        <ele>261.09</ele>
        <time>2018-09-09T14:55:47Z</time>
      </trkpt>
      <trkpt lat="45.48187" lon="6.03487">
        <ele>261.64</ele>
        <time>2018-09-09T14:55:48Z</time>
      </trkpt>
      <trkpt lat="45.48182" lon="6.03445">
        <ele>261.81</ele>
        <time>2018-09-09T14:55:49Z</time>
      </trkpt>
      <trkpt lat="45.4818" lon="6.03403">
        <ele>261.16</ele>
        <time>2018-09-09T14:55:50Z</time>
      </trkpt>
      <trkpt lat="45.48178" lon="6.0336">
        <ele>261.66</ele>
        <time>2018-09-09T14:55:51Z</time>
      </trkpt>
      <trkpt lat="45.48178" lon="6.03317">
        <ele>261.11</ele>
        <time>2018-09-09T14:55:52Z</time>
      </trkpt>
      <trkpt lat="45.48179" lon="6.03274">
        <ele>261.65</ele>
        <time>2018-09-09T14:55:53Z</time>
      </trkpt>
      <trkpt lat="45.48182" lon="6.03232">
        <ele>262.51</ele>
        <time>2018-09-09T14:55:54Z</time>
      </trkpt>
      <trkpt lat="45.48187" lon="6.0319">
        <ele>262.77</ele>
        <time>2018-09-09T14:55:55Z</time>
      </trkpt>
      <trkpt lat="45.48192" lon="6.03148">
        <ele>262.84</ele>
        <time>2018-09-09T14:55:56Z</time>
      </trkpt>
      <trkpt lat="45.48198" lon="6.03107">
        <ele>262.87</ele>
        <time>2018-09-09T14:55:57Z</time>
      </trkpt>
      <trkpt lat="45.48206" lon="6.03066">
        <ele>262.88</ele>
        <time>2018-09-09T14:55:58Z</time>
      </trkpt>
      <trkpt lat="45.48215" lon="6.03026">
        <ele>263.58</ele>
        <time>2018-09-09T14:55:59Z</time>
      </trkpt>
      <trkpt lat="45.48226" lon="6.02988">
        <ele>263.79</ele>
        <time>2018-09-09T14:56:00Z</time>
      </trkpt>
      <trkpt lat="45.48237" lon="6.0295">
        <ele>263.85</ele>
        <time>2018-09-09T14:56:01Z</time>
      </trkpt>
      <trkpt lat="45.4825" lon="6.02914">
        <ele>263.87</ele>
        <time>2018-09-09T14:56:02Z</time>
      </trkpt>
      <trkpt lat="45.48264" lon="6.02878">
        <ele>263.88</ele>
        <time>2018-09-09T14:56:03Z</time>
      </trkpt>
      <trkpt lat="45.4828" lon="6.02845">
        <ele>263.88</ele>
        <time>2018-09-09T14:56:04Z</time>
      </trkpt>
      <trkpt lat="45.48298" lon="6.02814">
        <ele>263.18</ele>
        <time>2018-09-09T14:56:05Z</time>
      </trkpt>
      <trkpt lat="45.48317" lon="6.02784">
        <ele>263.67</ele>
        <time>2018-09-09T14:56:06Z</time>
      </trkpt>
      <trkpt lat="45.48335" lon="6.02754">
        <ele>263.11</ele>
        <time>2018-09-09T14:56:07Z</time>
      </trkpt>
      <trkpt lat="45.48352" lon="6.02722">
        <ele>262.25</ele>
        <time>2018-09-09T14:56:08Z</time>
      </trkpt>
      <trkpt lat="45.48367" lon="6.02688">
        <ele>261.29</ele>
        <time>2018-09-09T14:56:09Z</time>
      </trkpt>
      <trkpt lat="45.4838" lon="6.02653">
        <ele>261</ele>
        <time>2018-09-09T14:56:10Z</time>
      </trkpt>
      <trkpt lat="45.48391" lon="6.02618">
        <ele>260.22</ele>
        <time>2018-09-09T14:56:11Z</time>
      </trkpt>
      <trkpt lat="45.48402" lon="6.02579">
        <ele>259.98</ele>
        <time>2018-09-09T14:56:12Z</time>
      </trkpt>
      <trkpt lat="45.48413" lon="6.0254">
        <ele>259.91</ele>
        <time>2018-09-09T14:56:13Z</time>
      </trkpt>
      <trkpt lat="45.48416" lon="6.02504">
        <ele>259.89</ele>
        <time>2018-09-09T14:56:14Z</time>
      </trkpt>
      <trkpt lat="45.48409" lon="6.02466">
        <ele>260.58</ele>
        <time>2018-09-09T14:56:15Z</time>
      </trkpt>
      <trkpt lat="45.48405" lon="6.02427">
        <ele>262.19</ele>
        <time>2018-09-09T14:56:16Z</time>
      </trkpt>
      <trkpt lat="45.48399" lon="6.0239">
        <ele>262.67</ele>
        <time>2018-09-09T14:56:17Z</time>
      </trkpt>
      <trkpt lat="45.48391" lon="6.02353">
        <ele>264.22</ele>
        <time>2018-09-09T14:56:18Z</time>
      </trkpt>
      <trkpt lat="45.48378" lon="6.02315">
        <ele>265.38</ele>
        <time>2018-09-09T14:56:19Z</time>
      </trkpt>
      <trkpt lat="45.48364" lon="6.0228">
        <ele>265.73</ele>
        <time>2018-09-09T14:56:20Z</time>
      </trkpt>
      <trkpt lat="45.48347" lon="6.02248">
        <ele>265.83</ele>
        <time>2018-09-09T14:56:21Z</time>
      </trkpt>
      <trkpt lat="45.48329" lon="6.02218">
        <ele>265.86</ele>
        <time>2018-09-09T14:56:22Z</time>
      </trkpt>
      <trkpt lat="45.48308" lon="6.02191">
        <ele>265.87</ele>
        <time>2018-09-09T14:56:23Z</time>
      </trkpt>
      <trkpt lat="45.48286" lon="6.02166">
        <ele>265.88</ele>
        <time>2018-09-09T14:56:24Z</time>
      </trkpt>
      <trkpt lat="45.48261" lon="6.02145">
        <ele>265.88</ele>
        <time>2018-09-09T14:56:25Z</time>
      </trkpt>
      <trkpt lat="45.48234" lon="6.02128">
        <ele>264.48</ele>
        <time>2018-09-09T14:56:26Z</time>
      </trkpt>
      <trkpt lat="45.48204" lon="6.02114">
        <ele>263.36</ele>
        <time>2018-09-09T14:56:27Z</time>
      </trkpt>
      <trkpt lat="45.48174" lon="6.02102">
        <ele>262.32</ele>
        <time>2018-09-09T14:56:28Z</time>
      </trkpt>
      <trkpt lat="45.48143" lon="6.02093">
        <ele>261.31</ele>
        <time>2018-09-09T14:56:29Z</time>
      </trkpt>
      <trkpt lat="45.48112" lon="6.02085">
        <ele>260.31</ele>
        <time>2018-09-09T14:56:30Z</time>
      </trkpt>
      <trkpt lat="45.48081" lon="6.02079">
        <ele>260.01</ele>
        <time>2018-09-09T14:56:31Z</time>
      </trkpt>
      <trkpt lat="45.4805" lon="6.02071">
        <ele>259.22</ele>
        <time>2018-09-09T14:56:32Z</time>
      </trkpt>
      <trkpt lat="45.48019" lon="6.02064">
        <ele>258.28</ele>
        <time>2018-09-09T14:56:33Z</time>
      </trkpt>
      <trkpt lat="45.47987" lon="6.02056">
        <ele>258</ele>
        <time>2018-09-09T14:56:34Z</time>
      </trkpt>
      <trkpt lat="45.47954" lon="6.02045">
        <ele>257.91</ele>
        <time>2018-09-09T14:56:35Z</time>
      </trkpt>
      <trkpt lat="45.47921" lon="6.02034">
        <ele>257.19</ele>
        <time>2018-09-09T14:56:36Z</time>
      </trkpt>
      <trkpt lat="45.47888" lon="6.02021">
        <ele>256.97</ele>
        <time>2018-09-09T14:56:37Z</time>
      </trkpt>
      <trkpt lat="45.47855" lon="6.02006">
        <ele>257.61</ele>
        <time>2018-09-09T14:56:38Z</time>
      </trkpt>
      <trkpt lat="45.47822" lon="6.01992">
        <ele>257.1</ele>
        <time>2018-09-09T14:56:39Z</time>
      </trkpt>
      <trkpt lat="45.47789" lon="6.01978">
        <ele>256.94</ele>
        <time>2018-09-09T14:56:40Z</time>
      </trkpt>
      <trkpt lat="45.47756" lon="6.01964">
        <ele>256.9</ele>
        <time>2018-09-09T14:56:41Z</time>
      </trkpt>
      <trkpt lat="45.47724" lon="6.0195">
        <ele>256.88</ele>
        <time>2018-09-09T14:56:42Z</time>
      </trkpt>
      <trkpt lat="45.47691" lon="6.01936">
        <ele>256.88</ele>
        <time>2018-09-09T14:56:43Z</time>
      </trkpt>
      <trkpt lat="45.47658" lon="6.01921">
        <ele>256.88</ele>
        <time>2018-09-09T14:56:44Z</time>
      </trkpt>
      <trkpt lat="45.47625" lon="6.01907">
        <ele>256.88</ele>
        <time>2018-09-09T14:56:45Z</time>
      </trkpt>
      <trkpt lat="45.47593" lon="6.01892">
        <ele>256.88</ele>
        <time>2018-09-09T14:56:46Z</time>
      </trkpt>
      <trkpt lat="45.4756" lon="6.01878">
        <ele>256.88</ele>
        <time>2018-09-09T14:56:47Z</time>
      </trkpt>
      <trkpt lat="45.47528" lon="6.01863">
        <ele>256.88</ele>
        <time>2018-09-09T14:56:48Z</time>
      </trkpt>
      <trkpt lat="45.47495" lon="6.01848">
        <ele>256.18</ele>
        <time>2018-09-09T14:56:49Z</time>
      </trkpt>
      <trkpt lat="45.47463" lon="6.01833">
        <ele>255.97</ele>
        <time>2018-09-09T14:56:50Z</time>
      </trkpt>
      <trkpt lat="45.4743" lon="6.01819">
        <ele>256.61</ele>
        <time>2018-09-09T14:56:51Z</time>
      </trkpt>
      <trkpt lat="45.47398" lon="6.01805">
        <ele>256.8</ele>
        <time>2018-09-09T14:56:52Z</time>
      </trkpt>
      <trkpt lat="45.47365" lon="6.0179">
        <ele>256.85</ele>
        <time>2018-09-09T14:56:53Z</time>
      </trkpt>
      <trkpt lat="45.47333" lon="6.01776">
        <ele>256.87</ele>
        <time>2018-09-09T14:56:54Z</time>
      </trkpt>
      <trkpt lat="45.47301" lon="6.0176">
        <ele>256.88</ele>
        <time>2018-09-09T14:56:55Z</time>
      </trkpt>
      <trkpt lat="45.47269" lon="6.01746">
        <ele>256.88</ele>
        <time>2018-09-09T14:56:56Z</time>
      </trkpt>
      <trkpt lat="45.47237" lon="6.01731">
        <ele>256.18</ele>
        <time>2018-09-09T14:56:57Z</time>
      </trkpt>
      <trkpt lat="45.47205" lon="6.01716">
        <ele>255.97</ele>
        <time>2018-09-09T14:56:58Z</time>
      </trkpt>
      <trkpt lat="45.47174" lon="6.01701">
        <ele>255.9</ele>
        <time>2018-09-09T14:56:59Z</time>
      </trkpt>
      <trkpt lat="45.47142" lon="6.01686">
        <ele>255.89</ele>
        <time>2018-09-09T14:57:00Z</time>
      </trkpt>
      <trkpt lat="45.47111" lon="6.01672">
        <ele>255.88</ele>
        <time>2018-09-09T14:57:01Z</time>
      </trkpt>
      <trkpt lat="45.4708" lon="6.01657">
        <ele>255.88</ele>
        <time>2018-09-09T14:57:02Z</time>
      </trkpt>
      <trkpt lat="45.47049" lon="6.01641">
        <ele>256.58</ele>
        <time>2018-09-09T14:57:03Z</time>
      </trkpt>
      <trkpt lat="45.47017" lon="6.01625">
        <ele>256.79</ele>
        <time>2018-09-09T14:57:04Z</time>
      </trkpt>
      <trkpt lat="45.46986" lon="6.01609">
        <ele>256.85</ele>
        <time>2018-09-09T14:57:05Z</time>
      </trkpt>
      <trkpt lat="45.46955" lon="6.01592">
        <ele>256.87</ele>
        <time>2018-09-09T14:57:06Z</time>
      </trkpt>
      <trkpt lat="45.46923" lon="6.01575">
        <ele>256.88</ele>
        <time>2018-09-09T14:57:07Z</time>
      </trkpt>
      <trkpt lat="45.46892" lon="6.01557">
        <ele>256.18</ele>
        <time>2018-09-09T14:57:08Z</time>
      </trkpt>
      <trkpt lat="45.46861" lon="6.0154">
        <ele>255.97</ele>
        <time>2018-09-09T14:57:09Z</time>
      </trkpt>
      <trkpt lat="45.46829" lon="6.01522">
        <ele>255.9</ele>
        <time>2018-09-09T14:57:10Z</time>
      </trkpt>
      <trkpt lat="45.46798" lon="6.01504">
        <ele>255.89</ele>
        <time>2018-09-09T14:57:11Z</time>
      </trkpt>
      <trkpt lat="45.46767" lon="6.01485">
        <ele>255.88</ele>
        <time>2018-09-09T14:57:12Z</time>
      </trkpt>
      <trkpt lat="45.46736" lon="6.01466">
        <ele>255.88</ele>
        <time>2018-09-09T14:57:13Z</time>
      </trkpt>
      <trkpt lat="45.46705" lon="6.01446">
        <ele>255.88</ele>
        <time>2018-09-09T14:57:14Z</time>
      </trkpt>
      <trkpt lat="45.46673" lon="6.01427">
        <ele>255.18</ele>
        <time>2018-09-09T14:57:15Z</time>
      </trkpt>
      <trkpt lat="45.46642" lon="6.01406">
        <ele>254.97</ele>
        <time>2018-09-09T14:57:16Z</time>
      </trkpt>
      <trkpt lat="45.4661" lon="6.01387">
        <ele>254.9</ele>
        <time>2018-09-09T14:57:17Z</time>
      </trkpt>
      <trkpt lat="45.46579" lon="6.01368">
        <ele>254.89</ele>
        <time>2018-09-09T14:57:18Z</time>
      </trkpt>
      <trkpt lat="45.46547" lon="6.01349">
        <ele>254.88</ele>
        <time>2018-09-09T14:57:19Z</time>
      </trkpt>
      <trkpt lat="45.46517" lon="6.01328">
        <ele>254.88</ele>
        <time>2018-09-09T14:57:20Z</time>
      </trkpt>
      <trkpt lat="45.46486" lon="6.01307">
        <ele>254.88</ele>
        <time>2018-09-09T14:57:21Z</time>
      </trkpt>
      <trkpt lat="45.46457" lon="6.01285">
        <ele>254.88</ele>
        <time>2018-09-09T14:57:22Z</time>
      </trkpt>
      <trkpt lat="45.46427" lon="6.01263">
        <ele>254.88</ele>
        <time>2018-09-09T14:57:23Z</time>
      </trkpt>
      <trkpt lat="45.46398" lon="6.01242">
        <ele>254.88</ele>
        <time>2018-09-09T14:57:24Z</time>
      </trkpt>
      <trkpt lat="45.46368" lon="6.01221">
        <ele>254.88</ele>
        <time>2018-09-09T14:57:25Z</time>
      </trkpt>
      <trkpt lat="45.46339" lon="6.012">
        <ele>254.88</ele>
        <time>2018-09-09T14:57:26Z</time>
      </trkpt>
      <trkpt lat="45.4631" lon="6.01179">
        <ele>254.88</ele>
        <time>2018-09-09T14:57:27Z</time>
      </trkpt>
      <trkpt lat="45.46281" lon="6.01158">
        <ele>254.88</ele>
        <time>2018-09-09T14:57:28Z</time>
      </trkpt>
      <trkpt lat="45.46251" lon="6.01136">
        <ele>254.88</ele>
        <time>2018-09-09T14:57:29Z</time>
      </trkpt>
      <trkpt lat="45.46222" lon="6.01114">
        <ele>254.18</ele>
        <time>2018-09-09T14:57:30Z</time>
      </trkpt>
      <trkpt lat="45.46192" lon="6.01092">
        <ele>254.67</ele>
        <time>2018-09-09T14:57:31Z</time>
      </trkpt>
      <trkpt lat="45.46162" lon="6.0107">
        <ele>254.82</ele>
        <time>2018-09-09T14:57:32Z</time>
      </trkpt>
      <trkpt lat="45.46133" lon="6.01047">
        <ele>254.86</ele>
        <time>2018-09-09T14:57:33Z</time>
      </trkpt>
      <trkpt lat="45.46104" lon="6.01025">
        <ele>255.57</ele>
        <time>2018-09-09T14:57:34Z</time>
      </trkpt>
      <trkpt lat="45.46074" lon="6.01003">
        <ele>255.09</ele>
        <time>2018-09-09T14:57:35Z</time>
      </trkpt>
      <trkpt lat="45.46045" lon="6.00982">
        <ele>254.94</ele>
        <time>2018-09-09T14:57:36Z</time>
      </trkpt>
      <trkpt lat="45.46015" lon="6.0096">
        <ele>254.9</ele>
        <time>2018-09-09T14:57:37Z</time>
      </trkpt>
      <trkpt lat="45.45986" lon="6.00938">
        <ele>254.88</ele>
        <time>2018-09-09T14:57:38Z</time>
      </trkpt>
      <trkpt lat="45.45957" lon="6.00917">
        <ele>254.88</ele>
        <time>2018-09-09T14:57:39Z</time>
      </trkpt>
      <trkpt lat="45.45928" lon="6.00896">
        <ele>254.88</ele>
        <time>2018-09-09T14:57:40Z</time>
      </trkpt>
      <trkpt lat="45.45899" lon="6.00874">
        <ele>254.88</ele>
        <time>2018-09-09T14:57:41Z</time>
      </trkpt>
      <trkpt lat="45.45871" lon="6.00853">
        <ele>254.88</ele>
        <time>2018-09-09T14:57:42Z</time>
      </trkpt>
      <trkpt lat="45.45842" lon="6.00831">
        <ele>254.88</ele>
        <time>2018-09-09T14:57:43Z</time>
      </trkpt>
      <trkpt lat="45.45814" lon="6.00809">
        <ele>255.58</ele>
        <time>2018-09-09T14:57:44Z</time>
      </trkpt>
      <trkpt lat="45.45785" lon="6.00788">
        <ele>255.79</ele>
        <time>2018-09-09T14:57:45Z</time>
      </trkpt>
      <trkpt lat="45.45756" lon="6.00766">
        <ele>255.85</ele>
        <time>2018-09-09T14:57:46Z</time>
      </trkpt>
      <trkpt lat="45.45727" lon="6.00745">
        <ele>255.87</ele>
        <time>2018-09-09T14:57:47Z</time>
      </trkpt>
      <trkpt lat="45.45698" lon="6.00724">
        <ele>255.88</ele>
        <time>2018-09-09T14:57:48Z</time>
      </trkpt>
      <trkpt lat="45.45669" lon="6.00702">
        <ele>255.88</ele>
        <time>2018-09-09T14:57:49Z</time>
      </trkpt>
      <trkpt lat="45.4564" lon="6.00681">
        <ele>255.88</ele>
        <time>2018-09-09T14:57:50Z</time>
      </trkpt>
      <trkpt lat="45.45611" lon="6.0066">
        <ele>255.88</ele>
        <time>2018-09-09T14:57:51Z</time>
      </trkpt>
      <trkpt lat="45.45581" lon="6.00639">
        <ele>255.88</ele>
        <time>2018-09-09T14:57:52Z</time>
      </trkpt>
      <trkpt lat="45.45552" lon="6.00618">
        <ele>255.88</ele>
        <time>2018-09-09T14:57:53Z</time>
      </trkpt>
      <trkpt lat="45.45522" lon="6.00599">
        <ele>255.88</ele>
        <time>2018-09-09T14:57:54Z</time>
      </trkpt>
      <trkpt lat="45.45493" lon="6.00578">
        <ele>255.88</ele>
        <time>2018-09-09T14:57:55Z</time>
      </trkpt>
      <trkpt lat="45.45463" lon="6.00559">
        <ele>255.88</ele>
        <time>2018-09-09T14:57:56Z</time>
      </trkpt>
      <trkpt lat="45.45433" lon="6.00541">
        <ele>255.18</ele>
        <time>2018-09-09T14:57:57Z</time>
      </trkpt>
      <trkpt lat="45.45404" lon="6.00523">
        <ele>254.97</ele>
        <time>2018-09-09T14:57:58Z</time>
      </trkpt>
      <trkpt lat="45.45375" lon="6.00506">
        <ele>254.9</ele>
        <time>2018-09-09T14:57:59Z</time>
      </trkpt>
      <trkpt lat="45.45346" lon="6.0049">
        <ele>254.89</ele>
        <time>2018-09-09T14:58:00Z</time>
      </trkpt>
      <trkpt lat="45.45316" lon="6.00474">
        <ele>254.88</ele>
        <time>2018-09-09T14:58:01Z</time>
      </trkpt>
      <trkpt lat="45.45287" lon="6.00459">
        <ele>254.88</ele>
        <time>2018-09-09T14:58:02Z</time>
      </trkpt>
      <trkpt lat="45.45258" lon="6.00444">
        <ele>254.88</ele>
        <time>2018-09-09T14:58:03Z</time>
      </trkpt>
      <trkpt lat="45.45229" lon="6.0043">
        <ele>254.88</ele>
        <time>2018-09-09T14:58:04Z</time>
      </trkpt>
      <trkpt lat="45.452" lon="6.00417">
        <ele>254.88</ele>
        <time>2018-09-09T14:58:05Z</time>
      </trkpt>
      <trkpt lat="45.45172" lon="6.00406">
        <ele>254.88</ele>
        <time>2018-09-09T14:58:06Z</time>
      </trkpt>
      <trkpt lat="45.45142" lon="6.00395">
        <ele>254.88</ele>
        <time>2018-09-09T14:58:07Z</time>
      </trkpt>
      <trkpt lat="45.45113" lon="6.00385">
        <ele>254.88</ele>
        <time>2018-09-09T14:58:08Z</time>
      </trkpt>
      <trkpt lat="45.45083" lon="6.00375">
        <ele>254.88</ele>
        <time>2018-09-09T14:58:09Z</time>
      </trkpt>
      <trkpt lat="45.45052" lon="6.00366">
        <ele>254.88</ele>
        <time>2018-09-09T14:58:10Z</time>
      </trkpt>
      <trkpt lat="45.45022" lon="6.00357">
        <ele>254.18</ele>
        <time>2018-09-09T14:58:11Z</time>
      </trkpt>
      <trkpt lat="45.44992" lon="6.00348">
        <ele>253.97</ele>
        <time>2018-09-09T14:58:12Z</time>
      </trkpt>
      <trkpt lat="45.44961" lon="6.00339">
        <ele>253.9</ele>
        <time>2018-09-09T14:58:13Z</time>
      </trkpt>
      <trkpt lat="45.44929" lon="6.00332">
        <ele>253.89</ele>
        <time>2018-09-09T14:58:14Z</time>
      </trkpt>
      <trkpt lat="45.44898" lon="6.00326">
        <ele>253.88</ele>
        <time>2018-09-09T14:58:15Z</time>
      </trkpt>
      <trkpt lat="45.44866" lon="6.00321">
        <ele>253.18</ele>
        <time>2018-09-09T14:58:16Z</time>
      </trkpt>
      <trkpt lat="45.44834" lon="6.00316">
        <ele>252.97</ele>
        <time>2018-09-09T14:58:17Z</time>
      </trkpt>
      <trkpt lat="45.44801" lon="6.00312">
        <ele>252.91</ele>
        <time>2018-09-09T14:58:18Z</time>
      </trkpt>
      <trkpt lat="45.44769" lon="6.0031">
        <ele>252.89</ele>
        <time>2018-09-09T14:58:19Z</time>
      </trkpt>
      <trkpt lat="45.44736" lon="6.00308">
        <ele>252.88</ele>
        <time>2018-09-09T14:58:20Z</time>
      </trkpt>
      <trkpt lat="45.44703" lon="6.00307">
        <ele>252.88</ele>
        <time>2018-09-09T14:58:21Z</time>
      </trkpt>
      <trkpt lat="45.4467" lon="6.00307">
        <ele>252.88</ele>
        <time>2018-09-09T14:58:22Z</time>
      </trkpt>
      <trkpt lat="45.44637" lon="6.00307">
        <ele>252.88</ele>
        <time>2018-09-09T14:58:23Z</time>
      </trkpt>
      <trkpt lat="45.44605" lon="6.00309">
        <ele>252.88</ele>
        <time>2018-09-09T14:58:24Z</time>
      </trkpt>
      <trkpt lat="45.44572" lon="6.00312">
        <ele>252.88</ele>
        <time>2018-09-09T14:58:25Z</time>
      </trkpt>
      <trkpt lat="45.4454" lon="6.00315">
        <ele>252.88</ele>
        <time>2018-09-09T14:58:26Z</time>
      </trkpt>
      <trkpt lat="45.44507" lon="6.00318">
        <ele>252.88</ele>
        <time>2018-09-09T14:58:27Z</time>
      </trkpt>
      <trkpt lat="45.44474" lon="6.00322">
        <ele>252.88</ele>
        <time>2018-09-09T14:58:28Z</time>
      </trkpt>
      <trkpt lat="45.44441" lon="6.00324">
        <ele>252.88</ele>
        <time>2018-09-09T14:58:29Z</time>
      </trkpt>
      <trkpt lat="45.44408" lon="6.00328">
        <ele>252.18</ele>
        <time>2018-09-09T14:58:30Z</time>
      </trkpt>
      <trkpt lat="45.44375" lon="6.00332">
        <ele>252.67</ele>
        <time>2018-09-09T14:58:31Z</time>
      </trkpt>
      <trkpt lat="45.44343" lon="6.00336">
        <ele>252.82</ele>
        <time>2018-09-09T14:58:32Z</time>
      </trkpt>
      <trkpt lat="45.4431" lon="6.00341">
        <ele>252.86</ele>
        <time>2018-09-09T14:58:33Z</time>
      </trkpt>
      <trkpt lat="45.44277" lon="6.00347">
        <ele>252.87</ele>
        <time>2018-09-09T14:58:34Z</time>
      </trkpt>
      <trkpt lat="45.44244" lon="6.00351">
        <ele>252.88</ele>
        <time>2018-09-09T14:58:35Z</time>
      </trkpt>
      <trkpt lat="45.44211" lon="6.00355">
        <ele>253.58</ele>
        <time>2018-09-09T14:58:36Z</time>
      </trkpt>
      <trkpt lat="45.44178" lon="6.0036">
        <ele>253.79</ele>
        <time>2018-09-09T14:58:37Z</time>
      </trkpt>
      <trkpt lat="45.44144" lon="6.00363">
        <ele>253.85</ele>
        <time>2018-09-09T14:58:38Z</time>
      </trkpt>
      <trkpt lat="45.44111" lon="6.00366">
        <ele>253.87</ele>
        <time>2018-09-09T14:58:39Z</time>
      </trkpt>
      <trkpt lat="45.44078" lon="6.00367">
        <ele>254.58</ele>
        <time>2018-09-09T14:58:40Z</time>
      </trkpt>
      <trkpt lat="45.44045" lon="6.00368">
        <ele>254.79</ele>
        <time>2018-09-09T14:58:41Z</time>
      </trkpt>
      <trkpt lat="45.44012" lon="6.00368">
        <ele>254.85</ele>
        <time>2018-09-09T14:58:42Z</time>
      </trkpt>
      <trkpt lat="45.4398" lon="6.00368">
        <ele>254.87</ele>
        <time>2018-09-09T14:58:43Z</time>
      </trkpt>
      <trkpt lat="45.43947" lon="6.00368">
        <ele>255.58</ele>
        <time>2018-09-09T14:58:44Z</time>
      </trkpt>
      <trkpt lat="45.43915" lon="6.00365">
        <ele>255.79</ele>
        <time>2018-09-09T14:58:45Z</time>
      </trkpt>
      <trkpt lat="45.43883" lon="6.00362">
        <ele>255.85</ele>
        <time>2018-09-09T14:58:46Z</time>
      </trkpt>
      <trkpt lat="45.43851" lon="6.00358">
        <ele>255.87</ele>
        <time>2018-09-09T14:58:47Z</time>
      </trkpt>
      <trkpt lat="45.4382" lon="6.00352">
        <ele>256.58</ele>
        <time>2018-09-09T14:58:48Z</time>
      </trkpt>
      <trkpt lat="45.43788" lon="6.00346">
        <ele>256.79</ele>
        <time>2018-09-09T14:58:49Z</time>
      </trkpt>
      <trkpt lat="45.43757" lon="6.0034">
        <ele>256.85</ele>
        <time>2018-09-09T14:58:50Z</time>
      </trkpt>
      <trkpt lat="45.43726" lon="6.00334">
        <ele>256.87</ele>
        <time>2018-09-09T14:58:51Z</time>
      </trkpt>
      <trkpt lat="45.43695" lon="6.00326">
        <ele>256.88</ele>
        <time>2018-09-09T14:58:52Z</time>
      </trkpt>
      <trkpt lat="45.43663" lon="6.00318">
        <ele>257.58</ele>
        <time>2018-09-09T14:58:53Z</time>
      </trkpt>
      <trkpt lat="45.43632" lon="6.00309">
        <ele>257.79</ele>
        <time>2018-09-09T14:58:54Z</time>
      </trkpt>
      <trkpt lat="45.43601" lon="6.00298">
        <ele>257.15</ele>
        <time>2018-09-09T14:58:55Z</time>
      </trkpt>
      <trkpt lat="45.4357" lon="6.00287">
        <ele>256.96</ele>
        <time>2018-09-09T14:58:56Z</time>
      </trkpt>
      <trkpt lat="45.43539" lon="6.00276">
        <ele>256.9</ele>
        <time>2018-09-09T14:58:57Z</time>
      </trkpt>
      <trkpt lat="45.43508" lon="6.00264">
        <ele>256.89</ele>
        <time>2018-09-09T14:58:58Z</time>
      </trkpt>
      <trkpt lat="45.43477" lon="6.00252">
        <ele>256.18</ele>
        <time>2018-09-09T14:58:59Z</time>
      </trkpt>
      <trkpt lat="45.43447" lon="6.00239">
        <ele>255.27</ele>
        <time>2018-09-09T14:59:00Z</time>
      </trkpt>
      <trkpt lat="45.43416" lon="6.00225">
        <ele>255</ele>
        <time>2018-09-09T14:59:01Z</time>
      </trkpt>
      <trkpt lat="45.43385" lon="6.00212">
        <ele>254.91</ele>
        <time>2018-09-09T14:59:02Z</time>
      </trkpt>
      <trkpt lat="45.43354" lon="6.00197">
        <ele>254.19</ele>
        <time>2018-09-09T14:59:03Z</time>
      </trkpt>
      <trkpt lat="45.43324" lon="6.00182">
        <ele>253.97</ele>
        <time>2018-09-09T14:59:04Z</time>
      </trkpt>
      <trkpt lat="45.43294" lon="6.00166">
        <ele>253.91</ele>
        <time>2018-09-09T14:59:05Z</time>
      </trkpt>
      <trkpt lat="45.43263" lon="6.00151">
        <ele>253.19</ele>
        <time>2018-09-09T14:59:06Z</time>
      </trkpt>
      <trkpt lat="45.43233" lon="6.00134">
        <ele>252.97</ele>
        <time>2018-09-09T14:59:07Z</time>
      </trkpt>
      <trkpt lat="45.43204" lon="6.00117">
        <ele>252.91</ele>
        <time>2018-09-09T14:59:08Z</time>
      </trkpt>
      <trkpt lat="45.43174" lon="6.00101">
        <ele>252.19</ele>
        <time>2018-09-09T14:59:09Z</time>
      </trkpt>
      <trkpt lat="45.43145" lon="6.00084">
        <ele>252.67</ele>
        <time>2018-09-09T14:59:10Z</time>
      </trkpt>
      <trkpt lat="45.43115" lon="6.00068">
        <ele>252.12</ele>
        <time>2018-09-09T14:59:11Z</time>
      </trkpt>
      <trkpt lat="45.43086" lon="6.00051">
        <ele>251.25</ele>
        <time>2018-09-09T14:59:12Z</time>
      </trkpt>
      <trkpt lat="45.43056" lon="6.00034">
        <ele>250.99</ele>
        <time>2018-09-09T14:59:13Z</time>
      </trkpt>
      <trkpt lat="45.43026" lon="6.00017">
        <ele>250.91</ele>
        <time>2018-09-09T14:59:14Z</time>
      </trkpt>
      <trkpt lat="45.42996" lon="6">
        <ele>250.19</ele>
        <time>2018-09-09T14:59:15Z</time>
      </trkpt>
      <trkpt lat="45.42966" lon="5.99984">
        <ele>249.97</ele>
        <time>2018-09-09T14:59:16Z</time>
      </trkpt>
      <trkpt lat="45.42936" lon="5.99968">
        <ele>249.91</ele>
        <time>2018-09-09T14:59:17Z</time>
      </trkpt>
      <trkpt lat="45.42906" lon="5.99952">
        <ele>250.59</ele>
        <time>2018-09-09T14:59:18Z</time>
      </trkpt>
      <trkpt lat="45.42876" lon="5.99936">
        <ele>250.79</ele>
        <time>2018-09-09T14:59:19Z</time>
      </trkpt>
      <trkpt lat="45.42845" lon="5.99922">
        <ele>250.15</ele>
        <time>2018-09-09T14:59:20Z</time>
      </trkpt>
      <trkpt lat="45.42815" lon="5.99908">
        <ele>249.96</ele>
        <time>2018-09-09T14:59:21Z</time>
      </trkpt>
      <trkpt lat="45.42784" lon="5.99893">
        <ele>249.9</ele>
        <time>2018-09-09T14:59:22Z</time>
      </trkpt>
      <trkpt lat="45.42754" lon="5.99879">
        <ele>249.89</ele>
        <time>2018-09-09T14:59:23Z</time>
      </trkpt>
      <trkpt lat="45.42723" lon="5.99866">
        <ele>249.88</ele>
        <time>2018-09-09T14:59:24Z</time>
      </trkpt>
      <trkpt lat="45.42691" lon="5.99854">
        <ele>249.88</ele>
        <time>2018-09-09T14:59:25Z</time>
      </trkpt>
      <trkpt lat="45.42659" lon="5.99843">
        <ele>249.18</ele>
        <time>2018-09-09T14:59:26Z</time>
      </trkpt>
      <trkpt lat="45.42627" lon="5.99832">
        <ele>248.97</ele>
        <time>2018-09-09T14:59:27Z</time>
      </trkpt>
      <trkpt lat="45.42595" lon="5.99822">
        <ele>248.91</ele>
        <time>2018-09-09T14:59:28Z</time>
      </trkpt>
      <trkpt lat="45.42563" lon="5.99812">
        <ele>248.89</ele>
        <time>2018-09-09T14:59:29Z</time>
      </trkpt>
      <trkpt lat="45.42532" lon="5.99804">
        <ele>248.88</ele>
        <time>2018-09-09T14:59:30Z</time>
      </trkpt>
      <trkpt lat="45.425" lon="5.99797">
        <ele>248.88</ele>
        <time>2018-09-09T14:59:31Z</time>
      </trkpt>
      <trkpt lat="45.42467" lon="5.99791">
        <ele>248.88</ele>
        <time>2018-09-09T14:59:32Z</time>
      </trkpt>
      <trkpt lat="45.42436" lon="5.99785">
        <ele>249.58</ele>
        <time>2018-09-09T14:59:33Z</time>
      </trkpt>
      <trkpt lat="45.42403" lon="5.9978">
        <ele>249.79</ele>
        <time>2018-09-09T14:59:34Z</time>
      </trkpt>
      <trkpt lat="45.42371" lon="5.99776">
        <ele>250.55</ele>
        <time>2018-09-09T14:59:35Z</time>
      </trkpt>
      <trkpt lat="45.42339" lon="5.99775">
        <ele>250.78</ele>
        <time>2018-09-09T14:59:36Z</time>
      </trkpt>
      <trkpt lat="45.42307" lon="5.99774">
        <ele>250.15</ele>
        <time>2018-09-09T14:59:37Z</time>
      </trkpt>
      <trkpt lat="45.42274" lon="5.99772">
        <ele>249.96</ele>
        <time>2018-09-09T14:59:38Z</time>
      </trkpt>
      <trkpt lat="45.42242" lon="5.99772">
        <ele>249.9</ele>
        <time>2018-09-09T14:59:39Z</time>
      </trkpt>
      <trkpt lat="45.4221" lon="5.99774">
        <ele>249.89</ele>
        <time>2018-09-09T14:59:40Z</time>
      </trkpt>
      <trkpt lat="45.42178" lon="5.99776">
        <ele>249.88</ele>
        <time>2018-09-09T14:59:41Z</time>
      </trkpt>
      <trkpt lat="45.42146" lon="5.99779">
        <ele>249.88</ele>
        <time>2018-09-09T14:59:42Z</time>
      </trkpt>
      <trkpt lat="45.42114" lon="5.99783">
        <ele>249.88</ele>
        <time>2018-09-09T14:59:43Z</time>
      </trkpt>
      <trkpt lat="45.42083" lon="5.99788">
        <ele>249.88</ele>
        <time>2018-09-09T14:59:44Z</time>
      </trkpt>
      <trkpt lat="45.42051" lon="5.99792">
        <ele>249.88</ele>
        <time>2018-09-09T14:59:45Z</time>
      </trkpt>
      <trkpt lat="45.4202" lon="5.99799">
        <ele>249.18</ele>
        <time>2018-09-09T14:59:46Z</time>
      </trkpt>
      <trkpt lat="45.41989" lon="5.99805">
        <ele>248.97</ele>
        <time>2018-09-09T14:59:47Z</time>
      </trkpt>
      <trkpt lat="45.41958" lon="5.99811">
        <ele>248.9</ele>
        <time>2018-09-09T14:59:48Z</time>
      </trkpt>
      <trkpt lat="45.41927" lon="5.99818">
        <ele>248.89</ele>
        <time>2018-09-09T14:59:49Z</time>
      </trkpt>
      <trkpt lat="45.41896" lon="5.99825">
        <ele>248.88</ele>
        <time>2018-09-09T14:59:50Z</time>
      </trkpt>
      <trkpt lat="45.41866" lon="5.99832">
        <ele>248.88</ele>
        <time>2018-09-09T14:59:51Z</time>
      </trkpt>
      <trkpt lat="45.41835" lon="5.9984">
        <ele>248.88</ele>
        <time>2018-09-09T14:59:52Z</time>
      </trkpt>
      <trkpt lat="45.41805" lon="5.99847">
        <ele>248.88</ele>
        <time>2018-09-09T14:59:53Z</time>
      </trkpt>
      <trkpt lat="45.41774" lon="5.99854">
        <ele>248.88</ele>
        <time>2018-09-09T14:59:54Z</time>
      </trkpt>
      <trkpt lat="45.41743" lon="5.99862">
        <ele>248.88</ele>
        <time>2018-09-09T14:59:55Z</time>
      </trkpt>
      <trkpt lat="45.41712" lon="5.9987">
        <ele>248.88</ele>
        <time>2018-09-09T14:59:56Z</time>
      </trkpt>
      <trkpt lat="45.4168" lon="5.99877">
        <ele>248.88</ele>
        <time>2018-09-09T14:59:57Z</time>
      </trkpt>
      <trkpt lat="45.41649" lon="5.99885">
        <ele>248.88</ele>
        <time>2018-09-09T14:59:58Z</time>
      </trkpt>
      <trkpt lat="45.41616" lon="5.99892">
        <ele>248.88</ele>
        <time>2018-09-09T14:59:59Z</time>
      </trkpt>
      <trkpt lat="45.41584" lon="5.99899">
        <ele>248.88</ele>
        <time>2018-09-09T15:00:00Z</time>
      </trkpt>
      <trkpt lat="45.41552" lon="5.99905">
        <ele>248.18</ele>
        <time>2018-09-09T15:00:01Z</time>
      </trkpt>
      <trkpt lat="45.4152" lon="5.99911">
        <ele>247.97</ele>
        <time>2018-09-09T15:00:02Z</time>
      </trkpt>
      <trkpt lat="45.41488" lon="5.99917">
        <ele>247.9</ele>
        <time>2018-09-09T15:00:03Z</time>
      </trkpt>
      <trkpt lat="45.41456" lon="5.99921">
        <ele>247.89</ele>
        <time>2018-09-09T15:00:04Z</time>
      </trkpt>
      <trkpt lat="45.41424" lon="5.99924">
        <ele>247.88</ele>
        <time>2018-09-09T15:00:05Z</time>
      </trkpt>
      <trkpt lat="45.41392" lon="5.99927">
        <ele>247.88</ele>
        <time>2018-09-09T15:00:06Z</time>
      </trkpt>
      <trkpt lat="45.41359" lon="5.99928">
        <ele>247.88</ele>
        <time>2018-09-09T15:00:07Z</time>
      </trkpt>
      <trkpt lat="45.41327" lon="5.99928">
        <ele>247.88</ele>
        <time>2018-09-09T15:00:08Z</time>
      </trkpt>
      <trkpt lat="45.41294" lon="5.99928">
        <ele>247.88</ele>
        <time>2018-09-09T15:00:09Z</time>
      </trkpt>
      <trkpt lat="45.41261" lon="5.99928">
        <ele>247.18</ele>
        <time>2018-09-09T15:00:10Z</time>
      </trkpt>
      <trkpt lat="45.41228" lon="5.99927">
        <ele>246.97</ele>
        <time>2018-09-09T15:00:11Z</time>
      </trkpt>
      <trkpt lat="45.41195" lon="5.99925">
        <ele>246.9</ele>
        <time>2018-09-09T15:00:12Z</time>
      </trkpt>
      <trkpt lat="45.41162" lon="5.99922">
        <ele>246.89</ele>
        <time>2018-09-09T15:00:13Z</time>
      </trkpt>
      <trkpt lat="45.41129" lon="5.99919">
        <ele>246.88</ele>
        <time>2018-09-09T15:00:14Z</time>
      </trkpt>
      <trkpt lat="45.41096" lon="5.99914">
        <ele>246.88</ele>
        <time>2018-09-09T15:00:15Z</time>
      </trkpt>
      <trkpt lat="45.41063" lon="5.99909">
        <ele>246.88</ele>
        <time>2018-09-09T15:00:16Z</time>
      </trkpt>
      <trkpt lat="45.4103" lon="5.99902">
        <ele>246.88</ele>
        <time>2018-09-09T15:00:17Z</time>
      </trkpt>
      <trkpt lat="45.40997" lon="5.99894">
        <ele>246.88</ele>
        <time>2018-09-09T15:00:18Z</time>
      </trkpt>
      <trkpt lat="45.40965" lon="5.99886">
        <ele>246.88</ele>
        <time>2018-09-09T15:00:19Z</time>
      </trkpt>
      <trkpt lat="45.40932" lon="5.99877">
        <ele>246.18</ele>
        <time>2018-09-09T15:00:20Z</time>
      </trkpt>
      <trkpt lat="45.40899" lon="5.99868">
        <ele>246.67</ele>
        <time>2018-09-09T15:00:21Z</time>
      </trkpt>
      <trkpt lat="45.40866" lon="5.99857">
        <ele>246.82</ele>
        <time>2018-09-09T15:00:22Z</time>
      </trkpt>
      <trkpt lat="45.40834" lon="5.99846">
        <ele>246.86</ele>
        <time>2018-09-09T15:00:23Z</time>
      </trkpt>
      <trkpt lat="45.40802" lon="5.99834">
        <ele>246.87</ele>
        <time>2018-09-09T15:00:24Z</time>
      </trkpt>
      <trkpt lat="45.40771" lon="5.99822">
        <ele>246.88</ele>
        <time>2018-09-09T15:00:25Z</time>
      </trkpt>
      <trkpt lat="45.40739" lon="5.99808">
        <ele>246.88</ele>
        <time>2018-09-09T15:00:26Z</time>
      </trkpt>
      <trkpt lat="45.40709" lon="5.99793">
        <ele>246.88</ele>
        <time>2018-09-09T15:00:27Z</time>
      </trkpt>
      <trkpt lat="45.40678" lon="5.99778">
        <ele>246.88</ele>
        <time>2018-09-09T15:00:28Z</time>
      </trkpt>
      <trkpt lat="45.40648" lon="5.99762">
        <ele>246.88</ele>
        <time>2018-09-09T15:00:29Z</time>
      </trkpt>
      <trkpt lat="45.40617" lon="5.99745">
        <ele>246.88</ele>
        <time>2018-09-09T15:00:30Z</time>
      </trkpt>
      <trkpt lat="45.40587" lon="5.99728">
        <ele>246.88</ele>
        <time>2018-09-09T15:00:31Z</time>
      </trkpt>
      <trkpt lat="45.40557" lon="5.9971">
        <ele>246.88</ele>
        <time>2018-09-09T15:00:32Z</time>
      </trkpt>
      <trkpt lat="45.40527" lon="5.99691">
        <ele>246.88</ele>
        <time>2018-09-09T15:00:33Z</time>
      </trkpt>
      <trkpt lat="45.40498" lon="5.99672">
        <ele>246.88</ele>
        <time>2018-09-09T15:00:34Z</time>
      </trkpt>
      <trkpt lat="45.40469" lon="5.99653">
        <ele>246.18</ele>
        <time>2018-09-09T15:00:35Z</time>
      </trkpt>
      <trkpt lat="45.40439" lon="5.99633">
        <ele>245.97</ele>
        <time>2018-09-09T15:00:36Z</time>
      </trkpt>
      <trkpt lat="45.4041" lon="5.99613">
        <ele>245.9</ele>
        <time>2018-09-09T15:00:37Z</time>
      </trkpt>
      <trkpt lat="45.4038" lon="5.99593">
        <ele>245.89</ele>
        <time>2018-09-09T15:00:38Z</time>
      </trkpt>
      <trkpt lat="45.4035" lon="5.99573">
        <ele>245.88</ele>
        <time>2018-09-09T15:00:39Z</time>
      </trkpt>
      <trkpt lat="45.40321" lon="5.99551">
        <ele>245.88</ele>
        <time>2018-09-09T15:00:40Z</time>
      </trkpt>
      <trkpt lat="45.40292" lon="5.9953">
        <ele>245.18</ele>
        <time>2018-09-09T15:00:41Z</time>
      </trkpt>
      <trkpt lat="45.40262" lon="5.99509">
        <ele>245.67</ele>
        <time>2018-09-09T15:00:42Z</time>
      </trkpt>
      <trkpt lat="45.40233" lon="5.99487">
        <ele>245.82</ele>
        <time>2018-09-09T15:00:43Z</time>
      </trkpt>
      <trkpt lat="45.40203" lon="5.99466">
        <ele>245.86</ele>
        <time>2018-09-09T15:00:44Z</time>
      </trkpt>
      <trkpt lat="45.40173" lon="5.99445">
        <ele>245.17</ele>
        <time>2018-09-09T15:00:45Z</time>
      </trkpt>
      <trkpt lat="45.40144" lon="5.99425">
        <ele>245.67</ele>
        <time>2018-09-09T15:00:46Z</time>
      </trkpt>
      <trkpt lat="45.40114" lon="5.99404">
        <ele>245.81</ele>
        <time>2018-09-09T15:00:47Z</time>
      </trkpt>
      <trkpt lat="45.40084" lon="5.99383">
        <ele>245.86</ele>
        <time>2018-09-09T15:00:48Z</time>
      </trkpt>
      <trkpt lat="45.40055" lon="5.99363">
        <ele>245.17</ele>
        <time>2018-09-09T15:00:49Z</time>
      </trkpt>
      <trkpt lat="45.40025" lon="5.99343">
        <ele>245.67</ele>
        <time>2018-09-09T15:00:50Z</time>
      </trkpt>
      <trkpt lat="45.39996" lon="5.99322">
        <ele>245.81</ele>
        <time>2018-09-09T15:00:51Z</time>
      </trkpt>
      <trkpt lat="45.39966" lon="5.99301">
        <ele>245.86</ele>
        <time>2018-09-09T15:00:52Z</time>
      </trkpt>
      <trkpt lat="45.39937" lon="5.99281">
        <ele>245.17</ele>
        <time>2018-09-09T15:00:53Z</time>
      </trkpt>
      <trkpt lat="45.39908" lon="5.99261">
        <ele>244.97</ele>
        <time>2018-09-09T15:00:54Z</time>
      </trkpt>
      <trkpt lat="45.39878" lon="5.99241">
        <ele>244.9</ele>
        <time>2018-09-09T15:00:55Z</time>
      </trkpt>
      <trkpt lat="45.39849" lon="5.99221">
        <ele>244.89</ele>
        <time>2018-09-09T15:00:56Z</time>
      </trkpt>
      <trkpt lat="45.3982" lon="5.99201">
        <ele>244.88</ele>
        <time>2018-09-09T15:00:57Z</time>
      </trkpt>
      <trkpt lat="45.39791" lon="5.99181">
        <ele>244.88</ele>
        <time>2018-09-09T15:00:58Z</time>
      </trkpt>
      <trkpt lat="45.39762" lon="5.99162">
        <ele>244.88</ele>
        <time>2018-09-09T15:00:59Z</time>
      </trkpt>
      <trkpt lat="45.39733" lon="5.99142">
        <ele>244.18</ele>
        <time>2018-09-09T15:01:00Z</time>
      </trkpt>
      <trkpt lat="45.39703" lon="5.99123">
        <ele>243.97</ele>
        <time>2018-09-09T15:01:01Z</time>
      </trkpt>
      <trkpt lat="45.39675" lon="5.99104">
        <ele>243.9</ele>
        <time>2018-09-09T15:01:02Z</time>
      </trkpt>
      <trkpt lat="45.39646" lon="5.99085">
        <ele>243.89</ele>
        <time>2018-09-09T15:01:03Z</time>
      </trkpt>
      <trkpt lat="45.39616" lon="5.99066">
        <ele>243.88</ele>
        <time>2018-09-09T15:01:04Z</time>
      </trkpt>
      <trkpt lat="45.39588" lon="5.99046">
        <ele>243.18</ele>
        <time>2018-09-09T15:01:05Z</time>
      </trkpt>
      <trkpt lat="45.39559" lon="5.99026">
        <ele>243.67</ele>
        <time>2018-09-09T15:01:06Z</time>
      </trkpt>
      <trkpt lat="45.3953" lon="5.99007">
        <ele>243.82</ele>
        <time>2018-09-09T15:01:07Z</time>
      </trkpt>
      <trkpt lat="45.39502" lon="5.98988">
        <ele>243.86</ele>
        <time>2018-09-09T15:01:08Z</time>
      </trkpt>
      <trkpt lat="45.39473" lon="5.98968">
        <ele>243.87</ele>
        <time>2018-09-09T15:01:09Z</time>
      </trkpt>
      <trkpt lat="45.39445" lon="5.98949">
        <ele>243.88</ele>
        <time>2018-09-09T15:01:10Z</time>
      </trkpt>
      <trkpt lat="45.39416" lon="5.98929">
        <ele>243.18</ele>
        <time>2018-09-09T15:01:11Z</time>
      </trkpt>
      <trkpt lat="45.39387" lon="5.9891">
        <ele>243.67</ele>
        <time>2018-09-09T15:01:12Z</time>
      </trkpt>
      <trkpt lat="45.39358" lon="5.9889">
        <ele>243.11</ele>
        <time>2018-09-09T15:01:13Z</time>
      </trkpt>
      <trkpt lat="45.39329" lon="5.98871">
        <ele>243.65</ele>
        <time>2018-09-09T15:01:14Z</time>
      </trkpt>
      <trkpt lat="45.39299" lon="5.98852">
        <ele>243.81</ele>
        <time>2018-09-09T15:01:15Z</time>
      </trkpt>
      <trkpt lat="45.39269" lon="5.98833">
        <ele>243.86</ele>
        <time>2018-09-09T15:01:16Z</time>
      </trkpt>
      <trkpt lat="45.3924" lon="5.98814">
        <ele>243.17</ele>
        <time>2018-09-09T15:01:17Z</time>
      </trkpt>
      <trkpt lat="45.39211" lon="5.98795">
        <ele>242.97</ele>
        <time>2018-09-09T15:01:18Z</time>
      </trkpt>
      <trkpt lat="45.39182" lon="5.98775">
        <ele>242.9</ele>
        <time>2018-09-09T15:01:19Z</time>
      </trkpt>
      <trkpt lat="45.39153" lon="5.98756">
        <ele>242.89</ele>
        <time>2018-09-09T15:01:20Z</time>
      </trkpt>
      <trkpt lat="45.39125" lon="5.98736">
        <ele>242.88</ele>
        <time>2018-09-09T15:01:21Z</time>
      </trkpt>
      <trkpt lat="45.39095" lon="5.98716">
        <ele>242.88</ele>
        <time>2018-09-09T15:01:22Z</time>
      </trkpt>
      <trkpt lat="45.39066" lon="5.98697">
        <ele>242.88</ele>
        <time>2018-09-09T15:01:23Z</time>
      </trkpt>
      <trkpt lat="45.39037" lon="5.98677">
        <ele>242.88</ele>
        <time>2018-09-09T15:01:24Z</time>
      </trkpt>
      <trkpt lat="45.39008" lon="5.98658">
        <ele>242.88</ele>
        <time>2018-09-09T15:01:25Z</time>
      </trkpt>
      <trkpt lat="45.3898" lon="5.98638">
        <ele>242.88</ele>
        <time>2018-09-09T15:01:26Z</time>
      </trkpt>
      <trkpt lat="45.3895" lon="5.98618">
        <ele>242.88</ele>
        <time>2018-09-09T15:01:27Z</time>
      </trkpt>
      <trkpt lat="45.38921" lon="5.98598">
        <ele>242.18</ele>
        <time>2018-09-09T15:01:28Z</time>
      </trkpt>
      <trkpt lat="45.38892" lon="5.98579">
        <ele>241.97</ele>
        <time>2018-09-09T15:01:29Z</time>
      </trkpt>
      <trkpt lat="45.38863" lon="5.98559">
        <ele>242.6</ele>
        <time>2018-09-09T15:01:30Z</time>
      </trkpt>
      <trkpt lat="45.38834" lon="5.9854">
        <ele>242.8</ele>
        <time>2018-09-09T15:01:31Z</time>
      </trkpt>
      <trkpt lat="45.38805" lon="5.98521">
        <ele>242.85</ele>
        <time>2018-09-09T15:01:32Z</time>
      </trkpt>
      <trkpt lat="45.38776" lon="5.98501">
        <ele>242.17</ele>
        <time>2018-09-09T15:01:33Z</time>
      </trkpt>
      <trkpt lat="45.38748" lon="5.98482">
        <ele>242.67</ele>
        <time>2018-09-09T15:01:34Z</time>
      </trkpt>
      <trkpt lat="45.38719" lon="5.98463">
        <ele>242.11</ele>
        <time>2018-09-09T15:01:35Z</time>
      </trkpt>
      <trkpt lat="45.38689" lon="5.98444">
        <ele>241.95</ele>
        <time>2018-09-09T15:01:36Z</time>
      </trkpt>
      <trkpt lat="45.38661" lon="5.98424">
        <ele>241.9</ele>
        <time>2018-09-09T15:01:37Z</time>
      </trkpt>
      <trkpt lat="45.38631" lon="5.98405">
        <ele>241.88</ele>
        <time>2018-09-09T15:01:38Z</time>
      </trkpt>
      <trkpt lat="45.38602" lon="5.98385">
        <ele>241.88</ele>
        <time>2018-09-09T15:01:39Z</time>
      </trkpt>
      <trkpt lat="45.38571" lon="5.98366">
        <ele>242.58</ele>
        <time>2018-09-09T15:01:40Z</time>
      </trkpt>
      <trkpt lat="45.38541" lon="5.98347">
        <ele>242.79</ele>
        <time>2018-09-09T15:01:41Z</time>
      </trkpt>
      <trkpt lat="45.38511" lon="5.98328">
        <ele>242.85</ele>
        <time>2018-09-09T15:01:42Z</time>
      </trkpt>
      <trkpt lat="45.38482" lon="5.9831">
        <ele>242.87</ele>
        <time>2018-09-09T15:01:43Z</time>
      </trkpt>
      <trkpt lat="45.38453" lon="5.98291">
        <ele>242.88</ele>
        <time>2018-09-09T15:01:44Z</time>
      </trkpt>
      <trkpt lat="45.38424" lon="5.98273">
        <ele>242.88</ele>
        <time>2018-09-09T15:01:45Z</time>
      </trkpt>
      <trkpt lat="45.38395" lon="5.98255">
        <ele>242.88</ele>
        <time>2018-09-09T15:01:46Z</time>
      </trkpt>
      <trkpt lat="45.38365" lon="5.98237">
        <ele>242.88</ele>
        <time>2018-09-09T15:01:47Z</time>
      </trkpt>
      <trkpt lat="45.38336" lon="5.98218">
        <ele>242.88</ele>
        <time>2018-09-09T15:01:48Z</time>
      </trkpt>
      <trkpt lat="45.38306" lon="5.98199">
        <ele>242.88</ele>
        <time>2018-09-09T15:01:49Z</time>
      </trkpt>
      <trkpt lat="45.38276" lon="5.9818">
        <ele>242.88</ele>
        <time>2018-09-09T15:01:50Z</time>
      </trkpt>
      <trkpt lat="45.38246" lon="5.98162">
        <ele>242.88</ele>
        <time>2018-09-09T15:01:51Z</time>
      </trkpt>
      <trkpt lat="45.38216" lon="5.98143">
        <ele>242.88</ele>
        <time>2018-09-09T15:01:52Z</time>
      </trkpt>
      <trkpt lat="45.38186" lon="5.98125">
        <ele>242.88</ele>
        <time>2018-09-09T15:01:53Z</time>
      </trkpt>
      <trkpt lat="45.38156" lon="5.98107">
        <ele>242.88</ele>
        <time>2018-09-09T15:01:54Z</time>
      </trkpt>
      <trkpt lat="45.38125" lon="5.98087">
        <ele>242.88</ele>
        <time>2018-09-09T15:01:55Z</time>
      </trkpt>
      <trkpt lat="45.38096" lon="5.98068">
        <ele>242.88</ele>
        <time>2018-09-09T15:01:56Z</time>
      </trkpt>
      <trkpt lat="45.38066" lon="5.98049">
        <ele>242.88</ele>
        <time>2018-09-09T15:01:57Z</time>
      </trkpt>
      <trkpt lat="45.38036" lon="5.98031">
        <ele>242.88</ele>
        <time>2018-09-09T15:01:58Z</time>
      </trkpt>
      <trkpt lat="45.38006" lon="5.98012">
        <ele>242.88</ele>
        <time>2018-09-09T15:01:59Z</time>
      </trkpt>
      <trkpt lat="45.37977" lon="5.97995">
        <ele>242.88</ele>
        <time>2018-09-09T15:02:00Z</time>
      </trkpt>
      <trkpt lat="45.37948" lon="5.97977">
        <ele>242.88</ele>
        <time>2018-09-09T15:02:01Z</time>
      </trkpt>
      <trkpt lat="45.37919" lon="5.97959">
        <ele>242.88</ele>
        <time>2018-09-09T15:02:02Z</time>
      </trkpt>
      <trkpt lat="45.37889" lon="5.97942">
        <ele>242.88</ele>
        <time>2018-09-09T15:02:03Z</time>
      </trkpt>
      <trkpt lat="45.37859" lon="5.97925">
        <ele>242.18</ele>
        <time>2018-09-09T15:02:04Z</time>
      </trkpt>
      <trkpt lat="45.37829" lon="5.97908">
        <ele>242.67</ele>
        <time>2018-09-09T15:02:05Z</time>
      </trkpt>
      <trkpt lat="45.37799" lon="5.97891">
        <ele>242.82</ele>
        <time>2018-09-09T15:02:06Z</time>
      </trkpt>
      <trkpt lat="45.37769" lon="5.97874">
        <ele>242.86</ele>
        <time>2018-09-09T15:02:07Z</time>
      </trkpt>
      <trkpt lat="45.37739" lon="5.97857">
        <ele>242.87</ele>
        <time>2018-09-09T15:02:08Z</time>
      </trkpt>
      <trkpt lat="45.37709" lon="5.97839">
        <ele>242.88</ele>
        <time>2018-09-09T15:02:09Z</time>
      </trkpt>
      <trkpt lat="45.3768" lon="5.97822">
        <ele>242.18</ele>
        <time>2018-09-09T15:02:10Z</time>
      </trkpt>
      <trkpt lat="45.3765" lon="5.97805">
        <ele>241.97</ele>
        <time>2018-09-09T15:02:11Z</time>
      </trkpt>
      <trkpt lat="45.3762" lon="5.97788">
        <ele>241.9</ele>
        <time>2018-09-09T15:02:12Z</time>
      </trkpt>
      <trkpt lat="45.3759" lon="5.97772">
        <ele>241.89</ele>
        <time>2018-09-09T15:02:13Z</time>
      </trkpt>
      <trkpt lat="45.37561" lon="5.97756">
        <ele>241.88</ele>
        <time>2018-09-09T15:02:14Z</time>
      </trkpt>
      <trkpt lat="45.3753" lon="5.9774">
        <ele>241.88</ele>
        <time>2018-09-09T15:02:15Z</time>
      </trkpt>
      <trkpt lat="45.37501" lon="5.97723">
        <ele>241.88</ele>
        <time>2018-09-09T15:02:16Z</time>
      </trkpt>
      <trkpt lat="45.37471" lon="5.97707">
        <ele>241.88</ele>
        <time>2018-09-09T15:02:17Z</time>
      </trkpt>
      <trkpt lat="45.3744" lon="5.97691">
        <ele>241.88</ele>
        <time>2018-09-09T15:02:18Z</time>
      </trkpt>
      <trkpt lat="45.3741" lon="5.97675">
        <ele>241.88</ele>
        <time>2018-09-09T15:02:19Z</time>
      </trkpt>
      <trkpt lat="45.3738" lon="5.9766">
        <ele>241.88</ele>
        <time>2018-09-09T15:02:20Z</time>
      </trkpt>
      <trkpt lat="45.3735" lon="5.97644">
        <ele>241.88</ele>
        <time>2018-09-09T15:02:21Z</time>
      </trkpt>
      <trkpt lat="45.3732" lon="5.97627">
        <ele>242.58</ele>
        <time>2018-09-09T15:02:22Z</time>
      </trkpt>
      <trkpt lat="45.3729" lon="5.97612">
        <ele>242.09</ele>
        <time>2018-09-09T15:02:23Z</time>
      </trkpt>
      <trkpt lat="45.3726" lon="5.97596">
        <ele>242.64</ele>
        <time>2018-09-09T15:02:24Z</time>
      </trkpt>
      <trkpt lat="45.37231" lon="5.97581">
        <ele>242.81</ele>
        <time>2018-09-09T15:02:25Z</time>
      </trkpt>
      <trkpt lat="45.37201" lon="5.97565">
        <ele>242.86</ele>
        <time>2018-09-09T15:02:26Z</time>
      </trkpt>
      <trkpt lat="45.37171" lon="5.9755">
        <ele>242.87</ele>
        <time>2018-09-09T15:02:27Z</time>
      </trkpt>
      <trkpt lat="45.37141" lon="5.97535">
        <ele>242.88</ele>
        <time>2018-09-09T15:02:28Z</time>
      </trkpt>
      <trkpt lat="45.37112" lon="5.97519">
        <ele>242.88</ele>
        <time>2018-09-09T15:02:29Z</time>
      </trkpt>
      <trkpt lat="45.37082" lon="5.97504">
        <ele>242.88</ele>
        <time>2018-09-09T15:02:30Z</time>
      </trkpt>
      <trkpt lat="45.37052" lon="5.97488">
        <ele>242.88</ele>
        <time>2018-09-09T15:02:31Z</time>
      </trkpt>
      <trkpt lat="45.37022" lon="5.97473">
        <ele>242.18</ele>
        <time>2018-09-09T15:02:32Z</time>
      </trkpt>
      <trkpt lat="45.36992" lon="5.97458">
        <ele>241.97</ele>
        <time>2018-09-09T15:02:33Z</time>
      </trkpt>
      <trkpt lat="45.36962" lon="5.97443">
        <ele>241.9</ele>
        <time>2018-09-09T15:02:34Z</time>
      </trkpt>
      <trkpt lat="45.36931" lon="5.97428">
        <ele>241.89</ele>
        <time>2018-09-09T15:02:35Z</time>
      </trkpt>
      <trkpt lat="45.36901" lon="5.97413">
        <ele>241.88</ele>
        <time>2018-09-09T15:02:36Z</time>
      </trkpt>
      <trkpt lat="45.3687" lon="5.97398">
        <ele>241.88</ele>
        <time>2018-09-09T15:02:37Z</time>
      </trkpt>
      <trkpt lat="45.3684" lon="5.97384">
        <ele>241.88</ele>
        <time>2018-09-09T15:02:38Z</time>
      </trkpt>
      <trkpt lat="45.3681" lon="5.9737">
        <ele>241.88</ele>
        <time>2018-09-09T15:02:39Z</time>
      </trkpt>
      <trkpt lat="45.36779" lon="5.97356">
        <ele>241.88</ele>
        <time>2018-09-09T15:02:40Z</time>
      </trkpt>
      <trkpt lat="45.36749" lon="5.97341">
        <ele>241.18</ele>
        <time>2018-09-09T15:02:41Z</time>
      </trkpt>
      <trkpt lat="45.36718" lon="5.97327">
        <ele>241.67</ele>
        <time>2018-09-09T15:02:42Z</time>
      </trkpt>
      <trkpt lat="45.36687" lon="5.97313">
        <ele>241.12</ele>
        <time>2018-09-09T15:02:43Z</time>
      </trkpt>
      <trkpt lat="45.36656" lon="5.97299">
        <ele>240.95</ele>
        <time>2018-09-09T15:02:44Z</time>
      </trkpt>
      <trkpt lat="45.36625" lon="5.97285">
        <ele>240.9</ele>
        <time>2018-09-09T15:02:45Z</time>
      </trkpt>
      <trkpt lat="45.36594" lon="5.97271">
        <ele>240.88</ele>
        <time>2018-09-09T15:02:46Z</time>
      </trkpt>
      <trkpt lat="45.36563" lon="5.97256">
        <ele>240.88</ele>
        <time>2018-09-09T15:02:47Z</time>
      </trkpt>
      <trkpt lat="45.36532" lon="5.97241">
        <ele>240.88</ele>
        <time>2018-09-09T15:02:48Z</time>
      </trkpt>
      <trkpt lat="45.36501" lon="5.97227">
        <ele>240.18</ele>
        <time>2018-09-09T15:02:49Z</time>
      </trkpt>
      <trkpt lat="45.36469" lon="5.97213">
        <ele>240.67</ele>
        <time>2018-09-09T15:02:50Z</time>
      </trkpt>
      <trkpt lat="45.36438" lon="5.97199">
        <ele>240.82</ele>
        <time>2018-09-09T15:02:51Z</time>
      </trkpt>
      <trkpt lat="45.36407" lon="5.97186">
        <ele>240.16</ele>
        <time>2018-09-09T15:02:52Z</time>
      </trkpt>
      <trkpt lat="45.36375" lon="5.97172">
        <ele>239.96</ele>
        <time>2018-09-09T15:02:53Z</time>
      </trkpt>
      <trkpt lat="45.36343" lon="5.97159">
        <ele>239.9</ele>
        <time>2018-09-09T15:02:54Z</time>
      </trkpt>
      <trkpt lat="45.36311" lon="5.97146">
        <ele>239.89</ele>
        <time>2018-09-09T15:02:55Z</time>
      </trkpt>
      <trkpt lat="45.36279" lon="5.97133">
        <ele>239.88</ele>
        <time>2018-09-09T15:02:56Z</time>
      </trkpt>
      <trkpt lat="45.36248" lon="5.9712">
        <ele>239.88</ele>
        <time>2018-09-09T15:02:57Z</time>
      </trkpt>
      <trkpt lat="45.36216" lon="5.97106">
        <ele>239.88</ele>
        <time>2018-09-09T15:02:58Z</time>
      </trkpt>
      <trkpt lat="45.36184" lon="5.97093">
        <ele>239.88</ele>
        <time>2018-09-09T15:02:59Z</time>
      </trkpt>
      <trkpt lat="45.36152" lon="5.9708">
        <ele>239.88</ele>
        <time>2018-09-09T15:03:00Z</time>
      </trkpt>
      <trkpt lat="45.3612" lon="5.97067">
        <ele>239.88</ele>
        <time>2018-09-09T15:03:01Z</time>
      </trkpt>
      <trkpt lat="45.36088" lon="5.97054">
        <ele>239.18</ele>
        <time>2018-09-09T15:03:02Z</time>
      </trkpt>
      <trkpt lat="45.36057" lon="5.97042">
        <ele>239.67</ele>
        <time>2018-09-09T15:03:03Z</time>
      </trkpt>
      <trkpt lat="45.36025" lon="5.9703">
        <ele>239.82</ele>
        <time>2018-09-09T15:03:04Z</time>
      </trkpt>
      <trkpt lat="45.35993" lon="5.97017">
        <ele>239.86</ele>
        <time>2018-09-09T15:03:05Z</time>
      </trkpt>
      <trkpt lat="45.35961" lon="5.97005">
        <ele>239.87</ele>
        <time>2018-09-09T15:03:06Z</time>
      </trkpt>
      <trkpt lat="45.35929" lon="5.96994">
        <ele>239.88</ele>
        <time>2018-09-09T15:03:07Z</time>
      </trkpt>
      <trkpt lat="45.35897" lon="5.96983">
        <ele>239.88</ele>
        <time>2018-09-09T15:03:08Z</time>
      </trkpt>
      <trkpt lat="45.35864" lon="5.96971">
        <ele>239.88</ele>
        <time>2018-09-09T15:03:09Z</time>
      </trkpt>
      <trkpt lat="45.35832" lon="5.9696">
        <ele>239.88</ele>
        <time>2018-09-09T15:03:10Z</time>
      </trkpt>
      <trkpt lat="45.358" lon="5.96949">
        <ele>239.88</ele>
        <time>2018-09-09T15:03:11Z</time>
      </trkpt>
      <trkpt lat="45.35769" lon="5.96938">
        <ele>239.88</ele>
        <time>2018-09-09T15:03:12Z</time>
      </trkpt>
      <trkpt lat="45.35737" lon="5.96927">
        <ele>239.18</ele>
        <time>2018-09-09T15:03:13Z</time>
      </trkpt>
      <trkpt lat="45.35705" lon="5.96916">
        <ele>238.97</ele>
        <time>2018-09-09T15:03:14Z</time>
      </trkpt>
      <trkpt lat="45.35673" lon="5.96904">
        <ele>239.6</ele>
        <time>2018-09-09T15:03:15Z</time>
      </trkpt>
      <trkpt lat="45.35642" lon="5.96894">
        <ele>239.8</ele>
        <time>2018-09-09T15:03:16Z</time>
      </trkpt>
      <trkpt lat="45.3561" lon="5.96883">
        <ele>239.85</ele>
        <time>2018-09-09T15:03:17Z</time>
      </trkpt>
      <trkpt lat="45.35578" lon="5.96872">
        <ele>239.87</ele>
        <time>2018-09-09T15:03:18Z</time>
      </trkpt>
      <trkpt lat="45.35546" lon="5.96862">
        <ele>239.18</ele>
        <time>2018-09-09T15:03:19Z</time>
      </trkpt>
      <trkpt lat="45.35514" lon="5.96852">
        <ele>238.97</ele>
        <time>2018-09-09T15:03:20Z</time>
      </trkpt>
      <trkpt lat="45.35483" lon="5.96843">
        <ele>238.9</ele>
        <time>2018-09-09T15:03:21Z</time>
      </trkpt>
      <trkpt lat="45.35451" lon="5.96833">
        <ele>238.89</ele>
        <time>2018-09-09T15:03:22Z</time>
      </trkpt>
      <trkpt lat="45.3542" lon="5.96824">
        <ele>238.88</ele>
        <time>2018-09-09T15:03:23Z</time>
      </trkpt>
      <trkpt lat="45.35388" lon="5.96815">
        <ele>239.58</ele>
        <time>2018-09-09T15:03:24Z</time>
      </trkpt>
      <trkpt lat="45.35356" lon="5.96806">
        <ele>239.79</ele>
        <time>2018-09-09T15:03:25Z</time>
      </trkpt>
      <trkpt lat="45.35325" lon="5.96797">
        <ele>239.85</ele>
        <time>2018-09-09T15:03:26Z</time>
      </trkpt>
      <trkpt lat="45.35294" lon="5.96788">
        <ele>239.87</ele>
        <time>2018-09-09T15:03:27Z</time>
      </trkpt>
      <trkpt lat="45.35262" lon="5.9678">
        <ele>239.88</ele>
        <time>2018-09-09T15:03:28Z</time>
      </trkpt>
      <trkpt lat="45.35231" lon="5.96771">
        <ele>239.18</ele>
        <time>2018-09-09T15:03:29Z</time>
      </trkpt>
      <trkpt lat="45.35199" lon="5.96762">
        <ele>238.97</ele>
        <time>2018-09-09T15:03:30Z</time>
      </trkpt>
      <trkpt lat="45.35167" lon="5.96753">
        <ele>238.9</ele>
        <time>2018-09-09T15:03:31Z</time>
      </trkpt>
      <trkpt lat="45.35135" lon="5.96745">
        <ele>238.89</ele>
        <time>2018-09-09T15:03:32Z</time>
      </trkpt>
      <trkpt lat="45.35103" lon="5.96736">
        <ele>238.88</ele>
        <time>2018-09-09T15:03:33Z</time>
      </trkpt>
      <trkpt lat="45.35071" lon="5.96727">
        <ele>238.88</ele>
        <time>2018-09-09T15:03:34Z</time>
      </trkpt>
      <trkpt lat="45.35039" lon="5.96719">
        <ele>238.88</ele>
        <time>2018-09-09T15:03:35Z</time>
      </trkpt>
      <trkpt lat="45.35007" lon="5.9671">
        <ele>238.88</ele>
        <time>2018-09-09T15:03:36Z</time>
      </trkpt>
      <trkpt lat="45.34974" lon="5.96701">
        <ele>238.88</ele>
        <time>2018-09-09T15:03:37Z</time>
      </trkpt>
      <trkpt lat="45.34942" lon="5.96694">
        <ele>239.58</ele>
        <time>2018-09-09T15:03:38Z</time>
      </trkpt>
      <trkpt lat="45.3491" lon="5.96687">
        <ele>240.49</ele>
        <time>2018-09-09T15:03:39Z</time>
      </trkpt>
      <trkpt lat="45.34877" lon="5.96678">
        <ele>240.06</ele>
        <time>2018-09-09T15:03:40Z</time>
      </trkpt>
      <trkpt lat="45.34845" lon="5.9667">
        <ele>239.93</ele>
        <time>2018-09-09T15:03:41Z</time>
      </trkpt>
      <trkpt lat="45.34813" lon="5.96661">
        <ele>239.89</ele>
        <time>2018-09-09T15:03:42Z</time>
      </trkpt>
      <trkpt lat="45.3478" lon="5.96652">
        <ele>239.88</ele>
        <time>2018-09-09T15:03:43Z</time>
      </trkpt>
      <trkpt lat="45.34748" lon="5.96644">
        <ele>240.58</ele>
        <time>2018-09-09T15:03:44Z</time>
      </trkpt>
      <trkpt lat="45.34716" lon="5.96635">
        <ele>240.09</ele>
        <time>2018-09-09T15:03:45Z</time>
      </trkpt>
      <trkpt lat="45.34684" lon="5.96626">
        <ele>239.94</ele>
        <time>2018-09-09T15:03:46Z</time>
      </trkpt>
      <trkpt lat="45.34652" lon="5.96616">
        <ele>239.9</ele>
        <time>2018-09-09T15:03:47Z</time>
      </trkpt>
      <trkpt lat="45.34621" lon="5.96607">
        <ele>239.88</ele>
        <time>2018-09-09T15:03:48Z</time>
      </trkpt>
      <trkpt lat="45.3459" lon="5.96599">
        <ele>239.88</ele>
        <time>2018-09-09T15:03:49Z</time>
      </trkpt>
      <trkpt lat="45.34558" lon="5.96591">
        <ele>239.88</ele>
        <time>2018-09-09T15:03:50Z</time>
      </trkpt>
      <trkpt lat="45.34527" lon="5.96582">
        <ele>239.88</ele>
        <time>2018-09-09T15:03:51Z</time>
      </trkpt>
      <trkpt lat="45.34496" lon="5.96572">
        <ele>239.88</ele>
        <time>2018-09-09T15:03:52Z</time>
      </trkpt>
      <trkpt lat="45.34465" lon="5.96563">
        <ele>239.88</ele>
        <time>2018-09-09T15:03:53Z</time>
      </trkpt>
      <trkpt lat="45.34434" lon="5.96555">
        <ele>239.88</ele>
        <time>2018-09-09T15:03:54Z</time>
      </trkpt>
      <trkpt lat="45.34403" lon="5.96545">
        <ele>240.58</ele>
        <time>2018-09-09T15:03:55Z</time>
      </trkpt>
      <trkpt lat="45.34373" lon="5.96535">
        <ele>240.09</ele>
        <time>2018-09-09T15:03:56Z</time>
      </trkpt>
      <trkpt lat="45.34342" lon="5.96524">
        <ele>240.64</ele>
        <time>2018-09-09T15:03:57Z</time>
      </trkpt>
      <trkpt lat="45.34312" lon="5.96514">
        <ele>240.81</ele>
        <time>2018-09-09T15:03:58Z</time>
      </trkpt>
      <trkpt lat="45.34281" lon="5.96503">
        <ele>240.86</ele>
        <time>2018-09-09T15:03:59Z</time>
      </trkpt>
      <trkpt lat="45.3425" lon="5.96492">
        <ele>240.87</ele>
        <time>2018-09-09T15:04:00Z</time>
      </trkpt>
      <trkpt lat="45.34219" lon="5.9648">
        <ele>240.18</ele>
        <time>2018-09-09T15:04:01Z</time>
      </trkpt>
      <trkpt lat="45.34188" lon="5.96467">
        <ele>239.97</ele>
        <time>2018-09-09T15:04:02Z</time>
      </trkpt>
      <trkpt lat="45.34157" lon="5.96454">
        <ele>239.9</ele>
        <time>2018-09-09T15:04:03Z</time>
      </trkpt>
      <trkpt lat="45.34126" lon="5.96441">
        <ele>239.89</ele>
        <time>2018-09-09T15:04:04Z</time>
      </trkpt>
      <trkpt lat="45.34094" lon="5.96427">
        <ele>239.18</ele>
        <time>2018-09-09T15:04:05Z</time>
      </trkpt>
      <trkpt lat="45.34062" lon="5.96414">
        <ele>238.97</ele>
        <time>2018-09-09T15:04:06Z</time>
      </trkpt>
      <trkpt lat="45.34031" lon="5.96399">
        <ele>238.91</ele>
        <time>2018-09-09T15:04:07Z</time>
      </trkpt>
      <trkpt lat="45.34" lon="5.96384">
        <ele>238.89</ele>
        <time>2018-09-09T15:04:08Z</time>
      </trkpt>
      <trkpt lat="45.33968" lon="5.96369">
        <ele>239.58</ele>
        <time>2018-09-09T15:04:09Z</time>
      </trkpt>
      <trkpt lat="45.33937" lon="5.96354">
        <ele>239.79</ele>
        <time>2018-09-09T15:04:10Z</time>
      </trkpt>
      <trkpt lat="45.33906" lon="5.96338">
        <ele>239.85</ele>
        <time>2018-09-09T15:04:11Z</time>
      </trkpt>
      <trkpt lat="45.33875" lon="5.96322">
        <ele>239.87</ele>
        <time>2018-09-09T15:04:12Z</time>
      </trkpt>
      <trkpt lat="45.33844" lon="5.96306">
        <ele>239.18</ele>
        <time>2018-09-09T15:04:13Z</time>
      </trkpt>
      <trkpt lat="45.33813" lon="5.96289">
        <ele>238.97</ele>
        <time>2018-09-09T15:04:14Z</time>
      </trkpt>
      <trkpt lat="45.33782" lon="5.96273">
        <ele>238.9</ele>
        <time>2018-09-09T15:04:15Z</time>
      </trkpt>
      <trkpt lat="45.33752" lon="5.96256">
        <ele>238.89</ele>
        <time>2018-09-09T15:04:16Z</time>
      </trkpt>
      <trkpt lat="45.33721" lon="5.96239">
        <ele>239.58</ele>
        <time>2018-09-09T15:04:17Z</time>
      </trkpt>
      <trkpt lat="45.3369" lon="5.96222">
        <ele>239.79</ele>
        <time>2018-09-09T15:04:18Z</time>
      </trkpt>
      <trkpt lat="45.3366" lon="5.96204">
        <ele>239.15</ele>
        <time>2018-09-09T15:04:19Z</time>
      </trkpt>
      <trkpt lat="45.3363" lon="5.96186">
        <ele>239.66</ele>
        <time>2018-09-09T15:04:20Z</time>
      </trkpt>
      <trkpt lat="45.33601" lon="5.96168">
        <ele>239.11</ele>
        <time>2018-09-09T15:04:21Z</time>
      </trkpt>
      <trkpt lat="45.33571" lon="5.96149">
        <ele>238.95</ele>
        <time>2018-09-09T15:04:22Z</time>
      </trkpt>
      <trkpt lat="45.33541" lon="5.9613">
        <ele>238.9</ele>
        <time>2018-09-09T15:04:23Z</time>
      </trkpt>
      <trkpt lat="45.33512" lon="5.96112">
        <ele>238.88</ele>
        <time>2018-09-09T15:04:24Z</time>
      </trkpt>
      <trkpt lat="45.33482" lon="5.96093">
        <ele>238.18</ele>
        <time>2018-09-09T15:04:25Z</time>
      </trkpt>
      <trkpt lat="45.33453" lon="5.96074">
        <ele>237.97</ele>
        <time>2018-09-09T15:04:26Z</time>
      </trkpt>
      <trkpt lat="45.33424" lon="5.96053">
        <ele>237.91</ele>
        <time>2018-09-09T15:04:27Z</time>
      </trkpt>
      <trkpt lat="45.33395" lon="5.96033">
        <ele>237.89</ele>
        <time>2018-09-09T15:04:28Z</time>
      </trkpt>
      <trkpt lat="45.33366" lon="5.96013">
        <ele>237.88</ele>
        <time>2018-09-09T15:04:29Z</time>
      </trkpt>
      <trkpt lat="45.33337" lon="5.95992">
        <ele>238.58</ele>
        <time>2018-09-09T15:04:30Z</time>
      </trkpt>
      <trkpt lat="45.33309" lon="5.95971">
        <ele>238.79</ele>
        <time>2018-09-09T15:04:31Z</time>
      </trkpt>
      <trkpt lat="45.33281" lon="5.9595">
        <ele>238.85</ele>
        <time>2018-09-09T15:04:32Z</time>
      </trkpt>
      <trkpt lat="45.33253" lon="5.95929">
        <ele>238.17</ele>
        <time>2018-09-09T15:04:33Z</time>
      </trkpt>
      <trkpt lat="45.33226" lon="5.95908">
        <ele>237.97</ele>
        <time>2018-09-09T15:04:34Z</time>
      </trkpt>
      <trkpt lat="45.33199" lon="5.95887">
        <ele>237.9</ele>
        <time>2018-09-09T15:04:35Z</time>
      </trkpt>
      <trkpt lat="45.33172" lon="5.95866">
        <ele>237.89</ele>
        <time>2018-09-09T15:04:36Z</time>
      </trkpt>
      <trkpt lat="45.33146" lon="5.95845">
        <ele>237.88</ele>
        <time>2018-09-09T15:04:37Z</time>
      </trkpt>
      <trkpt lat="45.33121" lon="5.95825">
        <ele>237.88</ele>
        <time>2018-09-09T15:04:38Z</time>
      </trkpt>
      <trkpt lat="45.33096" lon="5.95804">
        <ele>237.88</ele>
        <time>2018-09-09T15:04:39Z</time>
      </trkpt>
      <trkpt lat="45.33071" lon="5.95783">
        <ele>237.88</ele>
        <time>2018-09-09T15:04:40Z</time>
      </trkpt>
      <trkpt lat="45.33047" lon="5.95762">
        <ele>237.88</ele>
        <time>2018-09-09T15:04:41Z</time>
      </trkpt>
      <trkpt lat="45.33022" lon="5.95741">
        <ele>237.88</ele>
        <time>2018-09-09T15:04:42Z</time>
      </trkpt>
      <trkpt lat="45.32998" lon="5.95721">
        <ele>237.88</ele>
        <time>2018-09-09T15:04:43Z</time>
      </trkpt>
      <trkpt lat="45.32973" lon="5.957">
        <ele>237.88</ele>
        <time>2018-09-09T15:04:44Z</time>
      </trkpt>
      <trkpt lat="45.32948" lon="5.95678">
        <ele>237.88</ele>
        <time>2018-09-09T15:04:45Z</time>
      </trkpt>
      <trkpt lat="45.32924" lon="5.95657">
        <ele>237.88</ele>
        <time>2018-09-09T15:04:46Z</time>
      </trkpt>
      <trkpt lat="45.32899" lon="5.95636">
        <ele>237.88</ele>
        <time>2018-09-09T15:04:47Z</time>
      </trkpt>
      <trkpt lat="45.32875" lon="5.95614">
        <ele>237.88</ele>
        <time>2018-09-09T15:04:48Z</time>
      </trkpt>
      <trkpt lat="45.32851" lon="5.95591">
        <ele>237.88</ele>
        <time>2018-09-09T15:04:49Z</time>
      </trkpt>
      <trkpt lat="45.32827" lon="5.95567">
        <ele>237.88</ele>
        <time>2018-09-09T15:04:50Z</time>
      </trkpt>
      <trkpt lat="45.32803" lon="5.95544">
        <ele>237.88</ele>
        <time>2018-09-09T15:04:51Z</time>
      </trkpt>
      <trkpt lat="45.32779" lon="5.95521">
        <ele>237.88</ele>
        <time>2018-09-09T15:04:52Z</time>
      </trkpt>
      <trkpt lat="45.32755" lon="5.95497">
        <ele>237.88</ele>
        <time>2018-09-09T15:04:53Z</time>
      </trkpt>
      <trkpt lat="45.32731" lon="5.95473">
        <ele>237.88</ele>
        <time>2018-09-09T15:04:54Z</time>
      </trkpt>
      <trkpt lat="45.32706" lon="5.95447">
        <ele>237.18</ele>
        <time>2018-09-09T15:04:55Z</time>
      </trkpt>
      <trkpt lat="45.32682" lon="5.95421">
        <ele>236.97</ele>
        <time>2018-09-09T15:04:56Z</time>
      </trkpt>
      <trkpt lat="45.32656" lon="5.95392">
        <ele>236.9</ele>
        <time>2018-09-09T15:04:57Z</time>
      </trkpt>
      <trkpt lat="45.3263" lon="5.95361">
        <ele>236.89</ele>
        <time>2018-09-09T15:04:58Z</time>
      </trkpt>
      <trkpt lat="45.32603" lon="5.95331">
        <ele>236.88</ele>
        <time>2018-09-09T15:04:59Z</time>
      </trkpt>
      <trkpt lat="45.32576" lon="5.953">
        <ele>236.88</ele>
        <time>2018-09-09T15:05:00Z</time>
      </trkpt>
      <trkpt lat="45.3255" lon="5.95271">
        <ele>236.18</ele>
        <time>2018-09-09T15:05:01Z</time>
      </trkpt>
      <trkpt lat="45.32524" lon="5.95241">
        <ele>235.97</ele>
        <time>2018-09-09T15:05:02Z</time>
      </trkpt>
      <trkpt lat="45.32499" lon="5.95213">
        <ele>235.91</ele>
        <time>2018-09-09T15:05:03Z</time>
      </trkpt>
      <trkpt lat="45.32474" lon="5.95184">
        <ele>235.89</ele>
        <time>2018-09-09T15:05:04Z</time>
      </trkpt>
      <trkpt lat="45.3245" lon="5.95155">
        <ele>235.18</ele>
        <time>2018-09-09T15:05:05Z</time>
      </trkpt>
      <trkpt lat="45.32426" lon="5.95126">
        <ele>234.97</ele>
        <time>2018-09-09T15:05:06Z</time>
      </trkpt>
      <trkpt lat="45.32403" lon="5.95097">
        <ele>234.91</ele>
        <time>2018-09-09T15:05:07Z</time>
      </trkpt>
      <trkpt lat="45.3238" lon="5.95067">
        <ele>234.89</ele>
        <time>2018-09-09T15:05:08Z</time>
      </trkpt>
      <trkpt lat="45.32357" lon="5.95038">
        <ele>234.88</ele>
        <time>2018-09-09T15:05:09Z</time>
      </trkpt>
      <trkpt lat="45.32333" lon="5.95008">
        <ele>234.88</ele>
        <time>2018-09-09T15:05:10Z</time>
      </trkpt>
      <trkpt lat="45.3231" lon="5.94977">
        <ele>234.88</ele>
        <time>2018-09-09T15:05:11Z</time>
      </trkpt>
      <trkpt lat="45.32287" lon="5.94947">
        <ele>234.88</ele>
        <time>2018-09-09T15:05:12Z</time>
      </trkpt>
      <trkpt lat="45.32264" lon="5.94916">
        <ele>234.88</ele>
        <time>2018-09-09T15:05:13Z</time>
      </trkpt>
      <trkpt lat="45.32241" lon="5.94886">
        <ele>234.88</ele>
        <time>2018-09-09T15:05:14Z</time>
      </trkpt>
      <trkpt lat="45.32218" lon="5.94856">
        <ele>234.88</ele>
        <time>2018-09-09T15:05:15Z</time>
      </trkpt>
      <trkpt lat="45.32195" lon="5.94824">
        <ele>234.88</ele>
        <time>2018-09-09T15:05:16Z</time>
      </trkpt>
      <trkpt lat="45.32172" lon="5.94793">
        <ele>234.88</ele>
        <time>2018-09-09T15:05:17Z</time>
      </trkpt>
      <trkpt lat="45.32148" lon="5.9476">
        <ele>234.88</ele>
        <time>2018-09-09T15:05:18Z</time>
      </trkpt>
      <trkpt lat="45.32125" lon="5.94729">
        <ele>234.88</ele>
        <time>2018-09-09T15:05:19Z</time>
      </trkpt>
      <trkpt lat="45.32103" lon="5.94696">
        <ele>234.88</ele>
        <time>2018-09-09T15:05:20Z</time>
      </trkpt>
      <trkpt lat="45.32081" lon="5.94664">
        <ele>234.88</ele>
        <time>2018-09-09T15:05:21Z</time>
      </trkpt>
      <trkpt lat="45.32058" lon="5.9463">
        <ele>234.88</ele>
        <time>2018-09-09T15:05:22Z</time>
      </trkpt>
      <trkpt lat="45.32036" lon="5.94598">
        <ele>234.88</ele>
        <time>2018-09-09T15:05:23Z</time>
      </trkpt>
      <trkpt lat="45.32014" lon="5.94564">
        <ele>234.88</ele>
        <time>2018-09-09T15:05:24Z</time>
      </trkpt>
      <trkpt lat="45.31992" lon="5.94531">
        <ele>234.18</ele>
        <time>2018-09-09T15:05:25Z</time>
      </trkpt>
      <trkpt lat="45.3197" lon="5.94498">
        <ele>233.97</ele>
        <time>2018-09-09T15:05:26Z</time>
      </trkpt>
      <trkpt lat="45.31947" lon="5.94465">
        <ele>233.9</ele>
        <time>2018-09-09T15:05:27Z</time>
      </trkpt>
      <trkpt lat="45.31925" lon="5.94432">
        <ele>233.89</ele>
        <time>2018-09-09T15:05:28Z</time>
      </trkpt>
      <trkpt lat="45.31903" lon="5.94398">
        <ele>233.88</ele>
        <time>2018-09-09T15:05:29Z</time>
      </trkpt>
      <trkpt lat="45.31881" lon="5.94365">
        <ele>233.88</ele>
        <time>2018-09-09T15:05:30Z</time>
      </trkpt>
      <trkpt lat="45.31858" lon="5.94331">
        <ele>233.88</ele>
        <time>2018-09-09T15:05:31Z</time>
      </trkpt>
      <trkpt lat="45.31836" lon="5.94298">
        <ele>233.88</ele>
        <time>2018-09-09T15:05:32Z</time>
      </trkpt>
      <trkpt lat="45.31814" lon="5.94264">
        <ele>233.88</ele>
        <time>2018-09-09T15:05:33Z</time>
      </trkpt>
      <trkpt lat="45.31792" lon="5.9423">
        <ele>233.88</ele>
        <time>2018-09-09T15:05:34Z</time>
      </trkpt>
      <trkpt lat="45.3177" lon="5.94196">
        <ele>233.88</ele>
        <time>2018-09-09T15:05:35Z</time>
      </trkpt>
      <trkpt lat="45.31748" lon="5.94163">
        <ele>234.58</ele>
        <time>2018-09-09T15:05:36Z</time>
      </trkpt>
      <trkpt lat="45.31726" lon="5.94129">
        <ele>234.09</ele>
        <time>2018-09-09T15:05:37Z</time>
      </trkpt>
      <trkpt lat="45.31704" lon="5.94096">
        <ele>234.64</ele>
        <time>2018-09-09T15:05:38Z</time>
      </trkpt>
      <trkpt lat="45.31682" lon="5.94064">
        <ele>234.81</ele>
        <time>2018-09-09T15:05:39Z</time>
      </trkpt>
      <trkpt lat="45.3166" lon="5.94032">
        <ele>234.86</ele>
        <time>2018-09-09T15:05:40Z</time>
      </trkpt>
      <trkpt lat="45.31639" lon="5.94">
        <ele>234.87</ele>
        <time>2018-09-09T15:05:41Z</time>
      </trkpt>
      <trkpt lat="45.31617" lon="5.93968">
        <ele>234.18</ele>
        <time>2018-09-09T15:05:42Z</time>
      </trkpt>
      <trkpt lat="45.31595" lon="5.93936">
        <ele>233.27</ele>
        <time>2018-09-09T15:05:43Z</time>
      </trkpt>
      <trkpt lat="45.31573" lon="5.93904">
        <ele>233.69</ele>
        <time>2018-09-09T15:05:44Z</time>
      </trkpt>
      <trkpt lat="45.31551" lon="5.93872">
        <ele>233.12</ele>
        <time>2018-09-09T15:05:45Z</time>
      </trkpt>
      <trkpt lat="45.31528" lon="5.9384">
        <ele>233.65</ele>
        <time>2018-09-09T15:05:46Z</time>
      </trkpt>
      <trkpt lat="45.31505" lon="5.93809">
        <ele>233.11</ele>
        <time>2018-09-09T15:05:47Z</time>
      </trkpt>
      <trkpt lat="45.31482" lon="5.93778">
        <ele>233.65</ele>
        <time>2018-09-09T15:05:48Z</time>
      </trkpt>
      <trkpt lat="45.3146" lon="5.93746">
        <ele>233.81</ele>
        <time>2018-09-09T15:05:49Z</time>
      </trkpt>
      <trkpt lat="45.31437" lon="5.93715">
        <ele>233.16</ele>
        <time>2018-09-09T15:05:50Z</time>
      </trkpt>
      <trkpt lat="45.31413" lon="5.93684">
        <ele>232.96</ele>
        <time>2018-09-09T15:05:51Z</time>
      </trkpt>
      <trkpt lat="45.31389" lon="5.93654">
        <ele>232.9</ele>
        <time>2018-09-09T15:05:52Z</time>
      </trkpt>
      <trkpt lat="45.31366" lon="5.93623">
        <ele>232.89</ele>
        <time>2018-09-09T15:05:53Z</time>
      </trkpt>
      <trkpt lat="45.31341" lon="5.93593">
        <ele>232.88</ele>
        <time>2018-09-09T15:05:54Z</time>
      </trkpt>
      <trkpt lat="45.31317" lon="5.93563">
        <ele>233.58</ele>
        <time>2018-09-09T15:05:55Z</time>
      </trkpt>
      <trkpt lat="45.31292" lon="5.93532">
        <ele>233.79</ele>
        <time>2018-09-09T15:05:56Z</time>
      </trkpt>
      <trkpt lat="45.31268" lon="5.93502">
        <ele>233.85</ele>
        <time>2018-09-09T15:05:57Z</time>
      </trkpt>
      <trkpt lat="45.31243" lon="5.93473">
        <ele>233.87</ele>
        <time>2018-09-09T15:05:58Z</time>
      </trkpt>
      <trkpt lat="45.31219" lon="5.93442">
        <ele>233.88</ele>
        <time>2018-09-09T15:05:59Z</time>
      </trkpt>
      <trkpt lat="45.31194" lon="5.93413">
        <ele>233.88</ele>
        <time>2018-09-09T15:06:00Z</time>
      </trkpt>
      <trkpt lat="45.31169" lon="5.93384">
        <ele>233.88</ele>
        <time>2018-09-09T15:06:01Z</time>
      </trkpt>
      <trkpt lat="45.31143" lon="5.93355">
        <ele>233.88</ele>
        <time>2018-09-09T15:06:02Z</time>
      </trkpt>
      <trkpt lat="45.31118" lon="5.93326">
        <ele>233.88</ele>
        <time>2018-09-09T15:06:03Z</time>
      </trkpt>
      <trkpt lat="45.31092" lon="5.93297">
        <ele>233.88</ele>
        <time>2018-09-09T15:06:04Z</time>
      </trkpt>
      <trkpt lat="45.31066" lon="5.93269">
        <ele>233.88</ele>
        <time>2018-09-09T15:06:05Z</time>
      </trkpt>
      <trkpt lat="45.31041" lon="5.93241">
        <ele>233.88</ele>
        <time>2018-09-09T15:06:06Z</time>
      </trkpt>
      <trkpt lat="45.31014" lon="5.93214">
        <ele>233.88</ele>
        <time>2018-09-09T15:06:07Z</time>
      </trkpt>
      <trkpt lat="45.30988" lon="5.93186">
        <ele>233.88</ele>
        <time>2018-09-09T15:06:08Z</time>
      </trkpt>
      <trkpt lat="45.30962" lon="5.93158">
        <ele>233.88</ele>
        <time>2018-09-09T15:06:09Z</time>
      </trkpt>
      <trkpt lat="45.30935" lon="5.9313">
        <ele>233.88</ele>
        <time>2018-09-09T15:06:10Z</time>
      </trkpt>
      <trkpt lat="45.30909" lon="5.93103">
        <ele>233.88</ele>
        <time>2018-09-09T15:06:11Z</time>
      </trkpt>
      <trkpt lat="45.30882" lon="5.93076">
        <ele>233.18</ele>
        <time>2018-09-09T15:06:12Z</time>
      </trkpt>
      <trkpt lat="45.30854" lon="5.93049">
        <ele>232.97</ele>
        <time>2018-09-09T15:06:13Z</time>
      </trkpt>
      <trkpt lat="45.30826" lon="5.93023">
        <ele>232.9</ele>
        <time>2018-09-09T15:06:14Z</time>
      </trkpt>
      <trkpt lat="45.30798" lon="5.92997">
        <ele>232.89</ele>
        <time>2018-09-09T15:06:15Z</time>
      </trkpt>
      <trkpt lat="45.3077" lon="5.92971">
        <ele>232.88</ele>
        <time>2018-09-09T15:06:16Z</time>
      </trkpt>
      <trkpt lat="45.30742" lon="5.92946">
        <ele>232.88</ele>
        <time>2018-09-09T15:06:17Z</time>
      </trkpt>
      <trkpt lat="45.30715" lon="5.92921">
        <ele>232.88</ele>
        <time>2018-09-09T15:06:18Z</time>
      </trkpt>
      <trkpt lat="45.30687" lon="5.92896">
        <ele>232.88</ele>
        <time>2018-09-09T15:06:19Z</time>
      </trkpt>
      <trkpt lat="45.3066" lon="5.92872">
        <ele>232.18</ele>
        <time>2018-09-09T15:06:20Z</time>
      </trkpt>
      <trkpt lat="45.30633" lon="5.92847">
        <ele>231.97</ele>
        <time>2018-09-09T15:06:21Z</time>
      </trkpt>
      <trkpt lat="45.30605" lon="5.92824">
        <ele>232.6</ele>
        <time>2018-09-09T15:06:22Z</time>
      </trkpt>
      <trkpt lat="45.30577" lon="5.92801">
        <ele>232.8</ele>
        <time>2018-09-09T15:06:23Z</time>
      </trkpt>
      <trkpt lat="45.30548" lon="5.92778">
        <ele>232.15</ele>
        <time>2018-09-09T15:06:24Z</time>
      </trkpt>
      <trkpt lat="45.3052" lon="5.92756">
        <ele>232.66</ele>
        <time>2018-09-09T15:06:25Z</time>
      </trkpt>
      <trkpt lat="45.30492" lon="5.92734">
        <ele>232.81</ele>
        <time>2018-09-09T15:06:26Z</time>
      </trkpt>
      <trkpt lat="45.30463" lon="5.92712">
        <ele>232.86</ele>
        <time>2018-09-09T15:06:27Z</time>
      </trkpt>
      <trkpt lat="45.30435" lon="5.92689">
        <ele>232.87</ele>
        <time>2018-09-09T15:06:28Z</time>
      </trkpt>
      <trkpt lat="45.30406" lon="5.92668">
        <ele>232.88</ele>
        <time>2018-09-09T15:06:29Z</time>
      </trkpt>
      <trkpt lat="45.30377" lon="5.92647">
        <ele>232.88</ele>
        <time>2018-09-09T15:06:30Z</time>
      </trkpt>
      <trkpt lat="45.30348" lon="5.92626">
        <ele>232.88</ele>
        <time>2018-09-09T15:06:31Z</time>
      </trkpt>
      <trkpt lat="45.30319" lon="5.92605">
        <ele>232.88</ele>
        <time>2018-09-09T15:06:32Z</time>
      </trkpt>
      <trkpt lat="45.30289" lon="5.92584">
        <ele>232.88</ele>
        <time>2018-09-09T15:06:33Z</time>
      </trkpt>
      <trkpt lat="45.3026" lon="5.92564">
        <ele>232.18</ele>
        <time>2018-09-09T15:06:34Z</time>
      </trkpt>
      <trkpt lat="45.30231" lon="5.92543">
        <ele>232.67</ele>
        <time>2018-09-09T15:06:35Z</time>
      </trkpt>
      <trkpt lat="45.30202" lon="5.92523">
        <ele>232.82</ele>
        <time>2018-09-09T15:06:36Z</time>
      </trkpt>
      <trkpt lat="45.30172" lon="5.92503">
        <ele>232.86</ele>
        <time>2018-09-09T15:06:37Z</time>
      </trkpt>
      <trkpt lat="45.30143" lon="5.92482">
        <ele>232.87</ele>
        <time>2018-09-09T15:06:38Z</time>
      </trkpt>
      <trkpt lat="45.30114" lon="5.92462">
        <ele>232.88</ele>
        <time>2018-09-09T15:06:39Z</time>
      </trkpt>
      <trkpt lat="45.30084" lon="5.92443">
        <ele>232.88</ele>
        <time>2018-09-09T15:06:40Z</time>
      </trkpt>
      <trkpt lat="45.30055" lon="5.92424">
        <ele>232.88</ele>
        <time>2018-09-09T15:06:41Z</time>
      </trkpt>
      <trkpt lat="45.30026" lon="5.92404">
        <ele>233.58</ele>
        <time>2018-09-09T15:06:42Z</time>
      </trkpt>
      <trkpt lat="45.29997" lon="5.92384">
        <ele>233.79</ele>
        <time>2018-09-09T15:06:43Z</time>
      </trkpt>
      <trkpt lat="45.29968" lon="5.92365">
        <ele>233.85</ele>
        <time>2018-09-09T15:06:44Z</time>
      </trkpt>
      <trkpt lat="45.29938" lon="5.92345">
        <ele>233.17</ele>
        <time>2018-09-09T15:06:45Z</time>
      </trkpt>
      <trkpt lat="45.29909" lon="5.92325">
        <ele>232.97</ele>
        <time>2018-09-09T15:06:46Z</time>
      </trkpt>
      <trkpt lat="45.29879" lon="5.92305">
        <ele>232.9</ele>
        <time>2018-09-09T15:06:47Z</time>
      </trkpt>
      <trkpt lat="45.2985" lon="5.92286">
        <ele>232.89</ele>
        <time>2018-09-09T15:06:48Z</time>
      </trkpt>
      <trkpt lat="45.29821" lon="5.92266">
        <ele>232.88</ele>
        <time>2018-09-09T15:06:49Z</time>
      </trkpt>
      <trkpt lat="45.29792" lon="5.92246">
        <ele>232.88</ele>
        <time>2018-09-09T15:06:50Z</time>
      </trkpt>
      <trkpt lat="45.29762" lon="5.92226">
        <ele>232.88</ele>
        <time>2018-09-09T15:06:51Z</time>
      </trkpt>
      <trkpt lat="45.29734" lon="5.92205">
        <ele>232.18</ele>
        <time>2018-09-09T15:06:52Z</time>
      </trkpt>
      <trkpt lat="45.29705" lon="5.92186">
        <ele>231.97</ele>
        <time>2018-09-09T15:06:53Z</time>
      </trkpt>
      <trkpt lat="45.29676" lon="5.92166">
        <ele>232.61</ele>
        <time>2018-09-09T15:06:54Z</time>
      </trkpt>
      <trkpt lat="45.29647" lon="5.92146">
        <ele>232.1</ele>
        <time>2018-09-09T15:06:55Z</time>
      </trkpt>
      <trkpt lat="45.29618" lon="5.92126">
        <ele>231.94</ele>
        <time>2018-09-09T15:06:56Z</time>
      </trkpt>
      <trkpt lat="45.29588" lon="5.92106">
        <ele>231.9</ele>
        <time>2018-09-09T15:06:57Z</time>
      </trkpt>
      <trkpt lat="45.2956" lon="5.92085">
        <ele>231.88</ele>
        <time>2018-09-09T15:06:58Z</time>
      </trkpt>
      <trkpt lat="45.29531" lon="5.92064">
        <ele>231.88</ele>
        <time>2018-09-09T15:06:59Z</time>
      </trkpt>
      <trkpt lat="45.29503" lon="5.92043">
        <ele>231.88</ele>
        <time>2018-09-09T15:07:00Z</time>
      </trkpt>
      <trkpt lat="45.29474" lon="5.92022">
        <ele>231.88</ele>
        <time>2018-09-09T15:07:01Z</time>
      </trkpt>
      <trkpt lat="45.29445" lon="5.92002">
        <ele>231.88</ele>
        <time>2018-09-09T15:07:02Z</time>
      </trkpt>
      <trkpt lat="45.29416" lon="5.91981">
        <ele>231.88</ele>
        <time>2018-09-09T15:07:03Z</time>
      </trkpt>
      <trkpt lat="45.29387" lon="5.9196">
        <ele>231.88</ele>
        <time>2018-09-09T15:07:04Z</time>
      </trkpt>
      <trkpt lat="45.29358" lon="5.9194">
        <ele>231.88</ele>
        <time>2018-09-09T15:07:05Z</time>
      </trkpt>
      <trkpt lat="45.29329" lon="5.91918">
        <ele>231.88</ele>
        <time>2018-09-09T15:07:06Z</time>
      </trkpt>
      <trkpt lat="45.29301" lon="5.91896">
        <ele>231.18</ele>
        <time>2018-09-09T15:07:07Z</time>
      </trkpt>
      <trkpt lat="45.29272" lon="5.91875">
        <ele>230.97</ele>
        <time>2018-09-09T15:07:08Z</time>
      </trkpt>
      <trkpt lat="45.29244" lon="5.91853">
        <ele>230.9</ele>
        <time>2018-09-09T15:07:09Z</time>
      </trkpt>
      <trkpt lat="45.29216" lon="5.91831">
        <ele>230.89</ele>
        <time>2018-09-09T15:07:10Z</time>
      </trkpt>
      <trkpt lat="45.29187" lon="5.91809">
        <ele>230.88</ele>
        <time>2018-09-09T15:07:11Z</time>
      </trkpt>
      <trkpt lat="45.29158" lon="5.91788">
        <ele>231.58</ele>
        <time>2018-09-09T15:07:12Z</time>
      </trkpt>
      <trkpt lat="45.29129" lon="5.91767">
        <ele>231.79</ele>
        <time>2018-09-09T15:07:13Z</time>
      </trkpt>
      <trkpt lat="45.291" lon="5.91746">
        <ele>231.85</ele>
        <time>2018-09-09T15:07:14Z</time>
      </trkpt>
      <trkpt lat="45.29071" lon="5.91725">
        <ele>231.87</ele>
        <time>2018-09-09T15:07:15Z</time>
      </trkpt>
      <trkpt lat="45.29042" lon="5.91704">
        <ele>231.88</ele>
        <time>2018-09-09T15:07:16Z</time>
      </trkpt>
      <trkpt lat="45.29014" lon="5.91682">
        <ele>231.88</ele>
        <time>2018-09-09T15:07:17Z</time>
      </trkpt>
      <trkpt lat="45.28985" lon="5.9166">
        <ele>231.88</ele>
        <time>2018-09-09T15:07:18Z</time>
      </trkpt>
      <trkpt lat="45.28957" lon="5.91638">
        <ele>231.88</ele>
        <time>2018-09-09T15:07:19Z</time>
      </trkpt>
      <trkpt lat="45.28928" lon="5.91616">
        <ele>231.88</ele>
        <time>2018-09-09T15:07:20Z</time>
      </trkpt>
      <trkpt lat="45.28901" lon="5.91595">
        <ele>231.88</ele>
        <time>2018-09-09T15:07:21Z</time>
      </trkpt>
      <trkpt lat="45.28873" lon="5.91573">
        <ele>231.88</ele>
        <time>2018-09-09T15:07:22Z</time>
      </trkpt>
      <trkpt lat="45.28845" lon="5.91551">
        <ele>231.88</ele>
        <time>2018-09-09T15:07:23Z</time>
      </trkpt>
      <trkpt lat="45.28818" lon="5.91529">
        <ele>231.88</ele>
        <time>2018-09-09T15:07:24Z</time>
      </trkpt>
      <trkpt lat="45.2879" lon="5.91507">
        <ele>231.88</ele>
        <time>2018-09-09T15:07:25Z</time>
      </trkpt>
      <trkpt lat="45.28764" lon="5.91485">
        <ele>231.88</ele>
        <time>2018-09-09T15:07:26Z</time>
      </trkpt>
      <trkpt lat="45.28737" lon="5.91462">
        <ele>231.88</ele>
        <time>2018-09-09T15:07:27Z</time>
      </trkpt>
      <trkpt lat="45.2871" lon="5.91439">
        <ele>231.88</ele>
        <time>2018-09-09T15:07:28Z</time>
      </trkpt>
      <trkpt lat="45.28683" lon="5.91416">
        <ele>232.58</ele>
        <time>2018-09-09T15:07:29Z</time>
      </trkpt>
      <trkpt lat="45.28656" lon="5.91393">
        <ele>232.09</ele>
        <time>2018-09-09T15:07:30Z</time>
      </trkpt>
      <trkpt lat="45.28628" lon="5.9137">
        <ele>231.94</ele>
        <time>2018-09-09T15:07:31Z</time>
      </trkpt>
      <trkpt lat="45.286" lon="5.91348">
        <ele>231.9</ele>
        <time>2018-09-09T15:07:32Z</time>
      </trkpt>
      <trkpt lat="45.28573" lon="5.91326">
        <ele>232.58</ele>
        <time>2018-09-09T15:07:33Z</time>
      </trkpt>
      <trkpt lat="45.28545" lon="5.91303">
        <ele>232.79</ele>
        <time>2018-09-09T15:07:34Z</time>
      </trkpt>
      <trkpt lat="45.28517" lon="5.91281">
        <ele>232.15</ele>
        <time>2018-09-09T15:07:35Z</time>
      </trkpt>
      <trkpt lat="45.28489" lon="5.91258">
        <ele>232.66</ele>
        <time>2018-09-09T15:07:36Z</time>
      </trkpt>
      <trkpt lat="45.28462" lon="5.91234">
        <ele>232.11</ele>
        <time>2018-09-09T15:07:37Z</time>
      </trkpt>
      <trkpt lat="45.28434" lon="5.9121">
        <ele>231.95</ele>
        <time>2018-09-09T15:07:38Z</time>
      </trkpt>
      <trkpt lat="45.28406" lon="5.91186">
        <ele>231.9</ele>
        <time>2018-09-09T15:07:39Z</time>
      </trkpt>
      <trkpt lat="45.28379" lon="5.91163">
        <ele>231.88</ele>
        <time>2018-09-09T15:07:40Z</time>
      </trkpt>
      <trkpt lat="45.28351" lon="5.9114">
        <ele>231.18</ele>
        <time>2018-09-09T15:07:41Z</time>
      </trkpt>
      <trkpt lat="45.28323" lon="5.91116">
        <ele>230.97</ele>
        <time>2018-09-09T15:07:42Z</time>
      </trkpt>
      <trkpt lat="45.28296" lon="5.91093">
        <ele>230.91</ele>
        <time>2018-09-09T15:07:43Z</time>
      </trkpt>
      <trkpt lat="45.28268" lon="5.91069">
        <ele>230.89</ele>
        <time>2018-09-09T15:07:44Z</time>
      </trkpt>
      <trkpt lat="45.28241" lon="5.91045">
        <ele>230.88</ele>
        <time>2018-09-09T15:07:45Z</time>
      </trkpt>
      <trkpt lat="45.28213" lon="5.91021">
        <ele>230.88</ele>
        <time>2018-09-09T15:07:46Z</time>
      </trkpt>
      <trkpt lat="45.28185" lon="5.90997">
        <ele>230.88</ele>
        <time>2018-09-09T15:07:47Z</time>
      </trkpt>
      <trkpt lat="45.28158" lon="5.90972">
        <ele>230.88</ele>
        <time>2018-09-09T15:07:48Z</time>
      </trkpt>
      <trkpt lat="45.2813" lon="5.90948">
        <ele>230.88</ele>
        <time>2018-09-09T15:07:49Z</time>
      </trkpt>
      <trkpt lat="45.28103" lon="5.90924">
        <ele>230.88</ele>
        <time>2018-09-09T15:07:50Z</time>
      </trkpt>
      <trkpt lat="45.28076" lon="5.909">
        <ele>230.88</ele>
        <time>2018-09-09T15:07:51Z</time>
      </trkpt>
      <trkpt lat="45.28048" lon="5.90875">
        <ele>230.88</ele>
        <time>2018-09-09T15:07:52Z</time>
      </trkpt>
      <trkpt lat="45.28021" lon="5.9085">
        <ele>230.88</ele>
        <time>2018-09-09T15:07:53Z</time>
      </trkpt>
      <trkpt lat="45.27993" lon="5.90826">
        <ele>230.88</ele>
        <time>2018-09-09T15:07:54Z</time>
      </trkpt>
      <trkpt lat="45.27965" lon="5.90802">
        <ele>230.88</ele>
        <time>2018-09-09T15:07:55Z</time>
      </trkpt>
      <trkpt lat="45.27937" lon="5.90778">
        <ele>230.88</ele>
        <time>2018-09-09T15:07:56Z</time>
      </trkpt>
      <trkpt lat="45.2791" lon="5.90754">
        <ele>230.88</ele>
        <time>2018-09-09T15:07:57Z</time>
      </trkpt>
      <trkpt lat="45.27884" lon="5.9073">
        <ele>230.88</ele>
        <time>2018-09-09T15:07:58Z</time>
      </trkpt>
      <trkpt lat="45.27858" lon="5.90707">
        <ele>230.88</ele>
        <time>2018-09-09T15:07:59Z</time>
      </trkpt>
      <trkpt lat="45.27832" lon="5.90683">
        <ele>230.88</ele>
        <time>2018-09-09T15:08:00Z</time>
      </trkpt>
      <trkpt lat="45.27807" lon="5.90661">
        <ele>230.88</ele>
        <time>2018-09-09T15:08:01Z</time>
      </trkpt>
      <trkpt lat="45.27783" lon="5.90638">
        <ele>230.88</ele>
        <time>2018-09-09T15:08:02Z</time>
      </trkpt>
      <trkpt lat="45.27759" lon="5.90616">
        <ele>230.88</ele>
        <time>2018-09-09T15:08:03Z</time>
      </trkpt>
      <trkpt lat="45.27735" lon="5.90594">
        <ele>230.88</ele>
        <time>2018-09-09T15:08:04Z</time>
      </trkpt>
      <trkpt lat="45.27711" lon="5.90571">
        <ele>230.88</ele>
        <time>2018-09-09T15:08:05Z</time>
      </trkpt>
      <trkpt lat="45.27687" lon="5.90549">
        <ele>230.88</ele>
        <time>2018-09-09T15:08:06Z</time>
      </trkpt>
      <trkpt lat="45.27664" lon="5.90527">
        <ele>230.88</ele>
        <time>2018-09-09T15:08:07Z</time>
      </trkpt>
      <trkpt lat="45.27641" lon="5.90505">
        <ele>230.88</ele>
        <time>2018-09-09T15:08:08Z</time>
      </trkpt>
      <trkpt lat="45.27618" lon="5.90483">
        <ele>230.18</ele>
        <time>2018-09-09T15:08:09Z</time>
      </trkpt>
      <trkpt lat="45.27596" lon="5.90461">
        <ele>229.97</ele>
        <time>2018-09-09T15:08:10Z</time>
      </trkpt>
      <trkpt lat="45.27574" lon="5.9044">
        <ele>229.9</ele>
        <time>2018-09-09T15:08:11Z</time>
      </trkpt>
      <trkpt lat="45.27552" lon="5.90419">
        <ele>229.89</ele>
        <time>2018-09-09T15:08:12Z</time>
      </trkpt>
      <trkpt lat="45.2753" lon="5.90398">
        <ele>229.88</ele>
        <time>2018-09-09T15:08:13Z</time>
      </trkpt>
      <trkpt lat="45.27509" lon="5.90378">
        <ele>229.88</ele>
        <time>2018-09-09T15:08:14Z</time>
      </trkpt>
      <trkpt lat="45.27489" lon="5.90359">
        <ele>229.88</ele>
        <time>2018-09-09T15:08:15Z</time>
      </trkpt>
      <trkpt lat="45.27469" lon="5.9034">
        <ele>229.88</ele>
        <time>2018-09-09T15:08:16Z</time>
      </trkpt>
      <trkpt lat="45.27449" lon="5.90321">
        <ele>229.88</ele>
        <time>2018-09-09T15:08:17Z</time>
      </trkpt>
      <trkpt lat="45.2743" lon="5.90302">
        <ele>229.88</ele>
        <time>2018-09-09T15:08:18Z</time>
      </trkpt>
      <trkpt lat="45.27411" lon="5.90284">
        <ele>229.18</ele>
        <time>2018-09-09T15:08:19Z</time>
      </trkpt>
      <trkpt lat="45.27394" lon="5.90266">
        <ele>228.97</ele>
        <time>2018-09-09T15:08:20Z</time>
      </trkpt>
      <trkpt lat="45.27377" lon="5.90248">
        <ele>228.9</ele>
        <time>2018-09-09T15:08:21Z</time>
      </trkpt>
      <trkpt lat="45.2736" lon="5.90231">
        <ele>228.89</ele>
        <time>2018-09-09T15:08:22Z</time>
      </trkpt>
      <trkpt lat="45.27344" lon="5.90213">
        <ele>228.88</ele>
        <time>2018-09-09T15:08:23Z</time>
      </trkpt>
      <trkpt lat="45.27328" lon="5.90195">
        <ele>228.18</ele>
        <time>2018-09-09T15:08:24Z</time>
      </trkpt>
      <trkpt lat="45.27313" lon="5.90178">
        <ele>227.97</ele>
        <time>2018-09-09T15:08:25Z</time>
      </trkpt>
      <trkpt lat="45.27286" lon="5.90147">
        <ele>228.1</ele>
        <time>2018-09-09T15:08:27Z</time>
      </trkpt>
      <trkpt lat="45.27263" lon="5.90119">
        <ele>227.9</ele>
        <time>2018-09-09T15:08:29Z</time>
      </trkpt>
      <trkpt lat="45.27245" lon="5.90096">
        <ele>227.88</ele>
        <time>2018-09-09T15:08:31Z</time>
      </trkpt>
      <trkpt lat="45.27231" lon="5.9008">
        <ele>227.88</ele>
        <time>2018-09-09T15:08:33Z</time>
      </trkpt>
      <trkpt lat="45.27214" lon="5.90061">
        <ele>227.82</ele>
        <time>2018-09-09T15:08:36Z</time>
      </trkpt>
      <trkpt lat="45.27197" lon="5.90044">
        <ele>226.94</ele>
        <time>2018-09-09T15:08:41Z</time>
      </trkpt>
      <trkpt lat="45.27183" lon="5.90027">
        <ele>223.28</ele>
        <time>2018-09-09T15:09:54Z</time>
      </trkpt>
      <trkpt lat="45.27163" lon="5.9001">
        <ele>224.73</ele>
        <time>2018-09-09T15:09:56Z</time>
      </trkpt>
      <trkpt lat="45.27145" lon="5.89997">
        <ele>224.83</ele>
        <time>2018-09-09T15:09:57Z</time>
      </trkpt>
      <trkpt lat="45.27123" lon="5.8998">
        <ele>224.87</ele>
        <time>2018-09-09T15:09:58Z</time>
      </trkpt>
      <trkpt lat="45.27099" lon="5.8996">
        <ele>224.87</ele>
        <time>2018-09-09T15:09:59Z</time>
      </trkpt>
      <trkpt lat="45.27073" lon="5.89936">
        <ele>224.88</ele>
        <time>2018-09-09T15:10:00Z</time>
      </trkpt>
      <trkpt lat="45.27046" lon="5.89909">
        <ele>224.88</ele>
        <time>2018-09-09T15:10:01Z</time>
      </trkpt>
      <trkpt lat="45.27017" lon="5.8988">
        <ele>224.88</ele>
        <time>2018-09-09T15:10:02Z</time>
      </trkpt>
      <trkpt lat="45.26986" lon="5.89849">
        <ele>224.88</ele>
        <time>2018-09-09T15:10:03Z</time>
      </trkpt>
      <trkpt lat="45.26955" lon="5.89817">
        <ele>225.58</ele>
        <time>2018-09-09T15:10:04Z</time>
      </trkpt>
      <trkpt lat="45.26924" lon="5.89785">
        <ele>225.79</ele>
        <time>2018-09-09T15:10:05Z</time>
      </trkpt>
      <trkpt lat="45.26895" lon="5.89754">
        <ele>225.85</ele>
        <time>2018-09-09T15:10:06Z</time>
      </trkpt>
      <trkpt lat="45.26869" lon="5.89725">
        <ele>225.87</ele>
        <time>2018-09-09T15:10:07Z</time>
      </trkpt>
      <trkpt lat="45.26842" lon="5.89698">
        <ele>225.88</ele>
        <time>2018-09-09T15:10:08Z</time>
      </trkpt>
      <trkpt lat="45.26817" lon="5.89671">
        <ele>226.58</ele>
        <time>2018-09-09T15:10:09Z</time>
      </trkpt>
      <trkpt lat="45.26793" lon="5.89645">
        <ele>226.79</ele>
        <time>2018-09-09T15:10:10Z</time>
      </trkpt>
      <trkpt lat="45.26768" lon="5.89619">
        <ele>226.85</ele>
        <time>2018-09-09T15:10:11Z</time>
      </trkpt>
      <trkpt lat="45.26745" lon="5.89594">
        <ele>226.87</ele>
        <time>2018-09-09T15:10:12Z</time>
      </trkpt>
      <trkpt lat="45.2672" lon="5.89568">
        <ele>226.18</ele>
        <time>2018-09-09T15:10:13Z</time>
      </trkpt>
      <trkpt lat="45.26696" lon="5.89542">
        <ele>226.67</ele>
        <time>2018-09-09T15:10:14Z</time>
      </trkpt>
      <trkpt lat="45.26672" lon="5.89516">
        <ele>226.11</ele>
        <time>2018-09-09T15:10:15Z</time>
      </trkpt>
      <trkpt lat="45.26648" lon="5.8949">
        <ele>225.95</ele>
        <time>2018-09-09T15:10:16Z</time>
      </trkpt>
      <trkpt lat="45.26624" lon="5.89464">
        <ele>225.9</ele>
        <time>2018-09-09T15:10:17Z</time>
      </trkpt>
      <trkpt lat="45.266" lon="5.89437">
        <ele>225.88</ele>
        <time>2018-09-09T15:10:18Z</time>
      </trkpt>
      <trkpt lat="45.26575" lon="5.89411">
        <ele>226.58</ele>
        <time>2018-09-09T15:10:19Z</time>
      </trkpt>
      <trkpt lat="45.26549" lon="5.89384">
        <ele>226.09</ele>
        <time>2018-09-09T15:10:20Z</time>
      </trkpt>
      <trkpt lat="45.26523" lon="5.89355">
        <ele>226.64</ele>
        <time>2018-09-09T15:10:21Z</time>
      </trkpt>
      <trkpt lat="45.26498" lon="5.89326">
        <ele>226.81</ele>
        <time>2018-09-09T15:10:22Z</time>
      </trkpt>
      <trkpt lat="45.26472" lon="5.89296">
        <ele>226.86</ele>
        <time>2018-09-09T15:10:23Z</time>
      </trkpt>
      <trkpt lat="45.26446" lon="5.89267">
        <ele>226.87</ele>
        <time>2018-09-09T15:10:24Z</time>
      </trkpt>
      <trkpt lat="45.2642" lon="5.89237">
        <ele>226.88</ele>
        <time>2018-09-09T15:10:25Z</time>
      </trkpt>
      <trkpt lat="45.26394" lon="5.89208">
        <ele>226.88</ele>
        <time>2018-09-09T15:10:26Z</time>
      </trkpt>
      <trkpt lat="45.26368" lon="5.89179">
        <ele>226.88</ele>
        <time>2018-09-09T15:10:27Z</time>
      </trkpt>
      <trkpt lat="45.26343" lon="5.8915">
        <ele>226.88</ele>
        <time>2018-09-09T15:10:28Z</time>
      </trkpt>
      <trkpt lat="45.26317" lon="5.89121">
        <ele>226.18</ele>
        <time>2018-09-09T15:10:29Z</time>
      </trkpt>
      <trkpt lat="45.26291" lon="5.89092">
        <ele>226.67</ele>
        <time>2018-09-09T15:10:30Z</time>
      </trkpt>
      <trkpt lat="45.26266" lon="5.89063">
        <ele>226.82</ele>
        <time>2018-09-09T15:10:31Z</time>
      </trkpt>
      <trkpt lat="45.2624" lon="5.89034">
        <ele>226.86</ele>
        <time>2018-09-09T15:10:32Z</time>
      </trkpt>
      <trkpt lat="45.26214" lon="5.89005">
        <ele>226.87</ele>
        <time>2018-09-09T15:10:33Z</time>
      </trkpt>
      <trkpt lat="45.26189" lon="5.88976">
        <ele>226.88</ele>
        <time>2018-09-09T15:10:34Z</time>
      </trkpt>
      <trkpt lat="45.26164" lon="5.88946">
        <ele>226.88</ele>
        <time>2018-09-09T15:10:35Z</time>
      </trkpt>
      <trkpt lat="45.26139" lon="5.88917">
        <ele>226.88</ele>
        <time>2018-09-09T15:10:36Z</time>
      </trkpt>
      <trkpt lat="45.26114" lon="5.88887">
        <ele>226.88</ele>
        <time>2018-09-09T15:10:37Z</time>
      </trkpt>
      <trkpt lat="45.26089" lon="5.88857">
        <ele>226.18</ele>
        <time>2018-09-09T15:10:38Z</time>
      </trkpt>
      <trkpt lat="45.26065" lon="5.88827">
        <ele>225.97</ele>
        <time>2018-09-09T15:10:39Z</time>
      </trkpt>
      <trkpt lat="45.26041" lon="5.88796">
        <ele>226.6</ele>
        <time>2018-09-09T15:10:40Z</time>
      </trkpt>
      <trkpt lat="45.26017" lon="5.88765">
        <ele>226.1</ele>
        <time>2018-09-09T15:10:41Z</time>
      </trkpt>
      <trkpt lat="45.25992" lon="5.88735">
        <ele>225.94</ele>
        <time>2018-09-09T15:10:42Z</time>
      </trkpt>
      <trkpt lat="45.25967" lon="5.88705">
        <ele>225.9</ele>
        <time>2018-09-09T15:10:43Z</time>
      </trkpt>
      <trkpt lat="45.25942" lon="5.88675">
        <ele>225.88</ele>
        <time>2018-09-09T15:10:44Z</time>
      </trkpt>
      <trkpt lat="45.25917" lon="5.88645">
        <ele>225.88</ele>
        <time>2018-09-09T15:10:45Z</time>
      </trkpt>
      <trkpt lat="45.25892" lon="5.88614">
        <ele>225.88</ele>
        <time>2018-09-09T15:10:46Z</time>
      </trkpt>
      <trkpt lat="45.25867" lon="5.88584">
        <ele>225.18</ele>
        <time>2018-09-09T15:10:47Z</time>
      </trkpt>
      <trkpt lat="45.25843" lon="5.88553">
        <ele>224.97</ele>
        <time>2018-09-09T15:10:48Z</time>
      </trkpt>
      <trkpt lat="45.25818" lon="5.88523">
        <ele>224.91</ele>
        <time>2018-09-09T15:10:49Z</time>
      </trkpt>
      <trkpt lat="45.25794" lon="5.88492">
        <ele>224.89</ele>
        <time>2018-09-09T15:10:50Z</time>
      </trkpt>
      <trkpt lat="45.2577" lon="5.88462">
        <ele>224.88</ele>
        <time>2018-09-09T15:10:51Z</time>
      </trkpt>
      <trkpt lat="45.25745" lon="5.88431">
        <ele>224.88</ele>
        <time>2018-09-09T15:10:52Z</time>
      </trkpt>
      <trkpt lat="45.25722" lon="5.88401">
        <ele>224.88</ele>
        <time>2018-09-09T15:10:53Z</time>
      </trkpt>
      <trkpt lat="45.25697" lon="5.88371">
        <ele>224.88</ele>
        <time>2018-09-09T15:10:54Z</time>
      </trkpt>
      <trkpt lat="45.25674" lon="5.88341">
        <ele>224.88</ele>
        <time>2018-09-09T15:10:55Z</time>
      </trkpt>
      <trkpt lat="45.2565" lon="5.8831">
        <ele>224.88</ele>
        <time>2018-09-09T15:10:56Z</time>
      </trkpt>
      <trkpt lat="45.25626" lon="5.88279">
        <ele>224.88</ele>
        <time>2018-09-09T15:10:57Z</time>
      </trkpt>
      <trkpt lat="45.25602" lon="5.88248">
        <ele>224.88</ele>
        <time>2018-09-09T15:10:58Z</time>
      </trkpt>
      <trkpt lat="45.25578" lon="5.88218">
        <ele>224.88</ele>
        <time>2018-09-09T15:10:59Z</time>
      </trkpt>
      <trkpt lat="45.25554" lon="5.88187">
        <ele>224.18</ele>
        <time>2018-09-09T15:11:00Z</time>
      </trkpt>
      <trkpt lat="45.25531" lon="5.88157">
        <ele>223.97</ele>
        <time>2018-09-09T15:11:01Z</time>
      </trkpt>
      <trkpt lat="45.25507" lon="5.88125">
        <ele>224.6</ele>
        <time>2018-09-09T15:11:02Z</time>
      </trkpt>
      <trkpt lat="45.25483" lon="5.88094">
        <ele>224.8</ele>
        <time>2018-09-09T15:11:03Z</time>
      </trkpt>
      <trkpt lat="45.2546" lon="5.88062">
        <ele>224.85</ele>
        <time>2018-09-09T15:11:04Z</time>
      </trkpt>
      <trkpt lat="45.25437" lon="5.88029">
        <ele>224.87</ele>
        <time>2018-09-09T15:11:05Z</time>
      </trkpt>
      <trkpt lat="45.25414" lon="5.87997">
        <ele>224.88</ele>
        <time>2018-09-09T15:11:06Z</time>
      </trkpt>
      <trkpt lat="45.25391" lon="5.87964">
        <ele>224.88</ele>
        <time>2018-09-09T15:11:07Z</time>
      </trkpt>
      <trkpt lat="45.25368" lon="5.87932">
        <ele>224.88</ele>
        <time>2018-09-09T15:11:08Z</time>
      </trkpt>
      <trkpt lat="45.25344" lon="5.879">
        <ele>224.88</ele>
        <time>2018-09-09T15:11:09Z</time>
      </trkpt>
      <trkpt lat="45.25321" lon="5.87866">
        <ele>224.88</ele>
        <time>2018-09-09T15:11:10Z</time>
      </trkpt>
      <trkpt lat="45.25298" lon="5.87832">
        <ele>224.88</ele>
        <time>2018-09-09T15:11:11Z</time>
      </trkpt>
      <trkpt lat="45.25275" lon="5.87798">
        <ele>224.18</ele>
        <time>2018-09-09T15:11:12Z</time>
      </trkpt>
      <trkpt lat="45.25252" lon="5.87765">
        <ele>224.67</ele>
        <time>2018-09-09T15:11:13Z</time>
      </trkpt>
      <trkpt lat="45.25229" lon="5.8773">
        <ele>224.82</ele>
        <time>2018-09-09T15:11:14Z</time>
      </trkpt>
      <trkpt lat="45.25207" lon="5.87696">
        <ele>224.16</ele>
        <time>2018-09-09T15:11:15Z</time>
      </trkpt>
      <trkpt lat="45.25184" lon="5.87661">
        <ele>223.96</ele>
        <time>2018-09-09T15:11:16Z</time>
      </trkpt>
      <trkpt lat="45.25162" lon="5.87626">
        <ele>223.9</ele>
        <time>2018-09-09T15:11:17Z</time>
      </trkpt>
      <trkpt lat="45.2514" lon="5.87591">
        <ele>223.89</ele>
        <time>2018-09-09T15:11:18Z</time>
      </trkpt>
      <trkpt lat="45.25118" lon="5.87557">
        <ele>223.88</ele>
        <time>2018-09-09T15:11:19Z</time>
      </trkpt>
      <trkpt lat="45.25097" lon="5.87522">
        <ele>223.88</ele>
        <time>2018-09-09T15:11:20Z</time>
      </trkpt>
      <trkpt lat="45.25075" lon="5.87488">
        <ele>223.88</ele>
        <time>2018-09-09T15:11:21Z</time>
      </trkpt>
      <trkpt lat="45.25054" lon="5.87453">
        <ele>223.88</ele>
        <time>2018-09-09T15:11:22Z</time>
      </trkpt>
      <trkpt lat="45.25034" lon="5.87418">
        <ele>223.88</ele>
        <time>2018-09-09T15:11:23Z</time>
      </trkpt>
      <trkpt lat="45.25014" lon="5.87383">
        <ele>223.18</ele>
        <time>2018-09-09T15:11:24Z</time>
      </trkpt>
      <trkpt lat="45.24993" lon="5.87348">
        <ele>222.17</ele>
        <time>2018-09-09T15:11:25Z</time>
      </trkpt>
      <trkpt lat="45.24973" lon="5.87313">
        <ele>222.57</ele>
        <time>2018-09-09T15:11:26Z</time>
      </trkpt>
      <trkpt lat="45.24953" lon="5.8728">
        <ele>221.99</ele>
        <time>2018-09-09T15:11:27Z</time>
      </trkpt>
      <trkpt lat="45.24934" lon="5.87247">
        <ele>221.82</ele>
        <time>2018-09-09T15:11:28Z</time>
      </trkpt>
      <trkpt lat="45.24914" lon="5.87214">
        <ele>221.76</ele>
        <time>2018-09-09T15:11:29Z</time>
      </trkpt>
      <trkpt lat="45.24895" lon="5.8718">
        <ele>221.75</ele>
        <time>2018-09-09T15:11:30Z</time>
      </trkpt>
      <trkpt lat="45.24877" lon="5.87146">
        <ele>221.04</ele>
        <time>2018-09-09T15:11:31Z</time>
      </trkpt>
      <trkpt lat="45.24859" lon="5.87112">
        <ele>220.83</ele>
        <time>2018-09-09T15:11:32Z</time>
      </trkpt>
      <trkpt lat="45.24841" lon="5.87078">
        <ele>220.77</ele>
        <time>2018-09-09T15:11:33Z</time>
      </trkpt>
      <trkpt lat="45.24824" lon="5.87044">
        <ele>220.75</ele>
        <time>2018-09-09T15:11:34Z</time>
      </trkpt>
      <trkpt lat="45.24806" lon="5.8701">
        <ele>220.74</ele>
        <time>2018-09-09T15:11:35Z</time>
      </trkpt>
      <trkpt lat="45.24789" lon="5.86976">
        <ele>220.74</ele>
        <time>2018-09-09T15:11:36Z</time>
      </trkpt>
      <trkpt lat="45.24771" lon="5.86941">
        <ele>220.74</ele>
        <time>2018-09-09T15:11:37Z</time>
      </trkpt>
      <trkpt lat="45.24754" lon="5.86907">
        <ele>220.74</ele>
        <time>2018-09-09T15:11:38Z</time>
      </trkpt>
      <trkpt lat="45.24737" lon="5.86872">
        <ele>220.74</ele>
        <time>2018-09-09T15:11:39Z</time>
      </trkpt>
      <trkpt lat="45.24721" lon="5.86836">
        <ele>220.74</ele>
        <time>2018-09-09T15:11:40Z</time>
      </trkpt>
      <trkpt lat="45.24705" lon="5.868">
        <ele>220.74</ele>
        <time>2018-09-09T15:11:41Z</time>
      </trkpt>
      <trkpt lat="45.24688" lon="5.86765">
        <ele>220.74</ele>
        <time>2018-09-09T15:11:42Z</time>
      </trkpt>
      <trkpt lat="45.24672" lon="5.86729">
        <ele>220.74</ele>
        <time>2018-09-09T15:11:43Z</time>
      </trkpt>
      <trkpt lat="45.24655" lon="5.86692">
        <ele>221.44</ele>
        <time>2018-09-09T15:11:44Z</time>
      </trkpt>
      <trkpt lat="45.24639" lon="5.86655">
        <ele>221.65</ele>
        <time>2018-09-09T15:11:45Z</time>
      </trkpt>
      <trkpt lat="45.24622" lon="5.86617">
        <ele>221.71</ele>
        <time>2018-09-09T15:11:46Z</time>
      </trkpt>
      <trkpt lat="45.24606" lon="5.86579">
        <ele>221.73</ele>
        <time>2018-09-09T15:11:47Z</time>
      </trkpt>
      <trkpt lat="45.2459" lon="5.86542">
        <ele>221.74</ele>
        <time>2018-09-09T15:11:48Z</time>
      </trkpt>
      <trkpt lat="45.24575" lon="5.86504">
        <ele>221.74</ele>
        <time>2018-09-09T15:11:49Z</time>
      </trkpt>
      <trkpt lat="45.24559" lon="5.86466">
        <ele>222.44</ele>
        <time>2018-09-09T15:11:50Z</time>
      </trkpt>
      <trkpt lat="45.24543" lon="5.86427">
        <ele>222.65</ele>
        <time>2018-09-09T15:11:51Z</time>
      </trkpt>
      <trkpt lat="45.24528" lon="5.86388">
        <ele>222.71</ele>
        <time>2018-09-09T15:11:52Z</time>
      </trkpt>
      <trkpt lat="45.24513" lon="5.86349">
        <ele>222.03</ele>
        <time>2018-09-09T15:11:53Z</time>
      </trkpt>
      <trkpt lat="45.24497" lon="5.86309">
        <ele>221.83</ele>
        <time>2018-09-09T15:11:54Z</time>
      </trkpt>
      <trkpt lat="45.24483" lon="5.8627">
        <ele>221.77</ele>
        <time>2018-09-09T15:11:55Z</time>
      </trkpt>
      <trkpt lat="45.24468" lon="5.8623">
        <ele>222.45</ele>
        <time>2018-09-09T15:11:56Z</time>
      </trkpt>
      <trkpt lat="45.24454" lon="5.8619">
        <ele>222.65</ele>
        <time>2018-09-09T15:11:57Z</time>
      </trkpt>
      <trkpt lat="45.24441" lon="5.8615">
        <ele>222.71</ele>
        <time>2018-09-09T15:11:58Z</time>
      </trkpt>
      <trkpt lat="45.24428" lon="5.86109">
        <ele>222.73</ele>
        <time>2018-09-09T15:11:59Z</time>
      </trkpt>
      <trkpt lat="45.24415" lon="5.86069">
        <ele>222.74</ele>
        <time>2018-09-09T15:12:00Z</time>
      </trkpt>
      <trkpt lat="45.24401" lon="5.86029">
        <ele>222.74</ele>
        <time>2018-09-09T15:12:01Z</time>
      </trkpt>
      <trkpt lat="45.24388" lon="5.85988">
        <ele>222.74</ele>
        <time>2018-09-09T15:12:02Z</time>
      </trkpt>
      <trkpt lat="45.24375" lon="5.85948">
        <ele>223.44</ele>
        <time>2018-09-09T15:12:03Z</time>
      </trkpt>
      <trkpt lat="45.24362" lon="5.85907">
        <ele>223.65</ele>
        <time>2018-09-09T15:12:04Z</time>
      </trkpt>
      <trkpt lat="45.24349" lon="5.85866">
        <ele>224.41</ele>
        <time>2018-09-09T15:12:05Z</time>
      </trkpt>
      <trkpt lat="45.24337" lon="5.85825">
        <ele>224.64</ele>
        <time>2018-09-09T15:12:06Z</time>
      </trkpt>
      <trkpt lat="45.24325" lon="5.85785">
        <ele>224.71</ele>
        <time>2018-09-09T15:12:07Z</time>
      </trkpt>
      <trkpt lat="45.24313" lon="5.85744">
        <ele>224.73</ele>
        <time>2018-09-09T15:12:08Z</time>
      </trkpt>
      <trkpt lat="45.24301" lon="5.85703">
        <ele>225.44</ele>
        <time>2018-09-09T15:12:09Z</time>
      </trkpt>
      <trkpt lat="45.24289" lon="5.85662">
        <ele>225.65</ele>
        <time>2018-09-09T15:12:10Z</time>
      </trkpt>
      <trkpt lat="45.24278" lon="5.85621">
        <ele>225.71</ele>
        <time>2018-09-09T15:12:11Z</time>
      </trkpt>
      <trkpt lat="45.24265" lon="5.85581">
        <ele>226.43</ele>
        <time>2018-09-09T15:12:12Z</time>
      </trkpt>
      <trkpt lat="45.24254" lon="5.8554">
        <ele>225.95</ele>
        <time>2018-09-09T15:12:13Z</time>
      </trkpt>
      <trkpt lat="45.24243" lon="5.855">
        <ele>226.5</ele>
        <time>2018-09-09T15:12:14Z</time>
      </trkpt>
      <trkpt lat="45.24232" lon="5.85459">
        <ele>227.37</ele>
        <time>2018-09-09T15:12:15Z</time>
      </trkpt>
      <trkpt lat="45.2422" lon="5.85419">
        <ele>227.63</ele>
        <time>2018-09-09T15:12:16Z</time>
      </trkpt>
      <trkpt lat="45.24209" lon="5.85379">
        <ele>228.41</ele>
        <time>2018-09-09T15:12:17Z</time>
      </trkpt>
      <trkpt lat="45.24197" lon="5.85339">
        <ele>229.34</ele>
        <time>2018-09-09T15:12:18Z</time>
      </trkpt>
      <trkpt lat="45.24186" lon="5.853">
        <ele>229.62</ele>
        <time>2018-09-09T15:12:19Z</time>
      </trkpt>
      <trkpt lat="45.24174" lon="5.8526">
        <ele>230.4</ele>
        <time>2018-09-09T15:12:20Z</time>
      </trkpt>
      <trkpt lat="45.24163" lon="5.85222">
        <ele>231.34</ele>
        <time>2018-09-09T15:12:21Z</time>
      </trkpt>
      <trkpt lat="45.24152" lon="5.85182">
        <ele>232.32</ele>
        <time>2018-09-09T15:12:22Z</time>
      </trkpt>
      <trkpt lat="45.2414" lon="5.85143">
        <ele>232.61</ele>
        <time>2018-09-09T15:12:23Z</time>
      </trkpt>
      <trkpt lat="45.24129" lon="5.85104">
        <ele>233.4</ele>
        <time>2018-09-09T15:12:24Z</time>
      </trkpt>
      <trkpt lat="45.24118" lon="5.85065">
        <ele>233.64</ele>
        <time>2018-09-09T15:12:25Z</time>
      </trkpt>
      <trkpt lat="45.24107" lon="5.85026">
        <ele>234.41</ele>
        <time>2018-09-09T15:12:26Z</time>
      </trkpt>
      <trkpt lat="45.24096" lon="5.84987">
        <ele>234.64</ele>
        <time>2018-09-09T15:12:27Z</time>
      </trkpt>
      <trkpt lat="45.24084" lon="5.84948">
        <ele>235.41</ele>
        <time>2018-09-09T15:12:28Z</time>
      </trkpt>
      <trkpt lat="45.24073" lon="5.8491">
        <ele>235.64</ele>
        <time>2018-09-09T15:12:29Z</time>
      </trkpt>
      <trkpt lat="45.24061" lon="5.84871">
        <ele>236.41</ele>
        <time>2018-09-09T15:12:30Z</time>
      </trkpt>
      <trkpt lat="45.24048" lon="5.84833">
        <ele>236.64</ele>
        <time>2018-09-09T15:12:31Z</time>
      </trkpt>
      <trkpt lat="45.24036" lon="5.84795">
        <ele>236.71</ele>
        <time>2018-09-09T15:12:32Z</time>
      </trkpt>
      <trkpt lat="45.24023" lon="5.84757">
        <ele>237.43</ele>
        <time>2018-09-09T15:12:33Z</time>
      </trkpt>
      <trkpt lat="45.2401" lon="5.84719">
        <ele>237.65</ele>
        <time>2018-09-09T15:12:34Z</time>
      </trkpt>
      <trkpt lat="45.23997" lon="5.84682">
        <ele>237.71</ele>
        <time>2018-09-09T15:12:35Z</time>
      </trkpt>
      <trkpt lat="45.23983" lon="5.84645">
        <ele>237.73</ele>
        <time>2018-09-09T15:12:36Z</time>
      </trkpt>
      <trkpt lat="45.2397" lon="5.84608">
        <ele>237.74</ele>
        <time>2018-09-09T15:12:37Z</time>
      </trkpt>
      <trkpt lat="45.23956" lon="5.84571">
        <ele>237.74</ele>
        <time>2018-09-09T15:12:38Z</time>
      </trkpt>
      <trkpt lat="45.23941" lon="5.84535">
        <ele>238.44</ele>
        <time>2018-09-09T15:12:39Z</time>
      </trkpt>
      <trkpt lat="45.23927" lon="5.84499">
        <ele>238.65</ele>
        <time>2018-09-09T15:12:40Z</time>
      </trkpt>
      <trkpt lat="45.23912" lon="5.84462">
        <ele>238.71</ele>
        <time>2018-09-09T15:12:41Z</time>
      </trkpt>
      <trkpt lat="45.23897" lon="5.84426">
        <ele>239.43</ele>
        <time>2018-09-09T15:12:42Z</time>
      </trkpt>
      <trkpt lat="45.23882" lon="5.8439">
        <ele>239.65</ele>
        <time>2018-09-09T15:12:43Z</time>
      </trkpt>
      <trkpt lat="45.23868" lon="5.84354">
        <ele>239.71</ele>
        <time>2018-09-09T15:12:44Z</time>
      </trkpt>
      <trkpt lat="45.23852" lon="5.84318">
        <ele>239.73</ele>
        <time>2018-09-09T15:12:45Z</time>
      </trkpt>
      <trkpt lat="45.23837" lon="5.84283">
        <ele>239.74</ele>
        <time>2018-09-09T15:12:46Z</time>
      </trkpt>
      <trkpt lat="45.23821" lon="5.84248">
        <ele>239.74</ele>
        <time>2018-09-09T15:12:47Z</time>
      </trkpt>
      <trkpt lat="45.23805" lon="5.84212">
        <ele>239.74</ele>
        <time>2018-09-09T15:12:48Z</time>
      </trkpt>
      <trkpt lat="45.23788" lon="5.84177">
        <ele>239.74</ele>
        <time>2018-09-09T15:12:49Z</time>
      </trkpt>
      <trkpt lat="45.23772" lon="5.84143">
        <ele>239.04</ele>
        <time>2018-09-09T15:12:50Z</time>
      </trkpt>
      <trkpt lat="45.23755" lon="5.84108">
        <ele>239.53</ele>
        <time>2018-09-09T15:12:51Z</time>
      </trkpt>
      <trkpt lat="45.23738" lon="5.84074">
        <ele>238.98</ele>
        <time>2018-09-09T15:12:52Z</time>
      </trkpt>
      <trkpt lat="45.23721" lon="5.8404">
        <ele>238.11</ele>
        <time>2018-09-09T15:12:53Z</time>
      </trkpt>
      <trkpt lat="45.23704" lon="5.84006">
        <ele>237.85</ele>
        <time>2018-09-09T15:12:54Z</time>
      </trkpt>
      <trkpt lat="45.23687" lon="5.83973">
        <ele>237.07</ele>
        <time>2018-09-09T15:12:55Z</time>
      </trkpt>
      <trkpt lat="45.23669" lon="5.83941">
        <ele>236.84</ele>
        <time>2018-09-09T15:12:56Z</time>
      </trkpt>
      <trkpt lat="45.23652" lon="5.83909">
        <ele>236.07</ele>
        <time>2018-09-09T15:12:57Z</time>
      </trkpt>
      <trkpt lat="45.23633" lon="5.83876">
        <ele>235.84</ele>
        <time>2018-09-09T15:12:58Z</time>
      </trkpt>
      <trkpt lat="45.23616" lon="5.83845">
        <ele>235.77</ele>
        <time>2018-09-09T15:12:59Z</time>
      </trkpt>
      <trkpt lat="45.23597" lon="5.83813">
        <ele>235.05</ele>
        <time>2018-09-09T15:13:00Z</time>
      </trkpt>
      <trkpt lat="45.23579" lon="5.83781">
        <ele>234.83</ele>
        <time>2018-09-09T15:13:01Z</time>
      </trkpt>
      <trkpt lat="45.2356" lon="5.83749">
        <ele>234.77</ele>
        <time>2018-09-09T15:13:02Z</time>
      </trkpt>
      <trkpt lat="45.23541" lon="5.83718">
        <ele>234.05</ele>
        <time>2018-09-09T15:13:03Z</time>
      </trkpt>
      <trkpt lat="45.23523" lon="5.83687">
        <ele>233.83</ele>
        <time>2018-09-09T15:13:04Z</time>
      </trkpt>
      <trkpt lat="45.23503" lon="5.83654">
        <ele>233.07</ele>
        <time>2018-09-09T15:13:05Z</time>
      </trkpt>
      <trkpt lat="45.23482" lon="5.83622">
        <ele>232.84</ele>
        <time>2018-09-09T15:13:06Z</time>
      </trkpt>
      <trkpt lat="45.23461" lon="5.83588">
        <ele>232.07</ele>
        <time>2018-09-09T15:13:07Z</time>
      </trkpt>
      <trkpt lat="45.23439" lon="5.83553">
        <ele>231.84</ele>
        <time>2018-09-09T15:13:08Z</time>
      </trkpt>
      <trkpt lat="45.23416" lon="5.83519">
        <ele>231.07</ele>
        <time>2018-09-09T15:13:09Z</time>
      </trkpt>
      <trkpt lat="45.23393" lon="5.83484">
        <ele>230.84</ele>
        <time>2018-09-09T15:13:10Z</time>
      </trkpt>
      <trkpt lat="45.2337" lon="5.83451">
        <ele>230.07</ele>
        <time>2018-09-09T15:13:11Z</time>
      </trkpt>
      <trkpt lat="45.23347" lon="5.83417">
        <ele>229.14</ele>
        <time>2018-09-09T15:13:12Z</time>
      </trkpt>
      <trkpt lat="45.23324" lon="5.83383">
        <ele>228.16</ele>
        <time>2018-09-09T15:13:13Z</time>
      </trkpt>
      <trkpt lat="45.23301" lon="5.8335">
        <ele>227.87</ele>
        <time>2018-09-09T15:13:14Z</time>
      </trkpt>
      <trkpt lat="45.23278" lon="5.83317">
        <ele>227.08</ele>
        <time>2018-09-09T15:13:15Z</time>
      </trkpt>
      <trkpt lat="45.23255" lon="5.83284">
        <ele>226.84</ele>
        <time>2018-09-09T15:13:16Z</time>
      </trkpt>
      <trkpt lat="45.23232" lon="5.83252">
        <ele>226.77</ele>
        <time>2018-09-09T15:13:17Z</time>
      </trkpt>
      <trkpt lat="45.23209" lon="5.83221">
        <ele>226.05</ele>
        <time>2018-09-09T15:13:18Z</time>
      </trkpt>
      <trkpt lat="45.23186" lon="5.8319">
        <ele>225.83</ele>
        <time>2018-09-09T15:13:19Z</time>
      </trkpt>
      <trkpt lat="45.23163" lon="5.8316">
        <ele>225.07</ele>
        <time>2018-09-09T15:13:20Z</time>
      </trkpt>
      <trkpt lat="45.2314" lon="5.8313">
        <ele>224.14</ele>
        <time>2018-09-09T15:13:21Z</time>
      </trkpt>
      <trkpt lat="45.23118" lon="5.831">
        <ele>223.86</ele>
        <time>2018-09-09T15:13:22Z</time>
      </trkpt>
      <trkpt lat="45.23095" lon="5.8307">
        <ele>223.08</ele>
        <time>2018-09-09T15:13:23Z</time>
      </trkpt>
      <trkpt lat="45.23072" lon="5.83041">
        <ele>222.14</ele>
        <time>2018-09-09T15:13:24Z</time>
      </trkpt>
      <trkpt lat="45.2305" lon="5.83013">
        <ele>221.86</ele>
        <time>2018-09-09T15:13:25Z</time>
      </trkpt>
      <trkpt lat="45.23027" lon="5.82984">
        <ele>221.78</ele>
        <time>2018-09-09T15:13:26Z</time>
      </trkpt>
      <trkpt lat="45.23005" lon="5.82955">
        <ele>221.05</ele>
        <time>2018-09-09T15:13:27Z</time>
      </trkpt>
      <trkpt lat="45.22982" lon="5.82927">
        <ele>220.83</ele>
        <time>2018-09-09T15:13:28Z</time>
      </trkpt>
      <trkpt lat="45.22959" lon="5.82899">
        <ele>220.77</ele>
        <time>2018-09-09T15:13:29Z</time>
      </trkpt>
      <trkpt lat="45.22936" lon="5.82871">
        <ele>220.05</ele>
        <time>2018-09-09T15:13:30Z</time>
      </trkpt>
      <trkpt lat="45.22913" lon="5.82844">
        <ele>219.83</ele>
        <time>2018-09-09T15:13:31Z</time>
      </trkpt>
      <trkpt lat="45.22891" lon="5.82816">
        <ele>219.07</ele>
        <time>2018-09-09T15:13:32Z</time>
      </trkpt>
      <trkpt lat="45.22869" lon="5.82789">
        <ele>218.84</ele>
        <time>2018-09-09T15:13:33Z</time>
      </trkpt>
      <trkpt lat="45.22845" lon="5.82762">
        <ele>218.77</ele>
        <time>2018-09-09T15:13:34Z</time>
      </trkpt>
      <trkpt lat="45.22823" lon="5.82735">
        <ele>218.75</ele>
        <time>2018-09-09T15:13:35Z</time>
      </trkpt>
      <trkpt lat="45.228" lon="5.82709">
        <ele>218.74</ele>
        <time>2018-09-09T15:13:36Z</time>
      </trkpt>
      <trkpt lat="45.22778" lon="5.82683">
        <ele>218.74</ele>
        <time>2018-09-09T15:13:37Z</time>
      </trkpt>
      <trkpt lat="45.22755" lon="5.82657">
        <ele>218.74</ele>
        <time>2018-09-09T15:13:38Z</time>
      </trkpt>
      <trkpt lat="45.22732" lon="5.82632">
        <ele>218.04</ele>
        <time>2018-09-09T15:13:39Z</time>
      </trkpt>
      <trkpt lat="45.22708" lon="5.82606">
        <ele>217.83</ele>
        <time>2018-09-09T15:13:40Z</time>
      </trkpt>
      <trkpt lat="45.22685" lon="5.8258">
        <ele>217.77</ele>
        <time>2018-09-09T15:13:41Z</time>
      </trkpt>
      <trkpt lat="45.22661" lon="5.82552">
        <ele>217.75</ele>
        <time>2018-09-09T15:13:42Z</time>
      </trkpt>
      <trkpt lat="45.22637" lon="5.82524">
        <ele>217.74</ele>
        <time>2018-09-09T15:13:43Z</time>
      </trkpt>
      <trkpt lat="45.22612" lon="5.82496">
        <ele>217.74</ele>
        <time>2018-09-09T15:13:44Z</time>
      </trkpt>
      <trkpt lat="45.22585" lon="5.82467">
        <ele>217.74</ele>
        <time>2018-09-09T15:13:45Z</time>
      </trkpt>
      <trkpt lat="45.22559" lon="5.8244">
        <ele>217.74</ele>
        <time>2018-09-09T15:13:46Z</time>
      </trkpt>
      <trkpt lat="45.22532" lon="5.82413">
        <ele>218.44</ele>
        <time>2018-09-09T15:13:47Z</time>
      </trkpt>
      <trkpt lat="45.22506" lon="5.82386">
        <ele>218.65</ele>
        <time>2018-09-09T15:13:48Z</time>
      </trkpt>
      <trkpt lat="45.22479" lon="5.8236">
        <ele>218.71</ele>
        <time>2018-09-09T15:13:49Z</time>
      </trkpt>
      <trkpt lat="45.22453" lon="5.82333">
        <ele>218.73</ele>
        <time>2018-09-09T15:13:50Z</time>
      </trkpt>
      <trkpt lat="45.22426" lon="5.82307">
        <ele>218.74</ele>
        <time>2018-09-09T15:13:51Z</time>
      </trkpt>
      <trkpt lat="45.224" lon="5.82282">
        <ele>218.74</ele>
        <time>2018-09-09T15:13:52Z</time>
      </trkpt>
      <trkpt lat="45.22373" lon="5.82256">
        <ele>218.74</ele>
        <time>2018-09-09T15:13:53Z</time>
      </trkpt>
      <trkpt lat="45.22347" lon="5.82231">
        <ele>218.74</ele>
        <time>2018-09-09T15:13:54Z</time>
      </trkpt>
      <trkpt lat="45.22321" lon="5.82206">
        <ele>218.74</ele>
        <time>2018-09-09T15:13:55Z</time>
      </trkpt>
      <trkpt lat="45.22295" lon="5.82181">
        <ele>218.74</ele>
        <time>2018-09-09T15:13:56Z</time>
      </trkpt>
      <trkpt lat="45.22269" lon="5.82156">
        <ele>218.74</ele>
        <time>2018-09-09T15:13:57Z</time>
      </trkpt>
      <trkpt lat="45.22243" lon="5.82131">
        <ele>219.44</ele>
        <time>2018-09-09T15:13:58Z</time>
      </trkpt>
      <trkpt lat="45.22217" lon="5.82107">
        <ele>219.65</ele>
        <time>2018-09-09T15:13:59Z</time>
      </trkpt>
      <trkpt lat="45.22192" lon="5.82082">
        <ele>219.71</ele>
        <time>2018-09-09T15:14:00Z</time>
      </trkpt>
      <trkpt lat="45.22166" lon="5.82057">
        <ele>219.73</ele>
        <time>2018-09-09T15:14:01Z</time>
      </trkpt>
      <trkpt lat="45.22141" lon="5.82033">
        <ele>219.74</ele>
        <time>2018-09-09T15:14:02Z</time>
      </trkpt>
      <trkpt lat="45.22117" lon="5.82011">
        <ele>219.74</ele>
        <time>2018-09-09T15:14:03Z</time>
      </trkpt>
      <trkpt lat="45.22094" lon="5.81989">
        <ele>219.74</ele>
        <time>2018-09-09T15:14:04Z</time>
      </trkpt>
      <trkpt lat="45.2207" lon="5.81968">
        <ele>219.74</ele>
        <time>2018-09-09T15:14:05Z</time>
      </trkpt>
      <trkpt lat="45.22047" lon="5.81946">
        <ele>219.74</ele>
        <time>2018-09-09T15:14:06Z</time>
      </trkpt>
      <trkpt lat="45.22025" lon="5.81925">
        <ele>219.74</ele>
        <time>2018-09-09T15:14:07Z</time>
      </trkpt>
      <trkpt lat="45.22002" lon="5.81903">
        <ele>219.74</ele>
        <time>2018-09-09T15:14:08Z</time>
      </trkpt>
      <trkpt lat="45.21978" lon="5.81882">
        <ele>219.74</ele>
        <time>2018-09-09T15:14:09Z</time>
      </trkpt>
      <trkpt lat="45.21956" lon="5.81859">
        <ele>219.74</ele>
        <time>2018-09-09T15:14:10Z</time>
      </trkpt>
      <trkpt lat="45.21933" lon="5.81837">
        <ele>219.74</ele>
        <time>2018-09-09T15:14:11Z</time>
      </trkpt>
      <trkpt lat="45.2191" lon="5.81815">
        <ele>219.74</ele>
        <time>2018-09-09T15:14:12Z</time>
      </trkpt>
      <trkpt lat="45.21888" lon="5.81793">
        <ele>219.74</ele>
        <time>2018-09-09T15:14:13Z</time>
      </trkpt>
      <trkpt lat="45.21864" lon="5.81771">
        <ele>219.74</ele>
        <time>2018-09-09T15:14:14Z</time>
      </trkpt>
      <trkpt lat="45.21841" lon="5.81749">
        <ele>219.74</ele>
        <time>2018-09-09T15:14:15Z</time>
      </trkpt>
      <trkpt lat="45.21818" lon="5.81727">
        <ele>219.74</ele>
        <time>2018-09-09T15:14:16Z</time>
      </trkpt>
      <trkpt lat="45.21795" lon="5.81704">
        <ele>219.74</ele>
        <time>2018-09-09T15:14:17Z</time>
      </trkpt>
      <trkpt lat="45.21772" lon="5.81682">
        <ele>219.74</ele>
        <time>2018-09-09T15:14:18Z</time>
      </trkpt>
      <trkpt lat="45.21749" lon="5.81658">
        <ele>219.74</ele>
        <time>2018-09-09T15:14:19Z</time>
      </trkpt>
      <trkpt lat="45.21726" lon="5.81636">
        <ele>219.74</ele>
        <time>2018-09-09T15:14:20Z</time>
      </trkpt>
      <trkpt lat="45.21704" lon="5.81612">
        <ele>219.74</ele>
        <time>2018-09-09T15:14:21Z</time>
      </trkpt>
      <trkpt lat="45.21681" lon="5.81588">
        <ele>219.74</ele>
        <time>2018-09-09T15:14:22Z</time>
      </trkpt>
      <trkpt lat="45.21659" lon="5.81564">
        <ele>219.74</ele>
        <time>2018-09-09T15:14:23Z</time>
      </trkpt>
      <trkpt lat="45.21636" lon="5.81539">
        <ele>219.74</ele>
        <time>2018-09-09T15:14:24Z</time>
      </trkpt>
      <trkpt lat="45.21614" lon="5.81514">
        <ele>219.74</ele>
        <time>2018-09-09T15:14:25Z</time>
      </trkpt>
      <trkpt lat="45.21592" lon="5.81489">
        <ele>219.74</ele>
        <time>2018-09-09T15:14:26Z</time>
      </trkpt>
      <trkpt lat="45.2157" lon="5.81463">
        <ele>219.74</ele>
        <time>2018-09-09T15:14:27Z</time>
      </trkpt>
      <trkpt lat="45.21549" lon="5.81437">
        <ele>219.74</ele>
        <time>2018-09-09T15:14:28Z</time>
      </trkpt>
      <trkpt lat="45.21527" lon="5.81411">
        <ele>219.74</ele>
        <time>2018-09-09T15:14:29Z</time>
      </trkpt>
      <trkpt lat="45.21506" lon="5.81384">
        <ele>219.74</ele>
        <time>2018-09-09T15:14:30Z</time>
      </trkpt>
      <trkpt lat="45.21485" lon="5.81357">
        <ele>219.74</ele>
        <time>2018-09-09T15:14:31Z</time>
      </trkpt>
      <trkpt lat="45.21464" lon="5.81329">
        <ele>219.74</ele>
        <time>2018-09-09T15:14:32Z</time>
      </trkpt>
      <trkpt lat="45.21443" lon="5.81302">
        <ele>219.74</ele>
        <time>2018-09-09T15:14:33Z</time>
      </trkpt>
      <trkpt lat="45.21422" lon="5.81273">
        <ele>219.04</ele>
        <time>2018-09-09T15:14:34Z</time>
      </trkpt>
      <trkpt lat="45.21402" lon="5.81245">
        <ele>218.83</ele>
        <time>2018-09-09T15:14:35Z</time>
      </trkpt>
      <trkpt lat="45.21382" lon="5.81216">
        <ele>218.77</ele>
        <time>2018-09-09T15:14:36Z</time>
      </trkpt>
      <trkpt lat="45.21362" lon="5.81186">
        <ele>218.75</ele>
        <time>2018-09-09T15:14:37Z</time>
      </trkpt>
      <trkpt lat="45.21342" lon="5.81156">
        <ele>218.74</ele>
        <time>2018-09-09T15:14:38Z</time>
      </trkpt>
      <trkpt lat="45.21322" lon="5.81126">
        <ele>218.04</ele>
        <time>2018-09-09T15:14:39Z</time>
      </trkpt>
      <trkpt lat="45.21302" lon="5.81096">
        <ele>217.83</ele>
        <time>2018-09-09T15:14:40Z</time>
      </trkpt>
      <trkpt lat="45.21282" lon="5.81066">
        <ele>217.77</ele>
        <time>2018-09-09T15:14:41Z</time>
      </trkpt>
      <trkpt lat="45.21263" lon="5.81035">
        <ele>217.75</ele>
        <time>2018-09-09T15:14:42Z</time>
      </trkpt>
      <trkpt lat="45.21245" lon="5.81004">
        <ele>217.74</ele>
        <time>2018-09-09T15:14:43Z</time>
      </trkpt>
      <trkpt lat="45.21226" lon="5.80972">
        <ele>217.74</ele>
        <time>2018-09-09T15:14:44Z</time>
      </trkpt>
      <trkpt lat="45.21208" lon="5.8094">
        <ele>217.74</ele>
        <time>2018-09-09T15:14:45Z</time>
      </trkpt>
      <trkpt lat="45.2119" lon="5.80909">
        <ele>217.74</ele>
        <time>2018-09-09T15:14:46Z</time>
      </trkpt>
      <trkpt lat="45.21172" lon="5.80877">
        <ele>217.74</ele>
        <time>2018-09-09T15:14:47Z</time>
      </trkpt>
      <trkpt lat="45.21155" lon="5.80845">
        <ele>217.74</ele>
        <time>2018-09-09T15:14:48Z</time>
      </trkpt>
      <trkpt lat="45.21138" lon="5.80813">
        <ele>217.74</ele>
        <time>2018-09-09T15:14:49Z</time>
      </trkpt>
      <trkpt lat="45.21122" lon="5.80781">
        <ele>217.74</ele>
        <time>2018-09-09T15:14:50Z</time>
      </trkpt>
      <trkpt lat="45.21106" lon="5.80748">
        <ele>217.74</ele>
        <time>2018-09-09T15:14:51Z</time>
      </trkpt>
      <trkpt lat="45.21089" lon="5.80716">
        <ele>217.74</ele>
        <time>2018-09-09T15:14:52Z</time>
      </trkpt>
      <trkpt lat="45.21073" lon="5.80683">
        <ele>217.04</ele>
        <time>2018-09-09T15:14:53Z</time>
      </trkpt>
      <trkpt lat="45.21057" lon="5.8065">
        <ele>217.53</ele>
        <time>2018-09-09T15:14:54Z</time>
      </trkpt>
      <trkpt lat="45.21042" lon="5.80618">
        <ele>217.68</ele>
        <time>2018-09-09T15:14:55Z</time>
      </trkpt>
      <trkpt lat="45.21027" lon="5.80585">
        <ele>217.72</ele>
        <time>2018-09-09T15:14:56Z</time>
      </trkpt>
      <trkpt lat="45.21012" lon="5.80551">
        <ele>217.74</ele>
        <time>2018-09-09T15:14:57Z</time>
      </trkpt>
      <trkpt lat="45.20998" lon="5.80519">
        <ele>216.34</ele>
        <time>2018-09-09T15:14:58Z</time>
      </trkpt>
      <trkpt lat="45.20984" lon="5.80484">
        <ele>216.62</ele>
        <time>2018-09-09T15:14:59Z</time>
      </trkpt>
      <trkpt lat="45.2097" lon="5.80451">
        <ele>216.7</ele>
        <time>2018-09-09T15:15:00Z</time>
      </trkpt>
      <trkpt lat="45.20957" lon="5.80417">
        <ele>216.73</ele>
        <time>2018-09-09T15:15:01Z</time>
      </trkpt>
      <trkpt lat="45.20943" lon="5.80383">
        <ele>216.04</ele>
        <time>2018-09-09T15:15:02Z</time>
      </trkpt>
      <trkpt lat="45.2093" lon="5.80349">
        <ele>216.53</ele>
        <time>2018-09-09T15:15:03Z</time>
      </trkpt>
      <trkpt lat="45.20916" lon="5.80314">
        <ele>216.68</ele>
        <time>2018-09-09T15:15:04Z</time>
      </trkpt>
      <trkpt lat="45.20904" lon="5.80279">
        <ele>216.72</ele>
        <time>2018-09-09T15:15:05Z</time>
      </trkpt>
      <trkpt lat="45.20891" lon="5.80245">
        <ele>216.74</ele>
        <time>2018-09-09T15:15:06Z</time>
      </trkpt>
      <trkpt lat="45.20879" lon="5.8021">
        <ele>216.74</ele>
        <time>2018-09-09T15:15:07Z</time>
      </trkpt>
      <trkpt lat="45.20867" lon="5.80174">
        <ele>216.74</ele>
        <time>2018-09-09T15:15:08Z</time>
      </trkpt>
      <trkpt lat="45.20855" lon="5.80139">
        <ele>216.74</ele>
        <time>2018-09-09T15:15:09Z</time>
      </trkpt>
      <trkpt lat="45.20843" lon="5.80103">
        <ele>216.74</ele>
        <time>2018-09-09T15:15:10Z</time>
      </trkpt>
      <trkpt lat="45.20831" lon="5.80067">
        <ele>216.74</ele>
        <time>2018-09-09T15:15:11Z</time>
      </trkpt>
      <trkpt lat="45.2082" lon="5.80031">
        <ele>216.74</ele>
        <time>2018-09-09T15:15:12Z</time>
      </trkpt>
      <trkpt lat="45.20808" lon="5.79994">
        <ele>216.74</ele>
        <time>2018-09-09T15:15:13Z</time>
      </trkpt>
      <trkpt lat="45.20798" lon="5.79958">
        <ele>216.74</ele>
        <time>2018-09-09T15:15:14Z</time>
      </trkpt>
      <trkpt lat="45.20787" lon="5.79922">
        <ele>216.74</ele>
        <time>2018-09-09T15:15:15Z</time>
      </trkpt>
      <trkpt lat="45.20776" lon="5.79886">
        <ele>216.74</ele>
        <time>2018-09-09T15:15:16Z</time>
      </trkpt>
      <trkpt lat="45.20767" lon="5.7985">
        <ele>216.04</ele>
        <time>2018-09-09T15:15:17Z</time>
      </trkpt>
      <trkpt lat="45.20757" lon="5.79814">
        <ele>215.83</ele>
        <time>2018-09-09T15:15:18Z</time>
      </trkpt>
      <trkpt lat="45.20748" lon="5.79777">
        <ele>215.77</ele>
        <time>2018-09-09T15:15:19Z</time>
      </trkpt>
      <trkpt lat="45.20739" lon="5.79741">
        <ele>215.05</ele>
        <time>2018-09-09T15:15:20Z</time>
      </trkpt>
      <trkpt lat="45.20729" lon="5.79704">
        <ele>214.83</ele>
        <time>2018-09-09T15:15:21Z</time>
      </trkpt>
      <trkpt lat="45.2072" lon="5.79668">
        <ele>214.77</ele>
        <time>2018-09-09T15:15:22Z</time>
      </trkpt>
      <trkpt lat="45.20711" lon="5.79631">
        <ele>214.05</ele>
        <time>2018-09-09T15:15:23Z</time>
      </trkpt>
      <trkpt lat="45.20702" lon="5.79594">
        <ele>213.83</ele>
        <time>2018-09-09T15:15:24Z</time>
      </trkpt>
      <trkpt lat="45.20692" lon="5.79557">
        <ele>213.77</ele>
        <time>2018-09-09T15:15:25Z</time>
      </trkpt>
      <trkpt lat="45.20683" lon="5.79521">
        <ele>213.75</ele>
        <time>2018-09-09T15:15:26Z</time>
      </trkpt>
      <trkpt lat="45.20674" lon="5.79484">
        <ele>213.74</ele>
        <time>2018-09-09T15:15:27Z</time>
      </trkpt>
      <trkpt lat="45.20665" lon="5.79448">
        <ele>213.74</ele>
        <time>2018-09-09T15:15:28Z</time>
      </trkpt>
      <trkpt lat="45.20656" lon="5.79411">
        <ele>213.74</ele>
        <time>2018-09-09T15:15:29Z</time>
      </trkpt>
      <trkpt lat="45.20649" lon="5.79374">
        <ele>213.04</ele>
        <time>2018-09-09T15:15:30Z</time>
      </trkpt>
      <trkpt lat="45.20641" lon="5.79338">
        <ele>212.13</ele>
        <time>2018-09-09T15:15:31Z</time>
      </trkpt>
      <trkpt lat="45.20633" lon="5.79301">
        <ele>211.86</ele>
        <time>2018-09-09T15:15:32Z</time>
      </trkpt>
      <trkpt lat="45.20625" lon="5.79265">
        <ele>211.08</ele>
        <time>2018-09-09T15:15:33Z</time>
      </trkpt>
      <trkpt lat="45.20617" lon="5.79228">
        <ele>212.24</ele>
        <time>2018-09-09T15:15:34Z</time>
      </trkpt>
      <trkpt lat="45.20609" lon="5.79191">
        <ele>212.59</ele>
        <time>2018-09-09T15:15:35Z</time>
      </trkpt>
      <trkpt lat="45.20601" lon="5.79154">
        <ele>212.7</ele>
        <time>2018-09-09T15:15:36Z</time>
      </trkpt>
      <trkpt lat="45.20593" lon="5.79116">
        <ele>212.73</ele>
        <time>2018-09-09T15:15:37Z</time>
      </trkpt>
      <trkpt lat="45.20585" lon="5.79078">
        <ele>212.74</ele>
        <time>2018-09-09T15:15:38Z</time>
      </trkpt>
      <trkpt lat="45.20578" lon="5.79039">
        <ele>212.74</ele>
        <time>2018-09-09T15:15:39Z</time>
      </trkpt>
      <trkpt lat="45.2057" lon="5.79">
        <ele>212.74</ele>
        <time>2018-09-09T15:15:40Z</time>
      </trkpt>
      <trkpt lat="45.20564" lon="5.78962">
        <ele>211.34</ele>
        <time>2018-09-09T15:15:41Z</time>
      </trkpt>
      <trkpt lat="45.20555" lon="5.78924">
        <ele>211.62</ele>
        <time>2018-09-09T15:15:42Z</time>
      </trkpt>
      <trkpt lat="45.20548" lon="5.78884">
        <ele>211.7</ele>
        <time>2018-09-09T15:15:43Z</time>
      </trkpt>
      <trkpt lat="45.20541" lon="5.78846">
        <ele>211.73</ele>
        <time>2018-09-09T15:15:44Z</time>
      </trkpt>
      <trkpt lat="45.20534" lon="5.78808">
        <ele>211.74</ele>
        <time>2018-09-09T15:15:45Z</time>
      </trkpt>
      <trkpt lat="45.20528" lon="5.78769">
        <ele>211.74</ele>
        <time>2018-09-09T15:15:46Z</time>
      </trkpt>
      <trkpt lat="45.20522" lon="5.78732">
        <ele>211.74</ele>
        <time>2018-09-09T15:15:47Z</time>
      </trkpt>
      <trkpt lat="45.20516" lon="5.78694">
        <ele>211.74</ele>
        <time>2018-09-09T15:15:48Z</time>
      </trkpt>
      <trkpt lat="45.20509" lon="5.78657">
        <ele>211.74</ele>
        <time>2018-09-09T15:15:49Z</time>
      </trkpt>
      <trkpt lat="45.20503" lon="5.78621">
        <ele>211.04</ele>
        <time>2018-09-09T15:15:50Z</time>
      </trkpt>
      <trkpt lat="45.20496" lon="5.78584">
        <ele>210.83</ele>
        <time>2018-09-09T15:15:51Z</time>
      </trkpt>
      <trkpt lat="45.20489" lon="5.78548">
        <ele>210.77</ele>
        <time>2018-09-09T15:15:52Z</time>
      </trkpt>
      <trkpt lat="45.20483" lon="5.78511">
        <ele>210.75</ele>
        <time>2018-09-09T15:15:53Z</time>
      </trkpt>
      <trkpt lat="45.20477" lon="5.78474">
        <ele>210.74</ele>
        <time>2018-09-09T15:15:54Z</time>
      </trkpt>
      <trkpt lat="45.2047" lon="5.78436">
        <ele>211.44</ele>
        <time>2018-09-09T15:15:55Z</time>
      </trkpt>
      <trkpt lat="45.20463" lon="5.78399">
        <ele>210.95</ele>
        <time>2018-09-09T15:15:56Z</time>
      </trkpt>
      <trkpt lat="45.20457" lon="5.7836">
        <ele>211.5</ele>
        <time>2018-09-09T15:15:57Z</time>
      </trkpt>
      <trkpt lat="45.20451" lon="5.78322">
        <ele>211.67</ele>
        <time>2018-09-09T15:15:58Z</time>
      </trkpt>
      <trkpt lat="45.20446" lon="5.78285">
        <ele>211.72</ele>
        <time>2018-09-09T15:15:59Z</time>
      </trkpt>
      <trkpt lat="45.20439" lon="5.78248">
        <ele>211.73</ele>
        <time>2018-09-09T15:16:00Z</time>
      </trkpt>
      <trkpt lat="45.20433" lon="5.7821">
        <ele>211.74</ele>
        <time>2018-09-09T15:16:01Z</time>
      </trkpt>
      <trkpt lat="45.20428" lon="5.78172">
        <ele>211.74</ele>
        <time>2018-09-09T15:16:02Z</time>
      </trkpt>
      <trkpt lat="45.20421" lon="5.78134">
        <ele>211.74</ele>
        <time>2018-09-09T15:16:03Z</time>
      </trkpt>
      <trkpt lat="45.20416" lon="5.78096">
        <ele>212.44</ele>
        <time>2018-09-09T15:16:04Z</time>
      </trkpt>
      <trkpt lat="45.2041" lon="5.78058">
        <ele>212.65</ele>
        <time>2018-09-09T15:16:05Z</time>
      </trkpt>
      <trkpt lat="45.20404" lon="5.78019">
        <ele>212.71</ele>
        <time>2018-09-09T15:16:06Z</time>
      </trkpt>
      <trkpt lat="45.20398" lon="5.77981">
        <ele>212.73</ele>
        <time>2018-09-09T15:16:07Z</time>
      </trkpt>
      <trkpt lat="45.20393" lon="5.77942">
        <ele>212.04</ele>
        <time>2018-09-09T15:16:08Z</time>
      </trkpt>
      <trkpt lat="45.20387" lon="5.77903">
        <ele>211.83</ele>
        <time>2018-09-09T15:16:09Z</time>
      </trkpt>
      <trkpt lat="45.20381" lon="5.77865">
        <ele>211.77</ele>
        <time>2018-09-09T15:16:10Z</time>
      </trkpt>
      <trkpt lat="45.20374" lon="5.77827">
        <ele>211.75</ele>
        <time>2018-09-09T15:16:11Z</time>
      </trkpt>
      <trkpt lat="45.20368" lon="5.77789">
        <ele>211.74</ele>
        <time>2018-09-09T15:16:12Z</time>
      </trkpt>
      <trkpt lat="45.20363" lon="5.77751">
        <ele>211.74</ele>
        <time>2018-09-09T15:16:13Z</time>
      </trkpt>
      <trkpt lat="45.20357" lon="5.77713">
        <ele>211.74</ele>
        <time>2018-09-09T15:16:14Z</time>
      </trkpt>
      <trkpt lat="45.20351" lon="5.77675">
        <ele>211.74</ele>
        <time>2018-09-09T15:16:15Z</time>
      </trkpt>
      <trkpt lat="45.20346" lon="5.77638">
        <ele>211.74</ele>
        <time>2018-09-09T15:16:16Z</time>
      </trkpt>
      <trkpt lat="45.2034" lon="5.776">
        <ele>211.74</ele>
        <time>2018-09-09T15:16:17Z</time>
      </trkpt>
      <trkpt lat="45.20336" lon="5.77562">
        <ele>211.74</ele>
        <time>2018-09-09T15:16:18Z</time>
      </trkpt>
      <trkpt lat="45.2033" lon="5.77525">
        <ele>211.74</ele>
        <time>2018-09-09T15:16:19Z</time>
      </trkpt>
      <trkpt lat="45.20325" lon="5.77488">
        <ele>211.04</ele>
        <time>2018-09-09T15:16:20Z</time>
      </trkpt>
      <trkpt lat="45.2032" lon="5.7745">
        <ele>210.83</ele>
        <time>2018-09-09T15:16:21Z</time>
      </trkpt>
      <trkpt lat="45.20314" lon="5.77413">
        <ele>211.47</ele>
        <time>2018-09-09T15:16:22Z</time>
      </trkpt>
      <trkpt lat="45.20309" lon="5.77375">
        <ele>211.66</ele>
        <time>2018-09-09T15:16:23Z</time>
      </trkpt>
      <trkpt lat="45.20304" lon="5.77337">
        <ele>211.02</ele>
        <time>2018-09-09T15:16:24Z</time>
      </trkpt>
      <trkpt lat="45.20299" lon="5.77299">
        <ele>210.82</ele>
        <time>2018-09-09T15:16:25Z</time>
      </trkpt>
      <trkpt lat="45.20294" lon="5.77261">
        <ele>210.77</ele>
        <time>2018-09-09T15:16:26Z</time>
      </trkpt>
      <trkpt lat="45.20289" lon="5.77223">
        <ele>211.45</ele>
        <time>2018-09-09T15:16:27Z</time>
      </trkpt>
      <trkpt lat="45.20284" lon="5.77185">
        <ele>211.65</ele>
        <time>2018-09-09T15:16:28Z</time>
      </trkpt>
      <trkpt lat="45.20279" lon="5.77147">
        <ele>211.71</ele>
        <time>2018-09-09T15:16:29Z</time>
      </trkpt>
      <trkpt lat="45.20274" lon="5.7711">
        <ele>211.73</ele>
        <time>2018-09-09T15:16:30Z</time>
      </trkpt>
      <trkpt lat="45.20268" lon="5.77073">
        <ele>211.74</ele>
        <time>2018-09-09T15:16:31Z</time>
      </trkpt>
      <trkpt lat="45.20263" lon="5.77036">
        <ele>211.04</ele>
        <time>2018-09-09T15:16:32Z</time>
      </trkpt>
      <trkpt lat="45.20258" lon="5.76999">
        <ele>211.53</ele>
        <time>2018-09-09T15:16:33Z</time>
      </trkpt>
      <trkpt lat="45.20254" lon="5.76964">
        <ele>210.98</ele>
        <time>2018-09-09T15:16:34Z</time>
      </trkpt>
      <trkpt lat="45.20249" lon="5.7693">
        <ele>210.81</ele>
        <time>2018-09-09T15:16:35Z</time>
      </trkpt>
      <trkpt lat="45.20245" lon="5.76898">
        <ele>210.76</ele>
        <time>2018-09-09T15:16:36Z</time>
      </trkpt>
      <trkpt lat="45.20241" lon="5.76868">
        <ele>210.75</ele>
        <time>2018-09-09T15:16:37Z</time>
      </trkpt>
      <trkpt lat="45.20237" lon="5.76837">
        <ele>210.74</ele>
        <time>2018-09-09T15:16:38Z</time>
      </trkpt>
      <trkpt lat="45.20233" lon="5.76807">
        <ele>210.74</ele>
        <time>2018-09-09T15:16:39Z</time>
      </trkpt>
      <trkpt lat="45.20229" lon="5.76776">
        <ele>210.74</ele>
        <time>2018-09-09T15:16:40Z</time>
      </trkpt>
      <trkpt lat="45.20224" lon="5.76746">
        <ele>210.74</ele>
        <time>2018-09-09T15:16:41Z</time>
      </trkpt>
      <trkpt lat="45.2022" lon="5.76715">
        <ele>210.74</ele>
        <time>2018-09-09T15:16:42Z</time>
      </trkpt>
      <trkpt lat="45.20215" lon="5.76684">
        <ele>210.74</ele>
        <time>2018-09-09T15:16:43Z</time>
      </trkpt>
      <trkpt lat="45.20211" lon="5.76653">
        <ele>210.74</ele>
        <time>2018-09-09T15:16:44Z</time>
      </trkpt>
      <trkpt lat="45.20206" lon="5.76622">
        <ele>210.74</ele>
        <time>2018-09-09T15:16:45Z</time>
      </trkpt>
      <trkpt lat="45.20202" lon="5.7659">
        <ele>210.04</ele>
        <time>2018-09-09T15:16:46Z</time>
      </trkpt>
      <trkpt lat="45.20197" lon="5.76559">
        <ele>209.83</ele>
        <time>2018-09-09T15:16:47Z</time>
      </trkpt>
      <trkpt lat="45.20192" lon="5.76529">
        <ele>209.77</ele>
        <time>2018-09-09T15:16:48Z</time>
      </trkpt>
      <trkpt lat="45.20187" lon="5.76499">
        <ele>209.75</ele>
        <time>2018-09-09T15:16:49Z</time>
      </trkpt>
      <trkpt lat="45.20182" lon="5.76469">
        <ele>209.74</ele>
        <time>2018-09-09T15:16:50Z</time>
      </trkpt>
      <trkpt lat="45.20177" lon="5.76441">
        <ele>209.74</ele>
        <time>2018-09-09T15:16:51Z</time>
      </trkpt>
      <trkpt lat="45.20172" lon="5.76413">
        <ele>209.04</ele>
        <time>2018-09-09T15:16:52Z</time>
      </trkpt>
      <trkpt lat="45.20168" lon="5.76387">
        <ele>209.53</ele>
        <time>2018-09-09T15:16:53Z</time>
      </trkpt>
      <trkpt lat="45.20159" lon="5.76339">
        <ele>208.81</ele>
        <time>2018-09-09T15:16:55Z</time>
      </trkpt>
      <trkpt lat="45.20151" lon="5.7629">
        <ele>208.75</ele>
        <time>2018-09-09T15:16:57Z</time>
      </trkpt>
      <trkpt lat="45.20143" lon="5.76241">
        <ele>208.74</ele>
        <time>2018-09-09T15:16:59Z</time>
      </trkpt>
      <trkpt lat="45.20135" lon="5.76192">
        <ele>208.74</ele>
        <time>2018-09-09T15:17:01Z</time>
      </trkpt>
      <trkpt lat="45.20127" lon="5.76144">
        <ele>208.74</ele>
        <time>2018-09-09T15:17:03Z</time>
      </trkpt>
      <trkpt lat="45.2012" lon="5.76097">
        <ele>208.74</ele>
        <time>2018-09-09T15:17:05Z</time>
      </trkpt>
      <trkpt lat="45.20112" lon="5.76056">
        <ele>208.74</ele>
        <time>2018-09-09T15:17:07Z</time>
      </trkpt>
      <trkpt lat="45.20105" lon="5.76019">
        <ele>209.65</ele>
        <time>2018-09-09T15:17:09Z</time>
      </trkpt>
      <trkpt lat="45.201" lon="5.75987">
        <ele>208.82</ele>
        <time>2018-09-09T15:17:11Z</time>
      </trkpt>
      <trkpt lat="45.20096" lon="5.75955">
        <ele>209.66</ele>
        <time>2018-09-09T15:17:13Z</time>
      </trkpt>
      <trkpt lat="45.20094" lon="5.75924">
        <ele>209.73</ele>
        <time>2018-09-09T15:17:15Z</time>
      </trkpt>
      <trkpt lat="45.20093" lon="5.75892">
        <ele>209.74</ele>
        <time>2018-09-09T15:17:17Z</time>
      </trkpt>
      <trkpt lat="45.20089" lon="5.75859">
        <ele>209.74</ele>
        <time>2018-09-09T15:17:19Z</time>
      </trkpt>
      <trkpt lat="45.20068" lon="5.75825">
        <ele>208.83</ele>
        <time>2018-09-09T15:17:21Z</time>
      </trkpt>
      <trkpt lat="45.20044" lon="5.7579">
        <ele>209.45</ele>
        <time>2018-09-09T15:17:23Z</time>
      </trkpt>
      <trkpt lat="45.2003" lon="5.75772">
        <ele>209.65</ele>
        <time>2018-09-09T15:17:24Z</time>
      </trkpt>
      <trkpt lat="45.20017" lon="5.75754">
        <ele>209.71</ele>
        <time>2018-09-09T15:17:25Z</time>
      </trkpt>
      <trkpt lat="45.20004" lon="5.75736">
        <ele>209.73</ele>
        <time>2018-09-09T15:17:26Z</time>
      </trkpt>
      <trkpt lat="45.19979" lon="5.757">
        <ele>209.74</ele>
        <time>2018-09-09T15:17:28Z</time>
      </trkpt>
      <trkpt lat="45.19954" lon="5.75665">
        <ele>209.74</ele>
        <time>2018-09-09T15:17:30Z</time>
      </trkpt>
      <trkpt lat="45.19929" lon="5.75629">
        <ele>208.83</ele>
        <time>2018-09-09T15:17:32Z</time>
      </trkpt>
      <trkpt lat="45.19916" lon="5.75611">
        <ele>208.77</ele>
        <time>2018-09-09T15:17:33Z</time>
      </trkpt>
      <trkpt lat="45.19903" lon="5.75592">
        <ele>208.75</ele>
        <time>2018-09-09T15:17:34Z</time>
      </trkpt>
      <trkpt lat="45.1989" lon="5.75573">
        <ele>208.74</ele>
        <time>2018-09-09T15:17:35Z</time>
      </trkpt>
      <trkpt lat="45.19877" lon="5.75555">
        <ele>208.74</ele>
        <time>2018-09-09T15:17:36Z</time>
      </trkpt>
      <trkpt lat="45.19864" lon="5.75535">
        <ele>208.74</ele>
        <time>2018-09-09T15:17:37Z</time>
      </trkpt>
      <trkpt lat="45.19851" lon="5.75517">
        <ele>208.74</ele>
        <time>2018-09-09T15:17:38Z</time>
      </trkpt>
      <trkpt lat="45.19827" lon="5.75482">
        <ele>208.53</ele>
        <time>2018-09-09T15:17:40Z</time>
      </trkpt>
      <trkpt lat="45.19803" lon="5.75447">
        <ele>208.72</ele>
        <time>2018-09-09T15:17:42Z</time>
      </trkpt>
      <trkpt lat="45.19778" lon="5.75412">
        <ele>208.04</ele>
        <time>2018-09-09T15:17:44Z</time>
      </trkpt>
      <trkpt lat="45.19765" lon="5.75393">
        <ele>208.53</ele>
        <time>2018-09-09T15:17:45Z</time>
      </trkpt>
      <trkpt lat="45.19752" lon="5.75375">
        <ele>208.68</ele>
        <time>2018-09-09T15:17:46Z</time>
      </trkpt>
      <trkpt lat="45.19739" lon="5.75356">
        <ele>208.72</ele>
        <time>2018-09-09T15:17:47Z</time>
      </trkpt>
      <trkpt lat="45.19726" lon="5.75338">
        <ele>208.74</ele>
        <time>2018-09-09T15:17:48Z</time>
      </trkpt>
      <trkpt lat="45.19713" lon="5.75319">
        <ele>208.74</ele>
        <time>2018-09-09T15:17:49Z</time>
      </trkpt>
      <trkpt lat="45.197" lon="5.75301">
        <ele>208.74</ele>
        <time>2018-09-09T15:17:50Z</time>
      </trkpt>
      <trkpt lat="45.19687" lon="5.75283">
        <ele>209.44</ele>
        <time>2018-09-09T15:17:51Z</time>
      </trkpt>
      <trkpt lat="45.19662" lon="5.75247">
        <ele>209.71</ele>
        <time>2018-09-09T15:17:53Z</time>
      </trkpt>
      <trkpt lat="45.19637" lon="5.75211">
        <ele>209.74</ele>
        <time>2018-09-09T15:17:55Z</time>
      </trkpt>
      <trkpt lat="45.19612" lon="5.75176">
        <ele>209.74</ele>
        <time>2018-09-09T15:17:57Z</time>
      </trkpt>
      <trkpt lat="45.19587" lon="5.75141">
        <ele>209.74</ele>
        <time>2018-09-09T15:17:59Z</time>
      </trkpt>
      <trkpt lat="45.19562" lon="5.75106">
        <ele>209.04</ele>
        <time>2018-09-09T15:18:01Z</time>
      </trkpt>
      <trkpt lat="45.19538" lon="5.75071">
        <ele>209.47</ele>
        <time>2018-09-09T15:18:03Z</time>
      </trkpt>
      <trkpt lat="45.19512" lon="5.75035">
        <ele>209.72</ele>
        <time>2018-09-09T15:18:05Z</time>
      </trkpt>
      <trkpt lat="45.19487" lon="5.74999">
        <ele>210.44</ele>
        <time>2018-09-09T15:18:07Z</time>
      </trkpt>
      <trkpt lat="45.19474" lon="5.7498">
        <ele>210.87</ele>
        <time>2018-09-09T15:18:08Z</time>
      </trkpt>
      <trkpt lat="45.19461" lon="5.74961">
        <ele>210.99</ele>
        <time>2018-09-09T15:18:09Z</time>
      </trkpt>
      <trkpt lat="45.19448" lon="5.74943">
        <ele>211.03</ele>
        <time>2018-09-09T15:18:10Z</time>
      </trkpt>
      <trkpt lat="45.19435" lon="5.74925">
        <ele>211.04</ele>
        <time>2018-09-09T15:18:11Z</time>
      </trkpt>
      <trkpt lat="45.19422" lon="5.74907">
        <ele>211.05</ele>
        <time>2018-09-09T15:18:12Z</time>
      </trkpt>
      <trkpt lat="45.19409" lon="5.74888">
        <ele>211.05</ele>
        <time>2018-09-09T15:18:13Z</time>
      </trkpt>
      <trkpt lat="45.19396" lon="5.7487">
        <ele>211.05</ele>
        <time>2018-09-09T15:18:14Z</time>
      </trkpt>
      <trkpt lat="45.19383" lon="5.74852">
        <ele>211.05</ele>
        <time>2018-09-09T15:18:15Z</time>
      </trkpt>
      <trkpt lat="45.1937" lon="5.74832">
        <ele>211.05</ele>
        <time>2018-09-09T15:18:16Z</time>
      </trkpt>
      <trkpt lat="45.19357" lon="5.74813">
        <ele>211.05</ele>
        <time>2018-09-09T15:18:17Z</time>
      </trkpt>
      <trkpt lat="45.19344" lon="5.74794">
        <ele>211.05</ele>
        <time>2018-09-09T15:18:18Z</time>
      </trkpt>
      <trkpt lat="45.19331" lon="5.74774">
        <ele>211.05</ele>
        <time>2018-09-09T15:18:19Z</time>
      </trkpt>
      <trkpt lat="45.19318" lon="5.74755">
        <ele>211.05</ele>
        <time>2018-09-09T15:18:20Z</time>
      </trkpt>
      <trkpt lat="45.19306" lon="5.74736">
        <ele>211.05</ele>
        <time>2018-09-09T15:18:21Z</time>
      </trkpt>
      <trkpt lat="45.19284" lon="5.74699">
        <ele>211.05</ele>
        <time>2018-09-09T15:18:23Z</time>
      </trkpt>
      <trkpt lat="45.19262" lon="5.74666">
        <ele>211.05</ele>
        <time>2018-09-09T15:18:25Z</time>
      </trkpt>
      <trkpt lat="45.19244" lon="5.74641">
        <ele>211.05</ele>
        <time>2018-09-09T15:18:27Z</time>
      </trkpt>
      <trkpt lat="45.19243" lon="5.74615">
        <ele>212.02</ele>
        <time>2018-09-09T15:18:30Z</time>
      </trkpt>
      <trkpt lat="45.19267" lon="5.74599">
        <ele>211.08</ele>
        <time>2018-09-09T15:18:33Z</time>
      </trkpt>
      <trkpt lat="45.19278" lon="5.74579">
        <ele>210.14</ele>
        <time>2018-09-09T15:18:35Z</time>
      </trkpt>
      <trkpt lat="45.19263" lon="5.7455">
        <ele>210.05</ele>
        <time>2018-09-09T15:18:39Z</time>
      </trkpt>
      <trkpt lat="45.19245" lon="5.74537">
        <ele>209.35</ele>
        <time>2018-09-09T15:18:41Z</time>
      </trkpt>
      <trkpt lat="45.19226" lon="5.74517">
        <ele>209.08</ele>
        <time>2018-09-09T15:18:43Z</time>
      </trkpt>
      <trkpt lat="45.19208" lon="5.74492">
        <ele>209.26</ele>
        <time>2018-09-09T15:18:45Z</time>
      </trkpt>
      <trkpt lat="45.19194" lon="5.74462">
        <ele>209.07</ele>
        <time>2018-09-09T15:18:47Z</time>
      </trkpt>
      <trkpt lat="45.19184" lon="5.74428">
        <ele>209.05</ele>
        <time>2018-09-09T15:18:49Z</time>
      </trkpt>
      <trkpt lat="45.19179" lon="5.74392">
        <ele>209.05</ele>
        <time>2018-09-09T15:18:51Z</time>
      </trkpt>
      <trkpt lat="45.19176" lon="5.74354">
        <ele>209.75</ele>
        <time>2018-09-09T15:18:53Z</time>
      </trkpt>
      <trkpt lat="45.19174" lon="5.74317">
        <ele>210.93</ele>
        <time>2018-09-09T15:18:55Z</time>
      </trkpt>
      <trkpt lat="45.19172" lon="5.74284">
        <ele>211.74</ele>
        <time>2018-09-09T15:18:57Z</time>
      </trkpt>
      <trkpt lat="45.1917" lon="5.74253">
        <ele>212.93</ele>
        <time>2018-09-09T15:18:59Z</time>
      </trkpt>
      <trkpt lat="45.19169" lon="5.74222">
        <ele>213.74</ele>
        <time>2018-09-09T15:19:01Z</time>
      </trkpt>
      <trkpt lat="45.19168" lon="5.7419">
        <ele>214.02</ele>
        <time>2018-09-09T15:19:03Z</time>
      </trkpt>
      <trkpt lat="45.19166" lon="5.74159">
        <ele>214.75</ele>
        <time>2018-09-09T15:19:05Z</time>
      </trkpt>
      <trkpt lat="45.19164" lon="5.74126">
        <ele>214.32</ele>
        <time>2018-09-09T15:19:07Z</time>
      </trkpt>
      <trkpt lat="45.19162" lon="5.74094">
        <ele>214.77</ele>
        <time>2018-09-09T15:19:09Z</time>
      </trkpt>
      <trkpt lat="45.1916" lon="5.74063">
        <ele>215.23</ele>
        <time>2018-09-09T15:19:11Z</time>
      </trkpt>
      <trkpt lat="45.19159" lon="5.74031">
        <ele>215.98</ele>
        <time>2018-09-09T15:19:13Z</time>
      </trkpt>
      <trkpt lat="45.19158" lon="5.73997">
        <ele>215.13</ele>
        <time>2018-09-09T15:19:15Z</time>
      </trkpt>
      <trkpt lat="45.19156" lon="5.73966">
        <ele>215.97</ele>
        <time>2018-09-09T15:19:17Z</time>
      </trkpt>
      <trkpt lat="45.19155" lon="5.73935">
        <ele>216.25</ele>
        <time>2018-09-09T15:19:19Z</time>
      </trkpt>
      <trkpt lat="45.19153" lon="5.73904">
        <ele>216.07</ele>
        <time>2018-09-09T15:19:21Z</time>
      </trkpt>
      <trkpt lat="45.19147" lon="5.73878">
        <ele>216.05</ele>
        <time>2018-09-09T15:19:23Z</time>
      </trkpt>
      <trkpt lat="45.19135" lon="5.73851">
        <ele>213.05</ele>
        <time>2018-09-09T15:20:29Z</time>
      </trkpt>
      <trkpt lat="45.19143" lon="5.73824">
        <ele>212.84</ele>
        <time>2018-09-09T15:20:32Z</time>
      </trkpt>
      <trkpt lat="45.19158" lon="5.7381">
        <ele>213.03</ele>
        <time>2018-09-09T15:20:34Z</time>
      </trkpt>
      <trkpt lat="45.19177" lon="5.73792">
        <ele>213.75</ele>
        <time>2018-09-09T15:20:36Z</time>
      </trkpt>
      <trkpt lat="45.19196" lon="5.73773">
        <ele>214.02</ele>
        <time>2018-09-09T15:20:38Z</time>
      </trkpt>
      <trkpt lat="45.19215" lon="5.73755">
        <ele>214.05</ele>
        <time>2018-09-09T15:20:40Z</time>
      </trkpt>
      <trkpt lat="45.19235" lon="5.73737">
        <ele>214.05</ele>
        <time>2018-09-09T15:20:42Z</time>
      </trkpt>
      <trkpt lat="45.19254" lon="5.73719">
        <ele>214.05</ele>
        <time>2018-09-09T15:20:44Z</time>
      </trkpt>
      <trkpt lat="45.19273" lon="5.737">
        <ele>214.05</ele>
        <time>2018-09-09T15:20:46Z</time>
      </trkpt>
      <trkpt lat="45.19291" lon="5.7368">
        <ele>214.05</ele>
        <time>2018-09-09T15:20:48Z</time>
      </trkpt>
      <trkpt lat="45.1931" lon="5.73661">
        <ele>214.05</ele>
        <time>2018-09-09T15:20:50Z</time>
      </trkpt>
      <trkpt lat="45.1933" lon="5.73642">
        <ele>214.26</ele>
        <time>2018-09-09T15:20:52Z</time>
      </trkpt>
      <trkpt lat="45.19349" lon="5.73624">
        <ele>214.77</ele>
        <time>2018-09-09T15:20:54Z</time>
      </trkpt>
      <trkpt lat="45.19369" lon="5.73606">
        <ele>215.02</ele>
        <time>2018-09-09T15:20:56Z</time>
      </trkpt>
      <trkpt lat="45.1939" lon="5.73587">
        <ele>214.14</ele>
        <time>2018-09-09T15:20:58Z</time>
      </trkpt>
      <trkpt lat="45.19412" lon="5.73566">
        <ele>214.06</ele>
        <time>2018-09-09T15:21:00Z</time>
      </trkpt>
      <trkpt lat="45.19436" lon="5.73549">
        <ele>214.05</ele>
        <time>2018-09-09T15:21:02Z</time>
      </trkpt>
      <trkpt lat="45.1946" lon="5.73532">
        <ele>214.05</ele>
        <time>2018-09-09T15:21:04Z</time>
      </trkpt>
      <trkpt lat="45.19486" lon="5.73517">
        <ele>214.05</ele>
        <time>2018-09-09T15:21:06Z</time>
      </trkpt>
      <trkpt lat="45.19513" lon="5.73505">
        <ele>214.05</ele>
        <time>2018-09-09T15:21:08Z</time>
      </trkpt>
      <trkpt lat="45.19541" lon="5.73494">
        <ele>214.05</ele>
        <time>2018-09-09T15:21:10Z</time>
      </trkpt>
      <trkpt lat="45.19568" lon="5.73485">
        <ele>213.35</ele>
        <time>2018-09-09T15:21:12Z</time>
      </trkpt>
      <trkpt lat="45.19593" lon="5.73476">
        <ele>211.89</ele>
        <time>2018-09-09T15:21:14Z</time>
      </trkpt>
      <trkpt lat="45.19618" lon="5.73461">
        <ele>211.12</ele>
        <time>2018-09-09T15:21:16Z</time>
      </trkpt>
      <trkpt lat="45.19643" lon="5.73443">
        <ele>211.06</ele>
        <time>2018-09-09T15:21:18Z</time>
      </trkpt>
      <trkpt lat="45.19667" lon="5.73424">
        <ele>211.96</ele>
        <time>2018-09-09T15:21:20Z</time>
      </trkpt>
      <trkpt lat="45.19691" lon="5.73409">
        <ele>212.25</ele>
        <time>2018-09-09T15:21:22Z</time>
      </trkpt>
      <trkpt lat="45.1971" lon="5.7339">
        <ele>215.08</ele>
        <time>2018-09-09T15:21:24Z</time>
      </trkpt>
      <trkpt lat="45.19723" lon="5.73361">
        <ele>216.66</ele>
        <time>2018-09-09T15:21:26Z</time>
      </trkpt>
      <trkpt lat="45.19733" lon="5.73327">
        <ele>218.62</ele>
        <time>2018-09-09T15:21:28Z</time>
      </trkpt>
      <trkpt lat="45.19742" lon="5.73294">
        <ele>219.22</ele>
        <time>2018-09-09T15:21:30Z</time>
      </trkpt>
      <trkpt lat="45.19749" lon="5.73267">
        <ele>219.06</ele>
        <time>2018-09-09T15:21:32Z</time>
      </trkpt>
      <trkpt lat="45.19745" lon="5.73239">
        <ele>218.32</ele>
        <time>2018-09-09T15:21:37Z</time>
      </trkpt>
      <trkpt lat="45.19726" lon="5.73225">
        <ele>216.38</ele>
        <time>2018-09-09T15:21:41Z</time>
      </trkpt>
      <trkpt lat="45.19709" lon="5.73212">
        <ele>216.06</ele>
        <time>2018-09-09T15:21:44Z</time>
      </trkpt>
      <trkpt lat="45.19692" lon="5.73197">
        <ele>215.84</ele>
        <time>2018-09-09T15:21:47Z</time>
      </trkpt>
      <trkpt lat="45.19676" lon="5.73182">
        <ele>214.16</ele>
        <time>2018-09-09T15:21:50Z</time>
      </trkpt>
      <trkpt lat="45.1966" lon="5.73164">
        <ele>214.05</ele>
        <time>2018-09-09T15:21:53Z</time>
      </trkpt>
      <trkpt lat="45.19644" lon="5.73146">
        <ele>214.75</ele>
        <time>2018-09-09T15:21:56Z</time>
      </trkpt>
      <trkpt lat="45.19627" lon="5.73122">
        <ele>215.05</ele>
        <time>2018-09-09T15:22:00Z</time>
      </trkpt>
      <trkpt lat="45.19613" lon="5.731">
        <ele>215.05</ele>
        <time>2018-09-09T15:22:03Z</time>
      </trkpt>
      <trkpt lat="45.19597" lon="5.73075">
        <ele>215.05</ele>
        <time>2018-09-09T15:22:06Z</time>
      </trkpt>
      <trkpt lat="45.19581" lon="5.73047">
        <ele>214.14</ele>
        <time>2018-09-09T15:22:09Z</time>
      </trkpt>
      <trkpt lat="45.19563" lon="5.73019">
        <ele>214.05</ele>
        <time>2018-09-09T15:22:12Z</time>
      </trkpt>
      <trkpt lat="45.19547" lon="5.72993">
        <ele>214.05</ele>
        <time>2018-09-09T15:22:15Z</time>
      </trkpt>
      <trkpt lat="45.19535" lon="5.72972">
        <ele>214.05</ele>
        <time>2018-09-09T15:22:19Z</time>
      </trkpt>
      <trkpt lat="45.19523" lon="5.7295">
        <ele>214.05</ele>
        <time>2018-09-09T15:22:23Z</time>
      </trkpt>
      <trkpt lat="45.19509" lon="5.72929">
        <ele>214.05</ele>
        <time>2018-09-09T15:22:26Z</time>
      </trkpt>
      <trkpt lat="45.19496" lon="5.72909">
        <ele>214.05</ele>
        <time>2018-09-09T15:22:29Z</time>
      </trkpt>
      <trkpt lat="45.19482" lon="5.72888">
        <ele>213.06</ele>
        <time>2018-09-09T15:22:33Z</time>
      </trkpt>
      <trkpt lat="45.19471" lon="5.72867">
        <ele>213.93</ele>
        <time>2018-09-09T15:22:39Z</time>
      </trkpt>
      <trkpt lat="45.19463" lon="5.7284">
        <ele>214.06</ele>
        <time>2018-09-09T15:22:45Z</time>
      </trkpt>
      <trkpt lat="45.19456" lon="5.72817">
        <ele>213.14</ele>
        <time>2018-09-09T15:22:48Z</time>
      </trkpt>
      <trkpt lat="45.19449" lon="5.72788">
        <ele>213.01</ele>
        <time>2018-09-09T15:22:52Z</time>
      </trkpt>
      <trkpt lat="45.19441" lon="5.72765">
        <ele>213.07</ele>
        <time>2018-09-09T15:22:57Z</time>
      </trkpt>
      <trkpt lat="45.19436" lon="5.72739">
        <ele>213.07</ele>
        <time>2018-09-09T15:23:03Z</time>
      </trkpt>
      <trkpt lat="45.19431" lon="5.72714">
        <ele>213.03</ele>
        <time>2018-09-09T15:23:11Z</time>
      </trkpt>
      <trkpt lat="45.19425" lon="5.72687">
        <ele>215.05</ele>
        <time>2018-09-09T15:23:24Z</time>
      </trkpt>
      <trkpt lat="45.1942" lon="5.72661">
        <ele>215.74</ele>
        <time>2018-09-09T15:23:29Z</time>
      </trkpt>
      <trkpt lat="45.19415" lon="5.72637">
        <ele>216.05</ele>
        <time>2018-09-09T15:23:33Z</time>
      </trkpt>
      <trkpt lat="45.19411" lon="5.72612">
        <ele>216.05</ele>
        <time>2018-09-09T15:23:37Z</time>
      </trkpt>
      <trkpt lat="45.19404" lon="5.72581">
        <ele>216.72</ele>
        <time>2018-09-09T15:23:42Z</time>
      </trkpt>
      <trkpt lat="45.19396" lon="5.72551">
        <ele>217.05</ele>
        <time>2018-09-09T15:23:46Z</time>
      </trkpt>
      <trkpt lat="45.19388" lon="5.72518">
        <ele>217.96</ele>
        <time>2018-09-09T15:23:49Z</time>
      </trkpt>
      <trkpt lat="45.19382" lon="5.72483">
        <ele>219.66</ele>
        <time>2018-09-09T15:23:52Z</time>
      </trkpt>
      <trkpt lat="45.19375" lon="5.72449">
        <ele>221.98</ele>
        <time>2018-09-09T15:23:55Z</time>
      </trkpt>
      <trkpt lat="45.19367" lon="5.72415">
        <ele>222.96</ele>
        <time>2018-09-09T15:23:58Z</time>
      </trkpt>
      <trkpt lat="45.19361" lon="5.72384">
        <ele>222.2</ele>
        <time>2018-09-09T15:24:01Z</time>
      </trkpt>
      <trkpt lat="45.19358" lon="5.72356">
        <ele>221.08</ele>
        <time>2018-09-09T15:24:04Z</time>
      </trkpt>
      <trkpt lat="45.19356" lon="5.72327">
        <ele>221.05</ele>
        <time>2018-09-09T15:24:07Z</time>
      </trkpt>
      <trkpt lat="45.19356" lon="5.72296">
        <ele>220.78</ele>
        <time>2018-09-09T15:24:10Z</time>
      </trkpt>
      <trkpt lat="45.19353" lon="5.72262">
        <ele>221.95</ele>
        <time>2018-09-09T15:24:13Z</time>
      </trkpt>
      <trkpt lat="45.19351" lon="5.72231">
        <ele>221.83</ele>
        <time>2018-09-09T15:24:15Z</time>
      </trkpt>
      <trkpt lat="45.19352" lon="5.72198">
        <ele>221.82</ele>
        <time>2018-09-09T15:24:17Z</time>
      </trkpt>
      <trkpt lat="45.19351" lon="5.72169">
        <ele>220.42</ele>
        <time>2018-09-09T15:24:19Z</time>
      </trkpt>
      <trkpt lat="45.19349" lon="5.7214">
        <ele>220.99</ele>
        <time>2018-09-09T15:24:21Z</time>
      </trkpt>
      <trkpt lat="45.19348" lon="5.72111">
        <ele>220.83</ele>
        <time>2018-09-09T15:24:23Z</time>
      </trkpt>
      <trkpt lat="45.19347" lon="5.72082">
        <ele>220.12</ele>
        <time>2018-09-09T15:24:25Z</time>
      </trkpt>
      <trkpt lat="45.19346" lon="5.72048">
        <ele>218.38</ele>
        <time>2018-09-09T15:24:28Z</time>
      </trkpt>
      <trkpt lat="45.19343" lon="5.72019">
        <ele>219.34</ele>
        <time>2018-09-09T15:24:45Z</time>
      </trkpt>
      <trkpt lat="45.19345" lon="5.71989">
        <ele>219.05</ele>
        <time>2018-09-09T15:24:50Z</time>
      </trkpt>
      <trkpt lat="45.19356" lon="5.71962">
        <ele>218.35</ele>
        <time>2018-09-09T15:24:55Z</time>
      </trkpt>
      <trkpt lat="45.19373" lon="5.71942">
        <ele>218.76</ele>
        <time>2018-09-09T15:24:58Z</time>
      </trkpt>
      <trkpt lat="45.19387" lon="5.71923">
        <ele>218.11</ele>
        <time>2018-09-09T15:25:00Z</time>
      </trkpt>
      <trkpt lat="45.19411" lon="5.71911">
        <ele>217.35</ele>
        <time>2018-09-09T15:25:03Z</time>
      </trkpt>
      <trkpt lat="45.19437" lon="5.71912">
        <ele>217.06</ele>
        <time>2018-09-09T15:25:06Z</time>
      </trkpt>
      <trkpt lat="45.19457" lon="5.71911">
        <ele>217.05</ele>
        <time>2018-09-09T15:25:08Z</time>
      </trkpt>
      <trkpt lat="45.19478" lon="5.71909">
        <ele>217.05</ele>
        <time>2018-09-09T15:25:10Z</time>
      </trkpt>
      <trkpt lat="45.19501" lon="5.71908">
        <ele>217.05</ele>
        <time>2018-09-09T15:25:12Z</time>
      </trkpt>
      <trkpt lat="45.19525" lon="5.71907">
        <ele>217.05</ele>
        <time>2018-09-09T15:25:14Z</time>
      </trkpt>
      <trkpt lat="45.19549" lon="5.71904">
        <ele>217.05</ele>
        <time>2018-09-09T15:25:16Z</time>
      </trkpt>
      <trkpt lat="45.19573" lon="5.71901">
        <ele>216.14</ele>
        <time>2018-09-09T15:25:18Z</time>
      </trkpt>
      <trkpt lat="45.19597" lon="5.71894">
        <ele>216.06</ele>
        <time>2018-09-09T15:25:20Z</time>
      </trkpt>
      <trkpt lat="45.19616" lon="5.71886">
        <ele>215.14</ele>
        <time>2018-09-09T15:25:22Z</time>
      </trkpt>
      <trkpt lat="45.19637" lon="5.71881">
        <ele>215.97</ele>
        <time>2018-09-09T15:25:24Z</time>
      </trkpt>
      <trkpt lat="45.1966" lon="5.71876">
        <ele>216.74</ele>
        <time>2018-09-09T15:25:26Z</time>
      </trkpt>
      <trkpt lat="45.19684" lon="5.71868">
        <ele>216.11</ele>
        <time>2018-09-09T15:25:28Z</time>
      </trkpt>
      <trkpt lat="45.19709" lon="5.71861">
        <ele>216.05</ele>
        <time>2018-09-09T15:25:30Z</time>
      </trkpt>
      <trkpt lat="45.19734" lon="5.71853">
        <ele>215.35</ele>
        <time>2018-09-09T15:25:32Z</time>
      </trkpt>
      <trkpt lat="45.19762" lon="5.71845">
        <ele>215.08</ele>
        <time>2018-09-09T15:25:34Z</time>
      </trkpt>
      <trkpt lat="45.19789" lon="5.71838">
        <ele>215.05</ele>
        <time>2018-09-09T15:25:36Z</time>
      </trkpt>
      <trkpt lat="45.19817" lon="5.71831">
        <ele>215.05</ele>
        <time>2018-09-09T15:25:38Z</time>
      </trkpt>
      <trkpt lat="45.19844" lon="5.71823">
        <ele>214.35</ele>
        <time>2018-09-09T15:25:40Z</time>
      </trkpt>
      <trkpt lat="45.19872" lon="5.71813">
        <ele>214.08</ele>
        <time>2018-09-09T15:25:42Z</time>
      </trkpt>
      <trkpt lat="45.19901" lon="5.71804">
        <ele>213.35</ele>
        <time>2018-09-09T15:25:44Z</time>
      </trkpt>
      <trkpt lat="45.19928" lon="5.71797">
        <ele>213.08</ele>
        <time>2018-09-09T15:25:46Z</time>
      </trkpt>
      <trkpt lat="45.19954" lon="5.71789">
        <ele>213.05</ele>
        <time>2018-09-09T15:25:48Z</time>
      </trkpt>
      <trkpt lat="45.19981" lon="5.71782">
        <ele>214.87</ele>
        <time>2018-09-09T15:25:50Z</time>
      </trkpt>
      <trkpt lat="45.20008" lon="5.71776">
        <ele>216.43</ele>
        <time>2018-09-09T15:25:52Z</time>
      </trkpt>
      <trkpt lat="45.20035" lon="5.71771">
        <ele>218.6</ele>
        <time>2018-09-09T15:25:54Z</time>
      </trkpt>
      <trkpt lat="45.20061" lon="5.71765">
        <ele>220.62</ele>
        <time>2018-09-09T15:25:56Z</time>
      </trkpt>
      <trkpt lat="45.20081" lon="5.7175">
        <ele>220.8</ele>
        <time>2018-09-09T15:25:58Z</time>
      </trkpt>
      <trkpt lat="45.20097" lon="5.7173">
        <ele>222.23</ele>
        <time>2018-09-09T15:26:01Z</time>
      </trkpt>
      <trkpt lat="45.20087" lon="5.71759">
        <ele>222.83</ele>
        <time>2018-09-09T15:26:09Z</time>
      </trkpt>
      <trkpt lat="45.20073" lon="5.71778">
        <ele>224.65</ele>
        <time>2018-09-09T15:26:12Z</time>
      </trkpt>
      <trkpt lat="45.20084" lon="5.71801">
        <ele>227.03</ele>
        <time>2018-09-09T15:26:18Z</time>
      </trkpt>
      <trkpt lat="45.20102" lon="5.7179">
        <ele>228.74</ele>
        <time>2018-09-09T15:26:23Z</time>
      </trkpt>
      <trkpt lat="45.20121" lon="5.71795">
        <ele>231.72</ele>
        <time>2018-09-09T15:26:48Z</time>
      </trkpt>
    </trkseg>
  </trk>
  <trk>
    <name><![CDATA[TET-ITALY-Section02-20190715]]></name>
    <extensions>
      <line xmlns="http://www.topografix.com/GPX/gpx_style/0/2">
        <color>0008ff</color>
        <opacity>0.95</opacity>
        <width>4</width>
      </line>
    </extensions>
    <trkseg>
      <trkpt lat="45.04704" lon="6.75823">
        <ele>1153</ele>
        <time>2017-01-02T07:44:09Z</time>
      </trkpt>
      <trkpt lat="45.04704" lon="6.75823">
        <ele>1153</ele>
        <time>2017-01-02T07:44:09Z</time>
      </trkpt>
      <trkpt lat="45.04704" lon="6.75823">
        <ele>1153</ele>
        <time>2017-01-02T07:44:09Z</time>
      </trkpt>
      <trkpt lat="45.04704" lon="6.75823">
        <ele>1153</ele>
        <time>2017-01-02T07:44:09Z</time>
      </trkpt>
      <trkpt lat="45.04704" lon="6.75823">
        <ele>1153</ele>
        <time>2017-01-02T07:44:09Z</time>
      </trkpt>
      <trkpt lat="45.04691" lon="6.75815">
        <ele>1150</ele>
        <time>2017-01-02T07:44:15Z</time>
      </trkpt>
      <trkpt lat="45.0468" lon="6.75813">
        <ele>1148</ele>
        <time>2017-01-02T07:44:20Z</time>
      </trkpt>
      <trkpt lat="45.04658" lon="6.75802">
        <ele>1147</ele>
        <time>2017-01-02T07:44:29Z</time>
      </trkpt>
      <trkpt lat="45.04622" lon="6.75778">
        <ele>1151</ele>
        <time>2017-01-02T07:44:45Z</time>
      </trkpt>
      <trkpt lat="45.04598" lon="6.75768">
        <ele>1153</ele>
        <time>2017-01-02T07:44:55Z</time>
      </trkpt>
      <trkpt lat="45.0453" lon="6.75764">
        <ele>1162</ele>
        <time>2017-01-02T07:45:22Z</time>
      </trkpt>
      <trkpt lat="45.04443" lon="6.75729">
        <ele>1168</ele>
        <time>2017-01-02T07:45:58Z</time>
      </trkpt>
      <trkpt lat="45.04429" lon="6.75728">
        <ele>1168</ele>
        <time>2017-01-02T07:46:04Z</time>
      </trkpt>
      <trkpt lat="45.04392" lon="6.75717">
        <ele>1172</ele>
        <time>2017-01-02T07:46:19Z</time>
      </trkpt>
      <trkpt lat="45.0438" lon="6.75716">
        <ele>1173</ele>
        <time>2017-01-02T07:46:24Z</time>
      </trkpt>
      <trkpt lat="45.04388" lon="6.7569">
        <ele>1175</ele>
        <time>2017-01-02T07:46:32Z</time>
      </trkpt>
      <trkpt lat="45.04383" lon="6.7566">
        <ele>1178</ele>
        <time>2017-01-02T07:46:41Z</time>
      </trkpt>
      <trkpt lat="45.04388" lon="6.75639">
        <ele>1179</ele>
        <time>2017-01-02T07:46:47Z</time>
      </trkpt>
      <trkpt lat="45.04403" lon="6.75549">
        <ele>1180</ele>
        <time>2017-01-02T07:47:13Z</time>
      </trkpt>
      <trkpt lat="45.04407" lon="6.75506">
        <ele>1180</ele>
        <time>2017-01-02T07:47:26Z</time>
      </trkpt>
      <trkpt lat="45.04397" lon="6.75396">
        <ele>1176</ele>
        <time>2017-01-02T07:47:57Z</time>
      </trkpt>
      <trkpt lat="45.04395" lon="6.75343">
        <ele>1182</ele>
        <time>2017-01-02T07:48:12Z</time>
      </trkpt>
      <trkpt lat="45.04399" lon="6.75583">
        <ele>1178.92</ele>
        <time>2017-01-03T07:25:08Z</time>
      </trkpt>
      <trkpt lat="45.04408" lon="6.75529">
        <ele>1180.55</ele>
        <time>2017-01-03T07:25:10Z</time>
      </trkpt>
      <trkpt lat="45.04409" lon="6.75509">
        <ele>1179.2</ele>
        <time>2017-01-03T07:25:10Z</time>
      </trkpt>
      <trkpt lat="45.04405" lon="6.75466">
        <ele>1176.72</ele>
        <time>2017-01-03T07:25:12Z</time>
      </trkpt>
      <trkpt lat="45.04398" lon="6.75429">
        <ele>1175.35</ele>
        <time>2017-01-03T07:25:14Z</time>
      </trkpt>
      <trkpt lat="45.04396" lon="6.75389">
        <ele>1176.23</ele>
        <time>2017-01-03T07:25:15Z</time>
      </trkpt>
      <trkpt lat="45.04392" lon="6.75325">
        <ele>1183.86</ele>
        <time>2017-01-03T07:25:18Z</time>
      </trkpt>
      <trkpt lat="45.04398" lon="6.75312">
        <ele>1185.09</ele>
        <time>2017-01-03T07:25:18Z</time>
      </trkpt>
      <trkpt lat="45.04433" lon="6.75282">
        <ele>1186.63</ele>
        <time>2017-01-03T07:25:20Z</time>
      </trkpt>
      <trkpt lat="45.0444" lon="6.75272">
        <ele>1188.58</ele>
        <time>2017-01-03T07:25:21Z</time>
      </trkpt>
      <trkpt lat="45.04448" lon="6.75257">
        <ele>1191.98</ele>
        <time>2017-01-03T07:25:22Z</time>
      </trkpt>
      <trkpt lat="45.04462" lon="6.75244">
        <ele>1194.74</ele>
        <time>2017-01-03T07:25:23Z</time>
      </trkpt>
      <trkpt lat="45.04489" lon="6.75232">
        <ele>1197.27</ele>
        <time>2017-01-03T07:25:24Z</time>
      </trkpt>
      <trkpt lat="45.04501" lon="6.7523">
        <ele>1196.92</ele>
        <time>2017-01-03T07:25:25Z</time>
      </trkpt>
      <trkpt lat="45.04522" lon="6.75211">
        <ele>1197.22</ele>
        <time>2017-01-03T07:25:26Z</time>
      </trkpt>
      <trkpt lat="45.04534" lon="6.7519">
        <ele>1198.27</ele>
        <time>2017-01-03T07:25:27Z</time>
      </trkpt>
      <trkpt lat="45.04528" lon="6.75168">
        <ele>1207.56</ele>
        <time>2017-01-03T07:25:28Z</time>
      </trkpt>
      <trkpt lat="45.04503" lon="6.75198">
        <ele>1206.21</ele>
        <time>2017-01-03T07:25:30Z</time>
      </trkpt>
      <trkpt lat="45.04489" lon="6.75197">
        <ele>1209.49</ele>
        <time>2017-01-03T07:25:31Z</time>
      </trkpt>
      <trkpt lat="45.04482" lon="6.75187">
        <ele>1213.23</ele>
        <time>2017-01-03T07:25:32Z</time>
      </trkpt>
      <trkpt lat="45.04476" lon="6.75173">
        <ele>1217.04</ele>
        <time>2017-01-03T07:25:32Z</time>
      </trkpt>
      <trkpt lat="45.04483" lon="6.75141">
        <ele>1219.24</ele>
        <time>2017-01-03T07:25:34Z</time>
      </trkpt>
      <trkpt lat="45.04513" lon="6.75114">
        <ele>1223.12</ele>
        <time>2017-01-03T07:25:36Z</time>
      </trkpt>
      <trkpt lat="45.04541" lon="6.75077">
        <ele>1230.5</ele>
        <time>2017-01-03T07:25:38Z</time>
      </trkpt>
      <trkpt lat="45.04549" lon="6.75066">
        <ele>1229.63</ele>
        <time>2017-01-03T07:25:38Z</time>
      </trkpt>
      <trkpt lat="45.04564" lon="6.75057">
        <ele>1225.06</ele>
        <time>2017-01-03T07:25:39Z</time>
      </trkpt>
      <trkpt lat="45.04564" lon="6.75043">
        <ele>1230.19</ele>
        <time>2017-01-03T07:25:40Z</time>
      </trkpt>
      <trkpt lat="45.04554" lon="6.75042">
        <ele>1234.9</ele>
        <time>2017-01-03T07:25:40Z</time>
      </trkpt>
      <trkpt lat="45.04536" lon="6.75059">
        <ele>1236.04</ele>
        <time>2017-01-03T07:25:42Z</time>
      </trkpt>
      <trkpt lat="45.04526" lon="6.75063">
        <ele>1238.53</ele>
        <time>2017-01-03T07:25:42Z</time>
      </trkpt>
      <trkpt lat="45.04502" lon="6.75072">
        <ele>1237.58</ele>
        <time>2017-01-03T07:25:43Z</time>
      </trkpt>
      <trkpt lat="45.04489" lon="6.75072">
        <ele>1238.07</ele>
        <time>2017-01-03T07:25:44Z</time>
      </trkpt>
      <trkpt lat="45.04435" lon="6.75057">
        <ele>1239.2</ele>
        <time>2017-01-03T07:25:47Z</time>
      </trkpt>
      <trkpt lat="45.04412" lon="6.75052">
        <ele>1234.91</ele>
        <time>2017-01-03T07:25:48Z</time>
      </trkpt>
      <trkpt lat="45.0441" lon="6.75034">
        <ele>1240.65</ele>
        <time>2017-01-03T07:25:49Z</time>
      </trkpt>
      <trkpt lat="45.04437" lon="6.75032">
        <ele>1248.6</ele>
        <time>2017-01-03T07:25:51Z</time>
      </trkpt>
      <trkpt lat="45.04458" lon="6.75017">
        <ele>1257.64</ele>
        <time>2017-01-03T07:25:52Z</time>
      </trkpt>
      <trkpt lat="45.04484" lon="6.74997">
        <ele>1265.19</ele>
        <time>2017-01-03T07:25:54Z</time>
      </trkpt>
      <trkpt lat="45.04494" lon="6.74967">
        <ele>1274.07</ele>
        <time>2017-01-03T07:25:55Z</time>
      </trkpt>
      <trkpt lat="45.04479" lon="6.74966">
        <ele>1275.72</ele>
        <time>2017-01-03T07:25:56Z</time>
      </trkpt>
      <trkpt lat="45.04447" lon="6.74982">
        <ele>1272.07</ele>
        <time>2017-01-03T07:25:58Z</time>
      </trkpt>
      <trkpt lat="45.04437" lon="6.74987">
        <ele>1268.54</ele>
        <time>2017-01-03T07:25:59Z</time>
      </trkpt>
      <trkpt lat="45.04434" lon="6.74966">
        <ele>1275.7</ele>
        <time>2017-01-03T07:26:00Z</time>
      </trkpt>
      <trkpt lat="45.04457" lon="6.74945">
        <ele>1282.5</ele>
        <time>2017-01-03T07:26:01Z</time>
      </trkpt>
      <trkpt lat="45.04479" lon="6.74933">
        <ele>1283.84</ele>
        <time>2017-01-03T07:26:03Z</time>
      </trkpt>
      <trkpt lat="45.04491" lon="6.74924">
        <ele>1286.47</ele>
        <time>2017-01-03T07:26:03Z</time>
      </trkpt>
      <trkpt lat="45.04492" lon="6.74909">
        <ele>1291.2</ele>
        <time>2017-01-03T07:26:04Z</time>
      </trkpt>
      <trkpt lat="45.04481" lon="6.74907">
        <ele>1291.45</ele>
        <time>2017-01-03T07:26:05Z</time>
      </trkpt>
      <trkpt lat="45.04466" lon="6.74911">
        <ele>1290.37</ele>
        <time>2017-01-03T07:26:05Z</time>
      </trkpt>
      <trkpt lat="45.04436" lon="6.74923">
        <ele>1288.42</ele>
        <time>2017-01-03T07:26:07Z</time>
      </trkpt>
      <trkpt lat="45.04418" lon="6.74926">
        <ele>1285.47</ele>
        <time>2017-01-03T07:26:08Z</time>
      </trkpt>
      <trkpt lat="45.04404" lon="6.74915">
        <ele>1282</ele>
        <time>2017-01-03T07:26:09Z</time>
      </trkpt>
      <trkpt lat="45.04401" lon="6.74892">
        <ele>1285.93</ele>
        <time>2017-01-03T07:26:10Z</time>
      </trkpt>
      <trkpt lat="45.04403" lon="6.74877">
        <ele>1289.53</ele>
        <time>2017-01-03T07:26:10Z</time>
      </trkpt>
      <trkpt lat="45.04414" lon="6.74863">
        <ele>1296.57</ele>
        <time>2017-01-03T07:26:11Z</time>
      </trkpt>
      <trkpt lat="45.04427" lon="6.74856">
        <ele>1301.03</ele>
        <time>2017-01-03T07:26:12Z</time>
      </trkpt>
      <trkpt lat="45.0445" lon="6.74855">
        <ele>1305.23</ele>
        <time>2017-01-03T07:26:13Z</time>
      </trkpt>
      <trkpt lat="45.04463" lon="6.74858">
        <ele>1305.94</ele>
        <time>2017-01-03T07:26:14Z</time>
      </trkpt>
      <trkpt lat="45.0451" lon="6.74833">
        <ele>1315.14</ele>
        <time>2017-01-03T07:26:17Z</time>
      </trkpt>
      <trkpt lat="45.04534" lon="6.74829">
        <ele>1316.64</ele>
        <time>2017-01-03T07:26:18Z</time>
      </trkpt>
      <trkpt lat="45.04541" lon="6.74799">
        <ele>1325.36</ele>
        <time>2017-01-03T07:26:20Z</time>
      </trkpt>
      <trkpt lat="45.04532" lon="6.74788">
        <ele>1329.94</ele>
        <time>2017-01-03T07:26:20Z</time>
      </trkpt>
      <trkpt lat="45.04514" lon="6.74795">
        <ele>1329.98</ele>
        <time>2017-01-03T07:26:21Z</time>
      </trkpt>
      <trkpt lat="45.04495" lon="6.74811">
        <ele>1324.65</ele>
        <time>2017-01-03T07:26:23Z</time>
      </trkpt>
      <trkpt lat="45.04485" lon="6.74815">
        <ele>1322.92</ele>
        <time>2017-01-03T07:26:23Z</time>
      </trkpt>
      <trkpt lat="45.04467" lon="6.74814">
        <ele>1322.28</ele>
        <time>2017-01-03T07:26:24Z</time>
      </trkpt>
      <trkpt lat="45.04449" lon="6.74807">
        <ele>1321.4</ele>
        <time>2017-01-03T07:26:25Z</time>
      </trkpt>
      <trkpt lat="45.0444" lon="6.74799">
        <ele>1322</ele>
        <time>2017-01-03T07:26:26Z</time>
      </trkpt>
      <trkpt lat="45.04419" lon="6.74767">
        <ele>1326.69</ele>
        <time>2017-01-03T07:26:27Z</time>
      </trkpt>
      <trkpt lat="45.04408" lon="6.74734">
        <ele>1333.31</ele>
        <time>2017-01-03T07:26:29Z</time>
      </trkpt>
      <trkpt lat="45.04404" lon="6.7472">
        <ele>1336.33</ele>
        <time>2017-01-03T07:26:29Z</time>
      </trkpt>
      <trkpt lat="45.04392" lon="6.74699">
        <ele>1338.7</ele>
        <time>2017-01-03T07:26:30Z</time>
      </trkpt>
      <trkpt lat="45.04369" lon="6.74663">
        <ele>1339.77</ele>
        <time>2017-01-03T07:26:32Z</time>
      </trkpt>
      <trkpt lat="45.0437" lon="6.74649">
        <ele>1344.27</ele>
        <time>2017-01-03T07:26:33Z</time>
      </trkpt>
      <trkpt lat="45.04383" lon="6.74651">
        <ele>1348.99</ele>
        <time>2017-01-03T07:26:34Z</time>
      </trkpt>
      <trkpt lat="45.04391" lon="6.74666">
        <ele>1348.91</ele>
        <time>2017-01-03T07:26:34Z</time>
      </trkpt>
      <trkpt lat="45.04407" lon="6.74688">
        <ele>1348.61</ele>
        <time>2017-01-03T07:26:36Z</time>
      </trkpt>
      <trkpt lat="45.04438" lon="6.74739">
        <ele>1343.08</ele>
        <time>2017-01-03T07:26:38Z</time>
      </trkpt>
      <trkpt lat="45.04449" lon="6.74742">
        <ele>1345.6</ele>
        <time>2017-01-03T07:26:39Z</time>
      </trkpt>
      <trkpt lat="45.04444" lon="6.74722">
        <ele>1351.89</ele>
        <time>2017-01-03T07:26:40Z</time>
      </trkpt>
      <trkpt lat="45.04432" lon="6.74709">
        <ele>1351.31</ele>
        <time>2017-01-03T07:26:41Z</time>
      </trkpt>
      <trkpt lat="45.0442" lon="6.74674">
        <ele>1357.41</ele>
        <time>2017-01-03T07:26:42Z</time>
      </trkpt>
      <trkpt lat="45.04411" lon="6.74631">
        <ele>1366.28</ele>
        <time>2017-01-03T07:26:44Z</time>
      </trkpt>
      <trkpt lat="45.04404" lon="6.74612">
        <ele>1369.33</ele>
        <time>2017-01-03T07:26:45Z</time>
      </trkpt>
      <trkpt lat="45.04391" lon="6.74593">
        <ele>1369.53</ele>
        <time>2017-01-03T07:26:46Z</time>
      </trkpt>
      <trkpt lat="45.04363" lon="6.74563">
        <ele>1367.15</ele>
        <time>2017-01-03T07:26:48Z</time>
      </trkpt>
      <trkpt lat="45.04343" lon="6.74529">
        <ele>1369.46</ele>
        <time>2017-01-03T07:26:49Z</time>
      </trkpt>
      <trkpt lat="45.04329" lon="6.74494">
        <ele>1375.82</ele>
        <time>2017-01-03T07:26:51Z</time>
      </trkpt>
      <trkpt lat="45.0432" lon="6.74445">
        <ele>1383.68</ele>
        <time>2017-01-03T07:26:53Z</time>
      </trkpt>
      <trkpt lat="45.04318" lon="6.74397">
        <ele>1390.34</ele>
        <time>2017-01-03T07:26:55Z</time>
      </trkpt>
      <trkpt lat="45.04314" lon="6.74372">
        <ele>1392.69</ele>
        <time>2017-01-03T07:26:56Z</time>
      </trkpt>
      <trkpt lat="45.04306" lon="6.74339">
        <ele>1396.74</ele>
        <time>2017-01-03T07:26:57Z</time>
      </trkpt>
      <trkpt lat="45.04298" lon="6.74314">
        <ele>1400.7</ele>
        <time>2017-01-03T07:26:58Z</time>
      </trkpt>
      <trkpt lat="45.04294" lon="6.7429">
        <ele>1403.82</ele>
        <time>2017-01-03T07:26:59Z</time>
      </trkpt>
      <trkpt lat="45.04293" lon="6.74254">
        <ele>1407.08</ele>
        <time>2017-01-03T07:27:00Z</time>
      </trkpt>
      <trkpt lat="45.04297" lon="6.74203">
        <ele>1414</ele>
        <time>2017-01-03T07:27:02Z</time>
      </trkpt>
      <trkpt lat="45.04297" lon="6.74153">
        <ele>1419.49</ele>
        <time>2017-01-03T07:27:04Z</time>
      </trkpt>
      <trkpt lat="45.04295" lon="6.74125">
        <ele>1420.72</ele>
        <time>2017-01-03T07:27:06Z</time>
      </trkpt>
      <trkpt lat="45.04313" lon="6.74086">
        <ele>1428.88</ele>
        <time>2017-01-03T07:27:07Z</time>
      </trkpt>
      <trkpt lat="45.04329" lon="6.74064">
        <ele>1435.58</ele>
        <time>2017-01-03T07:27:09Z</time>
      </trkpt>
      <trkpt lat="45.04343" lon="6.74016">
        <ele>1439.27</ele>
        <time>2017-01-03T07:27:11Z</time>
      </trkpt>
      <trkpt lat="45.04352" lon="6.73971">
        <ele>1441.15</ele>
        <time>2017-01-03T07:27:12Z</time>
      </trkpt>
      <trkpt lat="45.04352" lon="6.73987">
        <ele>1440.46</ele>
        <time>2017-01-03T07:27:14Z</time>
      </trkpt>
      <trkpt lat="45.04352" lon="6.73877">
        <ele>1451.58</ele>
        <time>2017-01-03T07:27:18Z</time>
      </trkpt>
      <trkpt lat="45.04401" lon="6.73727">
        <ele>1455.52</ele>
        <time>2017-01-03T07:27:25Z</time>
      </trkpt>
      <trkpt lat="45.04412" lon="6.73706">
        <ele>1453.21</ele>
        <time>2017-01-03T07:27:26Z</time>
      </trkpt>
      <trkpt lat="45.0443" lon="6.737">
        <ele>1449.97</ele>
        <time>2017-01-03T07:27:27Z</time>
      </trkpt>
      <trkpt lat="45.04496" lon="6.73524">
        <ele>1466.18</ele>
        <time>2017-01-03T07:27:34Z</time>
      </trkpt>
      <trkpt lat="45.04494" lon="6.73461">
        <ele>1467.07</ele>
        <time>2017-01-03T07:27:37Z</time>
      </trkpt>
      <trkpt lat="45.04483" lon="6.73423">
        <ele>1467.78</ele>
        <time>2017-01-03T07:27:38Z</time>
      </trkpt>
      <trkpt lat="45.04445" lon="6.73351">
        <ele>1476.02</ele>
        <time>2017-01-03T07:27:42Z</time>
      </trkpt>
      <trkpt lat="45.04431" lon="6.73164">
        <ele>1466.34</ele>
        <time>2017-01-03T07:27:49Z</time>
      </trkpt>
      <trkpt lat="45.04411" lon="6.73113">
        <ele>1477.33</ele>
        <time>2017-01-03T07:27:51Z</time>
      </trkpt>
      <trkpt lat="45.0442" lon="6.73075">
        <ele>1474.26</ele>
        <time>2017-01-03T07:27:53Z</time>
      </trkpt>
      <trkpt lat="45.04443" lon="6.73038">
        <ele>1471.13</ele>
        <time>2017-01-03T07:27:55Z</time>
      </trkpt>
      <trkpt lat="45.04438" lon="6.73016">
        <ele>1476.09</ele>
        <time>2017-01-03T07:27:56Z</time>
      </trkpt>
      <trkpt lat="45.04457" lon="6.72951">
        <ele>1476.78</ele>
        <time>2017-01-03T07:27:58Z</time>
      </trkpt>
      <trkpt lat="45.04413" lon="6.7291">
        <ele>1490.12</ele>
        <time>2017-01-03T07:28:01Z</time>
      </trkpt>
      <trkpt lat="45.04352" lon="6.72913">
        <ele>1497.9</ele>
        <time>2017-01-03T07:28:05Z</time>
      </trkpt>
      <trkpt lat="45.04361" lon="6.72883">
        <ele>1499.5</ele>
        <time>2017-01-03T07:28:06Z</time>
      </trkpt>
      <trkpt lat="45.04378" lon="6.7287">
        <ele>1500.94</ele>
        <time>2017-01-03T07:28:07Z</time>
      </trkpt>
      <trkpt lat="45.04444" lon="6.72879">
        <ele>1492.66</ele>
        <time>2017-01-03T07:28:11Z</time>
      </trkpt>
      <trkpt lat="45.04523" lon="6.72925">
        <ele>1484.07</ele>
        <time>2017-01-03T07:28:15Z</time>
      </trkpt>
      <trkpt lat="45.04543" lon="6.72978">
        <ele>1475.06</ele>
        <time>2017-01-03T07:28:18Z</time>
      </trkpt>
      <trkpt lat="45.04569" lon="6.72994">
        <ele>1478.55</ele>
        <time>2017-01-03T07:28:19Z</time>
      </trkpt>
      <trkpt lat="45.04627" lon="6.72948">
        <ele>1482.45</ele>
        <time>2017-01-03T07:28:23Z</time>
      </trkpt>
      <trkpt lat="45.04643" lon="6.72853">
        <ele>1495.61</ele>
        <time>2017-01-03T07:28:27Z</time>
      </trkpt>
      <trkpt lat="45.04659" lon="6.72816">
        <ele>1503.97</ele>
        <time>2017-01-03T07:28:28Z</time>
      </trkpt>
      <trkpt lat="45.04702" lon="6.72849">
        <ele>1498.2</ele>
        <time>2017-01-03T07:28:31Z</time>
      </trkpt>
      <trkpt lat="45.04706" lon="6.72878">
        <ele>1488.43</ele>
        <time>2017-01-03T07:28:32Z</time>
      </trkpt>
      <trkpt lat="45.04739" lon="6.729">
        <ele>1498.96</ele>
        <time>2017-01-03T07:28:34Z</time>
      </trkpt>
      <trkpt lat="45.04756" lon="6.72945">
        <ele>1492.45</ele>
        <time>2017-01-03T07:28:36Z</time>
      </trkpt>
      <trkpt lat="45.04784" lon="6.72962">
        <ele>1497.52</ele>
        <time>2017-01-03T07:28:38Z</time>
      </trkpt>
      <trkpt lat="45.04763" lon="6.7296">
        <ele>1489.78</ele>
        <time>2017-01-03T07:28:39Z</time>
      </trkpt>
      <trkpt lat="45.04777" lon="6.72966">
        <ele>1493.24</ele>
        <time>2017-01-03T07:28:40Z</time>
      </trkpt>
      <trkpt lat="45.04785" lon="6.72975">
        <ele>1491.13</ele>
        <time>2017-01-03T07:28:40Z</time>
      </trkpt>
      <trkpt lat="45.04818" lon="6.72957">
        <ele>1509.21</ele>
        <time>2017-01-03T07:28:42Z</time>
      </trkpt>
      <trkpt lat="45.04828" lon="6.72955">
        <ele>1512.95</ele>
        <time>2017-01-03T07:28:43Z</time>
      </trkpt>
      <trkpt lat="45.04838" lon="6.72956">
        <ele>1514.65</ele>
        <time>2017-01-03T07:28:43Z</time>
      </trkpt>
      <trkpt lat="45.04848" lon="6.72959">
        <ele>1514.85</ele>
        <time>2017-01-03T07:28:44Z</time>
      </trkpt>
      <trkpt lat="45.04863" lon="6.72967">
        <ele>1514.23</ele>
        <time>2017-01-03T07:28:45Z</time>
      </trkpt>
      <trkpt lat="45.04899" lon="6.72986">
        <ele>1514.81</ele>
        <time>2017-01-03T07:28:47Z</time>
      </trkpt>
      <trkpt lat="45.04932" lon="6.72994">
        <ele>1522.26</ele>
        <time>2017-01-03T07:28:49Z</time>
      </trkpt>
      <trkpt lat="45.04938" lon="6.73013">
        <ele>1520.29</ele>
        <time>2017-01-03T07:28:50Z</time>
      </trkpt>
      <trkpt lat="45.04949" lon="6.7304">
        <ele>1518.78</ele>
        <time>2017-01-03T07:28:51Z</time>
      </trkpt>
      <trkpt lat="45.04961" lon="6.7306">
        <ele>1517.74</ele>
        <time>2017-01-03T07:28:52Z</time>
      </trkpt>
      <trkpt lat="45.04977" lon="6.7306">
        <ele>1520.76</ele>
        <time>2017-01-03T07:28:53Z</time>
      </trkpt>
      <trkpt lat="45.04984" lon="6.7305">
        <ele>1523.95</ele>
        <time>2017-01-03T07:28:53Z</time>
      </trkpt>
      <trkpt lat="45.04991" lon="6.73026">
        <ele>1531.08</ele>
        <time>2017-01-03T07:28:54Z</time>
      </trkpt>
      <trkpt lat="45.05011" lon="6.73029">
        <ele>1535.04</ele>
        <time>2017-01-03T07:28:56Z</time>
      </trkpt>
      <trkpt lat="45.05027" lon="6.73048">
        <ele>1533.72</ele>
        <time>2017-01-03T07:28:57Z</time>
      </trkpt>
      <trkpt lat="45.05036" lon="6.73065">
        <ele>1532.67</ele>
        <time>2017-01-03T07:28:58Z</time>
      </trkpt>
      <trkpt lat="45.05057" lon="6.73092">
        <ele>1534.97</ele>
        <time>2017-01-03T07:28:59Z</time>
      </trkpt>
      <trkpt lat="45.05087" lon="6.73118">
        <ele>1544.14</ele>
        <time>2017-01-03T07:29:01Z</time>
      </trkpt>
      <trkpt lat="45.05104" lon="6.73142">
        <ele>1548.61</ele>
        <time>2017-01-03T07:29:02Z</time>
      </trkpt>
      <trkpt lat="45.05109" lon="6.73157">
        <ele>1549.71</ele>
        <time>2017-01-03T07:29:03Z</time>
      </trkpt>
      <trkpt lat="45.05113" lon="6.73184">
        <ele>1550.53</ele>
        <time>2017-01-03T07:29:04Z</time>
      </trkpt>
      <trkpt lat="45.05115" lon="6.73215">
        <ele>1550.88</ele>
        <time>2017-01-03T07:29:05Z</time>
      </trkpt>
      <trkpt lat="45.05129" lon="6.73211">
        <ele>1554.12</ele>
        <time>2017-01-03T07:29:06Z</time>
      </trkpt>
      <trkpt lat="45.05147" lon="6.73157">
        <ele>1560.85</ele>
        <time>2017-01-03T07:29:09Z</time>
      </trkpt>
      <trkpt lat="45.0515" lon="6.73124">
        <ele>1562.98</ele>
        <time>2017-01-03T07:29:10Z</time>
      </trkpt>
      <trkpt lat="45.05148" lon="6.73108">
        <ele>1564.09</ele>
        <time>2017-01-03T07:29:11Z</time>
      </trkpt>
      <trkpt lat="45.05139" lon="6.73095">
        <ele>1564.34</ele>
        <time>2017-01-03T07:29:11Z</time>
      </trkpt>
      <trkpt lat="45.05134" lon="6.73075">
        <ele>1566.55</ele>
        <time>2017-01-03T07:29:12Z</time>
      </trkpt>
      <trkpt lat="45.05131" lon="6.73053">
        <ele>1570.31</ele>
        <time>2017-01-03T07:29:13Z</time>
      </trkpt>
      <trkpt lat="45.05123" lon="6.73035">
        <ele>1571.46</ele>
        <time>2017-01-03T07:29:14Z</time>
      </trkpt>
      <trkpt lat="45.05114" lon="6.73024">
        <ele>1570.76</ele>
        <time>2017-01-03T07:29:14Z</time>
      </trkpt>
      <trkpt lat="45.05104" lon="6.73003">
        <ele>1572.26</ele>
        <time>2017-01-03T07:29:15Z</time>
      </trkpt>
      <trkpt lat="45.05091" lon="6.72963">
        <ele>1575.99</ele>
        <time>2017-01-03T07:29:17Z</time>
      </trkpt>
      <trkpt lat="45.05078" lon="6.72912">
        <ele>1582.86</ele>
        <time>2017-01-03T07:29:19Z</time>
      </trkpt>
      <trkpt lat="45.05069" lon="6.72888">
        <ele>1587.15</ele>
        <time>2017-01-03T07:29:20Z</time>
      </trkpt>
      <trkpt lat="45.05061" lon="6.72878">
        <ele>1588.23</ele>
        <time>2017-01-03T07:29:21Z</time>
      </trkpt>
      <trkpt lat="45.0505" lon="6.72871">
        <ele>1588.61</ele>
        <time>2017-01-03T07:29:22Z</time>
      </trkpt>
      <trkpt lat="45.05035" lon="6.72866">
        <ele>1588.85</ele>
        <time>2017-01-03T07:29:22Z</time>
      </trkpt>
      <trkpt lat="45.05022" lon="6.72866">
        <ele>1587.96</ele>
        <time>2017-01-03T07:29:23Z</time>
      </trkpt>
      <trkpt lat="45.05009" lon="6.72861">
        <ele>1589.36</ele>
        <time>2017-01-03T07:29:24Z</time>
      </trkpt>
      <trkpt lat="45.04999" lon="6.72851">
        <ele>1592.61</ele>
        <time>2017-01-03T07:29:24Z</time>
      </trkpt>
      <trkpt lat="45.04987" lon="6.72843">
        <ele>1595.5</ele>
        <time>2017-01-03T07:29:25Z</time>
      </trkpt>
      <trkpt lat="45.04966" lon="6.7285">
        <ele>1591.08</ele>
        <time>2017-01-03T07:29:26Z</time>
      </trkpt>
      <trkpt lat="45.04955" lon="6.72853">
        <ele>1587.7</ele>
        <time>2017-01-03T07:29:27Z</time>
      </trkpt>
      <trkpt lat="45.04946" lon="6.72843">
        <ele>1590.76</ele>
        <time>2017-01-03T07:29:28Z</time>
      </trkpt>
      <trkpt lat="45.04932" lon="6.72822">
        <ele>1598.56</ele>
        <time>2017-01-03T07:29:29Z</time>
      </trkpt>
      <trkpt lat="45.04913" lon="6.72807">
        <ele>1600.19</ele>
        <time>2017-01-03T07:29:30Z</time>
      </trkpt>
      <trkpt lat="45.04924" lon="6.72797">
        <ele>1607.99</ele>
        <time>2017-01-03T07:29:31Z</time>
      </trkpt>
      <trkpt lat="45.04936" lon="6.72809">
        <ele>1606.43</ele>
        <time>2017-01-03T07:29:32Z</time>
      </trkpt>
      <trkpt lat="45.04956" lon="6.72815">
        <ele>1606.82</ele>
        <time>2017-01-03T07:29:33Z</time>
      </trkpt>
      <trkpt lat="45.04979" lon="6.72813">
        <ele>1608.92</ele>
        <time>2017-01-03T07:29:34Z</time>
      </trkpt>
      <trkpt lat="45.05006" lon="6.72788">
        <ele>1616.95</ele>
        <time>2017-01-03T07:29:36Z</time>
      </trkpt>
      <trkpt lat="45.05017" lon="6.72776">
        <ele>1621.6</ele>
        <time>2017-01-03T07:29:37Z</time>
      </trkpt>
      <trkpt lat="45.05028" lon="6.72772">
        <ele>1622.88</ele>
        <time>2017-01-03T07:29:37Z</time>
      </trkpt>
      <trkpt lat="45.05058" lon="6.72775">
        <ele>1623.63</ele>
        <time>2017-01-03T07:29:39Z</time>
      </trkpt>
      <trkpt lat="45.05069" lon="6.72781">
        <ele>1623.57</ele>
        <time>2017-01-03T07:29:40Z</time>
      </trkpt>
      <trkpt lat="45.05067" lon="6.72753">
        <ele>1634.28</ele>
        <time>2017-01-03T07:29:41Z</time>
      </trkpt>
      <trkpt lat="45.05051" lon="6.7274">
        <ele>1636.53</ele>
        <time>2017-01-03T07:29:42Z</time>
      </trkpt>
      <trkpt lat="45.05038" lon="6.72726">
        <ele>1641.15</ele>
        <time>2017-01-03T07:29:43Z</time>
      </trkpt>
      <trkpt lat="45.05028" lon="6.7272">
        <ele>1642.82</ele>
        <time>2017-01-03T07:29:44Z</time>
      </trkpt>
      <trkpt lat="45.05017" lon="6.7272">
        <ele>1642.41</ele>
        <time>2017-01-03T07:29:45Z</time>
      </trkpt>
      <trkpt lat="45.05" lon="6.72716">
        <ele>1643.24</ele>
        <time>2017-01-03T07:29:46Z</time>
      </trkpt>
      <trkpt lat="45.04984" lon="6.72706">
        <ele>1646.17</ele>
        <time>2017-01-03T07:29:46Z</time>
      </trkpt>
      <trkpt lat="45.04967" lon="6.72698">
        <ele>1647.2</ele>
        <time>2017-01-03T07:29:47Z</time>
      </trkpt>
      <trkpt lat="45.04954" lon="6.72688">
        <ele>1648.15</ele>
        <time>2017-01-03T07:29:48Z</time>
      </trkpt>
      <trkpt lat="45.04942" lon="6.7268">
        <ele>1648.94</ele>
        <time>2017-01-03T07:29:49Z</time>
      </trkpt>
      <trkpt lat="45.04913" lon="6.7268">
        <ele>1645.95</ele>
        <time>2017-01-03T07:29:51Z</time>
      </trkpt>
      <trkpt lat="45.04901" lon="6.72674">
        <ele>1645.39</ele>
        <time>2017-01-03T07:29:51Z</time>
      </trkpt>
      <trkpt lat="45.04891" lon="6.7267">
        <ele>1644.49</ele>
        <time>2017-01-03T07:29:52Z</time>
      </trkpt>
      <trkpt lat="45.04886" lon="6.7265">
        <ele>1645.39</ele>
        <time>2017-01-03T07:29:53Z</time>
      </trkpt>
      <trkpt lat="45.04913" lon="6.72659">
        <ele>1652.23</ele>
        <time>2017-01-03T07:29:54Z</time>
      </trkpt>
      <trkpt lat="45.04927" lon="6.7266">
        <ele>1653.75</ele>
        <time>2017-01-03T07:29:55Z</time>
      </trkpt>
      <trkpt lat="45.04945" lon="6.72646">
        <ele>1659.77</ele>
        <time>2017-01-03T07:29:56Z</time>
      </trkpt>
      <trkpt lat="45.04958" lon="6.72642">
        <ele>1662.89</ele>
        <time>2017-01-03T07:29:57Z</time>
      </trkpt>
      <trkpt lat="45.04982" lon="6.72637">
        <ele>1668.16</ele>
        <time>2017-01-03T07:29:58Z</time>
      </trkpt>
      <trkpt lat="45.04995" lon="6.72632">
        <ele>1672.01</ele>
        <time>2017-01-03T07:29:59Z</time>
      </trkpt>
      <trkpt lat="45.05005" lon="6.72625">
        <ele>1676.22</ele>
        <time>2017-01-03T07:30:00Z</time>
      </trkpt>
      <trkpt lat="45.05041" lon="6.7263">
        <ele>1678.8</ele>
        <time>2017-01-03T07:30:02Z</time>
      </trkpt>
      <trkpt lat="45.05066" lon="6.72622">
        <ele>1684.5</ele>
        <time>2017-01-03T07:30:03Z</time>
      </trkpt>
      <trkpt lat="45.05089" lon="6.72617">
        <ele>1690.13</ele>
        <time>2017-01-03T07:30:04Z</time>
      </trkpt>
      <trkpt lat="45.05104" lon="6.72622">
        <ele>1692.85</ele>
        <time>2017-01-03T07:30:05Z</time>
      </trkpt>
      <trkpt lat="45.05136" lon="6.72634">
        <ele>1696.3</ele>
        <time>2017-01-03T07:30:07Z</time>
      </trkpt>
      <trkpt lat="45.05172" lon="6.72645">
        <ele>1697.01</ele>
        <time>2017-01-03T07:30:09Z</time>
      </trkpt>
      <trkpt lat="45.05182" lon="6.72646">
        <ele>1697.43</ele>
        <time>2017-01-03T07:30:10Z</time>
      </trkpt>
      <trkpt lat="45.05199" lon="6.72639">
        <ele>1701.29</ele>
        <time>2017-01-03T07:30:11Z</time>
      </trkpt>
      <trkpt lat="45.05211" lon="6.72648">
        <ele>1699.69</ele>
        <time>2017-01-03T07:30:11Z</time>
      </trkpt>
      <trkpt lat="45.05222" lon="6.72656">
        <ele>1699.27</ele>
        <time>2017-01-03T07:30:12Z</time>
      </trkpt>
      <trkpt lat="45.05227" lon="6.72637">
        <ele>1703.74</ele>
        <time>2017-01-03T07:30:13Z</time>
      </trkpt>
      <trkpt lat="45.05208" lon="6.72625">
        <ele>1705.74</ele>
        <time>2017-01-03T07:30:14Z</time>
      </trkpt>
      <trkpt lat="45.05188" lon="6.72608">
        <ele>1711.04</ele>
        <time>2017-01-03T07:30:16Z</time>
      </trkpt>
      <trkpt lat="45.05147" lon="6.72571">
        <ele>1720.98</ele>
        <time>2017-01-03T07:30:18Z</time>
      </trkpt>
      <trkpt lat="45.05133" lon="6.7257">
        <ele>1720.64</ele>
        <time>2017-01-03T07:30:19Z</time>
      </trkpt>
      <trkpt lat="45.05116" lon="6.72574">
        <ele>1717.22</ele>
        <time>2017-01-03T07:30:20Z</time>
      </trkpt>
      <trkpt lat="45.05097" lon="6.7257">
        <ele>1712.96</ele>
        <time>2017-01-03T07:30:21Z</time>
      </trkpt>
      <trkpt lat="45.05087" lon="6.72563">
        <ele>1711.74</ele>
        <time>2017-01-03T07:30:22Z</time>
      </trkpt>
      <trkpt lat="45.05066" lon="6.72521">
        <ele>1729.14</ele>
        <time>2017-01-03T07:30:24Z</time>
      </trkpt>
      <trkpt lat="45.05048" lon="6.72509">
        <ele>1731.52</ele>
        <time>2017-01-03T07:30:25Z</time>
      </trkpt>
      <trkpt lat="45.05016" lon="6.72506">
        <ele>1727.8</ele>
        <time>2017-01-03T07:30:27Z</time>
      </trkpt>
      <trkpt lat="45.05005" lon="6.725">
        <ele>1728.72</ele>
        <time>2017-01-03T07:30:27Z</time>
      </trkpt>
      <trkpt lat="45.04995" lon="6.72491">
        <ele>1730.04</ele>
        <time>2017-01-03T07:30:28Z</time>
      </trkpt>
      <trkpt lat="45.04985" lon="6.72466">
        <ele>1735.15</ele>
        <time>2017-01-03T07:30:29Z</time>
      </trkpt>
      <trkpt lat="45.04971" lon="6.72416">
        <ele>1739.61</ele>
        <time>2017-01-03T07:30:31Z</time>
      </trkpt>
      <trkpt lat="45.0496" lon="6.72363">
        <ele>1742.8</ele>
        <time>2017-01-03T07:30:33Z</time>
      </trkpt>
      <trkpt lat="45.0496" lon="6.7234">
        <ele>1743.84</ele>
        <time>2017-01-03T07:30:34Z</time>
      </trkpt>
      <trkpt lat="45.04956" lon="6.72313">
        <ele>1743.26</ele>
        <time>2017-01-03T07:30:35Z</time>
      </trkpt>
      <trkpt lat="45.04952" lon="6.72246">
        <ele>1750.66</ele>
        <time>2017-01-03T07:30:38Z</time>
      </trkpt>
      <trkpt lat="45.04953" lon="6.72216">
        <ele>1755.07</ele>
        <time>2017-01-03T07:30:39Z</time>
      </trkpt>
      <trkpt lat="45.04955" lon="6.72198">
        <ele>1757.44</ele>
        <time>2017-01-03T07:30:40Z</time>
      </trkpt>
      <trkpt lat="45.04962" lon="6.72179">
        <ele>1762.09</ele>
        <time>2017-01-03T07:30:41Z</time>
      </trkpt>
      <trkpt lat="45.04977" lon="6.7214">
        <ele>1768.56</ele>
        <time>2017-01-03T07:30:42Z</time>
      </trkpt>
      <trkpt lat="45.04984" lon="6.72107">
        <ele>1770.32</ele>
        <time>2017-01-03T07:30:44Z</time>
      </trkpt>
      <trkpt lat="45.0499" lon="6.72019">
        <ele>1777.07</ele>
        <time>2017-01-03T07:30:47Z</time>
      </trkpt>
      <trkpt lat="45.05002" lon="6.71933">
        <ele>1792.97</ele>
        <time>2017-01-03T07:30:50Z</time>
      </trkpt>
      <trkpt lat="45.05002" lon="6.71894">
        <ele>1799.55</ele>
        <time>2017-01-03T07:30:52Z</time>
      </trkpt>
      <trkpt lat="45.04994" lon="6.71873">
        <ele>1802.3</ele>
        <time>2017-01-03T07:30:53Z</time>
      </trkpt>
      <trkpt lat="45.04981" lon="6.71864">
        <ele>1802.5</ele>
        <time>2017-01-03T07:30:54Z</time>
      </trkpt>
      <trkpt lat="45.04969" lon="6.71864">
        <ele>1801.02</ele>
        <time>2017-01-03T07:30:54Z</time>
      </trkpt>
      <trkpt lat="45.04938" lon="6.71874">
        <ele>1794.09</ele>
        <time>2017-01-03T07:30:56Z</time>
      </trkpt>
      <trkpt lat="45.04928" lon="6.71871">
        <ele>1792</ele>
        <time>2017-01-03T07:30:57Z</time>
      </trkpt>
      <trkpt lat="45.04925" lon="6.71851">
        <ele>1792.72</ele>
        <time>2017-01-03T07:30:57Z</time>
      </trkpt>
      <trkpt lat="45.04936" lon="6.71817">
        <ele>1797.76</ele>
        <time>2017-01-03T07:30:59Z</time>
      </trkpt>
      <trkpt lat="45.04947" lon="6.71801">
        <ele>1802.18</ele>
        <time>2017-01-03T07:31:00Z</time>
      </trkpt>
      <trkpt lat="45.04959" lon="6.71793">
        <ele>1805.48</ele>
        <time>2017-01-03T07:31:00Z</time>
      </trkpt>
      <trkpt lat="45.0497" lon="6.71792">
        <ele>1807.57</ele>
        <time>2017-01-03T07:31:01Z</time>
      </trkpt>
      <trkpt lat="45.04997" lon="6.71796">
        <ele>1812.76</ele>
        <time>2017-01-03T07:31:03Z</time>
      </trkpt>
      <trkpt lat="45.05026" lon="6.71799">
        <ele>1816.91</ele>
        <time>2017-01-03T07:31:04Z</time>
      </trkpt>
      <trkpt lat="45.05049" lon="6.71812">
        <ele>1818.36</ele>
        <time>2017-01-03T07:31:06Z</time>
      </trkpt>
      <trkpt lat="45.05072" lon="6.71839">
        <ele>1820.39</ele>
        <time>2017-01-03T07:31:07Z</time>
      </trkpt>
      <trkpt lat="45.05082" lon="6.71859">
        <ele>1822.62</ele>
        <time>2017-01-03T07:31:08Z</time>
      </trkpt>
      <trkpt lat="45.05086" lon="6.71887">
        <ele>1824.05</ele>
        <time>2017-01-03T07:31:09Z</time>
      </trkpt>
      <trkpt lat="45.05083" lon="6.71934">
        <ele>1824.46</ele>
        <time>2017-01-03T07:31:11Z</time>
      </trkpt>
      <trkpt lat="45.05084" lon="6.71982">
        <ele>1825.23</ele>
        <time>2017-01-03T07:31:13Z</time>
      </trkpt>
      <trkpt lat="45.05087" lon="6.71997">
        <ele>1825.98</ele>
        <time>2017-01-03T07:31:14Z</time>
      </trkpt>
      <trkpt lat="45.05114" lon="6.72025">
        <ele>1829.54</ele>
        <time>2017-01-03T07:31:15Z</time>
      </trkpt>
      <trkpt lat="45.05125" lon="6.72037">
        <ele>1832.01</ele>
        <time>2017-01-03T07:31:16Z</time>
      </trkpt>
      <trkpt lat="45.05132" lon="6.72053">
        <ele>1832.42</ele>
        <time>2017-01-03T07:31:17Z</time>
      </trkpt>
      <trkpt lat="45.05143" lon="6.72044">
        <ele>1838.21</ele>
        <time>2017-01-03T07:31:18Z</time>
      </trkpt>
      <trkpt lat="45.05149" lon="6.72019">
        <ele>1844.15</ele>
        <time>2017-01-03T07:31:19Z</time>
      </trkpt>
      <trkpt lat="45.05151" lon="6.71994">
        <ele>1847.7</ele>
        <time>2017-01-03T07:31:20Z</time>
      </trkpt>
      <trkpt lat="45.05145" lon="6.71971">
        <ele>1846.99</ele>
        <time>2017-01-03T07:31:21Z</time>
      </trkpt>
      <trkpt lat="45.05147" lon="6.71948">
        <ele>1847.88</ele>
        <time>2017-01-03T07:31:21Z</time>
      </trkpt>
      <trkpt lat="45.05171" lon="6.71905">
        <ele>1855.3</ele>
        <time>2017-01-03T07:31:24Z</time>
      </trkpt>
      <trkpt lat="45.05185" lon="6.71883">
        <ele>1859.98</ele>
        <time>2017-01-03T07:31:25Z</time>
      </trkpt>
      <trkpt lat="45.05192" lon="6.71866">
        <ele>1861.53</ele>
        <time>2017-01-03T07:31:25Z</time>
      </trkpt>
      <trkpt lat="45.05198" lon="6.71844">
        <ele>1862</ele>
        <time>2017-01-03T07:31:26Z</time>
      </trkpt>
      <trkpt lat="45.05198" lon="6.71812">
        <ele>1860.41</ele>
        <time>2017-01-03T07:31:28Z</time>
      </trkpt>
      <trkpt lat="45.05207" lon="6.71791">
        <ele>1863.54</ele>
        <time>2017-01-03T07:31:29Z</time>
      </trkpt>
      <trkpt lat="45.05215" lon="6.71776">
        <ele>1867.36</ele>
        <time>2017-01-03T07:31:29Z</time>
      </trkpt>
      <trkpt lat="45.05208" lon="6.71738">
        <ele>1868.64</ele>
        <time>2017-01-03T07:31:31Z</time>
      </trkpt>
      <trkpt lat="45.05207" lon="6.71718">
        <ele>1870.11</ele>
        <time>2017-01-03T07:31:32Z</time>
      </trkpt>
      <trkpt lat="45.0522" lon="6.71619">
        <ele>1885.8</ele>
        <time>2017-01-03T07:31:36Z</time>
      </trkpt>
      <trkpt lat="45.05224" lon="6.71566">
        <ele>1895.02</ele>
        <time>2017-01-03T07:31:38Z</time>
      </trkpt>
      <trkpt lat="45.05214" lon="6.71541">
        <ele>1895.44</ele>
        <time>2017-01-03T07:31:39Z</time>
      </trkpt>
      <trkpt lat="45.05196" lon="6.71519">
        <ele>1896.79</ele>
        <time>2017-01-03T07:31:40Z</time>
      </trkpt>
      <trkpt lat="45.05189" lon="6.71501">
        <ele>1900.94</ele>
        <time>2017-01-03T07:31:41Z</time>
      </trkpt>
      <trkpt lat="45.05184" lon="6.71481">
        <ele>1907.17</ele>
        <time>2017-01-03T07:31:42Z</time>
      </trkpt>
      <trkpt lat="45.05184" lon="6.71455">
        <ele>1916.68</ele>
        <time>2017-01-03T07:31:43Z</time>
      </trkpt>
      <trkpt lat="45.0519" lon="6.71438">
        <ele>1922.96</ele>
        <time>2017-01-03T07:31:43Z</time>
      </trkpt>
      <trkpt lat="45.05201" lon="6.71431">
        <ele>1926.31</ele>
        <time>2017-01-03T07:31:44Z</time>
      </trkpt>
      <trkpt lat="45.05218" lon="6.71438">
        <ele>1926.93</ele>
        <time>2017-01-03T07:31:45Z</time>
      </trkpt>
      <trkpt lat="45.05235" lon="6.71463">
        <ele>1924.7</ele>
        <time>2017-01-03T07:31:46Z</time>
      </trkpt>
      <trkpt lat="45.05258" lon="6.7149">
        <ele>1924.11</ele>
        <time>2017-01-03T07:31:48Z</time>
      </trkpt>
      <trkpt lat="45.05289" lon="6.71489">
        <ele>1933.68</ele>
        <time>2017-01-03T07:31:50Z</time>
      </trkpt>
      <trkpt lat="45.053" lon="6.71496">
        <ele>1935.18</ele>
        <time>2017-01-03T07:31:50Z</time>
      </trkpt>
      <trkpt lat="45.05305" lon="6.71517">
        <ele>1933.34</ele>
        <time>2017-01-03T07:31:51Z</time>
      </trkpt>
      <trkpt lat="45.05309" lon="6.71564">
        <ele>1927.93</ele>
        <time>2017-01-03T07:31:53Z</time>
      </trkpt>
      <trkpt lat="45.05313" lon="6.71609">
        <ele>1923.61</ele>
        <time>2017-01-03T07:31:55Z</time>
      </trkpt>
      <trkpt lat="45.05317" lon="6.71623">
        <ele>1923.68</ele>
        <time>2017-01-03T07:31:55Z</time>
      </trkpt>
      <trkpt lat="45.0533" lon="6.71632">
        <ele>1926.75</ele>
        <time>2017-01-03T07:31:56Z</time>
      </trkpt>
      <trkpt lat="45.05325" lon="6.71606">
        <ele>1927.93</ele>
        <time>2017-01-03T07:31:58Z</time>
      </trkpt>
      <trkpt lat="45.05323" lon="6.71591">
        <ele>1929.01</ele>
        <time>2017-01-03T07:31:58Z</time>
      </trkpt>
      <trkpt lat="45.05326" lon="6.71563">
        <ele>1935.3</ele>
        <time>2017-01-03T07:31:59Z</time>
      </trkpt>
      <trkpt lat="45.05328" lon="6.71539">
        <ele>1939.6</ele>
        <time>2017-01-03T07:32:00Z</time>
      </trkpt>
      <trkpt lat="45.05325" lon="6.71484">
        <ele>1946.58</ele>
        <time>2017-01-03T07:32:02Z</time>
      </trkpt>
      <trkpt lat="45.05288" lon="6.71455">
        <ele>1941.61</ele>
        <time>2017-01-03T07:32:05Z</time>
      </trkpt>
      <trkpt lat="45.0528" lon="6.71439">
        <ele>1943.66</ele>
        <time>2017-01-03T07:32:06Z</time>
      </trkpt>
      <trkpt lat="45.05243" lon="6.71336">
        <ele>1963.9</ele>
        <time>2017-01-03T07:32:10Z</time>
      </trkpt>
      <trkpt lat="45.05219" lon="6.71327">
        <ele>1962.7</ele>
        <time>2017-01-03T07:32:11Z</time>
      </trkpt>
      <trkpt lat="45.05198" lon="6.71326">
        <ele>1962.29</ele>
        <time>2017-01-03T07:32:13Z</time>
      </trkpt>
      <trkpt lat="45.05165" lon="6.71341">
        <ele>1959.2</ele>
        <time>2017-01-03T07:32:14Z</time>
      </trkpt>
      <trkpt lat="45.05154" lon="6.71343">
        <ele>1956.97</ele>
        <time>2017-01-03T07:32:15Z</time>
      </trkpt>
      <trkpt lat="45.05135" lon="6.71292">
        <ele>1971.06</ele>
        <time>2017-01-03T07:32:17Z</time>
      </trkpt>
      <trkpt lat="45.0513" lon="6.71217">
        <ele>1984.6</ele>
        <time>2017-01-03T07:32:20Z</time>
      </trkpt>
      <trkpt lat="45.05111" lon="6.71096">
        <ele>1997.67</ele>
        <time>2017-01-03T07:32:25Z</time>
      </trkpt>
      <trkpt lat="45.05091" lon="6.7103">
        <ele>1998.35</ele>
        <time>2017-01-03T07:32:28Z</time>
      </trkpt>
      <trkpt lat="45.05083" lon="6.70997">
        <ele>1999.34</ele>
        <time>2017-01-03T07:32:29Z</time>
      </trkpt>
      <trkpt lat="45.05082" lon="6.70975">
        <ele>2002.26</ele>
        <time>2017-01-03T07:32:30Z</time>
      </trkpt>
      <trkpt lat="45.05086" lon="6.70938">
        <ele>2006.72</ele>
        <time>2017-01-03T07:32:32Z</time>
      </trkpt>
      <trkpt lat="45.05085" lon="6.70922">
        <ele>2008.17</ele>
        <time>2017-01-03T07:32:32Z</time>
      </trkpt>
      <trkpt lat="45.0506" lon="6.70878">
        <ele>2011.64</ele>
        <time>2017-01-03T07:32:34Z</time>
      </trkpt>
      <trkpt lat="45.05073" lon="6.70843">
        <ele>2020.01</ele>
        <time>2017-01-03T07:32:36Z</time>
      </trkpt>
      <trkpt lat="45.05086" lon="6.70833">
        <ele>2021.55</ele>
        <time>2017-01-03T07:32:37Z</time>
      </trkpt>
      <trkpt lat="45.05097" lon="6.70865">
        <ele>2023.44</ele>
        <time>2017-01-03T07:32:38Z</time>
      </trkpt>
      <trkpt lat="45.0511" lon="6.70904">
        <ele>2023.22</ele>
        <time>2017-01-03T07:32:40Z</time>
      </trkpt>
      <trkpt lat="45.05129" lon="6.7094">
        <ele>2024.43</ele>
        <time>2017-01-03T07:32:42Z</time>
      </trkpt>
      <trkpt lat="45.05173" lon="6.71003">
        <ele>2027.01</ele>
        <time>2017-01-03T07:32:45Z</time>
      </trkpt>
      <trkpt lat="45.05176" lon="6.71028">
        <ele>2026.34</ele>
        <time>2017-01-03T07:32:46Z</time>
      </trkpt>
      <trkpt lat="45.05173" lon="6.71044">
        <ele>2025.46</ele>
        <time>2017-01-03T07:32:47Z</time>
      </trkpt>
      <trkpt lat="45.05177" lon="6.71057">
        <ele>2025.78</ele>
        <time>2017-01-03T07:32:48Z</time>
      </trkpt>
      <trkpt lat="45.05192" lon="6.71077">
        <ele>2027.72</ele>
        <time>2017-01-03T07:32:49Z</time>
      </trkpt>
      <trkpt lat="45.05192" lon="6.71094">
        <ele>2026.25</ele>
        <time>2017-01-03T07:32:49Z</time>
      </trkpt>
      <trkpt lat="45.05192" lon="6.71135">
        <ele>2019.06</ele>
        <time>2017-01-03T07:32:51Z</time>
      </trkpt>
      <trkpt lat="45.05198" lon="6.71168">
        <ele>2013.12</ele>
        <time>2017-01-03T07:32:52Z</time>
      </trkpt>
      <trkpt lat="45.05204" lon="6.71182">
        <ele>2010.51</ele>
        <time>2017-01-03T07:32:53Z</time>
      </trkpt>
      <trkpt lat="45.05222" lon="6.71177">
        <ele>2012.64</ele>
        <time>2017-01-03T07:32:54Z</time>
      </trkpt>
      <trkpt lat="45.05275" lon="6.71125">
        <ele>2017.15</ele>
        <time>2017-01-03T07:32:58Z</time>
      </trkpt>
      <trkpt lat="45.05292" lon="6.71122">
        <ele>2014.37</ele>
        <time>2017-01-03T07:32:59Z</time>
      </trkpt>
      <trkpt lat="45.05305" lon="6.71149">
        <ele>2009.67</ele>
        <time>2017-01-03T07:33:00Z</time>
      </trkpt>
      <trkpt lat="45.05306" lon="6.71198">
        <ele>2006.57</ele>
        <time>2017-01-03T07:33:02Z</time>
      </trkpt>
      <trkpt lat="45.05309" lon="6.71297">
        <ele>1991.2</ele>
        <time>2017-01-03T07:33:06Z</time>
      </trkpt>
      <trkpt lat="45.05316" lon="6.71337">
        <ele>1983.25</ele>
        <time>2017-01-03T07:33:07Z</time>
      </trkpt>
      <trkpt lat="45.05331" lon="6.71348">
        <ele>1984.72</ele>
        <time>2017-01-03T07:33:08Z</time>
      </trkpt>
      <trkpt lat="45.05353" lon="6.71344">
        <ele>1986.58</ele>
        <time>2017-01-03T07:33:09Z</time>
      </trkpt>
      <trkpt lat="45.05404" lon="6.71321">
        <ele>1987.54</ele>
        <time>2017-01-03T07:33:12Z</time>
      </trkpt>
      <trkpt lat="45.05421" lon="6.71315">
        <ele>1986.63</ele>
        <time>2017-01-03T07:33:13Z</time>
      </trkpt>
      <trkpt lat="45.05439" lon="6.71317">
        <ele>1983.58</ele>
        <time>2017-01-03T07:33:14Z</time>
      </trkpt>
      <trkpt lat="45.05457" lon="6.71319">
        <ele>1979.38</ele>
        <time>2017-01-03T07:33:15Z</time>
      </trkpt>
      <trkpt lat="45.05485" lon="6.71284">
        <ele>1973.39</ele>
        <time>2017-01-03T07:33:17Z</time>
      </trkpt>
      <trkpt lat="45.05506" lon="6.71225">
        <ele>1959.33</ele>
        <time>2017-01-03T07:33:20Z</time>
      </trkpt>
      <trkpt lat="45.05514" lon="6.71209">
        <ele>1953.04</ele>
        <time>2017-01-03T07:33:21Z</time>
      </trkpt>
      <trkpt lat="45.05508" lon="6.71164">
        <ele>1947.64</ele>
        <time>2017-01-03T07:33:23Z</time>
      </trkpt>
      <trkpt lat="45.05494" lon="6.71108">
        <ele>1942.1</ele>
        <time>2017-01-03T07:33:25Z</time>
      </trkpt>
      <trkpt lat="45.05476" lon="6.71079">
        <ele>1942.88</ele>
        <time>2017-01-03T07:33:26Z</time>
      </trkpt>
      <trkpt lat="45.05521" lon="6.71107">
        <ele>1933.42</ele>
        <time>2017-01-03T07:33:29Z</time>
      </trkpt>
      <trkpt lat="45.05559" lon="6.71149">
        <ele>1923.27</ele>
        <time>2017-01-03T07:33:32Z</time>
      </trkpt>
      <trkpt lat="45.0557" lon="6.71295">
        <ele>1918.98</ele>
        <time>2017-01-03T07:33:37Z</time>
      </trkpt>
      <trkpt lat="45.05599" lon="6.71225">
        <ele>1911.26</ele>
        <time>2017-01-03T07:33:41Z</time>
      </trkpt>
      <trkpt lat="45.05608" lon="6.71231">
        <ele>1907.8</ele>
        <time>2017-01-03T07:33:41Z</time>
      </trkpt>
      <trkpt lat="45.0561" lon="6.71276">
        <ele>1904.49</ele>
        <time>2017-01-03T07:33:43Z</time>
      </trkpt>
      <trkpt lat="45.056" lon="6.71327">
        <ele>1902.93</ele>
        <time>2017-01-03T07:33:45Z</time>
      </trkpt>
      <trkpt lat="45.05608" lon="6.71349">
        <ele>1896.64</ele>
        <time>2017-01-03T07:33:46Z</time>
      </trkpt>
      <trkpt lat="45.05637" lon="6.71274">
        <ele>1894.95</ele>
        <time>2017-01-03T07:33:49Z</time>
      </trkpt>
      <trkpt lat="45.05648" lon="6.71173">
        <ele>1895.82</ele>
        <time>2017-01-03T07:33:53Z</time>
      </trkpt>
      <trkpt lat="45.05679" lon="6.71126">
        <ele>1886.72</ele>
        <time>2017-01-03T07:33:56Z</time>
      </trkpt>
      <trkpt lat="45.05676" lon="6.71002">
        <ele>1870.78</ele>
        <time>2017-01-03T07:34:00Z</time>
      </trkpt>
      <trkpt lat="45.05686" lon="6.71">
        <ele>1865.95</ele>
        <time>2017-01-03T07:34:01Z</time>
      </trkpt>
      <trkpt lat="45.05699" lon="6.71016">
        <ele>1863.48</ele>
        <time>2017-01-03T07:34:02Z</time>
      </trkpt>
      <trkpt lat="45.05712" lon="6.7104">
        <ele>1865.04</ele>
        <time>2017-01-03T07:34:03Z</time>
      </trkpt>
      <trkpt lat="45.05775" lon="6.71046">
        <ele>1857.34</ele>
        <time>2017-01-03T07:34:07Z</time>
      </trkpt>
      <trkpt lat="45.05823" lon="6.7108">
        <ele>1847.09</ele>
        <time>2017-01-03T07:34:10Z</time>
      </trkpt>
      <trkpt lat="45.05858" lon="6.71117">
        <ele>1843.12</ele>
        <time>2017-01-03T07:34:12Z</time>
      </trkpt>
      <trkpt lat="45.05837" lon="6.71068">
        <ele>1839.18</ele>
        <time>2017-01-03T07:34:14Z</time>
      </trkpt>
      <trkpt lat="45.05811" lon="6.7099">
        <ele>1833.84</ele>
        <time>2017-01-03T07:34:18Z</time>
      </trkpt>
      <trkpt lat="45.0586" lon="6.71042">
        <ele>1824.98</ele>
        <time>2017-01-03T07:34:21Z</time>
      </trkpt>
      <trkpt lat="45.05967" lon="6.71135">
        <ele>1805.69</ele>
        <time>2017-01-03T07:34:28Z</time>
      </trkpt>
      <trkpt lat="45.05974" lon="6.71096">
        <ele>1800.54</ele>
        <time>2017-01-03T07:34:30Z</time>
      </trkpt>
      <trkpt lat="45.05931" lon="6.71014">
        <ele>1796.72</ele>
        <time>2017-01-03T07:34:34Z</time>
      </trkpt>
      <trkpt lat="45.05928" lon="6.7095">
        <ele>1783.24</ele>
        <time>2017-01-03T07:34:36Z</time>
      </trkpt>
      <trkpt lat="45.05909" lon="6.70933">
        <ele>1783.6</ele>
        <time>2017-01-03T07:34:37Z</time>
      </trkpt>
      <trkpt lat="45.05919" lon="6.70921">
        <ele>1779.22</ele>
        <time>2017-01-03T07:34:38Z</time>
      </trkpt>
      <trkpt lat="45.05996" lon="6.70963">
        <ele>1767.4</ele>
        <time>2017-01-03T07:34:43Z</time>
      </trkpt>
      <trkpt lat="45.06016" lon="6.71009">
        <ele>1764.84</ele>
        <time>2017-01-03T07:34:45Z</time>
      </trkpt>
      <trkpt lat="45.06078" lon="6.71052">
        <ele>1749.42</ele>
        <time>2017-01-03T07:34:49Z</time>
      </trkpt>
      <trkpt lat="45.06121" lon="6.71133">
        <ele>1737.8</ele>
        <time>2017-01-03T07:34:52Z</time>
      </trkpt>
      <trkpt lat="45.06139" lon="6.71205">
        <ele>1722.53</ele>
        <time>2017-01-03T07:34:55Z</time>
      </trkpt>
      <trkpt lat="45.06151" lon="6.71083">
        <ele>1724.73</ele>
        <time>2017-01-03T07:35:00Z</time>
      </trkpt>
      <trkpt lat="45.06162" lon="6.71056">
        <ele>1716.24</ele>
        <time>2017-01-03T07:35:01Z</time>
      </trkpt>
      <trkpt lat="45.06159" lon="6.71027">
        <ele>1714.23</ele>
        <time>2017-01-03T07:35:03Z</time>
      </trkpt>
      <trkpt lat="45.0621" lon="6.71057">
        <ele>1702.27</ele>
        <time>2017-01-03T07:35:06Z</time>
      </trkpt>
      <trkpt lat="45.06247" lon="6.71137">
        <ele>1697.73</ele>
        <time>2017-01-03T07:35:09Z</time>
      </trkpt>
      <trkpt lat="45.06267" lon="6.71068">
        <ele>1686.89</ele>
        <time>2017-01-03T07:35:12Z</time>
      </trkpt>
      <trkpt lat="45.06263" lon="6.71023">
        <ele>1682.71</ele>
        <time>2017-01-03T07:35:14Z</time>
      </trkpt>
      <trkpt lat="45.06301" lon="6.71058">
        <ele>1672.77</ele>
        <time>2017-01-03T07:35:17Z</time>
      </trkpt>
      <trkpt lat="45.06322" lon="6.71136">
        <ele>1668.53</ele>
        <time>2017-01-03T07:35:20Z</time>
      </trkpt>
      <trkpt lat="45.0634" lon="6.71136">
        <ele>1663.84</ele>
        <time>2017-01-03T07:35:21Z</time>
      </trkpt>
      <trkpt lat="45.06344" lon="6.71046">
        <ele>1656.53</ele>
        <time>2017-01-03T07:35:25Z</time>
      </trkpt>
      <trkpt lat="45.06334" lon="6.70978">
        <ele>1651.6</ele>
        <time>2017-01-03T07:35:27Z</time>
      </trkpt>
      <trkpt lat="45.06373" lon="6.71008">
        <ele>1641.38</ele>
        <time>2017-01-03T07:35:30Z</time>
      </trkpt>
      <trkpt lat="45.06396" lon="6.71056">
        <ele>1638.2</ele>
        <time>2017-01-03T07:35:32Z</time>
      </trkpt>
      <trkpt lat="45.0642" lon="6.71074">
        <ele>1629.22</ele>
        <time>2017-01-03T07:35:33Z</time>
      </trkpt>
      <trkpt lat="45.06436" lon="6.71134">
        <ele>1623.49</ele>
        <time>2017-01-03T07:35:36Z</time>
      </trkpt>
      <trkpt lat="45.06468" lon="6.71188">
        <ele>1617.03</ele>
        <time>2017-01-03T07:35:39Z</time>
      </trkpt>
      <trkpt lat="45.06467" lon="6.71132">
        <ele>1614.62</ele>
        <time>2017-01-03T07:35:41Z</time>
      </trkpt>
      <trkpt lat="45.06488" lon="6.70999">
        <ele>1594.8</ele>
        <time>2017-01-03T07:35:46Z</time>
      </trkpt>
      <trkpt lat="45.06453" lon="6.70911">
        <ele>1594.55</ele>
        <time>2017-01-03T07:35:50Z</time>
      </trkpt>
      <trkpt lat="45.06454" lon="6.70848">
        <ele>1590.72</ele>
        <time>2017-01-03T07:35:52Z</time>
      </trkpt>
      <trkpt lat="45.06474" lon="6.70808">
        <ele>1586.37</ele>
        <time>2017-01-03T07:35:54Z</time>
      </trkpt>
      <trkpt lat="45.06512" lon="6.70772">
        <ele>1580.54</ele>
        <time>2017-01-03T07:35:57Z</time>
      </trkpt>
      <trkpt lat="45.06523" lon="6.70738">
        <ele>1578.87</ele>
        <time>2017-01-03T07:35:58Z</time>
      </trkpt>
      <trkpt lat="45.06566" lon="6.70687">
        <ele>1564.48</ele>
        <time>2017-01-03T07:36:01Z</time>
      </trkpt>
      <trkpt lat="45.06596" lon="6.70654">
        <ele>1551.82</ele>
        <time>2017-01-03T07:36:03Z</time>
      </trkpt>
      <trkpt lat="45.06593" lon="6.70623">
        <ele>1554.15</ele>
        <time>2017-01-03T07:36:05Z</time>
      </trkpt>
      <trkpt lat="45.06606" lon="6.70629">
        <ele>1548.09</ele>
        <time>2017-01-03T07:36:06Z</time>
      </trkpt>
      <trkpt lat="45.06612" lon="6.70657">
        <ele>1543.18</ele>
        <time>2017-01-03T07:36:07Z</time>
      </trkpt>
      <trkpt lat="45.06602" lon="6.70692">
        <ele>1546.1</ele>
        <time>2017-01-03T07:36:08Z</time>
      </trkpt>
      <trkpt lat="45.06601" lon="6.70741">
        <ele>1542.47</ele>
        <time>2017-01-03T07:36:10Z</time>
      </trkpt>
      <trkpt lat="45.06607" lon="6.70812">
        <ele>1535.82</ele>
        <time>2017-01-03T07:36:13Z</time>
      </trkpt>
      <trkpt lat="45.06627" lon="6.70796">
        <ele>1528.08</ele>
        <time>2017-01-03T07:36:14Z</time>
      </trkpt>
      <trkpt lat="45.06639" lon="6.70831">
        <ele>1523.95</ele>
        <time>2017-01-03T07:36:16Z</time>
      </trkpt>
      <trkpt lat="45.06654" lon="6.70815">
        <ele>1517.11</ele>
        <time>2017-01-03T07:36:17Z</time>
      </trkpt>
      <trkpt lat="45.06642" lon="6.70758">
        <ele>1521.27</ele>
        <time>2017-01-03T07:36:19Z</time>
      </trkpt>
      <trkpt lat="45.06667" lon="6.70798">
        <ele>1510.27</ele>
        <time>2017-01-03T07:36:21Z</time>
      </trkpt>
      <trkpt lat="45.06681" lon="6.70871">
        <ele>1506.29</ele>
        <time>2017-01-03T07:36:24Z</time>
      </trkpt>
      <trkpt lat="45.06689" lon="6.70829">
        <ele>1501.14</ele>
        <time>2017-01-03T07:36:26Z</time>
      </trkpt>
      <trkpt lat="45.06685" lon="6.708">
        <ele>1500.44</ele>
        <time>2017-01-03T07:36:27Z</time>
      </trkpt>
      <trkpt lat="45.06714" lon="6.70704">
        <ele>1483.69</ele>
        <time>2017-01-03T07:36:31Z</time>
      </trkpt>
      <trkpt lat="45.06719" lon="6.70647">
        <ele>1480.51</ele>
        <time>2017-01-03T07:36:33Z</time>
      </trkpt>
      <trkpt lat="45.06771" lon="6.70679">
        <ele>1454.8</ele>
        <time>2017-01-03T07:36:37Z</time>
      </trkpt>
      <trkpt lat="45.06787" lon="6.70709">
        <ele>1447.7</ele>
        <time>2017-01-03T07:36:38Z</time>
      </trkpt>
      <trkpt lat="45.06801" lon="6.70666">
        <ele>1441.86</ele>
        <time>2017-01-03T07:36:40Z</time>
      </trkpt>
      <trkpt lat="45.06829" lon="6.70649">
        <ele>1433.68</ele>
        <time>2017-01-03T07:36:42Z</time>
      </trkpt>
      <trkpt lat="45.06838" lon="6.70594">
        <ele>1433.77</ele>
        <time>2017-01-03T07:36:44Z</time>
      </trkpt>
      <trkpt lat="45.06864" lon="6.70543">
        <ele>1423.42</ele>
        <time>2017-01-03T07:36:46Z</time>
      </trkpt>
      <trkpt lat="45.06894" lon="6.7041">
        <ele>1413.3</ele>
        <time>2017-01-03T07:36:52Z</time>
      </trkpt>
      <trkpt lat="45.06884" lon="6.70394">
        <ele>1417.75</ele>
        <time>2017-01-03T07:36:53Z</time>
      </trkpt>
      <trkpt lat="45.0691" lon="6.70412">
        <ele>1407.06</ele>
        <time>2017-01-03T07:36:54Z</time>
      </trkpt>
      <trkpt lat="45.06926" lon="6.70441">
        <ele>1398.5</ele>
        <time>2017-01-03T07:36:56Z</time>
      </trkpt>
      <trkpt lat="45.06924" lon="6.70507">
        <ele>1400.5</ele>
        <time>2017-01-03T07:36:58Z</time>
      </trkpt>
      <trkpt lat="45.06947" lon="6.70593">
        <ele>1385.52</ele>
        <time>2017-01-03T07:37:02Z</time>
      </trkpt>
      <trkpt lat="45.06988" lon="6.70557">
        <ele>1374</ele>
        <time>2017-01-03T07:37:04Z</time>
      </trkpt>
      <trkpt lat="45.07015" lon="6.70581">
        <ele>1369.38</ele>
        <time>2017-01-03T07:37:06Z</time>
      </trkpt>
      <trkpt lat="45.07025" lon="6.70575">
        <ele>1368.3</ele>
        <time>2017-01-03T07:37:07Z</time>
      </trkpt>
      <trkpt lat="45.07035" lon="6.70532">
        <ele>1365</ele>
        <time>2017-01-03T07:37:08Z</time>
      </trkpt>
      <trkpt lat="45.0703" lon="6.70482">
        <ele>1364.42</ele>
        <time>2017-01-03T07:37:10Z</time>
      </trkpt>
      <trkpt lat="45.07041" lon="6.70412">
        <ele>1360.24</ele>
        <time>2017-01-03T07:37:13Z</time>
      </trkpt>
      <trkpt lat="45.07085" lon="6.70359">
        <ele>1341.03</ele>
        <time>2017-01-03T07:37:16Z</time>
      </trkpt>
      <trkpt lat="45.07099" lon="6.70316">
        <ele>1331.5</ele>
        <time>2017-01-03T07:37:18Z</time>
      </trkpt>
      <trkpt lat="45.07068" lon="6.7021">
        <ele>1338.76</ele>
        <time>2017-01-03T07:37:23Z</time>
      </trkpt>
      <trkpt lat="45.07087" lon="6.70107">
        <ele>1318.99</ele>
        <time>2017-01-03T07:37:27Z</time>
      </trkpt>
      <trkpt lat="45.07081" lon="6.70083">
        <ele>1315.28</ele>
        <time>2017-01-03T07:37:28Z</time>
      </trkpt>
      <trkpt lat="45.07069" lon="6.70043">
        <ele>1313.93</ele>
        <time>2017-01-03T07:37:30Z</time>
      </trkpt>
      <trkpt lat="45.07101" lon="6.69976">
        <ele>1288.15</ele>
        <time>2017-01-03T07:37:33Z</time>
      </trkpt>
      <trkpt lat="45.07112" lon="6.69891">
        <ele>1277.12</ele>
        <time>2017-01-03T07:37:36Z</time>
      </trkpt>
      <trkpt lat="45.07135" lon="6.69818">
        <ele>1267.39</ele>
        <time>2017-01-03T07:37:39Z</time>
      </trkpt>
      <trkpt lat="45.07132" lon="6.69771">
        <ele>1270.68</ele>
        <time>2017-01-03T07:37:41Z</time>
      </trkpt>
      <trkpt lat="45.07147" lon="6.69726">
        <ele>1273.92</ele>
        <time>2017-01-03T07:37:43Z</time>
      </trkpt>
      <trkpt lat="45.07153" lon="6.69658">
        <ele>1276</ele>
        <time>2017-01-03T07:37:46Z</time>
      </trkpt>
      <trkpt lat="45.0711" lon="6.69741">
        <ele>1275.35</ele>
        <time>2017-01-03T07:37:50Z</time>
      </trkpt>
      <trkpt lat="45.07128" lon="6.69676">
        <ele>1276</ele>
        <time>2017-01-03T07:37:52Z</time>
      </trkpt>
      <trkpt lat="45.0715" lon="6.69649">
        <ele>1276</ele>
        <time>2017-01-03T07:37:54Z</time>
      </trkpt>
      <trkpt lat="45.07171" lon="6.69618">
        <ele>1277.3</ele>
        <time>2017-01-03T07:37:56Z</time>
      </trkpt>
      <trkpt lat="45.07376" lon="6.70524">
        <ele>1265.73</ele>
        <time>2017-01-03T15:23:42Z</time>
      </trkpt>
      <trkpt lat="45.07392" lon="6.70536">
        <ele>1265.99</ele>
        <time>2017-01-03T17:38:35Z</time>
      </trkpt>
      <trkpt lat="45.07502" lon="6.70798">
        <ele>1264.93</ele>
        <time>2017-01-03T17:38:47Z</time>
      </trkpt>
      <trkpt lat="45.0755" lon="6.70872">
        <ele>1260.53</ele>
        <time>2017-01-03T17:38:51Z</time>
      </trkpt>
      <trkpt lat="45.07563" lon="6.70879">
        <ele>1260.62</ele>
        <time>2017-01-03T17:38:52Z</time>
      </trkpt>
      <trkpt lat="45.07559" lon="6.70898">
        <ele>1259.51</ele>
        <time>2017-01-03T17:38:52Z</time>
      </trkpt>
      <trkpt lat="45.07473" lon="6.71076">
        <ele>1257.29</ele>
        <time>2017-01-03T17:39:01Z</time>
      </trkpt>
      <trkpt lat="45.07494" lon="6.71209">
        <ele>1248.93</ele>
        <time>2017-01-03T17:39:06Z</time>
      </trkpt>
      <trkpt lat="45.07506" lon="6.71356">
        <ele>1246.49</ele>
        <time>2017-01-03T17:39:12Z</time>
      </trkpt>
      <trkpt lat="45.07519" lon="6.71384">
        <ele>1247.14</ele>
        <time>2017-01-03T17:39:13Z</time>
      </trkpt>
      <trkpt lat="45.07549" lon="6.71379">
        <ele>1247.14</ele>
        <time>2017-01-03T17:39:15Z</time>
      </trkpt>
      <trkpt lat="45.07679" lon="6.71294">
        <ele>1258.38</ele>
        <time>2017-01-03T17:39:23Z</time>
      </trkpt>
      <trkpt lat="45.07841" lon="6.71111">
        <ele>1261.82</ele>
        <time>2017-01-03T17:39:34Z</time>
      </trkpt>
      <trkpt lat="45.07916" lon="6.71101">
        <ele>1271.43</ele>
        <time>2017-01-03T17:39:38Z</time>
      </trkpt>
      <trkpt lat="45.07998" lon="6.71059">
        <ele>1274.13</ele>
        <time>2017-01-03T17:39:43Z</time>
      </trkpt>
      <trkpt lat="45.08065" lon="6.71038">
        <ele>1281.71</ele>
        <time>2017-01-03T17:39:47Z</time>
      </trkpt>
      <trkpt lat="45.08082" lon="6.71025">
        <ele>1280.36</ele>
        <time>2017-01-03T17:39:48Z</time>
      </trkpt>
      <trkpt lat="45.08114" lon="6.71019">
        <ele>1284.59</ele>
        <time>2017-01-03T17:39:50Z</time>
      </trkpt>
      <trkpt lat="45.08205" lon="6.71018">
        <ele>1286.74</ele>
        <time>2017-01-03T17:39:55Z</time>
      </trkpt>
      <trkpt lat="45.08284" lon="6.71036">
        <ele>1288.82</ele>
        <time>2017-01-03T17:39:59Z</time>
      </trkpt>
      <trkpt lat="45.08511" lon="6.71183">
        <ele>1297.27</ele>
        <time>2017-01-03T17:40:13Z</time>
      </trkpt>
      <trkpt lat="45.08557" lon="6.71241">
        <ele>1296.05</ele>
        <time>2017-01-03T17:40:16Z</time>
      </trkpt>
      <trkpt lat="45.08602" lon="6.71392">
        <ele>1307.31</ele>
        <time>2017-01-03T17:40:22Z</time>
      </trkpt>
      <trkpt lat="45.08632" lon="6.71459">
        <ele>1305.43</ele>
        <time>2017-01-03T17:40:25Z</time>
      </trkpt>
      <trkpt lat="45.0868" lon="6.71513">
        <ele>1306.87</ele>
        <time>2017-01-03T17:40:29Z</time>
      </trkpt>
      <trkpt lat="45.08725" lon="6.71547">
        <ele>1307.43</ele>
        <time>2017-01-03T17:40:32Z</time>
      </trkpt>
      <trkpt lat="45.08779" lon="6.71563">
        <ele>1311.94</ele>
        <time>2017-01-03T17:40:35Z</time>
      </trkpt>
      <trkpt lat="45.08973" lon="6.7176">
        <ele>1333.41</ele>
        <time>2017-01-03T17:40:48Z</time>
      </trkpt>
      <trkpt lat="45.08998" lon="6.71813">
        <ele>1341.71</ele>
        <time>2017-01-03T17:40:50Z</time>
      </trkpt>
      <trkpt lat="45.09012" lon="6.71848">
        <ele>1345.55</ele>
        <time>2017-01-03T17:40:52Z</time>
      </trkpt>
      <trkpt lat="45.09056" lon="6.71885">
        <ele>1350.84</ele>
        <time>2017-01-03T17:40:55Z</time>
      </trkpt>
      <trkpt lat="45.09137" lon="6.71866">
        <ele>1349.62</ele>
        <time>2017-01-03T17:40:59Z</time>
      </trkpt>
      <trkpt lat="45.09145" lon="6.71876">
        <ele>1351.27</ele>
        <time>2017-01-03T17:41:00Z</time>
      </trkpt>
      <trkpt lat="45.0911" lon="6.71914">
        <ele>1369</ele>
        <time>2017-01-03T17:41:02Z</time>
      </trkpt>
      <trkpt lat="45.09061" lon="6.71936">
        <ele>1376.59</ele>
        <time>2017-01-03T17:41:05Z</time>
      </trkpt>
      <trkpt lat="45.09036" lon="6.71921">
        <ele>1373.25</ele>
        <time>2017-01-03T17:41:06Z</time>
      </trkpt>
      <trkpt lat="45.09025" lon="6.71922">
        <ele>1376.91</ele>
        <time>2017-01-03T17:41:07Z</time>
      </trkpt>
      <trkpt lat="45.09063" lon="6.71953">
        <ele>1385.35</ele>
        <time>2017-01-03T17:41:09Z</time>
      </trkpt>
      <trkpt lat="45.09133" lon="6.71962">
        <ele>1383.82</ele>
        <time>2017-01-03T17:41:13Z</time>
      </trkpt>
      <trkpt lat="45.09154" lon="6.7205">
        <ele>1399.51</ele>
        <time>2017-01-03T17:41:17Z</time>
      </trkpt>
      <trkpt lat="45.09201" lon="6.7224">
        <ele>1424.29</ele>
        <time>2017-01-03T17:41:25Z</time>
      </trkpt>
      <trkpt lat="45.09218" lon="6.72265">
        <ele>1425.53</ele>
        <time>2017-01-03T17:41:26Z</time>
      </trkpt>
      <trkpt lat="45.09244" lon="6.72274">
        <ele>1421.99</ele>
        <time>2017-01-03T17:41:27Z</time>
      </trkpt>
      <trkpt lat="45.09289" lon="6.72323">
        <ele>1429.59</ele>
        <time>2017-01-03T17:41:31Z</time>
      </trkpt>
      <trkpt lat="45.0931" lon="6.72366">
        <ele>1434.82</ele>
        <time>2017-01-03T17:41:33Z</time>
      </trkpt>
      <trkpt lat="45.0934" lon="6.72368">
        <ele>1431.16</ele>
        <time>2017-01-03T17:41:34Z</time>
      </trkpt>
      <trkpt lat="45.09366" lon="6.72404">
        <ele>1440.67</ele>
        <time>2017-01-03T17:41:36Z</time>
      </trkpt>
      <trkpt lat="45.09454" lon="6.72479">
        <ele>1433.23</ele>
        <time>2017-01-03T17:41:42Z</time>
      </trkpt>
      <trkpt lat="45.09529" lon="6.72532">
        <ele>1435.7</ele>
        <time>2017-01-03T17:41:46Z</time>
      </trkpt>
      <trkpt lat="45.09672" lon="6.7264">
        <ele>1453.85</ele>
        <time>2017-01-03T17:41:55Z</time>
      </trkpt>
      <trkpt lat="45.09714" lon="6.72677">
        <ele>1451.45</ele>
        <time>2017-01-03T17:41:58Z</time>
      </trkpt>
      <trkpt lat="45.09725" lon="6.72728">
        <ele>1457.72</ele>
        <time>2017-01-03T17:42:00Z</time>
      </trkpt>
      <trkpt lat="45.09732" lon="6.72767">
        <ele>1467.57</ele>
        <time>2017-01-03T17:42:02Z</time>
      </trkpt>
      <trkpt lat="45.09759" lon="6.72754">
        <ele>1459.19</ele>
        <time>2017-01-03T17:42:03Z</time>
      </trkpt>
      <trkpt lat="45.0981" lon="6.72819">
        <ele>1467.36</ele>
        <time>2017-01-03T17:42:07Z</time>
      </trkpt>
      <trkpt lat="45.09825" lon="6.72977">
        <ele>1483.37</ele>
        <time>2017-01-03T17:42:13Z</time>
      </trkpt>
      <trkpt lat="45.09827" lon="6.73065">
        <ele>1490.57</ele>
        <time>2017-01-03T17:42:17Z</time>
      </trkpt>
      <trkpt lat="45.09868" lon="6.7309">
        <ele>1479.79</ele>
        <time>2017-01-03T17:42:19Z</time>
      </trkpt>
      <trkpt lat="45.09871" lon="6.7315">
        <ele>1495.2</ele>
        <time>2017-01-03T17:42:21Z</time>
      </trkpt>
      <trkpt lat="45.09906" lon="6.73181">
        <ele>1493.33</ele>
        <time>2017-01-03T17:42:24Z</time>
      </trkpt>
      <trkpt lat="45.0996" lon="6.73229">
        <ele>1496.12</ele>
        <time>2017-01-03T17:42:27Z</time>
      </trkpt>
      <trkpt lat="45.10041" lon="6.73304">
        <ele>1513.9</ele>
        <time>2017-01-03T17:42:32Z</time>
      </trkpt>
      <trkpt lat="45.10076" lon="6.73261">
        <ele>1500.54</ele>
        <time>2017-01-03T17:42:35Z</time>
      </trkpt>
      <trkpt lat="45.10093" lon="6.73248">
        <ele>1499.19</ele>
        <time>2017-01-03T17:42:36Z</time>
      </trkpt>
      <trkpt lat="45.10165" lon="6.73261">
        <ele>1511.96</ele>
        <time>2017-01-03T17:42:40Z</time>
      </trkpt>
      <trkpt lat="45.10324" lon="6.73348">
        <ele>1521.88</ele>
        <time>2017-01-03T17:42:49Z</time>
      </trkpt>
      <trkpt lat="45.10387" lon="6.73452">
        <ele>1534.5</ele>
        <time>2017-01-03T17:42:55Z</time>
      </trkpt>
      <trkpt lat="45.10432" lon="6.73516">
        <ele>1539.16</ele>
        <time>2017-01-03T17:42:58Z</time>
      </trkpt>
      <trkpt lat="45.10511" lon="6.73564">
        <ele>1538.99</ele>
        <time>2017-01-03T17:43:03Z</time>
      </trkpt>
      <trkpt lat="45.10567" lon="6.73649">
        <ele>1547</ele>
        <time>2017-01-03T17:43:07Z</time>
      </trkpt>
      <trkpt lat="45.10639" lon="6.73783">
        <ele>1554.29</ele>
        <time>2017-01-03T17:43:14Z</time>
      </trkpt>
      <trkpt lat="45.10716" lon="6.73847">
        <ele>1550.02</ele>
        <time>2017-01-03T17:43:19Z</time>
      </trkpt>
      <trkpt lat="45.10732" lon="6.73895">
        <ele>1554.06</ele>
        <time>2017-01-03T17:43:21Z</time>
      </trkpt>
      <trkpt lat="45.1077" lon="6.73921">
        <ele>1552.37</ele>
        <time>2017-01-03T17:43:23Z</time>
      </trkpt>
      <trkpt lat="45.10831" lon="6.73993">
        <ele>1560.73</ele>
        <time>2017-01-03T17:43:27Z</time>
      </trkpt>
      <trkpt lat="45.10939" lon="6.74065">
        <ele>1563.59</ele>
        <time>2017-01-03T17:43:34Z</time>
      </trkpt>
      <trkpt lat="45.11022" lon="6.74221">
        <ele>1585.71</ele>
        <time>2017-01-03T17:43:42Z</time>
      </trkpt>
      <trkpt lat="45.1111" lon="6.74376">
        <ele>1594.07</ele>
        <time>2017-01-03T17:43:49Z</time>
      </trkpt>
      <trkpt lat="45.11152" lon="6.74446">
        <ele>1597.76</ele>
        <time>2017-01-03T17:43:53Z</time>
      </trkpt>
      <trkpt lat="45.11194" lon="6.74698">
        <ele>1616.7</ele>
        <time>2017-01-03T17:44:03Z</time>
      </trkpt>
      <trkpt lat="45.11249" lon="6.74937">
        <ele>1630.66</ele>
        <time>2017-01-03T17:44:13Z</time>
      </trkpt>
      <trkpt lat="45.1128" lon="6.75035">
        <ele>1636.12</ele>
        <time>2017-01-03T17:44:17Z</time>
      </trkpt>
      <trkpt lat="45.11307" lon="6.75064">
        <ele>1634.18</ele>
        <time>2017-01-03T17:44:19Z</time>
      </trkpt>
      <trkpt lat="45.11329" lon="6.75073">
        <ele>1635.2</ele>
        <time>2017-01-03T17:44:20Z</time>
      </trkpt>
      <trkpt lat="45.11357" lon="6.75059">
        <ele>1633.58</ele>
        <time>2017-01-03T17:44:21Z</time>
      </trkpt>
      <trkpt lat="45.11391" lon="6.75066">
        <ele>1637.83</ele>
        <time>2017-01-03T17:44:23Z</time>
      </trkpt>
      <trkpt lat="45.11531" lon="6.75102">
        <ele>1654.82</ele>
        <time>2017-01-03T17:44:31Z</time>
      </trkpt>
      <trkpt lat="45.11607" lon="6.75161">
        <ele>1666.42</ele>
        <time>2017-01-03T17:44:36Z</time>
      </trkpt>
      <trkpt lat="45.11664" lon="6.75202">
        <ele>1676.13</ele>
        <time>2017-01-03T17:44:39Z</time>
      </trkpt>
      <trkpt lat="45.11655" lon="6.7521">
        <ele>1678.53</ele>
        <time>2017-01-03T17:44:40Z</time>
      </trkpt>
      <trkpt lat="45.11572" lon="6.75177">
        <ele>1675.33</ele>
        <time>2017-01-03T17:44:45Z</time>
      </trkpt>
      <trkpt lat="45.11705" lon="6.75289">
        <ele>1694.97</ele>
        <time>2017-01-03T17:44:53Z</time>
      </trkpt>
      <trkpt lat="45.11666" lon="6.75286">
        <ele>1706.78</ele>
        <time>2017-01-03T17:44:56Z</time>
      </trkpt>
      <trkpt lat="45.11493" lon="6.75264">
        <ele>1723.68</ele>
        <time>2017-01-03T17:45:05Z</time>
      </trkpt>
      <trkpt lat="45.11428" lon="6.75262">
        <ele>1723.34</ele>
        <time>2017-01-03T17:45:09Z</time>
      </trkpt>
      <trkpt lat="45.11439" lon="6.75278">
        <ele>1729.49</ele>
        <time>2017-01-03T17:45:10Z</time>
      </trkpt>
      <trkpt lat="45.11546" lon="6.7532">
        <ele>1742.91</ele>
        <time>2017-01-03T17:45:16Z</time>
      </trkpt>
      <trkpt lat="45.11583" lon="6.75332">
        <ele>1751.3</ele>
        <time>2017-01-03T17:45:18Z</time>
      </trkpt>
      <trkpt lat="45.11634" lon="6.75387">
        <ele>1764.12</ele>
        <time>2017-01-03T17:45:22Z</time>
      </trkpt>
      <trkpt lat="45.1167" lon="6.75409">
        <ele>1766.84</ele>
        <time>2017-01-03T17:45:24Z</time>
      </trkpt>
      <trkpt lat="45.11723" lon="6.75453">
        <ele>1766.68</ele>
        <time>2017-01-03T17:45:27Z</time>
      </trkpt>
      <trkpt lat="45.11735" lon="6.75477">
        <ele>1773.42</ele>
        <time>2017-01-03T17:45:28Z</time>
      </trkpt>
      <trkpt lat="45.11657" lon="6.75457">
        <ele>1784.39</ele>
        <time>2017-01-03T17:45:33Z</time>
      </trkpt>
      <trkpt lat="45.116" lon="6.75441">
        <ele>1787.73</ele>
        <time>2017-01-03T17:45:36Z</time>
      </trkpt>
      <trkpt lat="45.11576" lon="6.7544">
        <ele>1786.09</ele>
        <time>2017-01-03T17:45:37Z</time>
      </trkpt>
      <trkpt lat="45.11522" lon="6.75478">
        <ele>1796.88</ele>
        <time>2017-01-03T17:45:41Z</time>
      </trkpt>
      <trkpt lat="45.11462" lon="6.75501">
        <ele>1801.56</ele>
        <time>2017-01-03T17:45:44Z</time>
      </trkpt>
      <trkpt lat="45.11561" lon="6.75576">
        <ele>1814.52</ele>
        <time>2017-01-03T17:45:50Z</time>
      </trkpt>
      <trkpt lat="45.11616" lon="6.75603">
        <ele>1820.85</ele>
        <time>2017-01-03T17:45:54Z</time>
      </trkpt>
      <trkpt lat="45.11645" lon="6.75641">
        <ele>1825.27</ele>
        <time>2017-01-03T17:45:56Z</time>
      </trkpt>
      <trkpt lat="45.11673" lon="6.75724">
        <ele>1835.12</ele>
        <time>2017-01-03T17:45:59Z</time>
      </trkpt>
      <trkpt lat="45.11706" lon="6.75753">
        <ele>1844.98</ele>
        <time>2017-01-03T17:46:02Z</time>
      </trkpt>
      <trkpt lat="45.11762" lon="6.75743">
        <ele>1848.1</ele>
        <time>2017-01-03T17:46:05Z</time>
      </trkpt>
      <trkpt lat="45.11828" lon="6.75815">
        <ele>1858.73</ele>
        <time>2017-01-03T17:46:09Z</time>
      </trkpt>
      <trkpt lat="45.11788" lon="6.75808">
        <ele>1861.07</ele>
        <time>2017-01-03T17:46:11Z</time>
      </trkpt>
      <trkpt lat="45.11756" lon="6.75801">
        <ele>1858.61</ele>
        <time>2017-01-03T17:46:13Z</time>
      </trkpt>
      <trkpt lat="45.11728" lon="6.75822">
        <ele>1862.43</ele>
        <time>2017-01-03T17:46:15Z</time>
      </trkpt>
      <trkpt lat="45.11725" lon="6.75846">
        <ele>1866.77</ele>
        <time>2017-01-03T17:46:16Z</time>
      </trkpt>
      <trkpt lat="45.11779" lon="6.75904">
        <ele>1872.52</ele>
        <time>2017-01-03T17:46:20Z</time>
      </trkpt>
      <trkpt lat="45.11793" lon="6.76003">
        <ele>1876.3</ele>
        <time>2017-01-03T17:46:23Z</time>
      </trkpt>
      <trkpt lat="45.11802" lon="6.76056">
        <ele>1884.01</ele>
        <time>2017-01-03T17:46:26Z</time>
      </trkpt>
      <trkpt lat="45.11821" lon="6.76078">
        <ele>1889.32</ele>
        <time>2017-01-03T17:46:27Z</time>
      </trkpt>
      <trkpt lat="45.11875" lon="6.76072">
        <ele>1890.53</ele>
        <time>2017-01-03T17:46:30Z</time>
      </trkpt>
      <trkpt lat="45.11927" lon="6.76126">
        <ele>1900.73</ele>
        <time>2017-01-03T17:46:33Z</time>
      </trkpt>
      <trkpt lat="45.11948" lon="6.76171">
        <ele>1908.88</ele>
        <time>2017-01-03T17:46:35Z</time>
      </trkpt>
      <trkpt lat="45.12003" lon="6.76195">
        <ele>1911.02</ele>
        <time>2017-01-03T17:46:39Z</time>
      </trkpt>
      <trkpt lat="45.12058" lon="6.76199">
        <ele>1910.7</ele>
        <time>2017-01-03T17:46:42Z</time>
      </trkpt>
      <trkpt lat="45.1219" lon="6.76296">
        <ele>1931.31</ele>
        <time>2017-01-03T17:46:50Z</time>
      </trkpt>
      <trkpt lat="45.12242" lon="6.76356">
        <ele>1937.7</ele>
        <time>2017-01-03T17:46:53Z</time>
      </trkpt>
      <trkpt lat="45.12282" lon="6.76445">
        <ele>1946.47</ele>
        <time>2017-01-03T17:46:58Z</time>
      </trkpt>
      <trkpt lat="45.12359" lon="6.76598">
        <ele>1964.21</ele>
        <time>2017-01-03T17:47:05Z</time>
      </trkpt>
      <trkpt lat="45.12401" lon="6.76675">
        <ele>1968.61</ele>
        <time>2017-01-03T17:47:09Z</time>
      </trkpt>
      <trkpt lat="45.12406" lon="6.76796">
        <ele>1980.12</ele>
        <time>2017-01-03T17:47:13Z</time>
      </trkpt>
      <trkpt lat="45.1236" lon="6.76945">
        <ele>1983.56</ele>
        <time>2017-01-03T17:47:20Z</time>
      </trkpt>
      <trkpt lat="45.12294" lon="6.77071">
        <ele>1999.41</ele>
        <time>2017-01-03T17:47:26Z</time>
      </trkpt>
      <trkpt lat="45.1231" lon="6.77089">
        <ele>1997.21</ele>
        <time>2017-01-03T17:47:27Z</time>
      </trkpt>
      <trkpt lat="45.12389" lon="6.77044">
        <ele>1982.85</ele>
        <time>2017-01-03T17:47:31Z</time>
      </trkpt>
      <trkpt lat="45.1243" lon="6.77044">
        <ele>1987.76</ele>
        <time>2017-01-03T17:47:34Z</time>
      </trkpt>
      <trkpt lat="45.12458" lon="6.77059">
        <ele>1995.42</ele>
        <time>2017-01-03T17:47:35Z</time>
      </trkpt>
      <trkpt lat="45.12483" lon="6.77054">
        <ele>1997.34</ele>
        <time>2017-01-03T17:47:37Z</time>
      </trkpt>
      <trkpt lat="45.12524" lon="6.77017">
        <ele>2000.07</ele>
        <time>2017-01-03T17:47:39Z</time>
      </trkpt>
      <trkpt lat="45.12583" lon="6.76904">
        <ele>1989.74</ele>
        <time>2017-01-03T17:47:45Z</time>
      </trkpt>
      <trkpt lat="45.12635" lon="6.76849">
        <ele>1992.14</ele>
        <time>2017-01-03T17:47:48Z</time>
      </trkpt>
      <trkpt lat="45.12743" lon="6.76791">
        <ele>1998.56</ele>
        <time>2017-01-03T17:47:55Z</time>
      </trkpt>
      <trkpt lat="45.12814" lon="6.76718">
        <ele>1987.8</ele>
        <time>2017-01-03T17:48:00Z</time>
      </trkpt>
      <trkpt lat="45.12869" lon="6.76715">
        <ele>1993.43</ele>
        <time>2017-01-03T17:48:03Z</time>
      </trkpt>
      <trkpt lat="45.12992" lon="6.76691">
        <ele>2001.81</ele>
        <time>2017-01-03T17:48:09Z</time>
      </trkpt>
      <trkpt lat="45.13124" lon="6.76633">
        <ele>2001.12</ele>
        <time>2017-01-03T17:48:17Z</time>
      </trkpt>
      <trkpt lat="45.13202" lon="6.76643">
        <ele>2000.81</ele>
        <time>2017-01-03T17:48:21Z</time>
      </trkpt>
      <trkpt lat="45.13272" lon="6.7664">
        <ele>2003.4</ele>
        <time>2017-01-03T17:48:25Z</time>
      </trkpt>
      <trkpt lat="45.1332" lon="6.76599">
        <ele>1987.51</ele>
        <time>2017-01-03T17:48:28Z</time>
      </trkpt>
      <trkpt lat="45.1339" lon="6.76592">
        <ele>1998.18</ele>
        <time>2017-01-03T17:48:32Z</time>
      </trkpt>
      <trkpt lat="45.13528" lon="6.76617">
        <ele>1996.11</ele>
        <time>2017-01-03T17:48:40Z</time>
      </trkpt>
      <trkpt lat="45.13579" lon="6.76662">
        <ele>2001.71</ele>
        <time>2017-01-03T17:48:43Z</time>
      </trkpt>
      <trkpt lat="45.13619" lon="6.7669">
        <ele>1999.81</ele>
        <time>2017-01-03T17:48:45Z</time>
      </trkpt>
      <trkpt lat="45.13671" lon="6.76734">
        <ele>1994.87</ele>
        <time>2017-01-03T17:48:49Z</time>
      </trkpt>
      <trkpt lat="45.13821" lon="6.76971">
        <ele>1997.92</ele>
        <time>2017-01-03T17:49:01Z</time>
      </trkpt>
      <trkpt lat="45.13841" lon="6.77091">
        <ele>2003.1</ele>
        <time>2017-01-03T17:49:06Z</time>
      </trkpt>
      <trkpt lat="45.13835" lon="6.77245">
        <ele>2012.38</ele>
        <time>2017-01-03T17:49:12Z</time>
      </trkpt>
      <trkpt lat="45.13845" lon="6.7759">
        <ele>2004.18</ele>
        <time>2017-01-03T17:49:25Z</time>
      </trkpt>
      <trkpt lat="45.13837" lon="6.77721">
        <ele>2000.85</ele>
        <time>2017-01-03T17:49:30Z</time>
      </trkpt>
      <trkpt lat="45.13867" lon="6.7775">
        <ele>2000.06</ele>
        <time>2017-01-03T17:49:32Z</time>
      </trkpt>
      <trkpt lat="45.13884" lon="6.77798">
        <ele>2004.55</ele>
        <time>2017-01-03T17:49:34Z</time>
      </trkpt>
      <trkpt lat="45.13885" lon="6.77966">
        <ele>2012.5</ele>
        <time>2017-01-03T17:49:41Z</time>
      </trkpt>
      <trkpt lat="45.13854" lon="6.78091">
        <ele>2024.08</ele>
        <time>2017-01-03T17:49:46Z</time>
      </trkpt>
      <trkpt lat="45.13794" lon="6.78173">
        <ele>2025.89</ele>
        <time>2017-01-03T17:49:50Z</time>
      </trkpt>
      <trkpt lat="45.13796" lon="6.78188">
        <ele>2027.42</ele>
        <time>2017-01-03T17:49:51Z</time>
      </trkpt>
      <trkpt lat="45.13833" lon="6.78174">
        <ele>2033.98</ele>
        <time>2017-01-03T17:49:53Z</time>
      </trkpt>
      <trkpt lat="45.13873" lon="6.78168">
        <ele>2045.04</ele>
        <time>2017-01-03T17:49:55Z</time>
      </trkpt>
      <trkpt lat="45.13908" lon="6.78067">
        <ele>2042.47</ele>
        <time>2017-01-03T17:50:00Z</time>
      </trkpt>
      <trkpt lat="45.13906" lon="6.78105">
        <ele>2046.98</ele>
        <time>2017-01-03T17:50:01Z</time>
      </trkpt>
      <trkpt lat="45.13902" lon="6.78262">
        <ele>2067.16</ele>
        <time>2017-01-03T17:50:07Z</time>
      </trkpt>
      <trkpt lat="45.13885" lon="6.78305">
        <ele>2065.24</ele>
        <time>2017-01-03T17:50:09Z</time>
      </trkpt>
      <trkpt lat="45.13859" lon="6.78388">
        <ele>2072.35</ele>
        <time>2017-01-03T17:50:13Z</time>
      </trkpt>
      <trkpt lat="45.13862" lon="6.78425">
        <ele>2081.17</ele>
        <time>2017-01-03T17:50:14Z</time>
      </trkpt>
      <trkpt lat="45.13832" lon="6.78434">
        <ele>2075.68</ele>
        <time>2017-01-03T17:50:16Z</time>
      </trkpt>
      <trkpt lat="45.13806" lon="6.78478">
        <ele>2072.7</ele>
        <time>2017-01-03T17:50:18Z</time>
      </trkpt>
      <trkpt lat="45.13784" lon="6.78621">
        <ele>2092.77</ele>
        <time>2017-01-03T17:50:24Z</time>
      </trkpt>
      <trkpt lat="45.13756" lon="6.78717">
        <ele>2100.53</ele>
        <time>2017-01-03T17:50:28Z</time>
      </trkpt>
      <trkpt lat="45.13626" lon="6.78948">
        <ele>2113.66</ele>
        <time>2017-01-03T17:50:39Z</time>
      </trkpt>
      <trkpt lat="45.13493" lon="6.79157">
        <ele>2123.33</ele>
        <time>2017-01-03T17:50:50Z</time>
      </trkpt>
      <trkpt lat="45.1346" lon="6.79256">
        <ele>2127.26</ele>
        <time>2017-01-03T17:50:54Z</time>
      </trkpt>
      <trkpt lat="45.13434" lon="6.79303">
        <ele>2128.51</ele>
        <time>2017-01-03T17:50:56Z</time>
      </trkpt>
      <trkpt lat="45.13428" lon="6.79366">
        <ele>2134.9</ele>
        <time>2017-01-03T17:50:59Z</time>
      </trkpt>
      <trkpt lat="45.13355" lon="6.79559">
        <ele>2145.72</ele>
        <time>2017-01-03T17:51:07Z</time>
      </trkpt>
      <trkpt lat="45.13287" lon="6.79625">
        <ele>2157.67</ele>
        <time>2017-01-03T17:51:12Z</time>
      </trkpt>
      <trkpt lat="45.13186" lon="6.79737">
        <ele>2164.28</ele>
        <time>2017-01-03T17:51:19Z</time>
      </trkpt>
      <trkpt lat="45.13151" lon="6.79761">
        <ele>2169.89</ele>
        <time>2017-01-03T17:51:21Z</time>
      </trkpt>
      <trkpt lat="45.13113" lon="6.7983">
        <ele>2179.62</ele>
        <time>2017-01-03T17:51:24Z</time>
      </trkpt>
      <trkpt lat="45.13059" lon="6.79954">
        <ele>2185.13</ele>
        <time>2017-01-03T17:51:30Z</time>
      </trkpt>
      <trkpt lat="45.1304" lon="6.80028">
        <ele>2191.72</ele>
        <time>2017-01-03T17:51:33Z</time>
      </trkpt>
      <trkpt lat="45.13044" lon="6.80102">
        <ele>2191.81</ele>
        <time>2017-01-03T17:51:36Z</time>
      </trkpt>
      <trkpt lat="45.13002" lon="6.80219">
        <ele>2201.19</ele>
        <time>2017-01-03T17:51:41Z</time>
      </trkpt>
      <trkpt lat="45.13001" lon="6.80109">
        <ele>2203.82</ele>
        <time>2017-01-03T17:51:45Z</time>
      </trkpt>
      <trkpt lat="45.12985" lon="6.79987">
        <ele>2210.45</ele>
        <time>2017-01-03T17:51:50Z</time>
      </trkpt>
      <trkpt lat="45.12985" lon="6.79927">
        <ele>2223.24</ele>
        <time>2017-01-03T17:51:52Z</time>
      </trkpt>
      <trkpt lat="45.12924" lon="6.8013">
        <ele>2235.24</ele>
        <time>2017-01-03T17:52:01Z</time>
      </trkpt>
      <trkpt lat="45.12934" lon="6.79988">
        <ele>2247.49</ele>
        <time>2017-01-03T17:52:07Z</time>
      </trkpt>
      <trkpt lat="45.12917" lon="6.80027">
        <ele>2249.91</ele>
        <time>2017-01-03T17:52:09Z</time>
      </trkpt>
      <trkpt lat="45.12866" lon="6.80105">
        <ele>2263.52</ele>
        <time>2017-01-03T17:52:13Z</time>
      </trkpt>
      <trkpt lat="45.12865" lon="6.80165">
        <ele>2255.13</ele>
        <time>2017-01-03T17:52:15Z</time>
      </trkpt>
      <trkpt lat="45.12828" lon="6.8021">
        <ele>2273.77</ele>
        <time>2017-01-03T17:52:18Z</time>
      </trkpt>
      <trkpt lat="45.12821" lon="6.80247">
        <ele>2279.14</ele>
        <time>2017-01-03T17:52:19Z</time>
      </trkpt>
      <trkpt lat="45.12895" lon="6.80349">
        <ele>2280.08</ele>
        <time>2017-01-03T17:52:25Z</time>
      </trkpt>
      <trkpt lat="45.12829" lon="6.80316">
        <ele>2283.14</ele>
        <time>2017-01-03T17:52:29Z</time>
      </trkpt>
      <trkpt lat="45.12806" lon="6.8029">
        <ele>2289.94</ele>
        <time>2017-01-03T17:52:30Z</time>
      </trkpt>
      <trkpt lat="45.12864" lon="6.80393">
        <ele>2305.11</ele>
        <time>2017-01-03T17:52:35Z</time>
      </trkpt>
      <trkpt lat="45.12796" lon="6.80327">
        <ele>2314.52</ele>
        <time>2017-01-03T17:52:40Z</time>
      </trkpt>
      <trkpt lat="45.12826" lon="6.80404">
        <ele>2319.94</ele>
        <time>2017-01-03T17:52:44Z</time>
      </trkpt>
      <trkpt lat="45.12854" lon="6.8044">
        <ele>2319.19</ele>
        <time>2017-01-03T17:52:46Z</time>
      </trkpt>
      <trkpt lat="45.12822" lon="6.80423">
        <ele>2326.32</ele>
        <time>2017-01-03T17:52:48Z</time>
      </trkpt>
      <trkpt lat="45.12769" lon="6.80363">
        <ele>2341.58</ele>
        <time>2017-01-03T17:52:52Z</time>
      </trkpt>
      <trkpt lat="45.1279" lon="6.80416">
        <ele>2334.01</ele>
        <time>2017-01-03T17:52:54Z</time>
      </trkpt>
      <trkpt lat="45.12814" lon="6.80475">
        <ele>2344.71</ele>
        <time>2017-01-03T17:52:57Z</time>
      </trkpt>
      <trkpt lat="45.12754" lon="6.80392">
        <ele>2355.3</ele>
        <time>2017-01-03T17:53:01Z</time>
      </trkpt>
      <trkpt lat="45.12769" lon="6.80475">
        <ele>2362.35</ele>
        <time>2017-01-03T17:53:05Z</time>
      </trkpt>
      <trkpt lat="45.12764" lon="6.80495">
        <ele>2365.69</ele>
        <time>2017-01-03T17:53:06Z</time>
      </trkpt>
      <trkpt lat="45.1274" lon="6.80437">
        <ele>2370.72</ele>
        <time>2017-01-03T17:53:08Z</time>
      </trkpt>
      <trkpt lat="45.12706" lon="6.80331">
        <ele>2362.06</ele>
        <time>2017-01-03T17:53:13Z</time>
      </trkpt>
      <trkpt lat="45.12696" lon="6.80399">
        <ele>2371.49</ele>
        <time>2017-01-03T17:53:15Z</time>
      </trkpt>
      <trkpt lat="45.12629" lon="6.80509">
        <ele>2389.45</ele>
        <time>2017-01-03T17:53:21Z</time>
      </trkpt>
      <trkpt lat="45.12613" lon="6.80502">
        <ele>2395.91</ele>
        <time>2017-01-03T17:53:22Z</time>
      </trkpt>
      <trkpt lat="45.12627" lon="6.80463">
        <ele>2395.99</ele>
        <time>2017-01-03T17:53:24Z</time>
      </trkpt>
      <trkpt lat="45.12648" lon="6.80388">
        <ele>2389.31</ele>
        <time>2017-01-03T17:53:27Z</time>
      </trkpt>
      <trkpt lat="45.12584" lon="6.8047">
        <ele>2407.73</ele>
        <time>2017-01-03T17:53:31Z</time>
      </trkpt>
      <trkpt lat="45.12525" lon="6.80568">
        <ele>2422.14</ele>
        <time>2017-01-03T17:53:36Z</time>
      </trkpt>
      <trkpt lat="45.12523" lon="6.80603">
        <ele>2417.8</ele>
        <time>2017-01-03T17:53:38Z</time>
      </trkpt>
      <trkpt lat="45.125" lon="6.80632">
        <ele>2423.74</ele>
        <time>2017-01-03T17:53:39Z</time>
      </trkpt>
      <trkpt lat="45.12478" lon="6.80686">
        <ele>2424.21</ele>
        <time>2017-01-03T17:53:42Z</time>
      </trkpt>
      <trkpt lat="45.12421" lon="6.80724">
        <ele>2442.34</ele>
        <time>2017-01-03T17:53:45Z</time>
      </trkpt>
      <trkpt lat="45.1239" lon="6.80768">
        <ele>2440.96</ele>
        <time>2017-01-03T17:53:48Z</time>
      </trkpt>
      <trkpt lat="45.12336" lon="6.80743">
        <ele>2450.11</ele>
        <time>2017-01-03T17:53:51Z</time>
      </trkpt>
      <trkpt lat="45.12265" lon="6.80779">
        <ele>2452.3</ele>
        <time>2017-01-03T17:53:55Z</time>
      </trkpt>
      <trkpt lat="45.12205" lon="6.80866">
        <ele>2456.04</ele>
        <time>2017-01-03T17:54:00Z</time>
      </trkpt>
      <trkpt lat="45.12146" lon="6.81032">
        <ele>2472.46</ele>
        <time>2017-01-03T17:54:07Z</time>
      </trkpt>
      <trkpt lat="45.12141" lon="6.81184">
        <ele>2478.63</ele>
        <time>2017-01-03T17:54:13Z</time>
      </trkpt>
      <trkpt lat="45.12151" lon="6.81296">
        <ele>2486.67</ele>
        <time>2017-01-03T17:54:17Z</time>
      </trkpt>
      <trkpt lat="45.12175" lon="6.81356">
        <ele>2498.58</ele>
        <time>2017-01-03T17:54:20Z</time>
      </trkpt>
      <trkpt lat="45.12108" lon="6.81397">
        <ele>2497.9</ele>
        <time>2017-01-03T17:54:24Z</time>
      </trkpt>
      <trkpt lat="45.12099" lon="6.81421">
        <ele>2499.71</ele>
        <time>2017-01-03T17:54:25Z</time>
      </trkpt>
      <trkpt lat="45.12168" lon="6.81413">
        <ele>2508.55</ele>
        <time>2017-01-03T17:54:29Z</time>
      </trkpt>
      <trkpt lat="45.12191" lon="6.81409">
        <ele>2508.92</ele>
        <time>2017-01-03T17:54:30Z</time>
      </trkpt>
      <trkpt lat="45.1213" lon="6.81463">
        <ele>2515.17</ele>
        <time>2017-01-03T17:54:34Z</time>
      </trkpt>
      <trkpt lat="45.12056" lon="6.81489">
        <ele>2520.83</ele>
        <time>2017-01-03T17:54:38Z</time>
      </trkpt>
      <trkpt lat="45.12017" lon="6.81528">
        <ele>2533.28</ele>
        <time>2017-01-03T17:54:41Z</time>
      </trkpt>
      <trkpt lat="45.11999" lon="6.81586">
        <ele>2538.98</ele>
        <time>2017-01-03T17:54:43Z</time>
      </trkpt>
      <trkpt lat="45.12" lon="6.81716">
        <ele>2550.55</ele>
        <time>2017-01-03T17:54:48Z</time>
      </trkpt>
      <trkpt lat="45.11919" lon="6.81846">
        <ele>2567.82</ele>
        <time>2017-01-03T17:54:55Z</time>
      </trkpt>
      <trkpt lat="45.11996" lon="6.81806">
        <ele>2565.71</ele>
        <time>2017-01-03T17:54:59Z</time>
      </trkpt>
      <trkpt lat="45.12081" lon="6.81774">
        <ele>2580.27</ele>
        <time>2017-01-03T17:55:04Z</time>
      </trkpt>
      <trkpt lat="45.12171" lon="6.81771">
        <ele>2582.51</ele>
        <time>2017-01-03T17:55:09Z</time>
      </trkpt>
      <trkpt lat="45.12214" lon="6.81705">
        <ele>2572.19</ele>
        <time>2017-01-03T17:55:12Z</time>
      </trkpt>
      <trkpt lat="45.12224" lon="6.81711">
        <ele>2568.67</ele>
        <time>2017-01-03T17:55:13Z</time>
      </trkpt>
      <trkpt lat="45.12216" lon="6.81731">
        <ele>2570.94</ele>
        <time>2017-01-03T17:55:14Z</time>
      </trkpt>
      <trkpt lat="45.12205" lon="6.81781">
        <ele>2573.46</ele>
        <time>2017-01-03T17:55:16Z</time>
      </trkpt>
      <trkpt lat="45.12222" lon="6.81868">
        <ele>2574.07</ele>
        <time>2017-01-03T17:55:19Z</time>
      </trkpt>
      <trkpt lat="45.12253" lon="6.81972">
        <ele>2571.54</ele>
        <time>2017-01-03T17:55:24Z</time>
      </trkpt>
      <trkpt lat="45.12254" lon="6.82294">
        <ele>2577.77</ele>
        <time>2017-01-03T17:55:36Z</time>
      </trkpt>
      <trkpt lat="45.12244" lon="6.82501">
        <ele>2579</ele>
        <time>2017-01-03T17:55:44Z</time>
      </trkpt>
      <trkpt lat="45.12236" lon="6.82569">
        <ele>2582.95</ele>
        <time>2017-01-03T17:55:47Z</time>
      </trkpt>
      <trkpt lat="45.12245" lon="6.82664">
        <ele>2595.75</ele>
        <time>2017-01-03T17:55:51Z</time>
      </trkpt>
      <trkpt lat="45.12236" lon="6.82786">
        <ele>2604.23</ele>
        <time>2017-01-03T17:55:55Z</time>
      </trkpt>
      <trkpt lat="45.12234" lon="6.82851">
        <ele>2609.49</ele>
        <time>2017-01-03T17:55:58Z</time>
      </trkpt>
      <trkpt lat="45.12214" lon="6.82874">
        <ele>2608.07</ele>
        <time>2017-01-03T17:55:59Z</time>
      </trkpt>
      <trkpt lat="45.1218" lon="6.82898">
        <ele>2608.49</ele>
        <time>2017-01-03T17:56:01Z</time>
      </trkpt>
      <trkpt lat="45.12183" lon="6.82917">
        <ele>2609.56</ele>
        <time>2017-01-03T17:56:02Z</time>
      </trkpt>
      <trkpt lat="45.1223" lon="6.82945">
        <ele>2612.49</ele>
        <time>2017-01-03T17:56:05Z</time>
      </trkpt>
      <trkpt lat="45.12252" lon="6.82938">
        <ele>2615.63</ele>
        <time>2017-01-03T17:56:06Z</time>
      </trkpt>
      <trkpt lat="45.12294" lon="6.82892">
        <ele>2621.9</ele>
        <time>2017-01-03T17:56:09Z</time>
      </trkpt>
      <trkpt lat="45.12285" lon="6.82933">
        <ele>2624.02</ele>
        <time>2017-01-03T17:56:11Z</time>
      </trkpt>
      <trkpt lat="45.12257" lon="6.83019">
        <ele>2628.82</ele>
        <time>2017-01-03T17:56:14Z</time>
      </trkpt>
      <trkpt lat="45.12245" lon="6.8312">
        <ele>2635</ele>
        <time>2017-01-03T17:56:18Z</time>
      </trkpt>
      <trkpt lat="45.12247" lon="6.83138">
        <ele>2638.41</ele>
        <time>2017-01-03T17:56:19Z</time>
      </trkpt>
      <trkpt lat="45.12262" lon="6.83125">
        <ele>2638.88</ele>
        <time>2017-01-03T17:56:20Z</time>
      </trkpt>
      <trkpt lat="45.12299" lon="6.8308">
        <ele>2644.11</ele>
        <time>2017-01-03T17:56:23Z</time>
      </trkpt>
      <trkpt lat="45.12335" lon="6.83018">
        <ele>2648.8</ele>
        <time>2017-01-03T17:56:26Z</time>
      </trkpt>
      <trkpt lat="45.12369" lon="6.82897">
        <ele>2651.29</ele>
        <time>2017-01-03T17:56:31Z</time>
      </trkpt>
      <trkpt lat="45.12366" lon="6.83039">
        <ele>2665.71</ele>
        <time>2017-01-03T17:56:37Z</time>
      </trkpt>
      <trkpt lat="45.12371" lon="6.83155">
        <ele>2671.52</ele>
        <time>2017-01-03T17:56:41Z</time>
      </trkpt>
      <trkpt lat="45.12356" lon="6.83248">
        <ele>2677.87</ele>
        <time>2017-01-03T17:56:45Z</time>
      </trkpt>
      <trkpt lat="45.12337" lon="6.83342">
        <ele>2681.38</ele>
        <time>2017-01-03T17:56:49Z</time>
      </trkpt>
      <trkpt lat="45.12338" lon="6.83357">
        <ele>2683.03</ele>
        <time>2017-01-03T17:56:49Z</time>
      </trkpt>
      <trkpt lat="45.12346" lon="6.83345">
        <ele>2685.96</ele>
        <time>2017-01-03T17:56:50Z</time>
      </trkpt>
      <trkpt lat="45.12397" lon="6.83237">
        <ele>2695.28</ele>
        <time>2017-01-03T17:56:55Z</time>
      </trkpt>
      <trkpt lat="45.12422" lon="6.83107">
        <ele>2694.84</ele>
        <time>2017-01-03T17:57:00Z</time>
      </trkpt>
      <trkpt lat="45.1243" lon="6.82996">
        <ele>2698.64</ele>
        <time>2017-01-03T17:57:04Z</time>
      </trkpt>
      <trkpt lat="45.12435" lon="6.83008">
        <ele>2702.19</ele>
        <time>2017-01-03T17:57:06Z</time>
      </trkpt>
      <trkpt lat="45.12444" lon="6.83159">
        <ele>2707.93</ele>
        <time>2017-01-03T17:57:12Z</time>
      </trkpt>
      <trkpt lat="45.12443" lon="6.83438">
        <ele>2732.84</ele>
        <time>2017-01-03T17:57:22Z</time>
      </trkpt>
      <trkpt lat="45.12455" lon="6.83502">
        <ele>2732.82</ele>
        <time>2017-01-03T17:57:25Z</time>
      </trkpt>
      <trkpt lat="45.12464" lon="6.83495">
        <ele>2737.48</ele>
        <time>2017-01-03T17:57:25Z</time>
      </trkpt>
      <trkpt lat="45.1246" lon="6.83413">
        <ele>2743.34</ele>
        <time>2017-01-03T17:57:29Z</time>
      </trkpt>
      <trkpt lat="45.1248" lon="6.8332">
        <ele>2746.21</ele>
        <time>2017-01-03T17:57:32Z</time>
      </trkpt>
      <trkpt lat="45.12499" lon="6.83215">
        <ele>2746.81</ele>
        <time>2017-01-03T17:57:37Z</time>
      </trkpt>
      <trkpt lat="45.12507" lon="6.83228">
        <ele>2749.57</ele>
        <time>2017-01-03T17:57:38Z</time>
      </trkpt>
      <trkpt lat="45.12516" lon="6.83459">
        <ele>2771.02</ele>
        <time>2017-01-03T17:57:47Z</time>
      </trkpt>
      <trkpt lat="45.1252" lon="6.83441">
        <ele>2775.84</ele>
        <time>2017-01-03T17:57:47Z</time>
      </trkpt>
      <trkpt lat="45.1253" lon="6.83359">
        <ele>2775.19</ele>
        <time>2017-01-03T17:57:51Z</time>
      </trkpt>
      <trkpt lat="45.12542" lon="6.83301">
        <ele>2773.29</ele>
        <time>2017-01-03T17:57:53Z</time>
      </trkpt>
      <trkpt lat="45.12548" lon="6.83328">
        <ele>2781.33</ele>
        <time>2017-01-03T17:57:54Z</time>
      </trkpt>
      <trkpt lat="45.12542" lon="6.83439">
        <ele>2787.67</ele>
        <time>2017-01-03T17:57:58Z</time>
      </trkpt>
      <trkpt lat="45.12582" lon="6.83503">
        <ele>2789.12</ele>
        <time>2017-01-03T17:58:02Z</time>
      </trkpt>
      <trkpt lat="45.12618" lon="6.83563">
        <ele>2790.5</ele>
        <time>2017-01-03T17:58:05Z</time>
      </trkpt>
      <trkpt lat="45.12638" lon="6.83606">
        <ele>2801</ele>
        <time>2017-01-03T17:58:07Z</time>
      </trkpt>
      <trkpt lat="45.12636" lon="6.83677">
        <ele>2811.16</ele>
        <time>2017-01-03T17:58:09Z</time>
      </trkpt>
      <trkpt lat="45.12634" lon="6.83728">
        <ele>2814.71</ele>
        <time>2017-01-03T17:58:11Z</time>
      </trkpt>
      <trkpt lat="45.12706" lon="6.83753">
        <ele>2820.22</ele>
        <time>2017-01-03T17:58:16Z</time>
      </trkpt>
      <trkpt lat="45.12726" lon="6.83745">
        <ele>2821.86</ele>
        <time>2017-01-03T17:58:17Z</time>
      </trkpt>
      <trkpt lat="45.12755" lon="6.83754">
        <ele>2827.49</ele>
        <time>2017-01-03T17:58:18Z</time>
      </trkpt>
      <trkpt lat="45.12779" lon="6.83859">
        <ele>2839.65</ele>
        <time>2017-01-03T17:58:23Z</time>
      </trkpt>
      <trkpt lat="45.12806" lon="6.83928">
        <ele>2837.28</ele>
        <time>2017-01-03T17:58:26Z</time>
      </trkpt>
      <trkpt lat="45.12858" lon="6.83975">
        <ele>2849.38</ele>
        <time>2017-01-03T17:58:29Z</time>
      </trkpt>
      <trkpt lat="45.12925" lon="6.83898">
        <ele>2856.57</ele>
        <time>2017-01-03T17:58:34Z</time>
      </trkpt>
      <trkpt lat="45.1294" lon="6.83818">
        <ele>2862.17</ele>
        <time>2017-01-03T17:58:37Z</time>
      </trkpt>
      <trkpt lat="45.12927" lon="6.83661">
        <ele>2868.5</ele>
        <time>2017-01-03T17:58:43Z</time>
      </trkpt>
      <trkpt lat="45.12983" lon="6.8382">
        <ele>2880.41</ele>
        <time>2017-01-03T17:58:50Z</time>
      </trkpt>
      <trkpt lat="45.13033" lon="6.83947">
        <ele>2886.99</ele>
        <time>2017-01-03T17:58:56Z</time>
      </trkpt>
      <trkpt lat="45.13045" lon="6.84015">
        <ele>2893.47</ele>
        <time>2017-01-03T17:58:58Z</time>
      </trkpt>
      <trkpt lat="45.13051" lon="6.83927">
        <ele>2895.35</ele>
        <time>2017-01-03T17:59:02Z</time>
      </trkpt>
      <trkpt lat="45.13031" lon="6.8381">
        <ele>2905.93</ele>
        <time>2017-01-03T17:59:06Z</time>
      </trkpt>
      <trkpt lat="45.12999" lon="6.83585">
        <ele>2913.04</ele>
        <time>2017-01-03T17:59:15Z</time>
      </trkpt>
      <trkpt lat="45.13078" lon="6.83803">
        <ele>2927.78</ele>
        <time>2017-01-03T17:59:25Z</time>
      </trkpt>
      <trkpt lat="45.13118" lon="6.83884">
        <ele>2940.04</ele>
        <time>2017-01-03T17:59:28Z</time>
      </trkpt>
      <trkpt lat="45.13145" lon="6.83979">
        <ele>2945.04</ele>
        <time>2017-01-03T17:59:32Z</time>
      </trkpt>
      <trkpt lat="45.13177" lon="6.84122">
        <ele>2950.75</ele>
        <time>2017-01-03T17:59:38Z</time>
      </trkpt>
      <trkpt lat="45.1323" lon="6.84238">
        <ele>2964.67</ele>
        <time>2017-01-03T17:59:44Z</time>
      </trkpt>
      <trkpt lat="45.13297" lon="6.84317">
        <ele>2972.52</ele>
        <time>2017-01-03T17:59:48Z</time>
      </trkpt>
      <trkpt lat="45.13308" lon="6.84398">
        <ele>2969.02</ele>
        <time>2017-01-03T17:59:52Z</time>
      </trkpt>
      <trkpt lat="45.13319" lon="6.84377">
        <ele>2969.42</ele>
        <time>2017-01-03T17:59:53Z</time>
      </trkpt>
      <trkpt lat="45.13331" lon="6.8434">
        <ele>2977.34</ele>
        <time>2017-01-03T17:59:55Z</time>
      </trkpt>
      <trkpt lat="45.13342" lon="6.84406">
        <ele>2975.67</ele>
        <time>2017-01-03T17:59:57Z</time>
      </trkpt>
      <trkpt lat="45.13353" lon="6.84426">
        <ele>2981.36</ele>
        <time>2017-01-03T17:59:58Z</time>
      </trkpt>
      <trkpt lat="45.13369" lon="6.84423">
        <ele>2985.05</ele>
        <time>2017-01-03T17:59:59Z</time>
      </trkpt>
      <trkpt lat="45.13403" lon="6.84416">
        <ele>2994.51</ele>
        <time>2017-01-03T18:00:01Z</time>
      </trkpt>
      <trkpt lat="45.13426" lon="6.84462">
        <ele>2997.5</ele>
        <time>2017-01-03T18:00:03Z</time>
      </trkpt>
      <trkpt lat="45.13403" lon="6.84416">
        <ele>2994.51</ele>
        <time>2017-01-03T18:00:05Z</time>
      </trkpt>
      <trkpt lat="45.13369" lon="6.84423">
        <ele>2985.05</ele>
        <time>2017-01-03T18:00:07Z</time>
      </trkpt>
      <trkpt lat="45.13353" lon="6.84426">
        <ele>2981.36</ele>
        <time>2017-01-03T18:00:08Z</time>
      </trkpt>
      <trkpt lat="45.13342" lon="6.84406">
        <ele>2975.67</ele>
        <time>2017-01-03T18:00:09Z</time>
      </trkpt>
      <trkpt lat="45.13331" lon="6.8434">
        <ele>2977.34</ele>
        <time>2017-01-03T18:00:12Z</time>
      </trkpt>
      <trkpt lat="45.13319" lon="6.84377">
        <ele>2969.42</ele>
        <time>2017-01-03T18:00:13Z</time>
      </trkpt>
      <trkpt lat="45.13314" lon="6.84405">
        <ele>2971.07</ele>
        <time>2017-01-03T18:00:15Z</time>
      </trkpt>
      <trkpt lat="45.13297" lon="6.84317">
        <ele>2972.52</ele>
        <time>2017-01-03T18:00:18Z</time>
      </trkpt>
      <trkpt lat="45.1323" lon="6.84238">
        <ele>2964.67</ele>
        <time>2017-01-03T18:00:23Z</time>
      </trkpt>
      <trkpt lat="45.13177" lon="6.84122">
        <ele>2950.75</ele>
        <time>2017-01-03T18:00:28Z</time>
      </trkpt>
      <trkpt lat="45.13118" lon="6.83884">
        <ele>2940.04</ele>
        <time>2017-01-03T18:00:38Z</time>
      </trkpt>
      <trkpt lat="45.13078" lon="6.83803">
        <ele>2927.78</ele>
        <time>2017-01-03T18:00:42Z</time>
      </trkpt>
      <trkpt lat="45.13028" lon="6.83656">
        <ele>2920.27</ele>
        <time>2017-01-03T18:00:48Z</time>
      </trkpt>
      <trkpt lat="45.12999" lon="6.83585">
        <ele>2913.04</ele>
        <time>2017-01-03T18:00:51Z</time>
      </trkpt>
      <trkpt lat="45.13011" lon="6.83658">
        <ele>2910.69</ele>
        <time>2017-01-03T18:00:54Z</time>
      </trkpt>
      <trkpt lat="45.13051" lon="6.83927">
        <ele>2895.35</ele>
        <time>2017-01-03T18:01:05Z</time>
      </trkpt>
      <trkpt lat="45.13045" lon="6.84015">
        <ele>2893.47</ele>
        <time>2017-01-03T18:01:08Z</time>
      </trkpt>
      <trkpt lat="45.13033" lon="6.83947">
        <ele>2886.99</ele>
        <time>2017-01-03T18:01:11Z</time>
      </trkpt>
      <trkpt lat="45.12958" lon="6.83735">
        <ele>2873.28</ele>
        <time>2017-01-03T18:01:20Z</time>
      </trkpt>
      <trkpt lat="45.12927" lon="6.83661">
        <ele>2868.5</ele>
        <time>2017-01-03T18:01:23Z</time>
      </trkpt>
      <trkpt lat="45.12923" lon="6.83681">
        <ele>2864.53</ele>
        <time>2017-01-03T18:01:24Z</time>
      </trkpt>
      <trkpt lat="45.1294" lon="6.83818">
        <ele>2862.17</ele>
        <time>2017-01-03T18:01:30Z</time>
      </trkpt>
      <trkpt lat="45.12925" lon="6.83898">
        <ele>2856.57</ele>
        <time>2017-01-03T18:01:33Z</time>
      </trkpt>
      <trkpt lat="45.12858" lon="6.83975">
        <ele>2849.38</ele>
        <time>2017-01-03T18:01:38Z</time>
      </trkpt>
      <trkpt lat="45.12806" lon="6.83928">
        <ele>2837.28</ele>
        <time>2017-01-03T18:01:41Z</time>
      </trkpt>
      <trkpt lat="45.12779" lon="6.83859">
        <ele>2839.65</ele>
        <time>2017-01-03T18:01:44Z</time>
      </trkpt>
      <trkpt lat="45.12755" lon="6.83754">
        <ele>2827.49</ele>
        <time>2017-01-03T18:01:48Z</time>
      </trkpt>
      <trkpt lat="45.12726" lon="6.83745">
        <ele>2821.86</ele>
        <time>2017-01-03T18:01:50Z</time>
      </trkpt>
      <trkpt lat="45.12706" lon="6.83753">
        <ele>2820.22</ele>
        <time>2017-01-03T18:01:51Z</time>
      </trkpt>
      <trkpt lat="45.12634" lon="6.83728">
        <ele>2814.71</ele>
        <time>2017-01-03T18:01:55Z</time>
      </trkpt>
      <trkpt lat="45.12636" lon="6.83677">
        <ele>2811.16</ele>
        <time>2017-01-03T18:01:57Z</time>
      </trkpt>
      <trkpt lat="45.12638" lon="6.83606">
        <ele>2801</ele>
        <time>2017-01-03T18:02:00Z</time>
      </trkpt>
      <trkpt lat="45.12618" lon="6.83563">
        <ele>2790.5</ele>
        <time>2017-01-03T18:02:02Z</time>
      </trkpt>
      <trkpt lat="45.12542" lon="6.83439">
        <ele>2787.67</ele>
        <time>2017-01-03T18:02:08Z</time>
      </trkpt>
      <trkpt lat="45.12548" lon="6.83328">
        <ele>2781.33</ele>
        <time>2017-01-03T18:02:12Z</time>
      </trkpt>
      <trkpt lat="45.12542" lon="6.83301">
        <ele>2773.29</ele>
        <time>2017-01-03T18:02:14Z</time>
      </trkpt>
      <trkpt lat="45.1253" lon="6.83359">
        <ele>2775.19</ele>
        <time>2017-01-03T18:02:16Z</time>
      </trkpt>
      <trkpt lat="45.1252" lon="6.83441">
        <ele>2775.84</ele>
        <time>2017-01-03T18:02:19Z</time>
      </trkpt>
      <trkpt lat="45.12522" lon="6.83465">
        <ele>2773.18</ele>
        <time>2017-01-03T18:02:20Z</time>
      </trkpt>
      <trkpt lat="45.12503" lon="6.83366">
        <ele>2762.78</ele>
        <time>2017-01-03T18:02:24Z</time>
      </trkpt>
      <trkpt lat="45.12507" lon="6.83228">
        <ele>2749.57</ele>
        <time>2017-01-03T18:02:29Z</time>
      </trkpt>
      <trkpt lat="45.12507" lon="6.8321">
        <ele>2748.05</ele>
        <time>2017-01-03T18:02:30Z</time>
      </trkpt>
      <trkpt lat="45.1246" lon="6.83413">
        <ele>2743.34</ele>
        <time>2017-01-03T18:02:39Z</time>
      </trkpt>
      <trkpt lat="45.12464" lon="6.83495">
        <ele>2737.48</ele>
        <time>2017-01-03T18:02:42Z</time>
      </trkpt>
      <trkpt lat="45.12455" lon="6.83502">
        <ele>2732.82</ele>
        <time>2017-01-03T18:02:42Z</time>
      </trkpt>
      <trkpt lat="45.12441" lon="6.83302">
        <ele>2720.22</ele>
        <time>2017-01-03T18:02:50Z</time>
      </trkpt>
      <trkpt lat="45.12444" lon="6.83159">
        <ele>2707.93</ele>
        <time>2017-01-03T18:02:56Z</time>
      </trkpt>
      <trkpt lat="45.12435" lon="6.83008">
        <ele>2702.19</ele>
        <time>2017-01-03T18:03:02Z</time>
      </trkpt>
      <trkpt lat="45.12436" lon="6.82986">
        <ele>2700.03</ele>
        <time>2017-01-03T18:03:02Z</time>
      </trkpt>
      <trkpt lat="45.12422" lon="6.83107">
        <ele>2694.84</ele>
        <time>2017-01-03T18:03:07Z</time>
      </trkpt>
      <trkpt lat="45.12397" lon="6.83237">
        <ele>2695.28</ele>
        <time>2017-01-03T18:03:12Z</time>
      </trkpt>
      <trkpt lat="45.12346" lon="6.83345">
        <ele>2685.96</ele>
        <time>2017-01-03T18:03:17Z</time>
      </trkpt>
      <trkpt lat="45.12338" lon="6.83357">
        <ele>2683.03</ele>
        <time>2017-01-03T18:03:18Z</time>
      </trkpt>
      <trkpt lat="45.12337" lon="6.83342">
        <ele>2681.38</ele>
        <time>2017-01-03T18:03:19Z</time>
      </trkpt>
      <trkpt lat="45.12356" lon="6.83248">
        <ele>2677.87</ele>
        <time>2017-01-03T18:03:22Z</time>
      </trkpt>
      <trkpt lat="45.12371" lon="6.83155">
        <ele>2671.52</ele>
        <time>2017-01-03T18:03:26Z</time>
      </trkpt>
      <trkpt lat="45.12366" lon="6.83039">
        <ele>2665.71</ele>
        <time>2017-01-03T18:03:31Z</time>
      </trkpt>
      <trkpt lat="45.12375" lon="6.82907">
        <ele>2655.11</ele>
        <time>2017-01-03T18:03:36Z</time>
      </trkpt>
      <trkpt lat="45.12335" lon="6.83018">
        <ele>2648.8</ele>
        <time>2017-01-03T18:03:41Z</time>
      </trkpt>
      <trkpt lat="45.12299" lon="6.8308">
        <ele>2644.11</ele>
        <time>2017-01-03T18:03:44Z</time>
      </trkpt>
      <trkpt lat="45.12262" lon="6.83125">
        <ele>2638.88</ele>
        <time>2017-01-03T18:03:47Z</time>
      </trkpt>
      <trkpt lat="45.12247" lon="6.83138">
        <ele>2638.41</ele>
        <time>2017-01-03T18:03:48Z</time>
      </trkpt>
      <trkpt lat="45.12245" lon="6.8312">
        <ele>2635</ele>
        <time>2017-01-03T18:03:49Z</time>
      </trkpt>
      <trkpt lat="45.12257" lon="6.83019">
        <ele>2628.82</ele>
        <time>2017-01-03T18:03:53Z</time>
      </trkpt>
      <trkpt lat="45.12285" lon="6.82933">
        <ele>2624.02</ele>
        <time>2017-01-03T18:03:56Z</time>
      </trkpt>
      <trkpt lat="45.12294" lon="6.82892">
        <ele>2621.9</ele>
        <time>2017-01-03T18:03:58Z</time>
      </trkpt>
      <trkpt lat="45.12252" lon="6.82938">
        <ele>2615.63</ele>
        <time>2017-01-03T18:04:01Z</time>
      </trkpt>
      <trkpt lat="45.1223" lon="6.82945">
        <ele>2612.49</ele>
        <time>2017-01-03T18:04:02Z</time>
      </trkpt>
      <trkpt lat="45.12183" lon="6.82917">
        <ele>2609.56</ele>
        <time>2017-01-03T18:04:05Z</time>
      </trkpt>
      <trkpt lat="45.1218" lon="6.82898">
        <ele>2608.49</ele>
        <time>2017-01-03T18:04:06Z</time>
      </trkpt>
      <trkpt lat="45.12214" lon="6.82874">
        <ele>2608.07</ele>
        <time>2017-01-03T18:04:08Z</time>
      </trkpt>
      <trkpt lat="45.12234" lon="6.82851">
        <ele>2609.49</ele>
        <time>2017-01-03T18:04:09Z</time>
      </trkpt>
      <trkpt lat="45.12236" lon="6.82786">
        <ele>2604.23</ele>
        <time>2017-01-03T18:04:12Z</time>
      </trkpt>
      <trkpt lat="45.12245" lon="6.82664">
        <ele>2595.75</ele>
        <time>2017-01-03T18:04:16Z</time>
      </trkpt>
      <trkpt lat="45.12236" lon="6.82534">
        <ele>2579.56</ele>
        <time>2017-01-03T18:04:22Z</time>
      </trkpt>
      <trkpt lat="45.12255" lon="6.82462">
        <ele>2578.75</ele>
        <time>2017-01-03T18:04:24Z</time>
      </trkpt>
      <trkpt lat="45.12253" lon="6.81972">
        <ele>2571.54</ele>
        <time>2017-01-03T18:04:43Z</time>
      </trkpt>
      <trkpt lat="45.12205" lon="6.81781">
        <ele>2573.46</ele>
        <time>2017-01-03T18:04:51Z</time>
      </trkpt>
      <trkpt lat="45.12224" lon="6.81711">
        <ele>2568.67</ele>
        <time>2017-01-03T18:04:54Z</time>
      </trkpt>
      <trkpt lat="45.12214" lon="6.81705">
        <ele>2572.19</ele>
        <time>2017-01-03T18:04:55Z</time>
      </trkpt>
      <trkpt lat="45.12194" lon="6.8175">
        <ele>2575.13</ele>
        <time>2017-01-03T18:04:57Z</time>
      </trkpt>
      <trkpt lat="45.12171" lon="6.81771">
        <ele>2582.51</ele>
        <time>2017-01-03T18:04:58Z</time>
      </trkpt>
      <trkpt lat="45.12133" lon="6.81769">
        <ele>2586.28</ele>
        <time>2017-01-03T18:05:00Z</time>
      </trkpt>
      <trkpt lat="45.12081" lon="6.81774">
        <ele>2580.27</ele>
        <time>2017-01-03T18:05:03Z</time>
      </trkpt>
      <trkpt lat="45.11996" lon="6.81806">
        <ele>2565.71</ele>
        <time>2017-01-03T18:05:08Z</time>
      </trkpt>
      <trkpt lat="45.11919" lon="6.81846">
        <ele>2567.82</ele>
        <time>2017-01-03T18:05:13Z</time>
      </trkpt>
      <trkpt lat="45.11973" lon="6.81764">
        <ele>2552.14</ele>
        <time>2017-01-03T18:05:17Z</time>
      </trkpt>
      <trkpt lat="45.12" lon="6.81716">
        <ele>2550.55</ele>
        <time>2017-01-03T18:05:19Z</time>
      </trkpt>
      <trkpt lat="45.11999" lon="6.81586">
        <ele>2538.98</ele>
        <time>2017-01-03T18:05:24Z</time>
      </trkpt>
      <trkpt lat="45.12017" lon="6.81528">
        <ele>2533.28</ele>
        <time>2017-01-03T18:05:27Z</time>
      </trkpt>
      <trkpt lat="45.12056" lon="6.81489">
        <ele>2520.83</ele>
        <time>2017-01-03T18:05:29Z</time>
      </trkpt>
      <trkpt lat="45.1213" lon="6.81463">
        <ele>2515.17</ele>
        <time>2017-01-03T18:05:34Z</time>
      </trkpt>
      <trkpt lat="45.12191" lon="6.81409">
        <ele>2508.92</ele>
        <time>2017-01-03T18:05:38Z</time>
      </trkpt>
      <trkpt lat="45.12134" lon="6.81424">
        <ele>2505.48</ele>
        <time>2017-01-03T18:05:41Z</time>
      </trkpt>
      <trkpt lat="45.12099" lon="6.81421">
        <ele>2499.71</ele>
        <time>2017-01-03T18:05:43Z</time>
      </trkpt>
      <trkpt lat="45.12108" lon="6.81397">
        <ele>2497.9</ele>
        <time>2017-01-03T18:05:44Z</time>
      </trkpt>
      <trkpt lat="45.12175" lon="6.81356">
        <ele>2498.58</ele>
        <time>2017-01-03T18:05:48Z</time>
      </trkpt>
      <trkpt lat="45.12176" lon="6.81335">
        <ele>2494.03</ele>
        <time>2017-01-03T18:05:48Z</time>
      </trkpt>
      <trkpt lat="45.12151" lon="6.81296">
        <ele>2486.67</ele>
        <time>2017-01-03T18:05:51Z</time>
      </trkpt>
      <trkpt lat="45.12141" lon="6.81184">
        <ele>2478.63</ele>
        <time>2017-01-03T18:05:55Z</time>
      </trkpt>
      <trkpt lat="45.12146" lon="6.81032">
        <ele>2472.46</ele>
        <time>2017-01-03T18:06:01Z</time>
      </trkpt>
      <trkpt lat="45.12205" lon="6.80866">
        <ele>2456.04</ele>
        <time>2017-01-03T18:06:08Z</time>
      </trkpt>
      <trkpt lat="45.12265" lon="6.80779">
        <ele>2452.3</ele>
        <time>2017-01-03T18:06:13Z</time>
      </trkpt>
      <trkpt lat="45.12336" lon="6.80743">
        <ele>2450.11</ele>
        <time>2017-01-03T18:06:17Z</time>
      </trkpt>
      <trkpt lat="45.1239" lon="6.80768">
        <ele>2440.96</ele>
        <time>2017-01-03T18:06:20Z</time>
      </trkpt>
      <trkpt lat="45.12421" lon="6.80724">
        <ele>2442.34</ele>
        <time>2017-01-03T18:06:22Z</time>
      </trkpt>
      <trkpt lat="45.12478" lon="6.80686">
        <ele>2424.21</ele>
        <time>2017-01-03T18:06:26Z</time>
      </trkpt>
      <trkpt lat="45.12494" lon="6.80655">
        <ele>2421.33</ele>
        <time>2017-01-03T18:06:27Z</time>
      </trkpt>
      <trkpt lat="45.12523" lon="6.80603">
        <ele>2417.8</ele>
        <time>2017-01-03T18:06:30Z</time>
      </trkpt>
      <trkpt lat="45.12525" lon="6.80568">
        <ele>2422.14</ele>
        <time>2017-01-03T18:06:31Z</time>
      </trkpt>
      <trkpt lat="45.12562" lon="6.8052">
        <ele>2410.82</ele>
        <time>2017-01-03T18:06:34Z</time>
      </trkpt>
      <trkpt lat="45.12584" lon="6.8047">
        <ele>2407.73</ele>
        <time>2017-01-03T18:06:36Z</time>
      </trkpt>
      <trkpt lat="45.12648" lon="6.80388">
        <ele>2389.31</ele>
        <time>2017-01-03T18:06:41Z</time>
      </trkpt>
      <trkpt lat="45.12613" lon="6.80502">
        <ele>2395.91</ele>
        <time>2017-01-03T18:06:46Z</time>
      </trkpt>
      <trkpt lat="45.12629" lon="6.80509">
        <ele>2389.45</ele>
        <time>2017-01-03T18:06:47Z</time>
      </trkpt>
      <trkpt lat="45.12675" lon="6.80432">
        <ele>2380.79</ele>
        <time>2017-01-03T18:06:51Z</time>
      </trkpt>
      <trkpt lat="45.12706" lon="6.80354">
        <ele>2365.65</ele>
        <time>2017-01-03T18:06:54Z</time>
      </trkpt>
      <trkpt lat="45.12706" lon="6.80331">
        <ele>2362.06</ele>
        <time>2017-01-03T18:06:55Z</time>
      </trkpt>
      <trkpt lat="45.12717" lon="6.80375">
        <ele>2365.22</ele>
        <time>2017-01-03T18:06:57Z</time>
      </trkpt>
      <trkpt lat="45.12764" lon="6.80495">
        <ele>2365.69</ele>
        <time>2017-01-03T18:07:02Z</time>
      </trkpt>
      <trkpt lat="45.12769" lon="6.80475">
        <ele>2362.35</ele>
        <time>2017-01-03T18:07:03Z</time>
      </trkpt>
      <trkpt lat="45.12748" lon="6.80399">
        <ele>2361.05</ele>
        <time>2017-01-03T18:07:06Z</time>
      </trkpt>
      <trkpt lat="45.12814" lon="6.80475">
        <ele>2344.71</ele>
        <time>2017-01-03T18:07:11Z</time>
      </trkpt>
      <trkpt lat="45.12769" lon="6.80363">
        <ele>2341.58</ele>
        <time>2017-01-03T18:07:16Z</time>
      </trkpt>
      <trkpt lat="45.12822" lon="6.80423">
        <ele>2326.32</ele>
        <time>2017-01-03T18:07:20Z</time>
      </trkpt>
      <trkpt lat="45.12854" lon="6.8044">
        <ele>2319.19</ele>
        <time>2017-01-03T18:07:22Z</time>
      </trkpt>
      <trkpt lat="45.12817" lon="6.80377">
        <ele>2313.3</ele>
        <time>2017-01-03T18:07:25Z</time>
      </trkpt>
      <trkpt lat="45.1279" lon="6.80322">
        <ele>2323.42</ele>
        <time>2017-01-03T18:07:27Z</time>
      </trkpt>
      <trkpt lat="45.12861" lon="6.80396">
        <ele>2306.83</ele>
        <time>2017-01-03T18:07:32Z</time>
      </trkpt>
      <trkpt lat="45.12806" lon="6.80298">
        <ele>2291.38</ele>
        <time>2017-01-03T18:07:37Z</time>
      </trkpt>
      <trkpt lat="45.12859" lon="6.80336">
        <ele>2280.11</ele>
        <time>2017-01-03T18:07:41Z</time>
      </trkpt>
      <trkpt lat="45.12895" lon="6.80349">
        <ele>2280.08</ele>
        <time>2017-01-03T18:07:43Z</time>
      </trkpt>
      <trkpt lat="45.12869" lon="6.80321">
        <ele>2272.58</ele>
        <time>2017-01-03T18:07:44Z</time>
      </trkpt>
      <trkpt lat="45.12817" lon="6.80227">
        <ele>2282.04</ele>
        <time>2017-01-03T18:07:49Z</time>
      </trkpt>
      <trkpt lat="45.1286" lon="6.80181">
        <ele>2257.52</ele>
        <time>2017-01-03T18:07:52Z</time>
      </trkpt>
      <trkpt lat="45.12864" lon="6.80115">
        <ele>2263.64</ele>
        <time>2017-01-03T18:07:55Z</time>
      </trkpt>
      <trkpt lat="45.12933" lon="6.79985">
        <ele>2249.05</ele>
        <time>2017-01-03T18:08:01Z</time>
      </trkpt>
      <trkpt lat="45.1292" lon="6.80131">
        <ele>2236.62</ele>
        <time>2017-01-03T18:08:06Z</time>
      </trkpt>
      <trkpt lat="45.12981" lon="6.79929">
        <ele>2224.64</ele>
        <time>2017-01-03T18:08:15Z</time>
      </trkpt>
      <trkpt lat="45.12986" lon="6.80055">
        <ele>2210.52</ele>
        <time>2017-01-03T18:08:20Z</time>
      </trkpt>
      <trkpt lat="45.13004" lon="6.80166">
        <ele>2202.57</ele>
        <time>2017-01-03T18:08:24Z</time>
      </trkpt>
      <trkpt lat="45.13" lon="6.80217">
        <ele>2202.19</ele>
        <time>2017-01-03T18:08:26Z</time>
      </trkpt>
      <trkpt lat="45.13029" lon="6.80159">
        <ele>2194.82</ele>
        <time>2017-01-03T18:08:29Z</time>
      </trkpt>
      <trkpt lat="45.13043" lon="6.80053">
        <ele>2190.42</ele>
        <time>2017-01-03T18:08:33Z</time>
      </trkpt>
      <trkpt lat="45.13042" lon="6.80002">
        <ele>2189.05</ele>
        <time>2017-01-03T18:08:35Z</time>
      </trkpt>
      <trkpt lat="45.13084" lon="6.79889">
        <ele>2178.83</ele>
        <time>2017-01-03T18:08:40Z</time>
      </trkpt>
      <trkpt lat="45.13151" lon="6.79761">
        <ele>2169.89</ele>
        <time>2017-01-03T18:08:46Z</time>
      </trkpt>
      <trkpt lat="45.13186" lon="6.79737">
        <ele>2164.28</ele>
        <time>2017-01-03T18:08:48Z</time>
      </trkpt>
      <trkpt lat="45.13256" lon="6.79665">
        <ele>2156.44</ele>
        <time>2017-01-03T18:08:53Z</time>
      </trkpt>
      <trkpt lat="45.13321" lon="6.79603">
        <ele>2154.36</ele>
        <time>2017-01-03T18:08:57Z</time>
      </trkpt>
      <trkpt lat="45.13355" lon="6.79559">
        <ele>2145.72</ele>
        <time>2017-01-03T18:09:00Z</time>
      </trkpt>
      <trkpt lat="45.13396" lon="6.79455">
        <ele>2141.11</ele>
        <time>2017-01-03T18:09:05Z</time>
      </trkpt>
      <trkpt lat="45.13429" lon="6.79332">
        <ele>2131.44</ele>
        <time>2017-01-03T18:09:10Z</time>
      </trkpt>
      <trkpt lat="45.13451" lon="6.79289">
        <ele>2127.96</ele>
        <time>2017-01-03T18:09:12Z</time>
      </trkpt>
      <trkpt lat="45.13467" lon="6.79208">
        <ele>2127.86</ele>
        <time>2017-01-03T18:09:15Z</time>
      </trkpt>
      <trkpt lat="45.13531" lon="6.79101">
        <ele>2128.4</ele>
        <time>2017-01-03T18:09:20Z</time>
      </trkpt>
      <trkpt lat="45.1357" lon="6.79026">
        <ele>2118.25</ele>
        <time>2017-01-03T18:09:24Z</time>
      </trkpt>
      <trkpt lat="45.13694" lon="6.78831">
        <ele>2110.86</ele>
        <time>2017-01-03T18:09:34Z</time>
      </trkpt>
      <trkpt lat="45.13775" lon="6.78668">
        <ele>2098.7</ele>
        <time>2017-01-03T18:09:42Z</time>
      </trkpt>
      <trkpt lat="45.13793" lon="6.78568">
        <ele>2087.82</ele>
        <time>2017-01-03T18:09:46Z</time>
      </trkpt>
      <trkpt lat="45.13806" lon="6.78478">
        <ele>2072.7</ele>
        <time>2017-01-03T18:09:49Z</time>
      </trkpt>
      <trkpt lat="45.13832" lon="6.78434">
        <ele>2075.68</ele>
        <time>2017-01-03T18:09:52Z</time>
      </trkpt>
      <trkpt lat="45.13866" lon="6.7841">
        <ele>2079.8</ele>
        <time>2017-01-03T18:09:54Z</time>
      </trkpt>
      <trkpt lat="45.13861" lon="6.78357">
        <ele>2065.94</ele>
        <time>2017-01-03T18:09:56Z</time>
      </trkpt>
      <trkpt lat="45.13902" lon="6.78262">
        <ele>2067.16</ele>
        <time>2017-01-03T18:10:00Z</time>
      </trkpt>
      <trkpt lat="45.13916" lon="6.78069">
        <ele>2047.54</ele>
        <time>2017-01-03T18:10:08Z</time>
      </trkpt>
      <trkpt lat="45.13888" lon="6.7813">
        <ele>2041.76</ele>
        <time>2017-01-03T18:10:10Z</time>
      </trkpt>
      <trkpt lat="45.13864" lon="6.78174">
        <ele>2042.99</ele>
        <time>2017-01-03T18:10:13Z</time>
      </trkpt>
      <trkpt lat="45.13803" lon="6.78189">
        <ele>2028.31</ele>
        <time>2017-01-03T18:10:16Z</time>
      </trkpt>
      <trkpt lat="45.13793" lon="6.78183">
        <ele>2026.63</ele>
        <time>2017-01-03T18:10:16Z</time>
      </trkpt>
      <trkpt lat="45.13822" lon="6.78133">
        <ele>2025.67</ele>
        <time>2017-01-03T18:10:19Z</time>
      </trkpt>
      <trkpt lat="45.13854" lon="6.78091">
        <ele>2024.08</ele>
        <time>2017-01-03T18:10:21Z</time>
      </trkpt>
      <trkpt lat="45.13862" lon="6.78046">
        <ele>2019.22</ele>
        <time>2017-01-03T18:10:23Z</time>
      </trkpt>
      <trkpt lat="45.13891" lon="6.77899">
        <ele>2008.4</ele>
        <time>2017-01-03T18:10:29Z</time>
      </trkpt>
      <trkpt lat="45.13875" lon="6.77766">
        <ele>2002.36</ele>
        <time>2017-01-03T18:10:34Z</time>
      </trkpt>
      <trkpt lat="45.13837" lon="6.77721">
        <ele>2000.85</ele>
        <time>2017-01-03T18:10:37Z</time>
      </trkpt>
      <trkpt lat="45.13846" lon="6.77466">
        <ele>2005.71</ele>
        <time>2017-01-03T18:10:47Z</time>
      </trkpt>
      <trkpt lat="45.13835" lon="6.77245">
        <ele>2012.38</ele>
        <time>2017-01-03T18:10:55Z</time>
      </trkpt>
      <trkpt lat="45.13841" lon="6.77091">
        <ele>2003.1</ele>
        <time>2017-01-03T18:11:01Z</time>
      </trkpt>
      <trkpt lat="45.13821" lon="6.76971">
        <ele>1997.92</ele>
        <time>2017-01-03T18:11:06Z</time>
      </trkpt>
      <trkpt lat="45.13671" lon="6.76734">
        <ele>1994.87</ele>
        <time>2017-01-03T18:11:18Z</time>
      </trkpt>
      <trkpt lat="45.13619" lon="6.7669">
        <ele>1999.81</ele>
        <time>2017-01-03T18:11:22Z</time>
      </trkpt>
      <trkpt lat="45.13579" lon="6.76662">
        <ele>2001.71</ele>
        <time>2017-01-03T18:11:24Z</time>
      </trkpt>
      <trkpt lat="45.13557" lon="6.7663">
        <ele>1996.86</ele>
        <time>2017-01-03T18:11:26Z</time>
      </trkpt>
      <trkpt lat="45.13528" lon="6.76617">
        <ele>1996.11</ele>
        <time>2017-01-03T18:11:28Z</time>
      </trkpt>
      <trkpt lat="45.1339" lon="6.76592">
        <ele>1998.18</ele>
        <time>2017-01-03T18:11:35Z</time>
      </trkpt>
      <trkpt lat="45.1332" lon="6.76599">
        <ele>1987.51</ele>
        <time>2017-01-03T18:11:39Z</time>
      </trkpt>
      <trkpt lat="45.13272" lon="6.7664">
        <ele>2003.4</ele>
        <time>2017-01-03T18:11:42Z</time>
      </trkpt>
      <trkpt lat="45.13202" lon="6.76643">
        <ele>2000.81</ele>
        <time>2017-01-03T18:11:46Z</time>
      </trkpt>
      <trkpt lat="45.13124" lon="6.76633">
        <ele>2001.12</ele>
        <time>2017-01-03T18:11:50Z</time>
      </trkpt>
      <trkpt lat="45.13044" lon="6.76665">
        <ele>2004.29</ele>
        <time>2017-01-03T18:11:55Z</time>
      </trkpt>
      <trkpt lat="45.12992" lon="6.76691">
        <ele>2001.81</ele>
        <time>2017-01-03T18:11:58Z</time>
      </trkpt>
      <trkpt lat="45.12889" lon="6.76711">
        <ele>1997.55</ele>
        <time>2017-01-03T18:12:04Z</time>
      </trkpt>
      <trkpt lat="45.12814" lon="6.76718">
        <ele>1987.8</ele>
        <time>2017-01-03T18:12:08Z</time>
      </trkpt>
      <trkpt lat="45.12743" lon="6.76791">
        <ele>1998.56</ele>
        <time>2017-01-03T18:12:13Z</time>
      </trkpt>
      <trkpt lat="45.12673" lon="6.76822">
        <ele>1993.32</ele>
        <time>2017-01-03T18:12:17Z</time>
      </trkpt>
      <trkpt lat="45.12583" lon="6.76904">
        <ele>1989.74</ele>
        <time>2017-01-03T18:12:22Z</time>
      </trkpt>
      <trkpt lat="45.12524" lon="6.77017">
        <ele>2000.07</ele>
        <time>2017-01-03T18:12:28Z</time>
      </trkpt>
      <trkpt lat="45.12483" lon="6.77054">
        <ele>1997.34</ele>
        <time>2017-01-03T18:12:31Z</time>
      </trkpt>
      <trkpt lat="45.12458" lon="6.77059">
        <ele>1995.42</ele>
        <time>2017-01-03T18:12:32Z</time>
      </trkpt>
      <trkpt lat="45.1243" lon="6.77044">
        <ele>1987.76</ele>
        <time>2017-01-03T18:12:34Z</time>
      </trkpt>
      <trkpt lat="45.12389" lon="6.77044">
        <ele>1982.85</ele>
        <time>2017-01-03T18:12:36Z</time>
      </trkpt>
      <trkpt lat="45.12332" lon="6.77077">
        <ele>1994.81</ele>
        <time>2017-01-03T18:12:39Z</time>
      </trkpt>
      <trkpt lat="45.12299" lon="6.77086">
        <ele>1997.69</ele>
        <time>2017-01-03T18:12:41Z</time>
      </trkpt>
      <trkpt lat="45.12299" lon="6.7705">
        <ele>1998.53</ele>
        <time>2017-01-03T18:12:42Z</time>
      </trkpt>
      <trkpt lat="45.1236" lon="6.76945">
        <ele>1983.56</ele>
        <time>2017-01-03T18:12:48Z</time>
      </trkpt>
      <trkpt lat="45.12406" lon="6.76796">
        <ele>1980.12</ele>
        <time>2017-01-03T18:12:54Z</time>
      </trkpt>
      <trkpt lat="45.12401" lon="6.76675">
        <ele>1968.61</ele>
        <time>2017-01-03T18:12:59Z</time>
      </trkpt>
      <trkpt lat="45.12379" lon="6.76645">
        <ele>1968.89</ele>
        <time>2017-01-03T18:13:00Z</time>
      </trkpt>
      <trkpt lat="45.1231" lon="6.76507">
        <ele>1954.67</ele>
        <time>2017-01-03T18:13:07Z</time>
      </trkpt>
      <trkpt lat="45.12258" lon="6.76393">
        <ele>1942.34</ele>
        <time>2017-01-03T18:13:12Z</time>
      </trkpt>
      <trkpt lat="45.1222" lon="6.76333">
        <ele>1936.32</ele>
        <time>2017-01-03T18:13:15Z</time>
      </trkpt>
      <trkpt lat="45.12058" lon="6.76199">
        <ele>1910.7</ele>
        <time>2017-01-03T18:13:26Z</time>
      </trkpt>
      <trkpt lat="45.12003" lon="6.76195">
        <ele>1911.02</ele>
        <time>2017-01-03T18:13:29Z</time>
      </trkpt>
      <trkpt lat="45.11948" lon="6.76171">
        <ele>1908.88</ele>
        <time>2017-01-03T18:13:32Z</time>
      </trkpt>
      <trkpt lat="45.11927" lon="6.76126">
        <ele>1900.73</ele>
        <time>2017-01-03T18:13:34Z</time>
      </trkpt>
      <trkpt lat="45.11875" lon="6.76072">
        <ele>1890.53</ele>
        <time>2017-01-03T18:13:37Z</time>
      </trkpt>
      <trkpt lat="45.11821" lon="6.76078">
        <ele>1889.32</ele>
        <time>2017-01-03T18:13:40Z</time>
      </trkpt>
      <trkpt lat="45.11802" lon="6.76056">
        <ele>1884.01</ele>
        <time>2017-01-03T18:13:42Z</time>
      </trkpt>
      <trkpt lat="45.11786" lon="6.75927">
        <ele>1873.68</ele>
        <time>2017-01-03T18:13:47Z</time>
      </trkpt>
      <trkpt lat="45.11744" lon="6.75856">
        <ele>1868.12</ele>
        <time>2017-01-03T18:13:50Z</time>
      </trkpt>
      <trkpt lat="45.1172" lon="6.75837">
        <ele>1865.63</ele>
        <time>2017-01-03T18:13:52Z</time>
      </trkpt>
      <trkpt lat="45.11756" lon="6.75801">
        <ele>1858.61</ele>
        <time>2017-01-03T18:13:54Z</time>
      </trkpt>
      <trkpt lat="45.11821" lon="6.75821">
        <ele>1860.49</ele>
        <time>2017-01-03T18:13:58Z</time>
      </trkpt>
      <trkpt lat="45.11827" lon="6.75802">
        <ele>1857.02</ele>
        <time>2017-01-03T18:13:59Z</time>
      </trkpt>
      <trkpt lat="45.11762" lon="6.75743">
        <ele>1848.1</ele>
        <time>2017-01-03T18:14:03Z</time>
      </trkpt>
      <trkpt lat="45.11734" lon="6.75744">
        <ele>1845.88</ele>
        <time>2017-01-03T18:14:04Z</time>
      </trkpt>
      <trkpt lat="45.11706" lon="6.75753">
        <ele>1844.98</ele>
        <time>2017-01-03T18:14:06Z</time>
      </trkpt>
      <trkpt lat="45.11673" lon="6.75724">
        <ele>1835.12</ele>
        <time>2017-01-03T18:14:08Z</time>
      </trkpt>
      <trkpt lat="45.11645" lon="6.75641">
        <ele>1825.27</ele>
        <time>2017-01-03T18:14:12Z</time>
      </trkpt>
      <trkpt lat="45.11616" lon="6.75603">
        <ele>1820.85</ele>
        <time>2017-01-03T18:14:14Z</time>
      </trkpt>
      <trkpt lat="45.11473" lon="6.7552">
        <ele>1805.3</ele>
        <time>2017-01-03T18:14:22Z</time>
      </trkpt>
      <trkpt lat="45.11461" lon="6.75507">
        <ele>1802.71</ele>
        <time>2017-01-03T18:14:23Z</time>
      </trkpt>
      <trkpt lat="45.11479" lon="6.75491">
        <ele>1798.24</ele>
        <time>2017-01-03T18:14:24Z</time>
      </trkpt>
      <trkpt lat="45.11522" lon="6.75478">
        <ele>1796.88</ele>
        <time>2017-01-03T18:14:27Z</time>
      </trkpt>
      <trkpt lat="45.11576" lon="6.7544">
        <ele>1786.09</ele>
        <time>2017-01-03T18:14:30Z</time>
      </trkpt>
      <trkpt lat="45.11631" lon="6.75457">
        <ele>1788.98</ele>
        <time>2017-01-03T18:14:33Z</time>
      </trkpt>
      <trkpt lat="45.11734" lon="6.75483">
        <ele>1776.24</ele>
        <time>2017-01-03T18:14:39Z</time>
      </trkpt>
      <trkpt lat="45.11723" lon="6.75453">
        <ele>1766.68</ele>
        <time>2017-01-03T18:14:40Z</time>
      </trkpt>
      <trkpt lat="45.1167" lon="6.75409">
        <ele>1766.84</ele>
        <time>2017-01-03T18:14:44Z</time>
      </trkpt>
      <trkpt lat="45.11634" lon="6.75387">
        <ele>1764.12</ele>
        <time>2017-01-03T18:14:46Z</time>
      </trkpt>
      <trkpt lat="45.11583" lon="6.75332">
        <ele>1751.3</ele>
        <time>2017-01-03T18:14:49Z</time>
      </trkpt>
      <trkpt lat="45.11546" lon="6.7532">
        <ele>1742.91</ele>
        <time>2017-01-03T18:14:51Z</time>
      </trkpt>
      <trkpt lat="45.11439" lon="6.75278">
        <ele>1729.49</ele>
        <time>2017-01-03T18:14:57Z</time>
      </trkpt>
      <trkpt lat="45.11425" lon="6.75267">
        <ele>1724.52</ele>
        <time>2017-01-03T18:14:58Z</time>
      </trkpt>
      <trkpt lat="45.11493" lon="6.75264">
        <ele>1723.68</ele>
        <time>2017-01-03T18:15:02Z</time>
      </trkpt>
      <trkpt lat="45.11666" lon="6.75286">
        <ele>1706.78</ele>
        <time>2017-01-03T18:15:11Z</time>
      </trkpt>
      <trkpt lat="45.11702" lon="6.75292">
        <ele>1697.02</ele>
        <time>2017-01-03T18:15:13Z</time>
      </trkpt>
      <trkpt lat="45.11576" lon="6.75195">
        <ele>1682.29</ele>
        <time>2017-01-03T18:15:22Z</time>
      </trkpt>
      <trkpt lat="45.11569" lon="6.75181">
        <ele>1677.22</ele>
        <time>2017-01-03T18:15:22Z</time>
      </trkpt>
      <trkpt lat="45.11589" lon="6.75188">
        <ele>1677.39</ele>
        <time>2017-01-03T18:15:24Z</time>
      </trkpt>
      <trkpt lat="45.11663" lon="6.75207">
        <ele>1677.6</ele>
        <time>2017-01-03T18:15:28Z</time>
      </trkpt>
      <trkpt lat="45.11566" lon="6.75125">
        <ele>1660.62</ele>
        <time>2017-01-03T18:15:34Z</time>
      </trkpt>
      <trkpt lat="45.11531" lon="6.75102">
        <ele>1654.82</ele>
        <time>2017-01-03T18:15:36Z</time>
      </trkpt>
      <trkpt lat="45.11487" lon="6.75095">
        <ele>1649.17</ele>
        <time>2017-01-03T18:15:39Z</time>
      </trkpt>
      <trkpt lat="45.11357" lon="6.75059">
        <ele>1633.58</ele>
        <time>2017-01-03T18:15:46Z</time>
      </trkpt>
      <trkpt lat="45.11329" lon="6.75073">
        <ele>1635.2</ele>
        <time>2017-01-03T18:15:47Z</time>
      </trkpt>
      <trkpt lat="45.11307" lon="6.75064">
        <ele>1634.18</ele>
        <time>2017-01-03T18:15:49Z</time>
      </trkpt>
      <trkpt lat="45.1128" lon="6.75035">
        <ele>1636.12</ele>
        <time>2017-01-03T18:15:51Z</time>
      </trkpt>
      <trkpt lat="45.11249" lon="6.74937">
        <ele>1630.66</ele>
        <time>2017-01-03T18:15:55Z</time>
      </trkpt>
      <trkpt lat="45.11194" lon="6.74698">
        <ele>1616.7</ele>
        <time>2017-01-03T18:16:04Z</time>
      </trkpt>
      <trkpt lat="45.11152" lon="6.74446">
        <ele>1597.76</ele>
        <time>2017-01-03T18:16:14Z</time>
      </trkpt>
      <trkpt lat="45.11135" lon="6.74419">
        <ele>1597.66</ele>
        <time>2017-01-03T18:16:16Z</time>
      </trkpt>
      <trkpt lat="45.1106" lon="6.74285">
        <ele>1589.62</ele>
        <time>2017-01-03T18:16:22Z</time>
      </trkpt>
      <trkpt lat="45.11022" lon="6.74221">
        <ele>1585.71</ele>
        <time>2017-01-03T18:16:26Z</time>
      </trkpt>
      <trkpt lat="45.10939" lon="6.74065">
        <ele>1563.59</ele>
        <time>2017-01-03T18:16:33Z</time>
      </trkpt>
      <trkpt lat="45.10831" lon="6.73993">
        <ele>1560.73</ele>
        <time>2017-01-03T18:16:40Z</time>
      </trkpt>
      <trkpt lat="45.10798" lon="6.73954">
        <ele>1558.95</ele>
        <time>2017-01-03T18:16:42Z</time>
      </trkpt>
      <trkpt lat="45.10744" lon="6.73909">
        <ele>1552.62</ele>
        <time>2017-01-03T18:16:46Z</time>
      </trkpt>
      <trkpt lat="45.10725" lon="6.7387">
        <ele>1551.94</ele>
        <time>2017-01-03T18:16:47Z</time>
      </trkpt>
      <trkpt lat="45.10716" lon="6.73847">
        <ele>1550.02</ele>
        <time>2017-01-03T18:16:48Z</time>
      </trkpt>
      <trkpt lat="45.10672" lon="6.73816">
        <ele>1553.73</ele>
        <time>2017-01-03T18:16:51Z</time>
      </trkpt>
      <trkpt lat="45.10639" lon="6.73783">
        <ele>1554.29</ele>
        <time>2017-01-03T18:16:53Z</time>
      </trkpt>
      <trkpt lat="45.10567" lon="6.73649">
        <ele>1547</ele>
        <time>2017-01-03T18:17:00Z</time>
      </trkpt>
      <trkpt lat="45.10511" lon="6.73564">
        <ele>1538.99</ele>
        <time>2017-01-03T18:17:04Z</time>
      </trkpt>
      <trkpt lat="45.10432" lon="6.73516">
        <ele>1539.16</ele>
        <time>2017-01-03T18:17:09Z</time>
      </trkpt>
      <trkpt lat="45.10324" lon="6.73348">
        <ele>1521.88</ele>
        <time>2017-01-03T18:17:18Z</time>
      </trkpt>
      <trkpt lat="45.10165" lon="6.73261">
        <ele>1511.96</ele>
        <time>2017-01-03T18:17:27Z</time>
      </trkpt>
      <trkpt lat="45.10093" lon="6.73248">
        <ele>1499.19</ele>
        <time>2017-01-03T18:17:31Z</time>
      </trkpt>
      <trkpt lat="45.1005" lon="6.73304">
        <ele>1512.96</ele>
        <time>2017-01-03T18:17:34Z</time>
      </trkpt>
      <trkpt lat="45.09988" lon="6.7326">
        <ele>1503.38</ele>
        <time>2017-01-03T18:17:38Z</time>
      </trkpt>
      <trkpt lat="45.09948" lon="6.73214">
        <ele>1493.48</ele>
        <time>2017-01-03T18:17:41Z</time>
      </trkpt>
      <trkpt lat="45.09915" lon="6.73193">
        <ele>1494.95</ele>
        <time>2017-01-03T18:17:43Z</time>
      </trkpt>
      <trkpt lat="45.09891" lon="6.7317">
        <ele>1493.55</ele>
        <time>2017-01-03T18:17:45Z</time>
      </trkpt>
      <trkpt lat="45.09871" lon="6.7315">
        <ele>1495.2</ele>
        <time>2017-01-03T18:17:46Z</time>
      </trkpt>
      <trkpt lat="45.09869" lon="6.73116">
        <ele>1487.91</ele>
        <time>2017-01-03T18:17:47Z</time>
      </trkpt>
      <trkpt lat="45.09868" lon="6.7309">
        <ele>1479.79</ele>
        <time>2017-01-03T18:17:48Z</time>
      </trkpt>
      <trkpt lat="45.09851" lon="6.73077">
        <ele>1482.14</ele>
        <time>2017-01-03T18:17:49Z</time>
      </trkpt>
      <trkpt lat="45.09827" lon="6.73065">
        <ele>1490.57</ele>
        <time>2017-01-03T18:17:51Z</time>
      </trkpt>
      <trkpt lat="45.09819" lon="6.73034">
        <ele>1490.81</ele>
        <time>2017-01-03T18:17:52Z</time>
      </trkpt>
      <trkpt lat="45.09829" lon="6.72939">
        <ele>1479.79</ele>
        <time>2017-01-03T18:17:56Z</time>
      </trkpt>
      <trkpt lat="45.09818" lon="6.72839">
        <ele>1469.14</ele>
        <time>2017-01-03T18:18:00Z</time>
      </trkpt>
      <trkpt lat="45.09771" lon="6.7276">
        <ele>1459.85</ele>
        <time>2017-01-03T18:18:04Z</time>
      </trkpt>
      <trkpt lat="45.09741" lon="6.72766">
        <ele>1466.01</ele>
        <time>2017-01-03T18:18:05Z</time>
      </trkpt>
      <trkpt lat="45.09726" lon="6.72761">
        <ele>1466.6</ele>
        <time>2017-01-03T18:18:06Z</time>
      </trkpt>
      <trkpt lat="45.09714" lon="6.72677">
        <ele>1451.45</ele>
        <time>2017-01-03T18:18:09Z</time>
      </trkpt>
      <trkpt lat="45.09598" lon="6.7259">
        <ele>1447.18</ele>
        <time>2017-01-03T18:18:17Z</time>
      </trkpt>
      <trkpt lat="45.09514" lon="6.72511">
        <ele>1433.56</ele>
        <time>2017-01-03T18:18:22Z</time>
      </trkpt>
      <trkpt lat="45.09396" lon="6.72441">
        <ele>1441.42</ele>
        <time>2017-01-03T18:18:29Z</time>
      </trkpt>
      <trkpt lat="45.09349" lon="6.72372">
        <ele>1430.98</ele>
        <time>2017-01-03T18:18:33Z</time>
      </trkpt>
      <trkpt lat="45.09324" lon="6.72368">
        <ele>1433.66</ele>
        <time>2017-01-03T18:18:34Z</time>
      </trkpt>
      <trkpt lat="45.09301" lon="6.72353">
        <ele>1433.45</ele>
        <time>2017-01-03T18:18:36Z</time>
      </trkpt>
      <trkpt lat="45.09263" lon="6.72302">
        <ele>1428.32</ele>
        <time>2017-01-03T18:18:38Z</time>
      </trkpt>
      <trkpt lat="45.09232" lon="6.72268">
        <ele>1422.44</ele>
        <time>2017-01-03T18:18:41Z</time>
      </trkpt>
      <trkpt lat="45.09201" lon="6.7224">
        <ele>1424.29</ele>
        <time>2017-01-03T18:18:43Z</time>
      </trkpt>
      <trkpt lat="45.09139" lon="6.71968">
        <ele>1385.44</ele>
        <time>2017-01-03T18:18:54Z</time>
      </trkpt>
      <trkpt lat="45.09092" lon="6.71951">
        <ele>1381.6</ele>
        <time>2017-01-03T18:18:56Z</time>
      </trkpt>
      <trkpt lat="45.09039" lon="6.71939">
        <ele>1383.63</ele>
        <time>2017-01-03T18:18:59Z</time>
      </trkpt>
      <trkpt lat="45.09027" lon="6.71918">
        <ele>1373.27</ele>
        <time>2017-01-03T18:19:00Z</time>
      </trkpt>
      <trkpt lat="45.0905" lon="6.71934">
        <ele>1377.36</ele>
        <time>2017-01-03T18:19:02Z</time>
      </trkpt>
      <trkpt lat="45.09077" lon="6.71928">
        <ele>1373</ele>
        <time>2017-01-03T18:19:03Z</time>
      </trkpt>
      <trkpt lat="45.09124" lon="6.71896">
        <ele>1360.82</ele>
        <time>2017-01-03T18:19:06Z</time>
      </trkpt>
      <trkpt lat="45.09145" lon="6.71866">
        <ele>1348.63</ele>
        <time>2017-01-03T18:19:08Z</time>
      </trkpt>
      <trkpt lat="45.09117" lon="6.71877">
        <ele>1355.39</ele>
        <time>2017-01-03T18:19:09Z</time>
      </trkpt>
      <trkpt lat="45.09056" lon="6.71885">
        <ele>1350.84</ele>
        <time>2017-01-03T18:19:13Z</time>
      </trkpt>
      <trkpt lat="45.09012" lon="6.71848">
        <ele>1345.55</ele>
        <time>2017-01-03T18:19:16Z</time>
      </trkpt>
      <trkpt lat="45.08991" lon="6.71785">
        <ele>1335.85</ele>
        <time>2017-01-03T18:19:18Z</time>
      </trkpt>
      <trkpt lat="45.0888" lon="6.71664">
        <ele>1332.92</ele>
        <time>2017-01-03T18:19:26Z</time>
      </trkpt>
      <trkpt lat="45.08779" lon="6.71563">
        <ele>1311.94</ele>
        <time>2017-01-03T18:19:33Z</time>
      </trkpt>
      <trkpt lat="45.08725" lon="6.71547">
        <ele>1307.43</ele>
        <time>2017-01-03T18:19:36Z</time>
      </trkpt>
      <trkpt lat="45.08632" lon="6.71459">
        <ele>1305.43</ele>
        <time>2017-01-03T18:19:42Z</time>
      </trkpt>
      <trkpt lat="45.08581" lon="6.71314">
        <ele>1295.78</ele>
        <time>2017-01-03T18:19:48Z</time>
      </trkpt>
      <trkpt lat="45.08557" lon="6.71241">
        <ele>1296.05</ele>
        <time>2017-01-03T18:19:51Z</time>
      </trkpt>
      <trkpt lat="45.08511" lon="6.71183">
        <ele>1297.27</ele>
        <time>2017-01-03T18:19:55Z</time>
      </trkpt>
      <trkpt lat="45.08284" lon="6.71036">
        <ele>1288.82</ele>
        <time>2017-01-03T18:20:08Z</time>
      </trkpt>
      <trkpt lat="45.08205" lon="6.71018">
        <ele>1286.74</ele>
        <time>2017-01-03T18:20:13Z</time>
      </trkpt>
      <trkpt lat="45.08085" lon="6.71026">
        <ele>1280.97</ele>
        <time>2017-01-03T18:20:19Z</time>
      </trkpt>
      <trkpt lat="45.08082" lon="6.71059">
        <ele>1287.94</ele>
        <time>2017-01-03T18:20:21Z</time>
      </trkpt>
      <trkpt lat="45.08068" lon="6.71055">
        <ele>1286.31</ele>
        <time>2017-01-03T18:20:21Z</time>
      </trkpt>
      <trkpt lat="45.08065" lon="6.71039">
        <ele>1281.98</ele>
        <time>2017-01-03T18:20:22Z</time>
      </trkpt>
      <trkpt lat="45.08023" lon="6.71043">
        <ele>1277.32</ele>
        <time>2017-01-03T18:20:24Z</time>
      </trkpt>
      <trkpt lat="45.07982" lon="6.7107">
        <ele>1272.5</ele>
        <time>2017-01-03T18:20:27Z</time>
      </trkpt>
      <trkpt lat="45.07905" lon="6.71103">
        <ele>1269.86</ele>
        <time>2017-01-03T18:20:31Z</time>
      </trkpt>
      <trkpt lat="45.07835" lon="6.71114">
        <ele>1261.3</ele>
        <time>2017-01-03T18:20:35Z</time>
      </trkpt>
      <trkpt lat="45.07825" lon="6.71117">
        <ele>1261</ele>
        <time>2017-01-04T07:00:00Z</time>
      </trkpt>
      <trkpt lat="45.07815" lon="6.71125">
        <ele>1261</ele>
        <time>2017-01-04T07:00:04Z</time>
      </trkpt>
      <trkpt lat="45.07799" lon="6.71145">
        <ele>1261</ele>
        <time>2017-01-04T07:00:13Z</time>
      </trkpt>
      <trkpt lat="45.07772" lon="6.71194">
        <ele>1261</ele>
        <time>2017-01-04T07:00:30Z</time>
      </trkpt>
      <trkpt lat="45.07744" lon="6.71232">
        <ele>1263</ele>
        <time>2017-01-04T07:00:46Z</time>
      </trkpt>
      <trkpt lat="45.0768" lon="6.71302">
        <ele>1261</ele>
        <time>2017-01-04T07:01:18Z</time>
      </trkpt>
      <trkpt lat="45.07661" lon="6.71319">
        <ele>1259</ele>
        <time>2017-01-04T07:01:27Z</time>
      </trkpt>
      <trkpt lat="45.07616" lon="6.71351">
        <ele>1251</ele>
        <time>2017-01-04T07:01:47Z</time>
      </trkpt>
      <trkpt lat="45.07537" lon="6.71394">
        <ele>1248</ele>
        <time>2017-01-04T07:02:21Z</time>
      </trkpt>
      <trkpt lat="45.07244" lon="6.71548">
        <ele>1243</ele>
        <time>2017-01-04T07:04:26Z</time>
      </trkpt>
      <trkpt lat="45.07196" lon="6.71572">
        <ele>1240</ele>
        <time>2017-01-04T07:04:47Z</time>
      </trkpt>
      <trkpt lat="45.0716" lon="6.71584">
        <ele>1239</ele>
        <time>2017-01-04T07:05:01Z</time>
      </trkpt>
      <trkpt lat="45.07149" lon="6.71593">
        <ele>1238</ele>
        <time>2017-01-04T07:05:07Z</time>
      </trkpt>
      <trkpt lat="45.07133" lon="6.71611">
        <ele>1236</ele>
        <time>2017-01-04T07:05:15Z</time>
      </trkpt>
      <trkpt lat="45.07084" lon="6.71676">
        <ele>1234</ele>
        <time>2017-01-04T07:05:42Z</time>
      </trkpt>
      <trkpt lat="45.07044" lon="6.71722">
        <ele>1240</ele>
        <time>2017-01-04T07:06:02Z</time>
      </trkpt>
      <trkpt lat="45.07033" lon="6.7174">
        <ele>1241</ele>
        <time>2017-01-04T07:06:09Z</time>
      </trkpt>
      <trkpt lat="45.0701" lon="6.7179">
        <ele>1243</ele>
        <time>2017-01-04T07:06:26Z</time>
      </trkpt>
      <trkpt lat="45.06992" lon="6.71822">
        <ele>1244</ele>
        <time>2017-01-04T07:06:37Z</time>
      </trkpt>
      <trkpt lat="45.06975" lon="6.71847">
        <ele>1243</ele>
        <time>2017-01-04T07:06:47Z</time>
      </trkpt>
      <trkpt lat="45.06959" lon="6.71868">
        <ele>1243</ele>
        <time>2017-01-04T07:06:56Z</time>
      </trkpt>
      <trkpt lat="45.06901" lon="6.71925">
        <ele>1241</ele>
        <time>2017-01-04T07:07:24Z</time>
      </trkpt>
      <trkpt lat="45.06881" lon="6.71951">
        <ele>1239</ele>
        <time>2017-01-04T07:07:35Z</time>
      </trkpt>
      <trkpt lat="45.0682" lon="6.72043">
        <ele>1237</ele>
        <time>2017-01-04T07:08:11Z</time>
      </trkpt>
      <trkpt lat="45.0681" lon="6.72061">
        <ele>1237</ele>
        <time>2017-01-04T07:08:17Z</time>
      </trkpt>
      <trkpt lat="45.06801" lon="6.72083">
        <ele>1238</ele>
        <time>2017-01-04T07:08:24Z</time>
      </trkpt>
      <trkpt lat="45.06783" lon="6.72138">
        <ele>1240</ele>
        <time>2017-01-04T07:08:42Z</time>
      </trkpt>
      <trkpt lat="45.06768" lon="6.72163">
        <ele>1242</ele>
        <time>2017-01-04T07:08:51Z</time>
      </trkpt>
      <trkpt lat="45.06757" lon="6.72178">
        <ele>1245</ele>
        <time>2017-01-04T07:08:57Z</time>
      </trkpt>
      <trkpt lat="45.06735" lon="6.722">
        <ele>1244</ele>
        <time>2017-01-04T07:09:08Z</time>
      </trkpt>
      <trkpt lat="45.06717" lon="6.72208">
        <ele>1237</ele>
        <time>2017-01-04T07:09:15Z</time>
      </trkpt>
      <trkpt lat="45.06637" lon="6.72233">
        <ele>1231</ele>
        <time>2017-01-04T07:09:48Z</time>
      </trkpt>
      <trkpt lat="45.06622" lon="6.7224">
        <ele>1230</ele>
        <time>2017-01-04T07:09:54Z</time>
      </trkpt>
      <trkpt lat="45.06592" lon="6.72265">
        <ele>1229</ele>
        <time>2017-01-04T07:10:08Z</time>
      </trkpt>
      <trkpt lat="45.06566" lon="6.72297">
        <ele>1228</ele>
        <time>2017-01-04T07:10:22Z</time>
      </trkpt>
      <trkpt lat="45.06464" lon="6.72454">
        <ele>1222</ele>
        <time>2017-01-04T07:11:22Z</time>
      </trkpt>
      <trkpt lat="45.0634" lon="6.72631">
        <ele>1220</ele>
        <time>2017-01-04T07:12:33Z</time>
      </trkpt>
      <trkpt lat="45.06275" lon="6.72716">
        <ele>1220</ele>
        <time>2017-01-04T07:13:08Z</time>
      </trkpt>
      <trkpt lat="45.06216" lon="6.72786">
        <ele>1214</ele>
        <time>2017-01-04T07:13:39Z</time>
      </trkpt>
      <trkpt lat="45.05938" lon="6.7307">
        <ele>1204</ele>
        <time>2017-01-04T07:15:56Z</time>
      </trkpt>
      <trkpt lat="45.05928" lon="6.73075">
        <ele>1205</ele>
        <time>2017-01-04T07:16:01Z</time>
      </trkpt>
      <trkpt lat="45.05896" lon="6.73078">
        <ele>1206</ele>
        <time>2017-01-04T07:16:13Z</time>
      </trkpt>
      <trkpt lat="45.05882" lon="6.73084">
        <ele>1207</ele>
        <time>2017-01-04T07:16:19Z</time>
      </trkpt>
      <trkpt lat="45.05869" lon="6.73093">
        <ele>1207</ele>
        <time>2017-01-04T07:16:25Z</time>
      </trkpt>
      <trkpt lat="45.05856" lon="6.73104">
        <ele>1208</ele>
        <time>2017-01-04T07:16:31Z</time>
      </trkpt>
      <trkpt lat="45.05845" lon="6.73118">
        <ele>1207</ele>
        <time>2017-01-04T07:16:37Z</time>
      </trkpt>
      <trkpt lat="45.05829" lon="6.7315">
        <ele>1204</ele>
        <time>2017-01-04T07:16:48Z</time>
      </trkpt>
      <trkpt lat="45.05785" lon="6.73277">
        <ele>1207</ele>
        <time>2017-01-04T07:17:28Z</time>
      </trkpt>
      <trkpt lat="45.05768" lon="6.73307">
        <ele>1206</ele>
        <time>2017-01-04T07:17:39Z</time>
      </trkpt>
      <trkpt lat="45.05715" lon="6.73389">
        <ele>1196</ele>
        <time>2017-01-04T07:18:11Z</time>
      </trkpt>
      <trkpt lat="45.05709" lon="6.73404">
        <ele>1195</ele>
        <time>2017-01-04T07:18:15Z</time>
      </trkpt>
      <trkpt lat="45.05687" lon="6.7349">
        <ele>1192</ele>
        <time>2017-01-04T07:18:41Z</time>
      </trkpt>
      <trkpt lat="45.05659" lon="6.73581">
        <ele>1190</ele>
        <time>2017-01-04T07:19:09Z</time>
      </trkpt>
      <trkpt lat="45.05615" lon="6.73687">
        <ele>1183</ele>
        <time>2017-01-04T07:19:44Z</time>
      </trkpt>
      <trkpt lat="45.05464" lon="6.74034">
        <ele>1182</ele>
        <time>2017-01-04T07:21:39Z</time>
      </trkpt>
      <trkpt lat="45.05419" lon="6.74133">
        <ele>1175</ele>
        <time>2017-01-04T07:22:13Z</time>
      </trkpt>
      <trkpt lat="45.05397" lon="6.74173">
        <ele>1178</ele>
        <time>2017-01-04T07:22:27Z</time>
      </trkpt>
      <trkpt lat="45.05371" lon="6.74212">
        <ele>1179</ele>
        <time>2017-01-04T07:22:42Z</time>
      </trkpt>
      <trkpt lat="45.05342" lon="6.74249">
        <ele>1177</ele>
        <time>2017-01-04T07:22:58Z</time>
      </trkpt>
      <trkpt lat="45.05309" lon="6.74283">
        <ele>1178</ele>
        <time>2017-01-04T07:23:14Z</time>
      </trkpt>
      <trkpt lat="45.05221" lon="6.74357">
        <ele>1174</ele>
        <time>2017-01-04T07:23:55Z</time>
      </trkpt>
      <trkpt lat="45.05207" lon="6.74371">
        <ele>1173</ele>
        <time>2017-01-04T07:24:02Z</time>
      </trkpt>
      <trkpt lat="45.05199" lon="6.74389">
        <ele>1173</ele>
        <time>2017-01-04T07:24:08Z</time>
      </trkpt>
      <trkpt lat="45.05178" lon="6.7445">
        <ele>1181</ele>
        <time>2017-01-04T07:24:27Z</time>
      </trkpt>
      <trkpt lat="45.05154" lon="6.745">
        <ele>1180</ele>
        <time>2017-01-04T07:24:44Z</time>
      </trkpt>
      <trkpt lat="45.05128" lon="6.74549">
        <ele>1179</ele>
        <time>2017-01-04T07:25:02Z</time>
      </trkpt>
      <trkpt lat="45.0511" lon="6.74577">
        <ele>1177</ele>
        <time>2017-01-04T07:25:12Z</time>
      </trkpt>
      <trkpt lat="45.05074" lon="6.74615">
        <ele>1173</ele>
        <time>2017-01-04T07:25:30Z</time>
      </trkpt>
      <trkpt lat="45.0506" lon="6.7464">
        <ele>1171</ele>
        <time>2017-01-04T07:25:39Z</time>
      </trkpt>
      <trkpt lat="45.05052" lon="6.7466">
        <ele>1171</ele>
        <time>2017-01-04T07:25:46Z</time>
      </trkpt>
      <trkpt lat="45.05043" lon="6.74693">
        <ele>1169</ele>
        <time>2017-01-04T07:25:56Z</time>
      </trkpt>
      <trkpt lat="45.0501" lon="6.74843">
        <ele>1163</ele>
        <time>2017-01-04T07:26:40Z</time>
      </trkpt>
      <trkpt lat="45.05001" lon="6.74875">
        <ele>1163</ele>
        <time>2017-01-04T07:26:50Z</time>
      </trkpt>
      <trkpt lat="45.0499" lon="6.74911">
        <ele>1166</ele>
        <time>2017-01-04T07:27:01Z</time>
      </trkpt>
      <trkpt lat="45.04881" lon="6.75147">
        <ele>1162</ele>
        <time>2017-01-04T07:28:21Z</time>
      </trkpt>
      <trkpt lat="45.04852" lon="6.75218">
        <ele>1162</ele>
        <time>2017-01-04T07:28:44Z</time>
      </trkpt>
      <trkpt lat="45.04825" lon="6.75301">
        <ele>1163</ele>
        <time>2017-01-04T07:29:10Z</time>
      </trkpt>
      <trkpt lat="45.04808" lon="6.7537">
        <ele>1161</ele>
        <time>2017-01-04T07:29:30Z</time>
      </trkpt>
      <trkpt lat="45.04709" lon="6.75798">
        <ele>1152</ele>
        <time>2017-01-04T07:31:38Z</time>
      </trkpt>
      <trkpt lat="45.04688" lon="6.75895">
        <ele>1155</ele>
        <time>2017-01-04T07:32:07Z</time>
      </trkpt>
      <trkpt lat="45.04668" lon="6.75999">
        <ele>1160</ele>
        <time>2017-01-04T07:32:37Z</time>
      </trkpt>
      <trkpt lat="45.04643" lon="6.76075">
        <ele>1158</ele>
        <time>2017-01-04T07:33:01Z</time>
      </trkpt>
      <trkpt lat="45.04592" lon="6.76265">
        <ele>1147</ele>
        <time>2017-01-04T07:33:58Z</time>
      </trkpt>
      <trkpt lat="45.04532" lon="6.765">
        <ele>1140</ele>
        <time>2017-01-04T07:35:09Z</time>
      </trkpt>
      <trkpt lat="45.04518" lon="6.76564">
        <ele>1136</ele>
        <time>2017-01-04T07:35:28Z</time>
      </trkpt>
      <trkpt lat="45.04512" lon="6.76603">
        <ele>1136</ele>
        <time>2017-01-04T07:35:39Z</time>
      </trkpt>
      <trkpt lat="45.04509" lon="6.76641">
        <ele>1136</ele>
        <time>2017-01-04T07:35:50Z</time>
      </trkpt>
      <trkpt lat="45.04503" lon="6.76758">
        <ele>1132</ele>
        <time>2017-01-04T07:36:23Z</time>
      </trkpt>
      <trkpt lat="45.04486" lon="6.77241">
        <ele>1128</ele>
        <time>2017-01-04T07:38:40Z</time>
      </trkpt>
      <trkpt lat="45.04479" lon="6.77324">
        <ele>1124</ele>
        <time>2017-01-04T07:39:04Z</time>
      </trkpt>
      <trkpt lat="45.04467" lon="6.77399">
        <ele>1127</ele>
        <time>2017-01-04T07:39:25Z</time>
      </trkpt>
      <trkpt lat="45.04415" lon="6.77629">
        <ele>1124</ele>
        <time>2017-01-04T07:40:34Z</time>
      </trkpt>
      <trkpt lat="45.04399" lon="6.77684">
        <ele>1125</ele>
        <time>2017-01-04T07:40:50Z</time>
      </trkpt>
      <trkpt lat="45.04381" lon="6.77738">
        <ele>1125</ele>
        <time>2017-01-04T07:41:07Z</time>
      </trkpt>
      <trkpt lat="45.04299" lon="6.77949">
        <ele>1121</ele>
        <time>2017-01-04T07:42:15Z</time>
      </trkpt>
      <trkpt lat="45.04221" lon="6.78155">
        <ele>1121</ele>
        <time>2017-01-04T07:43:22Z</time>
      </trkpt>
      <trkpt lat="45.04211" lon="6.78191">
        <ele>1120</ele>
        <time>2017-01-04T07:43:32Z</time>
      </trkpt>
      <trkpt lat="45.042" lon="6.78233">
        <ele>1120</ele>
        <time>2017-01-04T07:43:45Z</time>
      </trkpt>
      <trkpt lat="45.04184" lon="6.7832">
        <ele>1118</ele>
        <time>2017-01-04T07:44:11Z</time>
      </trkpt>
      <trkpt lat="45.0418" lon="6.78352">
        <ele>1116</ele>
        <time>2017-01-04T07:44:20Z</time>
      </trkpt>
      <trkpt lat="45.04178" lon="6.78381">
        <ele>1114</ele>
        <time>2017-01-04T07:44:28Z</time>
      </trkpt>
      <trkpt lat="45.04179" lon="6.78461">
        <ele>1115</ele>
        <time>2017-01-04T07:44:51Z</time>
      </trkpt>
      <trkpt lat="45.04182" lon="6.78483">
        <ele>1115</ele>
        <time>2017-01-04T07:44:57Z</time>
      </trkpt>
      <trkpt lat="45.04194" lon="6.78523">
        <ele>1115</ele>
        <time>2017-01-04T07:45:09Z</time>
      </trkpt>
      <trkpt lat="45.04208" lon="6.78565">
        <ele>1114</ele>
        <time>2017-01-04T07:45:22Z</time>
      </trkpt>
      <trkpt lat="45.04222" lon="6.78591">
        <ele>1114</ele>
        <time>2017-01-04T07:45:32Z</time>
      </trkpt>
      <trkpt lat="45.04239" lon="6.78614">
        <ele>1115</ele>
        <time>2017-01-04T07:45:41Z</time>
      </trkpt>
      <trkpt lat="45.04288" lon="6.78661">
        <ele>1118</ele>
        <time>2017-01-04T07:46:05Z</time>
      </trkpt>
      <trkpt lat="45.04325" lon="6.7871">
        <ele>1117</ele>
        <time>2017-01-04T07:46:25Z</time>
      </trkpt>
      <trkpt lat="45.04331" lon="6.78696">
        <ele>1116.96</ele>
        <time>2017-01-05T07:22:17Z</time>
      </trkpt>
      <trkpt lat="45.04326" lon="6.78683">
        <ele>1117.43</ele>
        <time>2017-01-05T07:22:19Z</time>
      </trkpt>
      <trkpt lat="45.04317" lon="6.7867">
        <ele>1117.9</ele>
        <time>2017-01-05T07:22:21Z</time>
      </trkpt>
      <trkpt lat="45.043" lon="6.78645">
        <ele>1119.07</ele>
        <time>2017-01-05T07:22:24Z</time>
      </trkpt>
      <trkpt lat="45.04292" lon="6.78631">
        <ele>1118.65</ele>
        <time>2017-01-05T07:22:26Z</time>
      </trkpt>
      <trkpt lat="45.04284" lon="6.78617">
        <ele>1118.3</ele>
        <time>2017-01-05T07:22:28Z</time>
      </trkpt>
      <trkpt lat="45.04286" lon="6.78598">
        <ele>1118.27</ele>
        <time>2017-01-05T07:22:39Z</time>
      </trkpt>
      <trkpt lat="45.04297" lon="6.78592">
        <ele>1119.13</ele>
        <time>2017-01-05T07:22:42Z</time>
      </trkpt>
      <trkpt lat="45.0431" lon="6.7859">
        <ele>1120.49</ele>
        <time>2017-01-05T07:22:44Z</time>
      </trkpt>
      <trkpt lat="45.0432" lon="6.78589">
        <ele>1121.56</ele>
        <time>2017-01-05T07:22:46Z</time>
      </trkpt>
      <trkpt lat="45.0433" lon="6.78584">
        <ele>1122.62</ele>
        <time>2017-01-05T07:22:48Z</time>
      </trkpt>
      <trkpt lat="45.0435" lon="6.78584">
        <ele>1124.22</ele>
        <time>2017-01-05T07:22:50Z</time>
      </trkpt>
      <trkpt lat="45.04361" lon="6.7858">
        <ele>1125.25</ele>
        <time>2017-01-05T07:22:51Z</time>
      </trkpt>
      <trkpt lat="45.0438" lon="6.78575">
        <ele>1127.01</ele>
        <time>2017-01-05T07:22:53Z</time>
      </trkpt>
      <trkpt lat="45.04399" lon="6.7857">
        <ele>1128.91</ele>
        <time>2017-01-05T07:22:55Z</time>
      </trkpt>
      <trkpt lat="45.04409" lon="6.78565">
        <ele>1130.24</ele>
        <time>2017-01-05T07:22:56Z</time>
      </trkpt>
      <trkpt lat="45.04427" lon="6.7856">
        <ele>1132.31</ele>
        <time>2017-01-05T07:22:58Z</time>
      </trkpt>
      <trkpt lat="45.04437" lon="6.78558">
        <ele>1133.24</ele>
        <time>2017-01-05T07:22:59Z</time>
      </trkpt>
      <trkpt lat="45.04454" lon="6.78552">
        <ele>1134.59</ele>
        <time>2017-01-05T07:23:01Z</time>
      </trkpt>
      <trkpt lat="45.04472" lon="6.78546">
        <ele>1135.7</ele>
        <time>2017-01-05T07:23:03Z</time>
      </trkpt>
      <trkpt lat="45.0449" lon="6.7854">
        <ele>1138.29</ele>
        <time>2017-01-05T07:23:05Z</time>
      </trkpt>
      <trkpt lat="45.04515" lon="6.78532">
        <ele>1142.36</ele>
        <time>2017-01-05T07:23:08Z</time>
      </trkpt>
      <trkpt lat="45.0453" lon="6.78528">
        <ele>1145.35</ele>
        <time>2017-01-05T07:23:10Z</time>
      </trkpt>
      <trkpt lat="45.04544" lon="6.78525">
        <ele>1147.35</ele>
        <time>2017-01-05T07:23:12Z</time>
      </trkpt>
      <trkpt lat="45.04558" lon="6.78524">
        <ele>1149.51</ele>
        <time>2017-01-05T07:23:15Z</time>
      </trkpt>
      <trkpt lat="45.04572" lon="6.78526">
        <ele>1151.36</ele>
        <time>2017-01-05T07:23:17Z</time>
      </trkpt>
      <trkpt lat="45.04583" lon="6.78531">
        <ele>1152.75</ele>
        <time>2017-01-05T07:23:19Z</time>
      </trkpt>
      <trkpt lat="45.04595" lon="6.78537">
        <ele>1153.8</ele>
        <time>2017-01-05T07:23:21Z</time>
      </trkpt>
      <trkpt lat="45.04608" lon="6.78542">
        <ele>1155.03</ele>
        <time>2017-01-05T07:23:23Z</time>
      </trkpt>
      <trkpt lat="45.0462" lon="6.78548">
        <ele>1157.02</ele>
        <time>2017-01-05T07:23:25Z</time>
      </trkpt>
      <trkpt lat="45.04632" lon="6.78554">
        <ele>1159.48</ele>
        <time>2017-01-05T07:23:27Z</time>
      </trkpt>
      <trkpt lat="45.04645" lon="6.78563">
        <ele>1163.07</ele>
        <time>2017-01-05T07:23:29Z</time>
      </trkpt>
      <trkpt lat="45.04658" lon="6.78566">
        <ele>1166.63</ele>
        <time>2017-01-05T07:23:31Z</time>
      </trkpt>
      <trkpt lat="45.04672" lon="6.78567">
        <ele>1169.63</ele>
        <time>2017-01-05T07:23:34Z</time>
      </trkpt>
      <trkpt lat="45.04685" lon="6.78565">
        <ele>1171.69</ele>
        <time>2017-01-05T07:23:36Z</time>
      </trkpt>
      <trkpt lat="45.04696" lon="6.78554">
        <ele>1173.13</ele>
        <time>2017-01-05T07:23:38Z</time>
      </trkpt>
      <trkpt lat="45.04706" lon="6.78543">
        <ele>1173.95</ele>
        <time>2017-01-05T07:23:40Z</time>
      </trkpt>
      <trkpt lat="45.04714" lon="6.78535">
        <ele>1174.84</ele>
        <time>2017-01-05T07:23:42Z</time>
      </trkpt>
      <trkpt lat="45.04731" lon="6.78522">
        <ele>1179.1</ele>
        <time>2017-01-05T07:24:02Z</time>
      </trkpt>
      <trkpt lat="45.0474" lon="6.78513">
        <ele>1181.61</ele>
        <time>2017-01-05T07:24:05Z</time>
      </trkpt>
      <trkpt lat="45.04756" lon="6.78492">
        <ele>1187.34</ele>
        <time>2017-01-05T07:24:10Z</time>
      </trkpt>
      <trkpt lat="45.04764" lon="6.78479">
        <ele>1191.54</ele>
        <time>2017-01-05T07:24:12Z</time>
      </trkpt>
      <trkpt lat="45.04783" lon="6.78485">
        <ele>1194.78</ele>
        <time>2017-01-05T07:24:15Z</time>
      </trkpt>
      <trkpt lat="45.04787" lon="6.78502">
        <ele>1195.55</ele>
        <time>2017-01-05T07:24:18Z</time>
      </trkpt>
      <trkpt lat="45.04785" lon="6.78517">
        <ele>1196.51</ele>
        <time>2017-01-05T07:24:21Z</time>
      </trkpt>
      <trkpt lat="45.04782" lon="6.7853">
        <ele>1197.02</ele>
        <time>2017-01-05T07:24:24Z</time>
      </trkpt>
      <trkpt lat="45.04782" lon="6.78558">
        <ele>1200.3</ele>
        <time>2017-01-05T07:24:28Z</time>
      </trkpt>
      <trkpt lat="45.04783" lon="6.78573">
        <ele>1201.34</ele>
        <time>2017-01-05T07:24:30Z</time>
      </trkpt>
      <trkpt lat="45.04785" lon="6.78588">
        <ele>1202.45</ele>
        <time>2017-01-05T07:24:32Z</time>
      </trkpt>
      <trkpt lat="45.04793" lon="6.78599">
        <ele>1205.63</ele>
        <time>2017-01-05T07:24:34Z</time>
      </trkpt>
      <trkpt lat="45.04797" lon="6.78613">
        <ele>1207.74</ele>
        <time>2017-01-05T07:24:36Z</time>
      </trkpt>
      <trkpt lat="45.04793" lon="6.78642">
        <ele>1205.48</ele>
        <time>2017-01-05T07:24:40Z</time>
      </trkpt>
      <trkpt lat="45.04793" lon="6.78659">
        <ele>1204.95</ele>
        <time>2017-01-05T07:24:42Z</time>
      </trkpt>
      <trkpt lat="45.04797" lon="6.78673">
        <ele>1206.01</ele>
        <time>2017-01-05T07:24:44Z</time>
      </trkpt>
      <trkpt lat="45.04803" lon="6.78685">
        <ele>1208.2</ele>
        <time>2017-01-05T07:24:46Z</time>
      </trkpt>
      <trkpt lat="45.04808" lon="6.78698">
        <ele>1208.78</ele>
        <time>2017-01-05T07:24:48Z</time>
      </trkpt>
      <trkpt lat="45.04812" lon="6.78712">
        <ele>1209.7</ele>
        <time>2017-01-05T07:24:50Z</time>
      </trkpt>
      <trkpt lat="45.04816" lon="6.78725">
        <ele>1210.94</ele>
        <time>2017-01-05T07:24:52Z</time>
      </trkpt>
      <trkpt lat="45.04833" lon="6.78743">
        <ele>1219.34</ele>
        <time>2017-01-05T07:24:57Z</time>
      </trkpt>
      <trkpt lat="45.04842" lon="6.78752">
        <ele>1222.86</ele>
        <time>2017-01-05T07:25:00Z</time>
      </trkpt>
      <trkpt lat="45.04846" lon="6.78778">
        <ele>1224.34</ele>
        <time>2017-01-05T07:25:04Z</time>
      </trkpt>
      <trkpt lat="45.0485" lon="6.78806">
        <ele>1227.54</ele>
        <time>2017-01-05T07:25:08Z</time>
      </trkpt>
      <trkpt lat="45.04851" lon="6.7882">
        <ele>1228.12</ele>
        <time>2017-01-05T07:25:11Z</time>
      </trkpt>
      <trkpt lat="45.04855" lon="6.78834">
        <ele>1230.19</ele>
        <time>2017-01-05T07:25:13Z</time>
      </trkpt>
      <trkpt lat="45.04861" lon="6.78849">
        <ele>1232.98</ele>
        <time>2017-01-05T07:25:16Z</time>
      </trkpt>
      <trkpt lat="45.0487" lon="6.78863">
        <ele>1237.24</ele>
        <time>2017-01-05T07:25:19Z</time>
      </trkpt>
      <trkpt lat="45.04875" lon="6.7888">
        <ele>1238.98</ele>
        <time>2017-01-05T07:25:22Z</time>
      </trkpt>
      <trkpt lat="45.04877" lon="6.78894">
        <ele>1239.34</ele>
        <time>2017-01-05T07:25:24Z</time>
      </trkpt>
      <trkpt lat="45.04875" lon="6.78909">
        <ele>1236.4</ele>
        <time>2017-01-05T07:25:26Z</time>
      </trkpt>
      <trkpt lat="45.04875" lon="6.78924">
        <ele>1235.48</ele>
        <time>2017-01-05T07:25:28Z</time>
      </trkpt>
      <trkpt lat="45.04869" lon="6.78957">
        <ele>1232.81</ele>
        <time>2017-01-05T07:25:33Z</time>
      </trkpt>
      <trkpt lat="45.04867" lon="6.78973">
        <ele>1232.13</ele>
        <time>2017-01-05T07:25:36Z</time>
      </trkpt>
      <trkpt lat="45.04877" lon="6.78978">
        <ele>1233.38</ele>
        <time>2017-01-05T07:25:39Z</time>
      </trkpt>
      <trkpt lat="45.0488" lon="6.78951">
        <ele>1236.37</ele>
        <time>2017-01-05T07:25:44Z</time>
      </trkpt>
      <trkpt lat="45.04886" lon="6.78934">
        <ele>1240.25</ele>
        <time>2017-01-05T07:25:47Z</time>
      </trkpt>
      <trkpt lat="45.04896" lon="6.78909">
        <ele>1248.15</ele>
        <time>2017-01-05T07:25:51Z</time>
      </trkpt>
      <trkpt lat="45.04898" lon="6.78896">
        <ele>1250.8</ele>
        <time>2017-01-05T07:25:53Z</time>
      </trkpt>
      <trkpt lat="45.04901" lon="6.78866">
        <ele>1253.69</ele>
        <time>2017-01-05T07:25:57Z</time>
      </trkpt>
      <trkpt lat="45.049" lon="6.78847">
        <ele>1253.04</ele>
        <time>2017-01-05T07:25:59Z</time>
      </trkpt>
      <trkpt lat="45.04901" lon="6.78831">
        <ele>1253.16</ele>
        <time>2017-01-05T07:26:01Z</time>
      </trkpt>
      <trkpt lat="45.04905" lon="6.78811">
        <ele>1254.86</ele>
        <time>2017-01-05T07:26:03Z</time>
      </trkpt>
      <trkpt lat="45.04905" lon="6.78796">
        <ele>1254.98</ele>
        <time>2017-01-05T07:26:06Z</time>
      </trkpt>
      <trkpt lat="45.0491" lon="6.78778">
        <ele>1258.87</ele>
        <time>2017-01-05T07:26:09Z</time>
      </trkpt>
      <trkpt lat="45.04914" lon="6.78763">
        <ele>1261.91</ele>
        <time>2017-01-05T07:26:11Z</time>
      </trkpt>
      <trkpt lat="45.04917" lon="6.78749">
        <ele>1264.15</ele>
        <time>2017-01-05T07:26:13Z</time>
      </trkpt>
      <trkpt lat="45.04924" lon="6.78735">
        <ele>1268.3</ele>
        <time>2017-01-05T07:26:16Z</time>
      </trkpt>
      <trkpt lat="45.04913" lon="6.78708">
        <ele>1263.81</ele>
        <time>2017-01-05T07:26:23Z</time>
      </trkpt>
      <trkpt lat="45.04911" lon="6.78694">
        <ele>1263.15</ele>
        <time>2017-01-05T07:26:25Z</time>
      </trkpt>
      <trkpt lat="45.04913" lon="6.7868">
        <ele>1264.62</ele>
        <time>2017-01-05T07:26:27Z</time>
      </trkpt>
      <trkpt lat="45.04913" lon="6.78662">
        <ele>1264.91</ele>
        <time>2017-01-05T07:26:29Z</time>
      </trkpt>
      <trkpt lat="45.04916" lon="6.78648">
        <ele>1265.85</ele>
        <time>2017-01-05T07:26:31Z</time>
      </trkpt>
      <trkpt lat="45.04921" lon="6.78633">
        <ele>1267.23</ele>
        <time>2017-01-05T07:26:33Z</time>
      </trkpt>
      <trkpt lat="45.04928" lon="6.78622">
        <ele>1269.39</ele>
        <time>2017-01-05T07:26:35Z</time>
      </trkpt>
      <trkpt lat="45.04935" lon="6.78608">
        <ele>1270.84</ele>
        <time>2017-01-05T07:26:37Z</time>
      </trkpt>
      <trkpt lat="45.04943" lon="6.78583">
        <ele>1272.51</ele>
        <time>2017-01-05T07:26:40Z</time>
      </trkpt>
      <trkpt lat="45.04956" lon="6.78565">
        <ele>1275.75</ele>
        <time>2017-01-05T07:26:46Z</time>
      </trkpt>
      <trkpt lat="45.04973" lon="6.78554">
        <ele>1283.33</ele>
        <time>2017-01-05T07:26:50Z</time>
      </trkpt>
      <trkpt lat="45.04974" lon="6.78536">
        <ele>1281.79</ele>
        <time>2017-01-05T07:26:53Z</time>
      </trkpt>
      <trkpt lat="45.04972" lon="6.78509">
        <ele>1281.62</ele>
        <time>2017-01-05T07:26:57Z</time>
      </trkpt>
      <trkpt lat="45.04972" lon="6.78482">
        <ele>1285.53</ele>
        <time>2017-01-05T07:27:01Z</time>
      </trkpt>
      <trkpt lat="45.04967" lon="6.78465">
        <ele>1284.31</ele>
        <time>2017-01-05T07:27:03Z</time>
      </trkpt>
      <trkpt lat="45.04958" lon="6.78452">
        <ele>1279.63</ele>
        <time>2017-01-05T07:27:05Z</time>
      </trkpt>
      <trkpt lat="45.04956" lon="6.78425">
        <ele>1280.47</ele>
        <time>2017-01-05T07:27:09Z</time>
      </trkpt>
      <trkpt lat="45.04961" lon="6.78399">
        <ele>1284.72</ele>
        <time>2017-01-05T07:27:12Z</time>
      </trkpt>
      <trkpt lat="45.04973" lon="6.78402">
        <ele>1291.65</ele>
        <time>2017-01-05T07:27:18Z</time>
      </trkpt>
      <trkpt lat="45.04973" lon="6.78418">
        <ele>1292.1</ele>
        <time>2017-01-05T07:27:21Z</time>
      </trkpt>
      <trkpt lat="45.0498" lon="6.78443">
        <ele>1292.81</ele>
        <time>2017-01-05T07:27:26Z</time>
      </trkpt>
      <trkpt lat="45.04997" lon="6.78453">
        <ele>1301.61</ele>
        <time>2017-01-05T07:27:31Z</time>
      </trkpt>
      <trkpt lat="45.05004" lon="6.78464">
        <ele>1304.34</ele>
        <time>2017-01-05T07:27:33Z</time>
      </trkpt>
      <trkpt lat="45.05004" lon="6.78484">
        <ele>1302.42</ele>
        <time>2017-01-05T07:27:36Z</time>
      </trkpt>
      <trkpt lat="45.05" lon="6.78498">
        <ele>1299.29</ele>
        <time>2017-01-05T07:27:38Z</time>
      </trkpt>
      <trkpt lat="45.05003" lon="6.78525">
        <ele>1298.6</ele>
        <time>2017-01-05T07:27:42Z</time>
      </trkpt>
      <trkpt lat="45.05009" lon="6.78541">
        <ele>1300.72</ele>
        <time>2017-01-05T07:27:45Z</time>
      </trkpt>
      <trkpt lat="45.05023" lon="6.78563">
        <ele>1306.54</ele>
        <time>2017-01-05T07:27:49Z</time>
      </trkpt>
      <trkpt lat="45.05031" lon="6.78574">
        <ele>1310.31</ele>
        <time>2017-01-05T07:27:51Z</time>
      </trkpt>
      <trkpt lat="45.05024" lon="6.78587">
        <ele>1307.57</ele>
        <time>2017-01-05T07:27:54Z</time>
      </trkpt>
      <trkpt lat="45.05007" lon="6.786">
        <ele>1301.08</ele>
        <time>2017-01-05T07:27:58Z</time>
      </trkpt>
      <trkpt lat="45.04994" lon="6.78618">
        <ele>1297.11</ele>
        <time>2017-01-05T07:28:02Z</time>
      </trkpt>
      <trkpt lat="45.04989" lon="6.78631">
        <ele>1296.16</ele>
        <time>2017-01-05T07:28:04Z</time>
      </trkpt>
      <trkpt lat="45.04983" lon="6.78646">
        <ele>1295.68</ele>
        <time>2017-01-05T07:28:07Z</time>
      </trkpt>
      <trkpt lat="45.04987" lon="6.78679">
        <ele>1301.6</ele>
        <time>2017-01-05T07:28:12Z</time>
      </trkpt>
      <trkpt lat="45.04991" lon="6.78697">
        <ele>1304.11</ele>
        <time>2017-01-05T07:28:15Z</time>
      </trkpt>
      <trkpt lat="45.05005" lon="6.78722">
        <ele>1310.07</ele>
        <time>2017-01-05T07:28:21Z</time>
      </trkpt>
      <trkpt lat="45.0501" lon="6.78736">
        <ele>1312.35</ele>
        <time>2017-01-05T07:28:24Z</time>
      </trkpt>
      <trkpt lat="45.05007" lon="6.78763">
        <ele>1308.38</ele>
        <time>2017-01-05T07:28:29Z</time>
      </trkpt>
      <trkpt lat="45.05017" lon="6.78765">
        <ele>1314.07</ele>
        <time>2017-01-05T07:28:32Z</time>
      </trkpt>
      <trkpt lat="45.0502" lon="6.78752">
        <ele>1317.14</ele>
        <time>2017-01-05T07:28:35Z</time>
      </trkpt>
      <trkpt lat="45.05024" lon="6.78736">
        <ele>1320.87</ele>
        <time>2017-01-05T07:28:38Z</time>
      </trkpt>
      <trkpt lat="45.05021" lon="6.78704">
        <ele>1319.72</ele>
        <time>2017-01-05T07:28:44Z</time>
      </trkpt>
      <trkpt lat="45.05021" lon="6.78687">
        <ele>1319.18</ele>
        <time>2017-01-05T07:28:47Z</time>
      </trkpt>
      <trkpt lat="45.05021" lon="6.78673">
        <ele>1318.27</ele>
        <time>2017-01-05T07:28:49Z</time>
      </trkpt>
      <trkpt lat="45.05035" lon="6.78649">
        <ele>1321.21</ele>
        <time>2017-01-05T07:28:53Z</time>
      </trkpt>
      <trkpt lat="45.05042" lon="6.78637">
        <ele>1322.56</ele>
        <time>2017-01-05T07:28:55Z</time>
      </trkpt>
      <trkpt lat="45.0505" lon="6.78627">
        <ele>1324.96</ele>
        <time>2017-01-05T07:28:57Z</time>
      </trkpt>
      <trkpt lat="45.05063" lon="6.78621">
        <ele>1330.86</ele>
        <time>2017-01-05T07:28:59Z</time>
      </trkpt>
      <trkpt lat="45.05071" lon="6.78613">
        <ele>1334.46</ele>
        <time>2017-01-05T07:29:01Z</time>
      </trkpt>
      <trkpt lat="45.05076" lon="6.78602">
        <ele>1336.59</ele>
        <time>2017-01-05T07:29:03Z</time>
      </trkpt>
      <trkpt lat="45.05082" lon="6.78589">
        <ele>1339.51</ele>
        <time>2017-01-05T07:29:05Z</time>
      </trkpt>
      <trkpt lat="45.05087" lon="6.78575">
        <ele>1341.49</ele>
        <time>2017-01-05T07:29:07Z</time>
      </trkpt>
      <trkpt lat="45.05086" lon="6.78561">
        <ele>1339.83</ele>
        <time>2017-01-05T07:29:09Z</time>
      </trkpt>
      <trkpt lat="45.05079" lon="6.78548">
        <ele>1336.83</ele>
        <time>2017-01-05T07:29:11Z</time>
      </trkpt>
      <trkpt lat="45.05074" lon="6.78534">
        <ele>1336.3</ele>
        <time>2017-01-05T07:29:13Z</time>
      </trkpt>
      <trkpt lat="45.05073" lon="6.78517">
        <ele>1337.19</ele>
        <time>2017-01-05T07:29:15Z</time>
      </trkpt>
      <trkpt lat="45.05087" lon="6.78502">
        <ele>1346.14</ele>
        <time>2017-01-05T07:29:19Z</time>
      </trkpt>
      <trkpt lat="45.05089" lon="6.78485">
        <ele>1347.42</ele>
        <time>2017-01-05T07:29:21Z</time>
      </trkpt>
      <trkpt lat="45.05081" lon="6.78462">
        <ele>1343.89</ele>
        <time>2017-01-05T07:29:24Z</time>
      </trkpt>
      <trkpt lat="45.05083" lon="6.78444">
        <ele>1346.67</ele>
        <time>2017-01-05T07:29:27Z</time>
      </trkpt>
      <trkpt lat="45.05082" lon="6.78429">
        <ele>1347.3</ele>
        <time>2017-01-05T07:29:29Z</time>
      </trkpt>
      <trkpt lat="45.05079" lon="6.78413">
        <ele>1345.56</ele>
        <time>2017-01-05T07:29:31Z</time>
      </trkpt>
      <trkpt lat="45.05074" lon="6.78395">
        <ele>1341.46</ele>
        <time>2017-01-05T07:29:33Z</time>
      </trkpt>
      <trkpt lat="45.05075" lon="6.7838">
        <ele>1342</ele>
        <time>2017-01-05T07:29:35Z</time>
      </trkpt>
      <trkpt lat="45.05077" lon="6.78367">
        <ele>1343.7</ele>
        <time>2017-01-05T07:29:37Z</time>
      </trkpt>
      <trkpt lat="45.05079" lon="6.78352">
        <ele>1345.02</ele>
        <time>2017-01-05T07:29:39Z</time>
      </trkpt>
      <trkpt lat="45.05093" lon="6.78332">
        <ele>1351.16</ele>
        <time>2017-01-05T07:29:43Z</time>
      </trkpt>
      <trkpt lat="45.05108" lon="6.78318">
        <ele>1357.2</ele>
        <time>2017-01-05T07:29:47Z</time>
      </trkpt>
      <trkpt lat="45.05119" lon="6.78314">
        <ele>1361.24</ele>
        <time>2017-01-05T07:29:49Z</time>
      </trkpt>
      <trkpt lat="45.05125" lon="6.78302">
        <ele>1363.89</ele>
        <time>2017-01-05T07:29:52Z</time>
      </trkpt>
      <trkpt lat="45.05119" lon="6.78274">
        <ele>1363.64</ele>
        <time>2017-01-05T07:29:57Z</time>
      </trkpt>
      <trkpt lat="45.05113" lon="6.78262">
        <ele>1362.45</ele>
        <time>2017-01-05T07:29:59Z</time>
      </trkpt>
      <trkpt lat="45.05109" lon="6.78245">
        <ele>1363.14</ele>
        <time>2017-01-05T07:30:02Z</time>
      </trkpt>
      <trkpt lat="45.05103" lon="6.78232">
        <ele>1360.85</ele>
        <time>2017-01-05T07:30:05Z</time>
      </trkpt>
      <trkpt lat="45.05113" lon="6.78224">
        <ele>1365.64</ele>
        <time>2017-01-05T07:30:12Z</time>
      </trkpt>
      <trkpt lat="45.05119" lon="6.78252">
        <ele>1366.85</ele>
        <time>2017-01-05T07:30:16Z</time>
      </trkpt>
      <trkpt lat="45.05129" lon="6.78259">
        <ele>1369.98</ele>
        <time>2017-01-05T07:30:18Z</time>
      </trkpt>
      <trkpt lat="45.05137" lon="6.7827">
        <ele>1372.45</ele>
        <time>2017-01-05T07:30:20Z</time>
      </trkpt>
      <trkpt lat="45.05147" lon="6.78273">
        <ele>1376.49</ele>
        <time>2017-01-05T07:30:22Z</time>
      </trkpt>
      <trkpt lat="45.05159" lon="6.78278">
        <ele>1380.84</ele>
        <time>2017-01-05T07:30:24Z</time>
      </trkpt>
      <trkpt lat="45.05171" lon="6.7828">
        <ele>1385.98</ele>
        <time>2017-01-05T07:30:26Z</time>
      </trkpt>
      <trkpt lat="45.05174" lon="6.78298">
        <ele>1387.86</ele>
        <time>2017-01-05T07:30:29Z</time>
      </trkpt>
      <trkpt lat="45.05167" lon="6.78317">
        <ele>1384.79</ele>
        <time>2017-01-05T07:30:32Z</time>
      </trkpt>
      <trkpt lat="45.05167" lon="6.7835">
        <ele>1385.08</ele>
        <time>2017-01-05T07:30:37Z</time>
      </trkpt>
      <trkpt lat="45.05159" lon="6.78373">
        <ele>1383.66</ele>
        <time>2017-01-05T07:30:41Z</time>
      </trkpt>
      <trkpt lat="45.05155" lon="6.78392">
        <ele>1383.15</ele>
        <time>2017-01-05T07:30:44Z</time>
      </trkpt>
      <trkpt lat="45.05159" lon="6.78407">
        <ele>1384.89</ele>
        <time>2017-01-05T07:30:47Z</time>
      </trkpt>
      <trkpt lat="45.05163" lon="6.78425">
        <ele>1385.89</ele>
        <time>2017-01-05T07:30:50Z</time>
      </trkpt>
      <trkpt lat="45.05163" lon="6.78439">
        <ele>1384.48</ele>
        <time>2017-01-05T07:30:52Z</time>
      </trkpt>
      <trkpt lat="45.05171" lon="6.78453">
        <ele>1387.79</ele>
        <time>2017-01-05T07:30:54Z</time>
      </trkpt>
      <trkpt lat="45.05177" lon="6.78468">
        <ele>1390.12</ele>
        <time>2017-01-05T07:30:57Z</time>
      </trkpt>
      <trkpt lat="45.05181" lon="6.78482">
        <ele>1390.81</ele>
        <time>2017-01-05T07:30:59Z</time>
      </trkpt>
      <trkpt lat="45.05181" lon="6.78503">
        <ele>1390.06</ele>
        <time>2017-01-05T07:31:01Z</time>
      </trkpt>
      <trkpt lat="45.05184" lon="6.78517">
        <ele>1390.36</ele>
        <time>2017-01-05T07:31:03Z</time>
      </trkpt>
      <trkpt lat="45.05192" lon="6.78531">
        <ele>1393.08</ele>
        <time>2017-01-05T07:31:05Z</time>
      </trkpt>
      <trkpt lat="45.05199" lon="6.78544">
        <ele>1395.31</ele>
        <time>2017-01-05T07:31:07Z</time>
      </trkpt>
      <trkpt lat="45.05215" lon="6.78563">
        <ele>1401.35</ele>
        <time>2017-01-05T07:31:12Z</time>
      </trkpt>
      <trkpt lat="45.05215" lon="6.78583">
        <ele>1400.04</ele>
        <time>2017-01-05T07:31:16Z</time>
      </trkpt>
      <trkpt lat="45.05218" lon="6.78598">
        <ele>1401.03</ele>
        <time>2017-01-05T07:31:19Z</time>
      </trkpt>
      <trkpt lat="45.05224" lon="6.78611">
        <ele>1402.46</ele>
        <time>2017-01-05T07:31:21Z</time>
      </trkpt>
      <trkpt lat="45.05228" lon="6.78628">
        <ele>1403.38</ele>
        <time>2017-01-05T07:31:23Z</time>
      </trkpt>
      <trkpt lat="45.05229" lon="6.78643">
        <ele>1403.52</ele>
        <time>2017-01-05T07:31:24Z</time>
      </trkpt>
      <trkpt lat="45.05234" lon="6.78658">
        <ele>1405.68</ele>
        <time>2017-01-05T07:31:26Z</time>
      </trkpt>
      <trkpt lat="45.05251" lon="6.78674">
        <ele>1410.62</ele>
        <time>2017-01-05T07:31:30Z</time>
      </trkpt>
      <trkpt lat="45.05257" lon="6.78694">
        <ele>1412.83</ele>
        <time>2017-01-05T07:31:33Z</time>
      </trkpt>
      <trkpt lat="45.05261" lon="6.78712">
        <ele>1414.92</ele>
        <time>2017-01-05T07:31:36Z</time>
      </trkpt>
      <trkpt lat="45.05264" lon="6.78729">
        <ele>1416.88</ele>
        <time>2017-01-05T07:31:39Z</time>
      </trkpt>
      <trkpt lat="45.05263" lon="6.78761">
        <ele>1418.16</ele>
        <time>2017-01-05T07:31:43Z</time>
      </trkpt>
      <trkpt lat="45.05263" lon="6.7878">
        <ele>1419.66</ele>
        <time>2017-01-05T07:31:45Z</time>
      </trkpt>
      <trkpt lat="45.05265" lon="6.78795">
        <ele>1421.61</ele>
        <time>2017-01-05T07:31:47Z</time>
      </trkpt>
      <trkpt lat="45.05265" lon="6.78815">
        <ele>1422.01</ele>
        <time>2017-01-05T07:31:50Z</time>
      </trkpt>
      <trkpt lat="45.05273" lon="6.78827">
        <ele>1425.46</ele>
        <time>2017-01-05T07:31:53Z</time>
      </trkpt>
      <trkpt lat="45.05277" lon="6.78813">
        <ele>1428.53</ele>
        <time>2017-01-05T07:31:56Z</time>
      </trkpt>
      <trkpt lat="45.05278" lon="6.78796">
        <ele>1427.95</ele>
        <time>2017-01-05T07:31:59Z</time>
      </trkpt>
      <trkpt lat="45.05283" lon="6.78783">
        <ele>1428.66</ele>
        <time>2017-01-05T07:32:01Z</time>
      </trkpt>
      <trkpt lat="45.05288" lon="6.78769">
        <ele>1428.89</ele>
        <time>2017-01-05T07:32:03Z</time>
      </trkpt>
      <trkpt lat="45.05291" lon="6.78754">
        <ele>1428.68</ele>
        <time>2017-01-05T07:32:05Z</time>
      </trkpt>
      <trkpt lat="45.05295" lon="6.78736">
        <ele>1429.94</ele>
        <time>2017-01-05T07:32:07Z</time>
      </trkpt>
      <trkpt lat="45.05299" lon="6.78714">
        <ele>1432.53</ele>
        <time>2017-01-05T07:32:09Z</time>
      </trkpt>
      <trkpt lat="45.05303" lon="6.78693">
        <ele>1436.64</ele>
        <time>2017-01-05T07:32:11Z</time>
      </trkpt>
      <trkpt lat="45.05307" lon="6.78675">
        <ele>1440.15</ele>
        <time>2017-01-05T07:32:14Z</time>
      </trkpt>
      <trkpt lat="45.05312" lon="6.7866">
        <ele>1441.99</ele>
        <time>2017-01-05T07:32:16Z</time>
      </trkpt>
      <trkpt lat="45.05313" lon="6.78641">
        <ele>1440.82</ele>
        <time>2017-01-05T07:32:18Z</time>
      </trkpt>
      <trkpt lat="45.0532" lon="6.78617">
        <ele>1441.49</ele>
        <time>2017-01-05T07:32:22Z</time>
      </trkpt>
      <trkpt lat="45.05324" lon="6.78601">
        <ele>1443.05</ele>
        <time>2017-01-05T07:32:24Z</time>
      </trkpt>
      <trkpt lat="45.05324" lon="6.78585">
        <ele>1444.41</ele>
        <time>2017-01-05T07:32:26Z</time>
      </trkpt>
      <trkpt lat="45.05325" lon="6.7857">
        <ele>1444.95</ele>
        <time>2017-01-05T07:32:28Z</time>
      </trkpt>
      <trkpt lat="45.05325" lon="6.78542">
        <ele>1445.24</ele>
        <time>2017-01-05T07:32:32Z</time>
      </trkpt>
      <trkpt lat="45.05327" lon="6.78522">
        <ele>1447.29</ele>
        <time>2017-01-05T07:32:35Z</time>
      </trkpt>
      <trkpt lat="45.0533" lon="6.78507">
        <ele>1449.27</ele>
        <time>2017-01-05T07:32:37Z</time>
      </trkpt>
      <trkpt lat="45.05332" lon="6.78493">
        <ele>1450.87</ele>
        <time>2017-01-05T07:32:39Z</time>
      </trkpt>
      <trkpt lat="45.05335" lon="6.78477">
        <ele>1453.38</ele>
        <time>2017-01-05T07:32:42Z</time>
      </trkpt>
      <trkpt lat="45.05335" lon="6.78462">
        <ele>1453.99</ele>
        <time>2017-01-05T07:32:44Z</time>
      </trkpt>
      <trkpt lat="45.05335" lon="6.78429">
        <ele>1454.64</ele>
        <time>2017-01-05T07:32:49Z</time>
      </trkpt>
      <trkpt lat="45.05333" lon="6.78414">
        <ele>1453.8</ele>
        <time>2017-01-05T07:32:51Z</time>
      </trkpt>
      <trkpt lat="45.05341" lon="6.784">
        <ele>1456.43</ele>
        <time>2017-01-05T07:32:53Z</time>
      </trkpt>
      <trkpt lat="45.05344" lon="6.78386">
        <ele>1457.14</ele>
        <time>2017-01-05T07:32:55Z</time>
      </trkpt>
      <trkpt lat="45.05349" lon="6.78359">
        <ele>1457.25</ele>
        <time>2017-01-05T07:32:58Z</time>
      </trkpt>
      <trkpt lat="45.05353" lon="6.78342">
        <ele>1456.93</ele>
        <time>2017-01-05T07:33:00Z</time>
      </trkpt>
      <trkpt lat="45.05359" lon="6.78328">
        <ele>1457.86</ele>
        <time>2017-01-05T07:33:02Z</time>
      </trkpt>
      <trkpt lat="45.05365" lon="6.78315">
        <ele>1459.42</ele>
        <time>2017-01-05T07:33:04Z</time>
      </trkpt>
      <trkpt lat="45.05372" lon="6.78285">
        <ele>1459.99</ele>
        <time>2017-01-05T07:33:09Z</time>
      </trkpt>
      <trkpt lat="45.05376" lon="6.78272">
        <ele>1461.06</ele>
        <time>2017-01-05T07:33:11Z</time>
      </trkpt>
      <trkpt lat="45.05382" lon="6.78258">
        <ele>1462.55</ele>
        <time>2017-01-05T07:33:13Z</time>
      </trkpt>
      <trkpt lat="45.05391" lon="6.78246">
        <ele>1465.66</ele>
        <time>2017-01-05T07:33:16Z</time>
      </trkpt>
      <trkpt lat="45.05396" lon="6.78232">
        <ele>1466.15</ele>
        <time>2017-01-05T07:33:19Z</time>
      </trkpt>
      <trkpt lat="45.05406" lon="6.78224">
        <ele>1469.07</ele>
        <time>2017-01-05T07:33:23Z</time>
      </trkpt>
      <trkpt lat="45.05405" lon="6.78239">
        <ele>1470.88</ele>
        <time>2017-01-05T07:33:27Z</time>
      </trkpt>
      <trkpt lat="45.05402" lon="6.78253">
        <ele>1471.45</ele>
        <time>2017-01-05T07:33:29Z</time>
      </trkpt>
      <trkpt lat="45.054" lon="6.7827">
        <ele>1472.24</ele>
        <time>2017-01-05T07:33:31Z</time>
      </trkpt>
      <trkpt lat="45.05404" lon="6.78296">
        <ele>1476.41</ele>
        <time>2017-01-05T07:33:35Z</time>
      </trkpt>
      <trkpt lat="45.05407" lon="6.78312">
        <ele>1478.35</ele>
        <time>2017-01-05T07:33:37Z</time>
      </trkpt>
      <trkpt lat="45.05411" lon="6.78325">
        <ele>1480.15</ele>
        <time>2017-01-05T07:33:39Z</time>
      </trkpt>
      <trkpt lat="45.05414" lon="6.7834">
        <ele>1481.32</ele>
        <time>2017-01-05T07:33:41Z</time>
      </trkpt>
      <trkpt lat="45.05418" lon="6.78353">
        <ele>1483.39</ele>
        <time>2017-01-05T07:33:43Z</time>
      </trkpt>
      <trkpt lat="45.05422" lon="6.78372">
        <ele>1486.36</ele>
        <time>2017-01-05T07:33:46Z</time>
      </trkpt>
      <trkpt lat="45.05424" lon="6.78387">
        <ele>1488.26</ele>
        <time>2017-01-05T07:33:49Z</time>
      </trkpt>
      <trkpt lat="45.05423" lon="6.78402">
        <ele>1488.19</ele>
        <time>2017-01-05T07:33:51Z</time>
      </trkpt>
      <trkpt lat="45.05425" lon="6.78422">
        <ele>1489.48</ele>
        <time>2017-01-05T07:33:53Z</time>
      </trkpt>
      <trkpt lat="45.05426" lon="6.78437">
        <ele>1490.47</ele>
        <time>2017-01-05T07:33:55Z</time>
      </trkpt>
      <trkpt lat="45.05429" lon="6.78464">
        <ele>1494.42</ele>
        <time>2017-01-05T07:33:59Z</time>
      </trkpt>
      <trkpt lat="45.05428" lon="6.78479">
        <ele>1495.17</ele>
        <time>2017-01-05T07:34:01Z</time>
      </trkpt>
      <trkpt lat="45.05432" lon="6.78496">
        <ele>1499.18</ele>
        <time>2017-01-05T07:34:03Z</time>
      </trkpt>
      <trkpt lat="45.05429" lon="6.78513">
        <ele>1499.54</ele>
        <time>2017-01-05T07:34:05Z</time>
      </trkpt>
      <trkpt lat="45.05427" lon="6.78533">
        <ele>1500.16</ele>
        <time>2017-01-05T07:34:07Z</time>
      </trkpt>
      <trkpt lat="45.05428" lon="6.78551">
        <ele>1501.44</ele>
        <time>2017-01-05T07:34:10Z</time>
      </trkpt>
      <trkpt lat="45.0543" lon="6.78567">
        <ele>1503.5</ele>
        <time>2017-01-05T07:34:12Z</time>
      </trkpt>
      <trkpt lat="45.05431" lon="6.78586">
        <ele>1504.86</ele>
        <time>2017-01-05T07:34:15Z</time>
      </trkpt>
      <trkpt lat="45.05431" lon="6.78617">
        <ele>1504.91</ele>
        <time>2017-01-05T07:34:19Z</time>
      </trkpt>
      <trkpt lat="45.05434" lon="6.78636">
        <ele>1504.86</ele>
        <time>2017-01-05T07:34:21Z</time>
      </trkpt>
      <trkpt lat="45.05433" lon="6.78651">
        <ele>1503.13</ele>
        <time>2017-01-05T07:34:23Z</time>
      </trkpt>
      <trkpt lat="45.05438" lon="6.78669">
        <ele>1504.11</ele>
        <time>2017-01-05T07:34:25Z</time>
      </trkpt>
      <trkpt lat="45.05439" lon="6.78683">
        <ele>1504.6</ele>
        <time>2017-01-05T07:34:27Z</time>
      </trkpt>
      <trkpt lat="45.05438" lon="6.787">
        <ele>1504.22</ele>
        <time>2017-01-05T07:34:30Z</time>
      </trkpt>
      <trkpt lat="45.05444" lon="6.78733">
        <ele>1510.97</ele>
        <time>2017-01-05T07:34:34Z</time>
      </trkpt>
      <trkpt lat="45.05449" lon="6.7875">
        <ele>1513.81</ele>
        <time>2017-01-05T07:34:37Z</time>
      </trkpt>
      <trkpt lat="45.05453" lon="6.78768">
        <ele>1514.64</ele>
        <time>2017-01-05T07:34:40Z</time>
      </trkpt>
      <trkpt lat="45.05456" lon="6.78795">
        <ele>1513.39</ele>
        <time>2017-01-05T07:34:45Z</time>
      </trkpt>
      <trkpt lat="45.05459" lon="6.78809">
        <ele>1511.83</ele>
        <time>2017-01-05T07:34:50Z</time>
      </trkpt>
      <trkpt lat="45.05469" lon="6.78803">
        <ele>1516.57</ele>
        <time>2017-01-05T07:34:54Z</time>
      </trkpt>
      <trkpt lat="45.0547" lon="6.78774">
        <ele>1523.1</ele>
        <time>2017-01-05T07:34:58Z</time>
      </trkpt>
      <trkpt lat="45.05471" lon="6.78758">
        <ele>1525.34</ele>
        <time>2017-01-05T07:35:01Z</time>
      </trkpt>
      <trkpt lat="45.05474" lon="6.78742">
        <ele>1529.96</ele>
        <time>2017-01-05T07:35:04Z</time>
      </trkpt>
      <trkpt lat="45.05476" lon="6.78722">
        <ele>1534.63</ele>
        <time>2017-01-05T07:35:08Z</time>
      </trkpt>
      <trkpt lat="45.0548" lon="6.78703">
        <ele>1534.59</ele>
        <time>2017-01-05T07:35:11Z</time>
      </trkpt>
      <trkpt lat="45.0548" lon="6.78687">
        <ele>1532.97</ele>
        <time>2017-01-05T07:35:13Z</time>
      </trkpt>
      <trkpt lat="45.05485" lon="6.78661">
        <ele>1535.36</ele>
        <time>2017-01-05T07:35:17Z</time>
      </trkpt>
      <trkpt lat="45.05485" lon="6.78642">
        <ele>1536.06</ele>
        <time>2017-01-05T07:35:20Z</time>
      </trkpt>
      <trkpt lat="45.05486" lon="6.78627">
        <ele>1536.67</ele>
        <time>2017-01-05T07:35:22Z</time>
      </trkpt>
      <trkpt lat="45.05491" lon="6.78596">
        <ele>1539.75</ele>
        <time>2017-01-05T07:35:27Z</time>
      </trkpt>
      <trkpt lat="45.0549" lon="6.7858">
        <ele>1539.19</ele>
        <time>2017-01-05T07:35:29Z</time>
      </trkpt>
      <trkpt lat="45.05495" lon="6.78564">
        <ele>1539.36</ele>
        <time>2017-01-05T07:35:32Z</time>
      </trkpt>
      <trkpt lat="45.05495" lon="6.78549">
        <ele>1538.46</ele>
        <time>2017-01-05T07:35:34Z</time>
      </trkpt>
      <trkpt lat="45.05497" lon="6.78533">
        <ele>1538.07</ele>
        <time>2017-01-05T07:35:36Z</time>
      </trkpt>
      <trkpt lat="45.05501" lon="6.78515">
        <ele>1539.1</ele>
        <time>2017-01-05T07:35:39Z</time>
      </trkpt>
      <trkpt lat="45.05507" lon="6.78499">
        <ele>1542.51</ele>
        <time>2017-01-05T07:35:42Z</time>
      </trkpt>
      <trkpt lat="45.05515" lon="6.78484">
        <ele>1546</ele>
        <time>2017-01-05T07:35:45Z</time>
      </trkpt>
      <trkpt lat="45.05524" lon="6.78471">
        <ele>1550.76</ele>
        <time>2017-01-05T07:35:48Z</time>
      </trkpt>
      <trkpt lat="45.05531" lon="6.78447">
        <ele>1551.28</ele>
        <time>2017-01-05T07:35:54Z</time>
      </trkpt>
      <trkpt lat="45.05539" lon="6.78453">
        <ele>1557.23</ele>
        <time>2017-01-05T07:38:23Z</time>
      </trkpt>
      <trkpt lat="45.05534" lon="6.78471">
        <ele>1557.25</ele>
        <time>2017-01-05T07:38:26Z</time>
      </trkpt>
      <trkpt lat="45.05531" lon="6.78485">
        <ele>1557.15</ele>
        <time>2017-01-05T07:38:28Z</time>
      </trkpt>
      <trkpt lat="45.0553" lon="6.78503">
        <ele>1557.65</ele>
        <time>2017-01-05T07:38:30Z</time>
      </trkpt>
      <trkpt lat="45.05527" lon="6.78521">
        <ele>1557.45</ele>
        <time>2017-01-05T07:38:33Z</time>
      </trkpt>
      <trkpt lat="45.05526" lon="6.78539">
        <ele>1557.03</ele>
        <time>2017-01-05T07:38:35Z</time>
      </trkpt>
      <trkpt lat="45.05529" lon="6.78553">
        <ele>1557.82</ele>
        <time>2017-01-05T07:38:37Z</time>
      </trkpt>
      <trkpt lat="45.05528" lon="6.7857">
        <ele>1559.58</ele>
        <time>2017-01-05T07:38:39Z</time>
      </trkpt>
      <trkpt lat="45.05526" lon="6.78593">
        <ele>1561.08</ele>
        <time>2017-01-05T07:38:41Z</time>
      </trkpt>
      <trkpt lat="45.05528" lon="6.78608">
        <ele>1562.17</ele>
        <time>2017-01-05T07:38:43Z</time>
      </trkpt>
      <trkpt lat="45.05528" lon="6.78623">
        <ele>1562.88</ele>
        <time>2017-01-05T07:38:45Z</time>
      </trkpt>
      <trkpt lat="45.05533" lon="6.78637">
        <ele>1566.46</ele>
        <time>2017-01-05T07:38:47Z</time>
      </trkpt>
      <trkpt lat="45.05537" lon="6.7865">
        <ele>1568.45</ele>
        <time>2017-01-05T07:38:49Z</time>
      </trkpt>
      <trkpt lat="45.05539" lon="6.78667">
        <ele>1568.69</ele>
        <time>2017-01-05T07:38:51Z</time>
      </trkpt>
      <trkpt lat="45.05538" lon="6.78694">
        <ele>1565.79</ele>
        <time>2017-01-05T07:38:53Z</time>
      </trkpt>
      <trkpt lat="45.05545" lon="6.78707">
        <ele>1568.48</ele>
        <time>2017-01-05T07:39:02Z</time>
      </trkpt>
      <trkpt lat="45.05549" lon="6.78691">
        <ele>1571.18</ele>
        <time>2017-01-05T07:39:05Z</time>
      </trkpt>
      <trkpt lat="45.05555" lon="6.78678">
        <ele>1575.44</ele>
        <time>2017-01-05T07:39:08Z</time>
      </trkpt>
      <trkpt lat="45.05562" lon="6.78654">
        <ele>1582.79</ele>
        <time>2017-01-05T07:39:11Z</time>
      </trkpt>
      <trkpt lat="45.05564" lon="6.78639">
        <ele>1586.38</ele>
        <time>2017-01-05T07:39:13Z</time>
      </trkpt>
      <trkpt lat="45.05562" lon="6.78618">
        <ele>1586.46</ele>
        <time>2017-01-05T07:39:15Z</time>
      </trkpt>
      <trkpt lat="45.05568" lon="6.78601">
        <ele>1589.98</ele>
        <time>2017-01-05T07:39:18Z</time>
      </trkpt>
      <trkpt lat="45.05568" lon="6.78587">
        <ele>1589.07</ele>
        <time>2017-01-05T07:39:20Z</time>
      </trkpt>
      <trkpt lat="45.05567" lon="6.78571">
        <ele>1588.38</ele>
        <time>2017-01-05T07:39:22Z</time>
      </trkpt>
      <trkpt lat="45.05575" lon="6.78545">
        <ele>1590.15</ele>
        <time>2017-01-05T07:39:27Z</time>
      </trkpt>
      <trkpt lat="45.05577" lon="6.78526">
        <ele>1587.98</ele>
        <time>2017-01-05T07:39:29Z</time>
      </trkpt>
      <trkpt lat="45.05585" lon="6.78518">
        <ele>1591.31</ele>
        <time>2017-01-05T07:39:31Z</time>
      </trkpt>
      <trkpt lat="45.05594" lon="6.78504">
        <ele>1594.31</ele>
        <time>2017-01-05T07:39:34Z</time>
      </trkpt>
      <trkpt lat="45.05595" lon="6.78487">
        <ele>1593.31</ele>
        <time>2017-01-05T07:39:36Z</time>
      </trkpt>
      <trkpt lat="45.05606" lon="6.78474">
        <ele>1599.07</ele>
        <time>2017-01-05T07:39:39Z</time>
      </trkpt>
      <trkpt lat="45.05617" lon="6.78445">
        <ele>1600.21</ele>
        <time>2017-01-05T07:39:44Z</time>
      </trkpt>
      <trkpt lat="45.05619" lon="6.78413">
        <ele>1597.35</ele>
        <time>2017-01-05T07:39:49Z</time>
      </trkpt>
      <trkpt lat="45.05624" lon="6.784">
        <ele>1600.23</ele>
        <time>2017-01-05T07:39:51Z</time>
      </trkpt>
      <trkpt lat="45.05625" lon="6.78384">
        <ele>1599.39</ele>
        <time>2017-01-05T07:39:53Z</time>
      </trkpt>
      <trkpt lat="45.05631" lon="6.7837">
        <ele>1600.49</ele>
        <time>2017-01-05T07:39:55Z</time>
      </trkpt>
      <trkpt lat="45.05639" lon="6.78354">
        <ele>1602.9</ele>
        <time>2017-01-05T07:39:58Z</time>
      </trkpt>
      <trkpt lat="45.05647" lon="6.78329">
        <ele>1604.1</ele>
        <time>2017-01-05T07:40:04Z</time>
      </trkpt>
      <trkpt lat="45.05653" lon="6.78314">
        <ele>1606.14</ele>
        <time>2017-01-05T07:40:07Z</time>
      </trkpt>
      <trkpt lat="45.05662" lon="6.78304">
        <ele>1610.27</ele>
        <time>2017-01-05T07:40:10Z</time>
      </trkpt>
      <trkpt lat="45.0567" lon="6.78321">
        <ele>1616</ele>
        <time>2017-01-05T07:40:16Z</time>
      </trkpt>
      <trkpt lat="45.05664" lon="6.7834">
        <ele>1615.17</ele>
        <time>2017-01-05T07:40:19Z</time>
      </trkpt>
      <trkpt lat="45.05664" lon="6.78358">
        <ele>1617.81</ele>
        <time>2017-01-05T07:40:22Z</time>
      </trkpt>
      <trkpt lat="45.05658" lon="6.78374">
        <ele>1617.04</ele>
        <time>2017-01-05T07:40:25Z</time>
      </trkpt>
      <trkpt lat="45.05656" lon="6.7839">
        <ele>1618.17</ele>
        <time>2017-01-05T07:40:28Z</time>
      </trkpt>
      <trkpt lat="45.05651" lon="6.78415">
        <ele>1618.12</ele>
        <time>2017-01-05T07:40:32Z</time>
      </trkpt>
      <trkpt lat="45.05648" lon="6.78429">
        <ele>1618.28</ele>
        <time>2017-01-05T07:40:34Z</time>
      </trkpt>
      <trkpt lat="45.05646" lon="6.78444">
        <ele>1620.04</ele>
        <time>2017-01-05T07:40:36Z</time>
      </trkpt>
      <trkpt lat="45.05646" lon="6.78459">
        <ele>1622.01</ele>
        <time>2017-01-05T07:40:38Z</time>
      </trkpt>
      <trkpt lat="45.05646" lon="6.78475">
        <ele>1624.46</ele>
        <time>2017-01-05T07:40:40Z</time>
      </trkpt>
      <trkpt lat="45.05642" lon="6.78492">
        <ele>1623.03</ele>
        <time>2017-01-05T07:40:43Z</time>
      </trkpt>
      <trkpt lat="45.05644" lon="6.78506">
        <ele>1625.03</ele>
        <time>2017-01-05T07:40:45Z</time>
      </trkpt>
      <trkpt lat="45.05638" lon="6.78533">
        <ele>1623.11</ele>
        <time>2017-01-05T07:40:49Z</time>
      </trkpt>
      <trkpt lat="45.05636" lon="6.7855">
        <ele>1623.81</ele>
        <time>2017-01-05T07:40:51Z</time>
      </trkpt>
      <trkpt lat="45.05637" lon="6.78567">
        <ele>1626.99</ele>
        <time>2017-01-05T07:40:53Z</time>
      </trkpt>
      <trkpt lat="45.0564" lon="6.7858">
        <ele>1631.06</ele>
        <time>2017-01-05T07:40:54Z</time>
      </trkpt>
      <trkpt lat="45.05638" lon="6.78599">
        <ele>1632.64</ele>
        <time>2017-01-05T07:40:56Z</time>
      </trkpt>
      <trkpt lat="45.0564" lon="6.78614">
        <ele>1635.25</ele>
        <time>2017-01-05T07:40:58Z</time>
      </trkpt>
      <trkpt lat="45.05645" lon="6.78626">
        <ele>1636.46</ele>
        <time>2017-01-05T07:41:00Z</time>
      </trkpt>
      <trkpt lat="45.0565" lon="6.78643">
        <ele>1636.8</ele>
        <time>2017-01-05T07:41:02Z</time>
      </trkpt>
      <trkpt lat="45.05658" lon="6.78658">
        <ele>1636.6</ele>
        <time>2017-01-05T07:41:04Z</time>
      </trkpt>
      <trkpt lat="45.05664" lon="6.78672">
        <ele>1636.07</ele>
        <time>2017-01-05T07:41:07Z</time>
      </trkpt>
      <trkpt lat="45.05674" lon="6.78678">
        <ele>1638.25</ele>
        <time>2017-01-05T07:41:10Z</time>
      </trkpt>
      <trkpt lat="45.05675" lon="6.78652">
        <ele>1645.11</ele>
        <time>2017-01-05T07:41:15Z</time>
      </trkpt>
      <trkpt lat="45.05672" lon="6.78634">
        <ele>1648.6</ele>
        <time>2017-01-05T07:41:19Z</time>
      </trkpt>
      <trkpt lat="45.05664" lon="6.7861">
        <ele>1646.86</ele>
        <time>2017-01-05T07:41:21Z</time>
      </trkpt>
      <trkpt lat="45.05663" lon="6.78596">
        <ele>1644.98</ele>
        <time>2017-01-05T07:41:23Z</time>
      </trkpt>
      <trkpt lat="45.05662" lon="6.78579">
        <ele>1642.85</ele>
        <time>2017-01-05T07:41:25Z</time>
      </trkpt>
      <trkpt lat="45.0567" lon="6.78554">
        <ele>1644.48</ele>
        <time>2017-01-05T07:41:29Z</time>
      </trkpt>
      <trkpt lat="45.05676" lon="6.78536">
        <ele>1647.18</ele>
        <time>2017-01-05T07:41:32Z</time>
      </trkpt>
      <trkpt lat="45.05686" lon="6.78526">
        <ele>1654.02</ele>
        <time>2017-01-05T07:41:34Z</time>
      </trkpt>
      <trkpt lat="45.05688" lon="6.7851">
        <ele>1653.26</ele>
        <time>2017-01-05T07:41:36Z</time>
      </trkpt>
      <trkpt lat="45.05691" lon="6.78494">
        <ele>1653.25</ele>
        <time>2017-01-05T07:41:38Z</time>
      </trkpt>
      <trkpt lat="45.05698" lon="6.7848">
        <ele>1655.81</ele>
        <time>2017-01-05T07:41:40Z</time>
      </trkpt>
      <trkpt lat="45.05708" lon="6.78471">
        <ele>1659.79</ele>
        <time>2017-01-05T07:41:42Z</time>
      </trkpt>
      <trkpt lat="45.05717" lon="6.78456">
        <ele>1662.71</ele>
        <time>2017-01-05T07:41:45Z</time>
      </trkpt>
      <trkpt lat="45.05725" lon="6.78442">
        <ele>1664.9</ele>
        <time>2017-01-05T07:41:48Z</time>
      </trkpt>
      <trkpt lat="45.05733" lon="6.78429">
        <ele>1666.96</ele>
        <time>2017-01-05T07:41:50Z</time>
      </trkpt>
      <trkpt lat="45.05738" lon="6.78417">
        <ele>1667.16</ele>
        <time>2017-01-05T07:41:52Z</time>
      </trkpt>
      <trkpt lat="45.05745" lon="6.78403">
        <ele>1667.18</ele>
        <time>2017-01-05T07:41:54Z</time>
      </trkpt>
      <trkpt lat="45.05749" lon="6.7839">
        <ele>1665.74</ele>
        <time>2017-01-05T07:41:56Z</time>
      </trkpt>
      <trkpt lat="45.05754" lon="6.78375">
        <ele>1666.17</ele>
        <time>2017-01-05T07:41:58Z</time>
      </trkpt>
      <trkpt lat="45.05763" lon="6.78366">
        <ele>1671.28</ele>
        <time>2017-01-05T07:42:00Z</time>
      </trkpt>
      <trkpt lat="45.05775" lon="6.78358">
        <ele>1678.98</ele>
        <time>2017-01-05T07:42:02Z</time>
      </trkpt>
      <trkpt lat="45.05775" lon="6.78342">
        <ele>1677.15</ele>
        <time>2017-01-05T07:42:04Z</time>
      </trkpt>
      <trkpt lat="45.0578" lon="6.78322">
        <ele>1677.31</ele>
        <time>2017-01-05T07:42:06Z</time>
      </trkpt>
      <trkpt lat="45.05782" lon="6.78306">
        <ele>1675.47</ele>
        <time>2017-01-05T07:42:08Z</time>
      </trkpt>
      <trkpt lat="45.05789" lon="6.78288">
        <ele>1674.83</ele>
        <time>2017-01-05T07:42:11Z</time>
      </trkpt>
      <trkpt lat="45.05793" lon="6.78262">
        <ele>1673.25</ele>
        <time>2017-01-05T07:42:15Z</time>
      </trkpt>
      <trkpt lat="45.05802" lon="6.78249">
        <ele>1676.08</ele>
        <time>2017-01-05T07:42:18Z</time>
      </trkpt>
      <trkpt lat="45.0581" lon="6.78234">
        <ele>1676.72</ele>
        <time>2017-01-05T07:42:21Z</time>
      </trkpt>
      <trkpt lat="45.05817" lon="6.78221">
        <ele>1676.74</ele>
        <time>2017-01-05T07:42:24Z</time>
      </trkpt>
      <trkpt lat="45.05825" lon="6.78209">
        <ele>1676.03</ele>
        <time>2017-01-05T07:42:26Z</time>
      </trkpt>
      <trkpt lat="45.05838" lon="6.78201">
        <ele>1676.6</ele>
        <time>2017-01-05T07:42:29Z</time>
      </trkpt>
      <trkpt lat="45.0585" lon="6.78198">
        <ele>1678.68</ele>
        <time>2017-01-05T07:42:32Z</time>
      </trkpt>
      <trkpt lat="45.05861" lon="6.78196">
        <ele>1680.46</ele>
        <time>2017-01-05T07:42:34Z</time>
      </trkpt>
      <trkpt lat="45.05872" lon="6.782">
        <ele>1683.1</ele>
        <time>2017-01-05T07:42:36Z</time>
      </trkpt>
      <trkpt lat="45.05883" lon="6.78197">
        <ele>1683.9</ele>
        <time>2017-01-05T07:42:38Z</time>
      </trkpt>
      <trkpt lat="45.05893" lon="6.78191">
        <ele>1684.7</ele>
        <time>2017-01-05T07:42:40Z</time>
      </trkpt>
      <trkpt lat="45.05904" lon="6.78189">
        <ele>1687.48</ele>
        <time>2017-01-05T07:42:43Z</time>
      </trkpt>
      <trkpt lat="45.05914" lon="6.78187">
        <ele>1690.19</ele>
        <time>2017-01-05T07:42:44Z</time>
      </trkpt>
      <trkpt lat="45.05924" lon="6.78184">
        <ele>1692.26</ele>
        <time>2017-01-05T07:42:47Z</time>
      </trkpt>
      <trkpt lat="45.05934" lon="6.78181">
        <ele>1694.1</ele>
        <time>2017-01-05T07:42:49Z</time>
      </trkpt>
      <trkpt lat="45.05927" lon="6.78203">
        <ele>1696.52</ele>
        <time>2017-01-05T07:42:53Z</time>
      </trkpt>
      <trkpt lat="45.05915" lon="6.78208">
        <ele>1694.45</ele>
        <time>2017-01-05T07:42:55Z</time>
      </trkpt>
      <trkpt lat="45.05904" lon="6.7822">
        <ele>1694.61</ele>
        <time>2017-01-05T07:42:58Z</time>
      </trkpt>
      <trkpt lat="45.05894" lon="6.78229">
        <ele>1695.36</ele>
        <time>2017-01-05T07:43:01Z</time>
      </trkpt>
      <trkpt lat="45.05877" lon="6.78242">
        <ele>1696.34</ele>
        <time>2017-01-05T07:43:05Z</time>
      </trkpt>
      <trkpt lat="45.05868" lon="6.78252">
        <ele>1697.9</ele>
        <time>2017-01-05T07:43:09Z</time>
      </trkpt>
      <trkpt lat="45.05891" lon="6.78247">
        <ele>1700.8</ele>
        <time>2017-01-05T07:43:16Z</time>
      </trkpt>
      <trkpt lat="45.05901" lon="6.78249">
        <ele>1704.23</ele>
        <time>2017-01-05T07:43:18Z</time>
      </trkpt>
      <trkpt lat="45.05911" lon="6.78251">
        <ele>1707.89</ele>
        <time>2017-01-05T07:43:20Z</time>
      </trkpt>
      <trkpt lat="45.05925" lon="6.78249">
        <ele>1710.69</ele>
        <time>2017-01-05T07:43:22Z</time>
      </trkpt>
      <trkpt lat="45.05937" lon="6.78251">
        <ele>1714.49</ele>
        <time>2017-01-05T07:43:24Z</time>
      </trkpt>
      <trkpt lat="45.05952" lon="6.78253">
        <ele>1719.33</ele>
        <time>2017-01-05T07:43:26Z</time>
      </trkpt>
      <trkpt lat="45.05961" lon="6.78243">
        <ele>1718.47</ele>
        <time>2017-01-05T07:43:27Z</time>
      </trkpt>
      <trkpt lat="45.05971" lon="6.78231">
        <ele>1716.9</ele>
        <time>2017-01-05T07:43:29Z</time>
      </trkpt>
      <trkpt lat="45.05984" lon="6.78212">
        <ele>1716.46</ele>
        <time>2017-01-05T07:43:33Z</time>
      </trkpt>
      <trkpt lat="45.05996" lon="6.78201">
        <ele>1719.96</ele>
        <time>2017-01-05T07:43:36Z</time>
      </trkpt>
      <trkpt lat="45.06008" lon="6.78193">
        <ele>1724.16</ele>
        <time>2017-01-05T07:43:38Z</time>
      </trkpt>
      <trkpt lat="45.06009" lon="6.78174">
        <ele>1723.02</ele>
        <time>2017-01-05T07:43:41Z</time>
      </trkpt>
      <trkpt lat="45.06008" lon="6.78156">
        <ele>1721.24</ele>
        <time>2017-01-05T07:43:44Z</time>
      </trkpt>
      <trkpt lat="45.06009" lon="6.78138">
        <ele>1720.21</ele>
        <time>2017-01-05T07:43:47Z</time>
      </trkpt>
      <trkpt lat="45.06014" lon="6.78124">
        <ele>1720.55</ele>
        <time>2017-01-05T07:43:50Z</time>
      </trkpt>
      <trkpt lat="45.06026" lon="6.78122">
        <ele>1724.58</ele>
        <time>2017-01-05T07:43:54Z</time>
      </trkpt>
      <trkpt lat="45.06024" lon="6.78135">
        <ele>1725.12</ele>
        <time>2017-01-05T07:43:57Z</time>
      </trkpt>
      <trkpt lat="45.06025" lon="6.78163">
        <ele>1727.62</ele>
        <time>2017-01-05T07:44:01Z</time>
      </trkpt>
      <trkpt lat="45.06033" lon="6.7819">
        <ele>1734.06</ele>
        <time>2017-01-05T07:44:06Z</time>
      </trkpt>
      <trkpt lat="45.06032" lon="6.78204">
        <ele>1735.99</ele>
        <time>2017-01-05T07:44:09Z</time>
      </trkpt>
      <trkpt lat="45.06035" lon="6.78224">
        <ele>1740.35</ele>
        <time>2017-01-05T07:44:12Z</time>
      </trkpt>
      <trkpt lat="45.06023" lon="6.7825">
        <ele>1745.62</ele>
        <time>2017-01-05T07:44:16Z</time>
      </trkpt>
      <trkpt lat="45.06013" lon="6.78261">
        <ele>1744.36</ele>
        <time>2017-01-05T07:44:18Z</time>
      </trkpt>
      <trkpt lat="45.05999" lon="6.78273">
        <ele>1741.1</ele>
        <time>2017-01-05T07:44:21Z</time>
      </trkpt>
      <trkpt lat="45.05991" lon="6.78284">
        <ele>1741.43</ele>
        <time>2017-01-05T07:44:23Z</time>
      </trkpt>
      <trkpt lat="45.05984" lon="6.78294">
        <ele>1742.3</ele>
        <time>2017-01-05T07:44:25Z</time>
      </trkpt>
      <trkpt lat="45.05967" lon="6.78308">
        <ele>1741.29</ele>
        <time>2017-01-05T07:44:29Z</time>
      </trkpt>
      <trkpt lat="45.05958" lon="6.78314">
        <ele>1740.73</ele>
        <time>2017-01-05T07:44:31Z</time>
      </trkpt>
      <trkpt lat="45.05947" lon="6.78323">
        <ele>1740.48</ele>
        <time>2017-01-05T07:44:35Z</time>
      </trkpt>
      <trkpt lat="45.05956" lon="6.78329">
        <ele>1744.32</ele>
        <time>2017-01-05T07:44:39Z</time>
      </trkpt>
      <trkpt lat="45.05967" lon="6.78318">
        <ele>1743.93</ele>
        <time>2017-01-05T07:44:42Z</time>
      </trkpt>
      <trkpt lat="45.05981" lon="6.7832">
        <ele>1748.29</ele>
        <time>2017-01-05T07:44:44Z</time>
      </trkpt>
      <trkpt lat="45.05993" lon="6.78311">
        <ele>1749.87</ele>
        <time>2017-01-05T07:44:46Z</time>
      </trkpt>
      <trkpt lat="45.06001" lon="6.78299">
        <ele>1749.31</ele>
        <time>2017-01-05T07:44:48Z</time>
      </trkpt>
      <trkpt lat="45.06011" lon="6.78289">
        <ele>1750.95</ele>
        <time>2017-01-05T07:44:50Z</time>
      </trkpt>
      <trkpt lat="45.06021" lon="6.78278">
        <ele>1752.2</ele>
        <time>2017-01-05T07:44:52Z</time>
      </trkpt>
      <trkpt lat="45.06033" lon="6.78271">
        <ele>1755.04</ele>
        <time>2017-01-05T07:44:54Z</time>
      </trkpt>
      <trkpt lat="45.06044" lon="6.78269">
        <ele>1758.58</ele>
        <time>2017-01-05T07:44:57Z</time>
      </trkpt>
      <trkpt lat="45.06058" lon="6.78267">
        <ele>1762.41</ele>
        <time>2017-01-05T07:44:59Z</time>
      </trkpt>
      <trkpt lat="45.06069" lon="6.78264">
        <ele>1764.79</ele>
        <time>2017-01-05T07:45:01Z</time>
      </trkpt>
      <trkpt lat="45.06083" lon="6.78263">
        <ele>1769.1</ele>
        <time>2017-01-05T07:45:03Z</time>
      </trkpt>
      <trkpt lat="45.06096" lon="6.78257">
        <ele>1772.35</ele>
        <time>2017-01-05T07:45:05Z</time>
      </trkpt>
      <trkpt lat="45.06107" lon="6.78247">
        <ele>1774.15</ele>
        <time>2017-01-05T07:45:07Z</time>
      </trkpt>
      <trkpt lat="45.06118" lon="6.78237">
        <ele>1775.89</ele>
        <time>2017-01-05T07:45:09Z</time>
      </trkpt>
      <trkpt lat="45.06127" lon="6.78227">
        <ele>1776.35</ele>
        <time>2017-01-05T07:45:11Z</time>
      </trkpt>
      <trkpt lat="45.06131" lon="6.78206">
        <ele>1774.31</ele>
        <time>2017-01-05T07:45:13Z</time>
      </trkpt>
      <trkpt lat="45.06136" lon="6.7819">
        <ele>1772.99</ele>
        <time>2017-01-05T07:45:15Z</time>
      </trkpt>
      <trkpt lat="45.0614" lon="6.78173">
        <ele>1772.05</ele>
        <time>2017-01-05T07:45:17Z</time>
      </trkpt>
      <trkpt lat="45.06142" lon="6.78155">
        <ele>1770.03</ele>
        <time>2017-01-05T07:45:19Z</time>
      </trkpt>
      <trkpt lat="45.06148" lon="6.7814">
        <ele>1769.52</ele>
        <time>2017-01-05T07:45:21Z</time>
      </trkpt>
      <trkpt lat="45.06162" lon="6.78125">
        <ele>1769.42</ele>
        <time>2017-01-05T07:45:25Z</time>
      </trkpt>
      <trkpt lat="45.06174" lon="6.78123">
        <ele>1772.35</ele>
        <time>2017-01-05T07:45:27Z</time>
      </trkpt>
      <trkpt lat="45.06186" lon="6.78122">
        <ele>1776.56</ele>
        <time>2017-01-05T07:45:29Z</time>
      </trkpt>
      <trkpt lat="45.06199" lon="6.78124">
        <ele>1780.57</ele>
        <time>2017-01-05T07:45:31Z</time>
      </trkpt>
      <trkpt lat="45.06221" lon="6.78122">
        <ele>1785</ele>
        <time>2017-01-05T07:45:36Z</time>
      </trkpt>
      <trkpt lat="45.06232" lon="6.78117">
        <ele>1786.88</ele>
        <time>2017-01-05T07:45:41Z</time>
      </trkpt>
      <trkpt lat="45.06229" lon="6.78137">
        <ele>1790.36</ele>
        <time>2017-01-05T07:45:47Z</time>
      </trkpt>
      <trkpt lat="45.06224" lon="6.78153">
        <ele>1792.53</ele>
        <time>2017-01-05T07:45:50Z</time>
      </trkpt>
      <trkpt lat="45.06223" lon="6.78183">
        <ele>1797.7</ele>
        <time>2017-01-05T07:45:55Z</time>
      </trkpt>
      <trkpt lat="45.06221" lon="6.78198">
        <ele>1798.94</ele>
        <time>2017-01-05T07:45:57Z</time>
      </trkpt>
      <trkpt lat="45.0622" lon="6.78216">
        <ele>1801.23</ele>
        <time>2017-01-05T07:45:59Z</time>
      </trkpt>
      <trkpt lat="45.06222" lon="6.78235">
        <ele>1803.34</ele>
        <time>2017-01-05T07:46:01Z</time>
      </trkpt>
      <trkpt lat="45.06216" lon="6.78257">
        <ele>1803.57</ele>
        <time>2017-01-05T07:46:03Z</time>
      </trkpt>
      <trkpt lat="45.06214" lon="6.78272">
        <ele>1805.83</ele>
        <time>2017-01-05T07:46:05Z</time>
      </trkpt>
      <trkpt lat="45.06206" lon="6.78283">
        <ele>1805.85</ele>
        <time>2017-01-05T07:46:07Z</time>
      </trkpt>
      <trkpt lat="45.06198" lon="6.78294">
        <ele>1806.26</ele>
        <time>2017-01-05T07:46:09Z</time>
      </trkpt>
      <trkpt lat="45.06188" lon="6.78301">
        <ele>1805.79</ele>
        <time>2017-01-05T07:46:11Z</time>
      </trkpt>
      <trkpt lat="45.06171" lon="6.78309">
        <ele>1805.02</ele>
        <time>2017-01-05T07:46:13Z</time>
      </trkpt>
      <trkpt lat="45.06162" lon="6.78319">
        <ele>1806.2</ele>
        <time>2017-01-05T07:46:15Z</time>
      </trkpt>
      <trkpt lat="45.06144" lon="6.78332">
        <ele>1804.9</ele>
        <time>2017-01-05T07:46:19Z</time>
      </trkpt>
      <trkpt lat="45.06135" lon="6.78339">
        <ele>1804.32</ele>
        <time>2017-01-05T07:46:21Z</time>
      </trkpt>
      <trkpt lat="45.0613" lon="6.78352">
        <ele>1806.44</ele>
        <time>2017-01-05T07:46:23Z</time>
      </trkpt>
      <trkpt lat="45.06125" lon="6.78364">
        <ele>1808.06</ele>
        <time>2017-01-05T07:46:25Z</time>
      </trkpt>
      <trkpt lat="45.06124" lon="6.78379">
        <ele>1809.98</ele>
        <time>2017-01-05T07:46:27Z</time>
      </trkpt>
      <trkpt lat="45.06122" lon="6.78396">
        <ele>1811.49</ele>
        <time>2017-01-05T07:46:29Z</time>
      </trkpt>
      <trkpt lat="45.0612" lon="6.78424">
        <ele>1812.17</ele>
        <time>2017-01-05T07:46:33Z</time>
      </trkpt>
      <trkpt lat="45.06125" lon="6.78437">
        <ele>1813.32</ele>
        <time>2017-01-05T07:46:35Z</time>
      </trkpt>
      <trkpt lat="45.06129" lon="6.78453">
        <ele>1813.59</ele>
        <time>2017-01-05T07:46:38Z</time>
      </trkpt>
      <trkpt lat="45.06142" lon="6.78476">
        <ele>1815.33</ele>
        <time>2017-01-05T07:46:42Z</time>
      </trkpt>
      <trkpt lat="45.06155" lon="6.78497">
        <ele>1819.9</ele>
        <time>2017-01-05T07:46:46Z</time>
      </trkpt>
      <trkpt lat="45.06171" lon="6.78512">
        <ele>1824.42</ele>
        <time>2017-01-05T07:46:50Z</time>
      </trkpt>
      <trkpt lat="45.06184" lon="6.78515">
        <ele>1826.65</ele>
        <time>2017-01-05T07:46:54Z</time>
      </trkpt>
      <trkpt lat="45.06176" lon="6.78492">
        <ele>1824.36</ele>
        <time>2017-01-05T07:46:59Z</time>
      </trkpt>
      <trkpt lat="45.06177" lon="6.7846">
        <ele>1826.76</ele>
        <time>2017-01-05T07:47:04Z</time>
      </trkpt>
      <trkpt lat="45.06181" lon="6.78445">
        <ele>1829.56</ele>
        <time>2017-01-05T07:47:07Z</time>
      </trkpt>
      <trkpt lat="45.06185" lon="6.78431">
        <ele>1831.17</ele>
        <time>2017-01-05T07:47:09Z</time>
      </trkpt>
      <trkpt lat="45.06191" lon="6.78416">
        <ele>1832.9</ele>
        <time>2017-01-05T07:47:11Z</time>
      </trkpt>
      <trkpt lat="45.062" lon="6.78404">
        <ele>1833.02</ele>
        <time>2017-01-05T07:47:13Z</time>
      </trkpt>
      <trkpt lat="45.06206" lon="6.7839">
        <ele>1832.05</ele>
        <time>2017-01-05T07:47:15Z</time>
      </trkpt>
      <trkpt lat="45.06212" lon="6.78378">
        <ele>1831.04</ele>
        <time>2017-01-05T07:47:17Z</time>
      </trkpt>
      <trkpt lat="45.06228" lon="6.78357">
        <ele>1830.16</ele>
        <time>2017-01-05T07:47:21Z</time>
      </trkpt>
      <trkpt lat="45.06239" lon="6.7835">
        <ele>1832.64</ele>
        <time>2017-01-05T07:47:24Z</time>
      </trkpt>
      <trkpt lat="45.06251" lon="6.78349">
        <ele>1837.21</ele>
        <time>2017-01-05T07:47:26Z</time>
      </trkpt>
      <trkpt lat="45.06266" lon="6.78346">
        <ele>1842.94</ele>
        <time>2017-01-05T07:47:28Z</time>
      </trkpt>
      <trkpt lat="45.06278" lon="6.78344">
        <ele>1847.74</ele>
        <time>2017-01-05T07:47:30Z</time>
      </trkpt>
      <trkpt lat="45.06289" lon="6.7834">
        <ele>1850.61</ele>
        <time>2017-01-05T07:47:32Z</time>
      </trkpt>
      <trkpt lat="45.063" lon="6.78337">
        <ele>1853.96</ele>
        <time>2017-01-05T07:47:34Z</time>
      </trkpt>
      <trkpt lat="45.06309" lon="6.78329">
        <ele>1854.98</ele>
        <time>2017-01-05T07:47:36Z</time>
      </trkpt>
      <trkpt lat="45.06318" lon="6.78318">
        <ele>1854.85</ele>
        <time>2017-01-05T07:47:38Z</time>
      </trkpt>
      <trkpt lat="45.06325" lon="6.78306">
        <ele>1854.18</ele>
        <time>2017-01-05T07:47:40Z</time>
      </trkpt>
      <trkpt lat="45.06333" lon="6.7829">
        <ele>1852.33</ele>
        <time>2017-01-05T07:47:42Z</time>
      </trkpt>
      <trkpt lat="45.06342" lon="6.78279">
        <ele>1852.52</ele>
        <time>2017-01-05T07:47:44Z</time>
      </trkpt>
      <trkpt lat="45.06348" lon="6.78266">
        <ele>1851.59</ele>
        <time>2017-01-05T07:47:46Z</time>
      </trkpt>
      <trkpt lat="45.06354" lon="6.78254">
        <ele>1851.28</ele>
        <time>2017-01-05T07:47:48Z</time>
      </trkpt>
      <trkpt lat="45.06363" lon="6.78241">
        <ele>1851.64</ele>
        <time>2017-01-05T07:47:51Z</time>
      </trkpt>
      <trkpt lat="45.06373" lon="6.78235">
        <ele>1853.53</ele>
        <time>2017-01-05T07:47:54Z</time>
      </trkpt>
      <trkpt lat="45.06384" lon="6.78228">
        <ele>1855.79</ele>
        <time>2017-01-05T07:47:57Z</time>
      </trkpt>
      <trkpt lat="45.06395" lon="6.78224">
        <ele>1858.93</ele>
        <time>2017-01-05T07:47:59Z</time>
      </trkpt>
      <trkpt lat="45.06406" lon="6.78215">
        <ele>1860.88</ele>
        <time>2017-01-05T07:48:02Z</time>
      </trkpt>
      <trkpt lat="45.06415" lon="6.78205">
        <ele>1861.86</ele>
        <time>2017-01-05T07:48:11Z</time>
      </trkpt>
      <trkpt lat="45.06402" lon="6.78226">
        <ele>1861.3</ele>
        <time>2017-01-05T07:48:19Z</time>
      </trkpt>
      <trkpt lat="45.06394" lon="6.78233">
        <ele>1859.64</ele>
        <time>2017-01-05T07:48:21Z</time>
      </trkpt>
      <trkpt lat="45.06385" lon="6.78246">
        <ele>1858.51</ele>
        <time>2017-01-05T07:48:24Z</time>
      </trkpt>
      <trkpt lat="45.06378" lon="6.78276">
        <ele>1862.33</ele>
        <time>2017-01-05T07:48:28Z</time>
      </trkpt>
      <trkpt lat="45.06373" lon="6.78303">
        <ele>1867.52</ele>
        <time>2017-01-05T07:48:32Z</time>
      </trkpt>
      <trkpt lat="45.0637" lon="6.7832">
        <ele>1869.97</ele>
        <time>2017-01-05T07:48:34Z</time>
      </trkpt>
      <trkpt lat="45.06366" lon="6.78333">
        <ele>1871.84</ele>
        <time>2017-01-05T07:48:36Z</time>
      </trkpt>
      <trkpt lat="45.06363" lon="6.78349">
        <ele>1874.1</ele>
        <time>2017-01-05T07:48:38Z</time>
      </trkpt>
      <trkpt lat="45.06355" lon="6.78364">
        <ele>1874.85</ele>
        <time>2017-01-05T07:48:40Z</time>
      </trkpt>
      <trkpt lat="45.06348" lon="6.78378">
        <ele>1874.24</ele>
        <time>2017-01-05T07:48:42Z</time>
      </trkpt>
      <trkpt lat="45.06344" lon="6.78393">
        <ele>1873.96</ele>
        <time>2017-01-05T07:48:45Z</time>
      </trkpt>
      <trkpt lat="45.06346" lon="6.78407">
        <ele>1875.22</ele>
        <time>2017-01-05T07:48:47Z</time>
      </trkpt>
      <trkpt lat="45.06351" lon="6.78425">
        <ele>1877.18</ele>
        <time>2017-01-05T07:48:49Z</time>
      </trkpt>
      <trkpt lat="45.06354" lon="6.78441">
        <ele>1878.4</ele>
        <time>2017-01-05T07:48:51Z</time>
      </trkpt>
      <trkpt lat="45.06356" lon="6.7846">
        <ele>1879.85</ele>
        <time>2017-01-05T07:48:53Z</time>
      </trkpt>
      <trkpt lat="45.06365" lon="6.78468">
        <ele>1883.46</ele>
        <time>2017-01-05T07:48:55Z</time>
      </trkpt>
      <trkpt lat="45.06376" lon="6.78492">
        <ele>1885.73</ele>
        <time>2017-01-05T07:48:59Z</time>
      </trkpt>
      <trkpt lat="45.06379" lon="6.78507">
        <ele>1886.15</ele>
        <time>2017-01-05T07:49:01Z</time>
      </trkpt>
      <trkpt lat="45.06383" lon="6.78522">
        <ele>1887.03</ele>
        <time>2017-01-05T07:49:03Z</time>
      </trkpt>
      <trkpt lat="45.06389" lon="6.78535">
        <ele>1888.86</ele>
        <time>2017-01-05T07:49:05Z</time>
      </trkpt>
      <trkpt lat="45.06396" lon="6.78548">
        <ele>1890.9</ele>
        <time>2017-01-05T07:49:07Z</time>
      </trkpt>
      <trkpt lat="45.064" lon="6.78564">
        <ele>1890.97</ele>
        <time>2017-01-05T07:49:09Z</time>
      </trkpt>
      <trkpt lat="45.06406" lon="6.7858">
        <ele>1890.51</ele>
        <time>2017-01-05T07:49:11Z</time>
      </trkpt>
      <trkpt lat="45.06411" lon="6.78596">
        <ele>1890.83</ele>
        <time>2017-01-05T07:49:13Z</time>
      </trkpt>
      <trkpt lat="45.06416" lon="6.7861">
        <ele>1891.56</ele>
        <time>2017-01-05T07:49:15Z</time>
      </trkpt>
      <trkpt lat="45.0642" lon="6.78624">
        <ele>1892.88</ele>
        <time>2017-01-05T07:49:17Z</time>
      </trkpt>
      <trkpt lat="45.06425" lon="6.78638">
        <ele>1894.18</ele>
        <time>2017-01-05T07:49:19Z</time>
      </trkpt>
      <trkpt lat="45.06431" lon="6.78652">
        <ele>1895.19</ele>
        <time>2017-01-05T07:49:21Z</time>
      </trkpt>
      <trkpt lat="45.06434" lon="6.78667">
        <ele>1894.48</ele>
        <time>2017-01-05T07:49:23Z</time>
      </trkpt>
      <trkpt lat="45.06432" lon="6.78684">
        <ele>1891.35</ele>
        <time>2017-01-05T07:49:26Z</time>
      </trkpt>
      <trkpt lat="45.06433" lon="6.78716">
        <ele>1889.13</ele>
        <time>2017-01-05T07:49:31Z</time>
      </trkpt>
      <trkpt lat="45.06436" lon="6.78733">
        <ele>1889.28</ele>
        <time>2017-01-05T07:49:33Z</time>
      </trkpt>
      <trkpt lat="45.06442" lon="6.78764">
        <ele>1889.43</ele>
        <time>2017-01-05T07:49:38Z</time>
      </trkpt>
      <trkpt lat="45.06443" lon="6.7878">
        <ele>1888.66</ele>
        <time>2017-01-05T07:49:40Z</time>
      </trkpt>
      <trkpt lat="45.06444" lon="6.78797">
        <ele>1888.73</ele>
        <time>2017-01-05T07:49:42Z</time>
      </trkpt>
      <trkpt lat="45.06445" lon="6.78815">
        <ele>1889.53</ele>
        <time>2017-01-05T07:49:44Z</time>
      </trkpt>
      <trkpt lat="45.06447" lon="6.78833">
        <ele>1891.23</ele>
        <time>2017-01-05T07:49:46Z</time>
      </trkpt>
      <trkpt lat="45.06448" lon="6.7885">
        <ele>1894.47</ele>
        <time>2017-01-05T07:49:48Z</time>
      </trkpt>
      <trkpt lat="45.0645" lon="6.78869">
        <ele>1897.9</ele>
        <time>2017-01-05T07:49:50Z</time>
      </trkpt>
      <trkpt lat="45.0645" lon="6.78884">
        <ele>1900.23</ele>
        <time>2017-01-05T07:49:52Z</time>
      </trkpt>
      <trkpt lat="45.06453" lon="6.78898">
        <ele>1902.65</ele>
        <time>2017-01-05T07:49:55Z</time>
      </trkpt>
      <trkpt lat="45.06457" lon="6.78917">
        <ele>1904.97</ele>
        <time>2017-01-05T07:49:58Z</time>
      </trkpt>
      <trkpt lat="45.06462" lon="6.78935">
        <ele>1907.16</ele>
        <time>2017-01-05T07:50:01Z</time>
      </trkpt>
      <trkpt lat="45.06465" lon="6.78951">
        <ele>1908.77</ele>
        <time>2017-01-05T07:50:03Z</time>
      </trkpt>
      <trkpt lat="45.06466" lon="6.78981">
        <ele>1908.78</ele>
        <time>2017-01-05T07:50:08Z</time>
      </trkpt>
      <trkpt lat="45.0647" lon="6.78996">
        <ele>1909.31</ele>
        <time>2017-01-05T07:50:12Z</time>
      </trkpt>
      <trkpt lat="45.06484" lon="6.78974">
        <ele>1916.85</ele>
        <time>2017-01-05T07:50:20Z</time>
      </trkpt>
      <trkpt lat="45.06491" lon="6.78959">
        <ele>1919.98</ele>
        <time>2017-01-05T07:50:23Z</time>
      </trkpt>
      <trkpt lat="45.06494" lon="6.78932">
        <ele>1921.58</ele>
        <time>2017-01-05T07:50:28Z</time>
      </trkpt>
      <trkpt lat="45.06495" lon="6.78916">
        <ele>1922.61</ele>
        <time>2017-01-05T07:50:29Z</time>
      </trkpt>
      <trkpt lat="45.06498" lon="6.78898">
        <ele>1924.55</ele>
        <time>2017-01-05T07:50:31Z</time>
      </trkpt>
      <trkpt lat="45.06501" lon="6.78883">
        <ele>1926.21</ele>
        <time>2017-01-05T07:50:33Z</time>
      </trkpt>
      <trkpt lat="45.06503" lon="6.78866">
        <ele>1926.36</ele>
        <time>2017-01-05T07:50:35Z</time>
      </trkpt>
      <trkpt lat="45.06507" lon="6.7885">
        <ele>1926.73</ele>
        <time>2017-01-05T07:50:37Z</time>
      </trkpt>
      <trkpt lat="45.0651" lon="6.78836">
        <ele>1926.79</ele>
        <time>2017-01-05T07:50:39Z</time>
      </trkpt>
      <trkpt lat="45.06514" lon="6.7882">
        <ele>1925.97</ele>
        <time>2017-01-05T07:50:41Z</time>
      </trkpt>
      <trkpt lat="45.06515" lon="6.78803">
        <ele>1924.07</ele>
        <time>2017-01-05T07:50:43Z</time>
      </trkpt>
      <trkpt lat="45.06515" lon="6.78786">
        <ele>1922.31</ele>
        <time>2017-01-05T07:50:45Z</time>
      </trkpt>
      <trkpt lat="45.06518" lon="6.78771">
        <ele>1922.04</ele>
        <time>2017-01-05T07:50:47Z</time>
      </trkpt>
      <trkpt lat="45.06518" lon="6.78753">
        <ele>1921.67</ele>
        <time>2017-01-05T07:50:49Z</time>
      </trkpt>
      <trkpt lat="45.06517" lon="6.78734">
        <ele>1922.12</ele>
        <time>2017-01-05T07:50:51Z</time>
      </trkpt>
      <trkpt lat="45.06516" lon="6.7872">
        <ele>1923.23</ele>
        <time>2017-01-05T07:50:53Z</time>
      </trkpt>
      <trkpt lat="45.06516" lon="6.78704">
        <ele>1925.62</ele>
        <time>2017-01-05T07:50:55Z</time>
      </trkpt>
      <trkpt lat="45.06519" lon="6.78674">
        <ele>1931.35</ele>
        <time>2017-01-05T07:50:59Z</time>
      </trkpt>
      <trkpt lat="45.06519" lon="6.78654">
        <ele>1932.43</ele>
        <time>2017-01-05T07:51:01Z</time>
      </trkpt>
      <trkpt lat="45.06519" lon="6.78635">
        <ele>1932.95</ele>
        <time>2017-01-05T07:51:04Z</time>
      </trkpt>
      <trkpt lat="45.06516" lon="6.7862">
        <ele>1933.02</ele>
        <time>2017-01-05T07:51:06Z</time>
      </trkpt>
      <trkpt lat="45.06514" lon="6.78606">
        <ele>1932.98</ele>
        <time>2017-01-05T07:51:08Z</time>
      </trkpt>
      <trkpt lat="45.06515" lon="6.78592">
        <ele>1934.61</ele>
        <time>2017-01-05T07:51:10Z</time>
      </trkpt>
      <trkpt lat="45.06519" lon="6.78559">
        <ele>1940.31</ele>
        <time>2017-01-05T07:51:15Z</time>
      </trkpt>
      <trkpt lat="45.06521" lon="6.78544">
        <ele>1942.03</ele>
        <time>2017-01-05T07:51:17Z</time>
      </trkpt>
      <trkpt lat="45.06532" lon="6.78522">
        <ele>1947.84</ele>
        <time>2017-01-05T07:51:21Z</time>
      </trkpt>
      <trkpt lat="45.06537" lon="6.78509">
        <ele>1949.04</ele>
        <time>2017-01-05T07:51:23Z</time>
      </trkpt>
      <trkpt lat="45.06541" lon="6.78495">
        <ele>1950.09</ele>
        <time>2017-01-05T07:51:25Z</time>
      </trkpt>
      <trkpt lat="45.06548" lon="6.78482">
        <ele>1953.08</ele>
        <time>2017-01-05T07:51:27Z</time>
      </trkpt>
      <trkpt lat="45.06554" lon="6.78465">
        <ele>1955.94</ele>
        <time>2017-01-05T07:51:30Z</time>
      </trkpt>
      <trkpt lat="45.06559" lon="6.78445">
        <ele>1957.59</ele>
        <time>2017-01-05T07:51:33Z</time>
      </trkpt>
      <trkpt lat="45.06565" lon="6.78431">
        <ele>1959.77</ele>
        <time>2017-01-05T07:51:36Z</time>
      </trkpt>
      <trkpt lat="45.06571" lon="6.78417">
        <ele>1961.77</ele>
        <time>2017-01-05T07:51:39Z</time>
      </trkpt>
      <trkpt lat="45.06577" lon="6.78403">
        <ele>1963.4</ele>
        <time>2017-01-05T07:51:42Z</time>
      </trkpt>
      <trkpt lat="45.06585" lon="6.78391">
        <ele>1965.75</ele>
        <time>2017-01-05T07:51:45Z</time>
      </trkpt>
      <trkpt lat="45.06595" lon="6.7838">
        <ele>1966.9</ele>
        <time>2017-01-05T07:51:48Z</time>
      </trkpt>
      <trkpt lat="45.06605" lon="6.78369">
        <ele>1967.65</ele>
        <time>2017-01-05T07:51:51Z</time>
      </trkpt>
      <trkpt lat="45.06615" lon="6.78357">
        <ele>1968.44</ele>
        <time>2017-01-05T07:51:54Z</time>
      </trkpt>
      <trkpt lat="45.06624" lon="6.78343">
        <ele>1968.59</ele>
        <time>2017-01-05T07:51:57Z</time>
      </trkpt>
      <trkpt lat="45.06634" lon="6.78335">
        <ele>1969.35</ele>
        <time>2017-01-05T07:52:02Z</time>
      </trkpt>
      <trkpt lat="45.06641" lon="6.78347">
        <ele>1973.39</ele>
        <time>2017-01-05T07:52:07Z</time>
      </trkpt>
      <trkpt lat="45.06632" lon="6.78357">
        <ele>1973.15</ele>
        <time>2017-01-05T07:52:11Z</time>
      </trkpt>
      <trkpt lat="45.06618" lon="6.78379">
        <ele>1973.13</ele>
        <time>2017-01-05T07:52:17Z</time>
      </trkpt>
      <trkpt lat="45.06614" lon="6.78393">
        <ele>1974.21</ele>
        <time>2017-01-05T07:52:19Z</time>
      </trkpt>
      <trkpt lat="45.06611" lon="6.78408">
        <ele>1975.6</ele>
        <time>2017-01-05T07:52:22Z</time>
      </trkpt>
      <trkpt lat="45.06611" lon="6.78423">
        <ele>1977.26</ele>
        <time>2017-01-05T07:52:25Z</time>
      </trkpt>
      <trkpt lat="45.06613" lon="6.78442">
        <ele>1979.13</ele>
        <time>2017-01-05T07:52:28Z</time>
      </trkpt>
      <trkpt lat="45.06617" lon="6.78469">
        <ele>1979.46</ele>
        <time>2017-01-05T07:52:32Z</time>
      </trkpt>
      <trkpt lat="45.06618" lon="6.78487">
        <ele>1979.49</ele>
        <time>2017-01-05T07:52:34Z</time>
      </trkpt>
      <trkpt lat="45.06618" lon="6.78505">
        <ele>1979.22</ele>
        <time>2017-01-05T07:52:36Z</time>
      </trkpt>
      <trkpt lat="45.0662" lon="6.78523">
        <ele>1979.65</ele>
        <time>2017-01-05T07:52:39Z</time>
      </trkpt>
      <trkpt lat="45.06624" lon="6.7854">
        <ele>1981.86</ele>
        <time>2017-01-05T07:52:43Z</time>
      </trkpt>
      <trkpt lat="45.06628" lon="6.78553">
        <ele>1985.08</ele>
        <time>2017-01-05T07:52:46Z</time>
      </trkpt>
      <trkpt lat="45.06635" lon="6.78568">
        <ele>1989.06</ele>
        <time>2017-01-05T07:52:49Z</time>
      </trkpt>
      <trkpt lat="45.06648" lon="6.78604">
        <ele>1994.27</ele>
        <time>2017-01-05T07:52:54Z</time>
      </trkpt>
      <trkpt lat="45.06653" lon="6.7862">
        <ele>1996.3</ele>
        <time>2017-01-05T07:52:57Z</time>
      </trkpt>
      <trkpt lat="45.06658" lon="6.78635">
        <ele>1998.37</ele>
        <time>2017-01-05T07:53:00Z</time>
      </trkpt>
      <trkpt lat="45.06669" lon="6.78661">
        <ele>2001.32</ele>
        <time>2017-01-05T07:53:05Z</time>
      </trkpt>
      <trkpt lat="45.06675" lon="6.78676">
        <ele>2001.93</ele>
        <time>2017-01-05T07:53:08Z</time>
      </trkpt>
      <trkpt lat="45.0668" lon="6.78693">
        <ele>2001.81</ele>
        <time>2017-01-05T07:53:11Z</time>
      </trkpt>
      <trkpt lat="45.06682" lon="6.7871">
        <ele>2001.31</ele>
        <time>2017-01-05T07:53:14Z</time>
      </trkpt>
      <trkpt lat="45.06685" lon="6.78724">
        <ele>2001.86</ele>
        <time>2017-01-05T07:53:17Z</time>
      </trkpt>
      <trkpt lat="45.06689" lon="6.78739">
        <ele>2003.93</ele>
        <time>2017-01-05T07:53:20Z</time>
      </trkpt>
      <trkpt lat="45.06695" lon="6.78756">
        <ele>2006.16</ele>
        <time>2017-01-05T07:53:23Z</time>
      </trkpt>
      <trkpt lat="45.06703" lon="6.78784">
        <ele>2008.74</ele>
        <time>2017-01-05T07:53:30Z</time>
      </trkpt>
      <trkpt lat="45.0671" lon="6.78774">
        <ele>2012.33</ele>
        <time>2017-01-05T07:53:40Z</time>
      </trkpt>
      <trkpt lat="45.06709" lon="6.7874">
        <ele>2012.42</ele>
        <time>2017-01-05T07:53:45Z</time>
      </trkpt>
      <trkpt lat="45.06713" lon="6.78709">
        <ele>2013.18</ele>
        <time>2017-01-05T07:53:50Z</time>
      </trkpt>
      <trkpt lat="45.06724" lon="6.7868">
        <ele>2018.77</ele>
        <time>2017-01-05T07:53:55Z</time>
      </trkpt>
      <trkpt lat="45.0674" lon="6.78657">
        <ele>2026.01</ele>
        <time>2017-01-05T07:54:00Z</time>
      </trkpt>
      <trkpt lat="45.0675" lon="6.78646">
        <ele>2029.09</ele>
        <time>2017-01-05T07:54:03Z</time>
      </trkpt>
      <trkpt lat="45.06769" lon="6.7863">
        <ele>2032.26</ele>
        <time>2017-01-05T07:54:08Z</time>
      </trkpt>
      <trkpt lat="45.06779" lon="6.78621">
        <ele>2033.26</ele>
        <time>2017-01-05T07:54:11Z</time>
      </trkpt>
      <trkpt lat="45.06789" lon="6.78612">
        <ele>2034.04</ele>
        <time>2017-01-05T07:54:14Z</time>
      </trkpt>
      <trkpt lat="45.068" lon="6.78602">
        <ele>2036.6</ele>
        <time>2017-01-05T07:54:17Z</time>
      </trkpt>
      <trkpt lat="45.06805" lon="6.78587">
        <ele>2038.68</ele>
        <time>2017-01-05T07:54:20Z</time>
      </trkpt>
      <trkpt lat="45.068" lon="6.78574">
        <ele>2038.78</ele>
        <time>2017-01-05T07:54:22Z</time>
      </trkpt>
      <trkpt lat="45.06792" lon="6.78561">
        <ele>2038.42</ele>
        <time>2017-01-05T07:54:25Z</time>
      </trkpt>
      <trkpt lat="45.06791" lon="6.78546">
        <ele>2039.21</ele>
        <time>2017-01-05T07:54:28Z</time>
      </trkpt>
      <trkpt lat="45.06801" lon="6.78523">
        <ele>2041.83</ele>
        <time>2017-01-05T07:54:32Z</time>
      </trkpt>
      <trkpt lat="45.06804" lon="6.78505">
        <ele>2041.82</ele>
        <time>2017-01-05T07:54:35Z</time>
      </trkpt>
      <trkpt lat="45.0681" lon="6.7849">
        <ele>2043.41</ele>
        <time>2017-01-05T07:54:38Z</time>
      </trkpt>
      <trkpt lat="45.06819" lon="6.78465">
        <ele>2046.62</ele>
        <time>2017-01-05T07:54:43Z</time>
      </trkpt>
      <trkpt lat="45.06824" lon="6.7845">
        <ele>2048.22</ele>
        <time>2017-01-05T07:54:46Z</time>
      </trkpt>
      <trkpt lat="45.06834" lon="6.78429">
        <ele>2050.66</ele>
        <time>2017-01-05T07:54:51Z</time>
      </trkpt>
      <trkpt lat="45.06842" lon="6.78415">
        <ele>2051.87</ele>
        <time>2017-01-05T07:54:54Z</time>
      </trkpt>
      <trkpt lat="45.06849" lon="6.78404">
        <ele>2052.24</ele>
        <time>2017-01-05T07:54:56Z</time>
      </trkpt>
      <trkpt lat="45.06856" lon="6.7839">
        <ele>2053.04</ele>
        <time>2017-01-05T07:54:58Z</time>
      </trkpt>
      <trkpt lat="45.06859" lon="6.78374">
        <ele>2052.55</ele>
        <time>2017-01-05T07:55:00Z</time>
      </trkpt>
      <trkpt lat="45.06861" lon="6.78357">
        <ele>2051.56</ele>
        <time>2017-01-05T07:55:03Z</time>
      </trkpt>
      <trkpt lat="45.06868" lon="6.78347">
        <ele>2051.51</ele>
        <time>2017-01-05T07:55:06Z</time>
      </trkpt>
      <trkpt lat="45.06877" lon="6.7834">
        <ele>2052.37</ele>
        <time>2017-01-05T07:55:09Z</time>
      </trkpt>
      <trkpt lat="45.06888" lon="6.78336">
        <ele>2053.93</ele>
        <time>2017-01-05T07:55:12Z</time>
      </trkpt>
      <trkpt lat="45.06906" lon="6.78328">
        <ele>2055.59</ele>
        <time>2017-01-05T07:55:16Z</time>
      </trkpt>
      <trkpt lat="45.06921" lon="6.78327">
        <ele>2058.05</ele>
        <time>2017-01-05T07:55:18Z</time>
      </trkpt>
      <trkpt lat="45.06933" lon="6.78329">
        <ele>2060.77</ele>
        <time>2017-01-05T07:55:21Z</time>
      </trkpt>
      <trkpt lat="45.06943" lon="6.78333">
        <ele>2063.65</ele>
        <time>2017-01-05T07:55:23Z</time>
      </trkpt>
      <trkpt lat="45.06954" lon="6.78334">
        <ele>2067.24</ele>
        <time>2017-01-05T07:55:26Z</time>
      </trkpt>
      <trkpt lat="45.06967" lon="6.78338">
        <ele>2071.46</ele>
        <time>2017-01-05T07:55:29Z</time>
      </trkpt>
      <trkpt lat="45.06979" lon="6.78336">
        <ele>2075.35</ele>
        <time>2017-01-05T07:55:31Z</time>
      </trkpt>
      <trkpt lat="45.06992" lon="6.78335">
        <ele>2079.35</ele>
        <time>2017-01-05T07:55:33Z</time>
      </trkpt>
      <trkpt lat="45.07002" lon="6.78333">
        <ele>2082.26</ele>
        <time>2017-01-05T07:55:35Z</time>
      </trkpt>
      <trkpt lat="45.07014" lon="6.78332">
        <ele>2084.1</ele>
        <time>2017-01-05T07:55:37Z</time>
      </trkpt>
      <trkpt lat="45.07026" lon="6.78333">
        <ele>2086.52</ele>
        <time>2017-01-05T07:55:39Z</time>
      </trkpt>
      <trkpt lat="45.07045" lon="6.78338">
        <ele>2089.37</ele>
        <time>2017-01-05T07:55:43Z</time>
      </trkpt>
      <trkpt lat="45.0706" lon="6.78336">
        <ele>2091.41</ele>
        <time>2017-01-05T07:55:45Z</time>
      </trkpt>
      <trkpt lat="45.07073" lon="6.78335">
        <ele>2094.5</ele>
        <time>2017-01-05T07:55:47Z</time>
      </trkpt>
      <trkpt lat="45.07084" lon="6.78333">
        <ele>2097.23</ele>
        <time>2017-01-05T07:55:49Z</time>
      </trkpt>
      <trkpt lat="45.07097" lon="6.78335">
        <ele>2101.19</ele>
        <time>2017-01-05T07:55:51Z</time>
      </trkpt>
      <trkpt lat="45.07113" lon="6.78334">
        <ele>2105.64</ele>
        <time>2017-01-05T07:55:53Z</time>
      </trkpt>
      <trkpt lat="45.07125" lon="6.78336">
        <ele>2109.54</ele>
        <time>2017-01-05T07:55:55Z</time>
      </trkpt>
      <trkpt lat="45.07136" lon="6.7834">
        <ele>2113.24</ele>
        <time>2017-01-05T07:55:57Z</time>
      </trkpt>
      <trkpt lat="45.07146" lon="6.78343">
        <ele>2117.09</ele>
        <time>2017-01-05T07:56:00Z</time>
      </trkpt>
      <trkpt lat="45.07156" lon="6.78346">
        <ele>2121.55</ele>
        <time>2017-01-05T07:56:02Z</time>
      </trkpt>
      <trkpt lat="45.07168" lon="6.7835">
        <ele>2126.88</ele>
        <time>2017-01-05T07:56:04Z</time>
      </trkpt>
      <trkpt lat="45.07181" lon="6.78347">
        <ele>2131.01</ele>
        <time>2017-01-05T07:56:07Z</time>
      </trkpt>
      <trkpt lat="45.07196" lon="6.78327">
        <ele>2129.82</ele>
        <time>2017-01-05T07:56:12Z</time>
      </trkpt>
      <trkpt lat="45.07205" lon="6.78314">
        <ele>2128.56</ele>
        <time>2017-01-05T07:56:15Z</time>
      </trkpt>
      <trkpt lat="45.07212" lon="6.78304">
        <ele>2129.06</ele>
        <time>2017-01-05T07:56:17Z</time>
      </trkpt>
      <trkpt lat="45.07221" lon="6.78294">
        <ele>2130.23</ele>
        <time>2017-01-05T07:56:19Z</time>
      </trkpt>
      <trkpt lat="45.07229" lon="6.78286">
        <ele>2131.97</ele>
        <time>2017-01-05T07:56:21Z</time>
      </trkpt>
      <trkpt lat="45.07238" lon="6.78276">
        <ele>2134.3</ele>
        <time>2017-01-05T07:56:23Z</time>
      </trkpt>
      <trkpt lat="45.07257" lon="6.78263">
        <ele>2141.6</ele>
        <time>2017-01-05T07:56:28Z</time>
      </trkpt>
      <trkpt lat="45.07268" lon="6.7826">
        <ele>2145.98</ele>
        <time>2017-01-05T07:56:30Z</time>
      </trkpt>
      <trkpt lat="45.07278" lon="6.78258">
        <ele>2150.87</ele>
        <time>2017-01-05T07:56:33Z</time>
      </trkpt>
      <trkpt lat="45.07289" lon="6.78249">
        <ele>2154.47</ele>
        <time>2017-01-05T07:56:35Z</time>
      </trkpt>
      <trkpt lat="45.07302" lon="6.78228">
        <ele>2159.82</ele>
        <time>2017-01-05T07:56:39Z</time>
      </trkpt>
      <trkpt lat="45.07308" lon="6.7821">
        <ele>2160.1</ele>
        <time>2017-01-05T07:56:41Z</time>
      </trkpt>
      <trkpt lat="45.07314" lon="6.78196">
        <ele>2159.91</ele>
        <time>2017-01-05T07:56:43Z</time>
      </trkpt>
      <trkpt lat="45.0732" lon="6.78177">
        <ele>2157.49</ele>
        <time>2017-01-05T07:56:46Z</time>
      </trkpt>
      <trkpt lat="45.07326" lon="6.78165">
        <ele>2156.65</ele>
        <time>2017-01-05T07:56:48Z</time>
      </trkpt>
      <trkpt lat="45.07335" lon="6.78158">
        <ele>2158.54</ele>
        <time>2017-01-05T07:56:50Z</time>
      </trkpt>
      <trkpt lat="45.07346" lon="6.78148">
        <ele>2160.88</ele>
        <time>2017-01-05T07:56:53Z</time>
      </trkpt>
      <trkpt lat="45.0736" lon="6.78143">
        <ele>2166.21</ele>
        <time>2017-01-05T07:56:56Z</time>
      </trkpt>
      <trkpt lat="45.07367" lon="6.78134">
        <ele>2168.32</ele>
        <time>2017-01-05T07:56:58Z</time>
      </trkpt>
      <trkpt lat="45.07374" lon="6.7812">
        <ele>2169.06</ele>
        <time>2017-01-05T07:57:00Z</time>
      </trkpt>
      <trkpt lat="45.0738" lon="6.78107">
        <ele>2169.55</ele>
        <time>2017-01-05T07:57:02Z</time>
      </trkpt>
      <trkpt lat="45.07389" lon="6.78099">
        <ele>2172.36</ele>
        <time>2017-01-05T07:57:04Z</time>
      </trkpt>
      <trkpt lat="45.07396" lon="6.78089">
        <ele>2173.51</ele>
        <time>2017-01-05T07:57:06Z</time>
      </trkpt>
      <trkpt lat="45.07407" lon="6.78076">
        <ele>2175.68</ele>
        <time>2017-01-05T07:57:09Z</time>
      </trkpt>
      <trkpt lat="45.0741" lon="6.78063">
        <ele>2175.37</ele>
        <time>2017-01-05T07:57:11Z</time>
      </trkpt>
      <trkpt lat="45.07412" lon="6.78047">
        <ele>2175.39</ele>
        <time>2017-01-05T07:57:13Z</time>
      </trkpt>
      <trkpt lat="45.07414" lon="6.78032">
        <ele>2175.51</ele>
        <time>2017-01-05T07:57:15Z</time>
      </trkpt>
      <trkpt lat="45.07414" lon="6.78014">
        <ele>2175.57</ele>
        <time>2017-01-05T07:57:19Z</time>
      </trkpt>
      <trkpt lat="45.07412" lon="6.78">
        <ele>2174.56</ele>
        <time>2017-01-05T07:57:21Z</time>
      </trkpt>
      <trkpt lat="45.07414" lon="6.77984">
        <ele>2176.66</ele>
        <time>2017-01-05T07:57:23Z</time>
      </trkpt>
      <trkpt lat="45.07414" lon="6.77968">
        <ele>2177.99</ele>
        <time>2017-01-05T07:57:24Z</time>
      </trkpt>
      <trkpt lat="45.07407" lon="6.77956">
        <ele>2177.25</ele>
        <time>2017-01-05T07:57:26Z</time>
      </trkpt>
      <trkpt lat="45.07401" lon="6.77943">
        <ele>2176.85</ele>
        <time>2017-01-05T07:57:28Z</time>
      </trkpt>
      <trkpt lat="45.07395" lon="6.77931">
        <ele>2176.41</ele>
        <time>2017-01-05T07:57:30Z</time>
      </trkpt>
      <trkpt lat="45.07393" lon="6.77901">
        <ele>2179.98</ele>
        <time>2017-01-05T07:57:35Z</time>
      </trkpt>
      <trkpt lat="45.07398" lon="6.77886">
        <ele>2184.39</ele>
        <time>2017-01-05T07:57:37Z</time>
      </trkpt>
      <trkpt lat="45.07399" lon="6.7787">
        <ele>2185.71</ele>
        <time>2017-01-05T07:57:39Z</time>
      </trkpt>
      <trkpt lat="45.07402" lon="6.77856">
        <ele>2187.68</ele>
        <time>2017-01-05T07:57:41Z</time>
      </trkpt>
      <trkpt lat="45.07405" lon="6.77843">
        <ele>2189.82</ele>
        <time>2017-01-05T07:57:43Z</time>
      </trkpt>
      <trkpt lat="45.07405" lon="6.77827">
        <ele>2190.66</ele>
        <time>2017-01-05T07:57:45Z</time>
      </trkpt>
      <trkpt lat="45.07405" lon="6.77811">
        <ele>2191.76</ele>
        <time>2017-01-05T07:57:47Z</time>
      </trkpt>
      <trkpt lat="45.07402" lon="6.77792">
        <ele>2191.94</ele>
        <time>2017-01-05T07:57:50Z</time>
      </trkpt>
      <trkpt lat="45.07407" lon="6.77766">
        <ele>2194.83</ele>
        <time>2017-01-05T07:57:54Z</time>
      </trkpt>
      <trkpt lat="45.07414" lon="6.7775">
        <ele>2196.3</ele>
        <time>2017-01-05T07:57:57Z</time>
      </trkpt>
      <trkpt lat="45.07418" lon="6.77737">
        <ele>2196.92</ele>
        <time>2017-01-05T07:57:59Z</time>
      </trkpt>
      <trkpt lat="45.07424" lon="6.77724">
        <ele>2198.08</ele>
        <time>2017-01-05T07:58:01Z</time>
      </trkpt>
      <trkpt lat="45.07431" lon="6.7771">
        <ele>2200.64</ele>
        <time>2017-01-05T07:58:04Z</time>
      </trkpt>
      <trkpt lat="45.07441" lon="6.77683">
        <ele>2202.99</ele>
        <time>2017-01-05T07:58:09Z</time>
      </trkpt>
      <trkpt lat="45.07448" lon="6.77671">
        <ele>2204.15</ele>
        <time>2017-01-05T07:58:12Z</time>
      </trkpt>
      <trkpt lat="45.07458" lon="6.77664">
        <ele>2206.95</ele>
        <time>2017-01-05T07:58:15Z</time>
      </trkpt>
      <trkpt lat="45.07464" lon="6.77675">
        <ele>2208.45</ele>
        <time>2017-01-05T07:58:18Z</time>
      </trkpt>
      <trkpt lat="45.07462" lon="6.77691">
        <ele>2207.81</ele>
        <time>2017-01-05T07:58:21Z</time>
      </trkpt>
      <trkpt lat="45.07465" lon="6.77707">
        <ele>2208.53</ele>
        <time>2017-01-05T07:58:24Z</time>
      </trkpt>
      <trkpt lat="45.0748" lon="6.77732">
        <ele>2212.69</ele>
        <time>2017-01-05T07:58:29Z</time>
      </trkpt>
      <trkpt lat="45.07486" lon="6.77744">
        <ele>2215.01</ele>
        <time>2017-01-05T07:58:31Z</time>
      </trkpt>
      <trkpt lat="45.07496" lon="6.77765">
        <ele>2219.47</ele>
        <time>2017-01-05T07:58:34Z</time>
      </trkpt>
      <trkpt lat="45.07507" lon="6.77748">
        <ele>2221.72</ele>
        <time>2017-01-05T07:58:41Z</time>
      </trkpt>
      <trkpt lat="45.07506" lon="6.77732">
        <ele>2220.27</ele>
        <time>2017-01-05T07:58:45Z</time>
      </trkpt>
      <trkpt lat="45.07519" lon="6.77705">
        <ele>2225.49</ele>
        <time>2017-01-05T07:58:51Z</time>
      </trkpt>
      <trkpt lat="45.07528" lon="6.77674">
        <ele>2229.12</ele>
        <time>2017-01-05T07:58:56Z</time>
      </trkpt>
      <trkpt lat="45.07528" lon="6.77642">
        <ele>2227.38</ele>
        <time>2017-01-05T07:59:00Z</time>
      </trkpt>
      <trkpt lat="45.0753" lon="6.77625">
        <ele>2226.82</ele>
        <time>2017-01-05T07:59:02Z</time>
      </trkpt>
      <trkpt lat="45.07527" lon="6.77611">
        <ele>2223.72</ele>
        <time>2017-01-05T07:59:04Z</time>
      </trkpt>
      <trkpt lat="45.07528" lon="6.77593">
        <ele>2224.59</ele>
        <time>2017-01-05T07:59:06Z</time>
      </trkpt>
      <trkpt lat="45.07527" lon="6.77574">
        <ele>2226.19</ele>
        <time>2017-01-05T07:59:08Z</time>
      </trkpt>
      <trkpt lat="45.07525" lon="6.77556">
        <ele>2228.25</ele>
        <time>2017-01-05T07:59:10Z</time>
      </trkpt>
      <trkpt lat="45.07515" lon="6.77546">
        <ele>2226.82</ele>
        <time>2017-01-05T07:59:12Z</time>
      </trkpt>
      <trkpt lat="45.07508" lon="6.77531">
        <ele>2226.69</ele>
        <time>2017-01-05T07:59:14Z</time>
      </trkpt>
      <trkpt lat="45.07497" lon="6.7752">
        <ele>2225.4</ele>
        <time>2017-01-05T07:59:16Z</time>
      </trkpt>
      <trkpt lat="45.07486" lon="6.77515">
        <ele>2224.34</ele>
        <time>2017-01-05T07:59:18Z</time>
      </trkpt>
      <trkpt lat="45.07472" lon="6.77513">
        <ele>2222.64</ele>
        <time>2017-01-05T07:59:20Z</time>
      </trkpt>
      <trkpt lat="45.07463" lon="6.77506">
        <ele>2222.61</ele>
        <time>2017-01-05T07:59:22Z</time>
      </trkpt>
      <trkpt lat="45.07446" lon="6.77487">
        <ele>2225.35</ele>
        <time>2017-01-05T07:59:27Z</time>
      </trkpt>
      <trkpt lat="45.07439" lon="6.77477">
        <ele>2226.55</ele>
        <time>2017-01-05T07:59:29Z</time>
      </trkpt>
      <trkpt lat="45.0743" lon="6.77465">
        <ele>2225.22</ele>
        <time>2017-01-05T07:59:31Z</time>
      </trkpt>
      <trkpt lat="45.07422" lon="6.7745">
        <ele>2223.58</ele>
        <time>2017-01-05T07:59:33Z</time>
      </trkpt>
      <trkpt lat="45.07415" lon="6.77434">
        <ele>2221.64</ele>
        <time>2017-01-05T07:59:35Z</time>
      </trkpt>
      <trkpt lat="45.07413" lon="6.77419">
        <ele>2221.13</ele>
        <time>2017-01-05T07:59:37Z</time>
      </trkpt>
      <trkpt lat="45.07409" lon="6.77403">
        <ele>2220.85</ele>
        <time>2017-01-05T07:59:39Z</time>
      </trkpt>
      <trkpt lat="45.07407" lon="6.77385">
        <ele>2221.22</ele>
        <time>2017-01-05T07:59:41Z</time>
      </trkpt>
      <trkpt lat="45.07409" lon="6.77369">
        <ele>2222.66</ele>
        <time>2017-01-05T07:59:43Z</time>
      </trkpt>
      <trkpt lat="45.07407" lon="6.77353">
        <ele>2223.08</ele>
        <time>2017-01-05T07:59:45Z</time>
      </trkpt>
      <trkpt lat="45.07404" lon="6.77337">
        <ele>2223.15</ele>
        <time>2017-01-05T07:59:47Z</time>
      </trkpt>
      <trkpt lat="45.07401" lon="6.77319">
        <ele>2224.2</ele>
        <time>2017-01-05T07:59:50Z</time>
      </trkpt>
      <trkpt lat="45.07392" lon="6.77309">
        <ele>2223.29</ele>
        <time>2017-01-05T07:59:53Z</time>
      </trkpt>
      <trkpt lat="45.07383" lon="6.77297">
        <ele>2222.46</ele>
        <time>2017-01-05T07:59:55Z</time>
      </trkpt>
      <trkpt lat="45.07376" lon="6.77281">
        <ele>2222.8</ele>
        <time>2017-01-05T07:59:57Z</time>
      </trkpt>
      <trkpt lat="45.07367" lon="6.77268">
        <ele>2222.17</ele>
        <time>2017-01-05T07:59:59Z</time>
      </trkpt>
      <trkpt lat="45.07359" lon="6.77254">
        <ele>2221.28</ele>
        <time>2017-01-05T08:00:01Z</time>
      </trkpt>
      <trkpt lat="45.07352" lon="6.77241">
        <ele>2221.71</ele>
        <time>2017-01-05T08:00:03Z</time>
      </trkpt>
      <trkpt lat="45.07344" lon="6.77229">
        <ele>2222.07</ele>
        <time>2017-01-05T08:00:05Z</time>
      </trkpt>
      <trkpt lat="45.07336" lon="6.77217">
        <ele>2223.14</ele>
        <time>2017-01-05T08:00:07Z</time>
      </trkpt>
      <trkpt lat="45.07327" lon="6.77207">
        <ele>2223.06</ele>
        <time>2017-01-05T08:00:09Z</time>
      </trkpt>
      <trkpt lat="45.07321" lon="6.77189">
        <ele>2223.11</ele>
        <time>2017-01-05T08:00:10Z</time>
      </trkpt>
      <trkpt lat="45.07315" lon="6.77173">
        <ele>2220.28</ele>
        <time>2017-01-05T08:00:12Z</time>
      </trkpt>
      <trkpt lat="45.07312" lon="6.77152">
        <ele>2219.03</ele>
        <time>2017-01-05T08:00:14Z</time>
      </trkpt>
      <trkpt lat="45.07309" lon="6.77135">
        <ele>2218.74</ele>
        <time>2017-01-05T08:00:17Z</time>
      </trkpt>
      <trkpt lat="45.07314" lon="6.77121">
        <ele>2221.8</ele>
        <time>2017-01-05T08:00:19Z</time>
      </trkpt>
      <trkpt lat="45.07321" lon="6.77108">
        <ele>2224.74</ele>
        <time>2017-01-05T08:00:21Z</time>
      </trkpt>
      <trkpt lat="45.07322" lon="6.77089">
        <ele>2226.12</ele>
        <time>2017-01-05T08:00:23Z</time>
      </trkpt>
      <trkpt lat="45.07306" lon="6.77083">
        <ele>2223.18</ele>
        <time>2017-01-05T08:00:26Z</time>
      </trkpt>
      <trkpt lat="45.07292" lon="6.77089">
        <ele>2218.58</ele>
        <time>2017-01-05T08:00:28Z</time>
      </trkpt>
      <trkpt lat="45.07287" lon="6.77075">
        <ele>2218.29</ele>
        <time>2017-01-05T08:00:31Z</time>
      </trkpt>
      <trkpt lat="45.07281" lon="6.77057">
        <ele>2218.31</ele>
        <time>2017-01-05T08:00:33Z</time>
      </trkpt>
      <trkpt lat="45.07276" lon="6.77041">
        <ele>2218.66</ele>
        <time>2017-01-05T08:00:35Z</time>
      </trkpt>
      <trkpt lat="45.07273" lon="6.77009">
        <ele>2220.3</ele>
        <time>2017-01-05T08:00:39Z</time>
      </trkpt>
      <trkpt lat="45.07272" lon="6.76988">
        <ele>2222.51</ele>
        <time>2017-01-05T08:00:41Z</time>
      </trkpt>
      <trkpt lat="45.07269" lon="6.76973">
        <ele>2223.64</ele>
        <time>2017-01-05T08:00:43Z</time>
      </trkpt>
      <trkpt lat="45.07263" lon="6.7696">
        <ele>2223.85</ele>
        <time>2017-01-05T08:00:45Z</time>
      </trkpt>
      <trkpt lat="45.07253" lon="6.7695">
        <ele>2221.14</ele>
        <time>2017-01-05T08:00:47Z</time>
      </trkpt>
      <trkpt lat="45.07242" lon="6.7694">
        <ele>2218.49</ele>
        <time>2017-01-05T08:00:49Z</time>
      </trkpt>
      <trkpt lat="45.07226" lon="6.76921">
        <ele>2218.36</ele>
        <time>2017-01-05T08:00:53Z</time>
      </trkpt>
      <trkpt lat="45.07218" lon="6.7691">
        <ele>2217.96</ele>
        <time>2017-01-05T08:00:55Z</time>
      </trkpt>
      <trkpt lat="45.07206" lon="6.76888">
        <ele>2217.41</ele>
        <time>2017-01-05T08:00:59Z</time>
      </trkpt>
      <trkpt lat="45.07198" lon="6.76879">
        <ele>2216.78</ele>
        <time>2017-01-05T08:01:01Z</time>
      </trkpt>
      <trkpt lat="45.0719" lon="6.76869">
        <ele>2216.76</ele>
        <time>2017-01-05T08:01:03Z</time>
      </trkpt>
      <trkpt lat="45.0718" lon="6.76856">
        <ele>2218.6</ele>
        <time>2017-01-05T08:01:05Z</time>
      </trkpt>
      <trkpt lat="45.07172" lon="6.76842">
        <ele>2220.75</ele>
        <time>2017-01-05T08:01:07Z</time>
      </trkpt>
      <trkpt lat="45.07163" lon="6.76831">
        <ele>2221.79</ele>
        <time>2017-01-05T08:01:09Z</time>
      </trkpt>
      <trkpt lat="45.07156" lon="6.76821">
        <ele>2221.94</ele>
        <time>2017-01-05T08:01:11Z</time>
      </trkpt>
      <trkpt lat="45.07145" lon="6.76809">
        <ele>2221.37</ele>
        <time>2017-01-05T08:01:14Z</time>
      </trkpt>
      <trkpt lat="45.07136" lon="6.76785">
        <ele>2222.4</ele>
        <time>2017-01-05T08:01:18Z</time>
      </trkpt>
      <trkpt lat="45.07131" lon="6.76771">
        <ele>2222.43</ele>
        <time>2017-01-05T08:01:20Z</time>
      </trkpt>
      <trkpt lat="45.07127" lon="6.76757">
        <ele>2223.5</ele>
        <time>2017-01-05T08:01:22Z</time>
      </trkpt>
      <trkpt lat="45.07119" lon="6.76746">
        <ele>2222.42</ele>
        <time>2017-01-05T08:01:24Z</time>
      </trkpt>
      <trkpt lat="45.07109" lon="6.76731">
        <ele>2220.46</ele>
        <time>2017-01-05T08:01:27Z</time>
      </trkpt>
      <trkpt lat="45.0709" lon="6.76719">
        <ele>2215.13</ele>
        <time>2017-01-05T08:01:33Z</time>
      </trkpt>
      <trkpt lat="45.07079" lon="6.76699">
        <ele>2215.38</ele>
        <time>2017-01-05T08:01:37Z</time>
      </trkpt>
      <trkpt lat="45.07071" lon="6.76685">
        <ele>2217.56</ele>
        <time>2017-01-05T08:01:39Z</time>
      </trkpt>
      <trkpt lat="45.07059" lon="6.76683">
        <ele>2216.48</ele>
        <time>2017-01-05T08:01:42Z</time>
      </trkpt>
      <trkpt lat="45.07047" lon="6.76686">
        <ele>2214.07</ele>
        <time>2017-01-05T08:01:46Z</time>
      </trkpt>
      <trkpt lat="45.07036" lon="6.7669">
        <ele>2211.96</ele>
        <time>2017-01-05T08:01:49Z</time>
      </trkpt>
      <trkpt lat="45.07025" lon="6.76694">
        <ele>2209.92</ele>
        <time>2017-01-05T08:01:51Z</time>
      </trkpt>
      <trkpt lat="45.07007" lon="6.76682">
        <ele>2211.08</ele>
        <time>2017-01-05T08:01:56Z</time>
      </trkpt>
      <trkpt lat="45.06994" lon="6.76676">
        <ele>2210.86</ele>
        <time>2017-01-05T08:01:59Z</time>
      </trkpt>
      <trkpt lat="45.06979" lon="6.76673">
        <ele>2207.73</ele>
        <time>2017-01-05T08:02:01Z</time>
      </trkpt>
      <trkpt lat="45.06968" lon="6.7667">
        <ele>2205.19</ele>
        <time>2017-01-05T08:02:04Z</time>
      </trkpt>
      <trkpt lat="45.06959" lon="6.7666">
        <ele>2203.96</ele>
        <time>2017-01-05T08:02:06Z</time>
      </trkpt>
      <trkpt lat="45.06954" lon="6.76647">
        <ele>2204.14</ele>
        <time>2017-01-05T08:02:08Z</time>
      </trkpt>
      <trkpt lat="45.06946" lon="6.76631">
        <ele>2203.17</ele>
        <time>2017-01-05T08:02:10Z</time>
      </trkpt>
      <trkpt lat="45.06943" lon="6.76614">
        <ele>2204.64</ele>
        <time>2017-01-05T08:02:12Z</time>
      </trkpt>
      <trkpt lat="45.06938" lon="6.76601">
        <ele>2204.59</ele>
        <time>2017-01-05T08:02:13Z</time>
      </trkpt>
      <trkpt lat="45.06933" lon="6.76589">
        <ele>2203.67</ele>
        <time>2017-01-05T08:02:34Z</time>
      </trkpt>
      <trkpt lat="45.06924" lon="6.76565">
        <ele>2203.63</ele>
        <time>2017-01-05T08:03:01Z</time>
      </trkpt>
      <trkpt lat="45.06918" lon="6.76535">
        <ele>2206.21</ele>
        <time>2017-01-05T08:03:06Z</time>
      </trkpt>
      <trkpt lat="45.06917" lon="6.76518">
        <ele>2208.99</ele>
        <time>2017-01-05T08:03:08Z</time>
      </trkpt>
      <trkpt lat="45.06915" lon="6.76502">
        <ele>2210.93</ele>
        <time>2017-01-05T08:03:11Z</time>
      </trkpt>
      <trkpt lat="45.06911" lon="6.76487">
        <ele>2212.04</ele>
        <time>2017-01-05T08:03:14Z</time>
      </trkpt>
      <trkpt lat="45.06905" lon="6.76475">
        <ele>2211.72</ele>
        <time>2017-01-05T08:03:17Z</time>
      </trkpt>
      <trkpt lat="45.06897" lon="6.76463">
        <ele>2210.86</ele>
        <time>2017-01-05T08:03:20Z</time>
      </trkpt>
      <trkpt lat="45.06889" lon="6.76453">
        <ele>2210.26</ele>
        <time>2017-01-05T08:03:24Z</time>
      </trkpt>
      <trkpt lat="45.06882" lon="6.76444">
        <ele>2210.23</ele>
        <time>2017-01-05T08:03:27Z</time>
      </trkpt>
      <trkpt lat="45.06873" lon="6.76436">
        <ele>2208.14</ele>
        <time>2017-01-05T08:03:30Z</time>
      </trkpt>
      <trkpt lat="45.06863" lon="6.76429">
        <ele>2205.84</ele>
        <time>2017-01-05T08:03:34Z</time>
      </trkpt>
      <trkpt lat="45.06854" lon="6.76421">
        <ele>2204.62</ele>
        <time>2017-01-05T08:03:38Z</time>
      </trkpt>
      <trkpt lat="45.06846" lon="6.76411">
        <ele>2203.01</ele>
        <time>2017-01-05T08:03:42Z</time>
      </trkpt>
      <trkpt lat="45.06831" lon="6.76394">
        <ele>2201.06</ele>
        <time>2017-01-05T08:03:48Z</time>
      </trkpt>
      <trkpt lat="45.06822" lon="6.76385">
        <ele>2201.48</ele>
        <time>2017-01-05T08:03:53Z</time>
      </trkpt>
      <trkpt lat="45.06821" lon="6.76379">
        <ele>2202.03</ele>
        <time>2017-01-05T08:23:29Z</time>
      </trkpt>
      <trkpt lat="45.06827" lon="6.76354">
        <ele>2203.27</ele>
        <time>2017-01-05T08:23:34Z</time>
      </trkpt>
      <trkpt lat="45.06843" lon="6.76341">
        <ele>2204.03</ele>
        <time>2017-01-05T08:23:38Z</time>
      </trkpt>
      <trkpt lat="45.06852" lon="6.76332">
        <ele>2204.42</ele>
        <time>2017-01-05T08:23:40Z</time>
      </trkpt>
      <trkpt lat="45.06857" lon="6.7632">
        <ele>2203</ele>
        <time>2017-01-05T08:23:42Z</time>
      </trkpt>
      <trkpt lat="45.06867" lon="6.7631">
        <ele>2203.72</ele>
        <time>2017-01-05T08:23:44Z</time>
      </trkpt>
      <trkpt lat="45.06876" lon="6.76301">
        <ele>2204.94</ele>
        <time>2017-01-05T08:23:46Z</time>
      </trkpt>
      <trkpt lat="45.06884" lon="6.76281">
        <ele>2203.43</ele>
        <time>2017-01-05T08:23:48Z</time>
      </trkpt>
      <trkpt lat="45.06889" lon="6.76269">
        <ele>2203.82</ele>
        <time>2017-01-05T08:23:50Z</time>
      </trkpt>
      <trkpt lat="45.06896" lon="6.76258">
        <ele>2205.95</ele>
        <time>2017-01-05T08:23:53Z</time>
      </trkpt>
      <trkpt lat="45.06914" lon="6.76249">
        <ele>2213.09</ele>
        <time>2017-01-05T08:24:07Z</time>
      </trkpt>
      <trkpt lat="45.06922" lon="6.76224">
        <ele>2211.39</ele>
        <time>2017-01-05T08:24:20Z</time>
      </trkpt>
      <trkpt lat="45.06922" lon="6.76197">
        <ele>2206.99</ele>
        <time>2017-01-05T08:24:29Z</time>
      </trkpt>
      <trkpt lat="45.06925" lon="6.76179">
        <ele>2205.93</ele>
        <time>2017-01-05T08:24:32Z</time>
      </trkpt>
      <trkpt lat="45.06929" lon="6.76162">
        <ele>2205.21</ele>
        <time>2017-01-05T08:24:35Z</time>
      </trkpt>
      <trkpt lat="45.06933" lon="6.76145">
        <ele>2202.93</ele>
        <time>2017-01-05T08:24:38Z</time>
      </trkpt>
      <trkpt lat="45.06939" lon="6.76129">
        <ele>2201.49</ele>
        <time>2017-01-05T08:24:41Z</time>
      </trkpt>
      <trkpt lat="45.06947" lon="6.7612">
        <ele>2202.14</ele>
        <time>2017-01-05T08:24:44Z</time>
      </trkpt>
      <trkpt lat="45.06946" lon="6.76094">
        <ele>2194.6</ele>
        <time>2017-01-05T08:25:38Z</time>
      </trkpt>
      <trkpt lat="45.06955" lon="6.76086">
        <ele>2194.46</ele>
        <time>2017-01-05T08:25:41Z</time>
      </trkpt>
      <trkpt lat="45.06967" lon="6.76075">
        <ele>2194.36</ele>
        <time>2017-01-05T08:25:43Z</time>
      </trkpt>
      <trkpt lat="45.06978" lon="6.76071">
        <ele>2195.34</ele>
        <time>2017-01-05T08:25:46Z</time>
      </trkpt>
      <trkpt lat="45.06997" lon="6.76075">
        <ele>2198.11</ele>
        <time>2017-01-05T08:25:52Z</time>
      </trkpt>
      <trkpt lat="45.07009" lon="6.76077">
        <ele>2199.53</ele>
        <time>2017-01-05T08:25:56Z</time>
      </trkpt>
      <trkpt lat="45.0702" lon="6.76078">
        <ele>2200.52</ele>
        <time>2017-01-05T08:25:59Z</time>
      </trkpt>
      <trkpt lat="45.07032" lon="6.76078">
        <ele>2201.83</ele>
        <time>2017-01-05T08:26:02Z</time>
      </trkpt>
      <trkpt lat="45.07051" lon="6.76081">
        <ele>2207.04</ele>
        <time>2017-01-05T08:26:06Z</time>
      </trkpt>
      <trkpt lat="45.07061" lon="6.76082">
        <ele>2209.73</ele>
        <time>2017-01-05T08:26:08Z</time>
      </trkpt>
      <trkpt lat="45.07078" lon="6.76075">
        <ele>2210.38</ele>
        <time>2017-01-05T08:26:13Z</time>
      </trkpt>
      <trkpt lat="45.07098" lon="6.76065">
        <ele>2213.18</ele>
        <time>2017-01-05T08:26:19Z</time>
      </trkpt>
      <trkpt lat="45.07106" lon="6.76055">
        <ele>2213.3</ele>
        <time>2017-01-05T08:26:23Z</time>
      </trkpt>
      <trkpt lat="45.07109" lon="6.76041">
        <ele>2210.78</ele>
        <time>2017-01-05T08:26:26Z</time>
      </trkpt>
      <trkpt lat="45.07111" lon="6.76025">
        <ele>2207.05</ele>
        <time>2017-01-05T08:26:28Z</time>
      </trkpt>
      <trkpt lat="45.07115" lon="6.76009">
        <ele>2204.07</ele>
        <time>2017-01-05T08:26:30Z</time>
      </trkpt>
      <trkpt lat="45.07118" lon="6.75994">
        <ele>2200.82</ele>
        <time>2017-01-05T08:26:32Z</time>
      </trkpt>
      <trkpt lat="45.07121" lon="6.75978">
        <ele>2197.25</ele>
        <time>2017-01-05T08:26:34Z</time>
      </trkpt>
      <trkpt lat="45.07123" lon="6.75961">
        <ele>2193.56</ele>
        <time>2017-01-05T08:26:36Z</time>
      </trkpt>
      <trkpt lat="45.07129" lon="6.75932">
        <ele>2191.59</ele>
        <time>2017-01-05T08:26:40Z</time>
      </trkpt>
      <trkpt lat="45.07137" lon="6.75925">
        <ele>2196.69</ele>
        <time>2017-01-05T08:26:42Z</time>
      </trkpt>
      <trkpt lat="45.07139" lon="6.75911">
        <ele>2196.76</ele>
        <time>2017-01-05T08:26:44Z</time>
      </trkpt>
      <trkpt lat="45.07142" lon="6.75893">
        <ele>2196.45</ele>
        <time>2017-01-05T08:26:47Z</time>
      </trkpt>
      <trkpt lat="45.07136" lon="6.75879">
        <ele>2190.22</ele>
        <time>2017-01-05T08:26:49Z</time>
      </trkpt>
      <trkpt lat="45.07135" lon="6.75864">
        <ele>2186.47</ele>
        <time>2017-01-05T08:26:51Z</time>
      </trkpt>
      <trkpt lat="45.0714" lon="6.7585">
        <ele>2188.18</ele>
        <time>2017-01-05T08:26:53Z</time>
      </trkpt>
      <trkpt lat="45.07151" lon="6.75826">
        <ele>2189.79</ele>
        <time>2017-01-05T08:26:56Z</time>
      </trkpt>
      <trkpt lat="45.07166" lon="6.75801">
        <ele>2192.48</ele>
        <time>2017-01-05T08:27:01Z</time>
      </trkpt>
      <trkpt lat="45.07175" lon="6.75787">
        <ele>2197.49</ele>
        <time>2017-01-05T08:27:04Z</time>
      </trkpt>
      <trkpt lat="45.07179" lon="6.7577">
        <ele>2198.8</ele>
        <time>2017-01-05T08:27:06Z</time>
      </trkpt>
      <trkpt lat="45.07181" lon="6.75754">
        <ele>2199.82</ele>
        <time>2017-01-05T08:27:09Z</time>
      </trkpt>
      <trkpt lat="45.07182" lon="6.75738">
        <ele>2198.23</ele>
        <time>2017-01-05T08:27:12Z</time>
      </trkpt>
      <trkpt lat="45.07181" lon="6.75721">
        <ele>2194.86</ele>
        <time>2017-01-05T08:27:15Z</time>
      </trkpt>
      <trkpt lat="45.07183" lon="6.75704">
        <ele>2192.36</ele>
        <time>2017-01-05T08:27:20Z</time>
      </trkpt>
      <trkpt lat="45.07182" lon="6.75685">
        <ele>2186.39</ele>
        <time>2017-01-05T08:27:23Z</time>
      </trkpt>
      <trkpt lat="45.07178" lon="6.75654">
        <ele>2176.04</ele>
        <time>2017-01-05T08:27:27Z</time>
      </trkpt>
      <trkpt lat="45.07198" lon="6.75634">
        <ele>2184.16</ele>
        <time>2017-01-05T08:27:32Z</time>
      </trkpt>
      <trkpt lat="45.07208" lon="6.75624">
        <ele>2188.84</ele>
        <time>2017-01-05T08:27:35Z</time>
      </trkpt>
      <trkpt lat="45.0722" lon="6.75617">
        <ele>2194.52</ele>
        <time>2017-01-05T08:27:37Z</time>
      </trkpt>
      <trkpt lat="45.0723" lon="6.75611">
        <ele>2194.89</ele>
        <time>2017-01-05T08:27:39Z</time>
      </trkpt>
      <trkpt lat="45.07241" lon="6.75607">
        <ele>2194.78</ele>
        <time>2017-01-05T08:27:41Z</time>
      </trkpt>
      <trkpt lat="45.0725" lon="6.75596">
        <ele>2192.54</ele>
        <time>2017-01-05T08:27:43Z</time>
      </trkpt>
      <trkpt lat="45.07259" lon="6.75586">
        <ele>2190.24</ele>
        <time>2017-01-05T08:27:45Z</time>
      </trkpt>
      <trkpt lat="45.07267" lon="6.75576">
        <ele>2187.35</ele>
        <time>2017-01-05T08:27:47Z</time>
      </trkpt>
      <trkpt lat="45.07277" lon="6.7557">
        <ele>2186.08</ele>
        <time>2017-01-05T08:27:49Z</time>
      </trkpt>
      <trkpt lat="45.07289" lon="6.75565">
        <ele>2185.4</ele>
        <time>2017-01-05T08:27:52Z</time>
      </trkpt>
      <trkpt lat="45.07302" lon="6.7556">
        <ele>2184.47</ele>
        <time>2017-01-05T08:27:55Z</time>
      </trkpt>
      <trkpt lat="45.07313" lon="6.75562">
        <ele>2186.19</ele>
        <time>2017-01-05T08:27:58Z</time>
      </trkpt>
      <trkpt lat="45.07324" lon="6.75564">
        <ele>2188.34</ele>
        <time>2017-01-05T08:28:00Z</time>
      </trkpt>
      <trkpt lat="45.07336" lon="6.75567">
        <ele>2190.52</ele>
        <time>2017-01-05T08:28:02Z</time>
      </trkpt>
      <trkpt lat="45.07356" lon="6.75562">
        <ele>2189.95</ele>
        <time>2017-01-05T08:28:06Z</time>
      </trkpt>
      <trkpt lat="45.07367" lon="6.7556">
        <ele>2190.25</ele>
        <time>2017-01-05T08:28:08Z</time>
      </trkpt>
      <trkpt lat="45.07376" lon="6.75562">
        <ele>2192.8</ele>
        <time>2017-01-05T08:28:09Z</time>
      </trkpt>
      <trkpt lat="45.0739" lon="6.75561">
        <ele>2194.59</ele>
        <time>2017-01-05T08:28:11Z</time>
      </trkpt>
      <trkpt lat="45.074" lon="6.7556">
        <ele>2197.91</ele>
        <time>2017-01-05T08:28:13Z</time>
      </trkpt>
      <trkpt lat="45.07412" lon="6.7555">
        <ele>2198.77</ele>
        <time>2017-01-05T08:28:16Z</time>
      </trkpt>
      <trkpt lat="45.07421" lon="6.75542">
        <ele>2201.03</ele>
        <time>2017-01-05T08:28:19Z</time>
      </trkpt>
      <trkpt lat="45.07436" lon="6.75521">
        <ele>2203.25</ele>
        <time>2017-01-05T08:28:23Z</time>
      </trkpt>
      <trkpt lat="45.07442" lon="6.75505">
        <ele>2203.36</ele>
        <time>2017-01-05T08:28:25Z</time>
      </trkpt>
      <trkpt lat="45.07445" lon="6.75485">
        <ele>2200.97</ele>
        <time>2017-01-05T08:28:27Z</time>
      </trkpt>
      <trkpt lat="45.07449" lon="6.75467">
        <ele>2199.27</ele>
        <time>2017-01-05T08:28:29Z</time>
      </trkpt>
      <trkpt lat="45.07452" lon="6.7545">
        <ele>2198.41</ele>
        <time>2017-01-05T08:28:32Z</time>
      </trkpt>
      <trkpt lat="45.07458" lon="6.75437">
        <ele>2200.36</ele>
        <time>2017-01-05T08:28:35Z</time>
      </trkpt>
      <trkpt lat="45.07462" lon="6.75422">
        <ele>2200.78</ele>
        <time>2017-01-05T08:28:37Z</time>
      </trkpt>
      <trkpt lat="45.07463" lon="6.75406">
        <ele>2198.07</ele>
        <time>2017-01-05T08:28:39Z</time>
      </trkpt>
      <trkpt lat="45.07469" lon="6.75393">
        <ele>2198.36</ele>
        <time>2017-01-05T08:28:42Z</time>
      </trkpt>
      <trkpt lat="45.07472" lon="6.75378">
        <ele>2195.51</ele>
        <time>2017-01-05T08:28:44Z</time>
      </trkpt>
      <trkpt lat="45.07489" lon="6.75361">
        <ele>2198.16</ele>
        <time>2017-01-05T08:28:48Z</time>
      </trkpt>
      <trkpt lat="45.0749" lon="6.75338">
        <ele>2189.39</ele>
        <time>2017-01-05T08:28:50Z</time>
      </trkpt>
      <trkpt lat="45.07497" lon="6.75327">
        <ele>2188.1</ele>
        <time>2017-01-05T08:28:52Z</time>
      </trkpt>
      <trkpt lat="45.07505" lon="6.75314">
        <ele>2186.3</ele>
        <time>2017-01-05T08:28:55Z</time>
      </trkpt>
      <trkpt lat="45.07515" lon="6.75305">
        <ele>2186.07</ele>
        <time>2017-01-05T08:28:57Z</time>
      </trkpt>
      <trkpt lat="45.07525" lon="6.75294">
        <ele>2185.81</ele>
        <time>2017-01-05T08:29:00Z</time>
      </trkpt>
      <trkpt lat="45.07533" lon="6.75285">
        <ele>2185.2</ele>
        <time>2017-01-05T08:29:03Z</time>
      </trkpt>
      <trkpt lat="45.07551" lon="6.75273">
        <ele>2188.7</ele>
        <time>2017-01-05T08:29:10Z</time>
      </trkpt>
      <trkpt lat="45.07561" lon="6.75266">
        <ele>2191.12</ele>
        <time>2017-01-05T08:29:13Z</time>
      </trkpt>
      <trkpt lat="45.07569" lon="6.75257">
        <ele>2191.65</ele>
        <time>2017-01-05T08:29:16Z</time>
      </trkpt>
      <trkpt lat="45.07575" lon="6.75244">
        <ele>2191.13</ele>
        <time>2017-01-05T08:29:19Z</time>
      </trkpt>
      <trkpt lat="45.07595" lon="6.75221">
        <ele>2195.22</ele>
        <time>2017-01-05T08:29:23Z</time>
      </trkpt>
      <trkpt lat="45.07606" lon="6.75209">
        <ele>2199.56</ele>
        <time>2017-01-05T08:30:33Z</time>
      </trkpt>
      <trkpt lat="45.07609" lon="6.75206">
        <ele>2200.58</ele>
        <time>2017-01-05T08:31:48Z</time>
      </trkpt>
      <trkpt lat="45.07609" lon="6.75192">
        <ele>2199.5</ele>
        <time>2017-01-05T08:31:50Z</time>
      </trkpt>
      <trkpt lat="45.07612" lon="6.75165">
        <ele>2199.51</ele>
        <time>2017-01-05T08:31:54Z</time>
      </trkpt>
      <trkpt lat="45.07616" lon="6.75151">
        <ele>2200.49</ele>
        <time>2017-01-05T08:31:56Z</time>
      </trkpt>
      <trkpt lat="45.07616" lon="6.75132">
        <ele>2198.62</ele>
        <time>2017-01-05T08:31:58Z</time>
      </trkpt>
      <trkpt lat="45.07614" lon="6.75113">
        <ele>2194.66</ele>
        <time>2017-01-05T08:32:01Z</time>
      </trkpt>
      <trkpt lat="45.07624" lon="6.751">
        <ele>2197.92</ele>
        <time>2017-01-05T08:32:05Z</time>
      </trkpt>
      <trkpt lat="45.07636" lon="6.75079">
        <ele>2202.71</ele>
        <time>2017-01-05T08:32:09Z</time>
      </trkpt>
      <trkpt lat="45.07637" lon="6.75063">
        <ele>2198.24</ele>
        <time>2017-01-05T08:32:10Z</time>
      </trkpt>
      <trkpt lat="45.07645" lon="6.75033">
        <ele>2193.57</ele>
        <time>2017-01-05T08:32:13Z</time>
      </trkpt>
      <trkpt lat="45.0765" lon="6.75016">
        <ele>2191.93</ele>
        <time>2017-01-05T08:32:15Z</time>
      </trkpt>
      <trkpt lat="45.07654" lon="6.74998">
        <ele>2189.62</ele>
        <time>2017-01-05T08:32:17Z</time>
      </trkpt>
      <trkpt lat="45.0766" lon="6.74983">
        <ele>2191.32</ele>
        <time>2017-01-05T08:32:19Z</time>
      </trkpt>
      <trkpt lat="45.07665" lon="6.74966">
        <ele>2191.41</ele>
        <time>2017-01-05T08:32:21Z</time>
      </trkpt>
      <trkpt lat="45.07673" lon="6.74951">
        <ele>2195.85</ele>
        <time>2017-01-05T08:32:23Z</time>
      </trkpt>
      <trkpt lat="45.07671" lon="6.74922">
        <ele>2196.38</ele>
        <time>2017-01-05T08:32:26Z</time>
      </trkpt>
      <trkpt lat="45.07675" lon="6.74909">
        <ele>2200.66</ele>
        <time>2017-01-05T08:32:28Z</time>
      </trkpt>
      <trkpt lat="45.07674" lon="6.74895">
        <ele>2202.19</ele>
        <time>2017-01-05T08:32:30Z</time>
      </trkpt>
      <trkpt lat="45.07673" lon="6.74879">
        <ele>2202.29</ele>
        <time>2017-01-05T08:32:31Z</time>
      </trkpt>
      <trkpt lat="45.0767" lon="6.74852">
        <ele>2197.51</ele>
        <time>2017-01-05T08:32:36Z</time>
      </trkpt>
      <trkpt lat="45.07669" lon="6.74835">
        <ele>2192.93</ele>
        <time>2017-01-05T08:32:39Z</time>
      </trkpt>
      <trkpt lat="45.07677" lon="6.74806">
        <ele>2189.69</ele>
        <time>2017-01-05T08:32:43Z</time>
      </trkpt>
      <trkpt lat="45.07685" lon="6.74789">
        <ele>2191.69</ele>
        <time>2017-01-05T08:32:46Z</time>
      </trkpt>
      <trkpt lat="45.07684" lon="6.74767">
        <ele>2186.07</ele>
        <time>2017-01-05T08:32:48Z</time>
      </trkpt>
      <trkpt lat="45.07686" lon="6.74736">
        <ele>2180.56</ele>
        <time>2017-01-05T08:32:50Z</time>
      </trkpt>
      <trkpt lat="45.0769" lon="6.74723">
        <ele>2179.92</ele>
        <time>2017-01-05T08:32:52Z</time>
      </trkpt>
      <trkpt lat="45.07698" lon="6.74709">
        <ele>2180.96</ele>
        <time>2017-01-05T08:32:55Z</time>
      </trkpt>
      <trkpt lat="45.07698" lon="6.74693">
        <ele>2178.44</ele>
        <time>2017-01-05T08:32:58Z</time>
      </trkpt>
      <trkpt lat="45.07701" lon="6.7468">
        <ele>2177.72</ele>
        <time>2017-01-05T08:32:59Z</time>
      </trkpt>
      <trkpt lat="45.07704" lon="6.74659">
        <ele>2174.97</ele>
        <time>2017-01-05T08:33:03Z</time>
      </trkpt>
      <trkpt lat="45.07706" lon="6.74643">
        <ele>2171.64</ele>
        <time>2017-01-05T08:33:05Z</time>
      </trkpt>
      <trkpt lat="45.07708" lon="6.74623">
        <ele>2167.44</ele>
        <time>2017-01-05T08:33:07Z</time>
      </trkpt>
      <trkpt lat="45.07712" lon="6.74605">
        <ele>2164.4</ele>
        <time>2017-01-05T08:33:09Z</time>
      </trkpt>
      <trkpt lat="45.0772" lon="6.74593">
        <ele>2164.23</ele>
        <time>2017-01-05T08:33:11Z</time>
      </trkpt>
      <trkpt lat="45.07736" lon="6.74581">
        <ele>2169.73</ele>
        <time>2017-01-05T08:33:15Z</time>
      </trkpt>
      <trkpt lat="45.07743" lon="6.74554">
        <ele>2167.65</ele>
        <time>2017-01-05T08:33:19Z</time>
      </trkpt>
      <trkpt lat="45.07752" lon="6.74542">
        <ele>2169.48</ele>
        <time>2017-01-05T08:33:22Z</time>
      </trkpt>
      <trkpt lat="45.07762" lon="6.74534">
        <ele>2169.35</ele>
        <time>2017-01-05T08:33:24Z</time>
      </trkpt>
      <trkpt lat="45.07773" lon="6.74529">
        <ele>2169.59</ele>
        <time>2017-01-05T08:33:26Z</time>
      </trkpt>
      <trkpt lat="45.07785" lon="6.74523">
        <ele>2169.62</ele>
        <time>2017-01-05T08:33:28Z</time>
      </trkpt>
      <trkpt lat="45.07796" lon="6.74517">
        <ele>2168.81</ele>
        <time>2017-01-05T08:33:30Z</time>
      </trkpt>
      <trkpt lat="45.07812" lon="6.74496">
        <ele>2164.3</ele>
        <time>2017-01-05T08:33:35Z</time>
      </trkpt>
      <trkpt lat="45.07823" lon="6.7449">
        <ele>2164.53</ele>
        <time>2017-01-05T08:33:38Z</time>
      </trkpt>
      <trkpt lat="45.0783" lon="6.74478">
        <ele>2162.39</ele>
        <time>2017-01-05T08:33:40Z</time>
      </trkpt>
      <trkpt lat="45.07842" lon="6.7447">
        <ele>2162.12</ele>
        <time>2017-01-05T08:33:42Z</time>
      </trkpt>
      <trkpt lat="45.07849" lon="6.74459">
        <ele>2160.31</ele>
        <time>2017-01-05T08:33:44Z</time>
      </trkpt>
      <trkpt lat="45.07867" lon="6.74448">
        <ele>2158.78</ele>
        <time>2017-01-05T08:33:48Z</time>
      </trkpt>
      <trkpt lat="45.07881" lon="6.7444">
        <ele>2156.71</ele>
        <time>2017-01-05T08:33:50Z</time>
      </trkpt>
      <trkpt lat="45.07891" lon="6.74431">
        <ele>2154.68</ele>
        <time>2017-01-05T08:33:52Z</time>
      </trkpt>
      <trkpt lat="45.07899" lon="6.74436">
        <ele>2158.51</ele>
        <time>2017-01-05T08:35:41Z</time>
      </trkpt>
      <trkpt lat="45.07891" lon="6.74411">
        <ele>2147.77</ele>
        <time>2017-01-05T08:36:02Z</time>
      </trkpt>
      <trkpt lat="45.07876" lon="6.74381">
        <ele>2138.3</ele>
        <time>2017-01-05T08:36:08Z</time>
      </trkpt>
      <trkpt lat="45.0789" lon="6.74401">
        <ele>2144.67</ele>
        <time>2017-01-05T08:36:19Z</time>
      </trkpt>
      <trkpt lat="45.07896" lon="6.74413">
        <ele>2149.42</ele>
        <time>2017-01-05T08:37:46Z</time>
      </trkpt>
      <trkpt lat="45.07909" lon="6.74409">
        <ele>2150.78</ele>
        <time>2017-01-05T08:37:48Z</time>
      </trkpt>
      <trkpt lat="45.07923" lon="6.74391">
        <ele>2147.39</ele>
        <time>2017-01-05T08:37:52Z</time>
      </trkpt>
      <trkpt lat="45.07932" lon="6.7438">
        <ele>2144.57</ele>
        <time>2017-01-05T08:37:55Z</time>
      </trkpt>
      <trkpt lat="45.07943" lon="6.74372">
        <ele>2143.18</ele>
        <time>2017-01-05T08:37:58Z</time>
      </trkpt>
      <trkpt lat="45.07952" lon="6.74365">
        <ele>2142.57</ele>
        <time>2017-01-05T08:38:01Z</time>
      </trkpt>
      <trkpt lat="45.07958" lon="6.74353">
        <ele>2140.1</ele>
        <time>2017-01-05T08:38:03Z</time>
      </trkpt>
      <trkpt lat="45.07967" lon="6.74336">
        <ele>2137.19</ele>
        <time>2017-01-05T08:38:05Z</time>
      </trkpt>
      <trkpt lat="45.07975" lon="6.74325">
        <ele>2137.5</ele>
        <time>2017-01-05T08:38:07Z</time>
      </trkpt>
      <trkpt lat="45.07981" lon="6.7431">
        <ele>2136.79</ele>
        <time>2017-01-05T08:38:09Z</time>
      </trkpt>
      <trkpt lat="45.07988" lon="6.74299">
        <ele>2136.17</ele>
        <time>2017-01-05T08:38:11Z</time>
      </trkpt>
      <trkpt lat="45.07995" lon="6.74284">
        <ele>2134.82</ele>
        <time>2017-01-05T08:38:14Z</time>
      </trkpt>
      <trkpt lat="45.07999" lon="6.74268">
        <ele>2132.69</ele>
        <time>2017-01-05T08:38:16Z</time>
      </trkpt>
      <trkpt lat="45.08009" lon="6.74259">
        <ele>2132.71</ele>
        <time>2017-01-05T08:38:18Z</time>
      </trkpt>
      <trkpt lat="45.0802" lon="6.74253">
        <ele>2133.45</ele>
        <time>2017-01-05T08:38:20Z</time>
      </trkpt>
      <trkpt lat="45.08031" lon="6.74248">
        <ele>2134.23</ele>
        <time>2017-01-05T08:38:22Z</time>
      </trkpt>
      <trkpt lat="45.08039" lon="6.7424">
        <ele>2133.72</ele>
        <time>2017-01-05T08:38:24Z</time>
      </trkpt>
      <trkpt lat="45.08053" lon="6.74219">
        <ele>2130.94</ele>
        <time>2017-01-05T08:38:28Z</time>
      </trkpt>
      <trkpt lat="45.08062" lon="6.74196">
        <ele>2126.82</ele>
        <time>2017-01-05T08:38:32Z</time>
      </trkpt>
      <trkpt lat="45.08069" lon="6.74186">
        <ele>2124.6</ele>
        <time>2017-01-05T08:38:34Z</time>
      </trkpt>
      <trkpt lat="45.08072" lon="6.74172">
        <ele>2121.21</ele>
        <time>2017-01-05T08:38:36Z</time>
      </trkpt>
      <trkpt lat="45.08079" lon="6.74157">
        <ele>2119.41</ele>
        <time>2017-01-05T08:38:39Z</time>
      </trkpt>
      <trkpt lat="45.08082" lon="6.74144">
        <ele>2117.63</ele>
        <time>2017-01-05T08:38:41Z</time>
      </trkpt>
      <trkpt lat="45.0809" lon="6.7413">
        <ele>2118.66</ele>
        <time>2017-01-05T08:38:43Z</time>
      </trkpt>
      <trkpt lat="45.08105" lon="6.74109">
        <ele>2121.82</ele>
        <time>2017-01-05T08:38:48Z</time>
      </trkpt>
      <trkpt lat="45.08117" lon="6.741">
        <ele>2124.59</ele>
        <time>2017-01-05T08:38:51Z</time>
      </trkpt>
      <trkpt lat="45.08126" lon="6.7409">
        <ele>2126.06</ele>
        <time>2017-01-05T08:38:54Z</time>
      </trkpt>
      <trkpt lat="45.08128" lon="6.74063">
        <ele>2120.88</ele>
        <time>2017-01-05T08:38:58Z</time>
      </trkpt>
      <trkpt lat="45.08129" lon="6.74048">
        <ele>2117.98</ele>
        <time>2017-01-05T08:39:00Z</time>
      </trkpt>
      <trkpt lat="45.08133" lon="6.74019">
        <ele>2113.95</ele>
        <time>2017-01-05T08:39:04Z</time>
      </trkpt>
      <trkpt lat="45.08129" lon="6.74004">
        <ele>2110.91</ele>
        <time>2017-01-05T08:39:07Z</time>
      </trkpt>
      <trkpt lat="45.08114" lon="6.74016">
        <ele>2107.33</ele>
        <time>2017-01-05T08:39:12Z</time>
      </trkpt>
      <trkpt lat="45.0811" lon="6.7403">
        <ele>2108.17</ele>
        <time>2017-01-05T08:39:14Z</time>
      </trkpt>
      <trkpt lat="45.08101" lon="6.74043">
        <ele>2108.24</ele>
        <time>2017-01-05T08:39:17Z</time>
      </trkpt>
      <trkpt lat="45.08089" lon="6.74037">
        <ele>2104.04</ele>
        <time>2017-01-05T08:39:21Z</time>
      </trkpt>
      <trkpt lat="45.08088" lon="6.74023">
        <ele>2101.56</ele>
        <time>2017-01-05T08:39:23Z</time>
      </trkpt>
      <trkpt lat="45.08091" lon="6.74008">
        <ele>2099.95</ele>
        <time>2017-01-05T08:39:25Z</time>
      </trkpt>
      <trkpt lat="45.08096" lon="6.73989">
        <ele>2098.95</ele>
        <time>2017-01-05T08:39:28Z</time>
      </trkpt>
      <trkpt lat="45.08098" lon="6.73973">
        <ele>2098.18</ele>
        <time>2017-01-05T08:39:30Z</time>
      </trkpt>
      <trkpt lat="45.08097" lon="6.73946">
        <ele>2094.74</ele>
        <time>2017-01-05T08:39:34Z</time>
      </trkpt>
      <trkpt lat="45.08096" lon="6.73932">
        <ele>2092.21</ele>
        <time>2017-01-05T08:39:36Z</time>
      </trkpt>
      <trkpt lat="45.08097" lon="6.73915">
        <ele>2090.15</ele>
        <time>2017-01-05T08:39:38Z</time>
      </trkpt>
      <trkpt lat="45.08093" lon="6.73889">
        <ele>2088.1</ele>
        <time>2017-01-05T08:39:42Z</time>
      </trkpt>
      <trkpt lat="45.08088" lon="6.73874">
        <ele>2085.97</ele>
        <time>2017-01-05T08:39:44Z</time>
      </trkpt>
      <trkpt lat="45.08085" lon="6.7386">
        <ele>2084.44</ele>
        <time>2017-01-05T08:39:46Z</time>
      </trkpt>
      <trkpt lat="45.08082" lon="6.73846">
        <ele>2081.19</ele>
        <time>2017-01-05T08:39:48Z</time>
      </trkpt>
      <trkpt lat="45.08075" lon="6.7383">
        <ele>2075.84</ele>
        <time>2017-01-05T08:39:50Z</time>
      </trkpt>
      <trkpt lat="45.08066" lon="6.73807">
        <ele>2067.77</ele>
        <time>2017-01-05T08:39:54Z</time>
      </trkpt>
      <trkpt lat="45.08059" lon="6.73794">
        <ele>2063.64</ele>
        <time>2017-01-05T08:39:56Z</time>
      </trkpt>
      <trkpt lat="45.08058" lon="6.73767">
        <ele>2059.8</ele>
        <time>2017-01-05T08:40:00Z</time>
      </trkpt>
      <trkpt lat="45.08056" lon="6.7374">
        <ele>2058.07</ele>
        <time>2017-01-05T08:40:05Z</time>
      </trkpt>
      <trkpt lat="45.08052" lon="6.73726">
        <ele>2056.88</ele>
        <time>2017-01-05T08:40:08Z</time>
      </trkpt>
      <trkpt lat="45.08043" lon="6.73715">
        <ele>2053</ele>
        <time>2017-01-05T08:40:11Z</time>
      </trkpt>
      <trkpt lat="45.08027" lon="6.73702">
        <ele>2047.72</ele>
        <time>2017-01-05T08:40:13Z</time>
      </trkpt>
      <trkpt lat="45.08036" lon="6.73692">
        <ele>2049.45</ele>
        <time>2017-01-05T08:40:16Z</time>
      </trkpt>
      <trkpt lat="45.08058" lon="6.7369">
        <ele>2053.01</ele>
        <time>2017-01-05T08:40:21Z</time>
      </trkpt>
      <trkpt lat="45.08078" lon="6.73682">
        <ele>2050.9</ele>
        <time>2017-01-05T08:40:26Z</time>
      </trkpt>
      <trkpt lat="45.08074" lon="6.73666">
        <ele>2047.64</ele>
        <time>2017-01-05T08:40:29Z</time>
      </trkpt>
      <trkpt lat="45.08061" lon="6.73659">
        <ele>2045.59</ele>
        <time>2017-01-05T08:40:32Z</time>
      </trkpt>
      <trkpt lat="45.08048" lon="6.73657">
        <ele>2044.51</ele>
        <time>2017-01-05T08:40:35Z</time>
      </trkpt>
      <trkpt lat="45.08036" lon="6.73659">
        <ele>2043.98</ele>
        <time>2017-01-05T08:40:38Z</time>
      </trkpt>
      <trkpt lat="45.08017" lon="6.73667">
        <ele>2039.92</ele>
        <time>2017-01-05T08:40:42Z</time>
      </trkpt>
      <trkpt lat="45.08007" lon="6.73663">
        <ele>2034.94</ele>
        <time>2017-01-05T08:40:45Z</time>
      </trkpt>
      <trkpt lat="45.08008" lon="6.73647">
        <ele>2033.36</ele>
        <time>2017-01-05T08:40:48Z</time>
      </trkpt>
      <trkpt lat="45.08014" lon="6.7362">
        <ele>2029.97</ele>
        <time>2017-01-05T08:40:52Z</time>
      </trkpt>
      <trkpt lat="45.08024" lon="6.7361">
        <ele>2031.39</ele>
        <time>2017-01-05T08:40:55Z</time>
      </trkpt>
      <trkpt lat="45.08035" lon="6.73612">
        <ele>2032.59</ele>
        <time>2017-01-05T08:40:58Z</time>
      </trkpt>
      <trkpt lat="45.08048" lon="6.73618">
        <ele>2033.37</ele>
        <time>2017-01-05T08:41:02Z</time>
      </trkpt>
      <trkpt lat="45.08044" lon="6.73605">
        <ele>2030.46</ele>
        <time>2017-01-05T08:41:10Z</time>
      </trkpt>
      <trkpt lat="45.08035" lon="6.73596">
        <ele>2028.7</ele>
        <time>2017-01-05T08:41:12Z</time>
      </trkpt>
      <trkpt lat="45.08021" lon="6.73589">
        <ele>2025.33</ele>
        <time>2017-01-05T08:41:14Z</time>
      </trkpt>
      <trkpt lat="45.0801" lon="6.7359">
        <ele>2022.03</ele>
        <time>2017-01-05T08:41:17Z</time>
      </trkpt>
      <trkpt lat="45.07999" lon="6.73586">
        <ele>2018.01</ele>
        <time>2017-01-05T08:41:20Z</time>
      </trkpt>
      <trkpt lat="45.07992" lon="6.73573">
        <ele>2013.74</ele>
        <time>2017-01-05T08:41:23Z</time>
      </trkpt>
      <trkpt lat="45.07987" lon="6.7356">
        <ele>2010.42</ele>
        <time>2017-01-05T08:41:25Z</time>
      </trkpt>
      <trkpt lat="45.08005" lon="6.73548">
        <ele>2013.86</ele>
        <time>2017-01-05T08:41:31Z</time>
      </trkpt>
      <trkpt lat="45.08015" lon="6.73542">
        <ele>2013.74</ele>
        <time>2017-01-05T08:41:35Z</time>
      </trkpt>
      <trkpt lat="45.08027" lon="6.73543">
        <ele>2015.16</ele>
        <time>2017-01-05T08:41:38Z</time>
      </trkpt>
      <trkpt lat="45.08037" lon="6.73549">
        <ele>2016.42</ele>
        <time>2017-01-05T08:41:40Z</time>
      </trkpt>
      <trkpt lat="45.08043" lon="6.73533">
        <ele>2011.73</ele>
        <time>2017-01-05T08:41:43Z</time>
      </trkpt>
      <trkpt lat="45.08032" lon="6.73522">
        <ele>2009.65</ele>
        <time>2017-01-05T08:41:46Z</time>
      </trkpt>
      <trkpt lat="45.08021" lon="6.73516">
        <ele>2007.64</ele>
        <time>2017-01-05T08:41:49Z</time>
      </trkpt>
      <trkpt lat="45.0801" lon="6.7351">
        <ele>2005.12</ele>
        <time>2017-01-05T08:41:52Z</time>
      </trkpt>
      <trkpt lat="45.08" lon="6.73506">
        <ele>2002.81</ele>
        <time>2017-01-05T08:41:55Z</time>
      </trkpt>
      <trkpt lat="45.07989" lon="6.73517">
        <ele>2001.93</ele>
        <time>2017-01-05T08:41:58Z</time>
      </trkpt>
      <trkpt lat="45.07976" lon="6.73515">
        <ele>1997.19</ele>
        <time>2017-01-05T08:42:00Z</time>
      </trkpt>
      <trkpt lat="45.07964" lon="6.7351">
        <ele>1989.77</ele>
        <time>2017-01-05T08:42:02Z</time>
      </trkpt>
      <trkpt lat="45.07955" lon="6.73501">
        <ele>1982.69</ele>
        <time>2017-01-05T08:42:06Z</time>
      </trkpt>
      <trkpt lat="45.0796" lon="6.73489">
        <ele>1983.16</ele>
        <time>2017-01-05T08:42:09Z</time>
      </trkpt>
      <trkpt lat="45.07981" lon="6.73487">
        <ele>1991.27</ele>
        <time>2017-01-05T08:42:13Z</time>
      </trkpt>
      <trkpt lat="45.07988" lon="6.73477">
        <ele>1990.13</ele>
        <time>2017-01-05T08:42:15Z</time>
      </trkpt>
      <trkpt lat="45.07994" lon="6.73464">
        <ele>1987.81</ele>
        <time>2017-01-05T08:42:17Z</time>
      </trkpt>
      <trkpt lat="45.08005" lon="6.73454">
        <ele>1986.79</ele>
        <time>2017-01-05T08:42:20Z</time>
      </trkpt>
      <trkpt lat="45.08015" lon="6.73455">
        <ele>1987.96</ele>
        <time>2017-01-05T08:42:22Z</time>
      </trkpt>
      <trkpt lat="45.08028" lon="6.73451">
        <ele>1987.88</ele>
        <time>2017-01-05T08:42:25Z</time>
      </trkpt>
      <trkpt lat="45.08039" lon="6.73438">
        <ele>1983.24</ele>
        <time>2017-01-05T08:42:27Z</time>
      </trkpt>
      <trkpt lat="45.08058" lon="6.73432">
        <ele>1982.32</ele>
        <time>2017-01-05T08:42:31Z</time>
      </trkpt>
      <trkpt lat="45.08069" lon="6.73431">
        <ele>1982.06</ele>
        <time>2017-01-05T08:42:34Z</time>
      </trkpt>
      <trkpt lat="45.0808" lon="6.7343">
        <ele>1982.21</ele>
        <time>2017-01-05T08:42:36Z</time>
      </trkpt>
      <trkpt lat="45.0809" lon="6.73429">
        <ele>1981.24</ele>
        <time>2017-01-05T08:42:38Z</time>
      </trkpt>
      <trkpt lat="45.081" lon="6.73428">
        <ele>1980.08</ele>
        <time>2017-01-05T08:42:40Z</time>
      </trkpt>
      <trkpt lat="45.08115" lon="6.73426">
        <ele>1978.35</ele>
        <time>2017-01-05T08:42:42Z</time>
      </trkpt>
      <trkpt lat="45.08126" lon="6.73426">
        <ele>1977.03</ele>
        <time>2017-01-05T08:42:44Z</time>
      </trkpt>
      <trkpt lat="45.08137" lon="6.73429">
        <ele>1977.32</ele>
        <time>2017-01-05T08:42:47Z</time>
      </trkpt>
      <trkpt lat="45.0815" lon="6.73432">
        <ele>1978.46</ele>
        <time>2017-01-05T08:42:50Z</time>
      </trkpt>
      <trkpt lat="45.08161" lon="6.73426">
        <ele>1975.49</ele>
        <time>2017-01-05T08:42:53Z</time>
      </trkpt>
      <trkpt lat="45.08154" lon="6.73414">
        <ele>1970.73</ele>
        <time>2017-01-05T08:42:57Z</time>
      </trkpt>
      <trkpt lat="45.08142" lon="6.73406">
        <ele>1967.75</ele>
        <time>2017-01-05T08:43:00Z</time>
      </trkpt>
      <trkpt lat="45.08133" lon="6.73399">
        <ele>1966.18</ele>
        <time>2017-01-05T08:43:03Z</time>
      </trkpt>
      <trkpt lat="45.08116" lon="6.73385">
        <ele>1963.5</ele>
        <time>2017-01-05T08:43:09Z</time>
      </trkpt>
      <trkpt lat="45.08103" lon="6.73381">
        <ele>1962.55</ele>
        <time>2017-01-05T08:43:12Z</time>
      </trkpt>
      <trkpt lat="45.08093" lon="6.7338">
        <ele>1962.07</ele>
        <time>2017-01-05T08:43:14Z</time>
      </trkpt>
      <trkpt lat="45.08082" lon="6.73374">
        <ele>1960.08</ele>
        <time>2017-01-05T08:43:17Z</time>
      </trkpt>
      <trkpt lat="45.08061" lon="6.73366">
        <ele>1956.17</ele>
        <time>2017-01-05T08:43:21Z</time>
      </trkpt>
      <trkpt lat="45.08055" lon="6.73355">
        <ele>1952.46</ele>
        <time>2017-01-05T08:43:22Z</time>
      </trkpt>
      <trkpt lat="45.08046" lon="6.73346">
        <ele>1950.01</ele>
        <time>2017-01-05T08:43:24Z</time>
      </trkpt>
      <trkpt lat="45.08033" lon="6.73341">
        <ele>1948.6</ele>
        <time>2017-01-05T08:43:27Z</time>
      </trkpt>
      <trkpt lat="45.08021" lon="6.73341">
        <ele>1948.41</ele>
        <time>2017-01-05T08:43:31Z</time>
      </trkpt>
      <trkpt lat="45.08009" lon="6.73343">
        <ele>1948.16</ele>
        <time>2017-01-05T08:43:34Z</time>
      </trkpt>
      <trkpt lat="45.07999" lon="6.73352">
        <ele>1950.25</ele>
        <time>2017-01-05T08:43:37Z</time>
      </trkpt>
      <trkpt lat="45.0799" lon="6.73359">
        <ele>1950.77</ele>
        <time>2017-01-05T08:43:39Z</time>
      </trkpt>
      <trkpt lat="45.07981" lon="6.73365">
        <ele>1951.51</ele>
        <time>2017-01-05T08:43:41Z</time>
      </trkpt>
      <trkpt lat="45.07963" lon="6.73367">
        <ele>1948.75</ele>
        <time>2017-01-05T08:43:45Z</time>
      </trkpt>
      <trkpt lat="45.0795" lon="6.73364">
        <ele>1945.56</ele>
        <time>2017-01-05T08:43:47Z</time>
      </trkpt>
      <trkpt lat="45.07942" lon="6.73351">
        <ele>1939.39</ele>
        <time>2017-01-05T08:43:51Z</time>
      </trkpt>
      <trkpt lat="45.07945" lon="6.73336">
        <ele>1936</ele>
        <time>2017-01-05T08:43:54Z</time>
      </trkpt>
      <trkpt lat="45.07955" lon="6.73334">
        <ele>1937.43</ele>
        <time>2017-01-05T08:43:56Z</time>
      </trkpt>
      <trkpt lat="45.07965" lon="6.73336">
        <ele>1940.2</ele>
        <time>2017-01-05T08:43:58Z</time>
      </trkpt>
      <trkpt lat="45.07975" lon="6.73336">
        <ele>1942.07</ele>
        <time>2017-01-05T08:44:00Z</time>
      </trkpt>
      <trkpt lat="45.07986" lon="6.73333">
        <ele>1942.94</ele>
        <time>2017-01-05T08:44:02Z</time>
      </trkpt>
      <trkpt lat="45.07991" lon="6.73318">
        <ele>1939.12</ele>
        <time>2017-01-05T08:44:03Z</time>
      </trkpt>
      <trkpt lat="45.0799" lon="6.73299">
        <ele>1933.14</ele>
        <time>2017-01-05T08:44:06Z</time>
      </trkpt>
      <trkpt lat="45.07981" lon="6.73287">
        <ele>1928.55</ele>
        <time>2017-01-05T08:44:09Z</time>
      </trkpt>
      <trkpt lat="45.07971" lon="6.73285">
        <ele>1926.53</ele>
        <time>2017-01-05T08:44:12Z</time>
      </trkpt>
      <trkpt lat="45.07959" lon="6.73283">
        <ele>1924.87</ele>
        <time>2017-01-05T08:44:15Z</time>
      </trkpt>
      <trkpt lat="45.07948" lon="6.73285">
        <ele>1924.02</ele>
        <time>2017-01-05T08:44:18Z</time>
      </trkpt>
      <trkpt lat="45.07936" lon="6.73288">
        <ele>1921.13</ele>
        <time>2017-01-05T08:44:21Z</time>
      </trkpt>
      <trkpt lat="45.07926" lon="6.73294">
        <ele>1918.79</ele>
        <time>2017-01-05T08:44:24Z</time>
      </trkpt>
      <trkpt lat="45.07915" lon="6.73295">
        <ele>1914.84</ele>
        <time>2017-01-05T08:44:27Z</time>
      </trkpt>
      <trkpt lat="45.07908" lon="6.73285">
        <ele>1909.11</ele>
        <time>2017-01-05T08:44:30Z</time>
      </trkpt>
      <trkpt lat="45.07918" lon="6.73276">
        <ele>1911.92</ele>
        <time>2017-01-05T08:44:33Z</time>
      </trkpt>
      <trkpt lat="45.07926" lon="6.73248">
        <ele>1907.79</ele>
        <time>2017-01-05T08:44:37Z</time>
      </trkpt>
      <trkpt lat="45.07935" lon="6.73235">
        <ele>1906.61</ele>
        <time>2017-01-05T08:44:39Z</time>
      </trkpt>
      <trkpt lat="45.07947" lon="6.73232">
        <ele>1908.16</ele>
        <time>2017-01-05T08:44:41Z</time>
      </trkpt>
      <trkpt lat="45.07958" lon="6.73228">
        <ele>1908.14</ele>
        <time>2017-01-05T08:44:43Z</time>
      </trkpt>
      <trkpt lat="45.07968" lon="6.73229">
        <ele>1909.76</ele>
        <time>2017-01-05T08:44:45Z</time>
      </trkpt>
      <trkpt lat="45.07978" lon="6.73228">
        <ele>1910.4</ele>
        <time>2017-01-05T08:44:47Z</time>
      </trkpt>
      <trkpt lat="45.07985" lon="6.73217">
        <ele>1907.54</ele>
        <time>2017-01-05T08:44:49Z</time>
      </trkpt>
      <trkpt lat="45.08002" lon="6.73192">
        <ele>1902.52</ele>
        <time>2017-01-05T08:44:53Z</time>
      </trkpt>
      <trkpt lat="45.08013" lon="6.7317">
        <ele>1897.46</ele>
        <time>2017-01-05T08:44:56Z</time>
      </trkpt>
      <trkpt lat="45.08025" lon="6.73167">
        <ele>1896.83</ele>
        <time>2017-01-05T08:44:58Z</time>
      </trkpt>
      <trkpt lat="45.08034" lon="6.73159">
        <ele>1895.14</ele>
        <time>2017-01-05T08:45:00Z</time>
      </trkpt>
      <trkpt lat="45.08043" lon="6.73151">
        <ele>1893.42</ele>
        <time>2017-01-05T08:45:14Z</time>
      </trkpt>
      <trkpt lat="45.08061" lon="6.73148">
        <ele>1894.53</ele>
        <time>2017-01-05T08:45:19Z</time>
      </trkpt>
      <trkpt lat="45.08074" lon="6.73147">
        <ele>1896.18</ele>
        <time>2017-01-05T08:45:21Z</time>
      </trkpt>
      <trkpt lat="45.08087" lon="6.73148">
        <ele>1898.87</ele>
        <time>2017-01-05T08:45:23Z</time>
      </trkpt>
      <trkpt lat="45.08103" lon="6.73149">
        <ele>1900.71</ele>
        <time>2017-01-05T08:45:25Z</time>
      </trkpt>
      <trkpt lat="45.08116" lon="6.73153">
        <ele>1902.94</ele>
        <time>2017-01-05T08:45:27Z</time>
      </trkpt>
      <trkpt lat="45.0813" lon="6.73155">
        <ele>1903.84</ele>
        <time>2017-01-05T08:45:29Z</time>
      </trkpt>
      <trkpt lat="45.08148" lon="6.73166">
        <ele>1907.4</ele>
        <time>2017-01-05T08:45:33Z</time>
      </trkpt>
      <trkpt lat="45.08162" lon="6.73166">
        <ele>1906.9</ele>
        <time>2017-01-05T08:45:34Z</time>
      </trkpt>
      <trkpt lat="45.08183" lon="6.73157">
        <ele>1904.72</ele>
        <time>2017-01-05T08:45:49Z</time>
      </trkpt>
      <trkpt lat="45.08202" lon="6.7315">
        <ele>1905.15</ele>
        <time>2017-01-05T08:45:55Z</time>
      </trkpt>
      <trkpt lat="45.08198" lon="6.73174">
        <ele>1909.29</ele>
        <time>2017-01-05T08:46:02Z</time>
      </trkpt>
      <trkpt lat="45.08189" lon="6.73167">
        <ele>1907.01</ele>
        <time>2017-01-05T08:46:06Z</time>
      </trkpt>
      <trkpt lat="45.08169" lon="6.73168">
        <ele>1907.4</ele>
        <time>2017-01-05T08:46:09Z</time>
      </trkpt>
      <trkpt lat="45.08156" lon="6.73168">
        <ele>1907.89</ele>
        <time>2017-01-05T08:46:12Z</time>
      </trkpt>
      <trkpt lat="45.08145" lon="6.73165">
        <ele>1907.33</ele>
        <time>2017-01-05T08:46:15Z</time>
      </trkpt>
      <trkpt lat="45.08137" lon="6.73176">
        <ele>1911.6</ele>
        <time>2017-01-05T08:46:28Z</time>
      </trkpt>
      <trkpt lat="45.08148" lon="6.73202">
        <ele>1920.45</ele>
        <time>2017-01-05T08:46:32Z</time>
      </trkpt>
      <trkpt lat="45.0816" lon="6.7321">
        <ele>1921.94</ele>
        <time>2017-01-05T08:46:34Z</time>
      </trkpt>
      <trkpt lat="45.08174" lon="6.73213">
        <ele>1921.63</ele>
        <time>2017-01-05T08:46:36Z</time>
      </trkpt>
      <trkpt lat="45.08187" lon="6.73213">
        <ele>1920.66</ele>
        <time>2017-01-05T08:46:49Z</time>
      </trkpt>
      <trkpt lat="45.08207" lon="6.73216">
        <ele>1921.55</ele>
        <time>2017-01-05T08:47:02Z</time>
      </trkpt>
      <trkpt lat="45.08217" lon="6.73224">
        <ele>1924.65</ele>
        <time>2017-01-05T08:47:04Z</time>
      </trkpt>
      <trkpt lat="45.08226" lon="6.73233">
        <ele>1929</ele>
        <time>2017-01-05T08:47:06Z</time>
      </trkpt>
      <trkpt lat="45.08232" lon="6.73246">
        <ele>1935.4</ele>
        <time>2017-01-05T08:47:10Z</time>
      </trkpt>
      <trkpt lat="45.08245" lon="6.73247">
        <ele>1937.07</ele>
        <time>2017-01-05T08:47:12Z</time>
      </trkpt>
      <trkpt lat="45.08259" lon="6.73255">
        <ele>1938.59</ele>
        <time>2017-01-05T08:47:17Z</time>
      </trkpt>
      <trkpt lat="45.08271" lon="6.7326">
        <ele>1937.92</ele>
        <time>2017-01-05T08:47:19Z</time>
      </trkpt>
      <trkpt lat="45.08282" lon="6.73267">
        <ele>1937.17</ele>
        <time>2017-01-05T08:47:21Z</time>
      </trkpt>
      <trkpt lat="45.08295" lon="6.73274">
        <ele>1935.73</ele>
        <time>2017-01-05T08:47:23Z</time>
      </trkpt>
      <trkpt lat="45.0831" lon="6.73279">
        <ele>1934.02</ele>
        <time>2017-01-05T08:47:25Z</time>
      </trkpt>
      <trkpt lat="45.08325" lon="6.73286">
        <ele>1934.71</ele>
        <time>2017-01-05T08:47:27Z</time>
      </trkpt>
      <trkpt lat="45.08341" lon="6.73289">
        <ele>1935.64</ele>
        <time>2017-01-05T08:47:29Z</time>
      </trkpt>
      <trkpt lat="45.08355" lon="6.73295">
        <ele>1938.07</ele>
        <time>2017-01-05T08:47:31Z</time>
      </trkpt>
      <trkpt lat="45.08366" lon="6.73299">
        <ele>1939.09</ele>
        <time>2017-01-05T08:47:33Z</time>
      </trkpt>
      <trkpt lat="45.08384" lon="6.73304">
        <ele>1938.89</ele>
        <time>2017-01-05T08:47:35Z</time>
      </trkpt>
      <trkpt lat="45.08394" lon="6.73308">
        <ele>1938.92</ele>
        <time>2017-01-05T08:47:36Z</time>
      </trkpt>
      <trkpt lat="45.08408" lon="6.73325">
        <ele>1942.66</ele>
        <time>2017-01-05T08:47:38Z</time>
      </trkpt>
      <trkpt lat="45.08427" lon="6.7335">
        <ele>1946.99</ele>
        <time>2017-01-05T08:47:40Z</time>
      </trkpt>
      <trkpt lat="45.08438" lon="6.73357">
        <ele>1946.79</ele>
        <time>2017-01-05T08:47:42Z</time>
      </trkpt>
      <trkpt lat="45.08451" lon="6.73376">
        <ele>1948.04</ele>
        <time>2017-01-05T08:47:46Z</time>
      </trkpt>
      <trkpt lat="45.08455" lon="6.73389">
        <ele>1949.58</ele>
        <time>2017-01-05T08:47:50Z</time>
      </trkpt>
      <trkpt lat="45.08462" lon="6.734">
        <ele>1949.29</ele>
        <time>2017-01-05T08:49:08Z</time>
      </trkpt>
      <trkpt lat="45.08471" lon="6.73408">
        <ele>1948.62</ele>
        <time>2017-01-05T08:49:11Z</time>
      </trkpt>
      <trkpt lat="45.08478" lon="6.73418">
        <ele>1946.9</ele>
        <time>2017-01-05T08:49:13Z</time>
      </trkpt>
      <trkpt lat="45.08495" lon="6.73432">
        <ele>1940.13</ele>
        <time>2017-01-05T08:49:17Z</time>
      </trkpt>
      <trkpt lat="45.08504" lon="6.73443">
        <ele>1937.52</ele>
        <time>2017-01-05T08:49:19Z</time>
      </trkpt>
      <trkpt lat="45.08515" lon="6.73455">
        <ele>1935.85</ele>
        <time>2017-01-05T08:49:20Z</time>
      </trkpt>
      <trkpt lat="45.08534" lon="6.73468">
        <ele>1933.75</ele>
        <time>2017-01-05T08:49:25Z</time>
      </trkpt>
      <trkpt lat="45.08545" lon="6.7347">
        <ele>1933.34</ele>
        <time>2017-01-05T08:49:28Z</time>
      </trkpt>
      <trkpt lat="45.08559" lon="6.73467">
        <ele>1931.88</ele>
        <time>2017-01-05T08:49:31Z</time>
      </trkpt>
      <trkpt lat="45.08572" lon="6.7347">
        <ele>1931.92</ele>
        <time>2017-01-05T08:49:34Z</time>
      </trkpt>
      <trkpt lat="45.08586" lon="6.73487">
        <ele>1934.61</ele>
        <time>2017-01-05T08:49:39Z</time>
      </trkpt>
      <trkpt lat="45.08596" lon="6.73496">
        <ele>1936.52</ele>
        <time>2017-01-05T08:49:41Z</time>
      </trkpt>
      <trkpt lat="45.08608" lon="6.735">
        <ele>1938</ele>
        <time>2017-01-05T08:49:45Z</time>
      </trkpt>
      <trkpt lat="45.08618" lon="6.73505">
        <ele>1939.18</ele>
        <time>2017-01-05T08:49:47Z</time>
      </trkpt>
      <trkpt lat="45.08627" lon="6.73516">
        <ele>1941.93</ele>
        <time>2017-01-05T08:49:50Z</time>
      </trkpt>
      <trkpt lat="45.08642" lon="6.73517">
        <ele>1941.99</ele>
        <time>2017-01-05T08:49:52Z</time>
      </trkpt>
      <trkpt lat="45.08642" lon="6.73532">
        <ele>1945.69</ele>
        <time>2017-01-05T08:49:54Z</time>
      </trkpt>
      <trkpt lat="45.08656" lon="6.73554">
        <ele>1948.6</ele>
        <time>2017-01-05T08:49:56Z</time>
      </trkpt>
      <trkpt lat="45.08665" lon="6.73569">
        <ele>1950.36</ele>
        <time>2017-01-05T08:49:58Z</time>
      </trkpt>
      <trkpt lat="45.08677" lon="6.7359">
        <ele>1951.34</ele>
        <time>2017-01-05T08:50:02Z</time>
      </trkpt>
      <trkpt lat="45.08691" lon="6.73601">
        <ele>1950.73</ele>
        <time>2017-01-05T08:50:05Z</time>
      </trkpt>
      <trkpt lat="45.08696" lon="6.73618">
        <ele>1954.93</ele>
        <time>2017-01-05T08:50:08Z</time>
      </trkpt>
      <trkpt lat="45.08704" lon="6.7363">
        <ele>1956.41</ele>
        <time>2017-01-05T08:50:10Z</time>
      </trkpt>
      <trkpt lat="45.08714" lon="6.73657">
        <ele>1959.94</ele>
        <time>2017-01-05T08:50:15Z</time>
      </trkpt>
      <trkpt lat="45.08718" lon="6.73674">
        <ele>1962.26</ele>
        <time>2017-01-05T08:50:18Z</time>
      </trkpt>
      <trkpt lat="45.08724" lon="6.73692">
        <ele>1963.54</ele>
        <time>2017-01-05T08:50:21Z</time>
      </trkpt>
      <trkpt lat="45.08732" lon="6.73702">
        <ele>1965.05</ele>
        <time>2017-01-05T08:50:24Z</time>
      </trkpt>
      <trkpt lat="45.08744" lon="6.73704">
        <ele>1964.81</ele>
        <time>2017-01-05T08:50:28Z</time>
      </trkpt>
      <trkpt lat="45.08755" lon="6.73702">
        <ele>1964.31</ele>
        <time>2017-01-05T08:51:35Z</time>
      </trkpt>
      <trkpt lat="45.08744" lon="6.73702">
        <ele>1964.48</ele>
        <time>2017-01-05T09:06:42Z</time>
      </trkpt>
      <trkpt lat="45.08736" lon="6.73721">
        <ele>1968.25</ele>
        <time>2017-01-05T09:06:53Z</time>
      </trkpt>
      <trkpt lat="45.08742" lon="6.73734">
        <ele>1969.56</ele>
        <time>2017-01-05T09:06:57Z</time>
      </trkpt>
      <trkpt lat="45.08746" lon="6.73749">
        <ele>1971.22</ele>
        <time>2017-01-05T09:07:00Z</time>
      </trkpt>
      <trkpt lat="45.0875" lon="6.73763">
        <ele>1973.29</ele>
        <time>2017-01-05T09:07:03Z</time>
      </trkpt>
      <trkpt lat="45.08763" lon="6.73787">
        <ele>1979.3</ele>
        <time>2017-01-05T09:07:08Z</time>
      </trkpt>
      <trkpt lat="45.08772" lon="6.73799">
        <ele>1982.35</ele>
        <time>2017-01-05T09:07:11Z</time>
      </trkpt>
      <trkpt lat="45.0878" lon="6.73808">
        <ele>1984.42</ele>
        <time>2017-01-05T09:07:14Z</time>
      </trkpt>
      <trkpt lat="45.0879" lon="6.73821">
        <ele>1986.52</ele>
        <time>2017-01-05T09:07:17Z</time>
      </trkpt>
      <trkpt lat="45.08799" lon="6.73845">
        <ele>1990.58</ele>
        <time>2017-01-05T09:07:22Z</time>
      </trkpt>
      <trkpt lat="45.08808" lon="6.73861">
        <ele>1992.7</ele>
        <time>2017-01-05T09:07:25Z</time>
      </trkpt>
      <trkpt lat="45.08817" lon="6.73874">
        <ele>1994.08</ele>
        <time>2017-01-05T09:07:29Z</time>
      </trkpt>
      <trkpt lat="45.08825" lon="6.73883">
        <ele>1994.79</ele>
        <time>2017-01-05T09:07:31Z</time>
      </trkpt>
      <trkpt lat="45.0884" lon="6.73903">
        <ele>1997.78</ele>
        <time>2017-01-05T09:07:36Z</time>
      </trkpt>
      <trkpt lat="45.08847" lon="6.73916">
        <ele>2000.33</ele>
        <time>2017-01-05T09:07:38Z</time>
      </trkpt>
      <trkpt lat="45.08854" lon="6.73927">
        <ele>2001.69</ele>
        <time>2017-01-05T09:07:40Z</time>
      </trkpt>
      <trkpt lat="45.08861" lon="6.7394">
        <ele>2003.34</ele>
        <time>2017-01-05T09:07:42Z</time>
      </trkpt>
      <trkpt lat="45.08864" lon="6.73957">
        <ele>2005.08</ele>
        <time>2017-01-05T09:07:44Z</time>
      </trkpt>
      <trkpt lat="45.08865" lon="6.73976">
        <ele>2006.89</ele>
        <time>2017-01-05T09:07:46Z</time>
      </trkpt>
      <trkpt lat="45.08866" lon="6.7399">
        <ele>2008.19</ele>
        <time>2017-01-05T09:07:48Z</time>
      </trkpt>
      <trkpt lat="45.08868" lon="6.74004">
        <ele>2009.41</ele>
        <time>2017-01-05T09:07:50Z</time>
      </trkpt>
      <trkpt lat="45.08867" lon="6.7402">
        <ele>2011.83</ele>
        <time>2017-01-05T09:07:52Z</time>
      </trkpt>
      <trkpt lat="45.0887" lon="6.74039">
        <ele>2014.78</ele>
        <time>2017-01-05T09:07:55Z</time>
      </trkpt>
      <trkpt lat="45.08878" lon="6.7405">
        <ele>2015.32</ele>
        <time>2017-01-05T09:08:00Z</time>
      </trkpt>
      <trkpt lat="45.08886" lon="6.74076">
        <ele>2019.36</ele>
        <time>2017-01-05T09:08:07Z</time>
      </trkpt>
      <trkpt lat="45.08893" lon="6.74089">
        <ele>2020.48</ele>
        <time>2017-01-05T09:08:10Z</time>
      </trkpt>
      <trkpt lat="45.08903" lon="6.74097">
        <ele>2019.69</ele>
        <time>2017-01-05T09:08:13Z</time>
      </trkpt>
      <trkpt lat="45.08907" lon="6.74123">
        <ele>2024.31</ele>
        <time>2017-01-05T09:08:19Z</time>
      </trkpt>
      <trkpt lat="45.08906" lon="6.74141">
        <ele>2027.48</ele>
        <time>2017-01-05T09:08:22Z</time>
      </trkpt>
      <trkpt lat="45.08904" lon="6.74156">
        <ele>2028.65</ele>
        <time>2017-01-05T09:08:24Z</time>
      </trkpt>
      <trkpt lat="45.08901" lon="6.74171">
        <ele>2030.35</ele>
        <time>2017-01-05T09:08:26Z</time>
      </trkpt>
      <trkpt lat="45.08895" lon="6.74185">
        <ele>2033.43</ele>
        <time>2017-01-05T09:08:28Z</time>
      </trkpt>
      <trkpt lat="45.08892" lon="6.74199">
        <ele>2035.13</ele>
        <time>2017-01-05T09:08:30Z</time>
      </trkpt>
      <trkpt lat="45.08894" lon="6.74216">
        <ele>2033.66</ele>
        <time>2017-01-05T09:08:32Z</time>
      </trkpt>
      <trkpt lat="45.08891" lon="6.74231">
        <ele>2035.44</ele>
        <time>2017-01-05T09:08:34Z</time>
      </trkpt>
      <trkpt lat="45.08892" lon="6.74251">
        <ele>2035.52</ele>
        <time>2017-01-05T09:08:37Z</time>
      </trkpt>
      <trkpt lat="45.08891" lon="6.74268">
        <ele>2036.89</ele>
        <time>2017-01-05T09:08:40Z</time>
      </trkpt>
      <trkpt lat="45.08887" lon="6.74285">
        <ele>2039.69</ele>
        <time>2017-01-05T09:08:43Z</time>
      </trkpt>
      <trkpt lat="45.08884" lon="6.74304">
        <ele>2042.94</ele>
        <time>2017-01-05T09:08:47Z</time>
      </trkpt>
      <trkpt lat="45.08891" lon="6.74331">
        <ele>2043.1</ele>
        <time>2017-01-05T09:08:57Z</time>
      </trkpt>
      <trkpt lat="45.08899" lon="6.74343">
        <ele>2043.84</ele>
        <time>2017-01-05T09:09:01Z</time>
      </trkpt>
      <trkpt lat="45.08905" lon="6.74356">
        <ele>2045.15</ele>
        <time>2017-01-05T09:09:05Z</time>
      </trkpt>
      <trkpt lat="45.08919" lon="6.74378">
        <ele>2050.19</ele>
        <time>2017-01-05T09:09:12Z</time>
      </trkpt>
      <trkpt lat="45.08928" lon="6.74382">
        <ele>2051.57</ele>
        <time>2017-01-05T09:09:15Z</time>
      </trkpt>
      <trkpt lat="45.08938" lon="6.74386">
        <ele>2052.48</ele>
        <time>2017-01-05T09:09:20Z</time>
      </trkpt>
      <trkpt lat="45.08954" lon="6.74399">
        <ele>2055.77</ele>
        <time>2017-01-05T09:09:28Z</time>
      </trkpt>
      <trkpt lat="45.08959" lon="6.74413">
        <ele>2059.8</ele>
        <time>2017-01-05T09:09:33Z</time>
      </trkpt>
      <trkpt lat="45.08962" lon="6.74426">
        <ele>2063.88</ele>
        <time>2017-01-05T09:09:37Z</time>
      </trkpt>
      <trkpt lat="45.08963" lon="6.74455">
        <ele>2071.72</ele>
        <time>2017-01-05T09:09:49Z</time>
      </trkpt>
      <trkpt lat="45.08975" lon="6.74476">
        <ele>2075.2</ele>
        <time>2017-01-05T09:09:58Z</time>
      </trkpt>
      <trkpt lat="45.08981" lon="6.74487">
        <ele>2076.78</ele>
        <time>2017-01-05T09:10:03Z</time>
      </trkpt>
      <trkpt lat="45.08986" lon="6.745">
        <ele>2079.55</ele>
        <time>2017-01-05T09:10:06Z</time>
      </trkpt>
      <trkpt lat="45.08983" lon="6.74515">
        <ele>2082.73</ele>
        <time>2017-01-05T09:10:10Z</time>
      </trkpt>
      <trkpt lat="45.08975" lon="6.74523">
        <ele>2085.56</ele>
        <time>2017-01-05T09:10:13Z</time>
      </trkpt>
      <trkpt lat="45.08964" lon="6.74529">
        <ele>2087.55</ele>
        <time>2017-01-05T09:10:16Z</time>
      </trkpt>
      <trkpt lat="45.08955" lon="6.74541">
        <ele>2091.69</ele>
        <time>2017-01-05T09:10:20Z</time>
      </trkpt>
      <trkpt lat="45.08953" lon="6.74565">
        <ele>2099.33</ele>
        <time>2017-01-05T09:10:29Z</time>
      </trkpt>
      <trkpt lat="45.08963" lon="6.7457">
        <ele>2098.94</ele>
        <time>2017-01-05T09:10:32Z</time>
      </trkpt>
      <trkpt lat="45.08974" lon="6.74578">
        <ele>2099.41</ele>
        <time>2017-01-05T09:10:36Z</time>
      </trkpt>
      <trkpt lat="45.08983" lon="6.74585">
        <ele>2100.94</ele>
        <time>2017-01-05T09:10:40Z</time>
      </trkpt>
      <trkpt lat="45.08997" lon="6.74604">
        <ele>2107.27</ele>
        <time>2017-01-05T09:10:48Z</time>
      </trkpt>
      <trkpt lat="45.09006" lon="6.74611">
        <ele>2110.06</ele>
        <time>2017-01-05T09:10:53Z</time>
      </trkpt>
      <trkpt lat="45.09027" lon="6.74614">
        <ele>2111.84</ele>
        <time>2017-01-05T09:11:03Z</time>
      </trkpt>
      <trkpt lat="45.09025" lon="6.74635">
        <ele>2119.23</ele>
        <time>2017-01-05T09:11:15Z</time>
      </trkpt>
      <trkpt lat="45.09015" lon="6.7464">
        <ele>2119.82</ele>
        <time>2017-01-05T09:11:21Z</time>
      </trkpt>
      <trkpt lat="45.08999" lon="6.74653">
        <ele>2122.08</ele>
        <time>2017-01-05T09:11:31Z</time>
      </trkpt>
      <trkpt lat="45.08994" lon="6.74665">
        <ele>2126.26</ele>
        <time>2017-01-05T09:11:34Z</time>
      </trkpt>
      <trkpt lat="45.08999" lon="6.74677">
        <ele>2128.8</ele>
        <time>2017-01-05T09:11:38Z</time>
      </trkpt>
      <trkpt lat="45.09009" lon="6.74685">
        <ele>2131.5</ele>
        <time>2017-01-05T09:11:41Z</time>
      </trkpt>
      <trkpt lat="45.09021" lon="6.74692">
        <ele>2134.49</ele>
        <time>2017-01-05T09:11:44Z</time>
      </trkpt>
      <trkpt lat="45.09033" lon="6.74697">
        <ele>2137.29</ele>
        <time>2017-01-05T09:11:47Z</time>
      </trkpt>
      <trkpt lat="45.09043" lon="6.74699">
        <ele>2138.87</ele>
        <time>2017-01-05T09:11:50Z</time>
      </trkpt>
      <trkpt lat="45.0906" lon="6.74714">
        <ele>2144.57</ele>
        <time>2017-01-05T09:11:56Z</time>
      </trkpt>
      <trkpt lat="45.09075" lon="6.74728">
        <ele>2148.48</ele>
        <time>2017-01-05T09:12:03Z</time>
      </trkpt>
      <trkpt lat="45.09085" lon="6.74732">
        <ele>2149.57</ele>
        <time>2017-01-05T09:12:07Z</time>
      </trkpt>
      <trkpt lat="45.09093" lon="6.74741">
        <ele>2151.68</ele>
        <time>2017-01-05T09:12:11Z</time>
      </trkpt>
      <trkpt lat="45.09102" lon="6.74749">
        <ele>2153.67</ele>
        <time>2017-01-05T09:12:15Z</time>
      </trkpt>
      <trkpt lat="45.09118" lon="6.74765">
        <ele>2159.55</ele>
        <time>2017-01-05T09:12:24Z</time>
      </trkpt>
      <trkpt lat="45.09128" lon="6.74769">
        <ele>2161.95</ele>
        <time>2017-01-05T09:12:32Z</time>
      </trkpt>
      <trkpt lat="45.09139" lon="6.74771">
        <ele>2163.66</ele>
        <time>2017-01-05T09:12:37Z</time>
      </trkpt>
      <trkpt lat="45.0915" lon="6.74777">
        <ele>2166.57</ele>
        <time>2017-01-05T09:12:41Z</time>
      </trkpt>
      <trkpt lat="45.09156" lon="6.74789">
        <ele>2170.33</ele>
        <time>2017-01-05T09:12:44Z</time>
      </trkpt>
      <trkpt lat="45.09159" lon="6.74806">
        <ele>2175.1</ele>
        <time>2017-01-05T09:12:49Z</time>
      </trkpt>
      <trkpt lat="45.09146" lon="6.74826">
        <ele>2179.44</ele>
        <time>2017-01-05T09:12:58Z</time>
      </trkpt>
      <trkpt lat="45.09138" lon="6.74836">
        <ele>2181.43</ele>
        <time>2017-01-05T09:13:04Z</time>
      </trkpt>
      <trkpt lat="45.09136" lon="6.74861">
        <ele>2186.05</ele>
        <time>2017-01-05T09:13:15Z</time>
      </trkpt>
      <trkpt lat="45.09141" lon="6.74874">
        <ele>2188.41</ele>
        <time>2017-01-05T09:13:21Z</time>
      </trkpt>
      <trkpt lat="45.09147" lon="6.74887">
        <ele>2191.36</ele>
        <time>2017-01-05T09:13:26Z</time>
      </trkpt>
      <trkpt lat="45.09153" lon="6.74898">
        <ele>2194.56</ele>
        <time>2017-01-05T09:13:31Z</time>
      </trkpt>
      <trkpt lat="45.09158" lon="6.74912">
        <ele>2197.72</ele>
        <time>2017-01-05T09:14:56Z</time>
      </trkpt>
      <trkpt lat="45.0916" lon="6.74926">
        <ele>2200.68</ele>
        <time>2017-01-05T09:15:04Z</time>
      </trkpt>
      <trkpt lat="45.09161" lon="6.7494">
        <ele>2203.74</ele>
        <time>2017-01-05T09:15:09Z</time>
      </trkpt>
      <trkpt lat="45.09166" lon="6.74966">
        <ele>2208.74</ele>
        <time>2017-01-05T09:15:15Z</time>
      </trkpt>
      <trkpt lat="45.09171" lon="6.74981">
        <ele>2211.59</ele>
        <time>2017-01-05T09:15:19Z</time>
      </trkpt>
      <trkpt lat="45.09176" lon="6.74994">
        <ele>2214.14</ele>
        <time>2017-01-05T09:15:23Z</time>
      </trkpt>
      <trkpt lat="45.09181" lon="6.7501">
        <ele>2218.15</ele>
        <time>2017-01-05T09:19:56Z</time>
      </trkpt>
      <trkpt lat="45.09184" lon="6.75038">
        <ele>2226.54</ele>
        <time>2017-01-05T09:20:05Z</time>
      </trkpt>
      <trkpt lat="45.0918" lon="6.75051">
        <ele>2230.3</ele>
        <time>2017-01-05T09:20:08Z</time>
      </trkpt>
      <trkpt lat="45.09172" lon="6.75061">
        <ele>2231.99</ele>
        <time>2017-01-05T09:20:12Z</time>
      </trkpt>
      <trkpt lat="45.09155" lon="6.75076">
        <ele>2233.78</ele>
        <time>2017-01-05T09:20:23Z</time>
      </trkpt>
      <trkpt lat="45.09147" lon="6.75085">
        <ele>2235.23</ele>
        <time>2017-01-05T09:20:28Z</time>
      </trkpt>
      <trkpt lat="45.09131" lon="6.75102">
        <ele>2239.58</ele>
        <time>2017-01-05T09:20:38Z</time>
      </trkpt>
      <trkpt lat="45.09123" lon="6.75112">
        <ele>2242.46</ele>
        <time>2017-01-05T09:20:41Z</time>
      </trkpt>
      <trkpt lat="45.09116" lon="6.75123">
        <ele>2246.22</ele>
        <time>2017-01-05T09:20:44Z</time>
      </trkpt>
      <trkpt lat="45.09109" lon="6.75136">
        <ele>2250.65</ele>
        <time>2017-01-05T09:20:47Z</time>
      </trkpt>
      <trkpt lat="45.09103" lon="6.75149">
        <ele>2254.96</ele>
        <time>2017-01-05T09:20:50Z</time>
      </trkpt>
      <trkpt lat="45.09087" lon="6.75164">
        <ele>2257.88</ele>
        <time>2017-01-05T09:20:54Z</time>
      </trkpt>
      <trkpt lat="45.09078" lon="6.75176">
        <ele>2261.24</ele>
        <time>2017-01-05T09:21:03Z</time>
      </trkpt>
      <trkpt lat="45.09059" lon="6.75177">
        <ele>2262.75</ele>
        <time>2017-01-05T09:21:23Z</time>
      </trkpt>
      <trkpt lat="45.09049" lon="6.75175">
        <ele>2263.73</ele>
        <time>2017-01-05T09:21:30Z</time>
      </trkpt>
      <trkpt lat="45.09037" lon="6.75169">
        <ele>2264.76</ele>
        <time>2017-01-05T09:21:33Z</time>
      </trkpt>
      <trkpt lat="45.09027" lon="6.75166">
        <ele>2266.16</ele>
        <time>2017-01-05T09:21:35Z</time>
      </trkpt>
      <trkpt lat="45.09014" lon="6.75161">
        <ele>2268.03</ele>
        <time>2017-01-05T09:21:38Z</time>
      </trkpt>
      <trkpt lat="45.09005" lon="6.75158">
        <ele>2269.37</ele>
        <time>2017-01-05T09:21:41Z</time>
      </trkpt>
      <trkpt lat="45.08994" lon="6.75159">
        <ele>2270.57</ele>
        <time>2017-01-05T09:21:44Z</time>
      </trkpt>
      <trkpt lat="45.08983" lon="6.75159">
        <ele>2270.76</ele>
        <time>2017-01-05T09:21:47Z</time>
      </trkpt>
      <trkpt lat="45.08966" lon="6.7517">
        <ele>2273.53</ele>
        <time>2017-01-05T09:21:53Z</time>
      </trkpt>
      <trkpt lat="45.08954" lon="6.75191">
        <ele>2279.03</ele>
        <time>2017-01-05T09:22:00Z</time>
      </trkpt>
      <trkpt lat="45.08959" lon="6.75205">
        <ele>2282.73</ele>
        <time>2017-01-05T09:22:04Z</time>
      </trkpt>
      <trkpt lat="45.08978" lon="6.75215">
        <ele>2285.18</ele>
        <time>2017-01-05T09:22:11Z</time>
      </trkpt>
      <trkpt lat="45.08984" lon="6.75227">
        <ele>2288.04</ele>
        <time>2017-01-05T09:22:15Z</time>
      </trkpt>
      <trkpt lat="45.08988" lon="6.75241">
        <ele>2291.11</ele>
        <time>2017-01-05T09:22:19Z</time>
      </trkpt>
      <trkpt lat="45.08992" lon="6.75255">
        <ele>2294.02</ele>
        <time>2017-01-05T09:22:22Z</time>
      </trkpt>
      <trkpt lat="45.08999" lon="6.75269">
        <ele>2296.92</ele>
        <time>2017-01-05T09:22:25Z</time>
      </trkpt>
      <trkpt lat="45.09006" lon="6.75283">
        <ele>2299.45</ele>
        <time>2017-01-05T09:22:28Z</time>
      </trkpt>
      <trkpt lat="45.09015" lon="6.75295">
        <ele>2301.5</ele>
        <time>2017-01-05T09:22:31Z</time>
      </trkpt>
      <trkpt lat="45.09024" lon="6.75307">
        <ele>2304.44</ele>
        <time>2017-01-05T09:22:34Z</time>
      </trkpt>
      <trkpt lat="45.0903" lon="6.75323">
        <ele>2309.63</ele>
        <time>2017-01-05T09:22:38Z</time>
      </trkpt>
      <trkpt lat="45.09024" lon="6.75335">
        <ele>2313.36</ele>
        <time>2017-01-05T09:22:41Z</time>
      </trkpt>
      <trkpt lat="45.09013" lon="6.75339">
        <ele>2314.53</ele>
        <time>2017-01-05T09:22:44Z</time>
      </trkpt>
      <trkpt lat="45.09004" lon="6.75343">
        <ele>2315.98</ele>
        <time>2017-01-05T09:22:47Z</time>
      </trkpt>
      <trkpt lat="45.08986" lon="6.75352">
        <ele>2316.88</ele>
        <time>2017-01-05T09:22:52Z</time>
      </trkpt>
      <trkpt lat="45.08975" lon="6.75356">
        <ele>2316.23</ele>
        <time>2017-01-05T09:22:55Z</time>
      </trkpt>
      <trkpt lat="45.08964" lon="6.75365">
        <ele>2318.28</ele>
        <time>2017-01-05T09:22:58Z</time>
      </trkpt>
      <trkpt lat="45.08943" lon="6.75376">
        <ele>2321.25</ele>
        <time>2017-01-05T09:23:04Z</time>
      </trkpt>
      <trkpt lat="45.0893" lon="6.75381">
        <ele>2322.11</ele>
        <time>2017-01-05T09:23:07Z</time>
      </trkpt>
      <trkpt lat="45.08917" lon="6.75384">
        <ele>2322.5</ele>
        <time>2017-01-05T09:23:10Z</time>
      </trkpt>
      <trkpt lat="45.08907" lon="6.75391">
        <ele>2324.96</ele>
        <time>2017-01-05T09:23:13Z</time>
      </trkpt>
      <trkpt lat="45.08896" lon="6.75394">
        <ele>2326.77</ele>
        <time>2017-01-05T09:23:16Z</time>
      </trkpt>
      <trkpt lat="45.08886" lon="6.7539">
        <ele>2325.86</ele>
        <time>2017-01-05T09:23:19Z</time>
      </trkpt>
      <trkpt lat="45.08874" lon="6.75384">
        <ele>2326.96</ele>
        <time>2017-01-05T09:23:22Z</time>
      </trkpt>
      <trkpt lat="45.08863" lon="6.75385">
        <ele>2329.41</ele>
        <time>2017-01-05T09:23:25Z</time>
      </trkpt>
      <trkpt lat="45.08849" lon="6.7538">
        <ele>2329.84</ele>
        <time>2017-01-05T09:23:27Z</time>
      </trkpt>
      <trkpt lat="45.08828" lon="6.7539">
        <ele>2335.18</ele>
        <time>2017-01-05T09:23:32Z</time>
      </trkpt>
      <trkpt lat="45.08818" lon="6.75399">
        <ele>2337.91</ele>
        <time>2017-01-05T09:23:35Z</time>
      </trkpt>
      <trkpt lat="45.08809" lon="6.75407">
        <ele>2340.27</ele>
        <time>2017-01-05T09:23:38Z</time>
      </trkpt>
      <trkpt lat="45.08797" lon="6.75413">
        <ele>2341.49</ele>
        <time>2017-01-05T09:23:41Z</time>
      </trkpt>
      <trkpt lat="45.08785" lon="6.7542">
        <ele>2342.28</ele>
        <time>2017-01-05T09:23:44Z</time>
      </trkpt>
      <trkpt lat="45.08772" lon="6.75427">
        <ele>2343.7</ele>
        <time>2017-01-05T09:23:47Z</time>
      </trkpt>
      <trkpt lat="45.08762" lon="6.75431">
        <ele>2344.83</ele>
        <time>2017-01-05T09:23:50Z</time>
      </trkpt>
      <trkpt lat="45.08748" lon="6.75444">
        <ele>2349.42</ele>
        <time>2017-01-05T09:24:00Z</time>
      </trkpt>
      <trkpt lat="45.08758" lon="6.75447">
        <ele>2349.45</ele>
        <time>2017-01-05T09:24:04Z</time>
      </trkpt>
      <trkpt lat="45.08768" lon="6.75447">
        <ele>2349.13</ele>
        <time>2017-01-05T09:24:07Z</time>
      </trkpt>
      <trkpt lat="45.08788" lon="6.75447">
        <ele>2349.73</ele>
        <time>2017-01-05T09:24:13Z</time>
      </trkpt>
      <trkpt lat="45.08799" lon="6.75451">
        <ele>2351.66</ele>
        <time>2017-01-05T09:24:18Z</time>
      </trkpt>
      <trkpt lat="45.08809" lon="6.75453">
        <ele>2352.73</ele>
        <time>2017-01-05T09:24:22Z</time>
      </trkpt>
      <trkpt lat="45.08817" lon="6.75462">
        <ele>2354.85</ele>
        <time>2017-01-05T09:24:27Z</time>
      </trkpt>
      <trkpt lat="45.08822" lon="6.75476">
        <ele>2358.42</ele>
        <time>2017-01-05T09:24:32Z</time>
      </trkpt>
      <trkpt lat="45.08825" lon="6.7549">
        <ele>2363.06</ele>
        <time>2017-01-05T09:24:37Z</time>
      </trkpt>
      <trkpt lat="45.08839" lon="6.75504">
        <ele>2365.11</ele>
        <time>2017-01-05T09:24:55Z</time>
      </trkpt>
      <trkpt lat="45.08855" lon="6.75519">
        <ele>2364.74</ele>
        <time>2017-01-05T09:25:01Z</time>
      </trkpt>
      <trkpt lat="45.08859" lon="6.75534">
        <ele>2367.98</ele>
        <time>2017-01-05T09:25:04Z</time>
      </trkpt>
      <trkpt lat="45.08863" lon="6.7555">
        <ele>2372.6</ele>
        <time>2017-01-05T09:25:08Z</time>
      </trkpt>
      <trkpt lat="45.08865" lon="6.75576">
        <ele>2379.5</ele>
        <time>2017-01-05T09:25:16Z</time>
      </trkpt>
      <trkpt lat="45.08865" lon="6.75591">
        <ele>2383.26</ele>
        <time>2017-01-05T09:25:20Z</time>
      </trkpt>
      <trkpt lat="45.08868" lon="6.75606">
        <ele>2387.28</ele>
        <time>2017-01-05T09:25:24Z</time>
      </trkpt>
      <trkpt lat="45.08875" lon="6.75616">
        <ele>2390.55</ele>
        <time>2017-01-05T09:25:28Z</time>
      </trkpt>
      <trkpt lat="45.08885" lon="6.75617">
        <ele>2392.08</ele>
        <time>2017-01-05T09:25:32Z</time>
      </trkpt>
      <trkpt lat="45.08904" lon="6.75623">
        <ele>2395.9</ele>
        <time>2017-01-05T09:25:46Z</time>
      </trkpt>
      <trkpt lat="45.08916" lon="6.75623">
        <ele>2397.4</ele>
        <time>2017-01-05T09:25:49Z</time>
      </trkpt>
      <trkpt lat="45.08926" lon="6.75629">
        <ele>2399.1</ele>
        <time>2017-01-05T09:25:52Z</time>
      </trkpt>
      <trkpt lat="45.08944" lon="6.75637">
        <ele>2401.59</ele>
        <time>2017-01-05T09:25:58Z</time>
      </trkpt>
      <trkpt lat="45.08963" lon="6.75629">
        <ele>2398.1</ele>
        <time>2017-01-05T09:26:05Z</time>
      </trkpt>
      <trkpt lat="45.08974" lon="6.75633">
        <ele>2398.02</ele>
        <time>2017-01-05T09:26:09Z</time>
      </trkpt>
      <trkpt lat="45.08988" lon="6.75651">
        <ele>2402.89</ele>
        <time>2017-01-05T09:26:18Z</time>
      </trkpt>
      <trkpt lat="45.08973" lon="6.75669">
        <ele>2407.66</ele>
        <time>2017-01-05T09:26:26Z</time>
      </trkpt>
      <trkpt lat="45.08971" lon="6.75696">
        <ele>2414.65</ele>
        <time>2017-01-05T09:26:37Z</time>
      </trkpt>
      <trkpt lat="45.08974" lon="6.75722">
        <ele>2421.87</ele>
        <time>2017-01-05T09:26:45Z</time>
      </trkpt>
      <trkpt lat="45.08969" lon="6.75736">
        <ele>2426.34</ele>
        <time>2017-01-05T09:26:51Z</time>
      </trkpt>
      <trkpt lat="45.08964" lon="6.75762">
        <ele>2432.26</ele>
        <time>2017-01-05T09:26:58Z</time>
      </trkpt>
      <trkpt lat="45.08962" lon="6.75779">
        <ele>2434.46</ele>
        <time>2017-01-05T09:27:01Z</time>
      </trkpt>
      <trkpt lat="45.08961" lon="6.75797">
        <ele>2435.79</ele>
        <time>2017-01-05T09:27:04Z</time>
      </trkpt>
      <trkpt lat="45.08956" lon="6.75813">
        <ele>2437.44</ele>
        <time>2017-01-05T09:27:07Z</time>
      </trkpt>
      <trkpt lat="45.08952" lon="6.75828">
        <ele>2439.32</ele>
        <time>2017-01-05T09:27:10Z</time>
      </trkpt>
      <trkpt lat="45.08949" lon="6.75844">
        <ele>2442.09</ele>
        <time>2017-01-05T09:27:13Z</time>
      </trkpt>
      <trkpt lat="45.0895" lon="6.75872">
        <ele>2448.4</ele>
        <time>2017-01-05T09:27:20Z</time>
      </trkpt>
      <trkpt lat="45.08952" lon="6.75898">
        <ele>2454.32</ele>
        <time>2017-01-05T09:27:29Z</time>
      </trkpt>
      <trkpt lat="45.08946" lon="6.75925">
        <ele>2460.15</ele>
        <time>2017-01-05T09:27:35Z</time>
      </trkpt>
      <trkpt lat="45.08943" lon="6.75941">
        <ele>2462.45</ele>
        <time>2017-01-05T09:27:39Z</time>
      </trkpt>
      <trkpt lat="45.0894" lon="6.75955">
        <ele>2465.45</ele>
        <time>2017-01-05T09:27:42Z</time>
      </trkpt>
      <trkpt lat="45.08926" lon="6.7597">
        <ele>2471.79</ele>
        <time>2017-01-05T09:27:49Z</time>
      </trkpt>
      <trkpt lat="45.08917" lon="6.75957">
        <ele>2474.17</ele>
        <time>2017-01-05T09:27:52Z</time>
      </trkpt>
      <trkpt lat="45.08903" lon="6.75937">
        <ele>2477.23</ele>
        <time>2017-01-05T09:27:56Z</time>
      </trkpt>
      <trkpt lat="45.08891" lon="6.75917">
        <ele>2475.78</ele>
        <time>2017-01-05T09:28:00Z</time>
      </trkpt>
      <trkpt lat="45.08877" lon="6.75903">
        <ele>2469.48</ele>
        <time>2017-01-05T09:28:03Z</time>
      </trkpt>
      <trkpt lat="45.08867" lon="6.759">
        <ele>2468.91</ele>
        <time>2017-01-05T09:28:06Z</time>
      </trkpt>
      <trkpt lat="45.08857" lon="6.75899">
        <ele>2469.49</ele>
        <time>2017-01-05T09:28:09Z</time>
      </trkpt>
      <trkpt lat="45.08847" lon="6.75902">
        <ele>2471.19</ele>
        <time>2017-01-05T09:28:12Z</time>
      </trkpt>
      <trkpt lat="45.0884" lon="6.75912">
        <ele>2474.67</ele>
        <time>2017-01-05T09:28:17Z</time>
      </trkpt>
      <trkpt lat="45.08847" lon="6.75922">
        <ele>2477.22</ele>
        <time>2017-01-05T09:28:22Z</time>
      </trkpt>
      <trkpt lat="45.08856" lon="6.75928">
        <ele>2478.83</ele>
        <time>2017-01-05T09:28:27Z</time>
      </trkpt>
      <trkpt lat="45.08866" lon="6.75949">
        <ele>2484.06</ele>
        <time>2017-01-05T09:28:33Z</time>
      </trkpt>
      <trkpt lat="45.08861" lon="6.75975">
        <ele>2490.8</ele>
        <time>2017-01-05T09:28:41Z</time>
      </trkpt>
      <trkpt lat="45.08856" lon="6.75988">
        <ele>2494.18</ele>
        <time>2017-01-05T09:28:47Z</time>
      </trkpt>
      <trkpt lat="45.0885" lon="6.76013">
        <ele>2500.89</ele>
        <time>2017-01-05T09:28:56Z</time>
      </trkpt>
      <trkpt lat="45.08852" lon="6.7603">
        <ele>2504.35</ele>
        <time>2017-01-05T09:28:59Z</time>
      </trkpt>
      <trkpt lat="45.08855" lon="6.76046">
        <ele>2506.82</ele>
        <time>2017-01-05T09:29:03Z</time>
      </trkpt>
      <trkpt lat="45.08855" lon="6.7606">
        <ele>2509.04</ele>
        <time>2017-01-05T09:29:06Z</time>
      </trkpt>
      <trkpt lat="45.08855" lon="6.76075">
        <ele>2511.41</ele>
        <time>2017-01-05T09:29:09Z</time>
      </trkpt>
      <trkpt lat="45.08852" lon="6.76105">
        <ele>2515.61</ele>
        <time>2017-01-05T09:29:16Z</time>
      </trkpt>
      <trkpt lat="45.08846" lon="6.76121">
        <ele>2518.06</ele>
        <time>2017-01-05T09:29:19Z</time>
      </trkpt>
      <trkpt lat="45.08838" lon="6.76136">
        <ele>2520.53</ele>
        <time>2017-01-05T09:29:22Z</time>
      </trkpt>
      <trkpt lat="45.08826" lon="6.76125">
        <ele>2521.29</ele>
        <time>2017-01-05T09:29:40Z</time>
      </trkpt>
      <trkpt lat="45.08817" lon="6.76116">
        <ele>2522.96</ele>
        <time>2017-01-05T09:29:43Z</time>
      </trkpt>
      <trkpt lat="45.08807" lon="6.76108">
        <ele>2525.45</ele>
        <time>2017-01-05T09:29:46Z</time>
      </trkpt>
      <trkpt lat="45.08795" lon="6.76103">
        <ele>2527.41</ele>
        <time>2017-01-05T09:29:49Z</time>
      </trkpt>
      <trkpt lat="45.08783" lon="6.761">
        <ele>2529.17</ele>
        <time>2017-01-05T09:29:52Z</time>
      </trkpt>
      <trkpt lat="45.08771" lon="6.76098">
        <ele>2530.29</ele>
        <time>2017-01-05T09:29:55Z</time>
      </trkpt>
      <trkpt lat="45.0876" lon="6.76097">
        <ele>2531.38</ele>
        <time>2017-01-05T09:29:58Z</time>
      </trkpt>
      <trkpt lat="45.08747" lon="6.76099">
        <ele>2533.19</ele>
        <time>2017-01-05T09:30:01Z</time>
      </trkpt>
      <trkpt lat="45.08737" lon="6.76104">
        <ele>2535.27</ele>
        <time>2017-01-05T09:30:06Z</time>
      </trkpt>
      <trkpt lat="45.08727" lon="6.76111">
        <ele>2537.55</ele>
        <time>2017-01-05T09:30:11Z</time>
      </trkpt>
      <trkpt lat="45.08719" lon="6.76118">
        <ele>2539.99</ele>
        <time>2017-01-05T09:30:15Z</time>
      </trkpt>
      <trkpt lat="45.08709" lon="6.76123">
        <ele>2541.77</ele>
        <time>2017-01-05T09:30:21Z</time>
      </trkpt>
      <trkpt lat="45.08699" lon="6.76128">
        <ele>2543.45</ele>
        <time>2017-01-05T09:30:28Z</time>
      </trkpt>
      <trkpt lat="45.08689" lon="6.76133">
        <ele>2545.18</ele>
        <time>2017-01-05T09:30:36Z</time>
      </trkpt>
      <trkpt lat="45.08691" lon="6.76157">
        <ele>2552.1</ele>
        <time>2017-01-05T09:30:49Z</time>
      </trkpt>
      <trkpt lat="45.08697" lon="6.76169">
        <ele>2555.44</ele>
        <time>2017-01-05T09:30:53Z</time>
      </trkpt>
      <trkpt lat="45.08702" lon="6.76184">
        <ele>2559.28</ele>
        <time>2017-01-05T09:30:57Z</time>
      </trkpt>
      <trkpt lat="45.08711" lon="6.76194">
        <ele>2561.79</ele>
        <time>2017-01-05T09:31:01Z</time>
      </trkpt>
      <trkpt lat="45.08731" lon="6.762">
        <ele>2561.2</ele>
        <time>2017-01-05T09:31:11Z</time>
      </trkpt>
      <trkpt lat="45.08736" lon="6.76215">
        <ele>2563.83</ele>
        <time>2017-01-05T09:31:15Z</time>
      </trkpt>
      <trkpt lat="45.08741" lon="6.76228">
        <ele>2566.29</ele>
        <time>2017-01-05T09:31:19Z</time>
      </trkpt>
      <trkpt lat="45.08752" lon="6.76251">
        <ele>2571.96</ele>
        <time>2017-01-05T09:31:30Z</time>
      </trkpt>
      <trkpt lat="45.08756" lon="6.76265">
        <ele>2576.26</ele>
        <time>2017-01-05T09:31:35Z</time>
      </trkpt>
      <trkpt lat="45.08758" lon="6.76292">
        <ele>2586.01</ele>
        <time>2017-01-05T09:31:45Z</time>
      </trkpt>
      <trkpt lat="45.08763" lon="6.76306">
        <ele>2590.67</ele>
        <time>2017-01-05T09:31:51Z</time>
      </trkpt>
      <trkpt lat="45.08777" lon="6.76324">
        <ele>2595.39</ele>
        <time>2017-01-05T09:32:01Z</time>
      </trkpt>
      <trkpt lat="45.08789" lon="6.76344">
        <ele>2599.72</ele>
        <time>2017-01-05T09:32:12Z</time>
      </trkpt>
      <trkpt lat="45.08802" lon="6.76365">
        <ele>2604.16</ele>
        <time>2017-01-05T09:32:18Z</time>
      </trkpt>
      <trkpt lat="45.08811" lon="6.76378">
        <ele>2605.53</ele>
        <time>2017-01-05T09:32:21Z</time>
      </trkpt>
      <trkpt lat="45.08822" lon="6.76388">
        <ele>2605.36</ele>
        <time>2017-01-05T09:32:24Z</time>
      </trkpt>
      <trkpt lat="45.08831" lon="6.76399">
        <ele>2607.22</ele>
        <time>2017-01-05T09:32:27Z</time>
      </trkpt>
      <trkpt lat="45.08845" lon="6.76417">
        <ele>2614.74</ele>
        <time>2017-01-05T09:32:34Z</time>
      </trkpt>
      <trkpt lat="45.08856" lon="6.76439">
        <ele>2624.15</ele>
        <time>2017-01-05T09:32:47Z</time>
      </trkpt>
      <trkpt lat="45.08864" lon="6.76446">
        <ele>2626.29</ele>
        <time>2017-01-05T09:32:55Z</time>
      </trkpt>
      <trkpt lat="45.08872" lon="6.76457">
        <ele>2628.66</ele>
        <time>2017-01-05T09:33:05Z</time>
      </trkpt>
      <trkpt lat="45.08871" lon="6.76481">
        <ele>2634.74</ele>
        <time>2017-01-05T09:33:18Z</time>
      </trkpt>
      <trkpt lat="45.08853" lon="6.76474">
        <ele>2635.95</ele>
        <time>2017-01-05T09:33:31Z</time>
      </trkpt>
      <trkpt lat="45.08843" lon="6.76477">
        <ele>2638.37</ele>
        <time>2017-01-05T09:33:40Z</time>
      </trkpt>
      <trkpt lat="45.08844" lon="6.76492">
        <ele>2642.25</ele>
        <time>2017-01-05T09:33:45Z</time>
      </trkpt>
      <trkpt lat="45.08827" lon="6.76502">
        <ele>2648.24</ele>
        <time>2017-01-05T09:33:56Z</time>
      </trkpt>
      <trkpt lat="45.08817" lon="6.76502">
        <ele>2649.51</ele>
        <time>2017-01-05T09:34:01Z</time>
      </trkpt>
      <trkpt lat="45.088" lon="6.76515">
        <ele>2654.46</ele>
        <time>2017-01-05T09:34:13Z</time>
      </trkpt>
      <trkpt lat="45.0879" lon="6.76518">
        <ele>2655.19</ele>
        <time>2017-01-05T09:34:17Z</time>
      </trkpt>
      <trkpt lat="45.08774" lon="6.76536">
        <ele>2661.46</ele>
        <time>2017-01-05T09:34:25Z</time>
      </trkpt>
      <trkpt lat="45.08766" lon="6.76561">
        <ele>2671.25</ele>
        <time>2017-01-05T09:34:34Z</time>
      </trkpt>
      <trkpt lat="45.0877" lon="6.76587">
        <ele>2678.81</ele>
        <time>2017-01-05T09:36:56Z</time>
      </trkpt>
      <trkpt lat="45.08765" lon="6.76589">
        <ele>2680.17</ele>
        <time>2017-01-05T09:37:15Z</time>
      </trkpt>
      <trkpt lat="45.08771" lon="6.76616">
        <ele>2686.81</ele>
        <time>2017-01-05T09:37:22Z</time>
      </trkpt>
      <trkpt lat="45.08779" lon="6.76627">
        <ele>2687.78</ele>
        <time>2017-01-05T09:37:27Z</time>
      </trkpt>
      <trkpt lat="45.08793" lon="6.76644">
        <ele>2690.15</ele>
        <time>2017-01-05T09:37:35Z</time>
      </trkpt>
      <trkpt lat="45.0879" lon="6.7666">
        <ele>2694.5</ele>
        <time>2017-01-05T09:37:38Z</time>
      </trkpt>
      <trkpt lat="45.08778" lon="6.76666">
        <ele>2698.81</ele>
        <time>2017-01-05T09:37:41Z</time>
      </trkpt>
      <trkpt lat="45.08759" lon="6.76672">
        <ele>2702.12</ele>
        <time>2017-01-05T09:37:45Z</time>
      </trkpt>
      <trkpt lat="45.08747" lon="6.76674">
        <ele>2704.05</ele>
        <time>2017-01-05T09:37:48Z</time>
      </trkpt>
      <trkpt lat="45.08735" lon="6.76677">
        <ele>2706.86</ele>
        <time>2017-01-05T09:37:51Z</time>
      </trkpt>
      <trkpt lat="45.08725" lon="6.76681">
        <ele>2709.59</ele>
        <time>2017-01-05T09:37:53Z</time>
      </trkpt>
      <trkpt lat="45.08715" lon="6.76683">
        <ele>2711.34</ele>
        <time>2017-01-05T09:37:55Z</time>
      </trkpt>
      <trkpt lat="45.08703" lon="6.76685">
        <ele>2712.8</ele>
        <time>2017-01-05T09:38:43Z</time>
      </trkpt>
      <trkpt lat="45.08694" lon="6.76693">
        <ele>2715.69</ele>
        <time>2017-01-05T09:38:48Z</time>
      </trkpt>
      <trkpt lat="45.08673" lon="6.76703">
        <ele>2718.47</ele>
        <time>2017-01-05T09:38:54Z</time>
      </trkpt>
      <trkpt lat="45.08662" lon="6.76708">
        <ele>2720.75</ele>
        <time>2017-01-05T09:38:57Z</time>
      </trkpt>
      <trkpt lat="45.08651" lon="6.76712">
        <ele>2722.96</ele>
        <time>2017-01-05T09:39:00Z</time>
      </trkpt>
      <trkpt lat="45.08641" lon="6.76719">
        <ele>2725.78</ele>
        <time>2017-01-05T09:39:19Z</time>
      </trkpt>
      <trkpt lat="45.08651" lon="6.7674">
        <ele>2731.95</ele>
        <time>2017-01-05T09:39:26Z</time>
      </trkpt>
      <trkpt lat="45.08658" lon="6.76752">
        <ele>2734.79</ele>
        <time>2017-01-05T09:39:29Z</time>
      </trkpt>
      <trkpt lat="45.08664" lon="6.76767">
        <ele>2737.91</ele>
        <time>2017-01-05T09:39:31Z</time>
      </trkpt>
      <trkpt lat="45.08672" lon="6.76779">
        <ele>2740.47</ele>
        <time>2017-01-05T09:39:34Z</time>
      </trkpt>
      <trkpt lat="45.08683" lon="6.76781">
        <ele>2741.02</ele>
        <time>2017-01-05T09:39:37Z</time>
      </trkpt>
      <trkpt lat="45.08694" lon="6.76783">
        <ele>2741.4</ele>
        <time>2017-01-05T09:39:40Z</time>
      </trkpt>
      <trkpt lat="45.08706" lon="6.76788">
        <ele>2742.81</ele>
        <time>2017-01-05T09:39:43Z</time>
      </trkpt>
      <trkpt lat="45.08722" lon="6.76792">
        <ele>2744.6</ele>
        <time>2017-01-05T09:39:46Z</time>
      </trkpt>
      <trkpt lat="45.08734" lon="6.76789">
        <ele>2743.95</ele>
        <time>2017-01-05T09:39:49Z</time>
      </trkpt>
      <trkpt lat="45.08745" lon="6.76793">
        <ele>2745.53</ele>
        <time>2017-01-05T09:39:52Z</time>
      </trkpt>
      <trkpt lat="45.08753" lon="6.76806">
        <ele>2749.56</ele>
        <time>2017-01-05T09:39:55Z</time>
      </trkpt>
      <trkpt lat="45.0876" lon="6.76817">
        <ele>2751.74</ele>
        <time>2017-01-05T09:39:58Z</time>
      </trkpt>
      <trkpt lat="45.08768" lon="6.76827">
        <ele>2753.3</ele>
        <time>2017-01-05T09:40:01Z</time>
      </trkpt>
      <trkpt lat="45.08765" lon="6.76846">
        <ele>2758.56</ele>
        <time>2017-01-05T09:40:16Z</time>
      </trkpt>
      <trkpt lat="45.08747" lon="6.76853">
        <ele>2762.24</ele>
        <time>2017-01-05T09:40:24Z</time>
      </trkpt>
      <trkpt lat="45.08737" lon="6.76859">
        <ele>2763.55</ele>
        <time>2017-01-05T09:40:27Z</time>
      </trkpt>
      <trkpt lat="45.08725" lon="6.76856">
        <ele>2762.78</ele>
        <time>2017-01-05T09:40:30Z</time>
      </trkpt>
      <trkpt lat="45.08713" lon="6.76854">
        <ele>2763.13</ele>
        <time>2017-01-05T09:40:33Z</time>
      </trkpt>
      <trkpt lat="45.08701" lon="6.76852">
        <ele>2763.58</ele>
        <time>2017-01-05T09:40:36Z</time>
      </trkpt>
      <trkpt lat="45.08689" lon="6.76854">
        <ele>2764.92</ele>
        <time>2017-01-05T09:40:39Z</time>
      </trkpt>
      <trkpt lat="45.08678" lon="6.76857">
        <ele>2766.72</ele>
        <time>2017-01-05T09:40:42Z</time>
      </trkpt>
      <trkpt lat="45.08679" lon="6.76875">
        <ele>2771.61</ele>
        <time>2017-01-05T09:40:51Z</time>
      </trkpt>
      <trkpt lat="45.08697" lon="6.76887">
        <ele>2774.11</ele>
        <time>2017-01-05T09:41:00Z</time>
      </trkpt>
      <trkpt lat="45.08714" lon="6.769">
        <ele>2775.62</ele>
        <time>2017-01-05T09:41:07Z</time>
      </trkpt>
      <trkpt lat="45.08724" lon="6.7691">
        <ele>2777.28</ele>
        <time>2017-01-05T09:41:10Z</time>
      </trkpt>
      <trkpt lat="45.08733" lon="6.76917">
        <ele>2777.76</ele>
        <time>2017-01-05T09:41:13Z</time>
      </trkpt>
      <trkpt lat="45.08744" lon="6.7692">
        <ele>2776.53</ele>
        <time>2017-01-05T09:41:23Z</time>
      </trkpt>
      <trkpt lat="45.08725" lon="6.76925">
        <ele>2778.12</ele>
        <time>2017-01-05T09:41:30Z</time>
      </trkpt>
      <trkpt lat="45.08706" lon="6.76922">
        <ele>2777.89</ele>
        <time>2017-01-05T09:41:36Z</time>
      </trkpt>
      <trkpt lat="45.08694" lon="6.76921">
        <ele>2777.45</ele>
        <time>2017-01-05T09:41:40Z</time>
      </trkpt>
      <trkpt lat="45.08681" lon="6.76923">
        <ele>2776.85</ele>
        <time>2017-01-05T09:46:04Z</time>
      </trkpt>
      <trkpt lat="45.0867" lon="6.7692">
        <ele>2776.81</ele>
        <time>2017-01-05T09:46:08Z</time>
      </trkpt>
      <trkpt lat="45.08651" lon="6.76917">
        <ele>2776.42</ele>
        <time>2017-01-05T09:46:16Z</time>
      </trkpt>
      <trkpt lat="45.0864" lon="6.76922">
        <ele>2775.68</ele>
        <time>2017-01-05T09:46:21Z</time>
      </trkpt>
      <trkpt lat="45.0863" lon="6.76926">
        <ele>2775.04</ele>
        <time>2017-01-05T09:46:25Z</time>
      </trkpt>
      <trkpt lat="45.08611" lon="6.76933">
        <ele>2773.1</ele>
        <time>2017-01-05T09:46:31Z</time>
      </trkpt>
      <trkpt lat="45.0859" lon="6.76939">
        <ele>2773.98</ele>
        <time>2017-01-05T09:46:38Z</time>
      </trkpt>
      <trkpt lat="45.08575" lon="6.76924">
        <ele>2779.71</ele>
        <time>2017-01-05T09:46:44Z</time>
      </trkpt>
      <trkpt lat="45.08565" lon="6.76917">
        <ele>2781.95</ele>
        <time>2017-01-05T09:46:47Z</time>
      </trkpt>
      <trkpt lat="45.08546" lon="6.76906">
        <ele>2783.37</ele>
        <time>2017-01-05T09:46:53Z</time>
      </trkpt>
      <trkpt lat="45.08533" lon="6.76902">
        <ele>2782.58</ele>
        <time>2017-01-05T09:48:15Z</time>
      </trkpt>
      <trkpt lat="45.08457" lon="6.76827">
        <ele>2795.57</ele>
        <time>2017-01-05T09:59:27Z</time>
      </trkpt>
      <trkpt lat="45.08525" lon="6.76902">
        <ele>2781.52</ele>
        <time>2017-01-05T10:19:24Z</time>
      </trkpt>
      <trkpt lat="45.08505" lon="6.76897">
        <ele>2782.06</ele>
        <time>2017-01-05T10:19:30Z</time>
      </trkpt>
      <trkpt lat="45.08494" lon="6.76896">
        <ele>2781.03</ele>
        <time>2017-01-05T10:19:32Z</time>
      </trkpt>
      <trkpt lat="45.08482" lon="6.76895">
        <ele>2779.56</ele>
        <time>2017-01-05T10:19:35Z</time>
      </trkpt>
      <trkpt lat="45.08472" lon="6.76893">
        <ele>2778.67</ele>
        <time>2017-01-05T10:19:38Z</time>
      </trkpt>
      <trkpt lat="45.08453" lon="6.76889">
        <ele>2778.01</ele>
        <time>2017-01-05T10:19:42Z</time>
      </trkpt>
      <trkpt lat="45.0844" lon="6.7689">
        <ele>2776.49</ele>
        <time>2017-01-05T10:19:45Z</time>
      </trkpt>
      <trkpt lat="45.08429" lon="6.76889">
        <ele>2775.76</ele>
        <time>2017-01-05T10:19:48Z</time>
      </trkpt>
      <trkpt lat="45.08418" lon="6.76886">
        <ele>2775.98</ele>
        <time>2017-01-05T10:19:51Z</time>
      </trkpt>
      <trkpt lat="45.08406" lon="6.76883">
        <ele>2775.93</ele>
        <time>2017-01-05T10:19:54Z</time>
      </trkpt>
      <trkpt lat="45.08395" lon="6.76878">
        <ele>2776.76</ele>
        <time>2017-01-05T10:19:58Z</time>
      </trkpt>
      <trkpt lat="45.08386" lon="6.7688">
        <ele>2774.61</ele>
        <time>2017-01-05T10:20:01Z</time>
      </trkpt>
      <trkpt lat="45.08375" lon="6.76877">
        <ele>2774.43</ele>
        <time>2017-01-05T10:20:04Z</time>
      </trkpt>
      <trkpt lat="45.08351" lon="6.7687">
        <ele>2774.37</ele>
        <time>2017-01-05T10:20:08Z</time>
      </trkpt>
      <trkpt lat="45.08342" lon="6.76863">
        <ele>2775.51</ele>
        <time>2017-01-05T10:20:10Z</time>
      </trkpt>
      <trkpt lat="45.08332" lon="6.76857">
        <ele>2775.92</ele>
        <time>2017-01-05T10:20:12Z</time>
      </trkpt>
      <trkpt lat="45.08322" lon="6.76851">
        <ele>2776.02</ele>
        <time>2017-01-05T10:20:14Z</time>
      </trkpt>
      <trkpt lat="45.0831" lon="6.76845">
        <ele>2775.4</ele>
        <time>2017-01-05T10:20:17Z</time>
      </trkpt>
      <trkpt lat="45.083" lon="6.7684">
        <ele>2774.26</ele>
        <time>2017-01-05T10:20:19Z</time>
      </trkpt>
      <trkpt lat="45.08291" lon="6.76836">
        <ele>2772.62</ele>
        <time>2017-01-05T10:20:22Z</time>
      </trkpt>
      <trkpt lat="45.08281" lon="6.76831">
        <ele>2771.68</ele>
        <time>2017-01-05T10:20:24Z</time>
      </trkpt>
      <trkpt lat="45.08271" lon="6.76825">
        <ele>2771.78</ele>
        <time>2017-01-05T10:20:28Z</time>
      </trkpt>
      <trkpt lat="45.08277" lon="6.76837">
        <ele>2769.16</ele>
        <time>2017-01-05T10:20:33Z</time>
      </trkpt>
      <trkpt lat="45.08289" lon="6.76846">
        <ele>2770.19</ele>
        <time>2017-01-05T10:20:36Z</time>
      </trkpt>
      <trkpt lat="45.083" lon="6.76858">
        <ele>2770.19</ele>
        <time>2017-01-05T10:20:39Z</time>
      </trkpt>
      <trkpt lat="45.08318" lon="6.76873">
        <ele>2769.25</ele>
        <time>2017-01-05T10:20:44Z</time>
      </trkpt>
      <trkpt lat="45.08334" lon="6.76896">
        <ele>2764.84</ele>
        <time>2017-01-05T10:20:49Z</time>
      </trkpt>
      <trkpt lat="45.08343" lon="6.76904">
        <ele>2762.57</ele>
        <time>2017-01-05T10:20:51Z</time>
      </trkpt>
      <trkpt lat="45.08354" lon="6.7691">
        <ele>2760.79</ele>
        <time>2017-01-05T10:20:53Z</time>
      </trkpt>
      <trkpt lat="45.08365" lon="6.76918">
        <ele>2758.79</ele>
        <time>2017-01-05T10:20:55Z</time>
      </trkpt>
      <trkpt lat="45.08378" lon="6.76921">
        <ele>2758.75</ele>
        <time>2017-01-05T10:20:57Z</time>
      </trkpt>
      <trkpt lat="45.0839" lon="6.76931">
        <ele>2756.42</ele>
        <time>2017-01-05T10:21:00Z</time>
      </trkpt>
      <trkpt lat="45.08399" lon="6.76937">
        <ele>2756.1</ele>
        <time>2017-01-05T10:21:02Z</time>
      </trkpt>
      <trkpt lat="45.08411" lon="6.76943">
        <ele>2755.61</ele>
        <time>2017-01-05T10:21:04Z</time>
      </trkpt>
      <trkpt lat="45.08422" lon="6.76946">
        <ele>2755.27</ele>
        <time>2017-01-05T10:21:06Z</time>
      </trkpt>
      <trkpt lat="45.08433" lon="6.76946">
        <ele>2754.82</ele>
        <time>2017-01-05T10:21:08Z</time>
      </trkpt>
      <trkpt lat="45.08443" lon="6.76948">
        <ele>2753.47</ele>
        <time>2017-01-05T10:21:11Z</time>
      </trkpt>
      <trkpt lat="45.08428" lon="6.76959">
        <ele>2749.84</ele>
        <time>2017-01-05T10:21:18Z</time>
      </trkpt>
      <trkpt lat="45.0841" lon="6.76957">
        <ele>2750.07</ele>
        <time>2017-01-05T10:21:22Z</time>
      </trkpt>
      <trkpt lat="45.08398" lon="6.7696">
        <ele>2747.6</ele>
        <time>2017-01-05T10:21:25Z</time>
      </trkpt>
      <trkpt lat="45.08379" lon="6.76961">
        <ele>2745.14</ele>
        <time>2017-01-05T10:21:29Z</time>
      </trkpt>
      <trkpt lat="45.08358" lon="6.76962">
        <ele>2742.87</ele>
        <time>2017-01-05T10:21:34Z</time>
      </trkpt>
      <trkpt lat="45.08335" lon="6.76961">
        <ele>2741.18</ele>
        <time>2017-01-05T10:21:39Z</time>
      </trkpt>
      <trkpt lat="45.08316" lon="6.76959">
        <ele>2738.88</ele>
        <time>2017-01-05T10:21:43Z</time>
      </trkpt>
      <trkpt lat="45.08306" lon="6.76957">
        <ele>2738.01</ele>
        <time>2017-01-05T10:21:45Z</time>
      </trkpt>
      <trkpt lat="45.08287" lon="6.76953">
        <ele>2734.81</ele>
        <time>2017-01-05T10:21:49Z</time>
      </trkpt>
      <trkpt lat="45.08274" lon="6.76948">
        <ele>2733.07</ele>
        <time>2017-01-05T10:21:52Z</time>
      </trkpt>
      <trkpt lat="45.08262" lon="6.76947">
        <ele>2731.02</ele>
        <time>2017-01-05T10:21:55Z</time>
      </trkpt>
      <trkpt lat="45.0825" lon="6.76948">
        <ele>2728.55</ele>
        <time>2017-01-05T10:21:58Z</time>
      </trkpt>
      <trkpt lat="45.08238" lon="6.7695">
        <ele>2725.55</ele>
        <time>2017-01-05T10:22:02Z</time>
      </trkpt>
      <trkpt lat="45.08226" lon="6.76949">
        <ele>2723.09</ele>
        <time>2017-01-05T10:22:05Z</time>
      </trkpt>
      <trkpt lat="45.08215" lon="6.7695">
        <ele>2722.08</ele>
        <time>2017-01-05T10:22:06Z</time>
      </trkpt>
      <trkpt lat="45.08203" lon="6.76951">
        <ele>2721.73</ele>
        <time>2017-01-05T10:22:09Z</time>
      </trkpt>
      <trkpt lat="45.08183" lon="6.76949">
        <ele>2720.41</ele>
        <time>2017-01-05T10:22:13Z</time>
      </trkpt>
      <trkpt lat="45.08173" lon="6.76951">
        <ele>2718.36</ele>
        <time>2017-01-05T10:22:15Z</time>
      </trkpt>
      <trkpt lat="45.08154" lon="6.76949">
        <ele>2715.15</ele>
        <time>2017-01-05T10:22:20Z</time>
      </trkpt>
      <trkpt lat="45.08144" lon="6.76943">
        <ele>2714.28</ele>
        <time>2017-01-05T10:22:59Z</time>
      </trkpt>
      <trkpt lat="45.08134" lon="6.7695">
        <ele>2710.73</ele>
        <time>2017-01-05T10:23:02Z</time>
      </trkpt>
      <trkpt lat="45.0814" lon="6.76961">
        <ele>2709.76</ele>
        <time>2017-01-05T10:23:05Z</time>
      </trkpt>
      <trkpt lat="45.08149" lon="6.76968">
        <ele>2709.89</ele>
        <time>2017-01-05T10:23:08Z</time>
      </trkpt>
      <trkpt lat="45.08158" lon="6.76977">
        <ele>2709.1</ele>
        <time>2017-01-05T10:23:11Z</time>
      </trkpt>
      <trkpt lat="45.08169" lon="6.76988">
        <ele>2708.31</ele>
        <time>2017-01-05T10:23:15Z</time>
      </trkpt>
      <trkpt lat="45.08177" lon="6.77">
        <ele>2706.22</ele>
        <time>2017-01-05T10:23:18Z</time>
      </trkpt>
      <trkpt lat="45.08188" lon="6.7701">
        <ele>2705.3</ele>
        <time>2017-01-05T10:23:21Z</time>
      </trkpt>
      <trkpt lat="45.08207" lon="6.77028">
        <ele>2704.77</ele>
        <time>2017-01-05T10:23:26Z</time>
      </trkpt>
      <trkpt lat="45.08218" lon="6.77037">
        <ele>2704.4</ele>
        <time>2017-01-05T10:23:29Z</time>
      </trkpt>
      <trkpt lat="45.08228" lon="6.77046">
        <ele>2703.94</ele>
        <time>2017-01-05T10:23:32Z</time>
      </trkpt>
      <trkpt lat="45.08239" lon="6.77057">
        <ele>2702.97</ele>
        <time>2017-01-05T10:23:35Z</time>
      </trkpt>
      <trkpt lat="45.08256" lon="6.7707">
        <ele>2701.28</ele>
        <time>2017-01-05T10:23:39Z</time>
      </trkpt>
      <trkpt lat="45.08267" lon="6.77078">
        <ele>2700.63</ele>
        <time>2017-01-05T10:23:42Z</time>
      </trkpt>
      <trkpt lat="45.08278" lon="6.77087">
        <ele>2699.94</ele>
        <time>2017-01-05T10:23:45Z</time>
      </trkpt>
      <trkpt lat="45.08288" lon="6.77097">
        <ele>2696.85</ele>
        <time>2017-01-05T10:23:48Z</time>
      </trkpt>
      <trkpt lat="45.08305" lon="6.77108">
        <ele>2694.77</ele>
        <time>2017-01-05T10:23:51Z</time>
      </trkpt>
      <trkpt lat="45.08318" lon="6.77116">
        <ele>2692.26</ele>
        <time>2017-01-05T10:23:54Z</time>
      </trkpt>
      <trkpt lat="45.08339" lon="6.77126">
        <ele>2687.18</ele>
        <time>2017-01-05T10:23:59Z</time>
      </trkpt>
      <trkpt lat="45.08357" lon="6.77136">
        <ele>2681.28</ele>
        <time>2017-01-05T10:24:03Z</time>
      </trkpt>
      <trkpt lat="45.08369" lon="6.7714">
        <ele>2678.64</ele>
        <time>2017-01-05T10:24:06Z</time>
      </trkpt>
      <trkpt lat="45.08381" lon="6.77135">
        <ele>2678.85</ele>
        <time>2017-01-05T10:24:08Z</time>
      </trkpt>
      <trkpt lat="45.08393" lon="6.77136">
        <ele>2677.57</ele>
        <time>2017-01-05T10:24:11Z</time>
      </trkpt>
      <trkpt lat="45.0839" lon="6.77152">
        <ele>2673.2</ele>
        <time>2017-01-05T10:24:15Z</time>
      </trkpt>
      <trkpt lat="45.08379" lon="6.77158">
        <ele>2672.18</ele>
        <time>2017-01-05T10:24:18Z</time>
      </trkpt>
      <trkpt lat="45.08367" lon="6.77161">
        <ele>2671.59</ele>
        <time>2017-01-05T10:24:21Z</time>
      </trkpt>
      <trkpt lat="45.08355" lon="6.77165">
        <ele>2670.71</ele>
        <time>2017-01-05T10:24:24Z</time>
      </trkpt>
      <trkpt lat="45.08336" lon="6.77175">
        <ele>2667.85</ele>
        <time>2017-01-05T10:24:28Z</time>
      </trkpt>
      <trkpt lat="45.08318" lon="6.77179">
        <ele>2666.66</ele>
        <time>2017-01-05T10:24:32Z</time>
      </trkpt>
      <trkpt lat="45.08308" lon="6.77177">
        <ele>2667.67</ele>
        <time>2017-01-05T10:24:34Z</time>
      </trkpt>
      <trkpt lat="45.08295" lon="6.77175">
        <ele>2669.44</ele>
        <time>2017-01-05T10:24:37Z</time>
      </trkpt>
      <trkpt lat="45.08282" lon="6.77174">
        <ele>2671.09</ele>
        <time>2017-01-05T10:24:40Z</time>
      </trkpt>
      <trkpt lat="45.0827" lon="6.77177">
        <ele>2670.72</ele>
        <time>2017-01-05T10:24:43Z</time>
      </trkpt>
      <trkpt lat="45.08258" lon="6.77181">
        <ele>2669.53</ele>
        <time>2017-01-05T10:24:46Z</time>
      </trkpt>
      <trkpt lat="45.08247" lon="6.77186">
        <ele>2667.9</ele>
        <time>2017-01-05T10:24:49Z</time>
      </trkpt>
      <trkpt lat="45.08236" lon="6.7719">
        <ele>2665.59</ele>
        <time>2017-01-05T10:24:52Z</time>
      </trkpt>
      <trkpt lat="45.08225" lon="6.77195">
        <ele>2663.19</ele>
        <time>2017-01-05T10:24:55Z</time>
      </trkpt>
      <trkpt lat="45.08215" lon="6.77201">
        <ele>2660.11</ele>
        <time>2017-01-05T10:24:58Z</time>
      </trkpt>
      <trkpt lat="45.08206" lon="6.77209">
        <ele>2657.32</ele>
        <time>2017-01-05T10:25:02Z</time>
      </trkpt>
      <trkpt lat="45.08197" lon="6.77217">
        <ele>2655.28</ele>
        <time>2017-01-05T10:25:05Z</time>
      </trkpt>
      <trkpt lat="45.08187" lon="6.77227">
        <ele>2654.27</ele>
        <time>2017-01-05T10:25:08Z</time>
      </trkpt>
      <trkpt lat="45.08178" lon="6.77239">
        <ele>2653.94</ele>
        <time>2017-01-05T10:25:12Z</time>
      </trkpt>
      <trkpt lat="45.08172" lon="6.7725">
        <ele>2653.47</ele>
        <time>2017-01-05T10:25:15Z</time>
      </trkpt>
      <trkpt lat="45.08168" lon="6.77265">
        <ele>2654.35</ele>
        <time>2017-01-05T10:25:18Z</time>
      </trkpt>
      <trkpt lat="45.08171" lon="6.77278">
        <ele>2654.39</ele>
        <time>2017-01-05T10:25:20Z</time>
      </trkpt>
      <trkpt lat="45.08178" lon="6.7729">
        <ele>2654.38</ele>
        <time>2017-01-05T10:25:24Z</time>
      </trkpt>
      <trkpt lat="45.08186" lon="6.77301">
        <ele>2653.69</ele>
        <time>2017-01-05T10:25:27Z</time>
      </trkpt>
      <trkpt lat="45.08195" lon="6.77311">
        <ele>2652.65</ele>
        <time>2017-01-05T10:25:30Z</time>
      </trkpt>
      <trkpt lat="45.08206" lon="6.77321">
        <ele>2651.16</ele>
        <time>2017-01-05T10:25:33Z</time>
      </trkpt>
      <trkpt lat="45.08217" lon="6.77331">
        <ele>2648.67</ele>
        <time>2017-01-05T10:25:36Z</time>
      </trkpt>
      <trkpt lat="45.08226" lon="6.7734">
        <ele>2647.29</ele>
        <time>2017-01-05T10:25:39Z</time>
      </trkpt>
      <trkpt lat="45.08242" lon="6.77353">
        <ele>2645.41</ele>
        <time>2017-01-05T10:25:47Z</time>
      </trkpt>
      <trkpt lat="45.08253" lon="6.77355">
        <ele>2643.86</ele>
        <time>2017-01-05T10:25:51Z</time>
      </trkpt>
      <trkpt lat="45.08271" lon="6.77356">
        <ele>2642.77</ele>
        <time>2017-01-05T10:25:59Z</time>
      </trkpt>
      <trkpt lat="45.08283" lon="6.77355">
        <ele>2641.79</ele>
        <time>2017-01-05T10:26:03Z</time>
      </trkpt>
      <trkpt lat="45.08292" lon="6.77359">
        <ele>2640.09</ele>
        <time>2017-01-05T10:26:38Z</time>
      </trkpt>
      <trkpt lat="45.08304" lon="6.77358">
        <ele>2638.6</ele>
        <time>2017-01-05T10:32:01Z</time>
      </trkpt>
      <trkpt lat="45.0831" lon="6.77351">
        <ele>2638.97</ele>
        <time>2017-01-05T10:33:27Z</time>
      </trkpt>
      <trkpt lat="45.08308" lon="6.77365">
        <ele>2637.91</ele>
        <time>2017-01-05T10:34:46Z</time>
      </trkpt>
      <trkpt lat="45.08292" lon="6.77354">
        <ele>2640.56</ele>
        <time>2017-01-05T10:35:26Z</time>
      </trkpt>
      <trkpt lat="45.08282" lon="6.77356">
        <ele>2641.74</ele>
        <time>2017-01-05T10:35:34Z</time>
      </trkpt>
      <trkpt lat="45.08272" lon="6.77356">
        <ele>2642.72</ele>
        <time>2017-01-05T10:35:48Z</time>
      </trkpt>
      <trkpt lat="45.08254" lon="6.77351">
        <ele>2643.83</ele>
        <time>2017-01-05T10:36:25Z</time>
      </trkpt>
      <trkpt lat="45.0826" lon="6.7735">
        <ele>2643.55</ele>
        <time>2017-01-05T10:37:46Z</time>
      </trkpt>
      <trkpt lat="45.08278" lon="6.77357">
        <ele>2642.24</ele>
        <time>2017-01-05T10:38:09Z</time>
      </trkpt>
      <trkpt lat="45.08287" lon="6.77365">
        <ele>2640.64</ele>
        <time>2017-01-05T10:38:47Z</time>
      </trkpt>
      <trkpt lat="45.08281" lon="6.77379">
        <ele>2641.01</ele>
        <time>2017-01-05T10:38:50Z</time>
      </trkpt>
      <trkpt lat="45.08275" lon="6.77395">
        <ele>2641.45</ele>
        <time>2017-01-05T10:38:53Z</time>
      </trkpt>
      <trkpt lat="45.08272" lon="6.7741">
        <ele>2641.69</ele>
        <time>2017-01-05T10:38:55Z</time>
      </trkpt>
      <trkpt lat="45.0827" lon="6.77425">
        <ele>2641.29</ele>
        <time>2017-01-05T10:38:57Z</time>
      </trkpt>
      <trkpt lat="45.08262" lon="6.77454">
        <ele>2640.62</ele>
        <time>2017-01-05T10:39:02Z</time>
      </trkpt>
      <trkpt lat="45.08251" lon="6.77478">
        <ele>2642.29</ele>
        <time>2017-01-05T10:39:37Z</time>
      </trkpt>
      <trkpt lat="45.08238" lon="6.775">
        <ele>2640.9</ele>
        <time>2017-01-05T10:39:41Z</time>
      </trkpt>
      <trkpt lat="45.08227" lon="6.77513">
        <ele>2637.45</ele>
        <time>2017-01-05T10:39:44Z</time>
      </trkpt>
      <trkpt lat="45.08217" lon="6.77524">
        <ele>2634.72</ele>
        <time>2017-01-05T10:39:47Z</time>
      </trkpt>
      <trkpt lat="45.08209" lon="6.77536">
        <ele>2632.49</ele>
        <time>2017-01-05T10:39:49Z</time>
      </trkpt>
      <trkpt lat="45.08201" lon="6.7755">
        <ele>2630.11</ele>
        <time>2017-01-05T10:39:53Z</time>
      </trkpt>
      <trkpt lat="45.08188" lon="6.77571">
        <ele>2628.75</ele>
        <time>2017-01-05T10:40:01Z</time>
      </trkpt>
      <trkpt lat="45.0818" lon="6.77582">
        <ele>2627.83</ele>
        <time>2017-01-05T10:40:05Z</time>
      </trkpt>
      <trkpt lat="45.08166" lon="6.77603">
        <ele>2627.88</ele>
        <time>2017-01-05T10:40:11Z</time>
      </trkpt>
      <trkpt lat="45.08161" lon="6.77616">
        <ele>2627.62</ele>
        <time>2017-01-05T10:40:14Z</time>
      </trkpt>
      <trkpt lat="45.0815" lon="6.77638">
        <ele>2628.2</ele>
        <time>2017-01-05T10:40:20Z</time>
      </trkpt>
      <trkpt lat="45.08146" lon="6.77652">
        <ele>2630.12</ele>
        <time>2017-01-05T10:40:23Z</time>
      </trkpt>
      <trkpt lat="45.08142" lon="6.77665">
        <ele>2632.3</ele>
        <time>2017-01-05T10:40:26Z</time>
      </trkpt>
      <trkpt lat="45.08138" lon="6.77678">
        <ele>2631.97</ele>
        <time>2017-01-05T10:40:29Z</time>
      </trkpt>
      <trkpt lat="45.08134" lon="6.77693">
        <ele>2629.87</ele>
        <time>2017-01-05T10:40:33Z</time>
      </trkpt>
      <trkpt lat="45.08131" lon="6.77719">
        <ele>2626.83</ele>
        <time>2017-01-05T10:42:42Z</time>
      </trkpt>
      <trkpt lat="45.08124" lon="6.77719">
        <ele>2625.54</ele>
        <time>2017-01-05T10:43:16Z</time>
      </trkpt>
      <trkpt lat="45.08132" lon="6.77745">
        <ele>2625.99</ele>
        <time>2017-01-05T10:43:22Z</time>
      </trkpt>
      <trkpt lat="45.08138" lon="6.77757">
        <ele>2626.97</ele>
        <time>2017-01-05T10:43:24Z</time>
      </trkpt>
      <trkpt lat="45.08148" lon="6.77781">
        <ele>2625.4</ele>
        <time>2017-01-05T10:43:27Z</time>
      </trkpt>
      <trkpt lat="45.08154" lon="6.77792">
        <ele>2626.4</ele>
        <time>2017-01-05T10:43:29Z</time>
      </trkpt>
      <trkpt lat="45.08161" lon="6.77806">
        <ele>2628.24</ele>
        <time>2017-01-05T10:43:31Z</time>
      </trkpt>
      <trkpt lat="45.08174" lon="6.77827">
        <ele>2631.49</ele>
        <time>2017-01-05T10:43:35Z</time>
      </trkpt>
      <trkpt lat="45.08184" lon="6.77839">
        <ele>2633.21</ele>
        <time>2017-01-05T10:43:37Z</time>
      </trkpt>
      <trkpt lat="45.08194" lon="6.77854">
        <ele>2635.93</ele>
        <time>2017-01-05T10:43:39Z</time>
      </trkpt>
      <trkpt lat="45.08203" lon="6.77863">
        <ele>2637.36</ele>
        <time>2017-01-05T10:43:41Z</time>
      </trkpt>
      <trkpt lat="45.0821" lon="6.77874">
        <ele>2640.09</ele>
        <time>2017-01-05T10:43:42Z</time>
      </trkpt>
      <trkpt lat="45.08224" lon="6.77903">
        <ele>2645.16</ele>
        <time>2017-01-05T10:43:46Z</time>
      </trkpt>
      <trkpt lat="45.08233" lon="6.77921">
        <ele>2643.45</ele>
        <time>2017-01-05T10:43:48Z</time>
      </trkpt>
      <trkpt lat="45.0824" lon="6.7794">
        <ele>2642.3</ele>
        <time>2017-01-05T10:43:50Z</time>
      </trkpt>
      <trkpt lat="45.08246" lon="6.77966">
        <ele>2639.02</ele>
        <time>2017-01-05T10:44:34Z</time>
      </trkpt>
      <trkpt lat="45.08252" lon="6.7798">
        <ele>2637.16</ele>
        <time>2017-01-05T10:44:38Z</time>
      </trkpt>
      <trkpt lat="45.08255" lon="6.77996">
        <ele>2637.2</ele>
        <time>2017-01-05T10:44:41Z</time>
      </trkpt>
      <trkpt lat="45.08251" lon="6.78012">
        <ele>2639.64</ele>
        <time>2017-01-05T10:44:44Z</time>
      </trkpt>
      <trkpt lat="45.08247" lon="6.78027">
        <ele>2642.05</ele>
        <time>2017-01-05T10:44:47Z</time>
      </trkpt>
      <trkpt lat="45.08247" lon="6.78042">
        <ele>2642.68</ele>
        <time>2017-01-05T10:44:49Z</time>
      </trkpt>
      <trkpt lat="45.08246" lon="6.78058">
        <ele>2643.54</ele>
        <time>2017-01-05T10:44:51Z</time>
      </trkpt>
      <trkpt lat="45.08242" lon="6.78074">
        <ele>2645.34</ele>
        <time>2017-01-05T10:44:53Z</time>
      </trkpt>
      <trkpt lat="45.08239" lon="6.78093">
        <ele>2645.62</ele>
        <time>2017-01-05T10:44:55Z</time>
      </trkpt>
      <trkpt lat="45.0823" lon="6.78119">
        <ele>2645.62</ele>
        <time>2017-01-05T10:44:59Z</time>
      </trkpt>
      <trkpt lat="45.0823" lon="6.78133">
        <ele>2643.55</ele>
        <time>2017-01-05T10:45:02Z</time>
      </trkpt>
      <trkpt lat="45.08223" lon="6.78145">
        <ele>2644.17</ele>
        <time>2017-01-05T10:45:05Z</time>
      </trkpt>
      <trkpt lat="45.08217" lon="6.78156">
        <ele>2641.93</ele>
        <time>2017-01-05T10:45:08Z</time>
      </trkpt>
      <trkpt lat="45.08208" lon="6.78181">
        <ele>2638.74</ele>
        <time>2017-01-05T10:45:12Z</time>
      </trkpt>
      <trkpt lat="45.08207" lon="6.7821">
        <ele>2638.75</ele>
        <time>2017-01-05T10:45:16Z</time>
      </trkpt>
      <trkpt lat="45.08205" lon="6.78226">
        <ele>2639.24</ele>
        <time>2017-01-05T10:45:18Z</time>
      </trkpt>
      <trkpt lat="45.08203" lon="6.78241">
        <ele>2640.4</ele>
        <time>2017-01-05T10:45:20Z</time>
      </trkpt>
      <trkpt lat="45.082" lon="6.78255">
        <ele>2641.24</ele>
        <time>2017-01-05T10:45:22Z</time>
      </trkpt>
      <trkpt lat="45.08196" lon="6.7827">
        <ele>2641.51</ele>
        <time>2017-01-05T10:45:24Z</time>
      </trkpt>
      <trkpt lat="45.08193" lon="6.78285">
        <ele>2640.18</ele>
        <time>2017-01-05T10:45:26Z</time>
      </trkpt>
      <trkpt lat="45.08185" lon="6.78311">
        <ele>2633.99</ele>
        <time>2017-01-05T10:45:30Z</time>
      </trkpt>
      <trkpt lat="45.08181" lon="6.78324">
        <ele>2631.17</ele>
        <time>2017-01-05T10:45:32Z</time>
      </trkpt>
      <trkpt lat="45.08175" lon="6.78337">
        <ele>2628.54</ele>
        <time>2017-01-05T10:45:34Z</time>
      </trkpt>
      <trkpt lat="45.08167" lon="6.78353">
        <ele>2626.15</ele>
        <time>2017-01-05T10:45:36Z</time>
      </trkpt>
      <trkpt lat="45.08161" lon="6.78366">
        <ele>2623.84</ele>
        <time>2017-01-05T10:45:38Z</time>
      </trkpt>
      <trkpt lat="45.08146" lon="6.78389">
        <ele>2622.43</ele>
        <time>2017-01-05T10:45:42Z</time>
      </trkpt>
      <trkpt lat="45.08139" lon="6.78403">
        <ele>2621.36</ele>
        <time>2017-01-05T10:45:44Z</time>
      </trkpt>
      <trkpt lat="45.08134" lon="6.78418">
        <ele>2620.22</ele>
        <time>2017-01-05T10:45:46Z</time>
      </trkpt>
      <trkpt lat="45.0813" lon="6.78435">
        <ele>2622.07</ele>
        <time>2017-01-05T10:45:48Z</time>
      </trkpt>
      <trkpt lat="45.08124" lon="6.78454">
        <ele>2623.74</ele>
        <time>2017-01-05T10:45:51Z</time>
      </trkpt>
      <trkpt lat="45.08117" lon="6.78469">
        <ele>2625.3</ele>
        <time>2017-01-05T10:45:54Z</time>
      </trkpt>
      <trkpt lat="45.08111" lon="6.78484">
        <ele>2627.24</ele>
        <time>2017-01-05T10:45:57Z</time>
      </trkpt>
      <trkpt lat="45.08117" lon="6.78508">
        <ele>2629.83</ele>
        <time>2017-01-05T10:46:01Z</time>
      </trkpt>
      <trkpt lat="45.08129" lon="6.7853">
        <ele>2632.29</ele>
        <time>2017-01-05T10:46:05Z</time>
      </trkpt>
      <trkpt lat="45.08132" lon="6.78545">
        <ele>2634.23</ele>
        <time>2017-01-05T10:46:07Z</time>
      </trkpt>
      <trkpt lat="45.08132" lon="6.78565">
        <ele>2635.11</ele>
        <time>2017-01-05T10:46:10Z</time>
      </trkpt>
      <trkpt lat="45.08127" lon="6.78579">
        <ele>2634.55</ele>
        <time>2017-01-05T10:46:13Z</time>
      </trkpt>
      <trkpt lat="45.08115" lon="6.78606">
        <ele>2634.03</ele>
        <time>2017-01-05T10:46:19Z</time>
      </trkpt>
      <trkpt lat="45.08115" lon="6.78621">
        <ele>2633.56</ele>
        <time>2017-01-05T10:46:21Z</time>
      </trkpt>
      <trkpt lat="45.08111" lon="6.78636">
        <ele>2633.1</ele>
        <time>2017-01-05T10:46:23Z</time>
      </trkpt>
      <trkpt lat="45.08108" lon="6.78651">
        <ele>2634.48</ele>
        <time>2017-01-05T10:46:25Z</time>
      </trkpt>
      <trkpt lat="45.08101" lon="6.7868">
        <ele>2639.22</ele>
        <time>2017-01-05T10:46:30Z</time>
      </trkpt>
      <trkpt lat="45.08098" lon="6.7871">
        <ele>2644.36</ele>
        <time>2017-01-05T10:46:34Z</time>
      </trkpt>
      <trkpt lat="45.08099" lon="6.78726">
        <ele>2647.04</ele>
        <time>2017-01-05T10:46:36Z</time>
      </trkpt>
      <trkpt lat="45.08103" lon="6.78741">
        <ele>2649.19</ele>
        <time>2017-01-05T10:46:38Z</time>
      </trkpt>
      <trkpt lat="45.08107" lon="6.78757">
        <ele>2651.41</ele>
        <time>2017-01-05T10:46:40Z</time>
      </trkpt>
      <trkpt lat="45.08113" lon="6.78771">
        <ele>2652.91</ele>
        <time>2017-01-05T10:46:41Z</time>
      </trkpt>
      <trkpt lat="45.08118" lon="6.78783">
        <ele>2652.29</ele>
        <time>2017-01-05T10:46:43Z</time>
      </trkpt>
      <trkpt lat="45.08124" lon="6.78797">
        <ele>2651.79</ele>
        <time>2017-01-05T10:46:45Z</time>
      </trkpt>
      <trkpt lat="45.08126" lon="6.78815">
        <ele>2652.24</ele>
        <time>2017-01-05T10:46:47Z</time>
      </trkpt>
      <trkpt lat="45.08129" lon="6.78829">
        <ele>2652.22</ele>
        <time>2017-01-05T10:46:49Z</time>
      </trkpt>
      <trkpt lat="45.08132" lon="6.78844">
        <ele>2650.37</ele>
        <time>2017-01-05T10:46:52Z</time>
      </trkpt>
      <trkpt lat="45.08134" lon="6.78859">
        <ele>2648.14</ele>
        <time>2017-01-05T10:46:54Z</time>
      </trkpt>
      <trkpt lat="45.08137" lon="6.78886">
        <ele>2645.33</ele>
        <time>2017-01-05T10:46:58Z</time>
      </trkpt>
      <trkpt lat="45.08137" lon="6.789">
        <ele>2644.45</ele>
        <time>2017-01-05T10:47:00Z</time>
      </trkpt>
      <trkpt lat="45.08139" lon="6.78931">
        <ele>2642.1</ele>
        <time>2017-01-05T10:47:05Z</time>
      </trkpt>
      <trkpt lat="45.08139" lon="6.78962">
        <ele>2640.77</ele>
        <time>2017-01-05T10:47:10Z</time>
      </trkpt>
      <trkpt lat="45.08134" lon="6.78988">
        <ele>2642.61</ele>
        <time>2017-01-05T10:47:14Z</time>
      </trkpt>
      <trkpt lat="45.08134" lon="6.79002">
        <ele>2641.61</ele>
        <time>2017-01-05T10:47:16Z</time>
      </trkpt>
      <trkpt lat="45.08133" lon="6.79016">
        <ele>2640.49</ele>
        <time>2017-01-05T10:47:18Z</time>
      </trkpt>
      <trkpt lat="45.08132" lon="6.79032">
        <ele>2639.53</ele>
        <time>2017-01-05T10:47:20Z</time>
      </trkpt>
      <trkpt lat="45.08132" lon="6.79061">
        <ele>2638.86</ele>
        <time>2017-01-05T10:47:24Z</time>
      </trkpt>
      <trkpt lat="45.08132" lon="6.79075">
        <ele>2638.48</ele>
        <time>2017-01-05T10:47:26Z</time>
      </trkpt>
      <trkpt lat="45.08131" lon="6.79093">
        <ele>2639.52</ele>
        <time>2017-01-05T10:47:29Z</time>
      </trkpt>
      <trkpt lat="45.08132" lon="6.7911">
        <ele>2640.46</ele>
        <time>2017-01-05T10:47:32Z</time>
      </trkpt>
      <trkpt lat="45.08132" lon="6.79125">
        <ele>2642.34</ele>
        <time>2017-01-05T10:47:34Z</time>
      </trkpt>
      <trkpt lat="45.08134" lon="6.79151">
        <ele>2645.46</ele>
        <time>2017-01-05T10:47:38Z</time>
      </trkpt>
      <trkpt lat="45.08136" lon="6.79166">
        <ele>2646.46</ele>
        <time>2017-01-05T10:47:40Z</time>
      </trkpt>
      <trkpt lat="45.08137" lon="6.7918">
        <ele>2647.13</ele>
        <time>2017-01-05T10:47:42Z</time>
      </trkpt>
      <trkpt lat="45.08139" lon="6.79195">
        <ele>2646.94</ele>
        <time>2017-01-05T10:47:44Z</time>
      </trkpt>
      <trkpt lat="45.0814" lon="6.79211">
        <ele>2647.01</ele>
        <time>2017-01-05T10:47:46Z</time>
      </trkpt>
      <trkpt lat="45.08141" lon="6.79226">
        <ele>2646.87</ele>
        <time>2017-01-05T10:47:48Z</time>
      </trkpt>
      <trkpt lat="45.08142" lon="6.79241">
        <ele>2646.65</ele>
        <time>2017-01-05T10:47:50Z</time>
      </trkpt>
      <trkpt lat="45.08146" lon="6.79268">
        <ele>2643.68</ele>
        <time>2017-01-05T10:47:54Z</time>
      </trkpt>
      <trkpt lat="45.0815" lon="6.79294">
        <ele>2643.73</ele>
        <time>2017-01-05T10:47:58Z</time>
      </trkpt>
      <trkpt lat="45.08157" lon="6.79318">
        <ele>2645.42</ele>
        <time>2017-01-05T10:48:02Z</time>
      </trkpt>
      <trkpt lat="45.08162" lon="6.79335">
        <ele>2646.86</ele>
        <time>2017-01-05T10:48:05Z</time>
      </trkpt>
      <trkpt lat="45.08172" lon="6.7936">
        <ele>2648.59</ele>
        <time>2017-01-05T10:48:09Z</time>
      </trkpt>
      <trkpt lat="45.0818" lon="6.79372">
        <ele>2647.76</ele>
        <time>2017-01-05T10:48:11Z</time>
      </trkpt>
      <trkpt lat="45.08188" lon="6.79381">
        <ele>2645.98</ele>
        <time>2017-01-05T10:48:13Z</time>
      </trkpt>
      <trkpt lat="45.08198" lon="6.79389">
        <ele>2642.4</ele>
        <time>2017-01-05T10:48:15Z</time>
      </trkpt>
      <trkpt lat="45.08207" lon="6.79396">
        <ele>2639.24</ele>
        <time>2017-01-05T10:48:17Z</time>
      </trkpt>
      <trkpt lat="45.08214" lon="6.79406">
        <ele>2638.4</ele>
        <time>2017-01-05T10:48:20Z</time>
      </trkpt>
      <trkpt lat="45.0822" lon="6.79433">
        <ele>2640.29</ele>
        <time>2017-01-05T10:48:24Z</time>
      </trkpt>
      <trkpt lat="45.08228" lon="6.79459">
        <ele>2638.7</ele>
        <time>2017-01-05T10:48:29Z</time>
      </trkpt>
      <trkpt lat="45.08229" lon="6.79476">
        <ele>2639.85</ele>
        <time>2017-01-05T10:48:32Z</time>
      </trkpt>
      <trkpt lat="45.08231" lon="6.79504">
        <ele>2642.46</ele>
        <time>2017-01-05T10:48:36Z</time>
      </trkpt>
      <trkpt lat="45.08233" lon="6.79519">
        <ele>2641.88</ele>
        <time>2017-01-05T10:48:38Z</time>
      </trkpt>
      <trkpt lat="45.08235" lon="6.79534">
        <ele>2641.1</ele>
        <time>2017-01-05T10:48:40Z</time>
      </trkpt>
      <trkpt lat="45.08239" lon="6.79552">
        <ele>2639.16</ele>
        <time>2017-01-05T10:48:42Z</time>
      </trkpt>
      <trkpt lat="45.08239" lon="6.79571">
        <ele>2638.39</ele>
        <time>2017-01-05T10:48:45Z</time>
      </trkpt>
      <trkpt lat="45.08239" lon="6.79587">
        <ele>2637.98</ele>
        <time>2017-01-05T10:48:47Z</time>
      </trkpt>
      <trkpt lat="45.08239" lon="6.79602">
        <ele>2637.32</ele>
        <time>2017-01-05T10:48:49Z</time>
      </trkpt>
      <trkpt lat="45.08235" lon="6.79629">
        <ele>2639.43</ele>
        <time>2017-01-05T10:48:54Z</time>
      </trkpt>
      <trkpt lat="45.08235" lon="6.79646">
        <ele>2639.69</ele>
        <time>2017-01-05T10:48:56Z</time>
      </trkpt>
      <trkpt lat="45.08235" lon="6.79661">
        <ele>2638.73</ele>
        <time>2017-01-05T10:48:58Z</time>
      </trkpt>
      <trkpt lat="45.08236" lon="6.79678">
        <ele>2639.18</ele>
        <time>2017-01-05T10:49:00Z</time>
      </trkpt>
      <trkpt lat="45.08235" lon="6.79694">
        <ele>2641.14</ele>
        <time>2017-01-05T10:49:02Z</time>
      </trkpt>
      <trkpt lat="45.08235" lon="6.79709">
        <ele>2640.26</ele>
        <time>2017-01-05T10:49:04Z</time>
      </trkpt>
      <trkpt lat="45.08233" lon="6.79727">
        <ele>2639.45</ele>
        <time>2017-01-05T10:49:06Z</time>
      </trkpt>
      <trkpt lat="45.08234" lon="6.79745">
        <ele>2637.82</ele>
        <time>2017-01-05T10:49:08Z</time>
      </trkpt>
      <trkpt lat="45.08234" lon="6.79763">
        <ele>2635.76</ele>
        <time>2017-01-05T10:49:10Z</time>
      </trkpt>
      <trkpt lat="45.08228" lon="6.79775">
        <ele>2637.44</ele>
        <time>2017-01-05T10:49:12Z</time>
      </trkpt>
      <trkpt lat="45.08228" lon="6.79802">
        <ele>2632.47</ele>
        <time>2017-01-05T10:49:17Z</time>
      </trkpt>
      <trkpt lat="45.08226" lon="6.79817">
        <ele>2631.7</ele>
        <time>2017-01-05T10:49:18Z</time>
      </trkpt>
      <trkpt lat="45.08229" lon="6.79833">
        <ele>2628.92</ele>
        <time>2017-01-05T10:49:21Z</time>
      </trkpt>
      <trkpt lat="45.08228" lon="6.79847">
        <ele>2628.08</ele>
        <time>2017-01-05T10:49:22Z</time>
      </trkpt>
      <trkpt lat="45.08226" lon="6.79862">
        <ele>2626.92</ele>
        <time>2017-01-05T10:49:24Z</time>
      </trkpt>
      <trkpt lat="45.08226" lon="6.79878">
        <ele>2625.2</ele>
        <time>2017-01-05T10:49:26Z</time>
      </trkpt>
      <trkpt lat="45.08223" lon="6.79893">
        <ele>2625.16</ele>
        <time>2017-01-05T10:49:45Z</time>
      </trkpt>
      <trkpt lat="45.08219" lon="6.7991">
        <ele>2625.66</ele>
        <time>2017-01-05T10:49:48Z</time>
      </trkpt>
      <trkpt lat="45.08216" lon="6.79929">
        <ele>2625.82</ele>
        <time>2017-01-05T10:49:51Z</time>
      </trkpt>
      <trkpt lat="45.08212" lon="6.79942">
        <ele>2626.58</ele>
        <time>2017-01-05T10:49:53Z</time>
      </trkpt>
      <trkpt lat="45.08201" lon="6.79964">
        <ele>2628.16</ele>
        <time>2017-01-05T10:49:57Z</time>
      </trkpt>
      <trkpt lat="45.08186" lon="6.79988">
        <ele>2628.57</ele>
        <time>2017-01-05T10:50:02Z</time>
      </trkpt>
      <trkpt lat="45.08178" lon="6.79999">
        <ele>2628.07</ele>
        <time>2017-01-05T10:50:05Z</time>
      </trkpt>
      <trkpt lat="45.08166" lon="6.80006">
        <ele>2628.86</ele>
        <time>2017-01-05T10:50:08Z</time>
      </trkpt>
      <trkpt lat="45.08157" lon="6.80015">
        <ele>2625.56</ele>
        <time>2017-01-05T10:50:10Z</time>
      </trkpt>
      <trkpt lat="45.0815" lon="6.80026">
        <ele>2622.07</ele>
        <time>2017-01-05T10:50:12Z</time>
      </trkpt>
      <trkpt lat="45.08144" lon="6.80039">
        <ele>2620.05</ele>
        <time>2017-01-05T10:50:14Z</time>
      </trkpt>
      <trkpt lat="45.08138" lon="6.80064">
        <ele>2616.61</ele>
        <time>2017-01-05T10:50:18Z</time>
      </trkpt>
      <trkpt lat="45.08133" lon="6.8008">
        <ele>2613.86</ele>
        <time>2017-01-05T10:50:21Z</time>
      </trkpt>
      <trkpt lat="45.08131" lon="6.801">
        <ele>2609.96</ele>
        <time>2017-01-05T10:50:24Z</time>
      </trkpt>
      <trkpt lat="45.08138" lon="6.80125">
        <ele>2606.01</ele>
        <time>2017-01-05T10:50:28Z</time>
      </trkpt>
      <trkpt lat="45.08137" lon="6.8014">
        <ele>2604.08</ele>
        <time>2017-01-05T10:50:30Z</time>
      </trkpt>
      <trkpt lat="45.08128" lon="6.80168">
        <ele>2603.58</ele>
        <time>2017-01-05T10:50:34Z</time>
      </trkpt>
      <trkpt lat="45.08125" lon="6.80191">
        <ele>2602.67</ele>
        <time>2017-01-05T10:50:37Z</time>
      </trkpt>
      <trkpt lat="45.08122" lon="6.80206">
        <ele>2602.19</ele>
        <time>2017-01-05T10:50:39Z</time>
      </trkpt>
      <trkpt lat="45.08123" lon="6.80224">
        <ele>2602.11</ele>
        <time>2017-01-05T10:50:41Z</time>
      </trkpt>
      <trkpt lat="45.0812" lon="6.80255">
        <ele>2600.2</ele>
        <time>2017-01-05T10:51:52Z</time>
      </trkpt>
      <trkpt lat="45.0811" lon="6.80233">
        <ele>2600.4</ele>
        <time>2017-01-05T10:51:57Z</time>
      </trkpt>
      <trkpt lat="45.08101" lon="6.80209">
        <ele>2598.15</ele>
        <time>2017-01-05T10:52:02Z</time>
      </trkpt>
      <trkpt lat="45.08092" lon="6.80185">
        <ele>2595.81</ele>
        <time>2017-01-05T10:52:06Z</time>
      </trkpt>
      <trkpt lat="45.08089" lon="6.80172">
        <ele>2594.83</ele>
        <time>2017-01-05T10:52:08Z</time>
      </trkpt>
      <trkpt lat="45.08086" lon="6.80154">
        <ele>2594.44</ele>
        <time>2017-01-05T10:52:11Z</time>
      </trkpt>
      <trkpt lat="45.08083" lon="6.80137">
        <ele>2594.09</ele>
        <time>2017-01-05T10:52:14Z</time>
      </trkpt>
      <trkpt lat="45.08081" lon="6.80115">
        <ele>2594.19</ele>
        <time>2017-01-05T10:52:17Z</time>
      </trkpt>
      <trkpt lat="45.08076" lon="6.80099">
        <ele>2593.17</ele>
        <time>2017-01-05T10:52:20Z</time>
      </trkpt>
      <trkpt lat="45.08073" lon="6.80083">
        <ele>2592.64</ele>
        <time>2017-01-05T10:52:23Z</time>
      </trkpt>
      <trkpt lat="45.08066" lon="6.80071">
        <ele>2590.3</ele>
        <time>2017-01-05T10:52:26Z</time>
      </trkpt>
      <trkpt lat="45.08057" lon="6.80058">
        <ele>2586.71</ele>
        <time>2017-01-05T10:52:29Z</time>
      </trkpt>
      <trkpt lat="45.08048" lon="6.80043">
        <ele>2583.71</ele>
        <time>2017-01-05T10:52:32Z</time>
      </trkpt>
      <trkpt lat="45.0804" lon="6.80018">
        <ele>2581.8</ele>
        <time>2017-01-05T10:52:36Z</time>
      </trkpt>
      <trkpt lat="45.08033" lon="6.80002">
        <ele>2580.42</ele>
        <time>2017-01-05T10:52:39Z</time>
      </trkpt>
      <trkpt lat="45.08022" lon="6.79975">
        <ele>2578.22</ele>
        <time>2017-01-05T10:52:44Z</time>
      </trkpt>
      <trkpt lat="45.08012" lon="6.79962">
        <ele>2576.24</ele>
        <time>2017-01-05T10:52:47Z</time>
      </trkpt>
      <trkpt lat="45.08002" lon="6.79951">
        <ele>2573.88</ele>
        <time>2017-01-05T10:52:50Z</time>
      </trkpt>
      <trkpt lat="45.07994" lon="6.79944">
        <ele>2570.97</ele>
        <time>2017-01-05T10:52:52Z</time>
      </trkpt>
      <trkpt lat="45.07985" lon="6.79937">
        <ele>2568.28</ele>
        <time>2017-01-05T10:52:54Z</time>
      </trkpt>
      <trkpt lat="45.07977" lon="6.79924">
        <ele>2566.75</ele>
        <time>2017-01-05T10:52:57Z</time>
      </trkpt>
      <trkpt lat="45.07967" lon="6.79921">
        <ele>2561.98</ele>
        <time>2017-01-05T10:53:00Z</time>
      </trkpt>
      <trkpt lat="45.07966" lon="6.79936">
        <ele>2558.81</ele>
        <time>2017-01-05T10:53:03Z</time>
      </trkpt>
      <trkpt lat="45.0797" lon="6.79954">
        <ele>2558.63</ele>
        <time>2017-01-05T10:53:06Z</time>
      </trkpt>
      <trkpt lat="45.07985" lon="6.79971">
        <ele>2563.72</ele>
        <time>2017-01-05T10:53:10Z</time>
      </trkpt>
      <trkpt lat="45.07993" lon="6.79994">
        <ele>2563.43</ele>
        <time>2017-01-05T10:53:14Z</time>
      </trkpt>
      <trkpt lat="45.07995" lon="6.80008">
        <ele>2561.58</ele>
        <time>2017-01-05T10:53:16Z</time>
      </trkpt>
      <trkpt lat="45.07995" lon="6.80022">
        <ele>2559.04</ele>
        <time>2017-01-05T10:53:18Z</time>
      </trkpt>
      <trkpt lat="45.07999" lon="6.80048">
        <ele>2555.03</ele>
        <time>2017-01-05T10:53:22Z</time>
      </trkpt>
      <trkpt lat="45.08003" lon="6.80066">
        <ele>2555.1</ele>
        <time>2017-01-05T10:53:25Z</time>
      </trkpt>
      <trkpt lat="45.08007" lon="6.80097">
        <ele>2553.56</ele>
        <time>2017-01-05T10:53:30Z</time>
      </trkpt>
      <trkpt lat="45.08009" lon="6.80123">
        <ele>2553.37</ele>
        <time>2017-01-05T10:53:34Z</time>
      </trkpt>
      <trkpt lat="45.08007" lon="6.8014">
        <ele>2553.08</ele>
        <time>2017-01-05T10:53:38Z</time>
      </trkpt>
      <trkpt lat="45.08003" lon="6.80155">
        <ele>2551.49</ele>
        <time>2017-01-05T10:53:40Z</time>
      </trkpt>
      <trkpt lat="45.08001" lon="6.80181">
        <ele>2550.29</ele>
        <time>2017-01-05T10:53:44Z</time>
      </trkpt>
      <trkpt lat="45.07995" lon="6.80192">
        <ele>2548.05</ele>
        <time>2017-01-05T10:53:46Z</time>
      </trkpt>
      <trkpt lat="45.0799" lon="6.80205">
        <ele>2546.35</ele>
        <time>2017-01-05T10:53:48Z</time>
      </trkpt>
      <trkpt lat="45.07984" lon="6.80219">
        <ele>2544.78</ele>
        <time>2017-01-05T10:53:50Z</time>
      </trkpt>
      <trkpt lat="45.07982" lon="6.80233">
        <ele>2544.03</ele>
        <time>2017-01-05T10:53:52Z</time>
      </trkpt>
      <trkpt lat="45.07977" lon="6.80264">
        <ele>2541.97</ele>
        <time>2017-01-05T10:53:57Z</time>
      </trkpt>
      <trkpt lat="45.07974" lon="6.80282">
        <ele>2539.99</ele>
        <time>2017-01-05T10:54:00Z</time>
      </trkpt>
      <trkpt lat="45.07977" lon="6.80298">
        <ele>2539.14</ele>
        <time>2017-01-05T10:54:03Z</time>
      </trkpt>
      <trkpt lat="45.07984" lon="6.8031">
        <ele>2540.15</ele>
        <time>2017-01-05T10:54:05Z</time>
      </trkpt>
      <trkpt lat="45.07975" lon="6.80333">
        <ele>2536.75</ele>
        <time>2017-01-05T10:54:10Z</time>
      </trkpt>
      <trkpt lat="45.07959" lon="6.8035">
        <ele>2534.02</ele>
        <time>2017-01-05T10:54:14Z</time>
      </trkpt>
      <trkpt lat="45.07951" lon="6.80357">
        <ele>2531.75</ele>
        <time>2017-01-05T10:54:16Z</time>
      </trkpt>
      <trkpt lat="45.07941" lon="6.80362">
        <ele>2529.44</ele>
        <time>2017-01-05T10:54:18Z</time>
      </trkpt>
      <trkpt lat="45.07924" lon="6.80368">
        <ele>2527.4</ele>
        <time>2017-01-05T10:54:22Z</time>
      </trkpt>
      <trkpt lat="45.07906" lon="6.80375">
        <ele>2526.91</ele>
        <time>2017-01-05T10:54:26Z</time>
      </trkpt>
      <trkpt lat="45.07883" lon="6.80384">
        <ele>2526.58</ele>
        <time>2017-01-05T10:54:31Z</time>
      </trkpt>
      <trkpt lat="45.07871" lon="6.8039">
        <ele>2525.98</ele>
        <time>2017-01-05T10:54:35Z</time>
      </trkpt>
      <trkpt lat="45.0786" lon="6.80393">
        <ele>2524.76</ele>
        <time>2017-01-05T10:55:07Z</time>
      </trkpt>
      <trkpt lat="45.0785" lon="6.80393">
        <ele>2521.87</ele>
        <time>2017-01-05T10:55:10Z</time>
      </trkpt>
      <trkpt lat="45.0784" lon="6.80391">
        <ele>2518.46</ele>
        <time>2017-01-05T10:55:12Z</time>
      </trkpt>
      <trkpt lat="45.07816" lon="6.80397">
        <ele>2513.59</ele>
        <time>2017-01-05T10:55:17Z</time>
      </trkpt>
      <trkpt lat="45.07796" lon="6.80402">
        <ele>2510.93</ele>
        <time>2017-01-05T10:55:21Z</time>
      </trkpt>
      <trkpt lat="45.07783" lon="6.80399">
        <ele>2508.5</ele>
        <time>2017-01-05T10:55:24Z</time>
      </trkpt>
      <trkpt lat="45.07772" lon="6.80397">
        <ele>2505.55</ele>
        <time>2017-01-05T10:55:27Z</time>
      </trkpt>
      <trkpt lat="45.0776" lon="6.80395">
        <ele>2501</ele>
        <time>2017-01-05T10:55:33Z</time>
      </trkpt>
      <trkpt lat="45.07767" lon="6.80385">
        <ele>2501.16</ele>
        <time>2017-01-05T10:55:36Z</time>
      </trkpt>
      <trkpt lat="45.07788" lon="6.80374">
        <ele>2502.65</ele>
        <time>2017-01-05T10:55:41Z</time>
      </trkpt>
      <trkpt lat="45.07804" lon="6.80355">
        <ele>2501.65</ele>
        <time>2017-01-05T10:55:46Z</time>
      </trkpt>
      <trkpt lat="45.07815" lon="6.80333">
        <ele>2500.17</ele>
        <time>2017-01-05T10:55:50Z</time>
      </trkpt>
      <trkpt lat="45.0783" lon="6.80311">
        <ele>2496.84</ele>
        <time>2017-01-05T10:55:55Z</time>
      </trkpt>
      <trkpt lat="45.07835" lon="6.80295">
        <ele>2494.41</ele>
        <time>2017-01-05T10:55:58Z</time>
      </trkpt>
      <trkpt lat="45.07828" lon="6.80282">
        <ele>2490.4</ele>
        <time>2017-01-05T10:56:01Z</time>
      </trkpt>
      <trkpt lat="45.07816" lon="6.80282">
        <ele>2487.3</ele>
        <time>2017-01-05T10:56:04Z</time>
      </trkpt>
      <trkpt lat="45.07803" lon="6.80282">
        <ele>2484.46</ele>
        <time>2017-01-05T10:56:07Z</time>
      </trkpt>
      <trkpt lat="45.07791" lon="6.80284">
        <ele>2482.97</ele>
        <time>2017-01-05T10:56:10Z</time>
      </trkpt>
      <trkpt lat="45.07779" lon="6.80287">
        <ele>2481.45</ele>
        <time>2017-01-05T10:56:13Z</time>
      </trkpt>
      <trkpt lat="45.07767" lon="6.80285">
        <ele>2479.86</ele>
        <time>2017-01-05T10:56:16Z</time>
      </trkpt>
      <trkpt lat="45.07754" lon="6.80282">
        <ele>2478.08</ele>
        <time>2017-01-05T10:56:19Z</time>
      </trkpt>
      <trkpt lat="45.07743" lon="6.80283">
        <ele>2475.3</ele>
        <time>2017-01-05T10:56:22Z</time>
      </trkpt>
      <trkpt lat="45.07722" lon="6.80287">
        <ele>2468.86</ele>
        <time>2017-01-05T10:56:28Z</time>
      </trkpt>
      <trkpt lat="45.07711" lon="6.8029">
        <ele>2464.86</ele>
        <time>2017-01-05T10:56:31Z</time>
      </trkpt>
      <trkpt lat="45.07699" lon="6.80296">
        <ele>2461.23</ele>
        <time>2017-01-05T10:56:34Z</time>
      </trkpt>
      <trkpt lat="45.07692" lon="6.8032">
        <ele>2463.84</ele>
        <time>2017-01-05T10:56:38Z</time>
      </trkpt>
      <trkpt lat="45.07682" lon="6.80342">
        <ele>2465.29</ele>
        <time>2017-01-05T10:56:42Z</time>
      </trkpt>
      <trkpt lat="45.07666" lon="6.80363">
        <ele>2463.53</ele>
        <time>2017-01-05T10:56:48Z</time>
      </trkpt>
      <trkpt lat="45.07659" lon="6.80374">
        <ele>2460.72</ele>
        <time>2017-01-05T10:56:50Z</time>
      </trkpt>
      <trkpt lat="45.07655" lon="6.80387">
        <ele>2459.52</ele>
        <time>2017-01-05T10:56:52Z</time>
      </trkpt>
      <trkpt lat="45.07653" lon="6.80401">
        <ele>2458.06</ele>
        <time>2017-01-05T10:56:54Z</time>
      </trkpt>
      <trkpt lat="45.07648" lon="6.80413">
        <ele>2454.77</ele>
        <time>2017-01-05T10:56:56Z</time>
      </trkpt>
      <trkpt lat="45.07642" lon="6.80428">
        <ele>2451.98</ele>
        <time>2017-01-05T10:56:59Z</time>
      </trkpt>
      <trkpt lat="45.07637" lon="6.80456">
        <ele>2451.93</ele>
        <time>2017-01-05T10:57:03Z</time>
      </trkpt>
      <trkpt lat="45.07632" lon="6.80482">
        <ele>2452.75</ele>
        <time>2017-01-05T10:57:07Z</time>
      </trkpt>
      <trkpt lat="45.07624" lon="6.80496">
        <ele>2450.72</ele>
        <time>2017-01-05T10:57:10Z</time>
      </trkpt>
      <trkpt lat="45.07618" lon="6.80522">
        <ele>2448.06</ele>
        <time>2017-01-05T10:57:14Z</time>
      </trkpt>
      <trkpt lat="45.07618" lon="6.80536">
        <ele>2447.43</ele>
        <time>2017-01-05T10:57:16Z</time>
      </trkpt>
      <trkpt lat="45.0762" lon="6.80562">
        <ele>2446.31</ele>
        <time>2017-01-05T10:57:20Z</time>
      </trkpt>
      <trkpt lat="45.07619" lon="6.80581">
        <ele>2443.45</ele>
        <time>2017-01-05T10:57:23Z</time>
      </trkpt>
      <trkpt lat="45.07617" lon="6.806">
        <ele>2438.88</ele>
        <time>2017-01-05T10:57:25Z</time>
      </trkpt>
      <trkpt lat="45.07622" lon="6.80627">
        <ele>2437.12</ele>
        <time>2017-01-05T10:57:29Z</time>
      </trkpt>
      <trkpt lat="45.07621" lon="6.80644">
        <ele>2434.83</ele>
        <time>2017-01-05T10:57:32Z</time>
      </trkpt>
      <trkpt lat="45.07621" lon="6.80658">
        <ele>2434.98</ele>
        <time>2017-01-05T10:57:34Z</time>
      </trkpt>
      <trkpt lat="45.07621" lon="6.80686">
        <ele>2434.47</ele>
        <time>2017-01-05T10:57:38Z</time>
      </trkpt>
      <trkpt lat="45.07621" lon="6.80706">
        <ele>2432.84</ele>
        <time>2017-01-05T10:57:41Z</time>
      </trkpt>
      <trkpt lat="45.07623" lon="6.80724">
        <ele>2432.5</ele>
        <time>2017-01-05T10:57:44Z</time>
      </trkpt>
      <trkpt lat="45.07626" lon="6.80753">
        <ele>2431.58</ele>
        <time>2017-01-05T10:57:48Z</time>
      </trkpt>
      <trkpt lat="45.07623" lon="6.80766">
        <ele>2427.38</ele>
        <time>2017-01-05T10:57:50Z</time>
      </trkpt>
      <trkpt lat="45.07616" lon="6.80777">
        <ele>2421.51</ele>
        <time>2017-01-05T10:57:52Z</time>
      </trkpt>
      <trkpt lat="45.07612" lon="6.80789">
        <ele>2418.16</ele>
        <time>2017-01-05T10:57:54Z</time>
      </trkpt>
      <trkpt lat="45.07611" lon="6.80816">
        <ele>2416.3</ele>
        <time>2017-01-05T10:57:58Z</time>
      </trkpt>
      <trkpt lat="45.07607" lon="6.80848">
        <ele>2412.78</ele>
        <time>2017-01-05T10:58:03Z</time>
      </trkpt>
      <trkpt lat="45.07598" lon="6.80877">
        <ele>2404.74</ele>
        <time>2017-01-05T10:58:08Z</time>
      </trkpt>
      <trkpt lat="45.07602" lon="6.80893">
        <ele>2405</ele>
        <time>2017-01-05T10:58:11Z</time>
      </trkpt>
      <trkpt lat="45.076" lon="6.80921">
        <ele>2401.34</ele>
        <time>2017-01-05T10:58:16Z</time>
      </trkpt>
      <trkpt lat="45.07603" lon="6.80936">
        <ele>2402.06</ele>
        <time>2017-01-05T10:58:18Z</time>
      </trkpt>
      <trkpt lat="45.07607" lon="6.80954">
        <ele>2402.61</ele>
        <time>2017-01-05T10:58:20Z</time>
      </trkpt>
      <trkpt lat="45.07612" lon="6.8097">
        <ele>2403.77</ele>
        <time>2017-01-05T10:58:22Z</time>
      </trkpt>
      <trkpt lat="45.07618" lon="6.80984">
        <ele>2404.87</ele>
        <time>2017-01-05T10:58:24Z</time>
      </trkpt>
      <trkpt lat="45.0762" lon="6.81">
        <ele>2403.62</ele>
        <time>2017-01-05T10:58:26Z</time>
      </trkpt>
      <trkpt lat="45.07621" lon="6.8102">
        <ele>2401.2</ele>
        <time>2017-01-05T10:58:29Z</time>
      </trkpt>
      <trkpt lat="45.07623" lon="6.81036">
        <ele>2400.9</ele>
        <time>2017-01-05T10:58:32Z</time>
      </trkpt>
      <trkpt lat="45.07628" lon="6.81052">
        <ele>2403.64</ele>
        <time>2017-01-05T10:58:36Z</time>
      </trkpt>
      <trkpt lat="45.07628" lon="6.81069">
        <ele>2405.71</ele>
        <time>2017-01-05T10:58:39Z</time>
      </trkpt>
      <trkpt lat="45.07626" lon="6.81097">
        <ele>2409.38</ele>
        <time>2017-01-05T10:58:43Z</time>
      </trkpt>
      <trkpt lat="45.07624" lon="6.81111">
        <ele>2411.2</ele>
        <time>2017-01-05T10:58:45Z</time>
      </trkpt>
      <trkpt lat="45.07615" lon="6.81126">
        <ele>2407.76</ele>
        <time>2017-01-05T10:58:48Z</time>
      </trkpt>
      <trkpt lat="45.07606" lon="6.81135">
        <ele>2404.43</ele>
        <time>2017-01-05T10:58:50Z</time>
      </trkpt>
      <trkpt lat="45.0759" lon="6.81154">
        <ele>2402.09</ele>
        <time>2017-01-05T10:58:54Z</time>
      </trkpt>
      <trkpt lat="45.0758" lon="6.81161">
        <ele>2399.87</ele>
        <time>2017-01-05T10:58:57Z</time>
      </trkpt>
      <trkpt lat="45.0757" lon="6.81167">
        <ele>2396.36</ele>
        <time>2017-01-05T10:58:59Z</time>
      </trkpt>
      <trkpt lat="45.07548" lon="6.8117">
        <ele>2386.65</ele>
        <time>2017-01-05T10:59:02Z</time>
      </trkpt>
      <trkpt lat="45.07537" lon="6.81172">
        <ele>2382.22</ele>
        <time>2017-01-05T10:59:04Z</time>
      </trkpt>
      <trkpt lat="45.07526" lon="6.81176">
        <ele>2378.75</ele>
        <time>2017-01-05T10:59:06Z</time>
      </trkpt>
      <trkpt lat="45.07515" lon="6.81183">
        <ele>2378.22</ele>
        <time>2017-01-05T10:59:08Z</time>
      </trkpt>
      <trkpt lat="45.07504" lon="6.81191">
        <ele>2378.2</ele>
        <time>2017-01-05T10:59:10Z</time>
      </trkpt>
      <trkpt lat="45.07497" lon="6.81204">
        <ele>2379.34</ele>
        <time>2017-01-05T10:59:12Z</time>
      </trkpt>
      <trkpt lat="45.0749" lon="6.81217">
        <ele>2380.37</ele>
        <time>2017-01-05T10:59:14Z</time>
      </trkpt>
      <trkpt lat="45.07483" lon="6.81229">
        <ele>2380.88</ele>
        <time>2017-01-05T10:59:16Z</time>
      </trkpt>
      <trkpt lat="45.07477" lon="6.8124">
        <ele>2380.55</ele>
        <time>2017-01-05T10:59:18Z</time>
      </trkpt>
      <trkpt lat="45.07465" lon="6.81262">
        <ele>2378.61</ele>
        <time>2017-01-05T10:59:22Z</time>
      </trkpt>
      <trkpt lat="45.07458" lon="6.81277">
        <ele>2376.57</ele>
        <time>2017-01-05T10:59:25Z</time>
      </trkpt>
      <trkpt lat="45.07445" lon="6.81302">
        <ele>2373.95</ele>
        <time>2017-01-05T10:59:30Z</time>
      </trkpt>
      <trkpt lat="45.07441" lon="6.8132">
        <ele>2373.07</ele>
        <time>2017-01-05T10:59:33Z</time>
      </trkpt>
      <trkpt lat="45.07435" lon="6.81345">
        <ele>2369.54</ele>
        <time>2017-01-05T10:59:37Z</time>
      </trkpt>
      <trkpt lat="45.07432" lon="6.81362">
        <ele>2367.16</ele>
        <time>2017-01-05T10:59:40Z</time>
      </trkpt>
      <trkpt lat="45.07428" lon="6.81388">
        <ele>2363.65</ele>
        <time>2017-01-05T10:59:44Z</time>
      </trkpt>
      <trkpt lat="45.07423" lon="6.81418">
        <ele>2360.22</ele>
        <time>2017-01-05T10:59:49Z</time>
      </trkpt>
      <trkpt lat="45.07415" lon="6.81444">
        <ele>2356.21</ele>
        <time>2017-01-05T10:59:53Z</time>
      </trkpt>
      <trkpt lat="45.07412" lon="6.81458">
        <ele>2355.71</ele>
        <time>2017-01-05T10:59:55Z</time>
      </trkpt>
      <trkpt lat="45.07406" lon="6.81485">
        <ele>2354.64</ele>
        <time>2017-01-05T10:59:59Z</time>
      </trkpt>
      <trkpt lat="45.07401" lon="6.81511">
        <ele>2353.65</ele>
        <time>2017-01-05T11:00:03Z</time>
      </trkpt>
      <trkpt lat="45.0739" lon="6.81531">
        <ele>2350.28</ele>
        <time>2017-01-05T11:00:07Z</time>
      </trkpt>
      <trkpt lat="45.07385" lon="6.81549">
        <ele>2344.42</ele>
        <time>2017-01-05T11:00:10Z</time>
      </trkpt>
      <trkpt lat="45.07387" lon="6.81566">
        <ele>2340.08</ele>
        <time>2017-01-05T11:00:13Z</time>
      </trkpt>
      <trkpt lat="45.07401" lon="6.81582">
        <ele>2337.79</ele>
        <time>2017-01-05T11:00:17Z</time>
      </trkpt>
      <trkpt lat="45.07412" lon="6.8159">
        <ele>2337.88</ele>
        <time>2017-01-05T11:00:19Z</time>
      </trkpt>
      <trkpt lat="45.07426" lon="6.81606">
        <ele>2333.28</ele>
        <time>2017-01-05T11:00:32Z</time>
      </trkpt>
      <trkpt lat="45.07408" lon="6.81595">
        <ele>2335.91</ele>
        <time>2017-01-05T11:00:40Z</time>
      </trkpt>
      <trkpt lat="45.07397" lon="6.81588">
        <ele>2335.52</ele>
        <time>2017-01-05T11:00:43Z</time>
      </trkpt>
      <trkpt lat="45.07385" lon="6.81582">
        <ele>2335.15</ele>
        <time>2017-01-05T11:00:46Z</time>
      </trkpt>
      <trkpt lat="45.07374" lon="6.81581">
        <ele>2334.84</ele>
        <time>2017-01-05T11:00:50Z</time>
      </trkpt>
      <trkpt lat="45.07364" lon="6.81573">
        <ele>2335.08</ele>
        <time>2017-01-05T11:00:54Z</time>
      </trkpt>
      <trkpt lat="45.07362" lon="6.81555">
        <ele>2336.29</ele>
        <time>2017-01-05T11:00:57Z</time>
      </trkpt>
      <trkpt lat="45.07362" lon="6.81539">
        <ele>2337.36</ele>
        <time>2017-01-05T11:00:58Z</time>
      </trkpt>
      <trkpt lat="45.0736" lon="6.81521">
        <ele>2336.9</ele>
        <time>2017-01-05T11:01:01Z</time>
      </trkpt>
      <trkpt lat="45.0736" lon="6.81504">
        <ele>2335.85</ele>
        <time>2017-01-05T11:01:03Z</time>
      </trkpt>
      <trkpt lat="45.07358" lon="6.81489">
        <ele>2333.24</ele>
        <time>2017-01-05T11:01:05Z</time>
      </trkpt>
      <trkpt lat="45.07358" lon="6.81475">
        <ele>2332.47</ele>
        <time>2017-01-05T11:01:07Z</time>
      </trkpt>
      <trkpt lat="45.07365" lon="6.8146">
        <ele>2334.61</ele>
        <time>2017-01-05T11:01:09Z</time>
      </trkpt>
      <trkpt lat="45.07365" lon="6.81431">
        <ele>2332.91</ele>
        <time>2017-01-05T11:01:12Z</time>
      </trkpt>
      <trkpt lat="45.07361" lon="6.81414">
        <ele>2330.85</ele>
        <time>2017-01-05T11:01:14Z</time>
      </trkpt>
      <trkpt lat="45.07358" lon="6.81399">
        <ele>2328.97</ele>
        <time>2017-01-05T11:01:16Z</time>
      </trkpt>
      <trkpt lat="45.07358" lon="6.81383">
        <ele>2328.39</ele>
        <time>2017-01-05T11:01:18Z</time>
      </trkpt>
      <trkpt lat="45.07357" lon="6.81369">
        <ele>2327.14</ele>
        <time>2017-01-05T11:01:20Z</time>
      </trkpt>
      <trkpt lat="45.07354" lon="6.81352">
        <ele>2324.66</ele>
        <time>2017-01-05T11:01:22Z</time>
      </trkpt>
      <trkpt lat="45.07353" lon="6.81335">
        <ele>2323.66</ele>
        <time>2017-01-05T11:01:24Z</time>
      </trkpt>
      <trkpt lat="45.07353" lon="6.8132">
        <ele>2323.7</ele>
        <time>2017-01-05T11:01:26Z</time>
      </trkpt>
      <trkpt lat="45.07354" lon="6.813">
        <ele>2324.17</ele>
        <time>2017-01-05T11:01:29Z</time>
      </trkpt>
      <trkpt lat="45.07351" lon="6.81284">
        <ele>2320.95</ele>
        <time>2017-01-05T11:01:31Z</time>
      </trkpt>
      <trkpt lat="45.07359" lon="6.81253">
        <ele>2323.81</ele>
        <time>2017-01-05T11:01:36Z</time>
      </trkpt>
      <trkpt lat="45.0736" lon="6.81236">
        <ele>2323.12</ele>
        <time>2017-01-05T11:01:39Z</time>
      </trkpt>
      <trkpt lat="45.07363" lon="6.81218">
        <ele>2323.17</ele>
        <time>2017-01-05T11:01:42Z</time>
      </trkpt>
      <trkpt lat="45.07369" lon="6.81202">
        <ele>2323.5</ele>
        <time>2017-01-05T11:01:45Z</time>
      </trkpt>
      <trkpt lat="45.07376" lon="6.81192">
        <ele>2324.85</ele>
        <time>2017-01-05T11:01:47Z</time>
      </trkpt>
      <trkpt lat="45.07387" lon="6.81169">
        <ele>2324.74</ele>
        <time>2017-01-05T11:01:51Z</time>
      </trkpt>
      <trkpt lat="45.07394" lon="6.81158">
        <ele>2322.8</ele>
        <time>2017-01-05T11:01:53Z</time>
      </trkpt>
      <trkpt lat="45.07404" lon="6.81149">
        <ele>2322.16</ele>
        <time>2017-01-05T11:01:56Z</time>
      </trkpt>
      <trkpt lat="45.07418" lon="6.81127">
        <ele>2320.64</ele>
        <time>2017-01-05T11:02:01Z</time>
      </trkpt>
      <trkpt lat="45.07424" lon="6.811">
        <ele>2317.2</ele>
        <time>2017-01-05T11:02:05Z</time>
      </trkpt>
      <trkpt lat="45.07423" lon="6.81085">
        <ele>2313.77</ele>
        <time>2017-01-05T11:02:07Z</time>
      </trkpt>
      <trkpt lat="45.0742" lon="6.81054">
        <ele>2311.92</ele>
        <time>2017-01-05T11:02:12Z</time>
      </trkpt>
      <trkpt lat="45.07419" lon="6.81039">
        <ele>2312.06</ele>
        <time>2017-01-05T11:02:15Z</time>
      </trkpt>
      <trkpt lat="45.07424" lon="6.81023">
        <ele>2312.84</ele>
        <time>2017-01-05T11:02:18Z</time>
      </trkpt>
      <trkpt lat="45.07428" lon="6.81009">
        <ele>2311.97</ele>
        <time>2017-01-05T11:02:24Z</time>
      </trkpt>
      <trkpt lat="45.07418" lon="6.81004">
        <ele>2308.89</ele>
        <time>2017-01-05T11:02:28Z</time>
      </trkpt>
      <trkpt lat="45.07404" lon="6.81023">
        <ele>2306.92</ele>
        <time>2017-01-05T11:02:33Z</time>
      </trkpt>
      <trkpt lat="45.07402" lon="6.81037">
        <ele>2306.25</ele>
        <time>2017-01-05T11:02:35Z</time>
      </trkpt>
      <trkpt lat="45.07401" lon="6.81063">
        <ele>2305.13</ele>
        <time>2017-01-05T11:02:40Z</time>
      </trkpt>
      <trkpt lat="45.07395" lon="6.81075">
        <ele>2302.11</ele>
        <time>2017-01-05T11:02:43Z</time>
      </trkpt>
      <trkpt lat="45.07388" lon="6.81092">
        <ele>2299.87</ele>
        <time>2017-01-05T11:02:46Z</time>
      </trkpt>
      <trkpt lat="45.07379" lon="6.81115">
        <ele>2300.98</ele>
        <time>2017-01-05T11:02:50Z</time>
      </trkpt>
      <trkpt lat="45.07367" lon="6.81123">
        <ele>2298.72</ele>
        <time>2017-01-05T11:02:53Z</time>
      </trkpt>
      <trkpt lat="45.07356" lon="6.81124">
        <ele>2294.08</ele>
        <time>2017-01-05T11:02:55Z</time>
      </trkpt>
      <trkpt lat="45.07345" lon="6.81145">
        <ele>2293.88</ele>
        <time>2017-01-05T11:02:59Z</time>
      </trkpt>
      <trkpt lat="45.07336" lon="6.81152">
        <ele>2289.96</ele>
        <time>2017-01-05T11:03:01Z</time>
      </trkpt>
      <trkpt lat="45.07326" lon="6.81161">
        <ele>2286.01</ele>
        <time>2017-01-05T11:03:03Z</time>
      </trkpt>
      <trkpt lat="45.07313" lon="6.81164">
        <ele>2279.41</ele>
        <time>2017-01-05T11:03:05Z</time>
      </trkpt>
      <trkpt lat="45.07293" lon="6.81184">
        <ele>2272.62</ele>
        <time>2017-01-05T11:03:10Z</time>
      </trkpt>
      <trkpt lat="45.07283" lon="6.81191">
        <ele>2268.55</ele>
        <time>2017-01-05T11:03:12Z</time>
      </trkpt>
      <trkpt lat="45.0728" lon="6.81207">
        <ele>2267.92</ele>
        <time>2017-01-05T11:03:16Z</time>
      </trkpt>
      <trkpt lat="45.07276" lon="6.81223">
        <ele>2267.5</ele>
        <time>2017-01-05T11:03:20Z</time>
      </trkpt>
      <trkpt lat="45.0728" lon="6.8126">
        <ele>2275.95</ele>
        <time>2017-01-05T11:03:24Z</time>
      </trkpt>
      <trkpt lat="45.07286" lon="6.81272">
        <ele>2280.53</ele>
        <time>2017-01-05T11:03:25Z</time>
      </trkpt>
      <trkpt lat="45.07275" lon="6.8128">
        <ele>2276.64</ele>
        <time>2017-01-05T11:03:27Z</time>
      </trkpt>
      <trkpt lat="45.07269" lon="6.81294">
        <ele>2274.95</ele>
        <time>2017-01-05T11:03:29Z</time>
      </trkpt>
      <trkpt lat="45.07268" lon="6.8132">
        <ele>2275.21</ele>
        <time>2017-01-05T11:03:31Z</time>
      </trkpt>
      <trkpt lat="45.07268" lon="6.81351">
        <ele>2275.96</ele>
        <time>2017-01-05T11:03:36Z</time>
      </trkpt>
      <trkpt lat="45.07271" lon="6.81368">
        <ele>2278.35</ele>
        <time>2017-01-05T11:03:38Z</time>
      </trkpt>
      <trkpt lat="45.07265" lon="6.81379">
        <ele>2274.09</ele>
        <time>2017-01-05T11:03:40Z</time>
      </trkpt>
      <trkpt lat="45.07264" lon="6.81393">
        <ele>2273.49</ele>
        <time>2017-01-05T11:03:42Z</time>
      </trkpt>
      <trkpt lat="45.07261" lon="6.81411">
        <ele>2270.01</ele>
        <time>2017-01-05T11:03:43Z</time>
      </trkpt>
      <trkpt lat="45.07257" lon="6.81425">
        <ele>2267.08</ele>
        <time>2017-01-05T11:03:45Z</time>
      </trkpt>
      <trkpt lat="45.07251" lon="6.81441">
        <ele>2263.64</ele>
        <time>2017-01-05T11:03:47Z</time>
      </trkpt>
      <trkpt lat="45.0724" lon="6.81467">
        <ele>2263.61</ele>
        <time>2017-01-05T11:03:51Z</time>
      </trkpt>
      <trkpt lat="45.07238" lon="6.81481">
        <ele>2265.31</ele>
        <time>2017-01-05T11:03:53Z</time>
      </trkpt>
      <trkpt lat="45.07234" lon="6.815">
        <ele>2265.37</ele>
        <time>2017-01-05T11:03:56Z</time>
      </trkpt>
      <trkpt lat="45.07226" lon="6.81524">
        <ele>2264.53</ele>
        <time>2017-01-05T11:04:00Z</time>
      </trkpt>
      <trkpt lat="45.07214" lon="6.81539">
        <ele>2260.6</ele>
        <time>2017-01-05T11:04:03Z</time>
      </trkpt>
      <trkpt lat="45.07201" lon="6.81557">
        <ele>2257.78</ele>
        <time>2017-01-05T11:04:08Z</time>
      </trkpt>
      <trkpt lat="45.07195" lon="6.81573">
        <ele>2257.55</ele>
        <time>2017-01-05T11:04:10Z</time>
      </trkpt>
      <trkpt lat="45.07185" lon="6.81579">
        <ele>2252.88</ele>
        <time>2017-01-05T11:04:12Z</time>
      </trkpt>
      <trkpt lat="45.07175" lon="6.81606">
        <ele>2252</ele>
        <time>2017-01-05T11:04:16Z</time>
      </trkpt>
      <trkpt lat="45.07166" lon="6.81621">
        <ele>2248.8</ele>
        <time>2017-01-05T11:04:18Z</time>
      </trkpt>
      <trkpt lat="45.07156" lon="6.8164">
        <ele>2244.02</ele>
        <time>2017-01-05T11:04:21Z</time>
      </trkpt>
      <trkpt lat="45.07158" lon="6.81659">
        <ele>2248.92</ele>
        <time>2017-01-05T11:04:23Z</time>
      </trkpt>
      <trkpt lat="45.0715" lon="6.8167">
        <ele>2244.34</ele>
        <time>2017-01-05T11:04:25Z</time>
      </trkpt>
      <trkpt lat="45.07146" lon="6.81685">
        <ele>2243.17</ele>
        <time>2017-01-05T11:04:28Z</time>
      </trkpt>
      <trkpt lat="45.07145" lon="6.817">
        <ele>2244.54</ele>
        <time>2017-01-05T11:04:30Z</time>
      </trkpt>
      <trkpt lat="45.07134" lon="6.81726">
        <ele>2241.63</ele>
        <time>2017-01-05T11:04:34Z</time>
      </trkpt>
      <trkpt lat="45.07128" lon="6.81743">
        <ele>2242.5</ele>
        <time>2017-01-05T11:04:37Z</time>
      </trkpt>
      <trkpt lat="45.07121" lon="6.81756">
        <ele>2241.01</ele>
        <time>2017-01-05T11:04:39Z</time>
      </trkpt>
      <trkpt lat="45.07111" lon="6.81767">
        <ele>2238.5</ele>
        <time>2017-01-05T11:04:42Z</time>
      </trkpt>
      <trkpt lat="45.07094" lon="6.81774">
        <ele>2231.33</ele>
        <time>2017-01-05T11:04:45Z</time>
      </trkpt>
      <trkpt lat="45.07085" lon="6.81786">
        <ele>2228.14</ele>
        <time>2017-01-05T11:04:48Z</time>
      </trkpt>
      <trkpt lat="45.07076" lon="6.81798">
        <ele>2224.54</ele>
        <time>2017-01-05T11:04:51Z</time>
      </trkpt>
      <trkpt lat="45.07068" lon="6.8181">
        <ele>2222.93</ele>
        <time>2017-01-05T11:04:54Z</time>
      </trkpt>
      <trkpt lat="45.0706" lon="6.81818">
        <ele>2220.34</ele>
        <time>2017-01-05T11:04:56Z</time>
      </trkpt>
      <trkpt lat="45.07062" lon="6.81837">
        <ele>2220.25</ele>
        <time>2017-01-05T11:04:59Z</time>
      </trkpt>
      <trkpt lat="45.07074" lon="6.8184">
        <ele>2223.08</ele>
        <time>2017-01-05T11:05:02Z</time>
      </trkpt>
      <trkpt lat="45.07085" lon="6.81839">
        <ele>2226.87</ele>
        <time>2017-01-05T11:05:04Z</time>
      </trkpt>
      <trkpt lat="45.07094" lon="6.81846">
        <ele>2226.26</ele>
        <time>2017-01-05T11:05:06Z</time>
      </trkpt>
      <trkpt lat="45.07103" lon="6.81843">
        <ele>2229.4</ele>
        <time>2017-01-05T11:05:09Z</time>
      </trkpt>
      <trkpt lat="45.07116" lon="6.81841">
        <ele>2231.52</ele>
        <time>2017-01-05T11:05:12Z</time>
      </trkpt>
      <trkpt lat="45.07128" lon="6.81831">
        <ele>2235.23</ele>
        <time>2017-01-05T11:05:14Z</time>
      </trkpt>
      <trkpt lat="45.0715" lon="6.81828">
        <ele>2236.23</ele>
        <time>2017-01-05T11:05:18Z</time>
      </trkpt>
      <trkpt lat="45.07161" lon="6.8183">
        <ele>2234.32</ele>
        <time>2017-01-05T11:05:20Z</time>
      </trkpt>
      <trkpt lat="45.07172" lon="6.81825">
        <ele>2236.18</ele>
        <time>2017-01-05T11:05:23Z</time>
      </trkpt>
      <trkpt lat="45.07181" lon="6.81817">
        <ele>2241.88</ele>
        <time>2017-01-05T11:05:25Z</time>
      </trkpt>
      <trkpt lat="45.07192" lon="6.81811">
        <ele>2247.67</ele>
        <time>2017-01-05T11:05:27Z</time>
      </trkpt>
      <trkpt lat="45.07204" lon="6.81811">
        <ele>2246.58</ele>
        <time>2017-01-05T11:05:29Z</time>
      </trkpt>
      <trkpt lat="45.07223" lon="6.81805">
        <ele>2247.16</ele>
        <time>2017-01-05T11:05:33Z</time>
      </trkpt>
      <trkpt lat="45.07235" lon="6.81806">
        <ele>2241.16</ele>
        <time>2017-01-05T11:05:35Z</time>
      </trkpt>
      <trkpt lat="45.07248" lon="6.818">
        <ele>2241.87</ele>
        <time>2017-01-05T11:05:37Z</time>
      </trkpt>
      <trkpt lat="45.07258" lon="6.81791">
        <ele>2250.45</ele>
        <time>2017-01-05T11:05:39Z</time>
      </trkpt>
      <trkpt lat="45.07269" lon="6.81788">
        <ele>2250.33</ele>
        <time>2017-01-05T11:05:42Z</time>
      </trkpt>
      <trkpt lat="45.07279" lon="6.81781">
        <ele>2255.57</ele>
        <time>2017-01-05T11:05:45Z</time>
      </trkpt>
      <trkpt lat="45.07291" lon="6.81779">
        <ele>2255.12</ele>
        <time>2017-01-05T11:05:48Z</time>
      </trkpt>
      <trkpt lat="45.07302" lon="6.8178">
        <ele>2250.28</ele>
        <time>2017-01-05T11:05:52Z</time>
      </trkpt>
      <trkpt lat="45.07314" lon="6.81774">
        <ele>2253.24</ele>
        <time>2017-01-05T11:05:55Z</time>
      </trkpt>
      <trkpt lat="45.07326" lon="6.81773">
        <ele>2252.38</ele>
        <time>2017-01-05T11:05:57Z</time>
      </trkpt>
      <trkpt lat="45.0734" lon="6.81776">
        <ele>2249.55</ele>
        <time>2017-01-05T11:06:00Z</time>
      </trkpt>
      <trkpt lat="45.07352" lon="6.81779">
        <ele>2246.94</ele>
        <time>2017-01-05T11:06:04Z</time>
      </trkpt>
      <trkpt lat="45.07374" lon="6.81782">
        <ele>2245.77</ele>
        <time>2017-01-05T11:06:10Z</time>
      </trkpt>
      <trkpt lat="45.07386" lon="6.81784">
        <ele>2246.24</ele>
        <time>2017-01-05T11:06:12Z</time>
      </trkpt>
      <trkpt lat="45.07396" lon="6.81786">
        <ele>2245.14</ele>
        <time>2017-01-05T11:06:14Z</time>
      </trkpt>
      <trkpt lat="45.07418" lon="6.81777">
        <ele>2248.44</ele>
        <time>2017-01-05T11:06:20Z</time>
      </trkpt>
      <trkpt lat="45.07438" lon="6.81772">
        <ele>2251.69</ele>
        <time>2017-01-05T11:06:25Z</time>
      </trkpt>
      <trkpt lat="45.07463" lon="6.81781">
        <ele>2246.27</ele>
        <time>2017-01-05T11:06:29Z</time>
      </trkpt>
      <trkpt lat="45.07479" lon="6.8178">
        <ele>2246.53</ele>
        <time>2017-01-05T11:06:31Z</time>
      </trkpt>
      <trkpt lat="45.07493" lon="6.81785">
        <ele>2245.61</ele>
        <time>2017-01-05T11:06:34Z</time>
      </trkpt>
      <trkpt lat="45.07505" lon="6.81794">
        <ele>2242.99</ele>
        <time>2017-01-05T11:06:37Z</time>
      </trkpt>
      <trkpt lat="45.07525" lon="6.81803">
        <ele>2238.48</ele>
        <time>2017-01-05T11:06:40Z</time>
      </trkpt>
      <trkpt lat="45.07541" lon="6.81814">
        <ele>2232.49</ele>
        <time>2017-01-05T11:06:43Z</time>
      </trkpt>
      <trkpt lat="45.07551" lon="6.81816">
        <ele>2231.08</ele>
        <time>2017-01-05T11:06:45Z</time>
      </trkpt>
      <trkpt lat="45.07571" lon="6.81811">
        <ele>2235.64</ele>
        <time>2017-01-05T11:06:49Z</time>
      </trkpt>
      <trkpt lat="45.07589" lon="6.81799">
        <ele>2244.24</ele>
        <time>2017-01-05T11:06:53Z</time>
      </trkpt>
      <trkpt lat="45.07599" lon="6.81794">
        <ele>2248.13</ele>
        <time>2017-01-05T11:06:55Z</time>
      </trkpt>
      <trkpt lat="45.0761" lon="6.81791">
        <ele>2251.39</ele>
        <time>2017-01-05T11:06:57Z</time>
      </trkpt>
      <trkpt lat="45.0762" lon="6.81813">
        <ele>2244.64</ele>
        <time>2017-01-05T11:07:01Z</time>
      </trkpt>
      <trkpt lat="45.07622" lon="6.81829">
        <ele>2239.75</ele>
        <time>2017-01-05T11:07:04Z</time>
      </trkpt>
      <trkpt lat="45.0763" lon="6.81842">
        <ele>2238.93</ele>
        <time>2017-01-05T11:07:07Z</time>
      </trkpt>
      <trkpt lat="45.0764" lon="6.81852">
        <ele>2241.15</ele>
        <time>2017-01-05T11:07:09Z</time>
      </trkpt>
      <trkpt lat="45.07657" lon="6.81869">
        <ele>2243.22</ele>
        <time>2017-01-05T11:07:14Z</time>
      </trkpt>
      <trkpt lat="45.07663" lon="6.81881">
        <ele>2241.98</ele>
        <time>2017-01-05T11:07:17Z</time>
      </trkpt>
      <trkpt lat="45.07667" lon="6.81897">
        <ele>2237.58</ele>
        <time>2017-01-05T11:07:20Z</time>
      </trkpt>
      <trkpt lat="45.07665" lon="6.81925">
        <ele>2227.54</ele>
        <time>2017-01-05T11:07:25Z</time>
      </trkpt>
      <trkpt lat="45.07657" lon="6.81937">
        <ele>2224.17</ele>
        <time>2017-01-05T11:07:28Z</time>
      </trkpt>
      <trkpt lat="45.07647" lon="6.81945">
        <ele>2220.8</ele>
        <time>2017-01-05T11:07:31Z</time>
      </trkpt>
      <trkpt lat="45.0764" lon="6.81956">
        <ele>2218.85</ele>
        <time>2017-01-05T11:07:34Z</time>
      </trkpt>
      <trkpt lat="45.0764" lon="6.81971">
        <ele>2218.19</ele>
        <time>2017-01-05T11:07:37Z</time>
      </trkpt>
      <trkpt lat="45.07643" lon="6.81985">
        <ele>2218.86</ele>
        <time>2017-01-05T11:07:40Z</time>
      </trkpt>
      <trkpt lat="45.07649" lon="6.81998">
        <ele>2220.59</ele>
        <time>2017-01-05T11:07:43Z</time>
      </trkpt>
      <trkpt lat="45.07652" lon="6.82013">
        <ele>2221.31</ele>
        <time>2017-01-05T11:07:46Z</time>
      </trkpt>
      <trkpt lat="45.07649" lon="6.82028">
        <ele>2220.86</ele>
        <time>2017-01-05T11:07:49Z</time>
      </trkpt>
      <trkpt lat="45.07647" lon="6.82044">
        <ele>2218.59</ele>
        <time>2017-01-05T11:07:52Z</time>
      </trkpt>
      <trkpt lat="45.07649" lon="6.8206">
        <ele>2216.36</ele>
        <time>2017-01-05T11:07:55Z</time>
      </trkpt>
      <trkpt lat="45.07647" lon="6.82074">
        <ele>2213.11</ele>
        <time>2017-01-05T11:07:58Z</time>
      </trkpt>
      <trkpt lat="45.07639" lon="6.82083">
        <ele>2213.12</ele>
        <time>2017-01-05T11:08:02Z</time>
      </trkpt>
      <trkpt lat="45.0763" lon="6.82073">
        <ele>2214.17</ele>
        <time>2017-01-05T11:09:31Z</time>
      </trkpt>
      <trkpt lat="45.07612" lon="6.82071">
        <ele>2213.52</ele>
        <time>2017-01-05T12:32:43Z</time>
      </trkpt>
      <trkpt lat="45.07627" lon="6.82086">
        <ele>2211.8</ele>
        <time>2017-01-05T12:32:49Z</time>
      </trkpt>
      <trkpt lat="45.07644" lon="6.82074">
        <ele>2213.59</ele>
        <time>2017-01-05T12:32:56Z</time>
      </trkpt>
      <trkpt lat="45.07642" lon="6.82059">
        <ele>2216.43</ele>
        <time>2017-01-05T12:33:00Z</time>
      </trkpt>
      <trkpt lat="45.07647" lon="6.8203">
        <ele>2220.26</ele>
        <time>2017-01-05T12:33:05Z</time>
      </trkpt>
      <trkpt lat="45.07651" lon="6.82017">
        <ele>2221.17</ele>
        <time>2017-01-05T12:33:07Z</time>
      </trkpt>
      <trkpt lat="45.07648" lon="6.81998">
        <ele>2220.25</ele>
        <time>2017-01-05T12:33:10Z</time>
      </trkpt>
      <trkpt lat="45.07639" lon="6.81984">
        <ele>2218.05</ele>
        <time>2017-01-05T12:33:12Z</time>
      </trkpt>
      <trkpt lat="45.07638" lon="6.81966">
        <ele>2217.84</ele>
        <time>2017-01-05T12:33:15Z</time>
      </trkpt>
      <trkpt lat="45.07643" lon="6.81953">
        <ele>2219.64</ele>
        <time>2017-01-05T12:33:18Z</time>
      </trkpt>
      <trkpt lat="45.07652" lon="6.81945">
        <ele>2221.75</ele>
        <time>2017-01-05T12:33:21Z</time>
      </trkpt>
      <trkpt lat="45.07662" lon="6.81939">
        <ele>2224.74</ele>
        <time>2017-01-05T12:33:24Z</time>
      </trkpt>
      <trkpt lat="45.07666" lon="6.81925">
        <ele>2227.63</ele>
        <time>2017-01-05T12:33:28Z</time>
      </trkpt>
      <trkpt lat="45.07665" lon="6.81899">
        <ele>2236.07</ele>
        <time>2017-01-05T12:33:39Z</time>
      </trkpt>
      <trkpt lat="45.07663" lon="6.81881">
        <ele>2241.95</ele>
        <time>2017-01-05T12:33:42Z</time>
      </trkpt>
      <trkpt lat="45.07657" lon="6.81868">
        <ele>2243.61</ele>
        <time>2017-01-05T12:33:44Z</time>
      </trkpt>
      <trkpt lat="45.07649" lon="6.81853">
        <ele>2243.83</ele>
        <time>2017-01-05T12:33:46Z</time>
      </trkpt>
      <trkpt lat="45.07638" lon="6.81843">
        <ele>2241.06</ele>
        <time>2017-01-05T12:33:49Z</time>
      </trkpt>
      <trkpt lat="45.07629" lon="6.81834">
        <ele>2239.79</ele>
        <time>2017-01-05T12:33:52Z</time>
      </trkpt>
      <trkpt lat="45.07618" lon="6.8181">
        <ele>2245.09</ele>
        <time>2017-01-05T12:33:57Z</time>
      </trkpt>
      <trkpt lat="45.07603" lon="6.81791">
        <ele>2249.91</ele>
        <time>2017-01-05T12:34:03Z</time>
      </trkpt>
      <trkpt lat="45.07592" lon="6.8179">
        <ele>2249.06</ele>
        <time>2017-01-05T12:34:05Z</time>
      </trkpt>
      <trkpt lat="45.07582" lon="6.81794">
        <ele>2245.85</ele>
        <time>2017-01-05T12:34:08Z</time>
      </trkpt>
      <trkpt lat="45.07568" lon="6.81802">
        <ele>2240.07</ele>
        <time>2017-01-05T12:34:11Z</time>
      </trkpt>
      <trkpt lat="45.07558" lon="6.81804">
        <ele>2238.02</ele>
        <time>2017-01-05T12:34:13Z</time>
      </trkpt>
      <trkpt lat="45.07548" lon="6.81804">
        <ele>2237.93</ele>
        <time>2017-01-05T12:34:16Z</time>
      </trkpt>
      <trkpt lat="45.07537" lon="6.81803">
        <ele>2238.11</ele>
        <time>2017-01-05T12:39:18Z</time>
      </trkpt>
      <trkpt lat="45.07515" lon="6.81798">
        <ele>2241.44</ele>
        <time>2017-01-05T12:39:27Z</time>
      </trkpt>
      <trkpt lat="45.07506" lon="6.8179">
        <ele>2244.61</ele>
        <time>2017-01-05T12:39:28Z</time>
      </trkpt>
      <trkpt lat="45.07496" lon="6.81784">
        <ele>2246.54</ele>
        <time>2017-01-05T12:39:30Z</time>
      </trkpt>
      <trkpt lat="45.07486" lon="6.8178">
        <ele>2246.96</ele>
        <time>2017-01-05T12:39:32Z</time>
      </trkpt>
      <trkpt lat="45.07473" lon="6.81773">
        <ele>2248.98</ele>
        <time>2017-01-05T12:39:35Z</time>
      </trkpt>
      <trkpt lat="45.07451" lon="6.81764">
        <ele>2254.4</ele>
        <time>2017-01-05T12:39:40Z</time>
      </trkpt>
      <trkpt lat="45.07435" lon="6.81764">
        <ele>2254.63</ele>
        <time>2017-01-05T12:39:42Z</time>
      </trkpt>
      <trkpt lat="45.07425" lon="6.81772">
        <ele>2251.09</ele>
        <time>2017-01-05T12:39:44Z</time>
      </trkpt>
      <trkpt lat="45.07413" lon="6.81775">
        <ele>2249.7</ele>
        <time>2017-01-05T12:39:46Z</time>
      </trkpt>
      <trkpt lat="45.07401" lon="6.8178">
        <ele>2248.06</ele>
        <time>2017-01-05T12:39:48Z</time>
      </trkpt>
      <trkpt lat="45.07389" lon="6.81781">
        <ele>2248.4</ele>
        <time>2017-01-05T12:39:51Z</time>
      </trkpt>
      <trkpt lat="45.07373" lon="6.81781">
        <ele>2246.39</ele>
        <time>2017-01-05T12:39:53Z</time>
      </trkpt>
      <trkpt lat="45.07359" lon="6.81776">
        <ele>2247.9</ele>
        <time>2017-01-05T12:39:55Z</time>
      </trkpt>
      <trkpt lat="45.07346" lon="6.81777">
        <ele>2248.54</ele>
        <time>2017-01-05T12:39:57Z</time>
      </trkpt>
      <trkpt lat="45.07327" lon="6.81779">
        <ele>2247.97</ele>
        <time>2017-01-05T12:40:14Z</time>
      </trkpt>
      <trkpt lat="45.07316" lon="6.81782">
        <ele>2245.99</ele>
        <time>2017-01-05T12:40:18Z</time>
      </trkpt>
      <trkpt lat="45.07297" lon="6.81785">
        <ele>2246.21</ele>
        <time>2017-01-05T12:40:26Z</time>
      </trkpt>
      <trkpt lat="45.07285" lon="6.81786">
        <ele>2248.27</ele>
        <time>2017-01-05T12:40:29Z</time>
      </trkpt>
      <trkpt lat="45.07268" lon="6.81795">
        <ele>2242.62</ele>
        <time>2017-01-05T12:40:32Z</time>
      </trkpt>
      <trkpt lat="45.07246" lon="6.81804">
        <ele>2238.19</ele>
        <time>2017-01-05T12:40:37Z</time>
      </trkpt>
      <trkpt lat="45.07234" lon="6.8181">
        <ele>2238.39</ele>
        <time>2017-01-05T12:40:39Z</time>
      </trkpt>
      <trkpt lat="45.07222" lon="6.81814">
        <ele>2240.57</ele>
        <time>2017-01-05T12:40:41Z</time>
      </trkpt>
      <trkpt lat="45.07201" lon="6.81819">
        <ele>2239.88</ele>
        <time>2017-01-05T12:40:45Z</time>
      </trkpt>
      <trkpt lat="45.07189" lon="6.8182">
        <ele>2239.76</ele>
        <time>2017-01-05T12:40:48Z</time>
      </trkpt>
      <trkpt lat="45.07178" lon="6.81822">
        <ele>2238.09</ele>
        <time>2017-01-05T12:40:50Z</time>
      </trkpt>
      <trkpt lat="45.07167" lon="6.81823">
        <ele>2237.57</ele>
        <time>2017-01-05T12:40:52Z</time>
      </trkpt>
      <trkpt lat="45.07153" lon="6.81826">
        <ele>2237.01</ele>
        <time>2017-01-05T12:40:55Z</time>
      </trkpt>
      <trkpt lat="45.07144" lon="6.81834">
        <ele>2234.13</ele>
        <time>2017-01-05T12:40:56Z</time>
      </trkpt>
      <trkpt lat="45.07124" lon="6.81843">
        <ele>2231.04</ele>
        <time>2017-01-05T12:40:59Z</time>
      </trkpt>
      <trkpt lat="45.07112" lon="6.81847">
        <ele>2229.7</ele>
        <time>2017-01-05T12:41:02Z</time>
      </trkpt>
      <trkpt lat="45.07101" lon="6.81849">
        <ele>2226.91</ele>
        <time>2017-01-05T12:41:05Z</time>
      </trkpt>
      <trkpt lat="45.07088" lon="6.81849">
        <ele>2224.3</ele>
        <time>2017-01-05T12:41:08Z</time>
      </trkpt>
      <trkpt lat="45.07078" lon="6.81843">
        <ele>2223.54</ele>
        <time>2017-01-05T12:41:11Z</time>
      </trkpt>
      <trkpt lat="45.07068" lon="6.81841">
        <ele>2221.01</ele>
        <time>2017-01-05T12:41:14Z</time>
      </trkpt>
      <trkpt lat="45.07062" lon="6.81827">
        <ele>2221.18</ele>
        <time>2017-01-05T12:41:19Z</time>
      </trkpt>
      <trkpt lat="45.0707" lon="6.81812">
        <ele>2223.81</ele>
        <time>2017-01-05T12:41:22Z</time>
      </trkpt>
      <trkpt lat="45.07079" lon="6.81803">
        <ele>2226.4</ele>
        <time>2017-01-05T12:41:24Z</time>
      </trkpt>
      <trkpt lat="45.07085" lon="6.8179">
        <ele>2228.35</ele>
        <time>2017-01-05T12:41:26Z</time>
      </trkpt>
      <trkpt lat="45.07093" lon="6.8178">
        <ele>2231.55</ele>
        <time>2017-01-05T12:41:28Z</time>
      </trkpt>
      <trkpt lat="45.07104" lon="6.81766">
        <ele>2234.74</ele>
        <time>2017-01-05T12:41:31Z</time>
      </trkpt>
      <trkpt lat="45.07114" lon="6.81744">
        <ele>2236.31</ele>
        <time>2017-01-05T12:41:35Z</time>
      </trkpt>
      <trkpt lat="45.07127" lon="6.81722">
        <ele>2237.78</ele>
        <time>2017-01-05T12:41:39Z</time>
      </trkpt>
      <trkpt lat="45.07133" lon="6.81704">
        <ele>2237.72</ele>
        <time>2017-01-05T12:41:42Z</time>
      </trkpt>
      <trkpt lat="45.07137" lon="6.81687">
        <ele>2237.56</ele>
        <time>2017-01-05T12:41:45Z</time>
      </trkpt>
      <trkpt lat="45.07145" lon="6.81657">
        <ele>2238.83</ele>
        <time>2017-01-05T12:41:50Z</time>
      </trkpt>
      <trkpt lat="45.07153" lon="6.81647">
        <ele>2242.53</ele>
        <time>2017-01-05T12:41:52Z</time>
      </trkpt>
      <trkpt lat="45.07162" lon="6.81633">
        <ele>2247.55</ele>
        <time>2017-01-05T12:41:55Z</time>
      </trkpt>
      <trkpt lat="45.07166" lon="6.81608">
        <ele>2246.86</ele>
        <time>2017-01-05T12:41:57Z</time>
      </trkpt>
      <trkpt lat="45.07171" lon="6.81596">
        <ele>2248.07</ele>
        <time>2017-01-05T12:42:01Z</time>
      </trkpt>
      <trkpt lat="45.0718" lon="6.81586">
        <ele>2251.7</ele>
        <time>2017-01-05T12:42:04Z</time>
      </trkpt>
      <trkpt lat="45.07188" lon="6.81571">
        <ele>2253.38</ele>
        <time>2017-01-05T12:42:07Z</time>
      </trkpt>
      <trkpt lat="45.07194" lon="6.81556">
        <ele>2253.03</ele>
        <time>2017-01-05T12:42:10Z</time>
      </trkpt>
      <trkpt lat="45.072" lon="6.81543">
        <ele>2253.02</ele>
        <time>2017-01-05T12:42:12Z</time>
      </trkpt>
      <trkpt lat="45.07205" lon="6.81531">
        <ele>2252.72</ele>
        <time>2017-01-05T12:42:15Z</time>
      </trkpt>
      <trkpt lat="45.07211" lon="6.81518">
        <ele>2254.07</ele>
        <time>2017-01-05T12:42:18Z</time>
      </trkpt>
      <trkpt lat="45.07215" lon="6.81502">
        <ele>2254.13</ele>
        <time>2017-01-05T12:42:21Z</time>
      </trkpt>
      <trkpt lat="45.07226" lon="6.81486">
        <ele>2258.9</ele>
        <time>2017-01-05T12:42:25Z</time>
      </trkpt>
      <trkpt lat="45.07231" lon="6.8147">
        <ele>2259.74</ele>
        <time>2017-01-05T12:42:29Z</time>
      </trkpt>
      <trkpt lat="45.07236" lon="6.81457">
        <ele>2260.09</ele>
        <time>2017-01-05T12:42:31Z</time>
      </trkpt>
      <trkpt lat="45.07243" lon="6.8143">
        <ele>2259.3</ele>
        <time>2017-01-05T12:42:35Z</time>
      </trkpt>
      <trkpt lat="45.0725" lon="6.81406">
        <ele>2262.61</ele>
        <time>2017-01-05T12:42:39Z</time>
      </trkpt>
      <trkpt lat="45.07254" lon="6.8139">
        <ele>2266.95</ele>
        <time>2017-01-05T12:42:42Z</time>
      </trkpt>
      <trkpt lat="45.0726" lon="6.81376">
        <ele>2271.13</ele>
        <time>2017-01-05T12:42:45Z</time>
      </trkpt>
      <trkpt lat="45.07261" lon="6.81341">
        <ele>2272.3</ele>
        <time>2017-01-05T12:42:50Z</time>
      </trkpt>
      <trkpt lat="45.07267" lon="6.81311">
        <ele>2274.59</ele>
        <time>2017-01-05T12:42:55Z</time>
      </trkpt>
      <trkpt lat="45.07267" lon="6.81296">
        <ele>2273.95</ele>
        <time>2017-01-05T12:42:57Z</time>
      </trkpt>
      <trkpt lat="45.07272" lon="6.8128">
        <ele>2275</ele>
        <time>2017-01-05T12:43:00Z</time>
      </trkpt>
      <trkpt lat="45.07275" lon="6.81253">
        <ele>2272.18</ele>
        <time>2017-01-05T12:43:04Z</time>
      </trkpt>
      <trkpt lat="45.07282" lon="6.81238">
        <ele>2272.98</ele>
        <time>2017-01-05T12:43:07Z</time>
      </trkpt>
      <trkpt lat="45.07285" lon="6.81225">
        <ele>2271.79</ele>
        <time>2017-01-05T12:43:09Z</time>
      </trkpt>
      <trkpt lat="45.07291" lon="6.8121">
        <ele>2273.29</ele>
        <time>2017-01-05T12:43:12Z</time>
      </trkpt>
      <trkpt lat="45.07298" lon="6.81196">
        <ele>2275.55</ele>
        <time>2017-01-05T12:43:16Z</time>
      </trkpt>
      <trkpt lat="45.07306" lon="6.81185">
        <ele>2278.39</ele>
        <time>2017-01-05T12:43:20Z</time>
      </trkpt>
      <trkpt lat="45.07315" lon="6.81177">
        <ele>2282.29</ele>
        <time>2017-01-05T12:43:23Z</time>
      </trkpt>
      <trkpt lat="45.07324" lon="6.81167">
        <ele>2286.14</ele>
        <time>2017-01-05T12:43:26Z</time>
      </trkpt>
      <trkpt lat="45.07334" lon="6.81158">
        <ele>2289.92</ele>
        <time>2017-01-05T12:43:29Z</time>
      </trkpt>
      <trkpt lat="45.07345" lon="6.81149">
        <ele>2295.2</ele>
        <time>2017-01-05T12:43:32Z</time>
      </trkpt>
      <trkpt lat="45.07356" lon="6.81142">
        <ele>2299.13</ele>
        <time>2017-01-05T12:43:35Z</time>
      </trkpt>
      <trkpt lat="45.07365" lon="6.81134">
        <ele>2301.38</ele>
        <time>2017-01-05T12:43:38Z</time>
      </trkpt>
      <trkpt lat="45.07374" lon="6.81127">
        <ele>2302.71</ele>
        <time>2017-01-05T12:43:41Z</time>
      </trkpt>
      <trkpt lat="45.0738" lon="6.81115">
        <ele>2301.28</ele>
        <time>2017-01-05T12:43:43Z</time>
      </trkpt>
      <trkpt lat="45.07385" lon="6.81102">
        <ele>2300.27</ele>
        <time>2017-01-05T12:43:46Z</time>
      </trkpt>
      <trkpt lat="45.07394" lon="6.81092">
        <ele>2302.51</ele>
        <time>2017-01-05T12:43:49Z</time>
      </trkpt>
      <trkpt lat="45.07401" lon="6.81079">
        <ele>2304.24</ele>
        <time>2017-01-05T12:43:52Z</time>
      </trkpt>
      <trkpt lat="45.07397" lon="6.81063">
        <ele>2303.37</ele>
        <time>2017-01-05T12:43:55Z</time>
      </trkpt>
      <trkpt lat="45.07395" lon="6.81048">
        <ele>2303.53</ele>
        <time>2017-01-05T12:43:58Z</time>
      </trkpt>
      <trkpt lat="45.07401" lon="6.81034">
        <ele>2306.26</ele>
        <time>2017-01-05T12:44:01Z</time>
      </trkpt>
      <trkpt lat="45.07409" lon="6.81021">
        <ele>2308.57</ele>
        <time>2017-01-05T12:44:04Z</time>
      </trkpt>
      <trkpt lat="45.07417" lon="6.81009">
        <ele>2309.3</ele>
        <time>2017-01-05T12:44:07Z</time>
      </trkpt>
      <trkpt lat="45.07429" lon="6.81">
        <ele>2311.22</ele>
        <time>2017-01-05T12:44:12Z</time>
      </trkpt>
      <trkpt lat="45.07444" lon="6.80983">
        <ele>2314.73</ele>
        <time>2017-01-05T12:47:42Z</time>
      </trkpt>
      <trkpt lat="45.0745" lon="6.80968">
        <ele>2318.32</ele>
        <time>2017-01-05T12:47:45Z</time>
      </trkpt>
      <trkpt lat="45.07444" lon="6.80955">
        <ele>2315.92</ele>
        <time>2017-01-05T12:47:48Z</time>
      </trkpt>
      <trkpt lat="45.07434" lon="6.80945">
        <ele>2312.26</ele>
        <time>2017-01-05T12:47:51Z</time>
      </trkpt>
      <trkpt lat="45.07424" lon="6.80937">
        <ele>2307.68</ele>
        <time>2017-01-05T12:47:54Z</time>
      </trkpt>
      <trkpt lat="45.07416" lon="6.80923">
        <ele>2304.37</ele>
        <time>2017-01-05T12:47:57Z</time>
      </trkpt>
      <trkpt lat="45.07416" lon="6.80897">
        <ele>2308.31</ele>
        <time>2017-01-05T12:48:02Z</time>
      </trkpt>
      <trkpt lat="45.07414" lon="6.80883">
        <ele>2309.71</ele>
        <time>2017-01-05T12:48:04Z</time>
      </trkpt>
      <trkpt lat="45.07408" lon="6.8087">
        <ele>2308.88</ele>
        <time>2017-01-05T12:48:07Z</time>
      </trkpt>
      <trkpt lat="45.07388" lon="6.80851">
        <ele>2302.38</ele>
        <time>2017-01-05T12:48:13Z</time>
      </trkpt>
      <trkpt lat="45.07391" lon="6.80834">
        <ele>2306.7</ele>
        <time>2017-01-05T12:48:17Z</time>
      </trkpt>
      <trkpt lat="45.07386" lon="6.80821">
        <ele>2306.78</ele>
        <time>2017-01-05T12:48:20Z</time>
      </trkpt>
      <trkpt lat="45.07375" lon="6.80811">
        <ele>2303.68</ele>
        <time>2017-01-05T12:48:22Z</time>
      </trkpt>
      <trkpt lat="45.07366" lon="6.808">
        <ele>2301.9</ele>
        <time>2017-01-05T12:48:24Z</time>
      </trkpt>
      <trkpt lat="45.07359" lon="6.80775">
        <ele>2301.02</ele>
        <time>2017-01-05T12:48:28Z</time>
      </trkpt>
      <trkpt lat="45.07356" lon="6.80761">
        <ele>2299.9</ele>
        <time>2017-01-05T12:48:30Z</time>
      </trkpt>
      <trkpt lat="45.07351" lon="6.80747">
        <ele>2298.23</ele>
        <time>2017-01-05T12:48:32Z</time>
      </trkpt>
      <trkpt lat="45.07347" lon="6.80732">
        <ele>2296.26</ele>
        <time>2017-01-05T12:48:34Z</time>
      </trkpt>
      <trkpt lat="45.07346" lon="6.80716">
        <ele>2295.79</ele>
        <time>2017-01-05T12:48:36Z</time>
      </trkpt>
      <trkpt lat="45.07345" lon="6.80699">
        <ele>2296.2</ele>
        <time>2017-01-05T12:48:38Z</time>
      </trkpt>
      <trkpt lat="45.07342" lon="6.80681">
        <ele>2295.72</ele>
        <time>2017-01-05T12:48:40Z</time>
      </trkpt>
      <trkpt lat="45.07341" lon="6.80666">
        <ele>2295.88</ele>
        <time>2017-01-05T12:48:42Z</time>
      </trkpt>
      <trkpt lat="45.07342" lon="6.80649">
        <ele>2297.01</ele>
        <time>2017-01-05T12:48:44Z</time>
      </trkpt>
      <trkpt lat="45.07346" lon="6.80631">
        <ele>2299.68</ele>
        <time>2017-01-05T12:48:46Z</time>
      </trkpt>
      <trkpt lat="45.07348" lon="6.80612">
        <ele>2302.31</ele>
        <time>2017-01-05T12:48:48Z</time>
      </trkpt>
      <trkpt lat="45.07345" lon="6.80595">
        <ele>2302.2</ele>
        <time>2017-01-05T12:48:50Z</time>
      </trkpt>
      <trkpt lat="45.07342" lon="6.8058">
        <ele>2300.65</ele>
        <time>2017-01-05T12:48:52Z</time>
      </trkpt>
      <trkpt lat="45.07337" lon="6.80563">
        <ele>2296.99</ele>
        <time>2017-01-05T12:48:54Z</time>
      </trkpt>
      <trkpt lat="45.07328" lon="6.80547">
        <ele>2291.78</ele>
        <time>2017-01-05T12:48:56Z</time>
      </trkpt>
      <trkpt lat="45.07322" lon="6.80526">
        <ele>2290.19</ele>
        <time>2017-01-05T12:48:59Z</time>
      </trkpt>
      <trkpt lat="45.07317" lon="6.80512">
        <ele>2290.25</ele>
        <time>2017-01-05T12:49:01Z</time>
      </trkpt>
      <trkpt lat="45.07312" lon="6.80498">
        <ele>2290.41</ele>
        <time>2017-01-05T12:49:03Z</time>
      </trkpt>
      <trkpt lat="45.07309" lon="6.80482">
        <ele>2291.12</ele>
        <time>2017-01-05T12:49:05Z</time>
      </trkpt>
      <trkpt lat="45.07303" lon="6.80467">
        <ele>2290</ele>
        <time>2017-01-05T12:49:08Z</time>
      </trkpt>
      <trkpt lat="45.07292" lon="6.80457">
        <ele>2284.78</ele>
        <time>2017-01-05T12:49:11Z</time>
      </trkpt>
      <trkpt lat="45.07285" lon="6.80442">
        <ele>2282.34</ele>
        <time>2017-01-05T12:49:13Z</time>
      </trkpt>
      <trkpt lat="45.07279" lon="6.80427">
        <ele>2281.58</ele>
        <time>2017-01-05T12:49:15Z</time>
      </trkpt>
      <trkpt lat="45.07276" lon="6.80412">
        <ele>2283.23</ele>
        <time>2017-01-05T12:49:17Z</time>
      </trkpt>
      <trkpt lat="45.07275" lon="6.80395">
        <ele>2285.47</ele>
        <time>2017-01-05T12:49:19Z</time>
      </trkpt>
      <trkpt lat="45.07276" lon="6.8038">
        <ele>2287.62</ele>
        <time>2017-01-05T12:49:21Z</time>
      </trkpt>
      <trkpt lat="45.07275" lon="6.80363">
        <ele>2288.62</ele>
        <time>2017-01-05T12:49:23Z</time>
      </trkpt>
      <trkpt lat="45.07274" lon="6.80346">
        <ele>2288.36</ele>
        <time>2017-01-05T12:49:25Z</time>
      </trkpt>
      <trkpt lat="45.07269" lon="6.80332">
        <ele>2286.05</ele>
        <time>2017-01-05T12:49:27Z</time>
      </trkpt>
      <trkpt lat="45.07254" lon="6.80312">
        <ele>2282.05</ele>
        <time>2017-01-05T12:49:32Z</time>
      </trkpt>
      <trkpt lat="45.07251" lon="6.80297">
        <ele>2282.47</ele>
        <time>2017-01-05T12:49:35Z</time>
      </trkpt>
      <trkpt lat="45.07246" lon="6.80283">
        <ele>2282.45</ele>
        <time>2017-01-05T12:49:38Z</time>
      </trkpt>
      <trkpt lat="45.07242" lon="6.80264">
        <ele>2280.52</ele>
        <time>2017-01-05T12:49:40Z</time>
      </trkpt>
      <trkpt lat="45.07237" lon="6.80249">
        <ele>2278.47</ele>
        <time>2017-01-05T12:49:43Z</time>
      </trkpt>
      <trkpt lat="45.07238" lon="6.80232">
        <ele>2277.03</ele>
        <time>2017-01-05T12:49:46Z</time>
      </trkpt>
      <trkpt lat="45.07247" lon="6.80217">
        <ele>2278.05</ele>
        <time>2017-01-05T12:49:49Z</time>
      </trkpt>
      <trkpt lat="45.07254" lon="6.80205">
        <ele>2276.75</ele>
        <time>2017-01-05T12:49:51Z</time>
      </trkpt>
      <trkpt lat="45.07264" lon="6.80193">
        <ele>2276.54</ele>
        <time>2017-01-05T12:49:54Z</time>
      </trkpt>
      <trkpt lat="45.07283" lon="6.80184">
        <ele>2279.43</ele>
        <time>2017-01-05T12:49:59Z</time>
      </trkpt>
      <trkpt lat="45.07293" lon="6.80173">
        <ele>2279.38</ele>
        <time>2017-01-05T12:50:02Z</time>
      </trkpt>
      <trkpt lat="45.07304" lon="6.80163">
        <ele>2281.41</ele>
        <time>2017-01-05T12:50:05Z</time>
      </trkpt>
      <trkpt lat="45.07324" lon="6.80152">
        <ele>2285.22</ele>
        <time>2017-01-05T12:50:10Z</time>
      </trkpt>
      <trkpt lat="45.07332" lon="6.80142">
        <ele>2283.13</ele>
        <time>2017-01-05T12:50:14Z</time>
      </trkpt>
      <trkpt lat="45.07349" lon="6.80123">
        <ele>2280.16</ele>
        <time>2017-01-05T12:50:19Z</time>
      </trkpt>
      <trkpt lat="45.0736" lon="6.8011">
        <ele>2277</ele>
        <time>2017-01-05T12:50:21Z</time>
      </trkpt>
      <trkpt lat="45.07368" lon="6.80098">
        <ele>2275.45</ele>
        <time>2017-01-05T12:50:23Z</time>
      </trkpt>
      <trkpt lat="45.07379" lon="6.80087">
        <ele>2276.69</ele>
        <time>2017-01-05T12:50:25Z</time>
      </trkpt>
      <trkpt lat="45.07384" lon="6.80074">
        <ele>2274.41</ele>
        <time>2017-01-05T12:50:27Z</time>
      </trkpt>
      <trkpt lat="45.07393" lon="6.80063">
        <ele>2273.82</ele>
        <time>2017-01-05T12:50:30Z</time>
      </trkpt>
      <trkpt lat="45.07406" lon="6.80057">
        <ele>2276.98</ele>
        <time>2017-01-05T12:50:33Z</time>
      </trkpt>
      <trkpt lat="45.07414" lon="6.80049">
        <ele>2276.26</ele>
        <time>2017-01-05T12:50:35Z</time>
      </trkpt>
      <trkpt lat="45.07421" lon="6.80035">
        <ele>2271.63</ele>
        <time>2017-01-05T12:50:37Z</time>
      </trkpt>
      <trkpt lat="45.07426" lon="6.8002">
        <ele>2267.15</ele>
        <time>2017-01-05T12:50:39Z</time>
      </trkpt>
      <trkpt lat="45.07437" lon="6.80009">
        <ele>2267.41</ele>
        <time>2017-01-05T12:50:42Z</time>
      </trkpt>
      <trkpt lat="45.07456" lon="6.79999">
        <ele>2274.9</ele>
        <time>2017-01-05T12:50:46Z</time>
      </trkpt>
      <trkpt lat="45.07454" lon="6.79971">
        <ele>2267.62</ele>
        <time>2017-01-05T12:50:52Z</time>
      </trkpt>
      <trkpt lat="45.0745" lon="6.79956">
        <ele>2263.47</ele>
        <time>2017-01-05T12:50:54Z</time>
      </trkpt>
      <trkpt lat="45.07445" lon="6.7994">
        <ele>2259.83</ele>
        <time>2017-01-05T12:50:56Z</time>
      </trkpt>
      <trkpt lat="45.07437" lon="6.79927">
        <ele>2259.8</ele>
        <time>2017-01-05T12:50:58Z</time>
      </trkpt>
      <trkpt lat="45.07427" lon="6.79905">
        <ele>2258.4</ele>
        <time>2017-01-05T12:51:01Z</time>
      </trkpt>
      <trkpt lat="45.07424" lon="6.7989">
        <ele>2257.05</ele>
        <time>2017-01-05T12:51:04Z</time>
      </trkpt>
      <trkpt lat="45.0743" lon="6.79877">
        <ele>2259.11</ele>
        <time>2017-01-05T12:51:07Z</time>
      </trkpt>
      <trkpt lat="45.07438" lon="6.79867">
        <ele>2261.39</ele>
        <time>2017-01-05T12:51:10Z</time>
      </trkpt>
      <trkpt lat="45.07449" lon="6.7986">
        <ele>2266.37</ele>
        <time>2017-01-05T12:51:13Z</time>
      </trkpt>
      <trkpt lat="45.07456" lon="6.79838">
        <ele>2272.48</ele>
        <time>2017-01-05T12:51:17Z</time>
      </trkpt>
      <trkpt lat="45.0745" lon="6.79824">
        <ele>2270.9</ele>
        <time>2017-01-05T12:51:19Z</time>
      </trkpt>
      <trkpt lat="45.07436" lon="6.79802">
        <ele>2266.94</ele>
        <time>2017-01-05T12:51:23Z</time>
      </trkpt>
      <trkpt lat="45.07427" lon="6.79777">
        <ele>2267.76</ele>
        <time>2017-01-05T12:51:27Z</time>
      </trkpt>
      <trkpt lat="45.07419" lon="6.7976">
        <ele>2268.04</ele>
        <time>2017-01-05T12:51:29Z</time>
      </trkpt>
      <trkpt lat="45.07412" lon="6.79749">
        <ele>2267.32</ele>
        <time>2017-01-05T12:51:31Z</time>
      </trkpt>
      <trkpt lat="45.07402" lon="6.79736">
        <ele>2267.65</ele>
        <time>2017-01-05T12:51:33Z</time>
      </trkpt>
      <trkpt lat="45.07394" lon="6.79725">
        <ele>2267.77</ele>
        <time>2017-01-05T12:51:35Z</time>
      </trkpt>
      <trkpt lat="45.07387" lon="6.79713">
        <ele>2267.04</ele>
        <time>2017-01-05T12:51:37Z</time>
      </trkpt>
      <trkpt lat="45.07377" lon="6.79705">
        <ele>2262.3</ele>
        <time>2017-01-05T12:51:39Z</time>
      </trkpt>
      <trkpt lat="45.07362" lon="6.79686">
        <ele>2255.45</ele>
        <time>2017-01-05T12:51:43Z</time>
      </trkpt>
      <trkpt lat="45.07356" lon="6.79667">
        <ele>2257.48</ele>
        <time>2017-01-05T12:51:47Z</time>
      </trkpt>
      <trkpt lat="45.07351" lon="6.79645">
        <ele>2258.89</ele>
        <time>2017-01-05T12:51:49Z</time>
      </trkpt>
      <trkpt lat="45.07355" lon="6.79625">
        <ele>2261.98</ele>
        <time>2017-01-05T12:51:51Z</time>
      </trkpt>
      <trkpt lat="45.07361" lon="6.79598">
        <ele>2260.87</ele>
        <time>2017-01-05T12:51:55Z</time>
      </trkpt>
      <trkpt lat="45.07369" lon="6.79583">
        <ele>2260.82</ele>
        <time>2017-01-05T12:51:58Z</time>
      </trkpt>
      <trkpt lat="45.07378" lon="6.79576">
        <ele>2263.45</ele>
        <time>2017-01-05T12:52:00Z</time>
      </trkpt>
      <trkpt lat="45.07383" lon="6.79561">
        <ele>2261.5</ele>
        <time>2017-01-05T12:52:02Z</time>
      </trkpt>
      <trkpt lat="45.0739" lon="6.79548">
        <ele>2261.85</ele>
        <time>2017-01-05T12:52:04Z</time>
      </trkpt>
      <trkpt lat="45.074" lon="6.79537">
        <ele>2266.22</ele>
        <time>2017-01-05T12:52:07Z</time>
      </trkpt>
      <trkpt lat="45.07405" lon="6.79523">
        <ele>2267.46</ele>
        <time>2017-01-05T12:52:09Z</time>
      </trkpt>
      <trkpt lat="45.07404" lon="6.79509">
        <ele>2263.67</ele>
        <time>2017-01-05T12:52:11Z</time>
      </trkpt>
      <trkpt lat="45.07392" lon="6.79481">
        <ele>2253.59</ele>
        <time>2017-01-05T12:52:16Z</time>
      </trkpt>
      <trkpt lat="45.07391" lon="6.79466">
        <ele>2254.27</ele>
        <time>2017-01-05T12:52:18Z</time>
      </trkpt>
      <trkpt lat="45.07386" lon="6.79453">
        <ele>2252.97</ele>
        <time>2017-01-05T12:52:20Z</time>
      </trkpt>
      <trkpt lat="45.07382" lon="6.79438">
        <ele>2253.82</ele>
        <time>2017-01-05T12:52:22Z</time>
      </trkpt>
      <trkpt lat="45.0738" lon="6.79423">
        <ele>2255.69</ele>
        <time>2017-01-05T12:52:24Z</time>
      </trkpt>
      <trkpt lat="45.07376" lon="6.79404">
        <ele>2256.94</ele>
        <time>2017-01-05T12:52:26Z</time>
      </trkpt>
      <trkpt lat="45.07374" lon="6.79386">
        <ele>2257.36</ele>
        <time>2017-01-05T12:52:28Z</time>
      </trkpt>
      <trkpt lat="45.07372" lon="6.79372">
        <ele>2258.31</ele>
        <time>2017-01-05T12:52:30Z</time>
      </trkpt>
      <trkpt lat="45.0737" lon="6.79343">
        <ele>2260.67</ele>
        <time>2017-01-05T12:52:33Z</time>
      </trkpt>
      <trkpt lat="45.0737" lon="6.79328">
        <ele>2262.01</ele>
        <time>2017-01-05T12:52:35Z</time>
      </trkpt>
      <trkpt lat="45.07369" lon="6.79314">
        <ele>2262.91</ele>
        <time>2017-01-05T12:52:37Z</time>
      </trkpt>
      <trkpt lat="45.07367" lon="6.79298">
        <ele>2262.51</ele>
        <time>2017-01-05T12:52:39Z</time>
      </trkpt>
      <trkpt lat="45.07362" lon="6.79285">
        <ele>2259.81</ele>
        <time>2017-01-05T12:52:41Z</time>
      </trkpt>
      <trkpt lat="45.07359" lon="6.79271">
        <ele>2256.01</ele>
        <time>2017-01-05T12:52:43Z</time>
      </trkpt>
      <trkpt lat="45.07361" lon="6.79251">
        <ele>2255.29</ele>
        <time>2017-01-05T12:52:46Z</time>
      </trkpt>
      <trkpt lat="45.07362" lon="6.79234">
        <ele>2255.4</ele>
        <time>2017-01-05T12:52:48Z</time>
      </trkpt>
      <trkpt lat="45.07358" lon="6.79215">
        <ele>2253.76</ele>
        <time>2017-01-05T12:52:50Z</time>
      </trkpt>
      <trkpt lat="45.07358" lon="6.79194">
        <ele>2254.86</ele>
        <time>2017-01-05T12:52:52Z</time>
      </trkpt>
      <trkpt lat="45.07358" lon="6.79177">
        <ele>2256.16</ele>
        <time>2017-01-05T12:52:54Z</time>
      </trkpt>
      <trkpt lat="45.07351" lon="6.79161">
        <ele>2253.38</ele>
        <time>2017-01-05T12:52:56Z</time>
      </trkpt>
      <trkpt lat="45.07347" lon="6.79131">
        <ele>2254.74</ele>
        <time>2017-01-05T12:53:00Z</time>
      </trkpt>
      <trkpt lat="45.07344" lon="6.79114">
        <ele>2255.24</ele>
        <time>2017-01-05T12:53:02Z</time>
      </trkpt>
      <trkpt lat="45.07336" lon="6.79103">
        <ele>2252.7</ele>
        <time>2017-01-05T12:53:04Z</time>
      </trkpt>
      <trkpt lat="45.07331" lon="6.79091">
        <ele>2251.48</ele>
        <time>2017-01-05T12:53:06Z</time>
      </trkpt>
      <trkpt lat="45.07327" lon="6.79075">
        <ele>2250.27</ele>
        <time>2017-01-05T12:53:08Z</time>
      </trkpt>
      <trkpt lat="45.07326" lon="6.79057">
        <ele>2250.02</ele>
        <time>2017-01-05T12:53:10Z</time>
      </trkpt>
      <trkpt lat="45.07323" lon="6.79043">
        <ele>2249.4</ele>
        <time>2017-01-05T12:53:12Z</time>
      </trkpt>
      <trkpt lat="45.07318" lon="6.79027">
        <ele>2248.12</ele>
        <time>2017-01-05T12:53:14Z</time>
      </trkpt>
      <trkpt lat="45.07312" lon="6.79015">
        <ele>2247.36</ele>
        <time>2017-01-05T12:53:16Z</time>
      </trkpt>
      <trkpt lat="45.07309" lon="6.79">
        <ele>2249.29</ele>
        <time>2017-01-05T12:53:18Z</time>
      </trkpt>
      <trkpt lat="45.07304" lon="6.78985">
        <ele>2249.74</ele>
        <time>2017-01-05T12:53:20Z</time>
      </trkpt>
      <trkpt lat="45.07301" lon="6.7897">
        <ele>2251.07</ele>
        <time>2017-01-05T12:53:22Z</time>
      </trkpt>
      <trkpt lat="45.07297" lon="6.78953">
        <ele>2251.03</ele>
        <time>2017-01-05T12:53:24Z</time>
      </trkpt>
      <trkpt lat="45.07296" lon="6.78937">
        <ele>2250.93</ele>
        <time>2017-01-05T12:53:26Z</time>
      </trkpt>
      <trkpt lat="45.07295" lon="6.78922">
        <ele>2250.24</ele>
        <time>2017-01-05T12:53:28Z</time>
      </trkpt>
      <trkpt lat="45.07293" lon="6.78905">
        <ele>2249.44</ele>
        <time>2017-01-05T12:53:30Z</time>
      </trkpt>
      <trkpt lat="45.07292" lon="6.78887">
        <ele>2248.91</ele>
        <time>2017-01-05T12:53:32Z</time>
      </trkpt>
      <trkpt lat="45.0729" lon="6.7887">
        <ele>2248.13</ele>
        <time>2017-01-05T12:53:34Z</time>
      </trkpt>
      <trkpt lat="45.07291" lon="6.78853">
        <ele>2247.58</ele>
        <time>2017-01-05T12:53:36Z</time>
      </trkpt>
      <trkpt lat="45.07289" lon="6.78836">
        <ele>2245.6</ele>
        <time>2017-01-05T12:53:38Z</time>
      </trkpt>
      <trkpt lat="45.07288" lon="6.78821">
        <ele>2243.75</ele>
        <time>2017-01-05T12:53:40Z</time>
      </trkpt>
      <trkpt lat="45.07291" lon="6.78801">
        <ele>2243.81</ele>
        <time>2017-01-05T12:53:42Z</time>
      </trkpt>
      <trkpt lat="45.07291" lon="6.78785">
        <ele>2244.57</ele>
        <time>2017-01-05T12:53:44Z</time>
      </trkpt>
      <trkpt lat="45.07297" lon="6.78754">
        <ele>2248.39</ele>
        <time>2017-01-05T12:53:48Z</time>
      </trkpt>
      <trkpt lat="45.07299" lon="6.78737">
        <ele>2248.84</ele>
        <time>2017-01-05T12:53:50Z</time>
      </trkpt>
      <trkpt lat="45.073" lon="6.78722">
        <ele>2249.22</ele>
        <time>2017-01-05T12:53:52Z</time>
      </trkpt>
      <trkpt lat="45.07302" lon="6.78708">
        <ele>2247.72</ele>
        <time>2017-01-05T12:53:54Z</time>
      </trkpt>
      <trkpt lat="45.07304" lon="6.78692">
        <ele>2245.86</ele>
        <time>2017-01-05T12:53:56Z</time>
      </trkpt>
      <trkpt lat="45.07308" lon="6.78678">
        <ele>2244.81</ele>
        <time>2017-01-05T12:53:59Z</time>
      </trkpt>
      <trkpt lat="45.07309" lon="6.78662">
        <ele>2242.55</ele>
        <time>2017-01-05T12:54:01Z</time>
      </trkpt>
      <trkpt lat="45.07315" lon="6.78637">
        <ele>2243.45</ele>
        <time>2017-01-05T12:54:05Z</time>
      </trkpt>
      <trkpt lat="45.07319" lon="6.78619">
        <ele>2244.49</ele>
        <time>2017-01-05T12:54:07Z</time>
      </trkpt>
      <trkpt lat="45.07318" lon="6.78603">
        <ele>2241.93</ele>
        <time>2017-01-05T12:54:09Z</time>
      </trkpt>
      <trkpt lat="45.07323" lon="6.7859">
        <ele>2242.35</ele>
        <time>2017-01-05T12:54:11Z</time>
      </trkpt>
      <trkpt lat="45.07334" lon="6.78569">
        <ele>2243.69</ele>
        <time>2017-01-05T12:54:15Z</time>
      </trkpt>
      <trkpt lat="45.07334" lon="6.78548">
        <ele>2239.93</ele>
        <time>2017-01-05T12:54:17Z</time>
      </trkpt>
      <trkpt lat="45.07336" lon="6.78533">
        <ele>2237.85</ele>
        <time>2017-01-05T12:54:19Z</time>
      </trkpt>
      <trkpt lat="45.07341" lon="6.78506">
        <ele>2234.59</ele>
        <time>2017-01-05T12:54:24Z</time>
      </trkpt>
      <trkpt lat="45.07346" lon="6.78494">
        <ele>2234.47</ele>
        <time>2017-01-05T12:54:26Z</time>
      </trkpt>
      <trkpt lat="45.07355" lon="6.78481">
        <ele>2235.71</ele>
        <time>2017-01-05T12:54:28Z</time>
      </trkpt>
      <trkpt lat="45.07374" lon="6.78468">
        <ele>2241.39</ele>
        <time>2017-01-05T12:54:33Z</time>
      </trkpt>
      <trkpt lat="45.07385" lon="6.78459">
        <ele>2245.01</ele>
        <time>2017-01-05T12:54:36Z</time>
      </trkpt>
      <trkpt lat="45.07391" lon="6.78444">
        <ele>2245.76</ele>
        <time>2017-01-05T12:54:39Z</time>
      </trkpt>
      <trkpt lat="45.07395" lon="6.7843">
        <ele>2243.88</ele>
        <time>2017-01-05T12:54:41Z</time>
      </trkpt>
      <trkpt lat="45.07394" lon="6.78415">
        <ele>2240.28</ele>
        <time>2017-01-05T12:54:43Z</time>
      </trkpt>
      <trkpt lat="45.07398" lon="6.784">
        <ele>2238.46</ele>
        <time>2017-01-05T12:54:45Z</time>
      </trkpt>
      <trkpt lat="45.07405" lon="6.78387">
        <ele>2238.42</ele>
        <time>2017-01-05T12:54:49Z</time>
      </trkpt>
      <trkpt lat="45.07406" lon="6.7837">
        <ele>2235.49</ele>
        <time>2017-01-05T12:54:51Z</time>
      </trkpt>
      <trkpt lat="45.07411" lon="6.78352">
        <ele>2233.26</ele>
        <time>2017-01-05T12:54:54Z</time>
      </trkpt>
      <trkpt lat="45.07419" lon="6.7834">
        <ele>2233.32</ele>
        <time>2017-01-05T12:54:57Z</time>
      </trkpt>
      <trkpt lat="45.07437" lon="6.78325">
        <ele>2236.76</ele>
        <time>2017-01-05T12:55:01Z</time>
      </trkpt>
      <trkpt lat="45.07446" lon="6.78319">
        <ele>2239.3</ele>
        <time>2017-01-05T12:55:03Z</time>
      </trkpt>
      <trkpt lat="45.07456" lon="6.7831">
        <ele>2242.4</ele>
        <time>2017-01-05T12:55:05Z</time>
      </trkpt>
      <trkpt lat="45.0746" lon="6.78282">
        <ele>2238.59</ele>
        <time>2017-01-05T12:55:09Z</time>
      </trkpt>
      <trkpt lat="45.07462" lon="6.78261">
        <ele>2234.05</ele>
        <time>2017-01-05T12:55:11Z</time>
      </trkpt>
      <trkpt lat="45.07468" lon="6.78249">
        <ele>2233.48</ele>
        <time>2017-01-05T12:55:13Z</time>
      </trkpt>
      <trkpt lat="45.07475" lon="6.78239">
        <ele>2234.97</ele>
        <time>2017-01-05T12:55:15Z</time>
      </trkpt>
      <trkpt lat="45.07487" lon="6.7821">
        <ele>2236.18</ele>
        <time>2017-01-05T12:55:20Z</time>
      </trkpt>
      <trkpt lat="45.07503" lon="6.78188">
        <ele>2240.9</ele>
        <time>2017-01-05T12:55:25Z</time>
      </trkpt>
      <trkpt lat="45.07506" lon="6.78174">
        <ele>2239.55</ele>
        <time>2017-01-05T12:55:27Z</time>
      </trkpt>
      <trkpt lat="45.07511" lon="6.78148">
        <ele>2237.86</ele>
        <time>2017-01-05T12:55:31Z</time>
      </trkpt>
      <trkpt lat="45.07514" lon="6.78133">
        <ele>2237.12</ele>
        <time>2017-01-05T12:55:33Z</time>
      </trkpt>
      <trkpt lat="45.07515" lon="6.78119">
        <ele>2235.69</ele>
        <time>2017-01-05T12:55:35Z</time>
      </trkpt>
      <trkpt lat="45.07518" lon="6.78105">
        <ele>2235.88</ele>
        <time>2017-01-05T12:55:37Z</time>
      </trkpt>
      <trkpt lat="45.07523" lon="6.7809">
        <ele>2238.4</ele>
        <time>2017-01-05T12:55:41Z</time>
      </trkpt>
      <trkpt lat="45.07522" lon="6.78068">
        <ele>2235.27</ele>
        <time>2017-01-05T12:55:44Z</time>
      </trkpt>
      <trkpt lat="45.07522" lon="6.7805">
        <ele>2232.81</ele>
        <time>2017-01-05T12:55:46Z</time>
      </trkpt>
      <trkpt lat="45.07521" lon="6.78033">
        <ele>2230.49</ele>
        <time>2017-01-05T12:55:48Z</time>
      </trkpt>
      <trkpt lat="45.0752" lon="6.78018">
        <ele>2230.71</ele>
        <time>2017-01-05T12:55:50Z</time>
      </trkpt>
      <trkpt lat="45.0752" lon="6.77989">
        <ele>2233.82</ele>
        <time>2017-01-05T12:55:54Z</time>
      </trkpt>
      <trkpt lat="45.07523" lon="6.77963">
        <ele>2239.28</ele>
        <time>2017-01-05T12:55:58Z</time>
      </trkpt>
      <trkpt lat="45.07517" lon="6.77948">
        <ele>2239.91</ele>
        <time>2017-01-05T12:56:02Z</time>
      </trkpt>
      <trkpt lat="45.0751" lon="6.77937">
        <ele>2237.51</ele>
        <time>2017-01-05T12:56:04Z</time>
      </trkpt>
      <trkpt lat="45.07502" lon="6.77925">
        <ele>2234.47</ele>
        <time>2017-01-05T12:56:06Z</time>
      </trkpt>
      <trkpt lat="45.07498" lon="6.77912">
        <ele>2233.27</ele>
        <time>2017-01-05T12:56:08Z</time>
      </trkpt>
      <trkpt lat="45.07499" lon="6.77898">
        <ele>2233.99</ele>
        <time>2017-01-05T12:56:10Z</time>
      </trkpt>
      <trkpt lat="45.07498" lon="6.77883">
        <ele>2234.18</ele>
        <time>2017-01-05T12:56:12Z</time>
      </trkpt>
      <trkpt lat="45.07502" lon="6.77866">
        <ele>2236.56</ele>
        <time>2017-01-05T12:56:15Z</time>
      </trkpt>
      <trkpt lat="45.07512" lon="6.77838">
        <ele>2237.42</ele>
        <time>2017-01-05T12:56:19Z</time>
      </trkpt>
      <trkpt lat="45.07519" lon="6.77824">
        <ele>2237.44</ele>
        <time>2017-01-05T12:56:21Z</time>
      </trkpt>
      <trkpt lat="45.07526" lon="6.77808">
        <ele>2235.96</ele>
        <time>2017-01-05T12:56:23Z</time>
      </trkpt>
      <trkpt lat="45.07532" lon="6.77791">
        <ele>2235.4</ele>
        <time>2017-01-05T12:56:25Z</time>
      </trkpt>
      <trkpt lat="45.07533" lon="6.77773">
        <ele>2234.64</ele>
        <time>2017-01-05T12:56:27Z</time>
      </trkpt>
      <trkpt lat="45.07532" lon="6.77756">
        <ele>2233.54</ele>
        <time>2017-01-05T12:56:29Z</time>
      </trkpt>
      <trkpt lat="45.07529" lon="6.77736">
        <ele>2230.62</ele>
        <time>2017-01-05T12:56:31Z</time>
      </trkpt>
      <trkpt lat="45.07527" lon="6.77699">
        <ele>2228.65</ele>
        <time>2017-01-05T12:56:33Z</time>
      </trkpt>
      <trkpt lat="45.07524" lon="6.77685">
        <ele>2227.49</ele>
        <time>2017-01-05T12:57:48Z</time>
      </trkpt>
      <trkpt lat="45.07513" lon="6.77709">
        <ele>2222.71</ele>
        <time>2017-01-05T12:57:54Z</time>
      </trkpt>
      <trkpt lat="45.07508" lon="6.77733">
        <ele>2221.15</ele>
        <time>2017-01-05T12:57:59Z</time>
      </trkpt>
      <trkpt lat="45.0751" lon="6.77748">
        <ele>2223.26</ele>
        <time>2017-01-05T12:58:02Z</time>
      </trkpt>
      <trkpt lat="45.07503" lon="6.77758">
        <ele>2221.13</ele>
        <time>2017-01-05T12:58:04Z</time>
      </trkpt>
      <trkpt lat="45.07493" lon="6.77761">
        <ele>2218.21</ele>
        <time>2017-01-05T12:58:07Z</time>
      </trkpt>
      <trkpt lat="45.07487" lon="6.77747">
        <ele>2215.45</ele>
        <time>2017-01-05T12:58:10Z</time>
      </trkpt>
      <trkpt lat="45.07476" lon="6.77735">
        <ele>2211.97</ele>
        <time>2017-01-05T12:58:14Z</time>
      </trkpt>
      <trkpt lat="45.07464" lon="6.77713">
        <ele>2208.2</ele>
        <time>2017-01-05T12:58:18Z</time>
      </trkpt>
      <trkpt lat="45.07464" lon="6.77685">
        <ele>2208.35</ele>
        <time>2017-01-05T12:58:23Z</time>
      </trkpt>
      <trkpt lat="45.07465" lon="6.77668">
        <ele>2208.86</ele>
        <time>2017-01-05T12:58:27Z</time>
      </trkpt>
      <trkpt lat="45.0745" lon="6.77677">
        <ele>2204.73</ele>
        <time>2017-01-05T12:58:34Z</time>
      </trkpt>
      <trkpt lat="45.07444" lon="6.7769">
        <ele>2203.81</ele>
        <time>2017-01-05T12:58:37Z</time>
      </trkpt>
      <trkpt lat="45.07438" lon="6.77706">
        <ele>2202.59</ele>
        <time>2017-01-05T12:58:40Z</time>
      </trkpt>
      <trkpt lat="45.07432" lon="6.77719">
        <ele>2200.48</ele>
        <time>2017-01-05T12:58:43Z</time>
      </trkpt>
      <trkpt lat="45.07425" lon="6.77732">
        <ele>2198.73</ele>
        <time>2017-01-05T12:58:46Z</time>
      </trkpt>
      <trkpt lat="45.07419" lon="6.77747">
        <ele>2197.36</ele>
        <time>2017-01-05T12:58:49Z</time>
      </trkpt>
      <trkpt lat="45.07412" lon="6.7777">
        <ele>2196.79</ele>
        <time>2017-01-05T12:58:52Z</time>
      </trkpt>
      <trkpt lat="45.07408" lon="6.77787">
        <ele>2194.91</ele>
        <time>2017-01-05T12:58:55Z</time>
      </trkpt>
      <trkpt lat="45.07408" lon="6.77816">
        <ele>2192.84</ele>
        <time>2017-01-05T12:59:00Z</time>
      </trkpt>
      <trkpt lat="45.07406" lon="6.77834">
        <ele>2190.88</ele>
        <time>2017-01-05T12:59:03Z</time>
      </trkpt>
      <trkpt lat="45.074" lon="6.77865">
        <ele>2186.5</ele>
        <time>2017-01-05T12:59:08Z</time>
      </trkpt>
      <trkpt lat="45.07397" lon="6.77883">
        <ele>2184.34</ele>
        <time>2017-01-05T12:59:11Z</time>
      </trkpt>
      <trkpt lat="45.07394" lon="6.779">
        <ele>2180.91</ele>
        <time>2017-01-05T12:59:14Z</time>
      </trkpt>
      <trkpt lat="45.07394" lon="6.77917">
        <ele>2178.07</ele>
        <time>2017-01-05T12:59:17Z</time>
      </trkpt>
      <trkpt lat="45.07406" lon="6.7794">
        <ele>2180.24</ele>
        <time>2017-01-05T12:59:22Z</time>
      </trkpt>
      <trkpt lat="45.07414" lon="6.77957">
        <ele>2180.57</ele>
        <time>2017-01-05T12:59:25Z</time>
      </trkpt>
      <trkpt lat="45.07417" lon="6.7797">
        <ele>2179.31</ele>
        <time>2017-01-05T12:59:27Z</time>
      </trkpt>
      <trkpt lat="45.07417" lon="6.77984">
        <ele>2178.55</ele>
        <time>2017-01-05T12:59:29Z</time>
      </trkpt>
      <trkpt lat="45.07418" lon="6.78016">
        <ele>2177.91</ele>
        <time>2017-01-05T12:59:34Z</time>
      </trkpt>
      <trkpt lat="45.07414" lon="6.78041">
        <ele>2176.24</ele>
        <time>2017-01-05T12:59:38Z</time>
      </trkpt>
      <trkpt lat="45.07411" lon="6.78061">
        <ele>2175.78</ele>
        <time>2017-01-05T12:59:41Z</time>
      </trkpt>
      <trkpt lat="45.07399" lon="6.78086">
        <ele>2174.05</ele>
        <time>2017-01-05T12:59:46Z</time>
      </trkpt>
      <trkpt lat="45.07383" lon="6.78105">
        <ele>2170.59</ele>
        <time>2017-01-05T12:59:51Z</time>
      </trkpt>
      <trkpt lat="45.07377" lon="6.7812">
        <ele>2170.68</ele>
        <time>2017-01-05T12:59:54Z</time>
      </trkpt>
      <trkpt lat="45.07371" lon="6.78132">
        <ele>2169.7</ele>
        <time>2017-01-05T12:59:58Z</time>
      </trkpt>
      <trkpt lat="45.0736" lon="6.78137">
        <ele>2165.44</ele>
        <time>2017-01-05T13:00:01Z</time>
      </trkpt>
      <trkpt lat="45.07348" lon="6.78145">
        <ele>2160.95</ele>
        <time>2017-01-05T13:00:04Z</time>
      </trkpt>
      <trkpt lat="45.07328" lon="6.78163">
        <ele>2156.73</ele>
        <time>2017-01-05T13:00:09Z</time>
      </trkpt>
      <trkpt lat="45.0732" lon="6.78176">
        <ele>2157.05</ele>
        <time>2017-01-05T13:00:12Z</time>
      </trkpt>
      <trkpt lat="45.07316" lon="6.78189">
        <ele>2158.74</ele>
        <time>2017-01-05T13:00:15Z</time>
      </trkpt>
      <trkpt lat="45.0731" lon="6.78219">
        <ele>2162.11</ele>
        <time>2017-01-05T13:00:21Z</time>
      </trkpt>
      <trkpt lat="45.07304" lon="6.78245">
        <ele>2161.72</ele>
        <time>2017-01-05T13:00:26Z</time>
      </trkpt>
      <trkpt lat="45.07296" lon="6.78255">
        <ele>2158.7</ele>
        <time>2017-01-05T13:00:29Z</time>
      </trkpt>
      <trkpt lat="45.07285" lon="6.78261">
        <ele>2154.63</ele>
        <time>2017-01-05T13:00:32Z</time>
      </trkpt>
      <trkpt lat="45.07276" lon="6.78267">
        <ele>2151.54</ele>
        <time>2017-01-05T13:00:35Z</time>
      </trkpt>
      <trkpt lat="45.07264" lon="6.78269">
        <ele>2146.05</ele>
        <time>2017-01-05T13:00:39Z</time>
      </trkpt>
      <trkpt lat="45.07254" lon="6.78272">
        <ele>2141.68</ele>
        <time>2017-01-05T13:00:42Z</time>
      </trkpt>
      <trkpt lat="45.07242" lon="6.78282">
        <ele>2137.47</ele>
        <time>2017-01-05T13:00:45Z</time>
      </trkpt>
      <trkpt lat="45.07232" lon="6.78292">
        <ele>2134.97</ele>
        <time>2017-01-05T13:00:48Z</time>
      </trkpt>
      <trkpt lat="45.07223" lon="6.78304">
        <ele>2134.91</ele>
        <time>2017-01-05T13:00:50Z</time>
      </trkpt>
      <trkpt lat="45.07215" lon="6.78317">
        <ele>2133.85</ele>
        <time>2017-01-05T13:00:53Z</time>
      </trkpt>
      <trkpt lat="45.07206" lon="6.78328">
        <ele>2133.84</ele>
        <time>2017-01-05T13:00:56Z</time>
      </trkpt>
      <trkpt lat="45.07196" lon="6.78341">
        <ele>2134.8</ele>
        <time>2017-01-05T13:00:59Z</time>
      </trkpt>
      <trkpt lat="45.07189" lon="6.78354">
        <ele>2135.97</ele>
        <time>2017-01-05T13:01:02Z</time>
      </trkpt>
      <trkpt lat="45.07179" lon="6.78358">
        <ele>2133.46</ele>
        <time>2017-01-05T13:01:05Z</time>
      </trkpt>
      <trkpt lat="45.07167" lon="6.78357">
        <ele>2128.72</ele>
        <time>2017-01-05T13:01:08Z</time>
      </trkpt>
      <trkpt lat="45.07146" lon="6.78352">
        <ele>2119.09</ele>
        <time>2017-01-05T13:01:14Z</time>
      </trkpt>
      <trkpt lat="45.07134" lon="6.78344">
        <ele>2113.48</ele>
        <time>2017-01-05T13:01:17Z</time>
      </trkpt>
      <trkpt lat="45.07122" lon="6.78341">
        <ele>2109.44</ele>
        <time>2017-01-05T13:01:20Z</time>
      </trkpt>
      <trkpt lat="45.07111" lon="6.7834">
        <ele>2106.31</ele>
        <time>2017-01-05T13:01:23Z</time>
      </trkpt>
      <trkpt lat="45.07098" lon="6.7834">
        <ele>2102.23</ele>
        <time>2017-01-05T13:01:26Z</time>
      </trkpt>
      <trkpt lat="45.07077" lon="6.78336">
        <ele>2095.65</ele>
        <time>2017-01-05T13:01:30Z</time>
      </trkpt>
      <trkpt lat="45.07064" lon="6.78334">
        <ele>2092.18</ele>
        <time>2017-01-05T13:01:33Z</time>
      </trkpt>
      <trkpt lat="45.07049" lon="6.78328">
        <ele>2088.25</ele>
        <time>2017-01-05T13:01:36Z</time>
      </trkpt>
      <trkpt lat="45.07037" lon="6.78327">
        <ele>2086.97</ele>
        <time>2017-01-05T13:01:39Z</time>
      </trkpt>
      <trkpt lat="45.07027" lon="6.78323">
        <ele>2085.47</ele>
        <time>2017-01-05T13:01:42Z</time>
      </trkpt>
      <trkpt lat="45.07009" lon="6.78327">
        <ele>2082.3</ele>
        <time>2017-01-05T13:01:46Z</time>
      </trkpt>
      <trkpt lat="45.06995" lon="6.78327">
        <ele>2079.11</ele>
        <time>2017-01-05T13:01:49Z</time>
      </trkpt>
      <trkpt lat="45.06983" lon="6.78328">
        <ele>2075.35</ele>
        <time>2017-01-05T13:01:52Z</time>
      </trkpt>
      <trkpt lat="45.0697" lon="6.7833">
        <ele>2071.51</ele>
        <time>2017-01-05T13:01:55Z</time>
      </trkpt>
      <trkpt lat="45.06958" lon="6.7833">
        <ele>2067.64</ele>
        <time>2017-01-05T13:01:58Z</time>
      </trkpt>
      <trkpt lat="45.06948" lon="6.78328">
        <ele>2064.2</ele>
        <time>2017-01-05T13:02:00Z</time>
      </trkpt>
      <trkpt lat="45.06925" lon="6.78325">
        <ele>2058.56</ele>
        <time>2017-01-05T13:02:05Z</time>
      </trkpt>
      <trkpt lat="45.06911" lon="6.78325">
        <ele>2056</ele>
        <time>2017-01-05T13:02:08Z</time>
      </trkpt>
      <trkpt lat="45.06896" lon="6.78327">
        <ele>2054.01</ele>
        <time>2017-01-05T13:02:11Z</time>
      </trkpt>
      <trkpt lat="45.06878" lon="6.78334">
        <ele>2052.01</ele>
        <time>2017-01-05T13:02:15Z</time>
      </trkpt>
      <trkpt lat="45.06866" lon="6.78345">
        <ele>2051.01</ele>
        <time>2017-01-05T13:02:18Z</time>
      </trkpt>
      <trkpt lat="45.06862" lon="6.78357">
        <ele>2051.69</ele>
        <time>2017-01-05T13:02:20Z</time>
      </trkpt>
      <trkpt lat="45.06859" lon="6.78373">
        <ele>2052.43</ele>
        <time>2017-01-05T13:02:23Z</time>
      </trkpt>
      <trkpt lat="45.06855" lon="6.78386">
        <ele>2052.61</ele>
        <time>2017-01-05T13:02:25Z</time>
      </trkpt>
      <trkpt lat="45.06847" lon="6.78398">
        <ele>2051.78</ele>
        <time>2017-01-05T13:02:27Z</time>
      </trkpt>
      <trkpt lat="45.06841" lon="6.78414">
        <ele>2051.67</ele>
        <time>2017-01-05T13:02:29Z</time>
      </trkpt>
      <trkpt lat="45.06834" lon="6.78424">
        <ele>2050.82</ele>
        <time>2017-01-05T13:02:31Z</time>
      </trkpt>
      <trkpt lat="45.06828" lon="6.78438">
        <ele>2049.15</ele>
        <time>2017-01-05T13:02:33Z</time>
      </trkpt>
      <trkpt lat="45.06825" lon="6.78454">
        <ele>2048.38</ele>
        <time>2017-01-05T13:02:36Z</time>
      </trkpt>
      <trkpt lat="45.06819" lon="6.78467">
        <ele>2046.61</ele>
        <time>2017-01-05T13:02:38Z</time>
      </trkpt>
      <trkpt lat="45.06815" lon="6.7848">
        <ele>2044.96</ele>
        <time>2017-01-05T13:02:39Z</time>
      </trkpt>
      <trkpt lat="45.06807" lon="6.78491">
        <ele>2042.74</ele>
        <time>2017-01-05T13:02:41Z</time>
      </trkpt>
      <trkpt lat="45.06803" lon="6.78507">
        <ele>2041.64</ele>
        <time>2017-01-05T13:02:44Z</time>
      </trkpt>
      <trkpt lat="45.06799" lon="6.78523">
        <ele>2041.38</ele>
        <time>2017-01-05T13:02:47Z</time>
      </trkpt>
      <trkpt lat="45.06793" lon="6.78549">
        <ele>2039.45</ele>
        <time>2017-01-05T13:02:52Z</time>
      </trkpt>
      <trkpt lat="45.06796" lon="6.78564">
        <ele>2039.02</ele>
        <time>2017-01-05T13:02:55Z</time>
      </trkpt>
      <trkpt lat="45.06804" lon="6.78574">
        <ele>2039.67</ele>
        <time>2017-01-05T13:02:57Z</time>
      </trkpt>
      <trkpt lat="45.06806" lon="6.78591">
        <ele>2038.58</ele>
        <time>2017-01-05T13:03:00Z</time>
      </trkpt>
      <trkpt lat="45.068" lon="6.78604">
        <ele>2036.51</ele>
        <time>2017-01-05T13:03:03Z</time>
      </trkpt>
      <trkpt lat="45.06791" lon="6.78613">
        <ele>2034.51</ele>
        <time>2017-01-05T13:03:05Z</time>
      </trkpt>
      <trkpt lat="45.06781" lon="6.78622">
        <ele>2033.64</ele>
        <time>2017-01-05T13:03:09Z</time>
      </trkpt>
      <trkpt lat="45.06772" lon="6.78629">
        <ele>2032.78</ele>
        <time>2017-01-05T13:03:11Z</time>
      </trkpt>
      <trkpt lat="45.06756" lon="6.78642">
        <ele>2030.23</ele>
        <time>2017-01-05T13:03:15Z</time>
      </trkpt>
      <trkpt lat="45.06743" lon="6.78661">
        <ele>2026.66</ele>
        <time>2017-01-05T13:03:20Z</time>
      </trkpt>
      <trkpt lat="45.0673" lon="6.78685">
        <ele>2019.95</ele>
        <time>2017-01-05T13:03:25Z</time>
      </trkpt>
      <trkpt lat="45.06724" lon="6.78698">
        <ele>2016.87</ele>
        <time>2017-01-05T13:03:27Z</time>
      </trkpt>
      <trkpt lat="45.06722" lon="6.78713">
        <ele>2016.6</ele>
        <time>2017-01-05T13:03:30Z</time>
      </trkpt>
      <trkpt lat="45.06718" lon="6.78728">
        <ele>2015.62</ele>
        <time>2017-01-05T13:03:32Z</time>
      </trkpt>
      <trkpt lat="45.06716" lon="6.78744">
        <ele>2015.66</ele>
        <time>2017-01-05T13:03:35Z</time>
      </trkpt>
      <trkpt lat="45.06715" lon="6.78763">
        <ele>2014.96</ele>
        <time>2017-01-05T13:03:38Z</time>
      </trkpt>
      <trkpt lat="45.0672" lon="6.78784">
        <ele>2016.48</ele>
        <time>2017-01-05T13:03:41Z</time>
      </trkpt>
      <trkpt lat="45.06706" lon="6.78784">
        <ele>2010.34</ele>
        <time>2017-01-05T13:03:48Z</time>
      </trkpt>
      <trkpt lat="45.06706" lon="6.78767">
        <ele>2010.93</ele>
        <time>2017-01-05T13:03:51Z</time>
      </trkpt>
      <trkpt lat="45.06704" lon="6.7875">
        <ele>2010.32</ele>
        <time>2017-01-05T13:03:54Z</time>
      </trkpt>
      <trkpt lat="45.067" lon="6.78731">
        <ele>2008.28</ele>
        <time>2017-01-05T13:03:57Z</time>
      </trkpt>
      <trkpt lat="45.06695" lon="6.78713">
        <ele>2006.64</ele>
        <time>2017-01-05T13:04:00Z</time>
      </trkpt>
      <trkpt lat="45.06695" lon="6.78698">
        <ele>2006.98</ele>
        <time>2017-01-05T13:04:02Z</time>
      </trkpt>
      <trkpt lat="45.06685" lon="6.78675">
        <ele>2005.34</ele>
        <time>2017-01-05T13:04:06Z</time>
      </trkpt>
      <trkpt lat="45.06675" lon="6.78652">
        <ele>2004.18</ele>
        <time>2017-01-05T13:04:10Z</time>
      </trkpt>
      <trkpt lat="45.06666" lon="6.78628">
        <ele>2001.86</ele>
        <time>2017-01-05T13:04:14Z</time>
      </trkpt>
      <trkpt lat="45.06663" lon="6.78614">
        <ele>2001.14</ele>
        <time>2017-01-05T13:04:16Z</time>
      </trkpt>
      <trkpt lat="45.06652" lon="6.78591">
        <ele>1996.04</ele>
        <time>2017-01-05T13:04:20Z</time>
      </trkpt>
      <trkpt lat="45.06646" lon="6.78575">
        <ele>1994.05</ele>
        <time>2017-01-05T13:04:23Z</time>
      </trkpt>
      <trkpt lat="45.06635" lon="6.78563">
        <ele>1989.24</ele>
        <time>2017-01-05T13:04:25Z</time>
      </trkpt>
      <trkpt lat="45.06628" lon="6.7855">
        <ele>1984.69</ele>
        <time>2017-01-05T13:04:27Z</time>
      </trkpt>
      <trkpt lat="45.0662" lon="6.78536">
        <ele>1979.77</ele>
        <time>2017-01-05T13:04:30Z</time>
      </trkpt>
      <trkpt lat="45.06622" lon="6.78521">
        <ele>1980.24</ele>
        <time>2017-01-05T13:04:32Z</time>
      </trkpt>
      <trkpt lat="45.06623" lon="6.78503">
        <ele>1980.69</ele>
        <time>2017-01-05T13:04:34Z</time>
      </trkpt>
      <trkpt lat="45.06626" lon="6.78485">
        <ele>1981.15</ele>
        <time>2017-01-05T13:04:36Z</time>
      </trkpt>
      <trkpt lat="45.06621" lon="6.78468">
        <ele>1980.28</ele>
        <time>2017-01-05T13:04:38Z</time>
      </trkpt>
      <trkpt lat="45.06616" lon="6.7845">
        <ele>1979.69</ele>
        <time>2017-01-05T13:04:40Z</time>
      </trkpt>
      <trkpt lat="45.06614" lon="6.78432">
        <ele>1978.65</ele>
        <time>2017-01-05T13:04:42Z</time>
      </trkpt>
      <trkpt lat="45.06611" lon="6.78414">
        <ele>1976.5</ele>
        <time>2017-01-05T13:04:44Z</time>
      </trkpt>
      <trkpt lat="45.06619" lon="6.78389">
        <ele>1974.9</ele>
        <time>2017-01-05T13:04:48Z</time>
      </trkpt>
      <trkpt lat="45.06627" lon="6.78381">
        <ele>1975.75</ele>
        <time>2017-01-05T13:04:50Z</time>
      </trkpt>
      <trkpt lat="45.06637" lon="6.78358">
        <ele>1974.86</ele>
        <time>2017-01-05T13:04:54Z</time>
      </trkpt>
      <trkpt lat="45.06639" lon="6.78331">
        <ele>1969.2</ele>
        <time>2017-01-05T13:05:02Z</time>
      </trkpt>
      <trkpt lat="45.06629" lon="6.78343">
        <ele>1969.59</ele>
        <time>2017-01-05T13:05:04Z</time>
      </trkpt>
      <trkpt lat="45.06611" lon="6.78358">
        <ele>1967.51</ele>
        <time>2017-01-05T13:05:08Z</time>
      </trkpt>
      <trkpt lat="45.06602" lon="6.78367">
        <ele>1966.26</ele>
        <time>2017-01-05T13:05:10Z</time>
      </trkpt>
      <trkpt lat="45.06592" lon="6.78381">
        <ele>1966.03</ele>
        <time>2017-01-05T13:05:13Z</time>
      </trkpt>
      <trkpt lat="45.06585" lon="6.78392">
        <ele>1965.72</ele>
        <time>2017-01-05T13:05:16Z</time>
      </trkpt>
      <trkpt lat="45.06576" lon="6.78404">
        <ele>1963.03</ele>
        <time>2017-01-05T13:05:19Z</time>
      </trkpt>
      <trkpt lat="45.06569" lon="6.78415">
        <ele>1960.62</ele>
        <time>2017-01-05T13:05:21Z</time>
      </trkpt>
      <trkpt lat="45.0656" lon="6.78439">
        <ele>1957.62</ele>
        <time>2017-01-05T13:05:27Z</time>
      </trkpt>
      <trkpt lat="45.06555" lon="6.78452">
        <ele>1955.98</ele>
        <time>2017-01-05T13:05:29Z</time>
      </trkpt>
      <trkpt lat="45.06554" lon="6.78468">
        <ele>1955.95</ele>
        <time>2017-01-05T13:05:32Z</time>
      </trkpt>
      <trkpt lat="45.0655" lon="6.78481">
        <ele>1953.98</ele>
        <time>2017-01-05T13:05:34Z</time>
      </trkpt>
      <trkpt lat="45.06547" lon="6.785">
        <ele>1952.49</ele>
        <time>2017-01-05T13:05:36Z</time>
      </trkpt>
      <trkpt lat="45.06537" lon="6.78532">
        <ele>1949.69</ele>
        <time>2017-01-05T13:05:38Z</time>
      </trkpt>
      <trkpt lat="45.06536" lon="6.78549">
        <ele>1948.42</ele>
        <time>2017-01-05T13:06:45Z</time>
      </trkpt>
      <trkpt lat="45.06531" lon="6.78579">
        <ele>1943.74</ele>
        <time>2017-01-05T13:06:52Z</time>
      </trkpt>
      <trkpt lat="45.06524" lon="6.7859">
        <ele>1939.5</ele>
        <time>2017-01-05T13:06:54Z</time>
      </trkpt>
      <trkpt lat="45.06519" lon="6.78604">
        <ele>1935.49</ele>
        <time>2017-01-05T13:06:56Z</time>
      </trkpt>
      <trkpt lat="45.06525" lon="6.78617">
        <ele>1936.99</ele>
        <time>2017-01-05T13:06:58Z</time>
      </trkpt>
      <trkpt lat="45.06528" lon="6.78633">
        <ele>1936.78</ele>
        <time>2017-01-05T13:07:01Z</time>
      </trkpt>
      <trkpt lat="45.06528" lon="6.78653">
        <ele>1936.1</ele>
        <time>2017-01-05T13:07:04Z</time>
      </trkpt>
      <trkpt lat="45.06532" lon="6.78679">
        <ele>1936.22</ele>
        <time>2017-01-05T13:07:09Z</time>
      </trkpt>
      <trkpt lat="45.06527" lon="6.78695">
        <ele>1931.57</ele>
        <time>2017-01-05T13:07:11Z</time>
      </trkpt>
      <trkpt lat="45.06527" lon="6.7871">
        <ele>1928.85</ele>
        <time>2017-01-05T13:07:13Z</time>
      </trkpt>
      <trkpt lat="45.06525" lon="6.78725">
        <ele>1925.59</ele>
        <time>2017-01-05T13:07:15Z</time>
      </trkpt>
      <trkpt lat="45.06525" lon="6.78743">
        <ele>1924.63</ele>
        <time>2017-01-05T13:07:17Z</time>
      </trkpt>
      <trkpt lat="45.06523" lon="6.78775">
        <ele>1924.16</ele>
        <time>2017-01-05T13:07:20Z</time>
      </trkpt>
      <trkpt lat="45.06522" lon="6.78796">
        <ele>1926.13</ele>
        <time>2017-01-05T13:07:22Z</time>
      </trkpt>
      <trkpt lat="45.06518" lon="6.78814">
        <ele>1926.79</ele>
        <time>2017-01-05T13:07:25Z</time>
      </trkpt>
      <trkpt lat="45.06515" lon="6.78831">
        <ele>1928.01</ele>
        <time>2017-01-05T13:07:28Z</time>
      </trkpt>
      <trkpt lat="45.06511" lon="6.78859">
        <ele>1928.87</ele>
        <time>2017-01-05T13:07:32Z</time>
      </trkpt>
      <trkpt lat="45.06507" lon="6.78878">
        <ele>1928.23</ele>
        <time>2017-01-05T13:07:34Z</time>
      </trkpt>
      <trkpt lat="45.06503" lon="6.78895">
        <ele>1926.9</ele>
        <time>2017-01-05T13:07:36Z</time>
      </trkpt>
      <trkpt lat="45.06499" lon="6.78911">
        <ele>1924.68</ele>
        <time>2017-01-05T13:07:38Z</time>
      </trkpt>
      <trkpt lat="45.06497" lon="6.78926">
        <ele>1923.08</ele>
        <time>2017-01-05T13:07:40Z</time>
      </trkpt>
      <trkpt lat="45.06496" lon="6.78947">
        <ele>1922.23</ele>
        <time>2017-01-05T13:07:43Z</time>
      </trkpt>
      <trkpt lat="45.06489" lon="6.78976">
        <ele>1919.15</ele>
        <time>2017-01-05T13:07:48Z</time>
      </trkpt>
      <trkpt lat="45.06485" lon="6.78989">
        <ele>1916.77</ele>
        <time>2017-01-05T13:07:54Z</time>
      </trkpt>
      <trkpt lat="45.0647" lon="6.78984">
        <ele>1910.3</ele>
        <time>2017-01-05T13:08:01Z</time>
      </trkpt>
      <trkpt lat="45.06475" lon="6.78971">
        <ele>1913.03</ele>
        <time>2017-01-05T13:08:03Z</time>
      </trkpt>
      <trkpt lat="45.06469" lon="6.78957">
        <ele>1910.62</ele>
        <time>2017-01-05T13:08:05Z</time>
      </trkpt>
      <trkpt lat="45.06458" lon="6.7893">
        <ele>1905.56</ele>
        <time>2017-01-05T13:08:10Z</time>
      </trkpt>
      <trkpt lat="45.06453" lon="6.78913">
        <ele>1903.33</ele>
        <time>2017-01-05T13:08:13Z</time>
      </trkpt>
      <trkpt lat="45.06448" lon="6.78884">
        <ele>1898.82</ele>
        <time>2017-01-05T13:08:17Z</time>
      </trkpt>
      <trkpt lat="45.06445" lon="6.78863">
        <ele>1894.4</ele>
        <time>2017-01-05T13:08:21Z</time>
      </trkpt>
      <trkpt lat="45.0645" lon="6.78848">
        <ele>1895.56</ele>
        <time>2017-01-05T13:08:23Z</time>
      </trkpt>
      <trkpt lat="45.06448" lon="6.7883">
        <ele>1891.71</ele>
        <time>2017-01-05T13:08:25Z</time>
      </trkpt>
      <trkpt lat="45.06446" lon="6.78811">
        <ele>1890.23</ele>
        <time>2017-01-05T13:08:27Z</time>
      </trkpt>
      <trkpt lat="45.06445" lon="6.78796">
        <ele>1889.17</ele>
        <time>2017-01-05T13:08:29Z</time>
      </trkpt>
      <trkpt lat="45.06443" lon="6.78782">
        <ele>1888.59</ele>
        <time>2017-01-05T13:08:31Z</time>
      </trkpt>
      <trkpt lat="45.06441" lon="6.78764">
        <ele>1889.07</ele>
        <time>2017-01-05T13:08:34Z</time>
      </trkpt>
      <trkpt lat="45.06437" lon="6.78747">
        <ele>1888.92</ele>
        <time>2017-01-05T13:08:37Z</time>
      </trkpt>
      <trkpt lat="45.06434" lon="6.7873">
        <ele>1888.61</ele>
        <time>2017-01-05T13:08:40Z</time>
      </trkpt>
      <trkpt lat="45.06431" lon="6.78717">
        <ele>1888.52</ele>
        <time>2017-01-05T13:08:42Z</time>
      </trkpt>
      <trkpt lat="45.06435" lon="6.78702">
        <ele>1890.28</ele>
        <time>2017-01-05T13:08:44Z</time>
      </trkpt>
      <trkpt lat="45.06434" lon="6.78687">
        <ele>1891.44</ele>
        <time>2017-01-05T13:08:46Z</time>
      </trkpt>
      <trkpt lat="45.06424" lon="6.78655">
        <ele>1892.57</ele>
        <time>2017-01-05T13:08:51Z</time>
      </trkpt>
      <trkpt lat="45.06421" lon="6.78642">
        <ele>1892.34</ele>
        <time>2017-01-05T13:08:53Z</time>
      </trkpt>
      <trkpt lat="45.06419" lon="6.78615">
        <ele>1892.86</ele>
        <time>2017-01-05T13:09:44Z</time>
      </trkpt>
      <trkpt lat="45.06413" lon="6.78598">
        <ele>1891.56</ele>
        <time>2017-01-05T13:09:47Z</time>
      </trkpt>
      <trkpt lat="45.06405" lon="6.78568">
        <ele>1891.79</ele>
        <time>2017-01-05T13:09:52Z</time>
      </trkpt>
      <trkpt lat="45.06397" lon="6.78551">
        <ele>1891.28</ele>
        <time>2017-01-05T13:09:55Z</time>
      </trkpt>
      <trkpt lat="45.06392" lon="6.78537">
        <ele>1889.69</ele>
        <time>2017-01-05T13:09:57Z</time>
      </trkpt>
      <trkpt lat="45.06382" lon="6.7851">
        <ele>1886.81</ele>
        <time>2017-01-05T13:10:02Z</time>
      </trkpt>
      <trkpt lat="45.06377" lon="6.78493">
        <ele>1885.9</ele>
        <time>2017-01-05T13:10:05Z</time>
      </trkpt>
      <trkpt lat="45.0637" lon="6.78481">
        <ele>1884.51</ele>
        <time>2017-01-05T13:10:08Z</time>
      </trkpt>
      <trkpt lat="45.06361" lon="6.78474">
        <ele>1882.87</ele>
        <time>2017-01-05T13:10:11Z</time>
      </trkpt>
      <trkpt lat="45.06352" lon="6.78465">
        <ele>1878.87</ele>
        <time>2017-01-05T13:10:13Z</time>
      </trkpt>
      <trkpt lat="45.06349" lon="6.78451">
        <ele>1876.86</ele>
        <time>2017-01-05T13:10:15Z</time>
      </trkpt>
      <trkpt lat="45.0635" lon="6.78434">
        <ele>1877</ele>
        <time>2017-01-05T13:10:17Z</time>
      </trkpt>
      <trkpt lat="45.06351" lon="6.78418">
        <ele>1877.47</ele>
        <time>2017-01-05T13:10:21Z</time>
      </trkpt>
      <trkpt lat="45.06352" lon="6.78403">
        <ele>1877.19</ele>
        <time>2017-01-05T13:10:22Z</time>
      </trkpt>
      <trkpt lat="45.0635" lon="6.78388">
        <ele>1875.92</ele>
        <time>2017-01-05T13:10:25Z</time>
      </trkpt>
      <trkpt lat="45.06358" lon="6.78364">
        <ele>1875.52</ele>
        <time>2017-01-05T13:10:29Z</time>
      </trkpt>
      <trkpt lat="45.06362" lon="6.78351">
        <ele>1874.2</ele>
        <time>2017-01-05T13:10:31Z</time>
      </trkpt>
      <trkpt lat="45.06364" lon="6.78334">
        <ele>1871.63</ele>
        <time>2017-01-05T13:10:34Z</time>
      </trkpt>
      <trkpt lat="45.06372" lon="6.78322">
        <ele>1870.83</ele>
        <time>2017-01-05T13:10:37Z</time>
      </trkpt>
      <trkpt lat="45.06373" lon="6.78306">
        <ele>1867.93</ele>
        <time>2017-01-05T13:10:40Z</time>
      </trkpt>
      <trkpt lat="45.06376" lon="6.78279">
        <ele>1862.64</ele>
        <time>2017-01-05T13:10:44Z</time>
      </trkpt>
      <trkpt lat="45.0638" lon="6.78263">
        <ele>1860.22</ele>
        <time>2017-01-05T13:10:47Z</time>
      </trkpt>
      <trkpt lat="45.06382" lon="6.78246">
        <ele>1857.68</ele>
        <time>2017-01-05T13:10:49Z</time>
      </trkpt>
      <trkpt lat="45.064" lon="6.78236">
        <ele>1861.95</ele>
        <time>2017-01-05T13:10:53Z</time>
      </trkpt>
      <trkpt lat="45.06418" lon="6.7822">
        <ele>1864.89</ele>
        <time>2017-01-05T13:10:57Z</time>
      </trkpt>
      <trkpt lat="45.0641" lon="6.78209">
        <ele>1860.97</ele>
        <time>2017-01-05T13:11:03Z</time>
      </trkpt>
      <trkpt lat="45.06391" lon="6.78225">
        <ele>1858.04</ele>
        <time>2017-01-05T13:11:08Z</time>
      </trkpt>
      <trkpt lat="45.06382" lon="6.78229">
        <ele>1855.36</ele>
        <time>2017-01-05T13:11:11Z</time>
      </trkpt>
      <trkpt lat="45.06369" lon="6.78235">
        <ele>1852.2</ele>
        <time>2017-01-05T13:11:13Z</time>
      </trkpt>
      <trkpt lat="45.0636" lon="6.78244">
        <ele>1851.33</ele>
        <time>2017-01-05T13:11:15Z</time>
      </trkpt>
      <trkpt lat="45.06353" lon="6.78261">
        <ele>1852.59</ele>
        <time>2017-01-05T13:11:18Z</time>
      </trkpt>
      <trkpt lat="45.0635" lon="6.7828">
        <ele>1855.28</ele>
        <time>2017-01-05T13:11:20Z</time>
      </trkpt>
      <trkpt lat="45.06341" lon="6.78293">
        <ele>1855.86</ele>
        <time>2017-01-05T13:11:23Z</time>
      </trkpt>
      <trkpt lat="45.06336" lon="6.78307">
        <ele>1858.32</ele>
        <time>2017-01-05T13:11:25Z</time>
      </trkpt>
      <trkpt lat="45.06326" lon="6.78318">
        <ele>1857.7</ele>
        <time>2017-01-05T13:11:27Z</time>
      </trkpt>
      <trkpt lat="45.06316" lon="6.78323">
        <ele>1855.38</ele>
        <time>2017-01-05T13:11:29Z</time>
      </trkpt>
      <trkpt lat="45.06306" lon="6.78331">
        <ele>1854.42</ele>
        <time>2017-01-05T13:11:32Z</time>
      </trkpt>
      <trkpt lat="45.06291" lon="6.7834">
        <ele>1851.28</ele>
        <time>2017-01-05T13:11:35Z</time>
      </trkpt>
      <trkpt lat="45.06277" lon="6.78342">
        <ele>1846.77</ele>
        <time>2017-01-05T13:11:38Z</time>
      </trkpt>
      <trkpt lat="45.06263" lon="6.78344">
        <ele>1841.47</ele>
        <time>2017-01-05T13:11:41Z</time>
      </trkpt>
      <trkpt lat="45.06253" lon="6.78348">
        <ele>1837.96</ele>
        <time>2017-01-05T13:11:43Z</time>
      </trkpt>
      <trkpt lat="45.06242" lon="6.78351">
        <ele>1834.32</ele>
        <time>2017-01-05T13:11:45Z</time>
      </trkpt>
      <trkpt lat="45.06228" lon="6.78356">
        <ele>1830.07</ele>
        <time>2017-01-05T13:11:48Z</time>
      </trkpt>
      <trkpt lat="45.06218" lon="6.78368">
        <ele>1829.92</ele>
        <time>2017-01-05T13:11:51Z</time>
      </trkpt>
      <trkpt lat="45.06213" lon="6.78384">
        <ele>1832.33</ele>
        <time>2017-01-05T13:11:54Z</time>
      </trkpt>
      <trkpt lat="45.062" lon="6.78405">
        <ele>1833.21</ele>
        <time>2017-01-05T13:11:58Z</time>
      </trkpt>
      <trkpt lat="45.06194" lon="6.78416">
        <ele>1833.68</ele>
        <time>2017-01-05T13:12:00Z</time>
      </trkpt>
      <trkpt lat="45.06186" lon="6.78445">
        <ele>1831.54</ele>
        <time>2017-01-05T13:12:05Z</time>
      </trkpt>
      <trkpt lat="45.06183" lon="6.78463">
        <ele>1828.25</ele>
        <time>2017-01-05T13:12:08Z</time>
      </trkpt>
      <trkpt lat="45.06185" lon="6.78495">
        <ele>1825.52</ele>
        <time>2017-01-05T13:12:13Z</time>
      </trkpt>
      <trkpt lat="45.06179" lon="6.78515">
        <ele>1825.94</ele>
        <time>2017-01-05T13:12:18Z</time>
      </trkpt>
      <trkpt lat="45.06164" lon="6.785">
        <ele>1822.22</ele>
        <time>2017-01-05T13:12:24Z</time>
      </trkpt>
      <trkpt lat="45.06154" lon="6.78491">
        <ele>1819.43</ele>
        <time>2017-01-05T13:12:26Z</time>
      </trkpt>
      <trkpt lat="45.06139" lon="6.78471">
        <ele>1814.27</ele>
        <time>2017-01-05T13:12:30Z</time>
      </trkpt>
      <trkpt lat="45.06131" lon="6.78454">
        <ele>1813.93</ele>
        <time>2017-01-05T13:12:33Z</time>
      </trkpt>
      <trkpt lat="45.06126" lon="6.78441">
        <ele>1813.61</ele>
        <time>2017-01-05T13:12:35Z</time>
      </trkpt>
      <trkpt lat="45.06122" lon="6.78422">
        <ele>1812.54</ele>
        <time>2017-01-05T13:12:38Z</time>
      </trkpt>
      <trkpt lat="45.06125" lon="6.78408">
        <ele>1812.65</ele>
        <time>2017-01-05T13:12:41Z</time>
      </trkpt>
      <trkpt lat="45.06126" lon="6.78392">
        <ele>1812.35</ele>
        <time>2017-01-05T13:12:44Z</time>
      </trkpt>
      <trkpt lat="45.06125" lon="6.78375">
        <ele>1809.64</ele>
        <time>2017-01-05T13:12:46Z</time>
      </trkpt>
      <trkpt lat="45.06125" lon="6.78355">
        <ele>1805.69</ele>
        <time>2017-01-05T13:12:48Z</time>
      </trkpt>
      <trkpt lat="45.06134" lon="6.78342">
        <ele>1804.72</ele>
        <time>2017-01-05T13:12:50Z</time>
      </trkpt>
      <trkpt lat="45.06142" lon="6.78331">
        <ele>1804.24</ele>
        <time>2017-01-05T13:12:52Z</time>
      </trkpt>
      <trkpt lat="45.06154" lon="6.78314">
        <ele>1802.51</ele>
        <time>2017-01-05T13:12:54Z</time>
      </trkpt>
      <trkpt lat="45.06179" lon="6.78312">
        <ele>1807.1</ele>
        <time>2017-01-05T13:12:58Z</time>
      </trkpt>
      <trkpt lat="45.06191" lon="6.78307">
        <ele>1807.89</ele>
        <time>2017-01-05T13:13:01Z</time>
      </trkpt>
      <trkpt lat="45.0621" lon="6.78292">
        <ele>1809.02</ele>
        <time>2017-01-05T13:13:03Z</time>
      </trkpt>
      <trkpt lat="45.06217" lon="6.78264">
        <ele>1805.16</ele>
        <time>2017-01-05T13:13:08Z</time>
      </trkpt>
      <trkpt lat="45.06221" lon="6.78248">
        <ele>1803.54</ele>
        <time>2017-01-05T13:13:11Z</time>
      </trkpt>
      <trkpt lat="45.06224" lon="6.78232">
        <ele>1803.97</ele>
        <time>2017-01-05T13:13:14Z</time>
      </trkpt>
      <trkpt lat="45.06226" lon="6.78218">
        <ele>1803.49</ele>
        <time>2017-01-05T13:13:17Z</time>
      </trkpt>
      <trkpt lat="45.06225" lon="6.78203">
        <ele>1801.1</ele>
        <time>2017-01-05T13:13:20Z</time>
      </trkpt>
      <trkpt lat="45.06223" lon="6.78186">
        <ele>1797.92</ele>
        <time>2017-01-05T13:13:23Z</time>
      </trkpt>
      <trkpt lat="45.06224" lon="6.78155">
        <ele>1793.09</ele>
        <time>2017-01-05T13:13:29Z</time>
      </trkpt>
      <trkpt lat="45.06236" lon="6.78134">
        <ele>1791.4</ele>
        <time>2017-01-05T13:13:33Z</time>
      </trkpt>
      <trkpt lat="45.06236" lon="6.78118">
        <ele>1788.41</ele>
        <time>2017-01-05T13:13:36Z</time>
      </trkpt>
      <trkpt lat="45.06227" lon="6.78112">
        <ele>1784.65</ele>
        <time>2017-01-05T13:13:38Z</time>
      </trkpt>
      <trkpt lat="45.06207" lon="6.78118">
        <ele>1781.14</ele>
        <time>2017-01-05T13:13:42Z</time>
      </trkpt>
      <trkpt lat="45.06196" lon="6.78118">
        <ele>1778.74</ele>
        <time>2017-01-05T13:13:44Z</time>
      </trkpt>
      <trkpt lat="45.06183" lon="6.78118">
        <ele>1774.43</ele>
        <time>2017-01-05T13:13:46Z</time>
      </trkpt>
      <trkpt lat="45.06171" lon="6.78119">
        <ele>1770.51</ele>
        <time>2017-01-05T13:13:48Z</time>
      </trkpt>
      <trkpt lat="45.06157" lon="6.7812">
        <ele>1767.24</ele>
        <time>2017-01-05T13:13:50Z</time>
      </trkpt>
      <trkpt lat="45.06149" lon="6.78132">
        <ele>1768</ele>
        <time>2017-01-05T13:13:52Z</time>
      </trkpt>
      <trkpt lat="45.06144" lon="6.78145">
        <ele>1769.23</ele>
        <time>2017-01-05T13:13:54Z</time>
      </trkpt>
      <trkpt lat="45.06144" lon="6.78161">
        <ele>1771.32</ele>
        <time>2017-01-05T13:13:56Z</time>
      </trkpt>
      <trkpt lat="45.06145" lon="6.78185">
        <ele>1774.39</ele>
        <time>2017-01-05T13:13:58Z</time>
      </trkpt>
      <trkpt lat="45.06143" lon="6.78207">
        <ele>1776.63</ele>
        <time>2017-01-05T13:14:00Z</time>
      </trkpt>
      <trkpt lat="45.06138" lon="6.78223">
        <ele>1777.88</ele>
        <time>2017-01-05T13:14:02Z</time>
      </trkpt>
      <trkpt lat="45.06132" lon="6.78236">
        <ele>1778.67</ele>
        <time>2017-01-05T13:14:03Z</time>
      </trkpt>
      <trkpt lat="45.06128" lon="6.7825">
        <ele>1779.68</ele>
        <time>2017-01-05T13:14:04Z</time>
      </trkpt>
      <trkpt lat="45.06119" lon="6.78268">
        <ele>1781.2</ele>
        <time>2017-01-05T13:14:06Z</time>
      </trkpt>
      <trkpt lat="45.06107" lon="6.78266">
        <ele>1777.63</ele>
        <time>2017-01-05T13:14:08Z</time>
      </trkpt>
      <trkpt lat="45.06096" lon="6.78268">
        <ele>1774.32</ele>
        <time>2017-01-05T13:14:10Z</time>
      </trkpt>
      <trkpt lat="45.06084" lon="6.78271">
        <ele>1770.92</ele>
        <time>2017-01-05T13:14:13Z</time>
      </trkpt>
      <trkpt lat="45.0607" lon="6.78275">
        <ele>1768.47</ele>
        <time>2017-01-05T13:14:16Z</time>
      </trkpt>
      <trkpt lat="45.06061" lon="6.7828">
        <ele>1767.7</ele>
        <time>2017-01-05T13:14:18Z</time>
      </trkpt>
      <trkpt lat="45.06042" lon="6.78277">
        <ele>1760.39</ele>
        <time>2017-01-05T13:14:23Z</time>
      </trkpt>
      <trkpt lat="45.0603" lon="6.78287">
        <ele>1758.95</ele>
        <time>2017-01-05T13:14:26Z</time>
      </trkpt>
      <trkpt lat="45.06022" lon="6.78295">
        <ele>1757.79</ele>
        <time>2017-01-05T13:14:28Z</time>
      </trkpt>
      <trkpt lat="45.06012" lon="6.78304">
        <ele>1756.28</ele>
        <time>2017-01-05T13:14:30Z</time>
      </trkpt>
      <trkpt lat="45.06" lon="6.78312">
        <ele>1752.84</ele>
        <time>2017-01-05T13:14:33Z</time>
      </trkpt>
      <trkpt lat="45.05988" lon="6.78318">
        <ele>1750.12</ele>
        <time>2017-01-05T13:14:36Z</time>
      </trkpt>
      <trkpt lat="45.05967" lon="6.78325">
        <ele>1745.67</ele>
        <time>2017-01-05T13:14:41Z</time>
      </trkpt>
      <trkpt lat="45.05956" lon="6.78332">
        <ele>1745.11</ele>
        <time>2017-01-05T13:14:46Z</time>
      </trkpt>
      <trkpt lat="45.05964" lon="6.78311">
        <ele>1741.44</ele>
        <time>2017-01-05T13:14:52Z</time>
      </trkpt>
      <trkpt lat="45.05975" lon="6.78302">
        <ele>1741.69</ele>
        <time>2017-01-05T13:14:56Z</time>
      </trkpt>
      <trkpt lat="45.05987" lon="6.78299">
        <ele>1744.7</ele>
        <time>2017-01-05T13:14:58Z</time>
      </trkpt>
      <trkpt lat="45.05997" lon="6.78291">
        <ele>1745.72</ele>
        <time>2017-01-05T13:15:00Z</time>
      </trkpt>
      <trkpt lat="45.06016" lon="6.78276">
        <ele>1749.42</ele>
        <time>2017-01-05T13:15:04Z</time>
      </trkpt>
      <trkpt lat="45.06028" lon="6.78263">
        <ele>1751.2</ele>
        <time>2017-01-05T13:15:06Z</time>
      </trkpt>
      <trkpt lat="45.06034" lon="6.78247">
        <ele>1748.5</ele>
        <time>2017-01-05T13:15:09Z</time>
      </trkpt>
      <trkpt lat="45.06039" lon="6.78234">
        <ele>1745.52</ele>
        <time>2017-01-05T13:15:12Z</time>
      </trkpt>
      <trkpt lat="45.06038" lon="6.78213">
        <ele>1739.92</ele>
        <time>2017-01-05T13:15:44Z</time>
      </trkpt>
      <trkpt lat="45.06037" lon="6.78185">
        <ele>1735.09</ele>
        <time>2017-01-05T13:15:50Z</time>
      </trkpt>
      <trkpt lat="45.06031" lon="6.78173">
        <ele>1731.14</ele>
        <time>2017-01-05T13:15:53Z</time>
      </trkpt>
      <trkpt lat="45.06027" lon="6.78155">
        <ele>1727.87</ele>
        <time>2017-01-05T13:15:56Z</time>
      </trkpt>
      <trkpt lat="45.06024" lon="6.78128">
        <ele>1724.65</ele>
        <time>2017-01-05T13:16:01Z</time>
      </trkpt>
      <trkpt lat="45.06006" lon="6.78114">
        <ele>1716.6</ele>
        <time>2017-01-05T13:16:05Z</time>
      </trkpt>
      <trkpt lat="45.0601" lon="6.78143">
        <ele>1720.74</ele>
        <time>2017-01-05T13:16:08Z</time>
      </trkpt>
      <trkpt lat="45.06009" lon="6.78162">
        <ele>1722.03</ele>
        <time>2017-01-05T13:16:10Z</time>
      </trkpt>
      <trkpt lat="45.06013" lon="6.78178">
        <ele>1724.88</ele>
        <time>2017-01-05T13:16:12Z</time>
      </trkpt>
      <trkpt lat="45.06012" lon="6.78196">
        <ele>1726.27</ele>
        <time>2017-01-05T13:16:15Z</time>
      </trkpt>
      <trkpt lat="45.05993" lon="6.78204">
        <ele>1719.07</ele>
        <time>2017-01-05T13:16:19Z</time>
      </trkpt>
      <trkpt lat="45.05981" lon="6.78212">
        <ele>1715.21</ele>
        <time>2017-01-05T13:16:21Z</time>
      </trkpt>
      <trkpt lat="45.05971" lon="6.78222">
        <ele>1713.83</ele>
        <time>2017-01-05T13:16:23Z</time>
      </trkpt>
      <trkpt lat="45.05966" lon="6.78235">
        <ele>1716.86</ele>
        <time>2017-01-05T13:16:25Z</time>
      </trkpt>
      <trkpt lat="45.05953" lon="6.78248">
        <ele>1717.78</ele>
        <time>2017-01-05T13:16:28Z</time>
      </trkpt>
      <trkpt lat="45.05941" lon="6.78251">
        <ele>1715.37</ele>
        <time>2017-01-05T13:16:31Z</time>
      </trkpt>
      <trkpt lat="45.05929" lon="6.7825">
        <ele>1711.91</ele>
        <time>2017-01-05T13:16:34Z</time>
      </trkpt>
      <trkpt lat="45.05911" lon="6.78249">
        <ele>1706.86</ele>
        <time>2017-01-05T13:16:38Z</time>
      </trkpt>
      <trkpt lat="45.05899" lon="6.78246">
        <ele>1702.37</ele>
        <time>2017-01-05T13:16:41Z</time>
      </trkpt>
      <trkpt lat="45.05887" lon="6.78247">
        <ele>1699.73</ele>
        <time>2017-01-05T13:16:44Z</time>
      </trkpt>
      <trkpt lat="45.05877" lon="6.78253">
        <ele>1699.64</ele>
        <time>2017-01-05T13:16:47Z</time>
      </trkpt>
      <trkpt lat="45.05865" lon="6.78256">
        <ele>1698.31</ele>
        <time>2017-01-05T13:16:50Z</time>
      </trkpt>
      <trkpt lat="45.05874" lon="6.78246">
        <ele>1696.94</ele>
        <time>2017-01-05T13:16:54Z</time>
      </trkpt>
      <trkpt lat="45.05883" lon="6.78234">
        <ele>1695.04</ele>
        <time>2017-01-05T13:16:56Z</time>
      </trkpt>
      <trkpt lat="45.05895" lon="6.78222">
        <ele>1693.27</ele>
        <time>2017-01-05T13:16:58Z</time>
      </trkpt>
      <trkpt lat="45.05905" lon="6.78218">
        <ele>1694.51</ele>
        <time>2017-01-05T13:17:00Z</time>
      </trkpt>
      <trkpt lat="45.0592" lon="6.78208">
        <ele>1695.94</ele>
        <time>2017-01-05T13:17:02Z</time>
      </trkpt>
      <trkpt lat="45.05937" lon="6.78195">
        <ele>1697.35</ele>
        <time>2017-01-05T13:17:06Z</time>
      </trkpt>
      <trkpt lat="45.05933" lon="6.78179">
        <ele>1693.54</ele>
        <time>2017-01-05T13:17:10Z</time>
      </trkpt>
      <trkpt lat="45.05921" lon="6.78175">
        <ele>1690.28</ele>
        <time>2017-01-05T13:17:13Z</time>
      </trkpt>
      <trkpt lat="45.05903" lon="6.7819">
        <ele>1687.51</ele>
        <time>2017-01-05T13:17:17Z</time>
      </trkpt>
      <trkpt lat="45.05886" lon="6.78197">
        <ele>1684.39</ele>
        <time>2017-01-05T13:17:20Z</time>
      </trkpt>
      <trkpt lat="45.05875" lon="6.78201">
        <ele>1683.74</ele>
        <time>2017-01-05T13:17:24Z</time>
      </trkpt>
      <trkpt lat="45.05865" lon="6.78206">
        <ele>1683.85</ele>
        <time>2017-01-05T13:17:27Z</time>
      </trkpt>
      <trkpt lat="45.05846" lon="6.78209">
        <ele>1680.72</ele>
        <time>2017-01-05T13:17:31Z</time>
      </trkpt>
      <trkpt lat="45.05828" lon="6.78221">
        <ele>1679.39</ele>
        <time>2017-01-05T13:17:40Z</time>
      </trkpt>
      <trkpt lat="45.05812" lon="6.78244">
        <ele>1679.01</ele>
        <time>2017-01-05T13:17:46Z</time>
      </trkpt>
      <trkpt lat="45.05798" lon="6.78271">
        <ele>1675.66</ele>
        <time>2017-01-05T13:17:50Z</time>
      </trkpt>
      <trkpt lat="45.05787" lon="6.783">
        <ele>1676.23</ele>
        <time>2017-01-05T13:17:54Z</time>
      </trkpt>
      <trkpt lat="45.05787" lon="6.78331">
        <ele>1681.56</ele>
        <time>2017-01-05T13:17:59Z</time>
      </trkpt>
      <trkpt lat="45.05774" lon="6.78356">
        <ele>1678.2</ele>
        <time>2017-01-05T13:18:04Z</time>
      </trkpt>
      <trkpt lat="45.05759" lon="6.78377">
        <ele>1669.48</ele>
        <time>2017-01-05T13:18:08Z</time>
      </trkpt>
      <trkpt lat="45.0575" lon="6.78387">
        <ele>1665.53</ele>
        <time>2017-01-05T13:18:10Z</time>
      </trkpt>
      <trkpt lat="45.05746" lon="6.78402">
        <ele>1667.24</ele>
        <time>2017-01-05T13:18:12Z</time>
      </trkpt>
      <trkpt lat="45.05737" lon="6.78419">
        <ele>1666.95</ele>
        <time>2017-01-05T13:18:14Z</time>
      </trkpt>
      <trkpt lat="45.0573" lon="6.78432">
        <ele>1665.32</ele>
        <time>2017-01-05T13:18:16Z</time>
      </trkpt>
      <trkpt lat="45.05719" lon="6.78455">
        <ele>1663.68</ele>
        <time>2017-01-05T13:18:19Z</time>
      </trkpt>
      <trkpt lat="45.05711" lon="6.78468">
        <ele>1661.07</ele>
        <time>2017-01-05T13:18:23Z</time>
      </trkpt>
      <trkpt lat="45.05705" lon="6.78481">
        <ele>1659.02</ele>
        <time>2017-01-05T13:18:26Z</time>
      </trkpt>
      <trkpt lat="45.05697" lon="6.78495">
        <ele>1656.7</ele>
        <time>2017-01-05T13:18:29Z</time>
      </trkpt>
      <trkpt lat="45.05693" lon="6.7851">
        <ele>1656.53</ele>
        <time>2017-01-05T13:18:32Z</time>
      </trkpt>
      <trkpt lat="45.05688" lon="6.78523">
        <ele>1654.78</ele>
        <time>2017-01-05T13:18:35Z</time>
      </trkpt>
      <trkpt lat="45.05682" lon="6.78535">
        <ele>1651.95</ele>
        <time>2017-01-05T13:18:38Z</time>
      </trkpt>
      <trkpt lat="45.05675" lon="6.78549">
        <ele>1647.67</ele>
        <time>2017-01-05T13:18:41Z</time>
      </trkpt>
      <trkpt lat="45.05672" lon="6.78569">
        <ele>1647.24</ele>
        <time>2017-01-05T13:18:44Z</time>
      </trkpt>
      <trkpt lat="45.0567" lon="6.78597">
        <ele>1648.3</ele>
        <time>2017-01-05T13:18:49Z</time>
      </trkpt>
      <trkpt lat="45.05665" lon="6.78616">
        <ele>1647.18</ele>
        <time>2017-01-05T13:18:51Z</time>
      </trkpt>
      <trkpt lat="45.05666" lon="6.78634">
        <ele>1646.62</ele>
        <time>2017-01-05T13:18:53Z</time>
      </trkpt>
      <trkpt lat="45.05666" lon="6.78662">
        <ele>1639.06</ele>
        <time>2017-01-05T13:18:56Z</time>
      </trkpt>
      <trkpt lat="45.05669" lon="6.78681">
        <ele>1636.91</ele>
        <time>2017-01-05T13:18:59Z</time>
      </trkpt>
      <trkpt lat="45.05658" lon="6.78684">
        <ele>1632.41</ele>
        <time>2017-01-05T13:19:12Z</time>
      </trkpt>
      <trkpt lat="45.05662" lon="6.78669">
        <ele>1635.48</ele>
        <time>2017-01-05T13:19:14Z</time>
      </trkpt>
      <trkpt lat="45.05654" lon="6.7864">
        <ele>1639.64</ele>
        <time>2017-01-05T13:19:19Z</time>
      </trkpt>
      <trkpt lat="45.05654" lon="6.78625">
        <ele>1641</ele>
        <time>2017-01-05T13:19:21Z</time>
      </trkpt>
      <trkpt lat="45.05649" lon="6.78598">
        <ele>1638.1</ele>
        <time>2017-01-05T13:19:25Z</time>
      </trkpt>
      <trkpt lat="45.05647" lon="6.78576">
        <ele>1634.21</ele>
        <time>2017-01-05T13:19:27Z</time>
      </trkpt>
      <trkpt lat="45.05645" lon="6.7856">
        <ele>1630.06</ele>
        <time>2017-01-05T13:19:30Z</time>
      </trkpt>
      <trkpt lat="45.05643" lon="6.78543">
        <ele>1627.22</ele>
        <time>2017-01-05T13:19:33Z</time>
      </trkpt>
      <trkpt lat="45.05644" lon="6.78512">
        <ele>1625.6</ele>
        <time>2017-01-05T13:19:37Z</time>
      </trkpt>
      <trkpt lat="45.05649" lon="6.78496">
        <ele>1627.79</ele>
        <time>2017-01-05T13:19:40Z</time>
      </trkpt>
      <trkpt lat="45.05648" lon="6.7848">
        <ele>1626</ele>
        <time>2017-01-05T13:19:44Z</time>
      </trkpt>
      <trkpt lat="45.05653" lon="6.78462">
        <ele>1626.66</ele>
        <time>2017-01-05T13:19:46Z</time>
      </trkpt>
      <trkpt lat="45.05655" lon="6.78443">
        <ele>1625.67</ele>
        <time>2017-01-05T13:19:49Z</time>
      </trkpt>
      <trkpt lat="45.05656" lon="6.78425">
        <ele>1622.99</ele>
        <time>2017-01-05T13:19:52Z</time>
      </trkpt>
      <trkpt lat="45.05657" lon="6.78405">
        <ele>1620.51</ele>
        <time>2017-01-05T13:19:54Z</time>
      </trkpt>
      <trkpt lat="45.05657" lon="6.78387">
        <ele>1617.92</ele>
        <time>2017-01-05T13:19:57Z</time>
      </trkpt>
      <trkpt lat="45.0566" lon="6.7836">
        <ele>1616.06</ele>
        <time>2017-01-05T13:20:01Z</time>
      </trkpt>
      <trkpt lat="45.05664" lon="6.78344">
        <ele>1616</ele>
        <time>2017-01-05T13:20:04Z</time>
      </trkpt>
      <trkpt lat="45.05669" lon="6.78331">
        <ele>1616.65</ele>
        <time>2017-01-05T13:20:07Z</time>
      </trkpt>
      <trkpt lat="45.05666" lon="6.78315">
        <ele>1613.61</ele>
        <time>2017-01-05T13:20:11Z</time>
      </trkpt>
      <trkpt lat="45.05649" lon="6.78321">
        <ele>1604.19</ele>
        <time>2017-01-05T13:20:17Z</time>
      </trkpt>
      <trkpt lat="45.05643" lon="6.78333">
        <ele>1602.44</ele>
        <time>2017-01-05T13:20:20Z</time>
      </trkpt>
      <trkpt lat="45.05639" lon="6.78347">
        <ele>1602.02</ele>
        <time>2017-01-05T13:20:23Z</time>
      </trkpt>
      <trkpt lat="45.05636" lon="6.7836">
        <ele>1601.94</ele>
        <time>2017-01-05T13:20:26Z</time>
      </trkpt>
      <trkpt lat="45.05631" lon="6.78374">
        <ele>1600.84</ele>
        <time>2017-01-05T13:20:28Z</time>
      </trkpt>
      <trkpt lat="45.05624" lon="6.78387">
        <ele>1598.89</ele>
        <time>2017-01-05T13:20:30Z</time>
      </trkpt>
      <trkpt lat="45.0562" lon="6.78401">
        <ele>1597.92</ele>
        <time>2017-01-05T13:20:32Z</time>
      </trkpt>
      <trkpt lat="45.05617" lon="6.78427">
        <ele>1597.56</ele>
        <time>2017-01-05T13:20:36Z</time>
      </trkpt>
      <trkpt lat="45.05613" lon="6.78445">
        <ele>1597.68</ele>
        <time>2017-01-05T13:20:39Z</time>
      </trkpt>
      <trkpt lat="45.05607" lon="6.7846">
        <ele>1597.27</ele>
        <time>2017-01-05T13:20:42Z</time>
      </trkpt>
      <trkpt lat="45.05601" lon="6.78473">
        <ele>1595.61</ele>
        <time>2017-01-05T13:20:44Z</time>
      </trkpt>
      <trkpt lat="45.05596" lon="6.78485">
        <ele>1593.62</ele>
        <time>2017-01-05T13:20:46Z</time>
      </trkpt>
      <trkpt lat="45.05591" lon="6.78503">
        <ele>1592.7</ele>
        <time>2017-01-05T13:20:48Z</time>
      </trkpt>
      <trkpt lat="45.05587" lon="6.78518">
        <ele>1592.57</ele>
        <time>2017-01-05T13:20:50Z</time>
      </trkpt>
      <trkpt lat="45.05583" lon="6.78532">
        <ele>1592.7</ele>
        <time>2017-01-05T13:20:52Z</time>
      </trkpt>
      <trkpt lat="45.05577" lon="6.78549">
        <ele>1592.31</ele>
        <time>2017-01-05T13:20:54Z</time>
      </trkpt>
      <trkpt lat="45.0557" lon="6.78565">
        <ele>1589.65</ele>
        <time>2017-01-05T13:20:56Z</time>
      </trkpt>
      <trkpt lat="45.05566" lon="6.78585">
        <ele>1587.78</ele>
        <time>2017-01-05T13:20:59Z</time>
      </trkpt>
      <trkpt lat="45.05563" lon="6.78601">
        <ele>1586.91</ele>
        <time>2017-01-05T13:21:01Z</time>
      </trkpt>
      <trkpt lat="45.05563" lon="6.78616">
        <ele>1586.76</ele>
        <time>2017-01-05T13:21:04Z</time>
      </trkpt>
      <trkpt lat="45.05563" lon="6.78633">
        <ele>1586.34</ele>
        <time>2017-01-05T13:21:06Z</time>
      </trkpt>
      <trkpt lat="45.05562" lon="6.78648">
        <ele>1584.17</ele>
        <time>2017-01-05T13:21:08Z</time>
      </trkpt>
      <trkpt lat="45.05561" lon="6.78665">
        <ele>1580.64</ele>
        <time>2017-01-05T13:21:11Z</time>
      </trkpt>
      <trkpt lat="45.05558" lon="6.7868">
        <ele>1576.56</ele>
        <time>2017-01-05T13:21:15Z</time>
      </trkpt>
      <trkpt lat="45.05551" lon="6.78693">
        <ele>1572.02</ele>
        <time>2017-01-05T13:21:17Z</time>
      </trkpt>
      <trkpt lat="45.05546" lon="6.78712">
        <ele>1568.37</ele>
        <time>2017-01-05T13:21:23Z</time>
      </trkpt>
      <trkpt lat="45.05548" lon="6.78696">
        <ele>1570.25</ele>
        <time>2017-01-05T13:21:26Z</time>
      </trkpt>
      <trkpt lat="45.05549" lon="6.78669">
        <ele>1573.32</ele>
        <time>2017-01-05T13:21:30Z</time>
      </trkpt>
      <trkpt lat="45.05532" lon="6.78661">
        <ele>1565.17</ele>
        <time>2017-01-05T13:21:32Z</time>
      </trkpt>
      <trkpt lat="45.05529" lon="6.78645">
        <ele>1563.6</ele>
        <time>2017-01-05T13:21:34Z</time>
      </trkpt>
      <trkpt lat="45.05532" lon="6.78627">
        <ele>1565.51</ele>
        <time>2017-01-05T13:21:36Z</time>
      </trkpt>
      <trkpt lat="45.05532" lon="6.78609">
        <ele>1565.18</ele>
        <time>2017-01-05T13:21:38Z</time>
      </trkpt>
      <trkpt lat="45.05528" lon="6.78589">
        <ele>1562.23</ele>
        <time>2017-01-05T13:21:41Z</time>
      </trkpt>
      <trkpt lat="45.05528" lon="6.78562">
        <ele>1558.14</ele>
        <time>2017-01-05T13:21:45Z</time>
      </trkpt>
      <trkpt lat="45.05526" lon="6.78534">
        <ele>1557.01</ele>
        <time>2017-01-05T13:21:50Z</time>
      </trkpt>
      <trkpt lat="45.05528" lon="6.78518">
        <ele>1557.95</ele>
        <time>2017-01-05T13:21:52Z</time>
      </trkpt>
      <trkpt lat="45.05535" lon="6.78487">
        <ele>1559.68</ele>
        <time>2017-01-05T13:21:58Z</time>
      </trkpt>
      <trkpt lat="45.05536" lon="6.7847">
        <ele>1558.89</ele>
        <time>2017-01-05T13:22:01Z</time>
      </trkpt>
      <trkpt lat="45.05538" lon="6.78456">
        <ele>1557.25</ele>
        <time>2017-01-05T13:22:10Z</time>
      </trkpt>
      <trkpt lat="45.05526" lon="6.78466">
        <ele>1551.69</ele>
        <time>2017-01-05T13:22:12Z</time>
      </trkpt>
      <trkpt lat="45.05521" lon="6.78479">
        <ele>1549.8</ele>
        <time>2017-01-05T13:22:14Z</time>
      </trkpt>
      <trkpt lat="45.0552" lon="6.78493">
        <ele>1550.27</ele>
        <time>2017-01-05T13:22:17Z</time>
      </trkpt>
      <trkpt lat="45.05517" lon="6.78507">
        <ele>1549.32</ele>
        <time>2017-01-05T13:22:19Z</time>
      </trkpt>
      <trkpt lat="45.05506" lon="6.78521">
        <ele>1543.04</ele>
        <time>2017-01-05T13:22:21Z</time>
      </trkpt>
      <trkpt lat="45.05507" lon="6.78541">
        <ele>1544.3</ele>
        <time>2017-01-05T13:22:24Z</time>
      </trkpt>
      <trkpt lat="45.05502" lon="6.78555">
        <ele>1542.28</ele>
        <time>2017-01-05T13:22:26Z</time>
      </trkpt>
      <trkpt lat="45.05496" lon="6.78568">
        <ele>1540.27</ele>
        <time>2017-01-05T13:22:28Z</time>
      </trkpt>
      <trkpt lat="45.05493" lon="6.78588">
        <ele>1540.4</ele>
        <time>2017-01-05T13:22:30Z</time>
      </trkpt>
      <trkpt lat="45.0549" lon="6.78605">
        <ele>1538.81</ele>
        <time>2017-01-05T13:22:32Z</time>
      </trkpt>
      <trkpt lat="45.05489" lon="6.78625">
        <ele>1538.29</ele>
        <time>2017-01-05T13:22:34Z</time>
      </trkpt>
      <trkpt lat="45.05485" lon="6.78642">
        <ele>1535.97</ele>
        <time>2017-01-05T13:22:37Z</time>
      </trkpt>
      <trkpt lat="45.05484" lon="6.78661">
        <ele>1534.2</ele>
        <time>2017-01-05T13:22:40Z</time>
      </trkpt>
      <trkpt lat="45.05481" lon="6.78691">
        <ele>1534.2</ele>
        <time>2017-01-05T13:22:45Z</time>
      </trkpt>
      <trkpt lat="45.0548" lon="6.78708">
        <ele>1535.33</ele>
        <time>2017-01-05T13:22:48Z</time>
      </trkpt>
      <trkpt lat="45.05475" lon="6.78727">
        <ele>1533.34</ele>
        <time>2017-01-05T13:22:51Z</time>
      </trkpt>
      <trkpt lat="45.05474" lon="6.78758">
        <ele>1527.47</ele>
        <time>2017-01-05T13:22:56Z</time>
      </trkpt>
      <trkpt lat="45.05471" lon="6.78776">
        <ele>1523.72</ele>
        <time>2017-01-05T13:22:58Z</time>
      </trkpt>
      <trkpt lat="45.05477" lon="6.78789">
        <ele>1523.24</ele>
        <time>2017-01-05T13:23:02Z</time>
      </trkpt>
      <trkpt lat="45.05464" lon="6.78791">
        <ele>1516.94</ele>
        <time>2017-01-05T13:23:07Z</time>
      </trkpt>
      <trkpt lat="45.05459" lon="6.78767">
        <ele>1518.15</ele>
        <time>2017-01-05T13:23:11Z</time>
      </trkpt>
      <trkpt lat="45.05457" lon="6.7875">
        <ele>1518.33</ele>
        <time>2017-01-05T13:23:13Z</time>
      </trkpt>
      <trkpt lat="45.05453" lon="6.78733">
        <ele>1517.06</ele>
        <time>2017-01-05T13:23:15Z</time>
      </trkpt>
      <trkpt lat="45.05453" lon="6.78715">
        <ele>1516.2</ele>
        <time>2017-01-05T13:23:17Z</time>
      </trkpt>
      <trkpt lat="45.05452" lon="6.78695">
        <ele>1513.07</ele>
        <time>2017-01-05T13:23:19Z</time>
      </trkpt>
      <trkpt lat="45.05448" lon="6.78678">
        <ele>1509.91</ele>
        <time>2017-01-05T13:23:21Z</time>
      </trkpt>
      <trkpt lat="45.05445" lon="6.78663">
        <ele>1508.88</ele>
        <time>2017-01-05T13:23:23Z</time>
      </trkpt>
      <trkpt lat="45.05444" lon="6.78647">
        <ele>1509.72</ele>
        <time>2017-01-05T13:23:25Z</time>
      </trkpt>
      <trkpt lat="45.0544" lon="6.78626">
        <ele>1509.8</ele>
        <time>2017-01-05T13:23:27Z</time>
      </trkpt>
      <trkpt lat="45.05434" lon="6.78603">
        <ele>1507.37</ele>
        <time>2017-01-05T13:23:29Z</time>
      </trkpt>
      <trkpt lat="45.05428" lon="6.78585">
        <ele>1503.04</ele>
        <time>2017-01-05T13:23:31Z</time>
      </trkpt>
      <trkpt lat="45.05427" lon="6.78569">
        <ele>1501.55</ele>
        <time>2017-01-05T13:23:33Z</time>
      </trkpt>
      <trkpt lat="45.05427" lon="6.78555">
        <ele>1501.33</ele>
        <time>2017-01-05T13:23:35Z</time>
      </trkpt>
      <trkpt lat="45.0543" lon="6.7854">
        <ele>1502.49</ele>
        <time>2017-01-05T13:23:37Z</time>
      </trkpt>
      <trkpt lat="45.05427" lon="6.78525">
        <ele>1499.36</ele>
        <time>2017-01-05T13:23:39Z</time>
      </trkpt>
      <trkpt lat="45.0543" lon="6.78512">
        <ele>1499.78</ele>
        <time>2017-01-05T13:23:42Z</time>
      </trkpt>
      <trkpt lat="45.05428" lon="6.78497">
        <ele>1497.04</ele>
        <time>2017-01-05T13:23:44Z</time>
      </trkpt>
      <trkpt lat="45.05423" lon="6.78484">
        <ele>1492.85</ele>
        <time>2017-01-05T13:23:47Z</time>
      </trkpt>
      <trkpt lat="45.0542" lon="6.78464">
        <ele>1489.18</ele>
        <time>2017-01-05T13:23:50Z</time>
      </trkpt>
      <trkpt lat="45.05421" lon="6.78447">
        <ele>1488.28</ele>
        <time>2017-01-05T13:23:53Z</time>
      </trkpt>
      <trkpt lat="45.05423" lon="6.78432">
        <ele>1488.76</ele>
        <time>2017-01-05T13:23:56Z</time>
      </trkpt>
      <trkpt lat="45.05424" lon="6.78405">
        <ele>1488.68</ele>
        <time>2017-01-05T13:24:00Z</time>
      </trkpt>
      <trkpt lat="45.05425" lon="6.78387">
        <ele>1488.43</ele>
        <time>2017-01-05T13:24:03Z</time>
      </trkpt>
      <trkpt lat="45.0542" lon="6.78361">
        <ele>1484.39</ele>
        <time>2017-01-05T13:24:09Z</time>
      </trkpt>
      <trkpt lat="45.05415" lon="6.78345">
        <ele>1481.8</ele>
        <time>2017-01-05T13:24:12Z</time>
      </trkpt>
      <trkpt lat="45.0541" lon="6.78328">
        <ele>1479.69</ele>
        <time>2017-01-05T13:24:15Z</time>
      </trkpt>
      <trkpt lat="45.05409" lon="6.7831">
        <ele>1479.38</ele>
        <time>2017-01-05T13:24:18Z</time>
      </trkpt>
      <trkpt lat="45.05404" lon="6.7828">
        <ele>1475.25</ele>
        <time>2017-01-05T13:24:23Z</time>
      </trkpt>
      <trkpt lat="45.05407" lon="6.78253">
        <ele>1473.56</ele>
        <time>2017-01-05T13:24:29Z</time>
      </trkpt>
      <trkpt lat="45.05406" lon="6.78238">
        <ele>1471.2</ele>
        <time>2017-01-05T13:24:34Z</time>
      </trkpt>
      <trkpt lat="45.05397" lon="6.78251">
        <ele>1468.77</ele>
        <time>2017-01-05T13:24:37Z</time>
      </trkpt>
      <trkpt lat="45.05381" lon="6.78275">
        <ele>1463.82</ele>
        <time>2017-01-05T13:24:42Z</time>
      </trkpt>
      <trkpt lat="45.05375" lon="6.78302">
        <ele>1462.9</ele>
        <time>2017-01-05T13:24:49Z</time>
      </trkpt>
      <trkpt lat="45.0537" lon="6.78315">
        <ele>1461.89</ele>
        <time>2017-01-05T13:24:55Z</time>
      </trkpt>
      <trkpt lat="45.0536" lon="6.78344">
        <ele>1460.21</ele>
        <time>2017-01-05T13:25:00Z</time>
      </trkpt>
      <trkpt lat="45.05358" lon="6.78358">
        <ele>1461.23</ele>
        <time>2017-01-05T13:25:02Z</time>
      </trkpt>
      <trkpt lat="45.05353" lon="6.78373">
        <ele>1459.95</ele>
        <time>2017-01-05T13:25:05Z</time>
      </trkpt>
      <trkpt lat="45.05343" lon="6.78395">
        <ele>1457.16</ele>
        <time>2017-01-05T13:25:09Z</time>
      </trkpt>
      <trkpt lat="45.05337" lon="6.78413">
        <ele>1455.42</ele>
        <time>2017-01-05T13:25:11Z</time>
      </trkpt>
      <trkpt lat="45.05335" lon="6.78429">
        <ele>1454.71</ele>
        <time>2017-01-05T13:25:14Z</time>
      </trkpt>
      <trkpt lat="45.05332" lon="6.78446">
        <ele>1453.14</ele>
        <time>2017-01-05T13:25:17Z</time>
      </trkpt>
      <trkpt lat="45.05331" lon="6.7846">
        <ele>1452.09</ele>
        <time>2017-01-05T13:25:19Z</time>
      </trkpt>
      <trkpt lat="45.0533" lon="6.78478">
        <ele>1450.82</ele>
        <time>2017-01-05T13:25:21Z</time>
      </trkpt>
      <trkpt lat="45.05328" lon="6.78494">
        <ele>1449.17</ele>
        <time>2017-01-05T13:25:24Z</time>
      </trkpt>
      <trkpt lat="45.05324" lon="6.78514">
        <ele>1446.07</ele>
        <time>2017-01-05T13:25:28Z</time>
      </trkpt>
      <trkpt lat="45.05323" lon="6.78533">
        <ele>1444.9</ele>
        <time>2017-01-05T13:25:32Z</time>
      </trkpt>
      <trkpt lat="45.05326" lon="6.78549">
        <ele>1445.58</ele>
        <time>2017-01-05T13:25:34Z</time>
      </trkpt>
      <trkpt lat="45.05324" lon="6.78567">
        <ele>1444.15</ele>
        <time>2017-01-05T13:25:36Z</time>
      </trkpt>
      <trkpt lat="45.05322" lon="6.78591">
        <ele>1443.01</ele>
        <time>2017-01-05T13:25:39Z</time>
      </trkpt>
      <trkpt lat="45.0532" lon="6.78605">
        <ele>1441.09</ele>
        <time>2017-01-05T13:25:41Z</time>
      </trkpt>
      <trkpt lat="45.05318" lon="6.78621">
        <ele>1441.03</ele>
        <time>2017-01-05T13:25:42Z</time>
      </trkpt>
      <trkpt lat="45.05315" lon="6.78638">
        <ele>1441.32</ele>
        <time>2017-01-05T13:25:45Z</time>
      </trkpt>
      <trkpt lat="45.05316" lon="6.78653">
        <ele>1443.35</ele>
        <time>2017-01-05T13:25:47Z</time>
      </trkpt>
      <trkpt lat="45.05312" lon="6.7867">
        <ele>1442.47</ele>
        <time>2017-01-05T13:25:49Z</time>
      </trkpt>
      <trkpt lat="45.05309" lon="6.78686">
        <ele>1440.21</ele>
        <time>2017-01-05T13:25:51Z</time>
      </trkpt>
      <trkpt lat="45.05304" lon="6.787">
        <ele>1436.3</ele>
        <time>2017-01-05T13:25:53Z</time>
      </trkpt>
      <trkpt lat="45.05298" lon="6.78712">
        <ele>1432.06</ele>
        <time>2017-01-05T13:25:55Z</time>
      </trkpt>
      <trkpt lat="45.05292" lon="6.78725">
        <ele>1428.7</ele>
        <time>2017-01-05T13:25:57Z</time>
      </trkpt>
      <trkpt lat="45.05291" lon="6.78748">
        <ele>1428.19</ele>
        <time>2017-01-05T13:25:59Z</time>
      </trkpt>
      <trkpt lat="45.05288" lon="6.78764">
        <ele>1428.55</ele>
        <time>2017-01-05T13:26:01Z</time>
      </trkpt>
      <trkpt lat="45.05282" lon="6.78781">
        <ele>1428.16</ele>
        <time>2017-01-05T13:26:04Z</time>
      </trkpt>
      <trkpt lat="45.05275" lon="6.78805">
        <ele>1427.56</ele>
        <time>2017-01-05T13:26:08Z</time>
      </trkpt>
      <trkpt lat="45.05276" lon="6.78821">
        <ele>1427.51</ele>
        <time>2017-01-05T13:26:10Z</time>
      </trkpt>
      <trkpt lat="45.05268" lon="6.78826">
        <ele>1422.89</ele>
        <time>2017-01-05T13:26:18Z</time>
      </trkpt>
      <trkpt lat="45.05266" lon="6.7881">
        <ele>1422.76</ele>
        <time>2017-01-05T13:26:21Z</time>
      </trkpt>
      <trkpt lat="45.05267" lon="6.78792">
        <ele>1422.46</ele>
        <time>2017-01-05T13:26:24Z</time>
      </trkpt>
      <trkpt lat="45.05263" lon="6.78775">
        <ele>1419.43</ele>
        <time>2017-01-05T13:26:31Z</time>
      </trkpt>
      <trkpt lat="45.05257" lon="6.78764">
        <ele>1415.84</ele>
        <time>2017-01-05T13:26:42Z</time>
      </trkpt>
      <trkpt lat="45.05262" lon="6.7874">
        <ele>1416.27</ele>
        <time>2017-01-05T13:27:06Z</time>
      </trkpt>
      <trkpt lat="45.05261" lon="6.78724">
        <ele>1415.41</ele>
        <time>2017-01-05T13:27:09Z</time>
      </trkpt>
      <trkpt lat="45.05256" lon="6.78704">
        <ele>1412.69</ele>
        <time>2017-01-05T13:27:12Z</time>
      </trkpt>
      <trkpt lat="45.05252" lon="6.78673">
        <ele>1410.86</ele>
        <time>2017-01-05T13:27:17Z</time>
      </trkpt>
      <trkpt lat="45.05239" lon="6.78652">
        <ele>1407.1</ele>
        <time>2017-01-05T13:27:21Z</time>
      </trkpt>
      <trkpt lat="45.05232" lon="6.7864">
        <ele>1404.65</ele>
        <time>2017-01-05T13:27:23Z</time>
      </trkpt>
      <trkpt lat="45.05223" lon="6.78616">
        <ele>1402.04</ele>
        <time>2017-01-05T13:27:27Z</time>
      </trkpt>
      <trkpt lat="45.0522" lon="6.78601">
        <ele>1401.35</ele>
        <time>2017-01-05T13:27:29Z</time>
      </trkpt>
      <trkpt lat="45.05217" lon="6.78584">
        <ele>1400.86</ele>
        <time>2017-01-05T13:27:32Z</time>
      </trkpt>
      <trkpt lat="45.05218" lon="6.78567">
        <ele>1402.27</ele>
        <time>2017-01-05T13:27:35Z</time>
      </trkpt>
      <trkpt lat="45.05218" lon="6.7855">
        <ele>1403.34</ele>
        <time>2017-01-05T13:27:38Z</time>
      </trkpt>
      <trkpt lat="45.052" lon="6.78536">
        <ele>1396.13</ele>
        <time>2017-01-05T13:27:42Z</time>
      </trkpt>
      <trkpt lat="45.05192" lon="6.78525">
        <ele>1392.93</ele>
        <time>2017-01-05T13:27:44Z</time>
      </trkpt>
      <trkpt lat="45.05183" lon="6.78514">
        <ele>1390.19</ele>
        <time>2017-01-05T13:27:46Z</time>
      </trkpt>
      <trkpt lat="45.05178" lon="6.78489">
        <ele>1389.67</ele>
        <time>2017-01-05T13:27:50Z</time>
      </trkpt>
      <trkpt lat="45.05166" lon="6.78467">
        <ele>1386.68</ele>
        <time>2017-01-05T13:27:54Z</time>
      </trkpt>
      <trkpt lat="45.05157" lon="6.78444">
        <ele>1381.35</ele>
        <time>2017-01-05T13:27:58Z</time>
      </trkpt>
      <trkpt lat="45.0516" lon="6.78424">
        <ele>1384.46</ele>
        <time>2017-01-05T13:28:01Z</time>
      </trkpt>
      <trkpt lat="45.05157" lon="6.78406">
        <ele>1383.8</ele>
        <time>2017-01-05T13:28:03Z</time>
      </trkpt>
      <trkpt lat="45.05159" lon="6.78389">
        <ele>1384.88</ele>
        <time>2017-01-05T13:28:06Z</time>
      </trkpt>
      <trkpt lat="45.05162" lon="6.78374">
        <ele>1385.3</ele>
        <time>2017-01-05T13:28:08Z</time>
      </trkpt>
      <trkpt lat="45.05162" lon="6.7835">
        <ele>1383.16</ele>
        <time>2017-01-05T13:28:14Z</time>
      </trkpt>
      <trkpt lat="45.0516" lon="6.78333">
        <ele>1380.79</ele>
        <time>2017-01-05T13:28:17Z</time>
      </trkpt>
      <trkpt lat="45.05166" lon="6.78316">
        <ele>1384.49</ele>
        <time>2017-01-05T13:28:19Z</time>
      </trkpt>
      <trkpt lat="45.05174" lon="6.7829">
        <ele>1387.44</ele>
        <time>2017-01-05T13:28:24Z</time>
      </trkpt>
      <trkpt lat="45.05163" lon="6.78279">
        <ele>1382.68</ele>
        <time>2017-01-05T13:28:27Z</time>
      </trkpt>
      <trkpt lat="45.05151" lon="6.78271">
        <ele>1378.36</ele>
        <time>2017-01-05T13:28:30Z</time>
      </trkpt>
      <trkpt lat="45.05132" lon="6.78263">
        <ele>1371.13</ele>
        <time>2017-01-05T13:28:34Z</time>
      </trkpt>
      <trkpt lat="45.05119" lon="6.78241">
        <ele>1367.41</ele>
        <time>2017-01-05T13:28:38Z</time>
      </trkpt>
      <trkpt lat="45.05117" lon="6.78226">
        <ele>1367.34</ele>
        <time>2017-01-05T13:28:40Z</time>
      </trkpt>
      <trkpt lat="45.05107" lon="6.78232">
        <ele>1362.59</ele>
        <time>2017-01-05T13:28:46Z</time>
      </trkpt>
      <trkpt lat="45.05113" lon="6.78246">
        <ele>1364.73</ele>
        <time>2017-01-05T13:28:49Z</time>
      </trkpt>
      <trkpt lat="45.05121" lon="6.78273">
        <ele>1364.71</ele>
        <time>2017-01-05T13:28:53Z</time>
      </trkpt>
      <trkpt lat="45.05131" lon="6.78286">
        <ele>1368.32</ele>
        <time>2017-01-05T13:28:55Z</time>
      </trkpt>
      <trkpt lat="45.05129" lon="6.78303">
        <ele>1365.56</ele>
        <time>2017-01-05T13:28:57Z</time>
      </trkpt>
      <trkpt lat="45.05121" lon="6.78314">
        <ele>1362.3</ele>
        <time>2017-01-05T13:28:59Z</time>
      </trkpt>
      <trkpt lat="45.0511" lon="6.78321">
        <ele>1358.12</ele>
        <time>2017-01-05T13:29:01Z</time>
      </trkpt>
      <trkpt lat="45.05099" lon="6.78326">
        <ele>1353.74</ele>
        <time>2017-01-05T13:29:04Z</time>
      </trkpt>
      <trkpt lat="45.05089" lon="6.7834">
        <ele>1349.5</ele>
        <time>2017-01-05T13:29:06Z</time>
      </trkpt>
      <trkpt lat="45.05084" lon="6.78355">
        <ele>1347.12</ele>
        <time>2017-01-05T13:29:09Z</time>
      </trkpt>
      <trkpt lat="45.05084" lon="6.78372">
        <ele>1346.91</ele>
        <time>2017-01-05T13:29:11Z</time>
      </trkpt>
      <trkpt lat="45.05082" lon="6.78386">
        <ele>1345.35</ele>
        <time>2017-01-05T13:29:13Z</time>
      </trkpt>
      <trkpt lat="45.05084" lon="6.78418">
        <ele>1349.42</ele>
        <time>2017-01-05T13:29:17Z</time>
      </trkpt>
      <trkpt lat="45.05084" lon="6.78438">
        <ele>1347.68</ele>
        <time>2017-01-05T13:29:19Z</time>
      </trkpt>
      <trkpt lat="45.05081" lon="6.78453">
        <ele>1344.5</ele>
        <time>2017-01-05T13:29:22Z</time>
      </trkpt>
      <trkpt lat="45.05081" lon="6.78469">
        <ele>1342.99</ele>
        <time>2017-01-05T13:29:24Z</time>
      </trkpt>
      <trkpt lat="45.05083" lon="6.78484">
        <ele>1343.93</ele>
        <time>2017-01-05T13:29:26Z</time>
      </trkpt>
      <trkpt lat="45.05093" lon="6.78498">
        <ele>1349.81</ele>
        <time>2017-01-05T13:29:29Z</time>
      </trkpt>
      <trkpt lat="45.05082" lon="6.78506">
        <ele>1342.85</ele>
        <time>2017-01-05T13:29:32Z</time>
      </trkpt>
      <trkpt lat="45.05076" lon="6.78523">
        <ele>1338.67</ele>
        <time>2017-01-05T13:29:35Z</time>
      </trkpt>
      <trkpt lat="45.05076" lon="6.78539">
        <ele>1336.51</ele>
        <time>2017-01-05T13:29:37Z</time>
      </trkpt>
      <trkpt lat="45.05083" lon="6.78556">
        <ele>1337.57</ele>
        <time>2017-01-05T13:29:39Z</time>
      </trkpt>
      <trkpt lat="45.05089" lon="6.78569">
        <ele>1342.24</ele>
        <time>2017-01-05T13:29:41Z</time>
      </trkpt>
      <trkpt lat="45.05089" lon="6.78585">
        <ele>1342.9</ele>
        <time>2017-01-05T13:29:44Z</time>
      </trkpt>
      <trkpt lat="45.05084" lon="6.78601">
        <ele>1341.13</ele>
        <time>2017-01-05T13:29:47Z</time>
      </trkpt>
      <trkpt lat="45.05082" lon="6.78621">
        <ele>1341.2</ele>
        <time>2017-01-05T13:29:49Z</time>
      </trkpt>
      <trkpt lat="45.05072" lon="6.78627">
        <ele>1336.46</ele>
        <time>2017-01-05T13:29:51Z</time>
      </trkpt>
      <trkpt lat="45.0506" lon="6.78633">
        <ele>1330.79</ele>
        <time>2017-01-05T13:29:53Z</time>
      </trkpt>
      <trkpt lat="45.05049" lon="6.78639">
        <ele>1325.77</ele>
        <time>2017-01-05T13:29:55Z</time>
      </trkpt>
      <trkpt lat="45.05038" lon="6.7865">
        <ele>1322.69</ele>
        <time>2017-01-05T13:29:57Z</time>
      </trkpt>
      <trkpt lat="45.05031" lon="6.78668">
        <ele>1322.51</ele>
        <time>2017-01-05T13:30:00Z</time>
      </trkpt>
      <trkpt lat="45.05023" lon="6.78683">
        <ele>1320.04</ele>
        <time>2017-01-05T13:30:03Z</time>
      </trkpt>
      <trkpt lat="45.05024" lon="6.78701">
        <ele>1321.97</ele>
        <time>2017-01-05T13:30:05Z</time>
      </trkpt>
      <trkpt lat="45.05028" lon="6.78727">
        <ele>1323.53</ele>
        <time>2017-01-05T13:30:09Z</time>
      </trkpt>
      <trkpt lat="45.05026" lon="6.78745">
        <ele>1321.55</ele>
        <time>2017-01-05T13:30:12Z</time>
      </trkpt>
      <trkpt lat="45.0502" lon="6.78761">
        <ele>1316.49</ele>
        <time>2017-01-05T13:30:15Z</time>
      </trkpt>
      <trkpt lat="45.05011" lon="6.78771">
        <ele>1310.21</ele>
        <time>2017-01-05T13:30:19Z</time>
      </trkpt>
      <trkpt lat="45.05011" lon="6.78756">
        <ele>1311.4</ele>
        <time>2017-01-05T13:30:22Z</time>
      </trkpt>
      <trkpt lat="45.05009" lon="6.7874">
        <ele>1310.9</ele>
        <time>2017-01-05T13:30:26Z</time>
      </trkpt>
      <trkpt lat="45.04996" lon="6.78717">
        <ele>1305.3</ele>
        <time>2017-01-05T13:30:30Z</time>
      </trkpt>
      <trkpt lat="45.04984" lon="6.78706">
        <ele>1300.33</ele>
        <time>2017-01-05T13:30:32Z</time>
      </trkpt>
      <trkpt lat="45.04986" lon="6.78685">
        <ele>1301.45</ele>
        <time>2017-01-05T13:30:34Z</time>
      </trkpt>
      <trkpt lat="45.04984" lon="6.78667">
        <ele>1299.4</ele>
        <time>2017-01-05T13:30:36Z</time>
      </trkpt>
      <trkpt lat="45.04988" lon="6.7865">
        <ele>1298.59</ele>
        <time>2017-01-05T13:30:39Z</time>
      </trkpt>
      <trkpt lat="45.04992" lon="6.7862">
        <ele>1296.71</ele>
        <time>2017-01-05T13:30:43Z</time>
      </trkpt>
      <trkpt lat="45.0501" lon="6.78604">
        <ele>1302.11</ele>
        <time>2017-01-05T13:30:47Z</time>
      </trkpt>
      <trkpt lat="45.05021" lon="6.78599">
        <ele>1306.19</ele>
        <time>2017-01-05T13:30:49Z</time>
      </trkpt>
      <trkpt lat="45.05029" lon="6.78588">
        <ele>1309.7</ele>
        <time>2017-01-05T13:30:51Z</time>
      </trkpt>
      <trkpt lat="45.05024" lon="6.78575">
        <ele>1307.28</ele>
        <time>2017-01-05T13:30:53Z</time>
      </trkpt>
      <trkpt lat="45.05015" lon="6.78568">
        <ele>1302.79</ele>
        <time>2017-01-05T13:30:55Z</time>
      </trkpt>
      <trkpt lat="45.05005" lon="6.78557">
        <ele>1297.43</ele>
        <time>2017-01-05T13:30:59Z</time>
      </trkpt>
      <trkpt lat="45.04998" lon="6.78541">
        <ele>1295.15</ele>
        <time>2017-01-05T13:31:00Z</time>
      </trkpt>
      <trkpt lat="45.04998" lon="6.78524">
        <ele>1296.28</ele>
        <time>2017-01-05T13:31:02Z</time>
      </trkpt>
      <trkpt lat="45.04997" lon="6.78507">
        <ele>1296.83</ele>
        <time>2017-01-05T13:31:04Z</time>
      </trkpt>
      <trkpt lat="45.05002" lon="6.78481">
        <ele>1301.94</ele>
        <time>2017-01-05T13:31:08Z</time>
      </trkpt>
      <trkpt lat="45.05005" lon="6.78465">
        <ele>1304.56</ele>
        <time>2017-01-05T13:31:11Z</time>
      </trkpt>
      <trkpt lat="45.04997" lon="6.78454">
        <ele>1301.7</ele>
        <time>2017-01-05T13:31:14Z</time>
      </trkpt>
      <trkpt lat="45.04988" lon="6.78443">
        <ele>1297.35</ele>
        <time>2017-01-05T13:31:17Z</time>
      </trkpt>
      <trkpt lat="45.0498" lon="6.78433">
        <ele>1293.25</ele>
        <time>2017-01-05T13:31:20Z</time>
      </trkpt>
      <trkpt lat="45.04976" lon="6.78412">
        <ele>1293.19</ele>
        <time>2017-01-05T13:31:23Z</time>
      </trkpt>
      <trkpt lat="45.04974" lon="6.78397">
        <ele>1292.06</ele>
        <time>2017-01-05T13:31:27Z</time>
      </trkpt>
      <trkpt lat="45.04961" lon="6.78412">
        <ele>1284.64</ele>
        <time>2017-01-05T13:31:34Z</time>
      </trkpt>
      <trkpt lat="45.04956" lon="6.78427">
        <ele>1280.18</ele>
        <time>2017-01-05T13:31:36Z</time>
      </trkpt>
      <trkpt lat="45.04959" lon="6.78443">
        <ele>1280.33</ele>
        <time>2017-01-05T13:31:38Z</time>
      </trkpt>
      <trkpt lat="45.04964" lon="6.78464">
        <ele>1282.55</ele>
        <time>2017-01-05T13:31:40Z</time>
      </trkpt>
      <trkpt lat="45.04972" lon="6.78482">
        <ele>1285.12</ele>
        <time>2017-01-05T13:31:42Z</time>
      </trkpt>
      <trkpt lat="45.04967" lon="6.78498">
        <ele>1279.89</ele>
        <time>2017-01-05T13:31:44Z</time>
      </trkpt>
      <trkpt lat="45.04964" lon="6.78514">
        <ele>1277.16</ele>
        <time>2017-01-05T13:31:46Z</time>
      </trkpt>
      <trkpt lat="45.04967" lon="6.78529">
        <ele>1277.63</ele>
        <time>2017-01-05T13:31:48Z</time>
      </trkpt>
      <trkpt lat="45.04969" lon="6.78551">
        <ele>1280.87</ele>
        <time>2017-01-05T13:31:50Z</time>
      </trkpt>
      <trkpt lat="45.04962" lon="6.78562">
        <ele>1278.65</ele>
        <time>2017-01-05T13:31:53Z</time>
      </trkpt>
      <trkpt lat="45.04951" lon="6.78559">
        <ele>1272.68</ele>
        <time>2017-01-05T13:37:11Z</time>
      </trkpt>
      <trkpt lat="45.04951" lon="6.78587">
        <ele>1275.97</ele>
        <time>2017-01-05T13:37:18Z</time>
      </trkpt>
      <trkpt lat="45.04939" lon="6.78606">
        <ele>1272.5</ele>
        <time>2017-01-05T13:37:21Z</time>
      </trkpt>
      <trkpt lat="45.04932" lon="6.78617">
        <ele>1270.55</ele>
        <time>2017-01-05T13:37:23Z</time>
      </trkpt>
      <trkpt lat="45.04922" lon="6.7863">
        <ele>1267.47</ele>
        <time>2017-01-05T13:37:27Z</time>
      </trkpt>
      <trkpt lat="45.04914" lon="6.78644">
        <ele>1265.17</ele>
        <time>2017-01-05T13:37:28Z</time>
      </trkpt>
      <trkpt lat="45.04912" lon="6.78661">
        <ele>1264.54</ele>
        <time>2017-01-05T13:37:31Z</time>
      </trkpt>
      <trkpt lat="45.04914" lon="6.78681">
        <ele>1265.28</ele>
        <time>2017-01-05T13:37:34Z</time>
      </trkpt>
      <trkpt lat="45.04919" lon="6.78698">
        <ele>1267.02</ele>
        <time>2017-01-05T13:37:36Z</time>
      </trkpt>
      <trkpt lat="45.04923" lon="6.78713">
        <ele>1269.01</ele>
        <time>2017-01-05T13:37:38Z</time>
      </trkpt>
      <trkpt lat="45.04928" lon="6.78727">
        <ele>1271.43</ele>
        <time>2017-01-05T13:37:41Z</time>
      </trkpt>
      <trkpt lat="45.04927" lon="6.78752">
        <ele>1268.92</ele>
        <time>2017-01-05T13:37:46Z</time>
      </trkpt>
      <trkpt lat="45.04923" lon="6.78769">
        <ele>1266.25</ele>
        <time>2017-01-05T13:37:48Z</time>
      </trkpt>
      <trkpt lat="45.04916" lon="6.78785">
        <ele>1262.05</ele>
        <time>2017-01-05T13:37:50Z</time>
      </trkpt>
      <trkpt lat="45.04913" lon="6.78799">
        <ele>1259.38</ele>
        <time>2017-01-05T13:37:52Z</time>
      </trkpt>
      <trkpt lat="45.04913" lon="6.78813">
        <ele>1258.81</ele>
        <time>2017-01-05T13:37:54Z</time>
      </trkpt>
      <trkpt lat="45.04907" lon="6.78826">
        <ele>1255.72</ele>
        <time>2017-01-05T13:37:56Z</time>
      </trkpt>
      <trkpt lat="45.04901" lon="6.78843">
        <ele>1253.56</ele>
        <time>2017-01-05T13:37:59Z</time>
      </trkpt>
      <trkpt lat="45.04903" lon="6.78873">
        <ele>1254.36</ele>
        <time>2017-01-05T13:38:01Z</time>
      </trkpt>
      <trkpt lat="45.04906" lon="6.78889">
        <ele>1254.56</ele>
        <time>2017-01-05T13:38:04Z</time>
      </trkpt>
      <trkpt lat="45.04903" lon="6.78906">
        <ele>1251.84</ele>
        <time>2017-01-05T13:38:06Z</time>
      </trkpt>
      <trkpt lat="45.04897" lon="6.78931">
        <ele>1245.29</ele>
        <time>2017-01-05T13:38:12Z</time>
      </trkpt>
      <trkpt lat="45.0489" lon="6.78945">
        <ele>1240.14</ele>
        <time>2017-01-05T13:38:15Z</time>
      </trkpt>
      <trkpt lat="45.04886" lon="6.78966">
        <ele>1237.1</ele>
        <time>2017-01-05T13:38:18Z</time>
      </trkpt>
      <trkpt lat="45.0488" lon="6.78984">
        <ele>1232.73</ele>
        <time>2017-01-05T13:38:21Z</time>
      </trkpt>
      <trkpt lat="45.04873" lon="6.78967">
        <ele>1233.75</ele>
        <time>2017-01-05T13:38:24Z</time>
      </trkpt>
      <trkpt lat="45.04878" lon="6.78952">
        <ele>1235.75</ele>
        <time>2017-01-05T13:38:26Z</time>
      </trkpt>
      <trkpt lat="45.04879" lon="6.78936">
        <ele>1236.92</ele>
        <time>2017-01-05T13:38:29Z</time>
      </trkpt>
      <trkpt lat="45.04881" lon="6.78907">
        <ele>1240.64</ele>
        <time>2017-01-05T13:38:33Z</time>
      </trkpt>
      <trkpt lat="45.04889" lon="6.7889">
        <ele>1247.64</ele>
        <time>2017-01-05T13:38:34Z</time>
      </trkpt>
      <trkpt lat="45.0488" lon="6.78869">
        <ele>1242.38</ele>
        <time>2017-01-05T13:38:38Z</time>
      </trkpt>
      <trkpt lat="45.0487" lon="6.78849">
        <ele>1237.83</ele>
        <time>2017-01-05T13:38:41Z</time>
      </trkpt>
      <trkpt lat="45.04871" lon="6.78833">
        <ele>1238.93</ele>
        <time>2017-01-05T13:38:44Z</time>
      </trkpt>
      <trkpt lat="45.0486" lon="6.78825">
        <ele>1233.3</ele>
        <time>2017-01-05T13:38:47Z</time>
      </trkpt>
      <trkpt lat="45.04856" lon="6.78809">
        <ele>1231.11</ele>
        <time>2017-01-05T13:38:49Z</time>
      </trkpt>
      <trkpt lat="45.04853" lon="6.78773">
        <ele>1228.06</ele>
        <time>2017-01-05T13:38:54Z</time>
      </trkpt>
      <trkpt lat="45.04852" lon="6.78758">
        <ele>1227.83</ele>
        <time>2017-01-05T13:38:57Z</time>
      </trkpt>
      <trkpt lat="45.04841" lon="6.78745">
        <ele>1222.81</ele>
        <time>2017-01-05T13:39:01Z</time>
      </trkpt>
      <trkpt lat="45.04826" lon="6.78739">
        <ele>1215.64</ele>
        <time>2017-01-05T13:39:04Z</time>
      </trkpt>
      <trkpt lat="45.04818" lon="6.7873">
        <ele>1211.63</ele>
        <time>2017-01-05T13:39:06Z</time>
      </trkpt>
      <trkpt lat="45.04811" lon="6.78716">
        <ele>1208.67</ele>
        <time>2017-01-05T13:39:08Z</time>
      </trkpt>
      <trkpt lat="45.04809" lon="6.78699">
        <ele>1209.57</ele>
        <time>2017-01-05T13:39:10Z</time>
      </trkpt>
      <trkpt lat="45.04792" lon="6.78676">
        <ele>1203.12</ele>
        <time>2017-01-05T13:39:14Z</time>
      </trkpt>
      <trkpt lat="45.04793" lon="6.78656">
        <ele>1205.28</ele>
        <time>2017-01-05T13:39:17Z</time>
      </trkpt>
      <trkpt lat="45.04799" lon="6.78638">
        <ele>1208.65</ele>
        <time>2017-01-05T13:39:20Z</time>
      </trkpt>
      <trkpt lat="45.04808" lon="6.78625">
        <ele>1212.89</ele>
        <time>2017-01-05T13:39:23Z</time>
      </trkpt>
      <trkpt lat="45.04794" lon="6.78608">
        <ele>1206.43</ele>
        <time>2017-01-05T13:39:25Z</time>
      </trkpt>
      <trkpt lat="45.04785" lon="6.786">
        <ele>1202.2</ele>
        <time>2017-01-05T13:39:27Z</time>
      </trkpt>
      <trkpt lat="45.04777" lon="6.78579">
        <ele>1199.49</ele>
        <time>2017-01-05T13:39:31Z</time>
      </trkpt>
      <trkpt lat="45.04778" lon="6.7856">
        <ele>1199.34</ele>
        <time>2017-01-05T13:39:34Z</time>
      </trkpt>
      <trkpt lat="45.0478" lon="6.78533">
        <ele>1196.59</ele>
        <time>2017-01-05T13:39:39Z</time>
      </trkpt>
      <trkpt lat="45.04785" lon="6.78519">
        <ele>1196.79</ele>
        <time>2017-01-05T13:39:43Z</time>
      </trkpt>
      <trkpt lat="45.04783" lon="6.78505">
        <ele>1194.32</ele>
        <time>2017-01-05T13:39:45Z</time>
      </trkpt>
      <trkpt lat="45.04771" lon="6.78497">
        <ele>1190.27</ele>
        <time>2017-01-05T13:39:48Z</time>
      </trkpt>
      <trkpt lat="45.04753" lon="6.78506">
        <ele>1185.03</ele>
        <time>2017-01-05T13:39:53Z</time>
      </trkpt>
      <trkpt lat="45.04744" lon="6.78512">
        <ele>1182.68</ele>
        <time>2017-01-05T13:39:55Z</time>
      </trkpt>
      <trkpt lat="45.04733" lon="6.78517">
        <ele>1179.67</ele>
        <time>2017-01-05T13:39:58Z</time>
      </trkpt>
      <trkpt lat="45.04727" lon="6.7853">
        <ele>1177.46</ele>
        <time>2017-01-05T13:40:48Z</time>
      </trkpt>
      <trkpt lat="45.04717" lon="6.78549">
        <ele>1175.94</ele>
        <time>2017-01-05T13:41:07Z</time>
      </trkpt>
      <trkpt lat="45.04708" lon="6.78542">
        <ele>1174.25</ele>
        <time>2017-01-05T13:41:17Z</time>
      </trkpt>
      <trkpt lat="45.04695" lon="6.78547">
        <ele>1172.47</ele>
        <time>2017-01-05T13:41:19Z</time>
      </trkpt>
      <trkpt lat="45.0468" lon="6.78558">
        <ele>1170.53</ele>
        <time>2017-01-05T13:41:21Z</time>
      </trkpt>
      <trkpt lat="45.04669" lon="6.78558">
        <ele>1168.61</ele>
        <time>2017-01-05T13:41:23Z</time>
      </trkpt>
      <trkpt lat="45.04656" lon="6.78556">
        <ele>1165.4</ele>
        <time>2017-01-05T13:41:25Z</time>
      </trkpt>
      <trkpt lat="45.04643" lon="6.7855">
        <ele>1161.9</ele>
        <time>2017-01-05T13:41:27Z</time>
      </trkpt>
      <trkpt lat="45.04631" lon="6.78544">
        <ele>1159.47</ele>
        <time>2017-01-05T13:41:29Z</time>
      </trkpt>
      <trkpt lat="45.04619" lon="6.78539">
        <ele>1157.05</ele>
        <time>2017-01-05T13:41:31Z</time>
      </trkpt>
      <trkpt lat="45.04605" lon="6.78535">
        <ele>1155.07</ele>
        <time>2017-01-05T13:41:33Z</time>
      </trkpt>
      <trkpt lat="45.04594" lon="6.7853">
        <ele>1154</ele>
        <time>2017-01-05T13:41:35Z</time>
      </trkpt>
      <trkpt lat="45.04582" lon="6.78525">
        <ele>1152.89</ele>
        <time>2017-01-05T13:41:37Z</time>
      </trkpt>
      <trkpt lat="45.04569" lon="6.78523">
        <ele>1151.14</ele>
        <time>2017-01-05T13:41:39Z</time>
      </trkpt>
      <trkpt lat="45.04559" lon="6.78521">
        <ele>1149.78</ele>
        <time>2017-01-05T13:41:42Z</time>
      </trkpt>
      <trkpt lat="45.0454" lon="6.78522">
        <ele>1146.67</ele>
        <time>2017-01-05T13:41:46Z</time>
      </trkpt>
      <trkpt lat="45.04514" lon="6.7853">
        <ele>1142.18</ele>
        <time>2017-01-05T13:41:49Z</time>
      </trkpt>
      <trkpt lat="45.04497" lon="6.78532">
        <ele>1138.88</ele>
        <time>2017-01-05T13:41:52Z</time>
      </trkpt>
      <trkpt lat="45.04482" lon="6.78537">
        <ele>1137.4</ele>
        <time>2017-01-05T13:41:54Z</time>
      </trkpt>
      <trkpt lat="45.0447" lon="6.78541">
        <ele>1135.96</ele>
        <time>2017-01-05T13:41:57Z</time>
      </trkpt>
      <trkpt lat="45.04459" lon="6.78549">
        <ele>1135.02</ele>
        <time>2017-01-05T13:42:01Z</time>
      </trkpt>
      <trkpt lat="45.04451" lon="6.78557">
        <ele>1134.08</ele>
        <time>2017-01-05T13:42:04Z</time>
      </trkpt>
      <trkpt lat="45.04455" lon="6.7857">
        <ele>1132.81</ele>
        <time>2017-01-05T13:42:08Z</time>
      </trkpt>
      <trkpt lat="45.04459" lon="6.78589">
        <ele>1131.21</ele>
        <time>2017-01-05T13:42:11Z</time>
      </trkpt>
      <trkpt lat="45.04462" lon="6.78602">
        <ele>1130.72</ele>
        <time>2017-01-05T13:42:13Z</time>
      </trkpt>
      <trkpt lat="45.04462" lon="6.78621">
        <ele>1130.26</ele>
        <time>2017-01-05T13:42:16Z</time>
      </trkpt>
      <trkpt lat="45.04464" lon="6.78634">
        <ele>1130.41</ele>
        <time>2017-01-05T13:42:18Z</time>
      </trkpt>
      <trkpt lat="45.04457" lon="6.78648">
        <ele>1129.88</ele>
        <time>2017-01-05T13:42:21Z</time>
      </trkpt>
      <trkpt lat="45.0445" lon="6.78663">
        <ele>1128.93</ele>
        <time>2017-01-05T13:42:24Z</time>
      </trkpt>
      <trkpt lat="45.04438" lon="6.78685">
        <ele>1126.13</ele>
        <time>2017-01-05T13:42:28Z</time>
      </trkpt>
      <trkpt lat="45.04432" lon="6.78698">
        <ele>1124.46</ele>
        <time>2017-01-05T13:42:30Z</time>
      </trkpt>
      <trkpt lat="45.04424" lon="6.78708">
        <ele>1122.27</ele>
        <time>2017-01-05T13:42:32Z</time>
      </trkpt>
      <trkpt lat="45.04416" lon="6.7872">
        <ele>1120.02</ele>
        <time>2017-01-05T13:42:34Z</time>
      </trkpt>
      <trkpt lat="45.04401" lon="6.78742">
        <ele>1116.38</ele>
        <time>2017-01-05T13:42:39Z</time>
      </trkpt>
      <trkpt lat="45.04393" lon="6.78754">
        <ele>1115.13</ele>
        <time>2017-01-05T13:42:42Z</time>
      </trkpt>
      <trkpt lat="45.04385" lon="6.78766">
        <ele>1114.42</ele>
        <time>2017-01-05T13:42:45Z</time>
      </trkpt>
      <trkpt lat="45.04381" lon="6.78779">
        <ele>1113.9</ele>
        <time>2017-01-05T13:43:30Z</time>
      </trkpt>
      <trkpt lat="45.0439" lon="6.78801">
        <ele>1112.39</ele>
        <time>2017-01-05T13:43:35Z</time>
      </trkpt>
      <trkpt lat="45.04396" lon="6.78817">
        <ele>1111.8</ele>
        <time>2017-01-05T13:43:37Z</time>
      </trkpt>
      <trkpt lat="45.04401" lon="6.78833">
        <ele>1111.32</ele>
        <time>2017-01-05T13:43:40Z</time>
      </trkpt>
      <trkpt lat="45.04408" lon="6.78853">
        <ele>1111.4</ele>
        <time>2017-01-05T13:43:41Z</time>
      </trkpt>
      <trkpt lat="45.04421" lon="6.78865">
        <ele>1112.02</ele>
        <time>2017-01-05T13:43:43Z</time>
      </trkpt>
      <trkpt lat="45.04432" lon="6.78883">
        <ele>1111.07</ele>
        <time>2017-01-05T13:43:45Z</time>
      </trkpt>
      <trkpt lat="45.04439" lon="6.789">
        <ele>1109.98</ele>
        <time>2017-01-05T13:43:47Z</time>
      </trkpt>
      <trkpt lat="45.04443" lon="6.78916">
        <ele>1109.03</ele>
        <time>2017-01-05T13:43:49Z</time>
      </trkpt>
      <trkpt lat="45.04448" lon="6.78933">
        <ele>1108.78</ele>
        <time>2017-01-05T13:43:51Z</time>
      </trkpt>
      <trkpt lat="45.04456" lon="6.78957">
        <ele>1108.83</ele>
        <time>2017-01-05T13:43:55Z</time>
      </trkpt>
      <trkpt lat="45.0446" lon="6.78976">
        <ele>1109.11</ele>
        <time>2017-01-05T13:43:57Z</time>
      </trkpt>
      <trkpt lat="45.04471" lon="6.79005">
        <ele>1110.07</ele>
        <time>2017-01-05T13:44:00Z</time>
      </trkpt>
      <trkpt lat="45.04474" lon="6.79039">
        <ele>1111.56</ele>
        <time>2017-01-05T13:44:03Z</time>
      </trkpt>
      <trkpt lat="45.04478" lon="6.79075">
        <ele>1112.27</ele>
        <time>2017-01-05T13:44:06Z</time>
      </trkpt>
      <trkpt lat="45.04483" lon="6.79096">
        <ele>1112.98</ele>
        <time>2017-01-05T13:44:08Z</time>
      </trkpt>
      <trkpt lat="45.04491" lon="6.79114">
        <ele>1114.41</ele>
        <time>2017-01-05T13:44:10Z</time>
      </trkpt>
      <trkpt lat="45.0449" lon="6.7913">
        <ele>1114.74</ele>
        <time>2017-01-05T13:44:11Z</time>
      </trkpt>
      <trkpt lat="45.04491" lon="6.79144">
        <ele>1114.95</ele>
        <time>2017-01-05T13:44:12Z</time>
      </trkpt>
      <trkpt lat="45.04499" lon="6.79161">
        <ele>1115.15</ele>
        <time>2017-01-05T13:44:14Z</time>
      </trkpt>
      <trkpt lat="45.04506" lon="6.79179">
        <ele>1115.76</ele>
        <time>2017-01-05T13:44:16Z</time>
      </trkpt>
      <trkpt lat="45.04507" lon="6.79199">
        <ele>1115.75</ele>
        <time>2017-01-05T13:44:18Z</time>
      </trkpt>
      <trkpt lat="45.04502" lon="6.79217">
        <ele>1115.21</ele>
        <time>2017-01-05T13:44:20Z</time>
      </trkpt>
      <trkpt lat="45.04501" lon="6.79242">
        <ele>1115.78</ele>
        <time>2017-01-05T13:44:22Z</time>
      </trkpt>
      <trkpt lat="45.04498" lon="6.79277">
        <ele>1116.65</ele>
        <time>2017-01-05T13:44:25Z</time>
      </trkpt>
      <trkpt lat="45.04493" lon="6.79309">
        <ele>1115.18</ele>
        <time>2017-01-05T13:45:38Z</time>
      </trkpt>
      <trkpt lat="45.04491" lon="6.79335">
        <ele>1115.67</ele>
        <time>2017-01-05T13:45:47Z</time>
      </trkpt>
      <trkpt lat="45.04483" lon="6.79346">
        <ele>1115.13</ele>
        <time>2017-01-05T13:45:48Z</time>
      </trkpt>
      <trkpt lat="45.04479" lon="6.79367">
        <ele>1115.46</ele>
        <time>2017-01-05T13:45:50Z</time>
      </trkpt>
      <trkpt lat="45.04479" lon="6.79384">
        <ele>1115.29</ele>
        <time>2017-01-05T13:45:52Z</time>
      </trkpt>
      <trkpt lat="45.04479" lon="6.79403">
        <ele>1114.51</ele>
        <time>2017-01-05T13:45:54Z</time>
      </trkpt>
      <trkpt lat="45.04481" lon="6.79419">
        <ele>1113.86</ele>
        <time>2017-01-05T13:45:56Z</time>
      </trkpt>
      <trkpt lat="45.04483" lon="6.79437">
        <ele>1113.73</ele>
        <time>2017-01-05T13:45:58Z</time>
      </trkpt>
      <trkpt lat="45.04476" lon="6.79448">
        <ele>1112.52</ele>
        <time>2017-01-05T13:46:00Z</time>
      </trkpt>
      <trkpt lat="45.04476" lon="6.79469">
        <ele>1112.66</ele>
        <time>2017-01-05T13:46:02Z</time>
      </trkpt>
      <trkpt lat="45.04472" lon="6.79484">
        <ele>1111.55</ele>
        <time>2017-01-05T13:46:04Z</time>
      </trkpt>
      <trkpt lat="45.04471" lon="6.79498">
        <ele>1110.94</ele>
        <time>2017-01-05T13:46:06Z</time>
      </trkpt>
      <trkpt lat="45.04471" lon="6.7952">
        <ele>1110.11</ele>
        <time>2017-01-05T13:46:07Z</time>
      </trkpt>
      <trkpt lat="45.04462" lon="6.79547">
        <ele>1108.08</ele>
        <time>2017-01-05T13:46:11Z</time>
      </trkpt>
      <trkpt lat="45.04458" lon="6.79563">
        <ele>1107.47</ele>
        <time>2017-01-05T13:46:13Z</time>
      </trkpt>
      <trkpt lat="45.04509" lon="6.79703">
        <ele>1106.15</ele>
        <time>2017-01-06T04:40:31Z</time>
      </trkpt>
      <trkpt lat="45.04524" lon="6.79788">
        <ele>1101.27</ele>
        <time>2017-01-06T04:40:34Z</time>
      </trkpt>
      <trkpt lat="45.04525" lon="6.79866">
        <ele>1102.82</ele>
        <time>2017-01-06T04:40:37Z</time>
      </trkpt>
      <trkpt lat="45.04464" lon="6.80283">
        <ele>1113.39</ele>
        <time>2017-01-06T04:40:53Z</time>
      </trkpt>
      <trkpt lat="45.04428" lon="6.80409">
        <ele>1108.52</ele>
        <time>2017-01-06T04:40:59Z</time>
      </trkpt>
      <trkpt lat="45.04375" lon="6.80526">
        <ele>1105.9</ele>
        <time>2017-01-06T04:41:04Z</time>
      </trkpt>
      <trkpt lat="45.04252" lon="6.80742">
        <ele>1104.23</ele>
        <time>2017-01-06T04:41:15Z</time>
      </trkpt>
      <trkpt lat="45.04214" lon="6.80825">
        <ele>1096.7</ele>
        <time>2017-01-06T04:41:19Z</time>
      </trkpt>
      <trkpt lat="45.04197" lon="6.80909">
        <ele>1098.12</ele>
        <time>2017-01-06T04:41:22Z</time>
      </trkpt>
      <trkpt lat="45.0418" lon="6.81058">
        <ele>1092.31</ele>
        <time>2017-01-06T04:41:28Z</time>
      </trkpt>
      <trkpt lat="45.0419" lon="6.81117">
        <ele>1087.56</ele>
        <time>2017-01-06T04:41:30Z</time>
      </trkpt>
      <trkpt lat="45.04209" lon="6.81162">
        <ele>1083.25</ele>
        <time>2017-01-06T04:41:32Z</time>
      </trkpt>
      <trkpt lat="45.04268" lon="6.81277">
        <ele>1077.41</ele>
        <time>2017-01-06T04:41:38Z</time>
      </trkpt>
      <trkpt lat="45.0428" lon="6.81342">
        <ele>1079.94</ele>
        <time>2017-01-06T04:41:40Z</time>
      </trkpt>
      <trkpt lat="45.04279" lon="6.81401">
        <ele>1085.84</ele>
        <time>2017-01-06T04:41:43Z</time>
      </trkpt>
      <trkpt lat="45.0425" lon="6.81594">
        <ele>1089.15</ele>
        <time>2017-01-06T04:41:50Z</time>
      </trkpt>
      <trkpt lat="45.04198" lon="6.81882">
        <ele>1080.86</ele>
        <time>2017-01-06T04:42:02Z</time>
      </trkpt>
      <trkpt lat="45.04134" lon="6.8207">
        <ele>1079.82</ele>
        <time>2017-01-06T04:42:10Z</time>
      </trkpt>
      <trkpt lat="45.04133" lon="6.82132">
        <ele>1078.24</ele>
        <time>2017-01-06T04:42:12Z</time>
      </trkpt>
      <trkpt lat="45.04155" lon="6.82217">
        <ele>1079.65</ele>
        <time>2017-01-06T04:42:16Z</time>
      </trkpt>
      <trkpt lat="45.04165" lon="6.82289">
        <ele>1082.18</ele>
        <time>2017-01-06T04:42:19Z</time>
      </trkpt>
      <trkpt lat="45.04167" lon="6.82378">
        <ele>1076.36</ele>
        <time>2017-01-06T04:42:22Z</time>
      </trkpt>
      <trkpt lat="45.04167" lon="6.8245">
        <ele>1079.9</ele>
        <time>2017-01-06T04:42:25Z</time>
      </trkpt>
    </trkseg>
  </trk>
  <trk>
    <name><![CDATA[TET France coupe section 4]]></name>
    <extensions>
      <line xmlns="http://www.topografix.com/GPX/gpx_style/0/2">
        <color>bd0013</color>
        <opacity>0.8</opacity>
        <width>4</width>
      </line>
    </extensions>
    <trkseg>
      <trkpt lat="43.9766" lon="6.59036">
        <ele>1058.83203125</ele>
      </trkpt>
      <trkpt lat="43.9766" lon="6.59036">
        <ele>1058.83203125</ele>
      </trkpt>
      <trkpt lat="43.9766" lon="6.59036">
        <ele>1058.83203125</ele>
      </trkpt>
      <trkpt lat="43.9766" lon="6.59036">
        <ele>1058.83203125</ele>
      </trkpt>
      <trkpt lat="43.97633" lon="6.5966">
        <ele>1081.234375</ele>
      </trkpt>
      <trkpt lat="43.97768" lon="6.59835">
        <ele>1087.78515625</ele>
      </trkpt>
      <trkpt lat="43.97768" lon="6.59933">
        <ele>1100.27734375</ele>
      </trkpt>
      <trkpt lat="43.97525" lon="6.60011">
        <ele>1106.94140625</ele>
      </trkpt>
      <trkpt lat="43.97444" lon="6.60381">
        <ele>1129.765625</ele>
      </trkpt>
      <trkpt lat="43.97363" lon="6.6005">
        <ele>1140.578125</ele>
      </trkpt>
      <trkpt lat="43.9735" lon="6.60985">
        <ele>1183.38671875</ele>
      </trkpt>
      <trkpt lat="43.97094" lon="6.61277">
        <ele>1228.98046875</ele>
      </trkpt>
      <trkpt lat="43.97161" lon="6.60927">
        <ele>1273.171875</ele>
      </trkpt>
      <trkpt lat="43.96932" lon="6.6116">
        <ele>1306.76953125</ele>
      </trkpt>
      <trkpt lat="43.96811" lon="6.61024">
        <ele>1333.44140625</ele>
      </trkpt>
      <trkpt lat="43.96488" lon="6.60868">
        <ele>1386.29296875</ele>
      </trkpt>
      <trkpt lat="43.96366" lon="6.60985">
        <ele>1384.296875</ele>
      </trkpt>
      <trkpt lat="43.96366" lon="6.61102">
        <ele>1348.5625</ele>
      </trkpt>
      <trkpt lat="43.96232" lon="6.61024">
        <ele>1412.08203125</ele>
      </trkpt>
      <trkpt lat="43.95895" lon="6.61102">
        <ele>1445.3203125</ele>
      </trkpt>
      <trkpt lat="43.95976" lon="6.61297">
        <ele>1448.46484375</ele>
      </trkpt>
      <trkpt lat="43.95881" lon="6.61277">
        <ele>1465.49609375</ele>
      </trkpt>
      <trkpt lat="43.95881" lon="6.61375">
        <ele>1472.5</ele>
      </trkpt>
      <trkpt lat="43.95558" lon="6.61414">
        <ele>1480.51953125</ele>
      </trkpt>
      <trkpt lat="43.95463" lon="6.61258">
        <ele>1490.44921875</ele>
      </trkpt>
      <trkpt lat="43.9514" lon="6.61492">
        <ele>1467.8515625</ele>
      </trkpt>
      <trkpt lat="43.95248" lon="6.61609">
        <ele>1430.05859375</ele>
      </trkpt>
      <trkpt lat="43.95221" lon="6.61921">
        <ele>1420.9296875</ele>
      </trkpt>
      <trkpt lat="43.95032" lon="6.62037">
        <ele>1415.48046875</ele>
      </trkpt>
      <trkpt lat="43.95234" lon="6.62349">
        <ele>1393.125</ele>
      </trkpt>
      <trkpt lat="43.95585" lon="6.62486">
        <ele>1449.08984375</ele>
      </trkpt>
      <trkpt lat="43.95868" lon="6.62622">
        <ele>1434.50390625</ele>
      </trkpt>
      <trkpt lat="43.95962" lon="6.62837">
        <ele>1439.16796875</ele>
      </trkpt>
      <trkpt lat="43.95693" lon="6.63265">
        <ele>1454.43359375</ele>
      </trkpt>
      <trkpt lat="43.95935" lon="6.63792">
        <ele>1416.33203125</ele>
      </trkpt>
      <trkpt lat="43.96447" lon="6.6387">
        <ele>1353.3671875</ele>
      </trkpt>
      <trkpt lat="43.96878" lon="6.63772">
        <ele>1273.953125</ele>
      </trkpt>
      <trkpt lat="43.97229" lon="6.63519">
        <ele>1266.57421875</ele>
      </trkpt>
      <trkpt lat="43.97606" lon="6.63441">
        <ele>1203.4140625</ele>
      </trkpt>
      <trkpt lat="43.97202" lon="6.63948">
        <ele>1134.1640625</ele>
      </trkpt>
      <trkpt lat="43.97579" lon="6.63831">
        <ele>1104.4296875</ele>
      </trkpt>
      <trkpt lat="43.97768" lon="6.63597">
        <ele>1082.26953125</ele>
      </trkpt>
      <trkpt lat="43.97929" lon="6.63636">
        <ele>1076.7265625</ele>
      </trkpt>
      <trkpt lat="43.98064" lon="6.63811">
        <ele>1052.58984375</ele>
      </trkpt>
      <trkpt lat="43.97808" lon="6.63772">
        <ele>1028.65625</ele>
      </trkpt>
      <trkpt lat="43.97889" lon="6.63967">
        <ele>986.52734375</ele>
      </trkpt>
      <trkpt lat="43.97606" lon="6.64415">
        <ele>929.88671875</ele>
      </trkpt>
      <trkpt lat="43.97283" lon="6.64513">
        <ele>910.4453125</ele>
      </trkpt>
      <trkpt lat="43.96676" lon="6.64941">
        <ele>921.07421875</ele>
      </trkpt>
      <trkpt lat="43.96393" lon="6.65">
        <ele>929.1875</ele>
      </trkpt>
      <trkpt lat="43.96258" lon="6.65273">
        <ele>903.92578125</ele>
      </trkpt>
      <trkpt lat="43.95895" lon="6.65195">
        <ele>905.9375</ele>
      </trkpt>
      <trkpt lat="43.96124" lon="6.65429">
        <ele>868.21484375</ele>
      </trkpt>
      <trkpt lat="43.95895" lon="6.65448">
        <ele>856.921875</ele>
      </trkpt>
      <trkpt lat="43.95935" lon="6.65858">
        <ele>805.43359375</ele>
      </trkpt>
      <trkpt lat="43.96151" lon="6.65858">
        <ele>772.0703125</ele>
      </trkpt>
      <trkpt lat="43.96434" lon="6.66579">
        <ele>693.73828125</ele>
      </trkpt>
      <trkpt lat="43.96622" lon="6.66735">
        <ele>690.67578125</ele>
      </trkpt>
      <trkpt lat="43.9607" lon="6.67183">
        <ele>678.4296875</ele>
      </trkpt>
      <trkpt lat="43.95679" lon="6.67904">
        <ele>678.640625</ele>
      </trkpt>
      <trkpt lat="43.95639" lon="6.68586">
        <ele>662.70703125</ele>
      </trkpt>
      <trkpt lat="43.95561" lon="6.68728">
        <ele>656.73828125</ele>
      </trkpt>
      <trkpt lat="43.95798" lon="6.69308">
        <ele>653.9</ele>
        <time>2017-01-18T00:33:57Z</time>
      </trkpt>
      <trkpt lat="43.95736" lon="6.69994">
        <ele>615.6</ele>
        <time>2017-01-18T00:33:37Z</time>
      </trkpt>
      <trkpt lat="43.95989" lon="6.71711">
        <ele>596.7</ele>
        <time>2017-01-18T00:33:17Z</time>
      </trkpt>
      <trkpt lat="43.95872" lon="6.73565">
        <ele>562.4</ele>
        <time>2017-01-18T00:32:57Z</time>
      </trkpt>
      <trkpt lat="43.97009" lon="6.76037">
        <ele>535.4</ele>
        <time>2017-01-18T00:32:37Z</time>
      </trkpt>
      <trkpt lat="43.98244" lon="6.759">
        <ele>556.1</ele>
        <time>2017-01-18T00:32:17Z</time>
      </trkpt>
      <trkpt lat="44.02393" lon="6.81152">
        <ele>666.7</ele>
        <time>2017-01-18T00:31:57Z</time>
      </trkpt>
      <trkpt lat="44.02646" lon="6.81341">
        <ele>668.1</ele>
        <time>2017-01-18T00:31:37Z</time>
      </trkpt>
      <trkpt lat="44.02831" lon="6.8177">
        <ele>672.7</ele>
        <time>2017-01-18T00:31:17Z</time>
      </trkpt>
      <trkpt lat="44.03195" lon="6.82551">
        <ele>716</ele>
        <time>2017-01-18T00:30:57Z</time>
      </trkpt>
      <trkpt lat="44.03713" lon="6.82886">
        <ele>757.9</ele>
        <time>2017-01-18T00:30:37Z</time>
      </trkpt>
      <trkpt lat="44.03942" lon="6.8353">
        <ele>765.3</ele>
        <time>2017-01-18T00:30:17Z</time>
      </trkpt>
      <trkpt lat="44.04195" lon="6.83161">
        <ele>807.1</ele>
        <time>2017-01-18T00:29:57Z</time>
      </trkpt>
      <trkpt lat="44.04034" lon="6.83753">
        <ele>801.7</ele>
        <time>2017-01-18T00:29:37Z</time>
      </trkpt>
      <trkpt lat="44.04682" lon="6.84277">
        <ele>865.4</ele>
        <time>2017-01-18T00:29:17Z</time>
      </trkpt>
      <trkpt lat="44.05502" lon="6.84517">
        <ele>846.4</ele>
        <time>2017-01-18T00:28:57Z</time>
      </trkpt>
      <trkpt lat="44.05626" lon="6.85058">
        <ele>827.8</ele>
        <time>2017-01-18T00:28:37Z</time>
      </trkpt>
      <trkpt lat="44.06101" lon="6.85427">
        <ele>788.9</ele>
        <time>2017-01-18T00:28:17Z</time>
      </trkpt>
      <trkpt lat="44.0628" lon="6.84852">
        <ele>780.4</ele>
        <time>2017-01-18T00:27:57Z</time>
      </trkpt>
      <trkpt lat="44.06366" lon="6.85384">
        <ele>778.1</ele>
        <time>2017-01-18T00:27:37Z</time>
      </trkpt>
      <trkpt lat="44.07575" lon="6.85804">
        <ele>771.8</ele>
        <time>2017-01-18T00:27:17Z</time>
      </trkpt>
      <trkpt lat="44.08759" lon="6.85375">
        <ele>792.2</ele>
        <time>2017-01-18T00:26:57Z</time>
      </trkpt>
      <trkpt lat="44.08469" lon="6.8577">
        <ele>818.3</ele>
        <time>2017-01-18T00:26:37Z</time>
      </trkpt>
      <trkpt lat="44.08715" lon="6.85624">
        <ele>853.2</ele>
        <time>2017-01-18T00:26:17Z</time>
      </trkpt>
      <trkpt lat="44.08919" lon="6.85813">
        <ele>863.3</ele>
        <time>2017-01-18T00:25:57Z</time>
      </trkpt>
      <trkpt lat="44.08315" lon="6.86036">
        <ele>873.5</ele>
        <time>2017-01-18T00:25:37Z</time>
      </trkpt>
      <trkpt lat="44.08419" lon="6.87521">
        <ele>1034.5</ele>
        <time>2017-01-18T00:25:17Z</time>
      </trkpt>
      <trkpt lat="44.07988" lon="6.88388">
        <ele>1092.9</ele>
        <time>2017-01-18T00:24:57Z</time>
      </trkpt>
      <trkpt lat="44.08105" lon="6.89873">
        <ele>1202.2</ele>
        <time>2017-01-18T00:24:37Z</time>
      </trkpt>
      <trkpt lat="44.08487" lon="6.89504">
        <ele>1254.8</ele>
        <time>2017-01-18T00:24:17Z</time>
      </trkpt>
      <trkpt lat="44.08318" lon="6.89216">
        <ele>1253.9</ele>
        <time>2017-01-18T00:23:57Z</time>
      </trkpt>
      <trkpt lat="44.08352" lon="6.88791">
        <ele>1300.5</ele>
        <time>2017-01-18T00:23:37Z</time>
      </trkpt>
      <trkpt lat="44.08422" lon="6.8925">
        <ele>1319.2</ele>
        <time>2017-01-18T00:23:17Z</time>
      </trkpt>
      <trkpt lat="44.08765" lon="6.89349">
        <ele>1382.4</ele>
        <time>2017-01-18T00:22:57Z</time>
      </trkpt>
      <trkpt lat="44.08658" lon="6.89733">
        <ele>1366.4</ele>
        <time>2017-01-18T00:22:37Z</time>
      </trkpt>
      <trkpt lat="44.08786" lon="6.90553">
        <ele>1432.7</ele>
        <time>2017-01-18T00:22:17Z</time>
      </trkpt>
      <trkpt lat="44.0837" lon="6.90821">
        <ele>1455.1</ele>
        <time>2017-01-18T00:21:57Z</time>
      </trkpt>
      <trkpt lat="44.08817" lon="6.91111">
        <ele>1521.8</ele>
        <time>2017-01-18T00:21:37Z</time>
      </trkpt>
      <trkpt lat="44.08467" lon="6.9127">
        <ele>1531.2</ele>
        <time>2017-01-18T00:21:17Z</time>
      </trkpt>
      <trkpt lat="44.08606" lon="6.91898">
        <ele>1599.9</ele>
        <time>2017-01-18T00:20:57Z</time>
      </trkpt>
      <trkpt lat="44.08601" lon="6.91461">
        <ele>1611</ele>
        <time>2017-01-18T00:20:37Z</time>
      </trkpt>
      <trkpt lat="44.08803" lon="6.91461">
        <ele>1624.9</ele>
        <time>2017-01-18T00:20:17Z</time>
      </trkpt>
      <trkpt lat="44.0899" lon="6.921">
        <ele>1681.1</ele>
        <time>2017-01-18T00:19:57Z</time>
      </trkpt>
      <trkpt lat="44.09238" lon="6.92647">
        <ele>1677.8</ele>
        <time>2017-01-18T00:19:37Z</time>
      </trkpt>
      <trkpt lat="44.09423" lon="6.92632">
        <ele>1670.6</ele>
        <time>2017-01-18T00:19:17Z</time>
      </trkpt>
      <trkpt lat="44.09534" lon="6.92905">
        <ele>1681.9</ele>
        <time>2017-01-18T00:18:57Z</time>
      </trkpt>
      <trkpt lat="44.09646" lon="6.92928">
        <ele>1680.1</ele>
        <time>2017-01-18T00:18:37Z</time>
      </trkpt>
      <trkpt lat="44.08675" lon="6.94327">
        <ele>1631.5</ele>
        <time>2017-01-18T00:18:17Z</time>
      </trkpt>
      <trkpt lat="44.08871" lon="6.94812">
        <ele>1586.8</ele>
        <time>2017-01-18T00:17:57Z</time>
      </trkpt>
      <trkpt lat="44.08999" lon="6.94823">
        <ele>1590.5</ele>
        <time>2017-01-18T00:17:37Z</time>
      </trkpt>
      <trkpt lat="44.08873" lon="6.94967">
        <ele>1575.6</ele>
        <time>2017-01-18T00:17:17Z</time>
      </trkpt>
      <trkpt lat="44.08853" lon="6.95145">
        <ele>1560.5</ele>
        <time>2017-01-18T00:16:57Z</time>
      </trkpt>
      <trkpt lat="44.08968" lon="6.95231">
        <ele>1559.5</ele>
        <time>2017-01-18T00:16:37Z</time>
      </trkpt>
      <trkpt lat="44.08876" lon="6.95248">
        <ele>1551.8</ele>
        <time>2017-01-18T00:16:17Z</time>
      </trkpt>
      <trkpt lat="44.08577" lon="6.95664">
        <ele>1537.5</ele>
        <time>2017-01-18T00:15:57Z</time>
      </trkpt>
      <trkpt lat="44.08626" lon="6.96164">
        <ele>1550.6</ele>
        <time>2017-01-18T00:15:37Z</time>
      </trkpt>
      <trkpt lat="44.08672" lon="6.96362">
        <ele>1544.5</ele>
        <time>2017-01-18T00:15:17Z</time>
      </trkpt>
      <trkpt lat="44.08974" lon="6.9649">
        <ele>1557.6</ele>
        <time>2017-01-18T00:14:57Z</time>
      </trkpt>
      <trkpt lat="44.0911" lon="6.97134">
        <ele>1553.2</ele>
        <time>2017-01-18T00:14:37Z</time>
      </trkpt>
      <trkpt lat="44.09443" lon="6.97426">
        <ele>1519.1</ele>
        <time>2017-01-18T00:14:17Z</time>
      </trkpt>
      <trkpt lat="44.09677" lon="6.98224">
        <ele>1478</ele>
        <time>2017-01-18T00:13:57Z</time>
      </trkpt>
      <trkpt lat="44.09609" lon="6.98653">
        <ele>1443.3</ele>
        <time>2017-01-18T00:13:37Z</time>
      </trkpt>
      <trkpt lat="44.10478" lon="6.9867">
        <ele>1442</ele>
        <time>2017-01-18T00:13:17Z</time>
      </trkpt>
      <trkpt lat="44.09862" lon="6.99537">
        <ele>1539.2</ele>
        <time>2017-01-18T00:12:57Z</time>
      </trkpt>
      <trkpt lat="44.10182" lon="7.00567">
        <ele>1586.9</ele>
        <time>2017-01-18T00:12:37Z</time>
      </trkpt>
      <trkpt lat="44.09628" lon="7.00104">
        <ele>1588.4</ele>
        <time>2017-01-18T00:12:17Z</time>
      </trkpt>
      <trkpt lat="44.09215" lon="7.0025">
        <ele>1578.6</ele>
        <time>2017-01-18T00:11:57Z</time>
      </trkpt>
      <trkpt lat="44.10189" lon="7.02147">
        <ele>1653.9</ele>
        <time>2017-01-18T00:11:37Z</time>
      </trkpt>
      <trkpt lat="44.09313" lon="7.02636">
        <ele>1628.2</ele>
        <time>2017-01-18T00:11:17Z</time>
      </trkpt>
      <trkpt lat="44.09061" lon="7.034">
        <ele>1538.4</ele>
        <time>2017-01-18T00:10:57Z</time>
      </trkpt>
      <trkpt lat="44.09209" lon="7.03932">
        <ele>1398.5</ele>
        <time>2017-01-18T00:10:37Z</time>
      </trkpt>
      <trkpt lat="44.09264" lon="7.05262">
        <ele>1250.5</ele>
        <time>2017-01-18T00:10:17Z</time>
      </trkpt>
      <trkpt lat="44.08413" lon="7.05726">
        <ele>1144.9</ele>
        <time>2017-01-18T00:09:57Z</time>
      </trkpt>
      <trkpt lat="44.08814" lon="7.06138">
        <ele>1072.4</ele>
        <time>2017-01-18T00:09:37Z</time>
      </trkpt>
      <trkpt lat="44.09683" lon="7.0558">
        <ele>1030</ele>
        <time>2017-01-18T00:09:17Z</time>
      </trkpt>
      <trkpt lat="44.0913" lon="7.06261">
        <ele>938.2</ele>
      </trkpt>
      <trkpt lat="44.08915" lon="7.07206">
        <ele>844.6</ele>
      </trkpt>
      <trkpt lat="44.08982" lon="7.07406">
        <ele>879.4</ele>
      </trkpt>
      <trkpt lat="44.08922" lon="7.07735">
        <ele>823.5</ele>
      </trkpt>
      <trkpt lat="44.08588" lon="7.08464">
        <ele>790.1</ele>
      </trkpt>
      <trkpt lat="44.08502" lon="7.08522">
        <ele>746</ele>
      </trkpt>
      <trkpt lat="44.08516" lon="7.08932">
        <ele>716.7</ele>
      </trkpt>
      <trkpt lat="44.08655" lon="7.09127">
        <ele>735.9</ele>
      </trkpt>
      <trkpt lat="44.08638" lon="7.09299">
        <ele>682.4</ele>
      </trkpt>
      <trkpt lat="44.08614" lon="7.09455">
        <ele>685.6</ele>
      </trkpt>
      <trkpt lat="44.08361" lon="7.09842">
        <ele>620.3</ele>
      </trkpt>
      <trkpt lat="44.08617" lon="7.10048">
        <ele>643.4</ele>
      </trkpt>
      <trkpt lat="44.08642" lon="7.10216">
        <ele>602.2</ele>
      </trkpt>
      <trkpt lat="44.08829" lon="7.10292">
        <ele>604.7</ele>
      </trkpt>
      <trkpt lat="44.08622" lon="7.10306">
        <ele>567.2</ele>
      </trkpt>
      <trkpt lat="44.08502" lon="7.10116">
        <ele>576.5</ele>
      </trkpt>
      <trkpt lat="44.08586" lon="7.10386">
        <ele>529.5</ele>
      </trkpt>
      <trkpt lat="44.08771" lon="7.10462">
        <ele>534.7</ele>
      </trkpt>
      <trkpt lat="44.0886" lon="7.10676">
        <ele>519.2</ele>
        <time>2017-01-18T00:08:57Z</time>
      </trkpt>
      <trkpt lat="44.08677" lon="7.1062">
        <ele>521.1</ele>
      </trkpt>
      <trkpt lat="44.08477" lon="7.10644">
        <ele>521.1</ele>
      </trkpt>
      <trkpt lat="44.08391" lon="7.1049">
        <ele>490.8</ele>
      </trkpt>
      <trkpt lat="44.08082" lon="7.10666">
        <ele>502.4</ele>
      </trkpt>
      <trkpt lat="44.07992" lon="7.10534">
        <ele>499.7</ele>
      </trkpt>
      <trkpt lat="44.0775" lon="7.10503">
        <ele>479.7</ele>
      </trkpt>
      <trkpt lat="44.07552" lon="7.10793">
        <ele>486.3</ele>
      </trkpt>
      <trkpt lat="44.07346" lon="7.10958">
        <ele>485.4</ele>
      </trkpt>
      <trkpt lat="44.07121" lon="7.10951">
        <ele>474.4</ele>
      </trkpt>
      <trkpt lat="44.06764" lon="7.11465">
        <ele>500.3</ele>
      </trkpt>
      <trkpt lat="44.06563" lon="7.11399">
        <ele>452.4</ele>
        <time>2017-01-18T00:08:37Z</time>
      </trkpt>
      <trkpt lat="44.06431" lon="7.11716">
        <ele>492.2</ele>
      </trkpt>
      <trkpt lat="44.05473" lon="7.11928">
        <ele>466.9</ele>
      </trkpt>
      <trkpt lat="44.05423" lon="7.1222">
        <ele>494.2</ele>
      </trkpt>
      <trkpt lat="44.0476" lon="7.12987">
        <ele>466.7</ele>
        <time>2017-01-18T00:08:17Z</time>
      </trkpt>
      <trkpt lat="44.04089" lon="7.12904">
        <ele>429.5</ele>
      </trkpt>
      <trkpt lat="44.03872" lon="7.12748">
        <ele>420.8</ele>
      </trkpt>
      <trkpt lat="44.03644" lon="7.12812">
        <ele>409.2</ele>
      </trkpt>
      <trkpt lat="44.03448" lon="7.1319">
        <ele>424.5</ele>
      </trkpt>
      <trkpt lat="44.02973" lon="7.13195">
        <ele>379.5</ele>
      </trkpt>
      <trkpt lat="44.02783" lon="7.13101">
        <ele>381.4</ele>
      </trkpt>
      <trkpt lat="44.02349" lon="7.13159">
        <ele>363</ele>
      </trkpt>
      <trkpt lat="44.01961" lon="7.13171">
        <ele>355.8</ele>
      </trkpt>
      <trkpt lat="44.01046" lon="7.13165">
        <ele>377.8</ele>
      </trkpt>
      <trkpt lat="44.00626" lon="7.13623">
        <ele>368.9</ele>
        <time>2017-01-18T00:07:57Z</time>
      </trkpt>
      <trkpt lat="44.00263" lon="7.13846">
        <ele>384.3</ele>
      </trkpt>
      <trkpt lat="43.99928" lon="7.13742">
        <ele>352.5</ele>
      </trkpt>
      <trkpt lat="43.99714" lon="7.13785">
        <ele>364.6</ele>
      </trkpt>
      <trkpt lat="43.99383" lon="7.13678">
        <ele>350.9</ele>
      </trkpt>
      <trkpt lat="43.98671" lon="7.13625">
        <ele>338.7</ele>
      </trkpt>
      <trkpt lat="43.98071" lon="7.1394">
        <ele>313.4</ele>
        <time>2017-01-18T00:07:37Z</time>
      </trkpt>
      <trkpt lat="43.97718" lon="7.14074">
        <ele>312.2</ele>
      </trkpt>
      <trkpt lat="43.97501" lon="7.13957">
        <ele>295.5</ele>
      </trkpt>
      <trkpt lat="43.97305" lon="7.14157">
        <ele>296.3</ele>
      </trkpt>
      <trkpt lat="43.97229" lon="7.14619">
        <ele>303.9</ele>
      </trkpt>
      <trkpt lat="43.96836" lon="7.15004">
        <ele>294.6</ele>
        <time>2017-01-18T00:07:17Z</time>
      </trkpt>
      <trkpt lat="43.96141" lon="7.15429">
        <ele>286.3</ele>
      </trkpt>
      <trkpt lat="43.96132" lon="7.15429">
        <ele>286.1</ele>
      </trkpt>
      <trkpt lat="43.95423" lon="7.15893">
        <ele>277.1</ele>
      </trkpt>
      <trkpt lat="43.94749" lon="7.16073">
        <ele>264.6</ele>
      </trkpt>
      <trkpt lat="43.94578" lon="7.16312">
        <ele>277.8</ele>
      </trkpt>
      <trkpt lat="43.9456" lon="7.16312">
        <ele>274</ele>
      </trkpt>
      <trkpt lat="43.93967" lon="7.16103">
        <ele>244.2</ele>
      </trkpt>
      <trkpt lat="43.93842" lon="7.16297">
        <ele>248.1</ele>
      </trkpt>
      <trkpt lat="43.93878" lon="7.16312">
        <ele>253.6</ele>
      </trkpt>
      <trkpt lat="43.93985" lon="7.16432">
        <ele>289.9</ele>
      </trkpt>
      <trkpt lat="43.93851" lon="7.16656">
        <ele>303.2</ele>
      </trkpt>
      <trkpt lat="43.93842" lon="7.16671">
        <ele>309.1</ele>
      </trkpt>
      <trkpt lat="43.93949" lon="7.17015">
        <ele>323.4</ele>
      </trkpt>
      <trkpt lat="43.9394" lon="7.17315">
        <ele>367.1</ele>
      </trkpt>
      <trkpt lat="43.93617" lon="7.17629">
        <ele>364.1</ele>
      </trkpt>
      <trkpt lat="43.93617" lon="7.17644">
        <ele>364.2</ele>
      </trkpt>
      <trkpt lat="43.9394" lon="7.17883">
        <ele>413.6</ele>
      </trkpt>
      <trkpt lat="43.9394" lon="7.17868">
        <ele>417</ele>
      </trkpt>
      <trkpt lat="43.9386" lon="7.17689">
        <ele>443.7</ele>
      </trkpt>
      <trkpt lat="43.93878" lon="7.17689">
        <ele>446.1</ele>
      </trkpt>
      <trkpt lat="43.94165" lon="7.1736">
        <ele>484.2</ele>
      </trkpt>
      <trkpt lat="43.94075" lon="7.17659">
        <ele>528.6</ele>
      </trkpt>
      <trkpt lat="43.94192" lon="7.17958">
        <ele>541.5</ele>
      </trkpt>
      <trkpt lat="43.94201" lon="7.17958">
        <ele>542.7</ele>
      </trkpt>
      <trkpt lat="43.94461" lon="7.17958">
        <ele>572.6</ele>
      </trkpt>
      <trkpt lat="43.94462" lon="7.17993">
        <ele>575.5</ele>
        <time>2017-01-17T23:58:37Z</time>
      </trkpt>
      <trkpt lat="43.94869" lon="7.18615">
        <ele>589.8</ele>
        <time>2017-01-17T23:58:17Z</time>
      </trkpt>
      <trkpt lat="43.94871" lon="7.18718">
        <ele>607.5</ele>
        <time>2017-01-17T23:57:57Z</time>
      </trkpt>
      <trkpt lat="43.94784" lon="7.18883">
        <ele>622.3</ele>
        <time>2017-01-17T23:57:37Z</time>
      </trkpt>
      <trkpt lat="43.94861" lon="7.18824">
        <ele>634.7</ele>
        <time>2017-01-17T23:57:17Z</time>
      </trkpt>
      <trkpt lat="43.94729" lon="7.19119">
        <ele>652.5</ele>
        <time>2017-01-17T23:56:57Z</time>
      </trkpt>
      <trkpt lat="43.94755" lon="7.19265">
        <ele>684.4</ele>
        <time>2017-01-17T23:56:37Z</time>
      </trkpt>
      <trkpt lat="43.94797" lon="7.19072">
        <ele>680</ele>
        <time>2017-01-17T23:56:17Z</time>
      </trkpt>
      <trkpt lat="43.94785" lon="7.19223">
        <ele>701.2</ele>
        <time>2017-01-17T23:55:57Z</time>
      </trkpt>
      <trkpt lat="43.94884" lon="7.19552">
        <ele>734.8</ele>
        <time>2017-01-17T23:55:37Z</time>
      </trkpt>
      <trkpt lat="43.94875" lon="7.19373">
        <ele>765.6</ele>
        <time>2017-01-17T23:55:17Z</time>
      </trkpt>
      <trkpt lat="43.94943" lon="7.19664">
        <ele>759.6</ele>
        <time>2017-01-17T23:54:57Z</time>
      </trkpt>
      <trkpt lat="43.95063" lon="7.19691">
        <ele>774.9</ele>
        <time>2017-01-17T23:54:37Z</time>
      </trkpt>
      <trkpt lat="43.94986" lon="7.19669">
        <ele>761.2</ele>
        <time>2017-01-17T23:54:17Z</time>
      </trkpt>
      <trkpt lat="43.94965" lon="7.19601">
        <ele>778.2</ele>
        <time>2017-01-17T23:53:57Z</time>
      </trkpt>
      <trkpt lat="43.94978" lon="7.19647">
        <ele>772.6</ele>
        <time>2017-01-17T23:53:37Z</time>
      </trkpt>
      <trkpt lat="43.95278" lon="7.19695">
        <ele>824.5</ele>
        <time>2017-01-17T23:53:17Z</time>
      </trkpt>
      <trkpt lat="43.95368" lon="7.19772">
        <ele>829.2</ele>
        <time>2017-01-17T23:52:57Z</time>
      </trkpt>
      <trkpt lat="43.95241" lon="7.19611">
        <ele>842.1</ele>
        <time>2017-01-17T23:52:37Z</time>
      </trkpt>
      <trkpt lat="43.95076" lon="7.19536">
        <ele>845.4</ele>
        <time>2017-01-17T23:52:17Z</time>
      </trkpt>
      <trkpt lat="43.95162" lon="7.19523">
        <ele>865.3</ele>
        <time>2017-01-17T23:51:57Z</time>
      </trkpt>
      <trkpt lat="43.95517" lon="7.19638">
        <ele>909.1</ele>
        <time>2017-01-17T23:51:37Z</time>
      </trkpt>
      <trkpt lat="43.95633" lon="7.19788">
        <ele>903.3</ele>
        <time>2017-01-17T23:51:17Z</time>
      </trkpt>
      <trkpt lat="43.95868" lon="7.19892">
        <ele>919.1</ele>
        <time>2017-01-17T23:50:57Z</time>
      </trkpt>
      <trkpt lat="43.96406" lon="7.19803">
        <ele>1002.2</ele>
        <time>2017-01-17T23:50:37Z</time>
      </trkpt>
      <trkpt lat="43.96557" lon="7.19888">
        <ele>1025.6</ele>
        <time>2017-01-17T23:50:17Z</time>
      </trkpt>
      <trkpt lat="43.96561" lon="7.19985">
        <ele>994.5</ele>
        <time>2017-01-17T23:49:57Z</time>
      </trkpt>
      <trkpt lat="43.9663" lon="7.19986">
        <ele>1029.7</ele>
        <time>2017-01-17T23:49:37Z</time>
      </trkpt>
      <trkpt lat="43.96892" lon="7.20243">
        <ele>997.8</ele>
        <time>2017-01-17T23:49:17Z</time>
      </trkpt>
      <trkpt lat="43.9702" lon="7.20205">
        <ele>1035.2</ele>
        <time>2017-01-17T23:48:57Z</time>
      </trkpt>
      <trkpt lat="43.97196" lon="7.20505">
        <ele>984.7</ele>
        <time>2017-01-17T23:48:37Z</time>
      </trkpt>
      <trkpt lat="43.97479" lon="7.20265">
        <ele>1032.3</ele>
        <time>2017-01-17T23:48:17Z</time>
      </trkpt>
      <trkpt lat="43.97574" lon="7.20471">
        <ele>1010.5</ele>
        <time>2017-01-17T23:47:57Z</time>
      </trkpt>
      <trkpt lat="43.97651" lon="7.20519">
        <ele>1035.8</ele>
        <time>2017-01-17T23:47:37Z</time>
      </trkpt>
      <trkpt lat="43.97664" lon="7.20672">
        <ele>1010.4</ele>
        <time>2017-01-17T23:47:17Z</time>
      </trkpt>
      <trkpt lat="43.97784" lon="7.20745">
        <ele>1025.1</ele>
        <time>2017-01-17T23:46:57Z</time>
      </trkpt>
      <trkpt lat="43.97947" lon="7.20711">
        <ele>1013.2</ele>
        <time>2017-01-17T23:46:37Z</time>
      </trkpt>
      <trkpt lat="43.9823" lon="7.20287">
        <ele>1050</ele>
        <time>2017-01-17T23:46:17Z</time>
      </trkpt>
      <trkpt lat="43.98321" lon="7.2061">
        <ele>1009</ele>
        <time>2017-01-17T23:45:57Z</time>
      </trkpt>
      <trkpt lat="43.98325" lon="7.20815">
        <ele>984.6</ele>
        <time>2017-01-17T23:45:37Z</time>
      </trkpt>
      <trkpt lat="43.98497" lon="7.20823">
        <ele>1017.8</ele>
        <time>2017-01-17T23:45:17Z</time>
      </trkpt>
      <trkpt lat="43.98557" lon="7.20982">
        <ele>989.8</ele>
        <time>2017-01-17T23:44:57Z</time>
      </trkpt>
      <trkpt lat="43.98694" lon="7.20944">
        <ele>1008.8</ele>
        <time>2017-01-17T23:44:37Z</time>
      </trkpt>
      <trkpt lat="43.98887" lon="7.21042">
        <ele>999.2</ele>
        <time>2017-01-17T23:44:17Z</time>
      </trkpt>
      <trkpt lat="43.98917" lon="7.2097">
        <ele>1019.1</ele>
        <time>2017-01-17T23:43:57Z</time>
      </trkpt>
      <trkpt lat="43.9896" lon="7.21021">
        <ele>1007.8</ele>
        <time>2017-01-17T23:43:37Z</time>
      </trkpt>
      <trkpt lat="43.99054" lon="7.21008">
        <ele>1025.2</ele>
        <time>2017-01-17T23:43:17Z</time>
      </trkpt>
      <trkpt lat="43.98904" lon="7.21213">
        <ele>999.9</ele>
        <time>2017-01-17T23:42:57Z</time>
      </trkpt>
      <trkpt lat="43.99076" lon="7.21519">
        <ele>1047.3</ele>
        <time>2017-01-17T23:42:37Z</time>
      </trkpt>
      <trkpt lat="43.98973" lon="7.21532">
        <ele>1059.8</ele>
        <time>2017-01-17T23:42:17Z</time>
      </trkpt>
      <trkpt lat="43.98921" lon="7.21467">
        <ele>1037.7</ele>
        <time>2017-01-17T23:41:57Z</time>
      </trkpt>
      <trkpt lat="43.98775" lon="7.21429">
        <ele>1059.8</ele>
        <time>2017-01-17T23:41:37Z</time>
      </trkpt>
      <trkpt lat="43.98652" lon="7.21467">
        <ele>1048.8</ele>
        <time>2017-01-17T23:41:17Z</time>
      </trkpt>
      <trkpt lat="43.98677" lon="7.2161">
        <ele>1097.7</ele>
        <time>2017-01-17T23:40:57Z</time>
      </trkpt>
      <trkpt lat="43.98621" lon="7.21759">
        <ele>1124.6</ele>
        <time>2017-01-17T23:40:37Z</time>
      </trkpt>
      <trkpt lat="43.98368" lon="7.21707">
        <ele>1099.7</ele>
        <time>2017-01-17T23:40:17Z</time>
      </trkpt>
      <trkpt lat="43.98324" lon="7.21823">
        <ele>1128.2</ele>
        <time>2017-01-17T23:39:57Z</time>
      </trkpt>
      <trkpt lat="43.98236" lon="7.21866">
        <ele>1108.7</ele>
        <time>2017-01-17T23:39:37Z</time>
      </trkpt>
      <trkpt lat="43.98248" lon="7.21961">
        <ele>1144.4</ele>
        <time>2017-01-17T23:39:17Z</time>
      </trkpt>
      <trkpt lat="43.9812" lon="7.22062">
        <ele>1132.9</ele>
        <time>2017-01-17T23:38:57Z</time>
      </trkpt>
      <trkpt lat="43.9835" lon="7.22081">
        <ele>1190.2</ele>
        <time>2017-01-17T23:38:37Z</time>
      </trkpt>
      <trkpt lat="43.98613" lon="7.22252">
        <ele>1222.2</ele>
        <time>2017-01-17T23:38:17Z</time>
      </trkpt>
      <trkpt lat="43.98943" lon="7.22781">
        <ele>1289.4</ele>
        <time>2017-01-17T23:37:57Z</time>
      </trkpt>
      <trkpt lat="43.98887" lon="7.22862">
        <ele>1282.4</ele>
        <time>2017-01-17T23:37:37Z</time>
      </trkpt>
      <trkpt lat="43.98771" lon="7.22905">
        <ele>1265.8</ele>
        <time>2017-01-17T23:37:17Z</time>
      </trkpt>
      <trkpt lat="43.98609" lon="7.23116">
        <ele>1320.2</ele>
        <time>2017-01-17T23:36:57Z</time>
      </trkpt>
      <trkpt lat="43.9848" lon="7.23123">
        <ele>1315.8</ele>
        <time>2017-01-17T23:36:37Z</time>
      </trkpt>
      <trkpt lat="43.98573" lon="7.23166">
        <ele>1329.1</ele>
        <time>2017-01-17T23:36:17Z</time>
      </trkpt>
      <trkpt lat="43.98798" lon="7.23033">
        <ele>1342</ele>
        <time>2017-01-17T23:35:57Z</time>
      </trkpt>
      <trkpt lat="43.98938" lon="7.23014">
        <ele>1382.8</ele>
        <time>2017-01-17T23:35:37Z</time>
      </trkpt>
      <trkpt lat="43.9908" lon="7.22892">
        <ele>1376.3</ele>
        <time>2017-01-17T23:35:17Z</time>
      </trkpt>
      <trkpt lat="43.99102" lon="7.22647">
        <ele>1411.5</ele>
        <time>2017-01-17T23:34:57Z</time>
      </trkpt>
      <trkpt lat="43.99012" lon="7.22532">
        <ele>1404.1</ele>
        <time>2017-01-17T23:34:37Z</time>
      </trkpt>
      <trkpt lat="43.99015" lon="7.2239">
        <ele>1413.3</ele>
        <time>2017-01-17T23:34:17Z</time>
      </trkpt>
      <trkpt lat="43.99084" lon="7.22437">
        <ele>1411.9</ele>
        <time>2017-01-17T23:33:57Z</time>
      </trkpt>
      <trkpt lat="43.99192" lon="7.22767">
        <ele>1461.3</ele>
        <time>2017-01-17T23:33:37Z</time>
      </trkpt>
      <trkpt lat="43.99106" lon="7.23145">
        <ele>1482.4</ele>
        <time>2017-01-17T23:33:17Z</time>
      </trkpt>
      <trkpt lat="43.99222" lon="7.23175">
        <ele>1506.9</ele>
        <time>2017-01-17T23:32:57Z</time>
      </trkpt>
      <trkpt lat="43.99145" lon="7.23102">
        <ele>1489.7</ele>
        <time>2017-01-17T23:32:37Z</time>
      </trkpt>
      <trkpt lat="43.99205" lon="7.23115">
        <ele>1515.1</ele>
        <time>2017-01-17T23:32:17Z</time>
      </trkpt>
      <trkpt lat="43.99346" lon="7.23235">
        <ele>1548.1</ele>
        <time>2017-01-17T23:31:57Z</time>
      </trkpt>
      <trkpt lat="43.99283" lon="7.23118">
        <ele>1546.4</ele>
        <time>2017-01-17T23:31:37Z</time>
      </trkpt>
      <trkpt lat="43.99566" lon="7.23411">
        <ele>1589.9</ele>
        <time>2017-01-17T23:31:17Z</time>
      </trkpt>
      <trkpt lat="43.99501" lon="7.23489">
        <ele>1598</ele>
        <time>2017-01-17T23:30:57Z</time>
      </trkpt>
      <trkpt lat="43.99364" lon="7.23531">
        <ele>1608.8</ele>
        <time>2017-01-17T23:30:37Z</time>
      </trkpt>
      <trkpt lat="43.99235" lon="7.23695">
        <ele>1613</ele>
        <time>2017-01-17T23:30:17Z</time>
      </trkpt>
      <trkpt lat="43.99436" lon="7.23617">
        <ele>1643.5</ele>
        <time>2017-01-17T23:29:57Z</time>
      </trkpt>
      <trkpt lat="43.99606" lon="7.237">
        <ele>1659.2</ele>
        <time>2017-01-17T23:29:37Z</time>
      </trkpt>
      <trkpt lat="43.99869" lon="7.23597">
        <ele>1687.3</ele>
        <time>2017-01-17T23:29:17Z</time>
      </trkpt>
      <trkpt lat="44.00041" lon="7.23681">
        <ele>1663.1</ele>
        <time>2017-01-17T23:28:57Z</time>
      </trkpt>
      <trkpt lat="44.0011" lon="7.23578">
        <ele>1700.7</ele>
        <time>2017-01-17T23:28:37Z</time>
      </trkpt>
      <trkpt lat="44.00286" lon="7.23506">
        <ele>1672.6</ele>
        <time>2017-01-17T23:28:17Z</time>
      </trkpt>
      <trkpt lat="44.00436" lon="7.23518">
        <ele>1677.2</ele>
        <time>2017-01-17T23:27:57Z</time>
      </trkpt>
      <trkpt lat="44.00549" lon="7.23619">
        <ele>1664.9</ele>
        <time>2017-01-17T23:27:37Z</time>
      </trkpt>
      <trkpt lat="44.00673" lon="7.23647">
        <ele>1675.1</ele>
        <time>2017-01-17T23:27:17Z</time>
      </trkpt>
      <trkpt lat="44.00873" lon="7.23635">
        <ele>1684.4</ele>
        <time>2017-01-17T23:26:57Z</time>
      </trkpt>
      <trkpt lat="44.01003" lon="7.2375">
        <ele>1688.6</ele>
        <time>2017-01-17T23:26:37Z</time>
      </trkpt>
      <trkpt lat="44.01008" lon="7.24038">
        <ele>1692.6</ele>
        <time>2017-01-17T23:26:17Z</time>
      </trkpt>
      <trkpt lat="44.009" lon="7.24421">
        <ele>1687</ele>
        <time>2017-01-17T23:25:57Z</time>
      </trkpt>
      <trkpt lat="44.00909" lon="7.25058">
        <ele>1687.8</ele>
        <time>2017-01-17T23:25:37Z</time>
      </trkpt>
      <trkpt lat="44.01149" lon="7.25334">
        <ele>1680.9</ele>
        <time>2017-01-17T23:25:17Z</time>
      </trkpt>
      <trkpt lat="44.01187" lon="7.25548">
        <ele>1682.9</ele>
        <time>2017-01-17T23:24:57Z</time>
      </trkpt>
      <trkpt lat="44.01034" lon="7.25984">
        <ele>1640.9</ele>
        <time>2017-01-17T23:24:37Z</time>
      </trkpt>
      <trkpt lat="44.01032" lon="7.26218">
        <ele>1648.6</ele>
        <time>2017-01-17T23:24:17Z</time>
      </trkpt>
      <trkpt lat="44.00921" lon="7.26282">
        <ele>1634</ele>
        <time>2017-01-17T23:23:57Z</time>
      </trkpt>
      <trkpt lat="44.00835" lon="7.26428">
        <ele>1630.7</ele>
        <time>2017-01-17T23:23:37Z</time>
      </trkpt>
      <trkpt lat="44.0069" lon="7.26433">
        <ele>1591.2</ele>
        <time>2017-01-17T23:23:17Z</time>
      </trkpt>
      <trkpt lat="44.00715" lon="7.26677">
        <ele>1593.4</ele>
        <time>2017-01-17T23:22:57Z</time>
      </trkpt>
      <trkpt lat="44.00672" lon="7.26955">
        <ele>1550.2</ele>
        <time>2017-01-17T23:22:37Z</time>
      </trkpt>
      <trkpt lat="44.00733" lon="7.27072">
        <ele>1527.1</ele>
        <time>2017-01-17T23:22:17Z</time>
      </trkpt>
      <trkpt lat="44.0066" lon="7.27094">
        <ele>1543</ele>
        <time>2017-01-17T23:21:57Z</time>
      </trkpt>
      <trkpt lat="44.00591" lon="7.27235">
        <ele>1523.9</ele>
        <time>2017-01-17T23:21:37Z</time>
      </trkpt>
      <trkpt lat="44.00608" lon="7.27582">
        <ele>1489.4</ele>
        <time>2017-01-17T23:21:17Z</time>
      </trkpt>
      <trkpt lat="44.00484" lon="7.27767">
        <ele>1456</ele>
        <time>2017-01-17T23:20:57Z</time>
      </trkpt>
      <trkpt lat="44.00527" lon="7.2778">
        <ele>1456.9</ele>
        <time>2017-01-17T23:20:37Z</time>
      </trkpt>
      <trkpt lat="44.0062" lon="7.2766">
        <ele>1482.2</ele>
        <time>2017-01-17T23:20:17Z</time>
      </trkpt>
      <trkpt lat="44.00707" lon="7.2766">
        <ele>1448.7</ele>
        <time>2017-01-17T23:19:57Z</time>
      </trkpt>
      <trkpt lat="44.00668" lon="7.27364">
        <ele>1451</ele>
        <time>2017-01-17T23:19:37Z</time>
      </trkpt>
      <trkpt lat="44.00728" lon="7.27248">
        <ele>1470.1</ele>
        <time>2017-01-17T23:19:17Z</time>
      </trkpt>
      <trkpt lat="44.00818" lon="7.27252">
        <ele>1413.3</ele>
        <time>2017-01-17T23:18:57Z</time>
      </trkpt>
      <trkpt lat="44.00746" lon="7.27286">
        <ele>1449.9</ele>
        <time>2017-01-17T23:18:37Z</time>
      </trkpt>
      <trkpt lat="44.00702" lon="7.27424">
        <ele>1433.4</ele>
        <time>2017-01-17T23:18:17Z</time>
      </trkpt>
      <trkpt lat="44.00728" lon="7.2751">
        <ele>1421.5</ele>
        <time>2017-01-17T23:17:57Z</time>
      </trkpt>
      <trkpt lat="44.00732" lon="7.27381">
        <ele>1428.8</ele>
        <time>2017-01-17T23:17:37Z</time>
      </trkpt>
      <trkpt lat="44.00758" lon="7.2754">
        <ele>1385.9</ele>
        <time>2017-01-17T23:17:17Z</time>
      </trkpt>
      <trkpt lat="44.00886" lon="7.27672">
        <ele>1347</ele>
        <time>2017-01-17T23:16:57Z</time>
      </trkpt>
      <trkpt lat="44.00802" lon="7.27536">
        <ele>1370.9</ele>
        <time>2017-01-17T23:16:37Z</time>
      </trkpt>
      <trkpt lat="44.00943" lon="7.27651">
        <ele>1300.7</ele>
        <time>2017-01-17T23:16:17Z</time>
      </trkpt>
      <trkpt lat="44.00836" lon="7.27952">
        <ele>1299.2</ele>
        <time>2017-01-17T23:15:57Z</time>
      </trkpt>
      <trkpt lat="44.00861" lon="7.2808">
        <ele>1277.6</ele>
        <time>2017-01-17T23:15:37Z</time>
      </trkpt>
      <trkpt lat="44.00715" lon="7.27974">
        <ele>1310.7</ele>
        <time>2017-01-17T23:15:17Z</time>
      </trkpt>
      <trkpt lat="44.0068" lon="7.28028">
        <ele>1276.2</ele>
        <time>2017-01-17T23:14:57Z</time>
      </trkpt>
      <trkpt lat="44.00732" lon="7.28003">
        <ele>1280.5</ele>
        <time>2017-01-17T23:14:37Z</time>
      </trkpt>
      <trkpt lat="44.00828" lon="7.28149">
        <ele>1249.1</ele>
        <time>2017-01-17T23:14:17Z</time>
      </trkpt>
      <trkpt lat="44.00737" lon="7.28054">
        <ele>1268</ele>
        <time>2017-01-17T23:13:57Z</time>
      </trkpt>
      <trkpt lat="44.00557" lon="7.28174">
        <ele>1238.4</ele>
        <time>2017-01-17T23:13:37Z</time>
      </trkpt>
      <trkpt lat="44.00719" lon="7.28115">
        <ele>1235.2</ele>
        <time>2017-01-17T23:13:17Z</time>
      </trkpt>
      <trkpt lat="44.00986" lon="7.28403">
        <ele>1168.8</ele>
        <time>2017-01-17T23:12:57Z</time>
      </trkpt>
      <trkpt lat="44.01016" lon="7.28087">
        <ele>1150.8</ele>
        <time>2017-01-17T23:12:37Z</time>
      </trkpt>
      <trkpt lat="44.01058" lon="7.28484">
        <ele>1124.2</ele>
        <time>2017-01-17T23:12:17Z</time>
      </trkpt>
      <trkpt lat="44.01002" lon="7.28596">
        <ele>1092.6</ele>
        <time>2017-01-17T23:11:57Z</time>
      </trkpt>
      <trkpt lat="44.00785" lon="7.28384">
        <ele>1115.7</ele>
        <time>2017-01-17T23:11:37Z</time>
      </trkpt>
      <trkpt lat="44.00691" lon="7.28394">
        <ele>1101.8</ele>
        <time>2017-01-17T23:11:17Z</time>
      </trkpt>
      <trkpt lat="44.00637" lon="7.28483">
        <ele>1102.3</ele>
        <time>2017-01-17T23:10:57Z</time>
      </trkpt>
      <trkpt lat="44.00639" lon="7.28621">
        <ele>1088.7</ele>
        <time>2017-01-17T23:10:37Z</time>
      </trkpt>
      <trkpt lat="44.00702" lon="7.28751">
        <ele>1040.6</ele>
        <time>2017-01-17T23:10:17Z</time>
      </trkpt>
      <trkpt lat="44.00703" lon="7.28976">
        <ele>1028.2</ele>
        <time>2017-01-17T23:09:57Z</time>
      </trkpt>
      <trkpt lat="44.00584" lon="7.29127">
        <ele>1018</ele>
        <time>2017-01-17T23:09:37Z</time>
      </trkpt>
      <trkpt lat="44.00573" lon="7.29337">
        <ele>993.2</ele>
        <time>2017-01-17T23:09:17Z</time>
      </trkpt>
      <trkpt lat="44.00456" lon="7.2938">
        <ele>993.8</ele>
        <time>2017-01-17T23:08:57Z</time>
      </trkpt>
      <trkpt lat="44.00676" lon="7.29444">
        <ele>952</ele>
        <time>2017-01-17T23:08:37Z</time>
      </trkpt>
      <trkpt lat="44.00625" lon="7.29488">
        <ele>959.8</ele>
        <time>2017-01-17T23:08:17Z</time>
      </trkpt>
      <trkpt lat="44.00454" lon="7.29487">
        <ele>957.1</ele>
        <time>2017-01-17T23:07:57Z</time>
      </trkpt>
      <trkpt lat="44.00628" lon="7.29574">
        <ele>934.9</ele>
        <time>2017-01-17T23:07:37Z</time>
      </trkpt>
      <trkpt lat="44.00719" lon="7.29548">
        <ele>919.7</ele>
        <time>2017-01-17T23:07:17Z</time>
      </trkpt>
      <trkpt lat="44.00628" lon="7.29627">
        <ele>912.3</ele>
        <time>2017-01-17T23:06:57Z</time>
      </trkpt>
      <trkpt lat="44.00402" lon="7.29575">
        <ele>926.8</ele>
        <time>2017-01-17T23:06:37Z</time>
      </trkpt>
      <trkpt lat="44.00217" lon="7.2988">
        <ele>857.2</ele>
        <time>2017-01-17T23:06:17Z</time>
      </trkpt>
      <trkpt lat="44.00076" lon="7.29964">
        <ele>842.5</ele>
        <time>2017-01-17T23:05:57Z</time>
      </trkpt>
      <trkpt lat="44.00221" lon="7.29926">
        <ele>816.4</ele>
        <time>2017-01-17T23:05:37Z</time>
      </trkpt>
      <trkpt lat="44.00342" lon="7.29759">
        <ele>848.2</ele>
        <time>2017-01-17T23:05:17Z</time>
      </trkpt>
      <trkpt lat="44.00402" lon="7.29746">
        <ele>849</ele>
        <time>2017-01-17T23:04:57Z</time>
      </trkpt>
      <trkpt lat="44.00432" lon="7.29826">
        <ele>811.4</ele>
        <time>2017-01-17T23:04:37Z</time>
      </trkpt>
      <trkpt lat="44.0048" lon="7.29767">
        <ele>823.5</ele>
        <time>2017-01-17T23:04:17Z</time>
      </trkpt>
      <trkpt lat="44.00531" lon="7.2981">
        <ele>823.2</ele>
        <time>2017-01-17T23:03:57Z</time>
      </trkpt>
      <trkpt lat="44.00595" lon="7.30002">
        <ele>778</ele>
        <time>2017-01-17T23:03:37Z</time>
      </trkpt>
      <trkpt lat="44.00696" lon="7.3005">
        <ele>779.7</ele>
        <time>2017-01-17T23:03:17Z</time>
      </trkpt>
      <trkpt lat="44.00929" lon="7.29917">
        <ele>755.1</ele>
        <time>2017-01-17T23:02:57Z</time>
      </trkpt>
      <trkpt lat="44.00831" lon="7.30131">
        <ele>745.3</ele>
        <time>2017-01-17T23:02:37Z</time>
      </trkpt>
      <trkpt lat="44.00608" lon="7.3024">
        <ele>728.8</ele>
        <time>2017-01-17T23:02:17Z</time>
      </trkpt>
      <trkpt lat="44.00557" lon="7.30457">
        <ele>696.8</ele>
        <time>2017-01-17T23:01:57Z</time>
      </trkpt>
      <trkpt lat="44.00634" lon="7.30466">
        <ele>700</ele>
        <time>2017-01-17T23:01:37Z</time>
      </trkpt>
      <trkpt lat="44.00531" lon="7.30531">
        <ele>685</ele>
        <time>2017-01-17T23:01:17Z</time>
      </trkpt>
      <trkpt lat="44.00629" lon="7.30647">
        <ele>674.5</ele>
        <time>2017-01-17T23:00:57Z</time>
      </trkpt>
      <trkpt lat="44.00831" lon="7.3069">
        <ele>658.7</ele>
        <time>2017-01-17T23:00:37Z</time>
      </trkpt>
      <trkpt lat="44.00929" lon="7.30566">
        <ele>653.9</ele>
        <time>2017-01-17T23:00:17Z</time>
      </trkpt>
      <trkpt lat="44.00879" lon="7.30408">
        <ele>675.2</ele>
        <time>2017-01-17T22:59:57Z</time>
      </trkpt>
      <trkpt lat="44.01027" lon="7.30531">
        <ele>635</ele>
        <time>2017-01-17T22:59:37Z</time>
      </trkpt>
      <trkpt lat="44.01156" lon="7.30547">
        <ele>628.6</ele>
        <time>2017-01-17T22:59:17Z</time>
      </trkpt>
      <trkpt lat="44.01209" lon="7.30629">
        <ele>621.6</ele>
        <time>2017-01-17T22:58:57Z</time>
      </trkpt>
      <trkpt lat="44.01119" lon="7.30698">
        <ele>613.6</ele>
        <time>2017-01-17T22:58:37Z</time>
      </trkpt>
      <trkpt lat="44.01121" lon="7.30698">
        <ele>613.7</ele>
        <time>2017-01-17T22:58:17Z</time>
      </trkpt>
      <trkpt lat="44.00908" lon="7.30996">
        <ele>579.2</ele>
      </trkpt>
      <trkpt lat="44.0019" lon="7.30939">
        <ele>539.6</ele>
      </trkpt>
      <trkpt lat="44.00096" lon="7.31086">
        <ele>531.9</ele>
        <time>2017-01-17T22:57:57Z</time>
      </trkpt>
      <trkpt lat="44.00057" lon="7.31133">
        <ele>532.9</ele>
        <time>2017-01-17T22:57:37Z</time>
      </trkpt>
      <trkpt lat="43.99815" lon="7.31696">
        <ele>535.8</ele>
        <time>2017-01-17T22:57:17Z</time>
      </trkpt>
      <trkpt lat="43.99049" lon="7.32083">
        <ele>498.7</ele>
        <time>2017-01-17T22:56:57Z</time>
      </trkpt>
      <trkpt lat="43.99099" lon="7.32526">
        <ele>555.5</ele>
        <time>2017-01-17T22:56:37Z</time>
      </trkpt>
      <trkpt lat="43.98908" lon="7.32261">
        <ele>580.2</ele>
        <time>2017-01-17T22:56:17Z</time>
      </trkpt>
      <trkpt lat="43.98711" lon="7.32412">
        <ele>596.8</ele>
        <time>2017-01-17T22:55:57Z</time>
      </trkpt>
      <trkpt lat="43.98849" lon="7.32356">
        <ele>602.6</ele>
        <time>2017-01-17T22:55:37Z</time>
      </trkpt>
      <trkpt lat="43.98988" lon="7.32581">
        <ele>617.2</ele>
        <time>2017-01-17T22:55:17Z</time>
      </trkpt>
      <trkpt lat="43.9892" lon="7.32746">
        <ele>627.1</ele>
        <time>2017-01-17T22:54:57Z</time>
      </trkpt>
      <trkpt lat="43.99159" lon="7.33383">
        <ele>718.1</ele>
        <time>2017-01-17T22:54:37Z</time>
      </trkpt>
      <trkpt lat="43.99005" lon="7.335">
        <ele>738.4</ele>
        <time>2017-01-17T22:54:17Z</time>
      </trkpt>
      <trkpt lat="43.98557" lon="7.33481">
        <ele>726.1</ele>
        <time>2017-01-17T22:53:57Z</time>
      </trkpt>
      <trkpt lat="43.98562" lon="7.34008">
        <ele>855</ele>
        <time>2017-01-17T22:53:37Z</time>
      </trkpt>
      <trkpt lat="43.98282" lon="7.34253">
        <ele>829.8</ele>
        <time>2017-01-17T22:53:17Z</time>
      </trkpt>
      <trkpt lat="43.98457" lon="7.34567">
        <ele>880.6</ele>
        <time>2017-01-17T22:52:57Z</time>
      </trkpt>
      <trkpt lat="43.9843" lon="7.35687">
        <ele>965.5</ele>
        <time>2017-01-17T22:52:37Z</time>
      </trkpt>
      <trkpt lat="43.98564" lon="7.35401">
        <ele>975.8</ele>
        <time>2017-01-17T22:52:17Z</time>
      </trkpt>
      <trkpt lat="43.98591" lon="7.35743">
        <ele>1033.9</ele>
        <time>2017-01-17T22:51:57Z</time>
      </trkpt>
      <trkpt lat="43.9861" lon="7.35567">
        <ele>1037.6</ele>
        <time>2017-01-17T22:51:37Z</time>
      </trkpt>
      <trkpt lat="43.9877" lon="7.36017">
        <ele>1090.4</ele>
        <time>2017-01-17T22:51:17Z</time>
      </trkpt>
      <trkpt lat="43.98441" lon="7.35959">
        <ele>1090.3</ele>
        <time>2017-01-17T22:50:57Z</time>
      </trkpt>
      <trkpt lat="43.98557" lon="7.36586">
        <ele>1217.5</ele>
        <time>2017-01-17T22:50:37Z</time>
      </trkpt>
      <trkpt lat="43.98488" lon="7.36662">
        <ele>1220.2</ele>
        <time>2017-01-17T22:50:17Z</time>
      </trkpt>
      <trkpt lat="43.98196" lon="7.36484">
        <ele>1234.8</ele>
        <time>2017-01-17T22:49:57Z</time>
      </trkpt>
      <trkpt lat="43.98046" lon="7.36823">
        <ele>1300.5</ele>
        <time>2017-01-17T22:49:37Z</time>
      </trkpt>
      <trkpt lat="43.97828" lon="7.36777">
        <ele>1310.4</ele>
        <time>2017-01-17T22:49:17Z</time>
      </trkpt>
      <trkpt lat="43.97696" lon="7.36892">
        <ele>1328.7</ele>
        <time>2017-01-17T22:48:57Z</time>
      </trkpt>
      <trkpt lat="43.97587" lon="7.37234">
        <ele>1366.7</ele>
        <time>2017-01-17T22:48:37Z</time>
      </trkpt>
      <trkpt lat="43.9767" lon="7.37333">
        <ele>1385.2</ele>
        <time>2017-01-17T22:48:17Z</time>
      </trkpt>
      <trkpt lat="43.97801" lon="7.37093">
        <ele>1409.3</ele>
        <time>2017-01-17T22:47:57Z</time>
      </trkpt>
      <trkpt lat="43.97792" lon="7.37801">
        <ele>1450.8</ele>
        <time>2017-01-17T22:47:37Z</time>
      </trkpt>
      <trkpt lat="43.98073" lon="7.37939">
        <ele>1503.7</ele>
        <time>2017-01-17T22:47:17Z</time>
      </trkpt>
      <trkpt lat="43.98041" lon="7.38682">
        <ele>1573.3</ele>
        <time>2017-01-17T22:46:57Z</time>
      </trkpt>
      <trkpt lat="43.97851" lon="7.3878">
        <ele>1574.3</ele>
        <time>2017-01-17T22:46:37Z</time>
      </trkpt>
      <trkpt lat="43.97884" lon="7.3902">
        <ele>1613.6</ele>
        <time>2017-01-17T22:46:17Z</time>
      </trkpt>
      <trkpt lat="43.97766" lon="7.39142">
        <ele>1606.8</ele>
        <time>2017-01-17T22:45:57Z</time>
      </trkpt>
      <trkpt lat="43.97919" lon="7.39139">
        <ele>1644.2</ele>
        <time>2017-01-17T22:45:37Z</time>
      </trkpt>
      <trkpt lat="43.97986" lon="7.38979">
        <ele>1635</ele>
        <time>2017-01-17T22:45:17Z</time>
      </trkpt>
      <trkpt lat="43.98276" lon="7.39728">
        <ele>1714.5</ele>
        <time>2017-01-17T22:44:57Z</time>
      </trkpt>
      <trkpt lat="43.98386" lon="7.3985">
        <ele>1711.1</ele>
        <time>2017-01-17T22:44:37Z</time>
      </trkpt>
      <trkpt lat="43.98649" lon="7.39849">
        <ele>1737.9</ele>
        <time>2017-01-17T22:44:17Z</time>
      </trkpt>
      <trkpt lat="43.98874" lon="7.40113">
        <ele>1743.8</ele>
        <time>2017-01-17T22:43:57Z</time>
      </trkpt>
      <trkpt lat="43.98845" lon="7.40614">
        <ele>1797.1</ele>
        <time>2017-01-17T22:43:37Z</time>
      </trkpt>
      <trkpt lat="43.98848" lon="7.40529">
        <ele>1800</ele>
        <time>2017-01-17T22:43:17Z</time>
      </trkpt>
      <trkpt lat="43.99515" lon="7.41214">
        <ele>1869.8</ele>
        <time>2017-01-17T22:42:57Z</time>
      </trkpt>
      <trkpt lat="43.99541" lon="7.41431">
        <ele>1894.42</ele>
      </trkpt>
      <trkpt lat="43.99547" lon="7.41676">
        <ele>1896.71</ele>
      </trkpt>
      <trkpt lat="43.99478" lon="7.4194">
        <ele>1897.85</ele>
      </trkpt>
      <trkpt lat="43.99353" lon="7.42067">
        <ele>1885.99</ele>
      </trkpt>
      <trkpt lat="43.99378" lon="7.42495">
        <ele>1865.27</ele>
      </trkpt>
      <trkpt lat="43.9934" lon="7.42658">
        <ele>1889.4</ele>
      </trkpt>
      <trkpt lat="43.99038" lon="7.42695">
        <ele>1847.82</ele>
      </trkpt>
      <trkpt lat="43.9907" lon="7.42886">
        <ele>1845.54</ele>
      </trkpt>
      <trkpt lat="43.98944" lon="7.43022">
        <ele>1851.34</ele>
      </trkpt>
      <trkpt lat="43.98749" lon="7.4305">
        <ele>1818.28</ele>
      </trkpt>
      <trkpt lat="43.98755" lon="7.43277">
        <ele>1827.99</ele>
      </trkpt>
      <trkpt lat="43.98372" lon="7.43786">
        <ele>1790.65</ele>
      </trkpt>
      <trkpt lat="43.98579" lon="7.44005">
        <ele>1778.95</ele>
      </trkpt>
      <trkpt lat="43.98881" lon="7.44323">
        <ele>1795.39</ele>
      </trkpt>
      <trkpt lat="43.98743" lon="7.4435">
        <ele>1793.54</ele>
      </trkpt>
      <trkpt lat="43.98712" lon="7.4437">
        <ele>1781.9</ele>
        <time>2017-01-17T22:40:17Z</time>
      </trkpt>
      <trkpt lat="43.99001" lon="7.44961">
        <ele>1744.8</ele>
        <time>2017-01-17T22:39:57Z</time>
      </trkpt>
      <trkpt lat="43.99258" lon="7.44746">
        <ele>1738.1</ele>
        <time>2017-01-17T22:39:37Z</time>
      </trkpt>
      <trkpt lat="43.99647" lon="7.4471">
        <ele>1727.4</ele>
        <time>2017-01-17T22:39:17Z</time>
      </trkpt>
      <trkpt lat="43.99799" lon="7.45171">
        <ele>1698.2</ele>
        <time>2017-01-17T22:38:57Z</time>
      </trkpt>
      <trkpt lat="43.99691" lon="7.45753">
        <ele>1677.7</ele>
        <time>2017-01-17T22:38:37Z</time>
      </trkpt>
      <trkpt lat="43.99083" lon="7.46857">
        <ele>1595.1</ele>
        <time>2017-01-17T22:38:17Z</time>
      </trkpt>
      <trkpt lat="43.99094" lon="7.47091">
        <ele>1607.3</ele>
        <time>2017-01-17T22:37:57Z</time>
      </trkpt>
      <trkpt lat="43.98513" lon="7.47728">
        <ele>1535.1</ele>
        <time>2017-01-17T22:37:37Z</time>
      </trkpt>
      <trkpt lat="43.98467" lon="7.48239">
        <ele>1506.6</ele>
        <time>2017-01-17T22:37:17Z</time>
      </trkpt>
      <trkpt lat="43.98294" lon="7.48416">
        <ele>1461.4</ele>
        <time>2017-01-17T22:36:57Z</time>
      </trkpt>
      <trkpt lat="43.9842" lon="7.49498">
        <ele>1394.5</ele>
        <time>2017-01-17T22:36:37Z</time>
      </trkpt>
      <trkpt lat="43.9828" lon="7.49913">
        <ele>1348.4</ele>
        <time>2017-01-17T22:36:17Z</time>
      </trkpt>
      <trkpt lat="43.98341" lon="7.50168">
        <ele>1339.8</ele>
        <time>2017-01-17T22:35:57Z</time>
      </trkpt>
      <trkpt lat="43.98356" lon="7.5014">
        <ele>1361.33</ele>
        <time>2018-08-05T13:58:22Z</time>
      </trkpt>
      <trkpt lat="43.98358" lon="7.50134">
        <ele>1361.39</ele>
        <time>2018-08-05T13:58:23Z</time>
      </trkpt>
      <trkpt lat="43.98361" lon="7.50125">
        <ele>1361.3</ele>
        <time>2018-08-05T13:58:24Z</time>
      </trkpt>
      <trkpt lat="43.98364" lon="7.50116">
        <ele>1361.66</ele>
        <time>2018-08-05T13:58:25Z</time>
      </trkpt>
      <trkpt lat="43.98397" lon="7.50047">
        <ele>1360.38</ele>
        <time>2018-08-05T13:58:31Z</time>
      </trkpt>
      <trkpt lat="43.984" lon="7.50036">
        <ele>1359.32</ele>
        <time>2018-08-05T13:58:32Z</time>
      </trkpt>
      <trkpt lat="43.98402" lon="7.50024">
        <ele>1357.75</ele>
        <time>2018-08-05T13:58:33Z</time>
      </trkpt>
      <trkpt lat="43.98402" lon="7.50011">
        <ele>1356.36</ele>
        <time>2018-08-05T13:58:34Z</time>
      </trkpt>
      <trkpt lat="43.98402" lon="7.49997">
        <ele>1354.56</ele>
        <time>2018-08-05T13:58:35Z</time>
      </trkpt>
      <trkpt lat="43.98402" lon="7.49982">
        <ele>1353.58</ele>
        <time>2018-08-05T13:58:36Z</time>
      </trkpt>
      <trkpt lat="43.98403" lon="7.49965">
        <ele>1353.56</ele>
        <time>2018-08-05T13:58:37Z</time>
      </trkpt>
      <trkpt lat="43.98408" lon="7.49913">
        <ele>1354.75</ele>
        <time>2018-08-05T13:58:40Z</time>
      </trkpt>
      <trkpt lat="43.98412" lon="7.49897">
        <ele>1353.52</ele>
        <time>2018-08-05T13:58:41Z</time>
      </trkpt>
      <trkpt lat="43.98423" lon="7.49865">
        <ele>1351.37</ele>
        <time>2018-08-05T13:58:43Z</time>
      </trkpt>
      <trkpt lat="43.98431" lon="7.49849">
        <ele>1351.35</ele>
        <time>2018-08-05T13:58:44Z</time>
      </trkpt>
      <trkpt lat="43.98474" lon="7.49762">
        <ele>1347.9</ele>
        <time>2018-08-05T13:58:49Z</time>
      </trkpt>
      <trkpt lat="43.98493" lon="7.4973">
        <ele>1346.58</ele>
        <time>2018-08-05T13:58:51Z</time>
      </trkpt>
      <trkpt lat="43.9852" lon="7.49693">
        <ele>1346.4</ele>
        <time>2018-08-05T13:58:54Z</time>
      </trkpt>
      <trkpt lat="43.98525" lon="7.49682">
        <ele>1346.9</ele>
        <time>2018-08-05T13:58:55Z</time>
      </trkpt>
      <trkpt lat="43.9853" lon="7.49672">
        <ele>1346.88</ele>
        <time>2018-08-05T13:58:56Z</time>
      </trkpt>
      <trkpt lat="43.98534" lon="7.49661">
        <ele>1346.51</ele>
        <time>2018-08-05T13:58:57Z</time>
      </trkpt>
      <trkpt lat="43.98537" lon="7.49648">
        <ele>1346.16</ele>
        <time>2018-08-05T13:58:58Z</time>
      </trkpt>
      <trkpt lat="43.98538" lon="7.49634">
        <ele>1345.85</ele>
        <time>2018-08-05T13:58:59Z</time>
      </trkpt>
      <trkpt lat="43.98543" lon="7.49604">
        <ele>1344.82</ele>
        <time>2018-08-05T13:59:01Z</time>
      </trkpt>
      <trkpt lat="43.98546" lon="7.49588">
        <ele>1344.93</ele>
        <time>2018-08-05T13:59:02Z</time>
      </trkpt>
      <trkpt lat="43.98551" lon="7.49574">
        <ele>1344.25</ele>
        <time>2018-08-05T13:59:03Z</time>
      </trkpt>
      <trkpt lat="43.98558" lon="7.49561">
        <ele>1342.93</ele>
        <time>2018-08-05T13:59:04Z</time>
      </trkpt>
      <trkpt lat="43.98565" lon="7.49549">
        <ele>1342.87</ele>
        <time>2018-08-05T13:59:05Z</time>
      </trkpt>
      <trkpt lat="43.98579" lon="7.49529">
        <ele>1342.98</ele>
        <time>2018-08-05T13:59:07Z</time>
      </trkpt>
      <trkpt lat="43.98583" lon="7.49521">
        <ele>1342.82</ele>
        <time>2018-08-05T13:59:08Z</time>
      </trkpt>
      <trkpt lat="43.98585" lon="7.49512">
        <ele>1342.81</ele>
        <time>2018-08-05T13:59:09Z</time>
      </trkpt>
      <trkpt lat="43.98584" lon="7.49504">
        <ele>1342.93</ele>
        <time>2018-08-05T13:59:10Z</time>
      </trkpt>
      <trkpt lat="43.98582" lon="7.49495">
        <ele>1342.41</ele>
        <time>2018-08-05T13:59:11Z</time>
      </trkpt>
      <trkpt lat="43.9858" lon="7.49485">
        <ele>1341.32</ele>
        <time>2018-08-05T13:59:12Z</time>
      </trkpt>
      <trkpt lat="43.98557" lon="7.49407">
        <ele>1340.5</ele>
        <time>2018-08-05T13:59:18Z</time>
      </trkpt>
      <trkpt lat="43.98555" lon="7.49394">
        <ele>1340.07</ele>
        <time>2018-08-05T13:59:19Z</time>
      </trkpt>
      <trkpt lat="43.98556" lon="7.49381">
        <ele>1339.7</ele>
        <time>2018-08-05T13:59:20Z</time>
      </trkpt>
      <trkpt lat="43.98558" lon="7.49368">
        <ele>1339.08</ele>
        <time>2018-08-05T13:59:21Z</time>
      </trkpt>
      <trkpt lat="43.9856" lon="7.49357">
        <ele>1339.57</ele>
        <time>2018-08-05T13:59:22Z</time>
      </trkpt>
      <trkpt lat="43.98559" lon="7.49347">
        <ele>1339.26</ele>
        <time>2018-08-05T13:59:23Z</time>
      </trkpt>
      <trkpt lat="43.98557" lon="7.49337">
        <ele>1338.87</ele>
        <time>2018-08-05T13:59:24Z</time>
      </trkpt>
      <trkpt lat="43.98554" lon="7.49326">
        <ele>1338.24</ele>
        <time>2018-08-05T13:59:25Z</time>
      </trkpt>
      <trkpt lat="43.98552" lon="7.49314">
        <ele>1337.75</ele>
        <time>2018-08-05T13:59:26Z</time>
      </trkpt>
      <trkpt lat="43.98552" lon="7.493">
        <ele>1336.74</ele>
        <time>2018-08-05T13:59:27Z</time>
      </trkpt>
      <trkpt lat="43.98554" lon="7.49284">
        <ele>1336.52</ele>
        <time>2018-08-05T13:59:28Z</time>
      </trkpt>
      <trkpt lat="43.98557" lon="7.49268">
        <ele>1336.69</ele>
        <time>2018-08-05T13:59:29Z</time>
      </trkpt>
      <trkpt lat="43.98562" lon="7.49252">
        <ele>1337.11</ele>
        <time>2018-08-05T13:59:30Z</time>
      </trkpt>
      <trkpt lat="43.98567" lon="7.49237">
        <ele>1337.13</ele>
        <time>2018-08-05T13:59:31Z</time>
      </trkpt>
      <trkpt lat="43.98574" lon="7.49223">
        <ele>1336.45</ele>
        <time>2018-08-05T13:59:32Z</time>
      </trkpt>
      <trkpt lat="43.98594" lon="7.49187">
        <ele>1335.94</ele>
        <time>2018-08-05T13:59:35Z</time>
      </trkpt>
      <trkpt lat="43.986" lon="7.49173">
        <ele>1335.32</ele>
        <time>2018-08-05T13:59:36Z</time>
      </trkpt>
      <trkpt lat="43.98625" lon="7.49106">
        <ele>1334.57</ele>
        <time>2018-08-05T13:59:41Z</time>
      </trkpt>
      <trkpt lat="43.98632" lon="7.49097">
        <ele>1334.13</ele>
        <time>2018-08-05T13:59:42Z</time>
      </trkpt>
      <trkpt lat="43.9864" lon="7.49088">
        <ele>1333.88</ele>
        <time>2018-08-05T13:59:43Z</time>
      </trkpt>
      <trkpt lat="43.98655" lon="7.49071">
        <ele>1332.9</ele>
        <time>2018-08-05T13:59:45Z</time>
      </trkpt>
      <trkpt lat="43.98664" lon="7.49064">
        <ele>1333.1</ele>
        <time>2018-08-05T13:59:46Z</time>
      </trkpt>
      <trkpt lat="43.98678" lon="7.49054">
        <ele>1333.32</ele>
        <time>2018-08-05T13:59:48Z</time>
      </trkpt>
      <trkpt lat="43.98683" lon="7.49048">
        <ele>1333.04</ele>
        <time>2018-08-05T13:59:49Z</time>
      </trkpt>
      <trkpt lat="43.98686" lon="7.4904">
        <ele>1332.93</ele>
        <time>2018-08-05T13:59:50Z</time>
      </trkpt>
      <trkpt lat="43.98689" lon="7.4903">
        <ele>1332.68</ele>
        <time>2018-08-05T13:59:51Z</time>
      </trkpt>
      <trkpt lat="43.98691" lon="7.49019">
        <ele>1331.86</ele>
        <time>2018-08-05T13:59:52Z</time>
      </trkpt>
      <trkpt lat="43.98698" lon="7.48995">
        <ele>1331.31</ele>
        <time>2018-08-05T13:59:54Z</time>
      </trkpt>
      <trkpt lat="43.98703" lon="7.48985">
        <ele>1331.95</ele>
        <time>2018-08-05T13:59:55Z</time>
      </trkpt>
      <trkpt lat="43.98709" lon="7.48978">
        <ele>1331.98</ele>
        <time>2018-08-05T13:59:56Z</time>
      </trkpt>
      <trkpt lat="43.98718" lon="7.48974">
        <ele>1331.41</ele>
        <time>2018-08-05T13:59:57Z</time>
      </trkpt>
      <trkpt lat="43.98727" lon="7.48969">
        <ele>1330.9</ele>
        <time>2018-08-05T13:59:58Z</time>
      </trkpt>
      <trkpt lat="43.98797" lon="7.4891">
        <ele>1330.48</ele>
        <time>2018-08-05T14:00:05Z</time>
      </trkpt>
      <trkpt lat="43.98803" lon="7.48897">
        <ele>1329.71</ele>
        <time>2018-08-05T14:00:06Z</time>
      </trkpt>
      <trkpt lat="43.98809" lon="7.48883">
        <ele>1328.32</ele>
        <time>2018-08-05T14:00:07Z</time>
      </trkpt>
      <trkpt lat="43.98834" lon="7.48819">
        <ele>1328.34</ele>
        <time>2018-08-05T14:00:11Z</time>
      </trkpt>
      <trkpt lat="43.98841" lon="7.48806">
        <ele>1327.07</ele>
        <time>2018-08-05T14:00:12Z</time>
      </trkpt>
      <trkpt lat="43.98863" lon="7.48771">
        <ele>1324.54</ele>
        <time>2018-08-05T14:00:15Z</time>
      </trkpt>
      <trkpt lat="43.98871" lon="7.48762">
        <ele>1323.86</ele>
        <time>2018-08-05T14:00:16Z</time>
      </trkpt>
      <trkpt lat="43.9888" lon="7.48756">
        <ele>1323.94</ele>
        <time>2018-08-05T14:00:17Z</time>
      </trkpt>
      <trkpt lat="43.9889" lon="7.48752">
        <ele>1322.95</ele>
        <time>2018-08-05T14:00:18Z</time>
      </trkpt>
      <trkpt lat="43.98899" lon="7.48749">
        <ele>1322.88</ele>
        <time>2018-08-05T14:00:19Z</time>
      </trkpt>
      <trkpt lat="43.98908" lon="7.48748">
        <ele>1322.8</ele>
        <time>2018-08-05T14:00:20Z</time>
      </trkpt>
      <trkpt lat="43.98918" lon="7.48752">
        <ele>1321.31</ele>
        <time>2018-08-05T14:00:21Z</time>
      </trkpt>
      <trkpt lat="43.98927" lon="7.48759">
        <ele>1321.15</ele>
        <time>2018-08-05T14:00:22Z</time>
      </trkpt>
      <trkpt lat="43.98937" lon="7.48768">
        <ele>1321.27</ele>
        <time>2018-08-05T14:00:23Z</time>
      </trkpt>
      <trkpt lat="43.98976" lon="7.4881">
        <ele>1320.95</ele>
        <time>2018-08-05T14:00:27Z</time>
      </trkpt>
      <trkpt lat="43.98983" lon="7.48824">
        <ele>1320.64</ele>
        <time>2018-08-05T14:00:28Z</time>
      </trkpt>
      <trkpt lat="43.99013" lon="7.48878">
        <ele>1318.12</ele>
        <time>2018-08-05T14:00:32Z</time>
      </trkpt>
      <trkpt lat="43.99034" lon="7.48908">
        <ele>1318.03</ele>
        <time>2018-08-05T14:00:35Z</time>
      </trkpt>
      <trkpt lat="43.9904" lon="7.48912">
        <ele>1317.82</ele>
        <time>2018-08-05T14:00:36Z</time>
      </trkpt>
      <trkpt lat="43.99048" lon="7.48912">
        <ele>1316.8</ele>
        <time>2018-08-05T14:00:37Z</time>
      </trkpt>
      <trkpt lat="43.99056" lon="7.4891">
        <ele>1316.15</ele>
        <time>2018-08-05T14:00:38Z</time>
      </trkpt>
      <trkpt lat="43.99066" lon="7.48905">
        <ele>1316.1</ele>
        <time>2018-08-05T14:00:39Z</time>
      </trkpt>
      <trkpt lat="43.99076" lon="7.48901">
        <ele>1315.89</ele>
        <time>2018-08-05T14:00:40Z</time>
      </trkpt>
      <trkpt lat="43.99085" lon="7.48895">
        <ele>1316.25</ele>
        <time>2018-08-05T14:00:41Z</time>
      </trkpt>
      <trkpt lat="43.99094" lon="7.48887">
        <ele>1315.89</ele>
        <time>2018-08-05T14:00:42Z</time>
      </trkpt>
      <trkpt lat="43.99102" lon="7.48878">
        <ele>1316.3</ele>
        <time>2018-08-05T14:00:43Z</time>
      </trkpt>
      <trkpt lat="43.99109" lon="7.48868">
        <ele>1315.93</ele>
        <time>2018-08-05T14:00:44Z</time>
      </trkpt>
      <trkpt lat="43.99115" lon="7.4886">
        <ele>1315.1</ele>
        <time>2018-08-05T14:00:45Z</time>
      </trkpt>
      <trkpt lat="43.99123" lon="7.48853">
        <ele>1313.64</ele>
        <time>2018-08-05T14:00:46Z</time>
      </trkpt>
      <trkpt lat="43.99132" lon="7.48848">
        <ele>1313.24</ele>
        <time>2018-08-05T14:00:47Z</time>
      </trkpt>
      <trkpt lat="43.99141" lon="7.48845">
        <ele>1313.22</ele>
        <time>2018-08-05T14:00:48Z</time>
      </trkpt>
      <trkpt lat="43.9915" lon="7.48844">
        <ele>1312.85</ele>
        <time>2018-08-05T14:00:49Z</time>
      </trkpt>
      <trkpt lat="43.99157" lon="7.48842">
        <ele>1312.41</ele>
        <time>2018-08-05T14:00:50Z</time>
      </trkpt>
      <trkpt lat="43.99163" lon="7.48838">
        <ele>1312.61</ele>
        <time>2018-08-05T14:00:51Z</time>
      </trkpt>
      <trkpt lat="43.99168" lon="7.4883">
        <ele>1312.43</ele>
        <time>2018-08-05T14:00:52Z</time>
      </trkpt>
      <trkpt lat="43.99171" lon="7.4882">
        <ele>1312.41</ele>
        <time>2018-08-05T14:00:53Z</time>
      </trkpt>
      <trkpt lat="43.99173" lon="7.48808">
        <ele>1311.51</ele>
        <time>2018-08-05T14:00:54Z</time>
      </trkpt>
      <trkpt lat="43.99175" lon="7.48796">
        <ele>1311.19</ele>
        <time>2018-08-05T14:00:55Z</time>
      </trkpt>
      <trkpt lat="43.99178" lon="7.48783">
        <ele>1311.24</ele>
        <time>2018-08-05T14:00:56Z</time>
      </trkpt>
      <trkpt lat="43.99183" lon="7.48771">
        <ele>1311.4</ele>
        <time>2018-08-05T14:00:57Z</time>
      </trkpt>
      <trkpt lat="43.99189" lon="7.48761">
        <ele>1310.74</ele>
        <time>2018-08-05T14:00:58Z</time>
      </trkpt>
      <trkpt lat="43.99197" lon="7.48752">
        <ele>1310.79</ele>
        <time>2018-08-05T14:00:59Z</time>
      </trkpt>
      <trkpt lat="43.99205" lon="7.48746">
        <ele>1309.93</ele>
        <time>2018-08-05T14:01:00Z</time>
      </trkpt>
      <trkpt lat="43.99211" lon="7.48743">
        <ele>1309.57</ele>
        <time>2018-08-05T14:01:01Z</time>
      </trkpt>
      <trkpt lat="43.99218" lon="7.48741">
        <ele>1309.37</ele>
        <time>2018-08-05T14:01:02Z</time>
      </trkpt>
      <trkpt lat="43.99224" lon="7.48739">
        <ele>1308.99</ele>
        <time>2018-08-05T14:01:03Z</time>
      </trkpt>
      <trkpt lat="43.99265" lon="7.4873">
        <ele>1308.33</ele>
        <time>2018-08-05T14:01:08Z</time>
      </trkpt>
      <trkpt lat="43.99274" lon="7.48725">
        <ele>1307.97</ele>
        <time>2018-08-05T14:01:09Z</time>
      </trkpt>
      <trkpt lat="43.99282" lon="7.48718">
        <ele>1307.23</ele>
        <time>2018-08-05T14:01:10Z</time>
      </trkpt>
      <trkpt lat="43.9929" lon="7.48709">
        <ele>1306.95</ele>
        <time>2018-08-05T14:01:11Z</time>
      </trkpt>
      <trkpt lat="43.99298" lon="7.487">
        <ele>1306.34</ele>
        <time>2018-08-05T14:01:12Z</time>
      </trkpt>
      <trkpt lat="43.99307" lon="7.48693">
        <ele>1305.78</ele>
        <time>2018-08-05T14:01:13Z</time>
      </trkpt>
      <trkpt lat="43.99316" lon="7.48688">
        <ele>1304.96</ele>
        <time>2018-08-05T14:01:14Z</time>
      </trkpt>
      <trkpt lat="43.99327" lon="7.48687">
        <ele>1304.76</ele>
        <time>2018-08-05T14:01:15Z</time>
      </trkpt>
      <trkpt lat="43.99338" lon="7.48688">
        <ele>1304.39</ele>
        <time>2018-08-05T14:01:16Z</time>
      </trkpt>
      <trkpt lat="43.99349" lon="7.48691">
        <ele>1304.4</ele>
        <time>2018-08-05T14:01:17Z</time>
      </trkpt>
      <trkpt lat="43.99361" lon="7.48694">
        <ele>1304.65</ele>
        <time>2018-08-05T14:01:18Z</time>
      </trkpt>
      <trkpt lat="43.99373" lon="7.48698">
        <ele>1304.06</ele>
        <time>2018-08-05T14:01:19Z</time>
      </trkpt>
      <trkpt lat="43.99395" lon="7.48708">
        <ele>1303.48</ele>
        <time>2018-08-05T14:01:21Z</time>
      </trkpt>
      <trkpt lat="43.99404" lon="7.48715">
        <ele>1302.83</ele>
        <time>2018-08-05T14:01:22Z</time>
      </trkpt>
      <trkpt lat="43.99417" lon="7.48727">
        <ele>1301.51</ele>
        <time>2018-08-05T14:01:24Z</time>
      </trkpt>
      <trkpt lat="43.99423" lon="7.4873">
        <ele>1301.87</ele>
        <time>2018-08-05T14:01:25Z</time>
      </trkpt>
      <trkpt lat="43.99428" lon="7.4873">
        <ele>1301.57</ele>
        <time>2018-08-05T14:01:26Z</time>
      </trkpt>
      <trkpt lat="43.99431" lon="7.48727">
        <ele>1301.23</ele>
        <time>2018-08-05T14:01:27Z</time>
      </trkpt>
      <trkpt lat="43.99433" lon="7.4872">
        <ele>1300.57</ele>
        <time>2018-08-05T14:01:28Z</time>
      </trkpt>
      <trkpt lat="43.99432" lon="7.48712">
        <ele>1299.86</ele>
        <time>2018-08-05T14:01:29Z</time>
      </trkpt>
      <trkpt lat="43.99431" lon="7.48702">
        <ele>1298.93</ele>
        <time>2018-08-05T14:01:30Z</time>
      </trkpt>
      <trkpt lat="43.9943" lon="7.48692">
        <ele>1298.05</ele>
        <time>2018-08-05T14:01:31Z</time>
      </trkpt>
      <trkpt lat="43.99428" lon="7.48666">
        <ele>1297.2</ele>
        <time>2018-08-05T14:01:33Z</time>
      </trkpt>
      <trkpt lat="43.99423" lon="7.48623">
        <ele>1298.12</ele>
        <time>2018-08-05T14:01:36Z</time>
      </trkpt>
      <trkpt lat="43.99416" lon="7.48593">
        <ele>1295.62</ele>
        <time>2018-08-05T14:01:38Z</time>
      </trkpt>
      <trkpt lat="43.99402" lon="7.48522">
        <ele>1291.87</ele>
        <time>2018-08-05T14:01:43Z</time>
      </trkpt>
      <trkpt lat="43.99396" lon="7.4851">
        <ele>1292.21</ele>
        <time>2018-08-05T14:01:44Z</time>
      </trkpt>
      <trkpt lat="43.99379" lon="7.48471">
        <ele>1291.33</ele>
        <time>2018-08-05T14:01:47Z</time>
      </trkpt>
      <trkpt lat="43.99375" lon="7.48457">
        <ele>1291.59</ele>
        <time>2018-08-05T14:01:48Z</time>
      </trkpt>
      <trkpt lat="43.99374" lon="7.48443">
        <ele>1291.06</ele>
        <time>2018-08-05T14:01:49Z</time>
      </trkpt>
      <trkpt lat="43.9937" lon="7.48406">
        <ele>1289.95</ele>
        <time>2018-08-05T14:01:52Z</time>
      </trkpt>
      <trkpt lat="43.99366" lon="7.48396">
        <ele>1289.44</ele>
        <time>2018-08-05T14:01:53Z</time>
      </trkpt>
      <trkpt lat="43.99361" lon="7.48386">
        <ele>1288.45</ele>
        <time>2018-08-05T14:01:54Z</time>
      </trkpt>
      <trkpt lat="43.99356" lon="7.48377">
        <ele>1288.29</ele>
        <time>2018-08-05T14:01:55Z</time>
      </trkpt>
      <trkpt lat="43.99353" lon="7.48366">
        <ele>1287.6</ele>
        <time>2018-08-05T14:01:56Z</time>
      </trkpt>
      <trkpt lat="43.99352" lon="7.48354">
        <ele>1286.62</ele>
        <time>2018-08-05T14:01:57Z</time>
      </trkpt>
      <trkpt lat="43.99353" lon="7.48342">
        <ele>1285.91</ele>
        <time>2018-08-05T14:01:58Z</time>
      </trkpt>
      <trkpt lat="43.99357" lon="7.4833">
        <ele>1285.1</ele>
        <time>2018-08-05T14:01:59Z</time>
      </trkpt>
      <trkpt lat="43.99361" lon="7.48319">
        <ele>1285.29</ele>
        <time>2018-08-05T14:02:00Z</time>
      </trkpt>
      <trkpt lat="43.99363" lon="7.48308">
        <ele>1285.42</ele>
        <time>2018-08-05T14:02:01Z</time>
      </trkpt>
      <trkpt lat="43.99362" lon="7.48296">
        <ele>1285.35</ele>
        <time>2018-08-05T14:02:02Z</time>
      </trkpt>
      <trkpt lat="43.99359" lon="7.48283">
        <ele>1284.91</ele>
        <time>2018-08-05T14:02:03Z</time>
      </trkpt>
      <trkpt lat="43.99355" lon="7.48272">
        <ele>1284.97</ele>
        <time>2018-08-05T14:02:04Z</time>
      </trkpt>
      <trkpt lat="43.99349" lon="7.4825">
        <ele>1284.27</ele>
        <time>2018-08-05T14:02:06Z</time>
      </trkpt>
      <trkpt lat="43.99349" lon="7.48239">
        <ele>1283.58</ele>
        <time>2018-08-05T14:02:07Z</time>
      </trkpt>
      <trkpt lat="43.99352" lon="7.48228">
        <ele>1282.65</ele>
        <time>2018-08-05T14:02:08Z</time>
      </trkpt>
      <trkpt lat="43.99357" lon="7.48218">
        <ele>1281.84</ele>
        <time>2018-08-05T14:02:09Z</time>
      </trkpt>
      <trkpt lat="43.99363" lon="7.48208">
        <ele>1281.36</ele>
        <time>2018-08-05T14:02:10Z</time>
      </trkpt>
      <trkpt lat="43.99369" lon="7.48197">
        <ele>1281.39</ele>
        <time>2018-08-05T14:02:11Z</time>
      </trkpt>
      <trkpt lat="43.99373" lon="7.48186">
        <ele>1281.41</ele>
        <time>2018-08-05T14:02:12Z</time>
      </trkpt>
      <trkpt lat="43.99375" lon="7.48174">
        <ele>1281.44</ele>
        <time>2018-08-05T14:02:13Z</time>
      </trkpt>
      <trkpt lat="43.99376" lon="7.48162">
        <ele>1281.08</ele>
        <time>2018-08-05T14:02:14Z</time>
      </trkpt>
      <trkpt lat="43.99372" lon="7.4815">
        <ele>1280.92</ele>
        <time>2018-08-05T14:02:15Z</time>
      </trkpt>
      <trkpt lat="43.99367" lon="7.48138">
        <ele>1279.87</ele>
        <time>2018-08-05T14:02:16Z</time>
      </trkpt>
      <trkpt lat="43.99362" lon="7.48128">
        <ele>1279.45</ele>
        <time>2018-08-05T14:02:17Z</time>
      </trkpt>
      <trkpt lat="43.99359" lon="7.48117">
        <ele>1279.16</ele>
        <time>2018-08-05T14:02:18Z</time>
      </trkpt>
      <trkpt lat="43.99359" lon="7.48105">
        <ele>1278.35</ele>
        <time>2018-08-05T14:02:19Z</time>
      </trkpt>
      <trkpt lat="43.99362" lon="7.48093">
        <ele>1277.55</ele>
        <time>2018-08-05T14:02:20Z</time>
      </trkpt>
      <trkpt lat="43.99367" lon="7.48081">
        <ele>1277.19</ele>
        <time>2018-08-05T14:02:21Z</time>
      </trkpt>
      <trkpt lat="43.99375" lon="7.4807">
        <ele>1277.74</ele>
        <time>2018-08-05T14:02:22Z</time>
      </trkpt>
      <trkpt lat="43.99385" lon="7.4806">
        <ele>1278.28</ele>
        <time>2018-08-05T14:02:23Z</time>
      </trkpt>
      <trkpt lat="43.99395" lon="7.4805">
        <ele>1277.7</ele>
        <time>2018-08-05T14:02:24Z</time>
      </trkpt>
      <trkpt lat="43.9943" lon="7.4801">
        <ele>1275.12</ele>
        <time>2018-08-05T14:02:28Z</time>
      </trkpt>
      <trkpt lat="43.99446" lon="7.47994">
        <ele>1274.05</ele>
        <time>2018-08-05T14:02:30Z</time>
      </trkpt>
      <trkpt lat="43.99464" lon="7.47986">
        <ele>1272.33</ele>
        <time>2018-08-05T14:02:32Z</time>
      </trkpt>
      <trkpt lat="43.99473" lon="7.47987">
        <ele>1271.26</ele>
        <time>2018-08-05T14:02:33Z</time>
      </trkpt>
      <trkpt lat="43.99482" lon="7.4799">
        <ele>1270.81</ele>
        <time>2018-08-05T14:02:34Z</time>
      </trkpt>
      <trkpt lat="43.99491" lon="7.47997">
        <ele>1270.5</ele>
        <time>2018-08-05T14:02:35Z</time>
      </trkpt>
      <trkpt lat="43.995" lon="7.48006">
        <ele>1270.3</ele>
        <time>2018-08-05T14:02:36Z</time>
      </trkpt>
      <trkpt lat="43.99508" lon="7.48017">
        <ele>1270.35</ele>
        <time>2018-08-05T14:02:37Z</time>
      </trkpt>
      <trkpt lat="43.9953" lon="7.4804">
        <ele>1270.34</ele>
        <time>2018-08-05T14:02:40Z</time>
      </trkpt>
      <trkpt lat="43.99538" lon="7.48044">
        <ele>1269.53</ele>
        <time>2018-08-05T14:02:41Z</time>
      </trkpt>
      <trkpt lat="43.99546" lon="7.48045">
        <ele>1268.36</ele>
        <time>2018-08-05T14:02:42Z</time>
      </trkpt>
      <trkpt lat="43.99565" lon="7.48048">
        <ele>1266.81</ele>
        <time>2018-08-05T14:02:44Z</time>
      </trkpt>
      <trkpt lat="43.99575" lon="7.4805">
        <ele>1266.55</ele>
        <time>2018-08-05T14:02:45Z</time>
      </trkpt>
      <trkpt lat="43.99596" lon="7.48061">
        <ele>1264.96</ele>
        <time>2018-08-05T14:02:47Z</time>
      </trkpt>
      <trkpt lat="43.99606" lon="7.4807">
        <ele>1265.48</ele>
        <time>2018-08-05T14:02:48Z</time>
      </trkpt>
      <trkpt lat="43.99628" lon="7.48087">
        <ele>1264.74</ele>
        <time>2018-08-05T14:02:50Z</time>
      </trkpt>
      <trkpt lat="43.99686" lon="7.48121">
        <ele>1263.49</ele>
        <time>2018-08-05T14:02:55Z</time>
      </trkpt>
      <trkpt lat="43.99694" lon="7.48129">
        <ele>1263</ele>
        <time>2018-08-05T14:02:56Z</time>
      </trkpt>
      <trkpt lat="43.997" lon="7.48138">
        <ele>1261.87</ele>
        <time>2018-08-05T14:02:57Z</time>
      </trkpt>
      <trkpt lat="43.99705" lon="7.48148">
        <ele>1261.28</ele>
        <time>2018-08-05T14:02:58Z</time>
      </trkpt>
      <trkpt lat="43.9971" lon="7.48156">
        <ele>1260.88</ele>
        <time>2018-08-05T14:02:59Z</time>
      </trkpt>
      <trkpt lat="43.99715" lon="7.48162">
        <ele>1261.12</ele>
        <time>2018-08-05T14:03:00Z</time>
      </trkpt>
      <trkpt lat="43.99722" lon="7.48165">
        <ele>1260.9</ele>
        <time>2018-08-05T14:03:01Z</time>
      </trkpt>
      <trkpt lat="43.9973" lon="7.48166">
        <ele>1260.21</ele>
        <time>2018-08-05T14:03:02Z</time>
      </trkpt>
      <trkpt lat="43.99739" lon="7.48166">
        <ele>1259.68</ele>
        <time>2018-08-05T14:03:03Z</time>
      </trkpt>
      <trkpt lat="43.99748" lon="7.48163">
        <ele>1259.9</ele>
        <time>2018-08-05T14:03:04Z</time>
      </trkpt>
      <trkpt lat="43.99756" lon="7.48156">
        <ele>1259.79</ele>
        <time>2018-08-05T14:03:05Z</time>
      </trkpt>
      <trkpt lat="43.99763" lon="7.48147">
        <ele>1259.23</ele>
        <time>2018-08-05T14:03:06Z</time>
      </trkpt>
      <trkpt lat="43.99771" lon="7.48136">
        <ele>1258.25</ele>
        <time>2018-08-05T14:03:07Z</time>
      </trkpt>
      <trkpt lat="43.99778" lon="7.48126">
        <ele>1258.56</ele>
        <time>2018-08-05T14:03:08Z</time>
      </trkpt>
      <trkpt lat="43.99787" lon="7.48118">
        <ele>1258.52</ele>
        <time>2018-08-05T14:03:09Z</time>
      </trkpt>
      <trkpt lat="43.99795" lon="7.48112">
        <ele>1257.32</ele>
        <time>2018-08-05T14:03:10Z</time>
      </trkpt>
      <trkpt lat="43.99825" lon="7.48097">
        <ele>1254.16</ele>
        <time>2018-08-05T14:03:13Z</time>
      </trkpt>
      <trkpt lat="43.99851" lon="7.48085">
        <ele>1252.08</ele>
        <time>2018-08-05T14:03:16Z</time>
      </trkpt>
      <trkpt lat="43.99857" lon="7.4808">
        <ele>1251.18</ele>
        <time>2018-08-05T14:03:17Z</time>
      </trkpt>
      <trkpt lat="43.99861" lon="7.48074">
        <ele>1250.92</ele>
        <time>2018-08-05T14:03:18Z</time>
      </trkpt>
      <trkpt lat="43.99864" lon="7.48066">
        <ele>1250.69</ele>
        <time>2018-08-05T14:03:19Z</time>
      </trkpt>
      <trkpt lat="43.99865" lon="7.48055">
        <ele>1250.31</ele>
        <time>2018-08-05T14:03:20Z</time>
      </trkpt>
      <trkpt lat="43.99866" lon="7.48043">
        <ele>1249.24</ele>
        <time>2018-08-05T14:03:21Z</time>
      </trkpt>
      <trkpt lat="43.99869" lon="7.4803">
        <ele>1247.91</ele>
        <time>2018-08-05T14:03:22Z</time>
      </trkpt>
      <trkpt lat="43.99875" lon="7.48017">
        <ele>1247.28</ele>
        <time>2018-08-05T14:03:23Z</time>
      </trkpt>
      <trkpt lat="43.99881" lon="7.48004">
        <ele>1246.73</ele>
        <time>2018-08-05T14:03:24Z</time>
      </trkpt>
      <trkpt lat="43.99892" lon="7.47978">
        <ele>1245.02</ele>
        <time>2018-08-05T14:03:26Z</time>
      </trkpt>
      <trkpt lat="43.99896" lon="7.47965">
        <ele>1244.2</ele>
        <time>2018-08-05T14:03:27Z</time>
      </trkpt>
      <trkpt lat="43.99899" lon="7.47952">
        <ele>1243.7</ele>
        <time>2018-08-05T14:03:28Z</time>
      </trkpt>
      <trkpt lat="43.99904" lon="7.47939">
        <ele>1242.93</ele>
        <time>2018-08-05T14:03:29Z</time>
      </trkpt>
      <trkpt lat="43.99909" lon="7.47928">
        <ele>1241.04</ele>
        <time>2018-08-05T14:03:30Z</time>
      </trkpt>
      <trkpt lat="43.99912" lon="7.47919">
        <ele>1240.83</ele>
        <time>2018-08-05T14:03:31Z</time>
      </trkpt>
      <trkpt lat="43.99912" lon="7.47909">
        <ele>1240.1</ele>
        <time>2018-08-05T14:03:32Z</time>
      </trkpt>
      <trkpt lat="43.9991" lon="7.47898">
        <ele>1239.69</ele>
        <time>2018-08-05T14:03:33Z</time>
      </trkpt>
      <trkpt lat="43.99907" lon="7.47886">
        <ele>1238.01</ele>
        <time>2018-08-05T14:03:34Z</time>
      </trkpt>
      <trkpt lat="43.99906" lon="7.47873">
        <ele>1236.92</ele>
        <time>2018-08-05T14:03:35Z</time>
      </trkpt>
      <trkpt lat="43.99906" lon="7.4786">
        <ele>1236.59</ele>
        <time>2018-08-05T14:03:36Z</time>
      </trkpt>
      <trkpt lat="43.99903" lon="7.47824">
        <ele>1233.97</ele>
        <time>2018-08-05T14:03:39Z</time>
      </trkpt>
      <trkpt lat="43.99899" lon="7.47816">
        <ele>1233.63</ele>
        <time>2018-08-05T14:03:40Z</time>
      </trkpt>
      <trkpt lat="43.99894" lon="7.47811">
        <ele>1232.66</ele>
        <time>2018-08-05T14:03:41Z</time>
      </trkpt>
      <trkpt lat="43.99888" lon="7.47808">
        <ele>1231.66</ele>
        <time>2018-08-05T14:03:42Z</time>
      </trkpt>
      <trkpt lat="43.9988" lon="7.47806">
        <ele>1230.87</ele>
        <time>2018-08-05T14:03:43Z</time>
      </trkpt>
      <trkpt lat="43.99871" lon="7.47804">
        <ele>1229.35</ele>
        <time>2018-08-05T14:03:44Z</time>
      </trkpt>
      <trkpt lat="43.99862" lon="7.47799">
        <ele>1228.72</ele>
        <time>2018-08-05T14:03:45Z</time>
      </trkpt>
      <trkpt lat="43.99854" lon="7.47791">
        <ele>1228.15</ele>
        <time>2018-08-05T14:03:46Z</time>
      </trkpt>
      <trkpt lat="43.99846" lon="7.47782">
        <ele>1227.29</ele>
        <time>2018-08-05T14:03:47Z</time>
      </trkpt>
      <trkpt lat="43.99838" lon="7.47772">
        <ele>1226.36</ele>
        <time>2018-08-05T14:03:48Z</time>
      </trkpt>
      <trkpt lat="43.99834" lon="7.4776">
        <ele>1225.32</ele>
        <time>2018-08-05T14:03:49Z</time>
      </trkpt>
      <trkpt lat="43.99832" lon="7.47747">
        <ele>1224.67</ele>
        <time>2018-08-05T14:03:50Z</time>
      </trkpt>
      <trkpt lat="43.99832" lon="7.47734">
        <ele>1223.56</ele>
        <time>2018-08-05T14:03:51Z</time>
      </trkpt>
      <trkpt lat="43.99833" lon="7.47721">
        <ele>1222.46</ele>
        <time>2018-08-05T14:03:52Z</time>
      </trkpt>
      <trkpt lat="43.99835" lon="7.47708">
        <ele>1221.34</ele>
        <time>2018-08-05T14:03:53Z</time>
      </trkpt>
      <trkpt lat="43.99836" lon="7.47695">
        <ele>1221.25</ele>
        <time>2018-08-05T14:03:54Z</time>
      </trkpt>
      <trkpt lat="43.99836" lon="7.47682">
        <ele>1220.26</ele>
        <time>2018-08-05T14:03:55Z</time>
      </trkpt>
      <trkpt lat="43.99835" lon="7.47655">
        <ele>1216.22</ele>
        <time>2018-08-05T14:03:57Z</time>
      </trkpt>
      <trkpt lat="43.99837" lon="7.47641">
        <ele>1215.58</ele>
        <time>2018-08-05T14:03:58Z</time>
      </trkpt>
      <trkpt lat="43.9984" lon="7.47628">
        <ele>1214.64</ele>
        <time>2018-08-05T14:03:59Z</time>
      </trkpt>
      <trkpt lat="43.99845" lon="7.47616">
        <ele>1214.06</ele>
        <time>2018-08-05T14:04:00Z</time>
      </trkpt>
      <trkpt lat="43.99851" lon="7.47605">
        <ele>1213.64</ele>
        <time>2018-08-05T14:04:01Z</time>
      </trkpt>
      <trkpt lat="43.99858" lon="7.47595">
        <ele>1213.23</ele>
        <time>2018-08-05T14:04:02Z</time>
      </trkpt>
      <trkpt lat="43.99869" lon="7.47573">
        <ele>1212.07</ele>
        <time>2018-08-05T14:04:04Z</time>
      </trkpt>
      <trkpt lat="43.99873" lon="7.47561">
        <ele>1211.24</ele>
        <time>2018-08-05T14:04:05Z</time>
      </trkpt>
      <trkpt lat="43.99881" lon="7.47537">
        <ele>1209.37</ele>
        <time>2018-08-05T14:04:07Z</time>
      </trkpt>
      <trkpt lat="43.99882" lon="7.47526">
        <ele>1209.08</ele>
        <time>2018-08-05T14:04:08Z</time>
      </trkpt>
      <trkpt lat="43.99881" lon="7.47516">
        <ele>1208.49</ele>
        <time>2018-08-05T14:04:09Z</time>
      </trkpt>
      <trkpt lat="43.99878" lon="7.47506">
        <ele>1207.74</ele>
        <time>2018-08-05T14:04:10Z</time>
      </trkpt>
      <trkpt lat="43.99873" lon="7.47496">
        <ele>1206.87</ele>
        <time>2018-08-05T14:04:11Z</time>
      </trkpt>
      <trkpt lat="43.99868" lon="7.47486">
        <ele>1205.62</ele>
        <time>2018-08-05T14:04:12Z</time>
      </trkpt>
      <trkpt lat="43.99864" lon="7.47475">
        <ele>1205.22</ele>
        <time>2018-08-05T14:04:13Z</time>
      </trkpt>
      <trkpt lat="43.99859" lon="7.47465">
        <ele>1204.61</ele>
        <time>2018-08-05T14:04:14Z</time>
      </trkpt>
      <trkpt lat="43.99853" lon="7.47457">
        <ele>1204.24</ele>
        <time>2018-08-05T14:04:15Z</time>
      </trkpt>
      <trkpt lat="43.99847" lon="7.47453">
        <ele>1204.12</ele>
        <time>2018-08-05T14:04:16Z</time>
      </trkpt>
      <trkpt lat="43.99839" lon="7.47451">
        <ele>1203.53</ele>
        <time>2018-08-05T14:04:17Z</time>
      </trkpt>
      <trkpt lat="43.99831" lon="7.4745">
        <ele>1201.8</ele>
        <time>2018-08-05T14:04:18Z</time>
      </trkpt>
      <trkpt lat="43.99823" lon="7.47448">
        <ele>1200.91</ele>
        <time>2018-08-05T14:04:19Z</time>
      </trkpt>
      <trkpt lat="43.99816" lon="7.47443">
        <ele>1200.09</ele>
        <time>2018-08-05T14:04:20Z</time>
      </trkpt>
      <trkpt lat="43.99811" lon="7.47437">
        <ele>1199.64</ele>
        <time>2018-08-05T14:04:21Z</time>
      </trkpt>
      <trkpt lat="43.99807" lon="7.47428">
        <ele>1199.02</ele>
        <time>2018-08-05T14:04:22Z</time>
      </trkpt>
      <trkpt lat="43.99806" lon="7.4742">
        <ele>1198.21</ele>
        <time>2018-08-05T14:04:23Z</time>
      </trkpt>
      <trkpt lat="43.99808" lon="7.47411">
        <ele>1197.77</ele>
        <time>2018-08-05T14:04:24Z</time>
      </trkpt>
      <trkpt lat="43.99813" lon="7.47402">
        <ele>1197.32</ele>
        <time>2018-08-05T14:04:25Z</time>
      </trkpt>
      <trkpt lat="43.99818" lon="7.47392">
        <ele>1196.54</ele>
        <time>2018-08-05T14:04:26Z</time>
      </trkpt>
      <trkpt lat="43.99837" lon="7.47356">
        <ele>1196.43</ele>
        <time>2018-08-05T14:04:29Z</time>
      </trkpt>
      <trkpt lat="43.99853" lon="7.47322">
        <ele>1193.36</ele>
        <time>2018-08-05T14:04:32Z</time>
      </trkpt>
      <trkpt lat="43.99859" lon="7.47314">
        <ele>1192.28</ele>
        <time>2018-08-05T14:04:33Z</time>
      </trkpt>
      <trkpt lat="43.99865" lon="7.47307">
        <ele>1191.42</ele>
        <time>2018-08-05T14:04:34Z</time>
      </trkpt>
      <trkpt lat="43.999" lon="7.47269">
        <ele>1189.21</ele>
        <time>2018-08-05T14:04:40Z</time>
      </trkpt>
      <trkpt lat="43.99902" lon="7.47263">
        <ele>1188.74</ele>
        <time>2018-08-05T14:04:41Z</time>
      </trkpt>
      <trkpt lat="43.99903" lon="7.47256">
        <ele>1188.24</ele>
        <time>2018-08-05T14:04:42Z</time>
      </trkpt>
      <trkpt lat="43.99902" lon="7.47248">
        <ele>1187.64</ele>
        <time>2018-08-05T14:04:43Z</time>
      </trkpt>
      <trkpt lat="43.99899" lon="7.47239">
        <ele>1186.09</ele>
        <time>2018-08-05T14:04:44Z</time>
      </trkpt>
      <trkpt lat="43.99897" lon="7.47227">
        <ele>1184.87</ele>
        <time>2018-08-05T14:04:45Z</time>
      </trkpt>
      <trkpt lat="43.99889" lon="7.47177">
        <ele>1181.37</ele>
        <time>2018-08-05T14:04:49Z</time>
      </trkpt>
      <trkpt lat="43.99889" lon="7.47164">
        <ele>1180.67</ele>
        <time>2018-08-05T14:04:50Z</time>
      </trkpt>
      <trkpt lat="43.99889" lon="7.47151">
        <ele>1179.97</ele>
        <time>2018-08-05T14:04:51Z</time>
      </trkpt>
      <trkpt lat="43.99892" lon="7.47138">
        <ele>1179.42</ele>
        <time>2018-08-05T14:04:52Z</time>
      </trkpt>
      <trkpt lat="43.99895" lon="7.47125">
        <ele>1178.15</ele>
        <time>2018-08-05T14:04:53Z</time>
      </trkpt>
      <trkpt lat="43.99898" lon="7.47113">
        <ele>1177.32</ele>
        <time>2018-08-05T14:04:54Z</time>
      </trkpt>
      <trkpt lat="43.99902" lon="7.47102">
        <ele>1176.01</ele>
        <time>2018-08-05T14:04:55Z</time>
      </trkpt>
      <trkpt lat="43.99909" lon="7.47082">
        <ele>1172.96</ele>
        <time>2018-08-05T14:04:57Z</time>
      </trkpt>
      <trkpt lat="43.99913" lon="7.47066">
        <ele>1171.52</ele>
        <time>2018-08-05T14:04:59Z</time>
      </trkpt>
      <trkpt lat="43.99917" lon="7.47061">
        <ele>1170.86</ele>
        <time>2018-08-05T14:05:00Z</time>
      </trkpt>
      <trkpt lat="43.99922" lon="7.47058">
        <ele>1170.15</ele>
        <time>2018-08-05T14:05:01Z</time>
      </trkpt>
      <trkpt lat="43.99928" lon="7.47057">
        <ele>1169.56</ele>
        <time>2018-08-05T14:05:02Z</time>
      </trkpt>
      <trkpt lat="43.99935" lon="7.47059">
        <ele>1169.01</ele>
        <time>2018-08-05T14:05:03Z</time>
      </trkpt>
      <trkpt lat="43.99943" lon="7.47062">
        <ele>1168.76</ele>
        <time>2018-08-05T14:05:04Z</time>
      </trkpt>
      <trkpt lat="43.99952" lon="7.47066">
        <ele>1168.4</ele>
        <time>2018-08-05T14:05:05Z</time>
      </trkpt>
      <trkpt lat="43.99961" lon="7.47067">
        <ele>1167.42</ele>
        <time>2018-08-05T14:05:06Z</time>
      </trkpt>
      <trkpt lat="43.99971" lon="7.47068">
        <ele>1166.51</ele>
        <time>2018-08-05T14:05:07Z</time>
      </trkpt>
      <trkpt lat="43.99991" lon="7.47074">
        <ele>1163.93</ele>
        <time>2018-08-05T14:05:09Z</time>
      </trkpt>
      <trkpt lat="44.00001" lon="7.4708">
        <ele>1162.42</ele>
        <time>2018-08-05T14:05:10Z</time>
      </trkpt>
      <trkpt lat="44.00032" lon="7.47098">
        <ele>1159.05</ele>
        <time>2018-08-05T14:05:13Z</time>
      </trkpt>
      <trkpt lat="44.00065" lon="7.47119">
        <ele>1155.98</ele>
        <time>2018-08-05T14:05:16Z</time>
      </trkpt>
      <trkpt lat="44.00105" lon="7.47152">
        <ele>1152.18</ele>
        <time>2018-08-05T14:05:20Z</time>
      </trkpt>
      <trkpt lat="44.00134" lon="7.47174">
        <ele>1149.61</ele>
        <time>2018-08-05T14:05:23Z</time>
      </trkpt>
      <trkpt lat="44.00162" lon="7.47187">
        <ele>1145.97</ele>
        <time>2018-08-05T14:05:26Z</time>
      </trkpt>
      <trkpt lat="44.0017" lon="7.47192">
        <ele>1145.06</ele>
        <time>2018-08-05T14:05:27Z</time>
      </trkpt>
      <trkpt lat="44.00176" lon="7.47197">
        <ele>1144.29</ele>
        <time>2018-08-05T14:05:28Z</time>
      </trkpt>
      <trkpt lat="44.00182" lon="7.47203">
        <ele>1143.72</ele>
        <time>2018-08-05T14:05:29Z</time>
      </trkpt>
      <trkpt lat="44.00188" lon="7.47206">
        <ele>1143.1</ele>
        <time>2018-08-05T14:05:30Z</time>
      </trkpt>
      <trkpt lat="44.00196" lon="7.47207">
        <ele>1142.13</ele>
        <time>2018-08-05T14:05:31Z</time>
      </trkpt>
      <trkpt lat="44.00204" lon="7.47207">
        <ele>1140.52</ele>
        <time>2018-08-05T14:05:32Z</time>
      </trkpt>
      <trkpt lat="44.00213" lon="7.47208">
        <ele>1140.01</ele>
        <time>2018-08-05T14:05:33Z</time>
      </trkpt>
      <trkpt lat="44.00223" lon="7.47211">
        <ele>1139.62</ele>
        <time>2018-08-05T14:05:34Z</time>
      </trkpt>
      <trkpt lat="44.00233" lon="7.47215">
        <ele>1138.65</ele>
        <time>2018-08-05T14:05:35Z</time>
      </trkpt>
      <trkpt lat="44.00242" lon="7.47222">
        <ele>1138.52</ele>
        <time>2018-08-05T14:05:36Z</time>
      </trkpt>
      <trkpt lat="44.0025" lon="7.4723">
        <ele>1138.31</ele>
        <time>2018-08-05T14:05:37Z</time>
      </trkpt>
      <trkpt lat="44.00258" lon="7.47237">
        <ele>1137.63</ele>
        <time>2018-08-05T14:05:38Z</time>
      </trkpt>
      <trkpt lat="44.00266" lon="7.47243">
        <ele>1136.77</ele>
        <time>2018-08-05T14:05:39Z</time>
      </trkpt>
      <trkpt lat="44.00274" lon="7.47248">
        <ele>1135.69</ele>
        <time>2018-08-05T14:05:40Z</time>
      </trkpt>
      <trkpt lat="44.00281" lon="7.47251">
        <ele>1135.09</ele>
        <time>2018-08-05T14:05:41Z</time>
      </trkpt>
      <trkpt lat="44.00287" lon="7.47253">
        <ele>1134.54</ele>
        <time>2018-08-05T14:05:42Z</time>
      </trkpt>
      <trkpt lat="44.00293" lon="7.47254">
        <ele>1134.13</ele>
        <time>2018-08-05T14:05:43Z</time>
      </trkpt>
      <trkpt lat="44.00296" lon="7.47257">
        <ele>1133.39</ele>
        <time>2018-08-05T14:05:44Z</time>
      </trkpt>
      <trkpt lat="44.00298" lon="7.47261">
        <ele>1132.61</ele>
        <time>2018-08-05T14:05:45Z</time>
      </trkpt>
      <trkpt lat="44.00297" lon="7.47264">
        <ele>1132.15</ele>
        <time>2018-08-05T14:05:46Z</time>
      </trkpt>
      <trkpt lat="44.00294" lon="7.47267">
        <ele>1131.74</ele>
        <time>2018-08-05T14:05:47Z</time>
      </trkpt>
      <trkpt lat="44.00289" lon="7.47267">
        <ele>1131.66</ele>
        <time>2018-08-05T14:05:48Z</time>
      </trkpt>
      <trkpt lat="44.00282" lon="7.47264">
        <ele>1131.98</ele>
        <time>2018-08-05T14:05:49Z</time>
      </trkpt>
      <trkpt lat="44.00273" lon="7.4726">
        <ele>1131.54</ele>
        <time>2018-08-05T14:05:50Z</time>
      </trkpt>
      <trkpt lat="44.00263" lon="7.47254">
        <ele>1131</ele>
        <time>2018-08-05T14:05:51Z</time>
      </trkpt>
      <trkpt lat="44.00243" lon="7.47241">
        <ele>1127.55</ele>
        <time>2018-08-05T14:05:53Z</time>
      </trkpt>
      <trkpt lat="44.00223" lon="7.47231">
        <ele>1124.96</ele>
        <time>2018-08-05T14:05:55Z</time>
      </trkpt>
      <trkpt lat="44.00213" lon="7.47228">
        <ele>1124.09</ele>
        <time>2018-08-05T14:05:56Z</time>
      </trkpt>
      <trkpt lat="44.00202" lon="7.47228">
        <ele>1123.92</ele>
        <time>2018-08-05T14:05:57Z</time>
      </trkpt>
      <trkpt lat="44.00183" lon="7.47229">
        <ele>1122.11</ele>
        <time>2018-08-05T14:05:59Z</time>
      </trkpt>
      <trkpt lat="44.00173" lon="7.47228">
        <ele>1120.74</ele>
        <time>2018-08-05T14:06:00Z</time>
      </trkpt>
      <trkpt lat="44.00126" lon="7.47226">
        <ele>1116.85</ele>
        <time>2018-08-05T14:06:04Z</time>
      </trkpt>
      <trkpt lat="44.00103" lon="7.47223">
        <ele>1112.77</ele>
        <time>2018-08-05T14:06:06Z</time>
      </trkpt>
      <trkpt lat="44.00079" lon="7.47217">
        <ele>1109.72</ele>
        <time>2018-08-05T14:06:08Z</time>
      </trkpt>
      <trkpt lat="44.00054" lon="7.4721">
        <ele>1108.23</ele>
        <time>2018-08-05T14:06:10Z</time>
      </trkpt>
      <trkpt lat="44.0002" lon="7.47202">
        <ele>1104.13</ele>
        <time>2018-08-05T14:06:13Z</time>
      </trkpt>
      <trkpt lat="44.00004" lon="7.47203">
        <ele>1102.31</ele>
        <time>2018-08-05T14:06:15Z</time>
      </trkpt>
      <trkpt lat="43.99997" lon="7.47208">
        <ele>1102.7</ele>
        <time>2018-08-05T14:06:16Z</time>
      </trkpt>
      <trkpt lat="43.99992" lon="7.47214">
        <ele>1102.42</ele>
        <time>2018-08-05T14:06:17Z</time>
      </trkpt>
      <trkpt lat="43.99989" lon="7.47222">
        <ele>1101.85</ele>
        <time>2018-08-05T14:06:18Z</time>
      </trkpt>
      <trkpt lat="43.99988" lon="7.4723">
        <ele>1101.26</ele>
        <time>2018-08-05T14:06:19Z</time>
      </trkpt>
      <trkpt lat="43.9999" lon="7.47236">
        <ele>1100.53</ele>
        <time>2018-08-05T14:06:20Z</time>
      </trkpt>
      <trkpt lat="43.99993" lon="7.4724">
        <ele>1100.12</ele>
        <time>2018-08-05T14:06:21Z</time>
      </trkpt>
      <trkpt lat="43.99996" lon="7.47241">
        <ele>1099.84</ele>
        <time>2018-08-05T14:06:22Z</time>
      </trkpt>
      <trkpt lat="44" lon="7.47238">
        <ele>1099.68</ele>
        <time>2018-08-05T14:06:23Z</time>
      </trkpt>
      <trkpt lat="44.00002" lon="7.47233">
        <ele>1099.24</ele>
        <time>2018-08-05T14:06:24Z</time>
      </trkpt>
      <trkpt lat="44.00005" lon="7.47226">
        <ele>1099.2</ele>
        <time>2018-08-05T14:06:25Z</time>
      </trkpt>
      <trkpt lat="44.0001" lon="7.47221">
        <ele>1098.7</ele>
        <time>2018-08-05T14:06:26Z</time>
      </trkpt>
      <trkpt lat="44.00016" lon="7.47219">
        <ele>1098</ele>
        <time>2018-08-05T14:06:27Z</time>
      </trkpt>
      <trkpt lat="44.00024" lon="7.4722">
        <ele>1097.59</ele>
        <time>2018-08-05T14:06:28Z</time>
      </trkpt>
      <trkpt lat="44.00032" lon="7.47223">
        <ele>1097.62</ele>
        <time>2018-08-05T14:06:29Z</time>
      </trkpt>
      <trkpt lat="44.0004" lon="7.47227">
        <ele>1097.71</ele>
        <time>2018-08-05T14:06:30Z</time>
      </trkpt>
      <trkpt lat="44.00066" lon="7.47244">
        <ele>1094.64</ele>
        <time>2018-08-05T14:06:33Z</time>
      </trkpt>
      <trkpt lat="44.00096" lon="7.47262">
        <ele>1091.25</ele>
        <time>2018-08-05T14:06:36Z</time>
      </trkpt>
      <trkpt lat="44.00107" lon="7.47267">
        <ele>1090.99</ele>
        <time>2018-08-05T14:06:37Z</time>
      </trkpt>
      <trkpt lat="44.00154" lon="7.47281">
        <ele>1087.36</ele>
        <time>2018-08-05T14:06:41Z</time>
      </trkpt>
      <trkpt lat="44.00186" lon="7.47294">
        <ele>1083.84</ele>
        <time>2018-08-05T14:06:44Z</time>
      </trkpt>
      <trkpt lat="44.00207" lon="7.47306">
        <ele>1081.61</ele>
        <time>2018-08-05T14:06:46Z</time>
      </trkpt>
      <trkpt lat="44.00217" lon="7.47314">
        <ele>1080.97</ele>
        <time>2018-08-05T14:06:47Z</time>
      </trkpt>
      <trkpt lat="44.00247" lon="7.4734">
        <ele>1077.56</ele>
        <time>2018-08-05T14:06:50Z</time>
      </trkpt>
      <trkpt lat="44.00283" lon="7.47372">
        <ele>1073.23</ele>
        <time>2018-08-05T14:06:54Z</time>
      </trkpt>
      <trkpt lat="44.00307" lon="7.47399">
        <ele>1069.49</ele>
        <time>2018-08-05T14:06:57Z</time>
      </trkpt>
      <trkpt lat="44.00314" lon="7.47409">
        <ele>1068.56</ele>
        <time>2018-08-05T14:06:58Z</time>
      </trkpt>
      <trkpt lat="44.00319" lon="7.47418">
        <ele>1067.23</ele>
        <time>2018-08-05T14:06:59Z</time>
      </trkpt>
      <trkpt lat="44.00323" lon="7.47428">
        <ele>1065.77</ele>
        <time>2018-08-05T14:07:00Z</time>
      </trkpt>
      <trkpt lat="44.00325" lon="7.47437">
        <ele>1065.06</ele>
        <time>2018-08-05T14:07:01Z</time>
      </trkpt>
      <trkpt lat="44.00327" lon="7.47447">
        <ele>1064.22</ele>
        <time>2018-08-05T14:07:02Z</time>
      </trkpt>
      <trkpt lat="44.00329" lon="7.47456">
        <ele>1063.21</ele>
        <time>2018-08-05T14:07:03Z</time>
      </trkpt>
      <trkpt lat="44.00332" lon="7.47463">
        <ele>1062.56</ele>
        <time>2018-08-05T14:07:04Z</time>
      </trkpt>
      <trkpt lat="44.00335" lon="7.47467">
        <ele>1062.17</ele>
        <time>2018-08-05T14:07:05Z</time>
      </trkpt>
      <trkpt lat="44.0034" lon="7.47468">
        <ele>1061.69</ele>
        <time>2018-08-05T14:07:06Z</time>
      </trkpt>
      <trkpt lat="44.00345" lon="7.47466">
        <ele>1061.22</ele>
        <time>2018-08-05T14:07:07Z</time>
      </trkpt>
      <trkpt lat="44.0035" lon="7.47462">
        <ele>1060.43</ele>
        <time>2018-08-05T14:07:08Z</time>
      </trkpt>
      <trkpt lat="44.00356" lon="7.47455">
        <ele>1059.89</ele>
        <time>2018-08-05T14:07:09Z</time>
      </trkpt>
      <trkpt lat="44.00382" lon="7.47425">
        <ele>1056.35</ele>
        <time>2018-08-05T14:07:14Z</time>
      </trkpt>
      <trkpt lat="44.00384" lon="7.47417">
        <ele>1055.69</ele>
        <time>2018-08-05T14:07:15Z</time>
      </trkpt>
      <trkpt lat="44.00386" lon="7.47406">
        <ele>1054.19</ele>
        <time>2018-08-05T14:07:16Z</time>
      </trkpt>
      <trkpt lat="44.00387" lon="7.47394">
        <ele>1052.98</ele>
        <time>2018-08-05T14:07:17Z</time>
      </trkpt>
      <trkpt lat="44.00388" lon="7.47379">
        <ele>1051.92</ele>
        <time>2018-08-05T14:07:18Z</time>
      </trkpt>
      <trkpt lat="44.0039" lon="7.47365">
        <ele>1050.74</ele>
        <time>2018-08-05T14:07:19Z</time>
      </trkpt>
      <trkpt lat="44.00394" lon="7.4735">
        <ele>1049.08</ele>
        <time>2018-08-05T14:07:20Z</time>
      </trkpt>
      <trkpt lat="44.00401" lon="7.47319">
        <ele>1047.7</ele>
        <time>2018-08-05T14:07:22Z</time>
      </trkpt>
      <trkpt lat="44.0041" lon="7.47274">
        <ele>1043.83</ele>
        <time>2018-08-05T14:07:25Z</time>
      </trkpt>
      <trkpt lat="44.00421" lon="7.47229">
        <ele>1041.02</ele>
        <time>2018-08-05T14:07:28Z</time>
      </trkpt>
      <trkpt lat="44.00426" lon="7.47214">
        <ele>1038.96</ele>
        <time>2018-08-05T14:07:29Z</time>
      </trkpt>
      <trkpt lat="44.00442" lon="7.4717">
        <ele>1034.27</ele>
        <time>2018-08-05T14:07:32Z</time>
      </trkpt>
      <trkpt lat="44.00447" lon="7.47157">
        <ele>1035.57</ele>
        <time>2018-08-05T14:07:33Z</time>
      </trkpt>
      <trkpt lat="44.00464" lon="7.47119">
        <ele>1031.8</ele>
        <time>2018-08-05T14:07:36Z</time>
      </trkpt>
      <trkpt lat="44.00474" lon="7.47096">
        <ele>1029.46</ele>
        <time>2018-08-05T14:07:38Z</time>
      </trkpt>
      <trkpt lat="44.00481" lon="7.47085">
        <ele>1028.52</ele>
        <time>2018-08-05T14:07:39Z</time>
      </trkpt>
      <trkpt lat="44.00489" lon="7.47077">
        <ele>1027.94</ele>
        <time>2018-08-05T14:07:40Z</time>
      </trkpt>
      <trkpt lat="44.00498" lon="7.47069">
        <ele>1027.17</ele>
        <time>2018-08-05T14:07:41Z</time>
      </trkpt>
      <trkpt lat="44.00507" lon="7.47062">
        <ele>1025.98</ele>
        <time>2018-08-05T14:07:42Z</time>
      </trkpt>
      <trkpt lat="44.00525" lon="7.47047">
        <ele>1022.77</ele>
        <time>2018-08-05T14:07:44Z</time>
      </trkpt>
      <trkpt lat="44.00533" lon="7.47039">
        <ele>1022.21</ele>
        <time>2018-08-05T14:07:45Z</time>
      </trkpt>
      <trkpt lat="44.0054" lon="7.4703">
        <ele>1022.04</ele>
        <time>2018-08-05T14:07:46Z</time>
      </trkpt>
      <trkpt lat="44.00546" lon="7.47019">
        <ele>1020.67</ele>
        <time>2018-08-05T14:07:47Z</time>
      </trkpt>
      <trkpt lat="44.0056" lon="7.46983">
        <ele>1017.99</ele>
        <time>2018-08-05T14:07:50Z</time>
      </trkpt>
      <trkpt lat="44.00563" lon="7.4697">
        <ele>1016.41</ele>
        <time>2018-08-05T14:07:51Z</time>
      </trkpt>
      <trkpt lat="44.00569" lon="7.46927">
        <ele>1012.8</ele>
        <time>2018-08-05T14:07:54Z</time>
      </trkpt>
      <trkpt lat="44.00581" lon="7.46869">
        <ele>1008.12</ele>
        <time>2018-08-05T14:07:58Z</time>
      </trkpt>
      <trkpt lat="44.00586" lon="7.46855">
        <ele>1006.32</ele>
        <time>2018-08-05T14:07:59Z</time>
      </trkpt>
      <trkpt lat="44.00592" lon="7.46842">
        <ele>1004.76</ele>
        <time>2018-08-05T14:08:00Z</time>
      </trkpt>
      <trkpt lat="44.00598" lon="7.4683">
        <ele>1004.76</ele>
        <time>2018-08-05T14:08:01Z</time>
      </trkpt>
      <trkpt lat="44.00616" lon="7.46778">
        <ele>1001.36</ele>
        <time>2018-08-05T14:08:05Z</time>
      </trkpt>
      <trkpt lat="44.00626" lon="7.46739">
        <ele>998.08</ele>
        <time>2018-08-05T14:08:08Z</time>
      </trkpt>
      <trkpt lat="44.0063" lon="7.46727">
        <ele>996.73</ele>
        <time>2018-08-05T14:08:09Z</time>
      </trkpt>
      <trkpt lat="44.00635" lon="7.46715">
        <ele>995.75</ele>
        <time>2018-08-05T14:08:10Z</time>
      </trkpt>
      <trkpt lat="44.00659" lon="7.46676">
        <ele>991.3</ele>
        <time>2018-08-05T14:08:14Z</time>
      </trkpt>
      <trkpt lat="44.00663" lon="7.46668">
        <ele>990.8</ele>
        <time>2018-08-05T14:08:15Z</time>
      </trkpt>
      <trkpt lat="44.00664" lon="7.46658">
        <ele>990.27</ele>
        <time>2018-08-05T14:08:16Z</time>
      </trkpt>
      <trkpt lat="44.00663" lon="7.46647">
        <ele>989.03</ele>
        <time>2018-08-05T14:08:17Z</time>
      </trkpt>
      <trkpt lat="44.00663" lon="7.46635">
        <ele>987.24</ele>
        <time>2018-08-05T14:08:18Z</time>
      </trkpt>
      <trkpt lat="44.00664" lon="7.46621">
        <ele>987.23</ele>
        <time>2018-08-05T14:08:19Z</time>
      </trkpt>
      <trkpt lat="44.00665" lon="7.46607">
        <ele>986.42</ele>
        <time>2018-08-05T14:08:20Z</time>
      </trkpt>
      <trkpt lat="44.00667" lon="7.46593">
        <ele>985.11</ele>
        <time>2018-08-05T14:08:21Z</time>
      </trkpt>
      <trkpt lat="44.00677" lon="7.46536">
        <ele>980.92</ele>
        <time>2018-08-05T14:08:25Z</time>
      </trkpt>
      <trkpt lat="44.00685" lon="7.46507">
        <ele>980.75</ele>
        <time>2018-08-05T14:08:27Z</time>
      </trkpt>
      <trkpt lat="44.0069" lon="7.46494">
        <ele>979.95</ele>
        <time>2018-08-05T14:08:28Z</time>
      </trkpt>
      <trkpt lat="44.00705" lon="7.46456">
        <ele>976.7</ele>
        <time>2018-08-05T14:08:31Z</time>
      </trkpt>
      <trkpt lat="44.00708" lon="7.46442">
        <ele>975.17</ele>
        <time>2018-08-05T14:08:32Z</time>
      </trkpt>
      <trkpt lat="44.00715" lon="7.46412">
        <ele>974.99</ele>
        <time>2018-08-05T14:08:34Z</time>
      </trkpt>
      <trkpt lat="44.00719" lon="7.46399">
        <ele>973.69</ele>
        <time>2018-08-05T14:08:35Z</time>
      </trkpt>
      <trkpt lat="44.00727" lon="7.46373">
        <ele>971.78</ele>
        <time>2018-08-05T14:08:37Z</time>
      </trkpt>
      <trkpt lat="44.00738" lon="7.46343">
        <ele>971.88</ele>
        <time>2018-08-05T14:08:40Z</time>
      </trkpt>
      <trkpt lat="44.00742" lon="7.46337">
        <ele>971.53</ele>
        <time>2018-08-05T14:08:41Z</time>
      </trkpt>
      <trkpt lat="44.00752" lon="7.46326">
        <ele>971.08</ele>
        <time>2018-08-05T14:08:43Z</time>
      </trkpt>
      <trkpt lat="44.00757" lon="7.46323">
        <ele>970.89</ele>
        <time>2018-08-05T14:08:44Z</time>
      </trkpt>
      <trkpt lat="44.00762" lon="7.46322">
        <ele>970.77</ele>
        <time>2018-08-05T14:08:45Z</time>
      </trkpt>
      <trkpt lat="44.00767" lon="7.46322">
        <ele>970.58</ele>
        <time>2018-08-05T14:08:46Z</time>
      </trkpt>
      <trkpt lat="44.00771" lon="7.46324">
        <ele>970.6</ele>
        <time>2018-08-05T14:08:47Z</time>
      </trkpt>
      <trkpt lat="44.00774" lon="7.46328">
        <ele>970.65</ele>
        <time>2018-08-05T14:08:48Z</time>
      </trkpt>
      <trkpt lat="44.00776" lon="7.46332">
        <ele>970.66</ele>
        <time>2018-08-05T14:08:49Z</time>
      </trkpt>
      <trkpt lat="44.00777" lon="7.46338">
        <ele>970.63</ele>
        <time>2018-08-05T14:08:50Z</time>
      </trkpt>
      <trkpt lat="44.00777" lon="7.46344">
        <ele>970.83</ele>
        <time>2018-08-05T14:08:51Z</time>
      </trkpt>
      <trkpt lat="44.00775" lon="7.46351">
        <ele>971.06</ele>
        <time>2018-08-05T14:08:52Z</time>
      </trkpt>
      <trkpt lat="44.00773" lon="7.46359">
        <ele>971.17</ele>
        <time>2018-08-05T14:08:53Z</time>
      </trkpt>
      <trkpt lat="44.00771" lon="7.46368">
        <ele>971.13</ele>
        <time>2018-08-05T14:08:54Z</time>
      </trkpt>
      <trkpt lat="44.0077" lon="7.46379">
        <ele>971.07</ele>
        <time>2018-08-05T14:08:55Z</time>
      </trkpt>
      <trkpt lat="44.0077" lon="7.46388">
        <ele>970.73</ele>
        <time>2018-08-05T14:08:56Z</time>
      </trkpt>
      <trkpt lat="44.0077" lon="7.46422">
        <ele>971.38</ele>
        <time>2018-08-05T14:09:07Z</time>
      </trkpt>
      <trkpt lat="44.0077" lon="7.46429">
        <ele>970.93</ele>
        <time>2018-08-05T14:09:39Z</time>
      </trkpt>
      <trkpt lat="44.00772" lon="7.46437">
        <ele>970.66</ele>
        <time>2018-08-05T14:09:40Z</time>
      </trkpt>
      <trkpt lat="44.00774" lon="7.46448">
        <ele>970.33</ele>
        <time>2018-08-05T14:09:41Z</time>
      </trkpt>
      <trkpt lat="44.00784" lon="7.46482">
        <ele>969.19</ele>
        <time>2018-08-05T14:09:44Z</time>
      </trkpt>
      <trkpt lat="44.00789" lon="7.46492">
        <ele>969.29</ele>
        <time>2018-08-05T14:09:45Z</time>
      </trkpt>
      <trkpt lat="44.00795" lon="7.46502">
        <ele>969.54</ele>
        <time>2018-08-05T14:09:46Z</time>
      </trkpt>
      <trkpt lat="44.00813" lon="7.46529">
        <ele>969.78</ele>
        <time>2018-08-05T14:09:49Z</time>
      </trkpt>
      <trkpt lat="44.00818" lon="7.4654">
        <ele>969.75</ele>
        <time>2018-08-05T14:09:50Z</time>
      </trkpt>
      <trkpt lat="44.00821" lon="7.46553">
        <ele>969.44</ele>
        <time>2018-08-05T14:09:51Z</time>
      </trkpt>
      <trkpt lat="44.00822" lon="7.46565">
        <ele>969.1</ele>
        <time>2018-08-05T14:09:52Z</time>
      </trkpt>
      <trkpt lat="44.00821" lon="7.46577">
        <ele>969.2</ele>
        <time>2018-08-05T14:09:53Z</time>
      </trkpt>
      <trkpt lat="44.0082" lon="7.4659">
        <ele>969.23</ele>
        <time>2018-08-05T14:09:54Z</time>
      </trkpt>
      <trkpt lat="44.00813" lon="7.46666">
        <ele>965.43</ele>
        <time>2018-08-05T14:09:59Z</time>
      </trkpt>
      <trkpt lat="44.00812" lon="7.46718">
        <ele>961.89</ele>
        <time>2018-08-05T14:10:02Z</time>
      </trkpt>
      <trkpt lat="44.00809" lon="7.46752">
        <ele>958.77</ele>
        <time>2018-08-05T14:10:04Z</time>
      </trkpt>
      <trkpt lat="44.00805" lon="7.46788">
        <ele>954.8</ele>
        <time>2018-08-05T14:10:06Z</time>
      </trkpt>
      <trkpt lat="44.008" lon="7.4684">
        <ele>950.45</ele>
        <time>2018-08-05T14:10:09Z</time>
      </trkpt>
      <trkpt lat="44.00797" lon="7.46872">
        <ele>946.71</ele>
        <time>2018-08-05T14:10:11Z</time>
      </trkpt>
      <trkpt lat="44.00794" lon="7.46886">
        <ele>945.18</ele>
        <time>2018-08-05T14:10:12Z</time>
      </trkpt>
      <trkpt lat="44.00789" lon="7.469">
        <ele>943.91</ele>
        <time>2018-08-05T14:10:13Z</time>
      </trkpt>
      <trkpt lat="44.00774" lon="7.46938">
        <ele>939.97</ele>
        <time>2018-08-05T14:10:16Z</time>
      </trkpt>
      <trkpt lat="44.0077" lon="7.46951">
        <ele>938.91</ele>
        <time>2018-08-05T14:10:17Z</time>
      </trkpt>
      <trkpt lat="44.00768" lon="7.46965">
        <ele>938.13</ele>
        <time>2018-08-05T14:10:18Z</time>
      </trkpt>
      <trkpt lat="44.00762" lon="7.47007">
        <ele>933.94</ele>
        <time>2018-08-05T14:10:21Z</time>
      </trkpt>
      <trkpt lat="44.00758" lon="7.4702">
        <ele>932.91</ele>
        <time>2018-08-05T14:10:22Z</time>
      </trkpt>
      <trkpt lat="44.00752" lon="7.47032">
        <ele>931.88</ele>
        <time>2018-08-05T14:10:23Z</time>
      </trkpt>
      <trkpt lat="44.0074" lon="7.47056">
        <ele>929.98</ele>
        <time>2018-08-05T14:10:25Z</time>
      </trkpt>
      <trkpt lat="44.00736" lon="7.47069">
        <ele>928.68</ele>
        <time>2018-08-05T14:10:26Z</time>
      </trkpt>
      <trkpt lat="44.00733" lon="7.47083">
        <ele>926.9</ele>
        <time>2018-08-05T14:10:27Z</time>
      </trkpt>
      <trkpt lat="44.00732" lon="7.47098">
        <ele>925.46</ele>
        <time>2018-08-05T14:10:28Z</time>
      </trkpt>
      <trkpt lat="44.00733" lon="7.47114">
        <ele>924.17</ele>
        <time>2018-08-05T14:10:29Z</time>
      </trkpt>
      <trkpt lat="44.00734" lon="7.47129">
        <ele>922.74</ele>
        <time>2018-08-05T14:10:30Z</time>
      </trkpt>
      <trkpt lat="44.00734" lon="7.47143">
        <ele>921.19</ele>
        <time>2018-08-05T14:10:31Z</time>
      </trkpt>
      <trkpt lat="44.00733" lon="7.47157">
        <ele>919.66</ele>
        <time>2018-08-05T14:10:32Z</time>
      </trkpt>
      <trkpt lat="44.00732" lon="7.4717">
        <ele>917.86</ele>
        <time>2018-08-05T14:10:33Z</time>
      </trkpt>
      <trkpt lat="44.0073" lon="7.47183">
        <ele>916.28</ele>
        <time>2018-08-05T14:10:34Z</time>
      </trkpt>
      <trkpt lat="44.00727" lon="7.47195">
        <ele>914.77</ele>
        <time>2018-08-05T14:10:35Z</time>
      </trkpt>
      <trkpt lat="44.00724" lon="7.47208">
        <ele>913.2</ele>
        <time>2018-08-05T14:10:36Z</time>
      </trkpt>
      <trkpt lat="44.00718" lon="7.47236">
        <ele>909.32</ele>
        <time>2018-08-05T14:10:38Z</time>
      </trkpt>
      <trkpt lat="44.00713" lon="7.47268">
        <ele>905.76</ele>
        <time>2018-08-05T14:10:40Z</time>
      </trkpt>
      <trkpt lat="44.00708" lon="7.473">
        <ele>901.66</ele>
        <time>2018-08-05T14:10:42Z</time>
      </trkpt>
      <trkpt lat="44.00704" lon="7.47331">
        <ele>897.12</ele>
        <time>2018-08-05T14:10:44Z</time>
      </trkpt>
      <trkpt lat="44.007" lon="7.47362">
        <ele>893.13</ele>
        <time>2018-08-05T14:10:46Z</time>
      </trkpt>
      <trkpt lat="44.00697" lon="7.47376">
        <ele>891.43</ele>
        <time>2018-08-05T14:10:47Z</time>
      </trkpt>
      <trkpt lat="44.00693" lon="7.47389">
        <ele>889.7</ele>
        <time>2018-08-05T14:10:48Z</time>
      </trkpt>
      <trkpt lat="44.00688" lon="7.47401">
        <ele>888.15</ele>
        <time>2018-08-05T14:10:49Z</time>
      </trkpt>
      <trkpt lat="44.00681" lon="7.4741">
        <ele>887.4</ele>
        <time>2018-08-05T14:10:50Z</time>
      </trkpt>
      <trkpt lat="44.00672" lon="7.47418">
        <ele>886.37</ele>
        <time>2018-08-05T14:10:51Z</time>
      </trkpt>
      <trkpt lat="44.00663" lon="7.47424">
        <ele>885.24</ele>
        <time>2018-08-05T14:10:52Z</time>
      </trkpt>
      <trkpt lat="44.00653" lon="7.47429">
        <ele>884.36</ele>
        <time>2018-08-05T14:10:53Z</time>
      </trkpt>
      <trkpt lat="44.00634" lon="7.47441">
        <ele>881.15</ele>
        <time>2018-08-05T14:10:55Z</time>
      </trkpt>
      <trkpt lat="44.00626" lon="7.47448">
        <ele>879.7</ele>
        <time>2018-08-05T14:10:56Z</time>
      </trkpt>
      <trkpt lat="44.00619" lon="7.47456">
        <ele>878.7</ele>
        <time>2018-08-05T14:10:57Z</time>
      </trkpt>
      <trkpt lat="44.00613" lon="7.47464">
        <ele>877.93</ele>
        <time>2018-08-05T14:10:58Z</time>
      </trkpt>
      <trkpt lat="44.00608" lon="7.47474">
        <ele>877.26</ele>
        <time>2018-08-05T14:10:59Z</time>
      </trkpt>
      <trkpt lat="44.00604" lon="7.47485">
        <ele>876.44</ele>
        <time>2018-08-05T14:11:00Z</time>
      </trkpt>
      <trkpt lat="44.006" lon="7.47496">
        <ele>875.76</ele>
        <time>2018-08-05T14:11:01Z</time>
      </trkpt>
      <trkpt lat="44.00597" lon="7.47508">
        <ele>874.85</ele>
        <time>2018-08-05T14:11:02Z</time>
      </trkpt>
      <trkpt lat="44.00597" lon="7.47521">
        <ele>873.63</ele>
        <time>2018-08-05T14:11:03Z</time>
      </trkpt>
      <trkpt lat="44.00598" lon="7.47533">
        <ele>872.56</ele>
        <time>2018-08-05T14:11:04Z</time>
      </trkpt>
      <trkpt lat="44.006" lon="7.47544">
        <ele>871.21</ele>
        <time>2018-08-05T14:11:05Z</time>
      </trkpt>
      <trkpt lat="44.00602" lon="7.47553">
        <ele>870.32</ele>
        <time>2018-08-05T14:11:06Z</time>
      </trkpt>
      <trkpt lat="44.00603" lon="7.47561">
        <ele>869.74</ele>
        <time>2018-08-05T14:11:07Z</time>
      </trkpt>
      <trkpt lat="44.00602" lon="7.4757">
        <ele>869.43</ele>
        <time>2018-08-05T14:11:08Z</time>
      </trkpt>
      <trkpt lat="44.006" lon="7.4758">
        <ele>869.3</ele>
        <time>2018-08-05T14:11:09Z</time>
      </trkpt>
      <trkpt lat="44.00597" lon="7.47591">
        <ele>868.54</ele>
        <time>2018-08-05T14:11:10Z</time>
      </trkpt>
      <trkpt lat="44.00591" lon="7.47608">
        <ele>866.57</ele>
        <time>2018-08-05T14:11:12Z</time>
      </trkpt>
      <trkpt lat="44.00587" lon="7.47613">
        <ele>865.93</ele>
        <time>2018-08-05T14:11:13Z</time>
      </trkpt>
      <trkpt lat="44.00581" lon="7.47618">
        <ele>865.98</ele>
        <time>2018-08-05T14:11:14Z</time>
      </trkpt>
      <trkpt lat="44.00574" lon="7.47623">
        <ele>865.85</ele>
        <time>2018-08-05T14:11:15Z</time>
      </trkpt>
      <trkpt lat="44.00568" lon="7.47629">
        <ele>865.53</ele>
        <time>2018-08-05T14:11:16Z</time>
      </trkpt>
      <trkpt lat="44.00563" lon="7.47638">
        <ele>865.29</ele>
        <time>2018-08-05T14:11:17Z</time>
      </trkpt>
      <trkpt lat="44.00559" lon="7.4765">
        <ele>864.95</ele>
        <time>2018-08-05T14:11:18Z</time>
      </trkpt>
      <trkpt lat="44.00555" lon="7.47663">
        <ele>864.5</ele>
        <time>2018-08-05T14:11:19Z</time>
      </trkpt>
      <trkpt lat="44.00536" lon="7.47763">
        <ele>861.27</ele>
        <time>2018-08-05T14:11:25Z</time>
      </trkpt>
      <trkpt lat="44.00528" lon="7.47808">
        <ele>858.03</ele>
        <time>2018-08-05T14:11:28Z</time>
      </trkpt>
      <trkpt lat="44.00527" lon="7.47822">
        <ele>857.66</ele>
        <time>2018-08-05T14:11:29Z</time>
      </trkpt>
      <trkpt lat="44.00527" lon="7.47836">
        <ele>857.08</ele>
        <time>2018-08-05T14:11:30Z</time>
      </trkpt>
      <trkpt lat="44.00529" lon="7.4786">
        <ele>856.4</ele>
        <time>2018-08-05T14:11:32Z</time>
      </trkpt>
      <trkpt lat="44.00529" lon="7.47872">
        <ele>855.76</ele>
        <time>2018-08-05T14:11:33Z</time>
      </trkpt>
      <trkpt lat="44.00528" lon="7.47883">
        <ele>855.39</ele>
        <time>2018-08-05T14:11:34Z</time>
      </trkpt>
      <trkpt lat="44.00526" lon="7.47895">
        <ele>854.56</ele>
        <time>2018-08-05T14:11:35Z</time>
      </trkpt>
      <trkpt lat="44.00523" lon="7.47906">
        <ele>853.72</ele>
        <time>2018-08-05T14:11:36Z</time>
      </trkpt>
      <trkpt lat="44.0052" lon="7.47918">
        <ele>853.04</ele>
        <time>2018-08-05T14:11:37Z</time>
      </trkpt>
      <trkpt lat="44.00517" lon="7.47929">
        <ele>852.38</ele>
        <time>2018-08-05T14:11:38Z</time>
      </trkpt>
      <trkpt lat="44.00516" lon="7.47941">
        <ele>851.92</ele>
        <time>2018-08-05T14:11:39Z</time>
      </trkpt>
      <trkpt lat="44.00516" lon="7.47954">
        <ele>851.19</ele>
        <time>2018-08-05T14:11:40Z</time>
      </trkpt>
      <trkpt lat="44.00518" lon="7.47968">
        <ele>850.68</ele>
        <time>2018-08-05T14:11:41Z</time>
      </trkpt>
      <trkpt lat="44.0052" lon="7.47982">
        <ele>850.27</ele>
        <time>2018-08-05T14:11:42Z</time>
      </trkpt>
      <trkpt lat="44.00522" lon="7.48014">
        <ele>848.48</ele>
        <time>2018-08-05T14:11:44Z</time>
      </trkpt>
      <trkpt lat="44.00521" lon="7.48031">
        <ele>848.04</ele>
        <time>2018-08-05T14:11:45Z</time>
      </trkpt>
      <trkpt lat="44.00515" lon="7.48073">
        <ele>845.4</ele>
        <time>2018-08-05T14:11:48Z</time>
      </trkpt>
      <trkpt lat="44.00511" lon="7.48085">
        <ele>844.56</ele>
        <time>2018-08-05T14:11:49Z</time>
      </trkpt>
      <trkpt lat="44.00506" lon="7.48097">
        <ele>844.25</ele>
        <time>2018-08-05T14:11:50Z</time>
      </trkpt>
      <trkpt lat="44.00497" lon="7.48119">
        <ele>843.39</ele>
        <time>2018-08-05T14:11:52Z</time>
      </trkpt>
      <trkpt lat="44.00483" lon="7.48166">
        <ele>839.52</ele>
        <time>2018-08-05T14:11:56Z</time>
      </trkpt>
      <trkpt lat="44.00481" lon="7.48181">
        <ele>838.46</ele>
        <time>2018-08-05T14:11:57Z</time>
      </trkpt>
      <trkpt lat="44.00477" lon="7.48214">
        <ele>835.41</ele>
        <time>2018-08-05T14:11:59Z</time>
      </trkpt>
      <trkpt lat="44.0047" lon="7.48248">
        <ele>831.77</ele>
        <time>2018-08-05T14:12:01Z</time>
      </trkpt>
      <trkpt lat="44.00461" lon="7.48283">
        <ele>827.72</ele>
        <time>2018-08-05T14:12:03Z</time>
      </trkpt>
      <trkpt lat="44.00451" lon="7.4832">
        <ele>823.45</ele>
        <time>2018-08-05T14:12:05Z</time>
      </trkpt>
      <trkpt lat="44.0044" lon="7.48355">
        <ele>819.76</ele>
        <time>2018-08-05T14:12:07Z</time>
      </trkpt>
      <trkpt lat="44.00422" lon="7.48402">
        <ele>816.5</ele>
        <time>2018-08-05T14:12:10Z</time>
      </trkpt>
      <trkpt lat="44.00411" lon="7.4843">
        <ele>813.8</ele>
        <time>2018-08-05T14:12:12Z</time>
      </trkpt>
      <trkpt lat="44.00393" lon="7.48473">
        <ele>810.58</ele>
        <time>2018-08-05T14:12:15Z</time>
      </trkpt>
      <trkpt lat="44.00384" lon="7.48504">
        <ele>807.72</ele>
        <time>2018-08-05T14:12:17Z</time>
      </trkpt>
      <trkpt lat="44.00383" lon="7.48521">
        <ele>806.55</ele>
        <time>2018-08-05T14:12:18Z</time>
      </trkpt>
      <trkpt lat="44.00379" lon="7.48552">
        <ele>804.16</ele>
        <time>2018-08-05T14:12:20Z</time>
      </trkpt>
      <trkpt lat="44.00375" lon="7.48568">
        <ele>803.08</ele>
        <time>2018-08-05T14:12:21Z</time>
      </trkpt>
      <trkpt lat="44.00361" lon="7.4862">
        <ele>798.34</ele>
        <time>2018-08-05T14:12:24Z</time>
      </trkpt>
      <trkpt lat="44.00351" lon="7.48657">
        <ele>794.53</ele>
        <time>2018-08-05T14:12:26Z</time>
      </trkpt>
      <trkpt lat="44.00343" lon="7.48694">
        <ele>790.5</ele>
        <time>2018-08-05T14:12:28Z</time>
      </trkpt>
      <trkpt lat="44.00334" lon="7.48728">
        <ele>786.17</ele>
        <time>2018-08-05T14:12:30Z</time>
      </trkpt>
      <trkpt lat="44.00328" lon="7.48757">
        <ele>781.99</ele>
        <time>2018-08-05T14:12:32Z</time>
      </trkpt>
      <trkpt lat="44.00324" lon="7.48769">
        <ele>780.44</ele>
        <time>2018-08-05T14:12:33Z</time>
      </trkpt>
      <trkpt lat="44.00321" lon="7.48778">
        <ele>778.91</ele>
        <time>2018-08-05T14:12:34Z</time>
      </trkpt>
      <trkpt lat="44.00318" lon="7.48786">
        <ele>777.88</ele>
        <time>2018-08-05T14:12:35Z</time>
      </trkpt>
      <trkpt lat="44.00317" lon="7.48796">
        <ele>777.17</ele>
        <time>2018-08-05T14:12:36Z</time>
      </trkpt>
      <trkpt lat="44.00318" lon="7.48808">
        <ele>776.44</ele>
        <time>2018-08-05T14:12:37Z</time>
      </trkpt>
      <trkpt lat="44.00319" lon="7.48822">
        <ele>776.32</ele>
        <time>2018-08-05T14:12:38Z</time>
      </trkpt>
      <trkpt lat="44.0032" lon="7.4887">
        <ele>774.24</ele>
        <time>2018-08-05T14:12:41Z</time>
      </trkpt>
      <trkpt lat="44.0032" lon="7.48885">
        <ele>773.24</ele>
        <time>2018-08-05T14:12:42Z</time>
      </trkpt>
      <trkpt lat="44.0032" lon="7.489">
        <ele>772.05</ele>
        <time>2018-08-05T14:12:43Z</time>
      </trkpt>
      <trkpt lat="44.0032" lon="7.48928">
        <ele>769.41</ele>
        <time>2018-08-05T14:12:45Z</time>
      </trkpt>
      <trkpt lat="44.00317" lon="7.48941">
        <ele>768.54</ele>
        <time>2018-08-05T14:12:46Z</time>
      </trkpt>
      <trkpt lat="44.00312" lon="7.48966">
        <ele>765.16</ele>
        <time>2018-08-05T14:12:48Z</time>
      </trkpt>
      <trkpt lat="44.00312" lon="7.48979">
        <ele>763.73</ele>
        <time>2018-08-05T14:12:49Z</time>
      </trkpt>
      <trkpt lat="44.00315" lon="7.48992">
        <ele>762.64</ele>
        <time>2018-08-05T14:12:50Z</time>
      </trkpt>
      <trkpt lat="44.00318" lon="7.49005">
        <ele>761.69</ele>
        <time>2018-08-05T14:12:51Z</time>
      </trkpt>
      <trkpt lat="44.00321" lon="7.49016">
        <ele>759.9</ele>
        <time>2018-08-05T14:12:52Z</time>
      </trkpt>
      <trkpt lat="44.00323" lon="7.49026">
        <ele>758.35</ele>
        <time>2018-08-05T14:12:53Z</time>
      </trkpt>
      <trkpt lat="44.00323" lon="7.49035">
        <ele>757.38</ele>
        <time>2018-08-05T14:12:54Z</time>
      </trkpt>
      <trkpt lat="44.00319" lon="7.49043">
        <ele>756.55</ele>
        <time>2018-08-05T14:12:55Z</time>
      </trkpt>
      <trkpt lat="44.00313" lon="7.49049">
        <ele>756.2</ele>
        <time>2018-08-05T14:12:56Z</time>
      </trkpt>
      <trkpt lat="44.00304" lon="7.49053">
        <ele>755.78</ele>
        <time>2018-08-05T14:12:57Z</time>
      </trkpt>
      <trkpt lat="44.00296" lon="7.49056">
        <ele>755.1</ele>
        <time>2018-08-05T14:12:58Z</time>
      </trkpt>
      <trkpt lat="44.00287" lon="7.49061">
        <ele>754.42</ele>
        <time>2018-08-05T14:12:59Z</time>
      </trkpt>
      <trkpt lat="44.00281" lon="7.49067">
        <ele>753.39</ele>
        <time>2018-08-05T14:13:00Z</time>
      </trkpt>
      <trkpt lat="44.00276" lon="7.49076">
        <ele>752.35</ele>
        <time>2018-08-05T14:13:01Z</time>
      </trkpt>
      <trkpt lat="44.00275" lon="7.49087">
        <ele>751.32</ele>
        <time>2018-08-05T14:13:02Z</time>
      </trkpt>
      <trkpt lat="44.00276" lon="7.49097">
        <ele>750.68</ele>
        <time>2018-08-05T14:13:03Z</time>
      </trkpt>
      <trkpt lat="44.00277" lon="7.49106">
        <ele>749.86</ele>
        <time>2018-08-05T14:13:04Z</time>
      </trkpt>
      <trkpt lat="44.00277" lon="7.49115">
        <ele>748.9</ele>
        <time>2018-08-05T14:13:05Z</time>
      </trkpt>
      <trkpt lat="44.00276" lon="7.49123">
        <ele>748.3</ele>
        <time>2018-08-05T14:13:06Z</time>
      </trkpt>
      <trkpt lat="44.00273" lon="7.49132">
        <ele>747.43</ele>
        <time>2018-08-05T14:13:07Z</time>
      </trkpt>
      <trkpt lat="44.0027" lon="7.49142">
        <ele>746.82</ele>
        <time>2018-08-05T14:13:08Z</time>
      </trkpt>
      <trkpt lat="44.00252" lon="7.49188">
        <ele>743.31</ele>
        <time>2018-08-05T14:13:12Z</time>
      </trkpt>
      <trkpt lat="44.00247" lon="7.49198">
        <ele>742.48</ele>
        <time>2018-08-05T14:13:13Z</time>
      </trkpt>
      <trkpt lat="44.00241" lon="7.49207">
        <ele>742.44</ele>
        <time>2018-08-05T14:13:14Z</time>
      </trkpt>
      <trkpt lat="44.00212" lon="7.49249">
        <ele>738.82</ele>
        <time>2018-08-05T14:13:18Z</time>
      </trkpt>
      <trkpt lat="44.00179" lon="7.4929">
        <ele>735.24</ele>
        <time>2018-08-05T14:13:22Z</time>
      </trkpt>
      <trkpt lat="44.00153" lon="7.49314">
        <ele>731.96</ele>
        <time>2018-08-05T14:13:25Z</time>
      </trkpt>
      <trkpt lat="44.00118" lon="7.49349">
        <ele>728.22</ele>
        <time>2018-08-05T14:13:29Z</time>
      </trkpt>
      <trkpt lat="44.00099" lon="7.49374">
        <ele>725.81</ele>
        <time>2018-08-05T14:13:31Z</time>
      </trkpt>
      <trkpt lat="44.00089" lon="7.49391">
        <ele>725.32</ele>
        <time>2018-08-05T14:13:32Z</time>
      </trkpt>
      <trkpt lat="44.00057" lon="7.49454">
        <ele>721.08</ele>
        <time>2018-08-05T14:13:36Z</time>
      </trkpt>
      <trkpt lat="44.00049" lon="7.49464">
        <ele>720.54</ele>
        <time>2018-08-05T14:13:37Z</time>
      </trkpt>
      <trkpt lat="44.00026" lon="7.49494">
        <ele>718.24</ele>
        <time>2018-08-05T14:13:41Z</time>
      </trkpt>
      <trkpt lat="44.00023" lon="7.49503">
        <ele>718.14</ele>
        <time>2018-08-05T14:13:42Z</time>
      </trkpt>
      <trkpt lat="44.00021" lon="7.49514">
        <ele>717.95</ele>
        <time>2018-08-05T14:13:43Z</time>
      </trkpt>
      <trkpt lat="43.99993" lon="7.49609">
        <ele>714.51</ele>
        <time>2018-08-05T14:13:49Z</time>
      </trkpt>
      <trkpt lat="43.99979" lon="7.49652">
        <ele>710.9</ele>
        <time>2018-08-05T14:13:52Z</time>
      </trkpt>
      <trkpt lat="43.99964" lon="7.49691">
        <ele>707.25</ele>
        <time>2018-08-05T14:13:55Z</time>
      </trkpt>
      <trkpt lat="43.99952" lon="7.49715">
        <ele>703.18</ele>
        <time>2018-08-05T14:13:57Z</time>
      </trkpt>
      <trkpt lat="43.99949" lon="7.49727">
        <ele>701.2</ele>
        <time>2018-08-05T14:13:58Z</time>
      </trkpt>
      <trkpt lat="43.99947" lon="7.49738">
        <ele>699.53</ele>
        <time>2018-08-05T14:13:59Z</time>
      </trkpt>
      <trkpt lat="43.99945" lon="7.4975">
        <ele>697.88</ele>
        <time>2018-08-05T14:14:00Z</time>
      </trkpt>
      <trkpt lat="43.99941" lon="7.49761">
        <ele>696.72</ele>
        <time>2018-08-05T14:14:01Z</time>
      </trkpt>
      <trkpt lat="43.99936" lon="7.49772">
        <ele>695.77</ele>
        <time>2018-08-05T14:14:02Z</time>
      </trkpt>
      <trkpt lat="43.9993" lon="7.49782">
        <ele>695</ele>
        <time>2018-08-05T14:14:03Z</time>
      </trkpt>
      <trkpt lat="43.99923" lon="7.4979">
        <ele>693.94</ele>
        <time>2018-08-05T14:14:04Z</time>
      </trkpt>
      <trkpt lat="43.99916" lon="7.49797">
        <ele>693.59</ele>
        <time>2018-08-05T14:14:05Z</time>
      </trkpt>
      <trkpt lat="43.99875" lon="7.49834">
        <ele>689.57</ele>
        <time>2018-08-05T14:14:10Z</time>
      </trkpt>
      <trkpt lat="43.99857" lon="7.49849">
        <ele>686.31</ele>
        <time>2018-08-05T14:14:12Z</time>
      </trkpt>
      <trkpt lat="43.9985" lon="7.49859">
        <ele>684.88</ele>
        <time>2018-08-05T14:14:13Z</time>
      </trkpt>
      <trkpt lat="43.99836" lon="7.4988">
        <ele>682.91</ele>
        <time>2018-08-05T14:14:15Z</time>
      </trkpt>
      <trkpt lat="43.99827" lon="7.49891">
        <ele>682.1</ele>
        <time>2018-08-05T14:14:16Z</time>
      </trkpt>
      <trkpt lat="43.99816" lon="7.49901">
        <ele>681.49</ele>
        <time>2018-08-05T14:14:17Z</time>
      </trkpt>
      <trkpt lat="43.99767" lon="7.4994">
        <ele>676.96</ele>
        <time>2018-08-05T14:14:21Z</time>
      </trkpt>
      <trkpt lat="43.99757" lon="7.4995">
        <ele>675.6</ele>
        <time>2018-08-05T14:14:22Z</time>
      </trkpt>
      <trkpt lat="43.99748" lon="7.49961">
        <ele>674.68</ele>
        <time>2018-08-05T14:14:23Z</time>
      </trkpt>
      <trkpt lat="43.9974" lon="7.49973">
        <ele>673.97</ele>
        <time>2018-08-05T14:14:24Z</time>
      </trkpt>
      <trkpt lat="43.99734" lon="7.49986">
        <ele>673.02</ele>
        <time>2018-08-05T14:14:25Z</time>
      </trkpt>
      <trkpt lat="43.99729" lon="7.49998">
        <ele>672.16</ele>
        <time>2018-08-05T14:14:26Z</time>
      </trkpt>
      <trkpt lat="43.99726" lon="7.50011">
        <ele>671.2</ele>
        <time>2018-08-05T14:14:27Z</time>
      </trkpt>
      <trkpt lat="43.99724" lon="7.50022">
        <ele>670.75</ele>
        <time>2018-08-05T14:14:28Z</time>
      </trkpt>
      <trkpt lat="43.99721" lon="7.50032">
        <ele>670.41</ele>
        <time>2018-08-05T14:14:29Z</time>
      </trkpt>
      <trkpt lat="43.99717" lon="7.50041">
        <ele>670.2</ele>
        <time>2018-08-05T14:14:30Z</time>
      </trkpt>
      <trkpt lat="43.99712" lon="7.5005">
        <ele>670.05</ele>
        <time>2018-08-05T14:14:31Z</time>
      </trkpt>
      <trkpt lat="43.99705" lon="7.50057">
        <ele>669.53</ele>
        <time>2018-08-05T14:14:32Z</time>
      </trkpt>
      <trkpt lat="43.99698" lon="7.50063">
        <ele>669.22</ele>
        <time>2018-08-05T14:14:33Z</time>
      </trkpt>
      <trkpt lat="43.99689" lon="7.5007">
        <ele>668.18</ele>
        <time>2018-08-05T14:14:34Z</time>
      </trkpt>
      <trkpt lat="43.99679" lon="7.50078">
        <ele>667.02</ele>
        <time>2018-08-05T14:14:35Z</time>
      </trkpt>
      <trkpt lat="43.9967" lon="7.50085">
        <ele>665.77</ele>
        <time>2018-08-05T14:14:36Z</time>
      </trkpt>
      <trkpt lat="43.9966" lon="7.50091">
        <ele>664.64</ele>
        <time>2018-08-05T14:14:37Z</time>
      </trkpt>
      <trkpt lat="43.99645" lon="7.50103">
        <ele>662.37</ele>
        <time>2018-08-05T14:14:39Z</time>
      </trkpt>
      <trkpt lat="43.99638" lon="7.50108">
        <ele>661.76</ele>
        <time>2018-08-05T14:14:40Z</time>
      </trkpt>
      <trkpt lat="43.99634" lon="7.50114">
        <ele>661.13</ele>
        <time>2018-08-05T14:14:41Z</time>
      </trkpt>
      <trkpt lat="43.99633" lon="7.50123">
        <ele>660.31</ele>
        <time>2018-08-05T14:14:42Z</time>
      </trkpt>
      <trkpt lat="43.99634" lon="7.50132">
        <ele>659.76</ele>
        <time>2018-08-05T14:14:43Z</time>
      </trkpt>
      <trkpt lat="43.99638" lon="7.50142">
        <ele>659.41</ele>
        <time>2018-08-05T14:14:44Z</time>
      </trkpt>
      <trkpt lat="43.99641" lon="7.50154">
        <ele>658.86</ele>
        <time>2018-08-05T14:14:45Z</time>
      </trkpt>
      <trkpt lat="43.99644" lon="7.50167">
        <ele>658.42</ele>
        <time>2018-08-05T14:14:46Z</time>
      </trkpt>
      <trkpt lat="43.99645" lon="7.50182">
        <ele>658.05</ele>
        <time>2018-08-05T14:14:47Z</time>
      </trkpt>
      <trkpt lat="43.99646" lon="7.50198">
        <ele>657.41</ele>
        <time>2018-08-05T14:14:48Z</time>
      </trkpt>
      <trkpt lat="43.99647" lon="7.50228">
        <ele>655.79</ele>
        <time>2018-08-05T14:14:50Z</time>
      </trkpt>
      <trkpt lat="43.99646" lon="7.5024">
        <ele>654.69</ele>
        <time>2018-08-05T14:14:51Z</time>
      </trkpt>
      <trkpt lat="43.99643" lon="7.50252">
        <ele>654.09</ele>
        <time>2018-08-05T14:14:52Z</time>
      </trkpt>
      <trkpt lat="43.99637" lon="7.5026">
        <ele>653.69</ele>
        <time>2018-08-05T14:14:53Z</time>
      </trkpt>
      <trkpt lat="43.9963" lon="7.50266">
        <ele>653.11</ele>
        <time>2018-08-05T14:14:54Z</time>
      </trkpt>
      <trkpt lat="43.99624" lon="7.50274">
        <ele>652.31</ele>
        <time>2018-08-05T14:14:55Z</time>
      </trkpt>
      <trkpt lat="43.99619" lon="7.50284">
        <ele>651.77</ele>
        <time>2018-08-05T14:14:56Z</time>
      </trkpt>
      <trkpt lat="43.99616" lon="7.50296">
        <ele>650.76</ele>
        <time>2018-08-05T14:14:57Z</time>
      </trkpt>
      <trkpt lat="43.99612" lon="7.50319">
        <ele>649.2</ele>
        <time>2018-08-05T14:14:59Z</time>
      </trkpt>
      <trkpt lat="43.99611" lon="7.50331">
        <ele>648.58</ele>
        <time>2018-08-05T14:15:00Z</time>
      </trkpt>
      <trkpt lat="43.99611" lon="7.50342">
        <ele>647.97</ele>
        <time>2018-08-05T14:15:01Z</time>
      </trkpt>
      <trkpt lat="43.99611" lon="7.50382">
        <ele>646.28</ele>
        <time>2018-08-05T14:15:04Z</time>
      </trkpt>
      <trkpt lat="43.99608" lon="7.50394">
        <ele>645.85</ele>
        <time>2018-08-05T14:15:05Z</time>
      </trkpt>
      <trkpt lat="43.99604" lon="7.50405">
        <ele>645.54</ele>
        <time>2018-08-05T14:15:06Z</time>
      </trkpt>
      <trkpt lat="43.99592" lon="7.50455">
        <ele>643.5</ele>
        <time>2018-08-05T14:15:10Z</time>
      </trkpt>
      <trkpt lat="43.99591" lon="7.50468">
        <ele>643.02</ele>
        <time>2018-08-05T14:15:11Z</time>
      </trkpt>
      <trkpt lat="43.99592" lon="7.50481">
        <ele>642.37</ele>
        <time>2018-08-05T14:15:12Z</time>
      </trkpt>
      <trkpt lat="43.99594" lon="7.50494">
        <ele>641.71</ele>
        <time>2018-08-05T14:15:13Z</time>
      </trkpt>
      <trkpt lat="43.99598" lon="7.50505">
        <ele>641.44</ele>
        <time>2018-08-05T14:15:14Z</time>
      </trkpt>
      <trkpt lat="43.99602" lon="7.50516">
        <ele>641.14</ele>
        <time>2018-08-05T14:15:15Z</time>
      </trkpt>
      <trkpt lat="43.99605" lon="7.50527">
        <ele>640.84</ele>
        <time>2018-08-05T14:15:16Z</time>
      </trkpt>
      <trkpt lat="43.99606" lon="7.50539">
        <ele>640.73</ele>
        <time>2018-08-05T14:15:17Z</time>
      </trkpt>
      <trkpt lat="43.99609" lon="7.5055">
        <ele>640.26</ele>
        <time>2018-08-05T14:15:18Z</time>
      </trkpt>
      <trkpt lat="43.99613" lon="7.50559">
        <ele>639.68</ele>
        <time>2018-08-05T14:15:19Z</time>
      </trkpt>
      <trkpt lat="43.9962" lon="7.50565">
        <ele>639.35</ele>
        <time>2018-08-05T14:15:20Z</time>
      </trkpt>
      <trkpt lat="43.99629" lon="7.50569">
        <ele>638.94</ele>
        <time>2018-08-05T14:15:21Z</time>
      </trkpt>
      <trkpt lat="43.9964" lon="7.5057">
        <ele>638.69</ele>
        <time>2018-08-05T14:15:22Z</time>
      </trkpt>
      <trkpt lat="43.99652" lon="7.50573">
        <ele>638.15</ele>
        <time>2018-08-05T14:15:23Z</time>
      </trkpt>
      <trkpt lat="43.99663" lon="7.50577">
        <ele>636.87</ele>
        <time>2018-08-05T14:15:24Z</time>
      </trkpt>
      <trkpt lat="43.99673" lon="7.50583">
        <ele>634.82</ele>
        <time>2018-08-05T14:15:25Z</time>
      </trkpt>
      <trkpt lat="43.99681" lon="7.50589">
        <ele>633.52</ele>
        <time>2018-08-05T14:15:26Z</time>
      </trkpt>
      <trkpt lat="43.99688" lon="7.50597">
        <ele>632.72</ele>
        <time>2018-08-05T14:15:27Z</time>
      </trkpt>
      <trkpt lat="43.99692" lon="7.50608">
        <ele>632.3</ele>
        <time>2018-08-05T14:15:28Z</time>
      </trkpt>
      <trkpt lat="43.99696" lon="7.50622">
        <ele>632.23</ele>
        <time>2018-08-05T14:15:29Z</time>
      </trkpt>
      <trkpt lat="43.997" lon="7.50635">
        <ele>631.6</ele>
        <time>2018-08-05T14:15:30Z</time>
      </trkpt>
      <trkpt lat="43.99705" lon="7.50648">
        <ele>630.69</ele>
        <time>2018-08-05T14:15:31Z</time>
      </trkpt>
      <trkpt lat="43.99711" lon="7.50661">
        <ele>629.69</ele>
        <time>2018-08-05T14:15:32Z</time>
      </trkpt>
      <trkpt lat="43.99717" lon="7.50672">
        <ele>628.68</ele>
        <time>2018-08-05T14:15:33Z</time>
      </trkpt>
      <trkpt lat="43.99724" lon="7.50683">
        <ele>628.08</ele>
        <time>2018-08-05T14:15:34Z</time>
      </trkpt>
      <trkpt lat="43.99732" lon="7.50694">
        <ele>627.13</ele>
        <time>2018-08-05T14:15:35Z</time>
      </trkpt>
      <trkpt lat="43.99741" lon="7.50706">
        <ele>626.03</ele>
        <time>2018-08-05T14:15:36Z</time>
      </trkpt>
      <trkpt lat="43.99751" lon="7.50717">
        <ele>624.66</ele>
        <time>2018-08-05T14:15:37Z</time>
      </trkpt>
      <trkpt lat="43.99774" lon="7.50749">
        <ele>620.69</ele>
        <time>2018-08-05T14:15:40Z</time>
      </trkpt>
      <trkpt lat="43.9978" lon="7.5076">
        <ele>619.53</ele>
        <time>2018-08-05T14:15:41Z</time>
      </trkpt>
      <trkpt lat="43.99795" lon="7.50794">
        <ele>616.33</ele>
        <time>2018-08-05T14:15:44Z</time>
      </trkpt>
      <trkpt lat="43.99805" lon="7.50817">
        <ele>614.35</ele>
        <time>2018-08-05T14:15:46Z</time>
      </trkpt>
      <trkpt lat="43.99809" lon="7.50829">
        <ele>613.24</ele>
        <time>2018-08-05T14:15:47Z</time>
      </trkpt>
      <trkpt lat="43.99811" lon="7.50842">
        <ele>612.57</ele>
        <time>2018-08-05T14:15:48Z</time>
      </trkpt>
      <trkpt lat="43.99812" lon="7.50854">
        <ele>612.07</ele>
        <time>2018-08-05T14:15:49Z</time>
      </trkpt>
      <trkpt lat="43.99812" lon="7.50867">
        <ele>611.11</ele>
        <time>2018-08-05T14:15:50Z</time>
      </trkpt>
      <trkpt lat="43.99811" lon="7.5088">
        <ele>610.36</ele>
        <time>2018-08-05T14:15:51Z</time>
      </trkpt>
      <trkpt lat="43.9981" lon="7.50918">
        <ele>608.7</ele>
        <time>2018-08-05T14:15:54Z</time>
      </trkpt>
      <trkpt lat="43.99811" lon="7.50931">
        <ele>608.3</ele>
        <time>2018-08-05T14:15:55Z</time>
      </trkpt>
      <trkpt lat="43.99813" lon="7.50945">
        <ele>608.06</ele>
        <time>2018-08-05T14:15:56Z</time>
      </trkpt>
      <trkpt lat="43.99822" lon="7.51009">
        <ele>607.31</ele>
        <time>2018-08-05T14:16:00Z</time>
      </trkpt>
      <trkpt lat="43.99833" lon="7.51059">
        <ele>604.41</ele>
        <time>2018-08-05T14:16:03Z</time>
      </trkpt>
      <trkpt lat="43.99834" lon="7.5108">
        <ele>603.69</ele>
        <time>2018-08-05T14:16:04Z</time>
      </trkpt>
      <trkpt lat="43.99835" lon="7.5114">
        <ele>600.11</ele>
        <time>2018-08-05T14:16:07Z</time>
      </trkpt>
      <trkpt lat="43.99833" lon="7.51159">
        <ele>599.25</ele>
        <time>2018-08-05T14:16:08Z</time>
      </trkpt>
      <trkpt lat="43.99833" lon="7.51177">
        <ele>598.24</ele>
        <time>2018-08-05T14:16:09Z</time>
      </trkpt>
      <trkpt lat="43.99835" lon="7.51252">
        <ele>596.13</ele>
        <time>2018-08-05T14:16:13Z</time>
      </trkpt>
      <trkpt lat="43.99833" lon="7.51324">
        <ele>593.76</ele>
        <time>2018-08-05T14:16:17Z</time>
      </trkpt>
      <trkpt lat="43.99835" lon="7.51355">
        <ele>593.09</ele>
        <time>2018-08-05T14:16:19Z</time>
      </trkpt>
      <trkpt lat="43.99832" lon="7.51371">
        <ele>593.25</ele>
        <time>2018-08-05T14:16:20Z</time>
      </trkpt>
      <trkpt lat="43.99825" lon="7.51416">
        <ele>591.53</ele>
        <time>2018-08-05T14:16:23Z</time>
      </trkpt>
      <trkpt lat="43.99825" lon="7.51429">
        <ele>591</ele>
        <time>2018-08-05T14:16:24Z</time>
      </trkpt>
      <trkpt lat="43.99826" lon="7.51441">
        <ele>590.43</ele>
        <time>2018-08-05T14:16:25Z</time>
      </trkpt>
      <trkpt lat="43.99828" lon="7.51452">
        <ele>589.7</ele>
        <time>2018-08-05T14:16:26Z</time>
      </trkpt>
      <trkpt lat="43.99834" lon="7.51462">
        <ele>589.03</ele>
        <time>2018-08-05T14:16:27Z</time>
      </trkpt>
      <trkpt lat="43.99842" lon="7.5147">
        <ele>588.74</ele>
        <time>2018-08-05T14:16:28Z</time>
      </trkpt>
      <trkpt lat="43.9985" lon="7.51477">
        <ele>587.7</ele>
        <time>2018-08-05T14:16:29Z</time>
      </trkpt>
      <trkpt lat="43.99857" lon="7.51487">
        <ele>586.49</ele>
        <time>2018-08-05T14:16:30Z</time>
      </trkpt>
      <trkpt lat="43.99863" lon="7.51501">
        <ele>585.56</ele>
        <time>2018-08-05T14:16:31Z</time>
      </trkpt>
      <trkpt lat="43.99867" lon="7.51517">
        <ele>584.71</ele>
        <time>2018-08-05T14:16:32Z</time>
      </trkpt>
      <trkpt lat="43.9987" lon="7.51536">
        <ele>584.33</ele>
        <time>2018-08-05T14:16:33Z</time>
      </trkpt>
      <trkpt lat="43.99872" lon="7.51554">
        <ele>583.59</ele>
        <time>2018-08-05T14:16:34Z</time>
      </trkpt>
      <trkpt lat="43.99873" lon="7.51572">
        <ele>582.65</ele>
        <time>2018-08-05T14:16:35Z</time>
      </trkpt>
      <trkpt lat="43.99873" lon="7.5159">
        <ele>581.75</ele>
        <time>2018-08-05T14:16:36Z</time>
      </trkpt>
      <trkpt lat="43.99872" lon="7.51607">
        <ele>580.82</ele>
        <time>2018-08-05T14:16:37Z</time>
      </trkpt>
      <trkpt lat="43.9987" lon="7.51623">
        <ele>580.05</ele>
        <time>2018-08-05T14:16:38Z</time>
      </trkpt>
      <trkpt lat="43.9987" lon="7.5164">
        <ele>579.01</ele>
        <time>2018-08-05T14:16:39Z</time>
      </trkpt>
      <trkpt lat="43.99872" lon="7.51658">
        <ele>578.55</ele>
        <time>2018-08-05T14:16:40Z</time>
      </trkpt>
      <trkpt lat="43.99873" lon="7.51677">
        <ele>578.1</ele>
        <time>2018-08-05T14:16:41Z</time>
      </trkpt>
      <trkpt lat="43.99874" lon="7.51697">
        <ele>577.8</ele>
        <time>2018-08-05T14:16:42Z</time>
      </trkpt>
      <trkpt lat="43.99871" lon="7.51772">
        <ele>574</ele>
        <time>2018-08-05T14:16:46Z</time>
      </trkpt>
      <trkpt lat="43.99866" lon="7.51787">
        <ele>573.92</ele>
        <time>2018-08-05T14:16:47Z</time>
      </trkpt>
      <trkpt lat="43.99861" lon="7.51801">
        <ele>573.35</ele>
        <time>2018-08-05T14:16:48Z</time>
      </trkpt>
      <trkpt lat="43.99854" lon="7.51812">
        <ele>572.78</ele>
        <time>2018-08-05T14:16:49Z</time>
      </trkpt>
      <trkpt lat="43.99846" lon="7.51821">
        <ele>572.47</ele>
        <time>2018-08-05T14:16:50Z</time>
      </trkpt>
      <trkpt lat="43.99839" lon="7.51828">
        <ele>572.33</ele>
        <time>2018-08-05T14:16:51Z</time>
      </trkpt>
      <trkpt lat="43.99831" lon="7.51836">
        <ele>572.1</ele>
        <time>2018-08-05T14:16:52Z</time>
      </trkpt>
      <trkpt lat="43.99825" lon="7.51845">
        <ele>571.83</ele>
        <time>2018-08-05T14:16:53Z</time>
      </trkpt>
      <trkpt lat="43.9982" lon="7.51857">
        <ele>571.68</ele>
        <time>2018-08-05T14:16:54Z</time>
      </trkpt>
      <trkpt lat="43.998" lon="7.51927">
        <ele>568.49</ele>
        <time>2018-08-05T14:16:59Z</time>
      </trkpt>
      <trkpt lat="43.99785" lon="7.51978">
        <ele>564.73</ele>
        <time>2018-08-05T14:17:02Z</time>
      </trkpt>
      <trkpt lat="43.99772" lon="7.52013">
        <ele>561.11</ele>
        <time>2018-08-05T14:17:04Z</time>
      </trkpt>
      <trkpt lat="43.99765" lon="7.52029">
        <ele>559.88</ele>
        <time>2018-08-05T14:17:05Z</time>
      </trkpt>
      <trkpt lat="43.99732" lon="7.52091">
        <ele>557.47</ele>
        <time>2018-08-05T14:17:09Z</time>
      </trkpt>
      <trkpt lat="43.99718" lon="7.52124">
        <ele>556.62</ele>
        <time>2018-08-05T14:17:11Z</time>
      </trkpt>
      <trkpt lat="43.99701" lon="7.52168">
        <ele>554.5</ele>
        <time>2018-08-05T14:17:14Z</time>
      </trkpt>
      <trkpt lat="43.99699" lon="7.52184">
        <ele>554.29</ele>
        <time>2018-08-05T14:17:15Z</time>
      </trkpt>
      <trkpt lat="43.99692" lon="7.52252">
        <ele>553.44</ele>
        <time>2018-08-05T14:17:19Z</time>
      </trkpt>
      <trkpt lat="43.99692" lon="7.52267">
        <ele>552.97</ele>
        <time>2018-08-05T14:17:20Z</time>
      </trkpt>
      <trkpt lat="43.99693" lon="7.523">
        <ele>551.92</ele>
        <time>2018-08-05T14:17:22Z</time>
      </trkpt>
      <trkpt lat="43.99692" lon="7.52318">
        <ele>551.51</ele>
        <time>2018-08-05T14:17:23Z</time>
      </trkpt>
      <trkpt lat="43.99684" lon="7.52376">
        <ele>547.89</ele>
        <time>2018-08-05T14:17:26Z</time>
      </trkpt>
      <trkpt lat="43.99666" lon="7.52441">
        <ele>544.64</ele>
        <time>2018-08-05T14:17:29Z</time>
      </trkpt>
      <trkpt lat="43.99638" lon="7.52517">
        <ele>540.23</ele>
        <time>2018-08-05T14:17:33Z</time>
      </trkpt>
      <trkpt lat="43.99626" lon="7.52547">
        <ele>535.34</ele>
        <time>2018-08-05T14:17:35Z</time>
      </trkpt>
      <trkpt lat="43.99618" lon="7.52575">
        <ele>532.07</ele>
        <time>2018-08-05T14:17:37Z</time>
      </trkpt>
      <trkpt lat="43.99616" lon="7.52592">
        <ele>531.65</ele>
        <time>2018-08-05T14:17:38Z</time>
      </trkpt>
      <trkpt lat="43.99606" lon="7.5266">
        <ele>528.45</ele>
        <time>2018-08-05T14:17:42Z</time>
      </trkpt>
      <trkpt lat="43.99603" lon="7.52676">
        <ele>528.28</ele>
        <time>2018-08-05T14:17:43Z</time>
      </trkpt>
      <trkpt lat="43.9959" lon="7.52721">
        <ele>527.07</ele>
        <time>2018-08-05T14:17:46Z</time>
      </trkpt>
      <trkpt lat="43.99585" lon="7.52734">
        <ele>526.58</ele>
        <time>2018-08-05T14:17:47Z</time>
      </trkpt>
      <trkpt lat="43.99581" lon="7.52748">
        <ele>526.43</ele>
        <time>2018-08-05T14:17:48Z</time>
      </trkpt>
      <trkpt lat="43.99579" lon="7.52761">
        <ele>526.39</ele>
        <time>2018-08-05T14:17:49Z</time>
      </trkpt>
      <trkpt lat="43.99579" lon="7.52776">
        <ele>526.39</ele>
        <time>2018-08-05T14:17:50Z</time>
      </trkpt>
      <trkpt lat="43.9958" lon="7.52792">
        <ele>527.2</ele>
        <time>2018-08-05T14:17:51Z</time>
      </trkpt>
      <trkpt lat="43.99582" lon="7.5281">
        <ele>528.26</ele>
        <time>2018-08-05T14:17:52Z</time>
      </trkpt>
      <trkpt lat="43.99584" lon="7.52862">
        <ele>529</ele>
        <time>2018-08-05T14:17:55Z</time>
      </trkpt>
      <trkpt lat="43.99582" lon="7.52879">
        <ele>528.6</ele>
        <time>2018-08-05T14:17:56Z</time>
      </trkpt>
      <trkpt lat="43.99581" lon="7.52911">
        <ele>526.82</ele>
        <time>2018-08-05T14:17:58Z</time>
      </trkpt>
      <trkpt lat="43.99581" lon="7.5294">
        <ele>524.37</ele>
        <time>2018-08-05T14:18:00Z</time>
      </trkpt>
      <trkpt lat="43.99578" lon="7.52954">
        <ele>523.04</ele>
        <time>2018-08-05T14:18:01Z</time>
      </trkpt>
      <trkpt lat="43.99573" lon="7.52967">
        <ele>522.58</ele>
        <time>2018-08-05T14:18:02Z</time>
      </trkpt>
      <trkpt lat="43.99561" lon="7.52995">
        <ele>521.31</ele>
        <time>2018-08-05T14:18:04Z</time>
      </trkpt>
      <trkpt lat="43.99557" lon="7.5301">
        <ele>520.26</ele>
        <time>2018-08-05T14:18:05Z</time>
      </trkpt>
      <trkpt lat="43.9955" lon="7.53047">
        <ele>519.27</ele>
        <time>2018-08-05T14:18:07Z</time>
      </trkpt>
      <trkpt lat="43.99544" lon="7.53066">
        <ele>518.77</ele>
        <time>2018-08-05T14:18:08Z</time>
      </trkpt>
      <trkpt lat="43.99526" lon="7.53121">
        <ele>515.24</ele>
        <time>2018-08-05T14:18:11Z</time>
      </trkpt>
      <trkpt lat="43.99523" lon="7.5314">
        <ele>514.81</ele>
        <time>2018-08-05T14:18:12Z</time>
      </trkpt>
      <trkpt lat="43.99521" lon="7.5316">
        <ele>514.52</ele>
        <time>2018-08-05T14:18:13Z</time>
      </trkpt>
      <trkpt lat="43.99492" lon="7.53331">
        <ele>511.46</ele>
        <time>2018-08-05T14:18:22Z</time>
      </trkpt>
      <trkpt lat="43.99487" lon="7.53347">
        <ele>510.97</ele>
        <time>2018-08-05T14:18:23Z</time>
      </trkpt>
      <trkpt lat="43.9948" lon="7.53362">
        <ele>510.27</ele>
        <time>2018-08-05T14:18:24Z</time>
      </trkpt>
      <trkpt lat="43.99472" lon="7.53376">
        <ele>509.54</ele>
        <time>2018-08-05T14:18:25Z</time>
      </trkpt>
      <trkpt lat="43.99465" lon="7.53388">
        <ele>507.74</ele>
        <time>2018-08-05T14:18:26Z</time>
      </trkpt>
      <trkpt lat="43.9946" lon="7.53399">
        <ele>505.52</ele>
        <time>2018-08-05T14:18:27Z</time>
      </trkpt>
      <trkpt lat="43.99456" lon="7.53411">
        <ele>502.83</ele>
        <time>2018-08-05T14:18:28Z</time>
      </trkpt>
      <trkpt lat="43.99447" lon="7.53458">
        <ele>499.25</ele>
        <time>2018-08-05T14:18:31Z</time>
      </trkpt>
      <trkpt lat="43.99443" lon="7.53473">
        <ele>497.81</ele>
        <time>2018-08-05T14:18:32Z</time>
      </trkpt>
      <trkpt lat="43.99437" lon="7.53486">
        <ele>496.48</ele>
        <time>2018-08-05T14:18:33Z</time>
      </trkpt>
      <trkpt lat="43.99429" lon="7.53497">
        <ele>495.23</ele>
        <time>2018-08-05T14:18:34Z</time>
      </trkpt>
      <trkpt lat="43.99421" lon="7.53506">
        <ele>494.07</ele>
        <time>2018-08-05T14:18:35Z</time>
      </trkpt>
      <trkpt lat="43.99408" lon="7.53575">
        <ele>489.9</ele>
        <time>2018-08-05T14:18:40Z</time>
      </trkpt>
      <trkpt lat="43.99404" lon="7.53698">
        <ele>489.21</ele>
        <time>2018-08-05T14:18:46Z</time>
      </trkpt>
      <trkpt lat="43.99391" lon="7.53773">
        <ele>486.57</ele>
        <time>2018-08-05T14:18:50Z</time>
      </trkpt>
      <trkpt lat="43.99376" lon="7.53823">
        <ele>482.78</ele>
        <time>2018-08-05T14:18:53Z</time>
      </trkpt>
      <trkpt lat="43.99352" lon="7.53962">
        <ele>478.98</ele>
        <time>2018-08-05T14:19:00Z</time>
      </trkpt>
      <trkpt lat="43.99341" lon="7.54027">
        <ele>475.3</ele>
        <time>2018-08-05T14:19:03Z</time>
      </trkpt>
      <trkpt lat="43.99337" lon="7.54046">
        <ele>473.33</ele>
        <time>2018-08-05T14:19:04Z</time>
      </trkpt>
      <trkpt lat="43.99332" lon="7.54062">
        <ele>472.65</ele>
        <time>2018-08-05T14:19:05Z</time>
      </trkpt>
      <trkpt lat="43.99327" lon="7.54078">
        <ele>472.37</ele>
        <time>2018-08-05T14:19:06Z</time>
      </trkpt>
      <trkpt lat="43.99323" lon="7.54094">
        <ele>471.91</ele>
        <time>2018-08-05T14:19:07Z</time>
      </trkpt>
      <trkpt lat="43.99321" lon="7.54113">
        <ele>471.8</ele>
        <time>2018-08-05T14:19:08Z</time>
      </trkpt>
      <trkpt lat="43.99319" lon="7.54134">
        <ele>471.67</ele>
        <time>2018-08-05T14:19:09Z</time>
      </trkpt>
      <trkpt lat="43.99308" lon="7.54214">
        <ele>468.3</ele>
        <time>2018-08-05T14:19:13Z</time>
      </trkpt>
      <trkpt lat="43.99292" lon="7.54307">
        <ele>465.05</ele>
        <time>2018-08-05T14:19:18Z</time>
      </trkpt>
      <trkpt lat="43.99284" lon="7.54357">
        <ele>462.75</ele>
        <time>2018-08-05T14:19:21Z</time>
      </trkpt>
      <trkpt lat="43.99283" lon="7.54374">
        <ele>462.66</ele>
        <time>2018-08-05T14:19:22Z</time>
      </trkpt>
      <trkpt lat="43.99283" lon="7.54391">
        <ele>462.64</ele>
        <time>2018-08-05T14:19:23Z</time>
      </trkpt>
      <trkpt lat="43.99282" lon="7.54472">
        <ele>460.98</ele>
        <time>2018-08-05T14:19:28Z</time>
      </trkpt>
      <trkpt lat="43.99281" lon="7.54498">
        <ele>460.28</ele>
        <time>2018-08-05T14:19:30Z</time>
      </trkpt>
      <trkpt lat="43.99284" lon="7.54508">
        <ele>460.16</ele>
        <time>2018-08-05T14:19:31Z</time>
      </trkpt>
      <trkpt lat="43.9929" lon="7.54518">
        <ele>460.03</ele>
        <time>2018-08-05T14:19:32Z</time>
      </trkpt>
      <trkpt lat="43.99328" lon="7.54576">
        <ele>458.47</ele>
        <time>2018-08-05T14:19:37Z</time>
      </trkpt>
      <trkpt lat="43.99334" lon="7.54591">
        <ele>458.3</ele>
        <time>2018-08-05T14:19:38Z</time>
      </trkpt>
      <trkpt lat="43.99406" lon="7.54781">
        <ele>456.03</ele>
        <time>2018-08-05T14:19:49Z</time>
      </trkpt>
      <trkpt lat="43.99409" lon="7.54799">
        <ele>455.65</ele>
        <time>2018-08-05T14:19:50Z</time>
      </trkpt>
      <trkpt lat="43.99423" lon="7.54871">
        <ele>452.24</ele>
        <time>2018-08-05T14:19:54Z</time>
      </trkpt>
      <trkpt lat="43.99437" lon="7.54922">
        <ele>450.98</ele>
        <time>2018-08-05T14:19:58Z</time>
      </trkpt>
      <trkpt lat="43.99443" lon="7.5493">
        <ele>451.17</ele>
        <time>2018-08-05T14:19:59Z</time>
      </trkpt>
      <trkpt lat="43.99451" lon="7.54937">
        <ele>451.69</ele>
        <time>2018-08-05T14:20:00Z</time>
      </trkpt>
      <trkpt lat="43.9946" lon="7.54943">
        <ele>452.36</ele>
        <time>2018-08-05T14:20:01Z</time>
      </trkpt>
      <trkpt lat="43.9947" lon="7.54948">
        <ele>453.01</ele>
        <time>2018-08-05T14:20:02Z</time>
      </trkpt>
      <trkpt lat="43.99479" lon="7.54952">
        <ele>453.1</ele>
        <time>2018-08-05T14:20:03Z</time>
      </trkpt>
      <trkpt lat="43.99488" lon="7.54955">
        <ele>453.22</ele>
        <time>2018-08-05T14:20:04Z</time>
      </trkpt>
      <trkpt lat="43.99496" lon="7.54956">
        <ele>453.12</ele>
        <time>2018-08-05T14:20:05Z</time>
      </trkpt>
      <trkpt lat="43.99504" lon="7.54957">
        <ele>452.87</ele>
        <time>2018-08-05T14:20:06Z</time>
      </trkpt>
      <trkpt lat="43.99512" lon="7.54957">
        <ele>452.87</ele>
        <time>2018-08-05T14:20:07Z</time>
      </trkpt>
      <trkpt lat="43.99524" lon="7.54957">
        <ele>452.62</ele>
        <time>2018-08-05T14:20:09Z</time>
      </trkpt>
      <trkpt lat="43.99528" lon="7.54958">
        <ele>452.2</ele>
        <time>2018-08-05T14:20:10Z</time>
      </trkpt>
      <trkpt lat="43.99529" lon="7.54959">
        <ele>451.88</ele>
        <time>2018-08-05T14:20:11Z</time>
      </trkpt>
      <trkpt lat="43.99529" lon="7.54957">
        <ele>451.13</ele>
        <time>2018-08-05T14:20:35Z</time>
      </trkpt>
      <trkpt lat="43.99529" lon="7.54957">
        <ele>448.99</ele>
        <time>2018-08-05T14:21:48Z</time>
      </trkpt>
      <trkpt lat="43.99529" lon="7.54965">
        <ele>448.91</ele>
        <time>2018-08-05T14:21:57Z</time>
      </trkpt>
      <trkpt lat="43.99527" lon="7.54971">
        <ele>448.6</ele>
        <time>2018-08-05T14:21:58Z</time>
      </trkpt>
      <trkpt lat="43.99517" lon="7.54984">
        <ele>447.83</ele>
        <time>2018-08-05T14:22:07Z</time>
      </trkpt>
      <trkpt lat="43.99517" lon="7.54987">
        <ele>445.33</ele>
        <time>2018-08-05T14:24:19Z</time>
      </trkpt>
      <trkpt lat="43.99516" lon="7.54986">
        <ele>443.34</ele>
        <time>2018-08-05T14:26:07Z</time>
      </trkpt>
      <trkpt lat="43.99517" lon="7.54988">
        <ele>441.27</ele>
        <time>2018-08-05T14:28:18Z</time>
      </trkpt>
      <trkpt lat="43.99518" lon="7.54985">
        <ele>439.62</ele>
        <time>2018-08-05T14:30:22Z</time>
      </trkpt>
      <trkpt lat="43.99518" lon="7.54984">
        <ele>438.04</ele>
        <time>2018-08-05T14:32:16Z</time>
      </trkpt>
      <trkpt lat="43.99518" lon="7.54984">
        <ele>438.18</ele>
        <time>2018-08-05T14:32:38Z</time>
      </trkpt>
      <trkpt lat="43.99533" lon="7.54974">
        <ele>438.43</ele>
        <time>2018-08-05T14:32:48Z</time>
      </trkpt>
      <trkpt lat="43.99532" lon="7.54971">
        <ele>438.4</ele>
        <time>2018-08-05T14:32:49Z</time>
      </trkpt>
      <trkpt lat="43.99531" lon="7.54968">
        <ele>438.1</ele>
        <time>2018-08-05T14:33:12Z</time>
      </trkpt>
      <trkpt lat="43.9953" lon="7.54967">
        <ele>438.04</ele>
        <time>2018-08-05T14:33:16Z</time>
      </trkpt>
      <trkpt lat="43.99527" lon="7.54965">
        <ele>438.28</ele>
        <time>2018-08-05T14:33:17Z</time>
      </trkpt>
      <trkpt lat="43.99521" lon="7.54963">
        <ele>438.38</ele>
        <time>2018-08-05T14:33:18Z</time>
      </trkpt>
      <trkpt lat="43.99511" lon="7.54964">
        <ele>438.58</ele>
        <time>2018-08-05T14:33:19Z</time>
      </trkpt>
      <trkpt lat="43.99499" lon="7.54966">
        <ele>438.62</ele>
        <time>2018-08-05T14:33:20Z</time>
      </trkpt>
      <trkpt lat="43.99489" lon="7.54968">
        <ele>438.1</ele>
        <time>2018-08-05T14:33:21Z</time>
      </trkpt>
      <trkpt lat="43.99442" lon="7.54975">
        <ele>435.21</ele>
        <time>2018-08-05T14:33:25Z</time>
      </trkpt>
      <trkpt lat="43.9943" lon="7.54973">
        <ele>434.55</ele>
        <time>2018-08-05T14:33:26Z</time>
      </trkpt>
      <trkpt lat="43.99419" lon="7.54966">
        <ele>434.64</ele>
        <time>2018-08-05T14:33:27Z</time>
      </trkpt>
      <trkpt lat="43.99408" lon="7.54957">
        <ele>434.26</ele>
        <time>2018-08-05T14:33:28Z</time>
      </trkpt>
      <trkpt lat="43.99398" lon="7.54946">
        <ele>433.48</ele>
        <time>2018-08-05T14:33:29Z</time>
      </trkpt>
      <trkpt lat="43.99348" lon="7.54883">
        <ele>433.29</ele>
        <time>2018-08-05T14:33:34Z</time>
      </trkpt>
      <trkpt lat="43.99339" lon="7.54868">
        <ele>432.74</ele>
        <time>2018-08-05T14:33:35Z</time>
      </trkpt>
      <trkpt lat="43.99276" lon="7.54759">
        <ele>431.33</ele>
        <time>2018-08-05T14:33:43Z</time>
      </trkpt>
      <trkpt lat="43.99265" lon="7.54748">
        <ele>430.4</ele>
        <time>2018-08-05T14:33:44Z</time>
      </trkpt>
      <trkpt lat="43.99252" lon="7.5474">
        <ele>429.64</ele>
        <time>2018-08-05T14:33:45Z</time>
      </trkpt>
      <trkpt lat="43.99239" lon="7.54734">
        <ele>428.6</ele>
        <time>2018-08-05T14:33:46Z</time>
      </trkpt>
      <trkpt lat="43.99226" lon="7.5473">
        <ele>427.7</ele>
        <time>2018-08-05T14:33:47Z</time>
      </trkpt>
      <trkpt lat="43.99213" lon="7.54727">
        <ele>426.65</ele>
        <time>2018-08-05T14:33:48Z</time>
      </trkpt>
      <trkpt lat="43.99186" lon="7.54716">
        <ele>424.83</ele>
        <time>2018-08-05T14:33:50Z</time>
      </trkpt>
      <trkpt lat="43.99173" lon="7.54707">
        <ele>424.25</ele>
        <time>2018-08-05T14:33:51Z</time>
      </trkpt>
      <trkpt lat="43.99149" lon="7.54691">
        <ele>423.44</ele>
        <time>2018-08-05T14:33:53Z</time>
      </trkpt>
      <trkpt lat="43.99076" lon="7.54654">
        <ele>421.68</ele>
        <time>2018-08-05T14:33:59Z</time>
      </trkpt>
      <trkpt lat="43.99062" lon="7.54652">
        <ele>421.86</ele>
        <time>2018-08-05T14:34:00Z</time>
      </trkpt>
      <trkpt lat="43.99047" lon="7.54656">
        <ele>421.96</ele>
        <time>2018-08-05T14:34:01Z</time>
      </trkpt>
      <trkpt lat="43.9903" lon="7.54664">
        <ele>422.83</ele>
        <time>2018-08-05T14:34:02Z</time>
      </trkpt>
      <trkpt lat="43.99012" lon="7.54674">
        <ele>422.69</ele>
        <time>2018-08-05T14:34:03Z</time>
      </trkpt>
      <trkpt lat="43.98996" lon="7.54686">
        <ele>421.91</ele>
        <time>2018-08-05T14:34:04Z</time>
      </trkpt>
      <trkpt lat="43.98982" lon="7.54701">
        <ele>420.18</ele>
        <time>2018-08-05T14:34:05Z</time>
      </trkpt>
      <trkpt lat="43.98969" lon="7.54711">
        <ele>418.99</ele>
        <time>2018-08-05T14:34:06Z</time>
      </trkpt>
      <trkpt lat="43.98931" lon="7.54734">
        <ele>416.28</ele>
        <time>2018-08-05T14:34:09Z</time>
      </trkpt>
      <trkpt lat="43.98918" lon="7.54738">
        <ele>416.47</ele>
        <time>2018-08-05T14:34:10Z</time>
      </trkpt>
      <trkpt lat="43.98904" lon="7.54739">
        <ele>416.49</ele>
        <time>2018-08-05T14:34:11Z</time>
      </trkpt>
      <trkpt lat="43.9889" lon="7.54739">
        <ele>415.89</ele>
        <time>2018-08-05T14:34:12Z</time>
      </trkpt>
      <trkpt lat="43.98877" lon="7.54738">
        <ele>415.42</ele>
        <time>2018-08-05T14:34:13Z</time>
      </trkpt>
      <trkpt lat="43.9878" lon="7.5473">
        <ele>412.66</ele>
        <time>2018-08-05T14:34:20Z</time>
      </trkpt>
      <trkpt lat="43.98767" lon="7.54724">
        <ele>412.09</ele>
        <time>2018-08-05T14:34:21Z</time>
      </trkpt>
      <trkpt lat="43.98755" lon="7.54717">
        <ele>411.39</ele>
        <time>2018-08-05T14:34:22Z</time>
      </trkpt>
      <trkpt lat="43.98743" lon="7.54709">
        <ele>411.3</ele>
        <time>2018-08-05T14:34:23Z</time>
      </trkpt>
      <trkpt lat="43.9869" lon="7.54679">
        <ele>409.86</ele>
        <time>2018-08-05T14:34:27Z</time>
      </trkpt>
      <trkpt lat="43.98581" lon="7.54642">
        <ele>406.29</ele>
        <time>2018-08-05T14:34:35Z</time>
      </trkpt>
      <trkpt lat="43.98538" lon="7.5463">
        <ele>404.97</ele>
        <time>2018-08-05T14:34:38Z</time>
      </trkpt>
      <trkpt lat="43.98442" lon="7.54604">
        <ele>400.92</ele>
        <time>2018-08-05T14:34:45Z</time>
      </trkpt>
      <trkpt lat="43.9836" lon="7.54581">
        <ele>397.57</ele>
        <time>2018-08-05T14:34:51Z</time>
      </trkpt>
      <trkpt lat="43.98341" lon="7.54575">
        <ele>395.86</ele>
        <time>2018-08-05T14:34:52Z</time>
      </trkpt>
      <trkpt lat="43.98219" lon="7.5457">
        <ele>392.21</ele>
        <time>2018-08-05T14:34:58Z</time>
      </trkpt>
      <trkpt lat="43.98188" lon="7.54554">
        <ele>391.35</ele>
        <time>2018-08-05T14:35:00Z</time>
      </trkpt>
      <trkpt lat="43.97998" lon="7.54486">
        <ele>391.38</ele>
        <time>2018-08-05T14:35:13Z</time>
      </trkpt>
      <trkpt lat="43.97814" lon="7.54441">
        <ele>389.45</ele>
        <time>2018-08-05T14:35:25Z</time>
      </trkpt>
      <trkpt lat="43.97721" lon="7.54419">
        <ele>386.8</ele>
        <time>2018-08-05T14:35:31Z</time>
      </trkpt>
      <trkpt lat="43.97614" lon="7.54393">
        <ele>383.9</ele>
        <time>2018-08-05T14:35:38Z</time>
      </trkpt>
      <trkpt lat="43.97536" lon="7.54374">
        <ele>380.84</ele>
        <time>2018-08-05T14:35:43Z</time>
      </trkpt>
      <trkpt lat="43.97505" lon="7.54366">
        <ele>379.72</ele>
        <time>2018-08-05T14:35:45Z</time>
      </trkpt>
      <trkpt lat="43.97474" lon="7.54359">
        <ele>378.53</ele>
        <time>2018-08-05T14:35:47Z</time>
      </trkpt>
      <trkpt lat="43.97439" lon="7.53961">
        <ele>378.99</ele>
        <time>2018-08-05T14:35:57Z</time>
      </trkpt>
      <trkpt lat="43.97366" lon="7.53912">
        <ele>382.33</ele>
        <time>2018-08-05T14:36:02Z</time>
      </trkpt>
      <trkpt lat="43.97338" lon="7.53896">
        <ele>383.7</ele>
        <time>2018-08-05T14:36:04Z</time>
      </trkpt>
      <trkpt lat="43.97177" lon="7.53829">
        <ele>383.16</ele>
        <time>2018-08-05T14:36:15Z</time>
      </trkpt>
      <trkpt lat="43.97105" lon="7.53771">
        <ele>379.83</ele>
        <time>2018-08-05T14:36:20Z</time>
      </trkpt>
      <trkpt lat="43.9706" lon="7.53709">
        <ele>376.33</ele>
        <time>2018-08-05T14:36:24Z</time>
      </trkpt>
      <trkpt lat="43.9705" lon="7.53692">
        <ele>376.33</ele>
        <time>2018-08-05T14:36:25Z</time>
      </trkpt>
      <trkpt lat="43.97016" lon="7.53617">
        <ele>373.34</ele>
        <time>2018-08-05T14:36:29Z</time>
      </trkpt>
      <trkpt lat="43.96994" lon="7.53559">
        <ele>370.99</ele>
        <time>2018-08-05T14:36:32Z</time>
      </trkpt>
      <trkpt lat="43.96967" lon="7.53476">
        <ele>367.77</ele>
        <time>2018-08-05T14:36:36Z</time>
      </trkpt>
      <trkpt lat="43.9696" lon="7.53453">
        <ele>367.96</ele>
        <time>2018-08-05T14:36:37Z</time>
      </trkpt>
      <trkpt lat="43.96911" lon="7.532">
        <ele>367.09</ele>
        <time>2018-08-05T14:36:45Z</time>
      </trkpt>
      <trkpt lat="43.96903" lon="7.53169">
        <ele>365.83</ele>
        <time>2018-08-05T14:36:46Z</time>
      </trkpt>
      <trkpt lat="43.96893" lon="7.53141">
        <ele>364.34</ele>
        <time>2018-08-05T14:36:47Z</time>
      </trkpt>
      <trkpt lat="43.96882" lon="7.53114">
        <ele>363.72</ele>
        <time>2018-08-05T14:36:48Z</time>
      </trkpt>
      <trkpt lat="43.9687" lon="7.53089">
        <ele>363.3</ele>
        <time>2018-08-05T14:36:49Z</time>
      </trkpt>
      <trkpt lat="43.96856" lon="7.53065">
        <ele>362.3</ele>
        <time>2018-08-05T14:36:50Z</time>
      </trkpt>
      <trkpt lat="43.96842" lon="7.53041">
        <ele>363.09</ele>
        <time>2018-08-05T14:36:51Z</time>
      </trkpt>
      <trkpt lat="43.96675" lon="7.52731">
        <ele>362.51</ele>
        <time>2018-08-05T14:37:03Z</time>
      </trkpt>
      <trkpt lat="43.96571" lon="7.52554">
        <ele>359.46</ele>
        <time>2018-08-05T14:37:10Z</time>
      </trkpt>
      <trkpt lat="43.96431" lon="7.52438">
        <ele>356.81</ele>
        <time>2018-08-05T14:37:17Z</time>
      </trkpt>
      <trkpt lat="43.96386" lon="7.52415">
        <ele>355.17</ele>
        <time>2018-08-05T14:37:19Z</time>
      </trkpt>
      <trkpt lat="43.96147" lon="7.52278">
        <ele>351.6</ele>
        <time>2018-08-05T14:37:30Z</time>
      </trkpt>
      <trkpt lat="43.96038" lon="7.52237">
        <ele>348.25</ele>
        <time>2018-08-05T14:37:35Z</time>
      </trkpt>
      <trkpt lat="43.95966" lon="7.52212">
        <ele>344.42</ele>
        <time>2018-08-05T14:37:39Z</time>
      </trkpt>
      <trkpt lat="43.95926" lon="7.52188">
        <ele>342.91</ele>
        <time>2018-08-05T14:37:42Z</time>
      </trkpt>
      <trkpt lat="43.95821" lon="7.52105">
        <ele>341.04</ele>
        <time>2018-08-05T14:37:54Z</time>
      </trkpt>
      <trkpt lat="43.95758" lon="7.52069">
        <ele>342.44</ele>
        <time>2018-08-05T14:38:01Z</time>
      </trkpt>
      <trkpt lat="43.95746" lon="7.52068">
        <ele>342.99</ele>
        <time>2018-08-05T14:38:02Z</time>
      </trkpt>
      <trkpt lat="43.95733" lon="7.52067">
        <ele>343.31</ele>
        <time>2018-08-05T14:38:03Z</time>
      </trkpt>
      <trkpt lat="43.95561" lon="7.52083">
        <ele>343.07</ele>
        <time>2018-08-05T14:38:14Z</time>
      </trkpt>
      <trkpt lat="43.95516" lon="7.52074">
        <ele>341.72</ele>
        <time>2018-08-05T14:38:17Z</time>
      </trkpt>
      <trkpt lat="43.95502" lon="7.52067">
        <ele>341.47</ele>
        <time>2018-08-05T14:38:18Z</time>
      </trkpt>
      <trkpt lat="43.95489" lon="7.52057">
        <ele>341.46</ele>
        <time>2018-08-05T14:38:19Z</time>
      </trkpt>
      <trkpt lat="43.95477" lon="7.52045">
        <ele>341.74</ele>
        <time>2018-08-05T14:38:20Z</time>
      </trkpt>
      <trkpt lat="43.95466" lon="7.52032">
        <ele>341.67</ele>
        <time>2018-08-05T14:38:21Z</time>
      </trkpt>
      <trkpt lat="43.95454" lon="7.52021">
        <ele>341.5</ele>
        <time>2018-08-05T14:38:22Z</time>
      </trkpt>
      <trkpt lat="43.95441" lon="7.52012">
        <ele>341.7</ele>
        <time>2018-08-05T14:38:23Z</time>
      </trkpt>
      <trkpt lat="43.95428" lon="7.52006">
        <ele>341.4</ele>
        <time>2018-08-05T14:38:24Z</time>
      </trkpt>
      <trkpt lat="43.95414" lon="7.52001">
        <ele>341.26</ele>
        <time>2018-08-05T14:38:25Z</time>
      </trkpt>
      <trkpt lat="43.95399" lon="7.51998">
        <ele>341.35</ele>
        <time>2018-08-05T14:38:26Z</time>
      </trkpt>
      <trkpt lat="43.95267" lon="7.51941">
        <ele>344.7</ele>
        <time>2018-08-05T14:38:37Z</time>
      </trkpt>
      <trkpt lat="43.95217" lon="7.5191">
        <ele>347.9</ele>
        <time>2018-08-05T14:38:42Z</time>
      </trkpt>
      <trkpt lat="43.9515" lon="7.51877">
        <ele>351.72</ele>
        <time>2018-08-05T14:38:48Z</time>
      </trkpt>
      <trkpt lat="43.9511" lon="7.51864">
        <ele>354.87</ele>
        <time>2018-08-05T14:38:51Z</time>
      </trkpt>
      <trkpt lat="43.95096" lon="7.51862">
        <ele>316.02</ele>
      </trkpt>
      <trkpt lat="43.95091" lon="7.51803">
        <ele>329.11</ele>
      </trkpt>
      <trkpt lat="43.95002" lon="7.51748">
        <ele>335.68</ele>
      </trkpt>
      <trkpt lat="43.95085" lon="7.51748">
        <ele>341.18</ele>
      </trkpt>
      <trkpt lat="43.95174" lon="7.51717">
        <ele>348.86</ele>
      </trkpt>
      <trkpt lat="43.95277" lon="7.51702">
        <ele>345.37</ele>
      </trkpt>
      <trkpt lat="43.95336" lon="7.51573">
        <ele>347.65</ele>
      </trkpt>
      <trkpt lat="43.95412" lon="7.51472">
        <ele>348.08</ele>
      </trkpt>
      <trkpt lat="43.95441" lon="7.51409">
        <ele>353.55</ele>
      </trkpt>
      <trkpt lat="43.95341" lon="7.51495">
        <ele>369.64</ele>
      </trkpt>
      <trkpt lat="43.95282" lon="7.51573">
        <ele>368.12</ele>
      </trkpt>
      <trkpt lat="43.95199" lon="7.51565">
        <ele>385.45</ele>
      </trkpt>
      <trkpt lat="43.95064" lon="7.51565">
        <ele>394.32</ele>
      </trkpt>
      <trkpt lat="43.94999" lon="7.5153">
        <ele>405.03</ele>
      </trkpt>
      <trkpt lat="43.94913" lon="7.51526">
        <ele>403.6</ele>
      </trkpt>
      <trkpt lat="43.94924" lon="7.51425">
        <ele>428.32</ele>
      </trkpt>
      <trkpt lat="43.94918" lon="7.5137">
        <ele>431.38</ele>
      </trkpt>
      <trkpt lat="43.94899" lon="7.51281">
        <ele>437.38</ele>
      </trkpt>
      <trkpt lat="43.94829" lon="7.51265">
        <ele>420.33</ele>
      </trkpt>
      <trkpt lat="43.94727" lon="7.51176">
        <ele>436.66</ele>
      </trkpt>
      <trkpt lat="43.94692" lon="7.51133">
        <ele>443.47</ele>
      </trkpt>
      <trkpt lat="43.94603" lon="7.51098">
        <ele>442.51</ele>
      </trkpt>
      <trkpt lat="43.94514" lon="7.51031">
        <ele>452.65</ele>
      </trkpt>
      <trkpt lat="43.94431" lon="7.50981">
        <ele>456.09</ele>
      </trkpt>
      <trkpt lat="43.9432" lon="7.50938">
        <ele>457.2</ele>
      </trkpt>
      <trkpt lat="43.94307" lon="7.50875">
        <ele>470.89</ele>
      </trkpt>
      <trkpt lat="43.94277" lon="7.50755">
        <ele>480.77</ele>
      </trkpt>
      <trkpt lat="43.94255" lon="7.50653">
        <ele>485.55</ele>
      </trkpt>
      <trkpt lat="43.94239" lon="7.50556">
        <ele>488.65</ele>
      </trkpt>
      <trkpt lat="43.94263" lon="7.50404">
        <ele>503.71</ele>
      </trkpt>
      <trkpt lat="43.94258" lon="7.50224">
        <ele>504.82</ele>
      </trkpt>
      <trkpt lat="43.94259" lon="7.50171">
        <ele>495.6</ele>
        <time>2017-01-17T22:16:37Z</time>
      </trkpt>
      <trkpt lat="43.94381" lon="7.49178">
        <ele>568.1</ele>
        <time>2017-01-17T22:16:17Z</time>
      </trkpt>
      <trkpt lat="43.94351" lon="7.491">
        <ele>579.7</ele>
        <time>2017-01-17T22:15:57Z</time>
      </trkpt>
      <trkpt lat="43.94265" lon="7.49263">
        <ele>555.7</ele>
        <time>2017-01-17T22:15:37Z</time>
      </trkpt>
      <trkpt lat="43.94031" lon="7.49232">
        <ele>577</ele>
        <time>2017-01-17T22:15:17Z</time>
      </trkpt>
      <trkpt lat="43.93853" lon="7.48921">
        <ele>602.4</ele>
        <time>2017-01-17T22:14:57Z</time>
      </trkpt>
      <trkpt lat="43.93681" lon="7.48329">
        <ele>633.1</ele>
        <time>2017-01-17T22:14:37Z</time>
      </trkpt>
      <trkpt lat="43.93859" lon="7.47924">
        <ele>686.2</ele>
        <time>2017-01-17T22:14:17Z</time>
      </trkpt>
      <trkpt lat="43.93809" lon="7.4785">
        <ele>689.7</ele>
        <time>2017-01-17T22:13:57Z</time>
      </trkpt>
      <trkpt lat="43.93668" lon="7.47971">
        <ele>679.8</ele>
        <time>2017-01-17T22:13:37Z</time>
      </trkpt>
      <trkpt lat="43.93549" lon="7.47836">
        <ele>716.4</ele>
        <time>2017-01-17T22:13:17Z</time>
      </trkpt>
      <trkpt lat="43.93486" lon="7.48005">
        <ele>697.1</ele>
        <time>2017-01-17T22:12:57Z</time>
      </trkpt>
      <trkpt lat="43.93325" lon="7.47786">
        <ele>741.9</ele>
        <time>2017-01-17T22:12:37Z</time>
      </trkpt>
      <trkpt lat="43.93071" lon="7.4778">
        <ele>747.2</ele>
        <time>2017-01-17T22:12:17Z</time>
      </trkpt>
      <trkpt lat="43.92863" lon="7.47495">
        <ele>795.6</ele>
        <time>2017-01-17T22:11:57Z</time>
      </trkpt>
      <trkpt lat="43.92609" lon="7.47514">
        <ele>808.9</ele>
        <time>2017-01-17T22:11:37Z</time>
      </trkpt>
      <trkpt lat="43.92728" lon="7.47375">
        <ele>850.2</ele>
        <time>2017-01-17T22:11:17Z</time>
      </trkpt>
      <trkpt lat="43.92643" lon="7.47381">
        <ele>866.9</ele>
        <time>2017-01-17T22:10:57Z</time>
      </trkpt>
      <trkpt lat="43.92453" lon="7.47632">
        <ele>871.7</ele>
        <time>2017-01-17T22:10:37Z</time>
      </trkpt>
      <trkpt lat="43.92378" lon="7.48046">
        <ele>901.1</ele>
        <time>2017-01-17T22:10:17Z</time>
      </trkpt>
      <trkpt lat="43.92142" lon="7.48121">
        <ele>900.6</ele>
        <time>2017-01-17T22:09:57Z</time>
      </trkpt>
      <trkpt lat="43.92373" lon="7.48857">
        <ele>923.7</ele>
        <time>2017-01-17T22:09:37Z</time>
      </trkpt>
      <trkpt lat="43.91974" lon="7.48758">
        <ele>868.4</ele>
        <time>2017-01-17T22:09:17Z</time>
      </trkpt>
      <trkpt lat="43.91952" lon="7.48925">
        <ele>867.6</ele>
        <time>2017-01-17T22:08:57Z</time>
      </trkpt>
      <trkpt lat="43.91727" lon="7.49041">
        <ele>831.8</ele>
        <time>2017-01-17T22:08:37Z</time>
      </trkpt>
      <trkpt lat="43.91811" lon="7.49185">
        <ele>824.5</ele>
        <time>2017-01-17T22:08:17Z</time>
      </trkpt>
      <trkpt lat="43.91668" lon="7.49258">
        <ele>798.6</ele>
        <time>2017-01-17T22:07:57Z</time>
      </trkpt>
      <trkpt lat="43.91142" lon="7.49051">
        <ele>766.3</ele>
        <time>2017-01-17T22:07:37Z</time>
      </trkpt>
      <trkpt lat="43.91045" lon="7.49354">
        <ele>742.7</ele>
        <time>2017-01-17T22:07:17Z</time>
      </trkpt>
      <trkpt lat="43.9063" lon="7.49413">
        <ele>739.9</ele>
        <time>2017-01-17T22:06:57Z</time>
      </trkpt>
      <trkpt lat="43.9047" lon="7.49865">
        <ele>676.2</ele>
        <time>2017-01-17T22:06:37Z</time>
      </trkpt>
      <trkpt lat="43.90311" lon="7.49917">
        <ele>666.1</ele>
        <time>2017-01-17T22:06:17Z</time>
      </trkpt>
      <trkpt lat="43.90348" lon="7.50247">
        <ele>640.8</ele>
        <time>2017-01-17T22:05:57Z</time>
      </trkpt>
      <trkpt lat="43.90087" lon="7.50406">
        <ele>623.3</ele>
        <time>2017-01-17T22:05:37Z</time>
      </trkpt>
      <trkpt lat="43.90054" lon="7.50727">
        <ele>582.1</ele>
        <time>2017-01-17T22:05:17Z</time>
      </trkpt>
      <trkpt lat="43.9" lon="7.50562">
        <ele>601.2</ele>
        <time>2017-01-17T22:04:57Z</time>
      </trkpt>
      <trkpt lat="43.89378" lon="7.50471">
        <ele>576</ele>
        <time>2017-01-17T22:04:37Z</time>
      </trkpt>
      <trkpt lat="43.89354" lon="7.50239">
        <ele>564.3</ele>
        <time>2017-01-17T22:04:17Z</time>
      </trkpt>
      <trkpt lat="43.895" lon="7.5025">
        <ele>569</ele>
        <time>2017-01-17T22:03:57Z</time>
      </trkpt>
      <trkpt lat="43.89302" lon="7.49904">
        <ele>554.2</ele>
        <time>2017-01-17T22:03:37Z</time>
      </trkpt>
      <trkpt lat="43.8856" lon="7.50283">
        <ele>466.7</ele>
      </trkpt>
      <trkpt lat="43.88691" lon="7.50299">
        <ele>467.6</ele>
      </trkpt>
      <trkpt lat="43.88508" lon="7.50368">
        <ele>438.3</ele>
      </trkpt>
      <trkpt lat="43.88682" lon="7.50394">
        <ele>451</ele>
      </trkpt>
      <trkpt lat="43.88363" lon="7.50588">
        <ele>390.8</ele>
      </trkpt>
      <trkpt lat="43.88135" lon="7.50864">
        <ele>345.6</ele>
      </trkpt>
      <trkpt lat="43.883" lon="7.51136">
        <ele>371.1</ele>
      </trkpt>
      <trkpt lat="43.88533" lon="7.51187">
        <ele>364.5</ele>
        <time>2017-01-17T22:03:17Z</time>
      </trkpt>
    </trkseg>
  </trk>
  <trk>
    <name><![CDATA[Le Col du Parpaillon - Le Tunnel]]></name>
    <extensions>
      <line xmlns="http://www.topografix.com/GPX/gpx_style/0/2">
        <color>0011ff</color>
        <width>4</width>
      </line>
    </extensions>
    <trkseg>
      <trkpt lat="44.45846" lon="6.7465">
        <ele>1289.3</ele>
      </trkpt>
      <trkpt lat="44.45846" lon="6.7465">
        <ele>1289.3</ele>
      </trkpt>
      <trkpt lat="44.45846" lon="6.7465">
        <ele>1289.3</ele>
      </trkpt>
      <trkpt lat="44.45846" lon="6.7465">
        <ele>1289.3</ele>
      </trkpt>
      <trkpt lat="44.45846" lon="6.7465">
        <ele>1289.3</ele>
      </trkpt>
      <trkpt lat="44.45825" lon="6.7462">
        <ele>1286</ele>
      </trkpt>
      <trkpt lat="44.45809" lon="6.74509">
        <ele>1288.7</ele>
      </trkpt>
      <trkpt lat="44.45674" lon="6.74407">
        <ele>1293.8</ele>
      </trkpt>
      <trkpt lat="44.45411" lon="6.74339">
        <ele>1283.7</ele>
      </trkpt>
      <trkpt lat="44.45338" lon="6.74355">
        <ele>1283.7</ele>
      </trkpt>
      <trkpt lat="44.45306" lon="6.74296">
        <ele>1296.3</ele>
      </trkpt>
      <trkpt lat="44.45244" lon="6.74106">
        <ele>1316.1</ele>
      </trkpt>
      <trkpt lat="44.45339" lon="6.74217">
        <ele>1346.7</ele>
      </trkpt>
      <trkpt lat="44.45283" lon="6.74103">
        <ele>1347</ele>
      </trkpt>
      <trkpt lat="44.45279" lon="6.74018">
        <ele>1349.2</ele>
      </trkpt>
      <trkpt lat="44.45388" lon="6.73897">
        <ele>1375.8</ele>
      </trkpt>
      <trkpt lat="44.45394" lon="6.7381">
        <ele>1382.5</ele>
      </trkpt>
      <trkpt lat="44.45344" lon="6.73755">
        <ele>1389.5</ele>
      </trkpt>
      <trkpt lat="44.45324" lon="6.73694">
        <ele>1422.3</ele>
      </trkpt>
      <trkpt lat="44.45291" lon="6.73717">
        <ele>1421.9</ele>
      </trkpt>
      <trkpt lat="44.4526" lon="6.73771">
        <ele>1398.2</ele>
      </trkpt>
      <trkpt lat="44.4515" lon="6.73762">
        <ele>1409.1</ele>
      </trkpt>
      <trkpt lat="44.4503" lon="6.73671">
        <ele>1427.4</ele>
      </trkpt>
      <trkpt lat="44.4497" lon="6.73638">
        <ele>1436.1</ele>
      </trkpt>
      <trkpt lat="44.44846" lon="6.73484">
        <ele>1480</ele>
      </trkpt>
      <trkpt lat="44.44638" lon="6.73496">
        <ele>1483.8</ele>
      </trkpt>
      <trkpt lat="44.44565" lon="6.73405">
        <ele>1508.6</ele>
      </trkpt>
      <trkpt lat="44.44493" lon="6.73412">
        <ele>1507.1</ele>
      </trkpt>
      <trkpt lat="44.4444" lon="6.73386">
        <ele>1515.1</ele>
      </trkpt>
      <trkpt lat="44.44529" lon="6.73352">
        <ele>1522</ele>
      </trkpt>
      <trkpt lat="44.44657" lon="6.73365">
        <ele>1525.9</ele>
      </trkpt>
      <trkpt lat="44.4473" lon="6.73296">
        <ele>1553.6</ele>
      </trkpt>
      <trkpt lat="44.44664" lon="6.73312">
        <ele>1549.7</ele>
      </trkpt>
      <trkpt lat="44.4459" lon="6.73244">
        <ele>1574.3</ele>
      </trkpt>
      <trkpt lat="44.44448" lon="6.73233">
        <ele>1579.8</ele>
      </trkpt>
      <trkpt lat="44.44341" lon="6.73165">
        <ele>1583.4</ele>
      </trkpt>
      <trkpt lat="44.44289" lon="6.73047">
        <ele>1613.4</ele>
      </trkpt>
      <trkpt lat="44.44196" lon="6.73068">
        <ele>1623.2</ele>
      </trkpt>
      <trkpt lat="44.44138" lon="6.73114">
        <ele>1625.7</ele>
      </trkpt>
      <trkpt lat="44.44187" lon="6.73011">
        <ele>1633.7</ele>
      </trkpt>
      <trkpt lat="44.44332" lon="6.72938">
        <ele>1649</ele>
      </trkpt>
      <trkpt lat="44.44407" lon="6.72962">
        <ele>1653</ele>
      </trkpt>
      <trkpt lat="44.4446" lon="6.72945">
        <ele>1671.2</ele>
      </trkpt>
      <trkpt lat="44.44374" lon="6.72909">
        <ele>1684</ele>
      </trkpt>
      <trkpt lat="44.44482" lon="6.72893">
        <ele>1702.9</ele>
      </trkpt>
      <trkpt lat="44.4456" lon="6.72971">
        <ele>1691.6</ele>
      </trkpt>
      <trkpt lat="44.4464" lon="6.72949">
        <ele>1713.9</ele>
      </trkpt>
      <trkpt lat="44.44683" lon="6.72946">
        <ele>1720.3</ele>
      </trkpt>
      <trkpt lat="44.4459" lon="6.72914">
        <ele>1727.7</ele>
      </trkpt>
      <trkpt lat="44.44685" lon="6.72893">
        <ele>1747.8</ele>
      </trkpt>
      <trkpt lat="44.4457" lon="6.72831">
        <ele>1758.3</ele>
      </trkpt>
      <trkpt lat="44.44629" lon="6.72819">
        <ele>1775.1</ele>
      </trkpt>
      <trkpt lat="44.4459" lon="6.72788">
        <ele>1779.3</ele>
      </trkpt>
      <trkpt lat="44.44725" lon="6.72795">
        <ele>1785.1</ele>
      </trkpt>
      <trkpt lat="44.44777" lon="6.72727">
        <ele>1806</ele>
      </trkpt>
      <trkpt lat="44.4481" lon="6.72648">
        <ele>1822.5</ele>
      </trkpt>
      <trkpt lat="44.44863" lon="6.72662">
        <ele>1816.5</ele>
      </trkpt>
      <trkpt lat="44.44819" lon="6.72589">
        <ele>1830.9</ele>
      </trkpt>
      <trkpt lat="44.4476" lon="6.72584">
        <ele>1832.1</ele>
      </trkpt>
      <trkpt lat="44.44728" lon="6.72557">
        <ele>1847.4</ele>
      </trkpt>
      <trkpt lat="44.44654" lon="6.72601">
        <ele>1841.4</ele>
      </trkpt>
      <trkpt lat="44.44716" lon="6.72468">
        <ele>1872.1</ele>
      </trkpt>
      <trkpt lat="44.44779" lon="6.72445">
        <ele>1872.2</ele>
      </trkpt>
      <trkpt lat="44.44821" lon="6.72416">
        <ele>1887.1</ele>
      </trkpt>
      <trkpt lat="44.44878" lon="6.72471">
        <ele>1870.4</ele>
      </trkpt>
      <trkpt lat="44.45081" lon="6.72386">
        <ele>1895.3</ele>
      </trkpt>
      <trkpt lat="44.45151" lon="6.72225">
        <ele>1926.2</ele>
      </trkpt>
      <trkpt lat="44.45229" lon="6.72118">
        <ele>1930.6</ele>
      </trkpt>
      <trkpt lat="44.45367" lon="6.71997">
        <ele>1957</ele>
      </trkpt>
      <trkpt lat="44.45378" lon="6.71957">
        <ele>1960.7</ele>
      </trkpt>
      <trkpt lat="44.45464" lon="6.71885">
        <ele>1969.9</ele>
      </trkpt>
      <trkpt lat="44.45493" lon="6.71821">
        <ele>1986.9</ele>
      </trkpt>
      <trkpt lat="44.45526" lon="6.71846">
        <ele>1974.4</ele>
      </trkpt>
      <trkpt lat="44.45603" lon="6.71962">
        <ele>1971.3</ele>
      </trkpt>
      <trkpt lat="44.45664" lon="6.72007">
        <ele>1968.8</ele>
      </trkpt>
      <trkpt lat="44.45755" lon="6.71917">
        <ele>1987.6</ele>
      </trkpt>
      <trkpt lat="44.45769" lon="6.71846">
        <ele>1995</ele>
      </trkpt>
      <trkpt lat="44.45868" lon="6.71794">
        <ele>1982.3</ele>
      </trkpt>
      <trkpt lat="44.45865" lon="6.71885">
        <ele>1971.3</ele>
      </trkpt>
      <trkpt lat="44.45909" lon="6.7196">
        <ele>1956.7</ele>
      </trkpt>
      <trkpt lat="44.45976" lon="6.71975">
        <ele>1947.5</ele>
      </trkpt>
      <trkpt lat="44.46103" lon="6.71957">
        <ele>1934.5</ele>
      </trkpt>
      <trkpt lat="44.462" lon="6.71958">
        <ele>1926.8</ele>
      </trkpt>
      <trkpt lat="44.46311" lon="6.7203">
        <ele>1909.2</ele>
      </trkpt>
      <trkpt lat="44.46426" lon="6.72045">
        <ele>1884.3</ele>
      </trkpt>
      <trkpt lat="44.46548" lon="6.72023">
        <ele>1862.5</ele>
      </trkpt>
      <trkpt lat="44.46664" lon="6.72048">
        <ele>1849</ele>
      </trkpt>
      <trkpt lat="44.46766" lon="6.71977">
        <ele>1837.8</ele>
      </trkpt>
      <trkpt lat="44.46835" lon="6.71998">
        <ele>1834.6</ele>
      </trkpt>
      <trkpt lat="44.46891" lon="6.72002">
        <ele>1829.2</ele>
      </trkpt>
      <trkpt lat="44.46926" lon="6.71933">
        <ele>1846.3</ele>
      </trkpt>
      <trkpt lat="44.46974" lon="6.71968">
        <ele>1839.2</ele>
      </trkpt>
      <trkpt lat="44.47069" lon="6.7189">
        <ele>1844.5</ele>
      </trkpt>
      <trkpt lat="44.47072" lon="6.71768">
        <ele>1858.7</ele>
      </trkpt>
      <trkpt lat="44.47235" lon="6.7135">
        <ele>1862.3</ele>
      </trkpt>
      <trkpt lat="44.47309" lon="6.7112">
        <ele>1888.5</ele>
      </trkpt>
      <trkpt lat="44.4737" lon="6.71065">
        <ele>1889.5</ele>
      </trkpt>
      <trkpt lat="44.47501" lon="6.71">
        <ele>1892.3</ele>
      </trkpt>
      <trkpt lat="44.476" lon="6.70888">
        <ele>1902.7</ele>
      </trkpt>
      <trkpt lat="44.47716" lon="6.70806">
        <ele>1892.2</ele>
      </trkpt>
      <trkpt lat="44.47848" lon="6.70715">
        <ele>1851.6</ele>
      </trkpt>
      <trkpt lat="44.4787" lon="6.70616">
        <ele>1859.9</ele>
      </trkpt>
      <trkpt lat="44.47934" lon="6.70473">
        <ele>1840.2</ele>
      </trkpt>
      <trkpt lat="44.48042" lon="6.70362">
        <ele>1828.5</ele>
      </trkpt>
      <trkpt lat="44.48085" lon="6.70306">
        <ele>1813.7</ele>
      </trkpt>
      <trkpt lat="44.48108" lon="6.70062">
        <ele>1841.2</ele>
      </trkpt>
      <trkpt lat="44.48169" lon="6.69882">
        <ele>1809.7</ele>
      </trkpt>
      <trkpt lat="44.48145" lon="6.69766">
        <ele>1832.9</ele>
      </trkpt>
      <trkpt lat="44.4811" lon="6.6949">
        <ele>1837.6</ele>
      </trkpt>
      <trkpt lat="44.48129" lon="6.69303">
        <ele>1838</ele>
      </trkpt>
      <trkpt lat="44.48033" lon="6.69173">
        <ele>1858</ele>
      </trkpt>
      <trkpt lat="44.48123" lon="6.6906">
        <ele>1869</ele>
      </trkpt>
      <trkpt lat="44.48265" lon="6.68942">
        <ele>1868.1</ele>
      </trkpt>
      <trkpt lat="44.48311" lon="6.68801">
        <ele>1894.3</ele>
      </trkpt>
      <trkpt lat="44.48308" lon="6.687">
        <ele>1914.1</ele>
      </trkpt>
      <trkpt lat="44.48265" lon="6.68829">
        <ele>1907.3</ele>
      </trkpt>
      <trkpt lat="44.48202" lon="6.6889">
        <ele>1912.6</ele>
      </trkpt>
      <trkpt lat="44.48013" lon="6.68948">
        <ele>1936.5</ele>
      </trkpt>
      <trkpt lat="44.48096" lon="6.68825">
        <ele>1954.7</ele>
      </trkpt>
      <trkpt lat="44.48188" lon="6.68738">
        <ele>1956.2</ele>
      </trkpt>
      <trkpt lat="44.48209" lon="6.68535">
        <ele>1984.4</ele>
      </trkpt>
      <trkpt lat="44.48265" lon="6.68433">
        <ele>1976.7</ele>
      </trkpt>
      <trkpt lat="44.48278" lon="6.6828">
        <ele>1999.1</ele>
      </trkpt>
      <trkpt lat="44.48342" lon="6.68033">
        <ele>2009.6</ele>
      </trkpt>
      <trkpt lat="44.48341" lon="6.67939">
        <ele>2023.1</ele>
      </trkpt>
      <trkpt lat="44.48377" lon="6.67705">
        <ele>2035.1</ele>
      </trkpt>
      <trkpt lat="44.4836" lon="6.67503">
        <ele>2047.9</ele>
      </trkpt>
      <trkpt lat="44.48428" lon="6.67329">
        <ele>2036.7</ele>
      </trkpt>
      <trkpt lat="44.48363" lon="6.6705">
        <ele>2045.2</ele>
      </trkpt>
      <trkpt lat="44.48394" lon="6.6693">
        <ele>2033.1</ele>
      </trkpt>
      <trkpt lat="44.48342" lon="6.66831">
        <ele>2039.9</ele>
      </trkpt>
      <trkpt lat="44.48277" lon="6.66531">
        <ele>2058.8</ele>
      </trkpt>
      <trkpt lat="44.4829" lon="6.66315">
        <ele>2075.4</ele>
      </trkpt>
      <trkpt lat="44.48353" lon="6.66219">
        <ele>2096</ele>
      </trkpt>
      <trkpt lat="44.48246" lon="6.66013">
        <ele>2101</ele>
      </trkpt>
      <trkpt lat="44.47956" lon="6.65701">
        <ele>2143.5</ele>
      </trkpt>
      <trkpt lat="44.47677" lon="6.65472">
        <ele>2177.7</ele>
      </trkpt>
      <trkpt lat="44.47478" lon="6.65397">
        <ele>2188.9</ele>
      </trkpt>
      <trkpt lat="44.47567" lon="6.65363">
        <ele>2200.6</ele>
      </trkpt>
      <trkpt lat="44.47721" lon="6.65381">
        <ele>2216</ele>
      </trkpt>
      <trkpt lat="44.47783" lon="6.65408">
        <ele>2223.1</ele>
      </trkpt>
      <trkpt lat="44.47699" lon="6.65326">
        <ele>2244.1</ele>
      </trkpt>
      <trkpt lat="44.47639" lon="6.65312">
        <ele>2236.3</ele>
      </trkpt>
      <trkpt lat="44.47596" lon="6.65236">
        <ele>2266.1</ele>
      </trkpt>
      <trkpt lat="44.4744" lon="6.65199">
        <ele>2269.5</ele>
      </trkpt>
      <trkpt lat="44.47341" lon="6.65213">
        <ele>2267.4</ele>
      </trkpt>
      <trkpt lat="44.47375" lon="6.6515">
        <ele>2295.6</ele>
      </trkpt>
      <trkpt lat="44.47314" lon="6.65193">
        <ele>2270.4</ele>
      </trkpt>
      <trkpt lat="44.47266" lon="6.65164">
        <ele>2292.9</ele>
      </trkpt>
      <trkpt lat="44.47342" lon="6.65116">
        <ele>2301.4</ele>
      </trkpt>
      <trkpt lat="44.47566" lon="6.65089">
        <ele>2318</ele>
      </trkpt>
      <trkpt lat="44.47663" lon="6.65087">
        <ele>2328.7</ele>
      </trkpt>
      <trkpt lat="44.47784" lon="6.65109">
        <ele>2334.9</ele>
      </trkpt>
      <trkpt lat="44.47702" lon="6.65005">
        <ele>2350.9</ele>
      </trkpt>
      <trkpt lat="44.47653" lon="6.64995">
        <ele>2358.6</ele>
      </trkpt>
      <trkpt lat="44.47597" lon="6.65004">
        <ele>2353.5</ele>
      </trkpt>
      <trkpt lat="44.47344" lon="6.64852">
        <ele>2401.2</ele>
      </trkpt>
      <trkpt lat="44.47173" lon="6.64833">
        <ele>2414.3</ele>
      </trkpt>
      <trkpt lat="44.47356" lon="6.64768">
        <ele>2434.5</ele>
      </trkpt>
      <trkpt lat="44.47468" lon="6.64783">
        <ele>2441.1</ele>
      </trkpt>
      <trkpt lat="44.47539" lon="6.64807">
        <ele>2442</ele>
      </trkpt>
      <trkpt lat="44.47591" lon="6.64755">
        <ele>2449.1</ele>
      </trkpt>
      <trkpt lat="44.47656" lon="6.64577">
        <ele>2489.7</ele>
      </trkpt>
      <trkpt lat="44.47721" lon="6.64585">
        <ele>2473.2</ele>
      </trkpt>
      <trkpt lat="44.47791" lon="6.64522">
        <ele>2500.4</ele>
      </trkpt>
      <trkpt lat="44.47833" lon="6.64537">
        <ele>2499.6</ele>
      </trkpt>
      <trkpt lat="44.47878" lon="6.6461">
        <ele>2489.2</ele>
      </trkpt>
      <trkpt lat="44.4794" lon="6.64618">
        <ele>2509.8</ele>
      </trkpt>
      <trkpt lat="44.48034" lon="6.64877">
        <ele>2507.4</ele>
      </trkpt>
      <trkpt lat="44.48095" lon="6.64878">
        <ele>2519.5</ele>
      </trkpt>
      <trkpt lat="44.4816" lon="6.6483">
        <ele>2542.7</ele>
      </trkpt>
      <trkpt lat="44.48401" lon="6.64886">
        <ele>2552.6</ele>
      </trkpt>
      <trkpt lat="44.48508" lon="6.648">
        <ele>2583.1</ele>
      </trkpt>
      <trkpt lat="44.48618" lon="6.64912">
        <ele>2596.8</ele>
      </trkpt>
      <trkpt lat="44.48613" lon="6.65038">
        <ele>2594.7</ele>
      </trkpt>
      <trkpt lat="44.48652" lon="6.65069">
        <ele>2596.5</ele>
      </trkpt>
      <trkpt lat="44.487" lon="6.6506">
        <ele>2611.4</ele>
      </trkpt>
      <trkpt lat="44.48647" lon="6.65021">
        <ele>2613.1</ele>
      </trkpt>
      <trkpt lat="44.48644" lon="6.64942">
        <ele>2619.2</ele>
      </trkpt>
      <trkpt lat="44.48679" lon="6.64844">
        <ele>2630.2</ele>
      </trkpt>
      <trkpt lat="44.48659" lon="6.64726">
        <ele>2637.3</ele>
      </trkpt>
      <trkpt lat="44.4873" lon="6.64656">
        <ele>2670.1</ele>
      </trkpt>
      <trkpt lat="44.48782" lon="6.64667">
        <ele>2697.5</ele>
      </trkpt>
      <trkpt lat="44.4876" lon="6.6459">
        <ele>2699</ele>
      </trkpt>
      <trkpt lat="44.48811" lon="6.64611">
        <ele>2722.3</ele>
      </trkpt>
      <trkpt lat="44.48794" lon="6.64543">
        <ele>2733</ele>
      </trkpt>
      <trkpt lat="44.48837" lon="6.6457">
        <ele>2756.1</ele>
      </trkpt>
      <trkpt lat="44.488" lon="6.6448">
        <ele>2765.1</ele>
      </trkpt>
      <trkpt lat="44.48844" lon="6.64492">
        <ele>2779.3</ele>
      </trkpt>
      <trkpt lat="44.48799" lon="6.64478">
        <ele>2765.6</ele>
      </trkpt>
      <trkpt lat="44.48835" lon="6.64574">
        <ele>2752.9</ele>
      </trkpt>
      <trkpt lat="44.48794" lon="6.6454">
        <ele>2734.3</ele>
      </trkpt>
      <trkpt lat="44.48811" lon="6.64613">
        <ele>2722.1</ele>
      </trkpt>
      <trkpt lat="44.48761" lon="6.64594">
        <ele>2698.5</ele>
      </trkpt>
      <trkpt lat="44.48783" lon="6.64665">
        <ele>2698.4</ele>
      </trkpt>
      <trkpt lat="44.48732" lon="6.64659">
        <ele>2670.5</ele>
      </trkpt>
      <trkpt lat="44.48706" lon="6.64686">
        <ele>2653.7</ele>
      </trkpt>
      <trkpt lat="44.48659" lon="6.64726">
        <ele>2637.3</ele>
      </trkpt>
      <trkpt lat="44.48679" lon="6.64844">
        <ele>2630.2</ele>
      </trkpt>
      <trkpt lat="44.48644" lon="6.64942">
        <ele>2619.2</ele>
      </trkpt>
      <trkpt lat="44.48647" lon="6.65021">
        <ele>2613.1</ele>
      </trkpt>
      <trkpt lat="44.487" lon="6.6506">
        <ele>2611.4</ele>
      </trkpt>
      <trkpt lat="44.48652" lon="6.65069">
        <ele>2596.5</ele>
      </trkpt>
      <trkpt lat="44.48613" lon="6.65038">
        <ele>2594.7</ele>
      </trkpt>
      <trkpt lat="44.48618" lon="6.64912">
        <ele>2596.8</ele>
      </trkpt>
      <trkpt lat="44.48508" lon="6.648">
        <ele>2583.1</ele>
      </trkpt>
      <trkpt lat="44.48401" lon="6.64886">
        <ele>2552.6</ele>
      </trkpt>
      <trkpt lat="44.4816" lon="6.6483">
        <ele>2542.7</ele>
      </trkpt>
      <trkpt lat="44.48095" lon="6.64878">
        <ele>2519.5</ele>
      </trkpt>
      <trkpt lat="44.48034" lon="6.64877">
        <ele>2507.4</ele>
      </trkpt>
      <trkpt lat="44.4794" lon="6.64618">
        <ele>2509.8</ele>
      </trkpt>
      <trkpt lat="44.47878" lon="6.6461">
        <ele>2489.2</ele>
      </trkpt>
      <trkpt lat="44.47833" lon="6.64537">
        <ele>2499.6</ele>
      </trkpt>
      <trkpt lat="44.47791" lon="6.64522">
        <ele>2500.4</ele>
      </trkpt>
      <trkpt lat="44.47721" lon="6.64585">
        <ele>2473.2</ele>
      </trkpt>
      <trkpt lat="44.47656" lon="6.64577">
        <ele>2489.7</ele>
      </trkpt>
      <trkpt lat="44.47591" lon="6.64755">
        <ele>2449.1</ele>
      </trkpt>
      <trkpt lat="44.47539" lon="6.64807">
        <ele>2442</ele>
      </trkpt>
      <trkpt lat="44.47468" lon="6.64783">
        <ele>2441.1</ele>
      </trkpt>
      <trkpt lat="44.47356" lon="6.64768">
        <ele>2434.5</ele>
      </trkpt>
      <trkpt lat="44.47173" lon="6.64833">
        <ele>2414.3</ele>
      </trkpt>
      <trkpt lat="44.47344" lon="6.64852">
        <ele>2401.2</ele>
      </trkpt>
      <trkpt lat="44.47597" lon="6.65004">
        <ele>2353.5</ele>
      </trkpt>
      <trkpt lat="44.47653" lon="6.64995">
        <ele>2358.6</ele>
      </trkpt>
      <trkpt lat="44.47702" lon="6.65005">
        <ele>2350.9</ele>
      </trkpt>
      <trkpt lat="44.47784" lon="6.65109">
        <ele>2334.9</ele>
      </trkpt>
      <trkpt lat="44.47663" lon="6.65087">
        <ele>2328.7</ele>
      </trkpt>
      <trkpt lat="44.47566" lon="6.65089">
        <ele>2318</ele>
      </trkpt>
      <trkpt lat="44.47342" lon="6.65116">
        <ele>2301.4</ele>
      </trkpt>
      <trkpt lat="44.47266" lon="6.65164">
        <ele>2292.9</ele>
      </trkpt>
      <trkpt lat="44.47314" lon="6.65193">
        <ele>2270.4</ele>
      </trkpt>
      <trkpt lat="44.47375" lon="6.6515">
        <ele>2295.6</ele>
      </trkpt>
      <trkpt lat="44.47341" lon="6.65213">
        <ele>2267.4</ele>
      </trkpt>
      <trkpt lat="44.4744" lon="6.65199">
        <ele>2269.5</ele>
      </trkpt>
      <trkpt lat="44.47596" lon="6.65236">
        <ele>2266.1</ele>
      </trkpt>
      <trkpt lat="44.47639" lon="6.65312">
        <ele>2236.3</ele>
      </trkpt>
      <trkpt lat="44.47699" lon="6.65326">
        <ele>2244.1</ele>
      </trkpt>
      <trkpt lat="44.47783" lon="6.65408">
        <ele>2223.1</ele>
      </trkpt>
      <trkpt lat="44.47721" lon="6.65381">
        <ele>2216</ele>
      </trkpt>
      <trkpt lat="44.47567" lon="6.65363">
        <ele>2200.6</ele>
      </trkpt>
      <trkpt lat="44.47478" lon="6.65397">
        <ele>2188.9</ele>
      </trkpt>
      <trkpt lat="44.47677" lon="6.65472">
        <ele>2177.7</ele>
      </trkpt>
      <trkpt lat="44.47956" lon="6.65701">
        <ele>2143.5</ele>
      </trkpt>
      <trkpt lat="44.48246" lon="6.66013">
        <ele>2101</ele>
      </trkpt>
      <trkpt lat="44.48353" lon="6.66219">
        <ele>2096</ele>
      </trkpt>
      <trkpt lat="44.4829" lon="6.66315">
        <ele>2075.4</ele>
      </trkpt>
      <trkpt lat="44.48277" lon="6.66531">
        <ele>2058.8</ele>
      </trkpt>
      <trkpt lat="44.48342" lon="6.66831">
        <ele>2039.9</ele>
      </trkpt>
      <trkpt lat="44.48394" lon="6.6693">
        <ele>2033.1</ele>
      </trkpt>
      <trkpt lat="44.48363" lon="6.6705">
        <ele>2045.2</ele>
      </trkpt>
      <trkpt lat="44.48428" lon="6.67329">
        <ele>2036.7</ele>
      </trkpt>
      <trkpt lat="44.4836" lon="6.67503">
        <ele>2047.9</ele>
      </trkpt>
      <trkpt lat="44.48377" lon="6.67705">
        <ele>2035.1</ele>
      </trkpt>
      <trkpt lat="44.48341" lon="6.67939">
        <ele>2023.1</ele>
      </trkpt>
      <trkpt lat="44.48342" lon="6.68033">
        <ele>2009.6</ele>
      </trkpt>
      <trkpt lat="44.48278" lon="6.6828">
        <ele>1999.1</ele>
      </trkpt>
      <trkpt lat="44.48265" lon="6.68433">
        <ele>1976.7</ele>
      </trkpt>
      <trkpt lat="44.48209" lon="6.68535">
        <ele>1984.4</ele>
      </trkpt>
      <trkpt lat="44.48188" lon="6.68738">
        <ele>1956.2</ele>
      </trkpt>
      <trkpt lat="44.48096" lon="6.68825">
        <ele>1954.7</ele>
      </trkpt>
      <trkpt lat="44.48013" lon="6.68948">
        <ele>1936.5</ele>
      </trkpt>
      <trkpt lat="44.48202" lon="6.6889">
        <ele>1912.6</ele>
      </trkpt>
      <trkpt lat="44.48265" lon="6.68829">
        <ele>1907.3</ele>
      </trkpt>
      <trkpt lat="44.48308" lon="6.687">
        <ele>1914.1</ele>
      </trkpt>
      <trkpt lat="44.48311" lon="6.68801">
        <ele>1894.3</ele>
      </trkpt>
      <trkpt lat="44.48265" lon="6.68942">
        <ele>1868.1</ele>
      </trkpt>
      <trkpt lat="44.48123" lon="6.6906">
        <ele>1869</ele>
      </trkpt>
      <trkpt lat="44.48033" lon="6.69173">
        <ele>1858</ele>
      </trkpt>
      <trkpt lat="44.48129" lon="6.69303">
        <ele>1838</ele>
      </trkpt>
      <trkpt lat="44.4811" lon="6.6949">
        <ele>1837.6</ele>
      </trkpt>
      <trkpt lat="44.48145" lon="6.69766">
        <ele>1832.9</ele>
      </trkpt>
      <trkpt lat="44.48169" lon="6.69882">
        <ele>1809.7</ele>
      </trkpt>
      <trkpt lat="44.48166" lon="6.70076">
        <ele>1812.7</ele>
      </trkpt>
      <trkpt lat="44.48137" lon="6.70234">
        <ele>1811</ele>
      </trkpt>
      <trkpt lat="44.48117" lon="6.70356">
        <ele>1792.3</ele>
      </trkpt>
      <trkpt lat="44.48011" lon="6.70568">
        <ele>1786</ele>
      </trkpt>
      <trkpt lat="44.47985" lon="6.70663">
        <ele>1793</ele>
      </trkpt>
      <trkpt lat="44.48005" lon="6.70885">
        <ele>1763.4</ele>
      </trkpt>
      <trkpt lat="44.4804" lon="6.71082">
        <ele>1755.1</ele>
      </trkpt>
      <trkpt lat="44.48019" lon="6.71156">
        <ele>1752.6</ele>
      </trkpt>
      <trkpt lat="44.47912" lon="6.71302">
        <ele>1758.6</ele>
      </trkpt>
      <trkpt lat="44.47757" lon="6.71457">
        <ele>1743.6</ele>
      </trkpt>
      <trkpt lat="44.47663" lon="6.71632">
        <ele>1734.8</ele>
      </trkpt>
      <trkpt lat="44.47564" lon="6.71781">
        <ele>1725.4</ele>
      </trkpt>
      <trkpt lat="44.47422" lon="6.71965">
        <ele>1720.4</ele>
      </trkpt>
      <trkpt lat="44.47337" lon="6.72125">
        <ele>1712.2</ele>
      </trkpt>
      <trkpt lat="44.47179" lon="6.72468">
        <ele>1690.6</ele>
      </trkpt>
      <trkpt lat="44.47134" lon="6.72452">
        <ele>1701.4</ele>
      </trkpt>
      <trkpt lat="44.47054" lon="6.72446">
        <ele>1708.4</ele>
      </trkpt>
      <trkpt lat="44.4699" lon="6.72457">
        <ele>1709.7</ele>
      </trkpt>
      <trkpt lat="44.47051" lon="6.72408">
        <ele>1726.8</ele>
      </trkpt>
      <trkpt lat="44.47055" lon="6.72364">
        <ele>1732.3</ele>
      </trkpt>
      <trkpt lat="44.4699" lon="6.72413">
        <ele>1729.8</ele>
      </trkpt>
      <trkpt lat="44.46925" lon="6.72398">
        <ele>1731.1</ele>
      </trkpt>
      <trkpt lat="44.4686" lon="6.7233">
        <ele>1754.7</ele>
      </trkpt>
      <trkpt lat="44.46773" lon="6.72301">
        <ele>1757.6</ele>
      </trkpt>
      <trkpt lat="44.46682" lon="6.72272">
        <ele>1772.7</ele>
      </trkpt>
      <trkpt lat="44.46558" lon="6.72392">
        <ele>1780</ele>
      </trkpt>
      <trkpt lat="44.46475" lon="6.72492">
        <ele>1784.1</ele>
      </trkpt>
      <trkpt lat="44.46463" lon="6.7257">
        <ele>1769.3</ele>
      </trkpt>
      <trkpt lat="44.46429" lon="6.72627">
        <ele>1756</ele>
      </trkpt>
      <trkpt lat="44.46345" lon="6.72645">
        <ele>1761.1</ele>
      </trkpt>
      <trkpt lat="44.46216" lon="6.72774">
        <ele>1734.7</ele>
      </trkpt>
      <trkpt lat="44.46142" lon="6.72834">
        <ele>1714.4</ele>
      </trkpt>
      <trkpt lat="44.46168" lon="6.72855">
        <ele>1710.8</ele>
      </trkpt>
      <trkpt lat="44.46038" lon="6.72889">
        <ele>1695.1</ele>
      </trkpt>
      <trkpt lat="44.45926" lon="6.72826">
        <ele>1696.7</ele>
      </trkpt>
      <trkpt lat="44.45873" lon="6.72794">
        <ele>1696.9</ele>
      </trkpt>
      <trkpt lat="44.45774" lon="6.72852">
        <ele>1677.1</ele>
      </trkpt>
      <trkpt lat="44.45754" lon="6.72914">
        <ele>1666.8</ele>
      </trkpt>
      <trkpt lat="44.45685" lon="6.72952">
        <ele>1663.3</ele>
      </trkpt>
      <trkpt lat="44.4558" lon="6.73079">
        <ele>1650.2</ele>
      </trkpt>
      <trkpt lat="44.45694" lon="6.7305">
        <ele>1640</ele>
      </trkpt>
      <trkpt lat="44.45793" lon="6.73055">
        <ele>1624.9</ele>
      </trkpt>
      <trkpt lat="44.45708" lon="6.73155">
        <ele>1618.7</ele>
      </trkpt>
      <trkpt lat="44.45521" lon="6.7326">
        <ele>1579.7</ele>
      </trkpt>
      <trkpt lat="44.45525" lon="6.73333">
        <ele>1575.7</ele>
      </trkpt>
      <trkpt lat="44.45504" lon="6.73359">
        <ele>1563.7</ele>
      </trkpt>
      <trkpt lat="44.45617" lon="6.73396">
        <ele>1558.1</ele>
      </trkpt>
      <trkpt lat="44.45784" lon="6.734">
        <ele>1538.1</ele>
      </trkpt>
      <trkpt lat="44.45826" lon="6.7335">
        <ele>1540.7</ele>
      </trkpt>
      <trkpt lat="44.45894" lon="6.73343">
        <ele>1523</ele>
      </trkpt>
      <trkpt lat="44.45932" lon="6.73308">
        <ele>1525.6</ele>
      </trkpt>
      <trkpt lat="44.46089" lon="6.73311">
        <ele>1510.5</ele>
      </trkpt>
      <trkpt lat="44.45975" lon="6.73355">
        <ele>1503</ele>
      </trkpt>
      <trkpt lat="44.45949" lon="6.73438">
        <ele>1484.2</ele>
      </trkpt>
      <trkpt lat="44.45898" lon="6.73516">
        <ele>1482.2</ele>
      </trkpt>
      <trkpt lat="44.45924" lon="6.73612">
        <ele>1453.5</ele>
      </trkpt>
      <trkpt lat="44.45877" lon="6.73646">
        <ele>1463.1</ele>
      </trkpt>
      <trkpt lat="44.45943" lon="6.73633">
        <ele>1449</ele>
      </trkpt>
      <trkpt lat="44.45958" lon="6.73599">
        <ele>1448.9</ele>
      </trkpt>
      <trkpt lat="44.4597" lon="6.73635">
        <ele>1444.7</ele>
      </trkpt>
      <trkpt lat="44.45857" lon="6.73752">
        <ele>1428.5</ele>
      </trkpt>
      <trkpt lat="44.45549" lon="6.73819">
        <ele>1407.7</ele>
      </trkpt>
      <trkpt lat="44.45501" lon="6.7389">
        <ele>1412.9</ele>
      </trkpt>
      <trkpt lat="44.45374" lon="6.73953">
        <ele>1383.2</ele>
      </trkpt>
      <trkpt lat="44.45388" lon="6.73897">
        <ele>1375.8</ele>
      </trkpt>
      <trkpt lat="44.45279" lon="6.74018">
        <ele>1349.2</ele>
      </trkpt>
      <trkpt lat="44.45283" lon="6.74103">
        <ele>1347</ele>
      </trkpt>
      <trkpt lat="44.45339" lon="6.74217">
        <ele>1346.7</ele>
      </trkpt>
      <trkpt lat="44.45244" lon="6.74106">
        <ele>1316.1</ele>
      </trkpt>
      <trkpt lat="44.45306" lon="6.74296">
        <ele>1296.3</ele>
      </trkpt>
      <trkpt lat="44.45338" lon="6.74355">
        <ele>1283.7</ele>
      </trkpt>
      <trkpt lat="44.45411" lon="6.74339">
        <ele>1283.7</ele>
      </trkpt>
      <trkpt lat="44.45674" lon="6.74407">
        <ele>1293.8</ele>
      </trkpt>
      <trkpt lat="44.45809" lon="6.74509">
        <ele>1288.7</ele>
      </trkpt>
      <trkpt lat="44.45825" lon="6.7462">
        <ele>1286</ele>
      </trkpt>
      <trkpt lat="44.45846" lon="6.7465">
        <ele>1289.3</ele>
      </trkpt>
    </trkseg>
  </trk>
  <trk>
    <name><![CDATA[Itinéraire de 20 Hameau de la Balme]]></name>
    <extensions>
      <line xmlns="http://www.topografix.com/GPX/gpx_style/0/2">
        <color>0000ff</color>
        <opacity>0.7</opacity>
        <width>4</width>
      </line>
    </extensions>
    <trkseg>
      <trkpt lat="45.08813" lon="5.46778">
        <ele>661.8</ele>
      </trkpt>
      <trkpt lat="45.08813" lon="5.46778">
        <ele>661.8</ele>
      </trkpt>
      <trkpt lat="45.08813" lon="5.46778">
        <ele>661.8</ele>
      </trkpt>
      <trkpt lat="45.08813" lon="5.46778">
        <ele>661.8</ele>
      </trkpt>
      <trkpt lat="45.08811" lon="5.4678">
        <ele>661.8</ele>
      </trkpt>
      <trkpt lat="45.08799" lon="5.46787">
        <ele>661.4</ele>
      </trkpt>
      <trkpt lat="45.08798" lon="5.46787">
        <ele>661.4</ele>
      </trkpt>
      <trkpt lat="45.08781" lon="5.46797">
        <ele>661.1</ele>
      </trkpt>
      <trkpt lat="45.08762" lon="5.46816">
        <ele>661</ele>
      </trkpt>
      <trkpt lat="45.08754" lon="5.4682">
        <ele>661</ele>
      </trkpt>
      <trkpt lat="45.0875" lon="5.46835">
        <ele>661.4</ele>
      </trkpt>
      <trkpt lat="45.08738" lon="5.46945">
        <ele>665.3</ele>
      </trkpt>
      <trkpt lat="45.0873" lon="5.46981">
        <ele>665.3</ele>
      </trkpt>
      <trkpt lat="45.08726" lon="5.46987">
        <ele>665.4</ele>
      </trkpt>
      <trkpt lat="45.08723" lon="5.4699">
        <ele>665.6</ele>
      </trkpt>
      <trkpt lat="45.08718" lon="5.46992">
        <ele>665.9</ele>
      </trkpt>
      <trkpt lat="45.0871" lon="5.46993">
        <ele>666.5</ele>
      </trkpt>
      <trkpt lat="45.08704" lon="5.46992">
        <ele>667</ele>
      </trkpt>
      <trkpt lat="45.08698" lon="5.46992">
        <ele>667.4</ele>
      </trkpt>
      <trkpt lat="45.08688" lon="5.4699">
        <ele>668.1</ele>
      </trkpt>
      <trkpt lat="45.08678" lon="5.46987">
        <ele>668.6</ele>
      </trkpt>
      <trkpt lat="45.08669" lon="5.4698">
        <ele>668.7</ele>
      </trkpt>
      <trkpt lat="45.08644" lon="5.46857">
        <ele>679.3</ele>
      </trkpt>
      <trkpt lat="45.08637" lon="5.46847">
        <ele>679.8</ele>
      </trkpt>
      <trkpt lat="45.08605" lon="5.4682">
        <ele>685.1</ele>
      </trkpt>
      <trkpt lat="45.08596" lon="5.46806">
        <ele>685.6</ele>
      </trkpt>
      <trkpt lat="45.08584" lon="5.46793">
        <ele>686.2</ele>
      </trkpt>
      <trkpt lat="45.08563" lon="5.46773">
        <ele>694.4</ele>
      </trkpt>
      <trkpt lat="45.08519" lon="5.4674">
        <ele>698.6</ele>
      </trkpt>
      <trkpt lat="45.08512" lon="5.46726">
        <ele>699.2</ele>
      </trkpt>
      <trkpt lat="45.08511" lon="5.46719">
        <ele>699.7</ele>
      </trkpt>
      <trkpt lat="45.08514" lon="5.46717">
        <ele>699.7</ele>
      </trkpt>
      <trkpt lat="45.08514" lon="5.46716">
        <ele>699.8</ele>
      </trkpt>
      <trkpt lat="45.08525" lon="5.46714">
        <ele>699.6</ele>
      </trkpt>
      <trkpt lat="45.08555" lon="5.46719">
        <ele>698.1</ele>
      </trkpt>
      <trkpt lat="45.08581" lon="5.46716">
        <ele>697.3</ele>
      </trkpt>
      <trkpt lat="45.08598" lon="5.46707">
        <ele>690.8</ele>
      </trkpt>
      <trkpt lat="45.08601" lon="5.46704">
        <ele>690.8</ele>
      </trkpt>
      <trkpt lat="45.08598" lon="5.46698">
        <ele>691.4</ele>
      </trkpt>
      <trkpt lat="45.08585" lon="5.4668">
        <ele>694.8</ele>
      </trkpt>
      <trkpt lat="45.08585" lon="5.46679">
        <ele>695</ele>
      </trkpt>
      <trkpt lat="45.08579" lon="5.4667">
        <ele>699.1</ele>
      </trkpt>
      <trkpt lat="45.08571" lon="5.46663">
        <ele>702.8</ele>
      </trkpt>
      <trkpt lat="45.0856" lon="5.46651">
        <ele>705.5</ele>
      </trkpt>
      <trkpt lat="45.08546" lon="5.4664">
        <ele>707.5</ele>
      </trkpt>
      <trkpt lat="45.08509" lon="5.46616">
        <ele>711.7</ele>
      </trkpt>
      <trkpt lat="45.08503" lon="5.46609">
        <ele>713.1</ele>
      </trkpt>
      <trkpt lat="45.08473" lon="5.46557">
        <ele>728.2</ele>
      </trkpt>
      <trkpt lat="45.08472" lon="5.46556">
        <ele>728.3</ele>
      </trkpt>
      <trkpt lat="45.08463" lon="5.46536">
        <ele>730.2</ele>
      </trkpt>
      <trkpt lat="45.08462" lon="5.46535">
        <ele>730.3</ele>
      </trkpt>
      <trkpt lat="45.08462" lon="5.46531">
        <ele>730.6</ele>
      </trkpt>
      <trkpt lat="45.08463" lon="5.46526">
        <ele>731</ele>
      </trkpt>
      <trkpt lat="45.08467" lon="5.46523">
        <ele>731.3</ele>
      </trkpt>
      <trkpt lat="45.08473" lon="5.46523">
        <ele>731.5</ele>
      </trkpt>
      <trkpt lat="45.08479" lon="5.46529">
        <ele>731.1</ele>
      </trkpt>
      <trkpt lat="45.08487" lon="5.46533">
        <ele>730.8</ele>
      </trkpt>
      <trkpt lat="45.08497" lon="5.46535">
        <ele>730.6</ele>
      </trkpt>
      <trkpt lat="45.08511" lon="5.46535">
        <ele>728</ele>
      </trkpt>
      <trkpt lat="45.08561" lon="5.46528">
        <ele>727.5</ele>
      </trkpt>
      <trkpt lat="45.08562" lon="5.46527">
        <ele>727.7</ele>
      </trkpt>
      <trkpt lat="45.08569" lon="5.46525">
        <ele>728.3</ele>
      </trkpt>
      <trkpt lat="45.08574" lon="5.46521">
        <ele>729.4</ele>
      </trkpt>
      <trkpt lat="45.08574" lon="5.46513">
        <ele>731.3</ele>
      </trkpt>
      <trkpt lat="45.0856" lon="5.46507">
        <ele>730.5</ele>
      </trkpt>
      <trkpt lat="45.08541" lon="5.46502">
        <ele>730.1</ele>
      </trkpt>
      <trkpt lat="45.08534" lon="5.46501">
        <ele>730.5</ele>
      </trkpt>
      <trkpt lat="45.0851" lon="5.4649">
        <ele>741.8</ele>
      </trkpt>
      <trkpt lat="45.08476" lon="5.46466">
        <ele>746.4</ele>
      </trkpt>
      <trkpt lat="45.08379" lon="5.46386">
        <ele>763.1</ele>
      </trkpt>
      <trkpt lat="45.08361" lon="5.46379">
        <ele>764.1</ele>
      </trkpt>
      <trkpt lat="45.08345" lon="5.4638">
        <ele>763.9</ele>
      </trkpt>
      <trkpt lat="45.08328" lon="5.46374">
        <ele>768.7</ele>
      </trkpt>
      <trkpt lat="45.08327" lon="5.46373">
        <ele>768.9</ele>
      </trkpt>
      <trkpt lat="45.08253" lon="5.46352">
        <ele>775.1</ele>
      </trkpt>
      <trkpt lat="45.08246" lon="5.46347">
        <ele>781.4</ele>
      </trkpt>
      <trkpt lat="45.08244" lon="5.4634">
        <ele>781.2</ele>
      </trkpt>
      <trkpt lat="45.08244" lon="5.46331">
        <ele>783.8</ele>
      </trkpt>
      <trkpt lat="45.08251" lon="5.46327">
        <ele>782.5</ele>
      </trkpt>
      <trkpt lat="45.08273" lon="5.46327">
        <ele>786</ele>
      </trkpt>
      <trkpt lat="45.08284" lon="5.46328">
        <ele>786.6</ele>
      </trkpt>
      <trkpt lat="45.08366" lon="5.46312">
        <ele>784.6</ele>
      </trkpt>
      <trkpt lat="45.08436" lon="5.46311">
        <ele>780.8</ele>
      </trkpt>
      <trkpt lat="45.0845" lon="5.46314">
        <ele>781.3</ele>
      </trkpt>
      <trkpt lat="45.08452" lon="5.46315">
        <ele>781.3</ele>
      </trkpt>
      <trkpt lat="45.08468" lon="5.46315">
        <ele>781.8</ele>
      </trkpt>
      <trkpt lat="45.08472" lon="5.46311">
        <ele>782</ele>
      </trkpt>
      <trkpt lat="45.08472" lon="5.46308">
        <ele>782.1</ele>
      </trkpt>
      <trkpt lat="45.08473" lon="5.46305">
        <ele>782.3</ele>
      </trkpt>
      <trkpt lat="45.0847" lon="5.46299">
        <ele>782.6</ele>
      </trkpt>
      <trkpt lat="45.08465" lon="5.46296">
        <ele>782.7</ele>
      </trkpt>
      <trkpt lat="45.08457" lon="5.46296">
        <ele>782.7</ele>
      </trkpt>
      <trkpt lat="45.0845" lon="5.46295">
        <ele>782.8</ele>
      </trkpt>
      <trkpt lat="45.08439" lon="5.46291">
        <ele>783.2</ele>
      </trkpt>
      <trkpt lat="45.08392" lon="5.46261">
        <ele>790.3</ele>
      </trkpt>
      <trkpt lat="45.08375" lon="5.46253">
        <ele>791.8</ele>
      </trkpt>
      <trkpt lat="45.08355" lon="5.46249">
        <ele>805</ele>
      </trkpt>
      <trkpt lat="45.08345" lon="5.46246">
        <ele>805.7</ele>
      </trkpt>
      <trkpt lat="45.08328" lon="5.46239">
        <ele>808.6</ele>
      </trkpt>
      <trkpt lat="45.08293" lon="5.46227">
        <ele>810.8</ele>
      </trkpt>
      <trkpt lat="45.08276" lon="5.4622">
        <ele>811</ele>
      </trkpt>
      <trkpt lat="45.08275" lon="5.4622">
        <ele>810.9</ele>
      </trkpt>
      <trkpt lat="45.08259" lon="5.46211">
        <ele>811.6</ele>
      </trkpt>
      <trkpt lat="45.08213" lon="5.46176">
        <ele>813.4</ele>
      </trkpt>
      <trkpt lat="45.082" lon="5.46164">
        <ele>821.7</ele>
      </trkpt>
      <trkpt lat="45.08195" lon="5.46162">
        <ele>821.5</ele>
      </trkpt>
      <trkpt lat="45.08167" lon="5.46147">
        <ele>821.1</ele>
      </trkpt>
      <trkpt lat="45.08127" lon="5.46131">
        <ele>824.8</ele>
      </trkpt>
      <trkpt lat="45.08113" lon="5.46127">
        <ele>825.4</ele>
      </trkpt>
      <trkpt lat="45.08109" lon="5.46127">
        <ele>825.4</ele>
      </trkpt>
      <trkpt lat="45.08102" lon="5.46126">
        <ele>825.6</ele>
      </trkpt>
      <trkpt lat="45.08067" lon="5.46126">
        <ele>830.9</ele>
      </trkpt>
      <trkpt lat="45.0801" lon="5.46108">
        <ele>835.4</ele>
      </trkpt>
      <trkpt lat="45.08003" lon="5.46104">
        <ele>836.1</ele>
      </trkpt>
      <trkpt lat="45.07994" lon="5.46101">
        <ele>841.8</ele>
      </trkpt>
      <trkpt lat="45.07952" lon="5.46078">
        <ele>846.2</ele>
      </trkpt>
      <trkpt lat="45.07936" lon="5.46068">
        <ele>847.1</ele>
      </trkpt>
      <trkpt lat="45.07922" lon="5.46062">
        <ele>847.5</ele>
      </trkpt>
      <trkpt lat="45.07919" lon="5.46065">
        <ele>847.6</ele>
      </trkpt>
      <trkpt lat="45.07918" lon="5.46065">
        <ele>847.6</ele>
      </trkpt>
      <trkpt lat="45.07914" lon="5.46068">
        <ele>851.3</ele>
      </trkpt>
      <trkpt lat="45.07911" lon="5.46076">
        <ele>850.3</ele>
      </trkpt>
      <trkpt lat="45.07912" lon="5.46081">
        <ele>849.4</ele>
      </trkpt>
      <trkpt lat="45.07912" lon="5.46085">
        <ele>849.6</ele>
      </trkpt>
      <trkpt lat="45.07914" lon="5.46095">
        <ele>851.2</ele>
      </trkpt>
      <trkpt lat="45.07921" lon="5.46119">
        <ele>846.3</ele>
      </trkpt>
      <trkpt lat="45.07932" lon="5.46183">
        <ele>847.2</ele>
      </trkpt>
      <trkpt lat="45.07933" lon="5.46215">
        <ele>845.6</ele>
      </trkpt>
      <trkpt lat="45.07931" lon="5.46223">
        <ele>846</ele>
      </trkpt>
      <trkpt lat="45.07929" lon="5.46227">
        <ele>846.4</ele>
      </trkpt>
      <trkpt lat="45.07918" lon="5.46235">
        <ele>848.2</ele>
      </trkpt>
      <trkpt lat="45.07907" lon="5.46182">
        <ele>856.6</ele>
      </trkpt>
      <trkpt lat="45.07903" lon="5.46173">
        <ele>856.3</ele>
      </trkpt>
      <trkpt lat="45.079" lon="5.46164">
        <ele>855.2</ele>
      </trkpt>
      <trkpt lat="45.07886" lon="5.46144">
        <ele>856.5</ele>
      </trkpt>
      <trkpt lat="45.07793" lon="5.46042">
        <ele>866.4</ele>
      </trkpt>
      <trkpt lat="45.07757" lon="5.46008">
        <ele>870.2</ele>
      </trkpt>
      <trkpt lat="45.07569" lon="5.45886">
        <ele>885.4</ele>
      </trkpt>
      <trkpt lat="45.0753" lon="5.4587">
        <ele>887.6</ele>
      </trkpt>
      <trkpt lat="45.07504" lon="5.45864">
        <ele>888.6</ele>
      </trkpt>
      <trkpt lat="45.07484" lon="5.45861">
        <ele>891.5</ele>
      </trkpt>
      <trkpt lat="45.07454" lon="5.45859">
        <ele>892.1</ele>
      </trkpt>
      <trkpt lat="45.07363" lon="5.45859">
        <ele>893.2</ele>
      </trkpt>
      <trkpt lat="45.07345" lon="5.4586">
        <ele>893.3</ele>
      </trkpt>
      <trkpt lat="45.0728" lon="5.45859">
        <ele>893.4</ele>
      </trkpt>
      <trkpt lat="45.07187" lon="5.45844">
        <ele>897</ele>
      </trkpt>
      <trkpt lat="45.07161" lon="5.45844">
        <ele>899.3</ele>
      </trkpt>
      <trkpt lat="45.07133" lon="5.45849">
        <ele>899</ele>
      </trkpt>
      <trkpt lat="45.07006" lon="5.45883">
        <ele>903.1</ele>
      </trkpt>
      <trkpt lat="45.06917" lon="5.459">
        <ele>904.9</ele>
      </trkpt>
      <trkpt lat="45.06913" lon="5.459">
        <ele>906</ele>
      </trkpt>
      <trkpt lat="45.06882" lon="5.45888">
        <ele>906.4</ele>
      </trkpt>
      <trkpt lat="45.06779" lon="5.45842">
        <ele>913.2</ele>
      </trkpt>
      <trkpt lat="45.06751" lon="5.45828">
        <ele>912.5</ele>
      </trkpt>
      <trkpt lat="45.06738" lon="5.45819">
        <ele>914.8</ele>
      </trkpt>
      <trkpt lat="45.06524" lon="5.45605">
        <ele>918.4</ele>
      </trkpt>
      <trkpt lat="45.06493" lon="5.45578">
        <ele>917.9</ele>
      </trkpt>
      <trkpt lat="45.06463" lon="5.45561">
        <ele>916.5</ele>
      </trkpt>
      <trkpt lat="45.06448" lon="5.45556">
        <ele>916.7</ele>
      </trkpt>
      <trkpt lat="45.0638" lon="5.45542">
        <ele>920.1</ele>
      </trkpt>
      <trkpt lat="45.06344" lon="5.4553">
        <ele>920.7</ele>
      </trkpt>
      <trkpt lat="45.06324" lon="5.45519">
        <ele>923.5</ele>
      </trkpt>
      <trkpt lat="45.06294" lon="5.45499">
        <ele>920.1</ele>
      </trkpt>
      <trkpt lat="45.06244" lon="5.45475">
        <ele>924</ele>
      </trkpt>
      <trkpt lat="45.06196" lon="5.45461">
        <ele>923.9</ele>
      </trkpt>
      <trkpt lat="45.06175" lon="5.45451">
        <ele>923.6</ele>
      </trkpt>
      <trkpt lat="45.06174" lon="5.45451">
        <ele>923.6</ele>
      </trkpt>
      <trkpt lat="45.06159" lon="5.4544">
        <ele>926</ele>
      </trkpt>
      <trkpt lat="45.06122" lon="5.45405">
        <ele>922.1</ele>
      </trkpt>
      <trkpt lat="45.06101" lon="5.4539">
        <ele>922.7</ele>
      </trkpt>
      <trkpt lat="45.06077" lon="5.45378">
        <ele>924.6</ele>
      </trkpt>
      <trkpt lat="45.06056" lon="5.45375">
        <ele>924.4</ele>
      </trkpt>
      <trkpt lat="45.06041" lon="5.45375">
        <ele>924.5</ele>
      </trkpt>
      <trkpt lat="45.0599" lon="5.4537">
        <ele>926.2</ele>
      </trkpt>
      <trkpt lat="45.05971" lon="5.45366">
        <ele>926.4</ele>
      </trkpt>
      <trkpt lat="45.05955" lon="5.45358">
        <ele>926.5</ele>
      </trkpt>
      <trkpt lat="45.05933" lon="5.45341">
        <ele>926</ele>
      </trkpt>
      <trkpt lat="45.05932" lon="5.45341">
        <ele>926</ele>
      </trkpt>
      <trkpt lat="45.0589" lon="5.45306">
        <ele>924.9</ele>
      </trkpt>
      <trkpt lat="45.05853" lon="5.45283">
        <ele>924.9</ele>
      </trkpt>
      <trkpt lat="45.05837" lon="5.4528">
        <ele>924.9</ele>
      </trkpt>
      <trkpt lat="45.05815" lon="5.45279">
        <ele>926.4</ele>
      </trkpt>
      <trkpt lat="45.05736" lon="5.45285">
        <ele>926.8</ele>
      </trkpt>
      <trkpt lat="45.05702" lon="5.45281">
        <ele>926.8</ele>
      </trkpt>
      <trkpt lat="45.05635" lon="5.45265">
        <ele>926.5</ele>
      </trkpt>
      <trkpt lat="45.05603" lon="5.45261">
        <ele>926.3</ele>
      </trkpt>
      <trkpt lat="45.05535" lon="5.45261">
        <ele>929.3</ele>
      </trkpt>
      <trkpt lat="45.05524" lon="5.4526">
        <ele>929</ele>
      </trkpt>
      <trkpt lat="45.05498" lon="5.45255">
        <ele>927.8</ele>
      </trkpt>
      <trkpt lat="45.05489" lon="5.4525">
        <ele>924.4</ele>
      </trkpt>
      <trkpt lat="45.05474" lon="5.4524">
        <ele>924.2</ele>
      </trkpt>
      <trkpt lat="45.05456" lon="5.45224">
        <ele>924.1</ele>
      </trkpt>
      <trkpt lat="45.05373" lon="5.45109">
        <ele>919.9</ele>
      </trkpt>
      <trkpt lat="45.05367" lon="5.45102">
        <ele>919.7</ele>
      </trkpt>
      <trkpt lat="45.05361" lon="5.45097">
        <ele>919.6</ele>
      </trkpt>
      <trkpt lat="45.05325" lon="5.45077">
        <ele>917.6</ele>
      </trkpt>
      <trkpt lat="45.05301" lon="5.45062">
        <ele>917.3</ele>
      </trkpt>
      <trkpt lat="45.05158" lon="5.44983">
        <ele>915.3</ele>
      </trkpt>
      <trkpt lat="45.05156" lon="5.44983">
        <ele>915.2</ele>
      </trkpt>
      <trkpt lat="45.05065" lon="5.44931">
        <ele>915.5</ele>
      </trkpt>
      <trkpt lat="45.05064" lon="5.44931">
        <ele>915.5</ele>
      </trkpt>
      <trkpt lat="45.05016" lon="5.44896">
        <ele>913.2</ele>
      </trkpt>
      <trkpt lat="45.04993" lon="5.44887">
        <ele>912.6</ele>
      </trkpt>
      <trkpt lat="45.04988" lon="5.44883">
        <ele>912.3</ele>
      </trkpt>
      <trkpt lat="45.04944" lon="5.44858">
        <ele>911.1</ele>
      </trkpt>
      <trkpt lat="45.04896" lon="5.448">
        <ele>906.8</ele>
      </trkpt>
      <trkpt lat="45.04883" lon="5.44786">
        <ele>906.4</ele>
      </trkpt>
      <trkpt lat="45.04862" lon="5.44775">
        <ele>906.1</ele>
      </trkpt>
      <trkpt lat="45.04853" lon="5.44772">
        <ele>906</ele>
      </trkpt>
      <trkpt lat="45.0481" lon="5.44754">
        <ele>905.5</ele>
      </trkpt>
      <trkpt lat="45.04801" lon="5.44753">
        <ele>905.6</ele>
      </trkpt>
      <trkpt lat="45.04777" lon="5.44756">
        <ele>905.7</ele>
      </trkpt>
      <trkpt lat="45.04706" lon="5.44772">
        <ele>903.3</ele>
      </trkpt>
      <trkpt lat="45.04635" lon="5.44782">
        <ele>899.7</ele>
      </trkpt>
      <trkpt lat="45.04509" lon="5.4479">
        <ele>895.4</ele>
      </trkpt>
      <trkpt lat="45.04409" lon="5.44777">
        <ele>883.5</ele>
      </trkpt>
      <trkpt lat="45.04366" lon="5.44768">
        <ele>881.6</ele>
      </trkpt>
      <trkpt lat="45.04342" lon="5.44759">
        <ele>880.1</ele>
      </trkpt>
      <trkpt lat="45.04318" lon="5.44747">
        <ele>877.9</ele>
      </trkpt>
      <trkpt lat="45.04124" lon="5.44627">
        <ele>862.6</ele>
      </trkpt>
      <trkpt lat="45.04097" lon="5.44605">
        <ele>861.6</ele>
      </trkpt>
      <trkpt lat="45.04083" lon="5.44592">
        <ele>858.6</ele>
      </trkpt>
      <trkpt lat="45.04064" lon="5.44578">
        <ele>858.9</ele>
      </trkpt>
      <trkpt lat="45.04034" lon="5.44562">
        <ele>857.3</ele>
      </trkpt>
      <trkpt lat="45.04011" lon="5.44554">
        <ele>856.2</ele>
      </trkpt>
      <trkpt lat="45.03971" lon="5.4453">
        <ele>850.4</ele>
      </trkpt>
      <trkpt lat="45.03932" lon="5.44494">
        <ele>850.1</ele>
      </trkpt>
      <trkpt lat="45.03924" lon="5.44488">
        <ele>849.6</ele>
      </trkpt>
      <trkpt lat="45.03908" lon="5.44478">
        <ele>847.4</ele>
      </trkpt>
      <trkpt lat="45.03827" lon="5.44465">
        <ele>844.9</ele>
      </trkpt>
      <trkpt lat="45.03824" lon="5.44465">
        <ele>844.9</ele>
      </trkpt>
      <trkpt lat="45.03735" lon="5.4445">
        <ele>842</ele>
      </trkpt>
      <trkpt lat="45.03576" lon="5.44436">
        <ele>834.4</ele>
      </trkpt>
      <trkpt lat="45.03545" lon="5.4443">
        <ele>832.7</ele>
      </trkpt>
      <trkpt lat="45.03452" lon="5.44404">
        <ele>830.3</ele>
      </trkpt>
      <trkpt lat="45.03401" lon="5.44394">
        <ele>824.4</ele>
      </trkpt>
      <trkpt lat="45.03369" lon="5.4439">
        <ele>824.4</ele>
      </trkpt>
      <trkpt lat="45.03325" lon="5.44387">
        <ele>820.7</ele>
      </trkpt>
      <trkpt lat="45.03279" lon="5.44386">
        <ele>820.1</ele>
      </trkpt>
      <trkpt lat="45.03225" lon="5.44397">
        <ele>815.5</ele>
      </trkpt>
      <trkpt lat="45.03193" lon="5.44398">
        <ele>813.9</ele>
      </trkpt>
      <trkpt lat="45.03103" lon="5.44392">
        <ele>809.5</ele>
      </trkpt>
      <trkpt lat="45.03095" lon="5.44394">
        <ele>808.4</ele>
      </trkpt>
      <trkpt lat="45.03064" lon="5.44407">
        <ele>803.5</ele>
      </trkpt>
      <trkpt lat="45.0305" lon="5.44411">
        <ele>803.6</ele>
      </trkpt>
      <trkpt lat="45.02968" lon="5.44406">
        <ele>796.4</ele>
      </trkpt>
      <trkpt lat="45.0294" lon="5.44402">
        <ele>794.2</ele>
      </trkpt>
      <trkpt lat="45.02903" lon="5.44388">
        <ele>789.9</ele>
      </trkpt>
      <trkpt lat="45.02866" lon="5.44366">
        <ele>792.2</ele>
      </trkpt>
      <trkpt lat="45.0285" lon="5.44358">
        <ele>793.3</ele>
      </trkpt>
      <trkpt lat="45.02836" lon="5.44355">
        <ele>794</ele>
      </trkpt>
      <trkpt lat="45.02824" lon="5.44356">
        <ele>788.1</ele>
      </trkpt>
      <trkpt lat="45.0279" lon="5.44365">
        <ele>783.2</ele>
      </trkpt>
      <trkpt lat="45.02788" lon="5.44365">
        <ele>783.1</ele>
      </trkpt>
      <trkpt lat="45.02771" lon="5.44368">
        <ele>782</ele>
      </trkpt>
      <trkpt lat="45.02746" lon="5.44382">
        <ele>774.1</ele>
      </trkpt>
      <trkpt lat="45.02734" lon="5.44391">
        <ele>772.5</ele>
      </trkpt>
      <trkpt lat="45.0272" lon="5.44397">
        <ele>771.9</ele>
      </trkpt>
      <trkpt lat="45.02695" lon="5.44399">
        <ele>770.7</ele>
      </trkpt>
      <trkpt lat="45.02578" lon="5.44392">
        <ele>760</ele>
      </trkpt>
      <trkpt lat="45.02549" lon="5.44394">
        <ele>760.3</ele>
      </trkpt>
      <trkpt lat="45.02513" lon="5.44393">
        <ele>759.7</ele>
      </trkpt>
      <trkpt lat="45.02484" lon="5.44386">
        <ele>758.1</ele>
      </trkpt>
      <trkpt lat="45.02174" lon="5.44287">
        <ele>758.4</ele>
      </trkpt>
      <trkpt lat="45.02137" lon="5.44265">
        <ele>756.9</ele>
      </trkpt>
      <trkpt lat="45.02091" lon="5.44244">
        <ele>758.2</ele>
      </trkpt>
      <trkpt lat="45.02072" lon="5.44239">
        <ele>756.6</ele>
      </trkpt>
      <trkpt lat="45.02032" lon="5.44242">
        <ele>755.2</ele>
      </trkpt>
      <trkpt lat="45.02016" lon="5.44248">
        <ele>753.4</ele>
      </trkpt>
      <trkpt lat="45.0199" lon="5.44262">
        <ele>747.8</ele>
      </trkpt>
      <trkpt lat="45.01984" lon="5.44267">
        <ele>747.1</ele>
      </trkpt>
      <trkpt lat="45.01976" lon="5.44272">
        <ele>746.5</ele>
      </trkpt>
      <trkpt lat="45.01956" lon="5.44281">
        <ele>745.9</ele>
      </trkpt>
      <trkpt lat="45.01942" lon="5.44283">
        <ele>745.8</ele>
      </trkpt>
      <trkpt lat="45.01844" lon="5.44278">
        <ele>743.4</ele>
      </trkpt>
      <trkpt lat="45.01828" lon="5.44279">
        <ele>740.9</ele>
      </trkpt>
      <trkpt lat="45.01721" lon="5.44275">
        <ele>736.2</ele>
      </trkpt>
      <trkpt lat="45.01696" lon="5.44271">
        <ele>735.6</ele>
      </trkpt>
      <trkpt lat="45.01679" lon="5.44266">
        <ele>735.5</ele>
      </trkpt>
      <trkpt lat="45.01636" lon="5.44248">
        <ele>737.1</ele>
      </trkpt>
      <trkpt lat="45.01618" lon="5.44242">
        <ele>736.7</ele>
      </trkpt>
      <trkpt lat="45.0159" lon="5.44235">
        <ele>735.2</ele>
      </trkpt>
      <trkpt lat="45.0154" lon="5.44232">
        <ele>734.9</ele>
      </trkpt>
      <trkpt lat="45.01459" lon="5.4424">
        <ele>731.4</ele>
      </trkpt>
      <trkpt lat="45.01385" lon="5.44257">
        <ele>724</ele>
      </trkpt>
      <trkpt lat="45.01378" lon="5.44258">
        <ele>724.1</ele>
      </trkpt>
      <trkpt lat="45.01375" lon="5.44259">
        <ele>724.2</ele>
      </trkpt>
      <trkpt lat="45.01365" lon="5.4426">
        <ele>724.5</ele>
      </trkpt>
      <trkpt lat="45.01307" lon="5.44276">
        <ele>724</ele>
      </trkpt>
      <trkpt lat="45.01296" lon="5.4428">
        <ele>723.6</ele>
      </trkpt>
      <trkpt lat="45.01276" lon="5.44284">
        <ele>723.2</ele>
      </trkpt>
      <trkpt lat="45.01271" lon="5.44284">
        <ele>723.2</ele>
      </trkpt>
      <trkpt lat="45.01266" lon="5.44285">
        <ele>723.1</ele>
      </trkpt>
      <trkpt lat="45.01246" lon="5.44285">
        <ele>723</ele>
      </trkpt>
      <trkpt lat="45.01235" lon="5.44284">
        <ele>723</ele>
      </trkpt>
      <trkpt lat="45.01166" lon="5.44273">
        <ele>724.5</ele>
      </trkpt>
      <trkpt lat="45.01127" lon="5.44271">
        <ele>722.9</ele>
      </trkpt>
      <trkpt lat="45.01004" lon="5.44272">
        <ele>719.9</ele>
      </trkpt>
      <trkpt lat="45.00983" lon="5.44271">
        <ele>718.6</ele>
      </trkpt>
      <trkpt lat="45.00975" lon="5.44269">
        <ele>718.4</ele>
      </trkpt>
      <trkpt lat="45.00967" lon="5.44268">
        <ele>718.1</ele>
      </trkpt>
      <trkpt lat="45.00953" lon="5.4426">
        <ele>717.8</ele>
      </trkpt>
      <trkpt lat="45.00906" lon="5.44218">
        <ele>722.8</ele>
      </trkpt>
      <trkpt lat="45.00904" lon="5.44217">
        <ele>722.9</ele>
      </trkpt>
      <trkpt lat="45.00901" lon="5.44214">
        <ele>723.3</ele>
      </trkpt>
      <trkpt lat="45.00894" lon="5.4421">
        <ele>723.7</ele>
      </trkpt>
      <trkpt lat="45.00891" lon="5.4421">
        <ele>723.7</ele>
      </trkpt>
      <trkpt lat="45.00888" lon="5.44209">
        <ele>723.8</ele>
      </trkpt>
      <trkpt lat="45.0088" lon="5.44209">
        <ele>723.7</ele>
      </trkpt>
      <trkpt lat="45.00874" lon="5.44211">
        <ele>723.5</ele>
      </trkpt>
      <trkpt lat="45.00861" lon="5.44218">
        <ele>722.7</ele>
      </trkpt>
      <trkpt lat="45.00847" lon="5.44227">
        <ele>721.3</ele>
      </trkpt>
      <trkpt lat="45.00844" lon="5.44228">
        <ele>721</ele>
      </trkpt>
      <trkpt lat="45.0083" lon="5.44239">
        <ele>717.6</ele>
      </trkpt>
      <trkpt lat="45.00828" lon="5.4424">
        <ele>717.6</ele>
      </trkpt>
      <trkpt lat="45.00813" lon="5.44252">
        <ele>715</ele>
      </trkpt>
      <trkpt lat="45.00812" lon="5.44252">
        <ele>715</ele>
      </trkpt>
      <trkpt lat="45.00807" lon="5.44256">
        <ele>714.9</ele>
      </trkpt>
      <trkpt lat="45.00802" lon="5.44259">
        <ele>714.8</ele>
      </trkpt>
      <trkpt lat="45.00795" lon="5.44261">
        <ele>714.7</ele>
      </trkpt>
      <trkpt lat="45.00782" lon="5.44261">
        <ele>714.6</ele>
      </trkpt>
      <trkpt lat="45.00775" lon="5.44259">
        <ele>714.6</ele>
      </trkpt>
      <trkpt lat="45.0077" lon="5.44256">
        <ele>714.7</ele>
      </trkpt>
      <trkpt lat="45.00762" lon="5.44249">
        <ele>716.6</ele>
      </trkpt>
      <trkpt lat="45.0076" lon="5.44248">
        <ele>716.4</ele>
      </trkpt>
      <trkpt lat="45.00755" lon="5.4424">
        <ele>716.5</ele>
      </trkpt>
      <trkpt lat="45.00749" lon="5.44226">
        <ele>718.8</ele>
      </trkpt>
      <trkpt lat="45.00746" lon="5.44216">
        <ele>719.5</ele>
      </trkpt>
      <trkpt lat="45.00744" lon="5.44206">
        <ele>719.8</ele>
      </trkpt>
      <trkpt lat="45.00743" lon="5.44176">
        <ele>719.2</ele>
      </trkpt>
      <trkpt lat="45.00741" lon="5.44156">
        <ele>720.1</ele>
      </trkpt>
      <trkpt lat="45.0074" lon="5.44155">
        <ele>720.3</ele>
      </trkpt>
      <trkpt lat="45.00737" lon="5.4413">
        <ele>722.1</ele>
      </trkpt>
      <trkpt lat="45.00736" lon="5.44127">
        <ele>722.2</ele>
      </trkpt>
      <trkpt lat="45.00735" lon="5.44118">
        <ele>722.7</ele>
      </trkpt>
      <trkpt lat="45.00732" lon="5.44107">
        <ele>723.2</ele>
      </trkpt>
      <trkpt lat="45.00727" lon="5.44097">
        <ele>723.5</ele>
      </trkpt>
      <trkpt lat="45.00722" lon="5.4409">
        <ele>723.5</ele>
      </trkpt>
      <trkpt lat="45.00713" lon="5.44084">
        <ele>723.2</ele>
      </trkpt>
      <trkpt lat="45.00706" lon="5.44082">
        <ele>730.4</ele>
      </trkpt>
      <trkpt lat="45.00693" lon="5.44083">
        <ele>729.2</ele>
      </trkpt>
      <trkpt lat="45.00633" lon="5.44099">
        <ele>723.2</ele>
      </trkpt>
      <trkpt lat="45.00631" lon="5.44099">
        <ele>723.2</ele>
      </trkpt>
      <trkpt lat="45.00578" lon="5.44111">
        <ele>722.2</ele>
      </trkpt>
      <trkpt lat="45.00565" lon="5.44112">
        <ele>722</ele>
      </trkpt>
      <trkpt lat="45.0056" lon="5.44113">
        <ele>721.9</ele>
      </trkpt>
      <trkpt lat="45.00542" lon="5.44113">
        <ele>721.4</ele>
      </trkpt>
      <trkpt lat="45.0053" lon="5.44111">
        <ele>721.1</ele>
      </trkpt>
      <trkpt lat="45.00524" lon="5.44111">
        <ele>720.9</ele>
      </trkpt>
      <trkpt lat="45.00522" lon="5.4411">
        <ele>720.9</ele>
      </trkpt>
      <trkpt lat="45.00504" lon="5.44109">
        <ele>720.6</ele>
      </trkpt>
      <trkpt lat="45.00495" lon="5.4411">
        <ele>715.9</ele>
      </trkpt>
      <trkpt lat="45.0049" lon="5.44112">
        <ele>715.6</ele>
      </trkpt>
      <trkpt lat="45.00476" lon="5.4412">
        <ele>714.5</ele>
      </trkpt>
      <trkpt lat="45.00452" lon="5.44139">
        <ele>712.3</ele>
      </trkpt>
      <trkpt lat="45.00447" lon="5.44141">
        <ele>711.8</ele>
      </trkpt>
      <trkpt lat="45.00427" lon="5.44143">
        <ele>710</ele>
      </trkpt>
      <trkpt lat="45.0042" lon="5.44143">
        <ele>709.6</ele>
      </trkpt>
      <trkpt lat="45.00388" lon="5.44136">
        <ele>707</ele>
      </trkpt>
      <trkpt lat="45.00367" lon="5.44127">
        <ele>707.2</ele>
      </trkpt>
      <trkpt lat="45.00358" lon="5.44121">
        <ele>707.1</ele>
      </trkpt>
      <trkpt lat="45.00354" lon="5.44117">
        <ele>707</ele>
      </trkpt>
      <trkpt lat="45.00346" lon="5.44107">
        <ele>706.7</ele>
      </trkpt>
      <trkpt lat="45.00319" lon="5.44068">
        <ele>711.4</ele>
      </trkpt>
      <trkpt lat="45.00319" lon="5.44067">
        <ele>711.5</ele>
      </trkpt>
      <trkpt lat="45.00305" lon="5.44043">
        <ele>714.7</ele>
      </trkpt>
      <trkpt lat="45.00301" lon="5.44032">
        <ele>715.3</ele>
      </trkpt>
      <trkpt lat="45.003" lon="5.44027">
        <ele>715.4</ele>
      </trkpt>
      <trkpt lat="45.003" lon="5.44004">
        <ele>715.3</ele>
      </trkpt>
      <trkpt lat="45.00304" lon="5.43979">
        <ele>715.2</ele>
      </trkpt>
      <trkpt lat="45.00329" lon="5.43761">
        <ele>693.9</ele>
      </trkpt>
      <trkpt lat="45.00328" lon="5.43727">
        <ele>694.8</ele>
      </trkpt>
      <trkpt lat="45.00326" lon="5.43722">
        <ele>695.4</ele>
      </trkpt>
      <trkpt lat="45.00325" lon="5.43716">
        <ele>696</ele>
      </trkpt>
      <trkpt lat="45.0032" lon="5.43706">
        <ele>696.8</ele>
      </trkpt>
      <trkpt lat="45.0032" lon="5.43705">
        <ele>696.9</ele>
      </trkpt>
      <trkpt lat="45.00317" lon="5.437">
        <ele>697.3</ele>
      </trkpt>
      <trkpt lat="45.00307" lon="5.43688">
        <ele>697.8</ele>
      </trkpt>
      <trkpt lat="45.00306" lon="5.43688">
        <ele>697.7</ele>
      </trkpt>
      <trkpt lat="45.00291" lon="5.43677">
        <ele>697.3</ele>
      </trkpt>
      <trkpt lat="45.00278" lon="5.4367">
        <ele>696.7</ele>
      </trkpt>
      <trkpt lat="45.00222" lon="5.43647">
        <ele>699.6</ele>
      </trkpt>
      <trkpt lat="45.002" lon="5.43634">
        <ele>699.7</ele>
      </trkpt>
      <trkpt lat="45.00174" lon="5.43613">
        <ele>699.3</ele>
      </trkpt>
      <trkpt lat="45.00168" lon="5.43604">
        <ele>699</ele>
      </trkpt>
      <trkpt lat="45.00161" lon="5.43588">
        <ele>696.2</ele>
      </trkpt>
      <trkpt lat="45.00157" lon="5.43572">
        <ele>695.4</ele>
      </trkpt>
      <trkpt lat="45.00156" lon="5.43564">
        <ele>694.9</ele>
      </trkpt>
      <trkpt lat="45.00156" lon="5.43547">
        <ele>694.3</ele>
      </trkpt>
      <trkpt lat="45.00167" lon="5.43446">
        <ele>710.1</ele>
      </trkpt>
      <trkpt lat="45.00167" lon="5.43422">
        <ele>706.2</ele>
      </trkpt>
      <trkpt lat="45.00165" lon="5.43399">
        <ele>702</ele>
      </trkpt>
      <trkpt lat="45.00151" lon="5.43326">
        <ele>709.5</ele>
      </trkpt>
      <trkpt lat="45.00147" lon="5.43291">
        <ele>709.5</ele>
      </trkpt>
      <trkpt lat="45.00147" lon="5.43282">
        <ele>710.8</ele>
      </trkpt>
      <trkpt lat="45.00145" lon="5.43264">
        <ele>713.7</ele>
      </trkpt>
      <trkpt lat="45.00115" lon="5.43147">
        <ele>721</ele>
      </trkpt>
      <trkpt lat="45.00115" lon="5.43146">
        <ele>721.1</ele>
      </trkpt>
      <trkpt lat="45.00107" lon="5.43124">
        <ele>721.5</ele>
      </trkpt>
      <trkpt lat="45.00106" lon="5.43123">
        <ele>721.4</ele>
      </trkpt>
      <trkpt lat="45.001" lon="5.43109">
        <ele>720.3</ele>
      </trkpt>
      <trkpt lat="45.00098" lon="5.43102">
        <ele>719.2</ele>
      </trkpt>
      <trkpt lat="45.00091" lon="5.43087">
        <ele>713.6</ele>
      </trkpt>
      <trkpt lat="45.00089" lon="5.4308">
        <ele>715.6</ele>
      </trkpt>
      <trkpt lat="45.00088" lon="5.4308">
        <ele>714.7</ele>
      </trkpt>
      <trkpt lat="45.00083" lon="5.43065">
        <ele>705.2</ele>
      </trkpt>
      <trkpt lat="45.00073" lon="5.43009">
        <ele>712.8</ele>
      </trkpt>
      <trkpt lat="45.00072" lon="5.43008">
        <ele>712.7</ele>
      </trkpt>
      <trkpt lat="45.00067" lon="5.42978">
        <ele>713.2</ele>
      </trkpt>
      <trkpt lat="45.00057" lon="5.4294">
        <ele>712.5</ele>
      </trkpt>
      <trkpt lat="45.00055" lon="5.42936">
        <ele>712.4</ele>
      </trkpt>
      <trkpt lat="45.00048" lon="5.42913">
        <ele>716</ele>
      </trkpt>
      <trkpt lat="45.00047" lon="5.42912">
        <ele>715.8</ele>
      </trkpt>
      <trkpt lat="45.00044" lon="5.4289">
        <ele>715.6</ele>
      </trkpt>
      <trkpt lat="45.00043" lon="5.42888">
        <ele>715.5</ele>
      </trkpt>
      <trkpt lat="45.00041" lon="5.42863">
        <ele>716.6</ele>
      </trkpt>
      <trkpt lat="45.00033" lon="5.42813">
        <ele>719.5</ele>
      </trkpt>
      <trkpt lat="45.00024" lon="5.42788">
        <ele>718.8</ele>
      </trkpt>
      <trkpt lat="45.00021" lon="5.42783">
        <ele>718.4</ele>
      </trkpt>
      <trkpt lat="45.00014" lon="5.42776">
        <ele>717.2</ele>
      </trkpt>
      <trkpt lat="45.00007" lon="5.42771">
        <ele>716</ele>
      </trkpt>
      <trkpt lat="44.99983" lon="5.42758">
        <ele>710.9</ele>
      </trkpt>
      <trkpt lat="44.99981" lon="5.42755">
        <ele>711</ele>
      </trkpt>
      <trkpt lat="44.99978" lon="5.42752">
        <ele>711.1</ele>
      </trkpt>
      <trkpt lat="44.99976" lon="5.42749">
        <ele>705.7</ele>
      </trkpt>
      <trkpt lat="44.99973" lon="5.42738">
        <ele>704.8</ele>
      </trkpt>
      <trkpt lat="44.99973" lon="5.4273">
        <ele>704.1</ele>
      </trkpt>
      <trkpt lat="44.99975" lon="5.42721">
        <ele>703.1</ele>
      </trkpt>
      <trkpt lat="44.99977" lon="5.42717">
        <ele>702.6</ele>
      </trkpt>
      <trkpt lat="44.99982" lon="5.4271">
        <ele>701.7</ele>
      </trkpt>
      <trkpt lat="44.99985" lon="5.42707">
        <ele>701.3</ele>
      </trkpt>
      <trkpt lat="44.99993" lon="5.42703">
        <ele>700.7</ele>
      </trkpt>
      <trkpt lat="44.99997" lon="5.42702">
        <ele>700.5</ele>
      </trkpt>
      <trkpt lat="45" lon="5.42702">
        <ele>700.2</ele>
      </trkpt>
      <trkpt lat="45.00001" lon="5.42701">
        <ele>706.6</ele>
      </trkpt>
      <trkpt lat="45.00005" lon="5.42701">
        <ele>706.8</ele>
      </trkpt>
      <trkpt lat="45.0001" lon="5.42702">
        <ele>707.3</ele>
      </trkpt>
      <trkpt lat="45.00018" lon="5.42702">
        <ele>708.1</ele>
      </trkpt>
      <trkpt lat="45.00023" lon="5.42703">
        <ele>708.8</ele>
      </trkpt>
      <trkpt lat="45.00033" lon="5.42702">
        <ele>709.9</ele>
      </trkpt>
      <trkpt lat="45.00035" lon="5.42701">
        <ele>710</ele>
      </trkpt>
      <trkpt lat="45.00038" lon="5.42701">
        <ele>710.4</ele>
      </trkpt>
      <trkpt lat="45.00052" lon="5.42695">
        <ele>711.3</ele>
      </trkpt>
      <trkpt lat="45.00056" lon="5.42692">
        <ele>711.4</ele>
      </trkpt>
      <trkpt lat="45.00069" lon="5.42679">
        <ele>711</ele>
      </trkpt>
      <trkpt lat="45.00081" lon="5.42665">
        <ele>708</ele>
      </trkpt>
      <trkpt lat="45.00081" lon="5.42664">
        <ele>707.5</ele>
      </trkpt>
      <trkpt lat="45.00107" lon="5.42632">
        <ele>710.6</ele>
      </trkpt>
      <trkpt lat="45.00108" lon="5.4263">
        <ele>710.5</ele>
      </trkpt>
      <trkpt lat="45.00116" lon="5.4262">
        <ele>710.1</ele>
      </trkpt>
      <trkpt lat="45.00131" lon="5.42592">
        <ele>709.5</ele>
      </trkpt>
      <trkpt lat="45.0014" lon="5.4257">
        <ele>699</ele>
      </trkpt>
      <trkpt lat="45.00141" lon="5.4257">
        <ele>699.3</ele>
      </trkpt>
      <trkpt lat="45.00154" lon="5.42533">
        <ele>696.7</ele>
      </trkpt>
      <trkpt lat="45.00156" lon="5.42525">
        <ele>696.5</ele>
      </trkpt>
      <trkpt lat="45.00158" lon="5.4252">
        <ele>696.7</ele>
      </trkpt>
      <trkpt lat="45.0016" lon="5.42508">
        <ele>697.3</ele>
      </trkpt>
      <trkpt lat="45.00164" lon="5.42497">
        <ele>696.9</ele>
      </trkpt>
      <trkpt lat="45.00169" lon="5.42437">
        <ele>702.4</ele>
      </trkpt>
      <trkpt lat="45.00171" lon="5.42435">
        <ele>702</ele>
      </trkpt>
      <trkpt lat="45.00172" lon="5.42435">
        <ele>702.1</ele>
      </trkpt>
      <trkpt lat="45.00172" lon="5.42434">
        <ele>701.7</ele>
      </trkpt>
      <trkpt lat="45.00173" lon="5.42434">
        <ele>701.9</ele>
      </trkpt>
      <trkpt lat="45.00174" lon="5.42433">
        <ele>701.8</ele>
      </trkpt>
      <trkpt lat="45.00174" lon="5.42432">
        <ele>701.4</ele>
      </trkpt>
      <trkpt lat="45.00175" lon="5.42432">
        <ele>701.7</ele>
      </trkpt>
      <trkpt lat="45.00175" lon="5.42431">
        <ele>701.3</ele>
      </trkpt>
      <trkpt lat="45.00176" lon="5.4243">
        <ele>701.2</ele>
      </trkpt>
      <trkpt lat="45.00176" lon="5.42428">
        <ele>700.5</ele>
      </trkpt>
      <trkpt lat="45.00177" lon="5.42428">
        <ele>700.8</ele>
      </trkpt>
      <trkpt lat="45.00177" lon="5.42427">
        <ele>700.5</ele>
      </trkpt>
      <trkpt lat="45.00178" lon="5.42426">
        <ele>700.6</ele>
      </trkpt>
      <trkpt lat="45.00178" lon="5.42424">
        <ele>699.9</ele>
      </trkpt>
      <trkpt lat="45.00179" lon="5.42423">
        <ele>700.2</ele>
      </trkpt>
      <trkpt lat="45.00179" lon="5.42412">
        <ele>694.6</ele>
      </trkpt>
      <trkpt lat="45.00178" lon="5.42411">
        <ele>694.4</ele>
      </trkpt>
      <trkpt lat="45.00178" lon="5.4241">
        <ele>694.5</ele>
      </trkpt>
      <trkpt lat="45.00177" lon="5.42409">
        <ele>694.3</ele>
      </trkpt>
      <trkpt lat="45.00177" lon="5.42407">
        <ele>694.6</ele>
      </trkpt>
      <trkpt lat="45.00176" lon="5.42407">
        <ele>694.4</ele>
      </trkpt>
      <trkpt lat="45.00176" lon="5.42405">
        <ele>694.6</ele>
      </trkpt>
      <trkpt lat="45.00183" lon="5.4237">
        <ele>695.7</ele>
      </trkpt>
      <trkpt lat="45.00185" lon="5.42364">
        <ele>695.3</ele>
      </trkpt>
      <trkpt lat="45.00185" lon="5.4236">
        <ele>694.7</ele>
      </trkpt>
      <trkpt lat="45.00186" lon="5.42353">
        <ele>693.8</ele>
      </trkpt>
      <trkpt lat="45.00186" lon="5.42347">
        <ele>692.8</ele>
      </trkpt>
      <trkpt lat="45.00187" lon="5.42339">
        <ele>692</ele>
      </trkpt>
      <trkpt lat="45.00187" lon="5.42326">
        <ele>688.4</ele>
      </trkpt>
      <trkpt lat="45.00211" lon="5.42202">
        <ele>693</ele>
      </trkpt>
      <trkpt lat="45.00213" lon="5.42182">
        <ele>693.4</ele>
      </trkpt>
      <trkpt lat="45.00214" lon="5.42179">
        <ele>693.5</ele>
      </trkpt>
      <trkpt lat="45.00214" lon="5.42169">
        <ele>693.6</ele>
      </trkpt>
      <trkpt lat="45.00213" lon="5.42167">
        <ele>693.5</ele>
      </trkpt>
      <trkpt lat="45.00213" lon="5.42164">
        <ele>697.9</ele>
      </trkpt>
      <trkpt lat="45.00212" lon="5.42163">
        <ele>697.9</ele>
      </trkpt>
      <trkpt lat="45.00211" lon="5.4216">
        <ele>697.9</ele>
      </trkpt>
      <trkpt lat="45.00207" lon="5.42153">
        <ele>698</ele>
      </trkpt>
      <trkpt lat="45.00206" lon="5.42153">
        <ele>697.9</ele>
      </trkpt>
      <trkpt lat="45.00202" lon="5.4215">
        <ele>697.8</ele>
      </trkpt>
      <trkpt lat="45.00199" lon="5.42149">
        <ele>697.7</ele>
      </trkpt>
      <trkpt lat="45.00189" lon="5.42149">
        <ele>696.8</ele>
      </trkpt>
      <trkpt lat="45.00179" lon="5.42151">
        <ele>695.4</ele>
      </trkpt>
      <trkpt lat="45.00174" lon="5.42154">
        <ele>694.1</ele>
      </trkpt>
      <trkpt lat="45.00154" lon="5.4217">
        <ele>690.6</ele>
      </trkpt>
      <trkpt lat="45.00149" lon="5.42175">
        <ele>691.1</ele>
      </trkpt>
      <trkpt lat="45.00136" lon="5.42191">
        <ele>692.1</ele>
      </trkpt>
      <trkpt lat="45.00122" lon="5.42213">
        <ele>692.2</ele>
      </trkpt>
      <trkpt lat="45.00108" lon="5.42238">
        <ele>692.3</ele>
      </trkpt>
      <trkpt lat="45.00092" lon="5.42271">
        <ele>687.7</ele>
      </trkpt>
      <trkpt lat="45.00086" lon="5.42281">
        <ele>686.6</ele>
      </trkpt>
      <trkpt lat="45.00081" lon="5.42286">
        <ele>689.2</ele>
      </trkpt>
      <trkpt lat="45.00077" lon="5.42289">
        <ele>688.9</ele>
      </trkpt>
      <trkpt lat="45.00072" lon="5.42291">
        <ele>688.8</ele>
      </trkpt>
      <trkpt lat="45.00067" lon="5.42292">
        <ele>688.7</ele>
      </trkpt>
      <trkpt lat="45.00062" lon="5.42292">
        <ele>688.8</ele>
      </trkpt>
      <trkpt lat="44.99976" lon="5.42261">
        <ele>695.1</ele>
      </trkpt>
      <trkpt lat="44.99951" lon="5.42257">
        <ele>696</ele>
      </trkpt>
      <trkpt lat="44.99934" lon="5.4226">
        <ele>697.4</ele>
      </trkpt>
      <trkpt lat="44.99873" lon="5.42276">
        <ele>702.1</ele>
      </trkpt>
      <trkpt lat="44.99857" lon="5.42276">
        <ele>703.4</ele>
      </trkpt>
      <trkpt lat="44.99847" lon="5.42275">
        <ele>704.5</ele>
      </trkpt>
      <trkpt lat="44.9984" lon="5.42273">
        <ele>705.3</ele>
      </trkpt>
      <trkpt lat="44.9983" lon="5.42269">
        <ele>707.8</ele>
      </trkpt>
      <trkpt lat="44.99814" lon="5.4226">
        <ele>707.5</ele>
      </trkpt>
      <trkpt lat="44.99797" lon="5.42245">
        <ele>713.6</ele>
      </trkpt>
      <trkpt lat="44.99796" lon="5.42245">
        <ele>713.5</ele>
      </trkpt>
      <trkpt lat="44.99785" lon="5.42234">
        <ele>713.1</ele>
      </trkpt>
      <trkpt lat="44.99773" lon="5.42219">
        <ele>713.5</ele>
      </trkpt>
      <trkpt lat="44.99755" lon="5.42191">
        <ele>715.7</ele>
      </trkpt>
      <trkpt lat="44.99733" lon="5.42145">
        <ele>718.3</ele>
      </trkpt>
      <trkpt lat="44.99722" lon="5.4213">
        <ele>718.9</ele>
      </trkpt>
      <trkpt lat="44.99714" lon="5.42122">
        <ele>719</ele>
      </trkpt>
      <trkpt lat="44.99699" lon="5.4211">
        <ele>718.7</ele>
      </trkpt>
      <trkpt lat="44.99647" lon="5.42083">
        <ele>718.7</ele>
      </trkpt>
      <trkpt lat="44.99635" lon="5.42075">
        <ele>719.1</ele>
      </trkpt>
      <trkpt lat="44.99613" lon="5.42057">
        <ele>719.5</ele>
      </trkpt>
      <trkpt lat="44.99601" lon="5.42045">
        <ele>720.1</ele>
      </trkpt>
      <trkpt lat="44.99357" lon="5.41701">
        <ele>747</ele>
      </trkpt>
      <trkpt lat="44.99326" lon="5.41652">
        <ele>749.4</ele>
      </trkpt>
      <trkpt lat="44.99321" lon="5.41642">
        <ele>750</ele>
      </trkpt>
      <trkpt lat="44.99301" lon="5.41587">
        <ele>751.3</ele>
      </trkpt>
      <trkpt lat="44.99292" lon="5.41555">
        <ele>754.3</ele>
      </trkpt>
      <trkpt lat="44.992" lon="5.4127">
        <ele>769</ele>
      </trkpt>
      <trkpt lat="44.9919" lon="5.41249">
        <ele>774.5</ele>
      </trkpt>
      <trkpt lat="44.99184" lon="5.41242">
        <ele>773.3</ele>
      </trkpt>
      <trkpt lat="44.99184" lon="5.41241">
        <ele>773.5</ele>
      </trkpt>
      <trkpt lat="44.99174" lon="5.4123">
        <ele>773.9</ele>
      </trkpt>
      <trkpt lat="44.99163" lon="5.41222">
        <ele>770.3</ele>
      </trkpt>
      <trkpt lat="44.99153" lon="5.41218">
        <ele>771</ele>
      </trkpt>
      <trkpt lat="44.99107" lon="5.41211">
        <ele>771.4</ele>
      </trkpt>
      <trkpt lat="44.99102" lon="5.41209">
        <ele>771.5</ele>
      </trkpt>
      <trkpt lat="44.99086" lon="5.41198">
        <ele>772.8</ele>
      </trkpt>
      <trkpt lat="44.99065" lon="5.41175">
        <ele>777.1</ele>
      </trkpt>
      <trkpt lat="44.9901" lon="5.41091">
        <ele>783.3</ele>
      </trkpt>
      <trkpt lat="44.98953" lon="5.40985">
        <ele>798</ele>
      </trkpt>
      <trkpt lat="44.98934" lon="5.40954">
        <ele>798</ele>
      </trkpt>
      <trkpt lat="44.98917" lon="5.40931">
        <ele>796.1</ele>
      </trkpt>
      <trkpt lat="44.98892" lon="5.40908">
        <ele>799.7</ele>
      </trkpt>
      <trkpt lat="44.98761" lon="5.40811">
        <ele>803.9</ele>
      </trkpt>
      <trkpt lat="44.98734" lon="5.40785">
        <ele>807.5</ele>
      </trkpt>
      <trkpt lat="44.98603" lon="5.40613">
        <ele>810.3</ele>
      </trkpt>
      <trkpt lat="44.98595" lon="5.40596">
        <ele>808.9</ele>
      </trkpt>
      <trkpt lat="44.98583" lon="5.40563">
        <ele>811</ele>
      </trkpt>
      <trkpt lat="44.9858" lon="5.40546">
        <ele>811.9</ele>
      </trkpt>
      <trkpt lat="44.98579" lon="5.40525">
        <ele>810</ele>
      </trkpt>
      <trkpt lat="44.98583" lon="5.40408">
        <ele>799</ele>
      </trkpt>
      <trkpt lat="44.98584" lon="5.40401">
        <ele>800</ele>
      </trkpt>
      <trkpt lat="44.98587" lon="5.40323">
        <ele>800.3</ele>
      </trkpt>
      <trkpt lat="44.98585" lon="5.40277">
        <ele>803.8</ele>
      </trkpt>
      <trkpt lat="44.98578" lon="5.40249">
        <ele>801.6</ele>
      </trkpt>
      <trkpt lat="44.98573" lon="5.40237">
        <ele>802.7</ele>
      </trkpt>
      <trkpt lat="44.9856" lon="5.40217">
        <ele>804</ele>
      </trkpt>
      <trkpt lat="44.98551" lon="5.40206">
        <ele>804.5</ele>
      </trkpt>
      <trkpt lat="44.98544" lon="5.40199">
        <ele>804.6</ele>
      </trkpt>
      <trkpt lat="44.98529" lon="5.40189">
        <ele>804.2</ele>
      </trkpt>
      <trkpt lat="44.9851" lon="5.40182">
        <ele>803.6</ele>
      </trkpt>
      <trkpt lat="44.98461" lon="5.40169">
        <ele>801.1</ele>
      </trkpt>
      <trkpt lat="44.98441" lon="5.40162">
        <ele>805</ele>
      </trkpt>
      <trkpt lat="44.98426" lon="5.40152">
        <ele>804.3</ele>
      </trkpt>
      <trkpt lat="44.9842" lon="5.40147">
        <ele>804.7</ele>
      </trkpt>
      <trkpt lat="44.98301" lon="5.40025">
        <ele>814.6</ele>
      </trkpt>
      <trkpt lat="44.98285" lon="5.40013">
        <ele>814.5</ele>
      </trkpt>
      <trkpt lat="44.98239" lon="5.39986">
        <ele>816.6</ele>
      </trkpt>
      <trkpt lat="44.982" lon="5.3997">
        <ele>818.9</ele>
      </trkpt>
      <trkpt lat="44.98176" lon="5.39962">
        <ele>819.4</ele>
      </trkpt>
      <trkpt lat="44.98164" lon="5.39961">
        <ele>819.6</ele>
      </trkpt>
      <trkpt lat="44.98128" lon="5.39961">
        <ele>820</ele>
      </trkpt>
      <trkpt lat="44.98101" lon="5.39964">
        <ele>819.8</ele>
      </trkpt>
      <trkpt lat="44.98071" lon="5.39963">
        <ele>818.1</ele>
      </trkpt>
      <trkpt lat="44.98044" lon="5.39957">
        <ele>817.7</ele>
      </trkpt>
      <trkpt lat="44.9803" lon="5.3995">
        <ele>817.6</ele>
      </trkpt>
      <trkpt lat="44.97953" lon="5.39895">
        <ele>827.1</ele>
      </trkpt>
      <trkpt lat="44.97934" lon="5.39888">
        <ele>826.9</ele>
      </trkpt>
      <trkpt lat="44.97916" lon="5.39885">
        <ele>827.7</ele>
      </trkpt>
      <trkpt lat="44.97898" lon="5.39885">
        <ele>828.7</ele>
      </trkpt>
      <trkpt lat="44.97856" lon="5.39896">
        <ele>829.3</ele>
      </trkpt>
      <trkpt lat="44.9784" lon="5.39898">
        <ele>828.4</ele>
      </trkpt>
      <trkpt lat="44.97761" lon="5.399">
        <ele>832.8</ele>
      </trkpt>
      <trkpt lat="44.97743" lon="5.39904">
        <ele>832.6</ele>
      </trkpt>
      <trkpt lat="44.97731" lon="5.3991">
        <ele>833.7</ele>
      </trkpt>
      <trkpt lat="44.97709" lon="5.39928">
        <ele>826.8</ele>
      </trkpt>
      <trkpt lat="44.97608" lon="5.40034">
        <ele>828.8</ele>
      </trkpt>
      <trkpt lat="44.97493" lon="5.40148">
        <ele>827</ele>
      </trkpt>
      <trkpt lat="44.97489" lon="5.40153">
        <ele>827</ele>
      </trkpt>
      <trkpt lat="44.97353" lon="5.4029">
        <ele>824.5</ele>
      </trkpt>
      <trkpt lat="44.9735" lon="5.40292">
        <ele>824.6</ele>
      </trkpt>
      <trkpt lat="44.97271" lon="5.40375">
        <ele>828.6</ele>
      </trkpt>
      <trkpt lat="44.97257" lon="5.40392">
        <ele>829.9</ele>
      </trkpt>
      <trkpt lat="44.97199" lon="5.40472">
        <ele>834.8</ele>
      </trkpt>
      <trkpt lat="44.97184" lon="5.40502">
        <ele>838.1</ele>
      </trkpt>
      <trkpt lat="44.97167" lon="5.40558">
        <ele>840.2</ele>
      </trkpt>
      <trkpt lat="44.97154" lon="5.40615">
        <ele>842.1</ele>
      </trkpt>
      <trkpt lat="44.97145" lon="5.40641">
        <ele>843.3</ele>
      </trkpt>
      <trkpt lat="44.97136" lon="5.40658">
        <ele>843.6</ele>
      </trkpt>
      <trkpt lat="44.97129" lon="5.40669">
        <ele>850</ele>
      </trkpt>
      <trkpt lat="44.97121" lon="5.40679">
        <ele>850.2</ele>
      </trkpt>
      <trkpt lat="44.97114" lon="5.40686">
        <ele>850.3</ele>
      </trkpt>
      <trkpt lat="44.97112" lon="5.40687">
        <ele>850.3</ele>
      </trkpt>
      <trkpt lat="44.97106" lon="5.40693">
        <ele>850.6</ele>
      </trkpt>
      <trkpt lat="44.97007" lon="5.40775">
        <ele>855.8</ele>
      </trkpt>
      <trkpt lat="44.97005" lon="5.40776">
        <ele>855.9</ele>
      </trkpt>
      <trkpt lat="44.96992" lon="5.40789">
        <ele>854.1</ele>
      </trkpt>
      <trkpt lat="44.96991" lon="5.40791">
        <ele>854.3</ele>
      </trkpt>
      <trkpt lat="44.96987" lon="5.40795">
        <ele>854.6</ele>
      </trkpt>
      <trkpt lat="44.96972" lon="5.40817">
        <ele>855.6</ele>
      </trkpt>
      <trkpt lat="44.96967" lon="5.4083">
        <ele>855.8</ele>
      </trkpt>
      <trkpt lat="44.96961" lon="5.40852">
        <ele>860.7</ele>
      </trkpt>
      <trkpt lat="44.96959" lon="5.40863">
        <ele>861</ele>
      </trkpt>
      <trkpt lat="44.96957" lon="5.40885">
        <ele>861.9</ele>
      </trkpt>
      <trkpt lat="44.96957" lon="5.40899">
        <ele>862.4</ele>
      </trkpt>
      <trkpt lat="44.96964" lon="5.40942">
        <ele>866.3</ele>
      </trkpt>
      <trkpt lat="44.96996" lon="5.41083">
        <ele>872.4</ele>
      </trkpt>
      <trkpt lat="44.96996" lon="5.41092">
        <ele>872.9</ele>
      </trkpt>
      <trkpt lat="44.96995" lon="5.411">
        <ele>872.9</ele>
      </trkpt>
      <trkpt lat="44.96991" lon="5.41108">
        <ele>873</ele>
      </trkpt>
      <trkpt lat="44.96983" lon="5.41119">
        <ele>873.1</ele>
      </trkpt>
      <trkpt lat="44.96975" lon="5.41122">
        <ele>873.1</ele>
      </trkpt>
      <trkpt lat="44.96961" lon="5.41124">
        <ele>873</ele>
      </trkpt>
      <trkpt lat="44.96956" lon="5.41124">
        <ele>872.9</ele>
      </trkpt>
      <trkpt lat="44.96936" lon="5.41133">
        <ele>873.3</ele>
      </trkpt>
      <trkpt lat="44.96862" lon="5.41198">
        <ele>879.2</ele>
      </trkpt>
      <trkpt lat="44.96845" lon="5.41216">
        <ele>879.8</ele>
      </trkpt>
      <trkpt lat="44.96839" lon="5.41226">
        <ele>880.2</ele>
      </trkpt>
      <trkpt lat="44.96837" lon="5.41234">
        <ele>880.5</ele>
      </trkpt>
      <trkpt lat="44.9683" lon="5.4125">
        <ele>880.6</ele>
      </trkpt>
      <trkpt lat="44.96805" lon="5.4137">
        <ele>884.7</ele>
      </trkpt>
      <trkpt lat="44.96794" lon="5.41414">
        <ele>884.8</ele>
      </trkpt>
      <trkpt lat="44.96759" lon="5.4153">
        <ele>888.2</ele>
      </trkpt>
      <trkpt lat="44.96757" lon="5.41533">
        <ele>888.3</ele>
      </trkpt>
      <trkpt lat="44.96756" lon="5.41538">
        <ele>888.5</ele>
      </trkpt>
      <trkpt lat="44.9675" lon="5.41548">
        <ele>888.6</ele>
      </trkpt>
      <trkpt lat="44.96747" lon="5.41551">
        <ele>885</ele>
      </trkpt>
      <trkpt lat="44.96742" lon="5.4156">
        <ele>885.3</ele>
      </trkpt>
      <trkpt lat="44.96733" lon="5.41556">
        <ele>884.9</ele>
      </trkpt>
      <trkpt lat="44.96717" lon="5.41554">
        <ele>884.3</ele>
      </trkpt>
      <trkpt lat="44.96711" lon="5.4155">
        <ele>884</ele>
      </trkpt>
      <trkpt lat="44.96705" lon="5.41547">
        <ele>883.8</ele>
      </trkpt>
      <trkpt lat="44.96659" lon="5.41513">
        <ele>881</ele>
      </trkpt>
      <trkpt lat="44.96623" lon="5.4149">
        <ele>880</ele>
      </trkpt>
      <trkpt lat="44.96577" lon="5.41465">
        <ele>880.9</ele>
      </trkpt>
      <trkpt lat="44.96564" lon="5.41456">
        <ele>880.7</ele>
      </trkpt>
      <trkpt lat="44.9654" lon="5.4143">
        <ele>880.4</ele>
      </trkpt>
      <trkpt lat="44.96527" lon="5.41413">
        <ele>878.9</ele>
      </trkpt>
      <trkpt lat="44.96514" lon="5.41388">
        <ele>878.9</ele>
      </trkpt>
      <trkpt lat="44.96505" lon="5.41352">
        <ele>879.1</ele>
      </trkpt>
      <trkpt lat="44.96502" lon="5.41331">
        <ele>879.5</ele>
      </trkpt>
      <trkpt lat="44.96501" lon="5.41309">
        <ele>877.5</ele>
      </trkpt>
      <trkpt lat="44.96502" lon="5.413">
        <ele>876.9</ele>
      </trkpt>
      <trkpt lat="44.96501" lon="5.41289">
        <ele>876.5</ele>
      </trkpt>
      <trkpt lat="44.96501" lon="5.41265">
        <ele>875.6</ele>
      </trkpt>
      <trkpt lat="44.96498" lon="5.41249">
        <ele>875.2</ele>
      </trkpt>
      <trkpt lat="44.96491" lon="5.41234">
        <ele>875.8</ele>
      </trkpt>
      <trkpt lat="44.96486" lon="5.41227">
        <ele>876</ele>
      </trkpt>
      <trkpt lat="44.96483" lon="5.41224">
        <ele>876</ele>
      </trkpt>
      <trkpt lat="44.96374" lon="5.4114">
        <ele>875.4</ele>
      </trkpt>
      <trkpt lat="44.96294" lon="5.41052">
        <ele>870.2</ele>
      </trkpt>
      <trkpt lat="44.9626" lon="5.41022">
        <ele>868.4</ele>
      </trkpt>
      <trkpt lat="44.96136" lon="5.40944">
        <ele>861.9</ele>
      </trkpt>
      <trkpt lat="44.96122" lon="5.40934">
        <ele>861.4</ele>
      </trkpt>
      <trkpt lat="44.9611" lon="5.40927">
        <ele>860.8</ele>
      </trkpt>
      <trkpt lat="44.96095" lon="5.4092">
        <ele>859.3</ele>
      </trkpt>
      <trkpt lat="44.96077" lon="5.40914">
        <ele>856.3</ele>
      </trkpt>
      <trkpt lat="44.96058" lon="5.40912">
        <ele>855.3</ele>
      </trkpt>
      <trkpt lat="44.96029" lon="5.40906">
        <ele>855.1</ele>
      </trkpt>
      <trkpt lat="44.95997" lon="5.40897">
        <ele>857.3</ele>
      </trkpt>
      <trkpt lat="44.95977" lon="5.4089">
        <ele>857.7</ele>
      </trkpt>
      <trkpt lat="44.95974" lon="5.40897">
        <ele>858</ele>
      </trkpt>
      <trkpt lat="44.95974" lon="5.40902">
        <ele>858</ele>
      </trkpt>
      <trkpt lat="44.95986" lon="5.40957">
        <ele>861.8</ele>
      </trkpt>
      <trkpt lat="44.95989" lon="5.40984">
        <ele>861.7</ele>
      </trkpt>
      <trkpt lat="44.95987" lon="5.41002">
        <ele>862.1</ele>
      </trkpt>
      <trkpt lat="44.95976" lon="5.41051">
        <ele>864.1</ele>
      </trkpt>
      <trkpt lat="44.95973" lon="5.41072">
        <ele>864.1</ele>
      </trkpt>
      <trkpt lat="44.95966" lon="5.41092">
        <ele>864.8</ele>
      </trkpt>
      <trkpt lat="44.95951" lon="5.41117">
        <ele>865</ele>
      </trkpt>
      <trkpt lat="44.95938" lon="5.41121">
        <ele>864.9</ele>
      </trkpt>
      <trkpt lat="44.95934" lon="5.41126">
        <ele>864.8</ele>
      </trkpt>
      <trkpt lat="44.95929" lon="5.41135">
        <ele>864.5</ele>
      </trkpt>
      <trkpt lat="44.95924" lon="5.41149">
        <ele>863.9</ele>
      </trkpt>
      <trkpt lat="44.95921" lon="5.41173">
        <ele>863.6</ele>
      </trkpt>
      <trkpt lat="44.95917" lon="5.41241">
        <ele>865.2</ele>
      </trkpt>
      <trkpt lat="44.9592" lon="5.41257">
        <ele>865.1</ele>
      </trkpt>
      <trkpt lat="44.95943" lon="5.41312">
        <ele>867.1</ele>
      </trkpt>
      <trkpt lat="44.95944" lon="5.41324">
        <ele>867</ele>
      </trkpt>
      <trkpt lat="44.95952" lon="5.4136">
        <ele>865.9</ele>
      </trkpt>
      <trkpt lat="44.95959" lon="5.41374">
        <ele>865.8</ele>
      </trkpt>
      <trkpt lat="44.95967" lon="5.41395">
        <ele>865.3</ele>
      </trkpt>
      <trkpt lat="44.95972" lon="5.41465">
        <ele>865.6</ele>
      </trkpt>
      <trkpt lat="44.95975" lon="5.4149">
        <ele>865.5</ele>
      </trkpt>
      <trkpt lat="44.95976" lon="5.41508">
        <ele>866.5</ele>
      </trkpt>
      <trkpt lat="44.95983" lon="5.41555">
        <ele>866.9</ele>
      </trkpt>
      <trkpt lat="44.95982" lon="5.41586">
        <ele>866.3</ele>
      </trkpt>
      <trkpt lat="44.95974" lon="5.41615">
        <ele>866.8</ele>
      </trkpt>
      <trkpt lat="44.95955" lon="5.41669">
        <ele>865.8</ele>
      </trkpt>
      <trkpt lat="44.95954" lon="5.4167">
        <ele>865.8</ele>
      </trkpt>
      <trkpt lat="44.95946" lon="5.41687">
        <ele>866</ele>
      </trkpt>
      <trkpt lat="44.9594" lon="5.41704">
        <ele>866</ele>
      </trkpt>
      <trkpt lat="44.95936" lon="5.41719">
        <ele>866</ele>
      </trkpt>
      <trkpt lat="44.95917" lon="5.41825">
        <ele>867.2</ele>
      </trkpt>
      <trkpt lat="44.959" lon="5.41877">
        <ele>870.4</ele>
      </trkpt>
      <trkpt lat="44.95895" lon="5.41886">
        <ele>870.5</ele>
      </trkpt>
      <trkpt lat="44.95867" lon="5.41979">
        <ele>870.8</ele>
      </trkpt>
      <trkpt lat="44.95852" lon="5.42044">
        <ele>870.2</ele>
      </trkpt>
      <trkpt lat="44.95852" lon="5.42045">
        <ele>870.2</ele>
      </trkpt>
      <trkpt lat="44.95846" lon="5.42062">
        <ele>870.1</ele>
      </trkpt>
      <trkpt lat="44.95838" lon="5.42107">
        <ele>870.2</ele>
      </trkpt>
      <trkpt lat="44.95839" lon="5.42117">
        <ele>870.3</ele>
      </trkpt>
      <trkpt lat="44.95839" lon="5.42145">
        <ele>870.8</ele>
      </trkpt>
      <trkpt lat="44.95835" lon="5.42164">
        <ele>871.7</ele>
      </trkpt>
      <trkpt lat="44.95829" lon="5.42179">
        <ele>872.6</ele>
      </trkpt>
      <trkpt lat="44.95828" lon="5.42184">
        <ele>872.7</ele>
      </trkpt>
      <trkpt lat="44.95818" lon="5.42206">
        <ele>873</ele>
      </trkpt>
      <trkpt lat="44.95811" lon="5.42231">
        <ele>872.7</ele>
      </trkpt>
      <trkpt lat="44.95808" lon="5.42238">
        <ele>872.7</ele>
      </trkpt>
      <trkpt lat="44.95808" lon="5.42244">
        <ele>872.6</ele>
      </trkpt>
      <trkpt lat="44.95809" lon="5.42247">
        <ele>872.5</ele>
      </trkpt>
      <trkpt lat="44.95813" lon="5.42251">
        <ele>871</ele>
      </trkpt>
      <trkpt lat="44.9582" lon="5.42255">
        <ele>871</ele>
      </trkpt>
      <trkpt lat="44.95833" lon="5.42265">
        <ele>870.8</ele>
      </trkpt>
      <trkpt lat="44.95851" lon="5.42281">
        <ele>869.3</ele>
      </trkpt>
      <trkpt lat="44.95865" lon="5.42296">
        <ele>869</ele>
      </trkpt>
      <trkpt lat="44.95741" lon="5.42359">
        <ele>870.4</ele>
      </trkpt>
      <trkpt lat="44.95733" lon="5.42364">
        <ele>870.5</ele>
      </trkpt>
      <trkpt lat="44.95708" lon="5.42383">
        <ele>870.8</ele>
      </trkpt>
      <trkpt lat="44.95689" lon="5.42406">
        <ele>871.2</ele>
      </trkpt>
      <trkpt lat="44.9565" lon="5.42468">
        <ele>875.9</ele>
      </trkpt>
      <trkpt lat="44.95645" lon="5.42473">
        <ele>876.1</ele>
      </trkpt>
      <trkpt lat="44.95638" lon="5.42483">
        <ele>876.2</ele>
      </trkpt>
      <trkpt lat="44.95615" lon="5.42504">
        <ele>877.2</ele>
      </trkpt>
      <trkpt lat="44.95572" lon="5.4253">
        <ele>882.1</ele>
      </trkpt>
      <trkpt lat="44.95568" lon="5.42533">
        <ele>882.2</ele>
      </trkpt>
      <trkpt lat="44.95494" lon="5.42575">
        <ele>881.8</ele>
      </trkpt>
      <trkpt lat="44.95489" lon="5.42577">
        <ele>882.2</ele>
      </trkpt>
      <trkpt lat="44.95464" lon="5.4259">
        <ele>877.5</ele>
      </trkpt>
      <trkpt lat="44.95462" lon="5.42587">
        <ele>877.6</ele>
      </trkpt>
      <trkpt lat="44.95458" lon="5.42585">
        <ele>877.6</ele>
      </trkpt>
      <trkpt lat="44.95444" lon="5.4258">
        <ele>884.2</ele>
      </trkpt>
      <trkpt lat="44.95428" lon="5.42576">
        <ele>883</ele>
      </trkpt>
      <trkpt lat="44.95374" lon="5.42557">
        <ele>889.1</ele>
      </trkpt>
      <trkpt lat="44.95346" lon="5.42549">
        <ele>890.2</ele>
      </trkpt>
      <trkpt lat="44.95309" lon="5.42533">
        <ele>896</ele>
      </trkpt>
      <trkpt lat="44.95293" lon="5.42529">
        <ele>896.8</ele>
      </trkpt>
      <trkpt lat="44.95287" lon="5.4253">
        <ele>896.9</ele>
      </trkpt>
      <trkpt lat="44.95282" lon="5.4253">
        <ele>897.2</ele>
      </trkpt>
      <trkpt lat="44.95271" lon="5.42532">
        <ele>897.6</ele>
      </trkpt>
      <trkpt lat="44.95269" lon="5.42533">
        <ele>897.5</ele>
      </trkpt>
      <trkpt lat="44.95261" lon="5.42535">
        <ele>897.6</ele>
      </trkpt>
      <trkpt lat="44.95238" lon="5.42538">
        <ele>902.7</ele>
      </trkpt>
      <trkpt lat="44.95199" lon="5.42537">
        <ele>904.6</ele>
      </trkpt>
      <trkpt lat="44.95184" lon="5.42535">
        <ele>905.7</ele>
      </trkpt>
      <trkpt lat="44.95163" lon="5.42534">
        <ele>911.6</ele>
      </trkpt>
      <trkpt lat="44.95151" lon="5.42536">
        <ele>911.6</ele>
      </trkpt>
      <trkpt lat="44.95146" lon="5.42541">
        <ele>911.4</ele>
      </trkpt>
      <trkpt lat="44.95134" lon="5.42549">
        <ele>911.4</ele>
      </trkpt>
      <trkpt lat="44.95116" lon="5.42556">
        <ele>911.9</ele>
      </trkpt>
      <trkpt lat="44.95077" lon="5.42557">
        <ele>916.6</ele>
      </trkpt>
      <trkpt lat="44.95047" lon="5.4256">
        <ele>917.8</ele>
      </trkpt>
      <trkpt lat="44.95015" lon="5.42556">
        <ele>919</ele>
      </trkpt>
      <trkpt lat="44.95006" lon="5.4255">
        <ele>919.4</ele>
      </trkpt>
      <trkpt lat="44.95005" lon="5.4255">
        <ele>919.4</ele>
      </trkpt>
      <trkpt lat="44.94934" lon="5.42529">
        <ele>922.8</ele>
      </trkpt>
      <trkpt lat="44.94933" lon="5.42528">
        <ele>922.9</ele>
      </trkpt>
      <trkpt lat="44.94917" lon="5.42525">
        <ele>923.3</ele>
      </trkpt>
      <trkpt lat="44.94906" lon="5.42528">
        <ele>926.1</ele>
      </trkpt>
      <trkpt lat="44.94899" lon="5.42529">
        <ele>926.3</ele>
      </trkpt>
      <trkpt lat="44.94887" lon="5.42532">
        <ele>926.7</ele>
      </trkpt>
      <trkpt lat="44.94863" lon="5.42533">
        <ele>928</ele>
      </trkpt>
      <trkpt lat="44.94818" lon="5.42524">
        <ele>934.6</ele>
      </trkpt>
      <trkpt lat="44.94811" lon="5.42519">
        <ele>935</ele>
      </trkpt>
      <trkpt lat="44.94775" lon="5.42487">
        <ele>943.8</ele>
      </trkpt>
      <trkpt lat="44.94764" lon="5.42479">
        <ele>944.2</ele>
      </trkpt>
      <trkpt lat="44.94747" lon="5.42474">
        <ele>948</ele>
      </trkpt>
      <trkpt lat="44.94745" lon="5.42474">
        <ele>948</ele>
      </trkpt>
      <trkpt lat="44.9474" lon="5.42472">
        <ele>948.3</ele>
      </trkpt>
      <trkpt lat="44.9473" lon="5.4247">
        <ele>948.8</ele>
      </trkpt>
      <trkpt lat="44.9472" lon="5.42465">
        <ele>949.5</ele>
      </trkpt>
      <trkpt lat="44.94697" lon="5.42443">
        <ele>951.7</ele>
      </trkpt>
      <trkpt lat="44.94652" lon="5.42409">
        <ele>963.1</ele>
      </trkpt>
      <trkpt lat="44.94626" lon="5.42384">
        <ele>966.8</ele>
      </trkpt>
      <trkpt lat="44.9459" lon="5.42354">
        <ele>970.6</ele>
      </trkpt>
      <trkpt lat="44.94576" lon="5.42345">
        <ele>973.7</ele>
      </trkpt>
      <trkpt lat="44.94564" lon="5.42335">
        <ele>973.8</ele>
      </trkpt>
      <trkpt lat="44.94557" lon="5.42332">
        <ele>981.5</ele>
      </trkpt>
      <trkpt lat="44.94482" lon="5.4229">
        <ele>986.8</ele>
      </trkpt>
      <trkpt lat="44.94456" lon="5.42272">
        <ele>988.2</ele>
      </trkpt>
      <trkpt lat="44.94449" lon="5.42257">
        <ele>989.1</ele>
      </trkpt>
      <trkpt lat="44.94445" lon="5.42254">
        <ele>989.3</ele>
      </trkpt>
      <trkpt lat="44.94412" lon="5.42238">
        <ele>996.7</ele>
      </trkpt>
      <trkpt lat="44.94402" lon="5.42232">
        <ele>998.5</ele>
      </trkpt>
      <trkpt lat="44.94362" lon="5.42212">
        <ele>1001.9</ele>
      </trkpt>
      <trkpt lat="44.94361" lon="5.42211">
        <ele>1002</ele>
      </trkpt>
      <trkpt lat="44.94312" lon="5.42181">
        <ele>1006.6</ele>
      </trkpt>
      <trkpt lat="44.94295" lon="5.42172">
        <ele>1006.7</ele>
      </trkpt>
      <trkpt lat="44.94273" lon="5.42163">
        <ele>1015.8</ele>
      </trkpt>
      <trkpt lat="44.94243" lon="5.42156">
        <ele>1014.9</ele>
      </trkpt>
      <trkpt lat="44.94239" lon="5.42156">
        <ele>1015.1</ele>
      </trkpt>
      <trkpt lat="44.94211" lon="5.42145">
        <ele>1016.6</ele>
      </trkpt>
      <trkpt lat="44.94202" lon="5.42139">
        <ele>1016.8</ele>
      </trkpt>
      <trkpt lat="44.9419" lon="5.42127">
        <ele>1017.5</ele>
      </trkpt>
      <trkpt lat="44.94176" lon="5.42121">
        <ele>1018</ele>
      </trkpt>
      <trkpt lat="44.94171" lon="5.42118">
        <ele>1018.3</ele>
      </trkpt>
      <trkpt lat="44.94141" lon="5.42108">
        <ele>1020.6</ele>
      </trkpt>
      <trkpt lat="44.94116" lon="5.42098">
        <ele>1021.8</ele>
      </trkpt>
      <trkpt lat="44.94107" lon="5.42093">
        <ele>1022.7</ele>
      </trkpt>
      <trkpt lat="44.94103" lon="5.42092">
        <ele>1023.1</ele>
      </trkpt>
      <trkpt lat="44.94091" lon="5.42084">
        <ele>1025.2</ele>
      </trkpt>
      <trkpt lat="44.9409" lon="5.42083">
        <ele>1028.6</ele>
      </trkpt>
      <trkpt lat="44.94081" lon="5.42077">
        <ele>1029.3</ele>
      </trkpt>
      <trkpt lat="44.94065" lon="5.42073">
        <ele>1032.3</ele>
      </trkpt>
      <trkpt lat="44.94056" lon="5.42072">
        <ele>1033.2</ele>
      </trkpt>
      <trkpt lat="44.94026" lon="5.42066">
        <ele>1034.1</ele>
      </trkpt>
      <trkpt lat="44.94003" lon="5.42058">
        <ele>1034.3</ele>
      </trkpt>
      <trkpt lat="44.94002" lon="5.42057">
        <ele>1034.4</ele>
      </trkpt>
      <trkpt lat="44.93992" lon="5.42051">
        <ele>1037.2</ele>
      </trkpt>
      <trkpt lat="44.93956" lon="5.42037">
        <ele>1039.7</ele>
      </trkpt>
      <trkpt lat="44.93936" lon="5.42034">
        <ele>1040.6</ele>
      </trkpt>
      <trkpt lat="44.93932" lon="5.42028">
        <ele>1041.4</ele>
      </trkpt>
      <trkpt lat="44.93933" lon="5.42022">
        <ele>1042.1</ele>
      </trkpt>
      <trkpt lat="44.93938" lon="5.42016">
        <ele>1042.4</ele>
      </trkpt>
      <trkpt lat="44.93979" lon="5.42007">
        <ele>1042</ele>
      </trkpt>
      <trkpt lat="44.94015" lon="5.41997">
        <ele>1050.3</ele>
      </trkpt>
      <trkpt lat="44.94049" lon="5.41991">
        <ele>1053</ele>
      </trkpt>
      <trkpt lat="44.9405" lon="5.4199">
        <ele>1053</ele>
      </trkpt>
      <trkpt lat="44.94085" lon="5.41978">
        <ele>1051.4</ele>
      </trkpt>
      <trkpt lat="44.94171" lon="5.41942">
        <ele>1057.1</ele>
      </trkpt>
      <trkpt lat="44.94172" lon="5.41942">
        <ele>1057.1</ele>
      </trkpt>
      <trkpt lat="44.94188" lon="5.41933">
        <ele>1057.7</ele>
      </trkpt>
      <trkpt lat="44.94197" lon="5.41929">
        <ele>1057.5</ele>
      </trkpt>
      <trkpt lat="44.94205" lon="5.41927">
        <ele>1057.3</ele>
      </trkpt>
      <trkpt lat="44.94207" lon="5.41926">
        <ele>1057.3</ele>
      </trkpt>
      <trkpt lat="44.94218" lon="5.41927">
        <ele>1057.4</ele>
      </trkpt>
      <trkpt lat="44.94248" lon="5.41927">
        <ele>1060.9</ele>
      </trkpt>
      <trkpt lat="44.94253" lon="5.41923">
        <ele>1062.2</ele>
      </trkpt>
      <trkpt lat="44.94253" lon="5.41915">
        <ele>1066.9</ele>
      </trkpt>
      <trkpt lat="44.94248" lon="5.41913">
        <ele>1067.3</ele>
      </trkpt>
      <trkpt lat="44.9424" lon="5.41912">
        <ele>1070</ele>
      </trkpt>
      <trkpt lat="44.94235" lon="5.41912">
        <ele>1071.4</ele>
      </trkpt>
      <trkpt lat="44.94229" lon="5.41913">
        <ele>1072.6</ele>
      </trkpt>
      <trkpt lat="44.94219" lon="5.41911">
        <ele>1074</ele>
      </trkpt>
      <trkpt lat="44.94218" lon="5.4191">
        <ele>1074.2</ele>
      </trkpt>
      <trkpt lat="44.94202" lon="5.41904">
        <ele>1075.1</ele>
      </trkpt>
      <trkpt lat="44.94185" lon="5.419">
        <ele>1074.5</ele>
      </trkpt>
      <trkpt lat="44.94153" lon="5.41901">
        <ele>1074.8</ele>
      </trkpt>
      <trkpt lat="44.94127" lon="5.41899">
        <ele>1077.6</ele>
      </trkpt>
      <trkpt lat="44.94103" lon="5.41895">
        <ele>1077.6</ele>
      </trkpt>
      <trkpt lat="44.94072" lon="5.41886">
        <ele>1080.1</ele>
      </trkpt>
      <trkpt lat="44.94057" lon="5.41884">
        <ele>1081.1</ele>
      </trkpt>
      <trkpt lat="44.9403" lon="5.41877">
        <ele>1082.4</ele>
      </trkpt>
      <trkpt lat="44.94003" lon="5.41865">
        <ele>1084.8</ele>
      </trkpt>
      <trkpt lat="44.93963" lon="5.41852">
        <ele>1084.2</ele>
      </trkpt>
      <trkpt lat="44.93906" lon="5.41829">
        <ele>1092.6</ele>
      </trkpt>
      <trkpt lat="44.93891" lon="5.41818">
        <ele>1094.7</ele>
      </trkpt>
      <trkpt lat="44.93875" lon="5.41804">
        <ele>1096.1</ele>
      </trkpt>
      <trkpt lat="44.93859" lon="5.41782">
        <ele>1098.2</ele>
      </trkpt>
      <trkpt lat="44.93859" lon="5.4178">
        <ele>1098.4</ele>
      </trkpt>
      <trkpt lat="44.93858" lon="5.41779">
        <ele>1098.5</ele>
      </trkpt>
      <trkpt lat="44.93856" lon="5.41779">
        <ele>1098.6</ele>
      </trkpt>
      <trkpt lat="44.93849" lon="5.41784">
        <ele>1098.1</ele>
      </trkpt>
      <trkpt lat="44.93836" lon="5.41788">
        <ele>1097.5</ele>
      </trkpt>
      <trkpt lat="44.93824" lon="5.41789">
        <ele>1096.9</ele>
      </trkpt>
      <trkpt lat="44.93798" lon="5.41785">
        <ele>1097.2</ele>
      </trkpt>
      <trkpt lat="44.93781" lon="5.41778">
        <ele>1097.8</ele>
      </trkpt>
      <trkpt lat="44.93774" lon="5.41776">
        <ele>1098.2</ele>
      </trkpt>
      <trkpt lat="44.93766" lon="5.41771">
        <ele>1099</ele>
      </trkpt>
      <trkpt lat="44.93757" lon="5.41761">
        <ele>1100.9</ele>
      </trkpt>
      <trkpt lat="44.93744" lon="5.41737">
        <ele>1109.3</ele>
      </trkpt>
      <trkpt lat="44.93743" lon="5.41734">
        <ele>1110.1</ele>
      </trkpt>
      <trkpt lat="44.93734" lon="5.41724">
        <ele>1112.8</ele>
      </trkpt>
      <trkpt lat="44.93715" lon="5.41709">
        <ele>1115.6</ele>
      </trkpt>
      <trkpt lat="44.93706" lon="5.41705">
        <ele>1116.2</ele>
      </trkpt>
      <trkpt lat="44.93697" lon="5.41705">
        <ele>1116.3</ele>
      </trkpt>
      <trkpt lat="44.93686" lon="5.4171">
        <ele>1115.7</ele>
      </trkpt>
      <trkpt lat="44.93647" lon="5.41733">
        <ele>1114.5</ele>
      </trkpt>
      <trkpt lat="44.93642" lon="5.41735">
        <ele>1114.7</ele>
      </trkpt>
      <trkpt lat="44.9363" lon="5.41737">
        <ele>1115.4</ele>
      </trkpt>
      <trkpt lat="44.93618" lon="5.41736">
        <ele>1115.8</ele>
      </trkpt>
      <trkpt lat="44.93611" lon="5.41734">
        <ele>1115.9</ele>
      </trkpt>
      <trkpt lat="44.93595" lon="5.41725">
        <ele>1116.5</ele>
      </trkpt>
      <trkpt lat="44.93594" lon="5.41724">
        <ele>1116.7</ele>
      </trkpt>
      <trkpt lat="44.93579" lon="5.41719">
        <ele>1120</ele>
      </trkpt>
      <trkpt lat="44.93571" lon="5.41719">
        <ele>1120.2</ele>
      </trkpt>
      <trkpt lat="44.9356" lon="5.41724">
        <ele>1120</ele>
      </trkpt>
      <trkpt lat="44.93548" lon="5.41728">
        <ele>1120.2</ele>
      </trkpt>
      <trkpt lat="44.9354" lon="5.41727">
        <ele>1120.6</ele>
      </trkpt>
      <trkpt lat="44.93532" lon="5.41725">
        <ele>1121</ele>
      </trkpt>
      <trkpt lat="44.93524" lon="5.41722">
        <ele>1121.3</ele>
      </trkpt>
      <trkpt lat="44.93522" lon="5.41722">
        <ele>1121.3</ele>
      </trkpt>
      <trkpt lat="44.93507" lon="5.41716">
        <ele>1122.1</ele>
      </trkpt>
      <trkpt lat="44.93473" lon="5.41696">
        <ele>1125.5</ele>
      </trkpt>
      <trkpt lat="44.93467" lon="5.41689">
        <ele>1126</ele>
      </trkpt>
      <trkpt lat="44.93463" lon="5.41683">
        <ele>1126.4</ele>
      </trkpt>
      <trkpt lat="44.93457" lon="5.4167">
        <ele>1126.9</ele>
      </trkpt>
      <trkpt lat="44.93456" lon="5.41665">
        <ele>1137.2</ele>
      </trkpt>
      <trkpt lat="44.9345" lon="5.41654">
        <ele>1137.5</ele>
      </trkpt>
      <trkpt lat="44.93444" lon="5.41651">
        <ele>1137.3</ele>
      </trkpt>
      <trkpt lat="44.93438" lon="5.41652">
        <ele>1136.7</ele>
      </trkpt>
      <trkpt lat="44.93427" lon="5.41658">
        <ele>1134.4</ele>
      </trkpt>
      <trkpt lat="44.93417" lon="5.4166">
        <ele>1132.5</ele>
      </trkpt>
      <trkpt lat="44.9341" lon="5.41659">
        <ele>1132.9</ele>
      </trkpt>
      <trkpt lat="44.93401" lon="5.41655">
        <ele>1134.7</ele>
      </trkpt>
      <trkpt lat="44.93396" lon="5.41654">
        <ele>1135.2</ele>
      </trkpt>
      <trkpt lat="44.93383" lon="5.41649">
        <ele>1136.3</ele>
      </trkpt>
      <trkpt lat="44.93382" lon="5.41648">
        <ele>1136.5</ele>
      </trkpt>
      <trkpt lat="44.93373" lon="5.41642">
        <ele>1137</ele>
      </trkpt>
      <trkpt lat="44.93365" lon="5.41634">
        <ele>1137.7</ele>
      </trkpt>
      <trkpt lat="44.93357" lon="5.41616">
        <ele>1139.8</ele>
      </trkpt>
      <trkpt lat="44.93344" lon="5.4158">
        <ele>1149.8</ele>
      </trkpt>
      <trkpt lat="44.9334" lon="5.41577">
        <ele>1149.4</ele>
      </trkpt>
      <trkpt lat="44.93337" lon="5.41576">
        <ele>1149.2</ele>
      </trkpt>
      <trkpt lat="44.93323" lon="5.41576">
        <ele>1149.8</ele>
      </trkpt>
      <trkpt lat="44.93232" lon="5.41609">
        <ele>1146.5</ele>
      </trkpt>
      <trkpt lat="44.93221" lon="5.41612">
        <ele>1146.4</ele>
      </trkpt>
      <trkpt lat="44.93212" lon="5.41613">
        <ele>1146.5</ele>
      </trkpt>
      <trkpt lat="44.93205" lon="5.41613">
        <ele>1146.6</ele>
      </trkpt>
      <trkpt lat="44.93194" lon="5.41611">
        <ele>1146.9</ele>
      </trkpt>
      <trkpt lat="44.93184" lon="5.41608">
        <ele>1147.2</ele>
      </trkpt>
      <trkpt lat="44.93172" lon="5.41607">
        <ele>1147.4</ele>
      </trkpt>
      <trkpt lat="44.93169" lon="5.41606">
        <ele>1147.5</ele>
      </trkpt>
      <trkpt lat="44.93162" lon="5.41608">
        <ele>1148.5</ele>
      </trkpt>
      <trkpt lat="44.93146" lon="5.4161">
        <ele>1148.4</ele>
      </trkpt>
      <trkpt lat="44.93135" lon="5.41609">
        <ele>1148.4</ele>
      </trkpt>
      <trkpt lat="44.93119" lon="5.41604">
        <ele>1148.2</ele>
      </trkpt>
      <trkpt lat="44.93118" lon="5.41603">
        <ele>1148.2</ele>
      </trkpt>
      <trkpt lat="44.93109" lon="5.41602">
        <ele>1148</ele>
      </trkpt>
      <trkpt lat="44.93083" lon="5.41606">
        <ele>1147.9</ele>
      </trkpt>
      <trkpt lat="44.93077" lon="5.41604">
        <ele>1147.8</ele>
      </trkpt>
      <trkpt lat="44.93066" lon="5.41596">
        <ele>1147.6</ele>
      </trkpt>
      <trkpt lat="44.93048" lon="5.41577">
        <ele>1143.3</ele>
      </trkpt>
      <trkpt lat="44.93036" lon="5.41568">
        <ele>1142.9</ele>
      </trkpt>
      <trkpt lat="44.93024" lon="5.41562">
        <ele>1142.7</ele>
      </trkpt>
      <trkpt lat="44.93019" lon="5.41563">
        <ele>1142.8</ele>
      </trkpt>
      <trkpt lat="44.93016" lon="5.41563">
        <ele>1142.8</ele>
      </trkpt>
      <trkpt lat="44.93004" lon="5.41565">
        <ele>1143.1</ele>
      </trkpt>
      <trkpt lat="44.93001" lon="5.41565">
        <ele>1143.1</ele>
      </trkpt>
      <trkpt lat="44.92995" lon="5.41564">
        <ele>1140.8</ele>
      </trkpt>
      <trkpt lat="44.92988" lon="5.41561">
        <ele>1140.1</ele>
      </trkpt>
      <trkpt lat="44.92984" lon="5.41558">
        <ele>1139.5</ele>
      </trkpt>
      <trkpt lat="44.9298" lon="5.41556">
        <ele>1139.2</ele>
      </trkpt>
      <trkpt lat="44.92975" lon="5.41551">
        <ele>1138.6</ele>
      </trkpt>
      <trkpt lat="44.9297" lon="5.41542">
        <ele>1137.9</ele>
      </trkpt>
      <trkpt lat="44.92969" lon="5.41538">
        <ele>1137.6</ele>
      </trkpt>
      <trkpt lat="44.92966" lon="5.41531">
        <ele>1137.2</ele>
      </trkpt>
      <trkpt lat="44.92961" lon="5.41522">
        <ele>1136.7</ele>
      </trkpt>
      <trkpt lat="44.9296" lon="5.41522">
        <ele>1136.7</ele>
      </trkpt>
      <trkpt lat="44.92955" lon="5.41516">
        <ele>1136.3</ele>
      </trkpt>
      <trkpt lat="44.92949" lon="5.41511">
        <ele>1135.9</ele>
      </trkpt>
      <trkpt lat="44.92945" lon="5.41509">
        <ele>1135.6</ele>
      </trkpt>
      <trkpt lat="44.92936" lon="5.41506">
        <ele>1134.9</ele>
      </trkpt>
      <trkpt lat="44.92912" lon="5.41492">
        <ele>1129.6</ele>
      </trkpt>
      <trkpt lat="44.92891" lon="5.41489">
        <ele>1126.7</ele>
      </trkpt>
      <trkpt lat="44.92887" lon="5.41487">
        <ele>1126.2</ele>
      </trkpt>
      <trkpt lat="44.9288" lon="5.4148">
        <ele>1125.4</ele>
      </trkpt>
      <trkpt lat="44.92878" lon="5.41476">
        <ele>1125.1</ele>
      </trkpt>
      <trkpt lat="44.92877" lon="5.41475">
        <ele>1125</ele>
      </trkpt>
      <trkpt lat="44.92874" lon="5.41458">
        <ele>1124.4</ele>
      </trkpt>
      <trkpt lat="44.92871" lon="5.4145">
        <ele>1124.1</ele>
      </trkpt>
      <trkpt lat="44.92856" lon="5.41431">
        <ele>1122.6</ele>
      </trkpt>
      <trkpt lat="44.92846" lon="5.41422">
        <ele>1121.3</ele>
      </trkpt>
      <trkpt lat="44.92828" lon="5.4141">
        <ele>1116.9</ele>
      </trkpt>
      <trkpt lat="44.92825" lon="5.41409">
        <ele>1116.4</ele>
      </trkpt>
      <trkpt lat="44.92812" lon="5.41402">
        <ele>1114.3</ele>
      </trkpt>
      <trkpt lat="44.92811" lon="5.41402">
        <ele>1114.2</ele>
      </trkpt>
      <trkpt lat="44.92803" lon="5.41397">
        <ele>1113.2</ele>
      </trkpt>
      <trkpt lat="44.92779" lon="5.41378">
        <ele>1111.5</ele>
      </trkpt>
      <trkpt lat="44.92727" lon="5.41352">
        <ele>1106.5</ele>
      </trkpt>
      <trkpt lat="44.92696" lon="5.41347">
        <ele>1105.3</ele>
      </trkpt>
      <trkpt lat="44.92691" lon="5.41345">
        <ele>1105.2</ele>
      </trkpt>
      <trkpt lat="44.92678" lon="5.41332">
        <ele>1106.6</ele>
      </trkpt>
      <trkpt lat="44.92659" lon="5.41317">
        <ele>1104</ele>
      </trkpt>
      <trkpt lat="44.9265" lon="5.41312">
        <ele>1103.7</ele>
      </trkpt>
      <trkpt lat="44.92644" lon="5.4131">
        <ele>1103.5</ele>
      </trkpt>
      <trkpt lat="44.92631" lon="5.41311">
        <ele>1103</ele>
      </trkpt>
      <trkpt lat="44.92626" lon="5.41318">
        <ele>1103</ele>
      </trkpt>
      <trkpt lat="44.92623" lon="5.41325">
        <ele>1103</ele>
      </trkpt>
      <trkpt lat="44.92622" lon="5.41331">
        <ele>1103</ele>
      </trkpt>
      <trkpt lat="44.92622" lon="5.41337">
        <ele>1104.8</ele>
      </trkpt>
      <trkpt lat="44.92623" lon="5.41343">
        <ele>1104.8</ele>
      </trkpt>
      <trkpt lat="44.92628" lon="5.41354">
        <ele>1104.9</ele>
      </trkpt>
      <trkpt lat="44.9263" lon="5.41364">
        <ele>1105</ele>
      </trkpt>
      <trkpt lat="44.92631" lon="5.41375">
        <ele>1105.1</ele>
      </trkpt>
      <trkpt lat="44.92631" lon="5.41385">
        <ele>1105.1</ele>
      </trkpt>
      <trkpt lat="44.92629" lon="5.41391">
        <ele>1105.2</ele>
      </trkpt>
      <trkpt lat="44.92627" lon="5.41392">
        <ele>1105.4</ele>
      </trkpt>
      <trkpt lat="44.92623" lon="5.41391">
        <ele>1105.6</ele>
      </trkpt>
      <trkpt lat="44.92618" lon="5.41387">
        <ele>1105.8</ele>
      </trkpt>
      <trkpt lat="44.92596" lon="5.41374">
        <ele>1106</ele>
      </trkpt>
      <trkpt lat="44.92586" lon="5.41371">
        <ele>1106</ele>
      </trkpt>
      <trkpt lat="44.92576" lon="5.4137">
        <ele>1109.2</ele>
      </trkpt>
      <trkpt lat="44.92568" lon="5.41371">
        <ele>1109.5</ele>
      </trkpt>
      <trkpt lat="44.92562" lon="5.41373">
        <ele>1109.8</ele>
      </trkpt>
      <trkpt lat="44.92556" lon="5.41378">
        <ele>1110.3</ele>
      </trkpt>
      <trkpt lat="44.92548" lon="5.41389">
        <ele>1111.1</ele>
      </trkpt>
      <trkpt lat="44.92541" lon="5.41423">
        <ele>1116.2</ele>
      </trkpt>
      <trkpt lat="44.92536" lon="5.41432">
        <ele>1116.5</ele>
      </trkpt>
      <trkpt lat="44.92519" lon="5.41448">
        <ele>1117.4</ele>
      </trkpt>
      <trkpt lat="44.92503" lon="5.41459">
        <ele>1118.2</ele>
      </trkpt>
      <trkpt lat="44.92471" lon="5.41499">
        <ele>1123.7</ele>
      </trkpt>
      <trkpt lat="44.92455" lon="5.41515">
        <ele>1126.7</ele>
      </trkpt>
      <trkpt lat="44.92446" lon="5.41519">
        <ele>1127.2</ele>
      </trkpt>
      <trkpt lat="44.92431" lon="5.41518">
        <ele>1128</ele>
      </trkpt>
      <trkpt lat="44.92412" lon="5.41519">
        <ele>1131.5</ele>
      </trkpt>
      <trkpt lat="44.92409" lon="5.4152">
        <ele>1131.6</ele>
      </trkpt>
      <trkpt lat="44.92391" lon="5.4152">
        <ele>1132</ele>
      </trkpt>
      <trkpt lat="44.92378" lon="5.41521">
        <ele>1132.3</ele>
      </trkpt>
      <trkpt lat="44.92374" lon="5.41522">
        <ele>1132.4</ele>
      </trkpt>
      <trkpt lat="44.92363" lon="5.41522">
        <ele>1132.5</ele>
      </trkpt>
      <trkpt lat="44.92333" lon="5.41526">
        <ele>1134.8</ele>
      </trkpt>
      <trkpt lat="44.92297" lon="5.41525">
        <ele>1136</ele>
      </trkpt>
      <trkpt lat="44.92286" lon="5.41526">
        <ele>1136.6</ele>
      </trkpt>
      <trkpt lat="44.92271" lon="5.41526">
        <ele>1137.2</ele>
      </trkpt>
      <trkpt lat="44.92266" lon="5.41525">
        <ele>1137.5</ele>
      </trkpt>
      <trkpt lat="44.92224" lon="5.41524">
        <ele>1141.9</ele>
      </trkpt>
      <trkpt lat="44.92212" lon="5.41525">
        <ele>1142.4</ele>
      </trkpt>
      <trkpt lat="44.92171" lon="5.41534">
        <ele>1143.8</ele>
      </trkpt>
      <trkpt lat="44.92158" lon="5.41535">
        <ele>1148.4</ele>
      </trkpt>
      <trkpt lat="44.92133" lon="5.41535">
        <ele>1149.2</ele>
      </trkpt>
      <trkpt lat="44.92122" lon="5.41537">
        <ele>1149.7</ele>
      </trkpt>
      <trkpt lat="44.92107" lon="5.41538">
        <ele>1150.3</ele>
      </trkpt>
      <trkpt lat="44.92105" lon="5.41539">
        <ele>1150.3</ele>
      </trkpt>
      <trkpt lat="44.92087" lon="5.41544">
        <ele>1150.4</ele>
      </trkpt>
      <trkpt lat="44.9207" lon="5.41553">
        <ele>1154.7</ele>
      </trkpt>
      <trkpt lat="44.92053" lon="5.41569">
        <ele>1154.5</ele>
      </trkpt>
      <trkpt lat="44.9204" lon="5.4157">
        <ele>1155.5</ele>
      </trkpt>
      <trkpt lat="44.9203" lon="5.41568">
        <ele>1156.1</ele>
      </trkpt>
      <trkpt lat="44.92019" lon="5.41567">
        <ele>1156.4</ele>
      </trkpt>
      <trkpt lat="44.92011" lon="5.41571">
        <ele>1156.1</ele>
      </trkpt>
      <trkpt lat="44.92" lon="5.41573">
        <ele>1155.9</ele>
      </trkpt>
      <trkpt lat="44.91987" lon="5.41573">
        <ele>1158.6</ele>
      </trkpt>
      <trkpt lat="44.91966" lon="5.41569">
        <ele>1160.5</ele>
      </trkpt>
      <trkpt lat="44.91953" lon="5.41564">
        <ele>1161.1</ele>
      </trkpt>
      <trkpt lat="44.91943" lon="5.41564">
        <ele>1161.1</ele>
      </trkpt>
      <trkpt lat="44.91935" lon="5.41565">
        <ele>1160.9</ele>
      </trkpt>
      <trkpt lat="44.91928" lon="5.41568">
        <ele>1160.4</ele>
      </trkpt>
      <trkpt lat="44.91908" lon="5.41573">
        <ele>1160.7</ele>
      </trkpt>
      <trkpt lat="44.9187" lon="5.41578">
        <ele>1163.1</ele>
      </trkpt>
      <trkpt lat="44.91839" lon="5.41586">
        <ele>1161.6</ele>
      </trkpt>
      <trkpt lat="44.91822" lon="5.41589">
        <ele>1161.3</ele>
      </trkpt>
      <trkpt lat="44.91752" lon="5.41594">
        <ele>1163.3</ele>
      </trkpt>
      <trkpt lat="44.91744" lon="5.41593">
        <ele>1164.9</ele>
      </trkpt>
      <trkpt lat="44.917" lon="5.41596">
        <ele>1165.6</ele>
      </trkpt>
      <trkpt lat="44.91675" lon="5.41596">
        <ele>1170.6</ele>
      </trkpt>
      <trkpt lat="44.91659" lon="5.41594">
        <ele>1173.3</ele>
      </trkpt>
      <trkpt lat="44.91639" lon="5.41589">
        <ele>1171</ele>
      </trkpt>
      <trkpt lat="44.91622" lon="5.41586">
        <ele>1171.1</ele>
      </trkpt>
      <trkpt lat="44.9161" lon="5.41582">
        <ele>1187.3</ele>
      </trkpt>
      <trkpt lat="44.91609" lon="5.41582">
        <ele>1187.2</ele>
      </trkpt>
      <trkpt lat="44.91594" lon="5.41574">
        <ele>1186.6</ele>
      </trkpt>
      <trkpt lat="44.91593" lon="5.41573">
        <ele>1186.6</ele>
      </trkpt>
      <trkpt lat="44.91575" lon="5.41563">
        <ele>1189.1</ele>
      </trkpt>
      <trkpt lat="44.91542" lon="5.41548">
        <ele>1191.8</ele>
      </trkpt>
      <trkpt lat="44.91519" lon="5.41533">
        <ele>1193.8</ele>
      </trkpt>
      <trkpt lat="44.91502" lon="5.4152">
        <ele>1196.8</ele>
      </trkpt>
      <trkpt lat="44.91482" lon="5.41502">
        <ele>1194.9</ele>
      </trkpt>
      <trkpt lat="44.91478" lon="5.41501">
        <ele>1194</ele>
      </trkpt>
      <trkpt lat="44.91457" lon="5.4149">
        <ele>1201.1</ele>
      </trkpt>
      <trkpt lat="44.91448" lon="5.41484">
        <ele>1200.7</ele>
      </trkpt>
      <trkpt lat="44.9144" lon="5.41476">
        <ele>1200.7</ele>
      </trkpt>
      <trkpt lat="44.91432" lon="5.41466">
        <ele>1201.3</ele>
      </trkpt>
      <trkpt lat="44.91427" lon="5.41457">
        <ele>1202.2</ele>
      </trkpt>
      <trkpt lat="44.91419" lon="5.4145">
        <ele>1202.9</ele>
      </trkpt>
      <trkpt lat="44.91418" lon="5.4145">
        <ele>1202.9</ele>
      </trkpt>
      <trkpt lat="44.91412" lon="5.41446">
        <ele>1203.5</ele>
      </trkpt>
      <trkpt lat="44.91394" lon="5.41443">
        <ele>1203.7</ele>
      </trkpt>
      <trkpt lat="44.91382" lon="5.41443">
        <ele>1203.8</ele>
      </trkpt>
      <trkpt lat="44.91381" lon="5.41442">
        <ele>1203.9</ele>
      </trkpt>
      <trkpt lat="44.91339" lon="5.41442">
        <ele>1205.8</ele>
      </trkpt>
      <trkpt lat="44.91328" lon="5.41443">
        <ele>1206.1</ele>
      </trkpt>
      <trkpt lat="44.91311" lon="5.41451">
        <ele>1204.4</ele>
      </trkpt>
      <trkpt lat="44.9131" lon="5.41452">
        <ele>1204.3</ele>
      </trkpt>
      <trkpt lat="44.91299" lon="5.41459">
        <ele>1203.2</ele>
      </trkpt>
      <trkpt lat="44.91293" lon="5.41462">
        <ele>1202.8</ele>
      </trkpt>
      <trkpt lat="44.91287" lon="5.41463">
        <ele>1202.6</ele>
      </trkpt>
      <trkpt lat="44.91277" lon="5.41462">
        <ele>1202.6</ele>
      </trkpt>
      <trkpt lat="44.91226" lon="5.41452">
        <ele>1201.7</ele>
      </trkpt>
      <trkpt lat="44.91206" lon="5.41443">
        <ele>1202.3</ele>
      </trkpt>
      <trkpt lat="44.91205" lon="5.41442">
        <ele>1202.4</ele>
      </trkpt>
      <trkpt lat="44.91196" lon="5.41438">
        <ele>1202.8</ele>
      </trkpt>
      <trkpt lat="44.91189" lon="5.41433">
        <ele>1203.7</ele>
      </trkpt>
      <trkpt lat="44.91173" lon="5.41416">
        <ele>1210.8</ele>
      </trkpt>
      <trkpt lat="44.91167" lon="5.41411">
        <ele>1210.8</ele>
      </trkpt>
      <trkpt lat="44.91159" lon="5.41408">
        <ele>1213.5</ele>
      </trkpt>
      <trkpt lat="44.91153" lon="5.41407">
        <ele>1214.6</ele>
      </trkpt>
      <trkpt lat="44.91146" lon="5.41409">
        <ele>1215.4</ele>
      </trkpt>
      <trkpt lat="44.9114" lon="5.41413">
        <ele>1216</ele>
      </trkpt>
      <trkpt lat="44.91122" lon="5.41419">
        <ele>1203.5</ele>
      </trkpt>
      <trkpt lat="44.91098" lon="5.41422">
        <ele>1207.3</ele>
      </trkpt>
      <trkpt lat="44.91083" lon="5.4142">
        <ele>1213.1</ele>
      </trkpt>
      <trkpt lat="44.91055" lon="5.41423">
        <ele>1206.1</ele>
      </trkpt>
      <trkpt lat="44.91038" lon="5.41423">
        <ele>1205.9</ele>
      </trkpt>
      <trkpt lat="44.91022" lon="5.41421">
        <ele>1208.3</ele>
      </trkpt>
      <trkpt lat="44.90998" lon="5.41414">
        <ele>1219.3</ele>
      </trkpt>
      <trkpt lat="44.90974" lon="5.41411">
        <ele>1223.9</ele>
      </trkpt>
      <trkpt lat="44.9095" lon="5.41412">
        <ele>1223.8</ele>
      </trkpt>
      <trkpt lat="44.90941" lon="5.41411">
        <ele>1222.9</ele>
      </trkpt>
      <trkpt lat="44.90934" lon="5.41409">
        <ele>1221.9</ele>
      </trkpt>
      <trkpt lat="44.9093" lon="5.41409">
        <ele>1221.1</ele>
      </trkpt>
      <trkpt lat="44.90914" lon="5.41405">
        <ele>1219</ele>
      </trkpt>
      <trkpt lat="44.90902" lon="5.414">
        <ele>1221</ele>
      </trkpt>
      <trkpt lat="44.90881" lon="5.41395">
        <ele>1222.3</ele>
      </trkpt>
      <trkpt lat="44.90824" lon="5.41378">
        <ele>1218.4</ele>
      </trkpt>
      <trkpt lat="44.90811" lon="5.41372">
        <ele>1219</ele>
      </trkpt>
      <trkpt lat="44.9081" lon="5.41372">
        <ele>1219</ele>
      </trkpt>
      <trkpt lat="44.90787" lon="5.41366">
        <ele>1218.6</ele>
      </trkpt>
      <trkpt lat="44.90763" lon="5.41366">
        <ele>1218</ele>
      </trkpt>
      <trkpt lat="44.90752" lon="5.41367">
        <ele>1217.6</ele>
      </trkpt>
      <trkpt lat="44.90727" lon="5.41373">
        <ele>1209.8</ele>
      </trkpt>
      <trkpt lat="44.90695" lon="5.41376">
        <ele>1207.7</ele>
      </trkpt>
      <trkpt lat="44.90686" lon="5.41376">
        <ele>1207.2</ele>
      </trkpt>
      <trkpt lat="44.90681" lon="5.41377">
        <ele>1206.8</ele>
      </trkpt>
      <trkpt lat="44.90673" lon="5.41376">
        <ele>1206.7</ele>
      </trkpt>
      <trkpt lat="44.90665" lon="5.41373">
        <ele>1199.8</ele>
      </trkpt>
      <trkpt lat="44.90656" lon="5.41367">
        <ele>1200.5</ele>
      </trkpt>
      <trkpt lat="44.90652" lon="5.41363">
        <ele>1201</ele>
      </trkpt>
      <trkpt lat="44.90648" lon="5.4136">
        <ele>1201.1</ele>
      </trkpt>
      <trkpt lat="44.90637" lon="5.41348">
        <ele>1201.3</ele>
      </trkpt>
      <trkpt lat="44.90633" lon="5.41345">
        <ele>1200.9</ele>
      </trkpt>
      <trkpt lat="44.90621" lon="5.41338">
        <ele>1199.8</ele>
      </trkpt>
      <trkpt lat="44.90607" lon="5.41336">
        <ele>1198.7</ele>
      </trkpt>
      <trkpt lat="44.90587" lon="5.4133">
        <ele>1202.1</ele>
      </trkpt>
      <trkpt lat="44.90585" lon="5.41329">
        <ele>1201.9</ele>
      </trkpt>
      <trkpt lat="44.90558" lon="5.41325">
        <ele>1202.2</ele>
      </trkpt>
      <trkpt lat="44.90536" lon="5.41327">
        <ele>1201.5</ele>
      </trkpt>
      <trkpt lat="44.90514" lon="5.41334">
        <ele>1192</ele>
      </trkpt>
      <trkpt lat="44.90513" lon="5.41335">
        <ele>1192.1</ele>
      </trkpt>
      <trkpt lat="44.905" lon="5.41341">
        <ele>1192.6</ele>
      </trkpt>
      <trkpt lat="44.90497" lon="5.41343">
        <ele>1192.1</ele>
      </trkpt>
      <trkpt lat="44.90485" lon="5.41349">
        <ele>1190.8</ele>
      </trkpt>
      <trkpt lat="44.90456" lon="5.41373">
        <ele>1188.7</ele>
      </trkpt>
      <trkpt lat="44.90432" lon="5.4139">
        <ele>1187.3</ele>
      </trkpt>
      <trkpt lat="44.90422" lon="5.41395">
        <ele>1186.5</ele>
      </trkpt>
      <trkpt lat="44.90412" lon="5.41397">
        <ele>1188</ele>
      </trkpt>
      <trkpt lat="44.90391" lon="5.41397">
        <ele>1189.5</ele>
      </trkpt>
      <trkpt lat="44.90383" lon="5.41398">
        <ele>1190</ele>
      </trkpt>
      <trkpt lat="44.90368" lon="5.41406">
        <ele>1190.4</ele>
      </trkpt>
      <trkpt lat="44.90366" lon="5.41408">
        <ele>1190.4</ele>
      </trkpt>
      <trkpt lat="44.90345" lon="5.41418">
        <ele>1186.2</ele>
      </trkpt>
      <trkpt lat="44.90331" lon="5.41422">
        <ele>1189.4</ele>
      </trkpt>
      <trkpt lat="44.90319" lon="5.41423">
        <ele>1188.9</ele>
      </trkpt>
      <trkpt lat="44.90295" lon="5.41427">
        <ele>1189.1</ele>
      </trkpt>
      <trkpt lat="44.90285" lon="5.41427">
        <ele>1189.7</ele>
      </trkpt>
      <trkpt lat="44.90275" lon="5.41428">
        <ele>1190.6</ele>
      </trkpt>
      <trkpt lat="44.90266" lon="5.4143">
        <ele>1191.5</ele>
      </trkpt>
      <trkpt lat="44.9024" lon="5.41441">
        <ele>1194.5</ele>
      </trkpt>
      <trkpt lat="44.9023" lon="5.41441">
        <ele>1194.5</ele>
      </trkpt>
      <trkpt lat="44.90221" lon="5.41439">
        <ele>1194.7</ele>
      </trkpt>
      <trkpt lat="44.90173" lon="5.41449">
        <ele>1195.7</ele>
      </trkpt>
      <trkpt lat="44.90155" lon="5.41456">
        <ele>1197.7</ele>
      </trkpt>
      <trkpt lat="44.90154" lon="5.41456">
        <ele>1197.7</ele>
      </trkpt>
      <trkpt lat="44.90147" lon="5.4146">
        <ele>1197.5</ele>
      </trkpt>
      <trkpt lat="44.90138" lon="5.41463">
        <ele>1197.5</ele>
      </trkpt>
      <trkpt lat="44.90129" lon="5.41463">
        <ele>1197.7</ele>
      </trkpt>
      <trkpt lat="44.90122" lon="5.4146">
        <ele>1198</ele>
      </trkpt>
      <trkpt lat="44.90102" lon="5.41448">
        <ele>1199</ele>
      </trkpt>
      <trkpt lat="44.90087" lon="5.41436">
        <ele>1200.3</ele>
      </trkpt>
      <trkpt lat="44.90081" lon="5.4143">
        <ele>1202.3</ele>
      </trkpt>
      <trkpt lat="44.90055" lon="5.4141">
        <ele>1204.4</ele>
      </trkpt>
      <trkpt lat="44.9005" lon="5.41411">
        <ele>1204.6</ele>
      </trkpt>
      <trkpt lat="44.90045" lon="5.41415">
        <ele>1204.7</ele>
      </trkpt>
      <trkpt lat="44.90035" lon="5.41425">
        <ele>1202.7</ele>
      </trkpt>
      <trkpt lat="44.90027" lon="5.41427">
        <ele>1203</ele>
      </trkpt>
      <trkpt lat="44.90023" lon="5.41427">
        <ele>1203.2</ele>
      </trkpt>
      <trkpt lat="44.90019" lon="5.41428">
        <ele>1203.4</ele>
      </trkpt>
      <trkpt lat="44.90005" lon="5.41427">
        <ele>1204.4</ele>
      </trkpt>
      <trkpt lat="44.89973" lon="5.41419">
        <ele>1205.9</ele>
      </trkpt>
      <trkpt lat="44.8997" lon="5.41417">
        <ele>1206</ele>
      </trkpt>
      <trkpt lat="44.89963" lon="5.41415">
        <ele>1208</ele>
      </trkpt>
      <trkpt lat="44.89955" lon="5.41411">
        <ele>1208.2</ele>
      </trkpt>
      <trkpt lat="44.89949" lon="5.41411">
        <ele>1208.4</ele>
      </trkpt>
      <trkpt lat="44.89935" lon="5.41415">
        <ele>1208.7</ele>
      </trkpt>
      <trkpt lat="44.89922" lon="5.4142">
        <ele>1208.2</ele>
      </trkpt>
      <trkpt lat="44.89909" lon="5.41427">
        <ele>1209.2</ele>
      </trkpt>
      <trkpt lat="44.899" lon="5.4143">
        <ele>1209.4</ele>
      </trkpt>
      <trkpt lat="44.8989" lon="5.41431">
        <ele>1209.6</ele>
      </trkpt>
      <trkpt lat="44.89867" lon="5.41426">
        <ele>1210.2</ele>
      </trkpt>
      <trkpt lat="44.89861" lon="5.41428">
        <ele>1210.4</ele>
      </trkpt>
      <trkpt lat="44.89849" lon="5.41439">
        <ele>1210.6</ele>
      </trkpt>
      <trkpt lat="44.89848" lon="5.41439">
        <ele>1210.6</ele>
      </trkpt>
      <trkpt lat="44.89841" lon="5.41444">
        <ele>1210.7</ele>
      </trkpt>
      <trkpt lat="44.89834" lon="5.41446">
        <ele>1210.7</ele>
      </trkpt>
      <trkpt lat="44.89816" lon="5.41448">
        <ele>1213</ele>
      </trkpt>
      <trkpt lat="44.89803" lon="5.41448">
        <ele>1213.2</ele>
      </trkpt>
      <trkpt lat="44.89785" lon="5.4145">
        <ele>1213.5</ele>
      </trkpt>
      <trkpt lat="44.89767" lon="5.41447">
        <ele>1213.6</ele>
      </trkpt>
      <trkpt lat="44.89753" lon="5.41441">
        <ele>1213.6</ele>
      </trkpt>
      <trkpt lat="44.89752" lon="5.41441">
        <ele>1213.6</ele>
      </trkpt>
      <trkpt lat="44.89718" lon="5.41428">
        <ele>1215.1</ele>
      </trkpt>
      <trkpt lat="44.89682" lon="5.41421">
        <ele>1214.5</ele>
      </trkpt>
      <trkpt lat="44.89675" lon="5.41419">
        <ele>1214</ele>
      </trkpt>
      <trkpt lat="44.89646" lon="5.41419">
        <ele>1215.5</ele>
      </trkpt>
      <trkpt lat="44.89629" lon="5.41415">
        <ele>1211.3</ele>
      </trkpt>
      <trkpt lat="44.89628" lon="5.41415">
        <ele>1211.3</ele>
      </trkpt>
      <trkpt lat="44.89585" lon="5.41391">
        <ele>1211.4</ele>
      </trkpt>
      <trkpt lat="44.89565" lon="5.41378">
        <ele>1212.6</ele>
      </trkpt>
      <trkpt lat="44.89523" lon="5.41366">
        <ele>1213.3</ele>
      </trkpt>
      <trkpt lat="44.89509" lon="5.41364">
        <ele>1213.5</ele>
      </trkpt>
      <trkpt lat="44.89491" lon="5.4136">
        <ele>1215.1</ele>
      </trkpt>
      <trkpt lat="44.89488" lon="5.4136">
        <ele>1215.1</ele>
      </trkpt>
      <trkpt lat="44.89478" lon="5.41356">
        <ele>1215.1</ele>
      </trkpt>
      <trkpt lat="44.89474" lon="5.41352">
        <ele>1215.2</ele>
      </trkpt>
      <trkpt lat="44.8946" lon="5.41342">
        <ele>1215.3</ele>
      </trkpt>
      <trkpt lat="44.89458" lon="5.41341">
        <ele>1215.3</ele>
      </trkpt>
      <trkpt lat="44.89452" lon="5.4134">
        <ele>1215.4</ele>
      </trkpt>
      <trkpt lat="44.89443" lon="5.41341">
        <ele>1215.5</ele>
      </trkpt>
      <trkpt lat="44.8944" lon="5.4134">
        <ele>1215.6</ele>
      </trkpt>
      <trkpt lat="44.89438" lon="5.4134">
        <ele>1215.6</ele>
      </trkpt>
      <trkpt lat="44.89433" lon="5.41335">
        <ele>1215.7</ele>
      </trkpt>
      <trkpt lat="44.89427" lon="5.41327">
        <ele>1216</ele>
      </trkpt>
      <trkpt lat="44.89426" lon="5.41325">
        <ele>1216</ele>
      </trkpt>
      <trkpt lat="44.8942" lon="5.41317">
        <ele>1216.1</ele>
      </trkpt>
      <trkpt lat="44.89415" lon="5.41306">
        <ele>1217.7</ele>
      </trkpt>
      <trkpt lat="44.89415" lon="5.41305">
        <ele>1217.7</ele>
      </trkpt>
      <trkpt lat="44.89407" lon="5.41292">
        <ele>1218.2</ele>
      </trkpt>
      <trkpt lat="44.89401" lon="5.41277">
        <ele>1218.5</ele>
      </trkpt>
      <trkpt lat="44.89395" lon="5.41258">
        <ele>1218.7</ele>
      </trkpt>
      <trkpt lat="44.8939" lon="5.41246">
        <ele>1220.4</ele>
      </trkpt>
      <trkpt lat="44.89387" lon="5.41241">
        <ele>1220.5</ele>
      </trkpt>
      <trkpt lat="44.89376" lon="5.41233">
        <ele>1220.8</ele>
      </trkpt>
      <trkpt lat="44.89369" lon="5.41233">
        <ele>1220.8</ele>
      </trkpt>
      <trkpt lat="44.89361" lon="5.41235">
        <ele>1220.8</ele>
      </trkpt>
      <trkpt lat="44.89351" lon="5.4124">
        <ele>1220.6</ele>
      </trkpt>
      <trkpt lat="44.89329" lon="5.41257">
        <ele>1221.4</ele>
      </trkpt>
      <trkpt lat="44.89319" lon="5.41268">
        <ele>1222.9</ele>
      </trkpt>
      <trkpt lat="44.8931" lon="5.41281">
        <ele>1223.8</ele>
      </trkpt>
      <trkpt lat="44.89294" lon="5.413">
        <ele>1224.8</ele>
      </trkpt>
      <trkpt lat="44.89288" lon="5.41304">
        <ele>1225.2</ele>
      </trkpt>
      <trkpt lat="44.89285" lon="5.41307">
        <ele>1225.4</ele>
      </trkpt>
      <trkpt lat="44.8927" lon="5.41317">
        <ele>1226.7</ele>
      </trkpt>
      <trkpt lat="44.89241" lon="5.41343">
        <ele>1229.9</ele>
      </trkpt>
      <trkpt lat="44.89225" lon="5.41355">
        <ele>1230</ele>
      </trkpt>
      <trkpt lat="44.89203" lon="5.41374">
        <ele>1230.1</ele>
      </trkpt>
      <trkpt lat="44.89184" lon="5.41381">
        <ele>1230.4</ele>
      </trkpt>
      <trkpt lat="44.89169" lon="5.41381">
        <ele>1230.7</ele>
      </trkpt>
      <trkpt lat="44.8915" lon="5.41377">
        <ele>1232.9</ele>
      </trkpt>
      <trkpt lat="44.89111" lon="5.41375">
        <ele>1232.5</ele>
      </trkpt>
      <trkpt lat="44.89104" lon="5.41373">
        <ele>1232.7</ele>
      </trkpt>
      <trkpt lat="44.89103" lon="5.41373">
        <ele>1232.7</ele>
      </trkpt>
      <trkpt lat="44.8907" lon="5.41359">
        <ele>1232.4</ele>
      </trkpt>
      <trkpt lat="44.89042" lon="5.41344">
        <ele>1232.2</ele>
      </trkpt>
      <trkpt lat="44.89036" lon="5.4134">
        <ele>1232.4</ele>
      </trkpt>
      <trkpt lat="44.89029" lon="5.41333">
        <ele>1239.9</ele>
      </trkpt>
      <trkpt lat="44.89008" lon="5.41301">
        <ele>1240.6</ele>
      </trkpt>
      <trkpt lat="44.89002" lon="5.41297">
        <ele>1240.8</ele>
      </trkpt>
      <trkpt lat="44.88996" lon="5.41295">
        <ele>1239.8</ele>
      </trkpt>
      <trkpt lat="44.88995" lon="5.41294">
        <ele>1239.9</ele>
      </trkpt>
      <trkpt lat="44.88989" lon="5.41294">
        <ele>1239.8</ele>
      </trkpt>
      <trkpt lat="44.88983" lon="5.41293">
        <ele>1239.8</ele>
      </trkpt>
      <trkpt lat="44.88977" lon="5.41294">
        <ele>1239.7</ele>
      </trkpt>
      <trkpt lat="44.88974" lon="5.41294">
        <ele>1239.6</ele>
      </trkpt>
      <trkpt lat="44.88966" lon="5.41296">
        <ele>1239.3</ele>
      </trkpt>
      <trkpt lat="44.88959" lon="5.41296">
        <ele>1239.2</ele>
      </trkpt>
      <trkpt lat="44.88953" lon="5.41295">
        <ele>1239.1</ele>
      </trkpt>
      <trkpt lat="44.8895" lon="5.41292">
        <ele>1239.3</ele>
      </trkpt>
      <trkpt lat="44.88929" lon="5.41282">
        <ele>1240.2</ele>
      </trkpt>
      <trkpt lat="44.88921" lon="5.4128">
        <ele>1240.5</ele>
      </trkpt>
      <trkpt lat="44.88896" lon="5.41269">
        <ele>1237.5</ele>
      </trkpt>
      <trkpt lat="44.8889" lon="5.41265">
        <ele>1237.3</ele>
      </trkpt>
      <trkpt lat="44.88889" lon="5.41264">
        <ele>1237.2</ele>
      </trkpt>
      <trkpt lat="44.8888" lon="5.41258">
        <ele>1236.8</ele>
      </trkpt>
      <trkpt lat="44.88875" lon="5.41253">
        <ele>1236.7</ele>
      </trkpt>
      <trkpt lat="44.88866" lon="5.41246">
        <ele>1243.9</ele>
      </trkpt>
      <trkpt lat="44.88857" lon="5.41236">
        <ele>1243.6</ele>
      </trkpt>
      <trkpt lat="44.88847" lon="5.41221">
        <ele>1244.2</ele>
      </trkpt>
      <trkpt lat="44.88842" lon="5.41215">
        <ele>1244.7</ele>
      </trkpt>
      <trkpt lat="44.88835" lon="5.4121">
        <ele>1245.1</ele>
      </trkpt>
      <trkpt lat="44.88825" lon="5.41201">
        <ele>1245.3</ele>
      </trkpt>
      <trkpt lat="44.88816" lon="5.41197">
        <ele>1245.6</ele>
      </trkpt>
      <trkpt lat="44.88816" lon="5.41196">
        <ele>1245.7</ele>
      </trkpt>
      <trkpt lat="44.8881" lon="5.41192">
        <ele>1245.9</ele>
      </trkpt>
      <trkpt lat="44.88801" lon="5.41183">
        <ele>1246.3</ele>
      </trkpt>
      <trkpt lat="44.88787" lon="5.41166">
        <ele>1250.9</ele>
      </trkpt>
      <trkpt lat="44.88772" lon="5.41155">
        <ele>1251</ele>
      </trkpt>
      <trkpt lat="44.88771" lon="5.41155">
        <ele>1251</ele>
      </trkpt>
      <trkpt lat="44.88755" lon="5.41147">
        <ele>1251.2</ele>
      </trkpt>
      <trkpt lat="44.8875" lon="5.41143">
        <ele>1251.2</ele>
      </trkpt>
      <trkpt lat="44.88736" lon="5.41125">
        <ele>1253.9</ele>
      </trkpt>
      <trkpt lat="44.88724" lon="5.41112">
        <ele>1254.6</ele>
      </trkpt>
      <trkpt lat="44.88717" lon="5.41108">
        <ele>1254.9</ele>
      </trkpt>
      <trkpt lat="44.88711" lon="5.41109">
        <ele>1255</ele>
      </trkpt>
      <trkpt lat="44.88709" lon="5.41111">
        <ele>1255</ele>
      </trkpt>
      <trkpt lat="44.88706" lon="5.41113">
        <ele>1255</ele>
      </trkpt>
      <trkpt lat="44.88698" lon="5.4113">
        <ele>1254</ele>
      </trkpt>
      <trkpt lat="44.88696" lon="5.41138">
        <ele>1253.5</ele>
      </trkpt>
      <trkpt lat="44.88691" lon="5.41146">
        <ele>1252.8</ele>
      </trkpt>
      <trkpt lat="44.88685" lon="5.41151">
        <ele>1252.1</ele>
      </trkpt>
      <trkpt lat="44.88672" lon="5.41154">
        <ele>1250.9</ele>
      </trkpt>
      <trkpt lat="44.88652" lon="5.41149">
        <ele>1248.8</ele>
      </trkpt>
      <trkpt lat="44.88644" lon="5.41146">
        <ele>1248.6</ele>
      </trkpt>
      <trkpt lat="44.88635" lon="5.41141">
        <ele>1248.5</ele>
      </trkpt>
      <trkpt lat="44.88634" lon="5.41141">
        <ele>1248.4</ele>
      </trkpt>
      <trkpt lat="44.88618" lon="5.41131">
        <ele>1248.1</ele>
      </trkpt>
      <trkpt lat="44.88601" lon="5.41123">
        <ele>1247.9</ele>
      </trkpt>
      <trkpt lat="44.88596" lon="5.41122">
        <ele>1247.8</ele>
      </trkpt>
      <trkpt lat="44.88585" lon="5.41114">
        <ele>1248.7</ele>
      </trkpt>
      <trkpt lat="44.88584" lon="5.41114">
        <ele>1248.7</ele>
      </trkpt>
      <trkpt lat="44.88572" lon="5.41104">
        <ele>1242.2</ele>
      </trkpt>
      <trkpt lat="44.88563" lon="5.41099">
        <ele>1241.6</ele>
      </trkpt>
      <trkpt lat="44.88553" lon="5.41097">
        <ele>1240</ele>
      </trkpt>
      <trkpt lat="44.8853" lon="5.4109">
        <ele>1237.2</ele>
      </trkpt>
      <trkpt lat="44.88467" lon="5.41067">
        <ele>1233.7</ele>
      </trkpt>
      <trkpt lat="44.88464" lon="5.41065">
        <ele>1233.5</ele>
      </trkpt>
      <trkpt lat="44.88446" lon="5.4106">
        <ele>1232</ele>
      </trkpt>
      <trkpt lat="44.88421" lon="5.4105">
        <ele>1231.3</ele>
      </trkpt>
      <trkpt lat="44.88407" lon="5.41042">
        <ele>1224.3</ele>
      </trkpt>
      <trkpt lat="44.88394" lon="5.41031">
        <ele>1224.8</ele>
      </trkpt>
      <trkpt lat="44.88298" lon="5.40973">
        <ele>1224.6</ele>
      </trkpt>
      <trkpt lat="44.88297" lon="5.40972">
        <ele>1224.6</ele>
      </trkpt>
      <trkpt lat="44.88272" lon="5.40961">
        <ele>1224.5</ele>
      </trkpt>
      <trkpt lat="44.88263" lon="5.40958">
        <ele>1224.5</ele>
      </trkpt>
      <trkpt lat="44.88248" lon="5.40955">
        <ele>1220.1</ele>
      </trkpt>
      <trkpt lat="44.88225" lon="5.40954">
        <ele>1219.4</ele>
      </trkpt>
      <trkpt lat="44.88215" lon="5.40957">
        <ele>1218.8</ele>
      </trkpt>
      <trkpt lat="44.88209" lon="5.40958">
        <ele>1218.5</ele>
      </trkpt>
      <trkpt lat="44.88198" lon="5.40964">
        <ele>1217.9</ele>
      </trkpt>
      <trkpt lat="44.88197" lon="5.40965">
        <ele>1217.9</ele>
      </trkpt>
      <trkpt lat="44.88182" lon="5.4097">
        <ele>1217.3</ele>
      </trkpt>
      <trkpt lat="44.88181" lon="5.40971">
        <ele>1217.2</ele>
      </trkpt>
      <trkpt lat="44.88175" lon="5.40973">
        <ele>1217</ele>
      </trkpt>
      <trkpt lat="44.88144" lon="5.40975">
        <ele>1214.8</ele>
      </trkpt>
      <trkpt lat="44.88123" lon="5.4097">
        <ele>1214.8</ele>
      </trkpt>
      <trkpt lat="44.88095" lon="5.40952">
        <ele>1214</ele>
      </trkpt>
      <trkpt lat="44.8808" lon="5.40937">
        <ele>1213.6</ele>
      </trkpt>
      <trkpt lat="44.88064" lon="5.40934">
        <ele>1214.1</ele>
      </trkpt>
      <trkpt lat="44.88035" lon="5.40932">
        <ele>1215</ele>
      </trkpt>
      <trkpt lat="44.88007" lon="5.40935">
        <ele>1214.8</ele>
      </trkpt>
      <trkpt lat="44.87978" lon="5.40931">
        <ele>1218.6</ele>
      </trkpt>
      <trkpt lat="44.87954" lon="5.40923">
        <ele>1220.1</ele>
      </trkpt>
      <trkpt lat="44.87953" lon="5.40923">
        <ele>1220.2</ele>
      </trkpt>
      <trkpt lat="44.87938" lon="5.40916">
        <ele>1214.5</ele>
      </trkpt>
      <trkpt lat="44.87927" lon="5.40909">
        <ele>1215.7</ele>
      </trkpt>
      <trkpt lat="44.87921" lon="5.40904">
        <ele>1215.5</ele>
      </trkpt>
      <trkpt lat="44.87915" lon="5.40896">
        <ele>1218.2</ele>
      </trkpt>
      <trkpt lat="44.87914" lon="5.40894">
        <ele>1218.1</ele>
      </trkpt>
      <trkpt lat="44.87904" lon="5.40882">
        <ele>1217.4</ele>
      </trkpt>
      <trkpt lat="44.87899" lon="5.40878">
        <ele>1217.2</ele>
      </trkpt>
      <trkpt lat="44.87879" lon="5.4087">
        <ele>1217.8</ele>
      </trkpt>
      <trkpt lat="44.87864" lon="5.40861">
        <ele>1218</ele>
      </trkpt>
      <trkpt lat="44.87848" lon="5.40858">
        <ele>1218.3</ele>
      </trkpt>
      <trkpt lat="44.87829" lon="5.40858">
        <ele>1225.4</ele>
      </trkpt>
      <trkpt lat="44.8782" lon="5.4086">
        <ele>1226.5</ele>
      </trkpt>
      <trkpt lat="44.87814" lon="5.4086">
        <ele>1227.2</ele>
      </trkpt>
      <trkpt lat="44.87806" lon="5.40861">
        <ele>1228.1</ele>
      </trkpt>
      <trkpt lat="44.878" lon="5.4086">
        <ele>1228.7</ele>
      </trkpt>
      <trkpt lat="44.87795" lon="5.40856">
        <ele>1228.8</ele>
      </trkpt>
      <trkpt lat="44.87786" lon="5.40843">
        <ele>1229</ele>
      </trkpt>
      <trkpt lat="44.87772" lon="5.40811">
        <ele>1221.8</ele>
      </trkpt>
      <trkpt lat="44.87772" lon="5.4081">
        <ele>1221.7</ele>
      </trkpt>
      <trkpt lat="44.87764" lon="5.40789">
        <ele>1220.2</ele>
      </trkpt>
      <trkpt lat="44.87763" lon="5.40788">
        <ele>1220.1</ele>
      </trkpt>
      <trkpt lat="44.87756" lon="5.40771">
        <ele>1219.3</ele>
      </trkpt>
      <trkpt lat="44.87747" lon="5.40761">
        <ele>1225.5</ele>
      </trkpt>
      <trkpt lat="44.87732" lon="5.4072">
        <ele>1218.9</ele>
      </trkpt>
      <trkpt lat="44.87724" lon="5.40704">
        <ele>1217.7</ele>
      </trkpt>
      <trkpt lat="44.87706" lon="5.40687">
        <ele>1218</ele>
      </trkpt>
      <trkpt lat="44.87705" lon="5.40687">
        <ele>1218.1</ele>
      </trkpt>
      <trkpt lat="44.87697" lon="5.40678">
        <ele>1218.4</ele>
      </trkpt>
      <trkpt lat="44.87692" lon="5.4067">
        <ele>1218.5</ele>
      </trkpt>
      <trkpt lat="44.8768" lon="5.40654">
        <ele>1211.6</ele>
      </trkpt>
      <trkpt lat="44.87679" lon="5.40652">
        <ele>1211.4</ele>
      </trkpt>
      <trkpt lat="44.87666" lon="5.40635">
        <ele>1215.4</ele>
      </trkpt>
      <trkpt lat="44.87662" lon="5.40637">
        <ele>1215.8</ele>
      </trkpt>
      <trkpt lat="44.87657" lon="5.40637">
        <ele>1215.9</ele>
      </trkpt>
      <trkpt lat="44.87652" lon="5.40635">
        <ele>1215.9</ele>
      </trkpt>
      <trkpt lat="44.87641" lon="5.40627">
        <ele>1215.4</ele>
      </trkpt>
      <trkpt lat="44.87633" lon="5.40618">
        <ele>1214.7</ele>
      </trkpt>
      <trkpt lat="44.87624" lon="5.40612">
        <ele>1214.6</ele>
      </trkpt>
      <trkpt lat="44.87605" lon="5.40602">
        <ele>1214</ele>
      </trkpt>
      <trkpt lat="44.87597" lon="5.406">
        <ele>1213.6</ele>
      </trkpt>
      <trkpt lat="44.87577" lon="5.40599">
        <ele>1218.9</ele>
      </trkpt>
      <trkpt lat="44.87557" lon="5.40595">
        <ele>1222.4</ele>
      </trkpt>
      <trkpt lat="44.87537" lon="5.40588">
        <ele>1224.8</ele>
      </trkpt>
      <trkpt lat="44.87528" lon="5.40583">
        <ele>1212.3</ele>
      </trkpt>
      <trkpt lat="44.87527" lon="5.40583">
        <ele>1212.5</ele>
      </trkpt>
      <trkpt lat="44.87509" lon="5.40578">
        <ele>1217.3</ele>
      </trkpt>
      <trkpt lat="44.87494" lon="5.40578">
        <ele>1220.4</ele>
      </trkpt>
      <trkpt lat="44.87486" lon="5.40579">
        <ele>1219.1</ele>
      </trkpt>
      <trkpt lat="44.8744" lon="5.40591">
        <ele>1230.2</ele>
      </trkpt>
      <trkpt lat="44.87409" lon="5.40591">
        <ele>1226.7</ele>
      </trkpt>
      <trkpt lat="44.87401" lon="5.40592">
        <ele>1228.1</ele>
      </trkpt>
      <trkpt lat="44.87373" lon="5.40602">
        <ele>1230.6</ele>
      </trkpt>
      <trkpt lat="44.87368" lon="5.40605">
        <ele>1230.7</ele>
      </trkpt>
      <trkpt lat="44.87363" lon="5.40607">
        <ele>1230.7</ele>
      </trkpt>
      <trkpt lat="44.87354" lon="5.40612">
        <ele>1230.9</ele>
      </trkpt>
      <trkpt lat="44.87351" lon="5.40613">
        <ele>1230.9</ele>
      </trkpt>
      <trkpt lat="44.87345" lon="5.40617">
        <ele>1231.2</ele>
      </trkpt>
      <trkpt lat="44.87338" lon="5.40623">
        <ele>1231.8</ele>
      </trkpt>
      <trkpt lat="44.87297" lon="5.40653">
        <ele>1234.6</ele>
      </trkpt>
      <trkpt lat="44.87283" lon="5.40665">
        <ele>1234.6</ele>
      </trkpt>
      <trkpt lat="44.8724" lon="5.40715">
        <ele>1234.8</ele>
      </trkpt>
      <trkpt lat="44.87229" lon="5.40724">
        <ele>1234.7</ele>
      </trkpt>
      <trkpt lat="44.87155" lon="5.40751">
        <ele>1224.4</ele>
      </trkpt>
      <trkpt lat="44.87127" lon="5.40759">
        <ele>1218.2</ele>
      </trkpt>
      <trkpt lat="44.87121" lon="5.4076">
        <ele>1218.1</ele>
      </trkpt>
      <trkpt lat="44.87109" lon="5.4076">
        <ele>1219.2</ele>
      </trkpt>
      <trkpt lat="44.8708" lon="5.40752">
        <ele>1229.2</ele>
      </trkpt>
      <trkpt lat="44.87019" lon="5.40746">
        <ele>1238.5</ele>
      </trkpt>
      <trkpt lat="44.8699" lon="5.40745">
        <ele>1234.7</ele>
      </trkpt>
      <trkpt lat="44.86971" lon="5.40743">
        <ele>1237.6</ele>
      </trkpt>
      <trkpt lat="44.86958" lon="5.4074">
        <ele>1237.6</ele>
      </trkpt>
      <trkpt lat="44.86936" lon="5.40737">
        <ele>1234.1</ele>
      </trkpt>
      <trkpt lat="44.8691" lon="5.40731">
        <ele>1228.2</ele>
      </trkpt>
      <trkpt lat="44.86883" lon="5.40723">
        <ele>1231</ele>
      </trkpt>
      <trkpt lat="44.86882" lon="5.40722">
        <ele>1231.2</ele>
      </trkpt>
      <trkpt lat="44.86849" lon="5.40707">
        <ele>1233</ele>
      </trkpt>
      <trkpt lat="44.86847" lon="5.40705">
        <ele>1233.6</ele>
      </trkpt>
      <trkpt lat="44.86829" lon="5.40695">
        <ele>1231.8</ele>
      </trkpt>
      <trkpt lat="44.86819" lon="5.40684">
        <ele>1235.5</ele>
      </trkpt>
      <trkpt lat="44.86806" lon="5.40674">
        <ele>1235.1</ele>
      </trkpt>
      <trkpt lat="44.86799" lon="5.4067">
        <ele>1234.4</ele>
      </trkpt>
      <trkpt lat="44.86777" lon="5.40663">
        <ele>1260.4</ele>
      </trkpt>
      <trkpt lat="44.86763" lon="5.40663">
        <ele>1256.1</ele>
      </trkpt>
      <trkpt lat="44.86755" lon="5.40666">
        <ele>1251.1</ele>
      </trkpt>
      <trkpt lat="44.86743" lon="5.40668">
        <ele>1240.6</ele>
      </trkpt>
      <trkpt lat="44.86714" lon="5.40678">
        <ele>1228.8</ele>
      </trkpt>
      <trkpt lat="44.86696" lon="5.40681">
        <ele>1228.2</ele>
      </trkpt>
      <trkpt lat="44.86678" lon="5.4068">
        <ele>1231.5</ele>
      </trkpt>
      <trkpt lat="44.86654" lon="5.40676">
        <ele>1228.7</ele>
      </trkpt>
      <trkpt lat="44.86606" lon="5.40671">
        <ele>1219.8</ele>
      </trkpt>
      <trkpt lat="44.86596" lon="5.40668">
        <ele>1221.1</ele>
      </trkpt>
      <trkpt lat="44.86589" lon="5.40665">
        <ele>1231.7</ele>
      </trkpt>
      <trkpt lat="44.86588" lon="5.40665">
        <ele>1230.8</ele>
      </trkpt>
      <trkpt lat="44.8658" lon="5.40661">
        <ele>1228.9</ele>
      </trkpt>
      <trkpt lat="44.86573" lon="5.40656">
        <ele>1232.3</ele>
      </trkpt>
      <trkpt lat="44.86572" lon="5.40656">
        <ele>1232.5</ele>
      </trkpt>
      <trkpt lat="44.86565" lon="5.40651">
        <ele>1234.9</ele>
      </trkpt>
      <trkpt lat="44.86557" lon="5.40643">
        <ele>1237.3</ele>
      </trkpt>
      <trkpt lat="44.86543" lon="5.40633">
        <ele>1239.2</ele>
      </trkpt>
      <trkpt lat="44.86541" lon="5.40631">
        <ele>1239.6</ele>
      </trkpt>
      <trkpt lat="44.86534" lon="5.40626">
        <ele>1240.3</ele>
      </trkpt>
      <trkpt lat="44.86524" lon="5.40621">
        <ele>1241</ele>
      </trkpt>
      <trkpt lat="44.86514" lon="5.40618">
        <ele>1241.6</ele>
      </trkpt>
      <trkpt lat="44.86482" lon="5.40605">
        <ele>1238.3</ele>
      </trkpt>
      <trkpt lat="44.86475" lon="5.40603">
        <ele>1237.7</ele>
      </trkpt>
      <trkpt lat="44.86467" lon="5.40603">
        <ele>1236.6</ele>
      </trkpt>
      <trkpt lat="44.86427" lon="5.40609">
        <ele>1235.5</ele>
      </trkpt>
      <trkpt lat="44.86416" lon="5.40609">
        <ele>1230.7</ele>
      </trkpt>
      <trkpt lat="44.86387" lon="5.40604">
        <ele>1227.9</ele>
      </trkpt>
      <trkpt lat="44.8632" lon="5.40582">
        <ele>1242.5</ele>
      </trkpt>
      <trkpt lat="44.86312" lon="5.40581">
        <ele>1244.8</ele>
      </trkpt>
      <trkpt lat="44.86261" lon="5.4057">
        <ele>1239.6</ele>
      </trkpt>
      <trkpt lat="44.86259" lon="5.40569">
        <ele>1239.4</ele>
      </trkpt>
      <trkpt lat="44.86242" lon="5.40566">
        <ele>1235.1</ele>
      </trkpt>
      <trkpt lat="44.86241" lon="5.40565">
        <ele>1235.6</ele>
      </trkpt>
      <trkpt lat="44.86223" lon="5.40561">
        <ele>1238.4</ele>
      </trkpt>
      <trkpt lat="44.86216" lon="5.40557">
        <ele>1239.4</ele>
      </trkpt>
      <trkpt lat="44.8619" lon="5.40546">
        <ele>1240.7</ele>
      </trkpt>
      <trkpt lat="44.86189" lon="5.40546">
        <ele>1240.6</ele>
      </trkpt>
      <trkpt lat="44.86166" lon="5.40537">
        <ele>1234.7</ele>
      </trkpt>
      <trkpt lat="44.86154" lon="5.40534">
        <ele>1235.2</ele>
      </trkpt>
      <trkpt lat="44.86153" lon="5.40534">
        <ele>1235.1</ele>
      </trkpt>
      <trkpt lat="44.86142" lon="5.4053">
        <ele>1235.1</ele>
      </trkpt>
      <trkpt lat="44.86137" lon="5.40527">
        <ele>1235.3</ele>
      </trkpt>
      <trkpt lat="44.8613" lon="5.40525">
        <ele>1234.7</ele>
      </trkpt>
      <trkpt lat="44.8609" lon="5.40503">
        <ele>1239.8</ele>
      </trkpt>
      <trkpt lat="44.86082" lon="5.40501">
        <ele>1241.1</ele>
      </trkpt>
      <trkpt lat="44.86056" lon="5.40502">
        <ele>1224.6</ele>
      </trkpt>
      <trkpt lat="44.86044" lon="5.40501">
        <ele>1221.6</ele>
      </trkpt>
      <trkpt lat="44.86026" lon="5.40496">
        <ele>1245.3</ele>
      </trkpt>
      <trkpt lat="44.86025" lon="5.40495">
        <ele>1245.1</ele>
      </trkpt>
      <trkpt lat="44.86013" lon="5.40488">
        <ele>1241.8</ele>
      </trkpt>
      <trkpt lat="44.86005" lon="5.40482">
        <ele>1242.8</ele>
      </trkpt>
      <trkpt lat="44.86" lon="5.40477">
        <ele>1239.1</ele>
      </trkpt>
      <trkpt lat="44.85997" lon="5.40475">
        <ele>1240</ele>
      </trkpt>
      <trkpt lat="44.8599" lon="5.40467">
        <ele>1243.6</ele>
      </trkpt>
      <trkpt lat="44.85984" lon="5.40462">
        <ele>1245.6</ele>
      </trkpt>
      <trkpt lat="44.85969" lon="5.40458">
        <ele>1246.5</ele>
      </trkpt>
      <trkpt lat="44.85967" lon="5.40457">
        <ele>1246.8</ele>
      </trkpt>
      <trkpt lat="44.85956" lon="5.40456">
        <ele>1246.6</ele>
      </trkpt>
      <trkpt lat="44.8594" lon="5.40456">
        <ele>1246</ele>
      </trkpt>
      <trkpt lat="44.85932" lon="5.40457">
        <ele>1245.5</ele>
      </trkpt>
      <trkpt lat="44.85862" lon="5.4046">
        <ele>1237.7</ele>
      </trkpt>
      <trkpt lat="44.85842" lon="5.40458">
        <ele>1237.6</ele>
      </trkpt>
      <trkpt lat="44.85836" lon="5.40455">
        <ele>1238.7</ele>
      </trkpt>
      <trkpt lat="44.85821" lon="5.40444">
        <ele>1238.9</ele>
      </trkpt>
      <trkpt lat="44.85807" lon="5.40437">
        <ele>1239.6</ele>
      </trkpt>
      <trkpt lat="44.858" lon="5.40436">
        <ele>1239.1</ele>
      </trkpt>
      <trkpt lat="44.8578" lon="5.40437">
        <ele>1238.8</ele>
      </trkpt>
      <trkpt lat="44.85773" lon="5.4044">
        <ele>1238.5</ele>
      </trkpt>
      <trkpt lat="44.85734" lon="5.40451">
        <ele>1229.1</ele>
      </trkpt>
      <trkpt lat="44.85716" lon="5.40451">
        <ele>1227.3</ele>
      </trkpt>
      <trkpt lat="44.85702" lon="5.40447">
        <ele>1227.2</ele>
      </trkpt>
      <trkpt lat="44.85696" lon="5.40444">
        <ele>1227.8</ele>
      </trkpt>
      <trkpt lat="44.85695" lon="5.40443">
        <ele>1228</ele>
      </trkpt>
      <trkpt lat="44.8569" lon="5.4044">
        <ele>1228.8</ele>
      </trkpt>
      <trkpt lat="44.8568" lon="5.40428">
        <ele>1233</ele>
      </trkpt>
      <trkpt lat="44.85666" lon="5.40414">
        <ele>1243.7</ele>
      </trkpt>
      <trkpt lat="44.85659" lon="5.40409">
        <ele>1250</ele>
      </trkpt>
      <trkpt lat="44.85646" lon="5.40403">
        <ele>1256.4</ele>
      </trkpt>
      <trkpt lat="44.85639" lon="5.40402">
        <ele>1257.9</ele>
      </trkpt>
      <trkpt lat="44.85638" lon="5.40401">
        <ele>1258.3</ele>
      </trkpt>
      <trkpt lat="44.85631" lon="5.40401">
        <ele>1258.9</ele>
      </trkpt>
      <trkpt lat="44.85623" lon="5.40403">
        <ele>1258.4</ele>
      </trkpt>
      <trkpt lat="44.85622" lon="5.40404">
        <ele>1258.1</ele>
      </trkpt>
      <trkpt lat="44.85605" lon="5.40413">
        <ele>1252.9</ele>
      </trkpt>
      <trkpt lat="44.85604" lon="5.40413">
        <ele>1252.6</ele>
      </trkpt>
      <trkpt lat="44.85588" lon="5.40423">
        <ele>1231.8</ele>
      </trkpt>
      <trkpt lat="44.85557" lon="5.40437">
        <ele>1228.2</ele>
      </trkpt>
      <trkpt lat="44.85536" lon="5.40444">
        <ele>1228.4</ele>
      </trkpt>
      <trkpt lat="44.85519" lon="5.40448">
        <ele>1229.5</ele>
      </trkpt>
      <trkpt lat="44.85513" lon="5.40448">
        <ele>1230.3</ele>
      </trkpt>
      <trkpt lat="44.85501" lon="5.40451">
        <ele>1229.9</ele>
      </trkpt>
      <trkpt lat="44.85469" lon="5.40454">
        <ele>1231.4</ele>
      </trkpt>
      <trkpt lat="44.85442" lon="5.40451">
        <ele>1231.9</ele>
      </trkpt>
      <trkpt lat="44.85422" lon="5.40447">
        <ele>1233.8</ele>
      </trkpt>
      <trkpt lat="44.85377" lon="5.40433">
        <ele>1229.7</ele>
      </trkpt>
      <trkpt lat="44.85366" lon="5.40431">
        <ele>1229.4</ele>
      </trkpt>
      <trkpt lat="44.8534" lon="5.4043">
        <ele>1231.9</ele>
      </trkpt>
      <trkpt lat="44.85329" lon="5.40431">
        <ele>1228</ele>
      </trkpt>
      <trkpt lat="44.85307" lon="5.40431">
        <ele>1222.8</ele>
      </trkpt>
      <trkpt lat="44.85287" lon="5.40424">
        <ele>1221.5</ele>
      </trkpt>
      <trkpt lat="44.8528" lon="5.4042">
        <ele>1221.9</ele>
      </trkpt>
      <trkpt lat="44.85264" lon="5.40408">
        <ele>1244</ele>
      </trkpt>
      <trkpt lat="44.85251" lon="5.40402">
        <ele>1243.4</ele>
      </trkpt>
      <trkpt lat="44.85243" lon="5.40402">
        <ele>1245.3</ele>
      </trkpt>
      <trkpt lat="44.85236" lon="5.40403">
        <ele>1247.1</ele>
      </trkpt>
      <trkpt lat="44.85203" lon="5.40428">
        <ele>1222.8</ele>
      </trkpt>
      <trkpt lat="44.85188" lon="5.40438">
        <ele>1223.2</ele>
      </trkpt>
      <trkpt lat="44.85172" lon="5.40444">
        <ele>1223.2</ele>
      </trkpt>
      <trkpt lat="44.85169" lon="5.40446">
        <ele>1222.5</ele>
      </trkpt>
      <trkpt lat="44.85153" lon="5.4045">
        <ele>1227.4</ele>
      </trkpt>
      <trkpt lat="44.85123" lon="5.40455">
        <ele>1227.3</ele>
      </trkpt>
      <trkpt lat="44.85084" lon="5.40459">
        <ele>1228.1</ele>
      </trkpt>
      <trkpt lat="44.8504" lon="5.40461">
        <ele>1228.2</ele>
      </trkpt>
      <trkpt lat="44.85001" lon="5.40465">
        <ele>1225</ele>
      </trkpt>
      <trkpt lat="44.84962" lon="5.40466">
        <ele>1225.2</ele>
      </trkpt>
      <trkpt lat="44.84956" lon="5.40465">
        <ele>1225.6</ele>
      </trkpt>
      <trkpt lat="44.84944" lon="5.40465">
        <ele>1225.7</ele>
      </trkpt>
      <trkpt lat="44.84891" lon="5.40456">
        <ele>1228.9</ele>
      </trkpt>
      <trkpt lat="44.84864" lon="5.40455">
        <ele>1229.1</ele>
      </trkpt>
      <trkpt lat="44.84854" lon="5.40457">
        <ele>1228.6</ele>
      </trkpt>
      <trkpt lat="44.84845" lon="5.4046">
        <ele>1227.6</ele>
      </trkpt>
      <trkpt lat="44.84829" lon="5.40463">
        <ele>1225.9</ele>
      </trkpt>
      <trkpt lat="44.84816" lon="5.40463">
        <ele>1226.1</ele>
      </trkpt>
      <trkpt lat="44.84805" lon="5.40462">
        <ele>1226.6</ele>
      </trkpt>
      <trkpt lat="44.84784" lon="5.40458">
        <ele>1227.5</ele>
      </trkpt>
      <trkpt lat="44.84766" lon="5.40448">
        <ele>1230.5</ele>
      </trkpt>
      <trkpt lat="44.8476" lon="5.40446">
        <ele>1231.4</ele>
      </trkpt>
      <trkpt lat="44.84747" lon="5.40448">
        <ele>1232.8</ele>
      </trkpt>
      <trkpt lat="44.84732" lon="5.40459">
        <ele>1229.6</ele>
      </trkpt>
      <trkpt lat="44.84721" lon="5.40462">
        <ele>1229.3</ele>
      </trkpt>
      <trkpt lat="44.84716" lon="5.40462">
        <ele>1229.6</ele>
      </trkpt>
      <trkpt lat="44.84684" lon="5.40457">
        <ele>1232.1</ele>
      </trkpt>
      <trkpt lat="44.84678" lon="5.40458">
        <ele>1232</ele>
      </trkpt>
      <trkpt lat="44.84676" lon="5.40459">
        <ele>1231.8</ele>
      </trkpt>
      <trkpt lat="44.84668" lon="5.40465">
        <ele>1230</ele>
      </trkpt>
      <trkpt lat="44.84661" lon="5.40473">
        <ele>1232.7</ele>
      </trkpt>
      <trkpt lat="44.84629" lon="5.40478">
        <ele>1235.2</ele>
      </trkpt>
      <trkpt lat="44.84607" lon="5.40483">
        <ele>1235</ele>
      </trkpt>
      <trkpt lat="44.84519" lon="5.40494">
        <ele>1240.5</ele>
      </trkpt>
      <trkpt lat="44.8448" lon="5.40494">
        <ele>1245.8</ele>
      </trkpt>
      <trkpt lat="44.84468" lon="5.40495">
        <ele>1248.9</ele>
      </trkpt>
      <trkpt lat="44.84383" lon="5.4051">
        <ele>1238.6</ele>
      </trkpt>
      <trkpt lat="44.84356" lon="5.40512">
        <ele>1240.8</ele>
      </trkpt>
      <trkpt lat="44.84312" lon="5.40512">
        <ele>1245.3</ele>
      </trkpt>
      <trkpt lat="44.84276" lon="5.40516">
        <ele>1246.5</ele>
      </trkpt>
      <trkpt lat="44.84226" lon="5.40529">
        <ele>1251.5</ele>
      </trkpt>
      <trkpt lat="44.84224" lon="5.40529">
        <ele>1251.6</ele>
      </trkpt>
      <trkpt lat="44.84189" lon="5.40539">
        <ele>1252.2</ele>
      </trkpt>
      <trkpt lat="44.84155" lon="5.40553">
        <ele>1257.4</ele>
      </trkpt>
      <trkpt lat="44.84141" lon="5.4056">
        <ele>1257.3</ele>
      </trkpt>
      <trkpt lat="44.84126" lon="5.40566">
        <ele>1257.7</ele>
      </trkpt>
      <trkpt lat="44.84124" lon="5.40568">
        <ele>1257.6</ele>
      </trkpt>
      <trkpt lat="44.84089" lon="5.40582">
        <ele>1253.8</ele>
      </trkpt>
      <trkpt lat="44.84082" lon="5.40582">
        <ele>1253.1</ele>
      </trkpt>
      <trkpt lat="44.84063" lon="5.40585">
        <ele>1253.7</ele>
      </trkpt>
      <trkpt lat="44.84062" lon="5.40583">
        <ele>1260.1</ele>
      </trkpt>
      <trkpt lat="44.8406" lon="5.40581">
        <ele>1260.6</ele>
      </trkpt>
      <trkpt lat="44.84056" lon="5.40579">
        <ele>1261.4</ele>
      </trkpt>
      <trkpt lat="44.84046" lon="5.40549">
        <ele>1266.4</ele>
      </trkpt>
      <trkpt lat="44.84042" lon="5.40543">
        <ele>1267.5</ele>
      </trkpt>
      <trkpt lat="44.83964" lon="5.40263">
        <ele>1385.5</ele>
      </trkpt>
      <trkpt lat="44.8392" lon="5.40124">
        <ele>1428.7</ele>
      </trkpt>
      <trkpt lat="44.83833" lon="5.39818">
        <ele>1282.5</ele>
      </trkpt>
      <trkpt lat="44.83832" lon="5.39812">
        <ele>1278.5</ele>
      </trkpt>
      <trkpt lat="44.83821" lon="5.39774">
        <ele>1267.5</ele>
      </trkpt>
      <trkpt lat="44.83813" lon="5.39733">
        <ele>1253.4</ele>
      </trkpt>
      <trkpt lat="44.83811" lon="5.3971">
        <ele>1248.1</ele>
      </trkpt>
      <trkpt lat="44.83811" lon="5.39659">
        <ele>1239.5</ele>
      </trkpt>
      <trkpt lat="44.83812" lon="5.39642">
        <ele>1236.3</ele>
      </trkpt>
      <trkpt lat="44.83814" lon="5.39628">
        <ele>1234.3</ele>
      </trkpt>
      <trkpt lat="44.8382" lon="5.3961">
        <ele>1234.3</ele>
      </trkpt>
      <trkpt lat="44.8383" lon="5.39589">
        <ele>1239.7</ele>
      </trkpt>
      <trkpt lat="44.83844" lon="5.39554">
        <ele>1248.6</ele>
      </trkpt>
      <trkpt lat="44.83847" lon="5.39542">
        <ele>1247.6</ele>
      </trkpt>
      <trkpt lat="44.83852" lon="5.39532">
        <ele>1246.6</ele>
      </trkpt>
      <trkpt lat="44.83857" lon="5.39517">
        <ele>1244.5</ele>
      </trkpt>
      <trkpt lat="44.83866" lon="5.39498">
        <ele>1234</ele>
      </trkpt>
      <trkpt lat="44.83901" lon="5.39444">
        <ele>1237.6</ele>
      </trkpt>
      <trkpt lat="44.83912" lon="5.39414">
        <ele>1238.6</ele>
      </trkpt>
      <trkpt lat="44.83918" lon="5.39385">
        <ele>1255.6</ele>
      </trkpt>
      <trkpt lat="44.83915" lon="5.39363">
        <ele>1232.2</ele>
      </trkpt>
      <trkpt lat="44.83906" lon="5.39344">
        <ele>1234.7</ele>
      </trkpt>
      <trkpt lat="44.83893" lon="5.39323">
        <ele>1237.6</ele>
      </trkpt>
      <trkpt lat="44.83889" lon="5.39314">
        <ele>1237.1</ele>
      </trkpt>
      <trkpt lat="44.83881" lon="5.39301">
        <ele>1236.6</ele>
      </trkpt>
      <trkpt lat="44.83843" lon="5.39257">
        <ele>1231.4</ele>
      </trkpt>
      <trkpt lat="44.8381" lon="5.39226">
        <ele>1229.1</ele>
      </trkpt>
      <trkpt lat="44.83801" lon="5.39219">
        <ele>1228.8</ele>
      </trkpt>
      <trkpt lat="44.83791" lon="5.39209">
        <ele>1228.7</ele>
      </trkpt>
      <trkpt lat="44.83781" lon="5.39201">
        <ele>1228.1</ele>
      </trkpt>
      <trkpt lat="44.83771" lon="5.39191">
        <ele>1227.7</ele>
      </trkpt>
      <trkpt lat="44.83748" lon="5.39172">
        <ele>1218</ele>
      </trkpt>
      <trkpt lat="44.83734" lon="5.39158">
        <ele>1236.5</ele>
      </trkpt>
      <trkpt lat="44.83722" lon="5.39149">
        <ele>1240.4</ele>
      </trkpt>
      <trkpt lat="44.83714" lon="5.39138">
        <ele>1243.9</ele>
      </trkpt>
      <trkpt lat="44.8371" lon="5.39134">
        <ele>1244.8</ele>
      </trkpt>
      <trkpt lat="44.8371" lon="5.39133">
        <ele>1245.3</ele>
      </trkpt>
      <trkpt lat="44.83701" lon="5.39118">
        <ele>1250.7</ele>
      </trkpt>
      <trkpt lat="44.83695" lon="5.39115">
        <ele>1250.8</ele>
      </trkpt>
      <trkpt lat="44.83691" lon="5.39115">
        <ele>1250.1</ele>
      </trkpt>
      <trkpt lat="44.83689" lon="5.39116">
        <ele>1249.2</ele>
      </trkpt>
      <trkpt lat="44.83688" lon="5.39116">
        <ele>1249.1</ele>
      </trkpt>
      <trkpt lat="44.83688" lon="5.39117">
        <ele>1248.5</ele>
      </trkpt>
      <trkpt lat="44.83686" lon="5.39122">
        <ele>1245.3</ele>
      </trkpt>
      <trkpt lat="44.83686" lon="5.39128">
        <ele>1241.6</ele>
      </trkpt>
      <trkpt lat="44.83687" lon="5.39129">
        <ele>1241.2</ele>
      </trkpt>
      <trkpt lat="44.83688" lon="5.39131">
        <ele>1240.2</ele>
      </trkpt>
      <trkpt lat="44.83693" lon="5.39136">
        <ele>1238.7</ele>
      </trkpt>
      <trkpt lat="44.83698" lon="5.39139">
        <ele>1238.7</ele>
      </trkpt>
      <trkpt lat="44.83701" lon="5.39143">
        <ele>1237.8</ele>
      </trkpt>
      <trkpt lat="44.83708" lon="5.39149">
        <ele>1237.5</ele>
      </trkpt>
      <trkpt lat="44.83798" lon="5.39255">
        <ele>1205.7</ele>
      </trkpt>
      <trkpt lat="44.83837" lon="5.39308">
        <ele>1225</ele>
      </trkpt>
      <trkpt lat="44.83846" lon="5.39324">
        <ele>1220.7</ele>
      </trkpt>
      <trkpt lat="44.83856" lon="5.3935">
        <ele>1219.5</ele>
      </trkpt>
      <trkpt lat="44.83859" lon="5.3937">
        <ele>1221.4</ele>
      </trkpt>
      <trkpt lat="44.83858" lon="5.39375">
        <ele>1221.3</ele>
      </trkpt>
      <trkpt lat="44.83858" lon="5.39377">
        <ele>1221.3</ele>
      </trkpt>
      <trkpt lat="44.83855" lon="5.39386">
        <ele>1220.4</ele>
      </trkpt>
      <trkpt lat="44.8385" lon="5.39397">
        <ele>1218.3</ele>
      </trkpt>
      <trkpt lat="44.8385" lon="5.39398">
        <ele>1218.1</ele>
      </trkpt>
      <trkpt lat="44.83837" lon="5.39425">
        <ele>1215</ele>
      </trkpt>
      <trkpt lat="44.83825" lon="5.3944">
        <ele>1199.9</ele>
      </trkpt>
      <trkpt lat="44.838" lon="5.39476">
        <ele>1197.6</ele>
      </trkpt>
      <trkpt lat="44.8378" lon="5.39512">
        <ele>1204</ele>
      </trkpt>
      <trkpt lat="44.83773" lon="5.39522">
        <ele>1203.3</ele>
      </trkpt>
      <trkpt lat="44.83765" lon="5.3953">
        <ele>1203.1</ele>
      </trkpt>
      <trkpt lat="44.83744" lon="5.39558">
        <ele>1180.7</ele>
      </trkpt>
      <trkpt lat="44.83726" lon="5.39604">
        <ele>1187.5</ele>
      </trkpt>
      <trkpt lat="44.83715" lon="5.39658">
        <ele>1188.1</ele>
      </trkpt>
      <trkpt lat="44.83714" lon="5.39671">
        <ele>1195.8</ele>
      </trkpt>
      <trkpt lat="44.83712" lon="5.39683">
        <ele>1195.4</ele>
      </trkpt>
      <trkpt lat="44.83712" lon="5.3969">
        <ele>1195.8</ele>
      </trkpt>
      <trkpt lat="44.8371" lon="5.39697">
        <ele>1195.6</ele>
      </trkpt>
      <trkpt lat="44.83707" lon="5.39704">
        <ele>1195.3</ele>
      </trkpt>
      <trkpt lat="44.83703" lon="5.39709">
        <ele>1194.6</ele>
      </trkpt>
      <trkpt lat="44.83698" lon="5.39713">
        <ele>1193.7</ele>
      </trkpt>
      <trkpt lat="44.83695" lon="5.39717">
        <ele>1193.1</ele>
      </trkpt>
      <trkpt lat="44.83689" lon="5.39723">
        <ele>1191.8</ele>
      </trkpt>
      <trkpt lat="44.83685" lon="5.39729">
        <ele>1190.6</ele>
      </trkpt>
      <trkpt lat="44.83683" lon="5.39736">
        <ele>1189.5</ele>
      </trkpt>
      <trkpt lat="44.83681" lon="5.3974">
        <ele>1188.4</ele>
      </trkpt>
      <trkpt lat="44.83681" lon="5.39741">
        <ele>1188.2</ele>
      </trkpt>
      <trkpt lat="44.83675" lon="5.39763">
        <ele>1195.9</ele>
      </trkpt>
      <trkpt lat="44.83673" lon="5.39767">
        <ele>1197.5</ele>
      </trkpt>
      <trkpt lat="44.83671" lon="5.39769">
        <ele>1198.2</ele>
      </trkpt>
      <trkpt lat="44.83669" lon="5.39769">
        <ele>1197.9</ele>
      </trkpt>
      <trkpt lat="44.83668" lon="5.3977">
        <ele>1198.3</ele>
      </trkpt>
      <trkpt lat="44.83666" lon="5.3977">
        <ele>1178.8</ele>
      </trkpt>
      <trkpt lat="44.8366" lon="5.39766">
        <ele>1178.2</ele>
      </trkpt>
      <trkpt lat="44.8366" lon="5.39763">
        <ele>1178.2</ele>
      </trkpt>
      <trkpt lat="44.83659" lon="5.39761">
        <ele>1178.1</ele>
      </trkpt>
      <trkpt lat="44.83659" lon="5.39756">
        <ele>1178.3</ele>
      </trkpt>
      <trkpt lat="44.8366" lon="5.39751">
        <ele>1178.6</ele>
      </trkpt>
      <trkpt lat="44.8368" lon="5.39714">
        <ele>1189.8</ele>
      </trkpt>
      <trkpt lat="44.83686" lon="5.39706">
        <ele>1190.3</ele>
      </trkpt>
      <trkpt lat="44.83695" lon="5.3969">
        <ele>1190.4</ele>
      </trkpt>
      <trkpt lat="44.83697" lon="5.39669">
        <ele>1188.9</ele>
      </trkpt>
      <trkpt lat="44.83697" lon="5.39637">
        <ele>1181.3</ele>
      </trkpt>
      <trkpt lat="44.83701" lon="5.39593">
        <ele>1178.6</ele>
      </trkpt>
      <trkpt lat="44.83705" lon="5.39579">
        <ele>1170.6</ele>
      </trkpt>
      <trkpt lat="44.83705" lon="5.39576">
        <ele>1170.5</ele>
      </trkpt>
      <trkpt lat="44.83714" lon="5.39546">
        <ele>1170.7</ele>
      </trkpt>
      <trkpt lat="44.83725" lon="5.39522">
        <ele>1171.5</ele>
      </trkpt>
      <trkpt lat="44.83739" lon="5.39496">
        <ele>1170.1</ele>
      </trkpt>
      <trkpt lat="44.83756" lon="5.39459">
        <ele>1186.2</ele>
      </trkpt>
      <trkpt lat="44.83759" lon="5.3945">
        <ele>1184.9</ele>
      </trkpt>
      <trkpt lat="44.8376" lon="5.39449">
        <ele>1184.9</ele>
      </trkpt>
      <trkpt lat="44.83763" lon="5.39442">
        <ele>1183.6</ele>
      </trkpt>
      <trkpt lat="44.83765" lon="5.39435">
        <ele>1182</ele>
      </trkpt>
      <trkpt lat="44.83778" lon="5.39405">
        <ele>1181.1</ele>
      </trkpt>
      <trkpt lat="44.83785" lon="5.39377">
        <ele>1184.6</ele>
      </trkpt>
      <trkpt lat="44.83785" lon="5.39363">
        <ele>1184.6</ele>
      </trkpt>
      <trkpt lat="44.83783" lon="5.39357">
        <ele>1183.9</ele>
      </trkpt>
      <trkpt lat="44.83783" lon="5.39355">
        <ele>1183.9</ele>
      </trkpt>
      <trkpt lat="44.83779" lon="5.39346">
        <ele>1182.3</ele>
      </trkpt>
      <trkpt lat="44.83773" lon="5.39336">
        <ele>1179.5</ele>
      </trkpt>
      <trkpt lat="44.83756" lon="5.39316">
        <ele>1183.6</ele>
      </trkpt>
      <trkpt lat="44.83745" lon="5.39305">
        <ele>1166.8</ele>
      </trkpt>
      <trkpt lat="44.83745" lon="5.39304">
        <ele>1166.9</ele>
      </trkpt>
      <trkpt lat="44.83733" lon="5.39294">
        <ele>1167.2</ele>
      </trkpt>
      <trkpt lat="44.837" lon="5.39262">
        <ele>1164.2</ele>
      </trkpt>
      <trkpt lat="44.83696" lon="5.39259">
        <ele>1163.3</ele>
      </trkpt>
      <trkpt lat="44.83626" lon="5.3919">
        <ele>1155.8</ele>
      </trkpt>
      <trkpt lat="44.83625" lon="5.39188">
        <ele>1155.9</ele>
      </trkpt>
      <trkpt lat="44.83544" lon="5.39103">
        <ele>1152.4</ele>
      </trkpt>
      <trkpt lat="44.8354" lon="5.39098">
        <ele>1151.8</ele>
      </trkpt>
      <trkpt lat="44.83511" lon="5.39068">
        <ele>1184.3</ele>
      </trkpt>
      <trkpt lat="44.83448" lon="5.39011">
        <ele>1172.9</ele>
      </trkpt>
      <trkpt lat="44.83436" lon="5.39002">
        <ele>1166.2</ele>
      </trkpt>
      <trkpt lat="44.83424" lon="5.38997">
        <ele>1180.7</ele>
      </trkpt>
      <trkpt lat="44.83414" lon="5.38996">
        <ele>1165.3</ele>
      </trkpt>
      <trkpt lat="44.83404" lon="5.38997">
        <ele>1178.6</ele>
      </trkpt>
      <trkpt lat="44.83399" lon="5.38999">
        <ele>1183.6</ele>
      </trkpt>
      <trkpt lat="44.83387" lon="5.39009">
        <ele>1144.5</ele>
      </trkpt>
      <trkpt lat="44.83371" lon="5.3903">
        <ele>1140.4</ele>
      </trkpt>
      <trkpt lat="44.83369" lon="5.39031">
        <ele>1140.2</ele>
      </trkpt>
      <trkpt lat="44.83359" lon="5.39044">
        <ele>1136.2</ele>
      </trkpt>
      <trkpt lat="44.83356" lon="5.39045">
        <ele>1135.8</ele>
      </trkpt>
      <trkpt lat="44.83355" lon="5.39046">
        <ele>1135.4</ele>
      </trkpt>
      <trkpt lat="44.83353" lon="5.39047">
        <ele>1134.9</ele>
      </trkpt>
      <trkpt lat="44.83351" lon="5.39047">
        <ele>1134.9</ele>
      </trkpt>
      <trkpt lat="44.8335" lon="5.39048">
        <ele>1134.4</ele>
      </trkpt>
      <trkpt lat="44.83342" lon="5.39048">
        <ele>1134.1</ele>
      </trkpt>
      <trkpt lat="44.83337" lon="5.39046">
        <ele>1135.1</ele>
      </trkpt>
      <trkpt lat="44.83336" lon="5.39046">
        <ele>1135.1</ele>
      </trkpt>
      <trkpt lat="44.83329" lon="5.39042">
        <ele>1135</ele>
      </trkpt>
      <trkpt lat="44.83316" lon="5.39027">
        <ele>1141.3</ele>
      </trkpt>
      <trkpt lat="44.83303" lon="5.39016">
        <ele>1142.4</ele>
      </trkpt>
      <trkpt lat="44.83297" lon="5.39014">
        <ele>1141.4</ele>
      </trkpt>
      <trkpt lat="44.83288" lon="5.39014">
        <ele>1139.9</ele>
      </trkpt>
      <trkpt lat="44.83274" lon="5.39016">
        <ele>1138.7</ele>
      </trkpt>
      <trkpt lat="44.83263" lon="5.3902">
        <ele>1138.1</ele>
      </trkpt>
      <trkpt lat="44.83233" lon="5.39035">
        <ele>1132.9</ele>
      </trkpt>
      <trkpt lat="44.83224" lon="5.39042">
        <ele>1131.4</ele>
      </trkpt>
      <trkpt lat="44.8321" lon="5.39048">
        <ele>1130.8</ele>
      </trkpt>
      <trkpt lat="44.83141" lon="5.39068">
        <ele>1130.1</ele>
      </trkpt>
      <trkpt lat="44.83129" lon="5.39068">
        <ele>1130.9</ele>
      </trkpt>
      <trkpt lat="44.83118" lon="5.39066">
        <ele>1131</ele>
      </trkpt>
      <trkpt lat="44.8311" lon="5.39063">
        <ele>1131</ele>
      </trkpt>
      <trkpt lat="44.83094" lon="5.39059">
        <ele>1130.5</ele>
      </trkpt>
      <trkpt lat="44.83061" lon="5.3906">
        <ele>1127.8</ele>
      </trkpt>
      <trkpt lat="44.83036" lon="5.39057">
        <ele>1127.7</ele>
      </trkpt>
      <trkpt lat="44.83009" lon="5.39048">
        <ele>1127.9</ele>
      </trkpt>
      <trkpt lat="44.83003" lon="5.39047">
        <ele>1128</ele>
      </trkpt>
      <trkpt lat="44.82939" lon="5.39025">
        <ele>1117.2</ele>
      </trkpt>
      <trkpt lat="44.82938" lon="5.39025">
        <ele>1117.1</ele>
      </trkpt>
      <trkpt lat="44.82922" lon="5.3902">
        <ele>1118</ele>
      </trkpt>
      <trkpt lat="44.82908" lon="5.39017">
        <ele>1110.5</ele>
      </trkpt>
      <trkpt lat="44.82889" lon="5.39015">
        <ele>1107</ele>
      </trkpt>
      <trkpt lat="44.82877" lon="5.39015">
        <ele>1105.5</ele>
      </trkpt>
      <trkpt lat="44.82844" lon="5.39018">
        <ele>1106.5</ele>
      </trkpt>
      <trkpt lat="44.82816" lon="5.39015">
        <ele>1099.6</ele>
      </trkpt>
      <trkpt lat="44.82752" lon="5.38997">
        <ele>1109.1</ele>
      </trkpt>
      <trkpt lat="44.82728" lon="5.38986">
        <ele>1106.2</ele>
      </trkpt>
      <trkpt lat="44.82708" lon="5.38973">
        <ele>1104.8</ele>
      </trkpt>
      <trkpt lat="44.82691" lon="5.38958">
        <ele>1104.4</ele>
      </trkpt>
      <trkpt lat="44.82683" lon="5.38948">
        <ele>1105.2</ele>
      </trkpt>
      <trkpt lat="44.82675" lon="5.38935">
        <ele>1106</ele>
      </trkpt>
      <trkpt lat="44.82604" lon="5.38801">
        <ele>1098.5</ele>
      </trkpt>
      <trkpt lat="44.82601" lon="5.38788">
        <ele>1098.8</ele>
      </trkpt>
      <trkpt lat="44.826" lon="5.38779">
        <ele>1098.1</ele>
      </trkpt>
      <trkpt lat="44.826" lon="5.38765">
        <ele>1095.9</ele>
      </trkpt>
      <trkpt lat="44.82602" lon="5.38737">
        <ele>1101</ele>
      </trkpt>
      <trkpt lat="44.82602" lon="5.38717">
        <ele>1105.9</ele>
      </trkpt>
      <trkpt lat="44.82593" lon="5.38667">
        <ele>1096.7</ele>
      </trkpt>
      <trkpt lat="44.82584" lon="5.38631">
        <ele>1113.8</ele>
      </trkpt>
      <trkpt lat="44.82582" lon="5.38616">
        <ele>1080.4</ele>
      </trkpt>
      <trkpt lat="44.82565" lon="5.38537">
        <ele>1095.8</ele>
      </trkpt>
      <trkpt lat="44.82563" lon="5.38534">
        <ele>1096</ele>
      </trkpt>
      <trkpt lat="44.82556" lon="5.38518">
        <ele>1097.4</ele>
      </trkpt>
      <trkpt lat="44.82546" lon="5.385">
        <ele>1108.3</ele>
      </trkpt>
      <trkpt lat="44.82538" lon="5.38488">
        <ele>1105.8</ele>
      </trkpt>
      <trkpt lat="44.82531" lon="5.3848">
        <ele>1104</ele>
      </trkpt>
      <trkpt lat="44.82517" lon="5.38468">
        <ele>1102.2</ele>
      </trkpt>
      <trkpt lat="44.82509" lon="5.38465">
        <ele>1101.2</ele>
      </trkpt>
      <trkpt lat="44.82501" lon="5.38463">
        <ele>1100.7</ele>
      </trkpt>
      <trkpt lat="44.82495" lon="5.3846">
        <ele>1076.3</ele>
      </trkpt>
      <trkpt lat="44.82489" lon="5.38456">
        <ele>1076.3</ele>
      </trkpt>
      <trkpt lat="44.82485" lon="5.38452">
        <ele>1076.5</ele>
      </trkpt>
      <trkpt lat="44.82474" lon="5.38432">
        <ele>1078</ele>
      </trkpt>
      <trkpt lat="44.82469" lon="5.38427">
        <ele>1077</ele>
      </trkpt>
      <trkpt lat="44.82466" lon="5.38427">
        <ele>1075.9</ele>
      </trkpt>
      <trkpt lat="44.82463" lon="5.38428">
        <ele>1074.8</ele>
      </trkpt>
      <trkpt lat="44.82459" lon="5.38432">
        <ele>1073.3</ele>
      </trkpt>
      <trkpt lat="44.82458" lon="5.38439">
        <ele>1072.4</ele>
      </trkpt>
      <trkpt lat="44.8246" lon="5.38447">
        <ele>1072.1</ele>
      </trkpt>
      <trkpt lat="44.82462" lon="5.38451">
        <ele>1072.1</ele>
      </trkpt>
      <trkpt lat="44.82465" lon="5.38455">
        <ele>1072.2</ele>
      </trkpt>
      <trkpt lat="44.8247" lon="5.3846">
        <ele>1072.6</ele>
      </trkpt>
      <trkpt lat="44.82486" lon="5.38472">
        <ele>1073.9</ele>
      </trkpt>
      <trkpt lat="44.82493" lon="5.38475">
        <ele>1074.5</ele>
      </trkpt>
      <trkpt lat="44.82515" lon="5.38489">
        <ele>1094.6</ele>
      </trkpt>
      <trkpt lat="44.82528" lon="5.38505">
        <ele>1087.7</ele>
      </trkpt>
      <trkpt lat="44.82539" lon="5.38528">
        <ele>1089.8</ele>
      </trkpt>
      <trkpt lat="44.8255" lon="5.38567">
        <ele>1088.5</ele>
      </trkpt>
      <trkpt lat="44.82559" lon="5.3863">
        <ele>1073.9</ele>
      </trkpt>
      <trkpt lat="44.82568" lon="5.38721">
        <ele>1063.9</ele>
      </trkpt>
      <trkpt lat="44.82567" lon="5.38739">
        <ele>1066.1</ele>
      </trkpt>
      <trkpt lat="44.8256" lon="5.38772">
        <ele>1056.9</ele>
      </trkpt>
      <trkpt lat="44.82559" lon="5.38774">
        <ele>1056.2</ele>
      </trkpt>
      <trkpt lat="44.82554" lon="5.38798">
        <ele>1053</ele>
      </trkpt>
      <trkpt lat="44.82554" lon="5.38817">
        <ele>1053.7</ele>
      </trkpt>
      <trkpt lat="44.82555" lon="5.38821">
        <ele>1054.4</ele>
      </trkpt>
      <trkpt lat="44.82555" lon="5.38822">
        <ele>1054.5</ele>
      </trkpt>
      <trkpt lat="44.82564" lon="5.38848">
        <ele>1051</ele>
      </trkpt>
      <trkpt lat="44.8258" lon="5.38883">
        <ele>1046.3</ele>
      </trkpt>
      <trkpt lat="44.82588" lon="5.38898">
        <ele>1072.1</ele>
      </trkpt>
      <trkpt lat="44.82602" lon="5.38929">
        <ele>1061.1</ele>
      </trkpt>
      <trkpt lat="44.82619" lon="5.38976">
        <ele>1060.5</ele>
      </trkpt>
      <trkpt lat="44.82648" lon="5.39033">
        <ele>1043.6</ele>
      </trkpt>
      <trkpt lat="44.82656" lon="5.39044">
        <ele>1041.8</ele>
      </trkpt>
      <trkpt lat="44.82663" lon="5.39051">
        <ele>1040.8</ele>
      </trkpt>
      <trkpt lat="44.8267" lon="5.39056">
        <ele>1058.2</ele>
      </trkpt>
      <trkpt lat="44.82761" lon="5.39106">
        <ele>1046.9</ele>
      </trkpt>
      <trkpt lat="44.82797" lon="5.3913">
        <ele>1042.2</ele>
      </trkpt>
      <trkpt lat="44.82827" lon="5.39156">
        <ele>1034.1</ele>
      </trkpt>
      <trkpt lat="44.82842" lon="5.3916">
        <ele>1037.9</ele>
      </trkpt>
      <trkpt lat="44.82854" lon="5.3916">
        <ele>1043.6</ele>
      </trkpt>
      <trkpt lat="44.82863" lon="5.39159">
        <ele>1046.6</ele>
      </trkpt>
      <trkpt lat="44.82877" lon="5.39159">
        <ele>1049</ele>
      </trkpt>
      <trkpt lat="44.82884" lon="5.39161">
        <ele>1049.3</ele>
      </trkpt>
      <trkpt lat="44.82904" lon="5.39169">
        <ele>1032.6</ele>
      </trkpt>
      <trkpt lat="44.82981" lon="5.39215">
        <ele>1035.3</ele>
      </trkpt>
      <trkpt lat="44.83019" lon="5.39243">
        <ele>1038.7</ele>
      </trkpt>
      <trkpt lat="44.83028" lon="5.39248">
        <ele>1040.9</ele>
      </trkpt>
      <trkpt lat="44.83031" lon="5.39249">
        <ele>1041.5</ele>
      </trkpt>
      <trkpt lat="44.83045" lon="5.39251">
        <ele>1019.1</ele>
      </trkpt>
      <trkpt lat="44.83053" lon="5.39251">
        <ele>1020.6</ele>
      </trkpt>
      <trkpt lat="44.83058" lon="5.3925">
        <ele>1022</ele>
      </trkpt>
      <trkpt lat="44.83065" lon="5.39251">
        <ele>1024.5</ele>
      </trkpt>
      <trkpt lat="44.83072" lon="5.39254">
        <ele>1027.4</ele>
      </trkpt>
      <trkpt lat="44.83084" lon="5.39262">
        <ele>1030.2</ele>
      </trkpt>
      <trkpt lat="44.8309" lon="5.39267">
        <ele>1027.6</ele>
      </trkpt>
      <trkpt lat="44.83101" lon="5.39274">
        <ele>1024.4</ele>
      </trkpt>
      <trkpt lat="44.83116" lon="5.39281">
        <ele>1022.2</ele>
      </trkpt>
      <trkpt lat="44.83136" lon="5.39286">
        <ele>1021.7</ele>
      </trkpt>
      <trkpt lat="44.83164" lon="5.39289">
        <ele>1022</ele>
      </trkpt>
      <trkpt lat="44.83182" lon="5.39295">
        <ele>1021.3</ele>
      </trkpt>
      <trkpt lat="44.8319" lon="5.393">
        <ele>1020.2</ele>
      </trkpt>
      <trkpt lat="44.83205" lon="5.39307">
        <ele>1019</ele>
      </trkpt>
      <trkpt lat="44.83217" lon="5.39309">
        <ele>1018.4</ele>
      </trkpt>
      <trkpt lat="44.83229" lon="5.39306">
        <ele>1018.3</ele>
      </trkpt>
      <trkpt lat="44.83242" lon="5.39299">
        <ele>1019.6</ele>
      </trkpt>
      <trkpt lat="44.83255" lon="5.39287">
        <ele>1022.3</ele>
      </trkpt>
      <trkpt lat="44.8326" lon="5.39285">
        <ele>1022.8</ele>
      </trkpt>
      <trkpt lat="44.83266" lon="5.39284">
        <ele>1023</ele>
      </trkpt>
      <trkpt lat="44.83275" lon="5.39285">
        <ele>1022.5</ele>
      </trkpt>
      <trkpt lat="44.83298" lon="5.393">
        <ele>1019.3</ele>
      </trkpt>
      <trkpt lat="44.83312" lon="5.39305">
        <ele>1017.6</ele>
      </trkpt>
      <trkpt lat="44.83328" lon="5.39309">
        <ele>1015.3</ele>
      </trkpt>
      <trkpt lat="44.83341" lon="5.3931">
        <ele>1020.4</ele>
      </trkpt>
      <trkpt lat="44.83356" lon="5.39308">
        <ele>1023.9</ele>
      </trkpt>
      <trkpt lat="44.83363" lon="5.39309">
        <ele>1025</ele>
      </trkpt>
      <trkpt lat="44.83371" lon="5.39312">
        <ele>1025.9</ele>
      </trkpt>
      <trkpt lat="44.83381" lon="5.39322">
        <ele>1026.3</ele>
      </trkpt>
      <trkpt lat="44.83385" lon="5.39328">
        <ele>1026.3</ele>
      </trkpt>
      <trkpt lat="44.83389" lon="5.39336">
        <ele>1014.4</ele>
      </trkpt>
      <trkpt lat="44.83391" lon="5.39342">
        <ele>1014.6</ele>
      </trkpt>
      <trkpt lat="44.83391" lon="5.39344">
        <ele>1014.4</ele>
      </trkpt>
      <trkpt lat="44.83394" lon="5.39352">
        <ele>1014.2</ele>
      </trkpt>
      <trkpt lat="44.83396" lon="5.39366">
        <ele>1012.7</ele>
      </trkpt>
      <trkpt lat="44.83396" lon="5.39374">
        <ele>1011.9</ele>
      </trkpt>
      <trkpt lat="44.83392" lon="5.39402">
        <ele>1010.5</ele>
      </trkpt>
      <trkpt lat="44.83392" lon="5.39405">
        <ele>1010.5</ele>
      </trkpt>
      <trkpt lat="44.83385" lon="5.39443">
        <ele>1007.4</ele>
      </trkpt>
      <trkpt lat="44.83382" lon="5.39451">
        <ele>1007</ele>
      </trkpt>
      <trkpt lat="44.83382" lon="5.39453">
        <ele>1007.1</ele>
      </trkpt>
      <trkpt lat="44.83378" lon="5.39463">
        <ele>1006.8</ele>
      </trkpt>
      <trkpt lat="44.83373" lon="5.39472">
        <ele>1006.2</ele>
      </trkpt>
      <trkpt lat="44.83373" lon="5.39473">
        <ele>1006.3</ele>
      </trkpt>
      <trkpt lat="44.83366" lon="5.39488">
        <ele>1004.9</ele>
      </trkpt>
      <trkpt lat="44.83353" lon="5.3951">
        <ele>1008.4</ele>
      </trkpt>
      <trkpt lat="44.83324" lon="5.39546">
        <ele>990.4</ele>
      </trkpt>
      <trkpt lat="44.83311" lon="5.3956">
        <ele>990.5</ele>
      </trkpt>
      <trkpt lat="44.83305" lon="5.3957">
        <ele>990.3</ele>
      </trkpt>
      <trkpt lat="44.83298" lon="5.39579">
        <ele>988.4</ele>
      </trkpt>
      <trkpt lat="44.83287" lon="5.396">
        <ele>998</ele>
      </trkpt>
      <trkpt lat="44.83285" lon="5.39602">
        <ele>997.6</ele>
      </trkpt>
      <trkpt lat="44.83273" lon="5.39628">
        <ele>999.4</ele>
      </trkpt>
      <trkpt lat="44.83264" lon="5.39639">
        <ele>999.6</ele>
      </trkpt>
      <trkpt lat="44.83259" lon="5.39642">
        <ele>999.4</ele>
      </trkpt>
      <trkpt lat="44.83254" lon="5.39646">
        <ele>999.2</ele>
      </trkpt>
      <trkpt lat="44.83239" lon="5.39652">
        <ele>984.1</ele>
      </trkpt>
      <trkpt lat="44.83232" lon="5.39656">
        <ele>982.8</ele>
      </trkpt>
      <trkpt lat="44.83226" lon="5.39662">
        <ele>981.5</ele>
      </trkpt>
      <trkpt lat="44.83221" lon="5.39665">
        <ele>979.9</ele>
      </trkpt>
      <trkpt lat="44.83216" lon="5.39671">
        <ele>996.1</ele>
      </trkpt>
      <trkpt lat="44.83207" lon="5.39687">
        <ele>996.2</ele>
      </trkpt>
      <trkpt lat="44.83204" lon="5.39691">
        <ele>996.3</ele>
      </trkpt>
      <trkpt lat="44.83202" lon="5.39695">
        <ele>996.7</ele>
      </trkpt>
      <trkpt lat="44.83198" lon="5.39699">
        <ele>996.9</ele>
      </trkpt>
      <trkpt lat="44.83191" lon="5.39704">
        <ele>997</ele>
      </trkpt>
      <trkpt lat="44.83187" lon="5.39704">
        <ele>996.4</ele>
      </trkpt>
      <trkpt lat="44.83182" lon="5.39705">
        <ele>996.1</ele>
      </trkpt>
      <trkpt lat="44.83153" lon="5.39706">
        <ele>980.1</ele>
      </trkpt>
      <trkpt lat="44.83138" lon="5.39709">
        <ele>979.2</ele>
      </trkpt>
      <trkpt lat="44.83131" lon="5.39712">
        <ele>978.9</ele>
      </trkpt>
      <trkpt lat="44.83122" lon="5.39717">
        <ele>978.7</ele>
      </trkpt>
      <trkpt lat="44.83105" lon="5.39729">
        <ele>979.3</ele>
      </trkpt>
      <trkpt lat="44.83088" lon="5.39744">
        <ele>982.2</ele>
      </trkpt>
      <trkpt lat="44.83072" lon="5.3976">
        <ele>985.1</ele>
      </trkpt>
      <trkpt lat="44.83053" lon="5.39773">
        <ele>985</ele>
      </trkpt>
      <trkpt lat="44.8304" lon="5.3978">
        <ele>984.1</ele>
      </trkpt>
      <trkpt lat="44.82978" lon="5.39808">
        <ele>967</ele>
      </trkpt>
      <trkpt lat="44.82959" lon="5.39814">
        <ele>963.6</ele>
      </trkpt>
      <trkpt lat="44.82954" lon="5.39817">
        <ele>962.9</ele>
      </trkpt>
      <trkpt lat="44.82946" lon="5.39824">
        <ele>961.7</ele>
      </trkpt>
      <trkpt lat="44.82943" lon="5.39829">
        <ele>961.4</ele>
      </trkpt>
      <trkpt lat="44.82941" lon="5.3983">
        <ele>961</ele>
      </trkpt>
      <trkpt lat="44.8294" lon="5.3983">
        <ele>960.8</ele>
      </trkpt>
      <trkpt lat="44.82936" lon="5.39832">
        <ele>960.2</ele>
      </trkpt>
      <trkpt lat="44.82931" lon="5.39833">
        <ele>959.3</ele>
      </trkpt>
      <trkpt lat="44.82929" lon="5.39833">
        <ele>959</ele>
      </trkpt>
      <trkpt lat="44.82928" lon="5.39832">
        <ele>958.8</ele>
      </trkpt>
      <trkpt lat="44.82926" lon="5.39831">
        <ele>958.5</ele>
      </trkpt>
      <trkpt lat="44.82922" lon="5.39824">
        <ele>958.3</ele>
      </trkpt>
      <trkpt lat="44.82922" lon="5.39818">
        <ele>958.4</ele>
      </trkpt>
      <trkpt lat="44.82926" lon="5.39811">
        <ele>958.5</ele>
      </trkpt>
      <trkpt lat="44.82929" lon="5.39808">
        <ele>958.5</ele>
      </trkpt>
      <trkpt lat="44.82933" lon="5.39807">
        <ele>958.9</ele>
      </trkpt>
      <trkpt lat="44.82937" lon="5.39805">
        <ele>959.1</ele>
      </trkpt>
      <trkpt lat="44.82953" lon="5.39801">
        <ele>960.9</ele>
      </trkpt>
      <trkpt lat="44.8296" lon="5.39798">
        <ele>961.7</ele>
      </trkpt>
      <trkpt lat="44.82966" lon="5.39794">
        <ele>962</ele>
      </trkpt>
      <trkpt lat="44.82975" lon="5.3979">
        <ele>962.6</ele>
      </trkpt>
      <trkpt lat="44.82987" lon="5.39781">
        <ele>962.1</ele>
      </trkpt>
      <trkpt lat="44.83031" lon="5.39752">
        <ele>977.7</ele>
      </trkpt>
      <trkpt lat="44.83047" lon="5.39739">
        <ele>960.2</ele>
      </trkpt>
      <trkpt lat="44.83066" lon="5.3972">
        <ele>960.1</ele>
      </trkpt>
      <trkpt lat="44.83079" lon="5.39704">
        <ele>956.3</ele>
      </trkpt>
      <trkpt lat="44.83107" lon="5.39674">
        <ele>965.6</ele>
      </trkpt>
      <trkpt lat="44.83134" lon="5.39653">
        <ele>951.5</ele>
      </trkpt>
      <trkpt lat="44.83135" lon="5.39653">
        <ele>951.8</ele>
      </trkpt>
      <trkpt lat="44.83143" lon="5.39647">
        <ele>952.8</ele>
      </trkpt>
      <trkpt lat="44.83151" lon="5.39643">
        <ele>953.6</ele>
      </trkpt>
      <trkpt lat="44.83152" lon="5.39642">
        <ele>953.5</ele>
      </trkpt>
      <trkpt lat="44.83167" lon="5.39634">
        <ele>968.1</ele>
      </trkpt>
      <trkpt lat="44.83178" lon="5.39621">
        <ele>966.1</ele>
      </trkpt>
      <trkpt lat="44.83181" lon="5.39616">
        <ele>965.2</ele>
      </trkpt>
      <trkpt lat="44.83182" lon="5.39612">
        <ele>964.3</ele>
      </trkpt>
      <trkpt lat="44.83222" lon="5.39557">
        <ele>957.2</ele>
      </trkpt>
      <trkpt lat="44.83234" lon="5.39537">
        <ele>957.1</ele>
      </trkpt>
      <trkpt lat="44.83237" lon="5.39526">
        <ele>956.9</ele>
      </trkpt>
      <trkpt lat="44.83239" lon="5.39521">
        <ele>957.1</ele>
      </trkpt>
      <trkpt lat="44.8324" lon="5.3951">
        <ele>957.6</ele>
      </trkpt>
      <trkpt lat="44.83238" lon="5.39493">
        <ele>959.4</ele>
      </trkpt>
      <trkpt lat="44.83234" lon="5.39485">
        <ele>959.3</ele>
      </trkpt>
      <trkpt lat="44.83224" lon="5.3947">
        <ele>959.5</ele>
      </trkpt>
      <trkpt lat="44.83217" lon="5.39464">
        <ele>959.5</ele>
      </trkpt>
      <trkpt lat="44.8321" lon="5.39461">
        <ele>959.3</ele>
      </trkpt>
      <trkpt lat="44.83203" lon="5.39459">
        <ele>959.1</ele>
      </trkpt>
      <trkpt lat="44.83189" lon="5.39459">
        <ele>958.2</ele>
      </trkpt>
      <trkpt lat="44.83176" lon="5.39456">
        <ele>958.2</ele>
      </trkpt>
      <trkpt lat="44.83114" lon="5.39437">
        <ele>949.2</ele>
      </trkpt>
      <trkpt lat="44.83101" lon="5.39434">
        <ele>949.5</ele>
      </trkpt>
      <trkpt lat="44.83094" lon="5.39431">
        <ele>950.4</ele>
      </trkpt>
      <trkpt lat="44.83077" lon="5.39421">
        <ele>948</ele>
      </trkpt>
      <trkpt lat="44.83068" lon="5.39413">
        <ele>960.3</ele>
      </trkpt>
      <trkpt lat="44.83062" lon="5.39409">
        <ele>961.6</ele>
      </trkpt>
      <trkpt lat="44.83054" lon="5.39405">
        <ele>962.4</ele>
      </trkpt>
      <trkpt lat="44.82968" lon="5.39381">
        <ele>951.9</ele>
      </trkpt>
      <trkpt lat="44.82961" lon="5.3938">
        <ele>951.6</ele>
      </trkpt>
      <trkpt lat="44.82952" lon="5.3938">
        <ele>950.6</ele>
      </trkpt>
      <trkpt lat="44.82934" lon="5.39382">
        <ele>947.9</ele>
      </trkpt>
      <trkpt lat="44.8292" lon="5.39382">
        <ele>946.6</ele>
      </trkpt>
      <trkpt lat="44.82912" lon="5.39381">
        <ele>938.4</ele>
      </trkpt>
      <trkpt lat="44.8287" lon="5.39362">
        <ele>941.6</ele>
      </trkpt>
      <trkpt lat="44.82862" lon="5.39362">
        <ele>941.2</ele>
      </trkpt>
      <trkpt lat="44.82856" lon="5.39365">
        <ele>940.3</ele>
      </trkpt>
      <trkpt lat="44.82835" lon="5.39371">
        <ele>938</ele>
      </trkpt>
      <trkpt lat="44.82823" lon="5.39372">
        <ele>928.7</ele>
      </trkpt>
      <trkpt lat="44.82814" lon="5.39371">
        <ele>928.3</ele>
      </trkpt>
      <trkpt lat="44.82805" lon="5.39367">
        <ele>928.5</ele>
      </trkpt>
      <trkpt lat="44.82804" lon="5.39366">
        <ele>928.6</ele>
      </trkpt>
      <trkpt lat="44.82792" lon="5.3936">
        <ele>928.6</ele>
      </trkpt>
      <trkpt lat="44.82784" lon="5.39355">
        <ele>928.9</ele>
      </trkpt>
      <trkpt lat="44.82772" lon="5.39352">
        <ele>929.2</ele>
      </trkpt>
      <trkpt lat="44.82762" lon="5.39346">
        <ele>931</ele>
      </trkpt>
      <trkpt lat="44.82734" lon="5.39322">
        <ele>941.9</ele>
      </trkpt>
      <trkpt lat="44.82725" lon="5.3931">
        <ele>944.2</ele>
      </trkpt>
      <trkpt lat="44.82724" lon="5.3931">
        <ele>944.2</ele>
      </trkpt>
      <trkpt lat="44.8272" lon="5.39307">
        <ele>944.5</ele>
      </trkpt>
      <trkpt lat="44.82701" lon="5.39298">
        <ele>944.5</ele>
      </trkpt>
      <trkpt lat="44.82696" lon="5.39298">
        <ele>943.9</ele>
      </trkpt>
      <trkpt lat="44.82687" lon="5.393">
        <ele>942.2</ele>
      </trkpt>
      <trkpt lat="44.82681" lon="5.39303">
        <ele>940.5</ele>
      </trkpt>
      <trkpt lat="44.82666" lon="5.3932">
        <ele>923.9</ele>
      </trkpt>
      <trkpt lat="44.82659" lon="5.3933">
        <ele>921.9</ele>
      </trkpt>
      <trkpt lat="44.82649" lon="5.39337">
        <ele>906.9</ele>
      </trkpt>
      <trkpt lat="44.82642" lon="5.39339">
        <ele>904.2</ele>
      </trkpt>
      <trkpt lat="44.82634" lon="5.39339">
        <ele>902.2</ele>
      </trkpt>
      <trkpt lat="44.82626" lon="5.39337">
        <ele>901</ele>
      </trkpt>
      <trkpt lat="44.82612" lon="5.39324">
        <ele>921.3</ele>
      </trkpt>
      <trkpt lat="44.82598" lon="5.39313">
        <ele>920.6</ele>
      </trkpt>
      <trkpt lat="44.82596" lon="5.39312">
        <ele>920.5</ele>
      </trkpt>
      <trkpt lat="44.82585" lon="5.39304">
        <ele>922.3</ele>
      </trkpt>
      <trkpt lat="44.82552" lon="5.39276">
        <ele>911.1</ele>
      </trkpt>
      <trkpt lat="44.82523" lon="5.39231">
        <ele>928.6</ele>
      </trkpt>
      <trkpt lat="44.82517" lon="5.39224">
        <ele>929.1</ele>
      </trkpt>
      <trkpt lat="44.82504" lon="5.39214">
        <ele>930.4</ele>
      </trkpt>
      <trkpt lat="44.82482" lon="5.39203">
        <ele>910.6</ele>
      </trkpt>
      <trkpt lat="44.82467" lon="5.39197">
        <ele>908.8</ele>
      </trkpt>
      <trkpt lat="44.82451" lon="5.39187">
        <ele>906.4</ele>
      </trkpt>
      <trkpt lat="44.82441" lon="5.39177">
        <ele>904.9</ele>
      </trkpt>
      <trkpt lat="44.82432" lon="5.39165">
        <ele>913.5</ele>
      </trkpt>
      <trkpt lat="44.82417" lon="5.39135">
        <ele>919.7</ele>
      </trkpt>
      <trkpt lat="44.82401" lon="5.39112">
        <ele>900.8</ele>
      </trkpt>
      <trkpt lat="44.82356" lon="5.39064">
        <ele>904.3</ele>
      </trkpt>
      <trkpt lat="44.82343" lon="5.39045">
        <ele>904.7</ele>
      </trkpt>
      <trkpt lat="44.82332" lon="5.3902">
        <ele>884.1</ele>
      </trkpt>
      <trkpt lat="44.82326" lon="5.3899">
        <ele>886.7</ele>
      </trkpt>
      <trkpt lat="44.82327" lon="5.3898">
        <ele>882.8</ele>
      </trkpt>
      <trkpt lat="44.82326" lon="5.38972">
        <ele>880.4</ele>
      </trkpt>
      <trkpt lat="44.82326" lon="5.38967">
        <ele>879.5</ele>
      </trkpt>
      <trkpt lat="44.8233" lon="5.38947">
        <ele>879.8</ele>
      </trkpt>
      <trkpt lat="44.82332" lon="5.38941">
        <ele>881.1</ele>
      </trkpt>
      <trkpt lat="44.82338" lon="5.38898">
        <ele>911</ele>
      </trkpt>
      <trkpt lat="44.82338" lon="5.38868">
        <ele>917.4</ele>
      </trkpt>
      <trkpt lat="44.82336" lon="5.38852">
        <ele>914.6</ele>
      </trkpt>
      <trkpt lat="44.8233" lon="5.38829">
        <ele>900.2</ele>
      </trkpt>
      <trkpt lat="44.82325" lon="5.38802">
        <ele>895.7</ele>
      </trkpt>
      <trkpt lat="44.82325" lon="5.38779">
        <ele>899.1</ele>
      </trkpt>
      <trkpt lat="44.82323" lon="5.38773">
        <ele>900.5</ele>
      </trkpt>
      <trkpt lat="44.82319" lon="5.38769">
        <ele>900.8</ele>
      </trkpt>
      <trkpt lat="44.82317" lon="5.38768">
        <ele>900.5</ele>
      </trkpt>
      <trkpt lat="44.82314" lon="5.38769">
        <ele>899.3</ele>
      </trkpt>
      <trkpt lat="44.82313" lon="5.38771">
        <ele>898.6</ele>
      </trkpt>
      <trkpt lat="44.82311" lon="5.38773">
        <ele>897.6</ele>
      </trkpt>
      <trkpt lat="44.82309" lon="5.38777">
        <ele>896.3</ele>
      </trkpt>
      <trkpt lat="44.82309" lon="5.38778">
        <ele>896.1</ele>
      </trkpt>
      <trkpt lat="44.82308" lon="5.3878">
        <ele>895.5</ele>
      </trkpt>
      <trkpt lat="44.82308" lon="5.38787">
        <ele>894.4</ele>
      </trkpt>
      <trkpt lat="44.82323" lon="5.38849">
        <ele>886.6</ele>
      </trkpt>
      <trkpt lat="44.82327" lon="5.38884">
        <ele>880.6</ele>
      </trkpt>
      <trkpt lat="44.82325" lon="5.3891">
        <ele>886</ele>
      </trkpt>
      <trkpt lat="44.82322" lon="5.38926">
        <ele>883.1</ele>
      </trkpt>
      <trkpt lat="44.82316" lon="5.38946">
        <ele>877.1</ele>
      </trkpt>
      <trkpt lat="44.82299" lon="5.38989">
        <ele>874.2</ele>
      </trkpt>
      <trkpt lat="44.82297" lon="5.39002">
        <ele>874.9</ele>
      </trkpt>
      <trkpt lat="44.82296" lon="5.39017">
        <ele>874</ele>
      </trkpt>
      <trkpt lat="44.82299" lon="5.39037">
        <ele>874</ele>
      </trkpt>
      <trkpt lat="44.82309" lon="5.39071">
        <ele>876.7</ele>
      </trkpt>
      <trkpt lat="44.82313" lon="5.39081">
        <ele>878.5</ele>
      </trkpt>
      <trkpt lat="44.8233" lon="5.39112">
        <ele>870</ele>
      </trkpt>
      <trkpt lat="44.82368" lon="5.39173">
        <ele>874.2</ele>
      </trkpt>
      <trkpt lat="44.82372" lon="5.39181">
        <ele>874.8</ele>
      </trkpt>
      <trkpt lat="44.82392" lon="5.39232">
        <ele>873.2</ele>
      </trkpt>
      <trkpt lat="44.82406" lon="5.39255">
        <ele>866.8</ele>
      </trkpt>
      <trkpt lat="44.82412" lon="5.39262">
        <ele>866.2</ele>
      </trkpt>
      <trkpt lat="44.82413" lon="5.39264">
        <ele>865.2</ele>
      </trkpt>
      <trkpt lat="44.82433" lon="5.39281">
        <ele>875.7</ele>
      </trkpt>
      <trkpt lat="44.82456" lon="5.39297">
        <ele>876.2</ele>
      </trkpt>
      <trkpt lat="44.82461" lon="5.39303">
        <ele>876.1</ele>
      </trkpt>
      <trkpt lat="44.82467" lon="5.39308">
        <ele>876.3</ele>
      </trkpt>
      <trkpt lat="44.82518" lon="5.39378">
        <ele>869.2</ele>
      </trkpt>
      <trkpt lat="44.82526" lon="5.39386">
        <ele>868.5</ele>
      </trkpt>
      <trkpt lat="44.82534" lon="5.39392">
        <ele>868.9</ele>
      </trkpt>
      <trkpt lat="44.82538" lon="5.39394">
        <ele>869.4</ele>
      </trkpt>
      <trkpt lat="44.82548" lon="5.39401">
        <ele>870.3</ele>
      </trkpt>
      <trkpt lat="44.82584" lon="5.39432">
        <ele>859.8</ele>
      </trkpt>
      <trkpt lat="44.82603" lon="5.39444">
        <ele>852.7</ele>
      </trkpt>
      <trkpt lat="44.82608" lon="5.39445">
        <ele>852.2</ele>
      </trkpt>
      <trkpt lat="44.8261" lon="5.39446">
        <ele>851.8</ele>
      </trkpt>
      <trkpt lat="44.82668" lon="5.39452">
        <ele>862.8</ele>
      </trkpt>
      <trkpt lat="44.82674" lon="5.39454">
        <ele>862</ele>
      </trkpt>
      <trkpt lat="44.82688" lon="5.39467">
        <ele>857.2</ele>
      </trkpt>
      <trkpt lat="44.82693" lon="5.3947">
        <ele>856.8</ele>
      </trkpt>
      <trkpt lat="44.82703" lon="5.39473">
        <ele>857.3</ele>
      </trkpt>
      <trkpt lat="44.82739" lon="5.3948">
        <ele>856.1</ele>
      </trkpt>
      <trkpt lat="44.82768" lon="5.3949">
        <ele>863.7</ele>
      </trkpt>
      <trkpt lat="44.82796" lon="5.39502">
        <ele>850.4</ele>
      </trkpt>
      <trkpt lat="44.82806" lon="5.3951">
        <ele>852</ele>
      </trkpt>
      <trkpt lat="44.82815" lon="5.39524">
        <ele>852</ele>
      </trkpt>
      <trkpt lat="44.82818" lon="5.39534">
        <ele>851</ele>
      </trkpt>
      <trkpt lat="44.82818" lon="5.39546">
        <ele>849.8</ele>
      </trkpt>
      <trkpt lat="44.82814" lon="5.39559">
        <ele>848.8</ele>
      </trkpt>
      <trkpt lat="44.82812" lon="5.39562">
        <ele>848.5</ele>
      </trkpt>
      <trkpt lat="44.82805" lon="5.3957">
        <ele>847.5</ele>
      </trkpt>
      <trkpt lat="44.82794" lon="5.39579">
        <ele>845.4</ele>
      </trkpt>
      <trkpt lat="44.82792" lon="5.3958">
        <ele>845</ele>
      </trkpt>
      <trkpt lat="44.82782" lon="5.39588">
        <ele>847.3</ele>
      </trkpt>
      <trkpt lat="44.82735" lon="5.39633">
        <ele>832.4</ele>
      </trkpt>
      <trkpt lat="44.82721" lon="5.39645">
        <ele>832.1</ele>
      </trkpt>
      <trkpt lat="44.82659" lon="5.39689">
        <ele>822.9</ele>
      </trkpt>
      <trkpt lat="44.82644" lon="5.39705">
        <ele>823.1</ele>
      </trkpt>
      <trkpt lat="44.82628" lon="5.39731">
        <ele>824.1</ele>
      </trkpt>
      <trkpt lat="44.8262" lon="5.39741">
        <ele>823.1</ele>
      </trkpt>
      <trkpt lat="44.82608" lon="5.39751">
        <ele>829</ele>
      </trkpt>
      <trkpt lat="44.82599" lon="5.39756">
        <ele>826</ele>
      </trkpt>
      <trkpt lat="44.82592" lon="5.39762">
        <ele>824.9</ele>
      </trkpt>
      <trkpt lat="44.82582" lon="5.39776">
        <ele>808.3</ele>
      </trkpt>
      <trkpt lat="44.82575" lon="5.39784">
        <ele>806.9</ele>
      </trkpt>
      <trkpt lat="44.8257" lon="5.39787">
        <ele>806.2</ele>
      </trkpt>
      <trkpt lat="44.82564" lon="5.39787">
        <ele>805.3</ele>
      </trkpt>
      <trkpt lat="44.82562" lon="5.39785">
        <ele>805</ele>
      </trkpt>
      <trkpt lat="44.82559" lon="5.39779">
        <ele>804.7</ele>
      </trkpt>
      <trkpt lat="44.82559" lon="5.39767">
        <ele>805.5</ele>
      </trkpt>
      <trkpt lat="44.8256" lon="5.39764">
        <ele>806</ele>
      </trkpt>
      <trkpt lat="44.82562" lon="5.39761">
        <ele>806.8</ele>
      </trkpt>
      <trkpt lat="44.82563" lon="5.39758">
        <ele>807.4</ele>
      </trkpt>
      <trkpt lat="44.82575" lon="5.39751">
        <ele>812.4</ele>
      </trkpt>
      <trkpt lat="44.82579" lon="5.3975">
        <ele>812.6</ele>
      </trkpt>
      <trkpt lat="44.82592" lon="5.39745">
        <ele>818.2</ele>
      </trkpt>
      <trkpt lat="44.82605" lon="5.39734">
        <ele>819.7</ele>
      </trkpt>
      <trkpt lat="44.8262" lon="5.39712">
        <ele>819.8</ele>
      </trkpt>
      <trkpt lat="44.82636" lon="5.39681">
        <ele>819.2</ele>
      </trkpt>
      <trkpt lat="44.82667" lon="5.3964">
        <ele>824</ele>
      </trkpt>
      <trkpt lat="44.82702" lon="5.39612">
        <ele>824.2</ele>
      </trkpt>
      <trkpt lat="44.82716" lon="5.39597">
        <ele>825.4</ele>
      </trkpt>
      <trkpt lat="44.82721" lon="5.39588">
        <ele>825.9</ele>
      </trkpt>
      <trkpt lat="44.82724" lon="5.39581">
        <ele>825.5</ele>
      </trkpt>
      <trkpt lat="44.82726" lon="5.39567">
        <ele>826.2</ele>
      </trkpt>
      <trkpt lat="44.82725" lon="5.39563">
        <ele>826.2</ele>
      </trkpt>
      <trkpt lat="44.82725" lon="5.3956">
        <ele>826.4</ele>
      </trkpt>
      <trkpt lat="44.82721" lon="5.39552">
        <ele>826.4</ele>
      </trkpt>
      <trkpt lat="44.82715" lon="5.39543">
        <ele>826.5</ele>
      </trkpt>
      <trkpt lat="44.82708" lon="5.39535">
        <ele>826.4</ele>
      </trkpt>
      <trkpt lat="44.82694" lon="5.39526">
        <ele>825.7</ele>
      </trkpt>
      <trkpt lat="44.8267" lon="5.39516">
        <ele>825.2</ele>
      </trkpt>
      <trkpt lat="44.8264" lon="5.39513">
        <ele>811.8</ele>
      </trkpt>
      <trkpt lat="44.82619" lon="5.39509">
        <ele>809</ele>
      </trkpt>
      <trkpt lat="44.82597" lon="5.39507">
        <ele>809.3</ele>
      </trkpt>
      <trkpt lat="44.82583" lon="5.39504">
        <ele>808.8</ele>
      </trkpt>
      <trkpt lat="44.82575" lon="5.39501">
        <ele>805.2</ele>
      </trkpt>
      <trkpt lat="44.8256" lon="5.39498">
        <ele>822.2</ele>
      </trkpt>
      <trkpt lat="44.82549" lon="5.39499">
        <ele>822.5</ele>
      </trkpt>
      <trkpt lat="44.82536" lon="5.39499">
        <ele>820.9</ele>
      </trkpt>
      <trkpt lat="44.82525" lon="5.39501">
        <ele>791.9</ele>
      </trkpt>
      <trkpt lat="44.82511" lon="5.39501">
        <ele>794.1</ele>
      </trkpt>
      <trkpt lat="44.82489" lon="5.39495">
        <ele>802.6</ele>
      </trkpt>
      <trkpt lat="44.82453" lon="5.3948">
        <ele>803.1</ele>
      </trkpt>
      <trkpt lat="44.82439" lon="5.3947">
        <ele>802.9</ele>
      </trkpt>
      <trkpt lat="44.82423" lon="5.39455">
        <ele>805.9</ele>
      </trkpt>
      <trkpt lat="44.82412" lon="5.39448">
        <ele>795.1</ele>
      </trkpt>
      <trkpt lat="44.82403" lon="5.39445">
        <ele>795.3</ele>
      </trkpt>
      <trkpt lat="44.8239" lon="5.39444">
        <ele>793.4</ele>
      </trkpt>
      <trkpt lat="44.82339" lon="5.39433">
        <ele>791.6</ele>
      </trkpt>
      <trkpt lat="44.82313" lon="5.39424">
        <ele>781.1</ele>
      </trkpt>
      <trkpt lat="44.82301" lon="5.39417">
        <ele>777.8</ele>
      </trkpt>
      <trkpt lat="44.8229" lon="5.39408">
        <ele>792.1</ele>
      </trkpt>
      <trkpt lat="44.82279" lon="5.39397">
        <ele>790.9</ele>
      </trkpt>
      <trkpt lat="44.8226" lon="5.39372">
        <ele>792.4</ele>
      </trkpt>
      <trkpt lat="44.8225" lon="5.39362">
        <ele>776.6</ele>
      </trkpt>
      <trkpt lat="44.82237" lon="5.39352">
        <ele>777.8</ele>
      </trkpt>
      <trkpt lat="44.82227" lon="5.39343">
        <ele>776.6</ele>
      </trkpt>
      <trkpt lat="44.82219" lon="5.39334">
        <ele>774.4</ele>
      </trkpt>
      <trkpt lat="44.82211" lon="5.39321">
        <ele>781.8</ele>
      </trkpt>
      <trkpt lat="44.82181" lon="5.39251">
        <ele>777.8</ele>
      </trkpt>
      <trkpt lat="44.8218" lon="5.39246">
        <ele>786</ele>
      </trkpt>
      <trkpt lat="44.82168" lon="5.39212">
        <ele>796.2</ele>
      </trkpt>
      <trkpt lat="44.82158" lon="5.39173">
        <ele>785.4</ele>
      </trkpt>
      <trkpt lat="44.82157" lon="5.39171">
        <ele>785.5</ele>
      </trkpt>
      <trkpt lat="44.82155" lon="5.39169">
        <ele>784.4</ele>
      </trkpt>
      <trkpt lat="44.82153" lon="5.39168">
        <ele>783</ele>
      </trkpt>
      <trkpt lat="44.82152" lon="5.39168">
        <ele>782.3</ele>
      </trkpt>
      <trkpt lat="44.82151" lon="5.39167">
        <ele>781.6</ele>
      </trkpt>
      <trkpt lat="44.82147" lon="5.39169">
        <ele>778.7</ele>
      </trkpt>
      <trkpt lat="44.82146" lon="5.3917">
        <ele>778</ele>
      </trkpt>
      <trkpt lat="44.82143" lon="5.39176">
        <ele>775.4</ele>
      </trkpt>
      <trkpt lat="44.82143" lon="5.39182">
        <ele>774.1</ele>
      </trkpt>
      <trkpt lat="44.82145" lon="5.3919">
        <ele>772.8</ele>
      </trkpt>
      <trkpt lat="44.82148" lon="5.39195">
        <ele>772.4</ele>
      </trkpt>
      <trkpt lat="44.82157" lon="5.39215">
        <ele>769.8</ele>
      </trkpt>
      <trkpt lat="44.82175" lon="5.39279">
        <ele>778.3</ele>
      </trkpt>
      <trkpt lat="44.82185" lon="5.39339">
        <ele>764.5</ele>
      </trkpt>
      <trkpt lat="44.82191" lon="5.39361">
        <ele>766.3</ele>
      </trkpt>
      <trkpt lat="44.822" lon="5.39382">
        <ele>766.6</ele>
      </trkpt>
      <trkpt lat="44.82207" lon="5.39393">
        <ele>766.9</ele>
      </trkpt>
      <trkpt lat="44.82226" lon="5.39417">
        <ele>760.7</ele>
      </trkpt>
      <trkpt lat="44.82253" lon="5.39446">
        <ele>769</ele>
      </trkpt>
      <trkpt lat="44.82273" lon="5.39463">
        <ele>767.1</ele>
      </trkpt>
      <trkpt lat="44.82304" lon="5.39484">
        <ele>767.1</ele>
      </trkpt>
      <trkpt lat="44.82331" lon="5.39497">
        <ele>764.1</ele>
      </trkpt>
      <trkpt lat="44.82373" lon="5.39509">
        <ele>756.1</ele>
      </trkpt>
      <trkpt lat="44.82382" lon="5.39509">
        <ele>757.4</ele>
      </trkpt>
      <trkpt lat="44.82389" lon="5.39508">
        <ele>759.2</ele>
      </trkpt>
      <trkpt lat="44.82395" lon="5.39508">
        <ele>761.2</ele>
      </trkpt>
      <trkpt lat="44.82399" lon="5.3951">
        <ele>762.2</ele>
      </trkpt>
      <trkpt lat="44.82401" lon="5.39512">
        <ele>762.2</ele>
      </trkpt>
      <trkpt lat="44.82404" lon="5.39514">
        <ele>762.5</ele>
      </trkpt>
      <trkpt lat="44.82405" lon="5.39517">
        <ele>761.4</ele>
      </trkpt>
      <trkpt lat="44.82405" lon="5.39521">
        <ele>759.5</ele>
      </trkpt>
      <trkpt lat="44.82406" lon="5.39523">
        <ele>758.7</ele>
      </trkpt>
      <trkpt lat="44.82406" lon="5.39528">
        <ele>756.5</ele>
      </trkpt>
      <trkpt lat="44.82405" lon="5.39529">
        <ele>755.9</ele>
      </trkpt>
      <trkpt lat="44.82405" lon="5.3953">
        <ele>755.5</ele>
      </trkpt>
      <trkpt lat="44.82404" lon="5.39531">
        <ele>755</ele>
      </trkpt>
      <trkpt lat="44.82386" lon="5.3953">
        <ele>753.2</ele>
      </trkpt>
      <trkpt lat="44.82334" lon="5.39524">
        <ele>753.3</ele>
      </trkpt>
      <trkpt lat="44.82306" lon="5.39512">
        <ele>745.3</ele>
      </trkpt>
      <trkpt lat="44.8229" lon="5.39507">
        <ele>743</ele>
      </trkpt>
      <trkpt lat="44.82278" lon="5.39502">
        <ele>742.8</ele>
      </trkpt>
      <trkpt lat="44.82262" lon="5.39501">
        <ele>744.2</ele>
      </trkpt>
      <trkpt lat="44.82235" lon="5.39497">
        <ele>750.1</ele>
      </trkpt>
      <trkpt lat="44.82221" lon="5.39496">
        <ele>750.4</ele>
      </trkpt>
      <trkpt lat="44.82211" lon="5.39497">
        <ele>749.9</ele>
      </trkpt>
      <trkpt lat="44.82202" lon="5.39499">
        <ele>749</ele>
      </trkpt>
      <trkpt lat="44.82158" lon="5.39521">
        <ele>730.2</ele>
      </trkpt>
      <trkpt lat="44.82105" lon="5.39556">
        <ele>723.5</ele>
      </trkpt>
      <trkpt lat="44.82095" lon="5.3956">
        <ele>722.9</ele>
      </trkpt>
      <trkpt lat="44.82086" lon="5.39561">
        <ele>722.7</ele>
      </trkpt>
      <trkpt lat="44.82077" lon="5.39561">
        <ele>719.3</ele>
      </trkpt>
      <trkpt lat="44.82064" lon="5.39558">
        <ele>718.9</ele>
      </trkpt>
      <trkpt lat="44.82045" lon="5.39549">
        <ele>718.1</ele>
      </trkpt>
      <trkpt lat="44.82034" lon="5.39542">
        <ele>717.5</ele>
      </trkpt>
      <trkpt lat="44.82025" lon="5.39533">
        <ele>717.3</ele>
      </trkpt>
      <trkpt lat="44.82022" lon="5.39529">
        <ele>717.2</ele>
      </trkpt>
      <trkpt lat="44.8202" lon="5.39524">
        <ele>717.3</ele>
      </trkpt>
      <trkpt lat="44.82018" lon="5.39515">
        <ele>717.2</ele>
      </trkpt>
      <trkpt lat="44.82017" lon="5.39506">
        <ele>717.1</ele>
      </trkpt>
      <trkpt lat="44.82018" lon="5.39496">
        <ele>717.3</ele>
      </trkpt>
      <trkpt lat="44.82022" lon="5.39477">
        <ele>717.6</ele>
      </trkpt>
      <trkpt lat="44.82036" lon="5.39456">
        <ele>717.9</ele>
      </trkpt>
      <trkpt lat="44.82057" lon="5.39438">
        <ele>719.8</ele>
      </trkpt>
      <trkpt lat="44.82057" lon="5.39437">
        <ele>719.8</ele>
      </trkpt>
      <trkpt lat="44.82063" lon="5.39431">
        <ele>720.6</ele>
      </trkpt>
      <trkpt lat="44.82068" lon="5.39423">
        <ele>721.6</ele>
      </trkpt>
      <trkpt lat="44.82072" lon="5.39414">
        <ele>719.9</ele>
      </trkpt>
      <trkpt lat="44.82079" lon="5.39392">
        <ele>717.2</ele>
      </trkpt>
      <trkpt lat="44.82079" lon="5.3939">
        <ele>716.9</ele>
      </trkpt>
      <trkpt lat="44.82082" lon="5.39371">
        <ele>716</ele>
      </trkpt>
      <trkpt lat="44.82082" lon="5.3936">
        <ele>716.5</ele>
      </trkpt>
      <trkpt lat="44.8208" lon="5.39347">
        <ele>718.2</ele>
      </trkpt>
      <trkpt lat="44.82072" lon="5.39315">
        <ele>718.9</ele>
      </trkpt>
      <trkpt lat="44.82065" lon="5.39294">
        <ele>718.7</ele>
      </trkpt>
      <trkpt lat="44.82056" lon="5.39278">
        <ele>718.9</ele>
      </trkpt>
      <trkpt lat="44.82043" lon="5.39263">
        <ele>717.2</ele>
      </trkpt>
      <trkpt lat="44.82022" lon="5.3925">
        <ele>712</ele>
      </trkpt>
      <trkpt lat="44.82003" lon="5.39233">
        <ele>717.1</ele>
      </trkpt>
      <trkpt lat="44.82002" lon="5.39229">
        <ele>718.7</ele>
      </trkpt>
      <trkpt lat="44.8199" lon="5.39201">
        <ele>718</ele>
      </trkpt>
      <trkpt lat="44.8198" lon="5.39182">
        <ele>721.1</ele>
      </trkpt>
      <trkpt lat="44.81973" lon="5.39176">
        <ele>721.6</ele>
      </trkpt>
      <trkpt lat="44.81966" lon="5.39174">
        <ele>721.9</ele>
      </trkpt>
      <trkpt lat="44.81961" lon="5.39174">
        <ele>722.3</ele>
      </trkpt>
      <trkpt lat="44.81958" lon="5.39175">
        <ele>722.4</ele>
      </trkpt>
      <trkpt lat="44.81952" lon="5.39179">
        <ele>722.7</ele>
      </trkpt>
      <trkpt lat="44.81946" lon="5.39185">
        <ele>722.5</ele>
      </trkpt>
      <trkpt lat="44.81912" lon="5.39229">
        <ele>711.4</ele>
      </trkpt>
      <trkpt lat="44.81911" lon="5.39231">
        <ele>710.5</ele>
      </trkpt>
      <trkpt lat="44.81898" lon="5.39246">
        <ele>708.9</ele>
      </trkpt>
      <trkpt lat="44.81889" lon="5.39254">
        <ele>692.1</ele>
      </trkpt>
      <trkpt lat="44.81872" lon="5.39265">
        <ele>691.4</ele>
      </trkpt>
      <trkpt lat="44.81865" lon="5.39268">
        <ele>691.5</ele>
      </trkpt>
      <trkpt lat="44.81852" lon="5.39269">
        <ele>692.7</ele>
      </trkpt>
      <trkpt lat="44.8183" lon="5.39269">
        <ele>693.2</ele>
      </trkpt>
      <trkpt lat="44.81828" lon="5.39268">
        <ele>693.4</ele>
      </trkpt>
      <trkpt lat="44.81812" lon="5.39266">
        <ele>691.4</ele>
      </trkpt>
      <trkpt lat="44.81806" lon="5.39266">
        <ele>690.5</ele>
      </trkpt>
      <trkpt lat="44.81786" lon="5.39261">
        <ele>689.4</ele>
      </trkpt>
      <trkpt lat="44.81769" lon="5.39255">
        <ele>690.4</ele>
      </trkpt>
      <trkpt lat="44.8172" lon="5.39246">
        <ele>702.6</ele>
      </trkpt>
      <trkpt lat="44.81653" lon="5.39225">
        <ele>698.7</ele>
      </trkpt>
      <trkpt lat="44.81632" lon="5.3922">
        <ele>701</ele>
      </trkpt>
      <trkpt lat="44.81617" lon="5.39218">
        <ele>701.3</ele>
      </trkpt>
      <trkpt lat="44.81616" lon="5.39217">
        <ele>701.5</ele>
      </trkpt>
      <trkpt lat="44.81599" lon="5.39217">
        <ele>700.8</ele>
      </trkpt>
      <trkpt lat="44.81588" lon="5.39216">
        <ele>700.7</ele>
      </trkpt>
      <trkpt lat="44.8155" lon="5.39221">
        <ele>699.9</ele>
      </trkpt>
      <trkpt lat="44.814" lon="5.39262">
        <ele>664.6</ele>
      </trkpt>
      <trkpt lat="44.8139" lon="5.39263">
        <ele>661.7</ele>
      </trkpt>
      <trkpt lat="44.81382" lon="5.39261">
        <ele>660.5</ele>
      </trkpt>
      <trkpt lat="44.81375" lon="5.39257">
        <ele>660</ele>
      </trkpt>
      <trkpt lat="44.8137" lon="5.39252">
        <ele>660</ele>
      </trkpt>
      <trkpt lat="44.81361" lon="5.39236">
        <ele>676.8</ele>
      </trkpt>
      <trkpt lat="44.81358" lon="5.39226">
        <ele>677.9</ele>
      </trkpt>
      <trkpt lat="44.81354" lon="5.39219">
        <ele>678.8</ele>
      </trkpt>
      <trkpt lat="44.81349" lon="5.39214">
        <ele>679.4</ele>
      </trkpt>
      <trkpt lat="44.81348" lon="5.39214">
        <ele>679.3</ele>
      </trkpt>
      <trkpt lat="44.81347" lon="5.39213">
        <ele>679.4</ele>
      </trkpt>
      <trkpt lat="44.81337" lon="5.39211">
        <ele>679.3</ele>
      </trkpt>
      <trkpt lat="44.81331" lon="5.39211">
        <ele>683.3</ele>
      </trkpt>
      <trkpt lat="44.8133" lon="5.39212">
        <ele>683.2</ele>
      </trkpt>
      <trkpt lat="44.81329" lon="5.39212">
        <ele>683.2</ele>
      </trkpt>
      <trkpt lat="44.81326" lon="5.39215">
        <ele>682.7</ele>
      </trkpt>
      <trkpt lat="44.81319" lon="5.3922">
        <ele>682.2</ele>
      </trkpt>
      <trkpt lat="44.81256" lon="5.39313">
        <ele>661.1</ele>
      </trkpt>
      <trkpt lat="44.81242" lon="5.39343">
        <ele>658.5</ele>
      </trkpt>
      <trkpt lat="44.81234" lon="5.3938">
        <ele>656.1</ele>
      </trkpt>
      <trkpt lat="44.81232" lon="5.39394">
        <ele>654.2</ele>
      </trkpt>
      <trkpt lat="44.81228" lon="5.39406">
        <ele>653</ele>
      </trkpt>
      <trkpt lat="44.81216" lon="5.39427">
        <ele>643.7</ele>
      </trkpt>
      <trkpt lat="44.81207" lon="5.39435">
        <ele>643.8</ele>
      </trkpt>
      <trkpt lat="44.81199" lon="5.3944">
        <ele>644</ele>
      </trkpt>
      <trkpt lat="44.81198" lon="5.39441">
        <ele>644</ele>
      </trkpt>
      <trkpt lat="44.8119" lon="5.39442">
        <ele>644.5</ele>
      </trkpt>
      <trkpt lat="44.81182" lon="5.39442">
        <ele>645.2</ele>
      </trkpt>
      <trkpt lat="44.81173" lon="5.39441">
        <ele>646.1</ele>
      </trkpt>
      <trkpt lat="44.81167" lon="5.39439">
        <ele>646.8</ele>
      </trkpt>
      <trkpt lat="44.81085" lon="5.39396">
        <ele>654.3</ele>
      </trkpt>
      <trkpt lat="44.81065" lon="5.39382">
        <ele>653.5</ele>
      </trkpt>
      <trkpt lat="44.81057" lon="5.39379">
        <ele>653.9</ele>
      </trkpt>
      <trkpt lat="44.81041" lon="5.39375">
        <ele>654</ele>
      </trkpt>
      <trkpt lat="44.8098" lon="5.39372">
        <ele>645.6</ele>
      </trkpt>
      <trkpt lat="44.80965" lon="5.3937">
        <ele>645</ele>
      </trkpt>
      <trkpt lat="44.80949" lon="5.39366">
        <ele>645</ele>
      </trkpt>
      <trkpt lat="44.8092" lon="5.39356">
        <ele>648.5</ele>
      </trkpt>
      <trkpt lat="44.80886" lon="5.39342">
        <ele>638.8</ele>
      </trkpt>
      <trkpt lat="44.80877" lon="5.3934">
        <ele>637.2</ele>
      </trkpt>
      <trkpt lat="44.80868" lon="5.39339">
        <ele>636.2</ele>
      </trkpt>
      <trkpt lat="44.80854" lon="5.39339">
        <ele>636.3</ele>
      </trkpt>
      <trkpt lat="44.8085" lon="5.3934">
        <ele>636.6</ele>
      </trkpt>
      <trkpt lat="44.80832" lon="5.3934">
        <ele>635.4</ele>
      </trkpt>
      <trkpt lat="44.8083" lon="5.39339">
        <ele>635.6</ele>
      </trkpt>
      <trkpt lat="44.80823" lon="5.39338">
        <ele>631.7</ele>
      </trkpt>
      <trkpt lat="44.80814" lon="5.39333">
        <ele>648.6</ele>
      </trkpt>
      <trkpt lat="44.80783" lon="5.3931">
        <ele>650</ele>
      </trkpt>
      <trkpt lat="44.80773" lon="5.39305">
        <ele>649.6</ele>
      </trkpt>
      <trkpt lat="44.80765" lon="5.393">
        <ele>650.1</ele>
      </trkpt>
      <trkpt lat="44.80748" lon="5.39297">
        <ele>632.5</ele>
      </trkpt>
      <trkpt lat="44.80745" lon="5.39296">
        <ele>632.6</ele>
      </trkpt>
      <trkpt lat="44.8073" lon="5.39296">
        <ele>630.8</ele>
      </trkpt>
      <trkpt lat="44.80713" lon="5.39298">
        <ele>627.4</ele>
      </trkpt>
      <trkpt lat="44.80703" lon="5.39298">
        <ele>625.3</ele>
      </trkpt>
      <trkpt lat="44.80696" lon="5.39296">
        <ele>624.3</ele>
      </trkpt>
      <trkpt lat="44.8069" lon="5.39291">
        <ele>624.2</ele>
      </trkpt>
      <trkpt lat="44.80684" lon="5.39283">
        <ele>624.7</ele>
      </trkpt>
      <trkpt lat="44.80673" lon="5.39256">
        <ele>624.6</ele>
      </trkpt>
      <trkpt lat="44.80672" lon="5.39252">
        <ele>624.2</ele>
      </trkpt>
      <trkpt lat="44.80666" lon="5.39237">
        <ele>616.7</ele>
      </trkpt>
      <trkpt lat="44.80665" lon="5.39233">
        <ele>615.5</ele>
      </trkpt>
      <trkpt lat="44.80657" lon="5.39215">
        <ele>612.4</ele>
      </trkpt>
      <trkpt lat="44.80655" lon="5.39212">
        <ele>612.1</ele>
      </trkpt>
      <trkpt lat="44.80654" lon="5.39209">
        <ele>612.1</ele>
      </trkpt>
      <trkpt lat="44.80653" lon="5.39202">
        <ele>612.5</ele>
      </trkpt>
      <trkpt lat="44.8065" lon="5.3919">
        <ele>613.7</ele>
      </trkpt>
      <trkpt lat="44.80648" lon="5.39164">
        <ele>620.7</ele>
      </trkpt>
      <trkpt lat="44.80647" lon="5.39162">
        <ele>620.3</ele>
      </trkpt>
      <trkpt lat="44.80646" lon="5.3915">
        <ele>619.2</ele>
      </trkpt>
      <trkpt lat="44.80643" lon="5.39137">
        <ele>618</ele>
      </trkpt>
      <trkpt lat="44.80642" lon="5.39115">
        <ele>618.4</ele>
      </trkpt>
      <trkpt lat="44.80643" lon="5.39113">
        <ele>618.6</ele>
      </trkpt>
      <trkpt lat="44.80644" lon="5.39107">
        <ele>619.1</ele>
      </trkpt>
      <trkpt lat="44.80647" lon="5.39097">
        <ele>620.4</ele>
      </trkpt>
      <trkpt lat="44.80656" lon="5.39074">
        <ele>628.6</ele>
      </trkpt>
      <trkpt lat="44.80659" lon="5.39062">
        <ele>629.7</ele>
      </trkpt>
      <trkpt lat="44.80659" lon="5.39052">
        <ele>630.9</ele>
      </trkpt>
      <trkpt lat="44.80656" lon="5.39037">
        <ele>632.8</ele>
      </trkpt>
      <trkpt lat="44.80655" lon="5.39035">
        <ele>633</ele>
      </trkpt>
      <trkpt lat="44.80646" lon="5.3903">
        <ele>633.4</ele>
      </trkpt>
      <trkpt lat="44.8064" lon="5.3903">
        <ele>633.1</ele>
      </trkpt>
      <trkpt lat="44.80625" lon="5.39036">
        <ele>631.9</ele>
      </trkpt>
      <trkpt lat="44.80623" lon="5.39036">
        <ele>631.9</ele>
      </trkpt>
      <trkpt lat="44.80581" lon="5.39059">
        <ele>623.3</ele>
      </trkpt>
      <trkpt lat="44.8054" lon="5.39091">
        <ele>606.1</ele>
      </trkpt>
      <trkpt lat="44.80521" lon="5.39102">
        <ele>605.9</ele>
      </trkpt>
      <trkpt lat="44.8051" lon="5.39106">
        <ele>605.9</ele>
      </trkpt>
      <trkpt lat="44.80485" lon="5.3911">
        <ele>600.2</ele>
      </trkpt>
      <trkpt lat="44.80453" lon="5.39111">
        <ele>596.9</ele>
      </trkpt>
      <trkpt lat="44.80416" lon="5.3911">
        <ele>588.3</ele>
      </trkpt>
      <trkpt lat="44.80405" lon="5.39108">
        <ele>587.8</ele>
      </trkpt>
      <trkpt lat="44.80397" lon="5.39105">
        <ele>587.1</ele>
      </trkpt>
      <trkpt lat="44.80386" lon="5.39099">
        <ele>585.7</ele>
      </trkpt>
      <trkpt lat="44.8038" lon="5.39092">
        <ele>585.1</ele>
      </trkpt>
      <trkpt lat="44.80335" lon="5.39026">
        <ele>594</ele>
      </trkpt>
      <trkpt lat="44.80335" lon="5.39025">
        <ele>594</ele>
      </trkpt>
      <trkpt lat="44.80331" lon="5.39018">
        <ele>582.4</ele>
      </trkpt>
      <trkpt lat="44.80321" lon="5.3898">
        <ele>586.5</ele>
      </trkpt>
      <trkpt lat="44.8032" lon="5.3898">
        <ele>586.4</ele>
      </trkpt>
      <trkpt lat="44.80312" lon="5.38968">
        <ele>585.4</ele>
      </trkpt>
      <trkpt lat="44.80304" lon="5.38962">
        <ele>584.6</ele>
      </trkpt>
      <trkpt lat="44.80289" lon="5.38948">
        <ele>583.1</ele>
      </trkpt>
      <trkpt lat="44.80283" lon="5.38941">
        <ele>582.4</ele>
      </trkpt>
      <trkpt lat="44.8028" lon="5.38935">
        <ele>582.1</ele>
      </trkpt>
      <trkpt lat="44.80279" lon="5.38934">
        <ele>581.9</ele>
      </trkpt>
      <trkpt lat="44.80263" lon="5.38889">
        <ele>586.9</ele>
      </trkpt>
      <trkpt lat="44.80259" lon="5.3888">
        <ele>587.7</ele>
      </trkpt>
      <trkpt lat="44.80228" lon="5.38827">
        <ele>576</ele>
      </trkpt>
      <trkpt lat="44.80225" lon="5.38818">
        <ele>574.9</ele>
      </trkpt>
      <trkpt lat="44.80218" lon="5.38776">
        <ele>573.1</ele>
      </trkpt>
      <trkpt lat="44.80218" lon="5.38769">
        <ele>573.2</ele>
      </trkpt>
      <trkpt lat="44.8022" lon="5.38756">
        <ele>573.8</ele>
      </trkpt>
      <trkpt lat="44.80237" lon="5.38708">
        <ele>577.1</ele>
      </trkpt>
      <trkpt lat="44.80238" lon="5.38702">
        <ele>577.4</ele>
      </trkpt>
      <trkpt lat="44.80238" lon="5.38697">
        <ele>577.7</ele>
      </trkpt>
      <trkpt lat="44.80236" lon="5.38691">
        <ele>578</ele>
      </trkpt>
      <trkpt lat="44.80236" lon="5.38689">
        <ele>578.2</ele>
      </trkpt>
      <trkpt lat="44.80232" lon="5.38685">
        <ele>578.2</ele>
      </trkpt>
      <trkpt lat="44.80231" lon="5.38685">
        <ele>578</ele>
      </trkpt>
      <trkpt lat="44.8023" lon="5.38684">
        <ele>578</ele>
      </trkpt>
      <trkpt lat="44.80229" lon="5.38684">
        <ele>577.9</ele>
      </trkpt>
      <trkpt lat="44.80225" lon="5.38683">
        <ele>577.4</ele>
      </trkpt>
      <trkpt lat="44.80216" lon="5.38683">
        <ele>576.4</ele>
      </trkpt>
      <trkpt lat="44.80177" lon="5.38691">
        <ele>572.8</ele>
      </trkpt>
      <trkpt lat="44.80169" lon="5.38691">
        <ele>572.5</ele>
      </trkpt>
      <trkpt lat="44.8016" lon="5.3869">
        <ele>565.2</ele>
      </trkpt>
      <trkpt lat="44.8016" lon="5.38689">
        <ele>565.4</ele>
      </trkpt>
      <trkpt lat="44.8015" lon="5.38686">
        <ele>564.9</ele>
      </trkpt>
      <trkpt lat="44.80131" lon="5.38676">
        <ele>563.4</ele>
      </trkpt>
      <trkpt lat="44.80099" lon="5.38653">
        <ele>568.4</ele>
      </trkpt>
      <trkpt lat="44.80079" lon="5.38635">
        <ele>561.2</ele>
      </trkpt>
      <trkpt lat="44.80027" lon="5.38581">
        <ele>564.6</ele>
      </trkpt>
      <trkpt lat="44.79939" lon="5.3848">
        <ele>553.9</ele>
      </trkpt>
      <trkpt lat="44.79926" lon="5.38458">
        <ele>554</ele>
      </trkpt>
      <trkpt lat="44.79915" lon="5.38427">
        <ele>549.3</ele>
      </trkpt>
      <trkpt lat="44.799" lon="5.38408">
        <ele>549.4</ele>
      </trkpt>
      <trkpt lat="44.79877" lon="5.38384">
        <ele>548.3</ele>
      </trkpt>
      <trkpt lat="44.79859" lon="5.38362">
        <ele>547.9</ele>
      </trkpt>
      <trkpt lat="44.7985" lon="5.38353">
        <ele>547.7</ele>
      </trkpt>
      <trkpt lat="44.79845" lon="5.38349">
        <ele>547.6</ele>
      </trkpt>
      <trkpt lat="44.79833" lon="5.38343">
        <ele>545.5</ele>
      </trkpt>
      <trkpt lat="44.7982" lon="5.38339">
        <ele>544.8</ele>
      </trkpt>
      <trkpt lat="44.79817" lon="5.38337">
        <ele>544.5</ele>
      </trkpt>
      <trkpt lat="44.79804" lon="5.38332">
        <ele>544.6</ele>
      </trkpt>
      <trkpt lat="44.79801" lon="5.3833">
        <ele>544.4</ele>
      </trkpt>
      <trkpt lat="44.79797" lon="5.38329">
        <ele>544.2</ele>
      </trkpt>
      <trkpt lat="44.79794" lon="5.38327">
        <ele>544</ele>
      </trkpt>
      <trkpt lat="44.79767" lon="5.3832">
        <ele>542.1</ele>
      </trkpt>
      <trkpt lat="44.79749" lon="5.38318">
        <ele>538.5</ele>
      </trkpt>
      <trkpt lat="44.79731" lon="5.38314">
        <ele>538</ele>
      </trkpt>
      <trkpt lat="44.79722" lon="5.38311">
        <ele>537.7</ele>
      </trkpt>
      <trkpt lat="44.79719" lon="5.38311">
        <ele>537.6</ele>
      </trkpt>
      <trkpt lat="44.79718" lon="5.3831">
        <ele>537.5</ele>
      </trkpt>
      <trkpt lat="44.79705" lon="5.38306">
        <ele>537</ele>
      </trkpt>
      <trkpt lat="44.79687" lon="5.38302">
        <ele>536.3</ele>
      </trkpt>
      <trkpt lat="44.79685" lon="5.38302">
        <ele>536.2</ele>
      </trkpt>
      <trkpt lat="44.79683" lon="5.38301">
        <ele>536.2</ele>
      </trkpt>
      <trkpt lat="44.79675" lon="5.38299">
        <ele>536</ele>
      </trkpt>
      <trkpt lat="44.79671" lon="5.38299">
        <ele>535.9</ele>
      </trkpt>
      <trkpt lat="44.79668" lon="5.38298">
        <ele>535.9</ele>
      </trkpt>
      <trkpt lat="44.79667" lon="5.38298">
        <ele>535.9</ele>
      </trkpt>
      <trkpt lat="44.79655" lon="5.38295">
        <ele>532.2</ele>
      </trkpt>
      <trkpt lat="44.7965" lon="5.38295">
        <ele>532.1</ele>
      </trkpt>
      <trkpt lat="44.79645" lon="5.38294">
        <ele>532</ele>
      </trkpt>
      <trkpt lat="44.7964" lon="5.38294">
        <ele>531.9</ele>
      </trkpt>
      <trkpt lat="44.79635" lon="5.38293">
        <ele>531.8</ele>
      </trkpt>
      <trkpt lat="44.79614" lon="5.38293">
        <ele>531.2</ele>
      </trkpt>
      <trkpt lat="44.79608" lon="5.38294">
        <ele>531</ele>
      </trkpt>
      <trkpt lat="44.79602" lon="5.38294">
        <ele>530.8</ele>
      </trkpt>
      <trkpt lat="44.79596" lon="5.38295">
        <ele>530.7</ele>
      </trkpt>
      <trkpt lat="44.7959" lon="5.38295">
        <ele>530.6</ele>
      </trkpt>
      <trkpt lat="44.79578" lon="5.38297">
        <ele>531.9</ele>
      </trkpt>
      <trkpt lat="44.79573" lon="5.38297">
        <ele>532</ele>
      </trkpt>
      <trkpt lat="44.79561" lon="5.38299">
        <ele>532.5</ele>
      </trkpt>
      <trkpt lat="44.79543" lon="5.383">
        <ele>533.5</ele>
      </trkpt>
      <trkpt lat="44.79537" lon="5.38299">
        <ele>533.8</ele>
      </trkpt>
      <trkpt lat="44.79534" lon="5.38298">
        <ele>534</ele>
      </trkpt>
      <trkpt lat="44.79524" lon="5.38291">
        <ele>534.4</ele>
      </trkpt>
      <trkpt lat="44.79516" lon="5.3828">
        <ele>534.7</ele>
      </trkpt>
      <trkpt lat="44.7951" lon="5.38265">
        <ele>535.3</ele>
      </trkpt>
      <trkpt lat="44.79503" lon="5.38239">
        <ele>534.9</ele>
      </trkpt>
      <trkpt lat="44.79493" lon="5.38211">
        <ele>540.2</ele>
      </trkpt>
      <trkpt lat="44.79474" lon="5.3817">
        <ele>539</ele>
      </trkpt>
      <trkpt lat="44.79464" lon="5.38143">
        <ele>535.6</ele>
      </trkpt>
      <trkpt lat="44.79438" lon="5.38054">
        <ele>531.2</ele>
      </trkpt>
      <trkpt lat="44.79434" lon="5.38043">
        <ele>530.8</ele>
      </trkpt>
      <trkpt lat="44.79423" lon="5.37999">
        <ele>530.8</ele>
      </trkpt>
      <trkpt lat="44.79419" lon="5.37976">
        <ele>529.2</ele>
      </trkpt>
      <trkpt lat="44.79416" lon="5.37941">
        <ele>538.7</ele>
      </trkpt>
      <trkpt lat="44.79417" lon="5.37883">
        <ele>530.2</ele>
      </trkpt>
      <trkpt lat="44.79418" lon="5.37872">
        <ele>530.3</ele>
      </trkpt>
      <trkpt lat="44.79418" lon="5.37802">
        <ele>529.8</ele>
      </trkpt>
      <trkpt lat="44.79417" lon="5.3779">
        <ele>529.2</ele>
      </trkpt>
      <trkpt lat="44.79412" lon="5.37758">
        <ele>535.2</ele>
      </trkpt>
      <trkpt lat="44.7941" lon="5.37737">
        <ele>536.1</ele>
      </trkpt>
      <trkpt lat="44.79406" lon="5.37717">
        <ele>538.6</ele>
      </trkpt>
      <trkpt lat="44.79397" lon="5.37687">
        <ele>538.3</ele>
      </trkpt>
      <trkpt lat="44.7939" lon="5.37668">
        <ele>538.7</ele>
      </trkpt>
      <trkpt lat="44.79381" lon="5.37637">
        <ele>539.3</ele>
      </trkpt>
      <trkpt lat="44.79362" lon="5.37537">
        <ele>538.2</ele>
      </trkpt>
      <trkpt lat="44.79361" lon="5.37526">
        <ele>538.5</ele>
      </trkpt>
      <trkpt lat="44.79359" lon="5.37518">
        <ele>539.1</ele>
      </trkpt>
      <trkpt lat="44.79359" lon="5.37515">
        <ele>539.3</ele>
      </trkpt>
      <trkpt lat="44.79357" lon="5.37504">
        <ele>540.2</ele>
      </trkpt>
      <trkpt lat="44.79356" lon="5.37493">
        <ele>539</ele>
      </trkpt>
      <trkpt lat="44.79355" lon="5.37492">
        <ele>539.2</ele>
      </trkpt>
      <trkpt lat="44.79351" lon="5.37447">
        <ele>537.9</ele>
      </trkpt>
      <trkpt lat="44.79351" lon="5.37424">
        <ele>540.3</ele>
      </trkpt>
      <trkpt lat="44.7935" lon="5.37413">
        <ele>539.9</ele>
      </trkpt>
      <trkpt lat="44.7935" lon="5.37401">
        <ele>538.3</ele>
      </trkpt>
      <trkpt lat="44.79346" lon="5.37355">
        <ele>537.2</ele>
      </trkpt>
      <trkpt lat="44.79326" lon="5.37244">
        <ele>544</ele>
      </trkpt>
      <trkpt lat="44.79325" lon="5.37243">
        <ele>544.4</ele>
      </trkpt>
      <trkpt lat="44.79308" lon="5.37169">
        <ele>543.5</ele>
      </trkpt>
      <trkpt lat="44.79302" lon="5.37149">
        <ele>537.9</ele>
      </trkpt>
      <trkpt lat="44.79281" lon="5.37103">
        <ele>538.6</ele>
      </trkpt>
      <trkpt lat="44.79271" lon="5.37087">
        <ele>540</ele>
      </trkpt>
      <trkpt lat="44.79271" lon="5.37086">
        <ele>540</ele>
      </trkpt>
      <trkpt lat="44.79262" lon="5.37069">
        <ele>534.6</ele>
      </trkpt>
      <trkpt lat="44.7926" lon="5.37067">
        <ele>534.5</ele>
      </trkpt>
      <trkpt lat="44.79257" lon="5.37061">
        <ele>533.4</ele>
      </trkpt>
      <trkpt lat="44.79235" lon="5.37029">
        <ele>542.6</ele>
      </trkpt>
      <trkpt lat="44.7922" lon="5.37004">
        <ele>542.3</ele>
      </trkpt>
      <trkpt lat="44.79216" lon="5.36995">
        <ele>534.1</ele>
      </trkpt>
      <trkpt lat="44.79191" lon="5.36955">
        <ele>534</ele>
      </trkpt>
      <trkpt lat="44.79173" lon="5.36934">
        <ele>533.7</ele>
      </trkpt>
      <trkpt lat="44.7916" lon="5.36922">
        <ele>539</ele>
      </trkpt>
      <trkpt lat="44.7916" lon="5.36921">
        <ele>538.8</ele>
      </trkpt>
      <trkpt lat="44.79147" lon="5.36909">
        <ele>535.2</ele>
      </trkpt>
      <trkpt lat="44.79145" lon="5.36908">
        <ele>535.3</ele>
      </trkpt>
      <trkpt lat="44.7914" lon="5.36902">
        <ele>535.6</ele>
      </trkpt>
      <trkpt lat="44.7912" lon="5.36883">
        <ele>536.6</ele>
      </trkpt>
      <trkpt lat="44.79108" lon="5.36869">
        <ele>536.6</ele>
      </trkpt>
      <trkpt lat="44.79103" lon="5.36862">
        <ele>536.4</ele>
      </trkpt>
      <trkpt lat="44.79103" lon="5.36861">
        <ele>536.4</ele>
      </trkpt>
      <trkpt lat="44.79088" lon="5.36838">
        <ele>537.3</ele>
      </trkpt>
      <trkpt lat="44.79084" lon="5.36829">
        <ele>535</ele>
      </trkpt>
      <trkpt lat="44.7908" lon="5.36822">
        <ele>538.3</ele>
      </trkpt>
      <trkpt lat="44.79079" lon="5.36821">
        <ele>538.3</ele>
      </trkpt>
      <trkpt lat="44.79069" lon="5.36802">
        <ele>537.7</ele>
      </trkpt>
      <trkpt lat="44.79065" lon="5.36796">
        <ele>537.4</ele>
      </trkpt>
      <trkpt lat="44.79058" lon="5.36782">
        <ele>536.3</ele>
      </trkpt>
      <trkpt lat="44.79056" lon="5.3678">
        <ele>536.3</ele>
      </trkpt>
      <trkpt lat="44.79035" lon="5.36741">
        <ele>526.7</ele>
      </trkpt>
      <trkpt lat="44.7903" lon="5.36734">
        <ele>527</ele>
      </trkpt>
      <trkpt lat="44.79026" lon="5.36725">
        <ele>526.5</ele>
      </trkpt>
      <trkpt lat="44.79017" lon="5.36711">
        <ele>525.4</ele>
      </trkpt>
      <trkpt lat="44.79001" lon="5.36693">
        <ele>523.7</ele>
      </trkpt>
      <trkpt lat="44.78996" lon="5.3669">
        <ele>529.9</ele>
      </trkpt>
      <trkpt lat="44.78994" lon="5.36688">
        <ele>529.5</ele>
      </trkpt>
      <trkpt lat="44.78981" lon="5.3668">
        <ele>529.6</ele>
      </trkpt>
      <trkpt lat="44.7898" lon="5.36679">
        <ele>529.6</ele>
      </trkpt>
      <trkpt lat="44.78954" lon="5.36664">
        <ele>520.9</ele>
      </trkpt>
      <trkpt lat="44.78919" lon="5.36649">
        <ele>524</ele>
      </trkpt>
      <trkpt lat="44.789" lon="5.36638">
        <ele>523.1</ele>
      </trkpt>
      <trkpt lat="44.78887" lon="5.36633">
        <ele>522</ele>
      </trkpt>
      <trkpt lat="44.78881" lon="5.36632">
        <ele>521.8</ele>
      </trkpt>
      <trkpt lat="44.78878" lon="5.36632">
        <ele>521.7</ele>
      </trkpt>
      <trkpt lat="44.78874" lon="5.36631">
        <ele>521.6</ele>
      </trkpt>
      <trkpt lat="44.78868" lon="5.36632">
        <ele>521.6</ele>
      </trkpt>
      <trkpt lat="44.78862" lon="5.36634">
        <ele>521.7</ele>
      </trkpt>
      <trkpt lat="44.78829" lon="5.36649">
        <ele>522</ele>
      </trkpt>
      <trkpt lat="44.78815" lon="5.36653">
        <ele>521.3</ele>
      </trkpt>
      <trkpt lat="44.78801" lon="5.36653">
        <ele>520</ele>
      </trkpt>
      <trkpt lat="44.78771" lon="5.36657">
        <ele>518.7</ele>
      </trkpt>
      <trkpt lat="44.78764" lon="5.36657">
        <ele>518.6</ele>
      </trkpt>
      <trkpt lat="44.78743" lon="5.36654">
        <ele>516.1</ele>
      </trkpt>
      <trkpt lat="44.78737" lon="5.36652">
        <ele>515.4</ele>
      </trkpt>
      <trkpt lat="44.7873" lon="5.36651">
        <ele>514.7</ele>
      </trkpt>
      <trkpt lat="44.78718" lon="5.36651">
        <ele>513.8</ele>
      </trkpt>
      <trkpt lat="44.78711" lon="5.36652">
        <ele>513.3</ele>
      </trkpt>
      <trkpt lat="44.78701" lon="5.36656">
        <ele>512.6</ele>
      </trkpt>
      <trkpt lat="44.787" lon="5.36657">
        <ele>512.5</ele>
      </trkpt>
      <trkpt lat="44.78694" lon="5.36661">
        <ele>512.1</ele>
      </trkpt>
      <trkpt lat="44.78689" lon="5.36666">
        <ele>511.6</ele>
      </trkpt>
      <trkpt lat="44.78675" lon="5.36687">
        <ele>518.4</ele>
      </trkpt>
      <trkpt lat="44.78653" lon="5.36729">
        <ele>512.2</ele>
      </trkpt>
      <trkpt lat="44.78642" lon="5.36745">
        <ele>511.8</ele>
      </trkpt>
      <trkpt lat="44.78626" lon="5.36763">
        <ele>520.5</ele>
      </trkpt>
      <trkpt lat="44.7861" lon="5.36776">
        <ele>518.4</ele>
      </trkpt>
      <trkpt lat="44.78609" lon="5.36776">
        <ele>518.1</ele>
      </trkpt>
      <trkpt lat="44.78602" lon="5.36781">
        <ele>517.8</ele>
      </trkpt>
      <trkpt lat="44.78572" lon="5.36799">
        <ele>504.1</ele>
      </trkpt>
      <trkpt lat="44.78564" lon="5.36802">
        <ele>503.9</ele>
      </trkpt>
      <trkpt lat="44.78549" lon="5.3681">
        <ele>502.9</ele>
      </trkpt>
      <trkpt lat="44.78543" lon="5.36814">
        <ele>502.3</ele>
      </trkpt>
      <trkpt lat="44.78537" lon="5.3682">
        <ele>501.8</ele>
      </trkpt>
      <trkpt lat="44.78527" lon="5.36834">
        <ele>514.2</ele>
      </trkpt>
      <trkpt lat="44.78515" lon="5.36856">
        <ele>514.7</ele>
      </trkpt>
      <trkpt lat="44.78506" lon="5.36868">
        <ele>516.8</ele>
      </trkpt>
      <trkpt lat="44.78501" lon="5.36872">
        <ele>517.4</ele>
      </trkpt>
      <trkpt lat="44.78495" lon="5.36875">
        <ele>513.4</ele>
      </trkpt>
      <trkpt lat="44.78489" lon="5.36877">
        <ele>514</ele>
      </trkpt>
      <trkpt lat="44.78484" lon="5.36876">
        <ele>514</ele>
      </trkpt>
      <trkpt lat="44.78478" lon="5.36874">
        <ele>514</ele>
      </trkpt>
      <trkpt lat="44.78473" lon="5.36871">
        <ele>513.8</ele>
      </trkpt>
      <trkpt lat="44.78468" lon="5.36866">
        <ele>513.4</ele>
      </trkpt>
      <trkpt lat="44.7846" lon="5.36853">
        <ele>512.4</ele>
      </trkpt>
      <trkpt lat="44.7846" lon="5.36852">
        <ele>512.3</ele>
      </trkpt>
      <trkpt lat="44.78447" lon="5.36822">
        <ele>497.4</ele>
      </trkpt>
      <trkpt lat="44.78427" lon="5.36784">
        <ele>492.2</ele>
      </trkpt>
      <trkpt lat="44.78414" lon="5.36766">
        <ele>493.7</ele>
      </trkpt>
      <trkpt lat="44.78405" lon="5.36758">
        <ele>492.6</ele>
      </trkpt>
      <trkpt lat="44.78396" lon="5.36754">
        <ele>495.1</ele>
      </trkpt>
      <trkpt lat="44.78391" lon="5.36754">
        <ele>496.6</ele>
      </trkpt>
      <trkpt lat="44.78386" lon="5.36755">
        <ele>497.9</ele>
      </trkpt>
      <trkpt lat="44.78381" lon="5.36757">
        <ele>499</ele>
      </trkpt>
      <trkpt lat="44.78376" lon="5.3676">
        <ele>500</ele>
      </trkpt>
      <trkpt lat="44.78362" lon="5.36772">
        <ele>502.9</ele>
      </trkpt>
      <trkpt lat="44.78351" lon="5.36778">
        <ele>504.6</ele>
      </trkpt>
      <trkpt lat="44.78339" lon="5.3678">
        <ele>505.4</ele>
      </trkpt>
      <trkpt lat="44.78327" lon="5.36778">
        <ele>514.4</ele>
      </trkpt>
      <trkpt lat="44.78321" lon="5.36776">
        <ele>514.2</ele>
      </trkpt>
      <trkpt lat="44.78309" lon="5.3677">
        <ele>514.1</ele>
      </trkpt>
      <trkpt lat="44.78303" lon="5.36765">
        <ele>513.8</ele>
      </trkpt>
      <trkpt lat="44.78301" lon="5.36764">
        <ele>513.9</ele>
      </trkpt>
      <trkpt lat="44.78285" lon="5.36752">
        <ele>513.3</ele>
      </trkpt>
      <trkpt lat="44.78272" lon="5.36746">
        <ele>488.8</ele>
      </trkpt>
      <trkpt lat="44.78243" lon="5.36738">
        <ele>492.8</ele>
      </trkpt>
      <trkpt lat="44.78203" lon="5.36714">
        <ele>485</ele>
      </trkpt>
      <trkpt lat="44.78188" lon="5.36708">
        <ele>484.1</ele>
      </trkpt>
      <trkpt lat="44.78181" lon="5.36706">
        <ele>483.6</ele>
      </trkpt>
      <trkpt lat="44.78166" lon="5.36704">
        <ele>484.6</ele>
      </trkpt>
      <trkpt lat="44.78158" lon="5.36704">
        <ele>484.7</ele>
      </trkpt>
      <trkpt lat="44.78147" lon="5.36702">
        <ele>484.2</ele>
      </trkpt>
      <trkpt lat="44.78143" lon="5.36702">
        <ele>484.3</ele>
      </trkpt>
      <trkpt lat="44.78136" lon="5.36701">
        <ele>484.2</ele>
      </trkpt>
      <trkpt lat="44.78099" lon="5.36691">
        <ele>479.7</ele>
      </trkpt>
      <trkpt lat="44.78077" lon="5.36683">
        <ele>476.7</ele>
      </trkpt>
      <trkpt lat="44.78062" lon="5.36679">
        <ele>479.2</ele>
      </trkpt>
      <trkpt lat="44.78055" lon="5.36676">
        <ele>480.4</ele>
      </trkpt>
      <trkpt lat="44.78047" lon="5.36675">
        <ele>481.8</ele>
      </trkpt>
      <trkpt lat="44.78045" lon="5.36674">
        <ele>481.9</ele>
      </trkpt>
      <trkpt lat="44.78017" lon="5.3667">
        <ele>481.1</ele>
      </trkpt>
      <trkpt lat="44.77987" lon="5.3667">
        <ele>483.9</ele>
      </trkpt>
      <trkpt lat="44.7798" lon="5.36669">
        <ele>486.4</ele>
      </trkpt>
      <trkpt lat="44.77973" lon="5.36669">
        <ele>488.4</ele>
      </trkpt>
      <trkpt lat="44.77966" lon="5.36668">
        <ele>489.7</ele>
      </trkpt>
      <trkpt lat="44.77953" lon="5.36663">
        <ele>470.6</ele>
      </trkpt>
      <trkpt lat="44.77934" lon="5.3665">
        <ele>472.2</ele>
      </trkpt>
      <trkpt lat="44.77873" lon="5.36589">
        <ele>473.5</ele>
      </trkpt>
      <trkpt lat="44.77869" lon="5.36584">
        <ele>473.7</ele>
      </trkpt>
      <trkpt lat="44.77841" lon="5.36555">
        <ele>456.9</ele>
      </trkpt>
      <trkpt lat="44.77829" lon="5.36545">
        <ele>460</ele>
      </trkpt>
      <trkpt lat="44.7781" lon="5.36533">
        <ele>457.6</ele>
      </trkpt>
      <trkpt lat="44.77802" lon="5.3653">
        <ele>457.4</ele>
      </trkpt>
      <trkpt lat="44.77785" lon="5.36526">
        <ele>457.4</ele>
      </trkpt>
      <trkpt lat="44.77776" lon="5.36525">
        <ele>457.2</ele>
      </trkpt>
      <trkpt lat="44.77768" lon="5.36523">
        <ele>456.7</ele>
      </trkpt>
      <trkpt lat="44.77751" lon="5.36521">
        <ele>455.7</ele>
      </trkpt>
      <trkpt lat="44.77743" lon="5.36519">
        <ele>456.6</ele>
      </trkpt>
      <trkpt lat="44.77739" lon="5.36517">
        <ele>456.5</ele>
      </trkpt>
      <trkpt lat="44.77735" lon="5.36516">
        <ele>456.7</ele>
      </trkpt>
      <trkpt lat="44.77727" lon="5.36512">
        <ele>457.1</ele>
      </trkpt>
      <trkpt lat="44.77712" lon="5.36502">
        <ele>457.6</ele>
      </trkpt>
      <trkpt lat="44.77675" lon="5.36474">
        <ele>445.6</ele>
      </trkpt>
      <trkpt lat="44.77667" lon="5.3647">
        <ele>445</ele>
      </trkpt>
      <trkpt lat="44.77659" lon="5.36467">
        <ele>447.7</ele>
      </trkpt>
      <trkpt lat="44.77635" lon="5.36461">
        <ele>447.4</ele>
      </trkpt>
      <trkpt lat="44.77614" lon="5.36453">
        <ele>447.3</ele>
      </trkpt>
      <trkpt lat="44.776" lon="5.36441">
        <ele>446.2</ele>
      </trkpt>
      <trkpt lat="44.77597" lon="5.36437">
        <ele>445.7</ele>
      </trkpt>
      <trkpt lat="44.77592" lon="5.36433">
        <ele>445.1</ele>
      </trkpt>
      <trkpt lat="44.77592" lon="5.36432">
        <ele>444.9</ele>
      </trkpt>
      <trkpt lat="44.77579" lon="5.36418">
        <ele>444.7</ele>
      </trkpt>
      <trkpt lat="44.77578" lon="5.36416">
        <ele>441.6</ele>
      </trkpt>
      <trkpt lat="44.77502" lon="5.36327">
        <ele>432.1</ele>
      </trkpt>
      <trkpt lat="44.77471" lon="5.36297">
        <ele>429.2</ele>
      </trkpt>
      <trkpt lat="44.77454" lon="5.36286">
        <ele>428.6</ele>
      </trkpt>
      <trkpt lat="44.77445" lon="5.36282">
        <ele>428.3</ele>
      </trkpt>
      <trkpt lat="44.7739" lon="5.36264">
        <ele>426.3</ele>
      </trkpt>
      <trkpt lat="44.77381" lon="5.3626">
        <ele>426</ele>
      </trkpt>
      <trkpt lat="44.77344" lon="5.36249">
        <ele>419</ele>
      </trkpt>
      <trkpt lat="44.77342" lon="5.36249">
        <ele>419.1</ele>
      </trkpt>
      <trkpt lat="44.77337" lon="5.36246">
        <ele>419.4</ele>
      </trkpt>
      <trkpt lat="44.77302" lon="5.36234">
        <ele>417.7</ele>
      </trkpt>
      <trkpt lat="44.77293" lon="5.3623">
        <ele>417.5</ele>
      </trkpt>
      <trkpt lat="44.77284" lon="5.36227">
        <ele>417.5</ele>
      </trkpt>
      <trkpt lat="44.77268" lon="5.36219">
        <ele>417.4</ele>
      </trkpt>
      <trkpt lat="44.77227" lon="5.36192">
        <ele>416.1</ele>
      </trkpt>
      <trkpt lat="44.77159" lon="5.3614">
        <ele>410.5</ele>
      </trkpt>
      <trkpt lat="44.77154" lon="5.36137">
        <ele>410.3</ele>
      </trkpt>
      <trkpt lat="44.77151" lon="5.36134">
        <ele>410.2</ele>
      </trkpt>
      <trkpt lat="44.77128" lon="5.36119">
        <ele>409.7</ele>
      </trkpt>
      <trkpt lat="44.7712" lon="5.36115">
        <ele>409.5</ele>
      </trkpt>
      <trkpt lat="44.77112" lon="5.36112">
        <ele>409.3</ele>
      </trkpt>
      <trkpt lat="44.77086" lon="5.36106">
        <ele>408.7</ele>
      </trkpt>
      <trkpt lat="44.77076" lon="5.36105">
        <ele>408</ele>
      </trkpt>
      <trkpt lat="44.77052" lon="5.36108">
        <ele>408.2</ele>
      </trkpt>
      <trkpt lat="44.77035" lon="5.36112">
        <ele>408.1</ele>
      </trkpt>
      <trkpt lat="44.77026" lon="5.36113">
        <ele>408.1</ele>
      </trkpt>
      <trkpt lat="44.77" lon="5.36119">
        <ele>408.1</ele>
      </trkpt>
      <trkpt lat="44.76992" lon="5.36122">
        <ele>407.2</ele>
      </trkpt>
      <trkpt lat="44.76983" lon="5.36124">
        <ele>407.2</ele>
      </trkpt>
      <trkpt lat="44.76975" lon="5.36127">
        <ele>407.2</ele>
      </trkpt>
      <trkpt lat="44.76939" lon="5.36135">
        <ele>406.9</ele>
      </trkpt>
      <trkpt lat="44.7693" lon="5.36138">
        <ele>406.9</ele>
      </trkpt>
      <trkpt lat="44.76873" lon="5.36152">
        <ele>406.6</ele>
      </trkpt>
      <trkpt lat="44.76842" lon="5.36164">
        <ele>407.5</ele>
      </trkpt>
      <trkpt lat="44.76797" lon="5.36189">
        <ele>411</ele>
      </trkpt>
      <trkpt lat="44.76709" lon="5.36243">
        <ele>412.3</ele>
      </trkpt>
      <trkpt lat="44.76693" lon="5.36251">
        <ele>412.4</ele>
      </trkpt>
      <trkpt lat="44.76676" lon="5.36257">
        <ele>412.2</ele>
      </trkpt>
      <trkpt lat="44.76668" lon="5.36258">
        <ele>412.1</ele>
      </trkpt>
      <trkpt lat="44.76642" lon="5.36258">
        <ele>411.4</ele>
      </trkpt>
      <trkpt lat="44.76616" lon="5.36255">
        <ele>411</ele>
      </trkpt>
      <trkpt lat="44.76607" lon="5.36255">
        <ele>410.8</ele>
      </trkpt>
      <trkpt lat="44.76537" lon="5.36247">
        <ele>409.2</ele>
      </trkpt>
      <trkpt lat="44.76528" lon="5.36247">
        <ele>409.3</ele>
      </trkpt>
      <trkpt lat="44.76519" lon="5.36246">
        <ele>409.4</ele>
      </trkpt>
      <trkpt lat="44.76517" lon="5.36245">
        <ele>409.4</ele>
      </trkpt>
      <trkpt lat="44.76469" lon="5.3624">
        <ele>408.5</ele>
      </trkpt>
      <trkpt lat="44.76461" lon="5.3624">
        <ele>408.3</ele>
      </trkpt>
      <trkpt lat="44.76445" lon="5.36238">
        <ele>408.2</ele>
      </trkpt>
      <trkpt lat="44.76437" lon="5.36238">
        <ele>408.3</ele>
      </trkpt>
      <trkpt lat="44.76422" lon="5.36236">
        <ele>408.4</ele>
      </trkpt>
      <trkpt lat="44.76414" lon="5.36236">
        <ele>407.4</ele>
      </trkpt>
      <trkpt lat="44.76407" lon="5.36235">
        <ele>407.1</ele>
      </trkpt>
      <trkpt lat="44.764" lon="5.36235">
        <ele>406.8</ele>
      </trkpt>
      <trkpt lat="44.76379" lon="5.36232">
        <ele>405.9</ele>
      </trkpt>
      <trkpt lat="44.76357" lon="5.36224">
        <ele>405.2</ele>
      </trkpt>
      <trkpt lat="44.76337" lon="5.36212">
        <ele>405</ele>
      </trkpt>
      <trkpt lat="44.76303" lon="5.36189">
        <ele>402.7</ele>
      </trkpt>
      <trkpt lat="44.76282" lon="5.36177">
        <ele>402.3</ele>
      </trkpt>
      <trkpt lat="44.76255" lon="5.36159">
        <ele>401.2</ele>
      </trkpt>
      <trkpt lat="44.76241" lon="5.36151">
        <ele>400.3</ele>
      </trkpt>
      <trkpt lat="44.76228" lon="5.36141">
        <ele>400</ele>
      </trkpt>
      <trkpt lat="44.76146" lon="5.36065">
        <ele>398.3</ele>
      </trkpt>
      <trkpt lat="44.76127" lon="5.36039">
        <ele>398</ele>
      </trkpt>
      <trkpt lat="44.7611" lon="5.36021">
        <ele>397.9</ele>
      </trkpt>
      <trkpt lat="44.76103" lon="5.36016">
        <ele>397.9</ele>
      </trkpt>
      <trkpt lat="44.761" lon="5.36015">
        <ele>398</ele>
      </trkpt>
      <trkpt lat="44.76082" lon="5.36014">
        <ele>398</ele>
      </trkpt>
      <trkpt lat="44.76062" lon="5.36035">
        <ele>398</ele>
      </trkpt>
      <trkpt lat="44.75965" lon="5.36156">
        <ele>396.9</ele>
      </trkpt>
      <trkpt lat="44.75959" lon="5.36158">
        <ele>396.8</ele>
      </trkpt>
      <trkpt lat="44.75956" lon="5.36158">
        <ele>396.8</ele>
      </trkpt>
      <trkpt lat="44.7595" lon="5.36152">
        <ele>396.7</ele>
      </trkpt>
      <trkpt lat="44.75934" lon="5.36195">
        <ele>396.9</ele>
      </trkpt>
      <trkpt lat="44.75893" lon="5.36288">
        <ele>397.1</ele>
      </trkpt>
      <trkpt lat="44.758" lon="5.36452">
        <ele>398.8</ele>
      </trkpt>
      <trkpt lat="44.75799" lon="5.36453">
        <ele>398.8</ele>
      </trkpt>
      <trkpt lat="44.75705" lon="5.36619">
        <ele>403.3</ele>
      </trkpt>
      <trkpt lat="44.75688" lon="5.36612">
        <ele>403</ele>
      </trkpt>
      <trkpt lat="44.75682" lon="5.36611">
        <ele>402.9</ele>
      </trkpt>
      <trkpt lat="44.75668" lon="5.36611">
        <ele>402.8</ele>
      </trkpt>
      <trkpt lat="44.75644" lon="5.36614">
        <ele>401.6</ele>
      </trkpt>
      <trkpt lat="44.75608" lon="5.36622">
        <ele>401.3</ele>
      </trkpt>
      <trkpt lat="44.75573" lon="5.36637">
        <ele>399.8</ele>
      </trkpt>
      <trkpt lat="44.75562" lon="5.36644">
        <ele>399.9</ele>
      </trkpt>
      <trkpt lat="44.75558" lon="5.36648">
        <ele>399.9</ele>
      </trkpt>
      <trkpt lat="44.75555" lon="5.3665">
        <ele>399.8</ele>
      </trkpt>
      <trkpt lat="44.75543" lon="5.36662">
        <ele>399.5</ele>
      </trkpt>
      <trkpt lat="44.75537" lon="5.36671">
        <ele>404.2</ele>
      </trkpt>
      <trkpt lat="44.75526" lon="5.36694">
        <ele>404.6</ele>
      </trkpt>
      <trkpt lat="44.75495" lon="5.36735">
        <ele>406.2</ele>
      </trkpt>
      <trkpt lat="44.75475" lon="5.36755">
        <ele>410.8</ele>
      </trkpt>
      <trkpt lat="44.75456" lon="5.3677">
        <ele>410.8</ele>
      </trkpt>
      <trkpt lat="44.75443" lon="5.36776">
        <ele>410.7</ele>
      </trkpt>
      <trkpt lat="44.75414" lon="5.36784">
        <ele>409.3</ele>
      </trkpt>
      <trkpt lat="44.75386" lon="5.36789">
        <ele>409.7</ele>
      </trkpt>
      <trkpt lat="44.75306" lon="5.36788">
        <ele>408.3</ele>
      </trkpt>
      <trkpt lat="44.7527" lon="5.36794">
        <ele>408.5</ele>
      </trkpt>
      <trkpt lat="44.75236" lon="5.3681">
        <ele>408.3</ele>
      </trkpt>
      <trkpt lat="44.75224" lon="5.36817">
        <ele>408.1</ele>
      </trkpt>
      <trkpt lat="44.75209" lon="5.36828">
        <ele>407.6</ele>
      </trkpt>
      <trkpt lat="44.75187" lon="5.36853">
        <ele>409.8</ele>
      </trkpt>
      <trkpt lat="44.75146" lon="5.36908">
        <ele>407.5</ele>
      </trkpt>
      <trkpt lat="44.75134" lon="5.36927">
        <ele>409.3</ele>
      </trkpt>
      <trkpt lat="44.75094" lon="5.37025">
        <ele>410</ele>
      </trkpt>
      <trkpt lat="44.75089" lon="5.37051">
        <ele>410.3</ele>
      </trkpt>
      <trkpt lat="44.75085" lon="5.37083">
        <ele>407.4</ele>
      </trkpt>
      <trkpt lat="44.75084" lon="5.37101">
        <ele>409.1</ele>
      </trkpt>
      <trkpt lat="44.75086" lon="5.37121">
        <ele>409.7</ele>
      </trkpt>
      <trkpt lat="44.75098" lon="5.37148">
        <ele>409.1</ele>
      </trkpt>
      <trkpt lat="44.75132" lon="5.3721">
        <ele>408.6</ele>
      </trkpt>
      <trkpt lat="44.75143" lon="5.37234">
        <ele>408.7</ele>
      </trkpt>
      <trkpt lat="44.75143" lon="5.37237">
        <ele>408.7</ele>
      </trkpt>
      <trkpt lat="44.75144" lon="5.3724">
        <ele>408.7</ele>
      </trkpt>
      <trkpt lat="44.75145" lon="5.37249">
        <ele>408.7</ele>
      </trkpt>
      <trkpt lat="44.75142" lon="5.37258">
        <ele>406.8</ele>
      </trkpt>
      <trkpt lat="44.75139" lon="5.37263">
        <ele>406.5</ele>
      </trkpt>
      <trkpt lat="44.75136" lon="5.37265">
        <ele>406.3</ele>
      </trkpt>
      <trkpt lat="44.75134" lon="5.37267">
        <ele>406.1</ele>
      </trkpt>
      <trkpt lat="44.7509" lon="5.37287">
        <ele>404.6</ele>
      </trkpt>
      <trkpt lat="44.75061" lon="5.37298">
        <ele>403.1</ele>
      </trkpt>
      <trkpt lat="44.75045" lon="5.37308">
        <ele>403.2</ele>
      </trkpt>
      <trkpt lat="44.7504" lon="5.37313">
        <ele>403.2</ele>
      </trkpt>
      <trkpt lat="44.75016" lon="5.37355">
        <ele>405.2</ele>
      </trkpt>
      <trkpt lat="44.75006" lon="5.3737">
        <ele>405.5</ele>
      </trkpt>
      <trkpt lat="44.74975" lon="5.37411">
        <ele>404.1</ele>
      </trkpt>
      <trkpt lat="44.74946" lon="5.37446">
        <ele>404</ele>
      </trkpt>
      <trkpt lat="44.74938" lon="5.37458">
        <ele>403.9</ele>
      </trkpt>
      <trkpt lat="44.74936" lon="5.3746">
        <ele>403.8</ele>
      </trkpt>
      <trkpt lat="44.74931" lon="5.37478">
        <ele>403.7</ele>
      </trkpt>
      <trkpt lat="44.74918" lon="5.37562">
        <ele>406.8</ele>
      </trkpt>
      <trkpt lat="44.74915" lon="5.37575">
        <ele>404.9</ele>
      </trkpt>
      <trkpt lat="44.74914" lon="5.37586">
        <ele>405.6</ele>
      </trkpt>
      <trkpt lat="44.74898" lon="5.37656">
        <ele>403.4</ele>
      </trkpt>
      <trkpt lat="44.74894" lon="5.37647">
        <ele>403.3</ele>
      </trkpt>
      <trkpt lat="44.74887" lon="5.37638">
        <ele>403.2</ele>
      </trkpt>
      <trkpt lat="44.74873" lon="5.37629">
        <ele>402.9</ele>
      </trkpt>
      <trkpt lat="44.74865" lon="5.37621">
        <ele>402.8</ele>
      </trkpt>
      <trkpt lat="44.74862" lon="5.37617">
        <ele>402.7</ele>
      </trkpt>
      <trkpt lat="44.74851" lon="5.37628">
        <ele>402.5</ele>
      </trkpt>
      <trkpt lat="44.74848" lon="5.37634">
        <ele>402.4</ele>
      </trkpt>
      <trkpt lat="44.74838" lon="5.3765">
        <ele>401.9</ele>
      </trkpt>
      <trkpt lat="44.74827" lon="5.37673">
        <ele>401.1</ele>
      </trkpt>
      <trkpt lat="44.74766" lon="5.37853">
        <ele>401.3</ele>
      </trkpt>
      <trkpt lat="44.74685" lon="5.38062">
        <ele>403.7</ele>
      </trkpt>
      <trkpt lat="44.74674" lon="5.38097">
        <ele>403.5</ele>
      </trkpt>
      <trkpt lat="44.7467" lon="5.38106">
        <ele>403.9</ele>
      </trkpt>
      <trkpt lat="44.74658" lon="5.38126">
        <ele>405</ele>
      </trkpt>
      <trkpt lat="44.74658" lon="5.38127">
        <ele>405</ele>
      </trkpt>
      <trkpt lat="44.74654" lon="5.38135">
        <ele>405.2</ele>
      </trkpt>
      <trkpt lat="44.74627" lon="5.38235">
        <ele>405.4</ele>
      </trkpt>
      <trkpt lat="44.74633" lon="5.38249">
        <ele>405.4</ele>
      </trkpt>
      <trkpt lat="44.74638" lon="5.38255">
        <ele>405.1</ele>
      </trkpt>
      <trkpt lat="44.74669" lon="5.38279">
        <ele>407</ele>
      </trkpt>
      <trkpt lat="44.74673" lon="5.38283">
        <ele>407.1</ele>
      </trkpt>
      <trkpt lat="44.74674" lon="5.38286">
        <ele>407.1</ele>
      </trkpt>
      <trkpt lat="44.74674" lon="5.3829">
        <ele>407.1</ele>
      </trkpt>
      <trkpt lat="44.74672" lon="5.38296">
        <ele>407.2</ele>
      </trkpt>
      <trkpt lat="44.74661" lon="5.38319">
        <ele>406</ele>
      </trkpt>
      <trkpt lat="44.74651" lon="5.38335">
        <ele>406.1</ele>
      </trkpt>
      <trkpt lat="44.74615" lon="5.38385">
        <ele>405.6</ele>
      </trkpt>
      <trkpt lat="44.74566" lon="5.38422">
        <ele>407.1</ele>
      </trkpt>
      <trkpt lat="44.74562" lon="5.38427">
        <ele>407.1</ele>
      </trkpt>
      <trkpt lat="44.74558" lon="5.38428">
        <ele>407.1</ele>
      </trkpt>
      <trkpt lat="44.74556" lon="5.38424">
        <ele>407</ele>
      </trkpt>
      <trkpt lat="44.74548" lon="5.38389">
        <ele>404.4</ele>
      </trkpt>
      <trkpt lat="44.74556" lon="5.38424">
        <ele>407</ele>
      </trkpt>
      <trkpt lat="44.74558" lon="5.38428">
        <ele>407.1</ele>
      </trkpt>
      <trkpt lat="44.74562" lon="5.38427">
        <ele>407.1</ele>
      </trkpt>
      <trkpt lat="44.74566" lon="5.38422">
        <ele>407.1</ele>
      </trkpt>
      <trkpt lat="44.74615" lon="5.38385">
        <ele>405.6</ele>
      </trkpt>
      <trkpt lat="44.74651" lon="5.38335">
        <ele>406.1</ele>
      </trkpt>
      <trkpt lat="44.74661" lon="5.38319">
        <ele>406</ele>
      </trkpt>
      <trkpt lat="44.74672" lon="5.38296">
        <ele>407.2</ele>
      </trkpt>
      <trkpt lat="44.74674" lon="5.3829">
        <ele>407.1</ele>
      </trkpt>
      <trkpt lat="44.74674" lon="5.38286">
        <ele>407.1</ele>
      </trkpt>
      <trkpt lat="44.74673" lon="5.38283">
        <ele>407.1</ele>
      </trkpt>
      <trkpt lat="44.74669" lon="5.38279">
        <ele>407</ele>
      </trkpt>
      <trkpt lat="44.74638" lon="5.38255">
        <ele>405.1</ele>
      </trkpt>
      <trkpt lat="44.74633" lon="5.38249">
        <ele>405.4</ele>
      </trkpt>
      <trkpt lat="44.74627" lon="5.38235">
        <ele>405.4</ele>
      </trkpt>
      <trkpt lat="44.74654" lon="5.38135">
        <ele>405.2</ele>
      </trkpt>
      <trkpt lat="44.74658" lon="5.38127">
        <ele>405</ele>
      </trkpt>
      <trkpt lat="44.74658" lon="5.38126">
        <ele>405</ele>
      </trkpt>
      <trkpt lat="44.7467" lon="5.38106">
        <ele>403.9</ele>
      </trkpt>
      <trkpt lat="44.74674" lon="5.38097">
        <ele>403.5</ele>
      </trkpt>
      <trkpt lat="44.74685" lon="5.38062">
        <ele>403.7</ele>
      </trkpt>
      <trkpt lat="44.74766" lon="5.37853">
        <ele>401.3</ele>
      </trkpt>
      <trkpt lat="44.74827" lon="5.37673">
        <ele>401.1</ele>
      </trkpt>
      <trkpt lat="44.74838" lon="5.3765">
        <ele>401.9</ele>
      </trkpt>
      <trkpt lat="44.74848" lon="5.37634">
        <ele>402.4</ele>
      </trkpt>
      <trkpt lat="44.74851" lon="5.37628">
        <ele>402.5</ele>
      </trkpt>
      <trkpt lat="44.74862" lon="5.37617">
        <ele>402.7</ele>
      </trkpt>
      <trkpt lat="44.74865" lon="5.37621">
        <ele>402.8</ele>
      </trkpt>
      <trkpt lat="44.74873" lon="5.37629">
        <ele>402.9</ele>
      </trkpt>
      <trkpt lat="44.74887" lon="5.37638">
        <ele>403.2</ele>
      </trkpt>
      <trkpt lat="44.74889" lon="5.37642">
        <ele>403.2</ele>
      </trkpt>
      <trkpt lat="44.74892" lon="5.37652">
        <ele>403.3</ele>
      </trkpt>
      <trkpt lat="44.74892" lon="5.37655">
        <ele>403.3</ele>
      </trkpt>
      <trkpt lat="44.74891" lon="5.37659">
        <ele>403.3</ele>
      </trkpt>
      <trkpt lat="44.74891" lon="5.37662">
        <ele>403.3</ele>
      </trkpt>
      <trkpt lat="44.74886" lon="5.37677">
        <ele>402.8</ele>
      </trkpt>
      <trkpt lat="44.74886" lon="5.37681">
        <ele>402.8</ele>
      </trkpt>
      <trkpt lat="44.74887" lon="5.37685">
        <ele>402.8</ele>
      </trkpt>
      <trkpt lat="44.74887" lon="5.37691">
        <ele>402.7</ele>
      </trkpt>
      <trkpt lat="44.74869" lon="5.37735">
        <ele>402.4</ele>
      </trkpt>
      <trkpt lat="44.74849" lon="5.37772">
        <ele>402.1</ele>
      </trkpt>
      <trkpt lat="44.74829" lon="5.37817">
        <ele>401</ele>
      </trkpt>
      <trkpt lat="44.74828" lon="5.37822">
        <ele>401</ele>
      </trkpt>
      <trkpt lat="44.74828" lon="5.37827">
        <ele>401</ele>
      </trkpt>
      <trkpt lat="44.74827" lon="5.37831">
        <ele>401</ele>
      </trkpt>
      <trkpt lat="44.74828" lon="5.37888">
        <ele>401.9</ele>
      </trkpt>
      <trkpt lat="44.74829" lon="5.37898">
        <ele>402.2</ele>
      </trkpt>
      <trkpt lat="44.74828" lon="5.37907">
        <ele>402.4</ele>
      </trkpt>
      <trkpt lat="44.74823" lon="5.37921">
        <ele>403</ele>
      </trkpt>
      <trkpt lat="44.74818" lon="5.37927">
        <ele>403</ele>
      </trkpt>
      <trkpt lat="44.74814" lon="5.37938">
        <ele>403</ele>
      </trkpt>
      <trkpt lat="44.74814" lon="5.37944">
        <ele>403.1</ele>
      </trkpt>
      <trkpt lat="44.74813" lon="5.37947">
        <ele>403.1</ele>
      </trkpt>
      <trkpt lat="44.74813" lon="5.3795">
        <ele>403.1</ele>
      </trkpt>
      <trkpt lat="44.74815" lon="5.37957">
        <ele>403.2</ele>
      </trkpt>
      <trkpt lat="44.74815" lon="5.37959">
        <ele>403.3</ele>
      </trkpt>
      <trkpt lat="44.74817" lon="5.37965">
        <ele>403.4</ele>
      </trkpt>
      <trkpt lat="44.74819" lon="5.37967">
        <ele>403.4</ele>
      </trkpt>
      <trkpt lat="44.7482" lon="5.37969">
        <ele>403.5</ele>
      </trkpt>
      <trkpt lat="44.74824" lon="5.37973">
        <ele>403.6</ele>
      </trkpt>
      <trkpt lat="44.74833" lon="5.38043">
        <ele>405.6</ele>
      </trkpt>
      <trkpt lat="44.74829" lon="5.38059">
        <ele>405.9</ele>
      </trkpt>
      <trkpt lat="44.7482" lon="5.38081">
        <ele>406.3</ele>
      </trkpt>
      <trkpt lat="44.74671" lon="5.38343">
        <ele>407.4</ele>
      </trkpt>
      <trkpt lat="44.74658" lon="5.38358">
        <ele>406</ele>
      </trkpt>
      <trkpt lat="44.74609" lon="5.38423">
        <ele>407.8</ele>
      </trkpt>
      <trkpt lat="44.74574" lon="5.38463">
        <ele>407.8</ele>
      </trkpt>
      <trkpt lat="44.74554" lon="5.38482">
        <ele>407.9</ele>
      </trkpt>
      <trkpt lat="44.74532" lon="5.38499">
        <ele>407.5</ele>
      </trkpt>
      <trkpt lat="44.7453" lon="5.38502">
        <ele>408.9</ele>
      </trkpt>
      <trkpt lat="44.74471" lon="5.3854">
        <ele>407.8</ele>
      </trkpt>
      <trkpt lat="44.74455" lon="5.38546">
        <ele>407.8</ele>
      </trkpt>
      <trkpt lat="44.74433" lon="5.38556">
        <ele>407.8</ele>
      </trkpt>
      <trkpt lat="44.74313" lon="5.3859">
        <ele>409.7</ele>
      </trkpt>
      <trkpt lat="44.74306" lon="5.38593">
        <ele>409.9</ele>
      </trkpt>
      <trkpt lat="44.74066" lon="5.38661">
        <ele>415.9</ele>
      </trkpt>
      <trkpt lat="44.74065" lon="5.38662">
        <ele>416</ele>
      </trkpt>
      <trkpt lat="44.74053" lon="5.38665">
        <ele>416.1</ele>
      </trkpt>
      <trkpt lat="44.74031" lon="5.38673">
        <ele>418.1</ele>
      </trkpt>
      <trkpt lat="44.73991" lon="5.38692">
        <ele>419.1</ele>
      </trkpt>
      <trkpt lat="44.73975" lon="5.38701">
        <ele>419.4</ele>
      </trkpt>
      <trkpt lat="44.7397" lon="5.38703">
        <ele>419.4</ele>
      </trkpt>
      <trkpt lat="44.73822" lon="5.38783">
        <ele>420.6</ele>
      </trkpt>
      <trkpt lat="44.7382" lon="5.38785">
        <ele>420.6</ele>
      </trkpt>
      <trkpt lat="44.73576" lon="5.38915">
        <ele>418.6</ele>
      </trkpt>
      <trkpt lat="44.73565" lon="5.3892">
        <ele>419.9</ele>
      </trkpt>
      <trkpt lat="44.73052" lon="5.39196">
        <ele>424.8</ele>
      </trkpt>
      <trkpt lat="44.7301" lon="5.39215">
        <ele>425.3</ele>
      </trkpt>
      <trkpt lat="44.72993" lon="5.39219">
        <ele>426.6</ele>
      </trkpt>
      <trkpt lat="44.72976" lon="5.39221">
        <ele>426.8</ele>
      </trkpt>
      <trkpt lat="44.72962" lon="5.39221">
        <ele>427.1</ele>
      </trkpt>
      <trkpt lat="44.72946" lon="5.39219">
        <ele>427.4</ele>
      </trkpt>
      <trkpt lat="44.72929" lon="5.39214">
        <ele>427.5</ele>
      </trkpt>
      <trkpt lat="44.72919" lon="5.39213">
        <ele>427.5</ele>
      </trkpt>
      <trkpt lat="44.72888" lon="5.39207">
        <ele>426.7</ele>
      </trkpt>
      <trkpt lat="44.72879" lon="5.39207">
        <ele>426.5</ele>
      </trkpt>
      <trkpt lat="44.72879" lon="5.39206">
        <ele>426.5</ele>
      </trkpt>
      <trkpt lat="44.72869" lon="5.39206">
        <ele>426.3</ele>
      </trkpt>
      <trkpt lat="44.72861" lon="5.39207">
        <ele>426.2</ele>
      </trkpt>
      <trkpt lat="44.72841" lon="5.39215">
        <ele>426.3</ele>
      </trkpt>
      <trkpt lat="44.72823" lon="5.39229">
        <ele>425.2</ele>
      </trkpt>
      <trkpt lat="44.72809" lon="5.39249">
        <ele>425.2</ele>
      </trkpt>
      <trkpt lat="44.72761" lon="5.39334">
        <ele>427.7</ele>
      </trkpt>
      <trkpt lat="44.72761" lon="5.39335">
        <ele>427.8</ele>
      </trkpt>
      <trkpt lat="44.72708" lon="5.3943">
        <ele>429.4</ele>
      </trkpt>
      <trkpt lat="44.72701" lon="5.39448">
        <ele>429.3</ele>
      </trkpt>
      <trkpt lat="44.72695" lon="5.39474">
        <ele>429.6</ele>
      </trkpt>
      <trkpt lat="44.72693" lon="5.39495">
        <ele>429.5</ele>
      </trkpt>
      <trkpt lat="44.72691" lon="5.39504">
        <ele>433.5</ele>
      </trkpt>
      <trkpt lat="44.72687" lon="5.39515">
        <ele>433.8</ele>
      </trkpt>
      <trkpt lat="44.72683" lon="5.39522">
        <ele>434.1</ele>
      </trkpt>
      <trkpt lat="44.72679" lon="5.39527">
        <ele>434.3</ele>
      </trkpt>
      <trkpt lat="44.72669" lon="5.39534">
        <ele>434.7</ele>
      </trkpt>
      <trkpt lat="44.72652" lon="5.39541">
        <ele>429.3</ele>
      </trkpt>
      <trkpt lat="44.7265" lon="5.39543">
        <ele>429.4</ele>
      </trkpt>
      <trkpt lat="44.72648" lon="5.39544">
        <ele>429.4</ele>
      </trkpt>
      <trkpt lat="44.72641" lon="5.39552">
        <ele>429.6</ele>
      </trkpt>
      <trkpt lat="44.72636" lon="5.39559">
        <ele>429.7</ele>
      </trkpt>
      <trkpt lat="44.72589" lon="5.39644">
        <ele>431.7</ele>
      </trkpt>
      <trkpt lat="44.7257" lon="5.39675">
        <ele>428.7</ele>
      </trkpt>
      <trkpt lat="44.72529" lon="5.3973">
        <ele>428.5</ele>
      </trkpt>
      <trkpt lat="44.72496" lon="5.39762">
        <ele>428.1</ele>
      </trkpt>
      <trkpt lat="44.72477" lon="5.39776">
        <ele>428.3</ele>
      </trkpt>
      <trkpt lat="44.72444" lon="5.39797">
        <ele>428.1</ele>
      </trkpt>
      <trkpt lat="44.72433" lon="5.39803">
        <ele>428.1</ele>
      </trkpt>
      <trkpt lat="44.72399" lon="5.39818">
        <ele>427.7</ele>
      </trkpt>
      <trkpt lat="44.72145" lon="5.39887">
        <ele>431.7</ele>
      </trkpt>
      <trkpt lat="44.7207" lon="5.39905">
        <ele>434</ele>
      </trkpt>
      <trkpt lat="44.71955" lon="5.3994">
        <ele>436.9</ele>
      </trkpt>
      <trkpt lat="44.718" lon="5.39992">
        <ele>438.7</ele>
      </trkpt>
      <trkpt lat="44.71765" lon="5.40002">
        <ele>439.3</ele>
      </trkpt>
      <trkpt lat="44.71759" lon="5.40001">
        <ele>439.2</ele>
      </trkpt>
      <trkpt lat="44.71642" lon="5.40039">
        <ele>441.2</ele>
      </trkpt>
      <trkpt lat="44.71635" lon="5.40044">
        <ele>441.2</ele>
      </trkpt>
      <trkpt lat="44.7159" lon="5.40058">
        <ele>441.5</ele>
      </trkpt>
      <trkpt lat="44.71579" lon="5.40063">
        <ele>441.8</ele>
      </trkpt>
      <trkpt lat="44.71473" lon="5.40096">
        <ele>442.4</ele>
      </trkpt>
      <trkpt lat="44.71462" lon="5.40101">
        <ele>442.2</ele>
      </trkpt>
      <trkpt lat="44.71256" lon="5.40168">
        <ele>444.9</ele>
      </trkpt>
      <trkpt lat="44.71247" lon="5.40168">
        <ele>445</ele>
      </trkpt>
      <trkpt lat="44.71226" lon="5.4017">
        <ele>444.7</ele>
      </trkpt>
      <trkpt lat="44.7122" lon="5.40172">
        <ele>444.7</ele>
      </trkpt>
      <trkpt lat="44.7122" lon="5.40171">
        <ele>444.7</ele>
      </trkpt>
      <trkpt lat="44.71219" lon="5.40171">
        <ele>444.6</ele>
      </trkpt>
      <trkpt lat="44.71219" lon="5.4017">
        <ele>444.6</ele>
      </trkpt>
      <trkpt lat="44.71218" lon="5.4017">
        <ele>444.6</ele>
      </trkpt>
      <trkpt lat="44.71218" lon="5.40169">
        <ele>444.6</ele>
      </trkpt>
      <trkpt lat="44.71217" lon="5.40169">
        <ele>444.6</ele>
      </trkpt>
      <trkpt lat="44.71217" lon="5.40168">
        <ele>444.6</ele>
      </trkpt>
      <trkpt lat="44.71213" lon="5.40168">
        <ele>444.5</ele>
      </trkpt>
      <trkpt lat="44.71213" lon="5.40169">
        <ele>444.5</ele>
      </trkpt>
      <trkpt lat="44.71212" lon="5.40169">
        <ele>444.5</ele>
      </trkpt>
      <trkpt lat="44.71211" lon="5.4017">
        <ele>444.5</ele>
      </trkpt>
      <trkpt lat="44.71211" lon="5.40171">
        <ele>444.5</ele>
      </trkpt>
      <trkpt lat="44.7121" lon="5.40171">
        <ele>444.5</ele>
      </trkpt>
      <trkpt lat="44.7121" lon="5.40173">
        <ele>444.5</ele>
      </trkpt>
      <trkpt lat="44.71209" lon="5.40173">
        <ele>444.5</ele>
      </trkpt>
      <trkpt lat="44.71205" lon="5.40175">
        <ele>444.4</ele>
      </trkpt>
      <trkpt lat="44.71199" lon="5.40177">
        <ele>444.3</ele>
      </trkpt>
      <trkpt lat="44.7119" lon="5.40183">
        <ele>444.2</ele>
      </trkpt>
      <trkpt lat="44.71184" lon="5.40188">
        <ele>444.2</ele>
      </trkpt>
      <trkpt lat="44.7115" lon="5.40195">
        <ele>443.6</ele>
      </trkpt>
      <trkpt lat="44.71113" lon="5.40199">
        <ele>443.6</ele>
      </trkpt>
      <trkpt lat="44.71056" lon="5.40197">
        <ele>443.5</ele>
      </trkpt>
      <trkpt lat="44.71002" lon="5.40187">
        <ele>443.1</ele>
      </trkpt>
      <trkpt lat="44.70944" lon="5.40171">
        <ele>445.5</ele>
      </trkpt>
      <trkpt lat="44.70835" lon="5.40128">
        <ele>444.1</ele>
      </trkpt>
      <trkpt lat="44.70829" lon="5.40125">
        <ele>443.4</ele>
      </trkpt>
      <trkpt lat="44.70819" lon="5.40115">
        <ele>442.8</ele>
      </trkpt>
      <trkpt lat="44.70811" lon="5.401">
        <ele>442.2</ele>
      </trkpt>
      <trkpt lat="44.708" lon="5.40114">
        <ele>442.6</ele>
      </trkpt>
      <trkpt lat="44.70796" lon="5.40118">
        <ele>442.6</ele>
      </trkpt>
      <trkpt lat="44.70789" lon="5.40129">
        <ele>442.8</ele>
      </trkpt>
      <trkpt lat="44.70785" lon="5.40134">
        <ele>442.8</ele>
      </trkpt>
      <trkpt lat="44.70758" lon="5.40186">
        <ele>448.9</ele>
      </trkpt>
      <trkpt lat="44.70742" lon="5.40212">
        <ele>448.7</ele>
      </trkpt>
      <trkpt lat="44.7073" lon="5.40228">
        <ele>450.1</ele>
      </trkpt>
      <trkpt lat="44.70725" lon="5.40236">
        <ele>450.4</ele>
      </trkpt>
      <trkpt lat="44.70718" lon="5.40242">
        <ele>449.8</ele>
      </trkpt>
      <trkpt lat="44.70689" lon="5.40263">
        <ele>455.3</ele>
      </trkpt>
      <trkpt lat="44.70688" lon="5.40263">
        <ele>455</ele>
      </trkpt>
      <trkpt lat="44.70673" lon="5.40275">
        <ele>455</ele>
      </trkpt>
      <trkpt lat="44.70653" lon="5.40283">
        <ele>448.6</ele>
      </trkpt>
      <trkpt lat="44.70574" lon="5.40289">
        <ele>447.8</ele>
      </trkpt>
      <trkpt lat="44.70561" lon="5.40289">
        <ele>447.9</ele>
      </trkpt>
      <trkpt lat="44.70541" lon="5.40287">
        <ele>448</ele>
      </trkpt>
      <trkpt lat="44.70528" lon="5.40283">
        <ele>447.8</ele>
      </trkpt>
      <trkpt lat="44.7048" lon="5.40263">
        <ele>445.9</ele>
      </trkpt>
      <trkpt lat="44.7047" lon="5.4026">
        <ele>446</ele>
      </trkpt>
      <trkpt lat="44.7046" lon="5.40259">
        <ele>445.9</ele>
      </trkpt>
      <trkpt lat="44.70449" lon="5.40261">
        <ele>445.6</ele>
      </trkpt>
      <trkpt lat="44.70437" lon="5.40267">
        <ele>445.4</ele>
      </trkpt>
      <trkpt lat="44.70427" lon="5.40277">
        <ele>445.7</ele>
      </trkpt>
      <trkpt lat="44.70427" lon="5.40278">
        <ele>445.7</ele>
      </trkpt>
      <trkpt lat="44.70423" lon="5.40284">
        <ele>446.1</ele>
      </trkpt>
      <trkpt lat="44.70416" lon="5.403">
        <ele>445.9</ele>
      </trkpt>
      <trkpt lat="44.70407" lon="5.40332">
        <ele>447.9</ele>
      </trkpt>
      <trkpt lat="44.70382" lon="5.40453">
        <ele>457</ele>
      </trkpt>
      <trkpt lat="44.70384" lon="5.40542">
        <ele>460.5</ele>
      </trkpt>
      <trkpt lat="44.70378" lon="5.40585">
        <ele>462.8</ele>
      </trkpt>
      <trkpt lat="44.70376" lon="5.4061">
        <ele>463.1</ele>
      </trkpt>
      <trkpt lat="44.70379" lon="5.40657">
        <ele>462.9</ele>
      </trkpt>
      <trkpt lat="44.70375" lon="5.40738">
        <ele>462.5</ele>
      </trkpt>
      <trkpt lat="44.70361" lon="5.40834">
        <ele>461.3</ele>
      </trkpt>
      <trkpt lat="44.70354" lon="5.4086">
        <ele>461.2</ele>
      </trkpt>
      <trkpt lat="44.70179" lon="5.41286">
        <ele>469.4</ele>
      </trkpt>
      <trkpt lat="44.70109" lon="5.414">
        <ele>471.9</ele>
      </trkpt>
      <trkpt lat="44.69994" lon="5.41577">
        <ele>478.7</ele>
      </trkpt>
      <trkpt lat="44.69979" lon="5.41605">
        <ele>480.5</ele>
      </trkpt>
      <trkpt lat="44.69961" lon="5.41649">
        <ele>481.8</ele>
      </trkpt>
      <trkpt lat="44.69936" lon="5.41735">
        <ele>482.2</ele>
      </trkpt>
      <trkpt lat="44.69925" lon="5.41767">
        <ele>484.6</ele>
      </trkpt>
      <trkpt lat="44.69922" lon="5.41772">
        <ele>485.1</ele>
      </trkpt>
      <trkpt lat="44.69919" lon="5.41779">
        <ele>485.8</ele>
      </trkpt>
      <trkpt lat="44.69912" lon="5.4179">
        <ele>484.7</ele>
      </trkpt>
      <trkpt lat="44.69909" lon="5.41796">
        <ele>484.9</ele>
      </trkpt>
      <trkpt lat="44.69896" lon="5.41813">
        <ele>485.3</ele>
      </trkpt>
      <trkpt lat="44.69882" lon="5.41829">
        <ele>485.5</ele>
      </trkpt>
      <trkpt lat="44.69881" lon="5.41829">
        <ele>485.6</ele>
      </trkpt>
      <trkpt lat="44.69847" lon="5.4186">
        <ele>486.9</ele>
      </trkpt>
      <trkpt lat="44.69736" lon="5.41954">
        <ele>495.1</ele>
      </trkpt>
      <trkpt lat="44.69705" lon="5.41983">
        <ele>496.1</ele>
      </trkpt>
      <trkpt lat="44.69697" lon="5.41993">
        <ele>496.1</ele>
      </trkpt>
      <trkpt lat="44.69687" lon="5.42002">
        <ele>494.1</ele>
      </trkpt>
      <trkpt lat="44.69683" lon="5.42007">
        <ele>494.2</ele>
      </trkpt>
      <trkpt lat="44.69677" lon="5.42012">
        <ele>494.3</ele>
      </trkpt>
      <trkpt lat="44.69666" lon="5.42027">
        <ele>498.5</ele>
      </trkpt>
      <trkpt lat="44.69654" lon="5.42041">
        <ele>499</ele>
      </trkpt>
      <trkpt lat="44.69611" lon="5.421">
        <ele>495.7</ele>
      </trkpt>
      <trkpt lat="44.69595" lon="5.42127">
        <ele>495.3</ele>
      </trkpt>
      <trkpt lat="44.69586" lon="5.42145">
        <ele>495</ele>
      </trkpt>
      <trkpt lat="44.69586" lon="5.42146">
        <ele>495</ele>
      </trkpt>
      <trkpt lat="44.69401" lon="5.42537">
        <ele>509</ele>
      </trkpt>
      <trkpt lat="44.69216" lon="5.42943">
        <ele>521.5</ele>
      </trkpt>
      <trkpt lat="44.69198" lon="5.42967">
        <ele>521.1</ele>
      </trkpt>
      <trkpt lat="44.69195" lon="5.42967">
        <ele>520.9</ele>
      </trkpt>
      <trkpt lat="44.69195" lon="5.42968">
        <ele>520.9</ele>
      </trkpt>
      <trkpt lat="44.69192" lon="5.42968">
        <ele>520.7</ele>
      </trkpt>
      <trkpt lat="44.69192" lon="5.42969">
        <ele>520.7</ele>
      </trkpt>
      <trkpt lat="44.69191" lon="5.42969">
        <ele>520.7</ele>
      </trkpt>
      <trkpt lat="44.6919" lon="5.4297">
        <ele>520.6</ele>
      </trkpt>
      <trkpt lat="44.6919" lon="5.42971">
        <ele>520.6</ele>
      </trkpt>
      <trkpt lat="44.69189" lon="5.42971">
        <ele>520.6</ele>
      </trkpt>
      <trkpt lat="44.69189" lon="5.42972">
        <ele>520.5</ele>
      </trkpt>
      <trkpt lat="44.69188" lon="5.42973">
        <ele>520.5</ele>
      </trkpt>
      <trkpt lat="44.69188" lon="5.42974">
        <ele>520.5</ele>
      </trkpt>
      <trkpt lat="44.69187" lon="5.42974">
        <ele>520.4</ele>
      </trkpt>
      <trkpt lat="44.69187" lon="5.42976">
        <ele>520.4</ele>
      </trkpt>
      <trkpt lat="44.69186" lon="5.42977">
        <ele>520.3</ele>
      </trkpt>
      <trkpt lat="44.69186" lon="5.42985">
        <ele>520.1</ele>
      </trkpt>
      <trkpt lat="44.69185" lon="5.42989">
        <ele>519.9</ele>
      </trkpt>
      <trkpt lat="44.69185" lon="5.42992">
        <ele>519.8</ele>
      </trkpt>
      <trkpt lat="44.69184" lon="5.42994">
        <ele>519.7</ele>
      </trkpt>
      <trkpt lat="44.69184" lon="5.42999">
        <ele>519.6</ele>
      </trkpt>
      <trkpt lat="44.69182" lon="5.43009">
        <ele>521.3</ele>
      </trkpt>
      <trkpt lat="44.69182" lon="5.43013">
        <ele>521.7</ele>
      </trkpt>
      <trkpt lat="44.69181" lon="5.4302">
        <ele>522.2</ele>
      </trkpt>
      <trkpt lat="44.69121" lon="5.43154">
        <ele>521.9</ele>
      </trkpt>
      <trkpt lat="44.69092" lon="5.43202">
        <ele>525.8</ele>
      </trkpt>
      <trkpt lat="44.69076" lon="5.43225">
        <ele>525.4</ele>
      </trkpt>
      <trkpt lat="44.69068" lon="5.43234">
        <ele>525.7</ele>
      </trkpt>
      <trkpt lat="44.69068" lon="5.43235">
        <ele>525.8</ele>
      </trkpt>
      <trkpt lat="44.69052" lon="5.43248">
        <ele>525.4</ele>
      </trkpt>
      <trkpt lat="44.69037" lon="5.43263">
        <ele>528.3</ele>
      </trkpt>
      <trkpt lat="44.69024" lon="5.43278">
        <ele>528.4</ele>
      </trkpt>
      <trkpt lat="44.69019" lon="5.43289">
        <ele>528.7</ele>
      </trkpt>
      <trkpt lat="44.68976" lon="5.43334">
        <ele>531.4</ele>
      </trkpt>
      <trkpt lat="44.68975" lon="5.43334">
        <ele>531.5</ele>
      </trkpt>
      <trkpt lat="44.68887" lon="5.43424">
        <ele>533.6</ele>
      </trkpt>
      <trkpt lat="44.68841" lon="5.43468">
        <ele>533.5</ele>
      </trkpt>
      <trkpt lat="44.68833" lon="5.43477">
        <ele>532.7</ele>
      </trkpt>
      <trkpt lat="44.68674" lon="5.4363">
        <ele>539</ele>
      </trkpt>
      <trkpt lat="44.68671" lon="5.43632">
        <ele>539</ele>
      </trkpt>
      <trkpt lat="44.68637" lon="5.4367">
        <ele>538.3</ele>
      </trkpt>
      <trkpt lat="44.68621" lon="5.4369">
        <ele>538</ele>
      </trkpt>
      <trkpt lat="44.68591" lon="5.43734">
        <ele>536.2</ele>
      </trkpt>
      <trkpt lat="44.68564" lon="5.4378">
        <ele>533.2</ele>
      </trkpt>
      <trkpt lat="44.68529" lon="5.43855">
        <ele>533</ele>
      </trkpt>
      <trkpt lat="44.68514" lon="5.43894">
        <ele>532.2</ele>
      </trkpt>
      <trkpt lat="44.68394" lon="5.44302">
        <ele>521.1</ele>
      </trkpt>
      <trkpt lat="44.68385" lon="5.44344">
        <ele>520.6</ele>
      </trkpt>
      <trkpt lat="44.68381" lon="5.44378">
        <ele>520.4</ele>
      </trkpt>
      <trkpt lat="44.68381" lon="5.44418">
        <ele>520.1</ele>
      </trkpt>
      <trkpt lat="44.68383" lon="5.44445">
        <ele>520</ele>
      </trkpt>
      <trkpt lat="44.6843" lon="5.4481">
        <ele>524.5</ele>
      </trkpt>
      <trkpt lat="44.68449" lon="5.45135">
        <ele>525.6</ele>
      </trkpt>
      <trkpt lat="44.68464" lon="5.45265">
        <ele>524.8</ele>
      </trkpt>
      <trkpt lat="44.68469" lon="5.45294">
        <ele>524.9</ele>
      </trkpt>
      <trkpt lat="44.68488" lon="5.4538">
        <ele>525.4</ele>
      </trkpt>
      <trkpt lat="44.68492" lon="5.45393">
        <ele>525.8</ele>
      </trkpt>
      <trkpt lat="44.68498" lon="5.45422">
        <ele>527.4</ele>
      </trkpt>
      <trkpt lat="44.68502" lon="5.4545">
        <ele>530.2</ele>
      </trkpt>
      <trkpt lat="44.68508" lon="5.45555">
        <ele>531.1</ele>
      </trkpt>
      <trkpt lat="44.68514" lon="5.45611">
        <ele>531.3</ele>
      </trkpt>
      <trkpt lat="44.68522" lon="5.45655">
        <ele>531.3</ele>
      </trkpt>
      <trkpt lat="44.68553" lon="5.45782">
        <ele>532.1</ele>
      </trkpt>
      <trkpt lat="44.68558" lon="5.45795">
        <ele>532.2</ele>
      </trkpt>
      <trkpt lat="44.68562" lon="5.45809">
        <ele>532.3</ele>
      </trkpt>
      <trkpt lat="44.68658" lon="5.46036">
        <ele>534.8</ele>
      </trkpt>
      <trkpt lat="44.68668" lon="5.46072">
        <ele>537.3</ele>
      </trkpt>
      <trkpt lat="44.68668" lon="5.46076">
        <ele>537.2</ele>
      </trkpt>
      <trkpt lat="44.68671" lon="5.46083">
        <ele>537.1</ele>
      </trkpt>
      <trkpt lat="44.68673" lon="5.46107">
        <ele>537.9</ele>
      </trkpt>
      <trkpt lat="44.68714" lon="5.46411">
        <ele>537.6</ele>
      </trkpt>
      <trkpt lat="44.6872" lon="5.46439">
        <ele>537.1</ele>
      </trkpt>
      <trkpt lat="44.68728" lon="5.46466">
        <ele>537.1</ele>
      </trkpt>
      <trkpt lat="44.6873" lon="5.46469">
        <ele>537.2</ele>
      </trkpt>
      <trkpt lat="44.68733" lon="5.46479">
        <ele>537.4</ele>
      </trkpt>
      <trkpt lat="44.68767" lon="5.46555">
        <ele>538.7</ele>
      </trkpt>
      <trkpt lat="44.68842" lon="5.46751">
        <ele>541.8</ele>
      </trkpt>
      <trkpt lat="44.68848" lon="5.46761">
        <ele>542.3</ele>
      </trkpt>
      <trkpt lat="44.6885" lon="5.46774">
        <ele>542.7</ele>
      </trkpt>
      <trkpt lat="44.68905" lon="5.46933">
        <ele>545.8</ele>
      </trkpt>
      <trkpt lat="44.68918" lon="5.46962">
        <ele>547.5</ele>
      </trkpt>
      <trkpt lat="44.68962" lon="5.47075">
        <ele>547.3</ele>
      </trkpt>
      <trkpt lat="44.68974" lon="5.47093">
        <ele>546.8</ele>
      </trkpt>
      <trkpt lat="44.69133" lon="5.47507">
        <ele>552</ele>
      </trkpt>
      <trkpt lat="44.69136" lon="5.47513">
        <ele>552.1</ele>
      </trkpt>
      <trkpt lat="44.69151" lon="5.47551">
        <ele>552.2</ele>
      </trkpt>
      <trkpt lat="44.69153" lon="5.47558">
        <ele>552.4</ele>
      </trkpt>
      <trkpt lat="44.69253" lon="5.47821">
        <ele>564.6</ele>
      </trkpt>
      <trkpt lat="44.69261" lon="5.47847">
        <ele>565.6</ele>
      </trkpt>
      <trkpt lat="44.69265" lon="5.47865">
        <ele>567.5</ele>
      </trkpt>
      <trkpt lat="44.69372" lon="5.48254">
        <ele>573.4</ele>
      </trkpt>
      <trkpt lat="44.69373" lon="5.4826">
        <ele>573.3</ele>
      </trkpt>
      <trkpt lat="44.69382" lon="5.48285">
        <ele>572.9</ele>
      </trkpt>
      <trkpt lat="44.69394" lon="5.48326">
        <ele>572.1</ele>
      </trkpt>
      <trkpt lat="44.69396" lon="5.48337">
        <ele>570</ele>
      </trkpt>
      <trkpt lat="44.69406" lon="5.48371">
        <ele>569.6</ele>
      </trkpt>
      <trkpt lat="44.69411" lon="5.484">
        <ele>570.9</ele>
      </trkpt>
      <trkpt lat="44.69419" lon="5.48433">
        <ele>577.6</ele>
      </trkpt>
      <trkpt lat="44.69419" lon="5.48437">
        <ele>578.1</ele>
      </trkpt>
      <trkpt lat="44.69421" lon="5.48449">
        <ele>579</ele>
      </trkpt>
      <trkpt lat="44.69423" lon="5.48471">
        <ele>578.8</ele>
      </trkpt>
      <trkpt lat="44.69423" lon="5.48478">
        <ele>578.3</ele>
      </trkpt>
      <trkpt lat="44.69426" lon="5.48508">
        <ele>575.4</ele>
      </trkpt>
      <trkpt lat="44.69426" lon="5.48517">
        <ele>575.7</ele>
      </trkpt>
      <trkpt lat="44.69427" lon="5.48521">
        <ele>575.8</ele>
      </trkpt>
      <trkpt lat="44.69427" lon="5.48526">
        <ele>575.8</ele>
      </trkpt>
      <trkpt lat="44.69429" lon="5.48532">
        <ele>575.8</ele>
      </trkpt>
      <trkpt lat="44.69429" lon="5.48535">
        <ele>575.8</ele>
      </trkpt>
      <trkpt lat="44.6943" lon="5.48539">
        <ele>575.7</ele>
      </trkpt>
      <trkpt lat="44.69439" lon="5.48668">
        <ele>567.9</ele>
      </trkpt>
      <trkpt lat="44.6944" lon="5.48674">
        <ele>568.1</ele>
      </trkpt>
      <trkpt lat="44.69446" lon="5.48755">
        <ele>567.4</ele>
      </trkpt>
      <trkpt lat="44.69446" lon="5.4877">
        <ele>567.5</ele>
      </trkpt>
      <trkpt lat="44.69448" lon="5.48793">
        <ele>567.8</ele>
      </trkpt>
      <trkpt lat="44.69449" lon="5.489">
        <ele>569.1</ele>
      </trkpt>
      <trkpt lat="44.69444" lon="5.48951">
        <ele>571.1</ele>
      </trkpt>
      <trkpt lat="44.6944" lon="5.48976">
        <ele>571</ele>
      </trkpt>
      <trkpt lat="44.69431" lon="5.4901">
        <ele>571.5</ele>
      </trkpt>
      <trkpt lat="44.69428" lon="5.49017">
        <ele>571.8</ele>
      </trkpt>
      <trkpt lat="44.69427" lon="5.49021">
        <ele>572.2</ele>
      </trkpt>
      <trkpt lat="44.69425" lon="5.49025">
        <ele>572.5</ele>
      </trkpt>
      <trkpt lat="44.69424" lon="5.49026">
        <ele>572.5</ele>
      </trkpt>
      <trkpt lat="44.6942" lon="5.49033">
        <ele>573</ele>
      </trkpt>
      <trkpt lat="44.69419" lon="5.49036">
        <ele>573.1</ele>
      </trkpt>
      <trkpt lat="44.69412" lon="5.49048">
        <ele>568.2</ele>
      </trkpt>
      <trkpt lat="44.69407" lon="5.49052">
        <ele>568.3</ele>
      </trkpt>
      <trkpt lat="44.69401" lon="5.49058">
        <ele>568.4</ele>
      </trkpt>
      <trkpt lat="44.69382" lon="5.4907">
        <ele>568</ele>
      </trkpt>
      <trkpt lat="44.69377" lon="5.49072">
        <ele>567.7</ele>
      </trkpt>
      <trkpt lat="44.69373" lon="5.49072">
        <ele>567.5</ele>
      </trkpt>
      <trkpt lat="44.69368" lon="5.49073">
        <ele>567.3</ele>
      </trkpt>
      <trkpt lat="44.69352" lon="5.49073">
        <ele>566.7</ele>
      </trkpt>
      <trkpt lat="44.69344" lon="5.49071">
        <ele>566.5</ele>
      </trkpt>
      <trkpt lat="44.69342" lon="5.49071">
        <ele>566.5</ele>
      </trkpt>
      <trkpt lat="44.69334" lon="5.49069">
        <ele>566.4</ele>
      </trkpt>
      <trkpt lat="44.69329" lon="5.49067">
        <ele>567.3</ele>
      </trkpt>
      <trkpt lat="44.69328" lon="5.49066">
        <ele>567.3</ele>
      </trkpt>
      <trkpt lat="44.69324" lon="5.49065">
        <ele>567.5</ele>
      </trkpt>
      <trkpt lat="44.69319" lon="5.49063">
        <ele>567.7</ele>
      </trkpt>
      <trkpt lat="44.69318" lon="5.49063">
        <ele>567.8</ele>
      </trkpt>
      <trkpt lat="44.69309" lon="5.49059">
        <ele>568.2</ele>
      </trkpt>
      <trkpt lat="44.69298" lon="5.49056">
        <ele>568.7</ele>
      </trkpt>
      <trkpt lat="44.69294" lon="5.49056">
        <ele>568.9</ele>
      </trkpt>
      <trkpt lat="44.69288" lon="5.49054">
        <ele>569.2</ele>
      </trkpt>
      <trkpt lat="44.6928" lon="5.49054">
        <ele>569.5</ele>
      </trkpt>
      <trkpt lat="44.6927" lon="5.49056">
        <ele>569.6</ele>
      </trkpt>
      <trkpt lat="44.69267" lon="5.49056">
        <ele>569.7</ele>
      </trkpt>
      <trkpt lat="44.69265" lon="5.49057">
        <ele>569.6</ele>
      </trkpt>
      <trkpt lat="44.69263" lon="5.49057">
        <ele>569.6</ele>
      </trkpt>
      <trkpt lat="44.69255" lon="5.49062">
        <ele>569.2</ele>
      </trkpt>
      <trkpt lat="44.6925" lon="5.49064">
        <ele>569.1</ele>
      </trkpt>
      <trkpt lat="44.69239" lon="5.49071">
        <ele>576.3</ele>
      </trkpt>
      <trkpt lat="44.69231" lon="5.49075">
        <ele>577.9</ele>
      </trkpt>
      <trkpt lat="44.69212" lon="5.49107">
        <ele>570.8</ele>
      </trkpt>
      <trkpt lat="44.6921" lon="5.49112">
        <ele>570.7</ele>
      </trkpt>
      <trkpt lat="44.69207" lon="5.49117">
        <ele>570.6</ele>
      </trkpt>
      <trkpt lat="44.69202" lon="5.4913">
        <ele>570</ele>
      </trkpt>
      <trkpt lat="44.69198" lon="5.49138">
        <ele>569.6</ele>
      </trkpt>
      <trkpt lat="44.69186" lon="5.49185">
        <ele>565.1</ele>
      </trkpt>
      <trkpt lat="44.69162" lon="5.49372">
        <ele>569.7</ele>
      </trkpt>
      <trkpt lat="44.69153" lon="5.49428">
        <ele>570.2</ele>
      </trkpt>
      <trkpt lat="44.69145" lon="5.49459">
        <ele>570.6</ele>
      </trkpt>
      <trkpt lat="44.6908" lon="5.49635">
        <ele>573</ele>
      </trkpt>
      <trkpt lat="44.6906" lon="5.49699">
        <ele>573.6</ele>
      </trkpt>
      <trkpt lat="44.69054" lon="5.49725">
        <ele>573.6</ele>
      </trkpt>
      <trkpt lat="44.69046" lon="5.49751">
        <ele>574</ele>
      </trkpt>
      <trkpt lat="44.69031" lon="5.4979">
        <ele>574.9</ele>
      </trkpt>
      <trkpt lat="44.69012" lon="5.49828">
        <ele>576.6</ele>
      </trkpt>
      <trkpt lat="44.68994" lon="5.49869">
        <ele>579</ele>
      </trkpt>
      <trkpt lat="44.68977" lon="5.49902">
        <ele>578.9</ele>
      </trkpt>
      <trkpt lat="44.68948" lon="5.49944">
        <ele>579.9</ele>
      </trkpt>
      <trkpt lat="44.68909" lon="5.49994">
        <ele>584.1</ele>
      </trkpt>
      <trkpt lat="44.68893" lon="5.50023">
        <ele>583.8</ele>
      </trkpt>
      <trkpt lat="44.68837" lon="5.5014">
        <ele>583</ele>
      </trkpt>
      <trkpt lat="44.68823" lon="5.50162">
        <ele>586.4</ele>
      </trkpt>
      <trkpt lat="44.68775" lon="5.50228">
        <ele>587.4</ele>
      </trkpt>
      <trkpt lat="44.68768" lon="5.50239">
        <ele>588</ele>
      </trkpt>
      <trkpt lat="44.68756" lon="5.50262">
        <ele>587.9</ele>
      </trkpt>
      <trkpt lat="44.68752" lon="5.50272">
        <ele>587.2</ele>
      </trkpt>
      <trkpt lat="44.68748" lon="5.50279">
        <ele>596.8</ele>
      </trkpt>
      <trkpt lat="44.68748" lon="5.5028">
        <ele>596.8</ele>
      </trkpt>
      <trkpt lat="44.6874" lon="5.50299">
        <ele>597.5</ele>
      </trkpt>
      <trkpt lat="44.68714" lon="5.50371">
        <ele>603.2</ele>
      </trkpt>
      <trkpt lat="44.68711" lon="5.50391">
        <ele>604.2</ele>
      </trkpt>
      <trkpt lat="44.68711" lon="5.50411">
        <ele>604.5</ele>
      </trkpt>
      <trkpt lat="44.68712" lon="5.50414">
        <ele>604.2</ele>
      </trkpt>
      <trkpt lat="44.68714" lon="5.50427">
        <ele>608.3</ele>
      </trkpt>
      <trkpt lat="44.68724" lon="5.50457">
        <ele>608.1</ele>
      </trkpt>
      <trkpt lat="44.68736" lon="5.50483">
        <ele>605.3</ele>
      </trkpt>
      <trkpt lat="44.68753" lon="5.50513">
        <ele>596.3</ele>
      </trkpt>
      <trkpt lat="44.68783" lon="5.50572">
        <ele>597.4</ele>
      </trkpt>
      <trkpt lat="44.68794" lon="5.50598">
        <ele>600.1</ele>
      </trkpt>
      <trkpt lat="44.68795" lon="5.50602">
        <ele>600.1</ele>
      </trkpt>
      <trkpt lat="44.68795" lon="5.50608">
        <ele>600.3</ele>
      </trkpt>
      <trkpt lat="44.68796" lon="5.50613">
        <ele>600.3</ele>
      </trkpt>
      <trkpt lat="44.68796" lon="5.50625">
        <ele>600.7</ele>
      </trkpt>
      <trkpt lat="44.68795" lon="5.5063">
        <ele>601.1</ele>
      </trkpt>
      <trkpt lat="44.68795" lon="5.50635">
        <ele>601.2</ele>
      </trkpt>
      <trkpt lat="44.68793" lon="5.50644">
        <ele>601.9</ele>
      </trkpt>
      <trkpt lat="44.6879" lon="5.50675">
        <ele>606.1</ele>
      </trkpt>
      <trkpt lat="44.68791" lon="5.50701">
        <ele>606.2</ele>
      </trkpt>
      <trkpt lat="44.68804" lon="5.50775">
        <ele>605.9</ele>
      </trkpt>
      <trkpt lat="44.68807" lon="5.50808">
        <ele>605.7</ele>
      </trkpt>
      <trkpt lat="44.68808" lon="5.50849">
        <ele>607.7</ele>
      </trkpt>
      <trkpt lat="44.68817" lon="5.50906">
        <ele>608.5</ele>
      </trkpt>
      <trkpt lat="44.68828" lon="5.50955">
        <ele>612.1</ele>
      </trkpt>
      <trkpt lat="44.68828" lon="5.50956">
        <ele>612.2</ele>
      </trkpt>
      <trkpt lat="44.68832" lon="5.50974">
        <ele>611.2</ele>
      </trkpt>
      <trkpt lat="44.68833" lon="5.50984">
        <ele>609.6</ele>
      </trkpt>
      <trkpt lat="44.68832" lon="5.50995">
        <ele>606.4</ele>
      </trkpt>
      <trkpt lat="44.68829" lon="5.51008">
        <ele>607.2</ele>
      </trkpt>
      <trkpt lat="44.68778" lon="5.51145">
        <ele>610.9</ele>
      </trkpt>
      <trkpt lat="44.6877" lon="5.5116">
        <ele>613.8</ele>
      </trkpt>
      <trkpt lat="44.68769" lon="5.51161">
        <ele>614.2</ele>
      </trkpt>
      <trkpt lat="44.68753" lon="5.51188">
        <ele>609.4</ele>
      </trkpt>
      <trkpt lat="44.68748" lon="5.512">
        <ele>630.1</ele>
      </trkpt>
      <trkpt lat="44.68738" lon="5.5124">
        <ele>620.3</ele>
      </trkpt>
      <trkpt lat="44.68709" lon="5.51323">
        <ele>621.3</ele>
      </trkpt>
      <trkpt lat="44.68706" lon="5.51336">
        <ele>611.7</ele>
      </trkpt>
      <trkpt lat="44.68701" lon="5.5137">
        <ele>609.8</ele>
      </trkpt>
      <trkpt lat="44.68692" lon="5.51392">
        <ele>608.9</ele>
      </trkpt>
      <trkpt lat="44.68681" lon="5.51403">
        <ele>609.6</ele>
      </trkpt>
      <trkpt lat="44.68647" lon="5.51425">
        <ele>617.8</ele>
      </trkpt>
      <trkpt lat="44.68634" lon="5.51439">
        <ele>620.9</ele>
      </trkpt>
      <trkpt lat="44.68623" lon="5.51459">
        <ele>621.1</ele>
      </trkpt>
      <trkpt lat="44.68594" lon="5.51534">
        <ele>607</ele>
      </trkpt>
      <trkpt lat="44.68587" lon="5.51547">
        <ele>605.1</ele>
      </trkpt>
      <trkpt lat="44.68562" lon="5.51583">
        <ele>617.2</ele>
      </trkpt>
      <trkpt lat="44.68548" lon="5.51599">
        <ele>606.6</ele>
      </trkpt>
      <trkpt lat="44.68442" lon="5.51737">
        <ele>599.5</ele>
      </trkpt>
      <trkpt lat="44.68439" lon="5.51742">
        <ele>599.3</ele>
      </trkpt>
      <trkpt lat="44.68431" lon="5.51751">
        <ele>596.7</ele>
      </trkpt>
      <trkpt lat="44.68286" lon="5.51939">
        <ele>607.8</ele>
      </trkpt>
      <trkpt lat="44.6826" lon="5.51967">
        <ele>607.4</ele>
      </trkpt>
      <trkpt lat="44.68145" lon="5.52073">
        <ele>620.8</ele>
      </trkpt>
      <trkpt lat="44.68121" lon="5.52097">
        <ele>616</ele>
      </trkpt>
      <trkpt lat="44.68116" lon="5.52101">
        <ele>616.6</ele>
      </trkpt>
      <trkpt lat="44.6811" lon="5.52108">
        <ele>616.9</ele>
      </trkpt>
      <trkpt lat="44.68107" lon="5.52115">
        <ele>616.7</ele>
      </trkpt>
      <trkpt lat="44.68102" lon="5.52124">
        <ele>616.2</ele>
      </trkpt>
      <trkpt lat="44.68099" lon="5.52131">
        <ele>615.8</ele>
      </trkpt>
      <trkpt lat="44.68098" lon="5.52141">
        <ele>615</ele>
      </trkpt>
      <trkpt lat="44.68098" lon="5.52157">
        <ele>613.9</ele>
      </trkpt>
      <trkpt lat="44.68099" lon="5.52167">
        <ele>614.2</ele>
      </trkpt>
      <trkpt lat="44.68104" lon="5.52185">
        <ele>615.3</ele>
      </trkpt>
      <trkpt lat="44.68113" lon="5.52208">
        <ele>616.6</ele>
      </trkpt>
      <trkpt lat="44.68118" lon="5.52227">
        <ele>617.6</ele>
      </trkpt>
      <trkpt lat="44.68117" lon="5.52262">
        <ele>625.6</ele>
      </trkpt>
      <trkpt lat="44.68106" lon="5.5229">
        <ele>625.9</ele>
      </trkpt>
      <trkpt lat="44.68056" lon="5.52402">
        <ele>619.9</ele>
      </trkpt>
      <trkpt lat="44.68052" lon="5.52413">
        <ele>620</ele>
      </trkpt>
      <trkpt lat="44.68049" lon="5.52425">
        <ele>623.5</ele>
      </trkpt>
      <trkpt lat="44.68047" lon="5.52464">
        <ele>624.4</ele>
      </trkpt>
      <trkpt lat="44.68061" lon="5.52557">
        <ele>629.3</ele>
      </trkpt>
      <trkpt lat="44.68061" lon="5.52568">
        <ele>629.8</ele>
      </trkpt>
      <trkpt lat="44.6806" lon="5.52576">
        <ele>630.1</ele>
      </trkpt>
      <trkpt lat="44.68056" lon="5.52593">
        <ele>631.2</ele>
      </trkpt>
      <trkpt lat="44.68043" lon="5.52619">
        <ele>629.8</ele>
      </trkpt>
      <trkpt lat="44.67942" lon="5.52782">
        <ele>637.4</ele>
      </trkpt>
      <trkpt lat="44.67871" lon="5.52904">
        <ele>631.4</ele>
      </trkpt>
      <trkpt lat="44.67839" lon="5.52954">
        <ele>637.4</ele>
      </trkpt>
      <trkpt lat="44.67823" lon="5.52982">
        <ele>634.7</ele>
      </trkpt>
      <trkpt lat="44.67799" lon="5.53018">
        <ele>640.3</ele>
      </trkpt>
      <trkpt lat="44.67774" lon="5.53052">
        <ele>640.1</ele>
      </trkpt>
      <trkpt lat="44.67759" lon="5.53069">
        <ele>636.1</ele>
      </trkpt>
      <trkpt lat="44.67758" lon="5.53071">
        <ele>635.4</ele>
      </trkpt>
      <trkpt lat="44.67742" lon="5.5309">
        <ele>636.3</ele>
      </trkpt>
      <trkpt lat="44.67731" lon="5.531">
        <ele>642.5</ele>
      </trkpt>
      <trkpt lat="44.67705" lon="5.5312">
        <ele>647.1</ele>
      </trkpt>
      <trkpt lat="44.67638" lon="5.53165">
        <ele>643.8</ele>
      </trkpt>
      <trkpt lat="44.67621" lon="5.53183">
        <ele>648.4</ele>
      </trkpt>
      <trkpt lat="44.67621" lon="5.53184">
        <ele>648.5</ele>
      </trkpt>
      <trkpt lat="44.67611" lon="5.53202">
        <ele>649.4</ele>
      </trkpt>
      <trkpt lat="44.67611" lon="5.53205">
        <ele>649.6</ele>
      </trkpt>
      <trkpt lat="44.67608" lon="5.53218">
        <ele>650.1</ele>
      </trkpt>
      <trkpt lat="44.67604" lon="5.53246">
        <ele>649.6</ele>
      </trkpt>
      <trkpt lat="44.67601" lon="5.5326">
        <ele>656.1</ele>
      </trkpt>
      <trkpt lat="44.67548" lon="5.53385">
        <ele>650.9</ele>
      </trkpt>
      <trkpt lat="44.67538" lon="5.53412">
        <ele>650.1</ele>
      </trkpt>
      <trkpt lat="44.67534" lon="5.53426">
        <ele>648</ele>
      </trkpt>
      <trkpt lat="44.67534" lon="5.53428">
        <ele>648</ele>
      </trkpt>
      <trkpt lat="44.67532" lon="5.53435">
        <ele>648</ele>
      </trkpt>
      <trkpt lat="44.6753" lon="5.53451">
        <ele>648</ele>
      </trkpt>
      <trkpt lat="44.67529" lon="5.53453">
        <ele>648</ele>
      </trkpt>
      <trkpt lat="44.67526" lon="5.53471">
        <ele>647.7</ele>
      </trkpt>
      <trkpt lat="44.67526" lon="5.53476">
        <ele>647.5</ele>
      </trkpt>
      <trkpt lat="44.67522" lon="5.53498">
        <ele>646.5</ele>
      </trkpt>
      <trkpt lat="44.67521" lon="5.535">
        <ele>654</ele>
      </trkpt>
      <trkpt lat="44.6752" lon="5.53506">
        <ele>654.3</ele>
      </trkpt>
      <trkpt lat="44.67517" lon="5.53516">
        <ele>655.6</ele>
      </trkpt>
      <trkpt lat="44.67514" lon="5.53523">
        <ele>657</ele>
      </trkpt>
      <trkpt lat="44.67513" lon="5.53524">
        <ele>657.2</ele>
      </trkpt>
      <trkpt lat="44.67504" lon="5.5354">
        <ele>661.2</ele>
      </trkpt>
      <trkpt lat="44.67493" lon="5.53553">
        <ele>658.8</ele>
      </trkpt>
      <trkpt lat="44.67468" lon="5.53576">
        <ele>659.4</ele>
      </trkpt>
      <trkpt lat="44.6746" lon="5.53582">
        <ele>658.4</ele>
      </trkpt>
      <trkpt lat="44.67457" lon="5.53583">
        <ele>658</ele>
      </trkpt>
      <trkpt lat="44.67447" lon="5.53589">
        <ele>677.5</ele>
      </trkpt>
      <trkpt lat="44.67424" lon="5.53595">
        <ele>669</ele>
      </trkpt>
      <trkpt lat="44.67408" lon="5.53595">
        <ele>664.1</ele>
      </trkpt>
      <trkpt lat="44.67391" lon="5.53591">
        <ele>667.3</ele>
      </trkpt>
      <trkpt lat="44.67367" lon="5.53579">
        <ele>651.1</ele>
      </trkpt>
      <trkpt lat="44.67354" lon="5.5357">
        <ele>650.7</ele>
      </trkpt>
      <trkpt lat="44.67351" lon="5.53569">
        <ele>650.7</ele>
      </trkpt>
      <trkpt lat="44.67316" lon="5.53544">
        <ele>648.2</ele>
      </trkpt>
      <trkpt lat="44.67305" lon="5.53538">
        <ele>648</ele>
      </trkpt>
      <trkpt lat="44.67303" lon="5.53536">
        <ele>648</ele>
      </trkpt>
      <trkpt lat="44.67296" lon="5.53533">
        <ele>648</ele>
      </trkpt>
      <trkpt lat="44.67283" lon="5.53529">
        <ele>648</ele>
      </trkpt>
      <trkpt lat="44.67271" lon="5.53527">
        <ele>648.1</ele>
      </trkpt>
      <trkpt lat="44.6726" lon="5.53527">
        <ele>648.1</ele>
      </trkpt>
      <trkpt lat="44.67252" lon="5.53531">
        <ele>648</ele>
      </trkpt>
      <trkpt lat="44.67248" lon="5.53534">
        <ele>656</ele>
      </trkpt>
      <trkpt lat="44.67242" lon="5.53544">
        <ele>656.1</ele>
      </trkpt>
      <trkpt lat="44.6724" lon="5.53557">
        <ele>654.9</ele>
      </trkpt>
      <trkpt lat="44.6724" lon="5.53608">
        <ele>653</ele>
      </trkpt>
      <trkpt lat="44.67238" lon="5.53625">
        <ele>655.6</ele>
      </trkpt>
      <trkpt lat="44.67232" lon="5.53649">
        <ele>658.9</ele>
      </trkpt>
      <trkpt lat="44.67222" lon="5.53675">
        <ele>663.9</ele>
      </trkpt>
      <trkpt lat="44.67148" lon="5.53839">
        <ele>658.5</ele>
      </trkpt>
      <trkpt lat="44.67146" lon="5.53841">
        <ele>658.8</ele>
      </trkpt>
      <trkpt lat="44.6714" lon="5.53851">
        <ele>659.8</ele>
      </trkpt>
      <trkpt lat="44.6707" lon="5.53944">
        <ele>660.4</ele>
      </trkpt>
      <trkpt lat="44.66951" lon="5.54093">
        <ele>667.4</ele>
      </trkpt>
      <trkpt lat="44.66948" lon="5.54098">
        <ele>667.6</ele>
      </trkpt>
      <trkpt lat="44.66852" lon="5.54219">
        <ele>672.2</ele>
      </trkpt>
      <trkpt lat="44.66839" lon="5.54238">
        <ele>667.7</ele>
      </trkpt>
      <trkpt lat="44.66834" lon="5.54248">
        <ele>663.2</ele>
      </trkpt>
      <trkpt lat="44.6683" lon="5.54254">
        <ele>665.4</ele>
      </trkpt>
      <trkpt lat="44.6682" lon="5.54275">
        <ele>673.5</ele>
      </trkpt>
      <trkpt lat="44.6681" lon="5.543">
        <ele>675.8</ele>
      </trkpt>
      <trkpt lat="44.66804" lon="5.5432">
        <ele>675.8</ele>
      </trkpt>
      <trkpt lat="44.66799" lon="5.54345">
        <ele>674.8</ele>
      </trkpt>
      <trkpt lat="44.66799" lon="5.54357">
        <ele>675.1</ele>
      </trkpt>
      <trkpt lat="44.66803" lon="5.54369">
        <ele>674.8</ele>
      </trkpt>
      <trkpt lat="44.66806" lon="5.54375">
        <ele>674.5</ele>
      </trkpt>
      <trkpt lat="44.66809" lon="5.54379">
        <ele>674.1</ele>
      </trkpt>
      <trkpt lat="44.66826" lon="5.54394">
        <ele>672</ele>
      </trkpt>
      <trkpt lat="44.66832" lon="5.54404">
        <ele>670.3</ele>
      </trkpt>
      <trkpt lat="44.66836" lon="5.54413">
        <ele>671.2</ele>
      </trkpt>
      <trkpt lat="44.66838" lon="5.5442">
        <ele>674</ele>
      </trkpt>
      <trkpt lat="44.66838" lon="5.54423">
        <ele>676.2</ele>
      </trkpt>
      <trkpt lat="44.66839" lon="5.54428">
        <ele>680.3</ele>
      </trkpt>
      <trkpt lat="44.66838" lon="5.54448">
        <ele>689.9</ele>
      </trkpt>
      <trkpt lat="44.66834" lon="5.54463">
        <ele>693</ele>
      </trkpt>
      <trkpt lat="44.66831" lon="5.54471">
        <ele>681.3</ele>
      </trkpt>
      <trkpt lat="44.66831" lon="5.54472">
        <ele>681.5</ele>
      </trkpt>
      <trkpt lat="44.6682" lon="5.54491">
        <ele>684.3</ele>
      </trkpt>
      <trkpt lat="44.66807" lon="5.54508">
        <ele>697.1</ele>
      </trkpt>
      <trkpt lat="44.66806" lon="5.5451">
        <ele>697.4</ele>
      </trkpt>
      <trkpt lat="44.66777" lon="5.54537">
        <ele>697.9</ele>
      </trkpt>
      <trkpt lat="44.66762" lon="5.54549">
        <ele>696.9</ele>
      </trkpt>
      <trkpt lat="44.66762" lon="5.5455">
        <ele>697</ele>
      </trkpt>
      <trkpt lat="44.66731" lon="5.54576">
        <ele>689.6</ele>
      </trkpt>
      <trkpt lat="44.66716" lon="5.54591">
        <ele>700.2</ele>
      </trkpt>
      <trkpt lat="44.66713" lon="5.54595">
        <ele>700.8</ele>
      </trkpt>
      <trkpt lat="44.66687" lon="5.54623">
        <ele>703.2</ele>
      </trkpt>
      <trkpt lat="44.66673" lon="5.54632">
        <ele>703.3</ele>
      </trkpt>
      <trkpt lat="44.66671" lon="5.54632">
        <ele>703.1</ele>
      </trkpt>
      <trkpt lat="44.66669" lon="5.54634">
        <ele>703.2</ele>
      </trkpt>
      <trkpt lat="44.66655" lon="5.54639">
        <ele>691.2</ele>
      </trkpt>
      <trkpt lat="44.66654" lon="5.54639">
        <ele>691</ele>
      </trkpt>
      <trkpt lat="44.66637" lon="5.54646">
        <ele>689.5</ele>
      </trkpt>
      <trkpt lat="44.66636" lon="5.54646">
        <ele>689.3</ele>
      </trkpt>
      <trkpt lat="44.66623" lon="5.54654">
        <ele>687.5</ele>
      </trkpt>
      <trkpt lat="44.6662" lon="5.54655">
        <ele>687.1</ele>
      </trkpt>
      <trkpt lat="44.66613" lon="5.5466">
        <ele>686</ele>
      </trkpt>
      <trkpt lat="44.6661" lon="5.54663">
        <ele>685.5</ele>
      </trkpt>
      <trkpt lat="44.66609" lon="5.54665">
        <ele>685.3</ele>
      </trkpt>
      <trkpt lat="44.66607" lon="5.54667">
        <ele>688.2</ele>
      </trkpt>
      <trkpt lat="44.66606" lon="5.5467">
        <ele>688</ele>
      </trkpt>
      <trkpt lat="44.66606" lon="5.54686">
        <ele>689.1</ele>
      </trkpt>
      <trkpt lat="44.66608" lon="5.54695">
        <ele>690</ele>
      </trkpt>
      <trkpt lat="44.66608" lon="5.54698">
        <ele>690.2</ele>
      </trkpt>
      <trkpt lat="44.66611" lon="5.54714">
        <ele>691</ele>
      </trkpt>
      <trkpt lat="44.66613" lon="5.5472">
        <ele>691.3</ele>
      </trkpt>
      <trkpt lat="44.66625" lon="5.54771">
        <ele>695.7</ele>
      </trkpt>
      <trkpt lat="44.66625" lon="5.54785">
        <ele>695.9</ele>
      </trkpt>
      <trkpt lat="44.66641" lon="5.5483">
        <ele>697.9</ele>
      </trkpt>
      <trkpt lat="44.66644" lon="5.54836">
        <ele>698.6</ele>
      </trkpt>
      <trkpt lat="44.667" lon="5.54977">
        <ele>701.2</ele>
      </trkpt>
      <trkpt lat="44.66702" lon="5.54985">
        <ele>701</ele>
      </trkpt>
      <trkpt lat="44.66752" lon="5.55118">
        <ele>704.2</ele>
      </trkpt>
      <trkpt lat="44.66818" lon="5.5527">
        <ele>701.5</ele>
      </trkpt>
      <trkpt lat="44.6683" lon="5.5529">
        <ele>700.9</ele>
      </trkpt>
      <trkpt lat="44.66927" lon="5.55434">
        <ele>705.3</ele>
      </trkpt>
      <trkpt lat="44.66956" lon="5.5547">
        <ele>709.8</ele>
      </trkpt>
      <trkpt lat="44.66957" lon="5.55472">
        <ele>709.7</ele>
      </trkpt>
      <trkpt lat="44.67047" lon="5.55588">
        <ele>709.4</ele>
      </trkpt>
      <trkpt lat="44.67059" lon="5.55599">
        <ele>711</ele>
      </trkpt>
      <trkpt lat="44.67079" lon="5.55612">
        <ele>711.3</ele>
      </trkpt>
      <trkpt lat="44.6708" lon="5.55612">
        <ele>711.3</ele>
      </trkpt>
      <trkpt lat="44.67097" lon="5.55618">
        <ele>718.7</ele>
      </trkpt>
      <trkpt lat="44.67098" lon="5.55618">
        <ele>718.8</ele>
      </trkpt>
      <trkpt lat="44.67116" lon="5.55622">
        <ele>720.2</ele>
      </trkpt>
      <trkpt lat="44.67117" lon="5.55622">
        <ele>720.3</ele>
      </trkpt>
      <trkpt lat="44.67146" lon="5.55629">
        <ele>721.8</ele>
      </trkpt>
      <trkpt lat="44.67163" lon="5.55639">
        <ele>717.7</ele>
      </trkpt>
      <trkpt lat="44.6717" lon="5.55645">
        <ele>729.8</ele>
      </trkpt>
      <trkpt lat="44.67181" lon="5.55663">
        <ele>722.5</ele>
      </trkpt>
      <trkpt lat="44.67186" lon="5.55678">
        <ele>711.2</ele>
      </trkpt>
      <trkpt lat="44.67193" lon="5.55714">
        <ele>713</ele>
      </trkpt>
      <trkpt lat="44.67197" lon="5.55758">
        <ele>706.5</ele>
      </trkpt>
      <trkpt lat="44.67198" lon="5.55762">
        <ele>707</ele>
      </trkpt>
      <trkpt lat="44.67199" lon="5.55771">
        <ele>707.7</ele>
      </trkpt>
      <trkpt lat="44.67202" lon="5.55782">
        <ele>708.7</ele>
      </trkpt>
      <trkpt lat="44.67204" lon="5.55786">
        <ele>709</ele>
      </trkpt>
      <trkpt lat="44.67214" lon="5.55799">
        <ele>709.8</ele>
      </trkpt>
      <trkpt lat="44.67219" lon="5.55804">
        <ele>709.9</ele>
      </trkpt>
      <trkpt lat="44.67239" lon="5.55817">
        <ele>709.4</ele>
      </trkpt>
      <trkpt lat="44.67262" lon="5.55828">
        <ele>721.9</ele>
      </trkpt>
      <trkpt lat="44.67264" lon="5.5583">
        <ele>723</ele>
      </trkpt>
      <trkpt lat="44.67281" lon="5.55838">
        <ele>719.8</ele>
      </trkpt>
      <trkpt lat="44.67289" lon="5.55843">
        <ele>722.4</ele>
      </trkpt>
      <trkpt lat="44.67294" lon="5.55847">
        <ele>723.9</ele>
      </trkpt>
      <trkpt lat="44.67297" lon="5.55851">
        <ele>724.4</ele>
      </trkpt>
      <trkpt lat="44.67297" lon="5.55852">
        <ele>724.3</ele>
      </trkpt>
      <trkpt lat="44.67302" lon="5.55858">
        <ele>724.8</ele>
      </trkpt>
      <trkpt lat="44.67308" lon="5.55869">
        <ele>723.5</ele>
      </trkpt>
      <trkpt lat="44.67309" lon="5.55869">
        <ele>723.7</ele>
      </trkpt>
      <trkpt lat="44.67326" lon="5.55912">
        <ele>713.2</ele>
      </trkpt>
      <trkpt lat="44.67326" lon="5.55913">
        <ele>713</ele>
      </trkpt>
      <trkpt lat="44.67336" lon="5.55935">
        <ele>718.4</ele>
      </trkpt>
      <trkpt lat="44.67342" lon="5.55941">
        <ele>720.3</ele>
      </trkpt>
      <trkpt lat="44.67351" lon="5.55948">
        <ele>722.4</ele>
      </trkpt>
      <trkpt lat="44.67354" lon="5.55949">
        <ele>723</ele>
      </trkpt>
      <trkpt lat="44.67368" lon="5.55958">
        <ele>725.8</ele>
      </trkpt>
      <trkpt lat="44.67368" lon="5.55959">
        <ele>725.7</ele>
      </trkpt>
      <trkpt lat="44.67377" lon="5.55969">
        <ele>726.8</ele>
      </trkpt>
      <trkpt lat="44.67381" lon="5.55975">
        <ele>727.2</ele>
      </trkpt>
      <trkpt lat="44.67383" lon="5.55977">
        <ele>727.5</ele>
      </trkpt>
      <trkpt lat="44.67389" lon="5.55991">
        <ele>728.1</ele>
      </trkpt>
      <trkpt lat="44.6739" lon="5.55997">
        <ele>728.2</ele>
      </trkpt>
      <trkpt lat="44.67391" lon="5.55998">
        <ele>728.4</ele>
      </trkpt>
      <trkpt lat="44.67392" lon="5.56007">
        <ele>724</ele>
      </trkpt>
      <trkpt lat="44.67392" lon="5.56112">
        <ele>732.4</ele>
      </trkpt>
      <trkpt lat="44.67395" lon="5.56137">
        <ele>733.4</ele>
      </trkpt>
      <trkpt lat="44.67402" lon="5.56157">
        <ele>728.2</ele>
      </trkpt>
      <trkpt lat="44.67413" lon="5.56172">
        <ele>727.4</ele>
      </trkpt>
      <trkpt lat="44.67419" lon="5.56178">
        <ele>724.5</ele>
      </trkpt>
      <trkpt lat="44.67425" lon="5.56182">
        <ele>728</ele>
      </trkpt>
      <trkpt lat="44.67434" lon="5.56185">
        <ele>731.3</ele>
      </trkpt>
      <trkpt lat="44.67441" lon="5.56186">
        <ele>733.1</ele>
      </trkpt>
      <trkpt lat="44.67444" lon="5.56187">
        <ele>733.9</ele>
      </trkpt>
      <trkpt lat="44.67459" lon="5.56187">
        <ele>735.9</ele>
      </trkpt>
      <trkpt lat="44.67507" lon="5.5619">
        <ele>739.3</ele>
      </trkpt>
      <trkpt lat="44.67513" lon="5.56191">
        <ele>739.9</ele>
      </trkpt>
      <trkpt lat="44.67585" lon="5.56194">
        <ele>740.3</ele>
      </trkpt>
      <trkpt lat="44.6759" lon="5.56195">
        <ele>740.2</ele>
      </trkpt>
      <trkpt lat="44.67604" lon="5.56193">
        <ele>740</ele>
      </trkpt>
      <trkpt lat="44.67638" lon="5.56181">
        <ele>741.1</ele>
      </trkpt>
      <trkpt lat="44.67648" lon="5.5618">
        <ele>742.1</ele>
      </trkpt>
      <trkpt lat="44.67658" lon="5.5618">
        <ele>743.4</ele>
      </trkpt>
      <trkpt lat="44.67668" lon="5.56182">
        <ele>746</ele>
      </trkpt>
      <trkpt lat="44.67673" lon="5.56185">
        <ele>745.5</ele>
      </trkpt>
      <trkpt lat="44.67676" lon="5.56186">
        <ele>745.4</ele>
      </trkpt>
      <trkpt lat="44.67682" lon="5.56191">
        <ele>744.7</ele>
      </trkpt>
      <trkpt lat="44.67689" lon="5.56199">
        <ele>743.8</ele>
      </trkpt>
      <trkpt lat="44.67696" lon="5.56209">
        <ele>742.8</ele>
      </trkpt>
      <trkpt lat="44.677" lon="5.56218">
        <ele>741.9</ele>
      </trkpt>
      <trkpt lat="44.67705" lon="5.5624">
        <ele>740.2</ele>
      </trkpt>
      <trkpt lat="44.67705" lon="5.56254">
        <ele>737</ele>
      </trkpt>
      <trkpt lat="44.67703" lon="5.56265">
        <ele>737.1</ele>
      </trkpt>
      <trkpt lat="44.67702" lon="5.56267">
        <ele>737.1</ele>
      </trkpt>
      <trkpt lat="44.67699" lon="5.56277">
        <ele>737.3</ele>
      </trkpt>
      <trkpt lat="44.67685" lon="5.56304">
        <ele>737.4</ele>
      </trkpt>
      <trkpt lat="44.67679" lon="5.56318">
        <ele>736.7</ele>
      </trkpt>
      <trkpt lat="44.67677" lon="5.56328">
        <ele>735.7</ele>
      </trkpt>
      <trkpt lat="44.67679" lon="5.56338">
        <ele>737.5</ele>
      </trkpt>
      <trkpt lat="44.67681" lon="5.56341">
        <ele>738.2</ele>
      </trkpt>
      <trkpt lat="44.67683" lon="5.56346">
        <ele>739.1</ele>
      </trkpt>
      <trkpt lat="44.67693" lon="5.56356">
        <ele>741.2</ele>
      </trkpt>
      <trkpt lat="44.67713" lon="5.5637">
        <ele>743.1</ele>
      </trkpt>
      <trkpt lat="44.67724" lon="5.56382">
        <ele>742.8</ele>
      </trkpt>
      <trkpt lat="44.67754" lon="5.5643">
        <ele>742.1</ele>
      </trkpt>
      <trkpt lat="44.67768" lon="5.56446">
        <ele>745.4</ele>
      </trkpt>
      <trkpt lat="44.67782" lon="5.56455">
        <ele>747.5</ele>
      </trkpt>
      <trkpt lat="44.67801" lon="5.56461">
        <ele>750.9</ele>
      </trkpt>
      <trkpt lat="44.67802" lon="5.56461">
        <ele>751.1</ele>
      </trkpt>
      <trkpt lat="44.67811" lon="5.56463">
        <ele>752.4</ele>
      </trkpt>
      <trkpt lat="44.6782" lon="5.56466">
        <ele>752.9</ele>
      </trkpt>
      <trkpt lat="44.67821" lon="5.56466">
        <ele>753</ele>
      </trkpt>
      <trkpt lat="44.67836" lon="5.56477">
        <ele>777.7</ele>
      </trkpt>
      <trkpt lat="44.6784" lon="5.56482">
        <ele>774.9</ele>
      </trkpt>
      <trkpt lat="44.67846" lon="5.56496">
        <ele>769.2</ele>
      </trkpt>
      <trkpt lat="44.67848" lon="5.56504">
        <ele>758.6</ele>
      </trkpt>
      <trkpt lat="44.67852" lon="5.56549">
        <ele>759.1</ele>
      </trkpt>
      <trkpt lat="44.67854" lon="5.56558">
        <ele>757.1</ele>
      </trkpt>
      <trkpt lat="44.67863" lon="5.56586">
        <ele>745.6</ele>
      </trkpt>
      <trkpt lat="44.67866" lon="5.56593">
        <ele>747.2</ele>
      </trkpt>
      <trkpt lat="44.67873" lon="5.56617">
        <ele>749.5</ele>
      </trkpt>
      <trkpt lat="44.6788" lon="5.56666">
        <ele>747.9</ele>
      </trkpt>
      <trkpt lat="44.6788" lon="5.5667">
        <ele>746.5</ele>
      </trkpt>
      <trkpt lat="44.67884" lon="5.56686">
        <ele>746.8</ele>
      </trkpt>
      <trkpt lat="44.67895" lon="5.56705">
        <ele>745.5</ele>
      </trkpt>
      <trkpt lat="44.679" lon="5.5671">
        <ele>744.3</ele>
      </trkpt>
      <trkpt lat="44.67915" lon="5.56718">
        <ele>740.9</ele>
      </trkpt>
      <trkpt lat="44.67916" lon="5.56718">
        <ele>740.8</ele>
      </trkpt>
      <trkpt lat="44.67928" lon="5.56723">
        <ele>748.3</ele>
      </trkpt>
      <trkpt lat="44.67932" lon="5.56726">
        <ele>748.2</ele>
      </trkpt>
      <trkpt lat="44.67933" lon="5.56726">
        <ele>748.5</ele>
      </trkpt>
      <trkpt lat="44.67943" lon="5.56736">
        <ele>749.5</ele>
      </trkpt>
      <trkpt lat="44.67947" lon="5.56741">
        <ele>750.4</ele>
      </trkpt>
      <trkpt lat="44.67951" lon="5.56748">
        <ele>751.5</ele>
      </trkpt>
      <trkpt lat="44.67954" lon="5.56755">
        <ele>742.6</ele>
      </trkpt>
      <trkpt lat="44.67958" lon="5.56762">
        <ele>744.3</ele>
      </trkpt>
      <trkpt lat="44.67968" lon="5.56785">
        <ele>746.7</ele>
      </trkpt>
      <trkpt lat="44.67968" lon="5.56787">
        <ele>746.6</ele>
      </trkpt>
      <trkpt lat="44.68007" lon="5.56862">
        <ele>762.4</ele>
      </trkpt>
      <trkpt lat="44.6801" lon="5.56866">
        <ele>762.9</ele>
      </trkpt>
      <trkpt lat="44.68022" lon="5.56886">
        <ele>762.9</ele>
      </trkpt>
      <trkpt lat="44.68026" lon="5.56895">
        <ele>762.1</ele>
      </trkpt>
      <trkpt lat="44.68093" lon="5.57007">
        <ele>749.4</ele>
      </trkpt>
      <trkpt lat="44.68104" lon="5.5702">
        <ele>756.8</ele>
      </trkpt>
      <trkpt lat="44.68116" lon="5.5703">
        <ele>760.7</ele>
      </trkpt>
      <trkpt lat="44.6812" lon="5.57031">
        <ele>761.4</ele>
      </trkpt>
      <trkpt lat="44.68123" lon="5.57033">
        <ele>761.9</ele>
      </trkpt>
      <trkpt lat="44.68136" lon="5.57037">
        <ele>763.6</ele>
      </trkpt>
      <trkpt lat="44.68137" lon="5.57037">
        <ele>763.7</ele>
      </trkpt>
      <trkpt lat="44.68173" lon="5.57046">
        <ele>780.3</ele>
      </trkpt>
      <trkpt lat="44.68181" lon="5.57049">
        <ele>780.6</ele>
      </trkpt>
      <trkpt lat="44.68186" lon="5.57052">
        <ele>780.7</ele>
      </trkpt>
      <trkpt lat="44.68189" lon="5.57055">
        <ele>780.5</ele>
      </trkpt>
      <trkpt lat="44.68192" lon="5.57056">
        <ele>781</ele>
      </trkpt>
      <trkpt lat="44.68201" lon="5.57066">
        <ele>781.3</ele>
      </trkpt>
      <trkpt lat="44.68208" lon="5.57079">
        <ele>781.6</ele>
      </trkpt>
      <trkpt lat="44.68212" lon="5.57092">
        <ele>768.1</ele>
      </trkpt>
      <trkpt lat="44.68217" lon="5.57117">
        <ele>767.2</ele>
      </trkpt>
      <trkpt lat="44.68217" lon="5.57119">
        <ele>767</ele>
      </trkpt>
      <trkpt lat="44.68221" lon="5.57141">
        <ele>765.9</ele>
      </trkpt>
      <trkpt lat="44.68222" lon="5.57144">
        <ele>765.9</ele>
      </trkpt>
      <trkpt lat="44.68225" lon="5.57161">
        <ele>765.8</ele>
      </trkpt>
      <trkpt lat="44.68227" lon="5.57165">
        <ele>766</ele>
      </trkpt>
      <trkpt lat="44.68231" lon="5.5718">
        <ele>770.1</ele>
      </trkpt>
      <trkpt lat="44.68237" lon="5.57197">
        <ele>770.2</ele>
      </trkpt>
      <trkpt lat="44.6824" lon="5.57202">
        <ele>769.9</ele>
      </trkpt>
      <trkpt lat="44.68241" lon="5.57206">
        <ele>769.7</ele>
      </trkpt>
      <trkpt lat="44.68245" lon="5.57215">
        <ele>768.3</ele>
      </trkpt>
      <trkpt lat="44.6826" lon="5.5724">
        <ele>765.1</ele>
      </trkpt>
      <trkpt lat="44.68261" lon="5.57243">
        <ele>764.2</ele>
      </trkpt>
      <trkpt lat="44.68265" lon="5.57248">
        <ele>766</ele>
      </trkpt>
      <trkpt lat="44.68273" lon="5.57262">
        <ele>766.6</ele>
      </trkpt>
      <trkpt lat="44.68275" lon="5.57264">
        <ele>767.7</ele>
      </trkpt>
      <trkpt lat="44.68285" lon="5.57279">
        <ele>771.9</ele>
      </trkpt>
      <trkpt lat="44.68286" lon="5.5728">
        <ele>772.2</ele>
      </trkpt>
      <trkpt lat="44.68298" lon="5.57299">
        <ele>773.7</ele>
      </trkpt>
      <trkpt lat="44.68317" lon="5.57341">
        <ele>775.9</ele>
      </trkpt>
      <trkpt lat="44.68326" lon="5.57358">
        <ele>777.3</ele>
      </trkpt>
      <trkpt lat="44.68334" lon="5.5737">
        <ele>773.5</ele>
      </trkpt>
      <trkpt lat="44.68343" lon="5.57378">
        <ele>773.4</ele>
      </trkpt>
      <trkpt lat="44.68354" lon="5.57384">
        <ele>773.7</ele>
      </trkpt>
      <trkpt lat="44.68359" lon="5.57386">
        <ele>773.9</ele>
      </trkpt>
      <trkpt lat="44.6836" lon="5.57386">
        <ele>774</ele>
      </trkpt>
      <trkpt lat="44.68365" lon="5.57388">
        <ele>774.2</ele>
      </trkpt>
      <trkpt lat="44.68372" lon="5.57389">
        <ele>774.7</ele>
      </trkpt>
      <trkpt lat="44.68377" lon="5.57391">
        <ele>774.7</ele>
      </trkpt>
      <trkpt lat="44.68398" lon="5.57397">
        <ele>772.9</ele>
      </trkpt>
      <trkpt lat="44.68411" lon="5.57404">
        <ele>768.2</ele>
      </trkpt>
      <trkpt lat="44.68444" lon="5.57426">
        <ele>778.5</ele>
      </trkpt>
      <trkpt lat="44.68498" lon="5.57468">
        <ele>790.4</ele>
      </trkpt>
      <trkpt lat="44.68547" lon="5.5751">
        <ele>855.3</ele>
      </trkpt>
      <trkpt lat="44.68553" lon="5.57514">
        <ele>857.3</ele>
      </trkpt>
      <trkpt lat="44.68554" lon="5.57515">
        <ele>857.8</ele>
      </trkpt>
      <trkpt lat="44.68567" lon="5.57521">
        <ele>859.6</ele>
      </trkpt>
      <trkpt lat="44.6858" lon="5.57525">
        <ele>861.4</ele>
      </trkpt>
      <trkpt lat="44.68587" lon="5.57526">
        <ele>855.9</ele>
      </trkpt>
      <trkpt lat="44.68607" lon="5.57526">
        <ele>856</ele>
      </trkpt>
      <trkpt lat="44.68614" lon="5.57525">
        <ele>855</ele>
      </trkpt>
      <trkpt lat="44.68621" lon="5.57523">
        <ele>853.2</ele>
      </trkpt>
      <trkpt lat="44.68623" lon="5.57523">
        <ele>852.8</ele>
      </trkpt>
      <trkpt lat="44.68628" lon="5.57521">
        <ele>850.8</ele>
      </trkpt>
      <trkpt lat="44.68641" lon="5.57519">
        <ele>845.3</ele>
      </trkpt>
      <trkpt lat="44.68641" lon="5.57518">
        <ele>844.8</ele>
      </trkpt>
      <trkpt lat="44.68673" lon="5.57513">
        <ele>820.5</ele>
      </trkpt>
      <trkpt lat="44.68685" lon="5.57515">
        <ele>825.4</ele>
      </trkpt>
      <trkpt lat="44.68694" lon="5.57519">
        <ele>828.8</ele>
      </trkpt>
      <trkpt lat="44.68703" lon="5.57522">
        <ele>830.9</ele>
      </trkpt>
      <trkpt lat="44.6871" lon="5.57526">
        <ele>832</ele>
      </trkpt>
      <trkpt lat="44.68716" lon="5.57531">
        <ele>832.4</ele>
      </trkpt>
      <trkpt lat="44.68731" lon="5.57547">
        <ele>830.3</ele>
      </trkpt>
      <trkpt lat="44.68739" lon="5.57559">
        <ele>826</ele>
      </trkpt>
      <trkpt lat="44.6875" lon="5.57579">
        <ele>808.1</ele>
      </trkpt>
      <trkpt lat="44.68807" lon="5.57726">
        <ele>938.1</ele>
      </trkpt>
      <trkpt lat="44.68822" lon="5.57754">
        <ele>914.6</ele>
      </trkpt>
      <trkpt lat="44.68825" lon="5.57757">
        <ele>913.3</ele>
      </trkpt>
      <trkpt lat="44.68835" lon="5.57771">
        <ele>881</ele>
      </trkpt>
      <trkpt lat="44.68836" lon="5.57771">
        <ele>881</ele>
      </trkpt>
      <trkpt lat="44.68858" lon="5.57794">
        <ele>858.2</ele>
      </trkpt>
      <trkpt lat="44.68863" lon="5.57802">
        <ele>852.6</ele>
      </trkpt>
      <trkpt lat="44.68863" lon="5.57803">
        <ele>851.7</ele>
      </trkpt>
      <trkpt lat="44.68867" lon="5.57809">
        <ele>848.8</ele>
      </trkpt>
      <trkpt lat="44.68873" lon="5.57824">
        <ele>843.2</ele>
      </trkpt>
      <trkpt lat="44.68873" lon="5.57825">
        <ele>842.8</ele>
      </trkpt>
      <trkpt lat="44.68876" lon="5.57834">
        <ele>794</ele>
      </trkpt>
      <trkpt lat="44.68878" lon="5.57848">
        <ele>794.2</ele>
      </trkpt>
      <trkpt lat="44.68878" lon="5.5788">
        <ele>789.3</ele>
      </trkpt>
      <trkpt lat="44.68875" lon="5.57931">
        <ele>781.9</ele>
      </trkpt>
      <trkpt lat="44.68877" lon="5.57942">
        <ele>782.4</ele>
      </trkpt>
      <trkpt lat="44.68879" lon="5.57946">
        <ele>782.6</ele>
      </trkpt>
      <trkpt lat="44.68882" lon="5.57949">
        <ele>782.8</ele>
      </trkpt>
      <trkpt lat="44.6889" lon="5.57953">
        <ele>783</ele>
      </trkpt>
      <trkpt lat="44.68893" lon="5.57954">
        <ele>783.1</ele>
      </trkpt>
      <trkpt lat="44.6893" lon="5.57955">
        <ele>809.3</ele>
      </trkpt>
      <trkpt lat="44.6896" lon="5.57962">
        <ele>819.9</ele>
      </trkpt>
      <trkpt lat="44.68966" lon="5.57965">
        <ele>821.3</ele>
      </trkpt>
      <trkpt lat="44.6897" lon="5.57966">
        <ele>822.4</ele>
      </trkpt>
      <trkpt lat="44.68978" lon="5.57971">
        <ele>822.6</ele>
      </trkpt>
      <trkpt lat="44.68989" lon="5.57981">
        <ele>820</ele>
      </trkpt>
      <trkpt lat="44.68992" lon="5.57988">
        <ele>817.2</ele>
      </trkpt>
      <trkpt lat="44.68995" lon="5.57998">
        <ele>813.4</ele>
      </trkpt>
      <trkpt lat="44.68997" lon="5.58009">
        <ele>805.6</ele>
      </trkpt>
      <trkpt lat="44.68998" lon="5.58027">
        <ele>799.7</ele>
      </trkpt>
      <trkpt lat="44.69002" lon="5.58056">
        <ele>821.3</ele>
      </trkpt>
      <trkpt lat="44.69002" lon="5.58062">
        <ele>816.5</ele>
      </trkpt>
      <trkpt lat="44.69001" lon="5.58064">
        <ele>814.4</ele>
      </trkpt>
      <trkpt lat="44.69" lon="5.58065">
        <ele>791.2</ele>
      </trkpt>
      <trkpt lat="44.68998" lon="5.58066">
        <ele>790.9</ele>
      </trkpt>
      <trkpt lat="44.68996" lon="5.58066">
        <ele>791</ele>
      </trkpt>
      <trkpt lat="44.68993" lon="5.58063">
        <ele>792</ele>
      </trkpt>
      <trkpt lat="44.68993" lon="5.5806">
        <ele>792.7</ele>
      </trkpt>
      <trkpt lat="44.68992" lon="5.58056">
        <ele>793.6</ele>
      </trkpt>
      <trkpt lat="44.68992" lon="5.58046">
        <ele>795.5</ele>
      </trkpt>
      <trkpt lat="44.68991" lon="5.58039">
        <ele>796.8</ele>
      </trkpt>
      <trkpt lat="44.68991" lon="5.5803">
        <ele>798.6</ele>
      </trkpt>
      <trkpt lat="44.6899" lon="5.58021">
        <ele>800.6</ele>
      </trkpt>
      <trkpt lat="44.6899" lon="5.58015">
        <ele>802.2</ele>
      </trkpt>
      <trkpt lat="44.68989" lon="5.58009">
        <ele>803.5</ele>
      </trkpt>
      <trkpt lat="44.68985" lon="5.57998">
        <ele>815.4</ele>
      </trkpt>
      <trkpt lat="44.68979" lon="5.57988">
        <ele>817.3</ele>
      </trkpt>
      <trkpt lat="44.68975" lon="5.57985">
        <ele>817.6</ele>
      </trkpt>
      <trkpt lat="44.68965" lon="5.57981">
        <ele>816.4</ele>
      </trkpt>
      <trkpt lat="44.68942" lon="5.57977">
        <ele>809.1</ele>
      </trkpt>
      <trkpt lat="44.68925" lon="5.57977">
        <ele>803.1</ele>
      </trkpt>
      <trkpt lat="44.68913" lon="5.5798">
        <ele>783.4</ele>
      </trkpt>
      <trkpt lat="44.68899" lon="5.57981">
        <ele>783.6</ele>
      </trkpt>
      <trkpt lat="44.68888" lon="5.5798">
        <ele>783.9</ele>
      </trkpt>
      <trkpt lat="44.68864" lon="5.57974">
        <ele>784.6</ele>
      </trkpt>
      <trkpt lat="44.68852" lon="5.57974">
        <ele>785.2</ele>
      </trkpt>
      <trkpt lat="44.68847" lon="5.57976">
        <ele>785.8</ele>
      </trkpt>
      <trkpt lat="44.68846" lon="5.57977">
        <ele>786</ele>
      </trkpt>
      <trkpt lat="44.68842" lon="5.57979">
        <ele>786.6</ele>
      </trkpt>
      <trkpt lat="44.68833" lon="5.57987">
        <ele>802.2</ele>
      </trkpt>
      <trkpt lat="44.68816" lon="5.58005">
        <ele>796.1</ele>
      </trkpt>
      <trkpt lat="44.68803" lon="5.58023">
        <ele>798.1</ele>
      </trkpt>
      <trkpt lat="44.68801" lon="5.58025">
        <ele>798.3</ele>
      </trkpt>
      <trkpt lat="44.68797" lon="5.58033">
        <ele>799.1</ele>
      </trkpt>
      <trkpt lat="44.68779" lon="5.58081">
        <ele>804.4</ele>
      </trkpt>
      <trkpt lat="44.68777" lon="5.58089">
        <ele>807.7</ele>
      </trkpt>
      <trkpt lat="44.68771" lon="5.58106">
        <ele>807</ele>
      </trkpt>
      <trkpt lat="44.68766" lon="5.58134">
        <ele>804</ele>
      </trkpt>
      <trkpt lat="44.68761" lon="5.58175">
        <ele>797.7</ele>
      </trkpt>
      <trkpt lat="44.68761" lon="5.58211">
        <ele>799.2</ele>
      </trkpt>
      <trkpt lat="44.68764" lon="5.58257">
        <ele>795</ele>
      </trkpt>
      <trkpt lat="44.68763" lon="5.58282">
        <ele>796.8</ele>
      </trkpt>
      <trkpt lat="44.68764" lon="5.58291">
        <ele>796.9</ele>
      </trkpt>
      <trkpt lat="44.68766" lon="5.58299">
        <ele>796.9</ele>
      </trkpt>
      <trkpt lat="44.68772" lon="5.58313">
        <ele>796.7</ele>
      </trkpt>
      <trkpt lat="44.68774" lon="5.58315">
        <ele>796.8</ele>
      </trkpt>
      <trkpt lat="44.68776" lon="5.5832">
        <ele>796.9</ele>
      </trkpt>
      <trkpt lat="44.6879" lon="5.58337">
        <ele>798.2</ele>
      </trkpt>
      <trkpt lat="44.68798" lon="5.58351">
        <ele>799.6</ele>
      </trkpt>
      <trkpt lat="44.68798" lon="5.58352">
        <ele>799.5</ele>
      </trkpt>
      <trkpt lat="44.68802" lon="5.58358">
        <ele>800.1</ele>
      </trkpt>
      <trkpt lat="44.68808" lon="5.58373">
        <ele>800.7</ele>
      </trkpt>
      <trkpt lat="44.68808" lon="5.58374">
        <ele>800.7</ele>
      </trkpt>
      <trkpt lat="44.68811" lon="5.58381">
        <ele>801.1</ele>
      </trkpt>
      <trkpt lat="44.68813" lon="5.58389">
        <ele>801.7</ele>
      </trkpt>
      <trkpt lat="44.68816" lon="5.58395">
        <ele>802.6</ele>
      </trkpt>
      <trkpt lat="44.68816" lon="5.58396">
        <ele>802.7</ele>
      </trkpt>
      <trkpt lat="44.68818" lon="5.58402">
        <ele>803.7</ele>
      </trkpt>
      <trkpt lat="44.68826" lon="5.58417">
        <ele>810.5</ele>
      </trkpt>
      <trkpt lat="44.68826" lon="5.58419">
        <ele>810.6</ele>
      </trkpt>
      <trkpt lat="44.68828" lon="5.58424">
        <ele>810.7</ele>
      </trkpt>
      <trkpt lat="44.6883" lon="5.58436">
        <ele>811.3</ele>
      </trkpt>
      <trkpt lat="44.68829" lon="5.58442">
        <ele>811.8</ele>
      </trkpt>
      <trkpt lat="44.68825" lon="5.58452">
        <ele>812.9</ele>
      </trkpt>
      <trkpt lat="44.68822" lon="5.58457">
        <ele>813.5</ele>
      </trkpt>
      <trkpt lat="44.68818" lon="5.58461">
        <ele>813.9</ele>
      </trkpt>
      <trkpt lat="44.68806" lon="5.58468">
        <ele>813.5</ele>
      </trkpt>
      <trkpt lat="44.68802" lon="5.58471">
        <ele>813.2</ele>
      </trkpt>
      <trkpt lat="44.68796" lon="5.58474">
        <ele>812.6</ele>
      </trkpt>
      <trkpt lat="44.68788" lon="5.58482">
        <ele>812</ele>
      </trkpt>
      <trkpt lat="44.68786" lon="5.58483">
        <ele>811.7</ele>
      </trkpt>
      <trkpt lat="44.68761" lon="5.5851">
        <ele>819.6</ele>
      </trkpt>
      <trkpt lat="44.68758" lon="5.58514">
        <ele>820.2</ele>
      </trkpt>
      <trkpt lat="44.68753" lon="5.58519">
        <ele>821.4</ele>
      </trkpt>
      <trkpt lat="44.68745" lon="5.5853">
        <ele>821.2</ele>
      </trkpt>
      <trkpt lat="44.68739" lon="5.58542">
        <ele>823.7</ele>
      </trkpt>
      <trkpt lat="44.68735" lon="5.58553">
        <ele>825.1</ele>
      </trkpt>
      <trkpt lat="44.68735" lon="5.58554">
        <ele>825.1</ele>
      </trkpt>
      <trkpt lat="44.68724" lon="5.5858">
        <ele>826.9</ele>
      </trkpt>
      <trkpt lat="44.68719" lon="5.58589">
        <ele>834.7</ele>
      </trkpt>
      <trkpt lat="44.68716" lon="5.58596">
        <ele>835.6</ele>
      </trkpt>
      <trkpt lat="44.68715" lon="5.58597">
        <ele>835.7</ele>
      </trkpt>
      <trkpt lat="44.6871" lon="5.58607">
        <ele>836.8</ele>
      </trkpt>
      <trkpt lat="44.68705" lon="5.58615">
        <ele>837.5</ele>
      </trkpt>
      <trkpt lat="44.68702" lon="5.58618">
        <ele>837.6</ele>
      </trkpt>
      <trkpt lat="44.68699" lon="5.5862">
        <ele>837.7</ele>
      </trkpt>
      <trkpt lat="44.68681" lon="5.58636">
        <ele>837.4</ele>
      </trkpt>
      <trkpt lat="44.6867" lon="5.58672">
        <ele>839.1</ele>
      </trkpt>
      <trkpt lat="44.68668" lon="5.58676">
        <ele>841.5</ele>
      </trkpt>
      <trkpt lat="44.68663" lon="5.58683">
        <ele>848.9</ele>
      </trkpt>
      <trkpt lat="44.68654" lon="5.58689">
        <ele>854.2</ele>
      </trkpt>
      <trkpt lat="44.68632" lon="5.5871">
        <ele>862.7</ele>
      </trkpt>
      <trkpt lat="44.6862" lon="5.58724">
        <ele>863.9</ele>
      </trkpt>
      <trkpt lat="44.68602" lon="5.58751">
        <ele>864.8</ele>
      </trkpt>
      <trkpt lat="44.68578" lon="5.58776">
        <ele>897.1</ele>
      </trkpt>
      <trkpt lat="44.68548" lon="5.58803">
        <ele>913.4</ele>
      </trkpt>
      <trkpt lat="44.68526" lon="5.58826">
        <ele>917.9</ele>
      </trkpt>
      <trkpt lat="44.68517" lon="5.58839">
        <ele>904.2</ele>
      </trkpt>
      <trkpt lat="44.68509" lon="5.58865">
        <ele>898.1</ele>
      </trkpt>
      <trkpt lat="44.68509" lon="5.58869">
        <ele>897</ele>
      </trkpt>
      <trkpt lat="44.68508" lon="5.58872">
        <ele>896.2</ele>
      </trkpt>
      <trkpt lat="44.68504" lon="5.58898">
        <ele>889.6</ele>
      </trkpt>
      <trkpt lat="44.68502" lon="5.58903">
        <ele>888.2</ele>
      </trkpt>
      <trkpt lat="44.68496" lon="5.58926">
        <ele>883.7</ele>
      </trkpt>
      <trkpt lat="44.68484" lon="5.58961">
        <ele>882.8</ele>
      </trkpt>
      <trkpt lat="44.68471" lon="5.59017">
        <ele>882</ele>
      </trkpt>
      <trkpt lat="44.68469" lon="5.5904">
        <ele>883.7</ele>
      </trkpt>
      <trkpt lat="44.68467" lon="5.59052">
        <ele>884.3</ele>
      </trkpt>
      <trkpt lat="44.6846" lon="5.59127">
        <ele>879.6</ele>
      </trkpt>
      <trkpt lat="44.68449" lon="5.59199">
        <ele>865.6</ele>
      </trkpt>
      <trkpt lat="44.68449" lon="5.59201">
        <ele>865.3</ele>
      </trkpt>
      <trkpt lat="44.68443" lon="5.59223">
        <ele>862.9</ele>
      </trkpt>
      <trkpt lat="44.68442" lon="5.59225">
        <ele>862.7</ele>
      </trkpt>
      <trkpt lat="44.68439" lon="5.59236">
        <ele>861.6</ele>
      </trkpt>
      <trkpt lat="44.68417" lon="5.59292">
        <ele>859.4</ele>
      </trkpt>
      <trkpt lat="44.6841" lon="5.59315">
        <ele>875.5</ele>
      </trkpt>
      <trkpt lat="44.68409" lon="5.59317">
        <ele>874.8</ele>
      </trkpt>
      <trkpt lat="44.68403" lon="5.59355">
        <ele>870.7</ele>
      </trkpt>
      <trkpt lat="44.68402" lon="5.59407">
        <ele>867.9</ele>
      </trkpt>
      <trkpt lat="44.68406" lon="5.59423">
        <ele>865.1</ele>
      </trkpt>
      <trkpt lat="44.68412" lon="5.59435">
        <ele>866.8</ele>
      </trkpt>
      <trkpt lat="44.68426" lon="5.59448">
        <ele>859.1</ele>
      </trkpt>
      <trkpt lat="44.6847" lon="5.59472">
        <ele>858.8</ele>
      </trkpt>
      <trkpt lat="44.68496" lon="5.59494">
        <ele>854.2</ele>
      </trkpt>
      <trkpt lat="44.68509" lon="5.59507">
        <ele>852.9</ele>
      </trkpt>
      <trkpt lat="44.68514" lon="5.59513">
        <ele>853.3</ele>
      </trkpt>
      <trkpt lat="44.68522" lon="5.5952">
        <ele>853.7</ele>
      </trkpt>
      <trkpt lat="44.68534" lon="5.59534">
        <ele>854.1</ele>
      </trkpt>
      <trkpt lat="44.68541" lon="5.5954">
        <ele>854.2</ele>
      </trkpt>
      <trkpt lat="44.68572" lon="5.59574">
        <ele>854.7</ele>
      </trkpt>
      <trkpt lat="44.68587" lon="5.59587">
        <ele>855.4</ele>
      </trkpt>
      <trkpt lat="44.68598" lon="5.59594">
        <ele>856.2</ele>
      </trkpt>
      <trkpt lat="44.68688" lon="5.59635">
        <ele>861.7</ele>
      </trkpt>
      <trkpt lat="44.68734" lon="5.5966">
        <ele>863.5</ele>
      </trkpt>
      <trkpt lat="44.68744" lon="5.59667">
        <ele>863.6</ele>
      </trkpt>
      <trkpt lat="44.68752" lon="5.59675">
        <ele>864.2</ele>
      </trkpt>
      <trkpt lat="44.68759" lon="5.59684">
        <ele>864.4</ele>
      </trkpt>
      <trkpt lat="44.68771" lon="5.5972">
        <ele>864.6</ele>
      </trkpt>
      <trkpt lat="44.68779" lon="5.59752">
        <ele>867.5</ele>
      </trkpt>
      <trkpt lat="44.68781" lon="5.59769">
        <ele>868.2</ele>
      </trkpt>
      <trkpt lat="44.68785" lon="5.59784">
        <ele>869.1</ele>
      </trkpt>
      <trkpt lat="44.68787" lon="5.59787">
        <ele>869.4</ele>
      </trkpt>
      <trkpt lat="44.68789" lon="5.59789">
        <ele>869.5</ele>
      </trkpt>
      <trkpt lat="44.68796" lon="5.59792">
        <ele>869.9</ele>
      </trkpt>
      <trkpt lat="44.68831" lon="5.59789">
        <ele>870.3</ele>
      </trkpt>
      <trkpt lat="44.68845" lon="5.59784">
        <ele>877.4</ele>
      </trkpt>
      <trkpt lat="44.68853" lon="5.59779">
        <ele>877.4</ele>
      </trkpt>
      <trkpt lat="44.68859" lon="5.59774">
        <ele>877.5</ele>
      </trkpt>
      <trkpt lat="44.68918" lon="5.59708">
        <ele>876.8</ele>
      </trkpt>
      <trkpt lat="44.68924" lon="5.59703">
        <ele>876.6</ele>
      </trkpt>
      <trkpt lat="44.68932" lon="5.59698">
        <ele>876.5</ele>
      </trkpt>
      <trkpt lat="44.6894" lon="5.59696">
        <ele>876.7</ele>
      </trkpt>
      <trkpt lat="44.68941" lon="5.59697">
        <ele>876.8</ele>
      </trkpt>
      <trkpt lat="44.68948" lon="5.59697">
        <ele>877.1</ele>
      </trkpt>
      <trkpt lat="44.68959" lon="5.59699">
        <ele>877.8</ele>
      </trkpt>
      <trkpt lat="44.68961" lon="5.59699">
        <ele>877.8</ele>
      </trkpt>
      <trkpt lat="44.68982" lon="5.59704">
        <ele>878.9</ele>
      </trkpt>
      <trkpt lat="44.69014" lon="5.59718">
        <ele>885.3</ele>
      </trkpt>
      <trkpt lat="44.69042" lon="5.59727">
        <ele>885.9</ele>
      </trkpt>
      <trkpt lat="44.69055" lon="5.59734">
        <ele>886</ele>
      </trkpt>
      <trkpt lat="44.69068" lon="5.59744">
        <ele>885.7</ele>
      </trkpt>
      <trkpt lat="44.69073" lon="5.59751">
        <ele>888.1</ele>
      </trkpt>
      <trkpt lat="44.69076" lon="5.59757">
        <ele>888.2</ele>
      </trkpt>
      <trkpt lat="44.69078" lon="5.59759">
        <ele>888.3</ele>
      </trkpt>
      <trkpt lat="44.6909" lon="5.59787">
        <ele>896.2</ele>
      </trkpt>
      <trkpt lat="44.69097" lon="5.59808">
        <ele>897.2</ele>
      </trkpt>
      <trkpt lat="44.6911" lon="5.59895">
        <ele>903</ele>
      </trkpt>
      <trkpt lat="44.69113" lon="5.59904">
        <ele>903.2</ele>
      </trkpt>
      <trkpt lat="44.69117" lon="5.59913">
        <ele>902.7</ele>
      </trkpt>
      <trkpt lat="44.69126" lon="5.59927">
        <ele>905.8</ele>
      </trkpt>
      <trkpt lat="44.69138" lon="5.59938">
        <ele>903.7</ele>
      </trkpt>
      <trkpt lat="44.69139" lon="5.59938">
        <ele>903.4</ele>
      </trkpt>
      <trkpt lat="44.69146" lon="5.59942">
        <ele>902.4</ele>
      </trkpt>
      <trkpt lat="44.69153" lon="5.59945">
        <ele>901.6</ele>
      </trkpt>
      <trkpt lat="44.69221" lon="5.59959">
        <ele>902.9</ele>
      </trkpt>
      <trkpt lat="44.6923" lon="5.59962">
        <ele>903.5</ele>
      </trkpt>
      <trkpt lat="44.69234" lon="5.59964">
        <ele>903.6</ele>
      </trkpt>
      <trkpt lat="44.69237" lon="5.59968">
        <ele>903.3</ele>
      </trkpt>
      <trkpt lat="44.69241" lon="5.59977">
        <ele>902.6</ele>
      </trkpt>
      <trkpt lat="44.6924" lon="5.60038">
        <ele>898.9</ele>
      </trkpt>
      <trkpt lat="44.69239" lon="5.60047">
        <ele>898.7</ele>
      </trkpt>
      <trkpt lat="44.6924" lon="5.60065">
        <ele>898.2</ele>
      </trkpt>
      <trkpt lat="44.69246" lon="5.60104">
        <ele>899</ele>
      </trkpt>
      <trkpt lat="44.69254" lon="5.60128">
        <ele>904.2</ele>
      </trkpt>
      <trkpt lat="44.69267" lon="5.60156">
        <ele>902.6</ele>
      </trkpt>
      <trkpt lat="44.69311" lon="5.60219">
        <ele>908.1</ele>
      </trkpt>
      <trkpt lat="44.69317" lon="5.60236">
        <ele>910.2</ele>
      </trkpt>
      <trkpt lat="44.69319" lon="5.60253">
        <ele>911.1</ele>
      </trkpt>
      <trkpt lat="44.69319" lon="5.60262">
        <ele>910</ele>
      </trkpt>
      <trkpt lat="44.69318" lon="5.60264">
        <ele>909.5</ele>
      </trkpt>
      <trkpt lat="44.69315" lon="5.60295">
        <ele>906.6</ele>
      </trkpt>
      <trkpt lat="44.69315" lon="5.60302">
        <ele>906.6</ele>
      </trkpt>
      <trkpt lat="44.69316" lon="5.60309">
        <ele>906.8</ele>
      </trkpt>
      <trkpt lat="44.69318" lon="5.60316">
        <ele>907.3</ele>
      </trkpt>
      <trkpt lat="44.69326" lon="5.60336">
        <ele>909.1</ele>
      </trkpt>
      <trkpt lat="44.69334" lon="5.60352">
        <ele>922.8</ele>
      </trkpt>
      <trkpt lat="44.6934" lon="5.6037">
        <ele>926.4</ele>
      </trkpt>
      <trkpt lat="44.69343" lon="5.60388">
        <ele>925.2</ele>
      </trkpt>
      <trkpt lat="44.69345" lon="5.60409">
        <ele>919.2</ele>
      </trkpt>
      <trkpt lat="44.69347" lon="5.60487">
        <ele>920.2</ele>
      </trkpt>
      <trkpt lat="44.69354" lon="5.60531">
        <ele>918.7</ele>
      </trkpt>
      <trkpt lat="44.69353" lon="5.60572">
        <ele>914.9</ele>
      </trkpt>
      <trkpt lat="44.69354" lon="5.6058">
        <ele>914.4</ele>
      </trkpt>
      <trkpt lat="44.69355" lon="5.60581">
        <ele>914.6</ele>
      </trkpt>
      <trkpt lat="44.69356" lon="5.60588">
        <ele>911.7</ele>
      </trkpt>
      <trkpt lat="44.69362" lon="5.60602">
        <ele>913.3</ele>
      </trkpt>
      <trkpt lat="44.69374" lon="5.60622">
        <ele>914.9</ele>
      </trkpt>
      <trkpt lat="44.69411" lon="5.60676">
        <ele>917.7</ele>
      </trkpt>
      <trkpt lat="44.69415" lon="5.60683">
        <ele>917.3</ele>
      </trkpt>
      <trkpt lat="44.69423" lon="5.60701">
        <ele>932.5</ele>
      </trkpt>
      <trkpt lat="44.69429" lon="5.60719">
        <ele>932.6</ele>
      </trkpt>
      <trkpt lat="44.69435" lon="5.6076">
        <ele>928.5</ele>
      </trkpt>
      <trkpt lat="44.6944" lon="5.60847">
        <ele>936.7</ele>
      </trkpt>
      <trkpt lat="44.69438" lon="5.60869">
        <ele>940.2</ele>
      </trkpt>
      <trkpt lat="44.69437" lon="5.60872">
        <ele>940.3</ele>
      </trkpt>
      <trkpt lat="44.69423" lon="5.60964">
        <ele>944.9</ele>
      </trkpt>
      <trkpt lat="44.69423" lon="5.60974">
        <ele>943.4</ele>
      </trkpt>
      <trkpt lat="44.69422" lon="5.60984">
        <ele>940.1</ele>
      </trkpt>
      <trkpt lat="44.69423" lon="5.60994">
        <ele>935.8</ele>
      </trkpt>
      <trkpt lat="44.69436" lon="5.61062">
        <ele>939.1</ele>
      </trkpt>
      <trkpt lat="44.69438" lon="5.61069">
        <ele>938.6</ele>
      </trkpt>
      <trkpt lat="44.69458" lon="5.61119">
        <ele>935.4</ele>
      </trkpt>
      <trkpt lat="44.69463" lon="5.61137">
        <ele>935</ele>
      </trkpt>
      <trkpt lat="44.69482" lon="5.61193">
        <ele>934.6</ele>
      </trkpt>
      <trkpt lat="44.69498" lon="5.61231">
        <ele>933.1</ele>
      </trkpt>
      <trkpt lat="44.69503" lon="5.6124">
        <ele>932.3</ele>
      </trkpt>
      <trkpt lat="44.69528" lon="5.61269">
        <ele>934</ele>
      </trkpt>
      <trkpt lat="44.69548" lon="5.61282">
        <ele>935.1</ele>
      </trkpt>
      <trkpt lat="44.69603" lon="5.61304">
        <ele>946.2</ele>
      </trkpt>
      <trkpt lat="44.69616" lon="5.61312">
        <ele>947.9</ele>
      </trkpt>
      <trkpt lat="44.69627" lon="5.61324">
        <ele>949.7</ele>
      </trkpt>
      <trkpt lat="44.69632" lon="5.61331">
        <ele>950.6</ele>
      </trkpt>
      <trkpt lat="44.69642" lon="5.61352">
        <ele>946.9</ele>
      </trkpt>
      <trkpt lat="44.69707" lon="5.61582">
        <ele>959.2</ele>
      </trkpt>
      <trkpt lat="44.69714" lon="5.61597">
        <ele>952.6</ele>
      </trkpt>
      <trkpt lat="44.69718" lon="5.61603">
        <ele>953</ele>
      </trkpt>
      <trkpt lat="44.69727" lon="5.61614">
        <ele>953.3</ele>
      </trkpt>
      <trkpt lat="44.69737" lon="5.61624">
        <ele>952.9</ele>
      </trkpt>
      <trkpt lat="44.69749" lon="5.6163">
        <ele>952.6</ele>
      </trkpt>
      <trkpt lat="44.69774" lon="5.61638">
        <ele>964.8</ele>
      </trkpt>
      <trkpt lat="44.69828" lon="5.61651">
        <ele>966.1</ele>
      </trkpt>
      <trkpt lat="44.69871" lon="5.61653">
        <ele>976.9</ele>
      </trkpt>
      <trkpt lat="44.69907" lon="5.6166">
        <ele>974.9</ele>
      </trkpt>
      <trkpt lat="44.69966" lon="5.61667">
        <ele>976.9</ele>
      </trkpt>
      <trkpt lat="44.69979" lon="5.61671">
        <ele>978.1</ele>
      </trkpt>
      <trkpt lat="44.70014" lon="5.61694">
        <ele>985.3</ele>
      </trkpt>
      <trkpt lat="44.70019" lon="5.61695">
        <ele>985.6</ele>
      </trkpt>
      <trkpt lat="44.7002" lon="5.61696">
        <ele>985.7</ele>
      </trkpt>
      <trkpt lat="44.70027" lon="5.61697">
        <ele>986.2</ele>
      </trkpt>
      <trkpt lat="44.70033" lon="5.61697">
        <ele>986.7</ele>
      </trkpt>
      <trkpt lat="44.7004" lon="5.61695">
        <ele>987.4</ele>
      </trkpt>
      <trkpt lat="44.7006" lon="5.61687">
        <ele>990.2</ele>
      </trkpt>
      <trkpt lat="44.7007" lon="5.61682">
        <ele>992.4</ele>
      </trkpt>
      <trkpt lat="44.70076" lon="5.6168">
        <ele>993.8</ele>
      </trkpt>
      <trkpt lat="44.70086" lon="5.6168">
        <ele>1000.7</ele>
      </trkpt>
      <trkpt lat="44.70092" lon="5.61682">
        <ele>1001</ele>
      </trkpt>
      <trkpt lat="44.70102" lon="5.6169">
        <ele>1001.4</ele>
      </trkpt>
      <trkpt lat="44.70107" lon="5.61695">
        <ele>1001.5</ele>
      </trkpt>
      <trkpt lat="44.70115" lon="5.61707">
        <ele>1001</ele>
      </trkpt>
      <trkpt lat="44.70126" lon="5.61731">
        <ele>999.3</ele>
      </trkpt>
      <trkpt lat="44.70138" lon="5.61767">
        <ele>995.2</ele>
      </trkpt>
      <trkpt lat="44.70154" lon="5.61805">
        <ele>996.2</ele>
      </trkpt>
      <trkpt lat="44.70158" lon="5.61828">
        <ele>996.2</ele>
      </trkpt>
      <trkpt lat="44.70158" lon="5.61836">
        <ele>1000.6</ele>
      </trkpt>
      <trkpt lat="44.70157" lon="5.61843">
        <ele>1002.5</ele>
      </trkpt>
      <trkpt lat="44.70153" lon="5.61857">
        <ele>1006.4</ele>
      </trkpt>
      <trkpt lat="44.7015" lon="5.61863">
        <ele>1007.9</ele>
      </trkpt>
      <trkpt lat="44.70142" lon="5.61871">
        <ele>1009.9</ele>
      </trkpt>
      <trkpt lat="44.70138" lon="5.61873">
        <ele>1010.5</ele>
      </trkpt>
      <trkpt lat="44.70134" lon="5.61873">
        <ele>1010.9</ele>
      </trkpt>
      <trkpt lat="44.70129" lon="5.61872">
        <ele>1011.2</ele>
      </trkpt>
      <trkpt lat="44.7012" lon="5.61865">
        <ele>1011</ele>
      </trkpt>
      <trkpt lat="44.70117" lon="5.61862">
        <ele>1010.9</ele>
      </trkpt>
      <trkpt lat="44.70108" lon="5.61847">
        <ele>1009.4</ele>
      </trkpt>
      <trkpt lat="44.70103" lon="5.61835">
        <ele>1008.2</ele>
      </trkpt>
      <trkpt lat="44.70099" lon="5.61822">
        <ele>999.6</ele>
      </trkpt>
      <trkpt lat="44.70096" lon="5.61803">
        <ele>997.1</ele>
      </trkpt>
      <trkpt lat="44.70092" lon="5.61794">
        <ele>995.9</ele>
      </trkpt>
      <trkpt lat="44.70087" lon="5.61789">
        <ele>995</ele>
      </trkpt>
      <trkpt lat="44.70083" lon="5.61787">
        <ele>996.8</ele>
      </trkpt>
      <trkpt lat="44.70072" lon="5.61787">
        <ele>997.2</ele>
      </trkpt>
      <trkpt lat="44.70063" lon="5.61788">
        <ele>997.7</ele>
      </trkpt>
      <trkpt lat="44.70027" lon="5.61795">
        <ele>1001.1</ele>
      </trkpt>
      <trkpt lat="44.70013" lon="5.61795">
        <ele>1002</ele>
      </trkpt>
      <trkpt lat="44.70009" lon="5.61794">
        <ele>1001.8</ele>
      </trkpt>
      <trkpt lat="44.70008" lon="5.61794">
        <ele>1001.9</ele>
      </trkpt>
      <trkpt lat="44.6999" lon="5.61786">
        <ele>997.6</ele>
      </trkpt>
      <trkpt lat="44.69981" lon="5.61784">
        <ele>996.7</ele>
      </trkpt>
      <trkpt lat="44.69977" lon="5.61784">
        <ele>996.6</ele>
      </trkpt>
      <trkpt lat="44.69974" lon="5.61785">
        <ele>996.8</ele>
      </trkpt>
      <trkpt lat="44.69973" lon="5.61785">
        <ele>996.7</ele>
      </trkpt>
      <trkpt lat="44.69964" lon="5.61789">
        <ele>997.3</ele>
      </trkpt>
      <trkpt lat="44.69958" lon="5.61795">
        <ele>998.3</ele>
      </trkpt>
      <trkpt lat="44.69944" lon="5.61813">
        <ele>1001.7</ele>
      </trkpt>
      <trkpt lat="44.69934" lon="5.61822">
        <ele>1004</ele>
      </trkpt>
      <trkpt lat="44.69897" lon="5.61848">
        <ele>1019.5</ele>
      </trkpt>
      <trkpt lat="44.69864" lon="5.61868">
        <ele>1021.8</ele>
      </trkpt>
      <trkpt lat="44.69863" lon="5.61869">
        <ele>1022</ele>
      </trkpt>
      <trkpt lat="44.69829" lon="5.61891">
        <ele>1013.1</ele>
      </trkpt>
      <trkpt lat="44.69813" lon="5.619">
        <ele>1012.9</ele>
      </trkpt>
      <trkpt lat="44.69798" lon="5.61906">
        <ele>1008.7</ele>
      </trkpt>
      <trkpt lat="44.69797" lon="5.61906">
        <ele>1008.4</ele>
      </trkpt>
      <trkpt lat="44.69788" lon="5.61911">
        <ele>1006.4</ele>
      </trkpt>
      <trkpt lat="44.6978" lon="5.61917">
        <ele>1025.2</ele>
      </trkpt>
      <trkpt lat="44.69772" lon="5.61926">
        <ele>1022.7</ele>
      </trkpt>
      <trkpt lat="44.69769" lon="5.61932">
        <ele>1023</ele>
      </trkpt>
      <trkpt lat="44.69768" lon="5.61933">
        <ele>1022.9</ele>
      </trkpt>
      <trkpt lat="44.69767" lon="5.61938">
        <ele>1024.2</ele>
      </trkpt>
      <trkpt lat="44.69764" lon="5.61944">
        <ele>1025.5</ele>
      </trkpt>
      <trkpt lat="44.69762" lon="5.61957">
        <ele>1028.8</ele>
      </trkpt>
      <trkpt lat="44.69756" lon="5.61981">
        <ele>1031</ele>
      </trkpt>
      <trkpt lat="44.69745" lon="5.62009">
        <ele>1026</ele>
      </trkpt>
      <trkpt lat="44.69732" lon="5.62032">
        <ele>1025.7</ele>
      </trkpt>
      <trkpt lat="44.69725" lon="5.62042">
        <ele>1026.4</ele>
      </trkpt>
      <trkpt lat="44.69668" lon="5.62106">
        <ele>1043.2</ele>
      </trkpt>
      <trkpt lat="44.69654" lon="5.6212">
        <ele>1018.8</ele>
      </trkpt>
      <trkpt lat="44.6965" lon="5.62125">
        <ele>1020</ele>
      </trkpt>
      <trkpt lat="44.69625" lon="5.62151">
        <ele>1019.8</ele>
      </trkpt>
      <trkpt lat="44.69625" lon="5.62152">
        <ele>1020</ele>
      </trkpt>
      <trkpt lat="44.6962" lon="5.62158">
        <ele>1018.8</ele>
      </trkpt>
      <trkpt lat="44.69617" lon="5.62164">
        <ele>1018.2</ele>
      </trkpt>
      <trkpt lat="44.69606" lon="5.62194">
        <ele>1044.2</ele>
      </trkpt>
      <trkpt lat="44.69595" lon="5.62213">
        <ele>1046.8</ele>
      </trkpt>
      <trkpt lat="44.69589" lon="5.62221">
        <ele>1047</ele>
      </trkpt>
      <trkpt lat="44.69575" lon="5.62247">
        <ele>1028.5</ele>
      </trkpt>
      <trkpt lat="44.69573" lon="5.62252">
        <ele>1034.3</ele>
      </trkpt>
      <trkpt lat="44.69566" lon="5.62265">
        <ele>1029.7</ele>
      </trkpt>
      <trkpt lat="44.69562" lon="5.62278">
        <ele>1028</ele>
      </trkpt>
      <trkpt lat="44.69561" lon="5.62285">
        <ele>1028.1</ele>
      </trkpt>
      <trkpt lat="44.69561" lon="5.62292">
        <ele>1028.9</ele>
      </trkpt>
      <trkpt lat="44.69559" lon="5.62313">
        <ele>1032.4</ele>
      </trkpt>
      <trkpt lat="44.69557" lon="5.62319">
        <ele>1032.8</ele>
      </trkpt>
      <trkpt lat="44.69549" lon="5.62333">
        <ele>1030.5</ele>
      </trkpt>
      <trkpt lat="44.69546" lon="5.62336">
        <ele>1032.7</ele>
      </trkpt>
      <trkpt lat="44.69544" lon="5.6234">
        <ele>1031.7</ele>
      </trkpt>
      <trkpt lat="44.69544" lon="5.62342">
        <ele>1031.6</ele>
      </trkpt>
      <trkpt lat="44.69543" lon="5.62345">
        <ele>1031.1</ele>
      </trkpt>
      <trkpt lat="44.69543" lon="5.62349">
        <ele>1030.9</ele>
      </trkpt>
      <trkpt lat="44.69544" lon="5.62353">
        <ele>1031.1</ele>
      </trkpt>
      <trkpt lat="44.69546" lon="5.62356">
        <ele>1031.6</ele>
      </trkpt>
      <trkpt lat="44.69549" lon="5.62358">
        <ele>1032.4</ele>
      </trkpt>
      <trkpt lat="44.69552" lon="5.62359">
        <ele>1033.2</ele>
      </trkpt>
      <trkpt lat="44.69559" lon="5.6236">
        <ele>1035.2</ele>
      </trkpt>
      <trkpt lat="44.69571" lon="5.62364">
        <ele>1037.4</ele>
      </trkpt>
      <trkpt lat="44.6958" lon="5.62372">
        <ele>1037.1</ele>
      </trkpt>
      <trkpt lat="44.69625" lon="5.62427">
        <ele>1061.1</ele>
      </trkpt>
      <trkpt lat="44.69625" lon="5.62428">
        <ele>1061.1</ele>
      </trkpt>
      <trkpt lat="44.69628" lon="5.62433">
        <ele>1062</ele>
      </trkpt>
      <trkpt lat="44.69634" lon="5.62447">
        <ele>1062.9</ele>
      </trkpt>
      <trkpt lat="44.69638" lon="5.62473">
        <ele>1062.6</ele>
      </trkpt>
      <trkpt lat="44.69641" lon="5.62519">
        <ele>1060</ele>
      </trkpt>
      <trkpt lat="44.69641" lon="5.62557">
        <ele>1059.6</ele>
      </trkpt>
      <trkpt lat="44.69639" lon="5.62584">
        <ele>1065.6</ele>
      </trkpt>
      <trkpt lat="44.69639" lon="5.62608">
        <ele>1065.2</ele>
      </trkpt>
      <trkpt lat="44.6964" lon="5.62615">
        <ele>1065.7</ele>
      </trkpt>
      <trkpt lat="44.69643" lon="5.62625">
        <ele>1067.4</ele>
      </trkpt>
      <trkpt lat="44.69644" lon="5.62634">
        <ele>1069</ele>
      </trkpt>
      <trkpt lat="44.69644" lon="5.62647">
        <ele>1072</ele>
      </trkpt>
      <trkpt lat="44.6964" lon="5.62659">
        <ele>1072.3</ele>
      </trkpt>
      <trkpt lat="44.6963" lon="5.62674">
        <ele>1080.4</ele>
      </trkpt>
      <trkpt lat="44.69612" lon="5.62692">
        <ele>1074.4</ele>
      </trkpt>
      <trkpt lat="44.69604" lon="5.62702">
        <ele>1074.1</ele>
      </trkpt>
      <trkpt lat="44.69599" lon="5.6271">
        <ele>1074.5</ele>
      </trkpt>
      <trkpt lat="44.69594" lon="5.62722">
        <ele>1075</ele>
      </trkpt>
      <trkpt lat="44.69588" lon="5.62741">
        <ele>1071.9</ele>
      </trkpt>
      <trkpt lat="44.69579" lon="5.62789">
        <ele>1059.5</ele>
      </trkpt>
      <trkpt lat="44.69558" lon="5.62866">
        <ele>1069.1</ele>
      </trkpt>
      <trkpt lat="44.69558" lon="5.62868">
        <ele>1069.2</ele>
      </trkpt>
      <trkpt lat="44.69553" lon="5.62889">
        <ele>1069.4</ele>
      </trkpt>
      <trkpt lat="44.69549" lon="5.62919">
        <ele>1073.7</ele>
      </trkpt>
      <trkpt lat="44.69547" lon="5.62947">
        <ele>1072</ele>
      </trkpt>
      <trkpt lat="44.69547" lon="5.62963">
        <ele>1071.9</ele>
      </trkpt>
      <trkpt lat="44.69548" lon="5.62971">
        <ele>1072.2</ele>
      </trkpt>
      <trkpt lat="44.69552" lon="5.62985">
        <ele>1073.7</ele>
      </trkpt>
      <trkpt lat="44.69556" lon="5.62991">
        <ele>1075.3</ele>
      </trkpt>
      <trkpt lat="44.69567" lon="5.63004">
        <ele>1077.8</ele>
      </trkpt>
      <trkpt lat="44.69576" lon="5.63017">
        <ele>1077.5</ele>
      </trkpt>
      <trkpt lat="44.69584" lon="5.63043">
        <ele>1090.3</ele>
      </trkpt>
      <trkpt lat="44.69587" lon="5.63049">
        <ele>1089.5</ele>
      </trkpt>
      <trkpt lat="44.69596" lon="5.63058">
        <ele>1088.7</ele>
      </trkpt>
      <trkpt lat="44.69599" lon="5.6306">
        <ele>1088.8</ele>
      </trkpt>
      <trkpt lat="44.69606" lon="5.63063">
        <ele>1089.8</ele>
      </trkpt>
      <trkpt lat="44.69617" lon="5.63063">
        <ele>1092.4</ele>
      </trkpt>
      <trkpt lat="44.69622" lon="5.63062">
        <ele>1093.6</ele>
      </trkpt>
      <trkpt lat="44.69641" lon="5.63055">
        <ele>1097.6</ele>
      </trkpt>
      <trkpt lat="44.69648" lon="5.63057">
        <ele>1098.5</ele>
      </trkpt>
      <trkpt lat="44.69651" lon="5.6306">
        <ele>1098.9</ele>
      </trkpt>
      <trkpt lat="44.69653" lon="5.63063">
        <ele>1099.1</ele>
      </trkpt>
      <trkpt lat="44.69655" lon="5.63068">
        <ele>1099.5</ele>
      </trkpt>
      <trkpt lat="44.69654" lon="5.63091">
        <ele>1096.5</ele>
      </trkpt>
      <trkpt lat="44.6965" lon="5.63111">
        <ele>1093.2</ele>
      </trkpt>
      <trkpt lat="44.69649" lon="5.63127">
        <ele>1092.9</ele>
      </trkpt>
      <trkpt lat="44.6965" lon="5.63164">
        <ele>1097.7</ele>
      </trkpt>
      <trkpt lat="44.69648" lon="5.63185">
        <ele>1097.2</ele>
      </trkpt>
      <trkpt lat="44.69634" lon="5.63249">
        <ele>1096.3</ele>
      </trkpt>
      <trkpt lat="44.69629" lon="5.63279">
        <ele>1098.2</ele>
      </trkpt>
      <trkpt lat="44.69629" lon="5.63299">
        <ele>1098.6</ele>
      </trkpt>
      <trkpt lat="44.69632" lon="5.63318">
        <ele>1100.2</ele>
      </trkpt>
      <trkpt lat="44.69649" lon="5.6339">
        <ele>1107.9</ele>
      </trkpt>
      <trkpt lat="44.6965" lon="5.63397">
        <ele>1108.8</ele>
      </trkpt>
      <trkpt lat="44.6965" lon="5.63405">
        <ele>1109.9</ele>
      </trkpt>
      <trkpt lat="44.69648" lon="5.63421">
        <ele>1114.9</ele>
      </trkpt>
      <trkpt lat="44.69646" lon="5.63428">
        <ele>1114.6</ele>
      </trkpt>
      <trkpt lat="44.69637" lon="5.63447">
        <ele>1114.1</ele>
      </trkpt>
      <trkpt lat="44.69629" lon="5.63455">
        <ele>1113.7</ele>
      </trkpt>
      <trkpt lat="44.69589" lon="5.63486">
        <ele>1112.3</ele>
      </trkpt>
      <trkpt lat="44.69578" lon="5.63497">
        <ele>1107.4</ele>
      </trkpt>
      <trkpt lat="44.69572" lon="5.63505">
        <ele>1107.2</ele>
      </trkpt>
      <trkpt lat="44.69567" lon="5.63514">
        <ele>1105</ele>
      </trkpt>
      <trkpt lat="44.69566" lon="5.63528">
        <ele>1103.9</ele>
      </trkpt>
      <trkpt lat="44.6957" lon="5.63542">
        <ele>1104.3</ele>
      </trkpt>
      <trkpt lat="44.69574" lon="5.63552">
        <ele>1105.3</ele>
      </trkpt>
      <trkpt lat="44.69581" lon="5.63575">
        <ele>1110.8</ele>
      </trkpt>
      <trkpt lat="44.69586" lon="5.63588">
        <ele>1116.8</ele>
      </trkpt>
      <trkpt lat="44.69643" lon="5.63789">
        <ele>1125.5</ele>
      </trkpt>
      <trkpt lat="44.69648" lon="5.63822">
        <ele>1127.9</ele>
      </trkpt>
      <trkpt lat="44.69649" lon="5.63836">
        <ele>1130.4</ele>
      </trkpt>
      <trkpt lat="44.69645" lon="5.63941">
        <ele>1133.8</ele>
      </trkpt>
      <trkpt lat="44.69646" lon="5.64036">
        <ele>1138.1</ele>
      </trkpt>
      <trkpt lat="44.69656" lon="5.64131">
        <ele>1142.5</ele>
      </trkpt>
      <trkpt lat="44.69661" lon="5.64157">
        <ele>1143.8</ele>
      </trkpt>
      <trkpt lat="44.6967" lon="5.64193">
        <ele>1153.8</ele>
      </trkpt>
      <trkpt lat="44.69673" lon="5.64214">
        <ele>1154.7</ele>
      </trkpt>
      <trkpt lat="44.69674" lon="5.64231">
        <ele>1152.6</ele>
      </trkpt>
      <trkpt lat="44.6966" lon="5.64419">
        <ele>1161.8</ele>
      </trkpt>
      <trkpt lat="44.69662" lon="5.64466">
        <ele>1164</ele>
      </trkpt>
      <trkpt lat="44.69665" lon="5.64491">
        <ele>1164.2</ele>
      </trkpt>
      <trkpt lat="44.69668" lon="5.64505">
        <ele>1166.7</ele>
      </trkpt>
      <trkpt lat="44.6967" lon="5.64508">
        <ele>1168.3</ele>
      </trkpt>
      <trkpt lat="44.69672" lon="5.6451">
        <ele>1169.3</ele>
      </trkpt>
      <trkpt lat="44.69676" lon="5.6451">
        <ele>1170.2</ele>
      </trkpt>
      <trkpt lat="44.69678" lon="5.64508">
        <ele>1170.3</ele>
      </trkpt>
      <trkpt lat="44.6968" lon="5.64504">
        <ele>1170.4</ele>
      </trkpt>
      <trkpt lat="44.69681" lon="5.645">
        <ele>1170.5</ele>
      </trkpt>
      <trkpt lat="44.6968" lon="5.64477">
        <ele>1172.9</ele>
      </trkpt>
      <trkpt lat="44.69678" lon="5.64465">
        <ele>1173.4</ele>
      </trkpt>
      <trkpt lat="44.69677" lon="5.64464">
        <ele>1173.3</ele>
      </trkpt>
      <trkpt lat="44.69675" lon="5.64448">
        <ele>1172.4</ele>
      </trkpt>
      <trkpt lat="44.69675" lon="5.64431">
        <ele>1169.3</ele>
      </trkpt>
      <trkpt lat="44.69679" lon="5.64402">
        <ele>1167.5</ele>
      </trkpt>
      <trkpt lat="44.69689" lon="5.64354">
        <ele>1167.5</ele>
      </trkpt>
      <trkpt lat="44.69699" lon="5.64319">
        <ele>1162.9</ele>
      </trkpt>
      <trkpt lat="44.69707" lon="5.64304">
        <ele>1164.2</ele>
      </trkpt>
      <trkpt lat="44.69712" lon="5.64298">
        <ele>1164.8</ele>
      </trkpt>
      <trkpt lat="44.69733" lon="5.64278">
        <ele>1167.4</ele>
      </trkpt>
      <trkpt lat="44.69739" lon="5.64268">
        <ele>1168.6</ele>
      </trkpt>
      <trkpt lat="44.69744" lon="5.64249">
        <ele>1171.1</ele>
      </trkpt>
      <trkpt lat="44.69744" lon="5.64241">
        <ele>1169.4</ele>
      </trkpt>
      <trkpt lat="44.69739" lon="5.64214">
        <ele>1165.5</ele>
      </trkpt>
      <trkpt lat="44.69733" lon="5.64198">
        <ele>1165.5</ele>
      </trkpt>
      <trkpt lat="44.69733" lon="5.64197">
        <ele>1165.6</ele>
      </trkpt>
      <trkpt lat="44.69728" lon="5.64186">
        <ele>1165.8</ele>
      </trkpt>
      <trkpt lat="44.69721" lon="5.64164">
        <ele>1166.4</ele>
      </trkpt>
      <trkpt lat="44.69716" lon="5.64137">
        <ele>1164.4</ele>
      </trkpt>
      <trkpt lat="44.69713" lon="5.64097">
        <ele>1164.4</ele>
      </trkpt>
      <trkpt lat="44.69715" lon="5.64047">
        <ele>1164.8</ele>
      </trkpt>
      <trkpt lat="44.69722" lon="5.63979">
        <ele>1165.3</ele>
      </trkpt>
      <trkpt lat="44.69726" lon="5.63956">
        <ele>1164.8</ele>
      </trkpt>
      <trkpt lat="44.69728" lon="5.63951">
        <ele>1165.2</ele>
      </trkpt>
      <trkpt lat="44.69729" lon="5.63946">
        <ele>1165.5</ele>
      </trkpt>
      <trkpt lat="44.69746" lon="5.63892">
        <ele>1166.3</ele>
      </trkpt>
      <trkpt lat="44.69749" lon="5.63879">
        <ele>1164.9</ele>
      </trkpt>
      <trkpt lat="44.69751" lon="5.63856">
        <ele>1184.4</ele>
      </trkpt>
      <trkpt lat="44.69751" lon="5.63829">
        <ele>1178</ele>
      </trkpt>
      <trkpt lat="44.69754" lon="5.63808">
        <ele>1182.8</ele>
      </trkpt>
      <trkpt lat="44.69759" lon="5.63795">
        <ele>1183.7</ele>
      </trkpt>
      <trkpt lat="44.69771" lon="5.63779">
        <ele>1184.4</ele>
      </trkpt>
      <trkpt lat="44.6979" lon="5.63764">
        <ele>1187.2</ele>
      </trkpt>
      <trkpt lat="44.69808" lon="5.63744">
        <ele>1189.6</ele>
      </trkpt>
      <trkpt lat="44.69821" lon="5.63719">
        <ele>1190.1</ele>
      </trkpt>
      <trkpt lat="44.69825" lon="5.63704">
        <ele>1190.3</ele>
      </trkpt>
      <trkpt lat="44.69825" lon="5.63703">
        <ele>1190.3</ele>
      </trkpt>
      <trkpt lat="44.69826" lon="5.63699">
        <ele>1190.7</ele>
      </trkpt>
      <trkpt lat="44.69827" lon="5.63678">
        <ele>1194.2</ele>
      </trkpt>
      <trkpt lat="44.69824" lon="5.63618">
        <ele>1187.2</ele>
      </trkpt>
      <trkpt lat="44.69826" lon="5.636">
        <ele>1188.8</ele>
      </trkpt>
      <trkpt lat="44.69828" lon="5.63592">
        <ele>1190.8</ele>
      </trkpt>
      <trkpt lat="44.69834" lon="5.63576">
        <ele>1198.2</ele>
      </trkpt>
      <trkpt lat="44.69839" lon="5.63569">
        <ele>1200.6</ele>
      </trkpt>
      <trkpt lat="44.6986" lon="5.63546">
        <ele>1205.1</ele>
      </trkpt>
      <trkpt lat="44.69873" lon="5.63529">
        <ele>1206.6</ele>
      </trkpt>
      <trkpt lat="44.69883" lon="5.63509">
        <ele>1208.2</ele>
      </trkpt>
      <trkpt lat="44.69883" lon="5.63508">
        <ele>1208.2</ele>
      </trkpt>
      <trkpt lat="44.69887" lon="5.635">
        <ele>1205.8</ele>
      </trkpt>
      <trkpt lat="44.69889" lon="5.6349">
        <ele>1206.2</ele>
      </trkpt>
      <trkpt lat="44.69891" lon="5.63485">
        <ele>1206.5</ele>
      </trkpt>
      <trkpt lat="44.69892" lon="5.6348">
        <ele>1206.4</ele>
      </trkpt>
      <trkpt lat="44.69894" lon="5.63459">
        <ele>1206</ele>
      </trkpt>
      <trkpt lat="44.69894" lon="5.63449">
        <ele>1206.3</ele>
      </trkpt>
      <trkpt lat="44.69887" lon="5.63356">
        <ele>1205.5</ele>
      </trkpt>
      <trkpt lat="44.69889" lon="5.63337">
        <ele>1206.9</ele>
      </trkpt>
      <trkpt lat="44.6989" lon="5.63333">
        <ele>1206</ele>
      </trkpt>
      <trkpt lat="44.69892" lon="5.63331">
        <ele>1206.6</ele>
      </trkpt>
      <trkpt lat="44.69894" lon="5.6333">
        <ele>1207.3</ele>
      </trkpt>
      <trkpt lat="44.69897" lon="5.6333">
        <ele>1208.4</ele>
      </trkpt>
      <trkpt lat="44.69899" lon="5.63331">
        <ele>1209.2</ele>
      </trkpt>
      <trkpt lat="44.699" lon="5.63333">
        <ele>1209.7</ele>
      </trkpt>
      <trkpt lat="44.69899" lon="5.63376">
        <ele>1207.2</ele>
      </trkpt>
      <trkpt lat="44.699" lon="5.63383">
        <ele>1207.6</ele>
      </trkpt>
      <trkpt lat="44.69909" lon="5.63413">
        <ele>1214.9</ele>
      </trkpt>
      <trkpt lat="44.69923" lon="5.63451">
        <ele>1230.7</ele>
      </trkpt>
      <trkpt lat="44.69927" lon="5.63468">
        <ele>1230.9</ele>
      </trkpt>
      <trkpt lat="44.69927" lon="5.63476">
        <ele>1229.9</ele>
      </trkpt>
      <trkpt lat="44.69928" lon="5.63477">
        <ele>1230</ele>
      </trkpt>
      <trkpt lat="44.69927" lon="5.63486">
        <ele>1227.9</ele>
      </trkpt>
      <trkpt lat="44.69927" lon="5.63495">
        <ele>1225.8</ele>
      </trkpt>
      <trkpt lat="44.69925" lon="5.63504">
        <ele>1226.8</ele>
      </trkpt>
      <trkpt lat="44.69919" lon="5.63521">
        <ele>1232.5</ele>
      </trkpt>
      <trkpt lat="44.69893" lon="5.63566">
        <ele>1215.5</ele>
      </trkpt>
      <trkpt lat="44.69886" lon="5.63581">
        <ele>1214.5</ele>
      </trkpt>
      <trkpt lat="44.6988" lon="5.63598">
        <ele>1218.9</ele>
      </trkpt>
      <trkpt lat="44.69878" lon="5.63607">
        <ele>1218.5</ele>
      </trkpt>
      <trkpt lat="44.69878" lon="5.63616">
        <ele>1218.8</ele>
      </trkpt>
      <trkpt lat="44.69877" lon="5.63625">
        <ele>1219</ele>
      </trkpt>
      <trkpt lat="44.69877" lon="5.63644">
        <ele>1220</ele>
      </trkpt>
      <trkpt lat="44.69879" lon="5.63664">
        <ele>1221.6</ele>
      </trkpt>
      <trkpt lat="44.69882" lon="5.63673">
        <ele>1224</ele>
      </trkpt>
      <trkpt lat="44.69884" lon="5.63682">
        <ele>1224.3</ele>
      </trkpt>
      <trkpt lat="44.699" lon="5.63718">
        <ele>1226.1</ele>
      </trkpt>
      <trkpt lat="44.69918" lon="5.63767">
        <ele>1243.7</ele>
      </trkpt>
      <trkpt lat="44.69934" lon="5.6382">
        <ele>1243.1</ele>
      </trkpt>
      <trkpt lat="44.69939" lon="5.63841">
        <ele>1241.4</ele>
      </trkpt>
      <trkpt lat="44.6995" lon="5.6394">
        <ele>1244.8</ele>
      </trkpt>
      <trkpt lat="44.6995" lon="5.63944">
        <ele>1244.9</ele>
      </trkpt>
      <trkpt lat="44.69961" lon="5.64043">
        <ele>1246.6</ele>
      </trkpt>
      <trkpt lat="44.69967" lon="5.64074">
        <ele>1248</ele>
      </trkpt>
      <trkpt lat="44.69988" lon="5.6416">
        <ele>1251.5</ele>
      </trkpt>
      <trkpt lat="44.70008" lon="5.64213">
        <ele>1262.6</ele>
      </trkpt>
      <trkpt lat="44.70015" lon="5.64235">
        <ele>1261.2</ele>
      </trkpt>
      <trkpt lat="44.7002" lon="5.64257">
        <ele>1260.4</ele>
      </trkpt>
      <trkpt lat="44.70034" lon="5.64376">
        <ele>1264.2</ele>
      </trkpt>
      <trkpt lat="44.70035" lon="5.64422">
        <ele>1265.3</ele>
      </trkpt>
      <trkpt lat="44.70037" lon="5.64442">
        <ele>1266</ele>
      </trkpt>
      <trkpt lat="44.7004" lon="5.64453">
        <ele>1266.5</ele>
      </trkpt>
      <trkpt lat="44.70047" lon="5.64472">
        <ele>1267.6</ele>
      </trkpt>
      <trkpt lat="44.7006" lon="5.64498">
        <ele>1270.7</ele>
      </trkpt>
      <trkpt lat="44.7007" lon="5.64523">
        <ele>1271.1</ele>
      </trkpt>
      <trkpt lat="44.70074" lon="5.6454">
        <ele>1270.5</ele>
      </trkpt>
      <trkpt lat="44.70075" lon="5.64549">
        <ele>1270.6</ele>
      </trkpt>
      <trkpt lat="44.70074" lon="5.64556">
        <ele>1270.8</ele>
      </trkpt>
      <trkpt lat="44.70074" lon="5.64563">
        <ele>1271.3</ele>
      </trkpt>
      <trkpt lat="44.70069" lon="5.64581">
        <ele>1272.1</ele>
      </trkpt>
      <trkpt lat="44.70065" lon="5.64592">
        <ele>1272.8</ele>
      </trkpt>
      <trkpt lat="44.70061" lon="5.64607">
        <ele>1272.2</ele>
      </trkpt>
      <trkpt lat="44.70058" lon="5.64625">
        <ele>1272.4</ele>
      </trkpt>
      <trkpt lat="44.70052" lon="5.64722">
        <ele>1276.1</ele>
      </trkpt>
      <trkpt lat="44.70054" lon="5.6474">
        <ele>1277.2</ele>
      </trkpt>
      <trkpt lat="44.70058" lon="5.6476">
        <ele>1277.2</ele>
      </trkpt>
      <trkpt lat="44.70067" lon="5.64779">
        <ele>1276.9</ele>
      </trkpt>
      <trkpt lat="44.70072" lon="5.64786">
        <ele>1276.7</ele>
      </trkpt>
      <trkpt lat="44.7008" lon="5.64795">
        <ele>1276.6</ele>
      </trkpt>
      <trkpt lat="44.70088" lon="5.64802">
        <ele>1288.4</ele>
      </trkpt>
      <trkpt lat="44.70111" lon="5.64817">
        <ele>1289.7</ele>
      </trkpt>
      <trkpt lat="44.70112" lon="5.64818">
        <ele>1289.8</ele>
      </trkpt>
      <trkpt lat="44.7012" lon="5.64823">
        <ele>1291.1</ele>
      </trkpt>
      <trkpt lat="44.70133" lon="5.64834">
        <ele>1293.7</ele>
      </trkpt>
      <trkpt lat="44.70138" lon="5.64848">
        <ele>1294.6</ele>
      </trkpt>
      <trkpt lat="44.70142" lon="5.64866">
        <ele>1295.1</ele>
      </trkpt>
      <trkpt lat="44.70142" lon="5.64874">
        <ele>1295.3</ele>
      </trkpt>
      <trkpt lat="44.7014" lon="5.64889">
        <ele>1295.9</ele>
      </trkpt>
      <trkpt lat="44.70138" lon="5.64897">
        <ele>1296.1</ele>
      </trkpt>
      <trkpt lat="44.70135" lon="5.64902">
        <ele>1295.9</ele>
      </trkpt>
      <trkpt lat="44.70123" lon="5.64909">
        <ele>1294.4</ele>
      </trkpt>
      <trkpt lat="44.70113" lon="5.6491">
        <ele>1293.1</ele>
      </trkpt>
      <trkpt lat="44.70078" lon="5.6492">
        <ele>1289.9</ele>
      </trkpt>
      <trkpt lat="44.70073" lon="5.64923">
        <ele>1290.5</ele>
      </trkpt>
      <trkpt lat="44.70068" lon="5.64927">
        <ele>1291</ele>
      </trkpt>
      <trkpt lat="44.70064" lon="5.64932">
        <ele>1291.4</ele>
      </trkpt>
      <trkpt lat="44.70064" lon="5.64933">
        <ele>1291.5</ele>
      </trkpt>
      <trkpt lat="44.70057" lon="5.64945">
        <ele>1292.4</ele>
      </trkpt>
      <trkpt lat="44.7005" lon="5.64961">
        <ele>1293.8</ele>
      </trkpt>
      <trkpt lat="44.70026" lon="5.65001">
        <ele>1305.2</ele>
      </trkpt>
      <trkpt lat="44.70018" lon="5.65009">
        <ele>1304.2</ele>
      </trkpt>
      <trkpt lat="44.70017" lon="5.65009">
        <ele>1304</ele>
      </trkpt>
      <trkpt lat="44.70009" lon="5.65013">
        <ele>1303.1</ele>
      </trkpt>
      <trkpt lat="44.70003" lon="5.65015">
        <ele>1303</ele>
      </trkpt>
      <trkpt lat="44.69977" lon="5.65011">
        <ele>1299.9</ele>
      </trkpt>
      <trkpt lat="44.69971" lon="5.65009">
        <ele>1299.8</ele>
      </trkpt>
      <trkpt lat="44.69965" lon="5.65009">
        <ele>1299.7</ele>
      </trkpt>
      <trkpt lat="44.69956" lon="5.65011">
        <ele>1299.3</ele>
      </trkpt>
      <trkpt lat="44.69952" lon="5.65013">
        <ele>1299.1</ele>
      </trkpt>
      <trkpt lat="44.69946" lon="5.65015">
        <ele>1298.7</ele>
      </trkpt>
      <trkpt lat="44.6994" lon="5.65021">
        <ele>1298.9</ele>
      </trkpt>
      <trkpt lat="44.69928" lon="5.6503">
        <ele>1299.6</ele>
      </trkpt>
      <trkpt lat="44.69918" lon="5.65039">
        <ele>1301.4</ele>
      </trkpt>
      <trkpt lat="44.69893" lon="5.65051">
        <ele>1298.6</ele>
      </trkpt>
      <trkpt lat="44.69853" lon="5.65058">
        <ele>1298</ele>
      </trkpt>
      <trkpt lat="44.69833" lon="5.65067">
        <ele>1298.5</ele>
      </trkpt>
      <trkpt lat="44.69805" lon="5.65075">
        <ele>1297.1</ele>
      </trkpt>
      <trkpt lat="44.69781" lon="5.65079">
        <ele>1297.4</ele>
      </trkpt>
      <trkpt lat="44.69754" lon="5.65081">
        <ele>1303.6</ele>
      </trkpt>
      <trkpt lat="44.6974" lon="5.65079">
        <ele>1299.5</ele>
      </trkpt>
      <trkpt lat="44.69702" lon="5.65079">
        <ele>1292</ele>
      </trkpt>
      <trkpt lat="44.69682" lon="5.65086">
        <ele>1304.1</ele>
      </trkpt>
      <trkpt lat="44.69676" lon="5.65089">
        <ele>1302.6</ele>
      </trkpt>
      <trkpt lat="44.69665" lon="5.65098">
        <ele>1300.4</ele>
      </trkpt>
      <trkpt lat="44.69653" lon="5.65114">
        <ele>1303.2</ele>
      </trkpt>
      <trkpt lat="44.69631" lon="5.65155">
        <ele>1307.5</ele>
      </trkpt>
      <trkpt lat="44.69627" lon="5.65164">
        <ele>1307.7</ele>
      </trkpt>
      <trkpt lat="44.69621" lon="5.65174">
        <ele>1320.3</ele>
      </trkpt>
      <trkpt lat="44.69605" lon="5.65192">
        <ele>1320.3</ele>
      </trkpt>
      <trkpt lat="44.69591" lon="5.65203">
        <ele>1321.1</ele>
      </trkpt>
      <trkpt lat="44.69578" lon="5.6521">
        <ele>1313.6</ele>
      </trkpt>
      <trkpt lat="44.69574" lon="5.65213">
        <ele>1313.9</ele>
      </trkpt>
      <trkpt lat="44.69543" lon="5.65223">
        <ele>1312.6</ele>
      </trkpt>
      <trkpt lat="44.69501" lon="5.65243">
        <ele>1312.4</ele>
      </trkpt>
      <trkpt lat="44.69483" lon="5.65253">
        <ele>1316.7</ele>
      </trkpt>
      <trkpt lat="44.69448" lon="5.65276">
        <ele>1318.5</ele>
      </trkpt>
      <trkpt lat="44.69406" lon="5.65299">
        <ele>1315.2</ele>
      </trkpt>
      <trkpt lat="44.69348" lon="5.65327">
        <ele>1315.8</ele>
      </trkpt>
      <trkpt lat="44.69318" lon="5.65338">
        <ele>1321.5</ele>
      </trkpt>
      <trkpt lat="44.69257" lon="5.65356">
        <ele>1320.2</ele>
      </trkpt>
      <trkpt lat="44.69189" lon="5.6537">
        <ele>1319.4</ele>
      </trkpt>
      <trkpt lat="44.69171" lon="5.65375">
        <ele>1319.5</ele>
      </trkpt>
      <trkpt lat="44.69165" lon="5.65378">
        <ele>1320.7</ele>
      </trkpt>
      <trkpt lat="44.69164" lon="5.65378">
        <ele>1320.7</ele>
      </trkpt>
      <trkpt lat="44.69149" lon="5.6539">
        <ele>1320.8</ele>
      </trkpt>
      <trkpt lat="44.69141" lon="5.65398">
        <ele>1320.7</ele>
      </trkpt>
      <trkpt lat="44.69131" lon="5.65413">
        <ele>1320.3</ele>
      </trkpt>
      <trkpt lat="44.6913" lon="5.65417">
        <ele>1317.8</ele>
      </trkpt>
      <trkpt lat="44.69128" lon="5.6542">
        <ele>1317.7</ele>
      </trkpt>
      <trkpt lat="44.69122" lon="5.65444">
        <ele>1317.3</ele>
      </trkpt>
      <trkpt lat="44.69122" lon="5.65467">
        <ele>1317.2</ele>
      </trkpt>
      <trkpt lat="44.69121" lon="5.65477">
        <ele>1317</ele>
      </trkpt>
      <trkpt lat="44.69121" lon="5.65488">
        <ele>1316.8</ele>
      </trkpt>
      <trkpt lat="44.69117" lon="5.65508">
        <ele>1318.6</ele>
      </trkpt>
      <trkpt lat="44.69078" lon="5.65613">
        <ele>1305.6</ele>
      </trkpt>
      <trkpt lat="44.69073" lon="5.65623">
        <ele>1305.7</ele>
      </trkpt>
      <trkpt lat="44.69045" lon="5.65667">
        <ele>1311.1</ele>
      </trkpt>
      <trkpt lat="44.69004" lon="5.65724">
        <ele>1308.2</ele>
      </trkpt>
      <trkpt lat="44.68974" lon="5.65772">
        <ele>1295.6</ele>
      </trkpt>
      <trkpt lat="44.68951" lon="5.65816">
        <ele>1292.8</ele>
      </trkpt>
      <trkpt lat="44.68927" lon="5.65878">
        <ele>1303.1</ele>
      </trkpt>
      <trkpt lat="44.68919" lon="5.65895">
        <ele>1302.2</ele>
      </trkpt>
      <trkpt lat="44.68911" lon="5.65909">
        <ele>1284.7</ele>
      </trkpt>
      <trkpt lat="44.68909" lon="5.65914">
        <ele>1285.9</ele>
      </trkpt>
      <trkpt lat="44.68876" lon="5.65975">
        <ele>1279.5</ele>
      </trkpt>
      <trkpt lat="44.6885" lon="5.66062">
        <ele>1287.2</ele>
      </trkpt>
      <trkpt lat="44.68827" lon="5.66162">
        <ele>1273.3</ele>
      </trkpt>
      <trkpt lat="44.68824" lon="5.66182">
        <ele>1269.1</ele>
      </trkpt>
      <trkpt lat="44.68823" lon="5.66214">
        <ele>1264.1</ele>
      </trkpt>
      <trkpt lat="44.68827" lon="5.66248">
        <ele>1271.6</ele>
      </trkpt>
      <trkpt lat="44.68829" lon="5.66258">
        <ele>1267.9</ele>
      </trkpt>
      <trkpt lat="44.68833" lon="5.6627">
        <ele>1262.2</ele>
      </trkpt>
      <trkpt lat="44.68835" lon="5.66282">
        <ele>1284</ele>
      </trkpt>
      <trkpt lat="44.68845" lon="5.66315">
        <ele>1278.2</ele>
      </trkpt>
      <trkpt lat="44.6885" lon="5.66325">
        <ele>1276.9</ele>
      </trkpt>
      <trkpt lat="44.68854" lon="5.6633">
        <ele>1278.4</ele>
      </trkpt>
      <trkpt lat="44.68882" lon="5.66349">
        <ele>1274.7</ele>
      </trkpt>
      <trkpt lat="44.6889" lon="5.66358">
        <ele>1275.9</ele>
      </trkpt>
      <trkpt lat="44.68896" lon="5.66368">
        <ele>1275.2</ele>
      </trkpt>
      <trkpt lat="44.68907" lon="5.66393">
        <ele>1273.4</ele>
      </trkpt>
      <trkpt lat="44.68912" lon="5.66413">
        <ele>1275.9</ele>
      </trkpt>
      <trkpt lat="44.68914" lon="5.66437">
        <ele>1263.4</ele>
      </trkpt>
      <trkpt lat="44.68915" lon="5.66438">
        <ele>1263.1</ele>
      </trkpt>
      <trkpt lat="44.68916" lon="5.66465">
        <ele>1258.9</ele>
      </trkpt>
      <trkpt lat="44.68915" lon="5.66474">
        <ele>1259.6</ele>
      </trkpt>
      <trkpt lat="44.68891" lon="5.66557">
        <ele>1253.4</ele>
      </trkpt>
      <trkpt lat="44.68891" lon="5.66558">
        <ele>1253.6</ele>
      </trkpt>
      <trkpt lat="44.68868" lon="5.66626">
        <ele>1250.4</ele>
      </trkpt>
      <trkpt lat="44.68859" lon="5.66648">
        <ele>1247.3</ele>
      </trkpt>
      <trkpt lat="44.68858" lon="5.66649">
        <ele>1246.8</ele>
      </trkpt>
      <trkpt lat="44.68843" lon="5.66681">
        <ele>1239.3</ele>
      </trkpt>
      <trkpt lat="44.68839" lon="5.66692">
        <ele>1240.6</ele>
      </trkpt>
      <trkpt lat="44.68833" lon="5.66714">
        <ele>1209.8</ele>
      </trkpt>
      <trkpt lat="44.68832" lon="5.66722">
        <ele>1210.6</ele>
      </trkpt>
      <trkpt lat="44.68832" lon="5.66732">
        <ele>1213.4</ele>
      </trkpt>
      <trkpt lat="44.68834" lon="5.66744">
        <ele>1230.5</ele>
      </trkpt>
      <trkpt lat="44.6884" lon="5.66755">
        <ele>1225.2</ele>
      </trkpt>
      <trkpt lat="44.68842" lon="5.66756">
        <ele>1225.1</ele>
      </trkpt>
      <trkpt lat="44.68843" lon="5.66758">
        <ele>1225</ele>
      </trkpt>
      <trkpt lat="44.68844" lon="5.66758">
        <ele>1225</ele>
      </trkpt>
      <trkpt lat="44.68845" lon="5.66759">
        <ele>1224.9</ele>
      </trkpt>
      <trkpt lat="44.68846" lon="5.66759">
        <ele>1224.9</ele>
      </trkpt>
      <trkpt lat="44.68849" lon="5.66762">
        <ele>1224.7</ele>
      </trkpt>
      <trkpt lat="44.68854" lon="5.66763">
        <ele>1225</ele>
      </trkpt>
      <trkpt lat="44.68872" lon="5.66761">
        <ele>1227.9</ele>
      </trkpt>
      <trkpt lat="44.68879" lon="5.66759">
        <ele>1229.9</ele>
      </trkpt>
      <trkpt lat="44.68883" lon="5.66759">
        <ele>1231</ele>
      </trkpt>
      <trkpt lat="44.68897" lon="5.66757">
        <ele>1236.9</ele>
      </trkpt>
      <trkpt lat="44.68915" lon="5.66759">
        <ele>1244.7</ele>
      </trkpt>
      <trkpt lat="44.68916" lon="5.6676">
        <ele>1244</ele>
      </trkpt>
      <trkpt lat="44.6892" lon="5.66761">
        <ele>1254.6</ele>
      </trkpt>
      <trkpt lat="44.68925" lon="5.66763">
        <ele>1254.9</ele>
      </trkpt>
      <trkpt lat="44.6893" lon="5.66767">
        <ele>1255.2</ele>
      </trkpt>
      <trkpt lat="44.68932" lon="5.66768">
        <ele>1255.4</ele>
      </trkpt>
      <trkpt lat="44.68934" lon="5.6677">
        <ele>1255.5</ele>
      </trkpt>
      <trkpt lat="44.68936" lon="5.66771">
        <ele>1255.7</ele>
      </trkpt>
      <trkpt lat="44.68938" lon="5.66773">
        <ele>1255.8</ele>
      </trkpt>
      <trkpt lat="44.68939" lon="5.66775">
        <ele>1255.7</ele>
      </trkpt>
      <trkpt lat="44.68941" lon="5.66776">
        <ele>1255.9</ele>
      </trkpt>
      <trkpt lat="44.68946" lon="5.66783">
        <ele>1256</ele>
      </trkpt>
      <trkpt lat="44.68953" lon="5.66796">
        <ele>1255.6</ele>
      </trkpt>
      <trkpt lat="44.68954" lon="5.66801">
        <ele>1255.2</ele>
      </trkpt>
      <trkpt lat="44.68954" lon="5.66803">
        <ele>1254.9</ele>
      </trkpt>
      <trkpt lat="44.68955" lon="5.66805">
        <ele>1254.9</ele>
      </trkpt>
      <trkpt lat="44.68956" lon="5.66815">
        <ele>1254</ele>
      </trkpt>
      <trkpt lat="44.68956" lon="5.66827">
        <ele>1252.8</ele>
      </trkpt>
      <trkpt lat="44.68952" lon="5.66851">
        <ele>1244.4</ele>
      </trkpt>
      <trkpt lat="44.68946" lon="5.66877">
        <ele>1242.6</ele>
      </trkpt>
      <trkpt lat="44.68946" lon="5.66878">
        <ele>1242.6</ele>
      </trkpt>
      <trkpt lat="44.68934" lon="5.66923">
        <ele>1232.1</ele>
      </trkpt>
      <trkpt lat="44.68933" lon="5.66925">
        <ele>1231.9</ele>
      </trkpt>
      <trkpt lat="44.68926" lon="5.66948">
        <ele>1236.9</ele>
      </trkpt>
      <trkpt lat="44.68926" lon="5.66949">
        <ele>1237.2</ele>
      </trkpt>
      <trkpt lat="44.6891" lon="5.66994">
        <ele>1214.6</ele>
      </trkpt>
      <trkpt lat="44.68909" lon="5.66999">
        <ele>1215.8</ele>
      </trkpt>
      <trkpt lat="44.68902" lon="5.6702">
        <ele>1206.1</ele>
      </trkpt>
      <trkpt lat="44.68882" lon="5.67109">
        <ele>1192.5</ele>
      </trkpt>
      <trkpt lat="44.68882" lon="5.67121">
        <ele>1190.9</ele>
      </trkpt>
      <trkpt lat="44.68884" lon="5.6713">
        <ele>1190.6</ele>
      </trkpt>
      <trkpt lat="44.68888" lon="5.67137">
        <ele>1191.3</ele>
      </trkpt>
      <trkpt lat="44.68894" lon="5.67144">
        <ele>1192.8</ele>
      </trkpt>
      <trkpt lat="44.68903" lon="5.67147">
        <ele>1195.3</ele>
      </trkpt>
      <trkpt lat="44.68915" lon="5.67147">
        <ele>1197.6</ele>
      </trkpt>
      <trkpt lat="44.68928" lon="5.67144">
        <ele>1213.3</ele>
      </trkpt>
      <trkpt lat="44.68943" lon="5.67139">
        <ele>1215.2</ele>
      </trkpt>
      <trkpt lat="44.6898" lon="5.67132">
        <ele>1216.6</ele>
      </trkpt>
      <trkpt lat="44.68983" lon="5.67132">
        <ele>1216.5</ele>
      </trkpt>
      <trkpt lat="44.69037" lon="5.6712">
        <ele>1215.1</ele>
      </trkpt>
      <trkpt lat="44.69043" lon="5.67118">
        <ele>1215</ele>
      </trkpt>
      <trkpt lat="44.69072" lon="5.67115">
        <ele>1214.1</ele>
      </trkpt>
      <trkpt lat="44.69074" lon="5.67114">
        <ele>1214.3</ele>
      </trkpt>
      <trkpt lat="44.6909" lon="5.67112">
        <ele>1208.2</ele>
      </trkpt>
      <trkpt lat="44.69097" lon="5.6711">
        <ele>1208.1</ele>
      </trkpt>
      <trkpt lat="44.69141" lon="5.67104">
        <ele>1205</ele>
      </trkpt>
      <trkpt lat="44.69144" lon="5.67105">
        <ele>1204.8</ele>
      </trkpt>
      <trkpt lat="44.69152" lon="5.67105">
        <ele>1204.6</ele>
      </trkpt>
      <trkpt lat="44.69165" lon="5.67109">
        <ele>1204</ele>
      </trkpt>
      <trkpt lat="44.69179" lon="5.67116">
        <ele>1204.5</ele>
      </trkpt>
      <trkpt lat="44.69191" lon="5.67119">
        <ele>1204.7</ele>
      </trkpt>
      <trkpt lat="44.69197" lon="5.67118">
        <ele>1205.2</ele>
      </trkpt>
      <trkpt lat="44.69214" lon="5.67118">
        <ele>1206.4</ele>
      </trkpt>
      <trkpt lat="44.69225" lon="5.6712">
        <ele>1207.1</ele>
      </trkpt>
      <trkpt lat="44.69232" lon="5.67124">
        <ele>1207.3</ele>
      </trkpt>
      <trkpt lat="44.69234" lon="5.67126">
        <ele>1207.3</ele>
      </trkpt>
      <trkpt lat="44.69234" lon="5.67127">
        <ele>1207.2</ele>
      </trkpt>
      <trkpt lat="44.69236" lon="5.67129">
        <ele>1207.2</ele>
      </trkpt>
      <trkpt lat="44.69236" lon="5.67131">
        <ele>1207.1</ele>
      </trkpt>
      <trkpt lat="44.69237" lon="5.67132">
        <ele>1207.1</ele>
      </trkpt>
      <trkpt lat="44.69238" lon="5.67134">
        <ele>1207.1</ele>
      </trkpt>
      <trkpt lat="44.69238" lon="5.67138">
        <ele>1207</ele>
      </trkpt>
      <trkpt lat="44.69239" lon="5.67139">
        <ele>1207</ele>
      </trkpt>
      <trkpt lat="44.69239" lon="5.67143">
        <ele>1207</ele>
      </trkpt>
      <trkpt lat="44.69236" lon="5.67156">
        <ele>1206.9</ele>
      </trkpt>
      <trkpt lat="44.69228" lon="5.67171">
        <ele>1203.4</ele>
      </trkpt>
      <trkpt lat="44.69211" lon="5.67212">
        <ele>1200.4</ele>
      </trkpt>
      <trkpt lat="44.69204" lon="5.67233">
        <ele>1199.1</ele>
      </trkpt>
      <trkpt lat="44.69195" lon="5.67255">
        <ele>1200.4</ele>
      </trkpt>
      <trkpt lat="44.69184" lon="5.67277">
        <ele>1200.2</ele>
      </trkpt>
      <trkpt lat="44.69124" lon="5.67421">
        <ele>1185.5</ele>
      </trkpt>
      <trkpt lat="44.691" lon="5.67489">
        <ele>1181.4</ele>
      </trkpt>
      <trkpt lat="44.69099" lon="5.6749">
        <ele>1180.9</ele>
      </trkpt>
      <trkpt lat="44.69094" lon="5.67503">
        <ele>1184.1</ele>
      </trkpt>
      <trkpt lat="44.69085" lon="5.67519">
        <ele>1189.4</ele>
      </trkpt>
      <trkpt lat="44.69074" lon="5.67535">
        <ele>1167.1</ele>
      </trkpt>
      <trkpt lat="44.69065" lon="5.67546">
        <ele>1167.3</ele>
      </trkpt>
      <trkpt lat="44.69062" lon="5.67551">
        <ele>1167.7</ele>
      </trkpt>
      <trkpt lat="44.69043" lon="5.67574">
        <ele>1164.8</ele>
      </trkpt>
      <trkpt lat="44.69021" lon="5.67611">
        <ele>1175.7</ele>
      </trkpt>
      <trkpt lat="44.69014" lon="5.67618">
        <ele>1176.2</ele>
      </trkpt>
      <trkpt lat="44.6901" lon="5.67623">
        <ele>1176.9</ele>
      </trkpt>
      <trkpt lat="44.6898" lon="5.67652">
        <ele>1158.9</ele>
      </trkpt>
      <trkpt lat="44.68965" lon="5.67664">
        <ele>1154.7</ele>
      </trkpt>
      <trkpt lat="44.68943" lon="5.67677">
        <ele>1164.4</ele>
      </trkpt>
      <trkpt lat="44.68934" lon="5.6768">
        <ele>1161.3</ele>
      </trkpt>
      <trkpt lat="44.68925" lon="5.67684">
        <ele>1159.7</ele>
      </trkpt>
      <trkpt lat="44.68919" lon="5.67689">
        <ele>1160.9</ele>
      </trkpt>
      <trkpt lat="44.68913" lon="5.67696">
        <ele>1138</ele>
      </trkpt>
      <trkpt lat="44.68907" lon="5.67706">
        <ele>1138.1</ele>
      </trkpt>
      <trkpt lat="44.68905" lon="5.67708">
        <ele>1138.1</ele>
      </trkpt>
      <trkpt lat="44.68895" lon="5.67733">
        <ele>1141.8</ele>
      </trkpt>
      <trkpt lat="44.68885" lon="5.67779">
        <ele>1146.1</ele>
      </trkpt>
      <trkpt lat="44.6888" lon="5.67827">
        <ele>1147.3</ele>
      </trkpt>
      <trkpt lat="44.68875" lon="5.67849">
        <ele>1150.6</ele>
      </trkpt>
      <trkpt lat="44.68875" lon="5.67851">
        <ele>1150.6</ele>
      </trkpt>
      <trkpt lat="44.6887" lon="5.67873">
        <ele>1149.9</ele>
      </trkpt>
      <trkpt lat="44.6887" lon="5.67874">
        <ele>1150</ele>
      </trkpt>
      <trkpt lat="44.68865" lon="5.67891">
        <ele>1148.8</ele>
      </trkpt>
      <trkpt lat="44.68864" lon="5.67897">
        <ele>1148.4</ele>
      </trkpt>
      <trkpt lat="44.68859" lon="5.67913">
        <ele>1145.5</ele>
      </trkpt>
      <trkpt lat="44.68847" lon="5.67942">
        <ele>1146.2</ele>
      </trkpt>
      <trkpt lat="44.68835" lon="5.67965">
        <ele>1147.2</ele>
      </trkpt>
      <trkpt lat="44.6882" lon="5.67987">
        <ele>1123.7</ele>
      </trkpt>
      <trkpt lat="44.68811" lon="5.67998">
        <ele>1120.7</ele>
      </trkpt>
      <trkpt lat="44.68793" lon="5.68029">
        <ele>1110.9</ele>
      </trkpt>
      <trkpt lat="44.6879" lon="5.68037">
        <ele>1109.7</ele>
      </trkpt>
      <trkpt lat="44.6879" lon="5.68038">
        <ele>1109.7</ele>
      </trkpt>
      <trkpt lat="44.68788" lon="5.68047">
        <ele>1109</ele>
      </trkpt>
      <trkpt lat="44.68788" lon="5.68056">
        <ele>1108.7</ele>
      </trkpt>
      <trkpt lat="44.6879" lon="5.68061">
        <ele>1109</ele>
      </trkpt>
      <trkpt lat="44.68791" lon="5.68062">
        <ele>1109.2</ele>
      </trkpt>
      <trkpt lat="44.68792" lon="5.68065">
        <ele>1109.3</ele>
      </trkpt>
      <trkpt lat="44.68797" lon="5.68068">
        <ele>1110.4</ele>
      </trkpt>
      <trkpt lat="44.68801" lon="5.68069">
        <ele>1111.3</ele>
      </trkpt>
      <trkpt lat="44.68805" lon="5.68068">
        <ele>1112.2</ele>
      </trkpt>
      <trkpt lat="44.68817" lon="5.68062">
        <ele>1114.5</ele>
      </trkpt>
      <trkpt lat="44.68842" lon="5.68058">
        <ele>1132.3</ele>
      </trkpt>
      <trkpt lat="44.68855" lon="5.68057">
        <ele>1134.1</ele>
      </trkpt>
      <trkpt lat="44.6886" lon="5.68058">
        <ele>1134.5</ele>
      </trkpt>
      <trkpt lat="44.68867" lon="5.68058">
        <ele>1135.4</ele>
      </trkpt>
      <trkpt lat="44.68887" lon="5.68064">
        <ele>1136.3</ele>
      </trkpt>
      <trkpt lat="44.68895" lon="5.68068">
        <ele>1135.9</ele>
      </trkpt>
      <trkpt lat="44.68905" lon="5.68071">
        <ele>1135.1</ele>
      </trkpt>
      <trkpt lat="44.68912" lon="5.68074">
        <ele>1133.9</ele>
      </trkpt>
      <trkpt lat="44.68913" lon="5.68074">
        <ele>1133.9</ele>
      </trkpt>
      <trkpt lat="44.68919" lon="5.68077">
        <ele>1133.9</ele>
      </trkpt>
      <trkpt lat="44.68931" lon="5.68079">
        <ele>1135.9</ele>
      </trkpt>
      <trkpt lat="44.68945" lon="5.68079">
        <ele>1137.4</ele>
      </trkpt>
      <trkpt lat="44.68948" lon="5.68078">
        <ele>1137.6</ele>
      </trkpt>
      <trkpt lat="44.68951" lon="5.68078">
        <ele>1137.6</ele>
      </trkpt>
      <trkpt lat="44.68969" lon="5.6807">
        <ele>1137.2</ele>
      </trkpt>
      <trkpt lat="44.68982" lon="5.68061">
        <ele>1137.1</ele>
      </trkpt>
      <trkpt lat="44.68988" lon="5.68058">
        <ele>1137.2</ele>
      </trkpt>
      <trkpt lat="44.68996" lon="5.68052">
        <ele>1138.3</ele>
      </trkpt>
      <trkpt lat="44.68999" lon="5.68051">
        <ele>1138.4</ele>
      </trkpt>
      <trkpt lat="44.69007" lon="5.68046">
        <ele>1131.2</ele>
      </trkpt>
      <trkpt lat="44.69031" lon="5.68035">
        <ele>1131.2</ele>
      </trkpt>
      <trkpt lat="44.69032" lon="5.68034">
        <ele>1131.2</ele>
      </trkpt>
      <trkpt lat="44.6904" lon="5.68031">
        <ele>1130.7</ele>
      </trkpt>
      <trkpt lat="44.69049" lon="5.68029">
        <ele>1129.8</ele>
      </trkpt>
      <trkpt lat="44.6905" lon="5.68029">
        <ele>1129.7</ele>
      </trkpt>
      <trkpt lat="44.69059" lon="5.68027">
        <ele>1129.1</ele>
      </trkpt>
      <trkpt lat="44.69086" lon="5.68027">
        <ele>1121.1</ele>
      </trkpt>
      <trkpt lat="44.69092" lon="5.68028">
        <ele>1120.7</ele>
      </trkpt>
      <trkpt lat="44.69119" lon="5.68028">
        <ele>1119.1</ele>
      </trkpt>
      <trkpt lat="44.6913" lon="5.68027">
        <ele>1118.7</ele>
      </trkpt>
      <trkpt lat="44.69149" lon="5.68027">
        <ele>1118.6</ele>
      </trkpt>
      <trkpt lat="44.69156" lon="5.68029">
        <ele>1118.3</ele>
      </trkpt>
      <trkpt lat="44.69162" lon="5.68032">
        <ele>1117.9</ele>
      </trkpt>
      <trkpt lat="44.69168" lon="5.68038">
        <ele>1116</ele>
      </trkpt>
      <trkpt lat="44.69173" lon="5.68042">
        <ele>1115.4</ele>
      </trkpt>
      <trkpt lat="44.69177" lon="5.68047">
        <ele>1114.7</ele>
      </trkpt>
      <trkpt lat="44.69184" lon="5.68063">
        <ele>1112.5</ele>
      </trkpt>
      <trkpt lat="44.69192" lon="5.6809">
        <ele>1104.6</ele>
      </trkpt>
      <trkpt lat="44.69197" lon="5.68101">
        <ele>1104.4</ele>
      </trkpt>
      <trkpt lat="44.69205" lon="5.68112">
        <ele>1104.1</ele>
      </trkpt>
      <trkpt lat="44.69235" lon="5.68132">
        <ele>1103.8</ele>
      </trkpt>
      <trkpt lat="44.69251" lon="5.68145">
        <ele>1108</ele>
      </trkpt>
      <trkpt lat="44.69256" lon="5.6815">
        <ele>1107.2</ele>
      </trkpt>
      <trkpt lat="44.69272" lon="5.68175">
        <ele>1099.2</ele>
      </trkpt>
      <trkpt lat="44.69286" lon="5.68201">
        <ele>1097.5</ele>
      </trkpt>
      <trkpt lat="44.69293" lon="5.68209">
        <ele>1097</ele>
      </trkpt>
      <trkpt lat="44.69303" lon="5.68216">
        <ele>1096.4</ele>
      </trkpt>
      <trkpt lat="44.69319" lon="5.68222">
        <ele>1095.6</ele>
      </trkpt>
      <trkpt lat="44.69334" lon="5.68225">
        <ele>1095.9</ele>
      </trkpt>
      <trkpt lat="44.69345" lon="5.68225">
        <ele>1096.2</ele>
      </trkpt>
      <trkpt lat="44.69369" lon="5.68229">
        <ele>1096.7</ele>
      </trkpt>
      <trkpt lat="44.69434" lon="5.68231">
        <ele>1094.5</ele>
      </trkpt>
      <trkpt lat="44.69452" lon="5.68234">
        <ele>1094.4</ele>
      </trkpt>
      <trkpt lat="44.69453" lon="5.68235">
        <ele>1094.3</ele>
      </trkpt>
      <trkpt lat="44.69457" lon="5.68237">
        <ele>1094</ele>
      </trkpt>
      <trkpt lat="44.69478" lon="5.68257">
        <ele>1081.1</ele>
      </trkpt>
      <trkpt lat="44.69478" lon="5.68258">
        <ele>1081.1</ele>
      </trkpt>
      <trkpt lat="44.69485" lon="5.68263">
        <ele>1081</ele>
      </trkpt>
      <trkpt lat="44.69495" lon="5.68268">
        <ele>1080.8</ele>
      </trkpt>
      <trkpt lat="44.69513" lon="5.68269">
        <ele>1078.9</ele>
      </trkpt>
      <trkpt lat="44.69539" lon="5.68266">
        <ele>1077.8</ele>
      </trkpt>
      <trkpt lat="44.69574" lon="5.68267">
        <ele>1078.5</ele>
      </trkpt>
      <trkpt lat="44.69617" lon="5.68274">
        <ele>1076</ele>
      </trkpt>
      <trkpt lat="44.6962" lon="5.68274">
        <ele>1075.9</ele>
      </trkpt>
      <trkpt lat="44.69638" lon="5.68277">
        <ele>1075.6</ele>
      </trkpt>
      <trkpt lat="44.69697" lon="5.68278">
        <ele>1072.6</ele>
      </trkpt>
      <trkpt lat="44.69726" lon="5.68272">
        <ele>1071.8</ele>
      </trkpt>
      <trkpt lat="44.69745" lon="5.68265">
        <ele>1072.1</ele>
      </trkpt>
      <trkpt lat="44.69758" lon="5.68268">
        <ele>1070.9</ele>
      </trkpt>
      <trkpt lat="44.69761" lon="5.6827">
        <ele>1070.7</ele>
      </trkpt>
      <trkpt lat="44.69763" lon="5.68272">
        <ele>1070.6</ele>
      </trkpt>
      <trkpt lat="44.69765" lon="5.68275">
        <ele>1070.3</ele>
      </trkpt>
      <trkpt lat="44.69767" lon="5.68283">
        <ele>1069.8</ele>
      </trkpt>
      <trkpt lat="44.69767" lon="5.68291">
        <ele>1069.3</ele>
      </trkpt>
      <trkpt lat="44.69644" lon="5.68331">
        <ele>1071.4</ele>
      </trkpt>
      <trkpt lat="44.6963" lon="5.68337">
        <ele>1065</ele>
      </trkpt>
      <trkpt lat="44.69384" lon="5.68417">
        <ele>1057.9</ele>
      </trkpt>
      <trkpt lat="44.69367" lon="5.68425">
        <ele>1058.1</ele>
      </trkpt>
      <trkpt lat="44.69351" lon="5.68435">
        <ele>1058.4</ele>
      </trkpt>
      <trkpt lat="44.69335" lon="5.68447">
        <ele>1057.8</ele>
      </trkpt>
      <trkpt lat="44.69325" lon="5.68456">
        <ele>1060.5</ele>
      </trkpt>
      <trkpt lat="44.6932" lon="5.68462">
        <ele>1060.2</ele>
      </trkpt>
      <trkpt lat="44.69313" lon="5.68468">
        <ele>1060</ele>
      </trkpt>
      <trkpt lat="44.69267" lon="5.68522">
        <ele>1055.9</ele>
      </trkpt>
      <trkpt lat="44.69238" lon="5.6856">
        <ele>1053.6</ele>
      </trkpt>
      <trkpt lat="44.69233" lon="5.68565">
        <ele>1053.4</ele>
      </trkpt>
      <trkpt lat="44.69218" lon="5.68583">
        <ele>1053.4</ele>
      </trkpt>
      <trkpt lat="44.69209" lon="5.68592">
        <ele>1049.3</ele>
      </trkpt>
      <trkpt lat="44.69196" lon="5.68603">
        <ele>1049.5</ele>
      </trkpt>
      <trkpt lat="44.69174" lon="5.68616">
        <ele>1049.4</ele>
      </trkpt>
      <trkpt lat="44.69131" lon="5.68637">
        <ele>1049.3</ele>
      </trkpt>
      <trkpt lat="44.69076" lon="5.6866">
        <ele>1047.4</ele>
      </trkpt>
      <trkpt lat="44.69026" lon="5.68688">
        <ele>1044</ele>
      </trkpt>
      <trkpt lat="44.68767" lon="5.68847">
        <ele>1040.7</ele>
      </trkpt>
      <trkpt lat="44.68736" lon="5.68871">
        <ele>1041.6</ele>
      </trkpt>
      <trkpt lat="44.68736" lon="5.68872">
        <ele>1041.6</ele>
      </trkpt>
      <trkpt lat="44.68716" lon="5.68893">
        <ele>1041.5</ele>
      </trkpt>
      <trkpt lat="44.68697" lon="5.68921">
        <ele>1039.7</ele>
      </trkpt>
      <trkpt lat="44.68552" lon="5.69177">
        <ele>1037.8</ele>
      </trkpt>
      <trkpt lat="44.68551" lon="5.69178">
        <ele>1037.8</ele>
      </trkpt>
      <trkpt lat="44.68513" lon="5.69243">
        <ele>1036.2</ele>
      </trkpt>
      <trkpt lat="44.68483" lon="5.69288">
        <ele>1034.4</ele>
      </trkpt>
      <trkpt lat="44.68465" lon="5.69312">
        <ele>1033.7</ele>
      </trkpt>
      <trkpt lat="44.68454" lon="5.69322">
        <ele>1033.7</ele>
      </trkpt>
      <trkpt lat="44.68454" lon="5.69323">
        <ele>1033.7</ele>
      </trkpt>
      <trkpt lat="44.68452" lon="5.69324">
        <ele>1033.7</ele>
      </trkpt>
      <trkpt lat="44.68438" lon="5.69335">
        <ele>1031.9</ele>
      </trkpt>
      <trkpt lat="44.68416" lon="5.6935">
        <ele>1031.4</ele>
      </trkpt>
      <trkpt lat="44.68403" lon="5.69355">
        <ele>1031.1</ele>
      </trkpt>
      <trkpt lat="44.68398" lon="5.69358">
        <ele>1031</ele>
      </trkpt>
      <trkpt lat="44.68394" lon="5.69359">
        <ele>1031</ele>
      </trkpt>
      <trkpt lat="44.68392" lon="5.69359">
        <ele>1030.9</ele>
      </trkpt>
      <trkpt lat="44.68364" lon="5.69366">
        <ele>1030.6</ele>
      </trkpt>
      <trkpt lat="44.68337" lon="5.69369">
        <ele>1030.4</ele>
      </trkpt>
      <trkpt lat="44.68309" lon="5.69366">
        <ele>1029</ele>
      </trkpt>
      <trkpt lat="44.68307" lon="5.69365">
        <ele>1029</ele>
      </trkpt>
      <trkpt lat="44.6829" lon="5.69363">
        <ele>1028.8</ele>
      </trkpt>
      <trkpt lat="44.68033" lon="5.69301">
        <ele>1031.5</ele>
      </trkpt>
      <trkpt lat="44.68005" lon="5.693">
        <ele>1031.2</ele>
      </trkpt>
      <trkpt lat="44.6798" lon="5.69303">
        <ele>1032.2</ele>
      </trkpt>
      <trkpt lat="44.67947" lon="5.69317">
        <ele>1032.5</ele>
      </trkpt>
      <trkpt lat="44.6793" lon="5.69328">
        <ele>1032</ele>
      </trkpt>
      <trkpt lat="44.6791" lon="5.69343">
        <ele>1031.1</ele>
      </trkpt>
      <trkpt lat="44.67896" lon="5.69357">
        <ele>1031.2</ele>
      </trkpt>
      <trkpt lat="44.67868" lon="5.69391">
        <ele>1030.6</ele>
      </trkpt>
      <trkpt lat="44.67857" lon="5.6941">
        <ele>1030.1</ele>
      </trkpt>
      <trkpt lat="44.67852" lon="5.69417">
        <ele>1026.4</ele>
      </trkpt>
      <trkpt lat="44.67846" lon="5.6943">
        <ele>1026.4</ele>
      </trkpt>
      <trkpt lat="44.67835" lon="5.6945">
        <ele>1025.4</ele>
      </trkpt>
      <trkpt lat="44.67834" lon="5.6945">
        <ele>1025.4</ele>
      </trkpt>
      <trkpt lat="44.67802" lon="5.6951">
        <ele>1024.5</ele>
      </trkpt>
      <trkpt lat="44.67799" lon="5.69514">
        <ele>1024.6</ele>
      </trkpt>
      <trkpt lat="44.67724" lon="5.69649">
        <ele>1026.8</ele>
      </trkpt>
      <trkpt lat="44.67706" lon="5.69673">
        <ele>1023.6</ele>
      </trkpt>
      <trkpt lat="44.67658" lon="5.69727">
        <ele>1027.2</ele>
      </trkpt>
      <trkpt lat="44.67635" lon="5.69749">
        <ele>1027.7</ele>
      </trkpt>
      <trkpt lat="44.67617" lon="5.69764">
        <ele>1020.4</ele>
      </trkpt>
      <trkpt lat="44.67595" lon="5.69779">
        <ele>1020.6</ele>
      </trkpt>
      <trkpt lat="44.67569" lon="5.69791">
        <ele>1021.3</ele>
      </trkpt>
      <trkpt lat="44.67551" lon="5.69798">
        <ele>1020.7</ele>
      </trkpt>
      <trkpt lat="44.67501" lon="5.69811">
        <ele>1019</ele>
      </trkpt>
      <trkpt lat="44.67466" lon="5.69816">
        <ele>1019.2</ele>
      </trkpt>
      <trkpt lat="44.67417" lon="5.69816">
        <ele>1017.9</ele>
      </trkpt>
      <trkpt lat="44.674" lon="5.69815">
        <ele>1017</ele>
      </trkpt>
      <trkpt lat="44.67398" lon="5.69816">
        <ele>1017</ele>
      </trkpt>
      <trkpt lat="44.67371" lon="5.69819">
        <ele>1016.7</ele>
      </trkpt>
      <trkpt lat="44.67354" lon="5.69823">
        <ele>1015.8</ele>
      </trkpt>
      <trkpt lat="44.67341" lon="5.69824">
        <ele>1014.9</ele>
      </trkpt>
      <trkpt lat="44.67321" lon="5.69821">
        <ele>1013.8</ele>
      </trkpt>
      <trkpt lat="44.67308" lon="5.69817">
        <ele>1014</ele>
      </trkpt>
      <trkpt lat="44.673" lon="5.69813">
        <ele>1014</ele>
      </trkpt>
      <trkpt lat="44.67282" lon="5.69807">
        <ele>1013.9</ele>
      </trkpt>
      <trkpt lat="44.67262" lon="5.69802">
        <ele>1013.6</ele>
      </trkpt>
      <trkpt lat="44.67222" lon="5.69803">
        <ele>1012.2</ele>
      </trkpt>
      <trkpt lat="44.67195" lon="5.69807">
        <ele>1011.7</ele>
      </trkpt>
      <trkpt lat="44.67162" lon="5.6981">
        <ele>1010</ele>
      </trkpt>
      <trkpt lat="44.67143" lon="5.6981">
        <ele>1010.1</ele>
      </trkpt>
      <trkpt lat="44.67117" lon="5.69805">
        <ele>1010</ele>
      </trkpt>
      <trkpt lat="44.67102" lon="5.69798">
        <ele>1010.1</ele>
      </trkpt>
      <trkpt lat="44.67094" lon="5.69792">
        <ele>1010.3</ele>
      </trkpt>
      <trkpt lat="44.67083" lon="5.69788">
        <ele>1009.3</ele>
      </trkpt>
      <trkpt lat="44.67073" lon="5.69788">
        <ele>1009.2</ele>
      </trkpt>
      <trkpt lat="44.6706" lon="5.69783">
        <ele>1009.4</ele>
      </trkpt>
      <trkpt lat="44.67041" lon="5.69783">
        <ele>1009.1</ele>
      </trkpt>
      <trkpt lat="44.67031" lon="5.69786">
        <ele>1008.9</ele>
      </trkpt>
      <trkpt lat="44.66941" lon="5.69825">
        <ele>1006.2</ele>
      </trkpt>
      <trkpt lat="44.66939" lon="5.69825">
        <ele>1006.1</ele>
      </trkpt>
      <trkpt lat="44.66933" lon="5.69827">
        <ele>1005.8</ele>
      </trkpt>
      <trkpt lat="44.66925" lon="5.69828">
        <ele>1005.2</ele>
      </trkpt>
      <trkpt lat="44.66916" lon="5.69828">
        <ele>1004.3</ele>
      </trkpt>
      <trkpt lat="44.66907" lon="5.69825">
        <ele>1004.7</ele>
      </trkpt>
      <trkpt lat="44.66803" lon="5.69759">
        <ele>1002.3</ele>
      </trkpt>
      <trkpt lat="44.66765" lon="5.69737">
        <ele>1002.5</ele>
      </trkpt>
      <trkpt lat="44.6675" lon="5.69731">
        <ele>1000.4</ele>
      </trkpt>
      <trkpt lat="44.66721" lon="5.69723">
        <ele>1000.6</ele>
      </trkpt>
      <trkpt lat="44.66701" lon="5.69719">
        <ele>1000.6</ele>
      </trkpt>
      <trkpt lat="44.66685" lon="5.69717">
        <ele>1000.5</ele>
      </trkpt>
      <trkpt lat="44.66672" lon="5.69714">
        <ele>1000.5</ele>
      </trkpt>
      <trkpt lat="44.66647" lon="5.69704">
        <ele>999.8</ele>
      </trkpt>
      <trkpt lat="44.66617" lon="5.69688">
        <ele>999.7</ele>
      </trkpt>
      <trkpt lat="44.66599" lon="5.69677">
        <ele>999.8</ele>
      </trkpt>
      <trkpt lat="44.66562" lon="5.69643">
        <ele>1001.1</ele>
      </trkpt>
      <trkpt lat="44.6655" lon="5.6963">
        <ele>1001.5</ele>
      </trkpt>
      <trkpt lat="44.66525" lon="5.69611">
        <ele>1001.9</ele>
      </trkpt>
      <trkpt lat="44.66501" lon="5.696">
        <ele>1002.6</ele>
      </trkpt>
      <trkpt lat="44.66489" lon="5.69597">
        <ele>1001.7</ele>
      </trkpt>
      <trkpt lat="44.66487" lon="5.69597">
        <ele>1001.6</ele>
      </trkpt>
      <trkpt lat="44.66468" lon="5.69593">
        <ele>1001</ele>
      </trkpt>
      <trkpt lat="44.6637" lon="5.69581">
        <ele>1010.4</ele>
      </trkpt>
      <trkpt lat="44.66319" lon="5.69572">
        <ele>1004.2</ele>
      </trkpt>
      <trkpt lat="44.66317" lon="5.69571">
        <ele>1004.5</ele>
      </trkpt>
      <trkpt lat="44.6629" lon="5.69564">
        <ele>1005.5</ele>
      </trkpt>
      <trkpt lat="44.66282" lon="5.69561">
        <ele>1005.4</ele>
      </trkpt>
      <trkpt lat="44.66264" lon="5.69556">
        <ele>1004.7</ele>
      </trkpt>
      <trkpt lat="44.66263" lon="5.69556">
        <ele>1004.7</ele>
      </trkpt>
      <trkpt lat="44.66246" lon="5.69551">
        <ele>1001.6</ele>
      </trkpt>
      <trkpt lat="44.66233" lon="5.69546">
        <ele>1002</ele>
      </trkpt>
      <trkpt lat="44.66178" lon="5.6953">
        <ele>1001.8</ele>
      </trkpt>
      <trkpt lat="44.66176" lon="5.6953">
        <ele>1001.7</ele>
      </trkpt>
      <trkpt lat="44.65789" lon="5.69412">
        <ele>992.2</ele>
      </trkpt>
      <trkpt lat="44.65788" lon="5.69411">
        <ele>992.3</ele>
      </trkpt>
      <trkpt lat="44.65753" lon="5.69401">
        <ele>991.7</ele>
      </trkpt>
      <trkpt lat="44.65728" lon="5.69396">
        <ele>994.8</ele>
      </trkpt>
      <trkpt lat="44.65698" lon="5.69394">
        <ele>995.9</ele>
      </trkpt>
      <trkpt lat="44.65616" lon="5.69397">
        <ele>997.6</ele>
      </trkpt>
      <trkpt lat="44.65566" lon="5.69402">
        <ele>998.1</ele>
      </trkpt>
      <trkpt lat="44.65556" lon="5.69404">
        <ele>999.3</ele>
      </trkpt>
      <trkpt lat="44.65547" lon="5.69407">
        <ele>1000</ele>
      </trkpt>
      <trkpt lat="44.65536" lon="5.69412">
        <ele>1000.3</ele>
      </trkpt>
      <trkpt lat="44.65504" lon="5.69436">
        <ele>993.7</ele>
      </trkpt>
      <trkpt lat="44.65438" lon="5.69505">
        <ele>997.2</ele>
      </trkpt>
      <trkpt lat="44.65418" lon="5.69523">
        <ele>997.1</ele>
      </trkpt>
      <trkpt lat="44.65417" lon="5.69525">
        <ele>996.8</ele>
      </trkpt>
      <trkpt lat="44.65374" lon="5.69555">
        <ele>1000</ele>
      </trkpt>
      <trkpt lat="44.65358" lon="5.69563">
        <ele>999.6</ele>
      </trkpt>
      <trkpt lat="44.65204" lon="5.69617">
        <ele>997.7</ele>
      </trkpt>
      <trkpt lat="44.65192" lon="5.69623">
        <ele>997.6</ele>
      </trkpt>
      <trkpt lat="44.6516" lon="5.69644">
        <ele>1002.5</ele>
      </trkpt>
      <trkpt lat="44.65119" lon="5.69678">
        <ele>996.8</ele>
      </trkpt>
      <trkpt lat="44.65099" lon="5.69697">
        <ele>997.2</ele>
      </trkpt>
      <trkpt lat="44.6506" lon="5.6974">
        <ele>1006.8</ele>
      </trkpt>
      <trkpt lat="44.65042" lon="5.69763">
        <ele>999.6</ele>
      </trkpt>
      <trkpt lat="44.64995" lon="5.69833">
        <ele>1003.1</ele>
      </trkpt>
      <trkpt lat="44.64978" lon="5.69862">
        <ele>1006</ele>
      </trkpt>
      <trkpt lat="44.64954" lon="5.69909">
        <ele>1007.1</ele>
      </trkpt>
      <trkpt lat="44.6486" lon="5.70122">
        <ele>995.5</ele>
      </trkpt>
      <trkpt lat="44.64835" lon="5.70172">
        <ele>986.5</ele>
      </trkpt>
      <trkpt lat="44.64825" lon="5.70186">
        <ele>989.7</ele>
      </trkpt>
      <trkpt lat="44.64799" lon="5.70213">
        <ele>990.5</ele>
      </trkpt>
      <trkpt lat="44.64784" lon="5.70226">
        <ele>990</ele>
      </trkpt>
      <trkpt lat="44.64768" lon="5.70236">
        <ele>988.5</ele>
      </trkpt>
      <trkpt lat="44.64767" lon="5.70237">
        <ele>988.3</ele>
      </trkpt>
      <trkpt lat="44.6476" lon="5.7024">
        <ele>987.1</ele>
      </trkpt>
      <trkpt lat="44.64739" lon="5.70246">
        <ele>990.4</ele>
      </trkpt>
      <trkpt lat="44.64729" lon="5.70246">
        <ele>993.9</ele>
      </trkpt>
      <trkpt lat="44.64725" lon="5.70247">
        <ele>994.8</ele>
      </trkpt>
      <trkpt lat="44.64709" lon="5.70246">
        <ele>997.3</ele>
      </trkpt>
      <trkpt lat="44.64634" lon="5.70246">
        <ele>998.5</ele>
      </trkpt>
      <trkpt lat="44.64624" lon="5.70245">
        <ele>998.5</ele>
      </trkpt>
      <trkpt lat="44.64584" lon="5.70244">
        <ele>987.8</ele>
      </trkpt>
      <trkpt lat="44.64568" lon="5.70242">
        <ele>988.6</ele>
      </trkpt>
      <trkpt lat="44.64534" lon="5.70235">
        <ele>989.5</ele>
      </trkpt>
      <trkpt lat="44.64512" lon="5.70226">
        <ele>988.2</ele>
      </trkpt>
      <trkpt lat="44.64497" lon="5.70218">
        <ele>982.2</ele>
      </trkpt>
      <trkpt lat="44.64496" lon="5.70218">
        <ele>982.2</ele>
      </trkpt>
      <trkpt lat="44.64469" lon="5.702">
        <ele>983.2</ele>
      </trkpt>
      <trkpt lat="44.64457" lon="5.7019">
        <ele>982.8</ele>
      </trkpt>
      <trkpt lat="44.64436" lon="5.7017">
        <ele>980.8</ele>
      </trkpt>
      <trkpt lat="44.64275" lon="5.69972">
        <ele>973.3</ele>
      </trkpt>
      <trkpt lat="44.64226" lon="5.69915">
        <ele>968.3</ele>
      </trkpt>
      <trkpt lat="44.6417" lon="5.69844">
        <ele>967.3</ele>
      </trkpt>
      <trkpt lat="44.64166" lon="5.6984">
        <ele>966.9</ele>
      </trkpt>
      <trkpt lat="44.64" lon="5.69638">
        <ele>963.8</ele>
      </trkpt>
      <trkpt lat="44.63969" lon="5.69608">
        <ele>962.7</ele>
      </trkpt>
      <trkpt lat="44.63939" lon="5.69588">
        <ele>962</ele>
      </trkpt>
      <trkpt lat="44.63917" lon="5.69577">
        <ele>961.2</ele>
      </trkpt>
      <trkpt lat="44.639" lon="5.6957">
        <ele>961.1</ele>
      </trkpt>
      <trkpt lat="44.63881" lon="5.69564">
        <ele>961.2</ele>
      </trkpt>
      <trkpt lat="44.6385" lon="5.69558">
        <ele>961.5</ele>
      </trkpt>
      <trkpt lat="44.63825" lon="5.69558">
        <ele>962.4</ele>
      </trkpt>
      <trkpt lat="44.63692" lon="5.69574">
        <ele>960.2</ele>
      </trkpt>
      <trkpt lat="44.63677" lon="5.69569">
        <ele>959.6</ele>
      </trkpt>
      <trkpt lat="44.63655" lon="5.69565">
        <ele>957.5</ele>
      </trkpt>
      <trkpt lat="44.6365" lon="5.69565">
        <ele>957.4</ele>
      </trkpt>
      <trkpt lat="44.63564" lon="5.69583">
        <ele>955</ele>
      </trkpt>
      <trkpt lat="44.63484" lon="5.69597">
        <ele>952.5</ele>
      </trkpt>
      <trkpt lat="44.63241" lon="5.69623">
        <ele>946.7</ele>
      </trkpt>
      <trkpt lat="44.63224" lon="5.69626">
        <ele>946.6</ele>
      </trkpt>
      <trkpt lat="44.63216" lon="5.69626">
        <ele>946.5</ele>
      </trkpt>
      <trkpt lat="44.63206" lon="5.69628">
        <ele>946.5</ele>
      </trkpt>
      <trkpt lat="44.63082" lon="5.69642">
        <ele>942.8</ele>
      </trkpt>
      <trkpt lat="44.62787" lon="5.69738">
        <ele>945.9</ele>
      </trkpt>
      <trkpt lat="44.62785" lon="5.69739">
        <ele>945.8</ele>
      </trkpt>
      <trkpt lat="44.62645" lon="5.69785">
        <ele>939.9</ele>
      </trkpt>
      <trkpt lat="44.62636" lon="5.69789">
        <ele>940.1</ele>
      </trkpt>
      <trkpt lat="44.62618" lon="5.69795">
        <ele>940.3</ele>
      </trkpt>
      <trkpt lat="44.62616" lon="5.69795">
        <ele>940.3</ele>
      </trkpt>
      <trkpt lat="44.62207" lon="5.69931">
        <ele>940.3</ele>
      </trkpt>
      <trkpt lat="44.62181" lon="5.69942">
        <ele>938.8</ele>
      </trkpt>
      <trkpt lat="44.62176" lon="5.69943">
        <ele>938.5</ele>
      </trkpt>
      <trkpt lat="44.62155" lon="5.69956">
        <ele>933.4</ele>
      </trkpt>
      <trkpt lat="44.62135" lon="5.69971">
        <ele>933.7</ele>
      </trkpt>
      <trkpt lat="44.62117" lon="5.69988">
        <ele>933</ele>
      </trkpt>
      <trkpt lat="44.621" lon="5.70009">
        <ele>937.1</ele>
      </trkpt>
      <trkpt lat="44.62079" lon="5.70042">
        <ele>932.3</ele>
      </trkpt>
      <trkpt lat="44.62078" lon="5.70043">
        <ele>932.3</ele>
      </trkpt>
      <trkpt lat="44.62059" lon="5.70076">
        <ele>933.4</ele>
      </trkpt>
      <trkpt lat="44.62057" lon="5.70081">
        <ele>933.3</ele>
      </trkpt>
      <trkpt lat="44.61963" lon="5.70253">
        <ele>938.3</ele>
      </trkpt>
      <trkpt lat="44.61901" lon="5.70356">
        <ele>929.8</ele>
      </trkpt>
      <trkpt lat="44.61764" lon="5.70608">
        <ele>921.4</ele>
      </trkpt>
      <trkpt lat="44.61741" lon="5.70646">
        <ele>920.4</ele>
      </trkpt>
      <trkpt lat="44.61737" lon="5.70658">
        <ele>920.1</ele>
      </trkpt>
      <trkpt lat="44.61735" lon="5.70667">
        <ele>919.1</ele>
      </trkpt>
      <trkpt lat="44.61734" lon="5.70677">
        <ele>919.1</ele>
      </trkpt>
      <trkpt lat="44.61734" lon="5.7069">
        <ele>919.2</ele>
      </trkpt>
      <trkpt lat="44.61733" lon="5.70697">
        <ele>919.2</ele>
      </trkpt>
      <trkpt lat="44.61731" lon="5.70745">
        <ele>919.7</ele>
      </trkpt>
      <trkpt lat="44.61727" lon="5.70769">
        <ele>920.1</ele>
      </trkpt>
      <trkpt lat="44.61722" lon="5.70785">
        <ele>920.1</ele>
      </trkpt>
      <trkpt lat="44.61713" lon="5.70806">
        <ele>920.2</ele>
      </trkpt>
      <trkpt lat="44.61699" lon="5.70829">
        <ele>919.6</ele>
      </trkpt>
      <trkpt lat="44.61679" lon="5.70851">
        <ele>920.9</ele>
      </trkpt>
      <trkpt lat="44.61584" lon="5.70926">
        <ele>918.5</ele>
      </trkpt>
      <trkpt lat="44.61567" lon="5.70935">
        <ele>919.2</ele>
      </trkpt>
      <trkpt lat="44.61563" lon="5.70938">
        <ele>919.5</ele>
      </trkpt>
      <trkpt lat="44.61545" lon="5.70947">
        <ele>920.1</ele>
      </trkpt>
      <trkpt lat="44.61535" lon="5.70949">
        <ele>920.2</ele>
      </trkpt>
      <trkpt lat="44.61533" lon="5.7095">
        <ele>920.2</ele>
      </trkpt>
      <trkpt lat="44.61529" lon="5.70951">
        <ele>920.3</ele>
      </trkpt>
      <trkpt lat="44.61501" lon="5.70953">
        <ele>920.4</ele>
      </trkpt>
      <trkpt lat="44.61485" lon="5.7095">
        <ele>924.1</ele>
      </trkpt>
      <trkpt lat="44.61467" lon="5.70945">
        <ele>924.7</ele>
      </trkpt>
      <trkpt lat="44.61392" lon="5.70907">
        <ele>922</ele>
      </trkpt>
      <trkpt lat="44.61388" lon="5.70904">
        <ele>922.1</ele>
      </trkpt>
      <trkpt lat="44.61227" lon="5.70814">
        <ele>914.3</ele>
      </trkpt>
      <trkpt lat="44.61225" lon="5.70812">
        <ele>914.2</ele>
      </trkpt>
      <trkpt lat="44.6121" lon="5.70805">
        <ele>913.8</ele>
      </trkpt>
      <trkpt lat="44.61181" lon="5.70788">
        <ele>913.5</ele>
      </trkpt>
      <trkpt lat="44.61161" lon="5.7078">
        <ele>913.7</ele>
      </trkpt>
      <trkpt lat="44.61157" lon="5.70779">
        <ele>913.7</ele>
      </trkpt>
      <trkpt lat="44.61147" lon="5.70775">
        <ele>913.7</ele>
      </trkpt>
      <trkpt lat="44.61122" lon="5.7077">
        <ele>914</ele>
      </trkpt>
      <trkpt lat="44.611" lon="5.7077">
        <ele>914.5</ele>
      </trkpt>
      <trkpt lat="44.61072" lon="5.70772">
        <ele>915</ele>
      </trkpt>
      <trkpt lat="44.60522" lon="5.70843">
        <ele>901.2</ele>
      </trkpt>
      <trkpt lat="44.6052" lon="5.70844">
        <ele>901.2</ele>
      </trkpt>
      <trkpt lat="44.59729" lon="5.70946">
        <ele>890.2</ele>
      </trkpt>
      <trkpt lat="44.59698" lon="5.70953">
        <ele>889.7</ele>
      </trkpt>
      <trkpt lat="44.59662" lon="5.70967">
        <ele>889.1</ele>
      </trkpt>
      <trkpt lat="44.59622" lon="5.70992">
        <ele>888.8</ele>
      </trkpt>
      <trkpt lat="44.59592" lon="5.71019">
        <ele>886.8</ele>
      </trkpt>
      <trkpt lat="44.59566" lon="5.71049">
        <ele>890.9</ele>
      </trkpt>
      <trkpt lat="44.5954" lon="5.71088">
        <ele>888.9</ele>
      </trkpt>
      <trkpt lat="44.59521" lon="5.71124">
        <ele>888.6</ele>
      </trkpt>
      <trkpt lat="44.59449" lon="5.71318">
        <ele>893.6</ele>
      </trkpt>
      <trkpt lat="44.59449" lon="5.7132">
        <ele>893.6</ele>
      </trkpt>
      <trkpt lat="44.59366" lon="5.71559">
        <ele>883</ele>
      </trkpt>
      <trkpt lat="44.5935" lon="5.71596">
        <ele>883</ele>
      </trkpt>
      <trkpt lat="44.59334" lon="5.71625">
        <ele>882.8</ele>
      </trkpt>
      <trkpt lat="44.59309" lon="5.71661">
        <ele>881</ele>
      </trkpt>
      <trkpt lat="44.59287" lon="5.71683">
        <ele>879.5</ele>
      </trkpt>
      <trkpt lat="44.59258" lon="5.71707">
        <ele>879</ele>
      </trkpt>
      <trkpt lat="44.59237" lon="5.71722">
        <ele>877.6</ele>
      </trkpt>
      <trkpt lat="44.59191" lon="5.7175">
        <ele>876.4</ele>
      </trkpt>
      <trkpt lat="44.58953" lon="5.71882">
        <ele>873.5</ele>
      </trkpt>
      <trkpt lat="44.58952" lon="5.71883">
        <ele>873.5</ele>
      </trkpt>
      <trkpt lat="44.58907" lon="5.71906">
        <ele>873.8</ele>
      </trkpt>
      <trkpt lat="44.58905" lon="5.71908">
        <ele>873.8</ele>
      </trkpt>
      <trkpt lat="44.58896" lon="5.71913">
        <ele>874.1</ele>
      </trkpt>
      <trkpt lat="44.58882" lon="5.71923">
        <ele>873.4</ele>
      </trkpt>
      <trkpt lat="44.58866" lon="5.71937">
        <ele>873.6</ele>
      </trkpt>
      <trkpt lat="44.58848" lon="5.71965">
        <ele>873.4</ele>
      </trkpt>
      <trkpt lat="44.5884" lon="5.71987">
        <ele>873.1</ele>
      </trkpt>
      <trkpt lat="44.58835" lon="5.7201">
        <ele>873.1</ele>
      </trkpt>
      <trkpt lat="44.58833" lon="5.72026">
        <ele>872.9</ele>
      </trkpt>
      <trkpt lat="44.58834" lon="5.72053">
        <ele>874.1</ele>
      </trkpt>
      <trkpt lat="44.58836" lon="5.7207">
        <ele>874.8</ele>
      </trkpt>
      <trkpt lat="44.58836" lon="5.72092">
        <ele>877.1</ele>
      </trkpt>
      <trkpt lat="44.58835" lon="5.72095">
        <ele>877.4</ele>
      </trkpt>
      <trkpt lat="44.58835" lon="5.72098">
        <ele>877.7</ele>
      </trkpt>
      <trkpt lat="44.58832" lon="5.72113">
        <ele>876.3</ele>
      </trkpt>
      <trkpt lat="44.5883" lon="5.72116">
        <ele>876.4</ele>
      </trkpt>
      <trkpt lat="44.58829" lon="5.72119">
        <ele>876.6</ele>
      </trkpt>
      <trkpt lat="44.58826" lon="5.72125">
        <ele>876.9</ele>
      </trkpt>
      <trkpt lat="44.58818" lon="5.72135">
        <ele>877.3</ele>
      </trkpt>
      <trkpt lat="44.58817" lon="5.72137">
        <ele>877.4</ele>
      </trkpt>
      <trkpt lat="44.58807" lon="5.72144">
        <ele>877.1</ele>
      </trkpt>
      <trkpt lat="44.58799" lon="5.72148">
        <ele>876.5</ele>
      </trkpt>
      <trkpt lat="44.58787" lon="5.7215">
        <ele>875.4</ele>
      </trkpt>
      <trkpt lat="44.5877" lon="5.7215">
        <ele>873.9</ele>
      </trkpt>
      <trkpt lat="44.58765" lon="5.72149">
        <ele>873.5</ele>
      </trkpt>
      <trkpt lat="44.58675" lon="5.72146">
        <ele>867.4</ele>
      </trkpt>
      <trkpt lat="44.58652" lon="5.72149">
        <ele>866.2</ele>
      </trkpt>
      <trkpt lat="44.58651" lon="5.7215">
        <ele>866.2</ele>
      </trkpt>
      <trkpt lat="44.58217" lon="5.72314">
        <ele>864.7</ele>
      </trkpt>
      <trkpt lat="44.58206" lon="5.72317">
        <ele>864.7</ele>
      </trkpt>
      <trkpt lat="44.57934" lon="5.72418">
        <ele>863.5</ele>
      </trkpt>
      <trkpt lat="44.57891" lon="5.72436">
        <ele>865</ele>
      </trkpt>
      <trkpt lat="44.57855" lon="5.72448">
        <ele>865.9</ele>
      </trkpt>
      <trkpt lat="44.57827" lon="5.7246">
        <ele>863.1</ele>
      </trkpt>
      <trkpt lat="44.57804" lon="5.72474">
        <ele>863.3</ele>
      </trkpt>
      <trkpt lat="44.57786" lon="5.72487">
        <ele>862.1</ele>
      </trkpt>
      <trkpt lat="44.57763" lon="5.72509">
        <ele>866.6</ele>
      </trkpt>
      <trkpt lat="44.57745" lon="5.7253">
        <ele>859.7</ele>
      </trkpt>
      <trkpt lat="44.5772" lon="5.72566">
        <ele>861.4</ele>
      </trkpt>
      <trkpt lat="44.57695" lon="5.72606">
        <ele>865.9</ele>
      </trkpt>
      <trkpt lat="44.5769" lon="5.72612">
        <ele>865.7</ele>
      </trkpt>
      <trkpt lat="44.57598" lon="5.72755">
        <ele>859.5</ele>
      </trkpt>
      <trkpt lat="44.57594" lon="5.7276">
        <ele>859.2</ele>
      </trkpt>
      <trkpt lat="44.57513" lon="5.72885">
        <ele>855.9</ele>
      </trkpt>
      <trkpt lat="44.575" lon="5.72903">
        <ele>853.9</ele>
      </trkpt>
      <trkpt lat="44.57418" lon="5.7303">
        <ele>859.9</ele>
      </trkpt>
      <trkpt lat="44.57416" lon="5.73034">
        <ele>851</ele>
      </trkpt>
      <trkpt lat="44.57366" lon="5.73107">
        <ele>855</ele>
      </trkpt>
      <trkpt lat="44.57361" lon="5.73116">
        <ele>854.9</ele>
      </trkpt>
      <trkpt lat="44.57255" lon="5.73276">
        <ele>858.4</ele>
      </trkpt>
      <trkpt lat="44.57206" lon="5.73341">
        <ele>855.5</ele>
      </trkpt>
      <trkpt lat="44.56905" lon="5.73656">
        <ele>842</ele>
      </trkpt>
      <trkpt lat="44.56902" lon="5.7366">
        <ele>842</ele>
      </trkpt>
      <trkpt lat="44.56887" lon="5.73673">
        <ele>844.3</ele>
      </trkpt>
      <trkpt lat="44.56876" lon="5.73684">
        <ele>844.2</ele>
      </trkpt>
      <trkpt lat="44.56839" lon="5.73707">
        <ele>843.3</ele>
      </trkpt>
      <trkpt lat="44.56804" lon="5.73722">
        <ele>839.2</ele>
      </trkpt>
      <trkpt lat="44.56793" lon="5.73728">
        <ele>839.1</ele>
      </trkpt>
      <trkpt lat="44.5678" lon="5.73737">
        <ele>838.8</ele>
      </trkpt>
      <trkpt lat="44.56774" lon="5.73695">
        <ele>838.3</ele>
      </trkpt>
      <trkpt lat="44.56771" lon="5.73642">
        <ele>837.6</ele>
      </trkpt>
      <trkpt lat="44.56773" lon="5.73335">
        <ele>841.9</ele>
      </trkpt>
      <trkpt lat="44.56805" lon="5.73291">
        <ele>846.4</ele>
      </trkpt>
      <trkpt lat="44.56811" lon="5.73285">
        <ele>846.9</ele>
      </trkpt>
      <trkpt lat="44.56806" lon="5.73279">
        <ele>847</ele>
      </trkpt>
      <trkpt lat="44.56804" lon="5.73275">
        <ele>847</ele>
      </trkpt>
      <trkpt lat="44.56804" lon="5.73273">
        <ele>847.1</ele>
      </trkpt>
      <trkpt lat="44.56805" lon="5.7327">
        <ele>847.3</ele>
      </trkpt>
      <trkpt lat="44.56807" lon="5.73267">
        <ele>847.5</ele>
      </trkpt>
      <trkpt lat="44.56807" lon="5.73266">
        <ele>847.6</ele>
      </trkpt>
      <trkpt lat="44.56822" lon="5.73244">
        <ele>850.7</ele>
      </trkpt>
      <trkpt lat="44.56825" lon="5.73241">
        <ele>850.8</ele>
      </trkpt>
      <trkpt lat="44.56828" lon="5.73239">
        <ele>850.8</ele>
      </trkpt>
      <trkpt lat="44.56833" lon="5.73237">
        <ele>850.8</ele>
      </trkpt>
      <trkpt lat="44.56835" lon="5.73237">
        <ele>852.2</ele>
      </trkpt>
      <trkpt lat="44.56854" lon="5.73175">
        <ele>853</ele>
      </trkpt>
      <trkpt lat="44.56857" lon="5.73168">
        <ele>853.2</ele>
      </trkpt>
      <trkpt lat="44.56858" lon="5.73167">
        <ele>853.2</ele>
      </trkpt>
      <trkpt lat="44.56864" lon="5.73157">
        <ele>854.8</ele>
      </trkpt>
      <trkpt lat="44.56868" lon="5.73153">
        <ele>855.1</ele>
      </trkpt>
      <trkpt lat="44.56874" lon="5.73151">
        <ele>855.6</ele>
      </trkpt>
      <trkpt lat="44.56879" lon="5.7315">
        <ele>855.9</ele>
      </trkpt>
      <trkpt lat="44.56885" lon="5.7315">
        <ele>856.4</ele>
      </trkpt>
      <trkpt lat="44.56909" lon="5.73115">
        <ele>857.9</ele>
      </trkpt>
      <trkpt lat="44.56916" lon="5.73103">
        <ele>859.1</ele>
      </trkpt>
      <trkpt lat="44.56918" lon="5.73097">
        <ele>861.1</ele>
      </trkpt>
      <trkpt lat="44.56935" lon="5.73006">
        <ele>864</ele>
      </trkpt>
      <trkpt lat="44.56948" lon="5.72965">
        <ele>868.5</ele>
      </trkpt>
      <trkpt lat="44.56963" lon="5.72936">
        <ele>870.7</ele>
      </trkpt>
      <trkpt lat="44.56964" lon="5.72935">
        <ele>870.9</ele>
      </trkpt>
      <trkpt lat="44.56975" lon="5.72911">
        <ele>877.8</ele>
      </trkpt>
      <trkpt lat="44.57009" lon="5.72859">
        <ele>888.6</ele>
      </trkpt>
      <trkpt lat="44.57035" lon="5.72813">
        <ele>897.4</ele>
      </trkpt>
      <trkpt lat="44.5705" lon="5.72781">
        <ele>899.7</ele>
      </trkpt>
      <trkpt lat="44.57057" lon="5.72763">
        <ele>901.3</ele>
      </trkpt>
      <trkpt lat="44.57073" lon="5.7274">
        <ele>907.6</ele>
      </trkpt>
      <trkpt lat="44.57073" lon="5.72738">
        <ele>907.6</ele>
      </trkpt>
      <trkpt lat="44.57086" lon="5.7272">
        <ele>909.4</ele>
      </trkpt>
      <trkpt lat="44.57087" lon="5.72717">
        <ele>909.6</ele>
      </trkpt>
      <trkpt lat="44.57111" lon="5.72684">
        <ele>911.4</ele>
      </trkpt>
      <trkpt lat="44.5712" lon="5.7268">
        <ele>911.4</ele>
      </trkpt>
      <trkpt lat="44.57132" lon="5.72671">
        <ele>911.7</ele>
      </trkpt>
      <trkpt lat="44.57139" lon="5.72667">
        <ele>912</ele>
      </trkpt>
      <trkpt lat="44.57148" lon="5.72664">
        <ele>917.1</ele>
      </trkpt>
      <trkpt lat="44.57161" lon="5.72656">
        <ele>916.7</ele>
      </trkpt>
      <trkpt lat="44.5718" lon="5.72634">
        <ele>917.5</ele>
      </trkpt>
      <trkpt lat="44.57225" lon="5.726">
        <ele>918.7</ele>
      </trkpt>
      <trkpt lat="44.57239" lon="5.72586">
        <ele>919.8</ele>
      </trkpt>
      <trkpt lat="44.57246" lon="5.72573">
        <ele>922.3</ele>
      </trkpt>
      <trkpt lat="44.5725" lon="5.7257">
        <ele>922.4</ele>
      </trkpt>
      <trkpt lat="44.57254" lon="5.72566">
        <ele>920.6</ele>
      </trkpt>
      <trkpt lat="44.57269" lon="5.72555">
        <ele>920.4</ele>
      </trkpt>
      <trkpt lat="44.57295" lon="5.72531">
        <ele>920.8</ele>
      </trkpt>
      <trkpt lat="44.57308" lon="5.72516">
        <ele>921.6</ele>
      </trkpt>
      <trkpt lat="44.57317" lon="5.72501">
        <ele>922.8</ele>
      </trkpt>
      <trkpt lat="44.57321" lon="5.72496">
        <ele>926.7</ele>
      </trkpt>
      <trkpt lat="44.57327" lon="5.72486">
        <ele>927.1</ele>
      </trkpt>
      <trkpt lat="44.57332" lon="5.72473">
        <ele>928.3</ele>
      </trkpt>
      <trkpt lat="44.57334" lon="5.72458">
        <ele>926.9</ele>
      </trkpt>
      <trkpt lat="44.57336" lon="5.72452">
        <ele>927.4</ele>
      </trkpt>
      <trkpt lat="44.57338" lon="5.7245">
        <ele>927.6</ele>
      </trkpt>
      <trkpt lat="44.57345" lon="5.72448">
        <ele>927.6</ele>
      </trkpt>
      <trkpt lat="44.5735" lon="5.72448">
        <ele>927.3</ele>
      </trkpt>
      <trkpt lat="44.57356" lon="5.72445">
        <ele>927.3</ele>
      </trkpt>
      <trkpt lat="44.57367" lon="5.72436">
        <ele>927.3</ele>
      </trkpt>
      <trkpt lat="44.57382" lon="5.7242">
        <ele>927.5</ele>
      </trkpt>
      <trkpt lat="44.5739" lon="5.72409">
        <ele>933.4</ele>
      </trkpt>
      <trkpt lat="44.57409" lon="5.72377">
        <ele>934.5</ele>
      </trkpt>
      <trkpt lat="44.57413" lon="5.72372">
        <ele>934.8</ele>
      </trkpt>
      <trkpt lat="44.57417" lon="5.7237">
        <ele>930.6</ele>
      </trkpt>
      <trkpt lat="44.57421" lon="5.72369">
        <ele>930.6</ele>
      </trkpt>
      <trkpt lat="44.57426" lon="5.72369">
        <ele>930.5</ele>
      </trkpt>
      <trkpt lat="44.57433" lon="5.7237">
        <ele>930.1</ele>
      </trkpt>
      <trkpt lat="44.57438" lon="5.72369">
        <ele>929.9</ele>
      </trkpt>
      <trkpt lat="44.57486" lon="5.72348">
        <ele>929.6</ele>
      </trkpt>
      <trkpt lat="44.57532" lon="5.72322">
        <ele>934.4</ele>
      </trkpt>
      <trkpt lat="44.57563" lon="5.72297">
        <ele>935.5</ele>
      </trkpt>
      <trkpt lat="44.5757" lon="5.72287">
        <ele>936.7</ele>
      </trkpt>
      <trkpt lat="44.57582" lon="5.72278">
        <ele>938.1</ele>
      </trkpt>
      <trkpt lat="44.57602" lon="5.72269">
        <ele>935.1</ele>
      </trkpt>
      <trkpt lat="44.57614" lon="5.7226">
        <ele>934.8</ele>
      </trkpt>
      <trkpt lat="44.57624" lon="5.72243">
        <ele>946.9</ele>
      </trkpt>
      <trkpt lat="44.5763" lon="5.72235">
        <ele>947.2</ele>
      </trkpt>
      <trkpt lat="44.57634" lon="5.72228">
        <ele>947.5</ele>
      </trkpt>
      <trkpt lat="44.57642" lon="5.72225">
        <ele>947.4</ele>
      </trkpt>
      <trkpt lat="44.57707" lon="5.72194">
        <ele>947.7</ele>
      </trkpt>
      <trkpt lat="44.57713" lon="5.72189">
        <ele>948.2</ele>
      </trkpt>
      <trkpt lat="44.57726" lon="5.72182">
        <ele>949.5</ele>
      </trkpt>
      <trkpt lat="44.57736" lon="5.72174">
        <ele>951.8</ele>
      </trkpt>
      <trkpt lat="44.57754" lon="5.72169">
        <ele>953.8</ele>
      </trkpt>
      <trkpt lat="44.57775" lon="5.72165">
        <ele>964</ele>
      </trkpt>
      <trkpt lat="44.57782" lon="5.72162">
        <ele>964.7</ele>
      </trkpt>
      <trkpt lat="44.57792" lon="5.72159">
        <ele>965</ele>
      </trkpt>
      <trkpt lat="44.57823" lon="5.72157">
        <ele>960.1</ele>
      </trkpt>
      <trkpt lat="44.57836" lon="5.72155">
        <ele>956.1</ele>
      </trkpt>
      <trkpt lat="44.57844" lon="5.72152">
        <ele>957.4</ele>
      </trkpt>
      <trkpt lat="44.57852" lon="5.72147">
        <ele>958.7</ele>
      </trkpt>
      <trkpt lat="44.57861" lon="5.72139">
        <ele>960.1</ele>
      </trkpt>
      <trkpt lat="44.57878" lon="5.7213">
        <ele>960.6</ele>
      </trkpt>
      <trkpt lat="44.57904" lon="5.7212">
        <ele>961.1</ele>
      </trkpt>
      <trkpt lat="44.57914" lon="5.72114">
        <ele>962.6</ele>
      </trkpt>
      <trkpt lat="44.57919" lon="5.7211">
        <ele>955.1</ele>
      </trkpt>
      <trkpt lat="44.57922" lon="5.72109">
        <ele>955.3</ele>
      </trkpt>
      <trkpt lat="44.57936" lon="5.72102">
        <ele>955.4</ele>
      </trkpt>
      <trkpt lat="44.57938" lon="5.72102">
        <ele>954.9</ele>
      </trkpt>
      <trkpt lat="44.57942" lon="5.72098">
        <ele>954.9</ele>
      </trkpt>
      <trkpt lat="44.5795" lon="5.72088">
        <ele>954.4</ele>
      </trkpt>
      <trkpt lat="44.57964" lon="5.72074">
        <ele>975.4</ele>
      </trkpt>
      <trkpt lat="44.57976" lon="5.7206">
        <ele>975.6</ele>
      </trkpt>
      <trkpt lat="44.57989" lon="5.72049">
        <ele>976.8</ele>
      </trkpt>
      <trkpt lat="44.57998" lon="5.72039">
        <ele>979.3</ele>
      </trkpt>
      <trkpt lat="44.58006" lon="5.72032">
        <ele>970.7</ele>
      </trkpt>
      <trkpt lat="44.5801" lon="5.7203">
        <ele>971.1</ele>
      </trkpt>
      <trkpt lat="44.58014" lon="5.72027">
        <ele>971.6</ele>
      </trkpt>
      <trkpt lat="44.58024" lon="5.72023">
        <ele>971.3</ele>
      </trkpt>
      <trkpt lat="44.58027" lon="5.72023">
        <ele>970.8</ele>
      </trkpt>
      <trkpt lat="44.58033" lon="5.72022">
        <ele>970.2</ele>
      </trkpt>
      <trkpt lat="44.58045" lon="5.72015">
        <ele>969.8</ele>
      </trkpt>
      <trkpt lat="44.58084" lon="5.71984">
        <ele>981.9</ele>
      </trkpt>
      <trkpt lat="44.58093" lon="5.71979">
        <ele>984.5</ele>
      </trkpt>
      <trkpt lat="44.58109" lon="5.71975">
        <ele>986.9</ele>
      </trkpt>
      <trkpt lat="44.58109" lon="5.71974">
        <ele>987.1</ele>
      </trkpt>
      <trkpt lat="44.58116" lon="5.71973">
        <ele>987.5</ele>
      </trkpt>
      <trkpt lat="44.58122" lon="5.71969">
        <ele>988.3</ele>
      </trkpt>
      <trkpt lat="44.58139" lon="5.71965">
        <ele>988.6</ele>
      </trkpt>
      <trkpt lat="44.58147" lon="5.71961">
        <ele>989.2</ele>
      </trkpt>
      <trkpt lat="44.58149" lon="5.71959">
        <ele>989.7</ele>
      </trkpt>
      <trkpt lat="44.58151" lon="5.71956">
        <ele>990.4</ele>
      </trkpt>
      <trkpt lat="44.58151" lon="5.71952">
        <ele>991.4</ele>
      </trkpt>
      <trkpt lat="44.58148" lon="5.71948">
        <ele>992.3</ele>
      </trkpt>
      <trkpt lat="44.58144" lon="5.71948">
        <ele>992.3</ele>
      </trkpt>
      <trkpt lat="44.58111" lon="5.71953">
        <ele>992.2</ele>
      </trkpt>
      <trkpt lat="44.58096" lon="5.71952">
        <ele>993.3</ele>
      </trkpt>
      <trkpt lat="44.58084" lon="5.7195">
        <ele>994.5</ele>
      </trkpt>
      <trkpt lat="44.58074" lon="5.7195">
        <ele>1001.8</ele>
      </trkpt>
      <trkpt lat="44.58068" lon="5.71951">
        <ele>1001.7</ele>
      </trkpt>
      <trkpt lat="44.58056" lon="5.71956">
        <ele>1001.1</ele>
      </trkpt>
      <trkpt lat="44.58051" lon="5.71956">
        <ele>1001.6</ele>
      </trkpt>
      <trkpt lat="44.58049" lon="5.71952">
        <ele>1002.8</ele>
      </trkpt>
      <trkpt lat="44.58049" lon="5.71949">
        <ele>1003.6</ele>
      </trkpt>
      <trkpt lat="44.5805" lon="5.71945">
        <ele>1004.4</ele>
      </trkpt>
      <trkpt lat="44.5814" lon="5.71908">
        <ele>1020.4</ele>
      </trkpt>
      <trkpt lat="44.58141" lon="5.71908">
        <ele>1020.1</ele>
      </trkpt>
      <trkpt lat="44.58158" lon="5.719">
        <ele>1017.6</ele>
      </trkpt>
      <trkpt lat="44.58158" lon="5.71899">
        <ele>1018.1</ele>
      </trkpt>
      <trkpt lat="44.58176" lon="5.7189">
        <ele>1015.1</ele>
      </trkpt>
      <trkpt lat="44.58181" lon="5.7189">
        <ele>1015.3</ele>
      </trkpt>
      <trkpt lat="44.58187" lon="5.71896">
        <ele>1014</ele>
      </trkpt>
      <trkpt lat="44.58193" lon="5.71907">
        <ele>1012.4</ele>
      </trkpt>
      <trkpt lat="44.58203" lon="5.7192">
        <ele>989.8</ele>
      </trkpt>
      <trkpt lat="44.58206" lon="5.71923">
        <ele>989.3</ele>
      </trkpt>
      <trkpt lat="44.5821" lon="5.71924">
        <ele>988.9</ele>
      </trkpt>
      <trkpt lat="44.58213" lon="5.71921">
        <ele>989.1</ele>
      </trkpt>
      <trkpt lat="44.58216" lon="5.71915">
        <ele>1011</ele>
      </trkpt>
      <trkpt lat="44.58222" lon="5.71906">
        <ele>1011.2</ele>
      </trkpt>
      <trkpt lat="44.58232" lon="5.71887">
        <ele>1014.3</ele>
      </trkpt>
      <trkpt lat="44.58245" lon="5.71873">
        <ele>1018</ele>
      </trkpt>
      <trkpt lat="44.58269" lon="5.71852">
        <ele>1011.9</ele>
      </trkpt>
      <trkpt lat="44.58286" lon="5.71841">
        <ele>1008.7</ele>
      </trkpt>
      <trkpt lat="44.58303" lon="5.71827">
        <ele>1028.2</ele>
      </trkpt>
      <trkpt lat="44.58316" lon="5.71812">
        <ele>1027.6</ele>
      </trkpt>
      <trkpt lat="44.58326" lon="5.71803">
        <ele>1029.2</ele>
      </trkpt>
      <trkpt lat="44.58334" lon="5.71799">
        <ele>1010.7</ele>
      </trkpt>
      <trkpt lat="44.58344" lon="5.71796">
        <ele>1010.6</ele>
      </trkpt>
      <trkpt lat="44.58352" lon="5.71789">
        <ele>1011.6</ele>
      </trkpt>
      <trkpt lat="44.58353" lon="5.71784">
        <ele>1013</ele>
      </trkpt>
      <trkpt lat="44.58367" lon="5.71749">
        <ele>1038.9</ele>
      </trkpt>
      <trkpt lat="44.58376" lon="5.71738">
        <ele>1037.6</ele>
      </trkpt>
      <trkpt lat="44.58396" lon="5.71718">
        <ele>1036.6</ele>
      </trkpt>
      <trkpt lat="44.58397" lon="5.71716">
        <ele>1037</ele>
      </trkpt>
      <trkpt lat="44.5841" lon="5.71702">
        <ele>1039.2</ele>
      </trkpt>
      <trkpt lat="44.58425" lon="5.71689">
        <ele>1025.6</ele>
      </trkpt>
      <trkpt lat="44.58441" lon="5.71677">
        <ele>1025.1</ele>
      </trkpt>
      <trkpt lat="44.58446" lon="5.71672">
        <ele>1024.2</ele>
      </trkpt>
      <trkpt lat="44.58473" lon="5.71654">
        <ele>1044.9</ele>
      </trkpt>
      <trkpt lat="44.58487" lon="5.71647">
        <ele>1042.9</ele>
      </trkpt>
      <trkpt lat="44.58556" lon="5.71619">
        <ele>1039.2</ele>
      </trkpt>
      <trkpt lat="44.58565" lon="5.71618">
        <ele>1039.1</ele>
      </trkpt>
      <trkpt lat="44.58583" lon="5.71621">
        <ele>1037.7</ele>
      </trkpt>
      <trkpt lat="44.58592" lon="5.71621">
        <ele>1027.8</ele>
      </trkpt>
      <trkpt lat="44.58599" lon="5.71618">
        <ele>1028.2</ele>
      </trkpt>
      <trkpt lat="44.5861" lon="5.71607">
        <ele>1029.7</ele>
      </trkpt>
      <trkpt lat="44.5861" lon="5.71606">
        <ele>1029.9</ele>
      </trkpt>
      <trkpt lat="44.58619" lon="5.71593">
        <ele>1030.5</ele>
      </trkpt>
      <trkpt lat="44.58627" lon="5.71578">
        <ele>1052.3</ele>
      </trkpt>
      <trkpt lat="44.58646" lon="5.71553">
        <ele>1053.3</ele>
      </trkpt>
      <trkpt lat="44.58648" lon="5.71552">
        <ele>1053.3</ele>
      </trkpt>
      <trkpt lat="44.58646" lon="5.71553">
        <ele>1053.3</ele>
      </trkpt>
      <trkpt lat="44.58627" lon="5.71578">
        <ele>1052.3</ele>
      </trkpt>
      <trkpt lat="44.58619" lon="5.71593">
        <ele>1030.5</ele>
      </trkpt>
      <trkpt lat="44.5861" lon="5.71606">
        <ele>1029.9</ele>
      </trkpt>
      <trkpt lat="44.5861" lon="5.71607">
        <ele>1029.7</ele>
      </trkpt>
      <trkpt lat="44.58599" lon="5.71618">
        <ele>1028.2</ele>
      </trkpt>
      <trkpt lat="44.58592" lon="5.71621">
        <ele>1027.8</ele>
      </trkpt>
      <trkpt lat="44.58583" lon="5.71621">
        <ele>1037.7</ele>
      </trkpt>
      <trkpt lat="44.58565" lon="5.71618">
        <ele>1039.1</ele>
      </trkpt>
      <trkpt lat="44.58556" lon="5.71619">
        <ele>1039.2</ele>
      </trkpt>
      <trkpt lat="44.58487" lon="5.71647">
        <ele>1042.9</ele>
      </trkpt>
      <trkpt lat="44.58473" lon="5.71654">
        <ele>1044.9</ele>
      </trkpt>
      <trkpt lat="44.58446" lon="5.71672">
        <ele>1024.2</ele>
      </trkpt>
      <trkpt lat="44.58441" lon="5.71677">
        <ele>1025.1</ele>
      </trkpt>
      <trkpt lat="44.58425" lon="5.71689">
        <ele>1025.6</ele>
      </trkpt>
      <trkpt lat="44.5841" lon="5.71702">
        <ele>1039.2</ele>
      </trkpt>
      <trkpt lat="44.58397" lon="5.71716">
        <ele>1037</ele>
      </trkpt>
      <trkpt lat="44.58396" lon="5.71718">
        <ele>1036.6</ele>
      </trkpt>
      <trkpt lat="44.58376" lon="5.71738">
        <ele>1037.6</ele>
      </trkpt>
      <trkpt lat="44.58367" lon="5.71749">
        <ele>1038.9</ele>
      </trkpt>
      <trkpt lat="44.58353" lon="5.71784">
        <ele>1013</ele>
      </trkpt>
      <trkpt lat="44.58352" lon="5.71789">
        <ele>1011.6</ele>
      </trkpt>
      <trkpt lat="44.58344" lon="5.71796">
        <ele>1010.6</ele>
      </trkpt>
      <trkpt lat="44.58334" lon="5.71799">
        <ele>1010.7</ele>
      </trkpt>
      <trkpt lat="44.58326" lon="5.71803">
        <ele>1029.2</ele>
      </trkpt>
      <trkpt lat="44.58316" lon="5.71812">
        <ele>1027.6</ele>
      </trkpt>
      <trkpt lat="44.58303" lon="5.71827">
        <ele>1028.2</ele>
      </trkpt>
      <trkpt lat="44.58286" lon="5.71841">
        <ele>1008.7</ele>
      </trkpt>
      <trkpt lat="44.58269" lon="5.71852">
        <ele>1011.9</ele>
      </trkpt>
      <trkpt lat="44.58245" lon="5.71873">
        <ele>1018</ele>
      </trkpt>
      <trkpt lat="44.58232" lon="5.71887">
        <ele>1014.3</ele>
      </trkpt>
      <trkpt lat="44.58222" lon="5.71906">
        <ele>1011.2</ele>
      </trkpt>
      <trkpt lat="44.58216" lon="5.71915">
        <ele>1011</ele>
      </trkpt>
      <trkpt lat="44.58213" lon="5.71921">
        <ele>989.1</ele>
      </trkpt>
      <trkpt lat="44.5821" lon="5.71924">
        <ele>988.9</ele>
      </trkpt>
      <trkpt lat="44.58206" lon="5.71923">
        <ele>989.3</ele>
      </trkpt>
      <trkpt lat="44.58203" lon="5.7192">
        <ele>989.8</ele>
      </trkpt>
      <trkpt lat="44.58193" lon="5.71907">
        <ele>1012.4</ele>
      </trkpt>
      <trkpt lat="44.58187" lon="5.71896">
        <ele>1014</ele>
      </trkpt>
      <trkpt lat="44.58181" lon="5.7189">
        <ele>1015.3</ele>
      </trkpt>
      <trkpt lat="44.58176" lon="5.7189">
        <ele>1015.1</ele>
      </trkpt>
      <trkpt lat="44.58158" lon="5.71899">
        <ele>1018.1</ele>
      </trkpt>
      <trkpt lat="44.58158" lon="5.719">
        <ele>1017.6</ele>
      </trkpt>
      <trkpt lat="44.58141" lon="5.71908">
        <ele>1020.1</ele>
      </trkpt>
      <trkpt lat="44.5814" lon="5.71908">
        <ele>1020.4</ele>
      </trkpt>
      <trkpt lat="44.5805" lon="5.71945">
        <ele>1004.4</ele>
      </trkpt>
      <trkpt lat="44.58049" lon="5.71949">
        <ele>1003.6</ele>
      </trkpt>
      <trkpt lat="44.58049" lon="5.71952">
        <ele>1002.8</ele>
      </trkpt>
      <trkpt lat="44.58051" lon="5.71956">
        <ele>1001.6</ele>
      </trkpt>
      <trkpt lat="44.58056" lon="5.71956">
        <ele>1001.1</ele>
      </trkpt>
      <trkpt lat="44.58068" lon="5.71951">
        <ele>1001.7</ele>
      </trkpt>
      <trkpt lat="44.58074" lon="5.7195">
        <ele>1001.8</ele>
      </trkpt>
      <trkpt lat="44.58084" lon="5.7195">
        <ele>994.5</ele>
      </trkpt>
      <trkpt lat="44.58096" lon="5.71952">
        <ele>993.3</ele>
      </trkpt>
      <trkpt lat="44.58111" lon="5.71953">
        <ele>992.2</ele>
      </trkpt>
      <trkpt lat="44.58144" lon="5.71948">
        <ele>992.3</ele>
      </trkpt>
      <trkpt lat="44.58148" lon="5.71948">
        <ele>992.3</ele>
      </trkpt>
      <trkpt lat="44.58151" lon="5.71952">
        <ele>991.4</ele>
      </trkpt>
      <trkpt lat="44.58151" lon="5.71956">
        <ele>990.4</ele>
      </trkpt>
      <trkpt lat="44.58149" lon="5.71959">
        <ele>989.7</ele>
      </trkpt>
      <trkpt lat="44.58147" lon="5.71961">
        <ele>989.2</ele>
      </trkpt>
      <trkpt lat="44.58139" lon="5.71965">
        <ele>988.6</ele>
      </trkpt>
      <trkpt lat="44.58122" lon="5.71969">
        <ele>988.3</ele>
      </trkpt>
      <trkpt lat="44.58116" lon="5.71973">
        <ele>987.5</ele>
      </trkpt>
      <trkpt lat="44.58109" lon="5.71974">
        <ele>987.1</ele>
      </trkpt>
      <trkpt lat="44.58109" lon="5.71975">
        <ele>986.9</ele>
      </trkpt>
      <trkpt lat="44.58093" lon="5.71979">
        <ele>984.5</ele>
      </trkpt>
      <trkpt lat="44.58084" lon="5.71984">
        <ele>981.9</ele>
      </trkpt>
      <trkpt lat="44.58045" lon="5.72015">
        <ele>969.8</ele>
      </trkpt>
      <trkpt lat="44.58033" lon="5.72022">
        <ele>970.2</ele>
      </trkpt>
      <trkpt lat="44.58027" lon="5.72023">
        <ele>970.8</ele>
      </trkpt>
      <trkpt lat="44.58024" lon="5.72023">
        <ele>971.3</ele>
      </trkpt>
      <trkpt lat="44.58014" lon="5.72027">
        <ele>971.6</ele>
      </trkpt>
      <trkpt lat="44.5801" lon="5.7203">
        <ele>971.1</ele>
      </trkpt>
      <trkpt lat="44.58006" lon="5.72032">
        <ele>970.7</ele>
      </trkpt>
      <trkpt lat="44.57998" lon="5.72039">
        <ele>979.3</ele>
      </trkpt>
      <trkpt lat="44.57989" lon="5.72049">
        <ele>976.8</ele>
      </trkpt>
      <trkpt lat="44.57976" lon="5.7206">
        <ele>975.6</ele>
      </trkpt>
      <trkpt lat="44.57964" lon="5.72074">
        <ele>975.4</ele>
      </trkpt>
      <trkpt lat="44.5795" lon="5.72088">
        <ele>954.4</ele>
      </trkpt>
      <trkpt lat="44.57942" lon="5.72098">
        <ele>954.9</ele>
      </trkpt>
      <trkpt lat="44.57938" lon="5.72102">
        <ele>954.9</ele>
      </trkpt>
      <trkpt lat="44.57936" lon="5.72102">
        <ele>955.4</ele>
      </trkpt>
      <trkpt lat="44.57922" lon="5.72109">
        <ele>955.3</ele>
      </trkpt>
      <trkpt lat="44.57919" lon="5.7211">
        <ele>955.1</ele>
      </trkpt>
      <trkpt lat="44.57914" lon="5.72114">
        <ele>962.6</ele>
      </trkpt>
      <trkpt lat="44.57904" lon="5.7212">
        <ele>961.1</ele>
      </trkpt>
      <trkpt lat="44.57878" lon="5.7213">
        <ele>960.6</ele>
      </trkpt>
      <trkpt lat="44.57861" lon="5.72139">
        <ele>960.1</ele>
      </trkpt>
      <trkpt lat="44.57852" lon="5.72147">
        <ele>958.7</ele>
      </trkpt>
      <trkpt lat="44.57844" lon="5.72152">
        <ele>957.4</ele>
      </trkpt>
      <trkpt lat="44.57836" lon="5.72155">
        <ele>956.1</ele>
      </trkpt>
      <trkpt lat="44.57823" lon="5.72157">
        <ele>960.1</ele>
      </trkpt>
      <trkpt lat="44.57792" lon="5.72159">
        <ele>965</ele>
      </trkpt>
      <trkpt lat="44.57782" lon="5.72162">
        <ele>964.7</ele>
      </trkpt>
      <trkpt lat="44.57775" lon="5.72165">
        <ele>964</ele>
      </trkpt>
      <trkpt lat="44.57754" lon="5.72169">
        <ele>953.8</ele>
      </trkpt>
      <trkpt lat="44.57736" lon="5.72174">
        <ele>951.8</ele>
      </trkpt>
      <trkpt lat="44.57726" lon="5.72182">
        <ele>949.5</ele>
      </trkpt>
      <trkpt lat="44.57713" lon="5.72189">
        <ele>948.2</ele>
      </trkpt>
      <trkpt lat="44.57707" lon="5.72194">
        <ele>947.7</ele>
      </trkpt>
      <trkpt lat="44.57642" lon="5.72225">
        <ele>947.4</ele>
      </trkpt>
      <trkpt lat="44.57634" lon="5.72228">
        <ele>947.5</ele>
      </trkpt>
      <trkpt lat="44.5763" lon="5.72235">
        <ele>947.2</ele>
      </trkpt>
      <trkpt lat="44.57624" lon="5.72243">
        <ele>946.9</ele>
      </trkpt>
      <trkpt lat="44.57614" lon="5.7226">
        <ele>934.8</ele>
      </trkpt>
      <trkpt lat="44.57602" lon="5.72269">
        <ele>935.1</ele>
      </trkpt>
      <trkpt lat="44.57582" lon="5.72278">
        <ele>938.1</ele>
      </trkpt>
      <trkpt lat="44.5757" lon="5.72287">
        <ele>936.7</ele>
      </trkpt>
      <trkpt lat="44.57563" lon="5.72297">
        <ele>935.5</ele>
      </trkpt>
      <trkpt lat="44.57532" lon="5.72322">
        <ele>934.4</ele>
      </trkpt>
      <trkpt lat="44.57486" lon="5.72348">
        <ele>929.6</ele>
      </trkpt>
      <trkpt lat="44.57438" lon="5.72369">
        <ele>929.9</ele>
      </trkpt>
      <trkpt lat="44.57433" lon="5.7237">
        <ele>930.1</ele>
      </trkpt>
      <trkpt lat="44.57426" lon="5.72369">
        <ele>930.5</ele>
      </trkpt>
      <trkpt lat="44.57421" lon="5.72369">
        <ele>930.6</ele>
      </trkpt>
      <trkpt lat="44.57417" lon="5.7237">
        <ele>930.6</ele>
      </trkpt>
      <trkpt lat="44.57413" lon="5.72372">
        <ele>934.8</ele>
      </trkpt>
      <trkpt lat="44.57409" lon="5.72377">
        <ele>934.5</ele>
      </trkpt>
      <trkpt lat="44.5739" lon="5.72409">
        <ele>933.4</ele>
      </trkpt>
      <trkpt lat="44.57382" lon="5.7242">
        <ele>927.5</ele>
      </trkpt>
      <trkpt lat="44.57367" lon="5.72436">
        <ele>927.3</ele>
      </trkpt>
      <trkpt lat="44.57356" lon="5.72445">
        <ele>927.3</ele>
      </trkpt>
      <trkpt lat="44.5735" lon="5.72448">
        <ele>927.3</ele>
      </trkpt>
      <trkpt lat="44.57345" lon="5.72448">
        <ele>927.6</ele>
      </trkpt>
      <trkpt lat="44.57338" lon="5.7245">
        <ele>927.6</ele>
      </trkpt>
      <trkpt lat="44.57336" lon="5.72452">
        <ele>927.4</ele>
      </trkpt>
      <trkpt lat="44.57334" lon="5.72458">
        <ele>926.9</ele>
      </trkpt>
      <trkpt lat="44.57332" lon="5.72473">
        <ele>928.3</ele>
      </trkpt>
      <trkpt lat="44.57327" lon="5.72486">
        <ele>927.1</ele>
      </trkpt>
      <trkpt lat="44.57321" lon="5.72496">
        <ele>926.7</ele>
      </trkpt>
      <trkpt lat="44.57317" lon="5.72501">
        <ele>922.8</ele>
      </trkpt>
      <trkpt lat="44.57308" lon="5.72516">
        <ele>921.6</ele>
      </trkpt>
      <trkpt lat="44.57295" lon="5.72531">
        <ele>920.8</ele>
      </trkpt>
      <trkpt lat="44.57269" lon="5.72555">
        <ele>920.4</ele>
      </trkpt>
      <trkpt lat="44.57254" lon="5.72566">
        <ele>920.6</ele>
      </trkpt>
      <trkpt lat="44.5725" lon="5.7257">
        <ele>922.4</ele>
      </trkpt>
      <trkpt lat="44.57246" lon="5.72573">
        <ele>922.3</ele>
      </trkpt>
      <trkpt lat="44.57239" lon="5.72586">
        <ele>919.8</ele>
      </trkpt>
      <trkpt lat="44.57225" lon="5.726">
        <ele>918.7</ele>
      </trkpt>
      <trkpt lat="44.5718" lon="5.72634">
        <ele>917.5</ele>
      </trkpt>
      <trkpt lat="44.57161" lon="5.72656">
        <ele>916.7</ele>
      </trkpt>
      <trkpt lat="44.57148" lon="5.72664">
        <ele>917.1</ele>
      </trkpt>
      <trkpt lat="44.57144" lon="5.72665">
        <ele>917.3</ele>
      </trkpt>
      <trkpt lat="44.57139" lon="5.72667">
        <ele>912</ele>
      </trkpt>
      <trkpt lat="44.57132" lon="5.72671">
        <ele>911.7</ele>
      </trkpt>
      <trkpt lat="44.5712" lon="5.7268">
        <ele>911.4</ele>
      </trkpt>
      <trkpt lat="44.57111" lon="5.72684">
        <ele>911.4</ele>
      </trkpt>
      <trkpt lat="44.57087" lon="5.72717">
        <ele>909.6</ele>
      </trkpt>
      <trkpt lat="44.57086" lon="5.7272">
        <ele>909.4</ele>
      </trkpt>
      <trkpt lat="44.57073" lon="5.72738">
        <ele>907.6</ele>
      </trkpt>
      <trkpt lat="44.57073" lon="5.7274">
        <ele>907.6</ele>
      </trkpt>
      <trkpt lat="44.57057" lon="5.72763">
        <ele>901.3</ele>
      </trkpt>
      <trkpt lat="44.5705" lon="5.72781">
        <ele>899.7</ele>
      </trkpt>
      <trkpt lat="44.57035" lon="5.72813">
        <ele>897.4</ele>
      </trkpt>
      <trkpt lat="44.57009" lon="5.72859">
        <ele>888.6</ele>
      </trkpt>
      <trkpt lat="44.56975" lon="5.72911">
        <ele>877.8</ele>
      </trkpt>
      <trkpt lat="44.56964" lon="5.72935">
        <ele>870.9</ele>
      </trkpt>
      <trkpt lat="44.56963" lon="5.72936">
        <ele>870.7</ele>
      </trkpt>
      <trkpt lat="44.56948" lon="5.72965">
        <ele>868.5</ele>
      </trkpt>
      <trkpt lat="44.56935" lon="5.73006">
        <ele>864</ele>
      </trkpt>
      <trkpt lat="44.56918" lon="5.73097">
        <ele>861.1</ele>
      </trkpt>
      <trkpt lat="44.56916" lon="5.73103">
        <ele>859.1</ele>
      </trkpt>
      <trkpt lat="44.56909" lon="5.73115">
        <ele>857.9</ele>
      </trkpt>
      <trkpt lat="44.56885" lon="5.7315">
        <ele>856.4</ele>
      </trkpt>
      <trkpt lat="44.56879" lon="5.7315">
        <ele>855.9</ele>
      </trkpt>
      <trkpt lat="44.56874" lon="5.73151">
        <ele>855.6</ele>
      </trkpt>
      <trkpt lat="44.56868" lon="5.73153">
        <ele>855.1</ele>
      </trkpt>
      <trkpt lat="44.56864" lon="5.73157">
        <ele>854.8</ele>
      </trkpt>
      <trkpt lat="44.56858" lon="5.73167">
        <ele>853.2</ele>
      </trkpt>
      <trkpt lat="44.56857" lon="5.73168">
        <ele>853.2</ele>
      </trkpt>
      <trkpt lat="44.56854" lon="5.73175">
        <ele>853</ele>
      </trkpt>
      <trkpt lat="44.56835" lon="5.73237">
        <ele>852.2</ele>
      </trkpt>
      <trkpt lat="44.56833" lon="5.73237">
        <ele>850.8</ele>
      </trkpt>
      <trkpt lat="44.56828" lon="5.73239">
        <ele>850.8</ele>
      </trkpt>
      <trkpt lat="44.56825" lon="5.73241">
        <ele>850.8</ele>
      </trkpt>
      <trkpt lat="44.56822" lon="5.73244">
        <ele>850.7</ele>
      </trkpt>
      <trkpt lat="44.56807" lon="5.73266">
        <ele>847.6</ele>
      </trkpt>
      <trkpt lat="44.56807" lon="5.73267">
        <ele>847.5</ele>
      </trkpt>
      <trkpt lat="44.56805" lon="5.7327">
        <ele>847.3</ele>
      </trkpt>
      <trkpt lat="44.56804" lon="5.73273">
        <ele>847.1</ele>
      </trkpt>
      <trkpt lat="44.56804" lon="5.73275">
        <ele>847</ele>
      </trkpt>
      <trkpt lat="44.56806" lon="5.73279">
        <ele>847</ele>
      </trkpt>
      <trkpt lat="44.56811" lon="5.73285">
        <ele>846.9</ele>
      </trkpt>
      <trkpt lat="44.56805" lon="5.73291">
        <ele>846.4</ele>
      </trkpt>
      <trkpt lat="44.56773" lon="5.73335">
        <ele>841.9</ele>
      </trkpt>
      <trkpt lat="44.56771" lon="5.73642">
        <ele>837.6</ele>
      </trkpt>
      <trkpt lat="44.56774" lon="5.73695">
        <ele>838.3</ele>
      </trkpt>
      <trkpt lat="44.5678" lon="5.73737">
        <ele>838.8</ele>
      </trkpt>
      <trkpt lat="44.56757" lon="5.73758">
        <ele>839.9</ele>
      </trkpt>
      <trkpt lat="44.5672" lon="5.73797">
        <ele>838.7</ele>
      </trkpt>
      <trkpt lat="44.56718" lon="5.738">
        <ele>838.7</ele>
      </trkpt>
      <trkpt lat="44.56712" lon="5.73812">
        <ele>838.8</ele>
      </trkpt>
      <trkpt lat="44.56704" lon="5.73838">
        <ele>840.2</ele>
      </trkpt>
      <trkpt lat="44.56704" lon="5.73845">
        <ele>840.2</ele>
      </trkpt>
      <trkpt lat="44.56703" lon="5.73853">
        <ele>840.3</ele>
      </trkpt>
      <trkpt lat="44.56703" lon="5.73859">
        <ele>840.4</ele>
      </trkpt>
      <trkpt lat="44.56704" lon="5.73867">
        <ele>840.5</ele>
      </trkpt>
      <trkpt lat="44.56708" lon="5.73885">
        <ele>840.9</ele>
      </trkpt>
      <trkpt lat="44.5671" lon="5.7389">
        <ele>841</ele>
      </trkpt>
      <trkpt lat="44.56711" lon="5.7389">
        <ele>841.1</ele>
      </trkpt>
      <trkpt lat="44.56714" lon="5.73899">
        <ele>841.4</ele>
      </trkpt>
      <trkpt lat="44.56716" lon="5.73903">
        <ele>841.6</ele>
      </trkpt>
      <trkpt lat="44.56726" lon="5.73936">
        <ele>843.1</ele>
      </trkpt>
      <trkpt lat="44.56726" lon="5.73954">
        <ele>842.8</ele>
      </trkpt>
      <trkpt lat="44.56725" lon="5.73961">
        <ele>842.8</ele>
      </trkpt>
      <trkpt lat="44.56725" lon="5.73965">
        <ele>842.8</ele>
      </trkpt>
      <trkpt lat="44.56724" lon="5.73966">
        <ele>842.8</ele>
      </trkpt>
      <trkpt lat="44.56722" lon="5.73979">
        <ele>842.8</ele>
      </trkpt>
      <trkpt lat="44.56716" lon="5.73993">
        <ele>842.5</ele>
      </trkpt>
      <trkpt lat="44.56708" lon="5.74025">
        <ele>842.6</ele>
      </trkpt>
      <trkpt lat="44.56704" lon="5.74059">
        <ele>842.5</ele>
      </trkpt>
      <trkpt lat="44.567" lon="5.74176">
        <ele>842.2</ele>
      </trkpt>
      <trkpt lat="44.56724" lon="5.7488">
        <ele>836.4</ele>
      </trkpt>
      <trkpt lat="44.56719" lon="5.74953">
        <ele>838.6</ele>
      </trkpt>
      <trkpt lat="44.56713" lon="5.74998">
        <ele>839</ele>
      </trkpt>
      <trkpt lat="44.56713" lon="5.75003">
        <ele>841.2</ele>
      </trkpt>
      <trkpt lat="44.56664" lon="5.75403">
        <ele>832.3</ele>
      </trkpt>
      <trkpt lat="44.56662" lon="5.75413">
        <ele>833.1</ele>
      </trkpt>
      <trkpt lat="44.56661" lon="5.75424">
        <ele>832.6</ele>
      </trkpt>
      <trkpt lat="44.56653" lon="5.75457">
        <ele>830.7</ele>
      </trkpt>
      <trkpt lat="44.56642" lon="5.75487">
        <ele>830.4</ele>
      </trkpt>
      <trkpt lat="44.56592" lon="5.75585">
        <ele>829.9</ele>
      </trkpt>
      <trkpt lat="44.56565" lon="5.75651">
        <ele>826.6</ele>
      </trkpt>
      <trkpt lat="44.56528" lon="5.75772">
        <ele>829.2</ele>
      </trkpt>
      <trkpt lat="44.56528" lon="5.75773">
        <ele>829.3</ele>
      </trkpt>
      <trkpt lat="44.56521" lon="5.75796">
        <ele>829.6</ele>
      </trkpt>
      <trkpt lat="44.56521" lon="5.75797">
        <ele>829.7</ele>
      </trkpt>
      <trkpt lat="44.56513" lon="5.75822">
        <ele>828.4</ele>
      </trkpt>
      <trkpt lat="44.56498" lon="5.7586">
        <ele>825.1</ele>
      </trkpt>
      <trkpt lat="44.5648" lon="5.75896">
        <ele>826.6</ele>
      </trkpt>
      <trkpt lat="44.56478" lon="5.75902">
        <ele>826.8</ele>
      </trkpt>
      <trkpt lat="44.5645" lon="5.75959">
        <ele>827.8</ele>
      </trkpt>
      <trkpt lat="44.56449" lon="5.75962">
        <ele>827.7</ele>
      </trkpt>
      <trkpt lat="44.56444" lon="5.7597">
        <ele>827.2</ele>
      </trkpt>
      <trkpt lat="44.5643" lon="5.75987">
        <ele>824.4</ele>
      </trkpt>
      <trkpt lat="44.56416" lon="5.76001">
        <ele>819</ele>
      </trkpt>
      <trkpt lat="44.56388" lon="5.76038">
        <ele>819.7</ele>
      </trkpt>
      <trkpt lat="44.56248" lon="5.76254">
        <ele>816.2</ele>
      </trkpt>
      <trkpt lat="44.56243" lon="5.76263">
        <ele>816.4</ele>
      </trkpt>
      <trkpt lat="44.56236" lon="5.76272">
        <ele>816.7</ele>
      </trkpt>
      <trkpt lat="44.56082" lon="5.76509">
        <ele>817.8</ele>
      </trkpt>
      <trkpt lat="44.56073" lon="5.76519">
        <ele>819.5</ele>
      </trkpt>
      <trkpt lat="44.56051" lon="5.76537">
        <ele>821</ele>
      </trkpt>
      <trkpt lat="44.56041" lon="5.76542">
        <ele>820.7</ele>
      </trkpt>
      <trkpt lat="44.56026" lon="5.76547">
        <ele>819.9</ele>
      </trkpt>
      <trkpt lat="44.5576" lon="5.76613">
        <ele>818.5</ele>
      </trkpt>
      <trkpt lat="44.55732" lon="5.76622">
        <ele>816.6</ele>
      </trkpt>
      <trkpt lat="44.55715" lon="5.7663">
        <ele>816.5</ele>
      </trkpt>
      <trkpt lat="44.55687" lon="5.7665">
        <ele>814.8</ele>
      </trkpt>
      <trkpt lat="44.55625" lon="5.76702">
        <ele>813</ele>
      </trkpt>
      <trkpt lat="44.55622" lon="5.76706">
        <ele>813</ele>
      </trkpt>
      <trkpt lat="44.55588" lon="5.76727">
        <ele>811.9</ele>
      </trkpt>
      <trkpt lat="44.55575" lon="5.76732">
        <ele>808.9</ele>
      </trkpt>
      <trkpt lat="44.55562" lon="5.76735">
        <ele>808.7</ele>
      </trkpt>
      <trkpt lat="44.55552" lon="5.76736">
        <ele>808.4</ele>
      </trkpt>
      <trkpt lat="44.55534" lon="5.76734">
        <ele>808</ele>
      </trkpt>
      <trkpt lat="44.5551" lon="5.76727">
        <ele>807.5</ele>
      </trkpt>
      <trkpt lat="44.55423" lon="5.76692">
        <ele>810.1</ele>
      </trkpt>
      <trkpt lat="44.5542" lon="5.7669">
        <ele>809.9</ele>
      </trkpt>
      <trkpt lat="44.55405" lon="5.76686">
        <ele>810.2</ele>
      </trkpt>
      <trkpt lat="44.55391" lon="5.76684">
        <ele>810.4</ele>
      </trkpt>
      <trkpt lat="44.55364" lon="5.7669">
        <ele>810.4</ele>
      </trkpt>
      <trkpt lat="44.55363" lon="5.76691">
        <ele>810.5</ele>
      </trkpt>
      <trkpt lat="44.55354" lon="5.76697">
        <ele>810.4</ele>
      </trkpt>
      <trkpt lat="44.5534" lon="5.76713">
        <ele>810.5</ele>
      </trkpt>
      <trkpt lat="44.55334" lon="5.76722">
        <ele>810.5</ele>
      </trkpt>
      <trkpt lat="44.5533" lon="5.7673">
        <ele>812.6</ele>
      </trkpt>
      <trkpt lat="44.55329" lon="5.76733">
        <ele>812.3</ele>
      </trkpt>
      <trkpt lat="44.55326" lon="5.76739">
        <ele>811.8</ele>
      </trkpt>
      <trkpt lat="44.55323" lon="5.76749">
        <ele>811.4</ele>
      </trkpt>
      <trkpt lat="44.5531" lon="5.76813">
        <ele>814.2</ele>
      </trkpt>
      <trkpt lat="44.55289" lon="5.76951">
        <ele>821.2</ele>
      </trkpt>
      <trkpt lat="44.55287" lon="5.76958">
        <ele>821.1</ele>
      </trkpt>
      <trkpt lat="44.55287" lon="5.76961">
        <ele>821.1</ele>
      </trkpt>
      <trkpt lat="44.55236" lon="5.77262">
        <ele>817.7</ele>
      </trkpt>
      <trkpt lat="44.55232" lon="5.7728">
        <ele>820.6</ele>
      </trkpt>
      <trkpt lat="44.55232" lon="5.77282">
        <ele>820.8</ele>
      </trkpt>
      <trkpt lat="44.55229" lon="5.77295">
        <ele>822</ele>
      </trkpt>
      <trkpt lat="44.55217" lon="5.77323">
        <ele>823.1</ele>
      </trkpt>
      <trkpt lat="44.55207" lon="5.7734">
        <ele>823.6</ele>
      </trkpt>
      <trkpt lat="44.552" lon="5.77356">
        <ele>823.1</ele>
      </trkpt>
      <trkpt lat="44.55194" lon="5.77377">
        <ele>822.3</ele>
      </trkpt>
      <trkpt lat="44.55194" lon="5.77393">
        <ele>821.5</ele>
      </trkpt>
      <trkpt lat="44.55199" lon="5.77441">
        <ele>823.9</ele>
      </trkpt>
      <trkpt lat="44.55198" lon="5.77457">
        <ele>824.2</ele>
      </trkpt>
      <trkpt lat="44.5519" lon="5.77509">
        <ele>821.3</ele>
      </trkpt>
      <trkpt lat="44.55182" lon="5.77544">
        <ele>822.3</ele>
      </trkpt>
      <trkpt lat="44.55174" lon="5.77567">
        <ele>816.8</ele>
      </trkpt>
      <trkpt lat="44.55163" lon="5.77586">
        <ele>805.3</ele>
      </trkpt>
      <trkpt lat="44.55161" lon="5.77588">
        <ele>805.4</ele>
      </trkpt>
      <trkpt lat="44.55156" lon="5.77591">
        <ele>805.7</ele>
      </trkpt>
      <trkpt lat="44.55162" lon="5.77608">
        <ele>806.1</ele>
      </trkpt>
      <trkpt lat="44.55164" lon="5.7762">
        <ele>806.5</ele>
      </trkpt>
      <trkpt lat="44.55163" lon="5.77631">
        <ele>807</ele>
      </trkpt>
      <trkpt lat="44.55162" lon="5.77634">
        <ele>807.1</ele>
      </trkpt>
      <trkpt lat="44.55133" lon="5.77689">
        <ele>811.5</ele>
      </trkpt>
      <trkpt lat="44.55131" lon="5.77696">
        <ele>811.9</ele>
      </trkpt>
      <trkpt lat="44.55108" lon="5.7773">
        <ele>810.7</ele>
      </trkpt>
      <trkpt lat="44.55077" lon="5.77762">
        <ele>805.5</ele>
      </trkpt>
      <trkpt lat="44.55062" lon="5.77775">
        <ele>807.4</ele>
      </trkpt>
      <trkpt lat="44.55062" lon="5.77776">
        <ele>807.5</ele>
      </trkpt>
      <trkpt lat="44.55" lon="5.77832">
        <ele>804.7</ele>
      </trkpt>
      <trkpt lat="44.54947" lon="5.77868">
        <ele>810.9</ele>
      </trkpt>
      <trkpt lat="44.54945" lon="5.7787">
        <ele>811</ele>
      </trkpt>
      <trkpt lat="44.54895" lon="5.77899">
        <ele>806.2</ele>
      </trkpt>
      <trkpt lat="44.54873" lon="5.77909">
        <ele>805.3</ele>
      </trkpt>
      <trkpt lat="44.54817" lon="5.77925">
        <ele>812</ele>
      </trkpt>
      <trkpt lat="44.54803" lon="5.7793">
        <ele>813.3</ele>
      </trkpt>
      <trkpt lat="44.54786" lon="5.77938">
        <ele>813.4</ele>
      </trkpt>
      <trkpt lat="44.54772" lon="5.77948">
        <ele>813.7</ele>
      </trkpt>
      <trkpt lat="44.54718" lon="5.77999">
        <ele>809</ele>
      </trkpt>
      <trkpt lat="44.54615" lon="5.78069">
        <ele>815.5</ele>
      </trkpt>
      <trkpt lat="44.54563" lon="5.78113">
        <ele>820.9</ele>
      </trkpt>
      <trkpt lat="44.54503" lon="5.78171">
        <ele>827.2</ele>
      </trkpt>
      <trkpt lat="44.54452" lon="5.78217">
        <ele>827.7</ele>
      </trkpt>
      <trkpt lat="44.54431" lon="5.78238">
        <ele>828.3</ele>
      </trkpt>
      <trkpt lat="44.54414" lon="5.78262">
        <ele>830</ele>
      </trkpt>
      <trkpt lat="44.54373" lon="5.78331">
        <ele>832.9</ele>
      </trkpt>
      <trkpt lat="44.54371" lon="5.78336">
        <ele>841.3</ele>
      </trkpt>
      <trkpt lat="44.54291" lon="5.78472">
        <ele>840.1</ele>
      </trkpt>
      <trkpt lat="44.54291" lon="5.78473">
        <ele>840.2</ele>
      </trkpt>
      <trkpt lat="44.54279" lon="5.78488">
        <ele>841</ele>
      </trkpt>
      <trkpt lat="44.54277" lon="5.78489">
        <ele>841.1</ele>
      </trkpt>
      <trkpt lat="44.54275" lon="5.78491">
        <ele>841.2</ele>
      </trkpt>
      <trkpt lat="44.5427" lon="5.78493">
        <ele>841.5</ele>
      </trkpt>
      <trkpt lat="44.54264" lon="5.78494">
        <ele>842</ele>
      </trkpt>
      <trkpt lat="44.5426" lon="5.78494">
        <ele>842.3</ele>
      </trkpt>
      <trkpt lat="44.54254" lon="5.78492">
        <ele>842.6</ele>
      </trkpt>
      <trkpt lat="44.54244" lon="5.78482">
        <ele>848.6</ele>
      </trkpt>
      <trkpt lat="44.54241" lon="5.78474">
        <ele>849.4</ele>
      </trkpt>
      <trkpt lat="44.5423" lon="5.78432">
        <ele>847.1</ele>
      </trkpt>
      <trkpt lat="44.54222" lon="5.78413">
        <ele>843.2</ele>
      </trkpt>
      <trkpt lat="44.5422" lon="5.78406">
        <ele>843.7</ele>
      </trkpt>
      <trkpt lat="44.54211" lon="5.78394">
        <ele>845.4</ele>
      </trkpt>
      <trkpt lat="44.54182" lon="5.78369">
        <ele>848.3</ele>
      </trkpt>
      <trkpt lat="44.5418" lon="5.78368">
        <ele>848.5</ele>
      </trkpt>
      <trkpt lat="44.54172" lon="5.78356">
        <ele>849.2</ele>
      </trkpt>
      <trkpt lat="44.54168" lon="5.78341">
        <ele>851</ele>
      </trkpt>
      <trkpt lat="44.54162" lon="5.78304">
        <ele>855.5</ele>
      </trkpt>
      <trkpt lat="44.54162" lon="5.78299">
        <ele>855.2</ele>
      </trkpt>
      <trkpt lat="44.54157" lon="5.78277">
        <ele>852.6</ele>
      </trkpt>
      <trkpt lat="44.54152" lon="5.78265">
        <ele>850.8</ele>
      </trkpt>
      <trkpt lat="44.54147" lon="5.78257">
        <ele>850.8</ele>
      </trkpt>
      <trkpt lat="44.54137" lon="5.78248">
        <ele>840.8</ele>
      </trkpt>
      <trkpt lat="44.54126" lon="5.78242">
        <ele>841.8</ele>
      </trkpt>
      <trkpt lat="44.54117" lon="5.7824">
        <ele>843.1</ele>
      </trkpt>
      <trkpt lat="44.54058" lon="5.78235">
        <ele>849.1</ele>
      </trkpt>
      <trkpt lat="44.54034" lon="5.78236">
        <ele>847.9</ele>
      </trkpt>
      <trkpt lat="44.54019" lon="5.78241">
        <ele>849.3</ele>
      </trkpt>
      <trkpt lat="44.53971" lon="5.78274">
        <ele>858.9</ele>
      </trkpt>
      <trkpt lat="44.53958" lon="5.78285">
        <ele>859.2</ele>
      </trkpt>
      <trkpt lat="44.53957" lon="5.78285">
        <ele>859.1</ele>
      </trkpt>
      <trkpt lat="44.5395" lon="5.78294">
        <ele>859.7</ele>
      </trkpt>
      <trkpt lat="44.53945" lon="5.78305">
        <ele>860.7</ele>
      </trkpt>
      <trkpt lat="44.53934" lon="5.78337">
        <ele>874.6</ele>
      </trkpt>
      <trkpt lat="44.53931" lon="5.78343">
        <ele>874.6</ele>
      </trkpt>
      <trkpt lat="44.5393" lon="5.78346">
        <ele>875.2</ele>
      </trkpt>
      <trkpt lat="44.53917" lon="5.78366">
        <ele>880.7</ele>
      </trkpt>
      <trkpt lat="44.53898" lon="5.78383">
        <ele>870.7</ele>
      </trkpt>
      <trkpt lat="44.53859" lon="5.78412">
        <ele>868.2</ele>
      </trkpt>
      <trkpt lat="44.53849" lon="5.78418">
        <ele>878</ele>
      </trkpt>
      <trkpt lat="44.53826" lon="5.78437">
        <ele>866.2</ele>
      </trkpt>
      <trkpt lat="44.53818" lon="5.78449">
        <ele>866.5</ele>
      </trkpt>
      <trkpt lat="44.53812" lon="5.7846">
        <ele>867.2</ele>
      </trkpt>
      <trkpt lat="44.53802" lon="5.78515">
        <ele>879.7</ele>
      </trkpt>
      <trkpt lat="44.53789" lon="5.78567">
        <ele>880.9</ele>
      </trkpt>
      <trkpt lat="44.53776" lon="5.78603">
        <ele>887.7</ele>
      </trkpt>
      <trkpt lat="44.53668" lon="5.78946">
        <ele>909.9</ele>
      </trkpt>
      <trkpt lat="44.53666" lon="5.7895">
        <ele>906.7</ele>
      </trkpt>
      <trkpt lat="44.53666" lon="5.78952">
        <ele>906.9</ele>
      </trkpt>
      <trkpt lat="44.53662" lon="5.7897">
        <ele>908.2</ele>
      </trkpt>
      <trkpt lat="44.53659" lon="5.79001">
        <ele>909.2</ele>
      </trkpt>
      <trkpt lat="44.53659" lon="5.79087">
        <ele>912.9</ele>
      </trkpt>
      <trkpt lat="44.53661" lon="5.79119">
        <ele>918.6</ele>
      </trkpt>
      <trkpt lat="44.53667" lon="5.79155">
        <ele>916.1</ele>
      </trkpt>
      <trkpt lat="44.53694" lon="5.79273">
        <ele>917</ele>
      </trkpt>
      <trkpt lat="44.53699" lon="5.79302">
        <ele>916.8</ele>
      </trkpt>
      <trkpt lat="44.537" lon="5.79304">
        <ele>916.8</ele>
      </trkpt>
      <trkpt lat="44.53707" lon="5.79342">
        <ele>917.3</ele>
      </trkpt>
      <trkpt lat="44.5371" lon="5.79371">
        <ele>917.4</ele>
      </trkpt>
      <trkpt lat="44.5371" lon="5.79385">
        <ele>917.6</ele>
      </trkpt>
      <trkpt lat="44.53711" lon="5.79396">
        <ele>917.6</ele>
      </trkpt>
      <trkpt lat="44.53709" lon="5.79428">
        <ele>917.8</ele>
      </trkpt>
      <trkpt lat="44.53704" lon="5.79454">
        <ele>917.6</ele>
      </trkpt>
      <trkpt lat="44.53693" lon="5.79489">
        <ele>917.1</ele>
      </trkpt>
      <trkpt lat="44.53677" lon="5.79518">
        <ele>916.2</ele>
      </trkpt>
      <trkpt lat="44.5366" lon="5.79541">
        <ele>915</ele>
      </trkpt>
      <trkpt lat="44.53621" lon="5.79578">
        <ele>914.4</ele>
      </trkpt>
      <trkpt lat="44.53601" lon="5.79595">
        <ele>913.1</ele>
      </trkpt>
      <trkpt lat="44.53583" lon="5.79607">
        <ele>911.7</ele>
      </trkpt>
      <trkpt lat="44.53576" lon="5.79613">
        <ele>911.5</ele>
      </trkpt>
      <trkpt lat="44.53558" lon="5.79624">
        <ele>911.1</ele>
      </trkpt>
      <trkpt lat="44.53483" lon="5.79664">
        <ele>910.6</ele>
      </trkpt>
      <trkpt lat="44.53483" lon="5.79665">
        <ele>910.6</ele>
      </trkpt>
      <trkpt lat="44.534" lon="5.79708">
        <ele>908.2</ele>
      </trkpt>
      <trkpt lat="44.53399" lon="5.79709">
        <ele>908.2</ele>
      </trkpt>
      <trkpt lat="44.5337" lon="5.79718">
        <ele>907.2</ele>
      </trkpt>
      <trkpt lat="44.53182" lon="5.79747">
        <ele>894.9</ele>
      </trkpt>
      <trkpt lat="44.53163" lon="5.79753">
        <ele>892.4</ele>
      </trkpt>
      <trkpt lat="44.53155" lon="5.79757">
        <ele>891.6</ele>
      </trkpt>
      <trkpt lat="44.53148" lon="5.79762">
        <ele>891</ele>
      </trkpt>
      <trkpt lat="44.53141" lon="5.7977">
        <ele>890.5</ele>
      </trkpt>
      <trkpt lat="44.53135" lon="5.79779">
        <ele>890.1</ele>
      </trkpt>
      <trkpt lat="44.53131" lon="5.79788">
        <ele>889.9</ele>
      </trkpt>
      <trkpt lat="44.53128" lon="5.79798">
        <ele>889.7</ele>
      </trkpt>
      <trkpt lat="44.5312" lon="5.79856">
        <ele>886.5</ele>
      </trkpt>
      <trkpt lat="44.5312" lon="5.79892">
        <ele>885.4</ele>
      </trkpt>
      <trkpt lat="44.53124" lon="5.79943">
        <ele>878.3</ele>
      </trkpt>
      <trkpt lat="44.53125" lon="5.79948">
        <ele>878.1</ele>
      </trkpt>
      <trkpt lat="44.53126" lon="5.79961">
        <ele>877.2</ele>
      </trkpt>
      <trkpt lat="44.53129" lon="5.79972">
        <ele>876.7</ele>
      </trkpt>
      <trkpt lat="44.53129" lon="5.79975">
        <ele>876.5</ele>
      </trkpt>
      <trkpt lat="44.53132" lon="5.79984">
        <ele>876.4</ele>
      </trkpt>
      <trkpt lat="44.53137" lon="5.79994">
        <ele>876.7</ele>
      </trkpt>
      <trkpt lat="44.53144" lon="5.80002">
        <ele>869.9</ele>
      </trkpt>
      <trkpt lat="44.5315" lon="5.80005">
        <ele>871.5</ele>
      </trkpt>
      <trkpt lat="44.5316" lon="5.80007">
        <ele>874.5</ele>
      </trkpt>
      <trkpt lat="44.53166" lon="5.80007">
        <ele>875.8</ele>
      </trkpt>
      <trkpt lat="44.53171" lon="5.80006">
        <ele>876.3</ele>
      </trkpt>
      <trkpt lat="44.53175" lon="5.80004">
        <ele>875.6</ele>
      </trkpt>
      <trkpt lat="44.53185" lon="5.79995">
        <ele>879.9</ele>
      </trkpt>
      <trkpt lat="44.53225" lon="5.79941">
        <ele>881.2</ele>
      </trkpt>
      <trkpt lat="44.53236" lon="5.79924">
        <ele>882.1</ele>
      </trkpt>
      <trkpt lat="44.53237" lon="5.79923">
        <ele>882.1</ele>
      </trkpt>
      <trkpt lat="44.53245" lon="5.79911">
        <ele>885.5</ele>
      </trkpt>
      <trkpt lat="44.53251" lon="5.79905">
        <ele>885.3</ele>
      </trkpt>
      <trkpt lat="44.53258" lon="5.79901">
        <ele>886.1</ele>
      </trkpt>
      <trkpt lat="44.53266" lon="5.79898">
        <ele>886.8</ele>
      </trkpt>
      <trkpt lat="44.53272" lon="5.79898">
        <ele>887</ele>
      </trkpt>
      <trkpt lat="44.53278" lon="5.79897">
        <ele>887.3</ele>
      </trkpt>
      <trkpt lat="44.53296" lon="5.79905">
        <ele>886.5</ele>
      </trkpt>
      <trkpt lat="44.53329" lon="5.79928">
        <ele>876.3</ele>
      </trkpt>
      <trkpt lat="44.53335" lon="5.7993">
        <ele>876.9</ele>
      </trkpt>
      <trkpt lat="44.5334" lon="5.79933">
        <ele>876.5</ele>
      </trkpt>
      <trkpt lat="44.53349" lon="5.79937">
        <ele>875.9</ele>
      </trkpt>
      <trkpt lat="44.53369" lon="5.79944">
        <ele>875.7</ele>
      </trkpt>
      <trkpt lat="44.53379" lon="5.79949">
        <ele>875.8</ele>
      </trkpt>
      <trkpt lat="44.53383" lon="5.79954">
        <ele>875.5</ele>
      </trkpt>
      <trkpt lat="44.53388" lon="5.79966">
        <ele>874.2</ele>
      </trkpt>
      <trkpt lat="44.53388" lon="5.79972">
        <ele>873.6</ele>
      </trkpt>
      <trkpt lat="44.53387" lon="5.79977">
        <ele>873</ele>
      </trkpt>
      <trkpt lat="44.53385" lon="5.79983">
        <ele>872.4</ele>
      </trkpt>
      <trkpt lat="44.53383" lon="5.79986">
        <ele>872.1</ele>
      </trkpt>
      <trkpt lat="44.5338" lon="5.79989">
        <ele>871.8</ele>
      </trkpt>
      <trkpt lat="44.53376" lon="5.79992">
        <ele>871.3</ele>
      </trkpt>
      <trkpt lat="44.53371" lon="5.79992">
        <ele>871</ele>
      </trkpt>
      <trkpt lat="44.53364" lon="5.7999">
        <ele>870.4</ele>
      </trkpt>
      <trkpt lat="44.53357" lon="5.79987">
        <ele>869.7</ele>
      </trkpt>
      <trkpt lat="44.53344" lon="5.79978">
        <ele>869.5</ele>
      </trkpt>
      <trkpt lat="44.5334" lon="5.79974">
        <ele>870.1</ele>
      </trkpt>
      <trkpt lat="44.53334" lon="5.7997">
        <ele>870.7</ele>
      </trkpt>
      <trkpt lat="44.53322" lon="5.79964">
        <ele>870.7</ele>
      </trkpt>
      <trkpt lat="44.53315" lon="5.79964">
        <ele>870.9</ele>
      </trkpt>
      <trkpt lat="44.53309" lon="5.79966">
        <ele>870.8</ele>
      </trkpt>
      <trkpt lat="44.53304" lon="5.7997">
        <ele>870.6</ele>
      </trkpt>
      <trkpt lat="44.53289" lon="5.79992">
        <ele>869.4</ele>
      </trkpt>
      <trkpt lat="44.53282" lon="5.80006">
        <ele>860.3</ele>
      </trkpt>
      <trkpt lat="44.53227" lon="5.80101">
        <ele>853.9</ele>
      </trkpt>
      <trkpt lat="44.53215" lon="5.80114">
        <ele>853.5</ele>
      </trkpt>
      <trkpt lat="44.53195" lon="5.80126">
        <ele>853.3</ele>
      </trkpt>
      <trkpt lat="44.53169" lon="5.80136">
        <ele>852.6</ele>
      </trkpt>
      <trkpt lat="44.53156" lon="5.80138">
        <ele>850.1</ele>
      </trkpt>
      <trkpt lat="44.53149" lon="5.80138">
        <ele>849.9</ele>
      </trkpt>
      <trkpt lat="44.53141" lon="5.80137">
        <ele>849.6</ele>
      </trkpt>
      <trkpt lat="44.53125" lon="5.80131">
        <ele>849.1</ele>
      </trkpt>
      <trkpt lat="44.53119" lon="5.80125">
        <ele>849.1</ele>
      </trkpt>
      <trkpt lat="44.53109" lon="5.80113">
        <ele>849.1</ele>
      </trkpt>
      <trkpt lat="44.53084" lon="5.80069">
        <ele>854.3</ele>
      </trkpt>
      <trkpt lat="44.53078" lon="5.80053">
        <ele>848.9</ele>
      </trkpt>
      <trkpt lat="44.53077" lon="5.80047">
        <ele>849.4</ele>
      </trkpt>
      <trkpt lat="44.5307" lon="5.80021">
        <ele>852.4</ele>
      </trkpt>
      <trkpt lat="44.53067" lon="5.80013">
        <ele>853.3</ele>
      </trkpt>
      <trkpt lat="44.53064" lon="5.80009">
        <ele>853.2</ele>
      </trkpt>
      <trkpt lat="44.53061" lon="5.80006">
        <ele>852.8</ele>
      </trkpt>
      <trkpt lat="44.53057" lon="5.80004">
        <ele>852.1</ele>
      </trkpt>
      <trkpt lat="44.53052" lon="5.80004">
        <ele>851.2</ele>
      </trkpt>
      <trkpt lat="44.53049" lon="5.80005">
        <ele>850.7</ele>
      </trkpt>
      <trkpt lat="44.53044" lon="5.8001">
        <ele>849.8</ele>
      </trkpt>
      <trkpt lat="44.53041" lon="5.80018">
        <ele>849</ele>
      </trkpt>
      <trkpt lat="44.5304" lon="5.80024">
        <ele>848.5</ele>
      </trkpt>
      <trkpt lat="44.5304" lon="5.8003">
        <ele>848.2</ele>
      </trkpt>
      <trkpt lat="44.53057" lon="5.80107">
        <ele>839.6</ele>
      </trkpt>
      <trkpt lat="44.53067" lon="5.80168">
        <ele>835</ele>
      </trkpt>
      <trkpt lat="44.53127" lon="5.80454">
        <ele>826.1</ele>
      </trkpt>
      <trkpt lat="44.53152" lon="5.80593">
        <ele>824.8</ele>
      </trkpt>
      <trkpt lat="44.53168" lon="5.80752">
        <ele>823.1</ele>
      </trkpt>
      <trkpt lat="44.53175" lon="5.80783">
        <ele>823.5</ele>
      </trkpt>
      <trkpt lat="44.53176" lon="5.80792">
        <ele>823.3</ele>
      </trkpt>
      <trkpt lat="44.532" lon="5.80908">
        <ele>821.6</ele>
      </trkpt>
      <trkpt lat="44.53212" lon="5.80956">
        <ele>820.7</ele>
      </trkpt>
      <trkpt lat="44.53219" lon="5.80992">
        <ele>820.5</ele>
      </trkpt>
      <trkpt lat="44.53258" lon="5.81404">
        <ele>820.3</ele>
      </trkpt>
      <trkpt lat="44.53261" lon="5.81425">
        <ele>819.8</ele>
      </trkpt>
      <trkpt lat="44.53268" lon="5.81452">
        <ele>821.2</ele>
      </trkpt>
      <trkpt lat="44.53278" lon="5.81536">
        <ele>822.3</ele>
      </trkpt>
      <trkpt lat="44.53282" lon="5.81586">
        <ele>822.9</ele>
      </trkpt>
      <trkpt lat="44.53302" lon="5.81733">
        <ele>823.4</ele>
      </trkpt>
      <trkpt lat="44.53321" lon="5.81917">
        <ele>821.4</ele>
      </trkpt>
      <trkpt lat="44.53329" lon="5.81973">
        <ele>821.8</ele>
      </trkpt>
      <trkpt lat="44.53341" lon="5.82036">
        <ele>827.2</ele>
      </trkpt>
      <trkpt lat="44.53342" lon="5.82045">
        <ele>827.4</ele>
      </trkpt>
      <trkpt lat="44.53342" lon="5.82051">
        <ele>827.4</ele>
      </trkpt>
      <trkpt lat="44.5334" lon="5.8206">
        <ele>827.3</ele>
      </trkpt>
      <trkpt lat="44.5334" lon="5.82059">
        <ele>827.3</ele>
      </trkpt>
      <trkpt lat="44.53339" lon="5.82059">
        <ele>827.3</ele>
      </trkpt>
      <trkpt lat="44.53338" lon="5.82058">
        <ele>827.3</ele>
      </trkpt>
      <trkpt lat="44.53336" lon="5.82058">
        <ele>827.2</ele>
      </trkpt>
      <trkpt lat="44.53336" lon="5.82057">
        <ele>827.2</ele>
      </trkpt>
      <trkpt lat="44.53334" lon="5.82057">
        <ele>827.2</ele>
      </trkpt>
      <trkpt lat="44.53334" lon="5.82058">
        <ele>827.2</ele>
      </trkpt>
      <trkpt lat="44.53332" lon="5.82058">
        <ele>823.5</ele>
      </trkpt>
      <trkpt lat="44.53331" lon="5.82059">
        <ele>823.5</ele>
      </trkpt>
      <trkpt lat="44.5333" lon="5.82059">
        <ele>823.5</ele>
      </trkpt>
      <trkpt lat="44.5333" lon="5.8206">
        <ele>823.6</ele>
      </trkpt>
      <trkpt lat="44.53329" lon="5.8206">
        <ele>823.5</ele>
      </trkpt>
      <trkpt lat="44.53329" lon="5.82061">
        <ele>823.6</ele>
      </trkpt>
      <trkpt lat="44.53328" lon="5.82061">
        <ele>823.6</ele>
      </trkpt>
      <trkpt lat="44.53328" lon="5.82063">
        <ele>823.7</ele>
      </trkpt>
      <trkpt lat="44.53327" lon="5.82063">
        <ele>823.7</ele>
      </trkpt>
      <trkpt lat="44.53327" lon="5.82065">
        <ele>823.8</ele>
      </trkpt>
      <trkpt lat="44.53326" lon="5.82065">
        <ele>823.7</ele>
      </trkpt>
      <trkpt lat="44.53326" lon="5.82075">
        <ele>824.5</ele>
      </trkpt>
      <trkpt lat="44.53327" lon="5.82075">
        <ele>824.5</ele>
      </trkpt>
      <trkpt lat="44.53327" lon="5.82077">
        <ele>824.7</ele>
      </trkpt>
      <trkpt lat="44.53328" lon="5.82078">
        <ele>824.9</ele>
      </trkpt>
      <trkpt lat="44.53328" lon="5.82079">
        <ele>825</ele>
      </trkpt>
      <trkpt lat="44.53329" lon="5.8208">
        <ele>825.1</ele>
      </trkpt>
      <trkpt lat="44.53324" lon="5.82093">
        <ele>824.3</ele>
      </trkpt>
      <trkpt lat="44.53316" lon="5.82128">
        <ele>822.9</ele>
      </trkpt>
      <trkpt lat="44.53315" lon="5.82156">
        <ele>823.2</ele>
      </trkpt>
      <trkpt lat="44.53316" lon="5.82171">
        <ele>822.8</ele>
      </trkpt>
      <trkpt lat="44.53344" lon="5.82324">
        <ele>825.4</ele>
      </trkpt>
      <trkpt lat="44.53342" lon="5.82324">
        <ele>825.2</ele>
      </trkpt>
      <trkpt lat="44.53342" lon="5.82325">
        <ele>825.1</ele>
      </trkpt>
      <trkpt lat="44.53341" lon="5.82325">
        <ele>825</ele>
      </trkpt>
      <trkpt lat="44.53341" lon="5.82326">
        <ele>824.9</ele>
      </trkpt>
      <trkpt lat="44.5334" lon="5.82326">
        <ele>824.8</ele>
      </trkpt>
      <trkpt lat="44.5334" lon="5.82327">
        <ele>824.7</ele>
      </trkpt>
      <trkpt lat="44.53339" lon="5.82328">
        <ele>824.5</ele>
      </trkpt>
      <trkpt lat="44.53339" lon="5.82336">
        <ele>824.2</ele>
      </trkpt>
      <trkpt lat="44.5334" lon="5.82336">
        <ele>824.4</ele>
      </trkpt>
      <trkpt lat="44.5334" lon="5.82338">
        <ele>824.5</ele>
      </trkpt>
      <trkpt lat="44.53341" lon="5.82338">
        <ele>824.6</ele>
      </trkpt>
      <trkpt lat="44.53341" lon="5.82339">
        <ele>824.7</ele>
      </trkpt>
      <trkpt lat="44.53342" lon="5.82339">
        <ele>824.8</ele>
      </trkpt>
      <trkpt lat="44.53342" lon="5.8234">
        <ele>824.9</ele>
      </trkpt>
      <trkpt lat="44.53346" lon="5.8234">
        <ele>825.4</ele>
      </trkpt>
      <trkpt lat="44.5335" lon="5.82362">
        <ele>826.7</ele>
      </trkpt>
      <trkpt lat="44.53358" lon="5.82388">
        <ele>827.3</ele>
      </trkpt>
      <trkpt lat="44.5336" lon="5.82397">
        <ele>827.2</ele>
      </trkpt>
      <trkpt lat="44.53394" lon="5.82492">
        <ele>826.1</ele>
      </trkpt>
      <trkpt lat="44.53397" lon="5.82498">
        <ele>826.1</ele>
      </trkpt>
      <trkpt lat="44.53485" lon="5.82736">
        <ele>825.5</ele>
      </trkpt>
      <trkpt lat="44.53498" lon="5.82766">
        <ele>825.5</ele>
      </trkpt>
      <trkpt lat="44.53548" lon="5.82868">
        <ele>828</ele>
      </trkpt>
      <trkpt lat="44.53574" lon="5.82913">
        <ele>827.3</ele>
      </trkpt>
      <trkpt lat="44.5361" lon="5.82965">
        <ele>834</ele>
      </trkpt>
      <trkpt lat="44.53615" lon="5.82975">
        <ele>834.2</ele>
      </trkpt>
      <trkpt lat="44.5362" lon="5.8299">
        <ele>834.3</ele>
      </trkpt>
      <trkpt lat="44.53622" lon="5.82993">
        <ele>834.5</ele>
      </trkpt>
      <trkpt lat="44.53699" lon="5.83296">
        <ele>822.7</ele>
      </trkpt>
      <trkpt lat="44.53705" lon="5.83315">
        <ele>822.3</ele>
      </trkpt>
      <trkpt lat="44.53728" lon="5.83409">
        <ele>821.2</ele>
      </trkpt>
      <trkpt lat="44.53728" lon="5.83411">
        <ele>821.2</ele>
      </trkpt>
      <trkpt lat="44.53742" lon="5.83465">
        <ele>821.7</ele>
      </trkpt>
      <trkpt lat="44.53755" lon="5.83505">
        <ele>823.6</ele>
      </trkpt>
      <trkpt lat="44.53962" lon="5.83902">
        <ele>832.1</ele>
      </trkpt>
      <trkpt lat="44.53969" lon="5.83918">
        <ele>833.2</ele>
      </trkpt>
      <trkpt lat="44.53972" lon="5.83922">
        <ele>833.4</ele>
      </trkpt>
      <trkpt lat="44.54032" lon="5.84041">
        <ele>841.6</ele>
      </trkpt>
      <trkpt lat="44.54033" lon="5.84044">
        <ele>841.7</ele>
      </trkpt>
      <trkpt lat="44.54086" lon="5.84148">
        <ele>846.3</ele>
      </trkpt>
      <trkpt lat="44.5409" lon="5.84158">
        <ele>846.2</ele>
      </trkpt>
      <trkpt lat="44.54093" lon="5.84162">
        <ele>846.2</ele>
      </trkpt>
      <trkpt lat="44.54095" lon="5.84167">
        <ele>845.6</ele>
      </trkpt>
      <trkpt lat="44.54099" lon="5.84173">
        <ele>845.5</ele>
      </trkpt>
      <trkpt lat="44.54281" lon="5.84523">
        <ele>848.8</ele>
      </trkpt>
      <trkpt lat="44.54286" lon="5.84538">
        <ele>848.7</ele>
      </trkpt>
      <trkpt lat="44.5431" lon="5.84585">
        <ele>846.7</ele>
      </trkpt>
      <trkpt lat="44.54311" lon="5.84586">
        <ele>846.8</ele>
      </trkpt>
      <trkpt lat="44.54673" lon="5.85262">
        <ele>858.1</ele>
      </trkpt>
      <trkpt lat="44.54727" lon="5.85371">
        <ele>856.3</ele>
      </trkpt>
      <trkpt lat="44.54782" lon="5.85474">
        <ele>858.4</ele>
      </trkpt>
      <trkpt lat="44.54821" lon="5.85559">
        <ele>852.3</ele>
      </trkpt>
      <trkpt lat="44.55121" lon="5.86313">
        <ele>856.2</ele>
      </trkpt>
      <trkpt lat="44.55123" lon="5.86322">
        <ele>856.3</ele>
      </trkpt>
      <trkpt lat="44.55175" lon="5.86453">
        <ele>858.2</ele>
      </trkpt>
      <trkpt lat="44.55183" lon="5.8647">
        <ele>858.1</ele>
      </trkpt>
      <trkpt lat="44.55238" lon="5.86611">
        <ele>856.4</ele>
      </trkpt>
      <trkpt lat="44.55243" lon="5.8662">
        <ele>856.3</ele>
      </trkpt>
      <trkpt lat="44.55583" lon="5.87468">
        <ele>858.3</ele>
      </trkpt>
      <trkpt lat="44.55584" lon="5.87473">
        <ele>859.1</ele>
      </trkpt>
      <trkpt lat="44.55628" lon="5.87584">
        <ele>860.9</ele>
      </trkpt>
      <trkpt lat="44.55632" lon="5.87592">
        <ele>860.9</ele>
      </trkpt>
      <trkpt lat="44.55877" lon="5.88208">
        <ele>871.5</ele>
      </trkpt>
      <trkpt lat="44.5588" lon="5.88213">
        <ele>871.7</ele>
      </trkpt>
      <trkpt lat="44.56101" lon="5.88762">
        <ele>878.7</ele>
      </trkpt>
      <trkpt lat="44.56102" lon="5.88772">
        <ele>878.7</ele>
      </trkpt>
      <trkpt lat="44.56146" lon="5.88893">
        <ele>875.4</ele>
      </trkpt>
      <trkpt lat="44.56164" lon="5.88954">
        <ele>874.4</ele>
      </trkpt>
      <trkpt lat="44.56186" lon="5.89071">
        <ele>873.5</ele>
      </trkpt>
      <trkpt lat="44.56186" lon="5.89075">
        <ele>873.5</ele>
      </trkpt>
      <trkpt lat="44.5619" lon="5.89103">
        <ele>873.2</ele>
      </trkpt>
      <trkpt lat="44.56193" lon="5.89156">
        <ele>873.2</ele>
      </trkpt>
      <trkpt lat="44.56195" lon="5.89171">
        <ele>873.2</ele>
      </trkpt>
      <trkpt lat="44.56187" lon="5.92827">
        <ele>913.8</ele>
      </trkpt>
      <trkpt lat="44.56193" lon="5.9348">
        <ele>911.2</ele>
      </trkpt>
      <trkpt lat="44.56185" lon="5.9468">
        <ele>922.7</ele>
      </trkpt>
      <trkpt lat="44.56183" lon="5.94694">
        <ele>923</ele>
      </trkpt>
      <trkpt lat="44.56179" lon="5.94875">
        <ele>926.2</ele>
      </trkpt>
      <trkpt lat="44.56183" lon="5.95179">
        <ele>929.5</ele>
      </trkpt>
      <trkpt lat="44.56188" lon="5.95234">
        <ele>930.4</ele>
      </trkpt>
      <trkpt lat="44.5619" lon="5.95243">
        <ele>930.4</ele>
      </trkpt>
      <trkpt lat="44.56191" lon="5.95324">
        <ele>932.2</ele>
      </trkpt>
      <trkpt lat="44.56188" lon="5.95332">
        <ele>932.3</ele>
      </trkpt>
      <trkpt lat="44.56186" lon="5.95362">
        <ele>933</ele>
      </trkpt>
      <trkpt lat="44.56187" lon="5.9541">
        <ele>933.6</ele>
      </trkpt>
      <trkpt lat="44.56188" lon="5.95411">
        <ele>933.6</ele>
      </trkpt>
      <trkpt lat="44.56188" lon="5.95412">
        <ele>933.6</ele>
      </trkpt>
      <trkpt lat="44.5619" lon="5.9542">
        <ele>933.9</ele>
      </trkpt>
      <trkpt lat="44.56189" lon="5.95524">
        <ele>934.7</ele>
      </trkpt>
      <trkpt lat="44.56188" lon="5.95529">
        <ele>934.8</ele>
      </trkpt>
      <trkpt lat="44.56188" lon="5.95534">
        <ele>934.8</ele>
      </trkpt>
      <trkpt lat="44.56186" lon="5.95543">
        <ele>934.8</ele>
      </trkpt>
      <trkpt lat="44.5618" lon="5.95558">
        <ele>934.9</ele>
      </trkpt>
      <trkpt lat="44.5617" lon="5.95574">
        <ele>935</ele>
      </trkpt>
      <trkpt lat="44.56166" lon="5.95579">
        <ele>935</ele>
      </trkpt>
      <trkpt lat="44.56155" lon="5.95589">
        <ele>935.5</ele>
      </trkpt>
      <trkpt lat="44.56129" lon="5.95604">
        <ele>936</ele>
      </trkpt>
      <trkpt lat="44.56128" lon="5.95604">
        <ele>936.1</ele>
      </trkpt>
      <trkpt lat="44.56057" lon="5.9564">
        <ele>935.8</ele>
      </trkpt>
      <trkpt lat="44.56047" lon="5.95643">
        <ele>935.6</ele>
      </trkpt>
      <trkpt lat="44.55914" lon="5.95713">
        <ele>932.8</ele>
      </trkpt>
      <trkpt lat="44.55908" lon="5.95718">
        <ele>932.8</ele>
      </trkpt>
      <trkpt lat="44.55514" lon="5.95915">
        <ele>932.8</ele>
      </trkpt>
      <trkpt lat="44.55496" lon="5.95928">
        <ele>934.2</ele>
      </trkpt>
      <trkpt lat="44.5548" lon="5.95943">
        <ele>935.4</ele>
      </trkpt>
      <trkpt lat="44.55462" lon="5.95963">
        <ele>936</ele>
      </trkpt>
      <trkpt lat="44.55447" lon="5.95985">
        <ele>936.1</ele>
      </trkpt>
      <trkpt lat="44.55423" lon="5.96029">
        <ele>941.6</ele>
      </trkpt>
      <trkpt lat="44.55332" lon="5.96236">
        <ele>941.7</ele>
      </trkpt>
      <trkpt lat="44.55308" lon="5.96285">
        <ele>944.7</ele>
      </trkpt>
      <trkpt lat="44.55306" lon="5.96291">
        <ele>944.9</ele>
      </trkpt>
      <trkpt lat="44.55275" lon="5.96341">
        <ele>947.6</ele>
      </trkpt>
      <trkpt lat="44.55201" lon="5.96478">
        <ele>945.4</ele>
      </trkpt>
      <trkpt lat="44.55189" lon="5.96506">
        <ele>948</ele>
      </trkpt>
      <trkpt lat="44.55179" lon="5.96536">
        <ele>949.2</ele>
      </trkpt>
      <trkpt lat="44.5517" lon="5.96571">
        <ele>947.3</ele>
      </trkpt>
      <trkpt lat="44.5516" lon="5.96624">
        <ele>944.5</ele>
      </trkpt>
      <trkpt lat="44.55126" lon="5.96945">
        <ele>947.7</ele>
      </trkpt>
      <trkpt lat="44.55123" lon="5.96962">
        <ele>947.6</ele>
      </trkpt>
      <trkpt lat="44.55122" lon="5.96976">
        <ele>947.6</ele>
      </trkpt>
      <trkpt lat="44.55119" lon="5.96995">
        <ele>947.3</ele>
      </trkpt>
      <trkpt lat="44.54974" lon="5.9762">
        <ele>942.6</ele>
      </trkpt>
      <trkpt lat="44.54965" lon="5.97669">
        <ele>943.5</ele>
      </trkpt>
      <trkpt lat="44.54899" lon="5.97951">
        <ele>945.8</ele>
      </trkpt>
      <trkpt lat="44.54894" lon="5.97967">
        <ele>946.4</ele>
      </trkpt>
      <trkpt lat="44.54879" lon="5.98036">
        <ele>950.2</ele>
      </trkpt>
      <trkpt lat="44.54865" lon="5.98088">
        <ele>953</ele>
      </trkpt>
      <trkpt lat="44.54857" lon="5.98112">
        <ele>953.2</ele>
      </trkpt>
      <trkpt lat="44.54834" lon="5.98167">
        <ele>950.3</ele>
      </trkpt>
      <trkpt lat="44.54807" lon="5.98217">
        <ele>951.4</ele>
      </trkpt>
      <trkpt lat="44.54807" lon="5.98218">
        <ele>951.4</ele>
      </trkpt>
      <trkpt lat="44.54711" lon="5.98386">
        <ele>955.2</ele>
      </trkpt>
      <trkpt lat="44.54686" lon="5.98441">
        <ele>959</ele>
      </trkpt>
      <trkpt lat="44.5459" lon="5.987">
        <ele>965.1</ele>
      </trkpt>
      <trkpt lat="44.5455" lon="5.98817">
        <ele>964.6</ele>
      </trkpt>
      <trkpt lat="44.54541" lon="5.98849">
        <ele>967.2</ele>
      </trkpt>
      <trkpt lat="44.54533" lon="5.98898">
        <ele>968</ele>
      </trkpt>
      <trkpt lat="44.54528" lon="5.98959">
        <ele>970.1</ele>
      </trkpt>
      <trkpt lat="44.54532" lon="5.99028">
        <ele>970.4</ele>
      </trkpt>
      <trkpt lat="44.54646" lon="5.99657">
        <ele>984.7</ele>
      </trkpt>
      <trkpt lat="44.54647" lon="5.99659">
        <ele>984.9</ele>
      </trkpt>
      <trkpt lat="44.54652" lon="5.99719">
        <ele>984.8</ele>
      </trkpt>
      <trkpt lat="44.54653" lon="5.99749">
        <ele>986</ele>
      </trkpt>
      <trkpt lat="44.54652" lon="5.99808">
        <ele>985.7</ele>
      </trkpt>
      <trkpt lat="44.54644" lon="5.99892">
        <ele>987</ele>
      </trkpt>
      <trkpt lat="44.54636" lon="5.99939">
        <ele>987.7</ele>
      </trkpt>
      <trkpt lat="44.54621" lon="6.00004">
        <ele>987.9</ele>
      </trkpt>
      <trkpt lat="44.54422" lon="6.00666">
        <ele>979.8</ele>
      </trkpt>
      <trkpt lat="44.54409" lon="6.00704">
        <ele>978.7</ele>
      </trkpt>
      <trkpt lat="44.54265" lon="6.0106">
        <ele>975.2</ele>
      </trkpt>
      <trkpt lat="44.5426" lon="6.01068">
        <ele>974.5</ele>
      </trkpt>
      <trkpt lat="44.54224" lon="6.01156">
        <ele>973.3</ele>
      </trkpt>
      <trkpt lat="44.54222" lon="6.0117">
        <ele>975.2</ele>
      </trkpt>
      <trkpt lat="44.54177" lon="6.01283">
        <ele>975.1</ele>
      </trkpt>
      <trkpt lat="44.54167" lon="6.01304">
        <ele>975.1</ele>
      </trkpt>
      <trkpt lat="44.54122" lon="6.01421">
        <ele>973.7</ele>
      </trkpt>
      <trkpt lat="44.5412" lon="6.01424">
        <ele>973.6</ele>
      </trkpt>
      <trkpt lat="44.54101" lon="6.01471">
        <ele>973.6</ele>
      </trkpt>
      <trkpt lat="44.54068" lon="6.01532">
        <ele>971.3</ele>
      </trkpt>
      <trkpt lat="44.54068" lon="6.01533">
        <ele>971.4</ele>
      </trkpt>
      <trkpt lat="44.54017" lon="6.01624">
        <ele>973.8</ele>
      </trkpt>
      <trkpt lat="44.53992" lon="6.01674">
        <ele>972.9</ele>
      </trkpt>
      <trkpt lat="44.53983" lon="6.017">
        <ele>971.8</ele>
      </trkpt>
      <trkpt lat="44.5398" lon="6.01736">
        <ele>971.7</ele>
      </trkpt>
      <trkpt lat="44.53982" lon="6.01788">
        <ele>971.3</ele>
      </trkpt>
      <trkpt lat="44.53985" lon="6.01817">
        <ele>971.9</ele>
      </trkpt>
      <trkpt lat="44.53984" lon="6.01871">
        <ele>972.5</ele>
      </trkpt>
      <trkpt lat="44.53976" lon="6.01902">
        <ele>973.1</ele>
      </trkpt>
      <trkpt lat="44.53965" lon="6.01935">
        <ele>974.1</ele>
      </trkpt>
      <trkpt lat="44.53958" lon="6.01963">
        <ele>974.1</ele>
      </trkpt>
      <trkpt lat="44.53956" lon="6.01988">
        <ele>974.3</ele>
      </trkpt>
      <trkpt lat="44.53956" lon="6.02021">
        <ele>974.4</ele>
      </trkpt>
      <trkpt lat="44.53958" lon="6.02038">
        <ele>974.3</ele>
      </trkpt>
      <trkpt lat="44.53965" lon="6.02066">
        <ele>974.5</ele>
      </trkpt>
      <trkpt lat="44.53991" lon="6.02135">
        <ele>973.6</ele>
      </trkpt>
      <trkpt lat="44.54003" lon="6.02176">
        <ele>978.2</ele>
      </trkpt>
      <trkpt lat="44.54008" lon="6.02204">
        <ele>980.6</ele>
      </trkpt>
      <trkpt lat="44.54011" lon="6.02246">
        <ele>978.2</ele>
      </trkpt>
      <trkpt lat="44.54011" lon="6.0228">
        <ele>980.8</ele>
      </trkpt>
      <trkpt lat="44.54009" lon="6.023">
        <ele>980.9</ele>
      </trkpt>
      <trkpt lat="44.53994" lon="6.02378">
        <ele>971</ele>
      </trkpt>
      <trkpt lat="44.53991" lon="6.02411">
        <ele>972.8</ele>
      </trkpt>
      <trkpt lat="44.53992" lon="6.0244">
        <ele>970.6</ele>
      </trkpt>
      <trkpt lat="44.53997" lon="6.02468">
        <ele>969.9</ele>
      </trkpt>
      <trkpt lat="44.54006" lon="6.02494">
        <ele>974.5</ele>
      </trkpt>
      <trkpt lat="44.54021" lon="6.02521">
        <ele>973.6</ele>
      </trkpt>
      <trkpt lat="44.54035" lon="6.02539">
        <ele>973.6</ele>
      </trkpt>
      <trkpt lat="44.54042" lon="6.02546">
        <ele>973.6</ele>
      </trkpt>
      <trkpt lat="44.54049" lon="6.02551">
        <ele>973.7</ele>
      </trkpt>
      <trkpt lat="44.54066" lon="6.0256">
        <ele>974</ele>
      </trkpt>
      <trkpt lat="44.54074" lon="6.02563">
        <ele>974</ele>
      </trkpt>
      <trkpt lat="44.54096" lon="6.02567">
        <ele>975.3</ele>
      </trkpt>
      <trkpt lat="44.54102" lon="6.02567">
        <ele>975.4</ele>
      </trkpt>
      <trkpt lat="44.54114" lon="6.02565">
        <ele>975.6</ele>
      </trkpt>
      <trkpt lat="44.54132" lon="6.02559">
        <ele>975.6</ele>
      </trkpt>
      <trkpt lat="44.54147" lon="6.02552">
        <ele>975.7</ele>
      </trkpt>
      <trkpt lat="44.54172" lon="6.02538">
        <ele>974.8</ele>
      </trkpt>
      <trkpt lat="44.54191" lon="6.02524">
        <ele>975.4</ele>
      </trkpt>
      <trkpt lat="44.54258" lon="6.02486">
        <ele>975.5</ele>
      </trkpt>
      <trkpt lat="44.54279" lon="6.02472">
        <ele>974.8</ele>
      </trkpt>
      <trkpt lat="44.54316" lon="6.02436">
        <ele>975</ele>
      </trkpt>
      <trkpt lat="44.54331" lon="6.02425">
        <ele>975.5</ele>
      </trkpt>
      <trkpt lat="44.54357" lon="6.02409">
        <ele>978.4</ele>
      </trkpt>
      <trkpt lat="44.54367" lon="6.02405">
        <ele>978.7</ele>
      </trkpt>
      <trkpt lat="44.54453" lon="6.02379">
        <ele>979.2</ele>
      </trkpt>
      <trkpt lat="44.54482" lon="6.02374">
        <ele>979.5</ele>
      </trkpt>
      <trkpt lat="44.54877" lon="6.02406">
        <ele>983.1</ele>
      </trkpt>
      <trkpt lat="44.54904" lon="6.0241">
        <ele>981.3</ele>
      </trkpt>
      <trkpt lat="44.5492" lon="6.02417">
        <ele>978.5</ele>
      </trkpt>
      <trkpt lat="44.54928" lon="6.02423">
        <ele>979.7</ele>
      </trkpt>
      <trkpt lat="44.54935" lon="6.0243">
        <ele>980.5</ele>
      </trkpt>
      <trkpt lat="44.54947" lon="6.02446">
        <ele>981.5</ele>
      </trkpt>
      <trkpt lat="44.54955" lon="6.02465">
        <ele>981.9</ele>
      </trkpt>
      <trkpt lat="44.5496" lon="6.02487">
        <ele>982.1</ele>
      </trkpt>
      <trkpt lat="44.54961" lon="6.02513">
        <ele>980.8</ele>
      </trkpt>
      <trkpt lat="44.5495" lon="6.02625">
        <ele>979.5</ele>
      </trkpt>
      <trkpt lat="44.5495" lon="6.0265">
        <ele>979.5</ele>
      </trkpt>
      <trkpt lat="44.54954" lon="6.02704">
        <ele>979.3</ele>
      </trkpt>
      <trkpt lat="44.54963" lon="6.02743">
        <ele>979.5</ele>
      </trkpt>
      <trkpt lat="44.54976" lon="6.02779">
        <ele>979.5</ele>
      </trkpt>
      <trkpt lat="44.54982" lon="6.02791">
        <ele>979.7</ele>
      </trkpt>
      <trkpt lat="44.54997" lon="6.02816">
        <ele>980.9</ele>
      </trkpt>
      <trkpt lat="44.55006" lon="6.02836">
        <ele>983.4</ele>
      </trkpt>
      <trkpt lat="44.5504" lon="6.02894">
        <ele>984.4</ele>
      </trkpt>
      <trkpt lat="44.55042" lon="6.02896">
        <ele>984.5</ele>
      </trkpt>
      <trkpt lat="44.55042" lon="6.02897">
        <ele>984.5</ele>
      </trkpt>
      <trkpt lat="44.55135" lon="6.03041">
        <ele>976.8</ele>
      </trkpt>
      <trkpt lat="44.55135" lon="6.03042">
        <ele>976.8</ele>
      </trkpt>
      <trkpt lat="44.55144" lon="6.0305">
        <ele>976.7</ele>
      </trkpt>
      <trkpt lat="44.55258" lon="6.03226">
        <ele>970</ele>
      </trkpt>
      <trkpt lat="44.55277" lon="6.03261">
        <ele>965.3</ele>
      </trkpt>
      <trkpt lat="44.55292" lon="6.033">
        <ele>964.4</ele>
      </trkpt>
      <trkpt lat="44.55297" lon="6.03332">
        <ele>963.5</ele>
      </trkpt>
      <trkpt lat="44.553" lon="6.03365">
        <ele>960.7</ele>
      </trkpt>
      <trkpt lat="44.553" lon="6.03389">
        <ele>960.4</ele>
      </trkpt>
      <trkpt lat="44.55295" lon="6.0343">
        <ele>960.5</ele>
      </trkpt>
      <trkpt lat="44.55292" lon="6.03442">
        <ele>960.6</ele>
      </trkpt>
      <trkpt lat="44.55284" lon="6.03465">
        <ele>960.9</ele>
      </trkpt>
      <trkpt lat="44.55276" lon="6.03484">
        <ele>961.1</ele>
      </trkpt>
      <trkpt lat="44.55266" lon="6.03502">
        <ele>962.2</ele>
      </trkpt>
      <trkpt lat="44.5526" lon="6.0351">
        <ele>962.2</ele>
      </trkpt>
      <trkpt lat="44.55248" lon="6.03529">
        <ele>961.3</ele>
      </trkpt>
      <trkpt lat="44.55241" lon="6.03537">
        <ele>961.1</ele>
      </trkpt>
      <trkpt lat="44.55241" lon="6.03538">
        <ele>961.1</ele>
      </trkpt>
      <trkpt lat="44.55233" lon="6.03551">
        <ele>960.8</ele>
      </trkpt>
      <trkpt lat="44.55232" lon="6.03552">
        <ele>960.8</ele>
      </trkpt>
      <trkpt lat="44.55207" lon="6.03568">
        <ele>959.9</ele>
      </trkpt>
      <trkpt lat="44.5519" lon="6.03575">
        <ele>958.7</ele>
      </trkpt>
      <trkpt lat="44.55153" lon="6.03582">
        <ele>956.8</ele>
      </trkpt>
      <trkpt lat="44.55079" lon="6.03586">
        <ele>953.2</ele>
      </trkpt>
      <trkpt lat="44.5506" lon="6.03591">
        <ele>951.5</ele>
      </trkpt>
      <trkpt lat="44.55048" lon="6.03598">
        <ele>951</ele>
      </trkpt>
      <trkpt lat="44.55038" lon="6.03605">
        <ele>950.7</ele>
      </trkpt>
      <trkpt lat="44.54918" lon="6.03708">
        <ele>938.6</ele>
      </trkpt>
      <trkpt lat="44.54891" lon="6.03729">
        <ele>940.4</ele>
      </trkpt>
      <trkpt lat="44.5487" lon="6.03739">
        <ele>941.2</ele>
      </trkpt>
      <trkpt lat="44.54859" lon="6.03741">
        <ele>941.5</ele>
      </trkpt>
      <trkpt lat="44.54841" lon="6.03742">
        <ele>941.2</ele>
      </trkpt>
      <trkpt lat="44.54831" lon="6.03744">
        <ele>941.7</ele>
      </trkpt>
      <trkpt lat="44.54826" lon="6.03746">
        <ele>942.1</ele>
      </trkpt>
      <trkpt lat="44.54821" lon="6.03749">
        <ele>942.7</ele>
      </trkpt>
      <trkpt lat="44.54818" lon="6.03752">
        <ele>937.4</ele>
      </trkpt>
      <trkpt lat="44.54812" lon="6.03762">
        <ele>936.4</ele>
      </trkpt>
      <trkpt lat="44.5481" lon="6.0377">
        <ele>935.8</ele>
      </trkpt>
      <trkpt lat="44.5481" lon="6.03776">
        <ele>935.3</ele>
      </trkpt>
      <trkpt lat="44.54809" lon="6.03783">
        <ele>934.7</ele>
      </trkpt>
      <trkpt lat="44.54811" lon="6.03795">
        <ele>933.7</ele>
      </trkpt>
      <trkpt lat="44.54816" lon="6.03806">
        <ele>932.7</ele>
      </trkpt>
      <trkpt lat="44.54818" lon="6.03808">
        <ele>932.4</ele>
      </trkpt>
      <trkpt lat="44.5482" lon="6.03811">
        <ele>932.1</ele>
      </trkpt>
      <trkpt lat="44.54826" lon="6.03817">
        <ele>931.2</ele>
      </trkpt>
      <trkpt lat="44.54827" lon="6.03817">
        <ele>931.1</ele>
      </trkpt>
      <trkpt lat="44.54831" lon="6.03819">
        <ele>930.7</ele>
      </trkpt>
      <trkpt lat="44.54836" lon="6.0382">
        <ele>929.6</ele>
      </trkpt>
      <trkpt lat="44.54844" lon="6.0382">
        <ele>929.8</ele>
      </trkpt>
      <trkpt lat="44.54846" lon="6.03819">
        <ele>929.9</ele>
      </trkpt>
      <trkpt lat="44.54851" lon="6.03818">
        <ele>930</ele>
      </trkpt>
      <trkpt lat="44.54878" lon="6.03803">
        <ele>930.5</ele>
      </trkpt>
      <trkpt lat="44.5491" lon="6.03791">
        <ele>930.3</ele>
      </trkpt>
      <trkpt lat="44.54935" lon="6.03791">
        <ele>927.1</ele>
      </trkpt>
      <trkpt lat="44.54944" lon="6.03792">
        <ele>926.8</ele>
      </trkpt>
      <trkpt lat="44.54947" lon="6.03793">
        <ele>926.7</ele>
      </trkpt>
      <trkpt lat="44.54954" lon="6.03793">
        <ele>926.5</ele>
      </trkpt>
      <trkpt lat="44.55064" lon="6.03815">
        <ele>921.4</ele>
      </trkpt>
      <trkpt lat="44.55081" lon="6.0382">
        <ele>919.5</ele>
      </trkpt>
      <trkpt lat="44.55085" lon="6.0382">
        <ele>920</ele>
      </trkpt>
      <trkpt lat="44.55134" lon="6.03833">
        <ele>922.7</ele>
      </trkpt>
      <trkpt lat="44.55167" lon="6.03849">
        <ele>915.9</ele>
      </trkpt>
      <trkpt lat="44.55213" lon="6.03879">
        <ele>912.8</ele>
      </trkpt>
      <trkpt lat="44.55266" lon="6.03918">
        <ele>907.1</ele>
      </trkpt>
      <trkpt lat="44.55295" lon="6.03944">
        <ele>906.9</ele>
      </trkpt>
      <trkpt lat="44.55312" lon="6.03962">
        <ele>906</ele>
      </trkpt>
      <trkpt lat="44.55352" lon="6.04013">
        <ele>900.7</ele>
      </trkpt>
      <trkpt lat="44.55377" lon="6.0404">
        <ele>899.5</ele>
      </trkpt>
      <trkpt lat="44.55403" lon="6.04062">
        <ele>897.8</ele>
      </trkpt>
      <trkpt lat="44.55426" lon="6.04085">
        <ele>894.5</ele>
      </trkpt>
      <trkpt lat="44.55435" lon="6.04096">
        <ele>895</ele>
      </trkpt>
      <trkpt lat="44.5544" lon="6.04101">
        <ele>895.2</ele>
      </trkpt>
      <trkpt lat="44.55447" lon="6.0411">
        <ele>895.3</ele>
      </trkpt>
      <trkpt lat="44.55487" lon="6.0417">
        <ele>891.3</ele>
      </trkpt>
      <trkpt lat="44.55547" lon="6.04276">
        <ele>887.8</ele>
      </trkpt>
      <trkpt lat="44.55553" lon="6.04292">
        <ele>887.1</ele>
      </trkpt>
      <trkpt lat="44.55577" lon="6.04334">
        <ele>883.1</ele>
      </trkpt>
      <trkpt lat="44.55592" lon="6.04364">
        <ele>884.7</ele>
      </trkpt>
      <trkpt lat="44.55593" lon="6.04365">
        <ele>884.6</ele>
      </trkpt>
      <trkpt lat="44.55618" lon="6.04427">
        <ele>877.6</ele>
      </trkpt>
      <trkpt lat="44.55638" lon="6.04493">
        <ele>877.8</ele>
      </trkpt>
      <trkpt lat="44.55649" lon="6.04543">
        <ele>874.8</ele>
      </trkpt>
      <trkpt lat="44.55652" lon="6.04568">
        <ele>874.7</ele>
      </trkpt>
      <trkpt lat="44.55656" lon="6.04584">
        <ele>874</ele>
      </trkpt>
      <trkpt lat="44.55659" lon="6.04605">
        <ele>872.7</ele>
      </trkpt>
      <trkpt lat="44.55662" lon="6.04653">
        <ele>870.9</ele>
      </trkpt>
      <trkpt lat="44.55677" lon="6.0479">
        <ele>866.4</ele>
      </trkpt>
      <trkpt lat="44.55684" lon="6.04824">
        <ele>865.1</ele>
      </trkpt>
      <trkpt lat="44.55725" lon="6.04954">
        <ele>858.8</ele>
      </trkpt>
      <trkpt lat="44.55735" lon="6.04994">
        <ele>858.1</ele>
      </trkpt>
      <trkpt lat="44.55746" lon="6.05048">
        <ele>854.9</ele>
      </trkpt>
      <trkpt lat="44.55751" lon="6.0508">
        <ele>855.3</ele>
      </trkpt>
      <trkpt lat="44.55752" lon="6.05081">
        <ele>855.3</ele>
      </trkpt>
      <trkpt lat="44.55759" lon="6.05131">
        <ele>853.3</ele>
      </trkpt>
      <trkpt lat="44.55764" lon="6.05188">
        <ele>849.9</ele>
      </trkpt>
      <trkpt lat="44.55765" lon="6.05236">
        <ele>848.2</ele>
      </trkpt>
      <trkpt lat="44.55762" lon="6.05249">
        <ele>847.8</ele>
      </trkpt>
      <trkpt lat="44.55762" lon="6.05263">
        <ele>845.8</ele>
      </trkpt>
      <trkpt lat="44.5576" lon="6.0529">
        <ele>844.9</ele>
      </trkpt>
      <trkpt lat="44.55758" lon="6.05374">
        <ele>842.3</ele>
      </trkpt>
      <trkpt lat="44.55756" lon="6.05389">
        <ele>842.1</ele>
      </trkpt>
      <trkpt lat="44.55755" lon="6.05445">
        <ele>840.4</ele>
      </trkpt>
      <trkpt lat="44.55747" lon="6.05485">
        <ele>837.1</ele>
      </trkpt>
      <trkpt lat="44.55743" lon="6.05489">
        <ele>837</ele>
      </trkpt>
      <trkpt lat="44.55742" lon="6.05491">
        <ele>837</ele>
      </trkpt>
      <trkpt lat="44.55741" lon="6.05492">
        <ele>837</ele>
      </trkpt>
      <trkpt lat="44.5574" lon="6.05494">
        <ele>837</ele>
      </trkpt>
      <trkpt lat="44.5574" lon="6.05496">
        <ele>837</ele>
      </trkpt>
      <trkpt lat="44.55738" lon="6.05499">
        <ele>836.9</ele>
      </trkpt>
      <trkpt lat="44.55738" lon="6.05502">
        <ele>836.5</ele>
      </trkpt>
      <trkpt lat="44.55737" lon="6.05505">
        <ele>836.4</ele>
      </trkpt>
      <trkpt lat="44.55737" lon="6.05517">
        <ele>836.3</ele>
      </trkpt>
      <trkpt lat="44.55738" lon="6.0552">
        <ele>836.3</ele>
      </trkpt>
      <trkpt lat="44.55738" lon="6.05523">
        <ele>836.3</ele>
      </trkpt>
      <trkpt lat="44.55739" lon="6.05526">
        <ele>836.3</ele>
      </trkpt>
      <trkpt lat="44.5574" lon="6.05527">
        <ele>836.3</ele>
      </trkpt>
      <trkpt lat="44.55741" lon="6.05529">
        <ele>836.3</ele>
      </trkpt>
      <trkpt lat="44.55741" lon="6.0553">
        <ele>836.3</ele>
      </trkpt>
      <trkpt lat="44.55742" lon="6.05531">
        <ele>836.3</ele>
      </trkpt>
      <trkpt lat="44.55743" lon="6.05533">
        <ele>836.3</ele>
      </trkpt>
      <trkpt lat="44.55746" lon="6.05536">
        <ele>836.3</ele>
      </trkpt>
      <trkpt lat="44.55751" lon="6.05553">
        <ele>838.6</ele>
      </trkpt>
      <trkpt lat="44.55754" lon="6.05593">
        <ele>838.3</ele>
      </trkpt>
      <trkpt lat="44.55754" lon="6.05628">
        <ele>838.2</ele>
      </trkpt>
      <trkpt lat="44.55755" lon="6.05641">
        <ele>837.9</ele>
      </trkpt>
      <trkpt lat="44.55744" lon="6.05995">
        <ele>829.8</ele>
      </trkpt>
      <trkpt lat="44.55742" lon="6.06009">
        <ele>829.7</ele>
      </trkpt>
      <trkpt lat="44.55725" lon="6.06047">
        <ele>829.5</ele>
      </trkpt>
      <trkpt lat="44.55669" lon="6.06119">
        <ele>827.3</ele>
      </trkpt>
      <trkpt lat="44.55652" lon="6.06143">
        <ele>824.1</ele>
      </trkpt>
      <trkpt lat="44.55647" lon="6.06154">
        <ele>823.9</ele>
      </trkpt>
      <trkpt lat="44.55645" lon="6.06161">
        <ele>823.8</ele>
      </trkpt>
      <trkpt lat="44.55644" lon="6.06173">
        <ele>820.5</ele>
      </trkpt>
      <trkpt lat="44.55644" lon="6.06187">
        <ele>819.7</ele>
      </trkpt>
      <trkpt lat="44.55646" lon="6.06193">
        <ele>819.4</ele>
      </trkpt>
      <trkpt lat="44.55647" lon="6.06199">
        <ele>819.1</ele>
      </trkpt>
      <trkpt lat="44.5566" lon="6.06222">
        <ele>817.8</ele>
      </trkpt>
      <trkpt lat="44.55709" lon="6.06266">
        <ele>817.4</ele>
      </trkpt>
      <trkpt lat="44.55718" lon="6.06283">
        <ele>817.2</ele>
      </trkpt>
      <trkpt lat="44.55724" lon="6.06298">
        <ele>816.7</ele>
      </trkpt>
      <trkpt lat="44.55727" lon="6.06314">
        <ele>816.1</ele>
      </trkpt>
      <trkpt lat="44.55723" lon="6.06345">
        <ele>814</ele>
      </trkpt>
      <trkpt lat="44.55719" lon="6.06349">
        <ele>813.9</ele>
      </trkpt>
      <trkpt lat="44.55718" lon="6.06351">
        <ele>813.9</ele>
      </trkpt>
      <trkpt lat="44.55716" lon="6.06353">
        <ele>813.9</ele>
      </trkpt>
      <trkpt lat="44.55716" lon="6.06354">
        <ele>813.9</ele>
      </trkpt>
      <trkpt lat="44.55715" lon="6.06356">
        <ele>813.8</ele>
      </trkpt>
      <trkpt lat="44.55715" lon="6.06357">
        <ele>813.8</ele>
      </trkpt>
      <trkpt lat="44.55714" lon="6.06358">
        <ele>813.8</ele>
      </trkpt>
      <trkpt lat="44.55714" lon="6.06361">
        <ele>813.8</ele>
      </trkpt>
      <trkpt lat="44.55713" lon="6.06362">
        <ele>813.8</ele>
      </trkpt>
      <trkpt lat="44.55713" lon="6.06368">
        <ele>813.8</ele>
      </trkpt>
      <trkpt lat="44.55697" lon="6.06392">
        <ele>813.5</ele>
      </trkpt>
      <trkpt lat="44.5569" lon="6.06395">
        <ele>813.3</ele>
      </trkpt>
      <trkpt lat="44.55632" lon="6.06449">
        <ele>806.7</ele>
      </trkpt>
      <trkpt lat="44.55621" lon="6.06461">
        <ele>806</ele>
      </trkpt>
      <trkpt lat="44.5561" lon="6.06477">
        <ele>805.1</ele>
      </trkpt>
      <trkpt lat="44.55604" lon="6.06495">
        <ele>804.2</ele>
      </trkpt>
      <trkpt lat="44.55601" lon="6.06515">
        <ele>803.1</ele>
      </trkpt>
      <trkpt lat="44.55601" lon="6.06535">
        <ele>803.2</ele>
      </trkpt>
      <trkpt lat="44.55608" lon="6.06567">
        <ele>802.7</ele>
      </trkpt>
      <trkpt lat="44.55665" lon="6.06747">
        <ele>796</ele>
      </trkpt>
      <trkpt lat="44.55671" lon="6.06762">
        <ele>794.6</ele>
      </trkpt>
      <trkpt lat="44.55677" lon="6.06772">
        <ele>793.7</ele>
      </trkpt>
      <trkpt lat="44.55683" lon="6.0678">
        <ele>793.2</ele>
      </trkpt>
      <trkpt lat="44.55692" lon="6.06789">
        <ele>792.7</ele>
      </trkpt>
      <trkpt lat="44.55699" lon="6.06794">
        <ele>792.5</ele>
      </trkpt>
      <trkpt lat="44.5571" lon="6.06799">
        <ele>792.2</ele>
      </trkpt>
      <trkpt lat="44.55714" lon="6.068">
        <ele>792.2</ele>
      </trkpt>
      <trkpt lat="44.55715" lon="6.068">
        <ele>792.2</ele>
      </trkpt>
      <trkpt lat="44.55718" lon="6.06801">
        <ele>792.1</ele>
      </trkpt>
      <trkpt lat="44.55731" lon="6.06803">
        <ele>791.9</ele>
      </trkpt>
      <trkpt lat="44.55739" lon="6.06803">
        <ele>791.7</ele>
      </trkpt>
      <trkpt lat="44.55752" lon="6.06805">
        <ele>793.3</ele>
      </trkpt>
      <trkpt lat="44.55758" lon="6.06808">
        <ele>793.2</ele>
      </trkpt>
      <trkpt lat="44.55765" lon="6.06815">
        <ele>793</ele>
      </trkpt>
      <trkpt lat="44.55774" lon="6.0683">
        <ele>793.1</ele>
      </trkpt>
      <trkpt lat="44.55779" lon="6.06845">
        <ele>791</ele>
      </trkpt>
      <trkpt lat="44.55779" lon="6.06846">
        <ele>791</ele>
      </trkpt>
      <trkpt lat="44.55778" lon="6.06847">
        <ele>791</ele>
      </trkpt>
      <trkpt lat="44.55778" lon="6.06849">
        <ele>791</ele>
      </trkpt>
      <trkpt lat="44.55777" lon="6.0685">
        <ele>790.9</ele>
      </trkpt>
      <trkpt lat="44.55777" lon="6.0686">
        <ele>790.8</ele>
      </trkpt>
      <trkpt lat="44.55778" lon="6.06861">
        <ele>790.9</ele>
      </trkpt>
      <trkpt lat="44.55778" lon="6.06863">
        <ele>790.9</ele>
      </trkpt>
      <trkpt lat="44.55779" lon="6.06864">
        <ele>790.9</ele>
      </trkpt>
      <trkpt lat="44.55779" lon="6.06865">
        <ele>790.9</ele>
      </trkpt>
      <trkpt lat="44.55782" lon="6.06868">
        <ele>791</ele>
      </trkpt>
      <trkpt lat="44.55771" lon="6.06913">
        <ele>789</ele>
      </trkpt>
      <trkpt lat="44.55758" lon="6.06934">
        <ele>786.3</ele>
      </trkpt>
      <trkpt lat="44.557" lon="6.07006">
        <ele>777.5</ele>
      </trkpt>
      <trkpt lat="44.55694" lon="6.07006">
        <ele>777.5</ele>
      </trkpt>
      <trkpt lat="44.55694" lon="6.07007">
        <ele>777.4</ele>
      </trkpt>
      <trkpt lat="44.55693" lon="6.07007">
        <ele>777.4</ele>
      </trkpt>
      <trkpt lat="44.5569" lon="6.0701">
        <ele>777.4</ele>
      </trkpt>
      <trkpt lat="44.5569" lon="6.07011">
        <ele>777.4</ele>
      </trkpt>
      <trkpt lat="44.55689" lon="6.07011">
        <ele>777.4</ele>
      </trkpt>
      <trkpt lat="44.55689" lon="6.07013">
        <ele>777.3</ele>
      </trkpt>
      <trkpt lat="44.55688" lon="6.07013">
        <ele>777.3</ele>
      </trkpt>
      <trkpt lat="44.55688" lon="6.07015">
        <ele>777.3</ele>
      </trkpt>
      <trkpt lat="44.55687" lon="6.07016">
        <ele>777.2</ele>
      </trkpt>
      <trkpt lat="44.55687" lon="6.07025">
        <ele>777</ele>
      </trkpt>
      <trkpt lat="44.55681" lon="6.07032">
        <ele>776.7</ele>
      </trkpt>
      <trkpt lat="44.55675" lon="6.07042">
        <ele>776.1</ele>
      </trkpt>
      <trkpt lat="44.55673" lon="6.07049">
        <ele>775.7</ele>
      </trkpt>
      <trkpt lat="44.55668" lon="6.07099">
        <ele>770.9</ele>
      </trkpt>
      <trkpt lat="44.55663" lon="6.07118">
        <ele>765.9</ele>
      </trkpt>
      <trkpt lat="44.55659" lon="6.07125">
        <ele>765.2</ele>
      </trkpt>
      <trkpt lat="44.55654" lon="6.0713">
        <ele>764.7</ele>
      </trkpt>
      <trkpt lat="44.5565" lon="6.07131">
        <ele>764.6</ele>
      </trkpt>
      <trkpt lat="44.55643" lon="6.07131">
        <ele>764.4</ele>
      </trkpt>
      <trkpt lat="44.55631" lon="6.07128">
        <ele>764.1</ele>
      </trkpt>
      <trkpt lat="44.55617" lon="6.07114">
        <ele>764.1</ele>
      </trkpt>
      <trkpt lat="44.55607" lon="6.07106">
        <ele>763.9</ele>
      </trkpt>
      <trkpt lat="44.55604" lon="6.07114">
        <ele>763.6</ele>
      </trkpt>
      <trkpt lat="44.55603" lon="6.07122">
        <ele>763.3</ele>
      </trkpt>
      <trkpt lat="44.55512" lon="6.07408">
        <ele>737</ele>
      </trkpt>
      <trkpt lat="44.5551" lon="6.07412">
        <ele>736.6</ele>
      </trkpt>
      <trkpt lat="44.55491" lon="6.07464">
        <ele>734.4</ele>
      </trkpt>
      <trkpt lat="44.5549" lon="6.07471">
        <ele>734.3</ele>
      </trkpt>
      <trkpt lat="44.55485" lon="6.07482">
        <ele>734.1</ele>
      </trkpt>
      <trkpt lat="44.55485" lon="6.07487">
        <ele>734</ele>
      </trkpt>
      <trkpt lat="44.55484" lon="6.07489">
        <ele>734</ele>
      </trkpt>
      <trkpt lat="44.55484" lon="6.07491">
        <ele>734</ele>
      </trkpt>
      <trkpt lat="44.55483" lon="6.07492">
        <ele>734</ele>
      </trkpt>
      <trkpt lat="44.55483" lon="6.07494">
        <ele>734</ele>
      </trkpt>
      <trkpt lat="44.55482" lon="6.07496">
        <ele>734</ele>
      </trkpt>
      <trkpt lat="44.55482" lon="6.0751">
        <ele>733.2</ele>
      </trkpt>
      <trkpt lat="44.55483" lon="6.07513">
        <ele>733.2</ele>
      </trkpt>
      <trkpt lat="44.55483" lon="6.07515">
        <ele>733.2</ele>
      </trkpt>
      <trkpt lat="44.55486" lon="6.07523">
        <ele>733.1</ele>
      </trkpt>
      <trkpt lat="44.55488" lon="6.07525">
        <ele>733.1</ele>
      </trkpt>
      <trkpt lat="44.55489" lon="6.07527">
        <ele>733.1</ele>
      </trkpt>
      <trkpt lat="44.5549" lon="6.07527">
        <ele>733</ele>
      </trkpt>
      <trkpt lat="44.5549" lon="6.07528">
        <ele>733</ele>
      </trkpt>
      <trkpt lat="44.55491" lon="6.07528">
        <ele>733</ele>
      </trkpt>
      <trkpt lat="44.55492" lon="6.07529">
        <ele>733</ele>
      </trkpt>
      <trkpt lat="44.55495" lon="6.07529">
        <ele>733</ele>
      </trkpt>
      <trkpt lat="44.55494" lon="6.07543">
        <ele>732.8</ele>
      </trkpt>
      <trkpt lat="44.55497" lon="6.07565">
        <ele>732.1</ele>
      </trkpt>
      <trkpt lat="44.55515" lon="6.07659">
        <ele>730.5</ele>
      </trkpt>
      <trkpt lat="44.55533" lon="6.07729">
        <ele>729.8</ele>
      </trkpt>
      <trkpt lat="44.5556" lon="6.07806">
        <ele>729.4</ele>
      </trkpt>
      <trkpt lat="44.55578" lon="6.0785">
        <ele>730.3</ele>
      </trkpt>
      <trkpt lat="44.55578" lon="6.07859">
        <ele>730.4</ele>
      </trkpt>
      <trkpt lat="44.55579" lon="6.0786">
        <ele>730.5</ele>
      </trkpt>
      <trkpt lat="44.55579" lon="6.07862">
        <ele>730.5</ele>
      </trkpt>
      <trkpt lat="44.5558" lon="6.07863">
        <ele>730.5</ele>
      </trkpt>
      <trkpt lat="44.5558" lon="6.07866">
        <ele>730.5</ele>
      </trkpt>
      <trkpt lat="44.55581" lon="6.07867">
        <ele>730.5</ele>
      </trkpt>
      <trkpt lat="44.55582" lon="6.07867">
        <ele>730.5</ele>
      </trkpt>
      <trkpt lat="44.55582" lon="6.07868">
        <ele>730.6</ele>
      </trkpt>
      <trkpt lat="44.55584" lon="6.0787">
        <ele>730.8</ele>
      </trkpt>
      <trkpt lat="44.55584" lon="6.07871">
        <ele>730.8</ele>
      </trkpt>
      <trkpt lat="44.55585" lon="6.07871">
        <ele>730.8</ele>
      </trkpt>
      <trkpt lat="44.55586" lon="6.07872">
        <ele>730.8</ele>
      </trkpt>
      <trkpt lat="44.55587" lon="6.07872">
        <ele>730.8</ele>
      </trkpt>
      <trkpt lat="44.55588" lon="6.07873">
        <ele>730.8</ele>
      </trkpt>
      <trkpt lat="44.55589" lon="6.07873">
        <ele>730.8</ele>
      </trkpt>
      <trkpt lat="44.55604" lon="6.07886">
        <ele>730.9</ele>
      </trkpt>
      <trkpt lat="44.55618" lon="6.07902">
        <ele>731</ele>
      </trkpt>
      <trkpt lat="44.55627" lon="6.07915">
        <ele>731</ele>
      </trkpt>
      <trkpt lat="44.55659" lon="6.0797">
        <ele>730.8</ele>
      </trkpt>
      <trkpt lat="44.55768" lon="6.08186">
        <ele>735.1</ele>
      </trkpt>
      <trkpt lat="44.55772" lon="6.08192">
        <ele>735.5</ele>
      </trkpt>
      <trkpt lat="44.55785" lon="6.08218">
        <ele>736.3</ele>
      </trkpt>
      <trkpt lat="44.55789" lon="6.08228">
        <ele>736.5</ele>
      </trkpt>
      <trkpt lat="44.55798" lon="6.08244">
        <ele>736.5</ele>
      </trkpt>
      <trkpt lat="44.55814" lon="6.08268">
        <ele>740.8</ele>
      </trkpt>
      <trkpt lat="44.55815" lon="6.08271">
        <ele>741</ele>
      </trkpt>
      <trkpt lat="44.55844" lon="6.08304">
        <ele>739</ele>
      </trkpt>
      <trkpt lat="44.55865" lon="6.08322">
        <ele>738.7</ele>
      </trkpt>
      <trkpt lat="44.55944" lon="6.08404">
        <ele>736.1</ele>
      </trkpt>
      <trkpt lat="44.55957" lon="6.0842">
        <ele>737.1</ele>
      </trkpt>
      <trkpt lat="44.55968" lon="6.08431">
        <ele>737.2</ele>
      </trkpt>
      <trkpt lat="44.55981" lon="6.08441">
        <ele>737.1</ele>
      </trkpt>
      <trkpt lat="44.55997" lon="6.08449">
        <ele>737.1</ele>
      </trkpt>
      <trkpt lat="44.56024" lon="6.08456">
        <ele>737.5</ele>
      </trkpt>
      <trkpt lat="44.56039" lon="6.08458">
        <ele>737.7</ele>
      </trkpt>
      <trkpt lat="44.56048" lon="6.08455">
        <ele>737.8</ele>
      </trkpt>
      <trkpt lat="44.56074" lon="6.08455">
        <ele>738.2</ele>
      </trkpt>
      <trkpt lat="44.56118" lon="6.08438">
        <ele>740.6</ele>
      </trkpt>
      <trkpt lat="44.56153" lon="6.0842">
        <ele>742</ele>
      </trkpt>
      <trkpt lat="44.56164" lon="6.08422">
        <ele>742.5</ele>
      </trkpt>
      <trkpt lat="44.5617" lon="6.08425">
        <ele>743.3</ele>
      </trkpt>
      <trkpt lat="44.56208" lon="6.08451">
        <ele>744</ele>
      </trkpt>
      <trkpt lat="44.56221" lon="6.08466">
        <ele>744.3</ele>
      </trkpt>
      <trkpt lat="44.56225" lon="6.08472">
        <ele>744.4</ele>
      </trkpt>
      <trkpt lat="44.56233" lon="6.08479">
        <ele>744.6</ele>
      </trkpt>
      <trkpt lat="44.56249" lon="6.08514">
        <ele>745.1</ele>
      </trkpt>
      <trkpt lat="44.56285" lon="6.08606">
        <ele>745.4</ele>
      </trkpt>
      <trkpt lat="44.56315" lon="6.08676">
        <ele>746.1</ele>
      </trkpt>
      <trkpt lat="44.56318" lon="6.08686">
        <ele>746</ele>
      </trkpt>
      <trkpt lat="44.56478" lon="6.09074">
        <ele>742.3</ele>
      </trkpt>
      <trkpt lat="44.56482" lon="6.09082">
        <ele>742.1</ele>
      </trkpt>
      <trkpt lat="44.56529" lon="6.09197">
        <ele>743</ele>
      </trkpt>
      <trkpt lat="44.56544" lon="6.09252">
        <ele>743.4</ele>
      </trkpt>
      <trkpt lat="44.56544" lon="6.09253">
        <ele>743.4</ele>
      </trkpt>
      <trkpt lat="44.56543" lon="6.09253">
        <ele>743.3</ele>
      </trkpt>
      <trkpt lat="44.56543" lon="6.09264">
        <ele>743.4</ele>
      </trkpt>
      <trkpt lat="44.56544" lon="6.09264">
        <ele>743.4</ele>
      </trkpt>
      <trkpt lat="44.56544" lon="6.09266">
        <ele>743.4</ele>
      </trkpt>
      <trkpt lat="44.56545" lon="6.09266">
        <ele>743.4</ele>
      </trkpt>
      <trkpt lat="44.56545" lon="6.09268">
        <ele>743.4</ele>
      </trkpt>
      <trkpt lat="44.56546" lon="6.09268">
        <ele>743.4</ele>
      </trkpt>
      <trkpt lat="44.56547" lon="6.09269">
        <ele>743.4</ele>
      </trkpt>
      <trkpt lat="44.56548" lon="6.09269">
        <ele>743.4</ele>
      </trkpt>
      <trkpt lat="44.56548" lon="6.0927">
        <ele>743.5</ele>
      </trkpt>
      <trkpt lat="44.56551" lon="6.0927">
        <ele>743.5</ele>
      </trkpt>
      <trkpt lat="44.56563" lon="6.09282">
        <ele>743.6</ele>
      </trkpt>
      <trkpt lat="44.56575" lon="6.09297">
        <ele>743.7</ele>
      </trkpt>
      <trkpt lat="44.56726" lon="6.09667">
        <ele>747.4</ele>
      </trkpt>
      <trkpt lat="44.56735" lon="6.09699">
        <ele>747.5</ele>
      </trkpt>
      <trkpt lat="44.56735" lon="6.09705">
        <ele>747.6</ele>
      </trkpt>
      <trkpt lat="44.56734" lon="6.09706">
        <ele>747.6</ele>
      </trkpt>
      <trkpt lat="44.56734" lon="6.09717">
        <ele>747.7</ele>
      </trkpt>
      <trkpt lat="44.56735" lon="6.09718">
        <ele>747.7</ele>
      </trkpt>
      <trkpt lat="44.56735" lon="6.0972">
        <ele>747.8</ele>
      </trkpt>
      <trkpt lat="44.56736" lon="6.09721">
        <ele>747.8</ele>
      </trkpt>
      <trkpt lat="44.56736" lon="6.09722">
        <ele>747.8</ele>
      </trkpt>
      <trkpt lat="44.56737" lon="6.09723">
        <ele>747.8</ele>
      </trkpt>
      <trkpt lat="44.56737" lon="6.09724">
        <ele>747.8</ele>
      </trkpt>
      <trkpt lat="44.56739" lon="6.09726">
        <ele>747.9</ele>
      </trkpt>
      <trkpt lat="44.5674" lon="6.09726">
        <ele>747.9</ele>
      </trkpt>
      <trkpt lat="44.5674" lon="6.09727">
        <ele>747.9</ele>
      </trkpt>
      <trkpt lat="44.56742" lon="6.09727">
        <ele>748</ele>
      </trkpt>
      <trkpt lat="44.56743" lon="6.09728">
        <ele>748</ele>
      </trkpt>
      <trkpt lat="44.56745" lon="6.09728">
        <ele>748</ele>
      </trkpt>
      <trkpt lat="44.56753" lon="6.09738">
        <ele>749.1</ele>
      </trkpt>
      <trkpt lat="44.56758" lon="6.0975">
        <ele>749.4</ele>
      </trkpt>
      <trkpt lat="44.5677" lon="6.09772">
        <ele>750.1</ele>
      </trkpt>
      <trkpt lat="44.56851" lon="6.09975">
        <ele>752.8</ele>
      </trkpt>
      <trkpt lat="44.56867" lon="6.10023">
        <ele>752.5</ele>
      </trkpt>
      <trkpt lat="44.56883" lon="6.10064">
        <ele>752.5</ele>
      </trkpt>
      <trkpt lat="44.569" lon="6.10129">
        <ele>752.5</ele>
      </trkpt>
      <trkpt lat="44.56916" lon="6.10255">
        <ele>753.1</ele>
      </trkpt>
      <trkpt lat="44.56916" lon="6.10266">
        <ele>753.3</ele>
      </trkpt>
      <trkpt lat="44.56914" lon="6.10282">
        <ele>753.5</ele>
      </trkpt>
      <trkpt lat="44.56911" lon="6.1029">
        <ele>753.6</ele>
      </trkpt>
      <trkpt lat="44.56906" lon="6.10295">
        <ele>753.7</ele>
      </trkpt>
      <trkpt lat="44.56905" lon="6.10297">
        <ele>753.7</ele>
      </trkpt>
      <trkpt lat="44.56904" lon="6.10298">
        <ele>753.8</ele>
      </trkpt>
      <trkpt lat="44.56902" lon="6.10302">
        <ele>753.8</ele>
      </trkpt>
      <trkpt lat="44.56902" lon="6.10304">
        <ele>753.9</ele>
      </trkpt>
      <trkpt lat="44.56901" lon="6.10306">
        <ele>753.9</ele>
      </trkpt>
      <trkpt lat="44.56901" lon="6.10308">
        <ele>753.9</ele>
      </trkpt>
      <trkpt lat="44.569" lon="6.1031">
        <ele>754</ele>
      </trkpt>
      <trkpt lat="44.569" lon="6.10317">
        <ele>754.1</ele>
      </trkpt>
      <trkpt lat="44.56901" lon="6.10319">
        <ele>754.1</ele>
      </trkpt>
      <trkpt lat="44.56901" lon="6.10323">
        <ele>754.2</ele>
      </trkpt>
      <trkpt lat="44.56902" lon="6.10325">
        <ele>754.3</ele>
      </trkpt>
      <trkpt lat="44.56902" lon="6.10327">
        <ele>754.3</ele>
      </trkpt>
      <trkpt lat="44.56904" lon="6.10332">
        <ele>754.4</ele>
      </trkpt>
      <trkpt lat="44.56905" lon="6.10333">
        <ele>754.5</ele>
      </trkpt>
      <trkpt lat="44.56907" lon="6.10337">
        <ele>755.1</ele>
      </trkpt>
      <trkpt lat="44.56909" lon="6.10339">
        <ele>755.1</ele>
      </trkpt>
      <trkpt lat="44.56909" lon="6.1034">
        <ele>755.1</ele>
      </trkpt>
      <trkpt lat="44.5691" lon="6.1034">
        <ele>755.1</ele>
      </trkpt>
      <trkpt lat="44.56912" lon="6.10342">
        <ele>755.1</ele>
      </trkpt>
      <trkpt lat="44.56913" lon="6.10342">
        <ele>755.1</ele>
      </trkpt>
      <trkpt lat="44.56913" lon="6.10343">
        <ele>755.1</ele>
      </trkpt>
      <trkpt lat="44.56915" lon="6.10343">
        <ele>755.1</ele>
      </trkpt>
      <trkpt lat="44.56916" lon="6.10344">
        <ele>755.1</ele>
      </trkpt>
      <trkpt lat="44.56917" lon="6.10344">
        <ele>756.2</ele>
      </trkpt>
      <trkpt lat="44.56918" lon="6.10345">
        <ele>756.3</ele>
      </trkpt>
      <trkpt lat="44.56923" lon="6.10345">
        <ele>756.5</ele>
      </trkpt>
      <trkpt lat="44.56954" lon="6.10404">
        <ele>758.5</ele>
      </trkpt>
      <trkpt lat="44.5696" lon="6.10413">
        <ele>758.7</ele>
      </trkpt>
      <trkpt lat="44.56965" lon="6.10419">
        <ele>759.2</ele>
      </trkpt>
      <trkpt lat="44.56971" lon="6.10423">
        <ele>759.4</ele>
      </trkpt>
      <trkpt lat="44.56998" lon="6.10454">
        <ele>759.6</ele>
      </trkpt>
      <trkpt lat="44.57011" lon="6.10467">
        <ele>763.6</ele>
      </trkpt>
      <trkpt lat="44.57012" lon="6.10469">
        <ele>763.5</ele>
      </trkpt>
      <trkpt lat="44.57033" lon="6.10491">
        <ele>764.3</ele>
      </trkpt>
      <trkpt lat="44.57045" lon="6.10506">
        <ele>763.9</ele>
      </trkpt>
      <trkpt lat="44.57069" lon="6.10543">
        <ele>764.3</ele>
      </trkpt>
      <trkpt lat="44.57124" lon="6.10642">
        <ele>767.2</ele>
      </trkpt>
      <trkpt lat="44.5714" lon="6.10667">
        <ele>765.2</ele>
      </trkpt>
      <trkpt lat="44.57168" lon="6.10705">
        <ele>767.6</ele>
      </trkpt>
      <trkpt lat="44.57335" lon="6.10905">
        <ele>769</ele>
      </trkpt>
      <trkpt lat="44.5734" lon="6.10915">
        <ele>769</ele>
      </trkpt>
      <trkpt lat="44.57354" lon="6.10935">
        <ele>769.9</ele>
      </trkpt>
      <trkpt lat="44.57458" lon="6.11062">
        <ele>773.2</ele>
      </trkpt>
      <trkpt lat="44.57467" lon="6.1107">
        <ele>773.5</ele>
      </trkpt>
      <trkpt lat="44.57492" lon="6.11109">
        <ele>774.5</ele>
      </trkpt>
      <trkpt lat="44.57505" lon="6.11133">
        <ele>777.4</ele>
      </trkpt>
      <trkpt lat="44.57524" lon="6.11178">
        <ele>776.6</ele>
      </trkpt>
      <trkpt lat="44.57539" lon="6.11223">
        <ele>777.8</ele>
      </trkpt>
      <trkpt lat="44.57678" lon="6.11791">
        <ele>788.2</ele>
      </trkpt>
      <trkpt lat="44.5768" lon="6.11813">
        <ele>787.9</ele>
      </trkpt>
      <trkpt lat="44.57696" lon="6.11886">
        <ele>789.3</ele>
      </trkpt>
      <trkpt lat="44.57711" lon="6.11938">
        <ele>789.9</ele>
      </trkpt>
      <trkpt lat="44.57717" lon="6.11954">
        <ele>789.9</ele>
      </trkpt>
      <trkpt lat="44.57776" lon="6.12182">
        <ele>798.9</ele>
      </trkpt>
      <trkpt lat="44.57783" lon="6.12215">
        <ele>799.9</ele>
      </trkpt>
      <trkpt lat="44.57789" lon="6.12257">
        <ele>802.2</ele>
      </trkpt>
      <trkpt lat="44.57791" lon="6.12315">
        <ele>803.1</ele>
      </trkpt>
      <trkpt lat="44.57787" lon="6.12371">
        <ele>804.6</ele>
      </trkpt>
      <trkpt lat="44.57788" lon="6.12398">
        <ele>804.8</ele>
      </trkpt>
      <trkpt lat="44.57785" lon="6.12413">
        <ele>804.7</ele>
      </trkpt>
      <trkpt lat="44.57778" lon="6.12768">
        <ele>806.2</ele>
      </trkpt>
      <trkpt lat="44.5778" lon="6.12782">
        <ele>806.5</ele>
      </trkpt>
      <trkpt lat="44.5777" lon="6.13376">
        <ele>812.7</ele>
      </trkpt>
      <trkpt lat="44.57768" lon="6.13393">
        <ele>812.8</ele>
      </trkpt>
      <trkpt lat="44.57759" lon="6.13764">
        <ele>816.7</ele>
      </trkpt>
      <trkpt lat="44.5776" lon="6.13792">
        <ele>816.8</ele>
      </trkpt>
      <trkpt lat="44.57708" lon="6.16131">
        <ele>835.3</ele>
      </trkpt>
      <trkpt lat="44.57704" lon="6.16206">
        <ele>835.4</ele>
      </trkpt>
      <trkpt lat="44.5769" lon="6.16304">
        <ele>834</ele>
      </trkpt>
      <trkpt lat="44.57683" lon="6.16336">
        <ele>833.3</ele>
      </trkpt>
      <trkpt lat="44.57663" lon="6.16402">
        <ele>833.1</ele>
      </trkpt>
      <trkpt lat="44.56978" lon="6.1824">
        <ele>845.9</ele>
      </trkpt>
      <trkpt lat="44.56966" lon="6.18281">
        <ele>846.4</ele>
      </trkpt>
      <trkpt lat="44.56948" lon="6.18357">
        <ele>846.6</ele>
      </trkpt>
      <trkpt lat="44.56908" lon="6.18592">
        <ele>850</ele>
      </trkpt>
      <trkpt lat="44.56894" lon="6.18649">
        <ele>849.7</ele>
      </trkpt>
      <trkpt lat="44.5687" lon="6.18718">
        <ele>849.6</ele>
      </trkpt>
      <trkpt lat="44.56846" lon="6.1877">
        <ele>850.4</ele>
      </trkpt>
      <trkpt lat="44.56806" lon="6.18838">
        <ele>853.6</ele>
      </trkpt>
      <trkpt lat="44.5678" lon="6.18872">
        <ele>854.2</ele>
      </trkpt>
      <trkpt lat="44.56632" lon="6.19026">
        <ele>860.5</ele>
      </trkpt>
      <trkpt lat="44.56588" lon="6.19085">
        <ele>860.3</ele>
      </trkpt>
      <trkpt lat="44.56569" lon="6.19114">
        <ele>864.6</ele>
      </trkpt>
      <trkpt lat="44.56551" lon="6.19148">
        <ele>865.1</ele>
      </trkpt>
      <trkpt lat="44.56494" lon="6.19276">
        <ele>860.7</ele>
      </trkpt>
      <trkpt lat="44.56494" lon="6.19277">
        <ele>860.7</ele>
      </trkpt>
      <trkpt lat="44.56387" lon="6.19539">
        <ele>858.9</ele>
      </trkpt>
      <trkpt lat="44.56387" lon="6.1954">
        <ele>858.9</ele>
      </trkpt>
      <trkpt lat="44.56358" lon="6.19614">
        <ele>858.7</ele>
      </trkpt>
      <trkpt lat="44.56339" lon="6.19675">
        <ele>857.4</ele>
      </trkpt>
      <trkpt lat="44.56317" lon="6.19766">
        <ele>855.5</ele>
      </trkpt>
      <trkpt lat="44.56309" lon="6.19814">
        <ele>855.4</ele>
      </trkpt>
      <trkpt lat="44.56236" lon="6.2041">
        <ele>843.8</ele>
      </trkpt>
      <trkpt lat="44.56235" lon="6.20426">
        <ele>844.1</ele>
      </trkpt>
      <trkpt lat="44.56176" lon="6.20884">
        <ele>841.7</ele>
      </trkpt>
      <trkpt lat="44.56168" lon="6.20929">
        <ele>838.7</ele>
      </trkpt>
      <trkpt lat="44.5615" lon="6.20999">
        <ele>835.3</ele>
      </trkpt>
      <trkpt lat="44.56138" lon="6.21036">
        <ele>834.8</ele>
      </trkpt>
      <trkpt lat="44.56107" lon="6.21113">
        <ele>834.7</ele>
      </trkpt>
      <trkpt lat="44.56107" lon="6.21115">
        <ele>834.7</ele>
      </trkpt>
      <trkpt lat="44.56105" lon="6.21119">
        <ele>834.7</ele>
      </trkpt>
      <trkpt lat="44.56104" lon="6.2112">
        <ele>834.7</ele>
      </trkpt>
      <trkpt lat="44.56047" lon="6.21263">
        <ele>829.7</ele>
      </trkpt>
      <trkpt lat="44.5602" lon="6.21351">
        <ele>827.8</ele>
      </trkpt>
      <trkpt lat="44.56003" lon="6.21429">
        <ele>826.5</ele>
      </trkpt>
      <trkpt lat="44.5594" lon="6.21869">
        <ele>811.4</ele>
      </trkpt>
      <trkpt lat="44.55937" lon="6.21876">
        <ele>811.2</ele>
      </trkpt>
      <trkpt lat="44.55915" lon="6.22021">
        <ele>805.3</ele>
      </trkpt>
      <trkpt lat="44.55915" lon="6.22026">
        <ele>805.2</ele>
      </trkpt>
      <trkpt lat="44.5587" lon="6.2236">
        <ele>799.9</ele>
      </trkpt>
      <trkpt lat="44.55869" lon="6.22379">
        <ele>800</ele>
      </trkpt>
      <trkpt lat="44.55738" lon="6.23314">
        <ele>805.4</ele>
      </trkpt>
      <trkpt lat="44.55735" lon="6.23327">
        <ele>805.5</ele>
      </trkpt>
      <trkpt lat="44.5569" lon="6.23645">
        <ele>814.1</ele>
      </trkpt>
      <trkpt lat="44.55681" lon="6.23693">
        <ele>815.4</ele>
      </trkpt>
      <trkpt lat="44.55681" lon="6.23695">
        <ele>815.5</ele>
      </trkpt>
      <trkpt lat="44.55677" lon="6.23718">
        <ele>815.5</ele>
      </trkpt>
      <trkpt lat="44.55659" lon="6.23782">
        <ele>816</ele>
      </trkpt>
      <trkpt lat="44.55634" lon="6.23854">
        <ele>818.2</ele>
      </trkpt>
      <trkpt lat="44.55617" lon="6.23893">
        <ele>818.7</ele>
      </trkpt>
      <trkpt lat="44.55591" lon="6.23941">
        <ele>820.6</ele>
      </trkpt>
      <trkpt lat="44.55591" lon="6.23942">
        <ele>820.7</ele>
      </trkpt>
      <trkpt lat="44.55566" lon="6.23981">
        <ele>820.7</ele>
      </trkpt>
      <trkpt lat="44.55388" lon="6.24228">
        <ele>830</ele>
      </trkpt>
      <trkpt lat="44.5536" lon="6.24274">
        <ele>831.9</ele>
      </trkpt>
      <trkpt lat="44.55331" lon="6.24334">
        <ele>833</ele>
      </trkpt>
      <trkpt lat="44.55327" lon="6.24344">
        <ele>833.2</ele>
      </trkpt>
      <trkpt lat="44.5532" lon="6.24358">
        <ele>833.4</ele>
      </trkpt>
      <trkpt lat="44.55298" lon="6.24416">
        <ele>833.7</ele>
      </trkpt>
      <trkpt lat="44.55284" lon="6.24463">
        <ele>835.2</ele>
      </trkpt>
      <trkpt lat="44.55262" lon="6.2455">
        <ele>838.9</ele>
      </trkpt>
      <trkpt lat="44.55196" lon="6.24848">
        <ele>847.5</ele>
      </trkpt>
      <trkpt lat="44.55189" lon="6.24897">
        <ele>847.8</ele>
      </trkpt>
      <trkpt lat="44.55171" lon="6.25259">
        <ele>857.2</ele>
      </trkpt>
      <trkpt lat="44.5517" lon="6.25266">
        <ele>857.7</ele>
      </trkpt>
      <trkpt lat="44.55151" lon="6.25673">
        <ele>858.6</ele>
      </trkpt>
      <trkpt lat="44.5515" lon="6.25676">
        <ele>858.5</ele>
      </trkpt>
      <trkpt lat="44.55144" lon="6.25763">
        <ele>859.2</ele>
      </trkpt>
      <trkpt lat="44.55129" lon="6.25842">
        <ele>858</ele>
      </trkpt>
      <trkpt lat="44.55122" lon="6.25866">
        <ele>857.5</ele>
      </trkpt>
      <trkpt lat="44.54833" lon="6.26704">
        <ele>851</ele>
      </trkpt>
      <trkpt lat="44.54828" lon="6.26716">
        <ele>851</ele>
      </trkpt>
      <trkpt lat="44.54813" lon="6.26762">
        <ele>851.8</ele>
      </trkpt>
      <trkpt lat="44.54812" lon="6.26763">
        <ele>851.8</ele>
      </trkpt>
      <trkpt lat="44.54737" lon="6.26986">
        <ele>856.9</ele>
      </trkpt>
      <trkpt lat="44.54735" lon="6.26994">
        <ele>857</ele>
      </trkpt>
      <trkpt lat="44.54733" lon="6.26998">
        <ele>857</ele>
      </trkpt>
      <trkpt lat="44.5473" lon="6.27001">
        <ele>857.9</ele>
      </trkpt>
      <trkpt lat="44.5473" lon="6.27003">
        <ele>857.9</ele>
      </trkpt>
      <trkpt lat="44.54728" lon="6.27007">
        <ele>857.9</ele>
      </trkpt>
      <trkpt lat="44.54724" lon="6.27019">
        <ele>857.9</ele>
      </trkpt>
      <trkpt lat="44.54716" lon="6.27037">
        <ele>858</ele>
      </trkpt>
      <trkpt lat="44.547" lon="6.27081">
        <ele>858.2</ele>
      </trkpt>
      <trkpt lat="44.54676" lon="6.27126">
        <ele>859.9</ele>
      </trkpt>
      <trkpt lat="44.54652" lon="6.27164">
        <ele>859.9</ele>
      </trkpt>
      <trkpt lat="44.54647" lon="6.2717">
        <ele>860.4</ele>
      </trkpt>
      <trkpt lat="44.54646" lon="6.27169">
        <ele>860.4</ele>
      </trkpt>
      <trkpt lat="44.54646" lon="6.27168">
        <ele>860.4</ele>
      </trkpt>
      <trkpt lat="44.54644" lon="6.27168">
        <ele>860.3</ele>
      </trkpt>
      <trkpt lat="44.54643" lon="6.27167">
        <ele>860.3</ele>
      </trkpt>
      <trkpt lat="44.54638" lon="6.27167">
        <ele>860.1</ele>
      </trkpt>
      <trkpt lat="44.54637" lon="6.27168">
        <ele>860.1</ele>
      </trkpt>
      <trkpt lat="44.54635" lon="6.27168">
        <ele>860.1</ele>
      </trkpt>
      <trkpt lat="44.54635" lon="6.27169">
        <ele>860.1</ele>
      </trkpt>
      <trkpt lat="44.54634" lon="6.27169">
        <ele>860</ele>
      </trkpt>
      <trkpt lat="44.54632" lon="6.27171">
        <ele>860</ele>
      </trkpt>
      <trkpt lat="44.54632" lon="6.27172">
        <ele>860</ele>
      </trkpt>
      <trkpt lat="44.54631" lon="6.27172">
        <ele>860</ele>
      </trkpt>
      <trkpt lat="44.54631" lon="6.27173">
        <ele>860</ele>
      </trkpt>
      <trkpt lat="44.5463" lon="6.27174">
        <ele>860</ele>
      </trkpt>
      <trkpt lat="44.5463" lon="6.27175">
        <ele>860</ele>
      </trkpt>
      <trkpt lat="44.54629" lon="6.27176">
        <ele>859.9</ele>
      </trkpt>
      <trkpt lat="44.54629" lon="6.27179">
        <ele>859.9</ele>
      </trkpt>
      <trkpt lat="44.54628" lon="6.2718">
        <ele>859.9</ele>
      </trkpt>
      <trkpt lat="44.54628" lon="6.27189">
        <ele>860</ele>
      </trkpt>
      <trkpt lat="44.54629" lon="6.2719">
        <ele>860</ele>
      </trkpt>
      <trkpt lat="44.54629" lon="6.27192">
        <ele>860</ele>
      </trkpt>
      <trkpt lat="44.5463" lon="6.27193">
        <ele>860</ele>
      </trkpt>
      <trkpt lat="44.5463" lon="6.27194">
        <ele>860</ele>
      </trkpt>
      <trkpt lat="44.54631" lon="6.27195">
        <ele>860</ele>
      </trkpt>
      <trkpt lat="44.54631" lon="6.27196">
        <ele>860</ele>
      </trkpt>
      <trkpt lat="44.54627" lon="6.27207">
        <ele>860</ele>
      </trkpt>
      <trkpt lat="44.54597" lon="6.27267">
        <ele>860.3</ele>
      </trkpt>
      <trkpt lat="44.5458" lon="6.27296">
        <ele>859.6</ele>
      </trkpt>
      <trkpt lat="44.54554" lon="6.27333">
        <ele>859.8</ele>
      </trkpt>
      <trkpt lat="44.54542" lon="6.27353">
        <ele>861.1</ele>
      </trkpt>
      <trkpt lat="44.54508" lon="6.27392">
        <ele>861.5</ele>
      </trkpt>
      <trkpt lat="44.54474" lon="6.27424">
        <ele>862.7</ele>
      </trkpt>
      <trkpt lat="44.54449" lon="6.27443">
        <ele>862.6</ele>
      </trkpt>
      <trkpt lat="44.54443" lon="6.27449">
        <ele>862.6</ele>
      </trkpt>
      <trkpt lat="44.54359" lon="6.27506">
        <ele>861.4</ele>
      </trkpt>
      <trkpt lat="44.54295" lon="6.27555">
        <ele>857.9</ele>
      </trkpt>
      <trkpt lat="44.54273" lon="6.27575">
        <ele>857</ele>
      </trkpt>
      <trkpt lat="44.5425" lon="6.276">
        <ele>854.6</ele>
      </trkpt>
      <trkpt lat="44.54217" lon="6.27644">
        <ele>853.9</ele>
      </trkpt>
      <trkpt lat="44.54216" lon="6.27646">
        <ele>853.8</ele>
      </trkpt>
      <trkpt lat="44.54216" lon="6.27647">
        <ele>853.8</ele>
      </trkpt>
      <trkpt lat="44.54205" lon="6.27663">
        <ele>853.6</ele>
      </trkpt>
      <trkpt lat="44.54177" lon="6.27715">
        <ele>852.1</ele>
      </trkpt>
      <trkpt lat="44.54177" lon="6.27716">
        <ele>852.1</ele>
      </trkpt>
      <trkpt lat="44.54165" lon="6.27742">
        <ele>851.4</ele>
      </trkpt>
      <trkpt lat="44.54145" lon="6.27801">
        <ele>850.2</ele>
      </trkpt>
      <trkpt lat="44.54135" lon="6.27839">
        <ele>850</ele>
      </trkpt>
      <trkpt lat="44.54132" lon="6.27857">
        <ele>850</ele>
      </trkpt>
      <trkpt lat="44.54131" lon="6.2786">
        <ele>850</ele>
      </trkpt>
      <trkpt lat="44.54127" lon="6.27882">
        <ele>850.1</ele>
      </trkpt>
      <trkpt lat="44.54121" lon="6.27935">
        <ele>850.7</ele>
      </trkpt>
      <trkpt lat="44.54119" lon="6.28025">
        <ele>851.6</ele>
      </trkpt>
      <trkpt lat="44.54122" lon="6.28078">
        <ele>852.4</ele>
      </trkpt>
      <trkpt lat="44.54123" lon="6.28082">
        <ele>852.5</ele>
      </trkpt>
      <trkpt lat="44.54139" lon="6.28304">
        <ele>872.4</ele>
      </trkpt>
      <trkpt lat="44.5414" lon="6.28308">
        <ele>872.5</ele>
      </trkpt>
      <trkpt lat="44.5414" lon="6.28384">
        <ele>877.3</ele>
      </trkpt>
      <trkpt lat="44.54132" lon="6.28461">
        <ele>879.6</ele>
      </trkpt>
      <trkpt lat="44.54122" lon="6.28512">
        <ele>879.9</ele>
      </trkpt>
      <trkpt lat="44.54103" lon="6.28581">
        <ele>879.2</ele>
      </trkpt>
      <trkpt lat="44.54084" lon="6.28631">
        <ele>880.4</ele>
      </trkpt>
      <trkpt lat="44.5405" lon="6.28702">
        <ele>878.5</ele>
      </trkpt>
      <trkpt lat="44.53956" lon="6.28878">
        <ele>882</ele>
      </trkpt>
      <trkpt lat="44.53915" lon="6.2896">
        <ele>878.1</ele>
      </trkpt>
      <trkpt lat="44.53914" lon="6.28961">
        <ele>878.2</ele>
      </trkpt>
      <trkpt lat="44.53906" lon="6.28979">
        <ele>879.2</ele>
      </trkpt>
      <trkpt lat="44.53897" lon="6.29004">
        <ele>881.1</ele>
      </trkpt>
      <trkpt lat="44.53896" lon="6.29004">
        <ele>881</ele>
      </trkpt>
      <trkpt lat="44.53889" lon="6.29026">
        <ele>880.1</ele>
      </trkpt>
      <trkpt lat="44.53888" lon="6.29027">
        <ele>880</ele>
      </trkpt>
      <trkpt lat="44.53869" lon="6.29104">
        <ele>879.5</ele>
      </trkpt>
      <trkpt lat="44.53865" lon="6.29128">
        <ele>879.4</ele>
      </trkpt>
      <trkpt lat="44.53823" lon="6.29555">
        <ele>870.8</ele>
      </trkpt>
      <trkpt lat="44.53811" lon="6.29621">
        <ele>867.1</ele>
      </trkpt>
      <trkpt lat="44.538" lon="6.29657">
        <ele>865.8</ele>
      </trkpt>
      <trkpt lat="44.53786" lon="6.29695">
        <ele>863.9</ele>
      </trkpt>
      <trkpt lat="44.53772" lon="6.29727">
        <ele>863.6</ele>
      </trkpt>
      <trkpt lat="44.53766" lon="6.29738">
        <ele>863.3</ele>
      </trkpt>
      <trkpt lat="44.53766" lon="6.29739">
        <ele>863.2</ele>
      </trkpt>
      <trkpt lat="44.5374" lon="6.29785">
        <ele>864.5</ele>
      </trkpt>
      <trkpt lat="44.53719" lon="6.29815">
        <ele>865.9</ele>
      </trkpt>
      <trkpt lat="44.5369" lon="6.29848">
        <ele>870.2</ele>
      </trkpt>
      <trkpt lat="44.536" lon="6.29941">
        <ele>869.1</ele>
      </trkpt>
      <trkpt lat="44.53576" lon="6.29971">
        <ele>867.8</ele>
      </trkpt>
      <trkpt lat="44.53541" lon="6.30025">
        <ele>868.7</ele>
      </trkpt>
      <trkpt lat="44.5353" lon="6.30046">
        <ele>868.7</ele>
      </trkpt>
      <trkpt lat="44.5351" lon="6.30093">
        <ele>868.9</ele>
      </trkpt>
      <trkpt lat="44.53436" lon="6.30304">
        <ele>872</ele>
      </trkpt>
      <trkpt lat="44.53435" lon="6.3031">
        <ele>871.9</ele>
      </trkpt>
      <trkpt lat="44.5329" lon="6.30735">
        <ele>867.3</ele>
      </trkpt>
      <trkpt lat="44.53287" lon="6.30742">
        <ele>867.3</ele>
      </trkpt>
      <trkpt lat="44.53124" lon="6.31231">
        <ele>860</ele>
      </trkpt>
      <trkpt lat="44.53119" lon="6.31237">
        <ele>859.8</ele>
      </trkpt>
      <trkpt lat="44.53119" lon="6.31238">
        <ele>859.8</ele>
      </trkpt>
      <trkpt lat="44.53084" lon="6.31341">
        <ele>865.8</ele>
      </trkpt>
      <trkpt lat="44.53084" lon="6.31343">
        <ele>866</ele>
      </trkpt>
      <trkpt lat="44.52991" lon="6.31615">
        <ele>855</ele>
      </trkpt>
      <trkpt lat="44.52991" lon="6.31623">
        <ele>854.9</ele>
      </trkpt>
      <trkpt lat="44.52989" lon="6.31628">
        <ele>854.8</ele>
      </trkpt>
      <trkpt lat="44.52988" lon="6.31633">
        <ele>854.7</ele>
      </trkpt>
      <trkpt lat="44.52938" lon="6.31782">
        <ele>855.3</ele>
      </trkpt>
      <trkpt lat="44.52933" lon="6.31808">
        <ele>855.5</ele>
      </trkpt>
      <trkpt lat="44.52926" lon="6.31866">
        <ele>858.6</ele>
      </trkpt>
      <trkpt lat="44.52924" lon="6.31896">
        <ele>859.2</ele>
      </trkpt>
      <trkpt lat="44.52927" lon="6.31951">
        <ele>861.8</ele>
      </trkpt>
      <trkpt lat="44.52932" lon="6.31996">
        <ele>862</ele>
      </trkpt>
      <trkpt lat="44.52946" lon="6.32053">
        <ele>861.5</ele>
      </trkpt>
      <trkpt lat="44.52953" lon="6.32073">
        <ele>861.2</ele>
      </trkpt>
      <trkpt lat="44.52972" lon="6.32114">
        <ele>854.5</ele>
      </trkpt>
      <trkpt lat="44.52986" lon="6.32139">
        <ele>851.5</ele>
      </trkpt>
      <trkpt lat="44.53111" lon="6.32341">
        <ele>818.5</ele>
      </trkpt>
      <trkpt lat="44.53142" lon="6.32396">
        <ele>816.2</ele>
      </trkpt>
      <trkpt lat="44.53145" lon="6.32397">
        <ele>816.3</ele>
      </trkpt>
      <trkpt lat="44.53162" lon="6.3244">
        <ele>814.2</ele>
      </trkpt>
      <trkpt lat="44.53162" lon="6.32441">
        <ele>814.2</ele>
      </trkpt>
      <trkpt lat="44.5317" lon="6.32468">
        <ele>818.3</ele>
      </trkpt>
      <trkpt lat="44.53176" lon="6.325">
        <ele>820</ele>
      </trkpt>
      <trkpt lat="44.53182" lon="6.32548">
        <ele>821.7</ele>
      </trkpt>
      <trkpt lat="44.53183" lon="6.32612">
        <ele>822.8</ele>
      </trkpt>
      <trkpt lat="44.5318" lon="6.32647">
        <ele>822.9</ele>
      </trkpt>
      <trkpt lat="44.53168" lon="6.32716">
        <ele>822.7</ele>
      </trkpt>
      <trkpt lat="44.53103" lon="6.32976">
        <ele>815.4</ele>
      </trkpt>
      <trkpt lat="44.53067" lon="6.33095">
        <ele>818.5</ele>
      </trkpt>
      <trkpt lat="44.53054" lon="6.33147">
        <ele>819.2</ele>
      </trkpt>
      <trkpt lat="44.53036" lon="6.33208">
        <ele>821.7</ele>
      </trkpt>
      <trkpt lat="44.53019" lon="6.33252">
        <ele>822.4</ele>
      </trkpt>
      <trkpt lat="44.53005" lon="6.33282">
        <ele>823.1</ele>
      </trkpt>
      <trkpt lat="44.52976" lon="6.33336">
        <ele>817.4</ele>
      </trkpt>
      <trkpt lat="44.52958" lon="6.33363">
        <ele>816.2</ele>
      </trkpt>
      <trkpt lat="44.52937" lon="6.33389">
        <ele>815.2</ele>
      </trkpt>
      <trkpt lat="44.52917" lon="6.33411">
        <ele>812.9</ele>
      </trkpt>
      <trkpt lat="44.5289" lon="6.33437">
        <ele>812</ele>
      </trkpt>
      <trkpt lat="44.52864" lon="6.33458">
        <ele>812</ele>
      </trkpt>
      <trkpt lat="44.5286" lon="6.33462">
        <ele>812.1</ele>
      </trkpt>
      <trkpt lat="44.52773" lon="6.33533">
        <ele>814.1</ele>
      </trkpt>
      <trkpt lat="44.52732" lon="6.33575">
        <ele>814</ele>
      </trkpt>
      <trkpt lat="44.52701" lon="6.33615">
        <ele>817</ele>
      </trkpt>
      <trkpt lat="44.52682" lon="6.33646">
        <ele>816.9</ele>
      </trkpt>
      <trkpt lat="44.52587" lon="6.33834">
        <ele>823.2</ele>
      </trkpt>
      <trkpt lat="44.52559" lon="6.33895">
        <ele>817.7</ele>
      </trkpt>
      <trkpt lat="44.52552" lon="6.33913">
        <ele>817.4</ele>
      </trkpt>
      <trkpt lat="44.52549" lon="6.33918">
        <ele>822.5</ele>
      </trkpt>
      <trkpt lat="44.52503" lon="6.34019">
        <ele>827.7</ele>
      </trkpt>
      <trkpt lat="44.525" lon="6.34022">
        <ele>819.3</ele>
      </trkpt>
      <trkpt lat="44.52491" lon="6.34041">
        <ele>821.1</ele>
      </trkpt>
      <trkpt lat="44.52476" lon="6.34068">
        <ele>823</ele>
      </trkpt>
      <trkpt lat="44.52468" lon="6.34085">
        <ele>827.4</ele>
      </trkpt>
      <trkpt lat="44.5246" lon="6.34099">
        <ele>826.5</ele>
      </trkpt>
      <trkpt lat="44.52412" lon="6.34216">
        <ele>815.8</ele>
      </trkpt>
      <trkpt lat="44.52409" lon="6.34233">
        <ele>818.7</ele>
      </trkpt>
      <trkpt lat="44.52402" lon="6.34252">
        <ele>823.4</ele>
      </trkpt>
      <trkpt lat="44.52391" lon="6.34292">
        <ele>821.6</ele>
      </trkpt>
      <trkpt lat="44.52379" lon="6.34346">
        <ele>824.4</ele>
      </trkpt>
      <trkpt lat="44.52371" lon="6.34412">
        <ele>823.7</ele>
      </trkpt>
      <trkpt lat="44.5237" lon="6.34469">
        <ele>822.3</ele>
      </trkpt>
      <trkpt lat="44.52376" lon="6.34548">
        <ele>821.3</ele>
      </trkpt>
      <trkpt lat="44.52384" lon="6.34601">
        <ele>821.5</ele>
      </trkpt>
      <trkpt lat="44.52399" lon="6.34661">
        <ele>822</ele>
      </trkpt>
      <trkpt lat="44.524" lon="6.34663">
        <ele>822</ele>
      </trkpt>
      <trkpt lat="44.52416" lon="6.34715">
        <ele>822.2</ele>
      </trkpt>
      <trkpt lat="44.52488" lon="6.34916">
        <ele>817.6</ele>
      </trkpt>
      <trkpt lat="44.525" lon="6.34956">
        <ele>813.5</ele>
      </trkpt>
      <trkpt lat="44.52511" lon="6.35005">
        <ele>818.3</ele>
      </trkpt>
      <trkpt lat="44.52513" lon="6.35011">
        <ele>819</ele>
      </trkpt>
      <trkpt lat="44.52524" lon="6.3507">
        <ele>819.9</ele>
      </trkpt>
      <trkpt lat="44.52526" lon="6.35087">
        <ele>819</ele>
      </trkpt>
      <trkpt lat="44.526" lon="6.35492">
        <ele>810.1</ele>
      </trkpt>
      <trkpt lat="44.52602" lon="6.35499">
        <ele>810.2</ele>
      </trkpt>
      <trkpt lat="44.52616" lon="6.35569">
        <ele>808.4</ele>
      </trkpt>
      <trkpt lat="44.52627" lon="6.35612">
        <ele>805.2</ele>
      </trkpt>
      <trkpt lat="44.52639" lon="6.35645">
        <ele>804.9</ele>
      </trkpt>
      <trkpt lat="44.52642" lon="6.35656">
        <ele>805</ele>
      </trkpt>
      <trkpt lat="44.5266" lon="6.35698">
        <ele>799.9</ele>
      </trkpt>
      <trkpt lat="44.52683" lon="6.35741">
        <ele>805.1</ele>
      </trkpt>
      <trkpt lat="44.52705" lon="6.35775">
        <ele>802</ele>
      </trkpt>
      <trkpt lat="44.52718" lon="6.35792">
        <ele>802.2</ele>
      </trkpt>
      <trkpt lat="44.52721" lon="6.35795">
        <ele>802.3</ele>
      </trkpt>
      <trkpt lat="44.52734" lon="6.35812">
        <ele>802.7</ele>
      </trkpt>
      <trkpt lat="44.52834" lon="6.35914">
        <ele>801.4</ele>
      </trkpt>
      <trkpt lat="44.5284" lon="6.35922">
        <ele>799.5</ele>
      </trkpt>
      <trkpt lat="44.52849" lon="6.35932">
        <ele>798</ele>
      </trkpt>
      <trkpt lat="44.52877" lon="6.35971">
        <ele>796.3</ele>
      </trkpt>
      <trkpt lat="44.52878" lon="6.35974">
        <ele>796.2</ele>
      </trkpt>
      <trkpt lat="44.52889" lon="6.35994">
        <ele>796.7</ele>
      </trkpt>
      <trkpt lat="44.52903" lon="6.36025">
        <ele>794.6</ele>
      </trkpt>
      <trkpt lat="44.52917" lon="6.36069">
        <ele>803.8</ele>
      </trkpt>
      <trkpt lat="44.52923" lon="6.36094">
        <ele>803</ele>
      </trkpt>
      <trkpt lat="44.52954" lon="6.363">
        <ele>799.5</ele>
      </trkpt>
      <trkpt lat="44.52969" lon="6.3645">
        <ele>811.4</ele>
      </trkpt>
      <trkpt lat="44.52986" lon="6.36575">
        <ele>807</ele>
      </trkpt>
      <trkpt lat="44.53008" lon="6.36703">
        <ele>788.5</ele>
      </trkpt>
      <trkpt lat="44.53009" lon="6.36706">
        <ele>788</ele>
      </trkpt>
      <trkpt lat="44.53025" lon="6.36811">
        <ele>769.1</ele>
      </trkpt>
      <trkpt lat="44.53074" lon="6.37202">
        <ele>796.2</ele>
      </trkpt>
      <trkpt lat="44.53085" lon="6.3726">
        <ele>800.1</ele>
      </trkpt>
      <trkpt lat="44.53107" lon="6.37332">
        <ele>800.8</ele>
      </trkpt>
      <trkpt lat="44.53125" lon="6.37372">
        <ele>796.7</ele>
      </trkpt>
      <trkpt lat="44.5315" lon="6.37413">
        <ele>797.4</ele>
      </trkpt>
      <trkpt lat="44.53163" lon="6.3743">
        <ele>794</ele>
      </trkpt>
      <trkpt lat="44.53198" lon="6.37469">
        <ele>795.5</ele>
      </trkpt>
      <trkpt lat="44.53406" lon="6.37677">
        <ele>804.9</ele>
      </trkpt>
      <trkpt lat="44.53426" lon="6.37695">
        <ele>803</ele>
      </trkpt>
      <trkpt lat="44.53483" lon="6.37753">
        <ele>790.8</ele>
      </trkpt>
      <trkpt lat="44.53508" lon="6.37785">
        <ele>788.4</ele>
      </trkpt>
      <trkpt lat="44.53523" lon="6.37807">
        <ele>786.9</ele>
      </trkpt>
      <trkpt lat="44.53533" lon="6.37827">
        <ele>786.5</ele>
      </trkpt>
      <trkpt lat="44.53538" lon="6.37835">
        <ele>782.5</ele>
      </trkpt>
      <trkpt lat="44.53553" lon="6.3787">
        <ele>782.7</ele>
      </trkpt>
      <trkpt lat="44.53565" lon="6.37905">
        <ele>783.6</ele>
      </trkpt>
      <trkpt lat="44.53574" lon="6.37942">
        <ele>781</ele>
      </trkpt>
      <trkpt lat="44.53583" lon="6.38011">
        <ele>782.2</ele>
      </trkpt>
      <trkpt lat="44.53583" lon="6.38073">
        <ele>784.3</ele>
      </trkpt>
      <trkpt lat="44.53558" lon="6.38484">
        <ele>787.6</ele>
      </trkpt>
      <trkpt lat="44.53556" lon="6.38552">
        <ele>786.7</ele>
      </trkpt>
      <trkpt lat="44.5356" lon="6.38951">
        <ele>785.9</ele>
      </trkpt>
      <trkpt lat="44.53556" lon="6.39006">
        <ele>786.3</ele>
      </trkpt>
      <trkpt lat="44.53552" lon="6.39036">
        <ele>785.1</ele>
      </trkpt>
      <trkpt lat="44.53548" lon="6.39047">
        <ele>784.6</ele>
      </trkpt>
      <trkpt lat="44.5354" lon="6.39084">
        <ele>783.8</ele>
      </trkpt>
      <trkpt lat="44.5353" lon="6.39118">
        <ele>783.1</ele>
      </trkpt>
      <trkpt lat="44.5353" lon="6.39119">
        <ele>783.2</ele>
      </trkpt>
      <trkpt lat="44.53512" lon="6.39161">
        <ele>782.1</ele>
      </trkpt>
      <trkpt lat="44.53517" lon="6.39171">
        <ele>782</ele>
      </trkpt>
      <trkpt lat="44.53521" lon="6.39175">
        <ele>782.2</ele>
      </trkpt>
      <trkpt lat="44.53524" lon="6.39176">
        <ele>782.4</ele>
      </trkpt>
      <trkpt lat="44.53526" lon="6.39176">
        <ele>782.5</ele>
      </trkpt>
      <trkpt lat="44.53538" lon="6.39168">
        <ele>783</ele>
      </trkpt>
      <trkpt lat="44.53546" lon="6.39157">
        <ele>784.3</ele>
      </trkpt>
      <trkpt lat="44.53548" lon="6.39151">
        <ele>784.4</ele>
      </trkpt>
      <trkpt lat="44.53559" lon="6.39136">
        <ele>785</ele>
      </trkpt>
      <trkpt lat="44.53572" lon="6.39123">
        <ele>785.8</ele>
      </trkpt>
      <trkpt lat="44.53576" lon="6.39121">
        <ele>786.1</ele>
      </trkpt>
      <trkpt lat="44.53583" lon="6.39119">
        <ele>786.4</ele>
      </trkpt>
      <trkpt lat="44.53661" lon="6.39117">
        <ele>794.7</ele>
      </trkpt>
      <trkpt lat="44.53674" lon="6.39119">
        <ele>796.7</ele>
      </trkpt>
      <trkpt lat="44.53685" lon="6.39126">
        <ele>795.7</ele>
      </trkpt>
      <trkpt lat="44.53715" lon="6.3915">
        <ele>793.5</ele>
      </trkpt>
      <trkpt lat="44.5372" lon="6.3916">
        <ele>792.6</ele>
      </trkpt>
      <trkpt lat="44.53723" lon="6.39163">
        <ele>792.2</ele>
      </trkpt>
      <trkpt lat="44.53727" lon="6.39166">
        <ele>791.8</ele>
      </trkpt>
      <trkpt lat="44.53728" lon="6.3917">
        <ele>786.1</ele>
      </trkpt>
      <trkpt lat="44.53729" lon="6.39172">
        <ele>786.1</ele>
      </trkpt>
      <trkpt lat="44.5373" lon="6.39173">
        <ele>786.1</ele>
      </trkpt>
      <trkpt lat="44.5373" lon="6.39191">
        <ele>785.8</ele>
      </trkpt>
      <trkpt lat="44.53731" lon="6.39202">
        <ele>785.6</ele>
      </trkpt>
      <trkpt lat="44.5373" lon="6.39231">
        <ele>785.1</ele>
      </trkpt>
      <trkpt lat="44.53721" lon="6.39312">
        <ele>784.3</ele>
      </trkpt>
      <trkpt lat="44.53721" lon="6.39316">
        <ele>784.3</ele>
      </trkpt>
      <trkpt lat="44.53717" lon="6.39346">
        <ele>783.6</ele>
      </trkpt>
      <trkpt lat="44.53716" lon="6.39362">
        <ele>783.3</ele>
      </trkpt>
      <trkpt lat="44.53714" lon="6.39374">
        <ele>783.1</ele>
      </trkpt>
      <trkpt lat="44.53709" lon="6.39427">
        <ele>784.6</ele>
      </trkpt>
      <trkpt lat="44.53705" lon="6.39452">
        <ele>785.5</ele>
      </trkpt>
      <trkpt lat="44.53694" lon="6.39558">
        <ele>798.1</ele>
      </trkpt>
      <trkpt lat="44.53695" lon="6.39561">
        <ele>798.4</ele>
      </trkpt>
      <trkpt lat="44.53695" lon="6.39569">
        <ele>798.7</ele>
      </trkpt>
      <trkpt lat="44.53698" lon="6.39583">
        <ele>799.6</ele>
      </trkpt>
      <trkpt lat="44.53706" lon="6.39609">
        <ele>810.6</ele>
      </trkpt>
      <trkpt lat="44.53706" lon="6.39611">
        <ele>810.7</ele>
      </trkpt>
      <trkpt lat="44.53712" lon="6.39626">
        <ele>812.5</ele>
      </trkpt>
      <trkpt lat="44.53713" lon="6.39635">
        <ele>813.3</ele>
      </trkpt>
      <trkpt lat="44.53712" lon="6.39643">
        <ele>813.7</ele>
      </trkpt>
      <trkpt lat="44.5371" lon="6.39651">
        <ele>813.9</ele>
      </trkpt>
      <trkpt lat="44.53707" lon="6.39655">
        <ele>813.7</ele>
      </trkpt>
      <trkpt lat="44.53707" lon="6.39656">
        <ele>813.7</ele>
      </trkpt>
      <trkpt lat="44.53702" lon="6.39662">
        <ele>813.2</ele>
      </trkpt>
      <trkpt lat="44.53697" lon="6.39664">
        <ele>812.5</ele>
      </trkpt>
      <trkpt lat="44.53691" lon="6.39664">
        <ele>811.8</ele>
      </trkpt>
      <trkpt lat="44.53687" lon="6.39661">
        <ele>811.2</ele>
      </trkpt>
      <trkpt lat="44.53673" lon="6.39646">
        <ele>810.1</ele>
      </trkpt>
      <trkpt lat="44.53667" lon="6.39635">
        <ele>809.3</ele>
      </trkpt>
      <trkpt lat="44.53664" lon="6.39632">
        <ele>798.4</ele>
      </trkpt>
      <trkpt lat="44.53662" lon="6.39629">
        <ele>797.9</ele>
      </trkpt>
      <trkpt lat="44.53656" lon="6.39626">
        <ele>797.2</ele>
      </trkpt>
      <trkpt lat="44.53652" lon="6.39626">
        <ele>796.9</ele>
      </trkpt>
      <trkpt lat="44.53648" lon="6.39627">
        <ele>796.7</ele>
      </trkpt>
      <trkpt lat="44.53646" lon="6.39628">
        <ele>796.7</ele>
      </trkpt>
      <trkpt lat="44.53641" lon="6.39632">
        <ele>796.6</ele>
      </trkpt>
      <trkpt lat="44.53637" lon="6.39637">
        <ele>796.6</ele>
      </trkpt>
      <trkpt lat="44.53635" lon="6.39644">
        <ele>796.9</ele>
      </trkpt>
      <trkpt lat="44.53634" lon="6.39655">
        <ele>797.5</ele>
      </trkpt>
      <trkpt lat="44.53635" lon="6.39674">
        <ele>802</ele>
      </trkpt>
      <trkpt lat="44.53638" lon="6.39694">
        <ele>802.2</ele>
      </trkpt>
      <trkpt lat="44.53642" lon="6.39709">
        <ele>802.7</ele>
      </trkpt>
      <trkpt lat="44.53646" lon="6.39718">
        <ele>803.4</ele>
      </trkpt>
      <trkpt lat="44.53651" lon="6.39725">
        <ele>804.4</ele>
      </trkpt>
      <trkpt lat="44.53669" lon="6.39738">
        <ele>815.3</ele>
      </trkpt>
      <trkpt lat="44.53678" lon="6.39748">
        <ele>815.6</ele>
      </trkpt>
      <trkpt lat="44.53694" lon="6.39775">
        <ele>821.2</ele>
      </trkpt>
      <trkpt lat="44.53705" lon="6.398">
        <ele>822.9</ele>
      </trkpt>
      <trkpt lat="44.53711" lon="6.39817">
        <ele>823.9</ele>
      </trkpt>
      <trkpt lat="44.53711" lon="6.39819">
        <ele>823.9</ele>
      </trkpt>
      <trkpt lat="44.53714" lon="6.3983">
        <ele>824.7</ele>
      </trkpt>
      <trkpt lat="44.53716" lon="6.39856">
        <ele>824</ele>
      </trkpt>
      <trkpt lat="44.53716" lon="6.39898">
        <ele>823.8</ele>
      </trkpt>
      <trkpt lat="44.53719" lon="6.39921">
        <ele>820.2</ele>
      </trkpt>
      <trkpt lat="44.53724" lon="6.39933">
        <ele>820.6</ele>
      </trkpt>
      <trkpt lat="44.53729" lon="6.39936">
        <ele>821.5</ele>
      </trkpt>
      <trkpt lat="44.53734" lon="6.39937">
        <ele>822.5</ele>
      </trkpt>
      <trkpt lat="44.53739" lon="6.39936">
        <ele>824</ele>
      </trkpt>
      <trkpt lat="44.53749" lon="6.39932">
        <ele>827.1</ele>
      </trkpt>
      <trkpt lat="44.5375" lon="6.39932">
        <ele>837.7</ele>
      </trkpt>
      <trkpt lat="44.53756" lon="6.3993">
        <ele>837.9</ele>
      </trkpt>
      <trkpt lat="44.53764" lon="6.39931">
        <ele>838.3</ele>
      </trkpt>
      <trkpt lat="44.53772" lon="6.39934">
        <ele>838.9</ele>
      </trkpt>
      <trkpt lat="44.53779" lon="6.39941">
        <ele>839.4</ele>
      </trkpt>
      <trkpt lat="44.53784" lon="6.39949">
        <ele>839.5</ele>
      </trkpt>
      <trkpt lat="44.53793" lon="6.39972">
        <ele>839.1</ele>
      </trkpt>
      <trkpt lat="44.53798" lon="6.4">
        <ele>833.3</ele>
      </trkpt>
      <trkpt lat="44.53802" lon="6.40006">
        <ele>834.1</ele>
      </trkpt>
      <trkpt lat="44.53805" lon="6.40012">
        <ele>834.5</ele>
      </trkpt>
      <trkpt lat="44.53807" lon="6.40014">
        <ele>834.8</ele>
      </trkpt>
      <trkpt lat="44.53814" lon="6.40025">
        <ele>835</ele>
      </trkpt>
      <trkpt lat="44.53816" lon="6.40031">
        <ele>834.7</ele>
      </trkpt>
      <trkpt lat="44.53818" lon="6.40035">
        <ele>834.7</ele>
      </trkpt>
      <trkpt lat="44.53824" lon="6.40054">
        <ele>835</ele>
      </trkpt>
      <trkpt lat="44.53824" lon="6.40055">
        <ele>835.1</ele>
      </trkpt>
      <trkpt lat="44.53828" lon="6.40072">
        <ele>838</ele>
      </trkpt>
      <trkpt lat="44.53831" lon="6.40081">
        <ele>841.3</ele>
      </trkpt>
      <trkpt lat="44.53835" lon="6.40085">
        <ele>843.2</ele>
      </trkpt>
      <trkpt lat="44.53839" lon="6.40087">
        <ele>843.6</ele>
      </trkpt>
      <trkpt lat="44.53844" lon="6.40086">
        <ele>843.9</ele>
      </trkpt>
      <trkpt lat="44.53851" lon="6.40082">
        <ele>846.3</ele>
      </trkpt>
      <trkpt lat="44.53864" lon="6.4007">
        <ele>848.1</ele>
      </trkpt>
      <trkpt lat="44.5387" lon="6.40062">
        <ele>848.8</ele>
      </trkpt>
      <trkpt lat="44.53875" lon="6.40053">
        <ele>849.3</ele>
      </trkpt>
      <trkpt lat="44.5389" lon="6.40015">
        <ele>851.2</ele>
      </trkpt>
      <trkpt lat="44.53898" lon="6.39999">
        <ele>854.5</ele>
      </trkpt>
      <trkpt lat="44.53906" lon="6.39986">
        <ele>854.9</ele>
      </trkpt>
      <trkpt lat="44.53913" lon="6.39978">
        <ele>855</ele>
      </trkpt>
      <trkpt lat="44.5392" lon="6.39972">
        <ele>858.3</ele>
      </trkpt>
      <trkpt lat="44.53933" lon="6.39967">
        <ele>858.7</ele>
      </trkpt>
      <trkpt lat="44.53938" lon="6.39966">
        <ele>858.8</ele>
      </trkpt>
      <trkpt lat="44.53951" lon="6.39968">
        <ele>859.1</ele>
      </trkpt>
      <trkpt lat="44.53962" lon="6.39972">
        <ele>859.3</ele>
      </trkpt>
      <trkpt lat="44.53963" lon="6.39973">
        <ele>859.3</ele>
      </trkpt>
      <trkpt lat="44.53975" lon="6.39979">
        <ele>859.8</ele>
      </trkpt>
      <trkpt lat="44.53996" lon="6.39995">
        <ele>861.3</ele>
      </trkpt>
      <trkpt lat="44.53998" lon="6.39996">
        <ele>861.5</ele>
      </trkpt>
      <trkpt lat="44.54048" lon="6.40034">
        <ele>861.4</ele>
      </trkpt>
      <trkpt lat="44.54075" lon="6.40057">
        <ele>861.9</ele>
      </trkpt>
      <trkpt lat="44.54077" lon="6.40058">
        <ele>861.9</ele>
      </trkpt>
      <trkpt lat="44.5414" lon="6.40106">
        <ele>869.3</ele>
      </trkpt>
      <trkpt lat="44.54157" lon="6.40124">
        <ele>869.8</ele>
      </trkpt>
      <trkpt lat="44.54161" lon="6.40133">
        <ele>869.9</ele>
      </trkpt>
      <trkpt lat="44.54164" lon="6.40142">
        <ele>870.2</ele>
      </trkpt>
      <trkpt lat="44.54166" lon="6.40178">
        <ele>870.5</ele>
      </trkpt>
      <trkpt lat="44.54168" lon="6.4019">
        <ele>882.2</ele>
      </trkpt>
      <trkpt lat="44.54176" lon="6.40215">
        <ele>884.9</ele>
      </trkpt>
      <trkpt lat="44.54177" lon="6.40216">
        <ele>884.9</ele>
      </trkpt>
      <trkpt lat="44.5418" lon="6.40227">
        <ele>884.6</ele>
      </trkpt>
      <trkpt lat="44.54182" lon="6.40239">
        <ele>883.4</ele>
      </trkpt>
      <trkpt lat="44.54182" lon="6.4027">
        <ele>887.1</ele>
      </trkpt>
      <trkpt lat="44.54175" lon="6.4039">
        <ele>888</ele>
      </trkpt>
      <trkpt lat="44.54176" lon="6.40399">
        <ele>886.7</ele>
      </trkpt>
      <trkpt lat="44.54178" lon="6.40407">
        <ele>885.4</ele>
      </trkpt>
      <trkpt lat="44.54176" lon="6.40422">
        <ele>883.4</ele>
      </trkpt>
      <trkpt lat="44.54179" lon="6.4044">
        <ele>887.4</ele>
      </trkpt>
      <trkpt lat="44.54183" lon="6.40451">
        <ele>888.9</ele>
      </trkpt>
      <trkpt lat="44.54189" lon="6.40461">
        <ele>889.9</ele>
      </trkpt>
      <trkpt lat="44.54195" lon="6.40469">
        <ele>890.7</ele>
      </trkpt>
      <trkpt lat="44.54202" lon="6.40475">
        <ele>891.8</ele>
      </trkpt>
      <trkpt lat="44.54219" lon="6.40487">
        <ele>895.1</ele>
      </trkpt>
      <trkpt lat="44.54219" lon="6.40488">
        <ele>895.1</ele>
      </trkpt>
      <trkpt lat="44.54225" lon="6.40495">
        <ele>896.7</ele>
      </trkpt>
      <trkpt lat="44.5423" lon="6.40504">
        <ele>895.9</ele>
      </trkpt>
      <trkpt lat="44.5423" lon="6.40506">
        <ele>895.8</ele>
      </trkpt>
      <trkpt lat="44.54237" lon="6.40523">
        <ele>894.9</ele>
      </trkpt>
      <trkpt lat="44.5424" lon="6.40527">
        <ele>894.7</ele>
      </trkpt>
      <trkpt lat="44.5424" lon="6.40529">
        <ele>894.4</ele>
      </trkpt>
      <trkpt lat="44.54248" lon="6.40536">
        <ele>894.1</ele>
      </trkpt>
      <trkpt lat="44.54258" lon="6.40547">
        <ele>910.3</ele>
      </trkpt>
      <trkpt lat="44.54266" lon="6.40558">
        <ele>909.9</ele>
      </trkpt>
      <trkpt lat="44.54278" lon="6.4059">
        <ele>908.3</ele>
      </trkpt>
      <trkpt lat="44.54283" lon="6.40617">
        <ele>910.2</ele>
      </trkpt>
      <trkpt lat="44.54288" lon="6.40681">
        <ele>908.7</ele>
      </trkpt>
      <trkpt lat="44.5429" lon="6.40693">
        <ele>909.1</ele>
      </trkpt>
      <trkpt lat="44.54295" lon="6.40704">
        <ele>909.9</ele>
      </trkpt>
      <trkpt lat="44.54303" lon="6.40709">
        <ele>911.3</ele>
      </trkpt>
      <trkpt lat="44.54311" lon="6.40711">
        <ele>912.6</ele>
      </trkpt>
      <trkpt lat="44.54312" lon="6.40712">
        <ele>912.7</ele>
      </trkpt>
      <trkpt lat="44.54319" lon="6.40714">
        <ele>913.7</ele>
      </trkpt>
      <trkpt lat="44.5432" lon="6.40714">
        <ele>913.8</ele>
      </trkpt>
      <trkpt lat="44.54321" lon="6.40715">
        <ele>914</ele>
      </trkpt>
      <trkpt lat="44.54325" lon="6.40717">
        <ele>914.5</ele>
      </trkpt>
      <trkpt lat="44.54329" lon="6.40723">
        <ele>915.2</ele>
      </trkpt>
      <trkpt lat="44.54331" lon="6.40732">
        <ele>916.6</ele>
      </trkpt>
      <trkpt lat="44.54331" lon="6.40743">
        <ele>919.6</ele>
      </trkpt>
      <trkpt lat="44.5433" lon="6.40751">
        <ele>921.1</ele>
      </trkpt>
      <trkpt lat="44.54319" lon="6.40766">
        <ele>914.9</ele>
      </trkpt>
      <trkpt lat="44.54315" lon="6.40776">
        <ele>913.1</ele>
      </trkpt>
      <trkpt lat="44.54315" lon="6.40785">
        <ele>912.7</ele>
      </trkpt>
      <trkpt lat="44.54316" lon="6.40794">
        <ele>912.9</ele>
      </trkpt>
      <trkpt lat="44.54318" lon="6.40799">
        <ele>913.4</ele>
      </trkpt>
      <trkpt lat="44.5432" lon="6.40807">
        <ele>914.3</ele>
      </trkpt>
      <trkpt lat="44.54328" lon="6.40827">
        <ele>920.4</ele>
      </trkpt>
      <trkpt lat="44.54339" lon="6.40863">
        <ele>931.6</ele>
      </trkpt>
      <trkpt lat="44.54339" lon="6.40893">
        <ele>929.5</ele>
      </trkpt>
      <trkpt lat="44.54345" lon="6.40906">
        <ele>927.7</ele>
      </trkpt>
      <trkpt lat="44.54363" lon="6.40929">
        <ele>931.3</ele>
      </trkpt>
      <trkpt lat="44.54363" lon="6.4093">
        <ele>931.4</ele>
      </trkpt>
      <trkpt lat="44.54369" lon="6.40939">
        <ele>933</ele>
      </trkpt>
      <trkpt lat="44.54371" lon="6.40947">
        <ele>933.5</ele>
      </trkpt>
      <trkpt lat="44.54371" lon="6.40954">
        <ele>933.5</ele>
      </trkpt>
      <trkpt lat="44.54366" lon="6.40979">
        <ele>932.3</ele>
      </trkpt>
      <trkpt lat="44.54366" lon="6.40996">
        <ele>931.9</ele>
      </trkpt>
      <trkpt lat="44.54368" lon="6.41009">
        <ele>931.2</ele>
      </trkpt>
      <trkpt lat="44.54384" lon="6.41055">
        <ele>933.7</ele>
      </trkpt>
      <trkpt lat="44.54392" lon="6.41072">
        <ele>935.8</ele>
      </trkpt>
      <trkpt lat="44.54405" lon="6.41086">
        <ele>938.7</ele>
      </trkpt>
      <trkpt lat="44.54428" lon="6.41105">
        <ele>949.7</ele>
      </trkpt>
      <trkpt lat="44.54433" lon="6.4111">
        <ele>950.4</ele>
      </trkpt>
      <trkpt lat="44.54435" lon="6.41116">
        <ele>950.8</ele>
      </trkpt>
      <trkpt lat="44.54436" lon="6.41123">
        <ele>950.9</ele>
      </trkpt>
      <trkpt lat="44.54436" lon="6.41131">
        <ele>950.7</ele>
      </trkpt>
      <trkpt lat="44.54433" lon="6.41137">
        <ele>950</ele>
      </trkpt>
      <trkpt lat="44.54433" lon="6.41138">
        <ele>950</ele>
      </trkpt>
      <trkpt lat="44.54429" lon="6.41146">
        <ele>948.8</ele>
      </trkpt>
      <trkpt lat="44.54422" lon="6.41157">
        <ele>946</ele>
      </trkpt>
      <trkpt lat="44.5442" lon="6.41163">
        <ele>944.1</ele>
      </trkpt>
      <trkpt lat="44.54413" lon="6.41218">
        <ele>931.1</ele>
      </trkpt>
      <trkpt lat="44.54418" lon="6.41229">
        <ele>944.9</ele>
      </trkpt>
      <trkpt lat="44.54424" lon="6.41235">
        <ele>944.4</ele>
      </trkpt>
      <trkpt lat="44.54439" lon="6.41239">
        <ele>946.5</ele>
      </trkpt>
      <trkpt lat="44.54452" lon="6.4124">
        <ele>948.8</ele>
      </trkpt>
      <trkpt lat="44.54481" lon="6.41245">
        <ele>953.6</ele>
      </trkpt>
      <trkpt lat="44.54502" lon="6.41251">
        <ele>959</ele>
      </trkpt>
      <trkpt lat="44.54513" lon="6.41256">
        <ele>963.2</ele>
      </trkpt>
      <trkpt lat="44.54522" lon="6.41262">
        <ele>965.8</ele>
      </trkpt>
      <trkpt lat="44.54538" lon="6.41282">
        <ele>968.9</ele>
      </trkpt>
      <trkpt lat="44.5454" lon="6.4129">
        <ele>969.1</ele>
      </trkpt>
      <trkpt lat="44.54539" lon="6.41297">
        <ele>968.8</ele>
      </trkpt>
      <trkpt lat="44.54536" lon="6.41304">
        <ele>968.3</ele>
      </trkpt>
      <trkpt lat="44.54533" lon="6.41307">
        <ele>967.8</ele>
      </trkpt>
      <trkpt lat="44.54529" lon="6.4131">
        <ele>967.2</ele>
      </trkpt>
      <trkpt lat="44.54521" lon="6.41318">
        <ele>965.6</ele>
      </trkpt>
      <trkpt lat="44.54506" lon="6.41329">
        <ele>961.6</ele>
      </trkpt>
      <trkpt lat="44.54498" lon="6.41337">
        <ele>958.3</ele>
      </trkpt>
      <trkpt lat="44.54492" lon="6.41346">
        <ele>957.1</ele>
      </trkpt>
      <trkpt lat="44.54488" lon="6.41356">
        <ele>956.7</ele>
      </trkpt>
      <trkpt lat="44.54486" lon="6.41364">
        <ele>956.9</ele>
      </trkpt>
      <trkpt lat="44.54484" lon="6.41389">
        <ele>960</ele>
      </trkpt>
      <trkpt lat="44.54482" lon="6.41401">
        <ele>962.1</ele>
      </trkpt>
      <trkpt lat="44.5448" lon="6.4143">
        <ele>970.7</ele>
      </trkpt>
      <trkpt lat="44.54478" lon="6.41442">
        <ele>970.5</ele>
      </trkpt>
      <trkpt lat="44.54476" lon="6.41449">
        <ele>970.5</ele>
      </trkpt>
      <trkpt lat="44.54473" lon="6.41454">
        <ele>970.5</ele>
      </trkpt>
      <trkpt lat="44.54466" lon="6.41461">
        <ele>970.1</ele>
      </trkpt>
      <trkpt lat="44.54461" lon="6.41464">
        <ele>969.6</ele>
      </trkpt>
      <trkpt lat="44.54455" lon="6.41469">
        <ele>969.1</ele>
      </trkpt>
      <trkpt lat="44.54448" lon="6.41477">
        <ele>968.6</ele>
      </trkpt>
      <trkpt lat="44.5444" lon="6.41494">
        <ele>967.8</ele>
      </trkpt>
      <trkpt lat="44.54434" lon="6.41511">
        <ele>974</ele>
      </trkpt>
      <trkpt lat="44.54432" lon="6.41522">
        <ele>975.6</ele>
      </trkpt>
      <trkpt lat="44.5443" lon="6.41542">
        <ele>978.1</ele>
      </trkpt>
      <trkpt lat="44.5443" lon="6.41606">
        <ele>987.5</ele>
      </trkpt>
      <trkpt lat="44.54428" lon="6.41642">
        <ele>990.8</ele>
      </trkpt>
      <trkpt lat="44.5443" lon="6.41672">
        <ele>993.4</ele>
      </trkpt>
      <trkpt lat="44.54436" lon="6.41693">
        <ele>999.1</ele>
      </trkpt>
      <trkpt lat="44.54437" lon="6.41703">
        <ele>1000.2</ele>
      </trkpt>
      <trkpt lat="44.54437" lon="6.41714">
        <ele>1000.3</ele>
      </trkpt>
      <trkpt lat="44.54436" lon="6.41724">
        <ele>999.5</ele>
      </trkpt>
      <trkpt lat="44.54437" lon="6.41731">
        <ele>999</ele>
      </trkpt>
      <trkpt lat="44.5444" lon="6.41741">
        <ele>999</ele>
      </trkpt>
      <trkpt lat="44.54443" lon="6.41748">
        <ele>1000</ele>
      </trkpt>
      <trkpt lat="44.54445" lon="6.41758">
        <ele>1003</ele>
      </trkpt>
      <trkpt lat="44.54445" lon="6.41768">
        <ele>1003.8</ele>
      </trkpt>
      <trkpt lat="44.54443" lon="6.41778">
        <ele>1003.9</ele>
      </trkpt>
      <trkpt lat="44.54442" lon="6.41788">
        <ele>1004.2</ele>
      </trkpt>
      <trkpt lat="44.54439" lon="6.41797">
        <ele>1003.3</ele>
      </trkpt>
      <trkpt lat="44.54441" lon="6.41812">
        <ele>1002.6</ele>
      </trkpt>
      <trkpt lat="44.54449" lon="6.41826">
        <ele>1004.9</ele>
      </trkpt>
      <trkpt lat="44.5445" lon="6.41833">
        <ele>1005.2</ele>
      </trkpt>
      <trkpt lat="44.54449" lon="6.41843">
        <ele>1004.8</ele>
      </trkpt>
      <trkpt lat="44.54445" lon="6.41859">
        <ele>1004.2</ele>
      </trkpt>
      <trkpt lat="44.54445" lon="6.41867">
        <ele>1004.6</ele>
      </trkpt>
      <trkpt lat="44.54447" lon="6.41875">
        <ele>1005.2</ele>
      </trkpt>
      <trkpt lat="44.54447" lon="6.41889">
        <ele>1004.7</ele>
      </trkpt>
      <trkpt lat="44.54448" lon="6.41897">
        <ele>1004.5</ele>
      </trkpt>
      <trkpt lat="44.5445" lon="6.41901">
        <ele>1005.1</ele>
      </trkpt>
      <trkpt lat="44.54463" lon="6.41916">
        <ele>1010.7</ele>
      </trkpt>
      <trkpt lat="44.54467" lon="6.41926">
        <ele>1013.2</ele>
      </trkpt>
      <trkpt lat="44.54467" lon="6.41931">
        <ele>1013</ele>
      </trkpt>
      <trkpt lat="44.54468" lon="6.41937">
        <ele>1013.2</ele>
      </trkpt>
      <trkpt lat="44.54466" lon="6.41946">
        <ele>1012.2</ele>
      </trkpt>
      <trkpt lat="44.54462" lon="6.41953">
        <ele>1011</ele>
      </trkpt>
      <trkpt lat="44.54461" lon="6.41953">
        <ele>1010.7</ele>
      </trkpt>
      <trkpt lat="44.5444" lon="6.41976">
        <ele>1004.2</ele>
      </trkpt>
      <trkpt lat="44.54437" lon="6.41984">
        <ele>1002.3</ele>
      </trkpt>
      <trkpt lat="44.54437" lon="6.41993">
        <ele>1001.1</ele>
      </trkpt>
      <trkpt lat="44.54438" lon="6.42001">
        <ele>1001.5</ele>
      </trkpt>
      <trkpt lat="44.54442" lon="6.42007">
        <ele>1003.7</ele>
      </trkpt>
      <trkpt lat="44.54446" lon="6.42011">
        <ele>1005.7</ele>
      </trkpt>
      <trkpt lat="44.5445" lon="6.42017">
        <ele>1007.6</ele>
      </trkpt>
      <trkpt lat="44.54452" lon="6.42023">
        <ele>1008.5</ele>
      </trkpt>
      <trkpt lat="44.54452" lon="6.42032">
        <ele>1008.6</ele>
      </trkpt>
      <trkpt lat="44.54454" lon="6.42052">
        <ele>1008.8</ele>
      </trkpt>
      <trkpt lat="44.54458" lon="6.42065">
        <ele>1009.7</ele>
      </trkpt>
      <trkpt lat="44.54474" lon="6.42091">
        <ele>1012.2</ele>
      </trkpt>
      <trkpt lat="44.54495" lon="6.42133">
        <ele>1010.6</ele>
      </trkpt>
      <trkpt lat="44.54502" lon="6.42144">
        <ele>1027.5</ele>
      </trkpt>
      <trkpt lat="44.54506" lon="6.42147">
        <ele>1027</ele>
      </trkpt>
      <trkpt lat="44.54508" lon="6.42148">
        <ele>1027</ele>
      </trkpt>
      <trkpt lat="44.54512" lon="6.42149">
        <ele>1027.6</ele>
      </trkpt>
      <trkpt lat="44.54525" lon="6.42149">
        <ele>1031</ele>
      </trkpt>
      <trkpt lat="44.5453" lon="6.42151">
        <ele>1032.1</ele>
      </trkpt>
      <trkpt lat="44.54536" lon="6.42163">
        <ele>1032.9</ele>
      </trkpt>
      <trkpt lat="44.54539" lon="6.4218">
        <ele>1028.8</ele>
      </trkpt>
      <trkpt lat="44.54542" lon="6.42188">
        <ele>1029.5</ele>
      </trkpt>
      <trkpt lat="44.54543" lon="6.42188">
        <ele>1029.7</ele>
      </trkpt>
      <trkpt lat="44.54553" lon="6.422">
        <ele>1031.4</ele>
      </trkpt>
      <trkpt lat="44.54556" lon="6.42207">
        <ele>1031.7</ele>
      </trkpt>
      <trkpt lat="44.54557" lon="6.42214">
        <ele>1031.9</ele>
      </trkpt>
      <trkpt lat="44.54555" lon="6.42222">
        <ele>1031.7</ele>
      </trkpt>
      <trkpt lat="44.54552" lon="6.42228">
        <ele>1031.2</ele>
      </trkpt>
      <trkpt lat="44.54539" lon="6.42246">
        <ele>1028.3</ele>
      </trkpt>
      <trkpt lat="44.54531" lon="6.42259">
        <ele>1025.7</ele>
      </trkpt>
      <trkpt lat="44.54528" lon="6.42266">
        <ele>1025.2</ele>
      </trkpt>
      <trkpt lat="44.54526" lon="6.42278">
        <ele>1025.4</ele>
      </trkpt>
      <trkpt lat="44.54525" lon="6.42292">
        <ele>1025.5</ele>
      </trkpt>
      <trkpt lat="44.54527" lon="6.42304">
        <ele>1025.6</ele>
      </trkpt>
      <trkpt lat="44.5453" lon="6.42313">
        <ele>1025.8</ele>
      </trkpt>
      <trkpt lat="44.54531" lon="6.42314">
        <ele>1025.9</ele>
      </trkpt>
      <trkpt lat="44.54534" lon="6.4232">
        <ele>1026.4</ele>
      </trkpt>
      <trkpt lat="44.54539" lon="6.42325">
        <ele>1027.5</ele>
      </trkpt>
      <trkpt lat="44.54564" lon="6.42342">
        <ele>1031.5</ele>
      </trkpt>
      <trkpt lat="44.54573" lon="6.42351">
        <ele>1032.3</ele>
      </trkpt>
      <trkpt lat="44.5458" lon="6.4236">
        <ele>1031.3</ele>
      </trkpt>
      <trkpt lat="44.54586" lon="6.42375">
        <ele>1050.7</ele>
      </trkpt>
      <trkpt lat="44.54596" lon="6.42415">
        <ele>1044.7</ele>
      </trkpt>
      <trkpt lat="44.54606" lon="6.42442">
        <ele>1050.8</ele>
      </trkpt>
      <trkpt lat="44.54606" lon="6.42445">
        <ele>1051.1</ele>
      </trkpt>
      <trkpt lat="44.54608" lon="6.42453">
        <ele>1052</ele>
      </trkpt>
      <trkpt lat="44.54606" lon="6.42477">
        <ele>1051.3</ele>
      </trkpt>
      <trkpt lat="44.54596" lon="6.42505">
        <ele>1047.2</ele>
      </trkpt>
      <trkpt lat="44.54594" lon="6.42516">
        <ele>1049</ele>
      </trkpt>
      <trkpt lat="44.54593" lon="6.42519">
        <ele>1049.5</ele>
      </trkpt>
      <trkpt lat="44.54594" lon="6.4255">
        <ele>1052.3</ele>
      </trkpt>
      <trkpt lat="44.54597" lon="6.42564">
        <ele>1051.4</ele>
      </trkpt>
      <trkpt lat="44.54597" lon="6.42566">
        <ele>1051.1</ele>
      </trkpt>
      <trkpt lat="44.54616" lon="6.42642">
        <ele>1053.5</ele>
      </trkpt>
      <trkpt lat="44.54619" lon="6.42648">
        <ele>1053.8</ele>
      </trkpt>
      <trkpt lat="44.54622" lon="6.4265">
        <ele>1054.5</ele>
      </trkpt>
      <trkpt lat="44.54626" lon="6.42651">
        <ele>1055.4</ele>
      </trkpt>
      <trkpt lat="44.5463" lon="6.42647">
        <ele>1056.4</ele>
      </trkpt>
      <trkpt lat="44.54632" lon="6.42639">
        <ele>1056.9</ele>
      </trkpt>
      <trkpt lat="44.54625" lon="6.42616">
        <ele>1056.3</ele>
      </trkpt>
      <trkpt lat="44.54623" lon="6.42603">
        <ele>1056.2</ele>
      </trkpt>
      <trkpt lat="44.54621" lon="6.42572">
        <ele>1057.2</ele>
      </trkpt>
      <trkpt lat="44.54621" lon="6.42542">
        <ele>1057.2</ele>
      </trkpt>
      <trkpt lat="44.54623" lon="6.42529">
        <ele>1057.4</ele>
      </trkpt>
      <trkpt lat="44.54636" lon="6.42497">
        <ele>1059.9</ele>
      </trkpt>
      <trkpt lat="44.5464" lon="6.42478">
        <ele>1059.9</ele>
      </trkpt>
      <trkpt lat="44.54645" lon="6.42466">
        <ele>1060.2</ele>
      </trkpt>
      <trkpt lat="44.5465" lon="6.42457">
        <ele>1060.7</ele>
      </trkpt>
      <trkpt lat="44.54651" lon="6.42451">
        <ele>1061</ele>
      </trkpt>
      <trkpt lat="44.54651" lon="6.42445">
        <ele>1061.3</ele>
      </trkpt>
      <trkpt lat="44.5465" lon="6.42437">
        <ele>1061.9</ele>
      </trkpt>
      <trkpt lat="44.54651" lon="6.42416">
        <ele>1065.3</ele>
      </trkpt>
      <trkpt lat="44.54655" lon="6.42388">
        <ele>1063.4</ele>
      </trkpt>
      <trkpt lat="44.54658" lon="6.42375">
        <ele>1063.7</ele>
      </trkpt>
      <trkpt lat="44.54662" lon="6.42364">
        <ele>1065.3</ele>
      </trkpt>
      <trkpt lat="44.54662" lon="6.42363">
        <ele>1065.5</ele>
      </trkpt>
      <trkpt lat="44.54665" lon="6.42355">
        <ele>1067.6</ele>
      </trkpt>
      <trkpt lat="44.54666" lon="6.42347">
        <ele>1070.5</ele>
      </trkpt>
      <trkpt lat="44.54667" lon="6.42285">
        <ele>1090.7</ele>
      </trkpt>
      <trkpt lat="44.54682" lon="6.42219">
        <ele>1090.3</ele>
      </trkpt>
      <trkpt lat="44.54704" lon="6.42159">
        <ele>1092</ele>
      </trkpt>
      <trkpt lat="44.54709" lon="6.42148">
        <ele>1093.5</ele>
      </trkpt>
      <trkpt lat="44.5471" lon="6.42139">
        <ele>1093.8</ele>
      </trkpt>
      <trkpt lat="44.5471" lon="6.4213">
        <ele>1093.9</ele>
      </trkpt>
      <trkpt lat="44.54703" lon="6.4211">
        <ele>1093.1</ele>
      </trkpt>
      <trkpt lat="44.54702" lon="6.42102">
        <ele>1092.9</ele>
      </trkpt>
      <trkpt lat="44.54701" lon="6.421">
        <ele>1092.7</ele>
      </trkpt>
      <trkpt lat="44.54704" lon="6.42027">
        <ele>1098</ele>
      </trkpt>
      <trkpt lat="44.54709" lon="6.41988">
        <ele>1101.1</ele>
      </trkpt>
      <trkpt lat="44.5471" lon="6.41986">
        <ele>1101.3</ele>
      </trkpt>
      <trkpt lat="44.54715" lon="6.41965">
        <ele>1101.9</ele>
      </trkpt>
      <trkpt lat="44.54724" lon="6.41939">
        <ele>1103.4</ele>
      </trkpt>
      <trkpt lat="44.54735" lon="6.41919">
        <ele>1106.8</ele>
      </trkpt>
      <trkpt lat="44.54743" lon="6.41947">
        <ele>1105.2</ele>
      </trkpt>
      <trkpt lat="44.54746" lon="6.41967">
        <ele>1105.2</ele>
      </trkpt>
      <trkpt lat="44.54746" lon="6.41971">
        <ele>1105.5</ele>
      </trkpt>
      <trkpt lat="44.54759" lon="6.42036">
        <ele>1117.9</ele>
      </trkpt>
      <trkpt lat="44.54767" lon="6.42057">
        <ele>1117.8</ele>
      </trkpt>
      <trkpt lat="44.54773" lon="6.4208">
        <ele>1117.2</ele>
      </trkpt>
      <trkpt lat="44.54778" lon="6.42089">
        <ele>1118.1</ele>
      </trkpt>
      <trkpt lat="44.54783" lon="6.42096">
        <ele>1119.3</ele>
      </trkpt>
      <trkpt lat="44.54792" lon="6.42101">
        <ele>1121.2</ele>
      </trkpt>
      <trkpt lat="44.54808" lon="6.4212">
        <ele>1123.5</ele>
      </trkpt>
      <trkpt lat="44.54818" lon="6.42141">
        <ele>1125.3</ele>
      </trkpt>
      <trkpt lat="44.54823" lon="6.42163">
        <ele>1129.3</ele>
      </trkpt>
      <trkpt lat="44.54825" lon="6.42179">
        <ele>1129.7</ele>
      </trkpt>
      <trkpt lat="44.54825" lon="6.42193">
        <ele>1128.4</ele>
      </trkpt>
      <trkpt lat="44.54822" lon="6.42207">
        <ele>1128.2</ele>
      </trkpt>
      <trkpt lat="44.54811" lon="6.42238">
        <ele>1129.8</ele>
      </trkpt>
      <trkpt lat="44.54811" lon="6.4224">
        <ele>1130</ele>
      </trkpt>
      <trkpt lat="44.54808" lon="6.42248">
        <ele>1129.7</ele>
      </trkpt>
      <trkpt lat="44.54807" lon="6.42256">
        <ele>1131.7</ele>
      </trkpt>
      <trkpt lat="44.54806" lon="6.42259">
        <ele>1131.3</ele>
      </trkpt>
      <trkpt lat="44.54812" lon="6.42291">
        <ele>1131.3</ele>
      </trkpt>
      <trkpt lat="44.54821" lon="6.42316">
        <ele>1134.3</ele>
      </trkpt>
      <trkpt lat="44.54829" lon="6.42343">
        <ele>1137.1</ele>
      </trkpt>
      <trkpt lat="44.54834" lon="6.42369">
        <ele>1145.1</ele>
      </trkpt>
      <trkpt lat="44.54841" lon="6.42393">
        <ele>1144</ele>
      </trkpt>
      <trkpt lat="44.5485" lon="6.42364">
        <ele>1145.9</ele>
      </trkpt>
      <trkpt lat="44.54855" lon="6.42341">
        <ele>1145.9</ele>
      </trkpt>
      <trkpt lat="44.54856" lon="6.4233">
        <ele>1146.5</ele>
      </trkpt>
      <trkpt lat="44.54855" lon="6.42341">
        <ele>1145.9</ele>
      </trkpt>
      <trkpt lat="44.5485" lon="6.42364">
        <ele>1145.9</ele>
      </trkpt>
      <trkpt lat="44.54841" lon="6.42393">
        <ele>1144</ele>
      </trkpt>
      <trkpt lat="44.54844" lon="6.42405">
        <ele>1142.7</ele>
      </trkpt>
      <trkpt lat="44.54855" lon="6.42426">
        <ele>1142.4</ele>
      </trkpt>
      <trkpt lat="44.54884" lon="6.42493">
        <ele>1145.2</ele>
      </trkpt>
      <trkpt lat="44.54888" lon="6.425">
        <ele>1145.8</ele>
      </trkpt>
      <trkpt lat="44.54909" lon="6.42529">
        <ele>1143.1</ele>
      </trkpt>
      <trkpt lat="44.54924" lon="6.42556">
        <ele>1149.1</ele>
      </trkpt>
      <trkpt lat="44.54924" lon="6.42557">
        <ele>1149</ele>
      </trkpt>
      <trkpt lat="44.54934" lon="6.42571">
        <ele>1148.3</ele>
      </trkpt>
      <trkpt lat="44.54945" lon="6.42582">
        <ele>1148.7</ele>
      </trkpt>
      <trkpt lat="44.54957" lon="6.4259">
        <ele>1141.9</ele>
      </trkpt>
      <trkpt lat="44.54978" lon="6.426">
        <ele>1142.3</ele>
      </trkpt>
      <trkpt lat="44.54989" lon="6.42604">
        <ele>1142.6</ele>
      </trkpt>
      <trkpt lat="44.54998" lon="6.42606">
        <ele>1142.6</ele>
      </trkpt>
      <trkpt lat="44.55012" lon="6.42606">
        <ele>1142.7</ele>
      </trkpt>
      <trkpt lat="44.55107" lon="6.42588">
        <ele>1142.9</ele>
      </trkpt>
      <trkpt lat="44.55158" lon="6.4257">
        <ele>1150</ele>
      </trkpt>
      <trkpt lat="44.55193" lon="6.42565">
        <ele>1153.4</ele>
      </trkpt>
      <trkpt lat="44.55229" lon="6.42564">
        <ele>1154.1</ele>
      </trkpt>
      <trkpt lat="44.55234" lon="6.42566">
        <ele>1153.8</ele>
      </trkpt>
      <trkpt lat="44.55239" lon="6.42567">
        <ele>1153.4</ele>
      </trkpt>
      <trkpt lat="44.55249" lon="6.42571">
        <ele>1152.5</ele>
      </trkpt>
      <trkpt lat="44.55278" lon="6.42591">
        <ele>1150.2</ele>
      </trkpt>
      <trkpt lat="44.55291" lon="6.42598">
        <ele>1150.8</ele>
      </trkpt>
      <trkpt lat="44.55334" lon="6.42614">
        <ele>1155.7</ele>
      </trkpt>
      <trkpt lat="44.55356" lon="6.42624">
        <ele>1154.5</ele>
      </trkpt>
      <trkpt lat="44.5537" lon="6.42629">
        <ele>1154.2</ele>
      </trkpt>
      <trkpt lat="44.55374" lon="6.42631">
        <ele>1154.1</ele>
      </trkpt>
      <trkpt lat="44.55385" lon="6.42633">
        <ele>1154</ele>
      </trkpt>
      <trkpt lat="44.55388" lon="6.42632">
        <ele>1154.1</ele>
      </trkpt>
      <trkpt lat="44.55399" lon="6.42631">
        <ele>1154.1</ele>
      </trkpt>
      <trkpt lat="44.55434" lon="6.42622">
        <ele>1155.2</ele>
      </trkpt>
      <trkpt lat="44.55446" lon="6.42618">
        <ele>1155.5</ele>
      </trkpt>
      <trkpt lat="44.55459" lon="6.42616">
        <ele>1155.5</ele>
      </trkpt>
      <trkpt lat="44.55484" lon="6.42619">
        <ele>1155.5</ele>
      </trkpt>
      <trkpt lat="44.55491" lon="6.42619">
        <ele>1155.5</ele>
      </trkpt>
      <trkpt lat="44.55497" lon="6.42618">
        <ele>1155.6</ele>
      </trkpt>
      <trkpt lat="44.55508" lon="6.42613">
        <ele>1158.2</ele>
      </trkpt>
      <trkpt lat="44.5555" lon="6.42585">
        <ele>1160.5</ele>
      </trkpt>
      <trkpt lat="44.55558" lon="6.42581">
        <ele>1166.1</ele>
      </trkpt>
      <trkpt lat="44.55565" lon="6.4258">
        <ele>1166</ele>
      </trkpt>
      <trkpt lat="44.55574" lon="6.42584">
        <ele>1163.1</ele>
      </trkpt>
      <trkpt lat="44.55585" lon="6.42593">
        <ele>1165.6</ele>
      </trkpt>
      <trkpt lat="44.55587" lon="6.42596">
        <ele>1165.7</ele>
      </trkpt>
      <trkpt lat="44.55593" lon="6.42611">
        <ele>1165.9</ele>
      </trkpt>
      <trkpt lat="44.55593" lon="6.4262">
        <ele>1165.7</ele>
      </trkpt>
      <trkpt lat="44.55592" lon="6.42628">
        <ele>1165.3</ele>
      </trkpt>
      <trkpt lat="44.55588" lon="6.42635">
        <ele>1164.7</ele>
      </trkpt>
      <trkpt lat="44.55584" lon="6.42645">
        <ele>1163.6</ele>
      </trkpt>
      <trkpt lat="44.55583" lon="6.42652">
        <ele>1158.9</ele>
      </trkpt>
      <trkpt lat="44.55583" lon="6.42665">
        <ele>1159</ele>
      </trkpt>
      <trkpt lat="44.55585" lon="6.42678">
        <ele>1161.1</ele>
      </trkpt>
      <trkpt lat="44.55597" lon="6.42712">
        <ele>1163.2</ele>
      </trkpt>
      <trkpt lat="44.55615" lon="6.42751">
        <ele>1162.4</ele>
      </trkpt>
      <trkpt lat="44.55622" lon="6.42762">
        <ele>1162.8</ele>
      </trkpt>
      <trkpt lat="44.5563" lon="6.42772">
        <ele>1163.1</ele>
      </trkpt>
      <trkpt lat="44.5569" lon="6.42836">
        <ele>1167.2</ele>
      </trkpt>
      <trkpt lat="44.55715" lon="6.42858">
        <ele>1168.9</ele>
      </trkpt>
      <trkpt lat="44.55724" lon="6.42869">
        <ele>1169.1</ele>
      </trkpt>
      <trkpt lat="44.55734" lon="6.42879">
        <ele>1169.3</ele>
      </trkpt>
      <trkpt lat="44.55752" lon="6.429">
        <ele>1174.3</ele>
      </trkpt>
      <trkpt lat="44.55781" lon="6.4293">
        <ele>1174.8</ele>
      </trkpt>
      <trkpt lat="44.55783" lon="6.42933">
        <ele>1175</ele>
      </trkpt>
      <trkpt lat="44.55812" lon="6.42956">
        <ele>1176.9</ele>
      </trkpt>
      <trkpt lat="44.55814" lon="6.42956">
        <ele>1177</ele>
      </trkpt>
      <trkpt lat="44.55821" lon="6.42959">
        <ele>1177.3</ele>
      </trkpt>
      <trkpt lat="44.55819" lon="6.43096">
        <ele>1177.9</ele>
      </trkpt>
      <trkpt lat="44.5582" lon="6.43099">
        <ele>1177.8</ele>
      </trkpt>
      <trkpt lat="44.5583" lon="6.43171">
        <ele>1178.6</ele>
      </trkpt>
      <trkpt lat="44.55836" lon="6.43195">
        <ele>1183.8</ele>
      </trkpt>
      <trkpt lat="44.55836" lon="6.43197">
        <ele>1183.8</ele>
      </trkpt>
      <trkpt lat="44.55839" lon="6.43211">
        <ele>1183.9</ele>
      </trkpt>
      <trkpt lat="44.55839" lon="6.4322">
        <ele>1183.4</ele>
      </trkpt>
      <trkpt lat="44.5584" lon="6.43223">
        <ele>1183.3</ele>
      </trkpt>
      <trkpt lat="44.5584" lon="6.43249">
        <ele>1179.5</ele>
      </trkpt>
      <trkpt lat="44.55832" lon="6.43303">
        <ele>1176</ele>
      </trkpt>
      <trkpt lat="44.55823" lon="6.43348">
        <ele>1179.1</ele>
      </trkpt>
      <trkpt lat="44.55819" lon="6.43359">
        <ele>1178.4</ele>
      </trkpt>
      <trkpt lat="44.55795" lon="6.43385">
        <ele>1176.8</ele>
      </trkpt>
      <trkpt lat="44.55791" lon="6.43391">
        <ele>1176.6</ele>
      </trkpt>
      <trkpt lat="44.55783" lon="6.434">
        <ele>1175.9</ele>
      </trkpt>
      <trkpt lat="44.55779" lon="6.43409">
        <ele>1175.4</ele>
      </trkpt>
      <trkpt lat="44.55779" lon="6.4341">
        <ele>1175.4</ele>
      </trkpt>
      <trkpt lat="44.55777" lon="6.43415">
        <ele>1175.2</ele>
      </trkpt>
      <trkpt lat="44.55769" lon="6.43462">
        <ele>1176.6</ele>
      </trkpt>
      <trkpt lat="44.55762" lon="6.43481">
        <ele>1175.1</ele>
      </trkpt>
      <trkpt lat="44.55747" lon="6.43504">
        <ele>1169.6</ele>
      </trkpt>
      <trkpt lat="44.55724" lon="6.43535">
        <ele>1168.7</ele>
      </trkpt>
      <trkpt lat="44.55703" lon="6.4357">
        <ele>1168.5</ele>
      </trkpt>
      <trkpt lat="44.55682" lon="6.43612">
        <ele>1171.8</ele>
      </trkpt>
      <trkpt lat="44.55677" lon="6.43628">
        <ele>1172.3</ele>
      </trkpt>
      <trkpt lat="44.55656" lon="6.43683">
        <ele>1167.4</ele>
      </trkpt>
      <trkpt lat="44.55649" lon="6.43696">
        <ele>1166.7</ele>
      </trkpt>
      <trkpt lat="44.55575" lon="6.43808">
        <ele>1157.3</ele>
      </trkpt>
      <trkpt lat="44.55563" lon="6.43836">
        <ele>1158.5</ele>
      </trkpt>
      <trkpt lat="44.55561" lon="6.43846">
        <ele>1157.7</ele>
      </trkpt>
      <trkpt lat="44.55559" lon="6.43878">
        <ele>1156.4</ele>
      </trkpt>
      <trkpt lat="44.55567" lon="6.43978">
        <ele>1157.4</ele>
      </trkpt>
      <trkpt lat="44.55578" lon="6.44063">
        <ele>1157</ele>
      </trkpt>
      <trkpt lat="44.55583" lon="6.44129">
        <ele>1156.4</ele>
      </trkpt>
      <trkpt lat="44.5558" lon="6.44195">
        <ele>1156</ele>
      </trkpt>
      <trkpt lat="44.55576" lon="6.4422">
        <ele>1155.4</ele>
      </trkpt>
      <trkpt lat="44.55547" lon="6.44339">
        <ele>1148.7</ele>
      </trkpt>
      <trkpt lat="44.5554" lon="6.44377">
        <ele>1147</ele>
      </trkpt>
      <trkpt lat="44.55537" lon="6.4441">
        <ele>1146</ele>
      </trkpt>
      <trkpt lat="44.55537" lon="6.44447">
        <ele>1143</ele>
      </trkpt>
      <trkpt lat="44.55544" lon="6.4454">
        <ele>1137.1</ele>
      </trkpt>
      <trkpt lat="44.55553" lon="6.44615">
        <ele>1132.7</ele>
      </trkpt>
      <trkpt lat="44.55553" lon="6.44635">
        <ele>1131.9</ele>
      </trkpt>
      <trkpt lat="44.5555" lon="6.44657">
        <ele>1131.3</ele>
      </trkpt>
      <trkpt lat="44.55545" lon="6.44681">
        <ele>1126.9</ele>
      </trkpt>
      <trkpt lat="44.55542" lon="6.44703">
        <ele>1125.9</ele>
      </trkpt>
      <trkpt lat="44.55546" lon="6.44805">
        <ele>1121.7</ele>
      </trkpt>
      <trkpt lat="44.55535" lon="6.44851">
        <ele>1116.2</ele>
      </trkpt>
      <trkpt lat="44.55529" lon="6.44889">
        <ele>1114.2</ele>
      </trkpt>
      <trkpt lat="44.55531" lon="6.45033">
        <ele>1102.9</ele>
      </trkpt>
      <trkpt lat="44.55533" lon="6.4506">
        <ele>1101.2</ele>
      </trkpt>
      <trkpt lat="44.55532" lon="6.45086">
        <ele>1090.9</ele>
      </trkpt>
      <trkpt lat="44.55534" lon="6.45116">
        <ele>1088.8</ele>
      </trkpt>
      <trkpt lat="44.55536" lon="6.45122">
        <ele>1088.3</ele>
      </trkpt>
      <trkpt lat="44.55538" lon="6.45126">
        <ele>1087.9</ele>
      </trkpt>
      <trkpt lat="44.55539" lon="6.45127">
        <ele>1087.9</ele>
      </trkpt>
      <trkpt lat="44.55539" lon="6.45128">
        <ele>1087.8</ele>
      </trkpt>
      <trkpt lat="44.55542" lon="6.45131">
        <ele>1087.6</ele>
      </trkpt>
      <trkpt lat="44.55553" lon="6.45138">
        <ele>1087.2</ele>
      </trkpt>
      <trkpt lat="44.55555" lon="6.45138">
        <ele>1087.3</ele>
      </trkpt>
      <trkpt lat="44.55557" lon="6.45139">
        <ele>1087.2</ele>
      </trkpt>
      <trkpt lat="44.55595" lon="6.45141">
        <ele>1090.7</ele>
      </trkpt>
      <trkpt lat="44.55607" lon="6.45135">
        <ele>1092.5</ele>
      </trkpt>
      <trkpt lat="44.55608" lon="6.45135">
        <ele>1092.6</ele>
      </trkpt>
      <trkpt lat="44.55619" lon="6.45125">
        <ele>1094.6</ele>
      </trkpt>
      <trkpt lat="44.55621" lon="6.45125">
        <ele>1094.7</ele>
      </trkpt>
      <trkpt lat="44.55626" lon="6.45123">
        <ele>1095.1</ele>
      </trkpt>
      <trkpt lat="44.55635" lon="6.45122">
        <ele>1095.6</ele>
      </trkpt>
      <trkpt lat="44.55649" lon="6.45125">
        <ele>1095.2</ele>
      </trkpt>
      <trkpt lat="44.55722" lon="6.45159">
        <ele>1099.1</ele>
      </trkpt>
      <trkpt lat="44.55744" lon="6.45176">
        <ele>1085.2</ele>
      </trkpt>
      <trkpt lat="44.55777" lon="6.45198">
        <ele>1087.3</ele>
      </trkpt>
      <trkpt lat="44.55809" lon="6.45214">
        <ele>1087.8</ele>
      </trkpt>
      <trkpt lat="44.5581" lon="6.45215">
        <ele>1087.7</ele>
      </trkpt>
      <trkpt lat="44.55811" lon="6.45217">
        <ele>1087.5</ele>
      </trkpt>
      <trkpt lat="44.55812" lon="6.45218">
        <ele>1087.4</ele>
      </trkpt>
      <trkpt lat="44.55819" lon="6.45237">
        <ele>1085</ele>
      </trkpt>
      <trkpt lat="44.55829" lon="6.45259">
        <ele>1076.2</ele>
      </trkpt>
      <trkpt lat="44.55833" lon="6.4527">
        <ele>1071.9</ele>
      </trkpt>
      <trkpt lat="44.55885" lon="6.45366">
        <ele>1072.7</ele>
      </trkpt>
      <trkpt lat="44.55895" lon="6.45387">
        <ele>1070.8</ele>
      </trkpt>
      <trkpt lat="44.55918" lon="6.45446">
        <ele>1069.8</ele>
      </trkpt>
      <trkpt lat="44.55937" lon="6.45488">
        <ele>1062.8</ele>
      </trkpt>
      <trkpt lat="44.55938" lon="6.45489">
        <ele>1062.9</ele>
      </trkpt>
      <trkpt lat="44.55955" lon="6.45519">
        <ele>1055.3</ele>
      </trkpt>
      <trkpt lat="44.55957" lon="6.45524">
        <ele>1055.4</ele>
      </trkpt>
      <trkpt lat="44.55967" lon="6.4556">
        <ele>1055.2</ele>
      </trkpt>
      <trkpt lat="44.55988" lon="6.45619">
        <ele>1057.2</ele>
      </trkpt>
      <trkpt lat="44.55989" lon="6.45624">
        <ele>1057.6</ele>
      </trkpt>
      <trkpt lat="44.55989" lon="6.45635">
        <ele>1058.7</ele>
      </trkpt>
      <trkpt lat="44.55986" lon="6.45645">
        <ele>1059.9</ele>
      </trkpt>
      <trkpt lat="44.55982" lon="6.45654">
        <ele>1060.6</ele>
      </trkpt>
      <trkpt lat="44.5598" lon="6.45656">
        <ele>1060.3</ele>
      </trkpt>
      <trkpt lat="44.55953" lon="6.45698">
        <ele>1060.6</ele>
      </trkpt>
      <trkpt lat="44.55929" lon="6.45724">
        <ele>1058.1</ele>
      </trkpt>
      <trkpt lat="44.55925" lon="6.45726">
        <ele>1057.6</ele>
      </trkpt>
      <trkpt lat="44.55903" lon="6.45729">
        <ele>1041.1</ele>
      </trkpt>
      <trkpt lat="44.55896" lon="6.45732">
        <ele>1040.3</ele>
      </trkpt>
      <trkpt lat="44.55895" lon="6.45734">
        <ele>1040.3</ele>
      </trkpt>
      <trkpt lat="44.55886" lon="6.45743">
        <ele>1039</ele>
      </trkpt>
      <trkpt lat="44.5588" lon="6.45755">
        <ele>1046.7</ele>
      </trkpt>
      <trkpt lat="44.55855" lon="6.45791">
        <ele>1045.6</ele>
      </trkpt>
      <trkpt lat="44.55835" lon="6.45808">
        <ele>1044.8</ele>
      </trkpt>
      <trkpt lat="44.55831" lon="6.45815">
        <ele>1031.6</ele>
      </trkpt>
      <trkpt lat="44.55826" lon="6.45829">
        <ele>1035.9</ele>
      </trkpt>
      <trkpt lat="44.55824" lon="6.45831">
        <ele>1035.3</ele>
      </trkpt>
      <trkpt lat="44.55821" lon="6.45836">
        <ele>1038.2</ele>
      </trkpt>
      <trkpt lat="44.55799" lon="6.45858">
        <ele>1033.4</ele>
      </trkpt>
      <trkpt lat="44.55793" lon="6.45869">
        <ele>1032.9</ele>
      </trkpt>
      <trkpt lat="44.5579" lon="6.4588">
        <ele>1033</ele>
      </trkpt>
      <trkpt lat="44.55783" lon="6.45896">
        <ele>1032.2</ele>
      </trkpt>
      <trkpt lat="44.55781" lon="6.45897">
        <ele>1031.8</ele>
      </trkpt>
      <trkpt lat="44.55767" lon="6.45909">
        <ele>1027.9</ele>
      </trkpt>
      <trkpt lat="44.55765" lon="6.4591">
        <ele>1027.2</ele>
      </trkpt>
      <trkpt lat="44.55763" lon="6.45912">
        <ele>1026.5</ele>
      </trkpt>
      <trkpt lat="44.55762" lon="6.45915">
        <ele>1026</ele>
      </trkpt>
      <trkpt lat="44.55758" lon="6.45923">
        <ele>1025.4</ele>
      </trkpt>
      <trkpt lat="44.55756" lon="6.45931">
        <ele>1026.6</ele>
      </trkpt>
      <trkpt lat="44.55756" lon="6.4595">
        <ele>1028.2</ele>
      </trkpt>
      <trkpt lat="44.55758" lon="6.45955">
        <ele>1028.3</ele>
      </trkpt>
      <trkpt lat="44.55758" lon="6.45956">
        <ele>1028.2</ele>
      </trkpt>
      <trkpt lat="44.5576" lon="6.45958">
        <ele>1028.3</ele>
      </trkpt>
      <trkpt lat="44.55762" lon="6.45959">
        <ele>1028.5</ele>
      </trkpt>
      <trkpt lat="44.55769" lon="6.45965">
        <ele>1029</ele>
      </trkpt>
      <trkpt lat="44.55774" lon="6.45966">
        <ele>1029.9</ele>
      </trkpt>
      <trkpt lat="44.55777" lon="6.45968">
        <ele>1030.4</ele>
      </trkpt>
      <trkpt lat="44.5578" lon="6.45971">
        <ele>1030.8</ele>
      </trkpt>
      <trkpt lat="44.55781" lon="6.45973">
        <ele>1030.8</ele>
      </trkpt>
      <trkpt lat="44.55781" lon="6.45975">
        <ele>1030.7</ele>
      </trkpt>
      <trkpt lat="44.55783" lon="6.4598">
        <ele>1030.8</ele>
      </trkpt>
      <trkpt lat="44.55783" lon="6.45985">
        <ele>1030.4</ele>
      </trkpt>
      <trkpt lat="44.55781" lon="6.45993">
        <ele>1029.1</ele>
      </trkpt>
      <trkpt lat="44.5578" lon="6.46003">
        <ele>1024.9</ele>
      </trkpt>
      <trkpt lat="44.55781" lon="6.46035">
        <ele>1026</ele>
      </trkpt>
      <trkpt lat="44.5578" lon="6.46036">
        <ele>1025.8</ele>
      </trkpt>
      <trkpt lat="44.55777" lon="6.46042">
        <ele>1025.1</ele>
      </trkpt>
      <trkpt lat="44.55765" lon="6.46053">
        <ele>1022.3</ele>
      </trkpt>
      <trkpt lat="44.55757" lon="6.46063">
        <ele>1019.3</ele>
      </trkpt>
      <trkpt lat="44.55755" lon="6.46069">
        <ele>1017.3</ele>
      </trkpt>
      <trkpt lat="44.55752" lon="6.46074">
        <ele>1014.9</ele>
      </trkpt>
      <trkpt lat="44.5574" lon="6.46106">
        <ele>999.3</ele>
      </trkpt>
      <trkpt lat="44.55736" lon="6.46123">
        <ele>997.5</ele>
      </trkpt>
      <trkpt lat="44.55735" lon="6.46138">
        <ele>998.1</ele>
      </trkpt>
      <trkpt lat="44.55737" lon="6.46164">
        <ele>1002.7</ele>
      </trkpt>
      <trkpt lat="44.55765" lon="6.46285">
        <ele>1006</ele>
      </trkpt>
      <trkpt lat="44.55765" lon="6.46288">
        <ele>1005.9</ele>
      </trkpt>
      <trkpt lat="44.55766" lon="6.46293">
        <ele>1005.7</ele>
      </trkpt>
      <trkpt lat="44.55766" lon="6.46306">
        <ele>1004.1</ele>
      </trkpt>
      <trkpt lat="44.55765" lon="6.46309">
        <ele>1003.5</ele>
      </trkpt>
      <trkpt lat="44.55765" lon="6.46311">
        <ele>1003.1</ele>
      </trkpt>
      <trkpt lat="44.55764" lon="6.46315">
        <ele>1002.1</ele>
      </trkpt>
      <trkpt lat="44.55762" lon="6.46319">
        <ele>1000.7</ele>
      </trkpt>
      <trkpt lat="44.55761" lon="6.46325">
        <ele>998.9</ele>
      </trkpt>
      <trkpt lat="44.55762" lon="6.464">
        <ele>995.6</ele>
      </trkpt>
      <trkpt lat="44.55756" lon="6.46426">
        <ele>990.8</ele>
      </trkpt>
      <trkpt lat="44.55753" lon="6.46435">
        <ele>991.2</ele>
      </trkpt>
      <trkpt lat="44.55749" lon="6.46453">
        <ele>977.5</ele>
      </trkpt>
      <trkpt lat="44.55741" lon="6.46473">
        <ele>976.6</ele>
      </trkpt>
      <trkpt lat="44.55734" lon="6.46495">
        <ele>977.3</ele>
      </trkpt>
      <trkpt lat="44.55732" lon="6.46504">
        <ele>975.1</ele>
      </trkpt>
      <trkpt lat="44.55729" lon="6.46529">
        <ele>971.8</ele>
      </trkpt>
      <trkpt lat="44.55729" lon="6.46541">
        <ele>971</ele>
      </trkpt>
      <trkpt lat="44.55733" lon="6.46557">
        <ele>971</ele>
      </trkpt>
      <trkpt lat="44.55744" lon="6.46586">
        <ele>972</ele>
      </trkpt>
      <trkpt lat="44.55753" lon="6.46603">
        <ele>975</ele>
      </trkpt>
      <trkpt lat="44.55754" lon="6.46604">
        <ele>975</ele>
      </trkpt>
      <trkpt lat="44.55763" lon="6.46619">
        <ele>974.5</ele>
      </trkpt>
      <trkpt lat="44.55764" lon="6.46619">
        <ele>974.5</ele>
      </trkpt>
      <trkpt lat="44.55773" lon="6.46628">
        <ele>974.3</ele>
      </trkpt>
      <trkpt lat="44.55795" lon="6.46644">
        <ele>974.9</ele>
      </trkpt>
      <trkpt lat="44.55795" lon="6.46645">
        <ele>974.8</ele>
      </trkpt>
      <trkpt lat="44.558" lon="6.46652">
        <ele>974.9</ele>
      </trkpt>
      <trkpt lat="44.55802" lon="6.46656">
        <ele>974.9</ele>
      </trkpt>
      <trkpt lat="44.55802" lon="6.4666">
        <ele>974.8</ele>
      </trkpt>
      <trkpt lat="44.55803" lon="6.46663">
        <ele>974.8</ele>
      </trkpt>
      <trkpt lat="44.55805" lon="6.46676">
        <ele>968.6</ele>
      </trkpt>
      <trkpt lat="44.55807" lon="6.46715">
        <ele>966.2</ele>
      </trkpt>
      <trkpt lat="44.55816" lon="6.46754">
        <ele>964.5</ele>
      </trkpt>
      <trkpt lat="44.55816" lon="6.46758">
        <ele>964.3</ele>
      </trkpt>
      <trkpt lat="44.55817" lon="6.46762">
        <ele>964.2</ele>
      </trkpt>
      <trkpt lat="44.55817" lon="6.46767">
        <ele>963.9</ele>
      </trkpt>
      <trkpt lat="44.55816" lon="6.46769">
        <ele>963.7</ele>
      </trkpt>
      <trkpt lat="44.55816" lon="6.46771">
        <ele>963.6</ele>
      </trkpt>
      <trkpt lat="44.55815" lon="6.46772">
        <ele>963.4</ele>
      </trkpt>
      <trkpt lat="44.55807" lon="6.46785">
        <ele>962.2</ele>
      </trkpt>
      <trkpt lat="44.55779" lon="6.46817">
        <ele>958.5</ele>
      </trkpt>
      <trkpt lat="44.55762" lon="6.46834">
        <ele>954.6</ele>
      </trkpt>
      <trkpt lat="44.55745" lon="6.46857">
        <ele>946.2</ele>
      </trkpt>
      <trkpt lat="44.55741" lon="6.46872">
        <ele>945.4</ele>
      </trkpt>
      <trkpt lat="44.55732" lon="6.46938">
        <ele>943.5</ele>
      </trkpt>
      <trkpt lat="44.55732" lon="6.46941">
        <ele>943.3</ele>
      </trkpt>
      <trkpt lat="44.55727" lon="6.46959">
        <ele>942.1</ele>
      </trkpt>
      <trkpt lat="44.55694" lon="6.47054">
        <ele>939.3</ele>
      </trkpt>
      <trkpt lat="44.55671" lon="6.47111">
        <ele>938</ele>
      </trkpt>
      <trkpt lat="44.5566" lon="6.47133">
        <ele>924.4</ele>
      </trkpt>
      <trkpt lat="44.55658" lon="6.47135">
        <ele>924.3</ele>
      </trkpt>
      <trkpt lat="44.55651" lon="6.4715">
        <ele>924.8</ele>
      </trkpt>
      <trkpt lat="44.55647" lon="6.47166">
        <ele>925</ele>
      </trkpt>
      <trkpt lat="44.55646" lon="6.47185">
        <ele>922.1</ele>
      </trkpt>
      <trkpt lat="44.5565" lon="6.4721">
        <ele>920.9</ele>
      </trkpt>
      <trkpt lat="44.55661" lon="6.47246">
        <ele>925.4</ele>
      </trkpt>
      <trkpt lat="44.5567" lon="6.47283">
        <ele>930</ele>
      </trkpt>
      <trkpt lat="44.55676" lon="6.47301">
        <ele>928.9</ele>
      </trkpt>
      <trkpt lat="44.55692" lon="6.47337">
        <ele>924.1</ele>
      </trkpt>
      <trkpt lat="44.55696" lon="6.47353">
        <ele>924.8</ele>
      </trkpt>
      <trkpt lat="44.55697" lon="6.47371">
        <ele>924.6</ele>
      </trkpt>
      <trkpt lat="44.55696" lon="6.47387">
        <ele>923.9</ele>
      </trkpt>
      <trkpt lat="44.55691" lon="6.47401">
        <ele>922.3</ele>
      </trkpt>
      <trkpt lat="44.5569" lon="6.4741">
        <ele>921.5</ele>
      </trkpt>
      <trkpt lat="44.5569" lon="6.47426">
        <ele>916.8</ele>
      </trkpt>
      <trkpt lat="44.55717" lon="6.47487">
        <ele>917.3</ele>
      </trkpt>
      <trkpt lat="44.55717" lon="6.4749">
        <ele>917.2</ele>
      </trkpt>
      <trkpt lat="44.55718" lon="6.47494">
        <ele>917.3</ele>
      </trkpt>
      <trkpt lat="44.55718" lon="6.47514">
        <ele>909.1</ele>
      </trkpt>
      <trkpt lat="44.55714" lon="6.47537">
        <ele>906.3</ele>
      </trkpt>
      <trkpt lat="44.55714" lon="6.4755">
        <ele>905.2</ele>
      </trkpt>
      <trkpt lat="44.55715" lon="6.47554">
        <ele>905</ele>
      </trkpt>
      <trkpt lat="44.55734" lon="6.47589">
        <ele>899.5</ele>
      </trkpt>
      <trkpt lat="44.55749" lon="6.47608">
        <ele>897.8</ele>
      </trkpt>
      <trkpt lat="44.5575" lon="6.4761">
        <ele>897.4</ele>
      </trkpt>
      <trkpt lat="44.55751" lon="6.47611">
        <ele>906.9</ele>
      </trkpt>
      <trkpt lat="44.55751" lon="6.47613">
        <ele>906.7</ele>
      </trkpt>
      <trkpt lat="44.55754" lon="6.47619">
        <ele>906.4</ele>
      </trkpt>
      <trkpt lat="44.55771" lon="6.47694">
        <ele>894.4</ele>
      </trkpt>
      <trkpt lat="44.55773" lon="6.47699">
        <ele>894.2</ele>
      </trkpt>
      <trkpt lat="44.55774" lon="6.47704">
        <ele>893.9</ele>
      </trkpt>
      <trkpt lat="44.55776" lon="6.47709">
        <ele>893.6</ele>
      </trkpt>
      <trkpt lat="44.55782" lon="6.47718">
        <ele>893.2</ele>
      </trkpt>
      <trkpt lat="44.55786" lon="6.47722">
        <ele>893.3</ele>
      </trkpt>
      <trkpt lat="44.5583" lon="6.47756">
        <ele>890.4</ele>
      </trkpt>
      <trkpt lat="44.55836" lon="6.47758">
        <ele>892.7</ele>
      </trkpt>
      <trkpt lat="44.55854" lon="6.47757">
        <ele>891.9</ele>
      </trkpt>
      <trkpt lat="44.55863" lon="6.47755">
        <ele>891.9</ele>
      </trkpt>
      <trkpt lat="44.55865" lon="6.47755">
        <ele>892</ele>
      </trkpt>
      <trkpt lat="44.55872" lon="6.47758">
        <ele>892.1</ele>
      </trkpt>
      <trkpt lat="44.55875" lon="6.47763">
        <ele>892</ele>
      </trkpt>
      <trkpt lat="44.55879" lon="6.47767">
        <ele>892</ele>
      </trkpt>
      <trkpt lat="44.55881" lon="6.47771">
        <ele>891.8</ele>
      </trkpt>
      <trkpt lat="44.55882" lon="6.4778">
        <ele>891.3</ele>
      </trkpt>
      <trkpt lat="44.55881" lon="6.47792">
        <ele>890.3</ele>
      </trkpt>
      <trkpt lat="44.55877" lon="6.47812">
        <ele>888.7</ele>
      </trkpt>
      <trkpt lat="44.55878" lon="6.47827">
        <ele>888</ele>
      </trkpt>
      <trkpt lat="44.55881" lon="6.47847">
        <ele>878</ele>
      </trkpt>
      <trkpt lat="44.55888" lon="6.47875">
        <ele>875.5</ele>
      </trkpt>
      <trkpt lat="44.55893" lon="6.47886">
        <ele>874.5</ele>
      </trkpt>
      <trkpt lat="44.55895" lon="6.47888">
        <ele>874.3</ele>
      </trkpt>
      <trkpt lat="44.55897" lon="6.47889">
        <ele>874.2</ele>
      </trkpt>
      <trkpt lat="44.55898" lon="6.4789">
        <ele>874.1</ele>
      </trkpt>
      <trkpt lat="44.55901" lon="6.4789">
        <ele>874.2</ele>
      </trkpt>
      <trkpt lat="44.55923" lon="6.47893">
        <ele>879.6</ele>
      </trkpt>
      <trkpt lat="44.5599" lon="6.47896">
        <ele>883.3</ele>
      </trkpt>
      <trkpt lat="44.55991" lon="6.47897">
        <ele>883.2</ele>
      </trkpt>
      <trkpt lat="44.56008" lon="6.47903">
        <ele>885.5</ele>
      </trkpt>
      <trkpt lat="44.56036" lon="6.47915">
        <ele>888.3</ele>
      </trkpt>
      <trkpt lat="44.56046" lon="6.47923">
        <ele>881.7</ele>
      </trkpt>
      <trkpt lat="44.56051" lon="6.4793">
        <ele>881.9</ele>
      </trkpt>
      <trkpt lat="44.56054" lon="6.47936">
        <ele>882</ele>
      </trkpt>
      <trkpt lat="44.56057" lon="6.47951">
        <ele>881.7</ele>
      </trkpt>
      <trkpt lat="44.56058" lon="6.47962">
        <ele>881.6</ele>
      </trkpt>
      <trkpt lat="44.56057" lon="6.47966">
        <ele>881.5</ele>
      </trkpt>
      <trkpt lat="44.56056" lon="6.47976">
        <ele>881.4</ele>
      </trkpt>
      <trkpt lat="44.56054" lon="6.47983">
        <ele>881.3</ele>
      </trkpt>
      <trkpt lat="44.56052" lon="6.47985">
        <ele>881.1</ele>
      </trkpt>
      <trkpt lat="44.5605" lon="6.47988">
        <ele>881</ele>
      </trkpt>
      <trkpt lat="44.56046" lon="6.47992">
        <ele>880.6</ele>
      </trkpt>
      <trkpt lat="44.56035" lon="6.47996">
        <ele>879.4</ele>
      </trkpt>
      <trkpt lat="44.56023" lon="6.48004">
        <ele>877.9</ele>
      </trkpt>
      <trkpt lat="44.5602" lon="6.48005">
        <ele>877.5</ele>
      </trkpt>
      <trkpt lat="44.56016" lon="6.48009">
        <ele>877.1</ele>
      </trkpt>
      <trkpt lat="44.56012" lon="6.48012">
        <ele>876.8</ele>
      </trkpt>
      <trkpt lat="44.56009" lon="6.48016">
        <ele>876.9</ele>
      </trkpt>
      <trkpt lat="44.55999" lon="6.48033">
        <ele>870.1</ele>
      </trkpt>
      <trkpt lat="44.55969" lon="6.48098">
        <ele>868.9</ele>
      </trkpt>
      <trkpt lat="44.55955" lon="6.48136">
        <ele>867.4</ele>
      </trkpt>
      <trkpt lat="44.55953" lon="6.4815">
        <ele>867.1</ele>
      </trkpt>
      <trkpt lat="44.55947" lon="6.48264">
        <ele>858.1</ele>
      </trkpt>
      <trkpt lat="44.55945" lon="6.48275">
        <ele>857.8</ele>
      </trkpt>
      <trkpt lat="44.55925" lon="6.48321">
        <ele>853.2</ele>
      </trkpt>
      <trkpt lat="44.55974" lon="6.4846">
        <ele>848.4</ele>
      </trkpt>
      <trkpt lat="44.56024" lon="6.48631">
        <ele>851.9</ele>
      </trkpt>
      <trkpt lat="44.56029" lon="6.48644">
        <ele>851.8</ele>
      </trkpt>
      <trkpt lat="44.56062" lon="6.48709">
        <ele>852.2</ele>
      </trkpt>
      <trkpt lat="44.56064" lon="6.48712">
        <ele>852.3</ele>
      </trkpt>
      <trkpt lat="44.56065" lon="6.48716">
        <ele>852.4</ele>
      </trkpt>
      <trkpt lat="44.56065" lon="6.48719">
        <ele>852.4</ele>
      </trkpt>
      <trkpt lat="44.56066" lon="6.48725">
        <ele>852.6</ele>
      </trkpt>
      <trkpt lat="44.56066" lon="6.48774">
        <ele>850.6</ele>
      </trkpt>
      <trkpt lat="44.5607" lon="6.48823">
        <ele>850.4</ele>
      </trkpt>
      <trkpt lat="44.56072" lon="6.48828">
        <ele>850.9</ele>
      </trkpt>
      <trkpt lat="44.56073" lon="6.48833">
        <ele>851.1</ele>
      </trkpt>
      <trkpt lat="44.56087" lon="6.48853">
        <ele>854</ele>
      </trkpt>
      <trkpt lat="44.56087" lon="6.48855">
        <ele>854</ele>
      </trkpt>
      <trkpt lat="44.56088" lon="6.48856">
        <ele>854</ele>
      </trkpt>
      <trkpt lat="44.56087" lon="6.48871">
        <ele>853.3</ele>
      </trkpt>
      <trkpt lat="44.56211" lon="6.4906">
        <ele>853.3</ele>
      </trkpt>
      <trkpt lat="44.56216" lon="6.49075">
        <ele>853.6</ele>
      </trkpt>
      <trkpt lat="44.56284" lon="6.49176">
        <ele>852.2</ele>
      </trkpt>
      <trkpt lat="44.56288" lon="6.49184">
        <ele>852.4</ele>
      </trkpt>
      <trkpt lat="44.56317" lon="6.49224">
        <ele>853.1</ele>
      </trkpt>
      <trkpt lat="44.56323" lon="6.49229">
        <ele>853.2</ele>
      </trkpt>
      <trkpt lat="44.56329" lon="6.49232">
        <ele>853.3</ele>
      </trkpt>
      <trkpt lat="44.56334" lon="6.49238">
        <ele>856</ele>
      </trkpt>
      <trkpt lat="44.56348" lon="6.49251">
        <ele>856.3</ele>
      </trkpt>
      <trkpt lat="44.56371" lon="6.49268">
        <ele>858.5</ele>
      </trkpt>
      <trkpt lat="44.56383" lon="6.49279">
        <ele>859.2</ele>
      </trkpt>
      <trkpt lat="44.56399" lon="6.49299">
        <ele>859.7</ele>
      </trkpt>
      <trkpt lat="44.56495" lon="6.49464">
        <ele>868.2</ele>
      </trkpt>
      <trkpt lat="44.56496" lon="6.49465">
        <ele>868.2</ele>
      </trkpt>
      <trkpt lat="44.56498" lon="6.4947">
        <ele>868.3</ele>
      </trkpt>
      <trkpt lat="44.56524" lon="6.49515">
        <ele>871.3</ele>
      </trkpt>
      <trkpt lat="44.56524" lon="6.49516">
        <ele>871.3</ele>
      </trkpt>
      <trkpt lat="44.56534" lon="6.49534">
        <ele>872</ele>
      </trkpt>
      <trkpt lat="44.56539" lon="6.49551">
        <ele>872.3</ele>
      </trkpt>
      <trkpt lat="44.56547" lon="6.49603">
        <ele>872.7</ele>
      </trkpt>
      <trkpt lat="44.56554" lon="6.49698">
        <ele>871.7</ele>
      </trkpt>
      <trkpt lat="44.56555" lon="6.497">
        <ele>871.6</ele>
      </trkpt>
      <trkpt lat="44.56556" lon="6.49704">
        <ele>871.6</ele>
      </trkpt>
      <trkpt lat="44.56562" lon="6.49719">
        <ele>871.6</ele>
      </trkpt>
      <trkpt lat="44.56578" lon="6.49736">
        <ele>871.3</ele>
      </trkpt>
      <trkpt lat="44.56589" lon="6.49745">
        <ele>871.2</ele>
      </trkpt>
      <trkpt lat="44.56597" lon="6.49753">
        <ele>871.2</ele>
      </trkpt>
      <trkpt lat="44.566" lon="6.49761">
        <ele>871.3</ele>
      </trkpt>
      <trkpt lat="44.56611" lon="6.4977">
        <ele>871.4</ele>
      </trkpt>
      <trkpt lat="44.56611" lon="6.49779">
        <ele>871.4</ele>
      </trkpt>
      <trkpt lat="44.56612" lon="6.49779">
        <ele>871.4</ele>
      </trkpt>
      <trkpt lat="44.56612" lon="6.49781">
        <ele>871.4</ele>
      </trkpt>
      <trkpt lat="44.56613" lon="6.49781">
        <ele>871.4</ele>
      </trkpt>
      <trkpt lat="44.56613" lon="6.49782">
        <ele>871.4</ele>
      </trkpt>
      <trkpt lat="44.56614" lon="6.49782">
        <ele>871.4</ele>
      </trkpt>
      <trkpt lat="44.56614" lon="6.49783">
        <ele>871.4</ele>
      </trkpt>
      <trkpt lat="44.56615" lon="6.49783">
        <ele>871.4</ele>
      </trkpt>
      <trkpt lat="44.56616" lon="6.49784">
        <ele>871.4</ele>
      </trkpt>
      <trkpt lat="44.56621" lon="6.49784">
        <ele>871.5</ele>
      </trkpt>
      <trkpt lat="44.56651" lon="6.49813">
        <ele>871.7</ele>
      </trkpt>
      <trkpt lat="44.56651" lon="6.49843">
        <ele>871.1</ele>
      </trkpt>
      <trkpt lat="44.56676" lon="6.50064">
        <ele>867.8</ele>
      </trkpt>
      <trkpt lat="44.56688" lon="6.50112">
        <ele>865.4</ele>
      </trkpt>
      <trkpt lat="44.56688" lon="6.50114">
        <ele>865.3</ele>
      </trkpt>
      <trkpt lat="44.56703" lon="6.50201">
        <ele>864.1</ele>
      </trkpt>
      <trkpt lat="44.56708" lon="6.50259">
        <ele>863.7</ele>
      </trkpt>
      <trkpt lat="44.56708" lon="6.50267">
        <ele>863.6</ele>
      </trkpt>
      <trkpt lat="44.56698" lon="6.50341">
        <ele>859</ele>
      </trkpt>
      <trkpt lat="44.56676" lon="6.50409">
        <ele>855.4</ele>
      </trkpt>
      <trkpt lat="44.56667" lon="6.50427">
        <ele>851.2</ele>
      </trkpt>
      <trkpt lat="44.56661" lon="6.50434">
        <ele>847.3</ele>
      </trkpt>
      <trkpt lat="44.56655" lon="6.50438">
        <ele>845.9</ele>
      </trkpt>
      <trkpt lat="44.56645" lon="6.50441">
        <ele>844.4</ele>
      </trkpt>
      <trkpt lat="44.56637" lon="6.50439">
        <ele>843.9</ele>
      </trkpt>
      <trkpt lat="44.5663" lon="6.50435">
        <ele>843.6</ele>
      </trkpt>
      <trkpt lat="44.56624" lon="6.5043">
        <ele>843.5</ele>
      </trkpt>
      <trkpt lat="44.56623" lon="6.50428">
        <ele>843.5</ele>
      </trkpt>
      <trkpt lat="44.56616" lon="6.50422">
        <ele>843.4</ele>
      </trkpt>
      <trkpt lat="44.56612" lon="6.5042">
        <ele>843.3</ele>
      </trkpt>
      <trkpt lat="44.56607" lon="6.5042">
        <ele>843.1</ele>
      </trkpt>
      <trkpt lat="44.56605" lon="6.50421">
        <ele>843.1</ele>
      </trkpt>
      <trkpt lat="44.56603" lon="6.50424">
        <ele>842.9</ele>
      </trkpt>
      <trkpt lat="44.56603" lon="6.50429">
        <ele>842.7</ele>
      </trkpt>
      <trkpt lat="44.56604" lon="6.50436">
        <ele>842.3</ele>
      </trkpt>
      <trkpt lat="44.56609" lon="6.50443">
        <ele>841.9</ele>
      </trkpt>
      <trkpt lat="44.5662" lon="6.50451">
        <ele>841.7</ele>
      </trkpt>
      <trkpt lat="44.56651" lon="6.50469">
        <ele>841.1</ele>
      </trkpt>
      <trkpt lat="44.56667" lon="6.50477">
        <ele>842.8</ele>
      </trkpt>
      <trkpt lat="44.56678" lon="6.5048">
        <ele>842.7</ele>
      </trkpt>
      <trkpt lat="44.567" lon="6.50481">
        <ele>843.8</ele>
      </trkpt>
      <trkpt lat="44.56722" lon="6.50476">
        <ele>844.3</ele>
      </trkpt>
      <trkpt lat="44.56738" lon="6.5047">
        <ele>844.7</ele>
      </trkpt>
      <trkpt lat="44.56743" lon="6.50469">
        <ele>844.8</ele>
      </trkpt>
      <trkpt lat="44.56748" lon="6.50472">
        <ele>844.3</ele>
      </trkpt>
      <trkpt lat="44.56751" lon="6.50475">
        <ele>842.3</ele>
      </trkpt>
      <trkpt lat="44.56753" lon="6.50479">
        <ele>841.8</ele>
      </trkpt>
      <trkpt lat="44.56753" lon="6.50486">
        <ele>841</ele>
      </trkpt>
      <trkpt lat="44.56752" lon="6.50491">
        <ele>840.4</ele>
      </trkpt>
      <trkpt lat="44.5675" lon="6.50497">
        <ele>839.5</ele>
      </trkpt>
      <trkpt lat="44.56747" lon="6.50499">
        <ele>839.8</ele>
      </trkpt>
      <trkpt lat="44.56746" lon="6.50501">
        <ele>838</ele>
      </trkpt>
      <trkpt lat="44.56731" lon="6.50507">
        <ele>835.5</ele>
      </trkpt>
      <trkpt lat="44.56713" lon="6.50511">
        <ele>834.2</ele>
      </trkpt>
      <trkpt lat="44.56683" lon="6.50522">
        <ele>833.6</ele>
      </trkpt>
      <trkpt lat="44.56632" lon="6.50535">
        <ele>828.9</ele>
      </trkpt>
      <trkpt lat="44.56557" lon="6.50545">
        <ele>822</ele>
      </trkpt>
      <trkpt lat="44.56523" lon="6.50553">
        <ele>820.1</ele>
      </trkpt>
      <trkpt lat="44.56515" lon="6.50556">
        <ele>819.7</ele>
      </trkpt>
      <trkpt lat="44.56504" lon="6.50563">
        <ele>819</ele>
      </trkpt>
      <trkpt lat="44.56473" lon="6.50597">
        <ele>813.5</ele>
      </trkpt>
      <trkpt lat="44.56456" lon="6.50613">
        <ele>812.3</ele>
      </trkpt>
      <trkpt lat="44.56408" lon="6.50649">
        <ele>808</ele>
      </trkpt>
      <trkpt lat="44.56282" lon="6.50761">
        <ele>807.5</ele>
      </trkpt>
      <trkpt lat="44.56252" lon="6.50784">
        <ele>807.3</ele>
      </trkpt>
      <trkpt lat="44.5624" lon="6.50795">
        <ele>804</ele>
      </trkpt>
      <trkpt lat="44.56222" lon="6.50817">
        <ele>803.8</ele>
      </trkpt>
      <trkpt lat="44.56203" lon="6.50846">
        <ele>804.5</ele>
      </trkpt>
      <trkpt lat="44.56164" lon="6.50916">
        <ele>800.7</ele>
      </trkpt>
      <trkpt lat="44.56109" lon="6.50981">
        <ele>800.1</ele>
      </trkpt>
      <trkpt lat="44.561" lon="6.50993">
        <ele>799.5</ele>
      </trkpt>
      <trkpt lat="44.56094" lon="6.51006">
        <ele>800</ele>
      </trkpt>
      <trkpt lat="44.5609" lon="6.51024">
        <ele>800.9</ele>
      </trkpt>
      <trkpt lat="44.5609" lon="6.51044">
        <ele>801.2</ele>
      </trkpt>
      <trkpt lat="44.56095" lon="6.51079">
        <ele>799.1</ele>
      </trkpt>
      <trkpt lat="44.56107" lon="6.51129">
        <ele>804.3</ele>
      </trkpt>
      <trkpt lat="44.56113" lon="6.51148">
        <ele>804.8</ele>
      </trkpt>
      <trkpt lat="44.5612" lon="6.51165">
        <ele>805.9</ele>
      </trkpt>
      <trkpt lat="44.56128" lon="6.51189">
        <ele>806.9</ele>
      </trkpt>
      <trkpt lat="44.56129" lon="6.51195">
        <ele>806.8</ele>
      </trkpt>
      <trkpt lat="44.56128" lon="6.512">
        <ele>806.6</ele>
      </trkpt>
      <trkpt lat="44.56128" lon="6.51204">
        <ele>806.4</ele>
      </trkpt>
      <trkpt lat="44.56125" lon="6.51209">
        <ele>806</ele>
      </trkpt>
      <trkpt lat="44.56113" lon="6.51222">
        <ele>804.4</ele>
      </trkpt>
      <trkpt lat="44.56111" lon="6.51225">
        <ele>804.1</ele>
      </trkpt>
      <trkpt lat="44.56106" lon="6.5123">
        <ele>803.3</ele>
      </trkpt>
      <trkpt lat="44.56104" lon="6.51233">
        <ele>802.8</ele>
      </trkpt>
      <trkpt lat="44.5608" lon="6.51259">
        <ele>797.6</ele>
      </trkpt>
      <trkpt lat="44.56076" lon="6.51265">
        <ele>797.9</ele>
      </trkpt>
      <trkpt lat="44.56073" lon="6.51275">
        <ele>798.1</ele>
      </trkpt>
      <trkpt lat="44.56073" lon="6.51281">
        <ele>798.2</ele>
      </trkpt>
      <trkpt lat="44.5608" lon="6.51295">
        <ele>798.1</ele>
      </trkpt>
      <trkpt lat="44.56082" lon="6.51296">
        <ele>798.1</ele>
      </trkpt>
      <trkpt lat="44.56095" lon="6.5131">
        <ele>799.6</ele>
      </trkpt>
      <trkpt lat="44.56096" lon="6.51312">
        <ele>799.5</ele>
      </trkpt>
      <trkpt lat="44.56111" lon="6.51326">
        <ele>799.9</ele>
      </trkpt>
      <trkpt lat="44.56115" lon="6.51331">
        <ele>800.1</ele>
      </trkpt>
      <trkpt lat="44.56141" lon="6.51352">
        <ele>800.3</ele>
      </trkpt>
      <trkpt lat="44.56141" lon="6.51353">
        <ele>800.3</ele>
      </trkpt>
      <trkpt lat="44.56156" lon="6.51364">
        <ele>800.5</ele>
      </trkpt>
      <trkpt lat="44.56172" lon="6.51379">
        <ele>803</ele>
      </trkpt>
      <trkpt lat="44.56175" lon="6.51381">
        <ele>803.1</ele>
      </trkpt>
      <trkpt lat="44.5619" lon="6.51403">
        <ele>803</ele>
      </trkpt>
      <trkpt lat="44.56196" lon="6.51417">
        <ele>803.4</ele>
      </trkpt>
      <trkpt lat="44.56202" lon="6.51438">
        <ele>804</ele>
      </trkpt>
      <trkpt lat="44.56202" lon="6.5144">
        <ele>804.1</ele>
      </trkpt>
      <trkpt lat="44.56213" lon="6.51486">
        <ele>805.6</ele>
      </trkpt>
      <trkpt lat="44.56214" lon="6.51488">
        <ele>805.6</ele>
      </trkpt>
      <trkpt lat="44.56242" lon="6.51608">
        <ele>822.4</ele>
      </trkpt>
      <trkpt lat="44.56242" lon="6.51609">
        <ele>822.6</ele>
      </trkpt>
      <trkpt lat="44.56264" lon="6.517">
        <ele>823.6</ele>
      </trkpt>
      <trkpt lat="44.56271" lon="6.51721">
        <ele>824.5</ele>
      </trkpt>
      <trkpt lat="44.56284" lon="6.51748">
        <ele>824.7</ele>
      </trkpt>
      <trkpt lat="44.5633" lon="6.51816">
        <ele>828.1</ele>
      </trkpt>
      <trkpt lat="44.56331" lon="6.51817">
        <ele>828</ele>
      </trkpt>
      <trkpt lat="44.56349" lon="6.51847">
        <ele>828.6</ele>
      </trkpt>
      <trkpt lat="44.56363" lon="6.51874">
        <ele>830.3</ele>
      </trkpt>
      <trkpt lat="44.56364" lon="6.51875">
        <ele>830.3</ele>
      </trkpt>
      <trkpt lat="44.56388" lon="6.51937">
        <ele>836.4</ele>
      </trkpt>
      <trkpt lat="44.5642" lon="6.52029">
        <ele>840.2</ele>
      </trkpt>
      <trkpt lat="44.56437" lon="6.52085">
        <ele>845.7</ele>
      </trkpt>
      <trkpt lat="44.5644" lon="6.52103">
        <ele>845.8</ele>
      </trkpt>
      <trkpt lat="44.56443" lon="6.52134">
        <ele>846.6</ele>
      </trkpt>
      <trkpt lat="44.56443" lon="6.52216">
        <ele>850.3</ele>
      </trkpt>
      <trkpt lat="44.56447" lon="6.52251">
        <ele>853.7</ele>
      </trkpt>
      <trkpt lat="44.56451" lon="6.52269">
        <ele>854</ele>
      </trkpt>
      <trkpt lat="44.56451" lon="6.52276">
        <ele>854.2</ele>
      </trkpt>
      <trkpt lat="44.56457" lon="6.52281">
        <ele>854.3</ele>
      </trkpt>
      <trkpt lat="44.56476" lon="6.52313">
        <ele>856.3</ele>
      </trkpt>
      <trkpt lat="44.56485" lon="6.52321">
        <ele>857.4</ele>
      </trkpt>
      <trkpt lat="44.56495" lon="6.52323">
        <ele>858.5</ele>
      </trkpt>
      <trkpt lat="44.56503" lon="6.52321">
        <ele>863.6</ele>
      </trkpt>
      <trkpt lat="44.56514" lon="6.52315">
        <ele>865.2</ele>
      </trkpt>
      <trkpt lat="44.5654" lon="6.52273">
        <ele>866</ele>
      </trkpt>
      <trkpt lat="44.56565" lon="6.52224">
        <ele>859.3</ele>
      </trkpt>
      <trkpt lat="44.56565" lon="6.52223">
        <ele>859.2</ele>
      </trkpt>
      <trkpt lat="44.56573" lon="6.5221">
        <ele>858.3</ele>
      </trkpt>
      <trkpt lat="44.56583" lon="6.522">
        <ele>857.7</ele>
      </trkpt>
      <trkpt lat="44.56657" lon="6.52147">
        <ele>868.2</ele>
      </trkpt>
      <trkpt lat="44.56689" lon="6.52127">
        <ele>873.2</ele>
      </trkpt>
      <trkpt lat="44.5669" lon="6.52127">
        <ele>873.2</ele>
      </trkpt>
      <trkpt lat="44.567" lon="6.52123">
        <ele>873.3</ele>
      </trkpt>
      <trkpt lat="44.56711" lon="6.52121">
        <ele>873.4</ele>
      </trkpt>
      <trkpt lat="44.56719" lon="6.52123">
        <ele>873.6</ele>
      </trkpt>
      <trkpt lat="44.56919" lon="6.52237">
        <ele>883.9</ele>
      </trkpt>
      <trkpt lat="44.56998" lon="6.52277">
        <ele>889.7</ele>
      </trkpt>
      <trkpt lat="44.57006" lon="6.52279">
        <ele>887.1</ele>
      </trkpt>
      <trkpt lat="44.57126" lon="6.52291">
        <ele>889</ele>
      </trkpt>
      <trkpt lat="44.57206" lon="6.52304">
        <ele>890</ele>
      </trkpt>
      <trkpt lat="44.57217" lon="6.52307">
        <ele>889.9</ele>
      </trkpt>
      <trkpt lat="44.57227" lon="6.52314">
        <ele>890.3</ele>
      </trkpt>
      <trkpt lat="44.57238" lon="6.52324">
        <ele>891.3</ele>
      </trkpt>
      <trkpt lat="44.57255" lon="6.52346">
        <ele>896.8</ele>
      </trkpt>
      <trkpt lat="44.57256" lon="6.52346">
        <ele>896.9</ele>
      </trkpt>
      <trkpt lat="44.57268" lon="6.52363">
        <ele>900.1</ele>
      </trkpt>
      <trkpt lat="44.57282" lon="6.5238">
        <ele>902.1</ele>
      </trkpt>
      <trkpt lat="44.57293" lon="6.52388">
        <ele>903.1</ele>
      </trkpt>
      <trkpt lat="44.57298" lon="6.5239">
        <ele>903.5</ele>
      </trkpt>
      <trkpt lat="44.57311" lon="6.52392">
        <ele>904.4</ele>
      </trkpt>
      <trkpt lat="44.57316" lon="6.52392">
        <ele>904.7</ele>
      </trkpt>
      <trkpt lat="44.57319" lon="6.52391">
        <ele>904.8</ele>
      </trkpt>
      <trkpt lat="44.57326" lon="6.52387">
        <ele>904.5</ele>
      </trkpt>
      <trkpt lat="44.57335" lon="6.52379">
        <ele>906.8</ele>
      </trkpt>
      <trkpt lat="44.57354" lon="6.52356">
        <ele>904.3</ele>
      </trkpt>
      <trkpt lat="44.57361" lon="6.52349">
        <ele>904.1</ele>
      </trkpt>
      <trkpt lat="44.57368" lon="6.52346">
        <ele>904.4</ele>
      </trkpt>
      <trkpt lat="44.57378" lon="6.52346">
        <ele>904.8</ele>
      </trkpt>
      <trkpt lat="44.5739" lon="6.5235">
        <ele>905.2</ele>
      </trkpt>
      <trkpt lat="44.57401" lon="6.5236">
        <ele>906</ele>
      </trkpt>
      <trkpt lat="44.57408" lon="6.5237">
        <ele>907.4</ele>
      </trkpt>
      <trkpt lat="44.57459" lon="6.52432">
        <ele>921.5</ele>
      </trkpt>
      <trkpt lat="44.57476" lon="6.52445">
        <ele>921.7</ele>
      </trkpt>
      <trkpt lat="44.5749" lon="6.52453">
        <ele>922.2</ele>
      </trkpt>
      <trkpt lat="44.57504" lon="6.52459">
        <ele>921</ele>
      </trkpt>
      <trkpt lat="44.5751" lon="6.5246">
        <ele>921</ele>
      </trkpt>
      <trkpt lat="44.57514" lon="6.5246">
        <ele>921</ele>
      </trkpt>
      <trkpt lat="44.57521" lon="6.52465">
        <ele>921.4</ele>
      </trkpt>
      <trkpt lat="44.57528" lon="6.52468">
        <ele>921.4</ele>
      </trkpt>
      <trkpt lat="44.5754" lon="6.5247">
        <ele>921.3</ele>
      </trkpt>
      <trkpt lat="44.57547" lon="6.52472">
        <ele>921.3</ele>
      </trkpt>
      <trkpt lat="44.57548" lon="6.52473">
        <ele>921.4</ele>
      </trkpt>
      <trkpt lat="44.57555" lon="6.52477">
        <ele>921.7</ele>
      </trkpt>
      <trkpt lat="44.57564" lon="6.52484">
        <ele>922.4</ele>
      </trkpt>
      <trkpt lat="44.57578" lon="6.52501">
        <ele>927.6</ele>
      </trkpt>
      <trkpt lat="44.57587" lon="6.52518">
        <ele>927.3</ele>
      </trkpt>
      <trkpt lat="44.57594" lon="6.52541">
        <ele>929.2</ele>
      </trkpt>
      <trkpt lat="44.576" lon="6.5255">
        <ele>930</ele>
      </trkpt>
      <trkpt lat="44.57609" lon="6.5256">
        <ele>930.4</ele>
      </trkpt>
      <trkpt lat="44.5761" lon="6.5256">
        <ele>930.3</ele>
      </trkpt>
      <trkpt lat="44.57636" lon="6.52584">
        <ele>937.9</ele>
      </trkpt>
      <trkpt lat="44.57638" lon="6.5259">
        <ele>937.9</ele>
      </trkpt>
      <trkpt lat="44.57638" lon="6.52602">
        <ele>938.9</ele>
      </trkpt>
      <trkpt lat="44.57635" lon="6.52604">
        <ele>939.3</ele>
      </trkpt>
      <trkpt lat="44.57629" lon="6.52605">
        <ele>939.9</ele>
      </trkpt>
      <trkpt lat="44.57624" lon="6.52604">
        <ele>940.1</ele>
      </trkpt>
      <trkpt lat="44.57614" lon="6.52599">
        <ele>940.3</ele>
      </trkpt>
      <trkpt lat="44.5761" lon="6.52598">
        <ele>940.3</ele>
      </trkpt>
      <trkpt lat="44.57607" lon="6.52598">
        <ele>940.4</ele>
      </trkpt>
      <trkpt lat="44.57604" lon="6.52599">
        <ele>940.5</ele>
      </trkpt>
      <trkpt lat="44.57599" lon="6.52604">
        <ele>940.8</ele>
      </trkpt>
      <trkpt lat="44.57596" lon="6.52614">
        <ele>941.7</ele>
      </trkpt>
      <trkpt lat="44.57596" lon="6.52622">
        <ele>942.4</ele>
      </trkpt>
      <trkpt lat="44.57597" lon="6.52629">
        <ele>943.1</ele>
      </trkpt>
      <trkpt lat="44.57593" lon="6.52639">
        <ele>944.5</ele>
      </trkpt>
      <trkpt lat="44.57593" lon="6.52647">
        <ele>945.6</ele>
      </trkpt>
      <trkpt lat="44.57596" lon="6.5266">
        <ele>947.1</ele>
      </trkpt>
      <trkpt lat="44.57602" lon="6.52669">
        <ele>952</ele>
      </trkpt>
      <trkpt lat="44.57617" lon="6.52683">
        <ele>952.5</ele>
      </trkpt>
      <trkpt lat="44.57633" lon="6.52693">
        <ele>952.5</ele>
      </trkpt>
      <trkpt lat="44.57691" lon="6.52722">
        <ele>951.1</ele>
      </trkpt>
      <trkpt lat="44.5772" lon="6.5274">
        <ele>951.7</ele>
      </trkpt>
      <trkpt lat="44.57747" lon="6.52766">
        <ele>958</ele>
      </trkpt>
      <trkpt lat="44.57751" lon="6.52769">
        <ele>956.7</ele>
      </trkpt>
      <trkpt lat="44.57788" lon="6.52807">
        <ele>959</ele>
      </trkpt>
      <trkpt lat="44.57799" lon="6.52823">
        <ele>959.6</ele>
      </trkpt>
      <trkpt lat="44.57807" lon="6.52837">
        <ele>967.1</ele>
      </trkpt>
      <trkpt lat="44.57818" lon="6.52875">
        <ele>969.2</ele>
      </trkpt>
      <trkpt lat="44.5782" lon="6.52879">
        <ele>969.4</ele>
      </trkpt>
      <trkpt lat="44.57825" lon="6.52898">
        <ele>970.4</ele>
      </trkpt>
      <trkpt lat="44.5784" lon="6.52944">
        <ele>972.2</ele>
      </trkpt>
      <trkpt lat="44.57875" lon="6.53032">
        <ele>983.3</ele>
      </trkpt>
      <trkpt lat="44.57876" lon="6.53036">
        <ele>983.5</ele>
      </trkpt>
      <trkpt lat="44.57883" lon="6.53048">
        <ele>983.8</ele>
      </trkpt>
      <trkpt lat="44.57892" lon="6.53059">
        <ele>984</ele>
      </trkpt>
      <trkpt lat="44.57906" lon="6.53069">
        <ele>983.8</ele>
      </trkpt>
      <trkpt lat="44.57913" lon="6.53075">
        <ele>983.9</ele>
      </trkpt>
      <trkpt lat="44.57928" lon="6.53085">
        <ele>984.8</ele>
      </trkpt>
      <trkpt lat="44.57937" lon="6.53094">
        <ele>985.3</ele>
      </trkpt>
      <trkpt lat="44.57948" lon="6.5311">
        <ele>985.9</ele>
      </trkpt>
      <trkpt lat="44.57949" lon="6.53113">
        <ele>986</ele>
      </trkpt>
      <trkpt lat="44.57958" lon="6.53131">
        <ele>986.9</ele>
      </trkpt>
      <trkpt lat="44.5797" lon="6.53168">
        <ele>994.4</ele>
      </trkpt>
      <trkpt lat="44.57977" lon="6.53184">
        <ele>994.6</ele>
      </trkpt>
      <trkpt lat="44.57986" lon="6.53199">
        <ele>995.4</ele>
      </trkpt>
      <trkpt lat="44.57997" lon="6.53211">
        <ele>996.1</ele>
      </trkpt>
      <trkpt lat="44.58001" lon="6.53213">
        <ele>991.4</ele>
      </trkpt>
      <trkpt lat="44.58025" lon="6.53233">
        <ele>992.1</ele>
      </trkpt>
      <trkpt lat="44.58028" lon="6.53237">
        <ele>992.1</ele>
      </trkpt>
      <trkpt lat="44.5803" lon="6.53238">
        <ele>992</ele>
      </trkpt>
      <trkpt lat="44.58032" lon="6.5324">
        <ele>991.9</ele>
      </trkpt>
      <trkpt lat="44.5804" lon="6.53244">
        <ele>991.5</ele>
      </trkpt>
      <trkpt lat="44.58054" lon="6.53255">
        <ele>998.5</ele>
      </trkpt>
      <trkpt lat="44.58059" lon="6.5326">
        <ele>998.3</ele>
      </trkpt>
      <trkpt lat="44.58061" lon="6.53264">
        <ele>998.4</ele>
      </trkpt>
      <trkpt lat="44.58062" lon="6.53265">
        <ele>998.4</ele>
      </trkpt>
      <trkpt lat="44.58065" lon="6.5327">
        <ele>998.6</ele>
      </trkpt>
      <trkpt lat="44.58067" lon="6.5328">
        <ele>999.7</ele>
      </trkpt>
      <trkpt lat="44.58067" lon="6.53289">
        <ele>1000.8</ele>
      </trkpt>
      <trkpt lat="44.58065" lon="6.53298">
        <ele>1001.7</ele>
      </trkpt>
      <trkpt lat="44.58059" lon="6.53308">
        <ele>1002.7</ele>
      </trkpt>
      <trkpt lat="44.58056" lon="6.53311">
        <ele>1003</ele>
      </trkpt>
      <trkpt lat="44.58052" lon="6.53314">
        <ele>1003.3</ele>
      </trkpt>
      <trkpt lat="44.58042" lon="6.53318">
        <ele>1004</ele>
      </trkpt>
      <trkpt lat="44.58035" lon="6.53318">
        <ele>1004.5</ele>
      </trkpt>
      <trkpt lat="44.58027" lon="6.53316">
        <ele>1005</ele>
      </trkpt>
      <trkpt lat="44.57956" lon="6.53286">
        <ele>1009.6</ele>
      </trkpt>
      <trkpt lat="44.57939" lon="6.53281">
        <ele>1009.9</ele>
      </trkpt>
      <trkpt lat="44.57938" lon="6.53281">
        <ele>1010</ele>
      </trkpt>
      <trkpt lat="44.5791" lon="6.53267">
        <ele>1013.7</ele>
      </trkpt>
      <trkpt lat="44.5789" lon="6.53252">
        <ele>1015.2</ele>
      </trkpt>
      <trkpt lat="44.57872" lon="6.53244">
        <ele>1008.9</ele>
      </trkpt>
      <trkpt lat="44.57855" lon="6.53241">
        <ele>1011</ele>
      </trkpt>
      <trkpt lat="44.57826" lon="6.53244">
        <ele>1017.8</ele>
      </trkpt>
      <trkpt lat="44.57818" lon="6.53244">
        <ele>1017.8</ele>
      </trkpt>
      <trkpt lat="44.57809" lon="6.53243">
        <ele>1018.1</ele>
      </trkpt>
      <trkpt lat="44.57801" lon="6.53241">
        <ele>1018.5</ele>
      </trkpt>
      <trkpt lat="44.578" lon="6.53241">
        <ele>1018.5</ele>
      </trkpt>
      <trkpt lat="44.57784" lon="6.53233">
        <ele>1019.5</ele>
      </trkpt>
      <trkpt lat="44.57764" lon="6.53218">
        <ele>1019.8</ele>
      </trkpt>
      <trkpt lat="44.57757" lon="6.53214">
        <ele>1019.7</ele>
      </trkpt>
      <trkpt lat="44.57747" lon="6.53212">
        <ele>1024</ele>
      </trkpt>
      <trkpt lat="44.57732" lon="6.53212">
        <ele>1024.1</ele>
      </trkpt>
      <trkpt lat="44.57717" lon="6.53215">
        <ele>1024.5</ele>
      </trkpt>
      <trkpt lat="44.57698" lon="6.53222">
        <ele>1025.4</ele>
      </trkpt>
      <trkpt lat="44.57678" lon="6.53233">
        <ele>1027.2</ele>
      </trkpt>
      <trkpt lat="44.57675" lon="6.53234">
        <ele>1027.5</ele>
      </trkpt>
      <trkpt lat="44.57668" lon="6.53238">
        <ele>1028.4</ele>
      </trkpt>
      <trkpt lat="44.57656" lon="6.5325">
        <ele>1029.8</ele>
      </trkpt>
      <trkpt lat="44.57646" lon="6.53265">
        <ele>1036</ele>
      </trkpt>
      <trkpt lat="44.57642" lon="6.53273">
        <ele>1037</ele>
      </trkpt>
      <trkpt lat="44.57632" lon="6.53287">
        <ele>1038.5</ele>
      </trkpt>
      <trkpt lat="44.57626" lon="6.53293">
        <ele>1039.1</ele>
      </trkpt>
      <trkpt lat="44.5762" lon="6.53297">
        <ele>1039.5</ele>
      </trkpt>
      <trkpt lat="44.57613" lon="6.53299">
        <ele>1039.9</ele>
      </trkpt>
      <trkpt lat="44.57601" lon="6.53301">
        <ele>1040.5</ele>
      </trkpt>
      <trkpt lat="44.57574" lon="6.533">
        <ele>1042.5</ele>
      </trkpt>
      <trkpt lat="44.57558" lon="6.53301">
        <ele>1042.5</ele>
      </trkpt>
      <trkpt lat="44.57547" lon="6.533">
        <ele>1042.5</ele>
      </trkpt>
      <trkpt lat="44.57502" lon="6.53302">
        <ele>1043.6</ele>
      </trkpt>
      <trkpt lat="44.57461" lon="6.53312">
        <ele>1047.9</ele>
      </trkpt>
      <trkpt lat="44.57442" lon="6.53314">
        <ele>1049.3</ele>
      </trkpt>
      <trkpt lat="44.57424" lon="6.53314">
        <ele>1050.9</ele>
      </trkpt>
      <trkpt lat="44.57422" lon="6.53313">
        <ele>1050.9</ele>
      </trkpt>
      <trkpt lat="44.57405" lon="6.53309">
        <ele>1054.7</ele>
      </trkpt>
      <trkpt lat="44.57396" lon="6.53306">
        <ele>1054.6</ele>
      </trkpt>
      <trkpt lat="44.5737" lon="6.53293">
        <ele>1054.6</ele>
      </trkpt>
      <trkpt lat="44.5736" lon="6.53291">
        <ele>1054.9</ele>
      </trkpt>
      <trkpt lat="44.57352" lon="6.53292">
        <ele>1055.4</ele>
      </trkpt>
      <trkpt lat="44.5735" lon="6.53293">
        <ele>1055.5</ele>
      </trkpt>
      <trkpt lat="44.57336" lon="6.53303">
        <ele>1057.3</ele>
      </trkpt>
      <trkpt lat="44.57329" lon="6.53314">
        <ele>1061.7</ele>
      </trkpt>
      <trkpt lat="44.57284" lon="6.53418">
        <ele>1071.8</ele>
      </trkpt>
      <trkpt lat="44.57268" lon="6.53445">
        <ele>1072.3</ele>
      </trkpt>
      <trkpt lat="44.57257" lon="6.53459">
        <ele>1072.9</ele>
      </trkpt>
      <trkpt lat="44.5725" lon="6.53465">
        <ele>1074</ele>
      </trkpt>
      <trkpt lat="44.5724" lon="6.5347">
        <ele>1074.2</ele>
      </trkpt>
      <trkpt lat="44.57223" lon="6.53475">
        <ele>1074.4</ele>
      </trkpt>
      <trkpt lat="44.5721" lon="6.53476">
        <ele>1074.5</ele>
      </trkpt>
      <trkpt lat="44.57188" lon="6.53484">
        <ele>1075.1</ele>
      </trkpt>
      <trkpt lat="44.57176" lon="6.53493">
        <ele>1075.9</ele>
      </trkpt>
      <trkpt lat="44.57147" lon="6.53519">
        <ele>1083.9</ele>
      </trkpt>
      <trkpt lat="44.57137" lon="6.53523">
        <ele>1085.1</ele>
      </trkpt>
      <trkpt lat="44.57126" lon="6.53526">
        <ele>1086</ele>
      </trkpt>
      <trkpt lat="44.57109" lon="6.53526">
        <ele>1086.5</ele>
      </trkpt>
      <trkpt lat="44.57097" lon="6.53527">
        <ele>1086.6</ele>
      </trkpt>
      <trkpt lat="44.5705" lon="6.53526">
        <ele>1090.1</ele>
      </trkpt>
      <trkpt lat="44.57034" lon="6.53527">
        <ele>1090.4</ele>
      </trkpt>
      <trkpt lat="44.57022" lon="6.5353">
        <ele>1090.6</ele>
      </trkpt>
      <trkpt lat="44.57006" lon="6.53537">
        <ele>1091.4</ele>
      </trkpt>
      <trkpt lat="44.56987" lon="6.53542">
        <ele>1094.3</ele>
      </trkpt>
      <trkpt lat="44.56979" lon="6.53542">
        <ele>1094.5</ele>
      </trkpt>
      <trkpt lat="44.56966" lon="6.53539">
        <ele>1094.5</ele>
      </trkpt>
      <trkpt lat="44.56925" lon="6.53521">
        <ele>1093.3</ele>
      </trkpt>
      <trkpt lat="44.5691" lon="6.53512">
        <ele>1093.8</ele>
      </trkpt>
      <trkpt lat="44.569" lon="6.53502">
        <ele>1094.1</ele>
      </trkpt>
      <trkpt lat="44.56886" lon="6.53485">
        <ele>1088.5</ele>
      </trkpt>
      <trkpt lat="44.56878" lon="6.53478">
        <ele>1088.4</ele>
      </trkpt>
      <trkpt lat="44.56871" lon="6.53474">
        <ele>1088.5</ele>
      </trkpt>
      <trkpt lat="44.56871" lon="6.53473">
        <ele>1088.4</ele>
      </trkpt>
      <trkpt lat="44.56863" lon="6.53472">
        <ele>1088.8</ele>
      </trkpt>
      <trkpt lat="44.56854" lon="6.53472">
        <ele>1089.4</ele>
      </trkpt>
      <trkpt lat="44.56845" lon="6.53478">
        <ele>1090.6</ele>
      </trkpt>
      <trkpt lat="44.56828" lon="6.53494">
        <ele>1093.5</ele>
      </trkpt>
      <trkpt lat="44.56819" lon="6.53507">
        <ele>1095</ele>
      </trkpt>
      <trkpt lat="44.56802" lon="6.53545">
        <ele>1094.8</ele>
      </trkpt>
      <trkpt lat="44.56782" lon="6.53625">
        <ele>1099.3</ele>
      </trkpt>
      <trkpt lat="44.56776" lon="6.53643">
        <ele>1099.4</ele>
      </trkpt>
      <trkpt lat="44.56765" lon="6.53662">
        <ele>1098.6</ele>
      </trkpt>
      <trkpt lat="44.56753" lon="6.53676">
        <ele>1101.3</ele>
      </trkpt>
      <trkpt lat="44.56748" lon="6.53679">
        <ele>1098.2</ele>
      </trkpt>
      <trkpt lat="44.56738" lon="6.53687">
        <ele>1099</ele>
      </trkpt>
      <trkpt lat="44.56729" lon="6.53692">
        <ele>1099.2</ele>
      </trkpt>
      <trkpt lat="44.56721" lon="6.53695">
        <ele>1099.2</ele>
      </trkpt>
      <trkpt lat="44.56711" lon="6.53696">
        <ele>1098.8</ele>
      </trkpt>
      <trkpt lat="44.56673" lon="6.53695">
        <ele>1096.3</ele>
      </trkpt>
      <trkpt lat="44.56667" lon="6.53696">
        <ele>1096.3</ele>
      </trkpt>
    </trkseg>
  </trk>
  <trk>
    <name><![CDATA[TET-ITALY-Section01-20190715]]></name>
    <extensions>
      <line xmlns="http://www.topografix.com/GPX/gpx_style/0/2">
        <color>db00a1</color>
        <opacity>0.9</opacity>
        <width>4</width>
      </line>
    </extensions>
    <trkseg>
      <trkpt lat="43.88492" lon="7.51222">
        <ele>357.1</ele>
        <time>2017-01-01T07:01:16Z</time>
      </trkpt>
      <trkpt lat="43.88492" lon="7.51222">
        <ele>357.1</ele>
        <time>2017-01-01T07:01:16Z</time>
      </trkpt>
      <trkpt lat="43.88492" lon="7.51222">
        <ele>357.1</ele>
        <time>2017-01-01T07:01:16Z</time>
      </trkpt>
      <trkpt lat="43.87983" lon="7.51661">
        <ele>289.04</ele>
        <time>2017-01-01T07:01:49Z</time>
      </trkpt>
      <trkpt lat="43.87972" lon="7.51748">
        <ele>286.25</ele>
        <time>2017-01-01T07:01:52Z</time>
      </trkpt>
      <trkpt lat="43.88082" lon="7.51624">
        <ele>274.89</ele>
        <time>2017-01-01T07:02:00Z</time>
      </trkpt>
      <trkpt lat="43.88234" lon="7.51616">
        <ele>258.46</ele>
        <time>2017-01-01T07:02:08Z</time>
      </trkpt>
      <trkpt lat="43.88084" lon="7.51742">
        <ele>241.03</ele>
        <time>2017-01-01T07:02:18Z</time>
      </trkpt>
      <trkpt lat="43.88034" lon="7.52015">
        <ele>232.29</ele>
        <time>2017-01-01T07:02:29Z</time>
      </trkpt>
      <trkpt lat="43.87955" lon="7.52338">
        <ele>213.02</ele>
        <time>2017-01-01T07:02:42Z</time>
      </trkpt>
      <trkpt lat="43.87937" lon="7.52728">
        <ele>197.01</ele>
        <time>2017-01-01T07:02:58Z</time>
      </trkpt>
      <trkpt lat="43.87993" lon="7.52931">
        <ele>188.46</ele>
        <time>2017-01-01T07:03:06Z</time>
      </trkpt>
      <trkpt lat="43.87975" lon="7.53346">
        <ele>171.56</ele>
        <time>2017-01-01T07:03:23Z</time>
      </trkpt>
      <trkpt lat="43.87921" lon="7.53439">
        <ele>138.42</ele>
        <time>2017-01-01T07:03:28Z</time>
      </trkpt>
      <trkpt lat="43.87358" lon="7.53903">
        <ele>132.42</ele>
        <time>2017-01-01T07:04:03Z</time>
      </trkpt>
      <trkpt lat="43.86861" lon="7.54431">
        <ele>379.53</ele>
        <time>2017-01-01T07:04:38Z</time>
      </trkpt>
      <trkpt lat="43.87283" lon="7.54426">
        <ele>106.85</ele>
        <time>2017-01-01T07:05:01Z</time>
      </trkpt>
      <trkpt lat="43.87147" lon="7.54869">
        <ele>103.39</ele>
        <time>2017-01-01T07:05:20Z</time>
      </trkpt>
      <trkpt lat="43.869" lon="7.55053">
        <ele>101.24</ele>
        <time>2017-01-01T07:05:35Z</time>
      </trkpt>
      <trkpt lat="43.86888" lon="7.5507">
        <ele>99.14</ele>
        <time>2017-01-01T07:05:36Z</time>
      </trkpt>
      <trkpt lat="43.86793" lon="7.55355">
        <ele>90.37</ele>
        <time>2017-01-01T07:05:49Z</time>
      </trkpt>
      <trkpt lat="43.86529" lon="7.55773">
        <ele>421.43</ele>
        <time>2017-01-01T07:06:11Z</time>
      </trkpt>
      <trkpt lat="43.86361" lon="7.56232">
        <ele>205.25</ele>
        <time>2017-01-01T07:06:31Z</time>
      </trkpt>
      <trkpt lat="43.86362" lon="7.56567">
        <ele>174.11</ele>
        <time>2017-01-01T07:06:44Z</time>
      </trkpt>
      <trkpt lat="43.86377" lon="7.56954">
        <ele>133.4</ele>
        <time>2017-01-01T07:07:00Z</time>
      </trkpt>
      <trkpt lat="43.86375" lon="7.57204">
        <ele>114.26</ele>
        <time>2017-01-01T07:07:09Z</time>
      </trkpt>
      <trkpt lat="43.86133" lon="7.57299">
        <ele>95.39</ele>
        <time>2017-01-01T07:07:23Z</time>
      </trkpt>
      <trkpt lat="43.85999" lon="7.57344">
        <ele>154.88</ele>
        <time>2017-01-01T07:07:31Z</time>
      </trkpt>
      <trkpt lat="43.85836" lon="7.57362">
        <ele>136.67</ele>
        <time>2017-01-01T07:07:40Z</time>
      </trkpt>
      <trkpt lat="43.85607" lon="7.57358">
        <ele>56.93</ele>
        <time>2017-01-01T07:07:52Z</time>
      </trkpt>
      <trkpt lat="43.85432" lon="7.57236">
        <ele>66.38</ele>
        <time>2017-01-01T07:08:03Z</time>
      </trkpt>
      <trkpt lat="43.85195" lon="7.57769">
        <ele>169.81</ele>
        <time>2017-01-01T07:08:28Z</time>
      </trkpt>
      <trkpt lat="43.84874" lon="7.58095">
        <ele>45.7</ele>
        <time>2017-01-01T07:08:50Z</time>
      </trkpt>
      <trkpt lat="43.84788" lon="7.58555">
        <ele>45.35</ele>
        <time>2017-01-01T07:09:08Z</time>
      </trkpt>
      <trkpt lat="43.8447" lon="7.59024">
        <ele>42.78</ele>
        <time>2017-01-01T07:09:34Z</time>
      </trkpt>
      <trkpt lat="43.84331" lon="7.59193">
        <ele>47.39</ele>
        <time>2017-01-01T07:09:44Z</time>
      </trkpt>
      <trkpt lat="43.84163" lon="7.59047">
        <ele>41.62</ele>
        <time>2017-01-01T07:09:55Z</time>
      </trkpt>
      <trkpt lat="43.84122" lon="7.59152">
        <ele>49.93</ele>
        <time>2017-01-01T07:10:00Z</time>
      </trkpt>
      <trkpt lat="43.84125" lon="7.59252">
        <ele>62.76</ele>
        <time>2017-01-01T07:10:04Z</time>
      </trkpt>
      <trkpt lat="43.84127" lon="7.59282">
        <ele>65.41</ele>
        <time>2017-01-01T07:10:05Z</time>
      </trkpt>
      <trkpt lat="43.84196" lon="7.59228">
        <ele>94.69</ele>
        <time>2017-01-01T07:10:09Z</time>
      </trkpt>
      <trkpt lat="43.84354" lon="7.5943">
        <ele>146.11</ele>
        <time>2017-01-01T07:10:21Z</time>
      </trkpt>
      <trkpt lat="43.84432" lon="7.59405">
        <ele>156.62</ele>
        <time>2017-01-01T07:10:25Z</time>
      </trkpt>
      <trkpt lat="43.84467" lon="7.59539">
        <ele>174.15</ele>
        <time>2017-01-01T07:10:31Z</time>
      </trkpt>
      <trkpt lat="43.84452" lon="7.59645">
        <ele>187.47</ele>
        <time>2017-01-01T07:10:35Z</time>
      </trkpt>
      <trkpt lat="43.84523" lon="7.59687">
        <ele>186.91</ele>
        <time>2017-01-01T07:10:39Z</time>
      </trkpt>
      <trkpt lat="43.84547" lon="7.59909">
        <ele>208.29</ele>
        <time>2017-01-01T07:10:48Z</time>
      </trkpt>
      <trkpt lat="43.84635" lon="7.59972">
        <ele>188.6</ele>
        <time>2017-01-01T07:10:54Z</time>
      </trkpt>
      <trkpt lat="43.84771" lon="7.59681">
        <ele>227.87</ele>
        <time>2017-01-01T07:11:07Z</time>
      </trkpt>
      <trkpt lat="43.84748" lon="7.59438">
        <ele>232.63</ele>
        <time>2017-01-01T07:11:17Z</time>
      </trkpt>
      <trkpt lat="43.84863" lon="7.59383">
        <ele>245.15</ele>
        <time>2017-01-01T07:11:24Z</time>
      </trkpt>
      <trkpt lat="43.84886" lon="7.59642">
        <ele>292.52</ele>
        <time>2017-01-01T07:11:34Z</time>
      </trkpt>
      <trkpt lat="43.8497" lon="7.59845">
        <ele>315.56</ele>
        <time>2017-01-01T07:11:43Z</time>
      </trkpt>
      <trkpt lat="43.84895" lon="7.59909">
        <ele>327.81</ele>
        <time>2017-01-01T07:11:48Z</time>
      </trkpt>
      <trkpt lat="43.84961" lon="7.60046">
        <ele>340.79</ele>
        <time>2017-01-01T07:11:55Z</time>
      </trkpt>
      <trkpt lat="43.84936" lon="7.603">
        <ele>349.81</ele>
        <time>2017-01-01T07:12:05Z</time>
      </trkpt>
      <trkpt lat="43.84779" lon="7.6056">
        <ele>376.46</ele>
        <time>2017-01-01T07:12:18Z</time>
      </trkpt>
      <trkpt lat="43.85025" lon="7.60402">
        <ele>411.52</ele>
        <time>2017-01-01T07:12:33Z</time>
      </trkpt>
      <trkpt lat="43.84966" lon="7.60527">
        <ele>427.47</ele>
        <time>2017-01-01T07:12:39Z</time>
      </trkpt>
      <trkpt lat="43.85022" lon="7.60586">
        <ele>421.98</ele>
        <time>2017-01-01T07:12:42Z</time>
      </trkpt>
      <trkpt lat="43.8515" lon="7.60527">
        <ele>423.9</ele>
        <time>2017-01-01T07:12:53Z</time>
      </trkpt>
      <trkpt lat="43.85323" lon="7.60523">
        <ele>402.21</ele>
        <time>2017-01-01T07:13:05Z</time>
      </trkpt>
      <trkpt lat="43.85431" lon="7.60596">
        <ele>387.28</ele>
        <time>2017-01-01T07:13:12Z</time>
      </trkpt>
      <trkpt lat="43.85501" lon="7.6055">
        <ele>383.69</ele>
        <time>2017-01-01T07:13:17Z</time>
      </trkpt>
      <trkpt lat="43.85654" lon="7.60542">
        <ele>366.88</ele>
        <time>2017-01-01T07:13:34Z</time>
      </trkpt>
      <trkpt lat="43.85678" lon="7.60666">
        <ele>349.07</ele>
        <time>2017-01-01T07:13:53Z</time>
      </trkpt>
      <trkpt lat="43.85788" lon="7.60841">
        <ele>329.73</ele>
        <time>2017-01-01T07:14:01Z</time>
      </trkpt>
      <trkpt lat="43.85934" lon="7.60823">
        <ele>323.17</ele>
        <time>2017-01-01T07:14:06Z</time>
      </trkpt>
      <trkpt lat="43.86016" lon="7.60774">
        <ele>318.74</ele>
        <time>2017-01-01T07:14:10Z</time>
      </trkpt>
      <trkpt lat="43.8603" lon="7.60634">
        <ele>321.88</ele>
        <time>2017-01-01T07:14:15Z</time>
      </trkpt>
      <trkpt lat="43.86163" lon="7.605">
        <ele>307.8</ele>
        <time>2017-01-01T07:14:19Z</time>
      </trkpt>
      <trkpt lat="43.86295" lon="7.60407">
        <ele>308.06</ele>
        <time>2017-01-01T07:14:27Z</time>
      </trkpt>
      <trkpt lat="43.86372" lon="7.60363">
        <ele>297.52</ele>
        <time>2017-01-01T07:14:33Z</time>
      </trkpt>
      <trkpt lat="43.86462" lon="7.60327">
        <ele>293.98</ele>
        <time>2017-01-01T07:14:37Z</time>
      </trkpt>
      <trkpt lat="43.86437" lon="7.60218">
        <ele>281.56</ele>
        <time>2017-01-01T07:14:45Z</time>
      </trkpt>
      <trkpt lat="43.86463" lon="7.60152">
        <ele>269.88</ele>
        <time>2017-01-01T07:14:50Z</time>
      </trkpt>
      <trkpt lat="43.86555" lon="7.60094">
        <ele>263.92</ele>
        <time>2017-01-01T07:14:52Z</time>
      </trkpt>
      <trkpt lat="43.86599" lon="7.60074">
        <ele>261.5</ele>
        <time>2017-01-01T07:14:56Z</time>
      </trkpt>
      <trkpt lat="43.8664" lon="7.59985">
        <ele>248.1</ele>
        <time>2017-01-01T07:15:00Z</time>
      </trkpt>
      <trkpt lat="43.86686" lon="7.59923">
        <ele>490.65</ele>
        <time>2017-01-01T07:17:24Z</time>
      </trkpt>
      <trkpt lat="43.86721" lon="7.59902">
        <ele>523.25</ele>
        <time>2017-01-01T07:17:30Z</time>
      </trkpt>
      <trkpt lat="43.86833" lon="7.5992">
        <ele>523.53</ele>
        <time>2017-01-01T07:17:36Z</time>
      </trkpt>
      <trkpt lat="43.86954" lon="7.5997">
        <ele>531.34</ele>
        <time>2017-01-01T07:17:43Z</time>
      </trkpt>
      <trkpt lat="43.8704" lon="7.59894">
        <ele>534.19</ele>
        <time>2017-01-01T07:17:49Z</time>
      </trkpt>
      <trkpt lat="43.87152" lon="7.59878">
        <ele>531.09</ele>
        <time>2017-01-01T07:17:55Z</time>
      </trkpt>
      <trkpt lat="43.8726" lon="7.59772">
        <ele>529.65</ele>
        <time>2017-01-01T07:18:02Z</time>
      </trkpt>
      <trkpt lat="43.8729" lon="7.59659">
        <ele>539.01</ele>
        <time>2017-01-01T07:18:07Z</time>
      </trkpt>
      <trkpt lat="43.87149" lon="7.59523">
        <ele>555.27</ele>
        <time>2017-01-01T07:18:16Z</time>
      </trkpt>
      <trkpt lat="43.871" lon="7.59412">
        <ele>563.17</ele>
        <time>2017-01-01T07:18:21Z</time>
      </trkpt>
      <trkpt lat="43.87112" lon="7.59198">
        <ele>571.95</ele>
        <time>2017-01-01T07:18:30Z</time>
      </trkpt>
      <trkpt lat="43.87054" lon="7.59164">
        <ele>582.76</ele>
        <time>2017-01-01T07:18:33Z</time>
      </trkpt>
      <trkpt lat="43.87032" lon="7.59098">
        <ele>588.1</ele>
        <time>2017-01-01T07:18:36Z</time>
      </trkpt>
      <trkpt lat="43.87144" lon="7.58788">
        <ele>599.15</ele>
        <time>2017-01-01T07:18:50Z</time>
      </trkpt>
      <trkpt lat="43.8736" lon="7.5862">
        <ele>625.08</ele>
        <time>2017-01-01T07:19:03Z</time>
      </trkpt>
      <trkpt lat="43.87398" lon="7.58664">
        <ele>626.42</ele>
        <time>2017-01-01T07:19:06Z</time>
      </trkpt>
      <trkpt lat="43.87494" lon="7.58585">
        <ele>648.92</ele>
        <time>2017-01-01T07:19:12Z</time>
      </trkpt>
      <trkpt lat="43.87741" lon="7.58588">
        <ele>652</ele>
        <time>2017-01-01T07:19:26Z</time>
      </trkpt>
      <trkpt lat="43.88079" lon="7.58083">
        <ele>706.23</ele>
        <time>2017-01-01T07:19:53Z</time>
      </trkpt>
      <trkpt lat="43.88078" lon="7.58207">
        <ele>700.82</ele>
        <time>2017-01-01T07:19:58Z</time>
      </trkpt>
      <trkpt lat="43.88181" lon="7.58315">
        <ele>725.93</ele>
        <time>2017-01-01T07:20:05Z</time>
      </trkpt>
      <trkpt lat="43.88212" lon="7.58433">
        <ele>738.34</ele>
        <time>2017-01-01T07:20:10Z</time>
      </trkpt>
      <trkpt lat="43.88418" lon="7.58467">
        <ele>753.01</ele>
        <time>2017-01-01T07:20:21Z</time>
      </trkpt>
      <trkpt lat="43.88549" lon="7.58603">
        <ele>752.82</ele>
        <time>2017-01-01T07:20:30Z</time>
      </trkpt>
      <trkpt lat="43.88713" lon="7.58445">
        <ele>797.65</ele>
        <time>2017-01-01T07:20:41Z</time>
      </trkpt>
      <trkpt lat="43.8883" lon="7.58505">
        <ele>792.87</ele>
        <time>2017-01-01T07:20:48Z</time>
      </trkpt>
      <trkpt lat="43.89078" lon="7.58342">
        <ele>808.94</ele>
        <time>2017-01-01T07:21:03Z</time>
      </trkpt>
      <trkpt lat="43.89206" lon="7.58057">
        <ele>823.41</ele>
        <time>2017-01-01T07:21:16Z</time>
      </trkpt>
      <trkpt lat="43.89168" lon="7.57889">
        <ele>827.07</ele>
        <time>2017-01-01T07:21:23Z</time>
      </trkpt>
      <trkpt lat="43.89125" lon="7.5772">
        <ele>836.97</ele>
        <time>2017-01-01T07:21:30Z</time>
      </trkpt>
      <trkpt lat="43.89141" lon="7.57589">
        <ele>848.7</ele>
        <time>2017-01-01T07:21:36Z</time>
      </trkpt>
      <trkpt lat="43.89288" lon="7.57575">
        <ele>860.11</ele>
        <time>2017-01-01T07:21:44Z</time>
      </trkpt>
      <trkpt lat="43.89518" lon="7.57584">
        <ele>858.7</ele>
        <time>2017-01-01T07:21:56Z</time>
      </trkpt>
      <trkpt lat="43.89348" lon="7.5739">
        <ele>878.63</ele>
        <time>2017-01-01T07:22:08Z</time>
      </trkpt>
      <trkpt lat="43.89334" lon="7.5737">
        <ele>879.91</ele>
        <time>2017-01-01T07:22:09Z</time>
      </trkpt>
      <trkpt lat="43.89612" lon="7.57249">
        <ele>904.16</ele>
        <time>2017-01-01T07:22:25Z</time>
      </trkpt>
      <trkpt lat="43.89799" lon="7.57088">
        <ele>928.5</ele>
        <time>2017-01-01T07:22:37Z</time>
      </trkpt>
      <trkpt lat="43.89805" lon="7.57071">
        <ele>931.77</ele>
        <time>2017-01-01T07:22:38Z</time>
      </trkpt>
      <trkpt lat="43.89587" lon="7.57087">
        <ele>947.51</ele>
        <time>2017-01-01T07:22:50Z</time>
      </trkpt>
      <trkpt lat="43.89577" lon="7.57087">
        <ele>947.17</ele>
        <time>2017-01-01T07:22:51Z</time>
      </trkpt>
      <trkpt lat="43.89873" lon="7.56882">
        <ele>979.33</ele>
        <time>2017-01-01T07:23:09Z</time>
      </trkpt>
      <trkpt lat="43.89975" lon="7.56692">
        <ele>996.37</ele>
        <time>2017-01-01T07:23:18Z</time>
      </trkpt>
      <trkpt lat="43.90247" lon="7.56427">
        <ele>1029.05</ele>
        <time>2017-01-01T07:23:37Z</time>
      </trkpt>
      <trkpt lat="43.90301" lon="7.56462">
        <ele>1033.32</ele>
        <time>2017-01-01T07:23:40Z</time>
      </trkpt>
      <trkpt lat="43.90389" lon="7.56449">
        <ele>1035.1</ele>
        <time>2017-01-01T07:23:45Z</time>
      </trkpt>
      <trkpt lat="43.90512" lon="7.56513">
        <ele>1033.18</ele>
        <time>2017-01-01T07:23:52Z</time>
      </trkpt>
      <trkpt lat="43.90584" lon="7.56502">
        <ele>1035.72</ele>
        <time>2017-01-01T07:23:56Z</time>
      </trkpt>
      <trkpt lat="43.90812" lon="7.56619">
        <ele>1042.09</ele>
        <time>2017-01-01T07:24:09Z</time>
      </trkpt>
      <trkpt lat="43.90874" lon="7.56803">
        <ele>1041.32</ele>
        <time>2017-01-01T07:24:17Z</time>
      </trkpt>
      <trkpt lat="43.90977" lon="7.5684">
        <ele>1051.51</ele>
        <time>2017-01-01T07:24:23Z</time>
      </trkpt>
      <trkpt lat="43.91138" lon="7.5661">
        <ele>1054.8</ele>
        <time>2017-01-01T07:24:36Z</time>
      </trkpt>
      <trkpt lat="43.91385" lon="7.56465">
        <ele>1058.65</ele>
        <time>2017-01-01T07:24:50Z</time>
      </trkpt>
      <trkpt lat="43.91346" lon="7.56644">
        <ele>1044.2</ele>
        <time>2017-01-01T07:24:58Z</time>
      </trkpt>
      <trkpt lat="43.91431" lon="7.56888">
        <ele>1039.01</ele>
        <time>2017-01-01T07:25:08Z</time>
      </trkpt>
      <trkpt lat="43.91357" lon="7.56894">
        <ele>1031.27</ele>
        <time>2017-01-01T07:25:13Z</time>
      </trkpt>
      <trkpt lat="43.91384" lon="7.57095">
        <ele>1019.02</ele>
        <time>2017-01-01T07:25:21Z</time>
      </trkpt>
      <trkpt lat="43.9149" lon="7.57215">
        <ele>1022.75</ele>
        <time>2017-01-01T07:25:28Z</time>
      </trkpt>
      <trkpt lat="43.91694" lon="7.57424">
        <ele>1022.91</ele>
        <time>2017-01-01T07:25:42Z</time>
      </trkpt>
      <trkpt lat="43.92016" lon="7.57334">
        <ele>1048.6</ele>
        <time>2017-01-01T07:26:00Z</time>
      </trkpt>
      <trkpt lat="43.92266" lon="7.57404">
        <ele>1052.39</ele>
        <time>2017-01-01T07:26:14Z</time>
      </trkpt>
      <trkpt lat="43.9227" lon="7.57672">
        <ele>1059.47</ele>
        <time>2017-01-01T07:26:25Z</time>
      </trkpt>
      <trkpt lat="43.92481" lon="7.57861">
        <ele>1084.11</ele>
        <time>2017-01-01T07:26:38Z</time>
      </trkpt>
      <trkpt lat="43.93053" lon="7.57552">
        <ele>1131.26</ele>
        <time>2017-01-01T07:27:12Z</time>
      </trkpt>
      <trkpt lat="43.93128" lon="7.57893">
        <ele>1132.55</ele>
        <time>2017-01-01T07:27:26Z</time>
      </trkpt>
      <trkpt lat="43.93533" lon="7.58183">
        <ele>1156.84</ele>
        <time>2017-01-01T07:27:51Z</time>
      </trkpt>
      <trkpt lat="43.93633" lon="7.58252">
        <ele>1156.26</ele>
        <time>2017-01-01T07:27:57Z</time>
      </trkpt>
      <trkpt lat="43.93801" lon="7.58017">
        <ele>1187.86</ele>
        <time>2017-01-01T07:28:10Z</time>
      </trkpt>
      <trkpt lat="43.93931" lon="7.57864">
        <ele>1182.25</ele>
        <time>2017-01-01T07:28:20Z</time>
      </trkpt>
      <trkpt lat="43.94038" lon="7.57888">
        <ele>1165.5</ele>
        <time>2017-01-01T07:28:26Z</time>
      </trkpt>
      <trkpt lat="43.93997" lon="7.57993">
        <ele>1166.75</ele>
        <time>2017-01-01T07:28:30Z</time>
      </trkpt>
      <trkpt lat="43.94054" lon="7.58174">
        <ele>1158.07</ele>
        <time>2017-01-01T07:28:38Z</time>
      </trkpt>
      <trkpt lat="43.94088" lon="7.5821">
        <ele>1160.34</ele>
        <time>2017-01-01T07:28:40Z</time>
      </trkpt>
      <trkpt lat="43.94091" lon="7.58302">
        <ele>1147.31</ele>
        <time>2017-01-01T07:28:44Z</time>
      </trkpt>
      <trkpt lat="43.94136" lon="7.58468">
        <ele>1149.56</ele>
        <time>2017-01-01T07:28:51Z</time>
      </trkpt>
      <trkpt lat="43.94065" lon="7.5856">
        <ele>1136.41</ele>
        <time>2017-01-01T07:28:56Z</time>
      </trkpt>
      <trkpt lat="43.94041" lon="7.58729">
        <ele>1146.08</ele>
        <time>2017-01-01T07:29:03Z</time>
      </trkpt>
      <trkpt lat="43.94176" lon="7.58905">
        <ele>1139.49</ele>
        <time>2017-01-01T07:29:13Z</time>
      </trkpt>
      <trkpt lat="43.94258" lon="7.58923">
        <ele>1158.91</ele>
        <time>2017-01-01T07:29:18Z</time>
      </trkpt>
      <trkpt lat="43.94273" lon="7.5895">
        <ele>1152.85</ele>
        <time>2017-01-01T07:29:19Z</time>
      </trkpt>
      <trkpt lat="43.94342" lon="7.59017">
        <ele>1139.55</ele>
        <time>2017-01-01T07:29:24Z</time>
      </trkpt>
      <trkpt lat="43.94247" lon="7.59133">
        <ele>1155.53</ele>
        <time>2017-01-01T07:29:31Z</time>
      </trkpt>
      <trkpt lat="43.94245" lon="7.59319">
        <ele>1150.07</ele>
        <time>2017-01-01T07:29:38Z</time>
      </trkpt>
      <trkpt lat="43.94377" lon="7.59561">
        <ele>1214.71</ele>
        <time>2017-01-01T07:29:52Z</time>
      </trkpt>
      <trkpt lat="43.94379" lon="7.5971">
        <ele>1154.99</ele>
        <time>2017-01-01T07:29:59Z</time>
      </trkpt>
      <trkpt lat="43.94372" lon="7.59867">
        <ele>1127.18</ele>
        <time>2017-01-01T07:30:06Z</time>
      </trkpt>
      <trkpt lat="43.94396" lon="7.59865">
        <ele>1132.17</ele>
        <time>2017-01-01T07:30:07Z</time>
      </trkpt>
      <trkpt lat="43.944" lon="7.59862">
        <ele>1133.11</ele>
        <time>2017-01-01T07:30:07Z</time>
      </trkpt>
      <trkpt lat="43.94444" lon="7.59921">
        <ele>1131.21</ele>
        <time>2017-01-01T07:30:11Z</time>
      </trkpt>
      <trkpt lat="43.94407" lon="7.60139">
        <ele>1117.16</ele>
        <time>2017-01-01T07:30:19Z</time>
      </trkpt>
      <trkpt lat="43.9444" lon="7.60274">
        <ele>1113.56</ele>
        <time>2017-01-01T07:30:25Z</time>
      </trkpt>
      <trkpt lat="43.94496" lon="7.6027">
        <ele>1110.46</ele>
        <time>2017-01-01T07:30:28Z</time>
      </trkpt>
      <trkpt lat="43.94618" lon="7.60321">
        <ele>1096.03</ele>
        <time>2017-01-01T07:30:35Z</time>
      </trkpt>
      <trkpt lat="43.94699" lon="7.60455">
        <ele>1101.53</ele>
        <time>2017-01-01T07:30:42Z</time>
      </trkpt>
      <trkpt lat="43.947" lon="7.6057">
        <ele>1112.41</ele>
        <time>2017-01-01T07:30:47Z</time>
      </trkpt>
      <trkpt lat="43.94541" lon="7.60449">
        <ele>1135.63</ele>
        <time>2017-01-01T07:30:57Z</time>
      </trkpt>
      <trkpt lat="43.94513" lon="7.60551">
        <ele>1137.06</ele>
        <time>2017-01-01T07:31:01Z</time>
      </trkpt>
      <trkpt lat="43.9457" lon="7.60617">
        <ele>1138.94</ele>
        <time>2017-01-01T07:31:05Z</time>
      </trkpt>
      <trkpt lat="43.94606" lon="7.60807">
        <ele>1150.12</ele>
        <time>2017-01-01T07:31:13Z</time>
      </trkpt>
      <trkpt lat="43.94504" lon="7.6075">
        <ele>1146.07</ele>
        <time>2017-01-01T07:31:19Z</time>
      </trkpt>
      <trkpt lat="43.94402" lon="7.60824">
        <ele>1159.55</ele>
        <time>2017-01-01T07:31:25Z</time>
      </trkpt>
      <trkpt lat="43.94289" lon="7.60655">
        <ele>1172.65</ele>
        <time>2017-01-01T07:31:34Z</time>
      </trkpt>
      <trkpt lat="43.94106" lon="7.60864">
        <ele>1203.56</ele>
        <time>2017-01-01T07:31:47Z</time>
      </trkpt>
      <trkpt lat="43.94101" lon="7.60863">
        <ele>1203.63</ele>
        <time>2017-01-01T07:31:47Z</time>
      </trkpt>
      <trkpt lat="43.93745" lon="7.60847">
        <ele>1188.25</ele>
        <time>2017-01-01T07:32:07Z</time>
      </trkpt>
      <trkpt lat="43.93461" lon="7.60708">
        <ele>1166.26</ele>
        <time>2017-01-01T07:32:23Z</time>
      </trkpt>
      <trkpt lat="43.93847" lon="7.61181">
        <ele>1122.7</ele>
        <time>2017-01-01T07:32:52Z</time>
      </trkpt>
      <trkpt lat="43.93915" lon="7.61627">
        <ele>1092.34</ele>
        <time>2017-01-01T07:33:10Z</time>
      </trkpt>
      <trkpt lat="43.93738" lon="7.61245">
        <ele>1070.39</ele>
        <time>2017-01-01T07:33:27Z</time>
      </trkpt>
      <trkpt lat="43.93429" lon="7.60997">
        <ele>1049.62</ele>
        <time>2017-01-01T07:33:47Z</time>
      </trkpt>
      <trkpt lat="43.93039" lon="7.61041">
        <ele>1012.87</ele>
        <time>2017-01-01T07:34:08Z</time>
      </trkpt>
      <trkpt lat="43.92838" lon="7.61298">
        <ele>979.1</ele>
        <time>2017-01-01T07:34:23Z</time>
      </trkpt>
      <trkpt lat="43.93056" lon="7.61151">
        <ele>956.95</ele>
        <time>2017-01-01T07:34:37Z</time>
      </trkpt>
      <trkpt lat="43.92849" lon="7.61566">
        <ele>921.34</ele>
        <time>2017-01-01T07:34:57Z</time>
      </trkpt>
      <trkpt lat="43.92503" lon="7.61722">
        <ele>872.72</ele>
        <time>2017-01-01T07:35:17Z</time>
      </trkpt>
      <trkpt lat="43.92828" lon="7.61801">
        <ele>832.79</ele>
        <time>2017-01-01T07:35:35Z</time>
      </trkpt>
      <trkpt lat="43.92368" lon="7.621">
        <ele>796.08</ele>
        <time>2017-01-01T07:36:03Z</time>
      </trkpt>
      <trkpt lat="43.92303" lon="7.62333">
        <ele>778.95</ele>
        <time>2017-01-01T07:36:12Z</time>
      </trkpt>
      <trkpt lat="43.92666" lon="7.62086">
        <ele>733.59</ele>
        <time>2017-01-01T07:36:35Z</time>
      </trkpt>
      <trkpt lat="43.92385" lon="7.6256">
        <ele>683.48</ele>
        <time>2017-01-01T07:36:59Z</time>
      </trkpt>
      <trkpt lat="43.92797" lon="7.62385">
        <ele>636.21</ele>
        <time>2017-01-01T07:37:22Z</time>
      </trkpt>
      <trkpt lat="43.92588" lon="7.62551">
        <ele>622.41</ele>
        <time>2017-01-01T07:37:36Z</time>
      </trkpt>
      <trkpt lat="43.92594" lon="7.6272">
        <ele>603.28</ele>
        <time>2017-01-01T07:37:42Z</time>
      </trkpt>
      <trkpt lat="43.92523" lon="7.627">
        <ele>608.51</ele>
        <time>2017-01-01T07:37:46Z</time>
      </trkpt>
      <trkpt lat="43.92453" lon="7.6278">
        <ele>600.83</ele>
        <time>2017-01-01T07:37:51Z</time>
      </trkpt>
      <trkpt lat="43.9245" lon="7.62871">
        <ele>588.45</ele>
        <time>2017-01-01T07:37:55Z</time>
      </trkpt>
      <trkpt lat="43.92369" lon="7.62941">
        <ele>584.74</ele>
        <time>2017-01-01T07:38:00Z</time>
      </trkpt>
      <trkpt lat="43.92398" lon="7.63043">
        <ele>566.29</ele>
        <time>2017-01-01T07:38:04Z</time>
      </trkpt>
      <trkpt lat="43.92253" lon="7.63535">
        <ele>531.03</ele>
        <time>2017-01-01T07:38:25Z</time>
      </trkpt>
      <trkpt lat="43.92029" lon="7.63688">
        <ele>518.43</ele>
        <time>2017-01-01T07:38:39Z</time>
      </trkpt>
      <trkpt lat="43.92089" lon="7.63899">
        <ele>491.72</ele>
        <time>2017-01-01T07:38:48Z</time>
      </trkpt>
      <trkpt lat="43.92012" lon="7.6395">
        <ele>484.7</ele>
        <time>2017-01-01T07:38:53Z</time>
      </trkpt>
      <trkpt lat="43.92159" lon="7.64014">
        <ele>469.8</ele>
        <time>2017-01-01T07:39:01Z</time>
      </trkpt>
      <trkpt lat="43.92019" lon="7.64087">
        <ele>448.69</ele>
        <time>2017-01-01T07:39:09Z</time>
      </trkpt>
      <trkpt lat="43.92217" lon="7.64193">
        <ele>430.84</ele>
        <time>2017-01-01T07:39:21Z</time>
      </trkpt>
      <trkpt lat="43.92124" lon="7.64133">
        <ele>433.93</ele>
        <time>2017-01-01T07:39:27Z</time>
      </trkpt>
      <trkpt lat="43.92074" lon="7.64264">
        <ele>406.81</ele>
        <time>2017-01-01T07:39:32Z</time>
      </trkpt>
      <trkpt lat="43.91862" lon="7.64288">
        <ele>377.46</ele>
        <time>2017-01-01T07:39:44Z</time>
      </trkpt>
      <trkpt lat="43.91942" lon="7.64409">
        <ele>357.57</ele>
        <time>2017-01-01T07:39:51Z</time>
      </trkpt>
      <trkpt lat="43.92361" lon="7.64348">
        <ele>320.98</ele>
        <time>2017-01-01T07:40:14Z</time>
      </trkpt>
      <trkpt lat="43.92417" lon="7.6408">
        <ele>293.9</ele>
        <time>2017-01-01T07:40:25Z</time>
      </trkpt>
      <trkpt lat="43.92454" lon="7.64528">
        <ele>249.76</ele>
        <time>2017-01-01T07:40:42Z</time>
      </trkpt>
      <trkpt lat="43.9234" lon="7.64576">
        <ele>232.53</ele>
        <time>2017-01-01T07:40:49Z</time>
      </trkpt>
      <trkpt lat="43.9243" lon="7.64621">
        <ele>233.13</ele>
        <time>2017-01-01T07:40:54Z</time>
      </trkpt>
      <trkpt lat="43.92463" lon="7.64855">
        <ele>207.49</ele>
        <time>2017-01-01T07:41:04Z</time>
      </trkpt>
      <trkpt lat="43.92562" lon="7.64746">
        <ele>203.9</ele>
        <time>2017-01-01T07:41:10Z</time>
      </trkpt>
      <trkpt lat="43.92573" lon="7.64711">
        <ele>227.2</ele>
      </trkpt>
      <trkpt lat="43.92637" lon="7.64708">
        <ele>234.6</ele>
      </trkpt>
      <trkpt lat="43.92717" lon="7.64843">
        <ele>224.8</ele>
      </trkpt>
      <trkpt lat="43.92907" lon="7.65021">
        <ele>232</ele>
      </trkpt>
      <trkpt lat="43.93011" lon="7.65256">
        <ele>230.7</ele>
      </trkpt>
      <trkpt lat="43.93043" lon="7.65357">
        <ele>232.9</ele>
      </trkpt>
      <trkpt lat="43.93118" lon="7.65455">
        <ele>234.8</ele>
      </trkpt>
      <trkpt lat="43.93191" lon="7.65776">
        <ele>244.9</ele>
      </trkpt>
      <trkpt lat="43.93222" lon="7.66029">
        <ele>245.3</ele>
      </trkpt>
      <trkpt lat="43.93134" lon="7.66193">
        <ele>251</ele>
      </trkpt>
      <trkpt lat="43.93118" lon="7.66315">
        <ele>255.9</ele>
      </trkpt>
      <trkpt lat="43.93187" lon="7.66417">
        <ele>248.4</ele>
      </trkpt>
      <trkpt lat="43.93213" lon="7.66536">
        <ele>251.7</ele>
      </trkpt>
      <trkpt lat="43.93066" lon="7.66847">
        <ele>257.5</ele>
      </trkpt>
      <trkpt lat="43.93033" lon="7.66962">
        <ele>267.5</ele>
      </trkpt>
      <trkpt lat="43.93031" lon="7.67135">
        <ele>284</ele>
      </trkpt>
      <trkpt lat="43.93121" lon="7.67435">
        <ele>286.2</ele>
      </trkpt>
      <trkpt lat="43.9315" lon="7.67633">
        <ele>301.1</ele>
      </trkpt>
      <trkpt lat="43.93383" lon="7.67851">
        <ele>299.5</ele>
      </trkpt>
      <trkpt lat="43.93389" lon="7.6781">
        <ele>272.94</ele>
        <time>2017-01-01T07:50:42Z</time>
      </trkpt>
      <trkpt lat="43.93655" lon="7.68119">
        <ele>289.71</ele>
        <time>2017-01-01T07:51:01Z</time>
      </trkpt>
      <trkpt lat="43.93829" lon="7.68407">
        <ele>334.94</ele>
        <time>2017-01-01T07:51:16Z</time>
      </trkpt>
      <trkpt lat="43.94251" lon="7.68605">
        <ele>371.95</ele>
        <time>2017-01-01T07:51:40Z</time>
      </trkpt>
      <trkpt lat="43.9377" lon="7.68558">
        <ele>428.44</ele>
        <time>2017-01-01T07:52:07Z</time>
      </trkpt>
      <trkpt lat="43.94768" lon="7.68955">
        <ele>561.13</ele>
        <time>2017-01-01T07:53:03Z</time>
      </trkpt>
      <trkpt lat="43.94189" lon="7.69124">
        <ele>622.9</ele>
        <time>2017-01-01T07:53:36Z</time>
      </trkpt>
      <trkpt lat="43.94202" lon="7.69287">
        <ele>634.54</ele>
        <time>2017-01-01T07:53:42Z</time>
      </trkpt>
      <trkpt lat="43.94338" lon="7.69638">
        <ele>634.63</ele>
        <time>2017-01-01T07:53:58Z</time>
      </trkpt>
      <trkpt lat="43.94456" lon="7.69618">
        <ele>653.96</ele>
        <time>2017-01-01T07:54:05Z</time>
      </trkpt>
      <trkpt lat="43.94467" lon="7.6965">
        <ele>649.12</ele>
        <time>2017-01-01T07:54:06Z</time>
      </trkpt>
      <trkpt lat="43.94568" lon="7.69695">
        <ele>675.51</ele>
        <time>2017-01-01T07:54:12Z</time>
      </trkpt>
      <trkpt lat="43.94551" lon="7.69778">
        <ele>662.4</ele>
        <time>2017-01-01T07:54:15Z</time>
      </trkpt>
      <trkpt lat="43.94616" lon="7.69795">
        <ele>683.7</ele>
        <time>2017-01-01T07:54:19Z</time>
      </trkpt>
      <trkpt lat="43.94653" lon="7.69912">
        <ele>682.19</ele>
        <time>2017-01-01T07:54:24Z</time>
      </trkpt>
      <trkpt lat="43.94764" lon="7.69967">
        <ele>693.66</ele>
        <time>2017-01-01T07:54:30Z</time>
      </trkpt>
      <trkpt lat="43.9481" lon="7.70158">
        <ele>696.95</ele>
        <time>2017-01-01T07:54:38Z</time>
      </trkpt>
      <trkpt lat="43.94607" lon="7.70385">
        <ele>726.41</ele>
        <time>2017-01-01T07:54:53Z</time>
      </trkpt>
      <trkpt lat="43.9468" lon="7.70529">
        <ele>735.85</ele>
        <time>2017-01-01T07:55:00Z</time>
      </trkpt>
      <trkpt lat="43.94666" lon="7.7073">
        <ele>750.9</ele>
        <time>2017-01-01T07:55:07Z</time>
      </trkpt>
      <trkpt lat="43.94955" lon="7.70689">
        <ele>784.17</ele>
        <time>2017-01-01T07:55:23Z</time>
      </trkpt>
      <trkpt lat="43.9498" lon="7.70854">
        <ele>786.05</ele>
        <time>2017-01-01T07:55:30Z</time>
      </trkpt>
      <trkpt lat="43.95128" lon="7.70867">
        <ele>802.5</ele>
        <time>2017-01-01T07:55:38Z</time>
      </trkpt>
      <trkpt lat="43.95212" lon="7.70928">
        <ele>808.11</ele>
        <time>2017-01-01T07:55:43Z</time>
      </trkpt>
      <trkpt lat="43.95335" lon="7.70952">
        <ele>820.37</ele>
        <time>2017-01-01T07:55:50Z</time>
      </trkpt>
      <trkpt lat="43.95409" lon="7.71019">
        <ele>829.76</ele>
        <time>2017-01-01T07:55:55Z</time>
      </trkpt>
      <trkpt lat="43.9529" lon="7.71358">
        <ele>854.8</ele>
        <time>2017-01-01T07:56:10Z</time>
      </trkpt>
      <trkpt lat="43.95472" lon="7.71516">
        <ele>864.87</ele>
        <time>2017-01-01T07:56:22Z</time>
      </trkpt>
      <trkpt lat="43.95775" lon="7.71246">
        <ele>875.56</ele>
        <time>2017-01-01T07:56:41Z</time>
      </trkpt>
      <trkpt lat="43.95783" lon="7.71363">
        <ele>862.01</ele>
        <time>2017-01-01T07:56:46Z</time>
      </trkpt>
      <trkpt lat="43.95878" lon="7.714">
        <ele>886.81</ele>
        <time>2017-01-01T07:56:51Z</time>
      </trkpt>
      <trkpt lat="43.95832" lon="7.7156">
        <ele>886.49</ele>
        <time>2017-01-01T07:56:58Z</time>
      </trkpt>
      <trkpt lat="43.95896" lon="7.71612">
        <ele>899.03</ele>
        <time>2017-01-01T07:57:02Z</time>
      </trkpt>
      <trkpt lat="43.959" lon="7.71719">
        <ele>900.24</ele>
        <time>2017-01-01T07:57:07Z</time>
      </trkpt>
      <trkpt lat="43.96123" lon="7.71786">
        <ele>923.83</ele>
        <time>2017-01-01T07:57:19Z</time>
      </trkpt>
      <trkpt lat="43.96456" lon="7.71506">
        <ele>971.46</ele>
        <time>2017-01-01T07:57:40Z</time>
      </trkpt>
      <trkpt lat="43.96675" lon="7.72051">
        <ele>1012.84</ele>
        <time>2017-01-01T07:58:05Z</time>
      </trkpt>
      <trkpt lat="43.96614" lon="7.72334">
        <ele>1035.84</ele>
        <time>2017-01-01T07:58:17Z</time>
      </trkpt>
      <trkpt lat="43.96791" lon="7.72425">
        <ele>1063.72</ele>
        <time>2017-01-01T07:58:27Z</time>
      </trkpt>
      <trkpt lat="43.96837" lon="7.72726">
        <ele>1085.41</ele>
        <time>2017-01-01T07:58:39Z</time>
      </trkpt>
      <trkpt lat="43.96789" lon="7.73142">
        <ele>1120.07</ele>
        <time>2017-01-01T07:58:56Z</time>
      </trkpt>
      <trkpt lat="43.97069" lon="7.72869">
        <ele>1138.51</ele>
        <time>2017-01-01T07:59:15Z</time>
      </trkpt>
      <trkpt lat="43.97034" lon="7.72677">
        <ele>1139.9</ele>
        <time>2017-01-01T07:59:22Z</time>
      </trkpt>
      <trkpt lat="43.97131" lon="7.72505">
        <ele>1154</ele>
        <time>2017-01-01T07:59:31Z</time>
      </trkpt>
      <trkpt lat="43.97139" lon="7.72486">
        <ele>1158.65</ele>
        <time>2017-01-01T07:59:32Z</time>
      </trkpt>
      <trkpt lat="43.97104" lon="7.72069">
        <ele>1189.96</ele>
        <time>2017-01-01T07:59:48Z</time>
      </trkpt>
      <trkpt lat="43.9723" lon="7.71477">
        <ele>1233.78</ele>
        <time>2017-01-01T08:00:13Z</time>
      </trkpt>
      <trkpt lat="43.9733" lon="7.71466">
        <ele>1235.5</ele>
        <time>2017-01-01T08:00:18Z</time>
      </trkpt>
      <trkpt lat="43.97465" lon="7.71148">
        <ele>1266.4</ele>
        <time>2017-01-01T08:00:33Z</time>
      </trkpt>
      <trkpt lat="43.9773" lon="7.7094">
        <ele>1268.64</ele>
        <time>2017-01-01T08:00:49Z</time>
      </trkpt>
      <trkpt lat="43.97887" lon="7.70808">
        <ele>1284.89</ele>
        <time>2017-01-01T08:01:00Z</time>
      </trkpt>
      <trkpt lat="43.97995" lon="7.70686">
        <ele>1296.26</ele>
        <time>2017-01-01T08:01:07Z</time>
      </trkpt>
      <trkpt lat="43.98168" lon="7.70591">
        <ele>1315.61</ele>
        <time>2017-01-01T08:01:17Z</time>
      </trkpt>
      <trkpt lat="43.9826" lon="7.70587">
        <ele>1324.54</ele>
        <time>2017-01-01T08:01:22Z</time>
      </trkpt>
      <trkpt lat="43.98359" lon="7.70561">
        <ele>1338.07</ele>
        <time>2017-01-01T08:01:28Z</time>
      </trkpt>
      <trkpt lat="43.98621" lon="7.70576">
        <ele>1359.58</ele>
        <time>2017-01-01T08:01:42Z</time>
      </trkpt>
      <trkpt lat="43.98501" lon="7.70499">
        <ele>1369.03</ele>
        <time>2017-01-01T08:01:50Z</time>
      </trkpt>
      <trkpt lat="43.98529" lon="7.70469">
        <ele>1369.29</ele>
        <time>2017-01-01T08:01:52Z</time>
      </trkpt>
      <trkpt lat="43.9864" lon="7.7052">
        <ele>1379.08</ele>
        <time>2017-01-01T08:01:58Z</time>
      </trkpt>
      <trkpt lat="43.988" lon="7.70411">
        <ele>1405.78</ele>
        <time>2017-01-01T08:02:08Z</time>
      </trkpt>
      <trkpt lat="43.98746" lon="7.70286">
        <ele>1405.38</ele>
        <time>2017-01-01T08:02:13Z</time>
      </trkpt>
      <trkpt lat="43.9883" lon="7.70239">
        <ele>1417.2</ele>
        <time>2017-01-01T08:02:18Z</time>
      </trkpt>
      <trkpt lat="43.99009" lon="7.70278">
        <ele>1430.28</ele>
        <time>2017-01-01T08:02:28Z</time>
      </trkpt>
      <trkpt lat="43.99126" lon="7.70267">
        <ele>1445.22</ele>
        <time>2017-01-01T08:02:35Z</time>
      </trkpt>
      <trkpt lat="43.99148" lon="7.70138">
        <ele>1444.8</ele>
        <time>2017-01-01T08:02:40Z</time>
      </trkpt>
      <trkpt lat="43.99051" lon="7.69767">
        <ele>1450.58</ele>
        <time>2017-01-01T08:02:56Z</time>
      </trkpt>
      <trkpt lat="43.99142" lon="7.69456">
        <ele>1454.02</ele>
        <time>2017-01-01T08:03:09Z</time>
      </trkpt>
      <trkpt lat="43.99114" lon="7.69359">
        <ele>1456.55</ele>
        <time>2017-01-01T08:03:13Z</time>
      </trkpt>
      <trkpt lat="43.99186" lon="7.69272">
        <ele>1471.39</ele>
        <time>2017-01-01T08:03:18Z</time>
      </trkpt>
      <trkpt lat="43.99205" lon="7.68591">
        <ele>1516.6</ele>
        <time>2017-01-01T08:03:45Z</time>
      </trkpt>
      <trkpt lat="43.98904" lon="7.68414">
        <ele>1538.23</ele>
        <time>2017-01-01T08:04:03Z</time>
      </trkpt>
      <trkpt lat="43.99127" lon="7.68424">
        <ele>1555.16</ele>
        <time>2017-01-01T08:04:15Z</time>
      </trkpt>
      <trkpt lat="43.99174" lon="7.68404">
        <ele>1567.07</ele>
        <time>2017-01-01T08:04:18Z</time>
      </trkpt>
      <trkpt lat="43.9917" lon="7.68333">
        <ele>1569.21</ele>
        <time>2017-01-01T08:04:21Z</time>
      </trkpt>
      <trkpt lat="43.99189" lon="7.68209">
        <ele>1575.63</ele>
        <time>2017-01-01T08:04:26Z</time>
      </trkpt>
      <trkpt lat="43.99157" lon="7.68061">
        <ele>1583.02</ele>
        <time>2017-01-01T08:04:32Z</time>
      </trkpt>
      <trkpt lat="43.99242" lon="7.67988">
        <ele>1598.13</ele>
        <time>2017-01-01T08:04:37Z</time>
      </trkpt>
      <trkpt lat="43.99328" lon="7.6769">
        <ele>1620.26</ele>
        <time>2017-01-01T08:04:50Z</time>
      </trkpt>
      <trkpt lat="43.99294" lon="7.67638">
        <ele>1624.47</ele>
        <time>2017-01-01T08:04:53Z</time>
      </trkpt>
      <trkpt lat="43.99291" lon="7.67624">
        <ele>1626.86</ele>
        <time>2017-01-01T08:04:53Z</time>
      </trkpt>
      <trkpt lat="43.99316" lon="7.67375">
        <ele>1638.56</ele>
        <time>2017-01-01T08:05:03Z</time>
      </trkpt>
      <trkpt lat="43.99332" lon="7.67105">
        <ele>1654</ele>
        <time>2017-01-01T08:05:14Z</time>
      </trkpt>
      <trkpt lat="43.99362" lon="7.67387">
        <ele>1674.19</ele>
        <time>2017-01-01T08:05:25Z</time>
      </trkpt>
      <trkpt lat="43.99367" lon="7.67581">
        <ele>1688.43</ele>
        <time>2017-01-01T08:05:33Z</time>
      </trkpt>
      <trkpt lat="43.99441" lon="7.67614">
        <ele>1698.95</ele>
        <time>2017-01-01T08:05:37Z</time>
      </trkpt>
      <trkpt lat="43.99389" lon="7.67568">
        <ele>1701.92</ele>
        <time>2017-01-01T08:05:40Z</time>
      </trkpt>
      <trkpt lat="43.99386" lon="7.67462">
        <ele>1704.98</ele>
        <time>2017-01-01T08:05:45Z</time>
      </trkpt>
      <trkpt lat="43.9941" lon="7.67378">
        <ele>1713.46</ele>
        <time>2017-01-01T08:05:48Z</time>
      </trkpt>
      <trkpt lat="43.99383" lon="7.67201">
        <ele>1719.2</ele>
        <time>2017-01-01T08:05:55Z</time>
      </trkpt>
      <trkpt lat="43.99431" lon="7.67157">
        <ele>1731.72</ele>
        <time>2017-01-01T08:05:58Z</time>
      </trkpt>
      <trkpt lat="43.99435" lon="7.67154">
        <ele>1732.7</ele>
        <time>2017-01-01T08:05:59Z</time>
      </trkpt>
      <trkpt lat="43.99454" lon="7.67055">
        <ele>1737.49</ele>
        <time>2017-01-01T08:06:03Z</time>
      </trkpt>
      <trkpt lat="43.99434" lon="7.6689">
        <ele>1745.12</ele>
        <time>2017-01-01T08:06:09Z</time>
      </trkpt>
      <trkpt lat="43.99333" lon="7.66852">
        <ele>1747.02</ele>
        <time>2017-01-01T08:06:15Z</time>
      </trkpt>
      <trkpt lat="43.99288" lon="7.66686">
        <ele>1766.57</ele>
        <time>2017-01-01T08:06:22Z</time>
      </trkpt>
      <trkpt lat="43.99186" lon="7.66546">
        <ele>1779.4</ele>
        <time>2017-01-01T08:06:30Z</time>
      </trkpt>
      <trkpt lat="43.98967" lon="7.66712">
        <ele>1788.3</ele>
        <time>2017-01-01T08:06:44Z</time>
      </trkpt>
      <trkpt lat="43.99171" lon="7.6647">
        <ele>1812.26</ele>
        <time>2017-01-01T08:06:58Z</time>
      </trkpt>
      <trkpt lat="43.99222" lon="7.66507">
        <ele>1812.24</ele>
        <time>2017-01-01T08:07:01Z</time>
      </trkpt>
      <trkpt lat="43.99307" lon="7.66575">
        <ele>1823.61</ele>
        <time>2017-01-01T08:07:07Z</time>
      </trkpt>
      <trkpt lat="43.99404" lon="7.66743">
        <ele>1828.45</ele>
        <time>2017-01-01T08:07:15Z</time>
      </trkpt>
      <trkpt lat="43.99505" lon="7.66704">
        <ele>1846.87</ele>
        <time>2017-01-01T08:07:21Z</time>
      </trkpt>
      <trkpt lat="43.99606" lon="7.66805">
        <ele>1853.95</ele>
        <time>2017-01-01T08:07:28Z</time>
      </trkpt>
      <trkpt lat="43.9957" lon="7.67254">
        <ele>1867.96</ele>
        <time>2017-01-01T08:07:46Z</time>
      </trkpt>
      <trkpt lat="43.99703" lon="7.67429">
        <ele>1882.75</ele>
        <time>2017-01-01T08:07:56Z</time>
      </trkpt>
      <trkpt lat="43.99746" lon="7.67425">
        <ele>1894.39</ele>
        <time>2017-01-01T08:07:58Z</time>
      </trkpt>
      <trkpt lat="43.99839" lon="7.67323">
        <ele>1911.67</ele>
        <time>2017-01-01T08:08:04Z</time>
      </trkpt>
      <trkpt lat="43.99849" lon="7.67196">
        <ele>1919.66</ele>
        <time>2017-01-01T08:08:09Z</time>
      </trkpt>
      <trkpt lat="43.99884" lon="7.6712">
        <ele>1928.7</ele>
        <time>2017-01-01T08:08:13Z</time>
      </trkpt>
      <trkpt lat="43.99934" lon="7.67104">
        <ele>1923.96</ele>
        <time>2017-01-01T08:08:16Z</time>
      </trkpt>
      <trkpt lat="44.00068" lon="7.66973">
        <ele>1944.75</ele>
        <time>2017-01-01T08:08:25Z</time>
      </trkpt>
      <trkpt lat="44.00148" lon="7.66856">
        <ele>1955.28</ele>
        <time>2017-01-01T08:08:31Z</time>
      </trkpt>
      <trkpt lat="44.00223" lon="7.66845">
        <ele>1950.67</ele>
        <time>2017-01-01T08:08:35Z</time>
      </trkpt>
      <trkpt lat="44.00523" lon="7.66773">
        <ele>1956.31</ele>
        <time>2017-01-01T08:08:52Z</time>
      </trkpt>
      <trkpt lat="44.00654" lon="7.66793">
        <ele>1952.45</ele>
        <time>2017-01-01T08:08:59Z</time>
      </trkpt>
      <trkpt lat="44.00732" lon="7.66639">
        <ele>1957.51</ele>
        <time>2017-01-01T08:09:07Z</time>
      </trkpt>
      <trkpt lat="44.00825" lon="7.66587">
        <ele>1941.18</ele>
        <time>2017-01-01T08:09:12Z</time>
      </trkpt>
      <trkpt lat="44.00964" lon="7.66571">
        <ele>1936.13</ele>
        <time>2017-01-01T08:09:20Z</time>
      </trkpt>
      <trkpt lat="44.0116" lon="7.66603">
        <ele>1940.38</ele>
        <time>2017-01-01T08:09:31Z</time>
      </trkpt>
      <trkpt lat="44.01233" lon="7.66506">
        <ele>1948</ele>
        <time>2017-01-01T08:09:36Z</time>
      </trkpt>
      <trkpt lat="44.01364" lon="7.66413">
        <ele>1955.36</ele>
        <time>2017-01-01T08:09:44Z</time>
      </trkpt>
      <trkpt lat="44.01583" lon="7.66307">
        <ele>1946.19</ele>
        <time>2017-01-01T08:09:57Z</time>
      </trkpt>
      <trkpt lat="44.01796" lon="7.6625">
        <ele>1927.7</ele>
        <time>2017-01-01T08:10:09Z</time>
      </trkpt>
      <trkpt lat="44.02067" lon="7.66463">
        <ele>1895.64</ele>
        <time>2017-01-01T08:10:26Z</time>
      </trkpt>
      <trkpt lat="44.02163" lon="7.66473">
        <ele>1885.11</ele>
        <time>2017-01-01T08:10:31Z</time>
      </trkpt>
      <trkpt lat="44.02276" lon="7.66315">
        <ele>1873.76</ele>
        <time>2017-01-01T08:10:40Z</time>
      </trkpt>
      <trkpt lat="44.02425" lon="7.66344">
        <ele>1858.67</ele>
        <time>2017-01-01T08:10:48Z</time>
      </trkpt>
      <trkpt lat="44.025" lon="7.66418">
        <ele>1850.38</ele>
        <time>2017-01-01T08:10:53Z</time>
      </trkpt>
      <trkpt lat="44.02652" lon="7.66415">
        <ele>1837.7</ele>
        <time>2017-01-01T08:11:02Z</time>
      </trkpt>
      <trkpt lat="44.02808" lon="7.66436">
        <ele>1824.62</ele>
        <time>2017-01-01T08:11:10Z</time>
      </trkpt>
      <trkpt lat="44.02864" lon="7.66673">
        <ele>1805.93</ele>
        <time>2017-01-01T08:11:20Z</time>
      </trkpt>
      <trkpt lat="44.03076" lon="7.66749">
        <ele>1788.79</ele>
        <time>2017-01-01T08:11:32Z</time>
      </trkpt>
      <trkpt lat="44.03077" lon="7.66926">
        <ele>1777.77</ele>
        <time>2017-01-01T08:11:39Z</time>
      </trkpt>
      <trkpt lat="44.03002" lon="7.67192">
        <ele>1759.78</ele>
        <time>2017-01-01T08:11:50Z</time>
      </trkpt>
      <trkpt lat="44.02936" lon="7.67446">
        <ele>1741.15</ele>
        <time>2017-01-01T08:12:01Z</time>
      </trkpt>
      <trkpt lat="44.02949" lon="7.67555">
        <ele>1735.92</ele>
        <time>2017-01-01T08:12:05Z</time>
      </trkpt>
      <trkpt lat="44.0299" lon="7.67551">
        <ele>1735.15</ele>
        <time>2017-01-01T08:12:07Z</time>
      </trkpt>
      <trkpt lat="44.03066" lon="7.67535">
        <ele>1736.76</ele>
        <time>2017-01-01T08:12:12Z</time>
      </trkpt>
      <trkpt lat="44.03138" lon="7.67601">
        <ele>1713.57</ele>
        <time>2017-01-01T08:12:16Z</time>
      </trkpt>
      <trkpt lat="44.03227" lon="7.67656">
        <ele>1706.13</ele>
        <time>2017-01-01T08:12:22Z</time>
      </trkpt>
      <trkpt lat="44.03241" lon="7.67677">
        <ele>1697.4</ele>
      </trkpt>
      <trkpt lat="44.03257" lon="7.67728">
        <ele>1695.9</ele>
      </trkpt>
      <trkpt lat="44.03313" lon="7.67777">
        <ele>1691.4</ele>
      </trkpt>
      <trkpt lat="44.03356" lon="7.67844">
        <ele>1687.1</ele>
      </trkpt>
      <trkpt lat="44.03379" lon="7.679">
        <ele>1685.8</ele>
      </trkpt>
      <trkpt lat="44.03378" lon="7.6795">
        <ele>1680.4</ele>
      </trkpt>
      <trkpt lat="44.03481" lon="7.68097">
        <ele>1681.4</ele>
      </trkpt>
      <trkpt lat="44.03531" lon="7.6819">
        <ele>1682.1</ele>
      </trkpt>
      <trkpt lat="44.0355" lon="7.68244">
        <ele>1680.9</ele>
      </trkpt>
      <trkpt lat="44.03654" lon="7.68319">
        <ele>1674.3</ele>
      </trkpt>
      <trkpt lat="44.03674" lon="7.68398">
        <ele>1670.7</ele>
      </trkpt>
      <trkpt lat="44.03715" lon="7.68465">
        <ele>1674.2</ele>
      </trkpt>
      <trkpt lat="44.03731" lon="7.68579">
        <ele>1675.1</ele>
      </trkpt>
      <trkpt lat="44.03709" lon="7.68645">
        <ele>1667.3</ele>
      </trkpt>
      <trkpt lat="44.03709" lon="7.68686">
        <ele>1664</ele>
      </trkpt>
      <trkpt lat="44.03781" lon="7.68743">
        <ele>1686.4</ele>
      </trkpt>
      <trkpt lat="44.03807" lon="7.68835">
        <ele>1665.6</ele>
      </trkpt>
      <trkpt lat="44.038" lon="7.6886">
        <ele>1659.5</ele>
      </trkpt>
      <trkpt lat="44.03866" lon="7.68944">
        <ele>1676.5</ele>
      </trkpt>
      <trkpt lat="44.03871" lon="7.69041">
        <ele>1666.7</ele>
      </trkpt>
      <trkpt lat="44.03857" lon="7.69077">
        <ele>1658.4</ele>
      </trkpt>
      <trkpt lat="44.03881" lon="7.69158">
        <ele>1665.9</ele>
      </trkpt>
      <trkpt lat="44.03867" lon="7.69219">
        <ele>1660.6</ele>
      </trkpt>
      <trkpt lat="44.03868" lon="7.69277">
        <ele>1669.6</ele>
      </trkpt>
      <trkpt lat="44.03809" lon="7.69395">
        <ele>1651.4</ele>
      </trkpt>
      <trkpt lat="44.03801" lon="7.69443">
        <ele>1661.9</ele>
      </trkpt>
      <trkpt lat="44.03765" lon="7.69493">
        <ele>1657</ele>
      </trkpt>
      <trkpt lat="44.03627" lon="7.69591">
        <ele>1650.2</ele>
      </trkpt>
      <trkpt lat="44.03601" lon="7.6963">
        <ele>1648.6</ele>
      </trkpt>
      <trkpt lat="44.03608" lon="7.69653">
        <ele>1650.2</ele>
      </trkpt>
      <trkpt lat="44.03657" lon="7.69647">
        <ele>1656.1</ele>
      </trkpt>
      <trkpt lat="44.03736" lon="7.69658">
        <ele>1667.6</ele>
      </trkpt>
      <trkpt lat="44.03805" lon="7.69648">
        <ele>1678.7</ele>
      </trkpt>
      <trkpt lat="44.03849" lon="7.69701">
        <ele>1666.8</ele>
      </trkpt>
      <trkpt lat="44.03896" lon="7.697">
        <ele>1672.4</ele>
      </trkpt>
      <trkpt lat="44.03915" lon="7.69754">
        <ele>1657.3</ele>
      </trkpt>
      <trkpt lat="44.03979" lon="7.6983">
        <ele>1664.2</ele>
      </trkpt>
      <trkpt lat="44.04001" lon="7.69946">
        <ele>1671.8</ele>
      </trkpt>
      <trkpt lat="44.03927" lon="7.70078">
        <ele>1638.6</ele>
      </trkpt>
      <trkpt lat="44.03953" lon="7.70136">
        <ele>1643.7</ele>
      </trkpt>
      <trkpt lat="44.03977" lon="7.70147">
        <ele>1646.1</ele>
      </trkpt>
      <trkpt lat="44.04008" lon="7.7011">
        <ele>1666.1</ele>
      </trkpt>
      <trkpt lat="44.04057" lon="7.70108">
        <ele>1667.2</ele>
      </trkpt>
      <trkpt lat="44.04109" lon="7.70132">
        <ele>1668.3</ele>
      </trkpt>
      <trkpt lat="44.04137" lon="7.70133">
        <ele>1671.6</ele>
      </trkpt>
      <trkpt lat="44.04155" lon="7.7016">
        <ele>1665.9</ele>
      </trkpt>
      <trkpt lat="44.04182" lon="7.70166">
        <ele>1677.6</ele>
      </trkpt>
      <trkpt lat="44.042" lon="7.70225">
        <ele>1656.7</ele>
      </trkpt>
      <trkpt lat="44.0424" lon="7.70258">
        <ele>1653.1</ele>
      </trkpt>
      <trkpt lat="44.04253" lon="7.70307">
        <ele>1666.7</ele>
      </trkpt>
      <trkpt lat="44.04261" lon="7.704">
        <ele>1644.4</ele>
      </trkpt>
      <trkpt lat="44.04268" lon="7.70487">
        <ele>1625.1</ele>
      </trkpt>
      <trkpt lat="44.04301" lon="7.70518">
        <ele>1618.8</ele>
      </trkpt>
      <trkpt lat="44.04337" lon="7.70518">
        <ele>1631</ele>
      </trkpt>
      <trkpt lat="44.04408" lon="7.70432">
        <ele>1649.3</ele>
      </trkpt>
      <trkpt lat="44.04481" lon="7.70368">
        <ele>1649</ele>
      </trkpt>
      <trkpt lat="44.04563" lon="7.70325">
        <ele>1632.8</ele>
      </trkpt>
      <trkpt lat="44.0458" lon="7.7033">
        <ele>1601.465</ele>
        <time>2018-07-01T11:45:59Z</time>
      </trkpt>
      <trkpt lat="44.04581" lon="7.70323">
        <ele>1601.678</ele>
        <time>2018-07-01T11:46:01Z</time>
      </trkpt>
      <trkpt lat="44.04594" lon="7.70318">
        <ele>1602.95</ele>
        <time>2018-07-01T11:46:03Z</time>
      </trkpt>
      <trkpt lat="44.04601" lon="7.70315">
        <ele>1604.973</ele>
        <time>2018-07-01T11:46:04Z</time>
      </trkpt>
      <trkpt lat="44.04607" lon="7.7031">
        <ele>1604.618</ele>
        <time>2018-07-01T11:46:05Z</time>
      </trkpt>
      <trkpt lat="44.04612" lon="7.70307">
        <ele>1605.069</ele>
        <time>2018-07-01T11:46:06Z</time>
      </trkpt>
      <trkpt lat="44.04618" lon="7.70304">
        <ele>1605.495</ele>
        <time>2018-07-01T11:46:07Z</time>
      </trkpt>
      <trkpt lat="44.04624" lon="7.70302">
        <ele>1606.549</ele>
        <time>2018-07-01T11:46:08Z</time>
      </trkpt>
      <trkpt lat="44.04629" lon="7.70298">
        <ele>1607.823</ele>
        <time>2018-07-01T11:46:09Z</time>
      </trkpt>
      <trkpt lat="44.04631" lon="7.7029">
        <ele>1609.908</ele>
        <time>2018-07-01T11:46:12Z</time>
      </trkpt>
      <trkpt lat="44.04635" lon="7.70286">
        <ele>1611.031</ele>
        <time>2018-07-01T11:46:14Z</time>
      </trkpt>
      <trkpt lat="44.04646" lon="7.70284">
        <ele>1610.935</ele>
        <time>2018-07-01T11:46:16Z</time>
      </trkpt>
      <trkpt lat="44.04653" lon="7.70283">
        <ele>1610.311</ele>
        <time>2018-07-01T11:46:17Z</time>
      </trkpt>
      <trkpt lat="44.04658" lon="7.70282">
        <ele>1611.234</ele>
        <time>2018-07-01T11:46:18Z</time>
      </trkpt>
      <trkpt lat="44.04665" lon="7.70282">
        <ele>1610.696</ele>
        <time>2018-07-01T11:46:20Z</time>
      </trkpt>
      <trkpt lat="44.04671" lon="7.7028">
        <ele>1610.269</ele>
        <time>2018-07-01T11:46:21Z</time>
      </trkpt>
      <trkpt lat="44.04677" lon="7.70279">
        <ele>1610.154</ele>
        <time>2018-07-01T11:46:22Z</time>
      </trkpt>
      <trkpt lat="44.04682" lon="7.70279">
        <ele>1610.125</ele>
        <time>2018-07-01T11:46:23Z</time>
      </trkpt>
      <trkpt lat="44.04688" lon="7.70277">
        <ele>1610.796</ele>
        <time>2018-07-01T11:46:24Z</time>
      </trkpt>
      <trkpt lat="44.04692" lon="7.70277">
        <ele>1611.031</ele>
        <time>2018-07-01T11:46:25Z</time>
      </trkpt>
      <trkpt lat="44.04697" lon="7.70277">
        <ele>1611.324</ele>
        <time>2018-07-01T11:46:26Z</time>
      </trkpt>
      <trkpt lat="44.04702" lon="7.70275">
        <ele>1611.308</ele>
        <time>2018-07-01T11:46:27Z</time>
      </trkpt>
      <trkpt lat="44.04709" lon="7.70269">
        <ele>1611.121</ele>
        <time>2018-07-01T11:46:29Z</time>
      </trkpt>
      <trkpt lat="44.04715" lon="7.7027">
        <ele>1610.295</ele>
        <time>2018-07-01T11:46:30Z</time>
      </trkpt>
      <trkpt lat="44.0472" lon="7.7027">
        <ele>1610.241</ele>
        <time>2018-07-01T11:46:31Z</time>
      </trkpt>
      <trkpt lat="44.04726" lon="7.7027">
        <ele>1609.924</ele>
        <time>2018-07-01T11:46:32Z</time>
      </trkpt>
      <trkpt lat="44.04731" lon="7.70272">
        <ele>1609.226</ele>
        <time>2018-07-01T11:46:33Z</time>
      </trkpt>
      <trkpt lat="44.04738" lon="7.70272">
        <ele>1608.739</ele>
        <time>2018-07-01T11:46:34Z</time>
      </trkpt>
      <trkpt lat="44.04744" lon="7.70273">
        <ele>1608.734</ele>
        <time>2018-07-01T11:46:35Z</time>
      </trkpt>
      <trkpt lat="44.04759" lon="7.70273">
        <ele>1608.325</ele>
        <time>2018-07-01T11:46:37Z</time>
      </trkpt>
      <trkpt lat="44.04768" lon="7.70274">
        <ele>1606.923</ele>
        <time>2018-07-01T11:46:38Z</time>
      </trkpt>
      <trkpt lat="44.04776" lon="7.70275">
        <ele>1606.183</ele>
        <time>2018-07-01T11:46:39Z</time>
      </trkpt>
      <trkpt lat="44.04782" lon="7.70277">
        <ele>1605.211</ele>
        <time>2018-07-01T11:46:40Z</time>
      </trkpt>
      <trkpt lat="44.04788" lon="7.70277">
        <ele>1605.108</ele>
        <time>2018-07-01T11:46:41Z</time>
      </trkpt>
      <trkpt lat="44.04793" lon="7.70277">
        <ele>1602.884</ele>
        <time>2018-07-01T11:46:42Z</time>
      </trkpt>
      <trkpt lat="44.048" lon="7.70276">
        <ele>1602.868</ele>
        <time>2018-07-01T11:46:43Z</time>
      </trkpt>
      <trkpt lat="44.04806" lon="7.70275">
        <ele>1601.094</ele>
        <time>2018-07-01T11:46:44Z</time>
      </trkpt>
      <trkpt lat="44.04812" lon="7.70275">
        <ele>1600.667</ele>
        <time>2018-07-01T11:46:45Z</time>
      </trkpt>
      <trkpt lat="44.04819" lon="7.70273">
        <ele>1600.969</ele>
        <time>2018-07-01T11:46:46Z</time>
      </trkpt>
      <trkpt lat="44.04828" lon="7.70272">
        <ele>1601.132</ele>
        <time>2018-07-01T11:46:47Z</time>
      </trkpt>
      <trkpt lat="44.04834" lon="7.7027">
        <ele>1601.467</ele>
        <time>2018-07-01T11:46:48Z</time>
      </trkpt>
      <trkpt lat="44.04839" lon="7.70268">
        <ele>1601.038</ele>
        <time>2018-07-01T11:46:49Z</time>
      </trkpt>
      <trkpt lat="44.04845" lon="7.70265">
        <ele>1601.031</ele>
        <time>2018-07-01T11:46:50Z</time>
      </trkpt>
      <trkpt lat="44.0485" lon="7.70263">
        <ele>1601.861</ele>
        <time>2018-07-01T11:46:51Z</time>
      </trkpt>
      <trkpt lat="44.04859" lon="7.70258">
        <ele>1603.307</ele>
        <time>2018-07-01T11:46:53Z</time>
      </trkpt>
      <trkpt lat="44.04863" lon="7.70252">
        <ele>1603.108</ele>
        <time>2018-07-01T11:46:54Z</time>
      </trkpt>
      <trkpt lat="44.04871" lon="7.70245">
        <ele>1603.245</ele>
        <time>2018-07-01T11:46:56Z</time>
      </trkpt>
      <trkpt lat="44.04874" lon="7.70241">
        <ele>1603.239</ele>
        <time>2018-07-01T11:46:57Z</time>
      </trkpt>
      <trkpt lat="44.04881" lon="7.7024">
        <ele>1603.585</ele>
        <time>2018-07-01T11:46:58Z</time>
      </trkpt>
      <trkpt lat="44.04885" lon="7.70239">
        <ele>1603.628</ele>
        <time>2018-07-01T11:46:59Z</time>
      </trkpt>
      <trkpt lat="44.04892" lon="7.70239">
        <ele>1603.94</ele>
        <time>2018-07-01T11:47:00Z</time>
      </trkpt>
      <trkpt lat="44.04898" lon="7.70239">
        <ele>1603.483</ele>
        <time>2018-07-01T11:47:01Z</time>
      </trkpt>
      <trkpt lat="44.04905" lon="7.7024">
        <ele>1604.648</ele>
        <time>2018-07-01T11:47:02Z</time>
      </trkpt>
      <trkpt lat="44.04914" lon="7.70242">
        <ele>1605.719</ele>
        <time>2018-07-01T11:47:04Z</time>
      </trkpt>
      <trkpt lat="44.04918" lon="7.70245">
        <ele>1605.665</ele>
        <time>2018-07-01T11:47:05Z</time>
      </trkpt>
      <trkpt lat="44.04923" lon="7.70249">
        <ele>1605.168</ele>
        <time>2018-07-01T11:47:06Z</time>
      </trkpt>
      <trkpt lat="44.04928" lon="7.7025">
        <ele>1605.314</ele>
        <time>2018-07-01T11:47:07Z</time>
      </trkpt>
      <trkpt lat="44.04931" lon="7.70254">
        <ele>1605.108</ele>
        <time>2018-07-01T11:47:08Z</time>
      </trkpt>
      <trkpt lat="44.04941" lon="7.70258">
        <ele>1605.298</ele>
        <time>2018-07-01T11:47:10Z</time>
      </trkpt>
      <trkpt lat="44.04954" lon="7.70262">
        <ele>1605.522</ele>
        <time>2018-07-01T11:47:11Z</time>
      </trkpt>
      <trkpt lat="44.04963" lon="7.70268">
        <ele>1604.228</ele>
        <time>2018-07-01T11:47:13Z</time>
      </trkpt>
      <trkpt lat="44.04969" lon="7.70273">
        <ele>1604.941</ele>
        <time>2018-07-01T11:47:14Z</time>
      </trkpt>
      <trkpt lat="44.04974" lon="7.70275">
        <ele>1603.623</ele>
        <time>2018-07-01T11:47:15Z</time>
      </trkpt>
      <trkpt lat="44.04981" lon="7.70282">
        <ele>1603.766</ele>
        <time>2018-07-01T11:47:16Z</time>
      </trkpt>
      <trkpt lat="44.04987" lon="7.70288">
        <ele>1603.791</ele>
        <time>2018-07-01T11:47:17Z</time>
      </trkpt>
      <trkpt lat="44.04994" lon="7.70293">
        <ele>1603.862</ele>
        <time>2018-07-01T11:47:18Z</time>
      </trkpt>
      <trkpt lat="44.05003" lon="7.70296">
        <ele>1604.263</ele>
        <time>2018-07-01T11:47:19Z</time>
      </trkpt>
      <trkpt lat="44.05009" lon="7.70299">
        <ele>1604.044</ele>
        <time>2018-07-01T11:47:20Z</time>
      </trkpt>
      <trkpt lat="44.05014" lon="7.70299">
        <ele>1603.518</ele>
        <time>2018-07-01T11:47:21Z</time>
      </trkpt>
      <trkpt lat="44.05021" lon="7.703">
        <ele>1604.608</ele>
        <time>2018-07-01T11:47:22Z</time>
      </trkpt>
      <trkpt lat="44.05027" lon="7.70299">
        <ele>1604.448</ele>
        <time>2018-07-01T11:47:23Z</time>
      </trkpt>
      <trkpt lat="44.05032" lon="7.70301">
        <ele>1604.642</ele>
        <time>2018-07-01T11:47:24Z</time>
      </trkpt>
      <trkpt lat="44.05037" lon="7.703">
        <ele>1604.688</ele>
        <time>2018-07-01T11:47:25Z</time>
      </trkpt>
      <trkpt lat="44.05042" lon="7.70299">
        <ele>1604.581</ele>
        <time>2018-07-01T11:47:26Z</time>
      </trkpt>
      <trkpt lat="44.05047" lon="7.70297">
        <ele>1604.943</ele>
        <time>2018-07-01T11:47:27Z</time>
      </trkpt>
      <trkpt lat="44.05053" lon="7.70296">
        <ele>1605.176</ele>
        <time>2018-07-01T11:47:28Z</time>
      </trkpt>
      <trkpt lat="44.0506" lon="7.70295">
        <ele>1605.731</ele>
        <time>2018-07-01T11:47:29Z</time>
      </trkpt>
      <trkpt lat="44.05065" lon="7.70293">
        <ele>1606.862</ele>
        <time>2018-07-01T11:47:30Z</time>
      </trkpt>
      <trkpt lat="44.05072" lon="7.70292">
        <ele>1607.743</ele>
        <time>2018-07-01T11:47:31Z</time>
      </trkpt>
      <trkpt lat="44.0508" lon="7.7029">
        <ele>1609.664</ele>
        <time>2018-07-01T11:47:33Z</time>
      </trkpt>
      <trkpt lat="44.05088" lon="7.7029">
        <ele>1609.91</ele>
        <time>2018-07-01T11:47:34Z</time>
      </trkpt>
      <trkpt lat="44.05092" lon="7.70288">
        <ele>1610.208</ele>
        <time>2018-07-01T11:47:35Z</time>
      </trkpt>
      <trkpt lat="44.05098" lon="7.70284">
        <ele>1609.766</ele>
        <time>2018-07-01T11:47:36Z</time>
      </trkpt>
      <trkpt lat="44.05103" lon="7.70282">
        <ele>1609.27</ele>
        <time>2018-07-01T11:47:37Z</time>
      </trkpt>
      <trkpt lat="44.0511" lon="7.70281">
        <ele>1609.016</ele>
        <time>2018-07-01T11:47:38Z</time>
      </trkpt>
      <trkpt lat="44.05117" lon="7.70279">
        <ele>1610.839</ele>
        <time>2018-07-01T11:47:39Z</time>
      </trkpt>
      <trkpt lat="44.05124" lon="7.70273">
        <ele>1610.991</ele>
        <time>2018-07-01T11:47:40Z</time>
      </trkpt>
      <trkpt lat="44.0513" lon="7.70269">
        <ele>1611.564</ele>
        <time>2018-07-01T11:47:41Z</time>
      </trkpt>
      <trkpt lat="44.05136" lon="7.70265">
        <ele>1611.929</ele>
        <time>2018-07-01T11:47:42Z</time>
      </trkpt>
      <trkpt lat="44.05143" lon="7.70262">
        <ele>1613.18</ele>
        <time>2018-07-01T11:47:43Z</time>
      </trkpt>
      <trkpt lat="44.05147" lon="7.70254">
        <ele>1613.959</ele>
        <time>2018-07-01T11:47:44Z</time>
      </trkpt>
      <trkpt lat="44.05151" lon="7.70248">
        <ele>1614.803</ele>
        <time>2018-07-01T11:47:45Z</time>
      </trkpt>
      <trkpt lat="44.05156" lon="7.70241">
        <ele>1615.223</ele>
        <time>2018-07-01T11:47:46Z</time>
      </trkpt>
      <trkpt lat="44.05159" lon="7.70231">
        <ele>1616.508</ele>
        <time>2018-07-01T11:47:47Z</time>
      </trkpt>
      <trkpt lat="44.05162" lon="7.70226">
        <ele>1614.617</ele>
        <time>2018-07-01T11:47:48Z</time>
      </trkpt>
      <trkpt lat="44.05168" lon="7.70217">
        <ele>1615.421</ele>
        <time>2018-07-01T11:47:50Z</time>
      </trkpt>
      <trkpt lat="44.05171" lon="7.70211">
        <ele>1616.287</ele>
        <time>2018-07-01T11:47:51Z</time>
      </trkpt>
      <trkpt lat="44.05178" lon="7.70212">
        <ele>1616.64</ele>
        <time>2018-07-01T11:47:53Z</time>
      </trkpt>
      <trkpt lat="44.05177" lon="7.7022">
        <ele>1617.192</ele>
        <time>2018-07-01T11:47:54Z</time>
      </trkpt>
      <trkpt lat="44.05173" lon="7.70225">
        <ele>1618.645</ele>
        <time>2018-07-01T11:47:55Z</time>
      </trkpt>
      <trkpt lat="44.05169" lon="7.70227">
        <ele>1620.44</ele>
        <time>2018-07-01T11:47:56Z</time>
      </trkpt>
      <trkpt lat="44.05162" lon="7.70235">
        <ele>1621.211</ele>
        <time>2018-07-01T11:47:58Z</time>
      </trkpt>
      <trkpt lat="44.05159" lon="7.7024">
        <ele>1621.854</ele>
        <time>2018-07-01T11:47:59Z</time>
      </trkpt>
      <trkpt lat="44.0516" lon="7.70246">
        <ele>1621.456</ele>
        <time>2018-07-01T11:48:00Z</time>
      </trkpt>
      <trkpt lat="44.05161" lon="7.70256">
        <ele>1622.311</ele>
        <time>2018-07-01T11:48:02Z</time>
      </trkpt>
      <trkpt lat="44.05154" lon="7.70266">
        <ele>1622.708</ele>
        <time>2018-07-01T11:48:03Z</time>
      </trkpt>
      <trkpt lat="44.05149" lon="7.70275">
        <ele>1622.837</ele>
        <time>2018-07-01T11:48:04Z</time>
      </trkpt>
      <trkpt lat="44.05143" lon="7.70281">
        <ele>1623.971</ele>
        <time>2018-07-01T11:48:05Z</time>
      </trkpt>
      <trkpt lat="44.05138" lon="7.70289">
        <ele>1625.047</ele>
        <time>2018-07-01T11:48:06Z</time>
      </trkpt>
      <trkpt lat="44.05131" lon="7.70296">
        <ele>1626.85</ele>
        <time>2018-07-01T11:48:07Z</time>
      </trkpt>
      <trkpt lat="44.05125" lon="7.70302">
        <ele>1626.382</ele>
        <time>2018-07-01T11:48:08Z</time>
      </trkpt>
      <trkpt lat="44.05123" lon="7.70308">
        <ele>1625.095</ele>
        <time>2018-07-01T11:48:09Z</time>
      </trkpt>
      <trkpt lat="44.05118" lon="7.70312">
        <ele>1625.36</ele>
        <time>2018-07-01T11:48:10Z</time>
      </trkpt>
      <trkpt lat="44.0511" lon="7.70317">
        <ele>1626.211</ele>
        <time>2018-07-01T11:48:12Z</time>
      </trkpt>
      <trkpt lat="44.05107" lon="7.70324">
        <ele>1626.414</ele>
        <time>2018-07-01T11:48:14Z</time>
      </trkpt>
      <trkpt lat="44.05111" lon="7.7033">
        <ele>1628.554</ele>
        <time>2018-07-01T11:48:16Z</time>
      </trkpt>
      <trkpt lat="44.05117" lon="7.70328">
        <ele>1629.609</ele>
        <time>2018-07-01T11:48:18Z</time>
      </trkpt>
      <trkpt lat="44.05118" lon="7.70321">
        <ele>1631.508</ele>
        <time>2018-07-01T11:48:20Z</time>
      </trkpt>
      <trkpt lat="44.05122" lon="7.70317">
        <ele>1633.253</ele>
        <time>2018-07-01T11:48:22Z</time>
      </trkpt>
      <trkpt lat="44.05129" lon="7.70313">
        <ele>1634.447</ele>
        <time>2018-07-01T11:48:23Z</time>
      </trkpt>
      <trkpt lat="44.05135" lon="7.70308">
        <ele>1635.073</ele>
        <time>2018-07-01T11:48:24Z</time>
      </trkpt>
      <trkpt lat="44.05143" lon="7.70302">
        <ele>1635.796</ele>
        <time>2018-07-01T11:48:25Z</time>
      </trkpt>
      <trkpt lat="44.05152" lon="7.70297">
        <ele>1635.428</ele>
        <time>2018-07-01T11:48:26Z</time>
      </trkpt>
      <trkpt lat="44.05158" lon="7.70291">
        <ele>1635.581</ele>
        <time>2018-07-01T11:48:27Z</time>
      </trkpt>
      <trkpt lat="44.05163" lon="7.70289">
        <ele>1636.136</ele>
        <time>2018-07-01T11:48:28Z</time>
      </trkpt>
      <trkpt lat="44.05168" lon="7.70288">
        <ele>1635.427</ele>
        <time>2018-07-01T11:48:30Z</time>
      </trkpt>
      <trkpt lat="44.05173" lon="7.70296">
        <ele>1636.973</ele>
        <time>2018-07-01T11:48:32Z</time>
      </trkpt>
      <trkpt lat="44.05175" lon="7.70302">
        <ele>1636.985</ele>
        <time>2018-07-01T11:48:33Z</time>
      </trkpt>
      <trkpt lat="44.0518" lon="7.70314">
        <ele>1636.613</ele>
        <time>2018-07-01T11:48:34Z</time>
      </trkpt>
      <trkpt lat="44.05183" lon="7.70325">
        <ele>1636.608</ele>
        <time>2018-07-01T11:48:35Z</time>
      </trkpt>
      <trkpt lat="44.05186" lon="7.70336">
        <ele>1637.369</ele>
        <time>2018-07-01T11:48:36Z</time>
      </trkpt>
      <trkpt lat="44.05192" lon="7.70343">
        <ele>1638.683</ele>
        <time>2018-07-01T11:48:37Z</time>
      </trkpt>
      <trkpt lat="44.05198" lon="7.70352">
        <ele>1638.659</ele>
        <time>2018-07-01T11:48:38Z</time>
      </trkpt>
      <trkpt lat="44.05203" lon="7.7036">
        <ele>1638.832</ele>
        <time>2018-07-01T11:48:39Z</time>
      </trkpt>
      <trkpt lat="44.05208" lon="7.70367">
        <ele>1639.374</ele>
        <time>2018-07-01T11:48:40Z</time>
      </trkpt>
      <trkpt lat="44.05215" lon="7.7037">
        <ele>1641.067</ele>
        <time>2018-07-01T11:48:41Z</time>
      </trkpt>
      <trkpt lat="44.0522" lon="7.70372">
        <ele>1641.152</ele>
        <time>2018-07-01T11:48:42Z</time>
      </trkpt>
      <trkpt lat="44.05224" lon="7.70375">
        <ele>1642.533</ele>
        <time>2018-07-01T11:48:43Z</time>
      </trkpt>
      <trkpt lat="44.05231" lon="7.70377">
        <ele>1642.329</ele>
        <time>2018-07-01T11:48:46Z</time>
      </trkpt>
      <trkpt lat="44.05236" lon="7.70378">
        <ele>1644.9</ele>
        <time>2018-07-01T11:48:52Z</time>
      </trkpt>
      <trkpt lat="44.05241" lon="7.70383">
        <ele>1645.92</ele>
        <time>2018-07-01T11:48:54Z</time>
      </trkpt>
      <trkpt lat="44.05249" lon="7.70388">
        <ele>1645.608</ele>
        <time>2018-07-01T11:48:56Z</time>
      </trkpt>
      <trkpt lat="44.05253" lon="7.7039">
        <ele>1645.864</ele>
        <time>2018-07-01T11:48:57Z</time>
      </trkpt>
      <trkpt lat="44.05261" lon="7.70394">
        <ele>1646.748</ele>
        <time>2018-07-01T11:48:59Z</time>
      </trkpt>
      <trkpt lat="44.05265" lon="7.70399">
        <ele>1647.054</ele>
        <time>2018-07-01T11:49:00Z</time>
      </trkpt>
      <trkpt lat="44.05272" lon="7.70404">
        <ele>1649.187</ele>
        <time>2018-07-01T11:49:01Z</time>
      </trkpt>
      <trkpt lat="44.05277" lon="7.70408">
        <ele>1649.949</ele>
        <time>2018-07-01T11:49:02Z</time>
      </trkpt>
      <trkpt lat="44.05282" lon="7.70414">
        <ele>1650.342</ele>
        <time>2018-07-01T11:49:03Z</time>
      </trkpt>
      <trkpt lat="44.05289" lon="7.70421">
        <ele>1650.867</ele>
        <time>2018-07-01T11:49:04Z</time>
      </trkpt>
      <trkpt lat="44.05298" lon="7.70427">
        <ele>1651.748</ele>
        <time>2018-07-01T11:49:05Z</time>
      </trkpt>
      <trkpt lat="44.05303" lon="7.70431">
        <ele>1652.753</ele>
        <time>2018-07-01T11:49:06Z</time>
      </trkpt>
      <trkpt lat="44.05307" lon="7.70436">
        <ele>1653.304</ele>
        <time>2018-07-01T11:49:07Z</time>
      </trkpt>
      <trkpt lat="44.05313" lon="7.70437">
        <ele>1654.814</ele>
        <time>2018-07-01T11:49:08Z</time>
      </trkpt>
      <trkpt lat="44.0532" lon="7.70442">
        <ele>1654.708</ele>
        <time>2018-07-01T11:49:09Z</time>
      </trkpt>
      <trkpt lat="44.05326" lon="7.70444">
        <ele>1655.357</ele>
        <time>2018-07-01T11:49:10Z</time>
      </trkpt>
      <trkpt lat="44.05332" lon="7.70447">
        <ele>1654.541</ele>
        <time>2018-07-01T11:49:11Z</time>
      </trkpt>
      <trkpt lat="44.05338" lon="7.7045">
        <ele>1653.987</ele>
        <time>2018-07-01T11:49:12Z</time>
      </trkpt>
      <trkpt lat="44.05343" lon="7.70452">
        <ele>1655.14</ele>
        <time>2018-07-01T11:49:13Z</time>
      </trkpt>
      <trkpt lat="44.0535" lon="7.70453">
        <ele>1655.712</ele>
        <time>2018-07-01T11:49:14Z</time>
      </trkpt>
      <trkpt lat="44.05356" lon="7.70455">
        <ele>1655.265</ele>
        <time>2018-07-01T11:49:15Z</time>
      </trkpt>
      <trkpt lat="44.05361" lon="7.70454">
        <ele>1656.96</ele>
        <time>2018-07-01T11:49:16Z</time>
      </trkpt>
      <trkpt lat="44.05369" lon="7.70453">
        <ele>1657.881</ele>
        <time>2018-07-01T11:49:17Z</time>
      </trkpt>
      <trkpt lat="44.05373" lon="7.70451">
        <ele>1659.578</ele>
        <time>2018-07-01T11:49:18Z</time>
      </trkpt>
      <trkpt lat="44.05378" lon="7.70451">
        <ele>1659.933</ele>
        <time>2018-07-01T11:49:19Z</time>
      </trkpt>
      <trkpt lat="44.05385" lon="7.7045">
        <ele>1661.126</ele>
        <time>2018-07-01T11:49:20Z</time>
      </trkpt>
      <trkpt lat="44.05392" lon="7.70449">
        <ele>1662.108</ele>
        <time>2018-07-01T11:49:21Z</time>
      </trkpt>
      <trkpt lat="44.05398" lon="7.70445">
        <ele>1663.239</ele>
        <time>2018-07-01T11:49:22Z</time>
      </trkpt>
      <trkpt lat="44.05407" lon="7.70442">
        <ele>1665.513</ele>
        <time>2018-07-01T11:49:23Z</time>
      </trkpt>
      <trkpt lat="44.05412" lon="7.70443">
        <ele>1665.839</ele>
        <time>2018-07-01T11:49:24Z</time>
      </trkpt>
      <trkpt lat="44.05419" lon="7.70441">
        <ele>1668.222</ele>
        <time>2018-07-01T11:49:26Z</time>
      </trkpt>
      <trkpt lat="44.05423" lon="7.70438">
        <ele>1668.424</ele>
        <time>2018-07-01T11:49:27Z</time>
      </trkpt>
      <trkpt lat="44.05428" lon="7.70432">
        <ele>1667.767</ele>
        <time>2018-07-01T11:49:28Z</time>
      </trkpt>
      <trkpt lat="44.05431" lon="7.70426">
        <ele>1668.072</ele>
        <time>2018-07-01T11:49:29Z</time>
      </trkpt>
      <trkpt lat="44.05432" lon="7.70419">
        <ele>1667.763</ele>
        <time>2018-07-01T11:49:30Z</time>
      </trkpt>
      <trkpt lat="44.05435" lon="7.70413">
        <ele>1670.013</ele>
        <time>2018-07-01T11:49:31Z</time>
      </trkpt>
      <trkpt lat="44.05437" lon="7.70407">
        <ele>1671.343</ele>
        <time>2018-07-01T11:49:32Z</time>
      </trkpt>
      <trkpt lat="44.05439" lon="7.70399">
        <ele>1675.307</ele>
        <time>2018-07-01T11:49:33Z</time>
      </trkpt>
      <trkpt lat="44.05441" lon="7.70393">
        <ele>1676.008</ele>
        <time>2018-07-01T11:49:34Z</time>
      </trkpt>
      <trkpt lat="44.05444" lon="7.70387">
        <ele>1676.193</ele>
        <time>2018-07-01T11:49:35Z</time>
      </trkpt>
      <trkpt lat="44.05448" lon="7.70378">
        <ele>1675.557</ele>
        <time>2018-07-01T11:49:37Z</time>
      </trkpt>
      <trkpt lat="44.05453" lon="7.70366">
        <ele>1675.543</ele>
        <time>2018-07-01T11:49:39Z</time>
      </trkpt>
      <trkpt lat="44.05457" lon="7.70361">
        <ele>1675.726</ele>
        <time>2018-07-01T11:49:40Z</time>
      </trkpt>
      <trkpt lat="44.05465" lon="7.70351">
        <ele>1677.218</ele>
        <time>2018-07-01T11:49:42Z</time>
      </trkpt>
      <trkpt lat="44.05469" lon="7.70346">
        <ele>1677.411</ele>
        <time>2018-07-01T11:49:43Z</time>
      </trkpt>
      <trkpt lat="44.05473" lon="7.70342">
        <ele>1678.186</ele>
        <time>2018-07-01T11:49:44Z</time>
      </trkpt>
      <trkpt lat="44.05477" lon="7.70338">
        <ele>1678.017</ele>
        <time>2018-07-01T11:49:45Z</time>
      </trkpt>
      <trkpt lat="44.05485" lon="7.70333">
        <ele>1680.042</ele>
        <time>2018-07-01T11:49:47Z</time>
      </trkpt>
      <trkpt lat="44.0549" lon="7.70334">
        <ele>1680.922</ele>
        <time>2018-07-01T11:49:48Z</time>
      </trkpt>
      <trkpt lat="44.05496" lon="7.70337">
        <ele>1681.714</ele>
        <time>2018-07-01T11:49:49Z</time>
      </trkpt>
      <trkpt lat="44.05503" lon="7.70346">
        <ele>1681.908</ele>
        <time>2018-07-01T11:49:51Z</time>
      </trkpt>
      <trkpt lat="44.05508" lon="7.70351">
        <ele>1682.746</ele>
        <time>2018-07-01T11:49:52Z</time>
      </trkpt>
      <trkpt lat="44.05514" lon="7.70358">
        <ele>1681.33</ele>
        <time>2018-07-01T11:49:53Z</time>
      </trkpt>
      <trkpt lat="44.05518" lon="7.70365">
        <ele>1681.266</ele>
        <time>2018-07-01T11:49:54Z</time>
      </trkpt>
      <trkpt lat="44.05522" lon="7.70372">
        <ele>1681.559</ele>
        <time>2018-07-01T11:49:55Z</time>
      </trkpt>
      <trkpt lat="44.05527" lon="7.70383">
        <ele>1682.141</ele>
        <time>2018-07-01T11:49:57Z</time>
      </trkpt>
      <trkpt lat="44.05531" lon="7.7039">
        <ele>1682.814</ele>
        <time>2018-07-01T11:49:58Z</time>
      </trkpt>
      <trkpt lat="44.05532" lon="7.70399">
        <ele>1682.929</ele>
        <time>2018-07-01T11:49:59Z</time>
      </trkpt>
      <trkpt lat="44.0554" lon="7.70405">
        <ele>1683.17</ele>
        <time>2018-07-01T11:50:00Z</time>
      </trkpt>
      <trkpt lat="44.05542" lon="7.70415">
        <ele>1683.184</ele>
        <time>2018-07-01T11:50:01Z</time>
      </trkpt>
      <trkpt lat="44.05545" lon="7.70425">
        <ele>1683.607</ele>
        <time>2018-07-01T11:50:02Z</time>
      </trkpt>
      <trkpt lat="44.05547" lon="7.70436">
        <ele>1685.117</ele>
        <time>2018-07-01T11:50:03Z</time>
      </trkpt>
      <trkpt lat="44.05551" lon="7.70438">
        <ele>1687.308</ele>
        <time>2018-07-01T11:50:04Z</time>
      </trkpt>
      <trkpt lat="44.05553" lon="7.70445">
        <ele>1688.25</ele>
        <time>2018-07-01T11:50:05Z</time>
      </trkpt>
      <trkpt lat="44.05555" lon="7.70453">
        <ele>1688.834</ele>
        <time>2018-07-01T11:50:06Z</time>
      </trkpt>
      <trkpt lat="44.05563" lon="7.70466">
        <ele>1689.07</ele>
        <time>2018-07-01T11:50:08Z</time>
      </trkpt>
      <trkpt lat="44.05568" lon="7.70476">
        <ele>1689.363</ele>
        <time>2018-07-01T11:50:09Z</time>
      </trkpt>
      <trkpt lat="44.05575" lon="7.70484">
        <ele>1690.965</ele>
        <time>2018-07-01T11:50:10Z</time>
      </trkpt>
      <trkpt lat="44.05584" lon="7.70488">
        <ele>1691.548</ele>
        <time>2018-07-01T11:50:11Z</time>
      </trkpt>
      <trkpt lat="44.05589" lon="7.70497">
        <ele>1692.373</ele>
        <time>2018-07-01T11:50:12Z</time>
      </trkpt>
      <trkpt lat="44.05595" lon="7.70501">
        <ele>1692.784</ele>
        <time>2018-07-01T11:50:13Z</time>
      </trkpt>
      <trkpt lat="44.05604" lon="7.70511">
        <ele>1693.595</ele>
        <time>2018-07-01T11:50:14Z</time>
      </trkpt>
      <trkpt lat="44.0561" lon="7.70517">
        <ele>1694.549</ele>
        <time>2018-07-01T11:50:15Z</time>
      </trkpt>
      <trkpt lat="44.05619" lon="7.70523">
        <ele>1694.023</ele>
        <time>2018-07-01T11:50:16Z</time>
      </trkpt>
      <trkpt lat="44.05629" lon="7.70526">
        <ele>1695.208</ele>
        <time>2018-07-01T11:50:17Z</time>
      </trkpt>
      <trkpt lat="44.05638" lon="7.70533">
        <ele>1697.491</ele>
        <time>2018-07-01T11:50:19Z</time>
      </trkpt>
      <trkpt lat="44.05644" lon="7.70538">
        <ele>1699.215</ele>
        <time>2018-07-01T11:50:20Z</time>
      </trkpt>
      <trkpt lat="44.05649" lon="7.70542">
        <ele>1700.541</ele>
        <time>2018-07-01T11:50:21Z</time>
      </trkpt>
      <trkpt lat="44.05655" lon="7.70545">
        <ele>1701.864</ele>
        <time>2018-07-01T11:50:23Z</time>
      </trkpt>
      <trkpt lat="44.05661" lon="7.70545">
        <ele>1704.246</ele>
        <time>2018-07-01T11:50:24Z</time>
      </trkpt>
      <trkpt lat="44.05666" lon="7.70543">
        <ele>1704.149</ele>
        <time>2018-07-01T11:50:25Z</time>
      </trkpt>
      <trkpt lat="44.0567" lon="7.70538">
        <ele>1704.634</ele>
        <time>2018-07-01T11:50:26Z</time>
      </trkpt>
      <trkpt lat="44.05675" lon="7.70533">
        <ele>1704.125</ele>
        <time>2018-07-01T11:50:27Z</time>
      </trkpt>
      <trkpt lat="44.0568" lon="7.70529">
        <ele>1704.094</ele>
        <time>2018-07-01T11:50:28Z</time>
      </trkpt>
      <trkpt lat="44.05684" lon="7.70523">
        <ele>1704.557</ele>
        <time>2018-07-01T11:50:29Z</time>
      </trkpt>
      <trkpt lat="44.0569" lon="7.70515">
        <ele>1704.422</ele>
        <time>2018-07-01T11:50:30Z</time>
      </trkpt>
      <trkpt lat="44.05693" lon="7.70511">
        <ele>1705.008</ele>
        <time>2018-07-01T11:50:31Z</time>
      </trkpt>
      <trkpt lat="44.05699" lon="7.70505">
        <ele>1706.221</ele>
        <time>2018-07-01T11:50:32Z</time>
      </trkpt>
      <trkpt lat="44.05705" lon="7.70501">
        <ele>1706.485</ele>
        <time>2018-07-01T11:50:33Z</time>
      </trkpt>
      <trkpt lat="44.0571" lon="7.70497">
        <ele>1706.931</ele>
        <time>2018-07-01T11:50:34Z</time>
      </trkpt>
      <trkpt lat="44.05715" lon="7.70495">
        <ele>1707.494</ele>
        <time>2018-07-01T11:50:35Z</time>
      </trkpt>
      <trkpt lat="44.05721" lon="7.70493">
        <ele>1708.286</ele>
        <time>2018-07-01T11:50:36Z</time>
      </trkpt>
      <trkpt lat="44.05727" lon="7.70493">
        <ele>1707.729</ele>
        <time>2018-07-01T11:50:37Z</time>
      </trkpt>
      <trkpt lat="44.05733" lon="7.70492">
        <ele>1707.984</ele>
        <time>2018-07-01T11:50:38Z</time>
      </trkpt>
      <trkpt lat="44.05737" lon="7.70491">
        <ele>1707.325</ele>
        <time>2018-07-01T11:50:39Z</time>
      </trkpt>
      <trkpt lat="44.05747" lon="7.70494">
        <ele>1707.145</ele>
        <time>2018-07-01T11:50:40Z</time>
      </trkpt>
      <trkpt lat="44.05754" lon="7.70492">
        <ele>1707.147</ele>
        <time>2018-07-01T11:50:41Z</time>
      </trkpt>
      <trkpt lat="44.05761" lon="7.70492">
        <ele>1707.111</ele>
        <time>2018-07-01T11:50:42Z</time>
      </trkpt>
      <trkpt lat="44.05769" lon="7.70492">
        <ele>1707.908</ele>
        <time>2018-07-01T11:50:43Z</time>
      </trkpt>
      <trkpt lat="44.05774" lon="7.70491">
        <ele>1708.026</ele>
        <time>2018-07-01T11:50:44Z</time>
      </trkpt>
      <trkpt lat="44.05782" lon="7.7049">
        <ele>1708.79</ele>
        <time>2018-07-01T11:50:45Z</time>
      </trkpt>
      <trkpt lat="44.05788" lon="7.70492">
        <ele>1708.456</ele>
        <time>2018-07-01T11:50:46Z</time>
      </trkpt>
      <trkpt lat="44.05796" lon="7.70494">
        <ele>1707.889</ele>
        <time>2018-07-01T11:50:47Z</time>
      </trkpt>
      <trkpt lat="44.05804" lon="7.70494">
        <ele>1707.631</ele>
        <time>2018-07-01T11:50:48Z</time>
      </trkpt>
      <trkpt lat="44.05813" lon="7.70495">
        <ele>1708.044</ele>
        <time>2018-07-01T11:50:49Z</time>
      </trkpt>
      <trkpt lat="44.05822" lon="7.70496">
        <ele>1709.569</ele>
        <time>2018-07-01T11:50:50Z</time>
      </trkpt>
      <trkpt lat="44.0583" lon="7.70496">
        <ele>1709.78</ele>
        <time>2018-07-01T11:50:51Z</time>
      </trkpt>
      <trkpt lat="44.05838" lon="7.70495">
        <ele>1709.762</ele>
        <time>2018-07-01T11:50:52Z</time>
      </trkpt>
      <trkpt lat="44.05845" lon="7.70496">
        <ele>1710.283</ele>
        <time>2018-07-01T11:50:53Z</time>
      </trkpt>
      <trkpt lat="44.05852" lon="7.70495">
        <ele>1710.111</ele>
        <time>2018-07-01T11:50:54Z</time>
      </trkpt>
      <trkpt lat="44.05858" lon="7.70493">
        <ele>1711.108</ele>
        <time>2018-07-01T11:50:55Z</time>
      </trkpt>
      <trkpt lat="44.05863" lon="7.70487">
        <ele>1711.898</ele>
        <time>2018-07-01T11:50:56Z</time>
      </trkpt>
      <trkpt lat="44.0587" lon="7.70482">
        <ele>1711.172</ele>
        <time>2018-07-01T11:50:57Z</time>
      </trkpt>
      <trkpt lat="44.05874" lon="7.70476">
        <ele>1712.318</ele>
        <time>2018-07-01T11:50:58Z</time>
      </trkpt>
      <trkpt lat="44.05878" lon="7.7047">
        <ele>1713.081</ele>
        <time>2018-07-01T11:50:59Z</time>
      </trkpt>
      <trkpt lat="44.05883" lon="7.70463">
        <ele>1713.043</ele>
        <time>2018-07-01T11:51:00Z</time>
      </trkpt>
      <trkpt lat="44.05887" lon="7.70456">
        <ele>1712.876</ele>
        <time>2018-07-01T11:51:01Z</time>
      </trkpt>
      <trkpt lat="44.05892" lon="7.70451">
        <ele>1714.111</ele>
        <time>2018-07-01T11:51:02Z</time>
      </trkpt>
      <trkpt lat="44.05897" lon="7.70444">
        <ele>1715.342</ele>
        <time>2018-07-01T11:51:03Z</time>
      </trkpt>
      <trkpt lat="44.05898" lon="7.70437">
        <ele>1717.535</ele>
        <time>2018-07-01T11:51:04Z</time>
      </trkpt>
      <trkpt lat="44.05902" lon="7.70433">
        <ele>1716.886</ele>
        <time>2018-07-01T11:51:05Z</time>
      </trkpt>
      <trkpt lat="44.05903" lon="7.70427">
        <ele>1717.014</ele>
        <time>2018-07-01T11:51:06Z</time>
      </trkpt>
      <trkpt lat="44.05903" lon="7.70419">
        <ele>1716.508</ele>
        <time>2018-07-01T11:51:07Z</time>
      </trkpt>
      <trkpt lat="44.05903" lon="7.7041">
        <ele>1716.355</ele>
        <time>2018-07-01T11:51:08Z</time>
      </trkpt>
      <trkpt lat="44.05904" lon="7.70401">
        <ele>1715.999</ele>
        <time>2018-07-01T11:51:09Z</time>
      </trkpt>
      <trkpt lat="44.05905" lon="7.70389">
        <ele>1715.645</ele>
        <time>2018-07-01T11:51:10Z</time>
      </trkpt>
      <trkpt lat="44.05907" lon="7.7038">
        <ele>1714.928</ele>
        <time>2018-07-01T11:51:11Z</time>
      </trkpt>
      <trkpt lat="44.05909" lon="7.70369">
        <ele>1715.31</ele>
        <time>2018-07-01T11:51:12Z</time>
      </trkpt>
      <trkpt lat="44.05912" lon="7.70358">
        <ele>1716.053</ele>
        <time>2018-07-01T11:51:13Z</time>
      </trkpt>
      <trkpt lat="44.05913" lon="7.7035">
        <ele>1715.798</ele>
        <time>2018-07-01T11:51:14Z</time>
      </trkpt>
      <trkpt lat="44.05914" lon="7.7034">
        <ele>1715.719</ele>
        <time>2018-07-01T11:51:15Z</time>
      </trkpt>
      <trkpt lat="44.05915" lon="7.70331">
        <ele>1715.045</ele>
        <time>2018-07-01T11:51:16Z</time>
      </trkpt>
      <trkpt lat="44.05916" lon="7.70323">
        <ele>1714.747</ele>
        <time>2018-07-01T11:51:17Z</time>
      </trkpt>
      <trkpt lat="44.0592" lon="7.70314">
        <ele>1715.511</ele>
        <time>2018-07-01T11:51:19Z</time>
      </trkpt>
      <trkpt lat="44.05928" lon="7.70315">
        <ele>1715.608</ele>
        <time>2018-07-01T11:51:21Z</time>
      </trkpt>
      <trkpt lat="44.05932" lon="7.7032">
        <ele>1714.596</ele>
        <time>2018-07-01T11:51:22Z</time>
      </trkpt>
      <trkpt lat="44.05937" lon="7.70326">
        <ele>1714.74</ele>
        <time>2018-07-01T11:51:23Z</time>
      </trkpt>
      <trkpt lat="44.05941" lon="7.70332">
        <ele>1715.426</ele>
        <time>2018-07-01T11:51:24Z</time>
      </trkpt>
      <trkpt lat="44.05945" lon="7.70338">
        <ele>1715.719</ele>
        <time>2018-07-01T11:51:25Z</time>
      </trkpt>
      <trkpt lat="44.0595" lon="7.7034">
        <ele>1716.381</ele>
        <time>2018-07-01T11:51:26Z</time>
      </trkpt>
      <trkpt lat="44.05957" lon="7.70344">
        <ele>1716.194</ele>
        <time>2018-07-01T11:51:27Z</time>
      </trkpt>
      <trkpt lat="44.05964" lon="7.70347">
        <ele>1716.199</ele>
        <time>2018-07-01T11:51:28Z</time>
      </trkpt>
      <trkpt lat="44.05971" lon="7.70349">
        <ele>1716.61</ele>
        <time>2018-07-01T11:51:29Z</time>
      </trkpt>
      <trkpt lat="44.05981" lon="7.70355">
        <ele>1716.558</ele>
        <time>2018-07-01T11:51:30Z</time>
      </trkpt>
      <trkpt lat="44.05991" lon="7.70358">
        <ele>1717.052</ele>
        <time>2018-07-01T11:51:31Z</time>
      </trkpt>
      <trkpt lat="44.05999" lon="7.70362">
        <ele>1717.417</ele>
        <time>2018-07-01T11:51:32Z</time>
      </trkpt>
      <trkpt lat="44.06005" lon="7.70364">
        <ele>1717.708</ele>
        <time>2018-07-01T11:51:33Z</time>
      </trkpt>
      <trkpt lat="44.06013" lon="7.70367">
        <ele>1717.157</ele>
        <time>2018-07-01T11:51:34Z</time>
      </trkpt>
      <trkpt lat="44.06022" lon="7.7037">
        <ele>1717.491</ele>
        <time>2018-07-01T11:51:35Z</time>
      </trkpt>
      <trkpt lat="44.06031" lon="7.70374">
        <ele>1717.327</ele>
        <time>2018-07-01T11:51:36Z</time>
      </trkpt>
      <trkpt lat="44.06037" lon="7.70371">
        <ele>1718.35</ele>
        <time>2018-07-01T11:51:38Z</time>
      </trkpt>
      <trkpt lat="44.06045" lon="7.70363">
        <ele>1719.022</ele>
        <time>2018-07-01T11:51:40Z</time>
      </trkpt>
      <trkpt lat="44.06049" lon="7.70359">
        <ele>1720.635</ele>
        <time>2018-07-01T11:51:41Z</time>
      </trkpt>
      <trkpt lat="44.06053" lon="7.70355">
        <ele>1720.77</ele>
        <time>2018-07-01T11:51:42Z</time>
      </trkpt>
      <trkpt lat="44.06062" lon="7.70356">
        <ele>1722.891</ele>
        <time>2018-07-01T11:51:44Z</time>
      </trkpt>
      <trkpt lat="44.06068" lon="7.70357">
        <ele>1722.859</ele>
        <time>2018-07-01T11:51:45Z</time>
      </trkpt>
      <trkpt lat="44.06073" lon="7.70362">
        <ele>1721.803</ele>
        <time>2018-07-01T11:51:46Z</time>
      </trkpt>
      <trkpt lat="44.06078" lon="7.70367">
        <ele>1721.723</ele>
        <time>2018-07-01T11:51:47Z</time>
      </trkpt>
      <trkpt lat="44.06081" lon="7.70372">
        <ele>1721.908</ele>
        <time>2018-07-01T11:51:48Z</time>
      </trkpt>
      <trkpt lat="44.06083" lon="7.70379">
        <ele>1722.287</ele>
        <time>2018-07-01T11:51:49Z</time>
      </trkpt>
      <trkpt lat="44.06084" lon="7.70386">
        <ele>1721.781</ele>
        <time>2018-07-01T11:51:50Z</time>
      </trkpt>
      <trkpt lat="44.06089" lon="7.70396">
        <ele>1720.477</ele>
        <time>2018-07-01T11:51:51Z</time>
      </trkpt>
      <trkpt lat="44.06093" lon="7.70401">
        <ele>1720.67</ele>
        <time>2018-07-01T11:51:52Z</time>
      </trkpt>
      <trkpt lat="44.06097" lon="7.70406">
        <ele>1720.942</ele>
        <time>2018-07-01T11:51:53Z</time>
      </trkpt>
      <trkpt lat="44.06103" lon="7.70408">
        <ele>1724.515</ele>
        <time>2018-07-01T11:51:54Z</time>
      </trkpt>
      <trkpt lat="44.06109" lon="7.70409">
        <ele>1725.06</ele>
        <time>2018-07-01T11:51:55Z</time>
      </trkpt>
      <trkpt lat="44.06116" lon="7.70413">
        <ele>1724.861</ele>
        <time>2018-07-01T11:51:56Z</time>
      </trkpt>
      <trkpt lat="44.06124" lon="7.70414">
        <ele>1725.882</ele>
        <time>2018-07-01T11:51:57Z</time>
      </trkpt>
      <trkpt lat="44.0613" lon="7.70417">
        <ele>1726.243</ele>
        <time>2018-07-01T11:51:58Z</time>
      </trkpt>
      <trkpt lat="44.06134" lon="7.70422">
        <ele>1725.917</ele>
        <time>2018-07-01T11:51:59Z</time>
      </trkpt>
      <trkpt lat="44.06141" lon="7.70426">
        <ele>1726.508</ele>
        <time>2018-07-01T11:52:00Z</time>
      </trkpt>
      <trkpt lat="44.06147" lon="7.70431">
        <ele>1727.95</ele>
        <time>2018-07-01T11:52:02Z</time>
      </trkpt>
      <trkpt lat="44.06152" lon="7.70432">
        <ele>1728.044</ele>
        <time>2018-07-01T11:52:03Z</time>
      </trkpt>
      <trkpt lat="44.06158" lon="7.7043">
        <ele>1727.83</ele>
        <time>2018-07-01T11:52:04Z</time>
      </trkpt>
      <trkpt lat="44.06163" lon="7.70428">
        <ele>1727.893</ele>
        <time>2018-07-01T11:52:05Z</time>
      </trkpt>
      <trkpt lat="44.06169" lon="7.70426">
        <ele>1727.895</ele>
        <time>2018-07-01T11:52:06Z</time>
      </trkpt>
      <trkpt lat="44.06175" lon="7.70424">
        <ele>1727.498</ele>
        <time>2018-07-01T11:52:07Z</time>
      </trkpt>
      <trkpt lat="44.0618" lon="7.70424">
        <ele>1727.743</ele>
        <time>2018-07-01T11:52:08Z</time>
      </trkpt>
      <trkpt lat="44.06185" lon="7.70427">
        <ele>1727.794</ele>
        <time>2018-07-01T11:52:09Z</time>
      </trkpt>
      <trkpt lat="44.06191" lon="7.70431">
        <ele>1728.125</ele>
        <time>2018-07-01T11:52:10Z</time>
      </trkpt>
      <trkpt lat="44.06196" lon="7.70435">
        <ele>1728.326</ele>
        <time>2018-07-01T11:52:11Z</time>
      </trkpt>
      <trkpt lat="44.06201" lon="7.70439">
        <ele>1728.708</ele>
        <time>2018-07-01T11:52:12Z</time>
      </trkpt>
      <trkpt lat="44.06208" lon="7.70443">
        <ele>1730.008</ele>
        <time>2018-07-01T11:52:14Z</time>
      </trkpt>
      <trkpt lat="44.06213" lon="7.70445">
        <ele>1731.374</ele>
        <time>2018-07-01T11:52:15Z</time>
      </trkpt>
      <trkpt lat="44.06217" lon="7.70446">
        <ele>1731.938</ele>
        <time>2018-07-01T11:52:16Z</time>
      </trkpt>
      <trkpt lat="44.06224" lon="7.7044">
        <ele>1731.784</ele>
        <time>2018-07-01T11:52:17Z</time>
      </trkpt>
      <trkpt lat="44.06229" lon="7.70439">
        <ele>1731.137</ele>
        <time>2018-07-01T11:52:18Z</time>
      </trkpt>
      <trkpt lat="44.06237" lon="7.70438">
        <ele>1732.099</ele>
        <time>2018-07-01T11:52:19Z</time>
      </trkpt>
      <trkpt lat="44.06245" lon="7.70437">
        <ele>1732.822</ele>
        <time>2018-07-01T11:52:20Z</time>
      </trkpt>
      <trkpt lat="44.06252" lon="7.70438">
        <ele>1732.687</ele>
        <time>2018-07-01T11:52:21Z</time>
      </trkpt>
      <trkpt lat="44.06261" lon="7.70438">
        <ele>1733.588</ele>
        <time>2018-07-01T11:52:22Z</time>
      </trkpt>
      <trkpt lat="44.06269" lon="7.70438">
        <ele>1733.313</ele>
        <time>2018-07-01T11:52:23Z</time>
      </trkpt>
      <trkpt lat="44.06275" lon="7.70439">
        <ele>1733.943</ele>
        <time>2018-07-01T11:52:24Z</time>
      </trkpt>
      <trkpt lat="44.0628" lon="7.7044">
        <ele>1733.807</ele>
        <time>2018-07-01T11:52:25Z</time>
      </trkpt>
      <trkpt lat="44.06286" lon="7.70441">
        <ele>1734.208</ele>
        <time>2018-07-01T11:52:26Z</time>
      </trkpt>
      <trkpt lat="44.06295" lon="7.70442">
        <ele>1735.173</ele>
        <time>2018-07-01T11:52:28Z</time>
      </trkpt>
      <trkpt lat="44.06299" lon="7.70446">
        <ele>1735.877</ele>
        <time>2018-07-01T11:52:29Z</time>
      </trkpt>
      <trkpt lat="44.06301" lon="7.70459">
        <ele>1735.053</ele>
        <time>2018-07-01T11:52:31Z</time>
      </trkpt>
      <trkpt lat="44.06304" lon="7.70465">
        <ele>1734.686</ele>
        <time>2018-07-01T11:52:32Z</time>
      </trkpt>
      <trkpt lat="44.06307" lon="7.70471">
        <ele>1734.798</ele>
        <time>2018-07-01T11:52:33Z</time>
      </trkpt>
      <trkpt lat="44.06309" lon="7.70481">
        <ele>1735.271</ele>
        <time>2018-07-01T11:52:35Z</time>
      </trkpt>
      <trkpt lat="44.06311" lon="7.70487">
        <ele>1735.876</ele>
        <time>2018-07-01T11:52:36Z</time>
      </trkpt>
      <trkpt lat="44.06321" lon="7.70491">
        <ele>1740.067</ele>
        <time>2018-07-01T11:52:38Z</time>
      </trkpt>
      <trkpt lat="44.06326" lon="7.70492">
        <ele>1739.667</ele>
        <time>2018-07-01T11:52:39Z</time>
      </trkpt>
      <trkpt lat="44.06336" lon="7.70487">
        <ele>1743.781</ele>
        <time>2018-07-01T11:52:41Z</time>
      </trkpt>
      <trkpt lat="44.0634" lon="7.70483">
        <ele>1743.619</ele>
        <time>2018-07-01T11:52:42Z</time>
      </trkpt>
      <trkpt lat="44.06345" lon="7.70476">
        <ele>1743.608</ele>
        <time>2018-07-01T11:52:43Z</time>
      </trkpt>
      <trkpt lat="44.0635" lon="7.70469">
        <ele>1743.848</ele>
        <time>2018-07-01T11:52:44Z</time>
      </trkpt>
      <trkpt lat="44.06355" lon="7.70461">
        <ele>1745.162</ele>
        <time>2018-07-01T11:52:45Z</time>
      </trkpt>
      <trkpt lat="44.0636" lon="7.70452">
        <ele>1746.748</ele>
        <time>2018-07-01T11:52:46Z</time>
      </trkpt>
      <trkpt lat="44.06362" lon="7.70445">
        <ele>1747.161</ele>
        <time>2018-07-01T11:52:47Z</time>
      </trkpt>
      <trkpt lat="44.06368" lon="7.70436">
        <ele>1745.153</ele>
        <time>2018-07-01T11:52:49Z</time>
      </trkpt>
      <trkpt lat="44.06371" lon="7.70429">
        <ele>1745.636</ele>
        <time>2018-07-01T11:52:50Z</time>
      </trkpt>
      <trkpt lat="44.06374" lon="7.70423">
        <ele>1745.311</ele>
        <time>2018-07-01T11:52:51Z</time>
      </trkpt>
      <trkpt lat="44.06379" lon="7.70419">
        <ele>1745.822</ele>
        <time>2018-07-01T11:52:52Z</time>
      </trkpt>
      <trkpt lat="44.06383" lon="7.70416">
        <ele>1745.116</ele>
        <time>2018-07-01T11:52:53Z</time>
      </trkpt>
      <trkpt lat="44.06387" lon="7.70412">
        <ele>1745.276</ele>
        <time>2018-07-01T11:52:54Z</time>
      </trkpt>
      <trkpt lat="44.06394" lon="7.70407">
        <ele>1744.913</ele>
        <time>2018-07-01T11:52:56Z</time>
      </trkpt>
      <trkpt lat="44.06401" lon="7.70406">
        <ele>1746.208</ele>
        <time>2018-07-01T11:52:58Z</time>
      </trkpt>
      <trkpt lat="44.06405" lon="7.70412">
        <ele>1746.393</ele>
        <time>2018-07-01T11:52:59Z</time>
      </trkpt>
      <trkpt lat="44.06409" lon="7.70415">
        <ele>1746.987</ele>
        <time>2018-07-01T11:53:00Z</time>
      </trkpt>
      <trkpt lat="44.06413" lon="7.70411">
        <ele>1747.683</ele>
        <time>2018-07-01T11:53:01Z</time>
      </trkpt>
      <trkpt lat="44.06418" lon="7.70409">
        <ele>1747.956</ele>
        <time>2018-07-01T11:53:02Z</time>
      </trkpt>
      <trkpt lat="44.06423" lon="7.70408">
        <ele>1748.328</ele>
        <time>2018-07-01T11:53:03Z</time>
      </trkpt>
      <trkpt lat="44.06429" lon="7.70405">
        <ele>1748.971</ele>
        <time>2018-07-01T11:53:05Z</time>
      </trkpt>
      <trkpt lat="44.06437" lon="7.70402">
        <ele>1751.776</ele>
        <time>2018-07-01T11:53:07Z</time>
      </trkpt>
      <trkpt lat="44.06443" lon="7.70407">
        <ele>1752.577</ele>
        <time>2018-07-01T11:53:08Z</time>
      </trkpt>
      <trkpt lat="44.0645" lon="7.70409">
        <ele>1753.188</ele>
        <time>2018-07-01T11:53:09Z</time>
      </trkpt>
      <trkpt lat="44.06447" lon="7.70419">
        <ele>1754.824</ele>
        <time>2018-07-01T11:53:10Z</time>
      </trkpt>
      <trkpt lat="44.06448" lon="7.70425">
        <ele>1755.926</ele>
        <time>2018-07-01T11:53:11Z</time>
      </trkpt>
      <trkpt lat="44.06449" lon="7.70434">
        <ele>1755.008</ele>
        <time>2018-07-01T11:53:12Z</time>
      </trkpt>
      <trkpt lat="44.06448" lon="7.70441">
        <ele>1754.73</ele>
        <time>2018-07-01T11:53:13Z</time>
      </trkpt>
      <trkpt lat="44.06449" lon="7.70449">
        <ele>1755.964</ele>
        <time>2018-07-01T11:53:14Z</time>
      </trkpt>
      <trkpt lat="44.06451" lon="7.70455">
        <ele>1756.15</ele>
        <time>2018-07-01T11:53:15Z</time>
      </trkpt>
      <trkpt lat="44.06454" lon="7.70462">
        <ele>1756.743</ele>
        <time>2018-07-01T11:53:16Z</time>
      </trkpt>
      <trkpt lat="44.06457" lon="7.70468">
        <ele>1756.655</ele>
        <time>2018-07-01T11:53:17Z</time>
      </trkpt>
      <trkpt lat="44.06461" lon="7.70479">
        <ele>1757.578</ele>
        <time>2018-07-01T11:53:19Z</time>
      </trkpt>
      <trkpt lat="44.06465" lon="7.70484">
        <ele>1758.433</ele>
        <time>2018-07-01T11:53:20Z</time>
      </trkpt>
      <trkpt lat="44.06469" lon="7.7049">
        <ele>1758.134</ele>
        <time>2018-07-01T11:53:21Z</time>
      </trkpt>
      <trkpt lat="44.06472" lon="7.70496">
        <ele>1757.991</ele>
        <time>2018-07-01T11:53:22Z</time>
      </trkpt>
      <trkpt lat="44.06478" lon="7.70503">
        <ele>1761.781</ele>
        <time>2018-07-01T11:53:24Z</time>
      </trkpt>
      <trkpt lat="44.06473" lon="7.70507">
        <ele>1763.919</ele>
        <time>2018-07-01T11:53:26Z</time>
      </trkpt>
      <trkpt lat="44.06469" lon="7.70499">
        <ele>1763.808</ele>
        <time>2018-07-01T11:53:30Z</time>
      </trkpt>
      <trkpt lat="44.06463" lon="7.70489">
        <ele>1763.451</ele>
        <time>2018-07-01T11:53:32Z</time>
      </trkpt>
      <trkpt lat="44.0646" lon="7.70483">
        <ele>1763.855</ele>
        <time>2018-07-01T11:53:33Z</time>
      </trkpt>
      <trkpt lat="44.06456" lon="7.70476">
        <ele>1763.911</ele>
        <time>2018-07-01T11:53:34Z</time>
      </trkpt>
      <trkpt lat="44.06453" lon="7.7047">
        <ele>1763.974</ele>
        <time>2018-07-01T11:53:35Z</time>
      </trkpt>
      <trkpt lat="44.0645" lon="7.70461">
        <ele>1764.626</ele>
        <time>2018-07-01T11:53:36Z</time>
      </trkpt>
      <trkpt lat="44.06447" lon="7.70453">
        <ele>1765.059</ele>
        <time>2018-07-01T11:53:37Z</time>
      </trkpt>
      <trkpt lat="44.06444" lon="7.70445">
        <ele>1764.944</ele>
        <time>2018-07-01T11:53:38Z</time>
      </trkpt>
      <trkpt lat="44.06439" lon="7.70439">
        <ele>1765.945</ele>
        <time>2018-07-01T11:53:40Z</time>
      </trkpt>
      <trkpt lat="44.06433" lon="7.70437">
        <ele>1766.997</ele>
        <time>2018-07-01T11:53:42Z</time>
      </trkpt>
      <trkpt lat="44.0643" lon="7.70442">
        <ele>1769.023</ele>
        <time>2018-07-01T11:53:45Z</time>
      </trkpt>
      <trkpt lat="44.06437" lon="7.7045">
        <ele>1768.825</ele>
        <time>2018-07-01T11:53:47Z</time>
      </trkpt>
      <trkpt lat="44.06439" lon="7.70455">
        <ele>1768.708</ele>
        <time>2018-07-01T11:53:48Z</time>
      </trkpt>
      <trkpt lat="44.06445" lon="7.70465">
        <ele>1769.931</ele>
        <time>2018-07-01T11:53:50Z</time>
      </trkpt>
      <trkpt lat="44.06451" lon="7.70476">
        <ele>1770.755</ele>
        <time>2018-07-01T11:53:52Z</time>
      </trkpt>
      <trkpt lat="44.06454" lon="7.70485">
        <ele>1770.731</ele>
        <time>2018-07-01T11:53:54Z</time>
      </trkpt>
      <trkpt lat="44.06454" lon="7.70496">
        <ele>1772.054</ele>
        <time>2018-07-01T11:53:56Z</time>
      </trkpt>
      <trkpt lat="44.06455" lon="7.70502">
        <ele>1771.736</ele>
        <time>2018-07-01T11:53:57Z</time>
      </trkpt>
      <trkpt lat="44.06456" lon="7.70509">
        <ele>1771.979</ele>
        <time>2018-07-01T11:54:04Z</time>
      </trkpt>
      <trkpt lat="44.06457" lon="7.70519">
        <ele>1772.294</ele>
        <time>2018-07-01T11:54:06Z</time>
      </trkpt>
      <trkpt lat="44.06457" lon="7.70526">
        <ele>1772.345</ele>
        <time>2018-07-01T11:54:07Z</time>
      </trkpt>
      <trkpt lat="44.06457" lon="7.70532">
        <ele>1772.014</ele>
        <time>2018-07-01T11:54:08Z</time>
      </trkpt>
      <trkpt lat="44.06455" lon="7.7054">
        <ele>1772.654</ele>
        <time>2018-07-01T11:54:10Z</time>
      </trkpt>
      <trkpt lat="44.06451" lon="7.70544">
        <ele>1773.609</ele>
        <time>2018-07-01T11:54:19Z</time>
      </trkpt>
      <trkpt lat="44.06449" lon="7.70551">
        <ele>1775.608</ele>
        <time>2018-07-01T11:54:24Z</time>
      </trkpt>
      <trkpt lat="44.06446" lon="7.70559">
        <ele>1775.693</ele>
        <time>2018-07-01T11:54:28Z</time>
      </trkpt>
      <trkpt lat="44.06446" lon="7.70567">
        <ele>1778.757</ele>
        <time>2018-07-01T11:55:04Z</time>
      </trkpt>
      <trkpt lat="44.06442" lon="7.70579">
        <ele>1779.623</ele>
        <time>2018-07-01T11:55:06Z</time>
      </trkpt>
      <trkpt lat="44.0644" lon="7.70585">
        <ele>1780.066</ele>
        <time>2018-07-01T11:55:07Z</time>
      </trkpt>
      <trkpt lat="44.06439" lon="7.70591">
        <ele>1781.158</ele>
        <time>2018-07-01T11:55:08Z</time>
      </trkpt>
      <trkpt lat="44.06438" lon="7.70601">
        <ele>1781.761</ele>
        <time>2018-07-01T11:55:09Z</time>
      </trkpt>
      <trkpt lat="44.0644" lon="7.70613">
        <ele>1782.796</ele>
        <time>2018-07-01T11:55:11Z</time>
      </trkpt>
      <trkpt lat="44.06444" lon="7.70626">
        <ele>1783.247</ele>
        <time>2018-07-01T11:55:13Z</time>
      </trkpt>
      <trkpt lat="44.06445" lon="7.70633">
        <ele>1783.663</ele>
        <time>2018-07-01T11:55:14Z</time>
      </trkpt>
      <trkpt lat="44.06443" lon="7.70639">
        <ele>1781.444</ele>
        <time>2018-07-01T11:55:15Z</time>
      </trkpt>
      <trkpt lat="44.06444" lon="7.70649">
        <ele>1781.318</ele>
        <time>2018-07-01T11:55:17Z</time>
      </trkpt>
      <trkpt lat="44.0645" lon="7.70658">
        <ele>1784.008</ele>
        <time>2018-07-01T11:55:19Z</time>
      </trkpt>
      <trkpt lat="44.06456" lon="7.70661">
        <ele>1785.828</ele>
        <time>2018-07-01T11:55:20Z</time>
      </trkpt>
      <trkpt lat="44.06466" lon="7.70665">
        <ele>1786.432</ele>
        <time>2018-07-01T11:55:22Z</time>
      </trkpt>
      <trkpt lat="44.06473" lon="7.70672">
        <ele>1788.268</ele>
        <time>2018-07-01T11:55:24Z</time>
      </trkpt>
      <trkpt lat="44.06476" lon="7.70678">
        <ele>1788.431</ele>
        <time>2018-07-01T11:55:27Z</time>
      </trkpt>
      <trkpt lat="44.06478" lon="7.70685">
        <ele>1789.923</ele>
        <time>2018-07-01T11:55:29Z</time>
      </trkpt>
      <trkpt lat="44.06483" lon="7.70695">
        <ele>1790.796</ele>
        <time>2018-07-01T11:55:31Z</time>
      </trkpt>
      <trkpt lat="44.06488" lon="7.70704">
        <ele>1791.711</ele>
        <time>2018-07-01T11:55:33Z</time>
      </trkpt>
      <trkpt lat="44.06494" lon="7.70708">
        <ele>1793.822</ele>
        <time>2018-07-01T11:55:35Z</time>
      </trkpt>
      <trkpt lat="44.06501" lon="7.70708">
        <ele>1794.699</ele>
        <time>2018-07-01T11:55:37Z</time>
      </trkpt>
      <trkpt lat="44.06506" lon="7.70706">
        <ele>1795.307</ele>
        <time>2018-07-01T11:55:38Z</time>
      </trkpt>
      <trkpt lat="44.0651" lon="7.70703">
        <ele>1795.627</ele>
        <time>2018-07-01T11:55:39Z</time>
      </trkpt>
      <trkpt lat="44.06514" lon="7.70701">
        <ele>1796.708</ele>
        <time>2018-07-01T11:55:40Z</time>
      </trkpt>
      <trkpt lat="44.06523" lon="7.70696">
        <ele>1797.421</ele>
        <time>2018-07-01T11:55:41Z</time>
      </trkpt>
      <trkpt lat="44.06528" lon="7.70697">
        <ele>1797.695</ele>
        <time>2018-07-01T11:55:42Z</time>
      </trkpt>
      <trkpt lat="44.06537" lon="7.70697">
        <ele>1798.581</ele>
        <time>2018-07-01T11:55:44Z</time>
      </trkpt>
      <trkpt lat="44.06545" lon="7.707">
        <ele>1800.074</ele>
        <time>2018-07-01T11:55:46Z</time>
      </trkpt>
      <trkpt lat="44.06553" lon="7.70703">
        <ele>1801.276</ele>
        <time>2018-07-01T11:55:48Z</time>
      </trkpt>
      <trkpt lat="44.06559" lon="7.70712">
        <ele>1801.459</ele>
        <time>2018-07-01T11:55:50Z</time>
      </trkpt>
      <trkpt lat="44.06564" lon="7.70723">
        <ele>1802.494</ele>
        <time>2018-07-01T11:55:52Z</time>
      </trkpt>
      <trkpt lat="44.06566" lon="7.70734">
        <ele>1800.045</ele>
        <time>2018-07-01T11:55:54Z</time>
      </trkpt>
      <trkpt lat="44.06567" lon="7.70741">
        <ele>1799.775</ele>
        <time>2018-07-01T11:55:55Z</time>
      </trkpt>
      <trkpt lat="44.06572" lon="7.70751">
        <ele>1803.028</ele>
        <time>2018-07-01T11:55:57Z</time>
      </trkpt>
      <trkpt lat="44.06576" lon="7.70757">
        <ele>1804.72</ele>
        <time>2018-07-01T11:55:58Z</time>
      </trkpt>
      <trkpt lat="44.0658" lon="7.70762">
        <ele>1804.208</ele>
        <time>2018-07-01T11:55:59Z</time>
      </trkpt>
      <trkpt lat="44.06581" lon="7.70771">
        <ele>1805.119</ele>
        <time>2018-07-01T11:56:00Z</time>
      </trkpt>
      <trkpt lat="44.06584" lon="7.70778">
        <ele>1806.423</ele>
        <time>2018-07-01T11:56:01Z</time>
      </trkpt>
      <trkpt lat="44.06586" lon="7.70786">
        <ele>1807.189</ele>
        <time>2018-07-01T11:56:02Z</time>
      </trkpt>
      <trkpt lat="44.06587" lon="7.70792">
        <ele>1807.032</ele>
        <time>2018-07-01T11:56:03Z</time>
      </trkpt>
      <trkpt lat="44.0659" lon="7.70799">
        <ele>1807.494</ele>
        <time>2018-07-01T11:56:04Z</time>
      </trkpt>
      <trkpt lat="44.06593" lon="7.70805">
        <ele>1807.627</ele>
        <time>2018-07-01T11:56:05Z</time>
      </trkpt>
      <trkpt lat="44.06596" lon="7.70811">
        <ele>1808.152</ele>
        <time>2018-07-01T11:56:06Z</time>
      </trkpt>
      <trkpt lat="44.06599" lon="7.70817">
        <ele>1808.513</ele>
        <time>2018-07-01T11:56:07Z</time>
      </trkpt>
      <trkpt lat="44.06602" lon="7.70822">
        <ele>1808.985</ele>
        <time>2018-07-01T11:56:08Z</time>
      </trkpt>
      <trkpt lat="44.06605" lon="7.70827">
        <ele>1809.189</ele>
        <time>2018-07-01T11:56:09Z</time>
      </trkpt>
      <trkpt lat="44.06611" lon="7.70836">
        <ele>1808.917</ele>
        <time>2018-07-01T11:56:11Z</time>
      </trkpt>
      <trkpt lat="44.06615" lon="7.7084">
        <ele>1808.908</ele>
        <time>2018-07-01T11:56:12Z</time>
      </trkpt>
      <trkpt lat="44.06618" lon="7.70845">
        <ele>1808.63</ele>
        <time>2018-07-01T11:56:13Z</time>
      </trkpt>
      <trkpt lat="44.06623" lon="7.7085">
        <ele>1808.474</ele>
        <time>2018-07-01T11:56:14Z</time>
      </trkpt>
      <trkpt lat="44.06626" lon="7.70854">
        <ele>1808.78</ele>
        <time>2018-07-01T11:56:15Z</time>
      </trkpt>
      <trkpt lat="44.0663" lon="7.70858">
        <ele>1809.073</ele>
        <time>2018-07-01T11:56:16Z</time>
      </trkpt>
      <trkpt lat="44.06633" lon="7.70862">
        <ele>1808.925</ele>
        <time>2018-07-01T11:56:17Z</time>
      </trkpt>
      <trkpt lat="44.06639" lon="7.70868">
        <ele>1808.998</ele>
        <time>2018-07-01T11:56:19Z</time>
      </trkpt>
      <trkpt lat="44.06648" lon="7.7087">
        <ele>1810.133</ele>
        <time>2018-07-01T11:56:21Z</time>
      </trkpt>
      <trkpt lat="44.06656" lon="7.70865">
        <ele>1810.674</ele>
        <time>2018-07-01T11:56:23Z</time>
      </trkpt>
      <trkpt lat="44.0666" lon="7.7086">
        <ele>1810.481</ele>
        <time>2018-07-01T11:56:24Z</time>
      </trkpt>
      <trkpt lat="44.06664" lon="7.70855">
        <ele>1810.561</ele>
        <time>2018-07-01T11:56:25Z</time>
      </trkpt>
      <trkpt lat="44.06667" lon="7.7085">
        <ele>1810.717</ele>
        <time>2018-07-01T11:56:26Z</time>
      </trkpt>
      <trkpt lat="44.06671" lon="7.70845">
        <ele>1811.408</ele>
        <time>2018-07-01T11:56:27Z</time>
      </trkpt>
      <trkpt lat="44.06675" lon="7.70842">
        <ele>1811.61</ele>
        <time>2018-07-01T11:56:28Z</time>
      </trkpt>
      <trkpt lat="44.06683" lon="7.70838">
        <ele>1812.874</ele>
        <time>2018-07-01T11:56:29Z</time>
      </trkpt>
      <trkpt lat="44.06693" lon="7.70839">
        <ele>1815.54</ele>
        <time>2018-07-01T11:56:31Z</time>
      </trkpt>
      <trkpt lat="44.06698" lon="7.70839">
        <ele>1815.483</ele>
        <time>2018-07-01T11:56:32Z</time>
      </trkpt>
      <trkpt lat="44.06703" lon="7.70837">
        <ele>1816.235</ele>
        <time>2018-07-01T11:56:33Z</time>
      </trkpt>
      <trkpt lat="44.06711" lon="7.70832">
        <ele>1819.178</ele>
        <time>2018-07-01T11:56:35Z</time>
      </trkpt>
      <trkpt lat="44.06713" lon="7.70826">
        <ele>1819.273</ele>
        <time>2018-07-01T11:56:36Z</time>
      </trkpt>
      <trkpt lat="44.06716" lon="7.70819">
        <ele>1820.074</ele>
        <time>2018-07-01T11:56:37Z</time>
      </trkpt>
      <trkpt lat="44.0672" lon="7.70814">
        <ele>1820.312</ele>
        <time>2018-07-01T11:56:38Z</time>
      </trkpt>
      <trkpt lat="44.06724" lon="7.7081">
        <ele>1820.832</ele>
        <time>2018-07-01T11:56:39Z</time>
      </trkpt>
      <trkpt lat="44.06728" lon="7.70807">
        <ele>1822.005</ele>
        <time>2018-07-01T11:56:40Z</time>
      </trkpt>
      <trkpt lat="44.06733" lon="7.70804">
        <ele>1821.708</ele>
        <time>2018-07-01T11:56:41Z</time>
      </trkpt>
      <trkpt lat="44.06741" lon="7.708">
        <ele>1823.133</ele>
        <time>2018-07-01T11:56:43Z</time>
      </trkpt>
      <trkpt lat="44.06745" lon="7.70797">
        <ele>1823.427</ele>
        <time>2018-07-01T11:56:44Z</time>
      </trkpt>
      <trkpt lat="44.0675" lon="7.70794">
        <ele>1823.793</ele>
        <time>2018-07-01T11:56:46Z</time>
      </trkpt>
      <trkpt lat="44.06756" lon="7.70797">
        <ele>1823.586</ele>
        <time>2018-07-01T11:56:47Z</time>
      </trkpt>
      <trkpt lat="44.06763" lon="7.70795">
        <ele>1825.428</ele>
        <time>2018-07-01T11:56:49Z</time>
      </trkpt>
      <trkpt lat="44.06768" lon="7.70789">
        <ele>1826.951</ele>
        <time>2018-07-01T11:56:51Z</time>
      </trkpt>
      <trkpt lat="44.06775" lon="7.70787">
        <ele>1826.336</ele>
        <time>2018-07-01T11:56:53Z</time>
      </trkpt>
      <trkpt lat="44.06784" lon="7.70786">
        <ele>1827.977</ele>
        <time>2018-07-01T11:56:55Z</time>
      </trkpt>
      <trkpt lat="44.06789" lon="7.70787">
        <ele>1827.069</ele>
        <time>2018-07-01T11:56:56Z</time>
      </trkpt>
      <trkpt lat="44.06794" lon="7.70787">
        <ele>1826.704</ele>
        <time>2018-07-01T11:56:57Z</time>
      </trkpt>
      <trkpt lat="44.06797" lon="7.70781">
        <ele>1829.924</ele>
        <time>2018-07-01T11:56:58Z</time>
      </trkpt>
      <trkpt lat="44.06801" lon="7.70779">
        <ele>1830.708</ele>
        <time>2018-07-01T11:56:59Z</time>
      </trkpt>
      <trkpt lat="44.06808" lon="7.70773">
        <ele>1831.988</ele>
        <time>2018-07-01T11:57:01Z</time>
      </trkpt>
      <trkpt lat="44.06816" lon="7.70769">
        <ele>1829.842</ele>
        <time>2018-07-01T11:57:03Z</time>
      </trkpt>
      <trkpt lat="44.06823" lon="7.70767">
        <ele>1832.298</ele>
        <time>2018-07-01T11:57:05Z</time>
      </trkpt>
      <trkpt lat="44.06831" lon="7.70769">
        <ele>1833.511</ele>
        <time>2018-07-01T11:57:07Z</time>
      </trkpt>
      <trkpt lat="44.06832" lon="7.70778">
        <ele>1833.353</ele>
        <time>2018-07-01T11:57:08Z</time>
      </trkpt>
      <trkpt lat="44.06834" lon="7.70783">
        <ele>1833.746</ele>
        <time>2018-07-01T11:57:09Z</time>
      </trkpt>
      <trkpt lat="44.06836" lon="7.70795">
        <ele>1835.761</ele>
        <time>2018-07-01T11:57:11Z</time>
      </trkpt>
      <trkpt lat="44.06838" lon="7.70803">
        <ele>1836.422</ele>
        <time>2018-07-01T11:57:12Z</time>
      </trkpt>
      <trkpt lat="44.06838" lon="7.70811">
        <ele>1836.021</ele>
        <time>2018-07-01T11:57:13Z</time>
      </trkpt>
      <trkpt lat="44.06837" lon="7.70818">
        <ele>1836.441</ele>
        <time>2018-07-01T11:57:14Z</time>
      </trkpt>
      <trkpt lat="44.06838" lon="7.7083">
        <ele>1838.405</ele>
        <time>2018-07-01T11:57:16Z</time>
      </trkpt>
      <trkpt lat="44.06837" lon="7.70837">
        <ele>1839.508</ele>
        <time>2018-07-01T11:57:17Z</time>
      </trkpt>
      <trkpt lat="44.06839" lon="7.70843">
        <ele>1840.324</ele>
        <time>2018-07-01T11:57:18Z</time>
      </trkpt>
      <trkpt lat="44.06839" lon="7.7085">
        <ele>1840.558</ele>
        <time>2018-07-01T11:57:19Z</time>
      </trkpt>
      <trkpt lat="44.0684" lon="7.70856">
        <ele>1841.484</ele>
        <time>2018-07-01T11:57:20Z</time>
      </trkpt>
      <trkpt lat="44.06842" lon="7.70863">
        <ele>1842.157</ele>
        <time>2018-07-01T11:57:21Z</time>
      </trkpt>
      <trkpt lat="44.06842" lon="7.7087">
        <ele>1842.469</ele>
        <time>2018-07-01T11:57:22Z</time>
      </trkpt>
      <trkpt lat="44.06842" lon="7.70877">
        <ele>1842.982</ele>
        <time>2018-07-01T11:57:23Z</time>
      </trkpt>
      <trkpt lat="44.06845" lon="7.70884">
        <ele>1845.097</ele>
        <time>2018-07-01T11:57:24Z</time>
      </trkpt>
      <trkpt lat="44.06846" lon="7.70891">
        <ele>1845.038</ele>
        <time>2018-07-01T11:57:25Z</time>
      </trkpt>
      <trkpt lat="44.06848" lon="7.709">
        <ele>1845.482</ele>
        <time>2018-07-01T11:57:26Z</time>
      </trkpt>
      <trkpt lat="44.06852" lon="7.70905">
        <ele>1850.643</ele>
        <time>2018-07-01T11:58:55Z</time>
      </trkpt>
      <trkpt lat="44.06853" lon="7.70912">
        <ele>1851.317</ele>
        <time>2018-07-01T11:58:57Z</time>
      </trkpt>
      <trkpt lat="44.06853" lon="7.7092">
        <ele>1851.408</ele>
        <time>2018-07-01T11:58:59Z</time>
      </trkpt>
      <trkpt lat="44.06851" lon="7.70931">
        <ele>1852.56</ele>
        <time>2018-07-01T11:59:01Z</time>
      </trkpt>
      <trkpt lat="44.06851" lon="7.7094">
        <ele>1853.524</ele>
        <time>2018-07-01T11:59:03Z</time>
      </trkpt>
      <trkpt lat="44.06864" lon="7.70944">
        <ele>1854.65</ele>
        <time>2018-07-01T11:59:05Z</time>
      </trkpt>
      <trkpt lat="44.0687" lon="7.70944">
        <ele>1855.153</ele>
        <time>2018-07-01T11:59:06Z</time>
      </trkpt>
      <trkpt lat="44.06878" lon="7.70945">
        <ele>1856.225</ele>
        <time>2018-07-01T11:59:08Z</time>
      </trkpt>
      <trkpt lat="44.06887" lon="7.70948">
        <ele>1856.468</ele>
        <time>2018-07-01T11:59:10Z</time>
      </trkpt>
      <trkpt lat="44.06892" lon="7.70951">
        <ele>1856.573</ele>
        <time>2018-07-01T11:59:11Z</time>
      </trkpt>
      <trkpt lat="44.06897" lon="7.70954">
        <ele>1856.994</ele>
        <time>2018-07-01T11:59:12Z</time>
      </trkpt>
      <trkpt lat="44.06902" lon="7.70957">
        <ele>1856.922</ele>
        <time>2018-07-01T11:59:13Z</time>
      </trkpt>
      <trkpt lat="44.06906" lon="7.70962">
        <ele>1856.962</ele>
        <time>2018-07-01T11:59:14Z</time>
      </trkpt>
      <trkpt lat="44.06909" lon="7.70968">
        <ele>1857.208</ele>
        <time>2018-07-01T11:59:15Z</time>
      </trkpt>
      <trkpt lat="44.06912" lon="7.70976">
        <ele>1857.008</ele>
        <time>2018-07-01T11:59:16Z</time>
      </trkpt>
      <trkpt lat="44.06914" lon="7.70984">
        <ele>1857.544</ele>
        <time>2018-07-01T11:59:17Z</time>
      </trkpt>
      <trkpt lat="44.06915" lon="7.70992">
        <ele>1857.538</ele>
        <time>2018-07-01T11:59:18Z</time>
      </trkpt>
      <trkpt lat="44.06916" lon="7.70998">
        <ele>1858.334</ele>
        <time>2018-07-01T11:59:19Z</time>
      </trkpt>
      <trkpt lat="44.06919" lon="7.71009">
        <ele>1858.837</ele>
        <time>2018-07-01T11:59:21Z</time>
      </trkpt>
      <trkpt lat="44.06925" lon="7.71018">
        <ele>1859.419</ele>
        <time>2018-07-01T11:59:23Z</time>
      </trkpt>
      <trkpt lat="44.06928" lon="7.71022">
        <ele>1859.722</ele>
        <time>2018-07-01T11:59:24Z</time>
      </trkpt>
      <trkpt lat="44.0693" lon="7.71028">
        <ele>1859.737</ele>
        <time>2018-07-01T11:59:25Z</time>
      </trkpt>
      <trkpt lat="44.06932" lon="7.71034">
        <ele>1860.118</ele>
        <time>2018-07-01T11:59:26Z</time>
      </trkpt>
      <trkpt lat="44.06934" lon="7.7104">
        <ele>1860.253</ele>
        <time>2018-07-01T11:59:27Z</time>
      </trkpt>
      <trkpt lat="44.06935" lon="7.71046">
        <ele>1859.804</ele>
        <time>2018-07-01T11:59:28Z</time>
      </trkpt>
      <trkpt lat="44.06936" lon="7.71059">
        <ele>1859.414</ele>
        <time>2018-07-01T11:59:30Z</time>
      </trkpt>
      <trkpt lat="44.06937" lon="7.71065">
        <ele>1859.808</ele>
        <time>2018-07-01T11:59:31Z</time>
      </trkpt>
      <trkpt lat="44.06939" lon="7.71072">
        <ele>1860.137</ele>
        <time>2018-07-01T11:59:32Z</time>
      </trkpt>
      <trkpt lat="44.06941" lon="7.71078">
        <ele>1860.221</ele>
        <time>2018-07-01T11:59:33Z</time>
      </trkpt>
      <trkpt lat="44.06943" lon="7.71085">
        <ele>1860.297</ele>
        <time>2018-07-01T11:59:34Z</time>
      </trkpt>
      <trkpt lat="44.06946" lon="7.71091">
        <ele>1860.84</ele>
        <time>2018-07-01T11:59:35Z</time>
      </trkpt>
      <trkpt lat="44.0695" lon="7.71096">
        <ele>1860.682</ele>
        <time>2018-07-01T11:59:36Z</time>
      </trkpt>
      <trkpt lat="44.06955" lon="7.71102">
        <ele>1861.385</ele>
        <time>2018-07-01T11:59:37Z</time>
      </trkpt>
      <trkpt lat="44.06959" lon="7.71107">
        <ele>1861.72</ele>
        <time>2018-07-01T11:59:38Z</time>
      </trkpt>
      <trkpt lat="44.06963" lon="7.71112">
        <ele>1862.421</ele>
        <time>2018-07-01T11:59:39Z</time>
      </trkpt>
      <trkpt lat="44.06968" lon="7.71118">
        <ele>1863.142</ele>
        <time>2018-07-01T11:59:40Z</time>
      </trkpt>
      <trkpt lat="44.06971" lon="7.71122">
        <ele>1863.522</ele>
        <time>2018-07-01T11:59:41Z</time>
      </trkpt>
      <trkpt lat="44.06979" lon="7.71127">
        <ele>1864.214</ele>
        <time>2018-07-01T11:59:43Z</time>
      </trkpt>
      <trkpt lat="44.06983" lon="7.71129">
        <ele>1865.008</ele>
        <time>2018-07-01T11:59:44Z</time>
      </trkpt>
      <trkpt lat="44.06988" lon="7.71129">
        <ele>1865.846</ele>
        <time>2018-07-01T11:59:45Z</time>
      </trkpt>
      <trkpt lat="44.06993" lon="7.71129">
        <ele>1866.39</ele>
        <time>2018-07-01T11:59:46Z</time>
      </trkpt>
      <trkpt lat="44.06999" lon="7.71128">
        <ele>1866.756</ele>
        <time>2018-07-01T11:59:47Z</time>
      </trkpt>
      <trkpt lat="44.07005" lon="7.71126">
        <ele>1867.399</ele>
        <time>2018-07-01T11:59:48Z</time>
      </trkpt>
      <trkpt lat="44.07012" lon="7.71124">
        <ele>1867.991</ele>
        <time>2018-07-01T11:59:49Z</time>
      </trkpt>
      <trkpt lat="44.07018" lon="7.71123">
        <ele>1868.454</ele>
        <time>2018-07-01T11:59:50Z</time>
      </trkpt>
      <trkpt lat="44.07023" lon="7.71122">
        <ele>1869.259</ele>
        <time>2018-07-01T11:59:51Z</time>
      </trkpt>
      <trkpt lat="44.07029" lon="7.71121">
        <ele>1869.67</ele>
        <time>2018-07-01T11:59:52Z</time>
      </trkpt>
      <trkpt lat="44.07034" lon="7.71121">
        <ele>1870.011</ele>
        <time>2018-07-01T11:59:53Z</time>
      </trkpt>
      <trkpt lat="44.07039" lon="7.71122">
        <ele>1870.521</ele>
        <time>2018-07-01T11:59:54Z</time>
      </trkpt>
      <trkpt lat="44.07045" lon="7.71124">
        <ele>1870.903</ele>
        <time>2018-07-01T11:59:55Z</time>
      </trkpt>
      <trkpt lat="44.0705" lon="7.71126">
        <ele>1871.308</ele>
        <time>2018-07-01T11:59:56Z</time>
      </trkpt>
      <trkpt lat="44.07055" lon="7.71127">
        <ele>1871.813</ele>
        <time>2018-07-01T11:59:57Z</time>
      </trkpt>
      <trkpt lat="44.0706" lon="7.71128">
        <ele>1871.667</ele>
        <time>2018-07-01T11:59:58Z</time>
      </trkpt>
      <trkpt lat="44.07066" lon="7.71128">
        <ele>1873.043</ele>
        <time>2018-07-01T11:59:59Z</time>
      </trkpt>
      <trkpt lat="44.07071" lon="7.71127">
        <ele>1874.086</ele>
        <time>2018-07-01T12:00:00Z</time>
      </trkpt>
      <trkpt lat="44.07077" lon="7.7112">
        <ele>1874.798</ele>
        <time>2018-07-01T12:00:01Z</time>
      </trkpt>
      <trkpt lat="44.07084" lon="7.71114">
        <ele>1875.781</ele>
        <time>2018-07-01T12:00:03Z</time>
      </trkpt>
      <trkpt lat="44.07087" lon="7.71109">
        <ele>1875.936</ele>
        <time>2018-07-01T12:00:04Z</time>
      </trkpt>
      <trkpt lat="44.07091" lon="7.71105">
        <ele>1876.147</ele>
        <time>2018-07-01T12:00:05Z</time>
      </trkpt>
      <trkpt lat="44.07094" lon="7.711">
        <ele>1876.474</ele>
        <time>2018-07-01T12:00:06Z</time>
      </trkpt>
      <trkpt lat="44.071" lon="7.71091">
        <ele>1877.056</ele>
        <time>2018-07-01T12:00:08Z</time>
      </trkpt>
      <trkpt lat="44.07106" lon="7.71091">
        <ele>1877.621</ele>
        <time>2018-07-01T12:00:09Z</time>
      </trkpt>
      <trkpt lat="44.07112" lon="7.71087">
        <ele>1880.108</ele>
        <time>2018-07-01T12:00:10Z</time>
      </trkpt>
      <trkpt lat="44.07119" lon="7.71085">
        <ele>1880.949</ele>
        <time>2018-07-01T12:00:11Z</time>
      </trkpt>
      <trkpt lat="44.07124" lon="7.71084">
        <ele>1882.123</ele>
        <time>2018-07-01T12:00:12Z</time>
      </trkpt>
      <trkpt lat="44.07129" lon="7.71084">
        <ele>1883.269</ele>
        <time>2018-07-01T12:00:13Z</time>
      </trkpt>
      <trkpt lat="44.07133" lon="7.71084">
        <ele>1884.372</ele>
        <time>2018-07-01T12:00:14Z</time>
      </trkpt>
      <trkpt lat="44.07139" lon="7.71085">
        <ele>1885.154</ele>
        <time>2018-07-01T12:00:15Z</time>
      </trkpt>
      <trkpt lat="44.07144" lon="7.71088">
        <ele>1885.657</ele>
        <time>2018-07-01T12:00:16Z</time>
      </trkpt>
      <trkpt lat="44.07153" lon="7.71092">
        <ele>1888.472</ele>
        <time>2018-07-01T12:00:18Z</time>
      </trkpt>
      <trkpt lat="44.07159" lon="7.71095">
        <ele>1888.743</ele>
        <time>2018-07-01T12:00:19Z</time>
      </trkpt>
      <trkpt lat="44.07166" lon="7.71097">
        <ele>1889.044</ele>
        <time>2018-07-01T12:00:20Z</time>
      </trkpt>
      <trkpt lat="44.07171" lon="7.711">
        <ele>1890.005</ele>
        <time>2018-07-01T12:00:21Z</time>
      </trkpt>
      <trkpt lat="44.07177" lon="7.71101">
        <ele>1890.615</ele>
        <time>2018-07-01T12:00:22Z</time>
      </trkpt>
      <trkpt lat="44.07183" lon="7.71103">
        <ele>1891.608</ele>
        <time>2018-07-01T12:00:23Z</time>
      </trkpt>
      <trkpt lat="44.07191" lon="7.71105">
        <ele>1895.316</ele>
        <time>2018-07-01T12:00:25Z</time>
      </trkpt>
      <trkpt lat="44.07196" lon="7.71103">
        <ele>1895.77</ele>
        <time>2018-07-01T12:00:26Z</time>
      </trkpt>
      <trkpt lat="44.07202" lon="7.71095">
        <ele>1898.596</ele>
        <time>2018-07-01T12:00:28Z</time>
      </trkpt>
      <trkpt lat="44.07208" lon="7.71087">
        <ele>1899.419</ele>
        <time>2018-07-01T12:00:30Z</time>
      </trkpt>
      <trkpt lat="44.07215" lon="7.71078">
        <ele>1899.711</ele>
        <time>2018-07-01T12:00:32Z</time>
      </trkpt>
      <trkpt lat="44.07219" lon="7.71073">
        <ele>1901.154</ele>
        <time>2018-07-01T12:00:33Z</time>
      </trkpt>
      <trkpt lat="44.07223" lon="7.71068">
        <ele>1901.719</ele>
        <time>2018-07-01T12:00:34Z</time>
      </trkpt>
      <trkpt lat="44.07227" lon="7.71064">
        <ele>1902.37</ele>
        <time>2018-07-01T12:00:35Z</time>
      </trkpt>
      <trkpt lat="44.07233" lon="7.71058">
        <ele>1902.947</ele>
        <time>2018-07-01T12:00:36Z</time>
      </trkpt>
      <trkpt lat="44.07237" lon="7.71054">
        <ele>1902.829</ele>
        <time>2018-07-01T12:00:37Z</time>
      </trkpt>
      <trkpt lat="44.07242" lon="7.71049">
        <ele>1903.421</ele>
        <time>2018-07-01T12:00:38Z</time>
      </trkpt>
      <trkpt lat="44.07246" lon="7.71046">
        <ele>1904.208</ele>
        <time>2018-07-01T12:00:39Z</time>
      </trkpt>
      <trkpt lat="44.0725" lon="7.71044">
        <ele>1905.036</ele>
        <time>2018-07-01T12:00:40Z</time>
      </trkpt>
      <trkpt lat="44.07255" lon="7.71043">
        <ele>1907.01</ele>
        <time>2018-07-01T12:00:41Z</time>
      </trkpt>
      <trkpt lat="44.0726" lon="7.71044">
        <ele>1907.336</ele>
        <time>2018-07-01T12:00:42Z</time>
      </trkpt>
      <trkpt lat="44.07266" lon="7.71045">
        <ele>1907.419</ele>
        <time>2018-07-01T12:00:43Z</time>
      </trkpt>
      <trkpt lat="44.07272" lon="7.71046">
        <ele>1908.191</ele>
        <time>2018-07-01T12:00:44Z</time>
      </trkpt>
      <trkpt lat="44.07277" lon="7.71046">
        <ele>1909.054</ele>
        <time>2018-07-01T12:00:45Z</time>
      </trkpt>
      <trkpt lat="44.07282" lon="7.71048">
        <ele>1909.279</ele>
        <time>2018-07-01T12:00:46Z</time>
      </trkpt>
      <trkpt lat="44.07288" lon="7.71048">
        <ele>1910.84</ele>
        <time>2018-07-01T12:00:47Z</time>
      </trkpt>
      <trkpt lat="44.07294" lon="7.71049">
        <ele>1911.412</ele>
        <time>2018-07-01T12:00:48Z</time>
      </trkpt>
      <trkpt lat="44.07302" lon="7.71056">
        <ele>1912.232</ele>
        <time>2018-07-01T12:00:50Z</time>
      </trkpt>
      <trkpt lat="44.07305" lon="7.7106">
        <ele>1912.605</ele>
        <time>2018-07-01T12:00:51Z</time>
      </trkpt>
      <trkpt lat="44.07309" lon="7.71063">
        <ele>1914.408</ele>
        <time>2018-07-01T12:00:52Z</time>
      </trkpt>
      <trkpt lat="44.07314" lon="7.71067">
        <ele>1915.293</ele>
        <time>2018-07-01T12:00:53Z</time>
      </trkpt>
      <trkpt lat="44.07319" lon="7.71067">
        <ele>1916.967</ele>
        <time>2018-07-01T12:00:54Z</time>
      </trkpt>
      <trkpt lat="44.07324" lon="7.71069">
        <ele>1917.083</ele>
        <time>2018-07-01T12:00:55Z</time>
      </trkpt>
      <trkpt lat="44.0733" lon="7.7107">
        <ele>1917.276</ele>
        <time>2018-07-01T12:00:56Z</time>
      </trkpt>
      <trkpt lat="44.0734" lon="7.71073">
        <ele>1915.488</ele>
        <time>2018-07-01T12:00:57Z</time>
      </trkpt>
      <trkpt lat="44.07346" lon="7.71075">
        <ele>1916.751</ele>
        <time>2018-07-01T12:00:58Z</time>
      </trkpt>
      <trkpt lat="44.07354" lon="7.71074">
        <ele>1920.476</ele>
        <time>2018-07-01T12:01:01Z</time>
      </trkpt>
      <trkpt lat="44.07361" lon="7.71069">
        <ele>1924.047</ele>
        <time>2018-07-01T12:01:03Z</time>
      </trkpt>
      <trkpt lat="44.07369" lon="7.71065">
        <ele>1926.721</ele>
        <time>2018-07-01T12:01:05Z</time>
      </trkpt>
      <trkpt lat="44.07373" lon="7.71064">
        <ele>1927.141</ele>
        <time>2018-07-01T12:01:06Z</time>
      </trkpt>
      <trkpt lat="44.07377" lon="7.71059">
        <ele>1928.005</ele>
        <time>2018-07-01T12:01:07Z</time>
      </trkpt>
      <trkpt lat="44.07383" lon="7.71053">
        <ele>1928.808</ele>
        <time>2018-07-01T12:01:09Z</time>
      </trkpt>
      <trkpt lat="44.07385" lon="7.71044">
        <ele>1931.014</ele>
        <time>2018-07-01T12:01:10Z</time>
      </trkpt>
      <trkpt lat="44.07387" lon="7.71036">
        <ele>1932.068</ele>
        <time>2018-07-01T12:01:11Z</time>
      </trkpt>
      <trkpt lat="44.07389" lon="7.7103">
        <ele>1931.674</ele>
        <time>2018-07-01T12:01:12Z</time>
      </trkpt>
      <trkpt lat="44.07391" lon="7.71023">
        <ele>1931.737</ele>
        <time>2018-07-01T12:01:13Z</time>
      </trkpt>
      <trkpt lat="44.07398" lon="7.71021">
        <ele>1931.969</ele>
        <time>2018-07-01T12:01:14Z</time>
      </trkpt>
      <trkpt lat="44.07403" lon="7.71014">
        <ele>1932.842</ele>
        <time>2018-07-01T12:01:16Z</time>
      </trkpt>
      <trkpt lat="44.07409" lon="7.71012">
        <ele>1933.977</ele>
        <time>2018-07-01T12:01:18Z</time>
      </trkpt>
      <trkpt lat="44.07414" lon="7.71016">
        <ele>1935.168</ele>
        <time>2018-07-01T12:01:19Z</time>
      </trkpt>
      <trkpt lat="44.07418" lon="7.71019">
        <ele>1936.555</ele>
        <time>2018-07-01T12:01:20Z</time>
      </trkpt>
      <trkpt lat="44.07423" lon="7.71022">
        <ele>1937.607</ele>
        <time>2018-07-01T12:01:21Z</time>
      </trkpt>
      <trkpt lat="44.07429" lon="7.71024">
        <ele>1937.817</ele>
        <time>2018-07-01T12:01:22Z</time>
      </trkpt>
      <trkpt lat="44.07434" lon="7.71025">
        <ele>1937.608</ele>
        <time>2018-07-01T12:01:23Z</time>
      </trkpt>
      <trkpt lat="44.0744" lon="7.71025">
        <ele>1937.697</ele>
        <time>2018-07-01T12:01:24Z</time>
      </trkpt>
      <trkpt lat="44.07445" lon="7.71025">
        <ele>1937.961</ele>
        <time>2018-07-01T12:01:25Z</time>
      </trkpt>
      <trkpt lat="44.07451" lon="7.71026">
        <ele>1937.357</ele>
        <time>2018-07-01T12:01:26Z</time>
      </trkpt>
      <trkpt lat="44.0746" lon="7.71028">
        <ele>1938.81</ele>
        <time>2018-07-01T12:01:28Z</time>
      </trkpt>
      <trkpt lat="44.07465" lon="7.71027">
        <ele>1939.152</ele>
        <time>2018-07-01T12:01:29Z</time>
      </trkpt>
      <trkpt lat="44.0747" lon="7.71025">
        <ele>1939.835</ele>
        <time>2018-07-01T12:01:30Z</time>
      </trkpt>
      <trkpt lat="44.07474" lon="7.71021">
        <ele>1940.42</ele>
        <time>2018-07-01T12:01:31Z</time>
      </trkpt>
      <trkpt lat="44.0748" lon="7.71018">
        <ele>1940.381</ele>
        <time>2018-07-01T12:01:32Z</time>
      </trkpt>
      <trkpt lat="44.07486" lon="7.71014">
        <ele>1940.427</ele>
        <time>2018-07-01T12:01:33Z</time>
      </trkpt>
      <trkpt lat="44.07491" lon="7.71008">
        <ele>1940.768</ele>
        <time>2018-07-01T12:01:34Z</time>
      </trkpt>
      <trkpt lat="44.07494" lon="7.71002">
        <ele>1941.714</ele>
        <time>2018-07-01T12:01:35Z</time>
      </trkpt>
      <trkpt lat="44.07497" lon="7.70996">
        <ele>1941.808</ele>
        <time>2018-07-01T12:01:36Z</time>
      </trkpt>
      <trkpt lat="44.07501" lon="7.70991">
        <ele>1941.884</ele>
        <time>2018-07-01T12:01:37Z</time>
      </trkpt>
      <trkpt lat="44.07505" lon="7.70987">
        <ele>1942.098</ele>
        <time>2018-07-01T12:01:38Z</time>
      </trkpt>
      <trkpt lat="44.0751" lon="7.70981">
        <ele>1942.614</ele>
        <time>2018-07-01T12:01:39Z</time>
      </trkpt>
      <trkpt lat="44.07515" lon="7.70976">
        <ele>1943.087</ele>
        <time>2018-07-01T12:01:40Z</time>
      </trkpt>
      <trkpt lat="44.0752" lon="7.70971">
        <ele>1943.419</ele>
        <time>2018-07-01T12:01:41Z</time>
      </trkpt>
      <trkpt lat="44.07525" lon="7.70966">
        <ele>1943.422</ele>
        <time>2018-07-01T12:01:42Z</time>
      </trkpt>
      <trkpt lat="44.0753" lon="7.70962">
        <ele>1943.987</ele>
        <time>2018-07-01T12:01:43Z</time>
      </trkpt>
      <trkpt lat="44.07536" lon="7.70957">
        <ele>1944.188</ele>
        <time>2018-07-01T12:01:44Z</time>
      </trkpt>
      <trkpt lat="44.0754" lon="7.70953">
        <ele>1944.439</ele>
        <time>2018-07-01T12:01:45Z</time>
      </trkpt>
      <trkpt lat="44.07544" lon="7.70948">
        <ele>1945.101</ele>
        <time>2018-07-01T12:01:46Z</time>
      </trkpt>
      <trkpt lat="44.07552" lon="7.70944">
        <ele>1945.921</ele>
        <time>2018-07-01T12:01:48Z</time>
      </trkpt>
      <trkpt lat="44.0756" lon="7.70945">
        <ele>1949.408</ele>
        <time>2018-07-01T12:01:50Z</time>
      </trkpt>
      <trkpt lat="44.07567" lon="7.70951">
        <ele>1952.245</ele>
        <time>2018-07-01T12:01:52Z</time>
      </trkpt>
      <trkpt lat="44.07568" lon="7.70958">
        <ele>1953.939</ele>
        <time>2018-07-01T12:01:53Z</time>
      </trkpt>
      <trkpt lat="44.0757" lon="7.70963">
        <ele>1954.555</ele>
        <time>2018-07-01T12:01:54Z</time>
      </trkpt>
      <trkpt lat="44.07574" lon="7.70969">
        <ele>1955.078</ele>
        <time>2018-07-01T12:01:55Z</time>
      </trkpt>
      <trkpt lat="44.07575" lon="7.70976">
        <ele>1956.29</ele>
        <time>2018-07-01T12:01:56Z</time>
      </trkpt>
      <trkpt lat="44.07579" lon="7.70981">
        <ele>1957.793</ele>
        <time>2018-07-01T12:01:57Z</time>
      </trkpt>
      <trkpt lat="44.07584" lon="7.70987">
        <ele>1958.318</ele>
        <time>2018-07-01T12:01:58Z</time>
      </trkpt>
      <trkpt lat="44.07587" lon="7.70992">
        <ele>1958.839</ele>
        <time>2018-07-01T12:01:59Z</time>
      </trkpt>
      <trkpt lat="44.07591" lon="7.70997">
        <ele>1959.456</ele>
        <time>2018-07-01T12:02:00Z</time>
      </trkpt>
      <trkpt lat="44.07593" lon="7.71004">
        <ele>1959.859</ele>
        <time>2018-07-01T12:02:01Z</time>
      </trkpt>
      <trkpt lat="44.07599" lon="7.7101">
        <ele>1962.814</ele>
        <time>2018-07-01T12:02:02Z</time>
      </trkpt>
      <trkpt lat="44.07603" lon="7.71016">
        <ele>1963.208</ele>
        <time>2018-07-01T12:02:03Z</time>
      </trkpt>
      <trkpt lat="44.07607" lon="7.71022">
        <ele>1963.897</ele>
        <time>2018-07-01T12:02:04Z</time>
      </trkpt>
      <trkpt lat="44.07611" lon="7.71029">
        <ele>1964.281</ele>
        <time>2018-07-01T12:02:05Z</time>
      </trkpt>
      <trkpt lat="44.07612" lon="7.71036">
        <ele>1964.667</ele>
        <time>2018-07-01T12:02:06Z</time>
      </trkpt>
      <trkpt lat="44.07615" lon="7.71042">
        <ele>1964.73</ele>
        <time>2018-07-01T12:02:07Z</time>
      </trkpt>
      <trkpt lat="44.07617" lon="7.7105">
        <ele>1965.692</ele>
        <time>2018-07-01T12:02:08Z</time>
      </trkpt>
      <trkpt lat="44.07619" lon="7.7106">
        <ele>1965.325</ele>
        <time>2018-07-01T12:02:09Z</time>
      </trkpt>
      <trkpt lat="44.07621" lon="7.71068">
        <ele>1965.94</ele>
        <time>2018-07-01T12:02:10Z</time>
      </trkpt>
      <trkpt lat="44.07623" lon="7.71074">
        <ele>1967.131</ele>
        <time>2018-07-01T12:02:11Z</time>
      </trkpt>
      <trkpt lat="44.07625" lon="7.71082">
        <ele>1966.816</ele>
        <time>2018-07-01T12:02:12Z</time>
      </trkpt>
      <trkpt lat="44.07625" lon="7.71091">
        <ele>1967.376</ele>
        <time>2018-07-01T12:02:13Z</time>
      </trkpt>
      <trkpt lat="44.0763" lon="7.71095">
        <ele>1967.813</ele>
        <time>2018-07-01T12:02:14Z</time>
      </trkpt>
      <trkpt lat="44.07632" lon="7.71102">
        <ele>1968.108</ele>
        <time>2018-07-01T12:02:15Z</time>
      </trkpt>
      <trkpt lat="44.07635" lon="7.71109">
        <ele>1968.733</ele>
        <time>2018-07-01T12:02:16Z</time>
      </trkpt>
      <trkpt lat="44.07638" lon="7.71116">
        <ele>1968.847</ele>
        <time>2018-07-01T12:02:17Z</time>
      </trkpt>
      <trkpt lat="44.07643" lon="7.71122">
        <ele>1969.033</ele>
        <time>2018-07-01T12:02:18Z</time>
      </trkpt>
      <trkpt lat="44.07647" lon="7.71129">
        <ele>1969.966</ele>
        <time>2018-07-01T12:02:19Z</time>
      </trkpt>
      <trkpt lat="44.0765" lon="7.71134">
        <ele>1970.568</ele>
        <time>2018-07-01T12:02:20Z</time>
      </trkpt>
      <trkpt lat="44.07652" lon="7.7114">
        <ele>1970.521</ele>
        <time>2018-07-01T12:02:21Z</time>
      </trkpt>
      <trkpt lat="44.07657" lon="7.71144">
        <ele>1970.186</ele>
        <time>2018-07-01T12:02:22Z</time>
      </trkpt>
      <trkpt lat="44.07659" lon="7.7115">
        <ele>1970.167</ele>
        <time>2018-07-01T12:02:23Z</time>
      </trkpt>
      <trkpt lat="44.07662" lon="7.71156">
        <ele>1970.178</ele>
        <time>2018-07-01T12:02:24Z</time>
      </trkpt>
      <trkpt lat="44.07665" lon="7.71163">
        <ele>1969.833</ele>
        <time>2018-07-01T12:02:25Z</time>
      </trkpt>
      <trkpt lat="44.07666" lon="7.71171">
        <ele>1970.226</ele>
        <time>2018-07-01T12:02:26Z</time>
      </trkpt>
      <trkpt lat="44.07669" lon="7.71178">
        <ele>1970.408</ele>
        <time>2018-07-01T12:02:27Z</time>
      </trkpt>
      <trkpt lat="44.07672" lon="7.71185">
        <ele>1970.599</ele>
        <time>2018-07-01T12:02:28Z</time>
      </trkpt>
      <trkpt lat="44.07674" lon="7.71195">
        <ele>1970.463</ele>
        <time>2018-07-01T12:02:29Z</time>
      </trkpt>
      <trkpt lat="44.07676" lon="7.71203">
        <ele>1970.429</ele>
        <time>2018-07-01T12:02:30Z</time>
      </trkpt>
      <trkpt lat="44.07679" lon="7.71212">
        <ele>1970.872</ele>
        <time>2018-07-01T12:02:31Z</time>
      </trkpt>
      <trkpt lat="44.07681" lon="7.7122">
        <ele>1971.124</ele>
        <time>2018-07-01T12:02:32Z</time>
      </trkpt>
      <trkpt lat="44.07682" lon="7.71227">
        <ele>1971.467</ele>
        <time>2018-07-01T12:02:33Z</time>
      </trkpt>
      <trkpt lat="44.07686" lon="7.71233">
        <ele>1971.442</ele>
        <time>2018-07-01T12:02:34Z</time>
      </trkpt>
      <trkpt lat="44.07688" lon="7.7124">
        <ele>1971.523</ele>
        <time>2018-07-01T12:02:35Z</time>
      </trkpt>
      <trkpt lat="44.07691" lon="7.71246">
        <ele>1971.842</ele>
        <time>2018-07-01T12:02:36Z</time>
      </trkpt>
      <trkpt lat="44.07692" lon="7.71253">
        <ele>1972.222</ele>
        <time>2018-07-01T12:02:37Z</time>
      </trkpt>
      <trkpt lat="44.07694" lon="7.7126">
        <ele>1972.914</ele>
        <time>2018-07-01T12:02:38Z</time>
      </trkpt>
      <trkpt lat="44.07696" lon="7.71268">
        <ele>1972.608</ele>
        <time>2018-07-01T12:02:39Z</time>
      </trkpt>
      <trkpt lat="44.07699" lon="7.71277">
        <ele>1972.916</ele>
        <time>2018-07-01T12:02:40Z</time>
      </trkpt>
      <trkpt lat="44.07702" lon="7.71285">
        <ele>1973.16</ele>
        <time>2018-07-01T12:02:41Z</time>
      </trkpt>
      <trkpt lat="44.07703" lon="7.71291">
        <ele>1973.126</ele>
        <time>2018-07-01T12:02:42Z</time>
      </trkpt>
      <trkpt lat="44.07705" lon="7.71298">
        <ele>1973.779</ele>
        <time>2018-07-01T12:02:43Z</time>
      </trkpt>
      <trkpt lat="44.07709" lon="7.71312">
        <ele>1973.381</ele>
        <time>2018-07-01T12:02:45Z</time>
      </trkpt>
      <trkpt lat="44.07711" lon="7.7132">
        <ele>1973.744</ele>
        <time>2018-07-01T12:02:46Z</time>
      </trkpt>
      <trkpt lat="44.07713" lon="7.71329">
        <ele>1973.899</ele>
        <time>2018-07-01T12:02:47Z</time>
      </trkpt>
      <trkpt lat="44.07717" lon="7.71335">
        <ele>1973.83</ele>
        <time>2018-07-01T12:02:48Z</time>
      </trkpt>
      <trkpt lat="44.07722" lon="7.71344">
        <ele>1974.932</ele>
        <time>2018-07-01T12:02:49Z</time>
      </trkpt>
      <trkpt lat="44.07726" lon="7.71353">
        <ele>1975.892</ele>
        <time>2018-07-01T12:02:50Z</time>
      </trkpt>
      <trkpt lat="44.07731" lon="7.71362">
        <ele>1976.411</ele>
        <time>2018-07-01T12:02:51Z</time>
      </trkpt>
      <trkpt lat="44.07735" lon="7.71369">
        <ele>1976.408</ele>
        <time>2018-07-01T12:02:52Z</time>
      </trkpt>
      <trkpt lat="44.07738" lon="7.71375">
        <ele>1976.345</ele>
        <time>2018-07-01T12:02:53Z</time>
      </trkpt>
      <trkpt lat="44.07742" lon="7.7138">
        <ele>1976.859</ele>
        <time>2018-07-01T12:02:54Z</time>
      </trkpt>
      <trkpt lat="44.07747" lon="7.71384">
        <ele>1977.085</ele>
        <time>2018-07-01T12:02:55Z</time>
      </trkpt>
      <trkpt lat="44.07753" lon="7.7139">
        <ele>1977.748</ele>
        <time>2018-07-01T12:02:56Z</time>
      </trkpt>
      <trkpt lat="44.07758" lon="7.71395">
        <ele>1979.24</ele>
        <time>2018-07-01T12:02:57Z</time>
      </trkpt>
      <trkpt lat="44.07764" lon="7.71399">
        <ele>1979.663</ele>
        <time>2018-07-01T12:02:58Z</time>
      </trkpt>
      <trkpt lat="44.0777" lon="7.71403">
        <ele>1980.548</ele>
        <time>2018-07-01T12:02:59Z</time>
      </trkpt>
      <trkpt lat="44.07776" lon="7.71407">
        <ele>1981.759</ele>
        <time>2018-07-01T12:03:00Z</time>
      </trkpt>
      <trkpt lat="44.07784" lon="7.71411">
        <ele>1983.056</ele>
        <time>2018-07-01T12:03:01Z</time>
      </trkpt>
      <trkpt lat="44.07791" lon="7.71416">
        <ele>1983.859</ele>
        <time>2018-07-01T12:03:02Z</time>
      </trkpt>
      <trkpt lat="44.07798" lon="7.71419">
        <ele>1984.414</ele>
        <time>2018-07-01T12:03:03Z</time>
      </trkpt>
      <trkpt lat="44.07804" lon="7.71422">
        <ele>1985.108</ele>
        <time>2018-07-01T12:03:04Z</time>
      </trkpt>
      <trkpt lat="44.07811" lon="7.71425">
        <ele>1985.857</ele>
        <time>2018-07-01T12:03:05Z</time>
      </trkpt>
      <trkpt lat="44.07817" lon="7.71429">
        <ele>1986.631</ele>
        <time>2018-07-01T12:03:06Z</time>
      </trkpt>
      <trkpt lat="44.07824" lon="7.71433">
        <ele>1987.657</ele>
        <time>2018-07-01T12:03:07Z</time>
      </trkpt>
      <trkpt lat="44.07831" lon="7.71436">
        <ele>1987.83</ele>
        <time>2018-07-01T12:03:08Z</time>
      </trkpt>
      <trkpt lat="44.07837" lon="7.71438">
        <ele>1987.722</ele>
        <time>2018-07-01T12:03:09Z</time>
      </trkpt>
      <trkpt lat="44.07843" lon="7.71441">
        <ele>1988.985</ele>
        <time>2018-07-01T12:03:10Z</time>
      </trkpt>
      <trkpt lat="44.0785" lon="7.71445">
        <ele>1989.69</ele>
        <time>2018-07-01T12:03:11Z</time>
      </trkpt>
      <trkpt lat="44.07857" lon="7.71448">
        <ele>1990.061</ele>
        <time>2018-07-01T12:03:12Z</time>
      </trkpt>
      <trkpt lat="44.07863" lon="7.71449">
        <ele>1990.411</ele>
        <time>2018-07-01T12:03:13Z</time>
      </trkpt>
      <trkpt lat="44.0787" lon="7.71451">
        <ele>1991.421</ele>
        <time>2018-07-01T12:03:14Z</time>
      </trkpt>
      <trkpt lat="44.07877" lon="7.71453">
        <ele>1992.303</ele>
        <time>2018-07-01T12:03:15Z</time>
      </trkpt>
      <trkpt lat="44.07884" lon="7.71454">
        <ele>1992.908</ele>
        <time>2018-07-01T12:03:16Z</time>
      </trkpt>
      <trkpt lat="44.0789" lon="7.71456">
        <ele>1993.423</ele>
        <time>2018-07-01T12:03:17Z</time>
      </trkpt>
      <trkpt lat="44.07897" lon="7.71457">
        <ele>1994.357</ele>
        <time>2018-07-01T12:03:18Z</time>
      </trkpt>
      <trkpt lat="44.07904" lon="7.71458">
        <ele>1995.333</ele>
        <time>2018-07-01T12:03:19Z</time>
      </trkpt>
      <trkpt lat="44.0791" lon="7.71458">
        <ele>1996.596</ele>
        <time>2018-07-01T12:03:20Z</time>
      </trkpt>
      <trkpt lat="44.07916" lon="7.71459">
        <ele>1996.668</ele>
        <time>2018-07-01T12:03:21Z</time>
      </trkpt>
      <trkpt lat="44.07922" lon="7.71459">
        <ele>1997.861</ele>
        <time>2018-07-01T12:03:22Z</time>
      </trkpt>
      <trkpt lat="44.07928" lon="7.71458">
        <ele>1998.246</ele>
        <time>2018-07-01T12:03:23Z</time>
      </trkpt>
      <trkpt lat="44.07934" lon="7.71457">
        <ele>1998.497</ele>
        <time>2018-07-01T12:03:24Z</time>
      </trkpt>
      <trkpt lat="44.07943" lon="7.71454">
        <ele>1999.711</ele>
        <time>2018-07-01T12:03:25Z</time>
      </trkpt>
      <trkpt lat="44.07955" lon="7.71452">
        <ele>2000.821</ele>
        <time>2018-07-01T12:03:27Z</time>
      </trkpt>
      <trkpt lat="44.07961" lon="7.71451">
        <ele>2001.603</ele>
        <time>2018-07-01T12:03:28Z</time>
      </trkpt>
      <trkpt lat="44.07968" lon="7.71451">
        <ele>2003.208</ele>
        <time>2018-07-01T12:03:30Z</time>
      </trkpt>
      <trkpt lat="44.07972" lon="7.71453">
        <ele>2005.543</ele>
        <time>2018-07-01T12:03:32Z</time>
      </trkpt>
      <trkpt lat="44.07973" lon="7.7146">
        <ele>2005.497</ele>
        <time>2018-07-01T12:03:35Z</time>
      </trkpt>
      <trkpt lat="44.07966" lon="7.71465">
        <ele>2008.483</ele>
        <time>2018-07-01T12:03:37Z</time>
      </trkpt>
      <trkpt lat="44.07961" lon="7.71466">
        <ele>2008.596</ele>
        <time>2018-07-01T12:03:38Z</time>
      </trkpt>
      <trkpt lat="44.07955" lon="7.71467">
        <ele>2008.578</ele>
        <time>2018-07-01T12:03:39Z</time>
      </trkpt>
      <trkpt lat="44.07949" lon="7.71469">
        <ele>2008.831</ele>
        <time>2018-07-01T12:03:40Z</time>
      </trkpt>
      <trkpt lat="44.07943" lon="7.71471">
        <ele>2009.646</ele>
        <time>2018-07-01T12:03:41Z</time>
      </trkpt>
      <trkpt lat="44.07937" lon="7.71474">
        <ele>2009.667</ele>
        <time>2018-07-01T12:03:42Z</time>
      </trkpt>
      <trkpt lat="44.07931" lon="7.71475">
        <ele>2009.971</ele>
        <time>2018-07-01T12:03:43Z</time>
      </trkpt>
      <trkpt lat="44.07926" lon="7.71477">
        <ele>2010.041</ele>
        <time>2018-07-01T12:03:44Z</time>
      </trkpt>
      <trkpt lat="44.07916" lon="7.71477">
        <ele>2018.015</ele>
        <time>2018-07-01T12:03:46Z</time>
      </trkpt>
      <trkpt lat="44.07919" lon="7.71483">
        <ele>2020.308</ele>
        <time>2018-07-01T12:03:48Z</time>
      </trkpt>
      <trkpt lat="44.07925" lon="7.71485">
        <ele>2022.959</ele>
        <time>2018-07-01T12:03:50Z</time>
      </trkpt>
      <trkpt lat="44.07933" lon="7.71481">
        <ele>2025.273</ele>
        <time>2018-07-01T12:03:52Z</time>
      </trkpt>
      <trkpt lat="44.07937" lon="7.71481">
        <ele>2025.889</ele>
        <time>2018-07-01T12:03:53Z</time>
      </trkpt>
      <trkpt lat="44.07943" lon="7.71481">
        <ele>2026.492</ele>
        <time>2018-07-01T12:03:54Z</time>
      </trkpt>
      <trkpt lat="44.0795" lon="7.71478">
        <ele>2028.694</ele>
        <time>2018-07-01T12:03:56Z</time>
      </trkpt>
      <trkpt lat="44.07955" lon="7.71474">
        <ele>2029.287</ele>
        <time>2018-07-01T12:03:57Z</time>
      </trkpt>
      <trkpt lat="44.07961" lon="7.71472">
        <ele>2029.962</ele>
        <time>2018-07-01T12:03:58Z</time>
      </trkpt>
      <trkpt lat="44.07966" lon="7.71469">
        <ele>2031.593</ele>
        <time>2018-07-01T12:03:59Z</time>
      </trkpt>
      <trkpt lat="44.07973" lon="7.71467">
        <ele>2033.733</ele>
        <time>2018-07-01T12:04:00Z</time>
      </trkpt>
      <trkpt lat="44.07979" lon="7.71464">
        <ele>2036.023</ele>
        <time>2018-07-01T12:04:01Z</time>
      </trkpt>
      <trkpt lat="44.07986" lon="7.71463">
        <ele>2036.815</ele>
        <time>2018-07-01T12:04:02Z</time>
      </trkpt>
      <trkpt lat="44.07992" lon="7.71462">
        <ele>2037.408</ele>
        <time>2018-07-01T12:04:03Z</time>
      </trkpt>
      <trkpt lat="44.07998" lon="7.7146">
        <ele>2037.075</ele>
        <time>2018-07-01T12:04:04Z</time>
      </trkpt>
      <trkpt lat="44.08003" lon="7.71457">
        <ele>2037.319</ele>
        <time>2018-07-01T12:04:05Z</time>
      </trkpt>
      <trkpt lat="44.08009" lon="7.71455">
        <ele>2038.555</ele>
        <time>2018-07-01T12:04:07Z</time>
      </trkpt>
      <trkpt lat="44.08014" lon="7.71459">
        <ele>2039.138</ele>
        <time>2018-07-01T12:04:09Z</time>
      </trkpt>
      <trkpt lat="44.0801" lon="7.71466">
        <ele>2039.82</ele>
        <time>2018-07-01T12:04:11Z</time>
      </trkpt>
      <trkpt lat="44.08002" lon="7.71469">
        <ele>2040.333</ele>
        <time>2018-07-01T12:04:13Z</time>
      </trkpt>
      <trkpt lat="44.07996" lon="7.71472">
        <ele>2040.938</ele>
        <time>2018-07-01T12:04:14Z</time>
      </trkpt>
      <trkpt lat="44.0799" lon="7.71474">
        <ele>2040.979</ele>
        <time>2018-07-01T12:04:15Z</time>
      </trkpt>
      <trkpt lat="44.07984" lon="7.71478">
        <ele>2040.527</ele>
        <time>2018-07-01T12:04:16Z</time>
      </trkpt>
      <trkpt lat="44.07977" lon="7.71482">
        <ele>2040.868</ele>
        <time>2018-07-01T12:04:17Z</time>
      </trkpt>
      <trkpt lat="44.0797" lon="7.71482">
        <ele>2043.214</ele>
        <time>2018-07-01T12:04:18Z</time>
      </trkpt>
      <trkpt lat="44.07963" lon="7.71485">
        <ele>2044.308</ele>
        <time>2018-07-01T12:04:19Z</time>
      </trkpt>
      <trkpt lat="44.07957" lon="7.71487">
        <ele>2044.614</ele>
        <time>2018-07-01T12:04:20Z</time>
      </trkpt>
      <trkpt lat="44.07951" lon="7.7149">
        <ele>2045.048</ele>
        <time>2018-07-01T12:04:21Z</time>
      </trkpt>
      <trkpt lat="44.07945" lon="7.71494">
        <ele>2045.474</ele>
        <time>2018-07-01T12:04:22Z</time>
      </trkpt>
      <trkpt lat="44.0794" lon="7.71496">
        <ele>2045.667</ele>
        <time>2018-07-01T12:04:23Z</time>
      </trkpt>
      <trkpt lat="44.07933" lon="7.71499">
        <ele>2045.519</ele>
        <time>2018-07-01T12:04:25Z</time>
      </trkpt>
      <trkpt lat="44.07928" lon="7.71501">
        <ele>2044.582</ele>
        <time>2018-07-01T12:04:27Z</time>
      </trkpt>
      <trkpt lat="44.07923" lon="7.71502">
        <ele>2047.367</ele>
        <time>2018-07-01T12:04:43Z</time>
      </trkpt>
      <trkpt lat="44.07918" lon="7.71503">
        <ele>2046.238</ele>
        <time>2018-07-01T12:05:22Z</time>
      </trkpt>
      <trkpt lat="44.07923" lon="7.71505">
        <ele>2045.078</ele>
        <time>2018-07-01T12:05:46Z</time>
      </trkpt>
      <trkpt lat="44.07918" lon="7.71504">
        <ele>2042.833</ele>
        <time>2018-07-01T12:06:01Z</time>
      </trkpt>
      <trkpt lat="44.07918" lon="7.7151">
        <ele>2043.526</ele>
        <time>2018-07-01T12:06:59Z</time>
      </trkpt>
      <trkpt lat="44.07922" lon="7.71506">
        <ele>2048.408</ele>
        <time>2018-07-01T12:07:32Z</time>
      </trkpt>
      <trkpt lat="44.07925" lon="7.71501">
        <ele>2047.499</ele>
        <time>2018-07-01T12:07:38Z</time>
      </trkpt>
      <trkpt lat="44.07924" lon="7.71508">
        <ele>2046.263</ele>
        <time>2018-07-01T12:08:41Z</time>
      </trkpt>
      <trkpt lat="44.07921" lon="7.71514">
        <ele>2047.069</ele>
        <time>2018-07-01T12:08:50Z</time>
      </trkpt>
      <trkpt lat="44.07921" lon="7.71521">
        <ele>2047.242</ele>
        <time>2018-07-01T12:11:03Z</time>
      </trkpt>
      <trkpt lat="44.07922" lon="7.71514">
        <ele>2045.054</ele>
        <time>2018-07-01T12:12:50Z</time>
      </trkpt>
      <trkpt lat="44.07918" lon="7.71509">
        <ele>2044.927</ele>
        <time>2018-07-01T12:13:04Z</time>
      </trkpt>
      <trkpt lat="44.07923" lon="7.71508">
        <ele>2042.322</ele>
        <time>2018-07-01T12:13:41Z</time>
      </trkpt>
      <trkpt lat="44.07925" lon="7.71502">
        <ele>2049.093</ele>
        <time>2018-07-01T12:13:59Z</time>
      </trkpt>
      <trkpt lat="44.07929" lon="7.71498">
        <ele>2049.723</ele>
        <time>2018-07-01T12:14:15Z</time>
      </trkpt>
      <trkpt lat="44.07934" lon="7.71498">
        <ele>2050.283</ele>
        <time>2018-07-01T12:14:20Z</time>
      </trkpt>
      <trkpt lat="44.07929" lon="7.71501">
        <ele>2050.111</ele>
        <time>2018-07-01T12:14:25Z</time>
      </trkpt>
      <trkpt lat="44.07926" lon="7.71505">
        <ele>2048.708</ele>
        <time>2018-07-01T12:14:28Z</time>
      </trkpt>
      <trkpt lat="44.07921" lon="7.71508">
        <ele>2048.944</ele>
        <time>2018-07-01T12:14:34Z</time>
      </trkpt>
      <trkpt lat="44.07918" lon="7.71503">
        <ele>2046.758</ele>
        <time>2018-07-01T12:14:49Z</time>
      </trkpt>
      <trkpt lat="44.07914" lon="7.715">
        <ele>2047.454</ele>
        <time>2018-07-01T12:14:56Z</time>
      </trkpt>
      <trkpt lat="44.07918" lon="7.71504">
        <ele>2045.127</ele>
        <time>2018-07-01T12:15:08Z</time>
      </trkpt>
      <trkpt lat="44.07922" lon="7.71504">
        <ele>2044.439</ele>
        <time>2018-07-01T12:15:18Z</time>
      </trkpt>
      <trkpt lat="44.07918" lon="7.715">
        <ele>2045.622</ele>
        <time>2018-07-01T12:16:14Z</time>
      </trkpt>
      <trkpt lat="44.07923" lon="7.71502">
        <ele>2046.217</ele>
        <time>2018-07-01T12:17:11Z</time>
      </trkpt>
      <trkpt lat="44.07928" lon="7.71502">
        <ele>2046.378</ele>
        <time>2018-07-01T12:20:14Z</time>
      </trkpt>
      <trkpt lat="44.07923" lon="7.71502">
        <ele>2045.946</ele>
        <time>2018-07-01T12:20:25Z</time>
      </trkpt>
      <trkpt lat="44.07917" lon="7.71504">
        <ele>2045.488</ele>
        <time>2018-07-01T12:24:08Z</time>
      </trkpt>
      <trkpt lat="44.07911" lon="7.71512">
        <ele>2045.916</ele>
        <time>2018-07-01T12:24:10Z</time>
      </trkpt>
      <trkpt lat="44.07907" lon="7.71515">
        <ele>2045.908</ele>
        <time>2018-07-01T12:24:11Z</time>
      </trkpt>
      <trkpt lat="44.07903" lon="7.71518">
        <ele>2045.836</ele>
        <time>2018-07-01T12:24:12Z</time>
      </trkpt>
      <trkpt lat="44.07894" lon="7.71518">
        <ele>2045.26</ele>
        <time>2018-07-01T12:24:13Z</time>
      </trkpt>
      <trkpt lat="44.07885" lon="7.71521">
        <ele>2044.676</ele>
        <time>2018-07-01T12:24:14Z</time>
      </trkpt>
      <trkpt lat="44.07877" lon="7.71526">
        <ele>2044.289</ele>
        <time>2018-07-01T12:24:15Z</time>
      </trkpt>
      <trkpt lat="44.07869" lon="7.7153">
        <ele>2043.991</ele>
        <time>2018-07-01T12:24:16Z</time>
      </trkpt>
      <trkpt lat="44.07861" lon="7.71535">
        <ele>2044.084</ele>
        <time>2018-07-01T12:24:17Z</time>
      </trkpt>
      <trkpt lat="44.07853" lon="7.71541">
        <ele>2043.299</ele>
        <time>2018-07-01T12:24:18Z</time>
      </trkpt>
      <trkpt lat="44.07846" lon="7.71547">
        <ele>2043.63</ele>
        <time>2018-07-01T12:24:19Z</time>
      </trkpt>
      <trkpt lat="44.07839" lon="7.71552">
        <ele>2042.637</ele>
        <time>2018-07-01T12:24:20Z</time>
      </trkpt>
      <trkpt lat="44.07833" lon="7.71556">
        <ele>2042.349</ele>
        <time>2018-07-01T12:24:21Z</time>
      </trkpt>
      <trkpt lat="44.07825" lon="7.71559">
        <ele>2042.613</ele>
        <time>2018-07-01T12:24:22Z</time>
      </trkpt>
      <trkpt lat="44.07817" lon="7.71563">
        <ele>2042.708</ele>
        <time>2018-07-01T12:24:23Z</time>
      </trkpt>
      <trkpt lat="44.07808" lon="7.71565">
        <ele>2042.685</ele>
        <time>2018-07-01T12:24:24Z</time>
      </trkpt>
      <trkpt lat="44.078" lon="7.71568">
        <ele>2042.049</ele>
        <time>2018-07-01T12:24:25Z</time>
      </trkpt>
      <trkpt lat="44.07793" lon="7.71569">
        <ele>2041.515</ele>
        <time>2018-07-01T12:24:26Z</time>
      </trkpt>
      <trkpt lat="44.07786" lon="7.7157">
        <ele>2040.778</ele>
        <time>2018-07-01T12:24:27Z</time>
      </trkpt>
      <trkpt lat="44.07778" lon="7.71571">
        <ele>2039.48</ele>
        <time>2018-07-01T12:24:28Z</time>
      </trkpt>
      <trkpt lat="44.07768" lon="7.71573">
        <ele>2038.983</ele>
        <time>2018-07-01T12:24:29Z</time>
      </trkpt>
      <trkpt lat="44.07759" lon="7.71574">
        <ele>2038.598</ele>
        <time>2018-07-01T12:24:30Z</time>
      </trkpt>
      <trkpt lat="44.07749" lon="7.71576">
        <ele>2037.799</ele>
        <time>2018-07-01T12:24:31Z</time>
      </trkpt>
      <trkpt lat="44.07741" lon="7.71579">
        <ele>2037.291</ele>
        <time>2018-07-01T12:24:32Z</time>
      </trkpt>
      <trkpt lat="44.07733" lon="7.7158">
        <ele>2036.681</ele>
        <time>2018-07-01T12:24:33Z</time>
      </trkpt>
      <trkpt lat="44.07723" lon="7.71578">
        <ele>2035.519</ele>
        <time>2018-07-01T12:24:34Z</time>
      </trkpt>
      <trkpt lat="44.07713" lon="7.71578">
        <ele>2034.608</ele>
        <time>2018-07-01T12:24:35Z</time>
      </trkpt>
      <trkpt lat="44.07706" lon="7.71576">
        <ele>2032.371</ele>
        <time>2018-07-01T12:24:36Z</time>
      </trkpt>
      <trkpt lat="44.07697" lon="7.71576">
        <ele>2031.885</ele>
        <time>2018-07-01T12:24:37Z</time>
      </trkpt>
      <trkpt lat="44.0769" lon="7.71575">
        <ele>2031.061</ele>
        <time>2018-07-01T12:24:38Z</time>
      </trkpt>
      <trkpt lat="44.07682" lon="7.71574">
        <ele>2030.524</ele>
        <time>2018-07-01T12:24:39Z</time>
      </trkpt>
      <trkpt lat="44.07672" lon="7.71572">
        <ele>2029.476</ele>
        <time>2018-07-01T12:24:40Z</time>
      </trkpt>
      <trkpt lat="44.07664" lon="7.71569">
        <ele>2029.669</ele>
        <time>2018-07-01T12:24:41Z</time>
      </trkpt>
      <trkpt lat="44.07656" lon="7.71568">
        <ele>2028.484</ele>
        <time>2018-07-01T12:24:42Z</time>
      </trkpt>
      <trkpt lat="44.07649" lon="7.71567">
        <ele>2028.695</ele>
        <time>2018-07-01T12:24:43Z</time>
      </trkpt>
      <trkpt lat="44.07643" lon="7.71567">
        <ele>2028.312</ele>
        <time>2018-07-01T12:24:44Z</time>
      </trkpt>
      <trkpt lat="44.07635" lon="7.71567">
        <ele>2028.132</ele>
        <time>2018-07-01T12:24:45Z</time>
      </trkpt>
      <trkpt lat="44.07628" lon="7.71566">
        <ele>2028.005</ele>
        <time>2018-07-01T12:24:46Z</time>
      </trkpt>
      <trkpt lat="44.07616" lon="7.71565">
        <ele>2027.408</ele>
        <time>2018-07-01T12:24:47Z</time>
      </trkpt>
      <trkpt lat="44.07608" lon="7.71562">
        <ele>2025.793</ele>
        <time>2018-07-01T12:24:48Z</time>
      </trkpt>
      <trkpt lat="44.076" lon="7.71561">
        <ele>2025.387</ele>
        <time>2018-07-01T12:24:49Z</time>
      </trkpt>
      <trkpt lat="44.07592" lon="7.71561">
        <ele>2024.673</ele>
        <time>2018-07-01T12:24:50Z</time>
      </trkpt>
      <trkpt lat="44.07582" lon="7.71559">
        <ele>2023.376</ele>
        <time>2018-07-01T12:24:51Z</time>
      </trkpt>
      <trkpt lat="44.07572" lon="7.71556">
        <ele>2022.918</ele>
        <time>2018-07-01T12:24:52Z</time>
      </trkpt>
      <trkpt lat="44.07563" lon="7.71554">
        <ele>2024.071</ele>
        <time>2018-07-01T12:24:53Z</time>
      </trkpt>
      <trkpt lat="44.07555" lon="7.71554">
        <ele>2023.336</ele>
        <time>2018-07-01T12:24:54Z</time>
      </trkpt>
      <trkpt lat="44.07546" lon="7.71554">
        <ele>2022.237</ele>
        <time>2018-07-01T12:24:55Z</time>
      </trkpt>
      <trkpt lat="44.07535" lon="7.71554">
        <ele>2020.415</ele>
        <time>2018-07-01T12:24:56Z</time>
      </trkpt>
      <trkpt lat="44.07523" lon="7.71553">
        <ele>2019.565</ele>
        <time>2018-07-01T12:24:57Z</time>
      </trkpt>
      <trkpt lat="44.07512" lon="7.71554">
        <ele>2019.011</ele>
        <time>2018-07-01T12:24:58Z</time>
      </trkpt>
      <trkpt lat="44.07502" lon="7.71554">
        <ele>2018.408</ele>
        <time>2018-07-01T12:24:59Z</time>
      </trkpt>
      <trkpt lat="44.07493" lon="7.71555">
        <ele>2017.893</ele>
        <time>2018-07-01T12:25:00Z</time>
      </trkpt>
      <trkpt lat="44.07484" lon="7.71558">
        <ele>2016.517</ele>
        <time>2018-07-01T12:25:01Z</time>
      </trkpt>
      <trkpt lat="44.07477" lon="7.71561">
        <ele>2015.053</ele>
        <time>2018-07-01T12:25:02Z</time>
      </trkpt>
      <trkpt lat="44.0747" lon="7.71565">
        <ele>2014.016</ele>
        <time>2018-07-01T12:25:03Z</time>
      </trkpt>
      <trkpt lat="44.07462" lon="7.71571">
        <ele>2013.048</ele>
        <time>2018-07-01T12:25:04Z</time>
      </trkpt>
      <trkpt lat="44.07452" lon="7.71577">
        <ele>2011.751</ele>
        <time>2018-07-01T12:25:05Z</time>
      </trkpt>
      <trkpt lat="44.07444" lon="7.71585">
        <ele>2011.196</ele>
        <time>2018-07-01T12:25:06Z</time>
      </trkpt>
      <trkpt lat="44.07437" lon="7.7159">
        <ele>2007.997</ele>
        <time>2018-07-01T12:25:07Z</time>
      </trkpt>
      <trkpt lat="44.07428" lon="7.71596">
        <ele>2006.916</ele>
        <time>2018-07-01T12:25:08Z</time>
      </trkpt>
      <trkpt lat="44.07419" lon="7.71603">
        <ele>2006.276</ele>
        <time>2018-07-01T12:25:09Z</time>
      </trkpt>
      <trkpt lat="44.07411" lon="7.71611">
        <ele>2005.713</ele>
        <time>2018-07-01T12:25:10Z</time>
      </trkpt>
      <trkpt lat="44.07403" lon="7.7162">
        <ele>2005.208</ele>
        <time>2018-07-01T12:25:11Z</time>
      </trkpt>
      <trkpt lat="44.07396" lon="7.71627">
        <ele>2004.183</ele>
        <time>2018-07-01T12:25:12Z</time>
      </trkpt>
      <trkpt lat="44.0739" lon="7.71634">
        <ele>2003.447</ele>
        <time>2018-07-01T12:25:13Z</time>
      </trkpt>
      <trkpt lat="44.07384" lon="7.71639">
        <ele>2002.943</ele>
        <time>2018-07-01T12:25:14Z</time>
      </trkpt>
      <trkpt lat="44.07377" lon="7.71647">
        <ele>2002.786</ele>
        <time>2018-07-01T12:25:15Z</time>
      </trkpt>
      <trkpt lat="44.07372" lon="7.71653">
        <ele>2003.038</ele>
        <time>2018-07-01T12:25:16Z</time>
      </trkpt>
      <trkpt lat="44.07367" lon="7.71656">
        <ele>2002.761</ele>
        <time>2018-07-01T12:25:17Z</time>
      </trkpt>
      <trkpt lat="44.07361" lon="7.71663">
        <ele>2002.466</ele>
        <time>2018-07-01T12:25:19Z</time>
      </trkpt>
      <trkpt lat="44.0736" lon="7.71671">
        <ele>2002.497</ele>
        <time>2018-07-01T12:25:21Z</time>
      </trkpt>
      <trkpt lat="44.07365" lon="7.71673">
        <ele>2000.827</ele>
        <time>2018-07-01T12:25:23Z</time>
      </trkpt>
      <trkpt lat="44.07372" lon="7.71668">
        <ele>1999.168</ele>
        <time>2018-07-01T12:25:25Z</time>
      </trkpt>
      <trkpt lat="44.07375" lon="7.71663">
        <ele>1998.214</ele>
        <time>2018-07-01T12:25:26Z</time>
      </trkpt>
      <trkpt lat="44.0738" lon="7.71659">
        <ele>1998.108</ele>
        <time>2018-07-01T12:25:27Z</time>
      </trkpt>
      <trkpt lat="44.07387" lon="7.71655">
        <ele>1996.664</ele>
        <time>2018-07-01T12:25:28Z</time>
      </trkpt>
      <trkpt lat="44.07399" lon="7.71651">
        <ele>1995.348</ele>
        <time>2018-07-01T12:25:29Z</time>
      </trkpt>
      <trkpt lat="44.07412" lon="7.71644">
        <ele>1995.694</ele>
        <time>2018-07-01T12:25:30Z</time>
      </trkpt>
      <trkpt lat="44.07423" lon="7.7164">
        <ele>1994.467</ele>
        <time>2018-07-01T12:25:31Z</time>
      </trkpt>
      <trkpt lat="44.07433" lon="7.71636">
        <ele>1994.339</ele>
        <time>2018-07-01T12:25:32Z</time>
      </trkpt>
      <trkpt lat="44.0744" lon="7.71634">
        <ele>1993.752</ele>
        <time>2018-07-01T12:25:33Z</time>
      </trkpt>
      <trkpt lat="44.07448" lon="7.71632">
        <ele>1993.017</ele>
        <time>2018-07-01T12:25:34Z</time>
      </trkpt>
      <trkpt lat="44.07457" lon="7.7163">
        <ele>1992.238</ele>
        <time>2018-07-01T12:25:35Z</time>
      </trkpt>
      <trkpt lat="44.07466" lon="7.71625">
        <ele>1991.086</ele>
        <time>2018-07-01T12:25:36Z</time>
      </trkpt>
      <trkpt lat="44.07475" lon="7.71623">
        <ele>1990.56</ele>
        <time>2018-07-01T12:25:37Z</time>
      </trkpt>
      <trkpt lat="44.07485" lon="7.71623">
        <ele>1989.926</ele>
        <time>2018-07-01T12:25:38Z</time>
      </trkpt>
      <trkpt lat="44.07494" lon="7.71621">
        <ele>1989.408</ele>
        <time>2018-07-01T12:25:39Z</time>
      </trkpt>
      <trkpt lat="44.07502" lon="7.71621">
        <ele>1988.94</ele>
        <time>2018-07-01T12:25:40Z</time>
      </trkpt>
      <trkpt lat="44.07508" lon="7.71619">
        <ele>1988.584</ele>
        <time>2018-07-01T12:25:41Z</time>
      </trkpt>
      <trkpt lat="44.07514" lon="7.71619">
        <ele>1988.41</ele>
        <time>2018-07-01T12:25:42Z</time>
      </trkpt>
      <trkpt lat="44.07519" lon="7.71618">
        <ele>1988.013</ele>
        <time>2018-07-01T12:25:43Z</time>
      </trkpt>
      <trkpt lat="44.07526" lon="7.71617">
        <ele>1986.055</ele>
        <time>2018-07-01T12:25:45Z</time>
      </trkpt>
      <trkpt lat="44.0753" lon="7.71621">
        <ele>1983.758</ele>
        <time>2018-07-01T12:25:47Z</time>
      </trkpt>
      <trkpt lat="44.07531" lon="7.71629">
        <ele>1984.923</ele>
        <time>2018-07-01T12:25:49Z</time>
      </trkpt>
      <trkpt lat="44.07528" lon="7.71633">
        <ele>1984.484</ele>
        <time>2018-07-01T12:25:51Z</time>
      </trkpt>
      <trkpt lat="44.07519" lon="7.71636">
        <ele>1984.578</ele>
        <time>2018-07-01T12:25:53Z</time>
      </trkpt>
      <trkpt lat="44.07513" lon="7.71639">
        <ele>1984.733</ele>
        <time>2018-07-01T12:25:54Z</time>
      </trkpt>
      <trkpt lat="44.07505" lon="7.71641">
        <ele>1984.726</ele>
        <time>2018-07-01T12:25:55Z</time>
      </trkpt>
      <trkpt lat="44.07498" lon="7.71641">
        <ele>1984.408</ele>
        <time>2018-07-01T12:25:56Z</time>
      </trkpt>
      <trkpt lat="44.07491" lon="7.71642">
        <ele>1983.489</ele>
        <time>2018-07-01T12:25:57Z</time>
      </trkpt>
      <trkpt lat="44.07485" lon="7.71643">
        <ele>1981.783</ele>
        <time>2018-07-01T12:25:58Z</time>
      </trkpt>
      <trkpt lat="44.07479" lon="7.71647">
        <ele>1981.059</ele>
        <time>2018-07-01T12:25:59Z</time>
      </trkpt>
      <trkpt lat="44.07475" lon="7.71653">
        <ele>1979.712</ele>
        <time>2018-07-01T12:26:00Z</time>
      </trkpt>
      <trkpt lat="44.0747" lon="7.7166">
        <ele>1979.584</ele>
        <time>2018-07-01T12:26:01Z</time>
      </trkpt>
      <trkpt lat="44.07463" lon="7.71669">
        <ele>1979.997</ele>
        <time>2018-07-01T12:26:02Z</time>
      </trkpt>
      <trkpt lat="44.07458" lon="7.71677">
        <ele>1978.162</ele>
        <time>2018-07-01T12:26:03Z</time>
      </trkpt>
      <trkpt lat="44.07452" lon="7.71685">
        <ele>1977.063</ele>
        <time>2018-07-01T12:26:04Z</time>
      </trkpt>
      <trkpt lat="44.07446" lon="7.71691">
        <ele>1977.332</ele>
        <time>2018-07-01T12:26:05Z</time>
      </trkpt>
      <trkpt lat="44.0744" lon="7.71698">
        <ele>1976.392</ele>
        <time>2018-07-01T12:26:06Z</time>
      </trkpt>
      <trkpt lat="44.07434" lon="7.71704">
        <ele>1976.111</ele>
        <time>2018-07-01T12:26:07Z</time>
      </trkpt>
      <trkpt lat="44.0743" lon="7.71709">
        <ele>1976.408</ele>
        <time>2018-07-01T12:26:08Z</time>
      </trkpt>
      <trkpt lat="44.07425" lon="7.71711">
        <ele>1976.155</ele>
        <time>2018-07-01T12:26:09Z</time>
      </trkpt>
      <trkpt lat="44.07421" lon="7.7172">
        <ele>1975.589</ele>
        <time>2018-07-01T12:26:11Z</time>
      </trkpt>
      <trkpt lat="44.07423" lon="7.71727">
        <ele>1975.465</ele>
        <time>2018-07-01T12:26:13Z</time>
      </trkpt>
      <trkpt lat="44.0743" lon="7.71727">
        <ele>1974.928</ele>
        <time>2018-07-01T12:26:15Z</time>
      </trkpt>
      <trkpt lat="44.07441" lon="7.71723">
        <ele>1975.75</ele>
        <time>2018-07-01T12:26:17Z</time>
      </trkpt>
      <trkpt lat="44.07446" lon="7.7172">
        <ele>1975.493</ele>
        <time>2018-07-01T12:26:18Z</time>
      </trkpt>
      <trkpt lat="44.07455" lon="7.71717">
        <ele>1975.358</ele>
        <time>2018-07-01T12:26:19Z</time>
      </trkpt>
      <trkpt lat="44.07469" lon="7.7171">
        <ele>1973.849</ele>
        <time>2018-07-01T12:26:20Z</time>
      </trkpt>
      <trkpt lat="44.07477" lon="7.71705">
        <ele>1972.652</ele>
        <time>2018-07-01T12:26:21Z</time>
      </trkpt>
      <trkpt lat="44.07483" lon="7.71701">
        <ele>1971.253</ele>
        <time>2018-07-01T12:26:22Z</time>
      </trkpt>
      <trkpt lat="44.07491" lon="7.71699">
        <ele>1970.508</ele>
        <time>2018-07-01T12:26:23Z</time>
      </trkpt>
      <trkpt lat="44.07498" lon="7.71698">
        <ele>1968.708</ele>
        <time>2018-07-01T12:26:24Z</time>
      </trkpt>
      <trkpt lat="44.07505" lon="7.71695">
        <ele>1967.147</ele>
        <time>2018-07-01T12:26:25Z</time>
      </trkpt>
      <trkpt lat="44.07512" lon="7.71694">
        <ele>1967.381</ele>
        <time>2018-07-01T12:26:26Z</time>
      </trkpt>
      <trkpt lat="44.07517" lon="7.71693">
        <ele>1966.987</ele>
        <time>2018-07-01T12:26:27Z</time>
      </trkpt>
      <trkpt lat="44.07522" lon="7.71692">
        <ele>1966.63</ele>
        <time>2018-07-01T12:26:28Z</time>
      </trkpt>
      <trkpt lat="44.07527" lon="7.71695">
        <ele>1965.522</ele>
        <time>2018-07-01T12:26:30Z</time>
      </trkpt>
      <trkpt lat="44.0753" lon="7.71701">
        <ele>1966.735</ele>
        <time>2018-07-01T12:26:32Z</time>
      </trkpt>
      <trkpt lat="44.07525" lon="7.71708">
        <ele>1966.38</ele>
        <time>2018-07-01T12:26:34Z</time>
      </trkpt>
      <trkpt lat="44.07519" lon="7.7171">
        <ele>1967.081</ele>
        <time>2018-07-01T12:26:35Z</time>
      </trkpt>
      <trkpt lat="44.07513" lon="7.71712">
        <ele>1966.437</ele>
        <time>2018-07-01T12:26:36Z</time>
      </trkpt>
      <trkpt lat="44.07508" lon="7.71715">
        <ele>1966.049</ele>
        <time>2018-07-01T12:26:37Z</time>
      </trkpt>
      <trkpt lat="44.07503" lon="7.71719">
        <ele>1964.713</ele>
        <time>2018-07-01T12:26:38Z</time>
      </trkpt>
      <trkpt lat="44.07497" lon="7.71725">
        <ele>1963.208</ele>
        <time>2018-07-01T12:26:39Z</time>
      </trkpt>
      <trkpt lat="44.07492" lon="7.71729">
        <ele>1962.855</ele>
        <time>2018-07-01T12:26:40Z</time>
      </trkpt>
      <trkpt lat="44.07486" lon="7.71735">
        <ele>1961.959</ele>
        <time>2018-07-01T12:26:41Z</time>
      </trkpt>
      <trkpt lat="44.07479" lon="7.71744">
        <ele>1960.675</ele>
        <time>2018-07-01T12:26:42Z</time>
      </trkpt>
      <trkpt lat="44.07473" lon="7.71753">
        <ele>1959.978</ele>
        <time>2018-07-01T12:26:43Z</time>
      </trkpt>
      <trkpt lat="44.07468" lon="7.7176">
        <ele>1958.58</ele>
        <time>2018-07-01T12:26:44Z</time>
      </trkpt>
      <trkpt lat="44.07463" lon="7.71767">
        <ele>1958.433</ele>
        <time>2018-07-01T12:26:45Z</time>
      </trkpt>
      <trkpt lat="44.07459" lon="7.71774">
        <ele>1958.628</ele>
        <time>2018-07-01T12:26:46Z</time>
      </trkpt>
      <trkpt lat="44.0745" lon="7.7178">
        <ele>1957.819</ele>
        <time>2018-07-01T12:26:47Z</time>
      </trkpt>
      <trkpt lat="44.07442" lon="7.71788">
        <ele>1956.612</ele>
        <time>2018-07-01T12:26:48Z</time>
      </trkpt>
      <trkpt lat="44.07435" lon="7.71797">
        <ele>1955.932</ele>
        <time>2018-07-01T12:26:49Z</time>
      </trkpt>
      <trkpt lat="44.07428" lon="7.71806">
        <ele>1953.905</ele>
        <time>2018-07-01T12:26:50Z</time>
      </trkpt>
      <trkpt lat="44.07422" lon="7.71816">
        <ele>1953.608</ele>
        <time>2018-07-01T12:26:51Z</time>
      </trkpt>
      <trkpt lat="44.07416" lon="7.71824">
        <ele>1952.833</ele>
        <time>2018-07-01T12:26:52Z</time>
      </trkpt>
      <trkpt lat="44.07412" lon="7.71832">
        <ele>1952.137</ele>
        <time>2018-07-01T12:26:53Z</time>
      </trkpt>
      <trkpt lat="44.07408" lon="7.71838">
        <ele>1952.633</ele>
        <time>2018-07-01T12:26:54Z</time>
      </trkpt>
      <trkpt lat="44.07404" lon="7.71843">
        <ele>1952.396</ele>
        <time>2018-07-01T12:26:55Z</time>
      </trkpt>
      <trkpt lat="44.07399" lon="7.71845">
        <ele>1951.188</ele>
        <time>2018-07-01T12:26:56Z</time>
      </trkpt>
      <trkpt lat="44.07395" lon="7.71848">
        <ele>1951.331</ele>
        <time>2018-07-01T12:26:57Z</time>
      </trkpt>
      <trkpt lat="44.07391" lon="7.71854">
        <ele>1950.926</ele>
        <time>2018-07-01T12:26:59Z</time>
      </trkpt>
      <trkpt lat="44.07393" lon="7.71861">
        <ele>1949.457</ele>
        <time>2018-07-01T12:27:01Z</time>
      </trkpt>
      <trkpt lat="44.074" lon="7.71862">
        <ele>1948.229</ele>
        <time>2018-07-01T12:27:03Z</time>
      </trkpt>
      <trkpt lat="44.07406" lon="7.7186">
        <ele>1947.4</ele>
        <time>2018-07-01T12:27:04Z</time>
      </trkpt>
      <trkpt lat="44.07413" lon="7.71856">
        <ele>1947.32</ele>
        <time>2018-07-01T12:27:05Z</time>
      </trkpt>
      <trkpt lat="44.07421" lon="7.71851">
        <ele>1946.008</ele>
        <time>2018-07-01T12:27:06Z</time>
      </trkpt>
      <trkpt lat="44.07427" lon="7.71845">
        <ele>1944.694</ele>
        <time>2018-07-01T12:27:07Z</time>
      </trkpt>
      <trkpt lat="44.07433" lon="7.71841">
        <ele>1944.678</ele>
        <time>2018-07-01T12:27:08Z</time>
      </trkpt>
      <trkpt lat="44.0744" lon="7.71837">
        <ele>1944.384</ele>
        <time>2018-07-01T12:27:09Z</time>
      </trkpt>
      <trkpt lat="44.07444" lon="7.71833">
        <ele>1944.367</ele>
        <time>2018-07-01T12:27:10Z</time>
      </trkpt>
      <trkpt lat="44.07448" lon="7.71829">
        <ele>1943.429</ele>
        <time>2018-07-01T12:27:11Z</time>
      </trkpt>
      <trkpt lat="44.07454" lon="7.71829">
        <ele>1942.682</ele>
        <time>2018-07-01T12:27:13Z</time>
      </trkpt>
      <trkpt lat="44.07457" lon="7.71835">
        <ele>1941.167</ele>
        <time>2018-07-01T12:27:15Z</time>
      </trkpt>
      <trkpt lat="44.07452" lon="7.71847">
        <ele>1939.178</ele>
        <time>2018-07-01T12:27:17Z</time>
      </trkpt>
      <trkpt lat="44.07447" lon="7.71853">
        <ele>1938.697</ele>
        <time>2018-07-01T12:27:18Z</time>
      </trkpt>
      <trkpt lat="44.07442" lon="7.7186">
        <ele>1936.823</ele>
        <time>2018-07-01T12:27:19Z</time>
      </trkpt>
      <trkpt lat="44.07437" lon="7.71869">
        <ele>1935.825</ele>
        <time>2018-07-01T12:27:20Z</time>
      </trkpt>
      <trkpt lat="44.07431" lon="7.71876">
        <ele>1934.608</ele>
        <time>2018-07-01T12:27:21Z</time>
      </trkpt>
      <trkpt lat="44.07425" lon="7.71881">
        <ele>1932.761</ele>
        <time>2018-07-01T12:27:22Z</time>
      </trkpt>
      <trkpt lat="44.0742" lon="7.71884">
        <ele>1931.375</ele>
        <time>2018-07-01T12:27:23Z</time>
      </trkpt>
      <trkpt lat="44.07415" lon="7.71892">
        <ele>1930.591</ele>
        <time>2018-07-01T12:27:25Z</time>
      </trkpt>
      <trkpt lat="44.07416" lon="7.71898">
        <ele>1928.744</ele>
        <time>2018-07-01T12:27:27Z</time>
      </trkpt>
      <trkpt lat="44.0742" lon="7.71898">
        <ele>1925.826</ele>
        <time>2018-07-01T12:27:29Z</time>
      </trkpt>
      <trkpt lat="44.07429" lon="7.71895">
        <ele>1925.459</ele>
        <time>2018-07-01T12:27:31Z</time>
      </trkpt>
      <trkpt lat="44.07437" lon="7.7189">
        <ele>1925.414</ele>
        <time>2018-07-01T12:27:32Z</time>
      </trkpt>
      <trkpt lat="44.07445" lon="7.71887">
        <ele>1925.595</ele>
        <time>2018-07-01T12:27:33Z</time>
      </trkpt>
      <trkpt lat="44.07453" lon="7.71879">
        <ele>1924.198</ele>
        <time>2018-07-01T12:27:34Z</time>
      </trkpt>
      <trkpt lat="44.07461" lon="7.71874">
        <ele>1922.815</ele>
        <time>2018-07-01T12:27:35Z</time>
      </trkpt>
      <trkpt lat="44.0747" lon="7.7187">
        <ele>1921.126</ele>
        <time>2018-07-01T12:27:36Z</time>
      </trkpt>
      <trkpt lat="44.07479" lon="7.71865">
        <ele>1920.408</ele>
        <time>2018-07-01T12:27:37Z</time>
      </trkpt>
      <trkpt lat="44.07487" lon="7.71859">
        <ele>1921.891</ele>
        <time>2018-07-01T12:27:38Z</time>
      </trkpt>
      <trkpt lat="44.07497" lon="7.71853">
        <ele>1922.215</ele>
        <time>2018-07-01T12:27:39Z</time>
      </trkpt>
      <trkpt lat="44.07506" lon="7.71848">
        <ele>1920.531</ele>
        <time>2018-07-01T12:27:40Z</time>
      </trkpt>
      <trkpt lat="44.07514" lon="7.71843">
        <ele>1920.094</ele>
        <time>2018-07-01T12:27:41Z</time>
      </trkpt>
      <trkpt lat="44.07523" lon="7.71839">
        <ele>1919.596</ele>
        <time>2018-07-01T12:27:42Z</time>
      </trkpt>
      <trkpt lat="44.0753" lon="7.71836">
        <ele>1919.019</ele>
        <time>2018-07-01T12:27:43Z</time>
      </trkpt>
      <trkpt lat="44.07538" lon="7.71834">
        <ele>1918.294</ele>
        <time>2018-07-01T12:27:44Z</time>
      </trkpt>
      <trkpt lat="44.07549" lon="7.71834">
        <ele>1916.125</ele>
        <time>2018-07-01T12:27:45Z</time>
      </trkpt>
      <trkpt lat="44.07557" lon="7.71835">
        <ele>1915.974</ele>
        <time>2018-07-01T12:27:46Z</time>
      </trkpt>
      <trkpt lat="44.07565" lon="7.71838">
        <ele>1916.156</ele>
        <time>2018-07-01T12:27:47Z</time>
      </trkpt>
      <trkpt lat="44.07574" lon="7.7184">
        <ele>1916.121</ele>
        <time>2018-07-01T12:27:48Z</time>
      </trkpt>
      <trkpt lat="44.07583" lon="7.71843">
        <ele>1916.008</ele>
        <time>2018-07-01T12:27:49Z</time>
      </trkpt>
      <trkpt lat="44.0759" lon="7.71845">
        <ele>1913.189</ele>
        <time>2018-07-01T12:27:50Z</time>
      </trkpt>
      <trkpt lat="44.076" lon="7.71847">
        <ele>1912.173</ele>
        <time>2018-07-01T12:27:51Z</time>
      </trkpt>
      <trkpt lat="44.07608" lon="7.71849">
        <ele>1911.469</ele>
        <time>2018-07-01T12:27:52Z</time>
      </trkpt>
      <trkpt lat="44.07617" lon="7.71852">
        <ele>1910.492</ele>
        <time>2018-07-01T12:27:53Z</time>
      </trkpt>
      <trkpt lat="44.07624" lon="7.71854">
        <ele>1909.754</ele>
        <time>2018-07-01T12:27:54Z</time>
      </trkpt>
      <trkpt lat="44.07631" lon="7.71857">
        <ele>1908.017</ele>
        <time>2018-07-01T12:27:55Z</time>
      </trkpt>
      <trkpt lat="44.07638" lon="7.71858">
        <ele>1906.782</ele>
        <time>2018-07-01T12:27:56Z</time>
      </trkpt>
      <trkpt lat="44.07642" lon="7.71859">
        <ele>1905.093</ele>
        <time>2018-07-01T12:27:57Z</time>
      </trkpt>
      <trkpt lat="44.07647" lon="7.71859">
        <ele>1903.894</ele>
        <time>2018-07-01T12:27:58Z</time>
      </trkpt>
      <trkpt lat="44.07655" lon="7.71861">
        <ele>1903.557</ele>
        <time>2018-07-01T12:28:00Z</time>
      </trkpt>
      <trkpt lat="44.0766" lon="7.71867">
        <ele>1903.322</ele>
        <time>2018-07-01T12:28:02Z</time>
      </trkpt>
      <trkpt lat="44.07656" lon="7.71875">
        <ele>1902.408</ele>
        <time>2018-07-01T12:28:04Z</time>
      </trkpt>
      <trkpt lat="44.07647" lon="7.71881">
        <ele>1901.741</ele>
        <time>2018-07-01T12:28:06Z</time>
      </trkpt>
      <trkpt lat="44.07641" lon="7.71886">
        <ele>1902.385</ele>
        <time>2018-07-01T12:28:07Z</time>
      </trkpt>
      <trkpt lat="44.07634" lon="7.71892">
        <ele>1902.751</ele>
        <time>2018-07-01T12:28:08Z</time>
      </trkpt>
      <trkpt lat="44.07625" lon="7.71897">
        <ele>1901.274</ele>
        <time>2018-07-01T12:28:09Z</time>
      </trkpt>
      <trkpt lat="44.07616" lon="7.719">
        <ele>1901.476</ele>
        <time>2018-07-01T12:28:10Z</time>
      </trkpt>
      <trkpt lat="44.07609" lon="7.71903">
        <ele>1900.519</ele>
        <time>2018-07-01T12:28:11Z</time>
      </trkpt>
      <trkpt lat="44.07602" lon="7.71905">
        <ele>1898.664</ele>
        <time>2018-07-01T12:28:12Z</time>
      </trkpt>
      <trkpt lat="44.07595" lon="7.7191">
        <ele>1897.315</ele>
        <time>2018-07-01T12:28:13Z</time>
      </trkpt>
      <trkpt lat="44.07587" lon="7.71916">
        <ele>1896.862</ele>
        <time>2018-07-01T12:28:14Z</time>
      </trkpt>
      <trkpt lat="44.0758" lon="7.71921">
        <ele>1896.283</ele>
        <time>2018-07-01T12:28:15Z</time>
      </trkpt>
      <trkpt lat="44.07572" lon="7.71926">
        <ele>1894.911</ele>
        <time>2018-07-01T12:28:16Z</time>
      </trkpt>
      <trkpt lat="44.07566" lon="7.71932">
        <ele>1892.408</ele>
        <time>2018-07-01T12:28:17Z</time>
      </trkpt>
      <trkpt lat="44.0756" lon="7.71939">
        <ele>1891.618</ele>
        <time>2018-07-01T12:28:18Z</time>
      </trkpt>
      <trkpt lat="44.07553" lon="7.71948">
        <ele>1891.912</ele>
        <time>2018-07-01T12:28:19Z</time>
      </trkpt>
      <trkpt lat="44.07548" lon="7.71957">
        <ele>1891.458</ele>
        <time>2018-07-01T12:28:20Z</time>
      </trkpt>
      <trkpt lat="44.07544" lon="7.71966">
        <ele>1891.141</ele>
        <time>2018-07-01T12:28:21Z</time>
      </trkpt>
      <trkpt lat="44.0754" lon="7.71973">
        <ele>1890.793</ele>
        <time>2018-07-01T12:28:22Z</time>
      </trkpt>
      <trkpt lat="44.07536" lon="7.71979">
        <ele>1890.546</ele>
        <time>2018-07-01T12:28:23Z</time>
      </trkpt>
      <trkpt lat="44.07532" lon="7.71984">
        <ele>1890.631</ele>
        <time>2018-07-01T12:28:24Z</time>
      </trkpt>
      <trkpt lat="44.07528" lon="7.71992">
        <ele>1890.072</ele>
        <time>2018-07-01T12:28:26Z</time>
      </trkpt>
      <trkpt lat="44.07531" lon="7.71998">
        <ele>1889.244</ele>
        <time>2018-07-01T12:28:28Z</time>
      </trkpt>
      <trkpt lat="44.07541" lon="7.71999">
        <ele>1888.005</ele>
        <time>2018-07-01T12:28:30Z</time>
      </trkpt>
      <trkpt lat="44.07547" lon="7.71996">
        <ele>1887.715</ele>
        <time>2018-07-01T12:28:31Z</time>
      </trkpt>
      <trkpt lat="44.07554" lon="7.71991">
        <ele>1887.408</ele>
        <time>2018-07-01T12:28:32Z</time>
      </trkpt>
      <trkpt lat="44.07561" lon="7.71987">
        <ele>1886.536</ele>
        <time>2018-07-01T12:28:33Z</time>
      </trkpt>
      <trkpt lat="44.07568" lon="7.71985">
        <ele>1885.81</ele>
        <time>2018-07-01T12:28:34Z</time>
      </trkpt>
      <trkpt lat="44.07574" lon="7.71984">
        <ele>1885.986</ele>
        <time>2018-07-01T12:28:35Z</time>
      </trkpt>
      <trkpt lat="44.07582" lon="7.71985">
        <ele>1885.969</ele>
        <time>2018-07-01T12:28:36Z</time>
      </trkpt>
      <trkpt lat="44.07589" lon="7.71986">
        <ele>1885.761</ele>
        <time>2018-07-01T12:28:37Z</time>
      </trkpt>
      <trkpt lat="44.076" lon="7.71985">
        <ele>1884.644</ele>
        <time>2018-07-01T12:28:38Z</time>
      </trkpt>
      <trkpt lat="44.07609" lon="7.71984">
        <ele>1883.259</ele>
        <time>2018-07-01T12:28:39Z</time>
      </trkpt>
      <trkpt lat="44.07617" lon="7.71986">
        <ele>1882.79</ele>
        <time>2018-07-01T12:28:40Z</time>
      </trkpt>
      <trkpt lat="44.07626" lon="7.71987">
        <ele>1882.076</ele>
        <time>2018-07-01T12:28:41Z</time>
      </trkpt>
      <trkpt lat="44.07633" lon="7.71988">
        <ele>1880.79</ele>
        <time>2018-07-01T12:28:42Z</time>
      </trkpt>
      <trkpt lat="44.07639" lon="7.71989">
        <ele>1879.719</ele>
        <time>2018-07-01T12:28:43Z</time>
      </trkpt>
      <trkpt lat="44.07646" lon="7.71989">
        <ele>1879.008</ele>
        <time>2018-07-01T12:28:44Z</time>
      </trkpt>
      <trkpt lat="44.07651" lon="7.71989">
        <ele>1877.879</ele>
        <time>2018-07-01T12:28:45Z</time>
      </trkpt>
      <trkpt lat="44.07657" lon="7.7199">
        <ele>1877.263</ele>
        <time>2018-07-01T12:28:46Z</time>
      </trkpt>
      <trkpt lat="44.07661" lon="7.71989">
        <ele>1876.839</ele>
        <time>2018-07-01T12:28:47Z</time>
      </trkpt>
      <trkpt lat="44.07666" lon="7.71995">
        <ele>1874.122</ele>
        <time>2018-07-01T12:28:49Z</time>
      </trkpt>
      <trkpt lat="44.07667" lon="7.72003">
        <ele>1873.164</ele>
        <time>2018-07-01T12:28:51Z</time>
      </trkpt>
      <trkpt lat="44.07661" lon="7.72007">
        <ele>1871.977</ele>
        <time>2018-07-01T12:28:52Z</time>
      </trkpt>
      <trkpt lat="44.07655" lon="7.72011">
        <ele>1871.642</ele>
        <time>2018-07-01T12:28:53Z</time>
      </trkpt>
      <trkpt lat="44.07649" lon="7.72014">
        <ele>1870.493</ele>
        <time>2018-07-01T12:28:54Z</time>
      </trkpt>
      <trkpt lat="44.07643" lon="7.72017">
        <ele>1870.189</ele>
        <time>2018-07-01T12:28:55Z</time>
      </trkpt>
      <trkpt lat="44.07633" lon="7.72022">
        <ele>1869.806</ele>
        <time>2018-07-01T12:28:56Z</time>
      </trkpt>
      <trkpt lat="44.07626" lon="7.72025">
        <ele>1870.126</ele>
        <time>2018-07-01T12:28:57Z</time>
      </trkpt>
      <trkpt lat="44.07619" lon="7.72028">
        <ele>1869.208</ele>
        <time>2018-07-01T12:28:58Z</time>
      </trkpt>
      <trkpt lat="44.07611" lon="7.72033">
        <ele>1867.71</ele>
        <time>2018-07-01T12:28:59Z</time>
      </trkpt>
      <trkpt lat="44.07605" lon="7.72036">
        <ele>1866.894</ele>
        <time>2018-07-01T12:29:00Z</time>
      </trkpt>
      <trkpt lat="44.07598" lon="7.72041">
        <ele>1865.71</ele>
        <time>2018-07-01T12:29:01Z</time>
      </trkpt>
      <trkpt lat="44.07592" lon="7.72048">
        <ele>1864.543</ele>
        <time>2018-07-01T12:29:02Z</time>
      </trkpt>
      <trkpt lat="44.07586" lon="7.72055">
        <ele>1862.835</ele>
        <time>2018-07-01T12:29:03Z</time>
      </trkpt>
      <trkpt lat="44.07581" lon="7.72063">
        <ele>1862.128</ele>
        <time>2018-07-01T12:29:04Z</time>
      </trkpt>
      <trkpt lat="44.07578" lon="7.72073">
        <ele>1860.863</ele>
        <time>2018-07-01T12:29:05Z</time>
      </trkpt>
      <trkpt lat="44.07574" lon="7.7208">
        <ele>1859.894</ele>
        <time>2018-07-01T12:29:06Z</time>
      </trkpt>
      <trkpt lat="44.07572" lon="7.7209">
        <ele>1859.698</ele>
        <time>2018-07-01T12:29:07Z</time>
      </trkpt>
      <trkpt lat="44.0757" lon="7.72098">
        <ele>1858.415</ele>
        <time>2018-07-01T12:29:08Z</time>
      </trkpt>
      <trkpt lat="44.07565" lon="7.72106">
        <ele>1858.426</ele>
        <time>2018-07-01T12:29:09Z</time>
      </trkpt>
      <trkpt lat="44.07562" lon="7.72113">
        <ele>1858.608</ele>
        <time>2018-07-01T12:29:10Z</time>
      </trkpt>
      <trkpt lat="44.0756" lon="7.72119">
        <ele>1858.611</ele>
        <time>2018-07-01T12:29:11Z</time>
      </trkpt>
      <trkpt lat="44.07554" lon="7.72121">
        <ele>1856.825</ele>
        <time>2018-07-01T12:29:13Z</time>
      </trkpt>
      <trkpt lat="44.07549" lon="7.72126">
        <ele>1856.091</ele>
        <time>2018-07-01T12:29:15Z</time>
      </trkpt>
      <trkpt lat="44.07549" lon="7.72133">
        <ele>1856.044</ele>
        <time>2018-07-01T12:29:16Z</time>
      </trkpt>
      <trkpt lat="44.07555" lon="7.7214">
        <ele>1854.766</ele>
        <time>2018-07-01T12:29:18Z</time>
      </trkpt>
      <trkpt lat="44.07563" lon="7.72143">
        <ele>1854.319</ele>
        <time>2018-07-01T12:29:20Z</time>
      </trkpt>
      <trkpt lat="44.0757" lon="7.72139">
        <ele>1852.894</ele>
        <time>2018-07-01T12:29:21Z</time>
      </trkpt>
      <trkpt lat="44.07576" lon="7.72136">
        <ele>1852.785</ele>
        <time>2018-07-01T12:29:22Z</time>
      </trkpt>
      <trkpt lat="44.07582" lon="7.72132">
        <ele>1853.393</ele>
        <time>2018-07-01T12:29:23Z</time>
      </trkpt>
      <trkpt lat="44.07588" lon="7.72128">
        <ele>1853.365</ele>
        <time>2018-07-01T12:29:24Z</time>
      </trkpt>
      <trkpt lat="44.07596" lon="7.72123">
        <ele>1850.421</ele>
        <time>2018-07-01T12:29:25Z</time>
      </trkpt>
      <trkpt lat="44.07603" lon="7.72117">
        <ele>1849.308</ele>
        <time>2018-07-01T12:29:26Z</time>
      </trkpt>
      <trkpt lat="44.07609" lon="7.72113">
        <ele>1847.921</ele>
        <time>2018-07-01T12:29:27Z</time>
      </trkpt>
      <trkpt lat="44.07616" lon="7.72108">
        <ele>1848.795</ele>
        <time>2018-07-01T12:29:28Z</time>
      </trkpt>
      <trkpt lat="44.07621" lon="7.72104">
        <ele>1848.721</ele>
        <time>2018-07-01T12:29:29Z</time>
      </trkpt>
      <trkpt lat="44.07626" lon="7.72103">
        <ele>1847.164</ele>
        <time>2018-07-01T12:29:30Z</time>
      </trkpt>
      <trkpt lat="44.07633" lon="7.72101">
        <ele>1845.336</ele>
        <time>2018-07-01T12:29:32Z</time>
      </trkpt>
      <trkpt lat="44.07641" lon="7.72099">
        <ele>1844.999</ele>
        <time>2018-07-01T12:29:34Z</time>
      </trkpt>
      <trkpt lat="44.07648" lon="7.72096">
        <ele>1845.344</ele>
        <time>2018-07-01T12:29:36Z</time>
      </trkpt>
      <trkpt lat="44.07652" lon="7.72094">
        <ele>1845.025</ele>
        <time>2018-07-01T12:29:37Z</time>
      </trkpt>
      <trkpt lat="44.07657" lon="7.72092">
        <ele>1844.543</ele>
        <time>2018-07-01T12:29:38Z</time>
      </trkpt>
      <trkpt lat="44.07662" lon="7.7209">
        <ele>1844.564</ele>
        <time>2018-07-01T12:29:39Z</time>
      </trkpt>
      <trkpt lat="44.07668" lon="7.72089">
        <ele>1844.31</ele>
        <time>2018-07-01T12:29:40Z</time>
      </trkpt>
      <trkpt lat="44.07676" lon="7.72089">
        <ele>1843.108</ele>
        <time>2018-07-01T12:29:42Z</time>
      </trkpt>
      <trkpt lat="44.07682" lon="7.7209">
        <ele>1843.876</ele>
        <time>2018-07-01T12:29:43Z</time>
      </trkpt>
      <trkpt lat="44.07687" lon="7.72091">
        <ele>1844.09</ele>
        <time>2018-07-01T12:29:44Z</time>
      </trkpt>
      <trkpt lat="44.07694" lon="7.72099">
        <ele>1843.916</ele>
        <time>2018-07-01T12:29:46Z</time>
      </trkpt>
      <trkpt lat="44.07697" lon="7.72105">
        <ele>1843.969</ele>
        <time>2018-07-01T12:29:47Z</time>
      </trkpt>
      <trkpt lat="44.077" lon="7.72113">
        <ele>1843.811</ele>
        <time>2018-07-01T12:29:48Z</time>
      </trkpt>
      <trkpt lat="44.077" lon="7.7212">
        <ele>1843.624</ele>
        <time>2018-07-01T12:29:49Z</time>
      </trkpt>
      <trkpt lat="44.07701" lon="7.7213">
        <ele>1843.399</ele>
        <time>2018-07-01T12:29:50Z</time>
      </trkpt>
      <trkpt lat="44.07702" lon="7.7214">
        <ele>1843.48</ele>
        <time>2018-07-01T12:29:51Z</time>
      </trkpt>
      <trkpt lat="44.07702" lon="7.72148">
        <ele>1842.725</ele>
        <time>2018-07-01T12:29:52Z</time>
      </trkpt>
      <trkpt lat="44.07703" lon="7.72156">
        <ele>1842.226</ele>
        <time>2018-07-01T12:29:53Z</time>
      </trkpt>
      <trkpt lat="44.07706" lon="7.72163">
        <ele>1842.108</ele>
        <time>2018-07-01T12:29:54Z</time>
      </trkpt>
      <trkpt lat="44.07709" lon="7.72169">
        <ele>1841.808</ele>
        <time>2018-07-01T12:29:55Z</time>
      </trkpt>
      <trkpt lat="44.07713" lon="7.72176">
        <ele>1842.564</ele>
        <time>2018-07-01T12:29:56Z</time>
      </trkpt>
      <trkpt lat="44.07719" lon="7.72175">
        <ele>1841.888</ele>
        <time>2018-07-01T12:29:57Z</time>
      </trkpt>
      <trkpt lat="44.07725" lon="7.72175">
        <ele>1841.554</ele>
        <time>2018-07-01T12:29:58Z</time>
      </trkpt>
      <trkpt lat="44.07732" lon="7.72176">
        <ele>1841.197</ele>
        <time>2018-07-01T12:29:59Z</time>
      </trkpt>
      <trkpt lat="44.07739" lon="7.72178">
        <ele>1841.259</ele>
        <time>2018-07-01T12:30:00Z</time>
      </trkpt>
      <trkpt lat="44.07745" lon="7.7218">
        <ele>1841.322</ele>
        <time>2018-07-01T12:30:01Z</time>
      </trkpt>
      <trkpt lat="44.0775" lon="7.72182">
        <ele>1841.887</ele>
        <time>2018-07-01T12:30:02Z</time>
      </trkpt>
      <trkpt lat="44.07754" lon="7.72186">
        <ele>1842.568</ele>
        <time>2018-07-01T12:30:03Z</time>
      </trkpt>
      <trkpt lat="44.07759" lon="7.7219">
        <ele>1842.129</ele>
        <time>2018-07-01T12:30:04Z</time>
      </trkpt>
      <trkpt lat="44.07764" lon="7.72197">
        <ele>1842.2</ele>
        <time>2018-07-01T12:30:05Z</time>
      </trkpt>
      <trkpt lat="44.07766" lon="7.72203">
        <ele>1842.02</ele>
        <time>2018-07-01T12:30:06Z</time>
      </trkpt>
      <trkpt lat="44.07769" lon="7.72208">
        <ele>1841.108</ele>
        <time>2018-07-01T12:30:07Z</time>
      </trkpt>
      <trkpt lat="44.07774" lon="7.72212">
        <ele>1840.744</ele>
        <time>2018-07-01T12:30:08Z</time>
      </trkpt>
      <trkpt lat="44.0778" lon="7.72214">
        <ele>1841.628</ele>
        <time>2018-07-01T12:30:09Z</time>
      </trkpt>
      <trkpt lat="44.07786" lon="7.72214">
        <ele>1842.064</ele>
        <time>2018-07-01T12:30:10Z</time>
      </trkpt>
      <trkpt lat="44.07797" lon="7.72214">
        <ele>1841.737</ele>
        <time>2018-07-01T12:30:12Z</time>
      </trkpt>
      <trkpt lat="44.07804" lon="7.72216">
        <ele>1841.679</ele>
        <time>2018-07-01T12:30:13Z</time>
      </trkpt>
      <trkpt lat="44.07811" lon="7.72219">
        <ele>1842.472</ele>
        <time>2018-07-01T12:30:14Z</time>
      </trkpt>
      <trkpt lat="44.07818" lon="7.72224">
        <ele>1842.527</ele>
        <time>2018-07-01T12:30:15Z</time>
      </trkpt>
      <trkpt lat="44.07825" lon="7.7223">
        <ele>1844.298</ele>
        <time>2018-07-01T12:30:16Z</time>
      </trkpt>
      <trkpt lat="44.07831" lon="7.72236">
        <ele>1843.927</ele>
        <time>2018-07-01T12:30:17Z</time>
      </trkpt>
      <trkpt lat="44.07838" lon="7.72241">
        <ele>1844.168</ele>
        <time>2018-07-01T12:30:18Z</time>
      </trkpt>
      <trkpt lat="44.07844" lon="7.72247">
        <ele>1844.914</ele>
        <time>2018-07-01T12:30:19Z</time>
      </trkpt>
      <trkpt lat="44.0785" lon="7.72252">
        <ele>1844.408</ele>
        <time>2018-07-01T12:30:20Z</time>
      </trkpt>
      <trkpt lat="44.07855" lon="7.72258">
        <ele>1844.864</ele>
        <time>2018-07-01T12:30:21Z</time>
      </trkpt>
      <trkpt lat="44.07859" lon="7.72263">
        <ele>1844.648</ele>
        <time>2018-07-01T12:30:22Z</time>
      </trkpt>
      <trkpt lat="44.07863" lon="7.7227">
        <ele>1844.744</ele>
        <time>2018-07-01T12:30:23Z</time>
      </trkpt>
      <trkpt lat="44.07867" lon="7.72278">
        <ele>1844.947</ele>
        <time>2018-07-01T12:30:24Z</time>
      </trkpt>
      <trkpt lat="44.07867" lon="7.72286">
        <ele>1845.579</ele>
        <time>2018-07-01T12:30:25Z</time>
      </trkpt>
      <trkpt lat="44.07866" lon="7.72294">
        <ele>1844.332</ele>
        <time>2018-07-01T12:30:26Z</time>
      </trkpt>
      <trkpt lat="44.07865" lon="7.72303">
        <ele>1844.577</ele>
        <time>2018-07-01T12:30:27Z</time>
      </trkpt>
      <trkpt lat="44.07866" lon="7.72313">
        <ele>1844.518</ele>
        <time>2018-07-01T12:30:28Z</time>
      </trkpt>
      <trkpt lat="44.07869" lon="7.72324">
        <ele>1843.986</ele>
        <time>2018-07-01T12:30:29Z</time>
      </trkpt>
      <trkpt lat="44.07871" lon="7.72333">
        <ele>1843.66</ele>
        <time>2018-07-01T12:30:30Z</time>
      </trkpt>
      <trkpt lat="44.07874" lon="7.72342">
        <ele>1843.626</ele>
        <time>2018-07-01T12:30:31Z</time>
      </trkpt>
      <trkpt lat="44.07875" lon="7.72352">
        <ele>1843.208</ele>
        <time>2018-07-01T12:30:32Z</time>
      </trkpt>
      <trkpt lat="44.07878" lon="7.72363">
        <ele>1843.48</ele>
        <time>2018-07-01T12:30:33Z</time>
      </trkpt>
      <trkpt lat="44.0788" lon="7.72373">
        <ele>1842.934</ele>
        <time>2018-07-01T12:30:34Z</time>
      </trkpt>
      <trkpt lat="44.07882" lon="7.72382">
        <ele>1842.91</ele>
        <time>2018-07-01T12:30:35Z</time>
      </trkpt>
      <trkpt lat="44.07885" lon="7.72392">
        <ele>1841.963</ele>
        <time>2018-07-01T12:30:36Z</time>
      </trkpt>
      <trkpt lat="44.07888" lon="7.72404">
        <ele>1842.115</ele>
        <time>2018-07-01T12:30:37Z</time>
      </trkpt>
      <trkpt lat="44.07891" lon="7.72411">
        <ele>1841.478</ele>
        <time>2018-07-01T12:30:38Z</time>
      </trkpt>
      <trkpt lat="44.07895" lon="7.72423">
        <ele>1841.443</ele>
        <time>2018-07-01T12:30:39Z</time>
      </trkpt>
      <trkpt lat="44.07896" lon="7.72433">
        <ele>1841.254</ele>
        <time>2018-07-01T12:30:40Z</time>
      </trkpt>
      <trkpt lat="44.07899" lon="7.72443">
        <ele>1840.097</ele>
        <time>2018-07-01T12:30:41Z</time>
      </trkpt>
      <trkpt lat="44.07903" lon="7.72455">
        <ele>1840.223</ele>
        <time>2018-07-01T12:30:42Z</time>
      </trkpt>
      <trkpt lat="44.07906" lon="7.72466">
        <ele>1839.525</ele>
        <time>2018-07-01T12:30:43Z</time>
      </trkpt>
      <trkpt lat="44.0791" lon="7.72477">
        <ele>1840.408</ele>
        <time>2018-07-01T12:30:44Z</time>
      </trkpt>
      <trkpt lat="44.07914" lon="7.72489">
        <ele>1840.241</ele>
        <time>2018-07-01T12:30:45Z</time>
      </trkpt>
      <trkpt lat="44.07917" lon="7.72499">
        <ele>1839.885</ele>
        <time>2018-07-01T12:30:46Z</time>
      </trkpt>
      <trkpt lat="44.0792" lon="7.72509">
        <ele>1839.341</ele>
        <time>2018-07-01T12:30:47Z</time>
      </trkpt>
      <trkpt lat="44.07924" lon="7.72519">
        <ele>1839.394</ele>
        <time>2018-07-01T12:30:48Z</time>
      </trkpt>
      <trkpt lat="44.07927" lon="7.72527">
        <ele>1838.756</ele>
        <time>2018-07-01T12:30:49Z</time>
      </trkpt>
      <trkpt lat="44.0793" lon="7.72536">
        <ele>1839.239</ele>
        <time>2018-07-01T12:30:50Z</time>
      </trkpt>
      <trkpt lat="44.07932" lon="7.72544">
        <ele>1838.924</ele>
        <time>2018-07-01T12:30:51Z</time>
      </trkpt>
      <trkpt lat="44.07934" lon="7.72552">
        <ele>1838.835</ele>
        <time>2018-07-01T12:30:52Z</time>
      </trkpt>
      <trkpt lat="44.07937" lon="7.7256">
        <ele>1838.328</ele>
        <time>2018-07-01T12:30:53Z</time>
      </trkpt>
      <trkpt lat="44.07941" lon="7.72568">
        <ele>1838.689</ele>
        <time>2018-07-01T12:30:54Z</time>
      </trkpt>
      <trkpt lat="44.07945" lon="7.72574">
        <ele>1838.417</ele>
        <time>2018-07-01T12:30:55Z</time>
      </trkpt>
      <trkpt lat="44.07949" lon="7.72579">
        <ele>1837.908</ele>
        <time>2018-07-01T12:30:56Z</time>
      </trkpt>
      <trkpt lat="44.07953" lon="7.72583">
        <ele>1837.364</ele>
        <time>2018-07-01T12:30:57Z</time>
      </trkpt>
      <trkpt lat="44.07958" lon="7.72587">
        <ele>1837.118</ele>
        <time>2018-07-01T12:30:58Z</time>
      </trkpt>
      <trkpt lat="44.07962" lon="7.72592">
        <ele>1837.134</ele>
        <time>2018-07-01T12:30:59Z</time>
      </trkpt>
      <trkpt lat="44.07966" lon="7.72598">
        <ele>1837.117</ele>
        <time>2018-07-01T12:31:00Z</time>
      </trkpt>
      <trkpt lat="44.07968" lon="7.72605">
        <ele>1837.129</ele>
        <time>2018-07-01T12:31:01Z</time>
      </trkpt>
      <trkpt lat="44.0797" lon="7.72613">
        <ele>1837.682</ele>
        <time>2018-07-01T12:31:02Z</time>
      </trkpt>
      <trkpt lat="44.07971" lon="7.72622">
        <ele>1837.437</ele>
        <time>2018-07-01T12:31:03Z</time>
      </trkpt>
      <trkpt lat="44.07971" lon="7.72631">
        <ele>1837.798</ele>
        <time>2018-07-01T12:31:04Z</time>
      </trkpt>
      <trkpt lat="44.07971" lon="7.72639">
        <ele>1837.633</ele>
        <time>2018-07-01T12:31:05Z</time>
      </trkpt>
      <trkpt lat="44.07971" lon="7.72649">
        <ele>1837.623</ele>
        <time>2018-07-01T12:31:06Z</time>
      </trkpt>
      <trkpt lat="44.07971" lon="7.72657">
        <ele>1837.915</ele>
        <time>2018-07-01T12:31:07Z</time>
      </trkpt>
      <trkpt lat="44.0797" lon="7.72666">
        <ele>1837.908</ele>
        <time>2018-07-01T12:31:08Z</time>
      </trkpt>
      <trkpt lat="44.07971" lon="7.72675">
        <ele>1837.825</ele>
        <time>2018-07-01T12:31:09Z</time>
      </trkpt>
      <trkpt lat="44.07971" lon="7.72686">
        <ele>1837.519</ele>
        <time>2018-07-01T12:31:10Z</time>
      </trkpt>
      <trkpt lat="44.07972" lon="7.72697">
        <ele>1837.765</ele>
        <time>2018-07-01T12:31:11Z</time>
      </trkpt>
      <trkpt lat="44.07974" lon="7.72707">
        <ele>1837.158</ele>
        <time>2018-07-01T12:31:12Z</time>
      </trkpt>
      <trkpt lat="44.07975" lon="7.72716">
        <ele>1837.32</ele>
        <time>2018-07-01T12:31:13Z</time>
      </trkpt>
      <trkpt lat="44.07977" lon="7.72726">
        <ele>1837.293</ele>
        <time>2018-07-01T12:31:14Z</time>
      </trkpt>
      <trkpt lat="44.07978" lon="7.72736">
        <ele>1837.018</ele>
        <time>2018-07-01T12:31:15Z</time>
      </trkpt>
      <trkpt lat="44.07981" lon="7.72746">
        <ele>1837.029</ele>
        <time>2018-07-01T12:31:16Z</time>
      </trkpt>
      <trkpt lat="44.07983" lon="7.72754">
        <ele>1836.874</ele>
        <time>2018-07-01T12:31:17Z</time>
      </trkpt>
      <trkpt lat="44.07986" lon="7.72762">
        <ele>1836.956</ele>
        <time>2018-07-01T12:31:18Z</time>
      </trkpt>
      <trkpt lat="44.0799" lon="7.72768">
        <ele>1836.521</ele>
        <time>2018-07-01T12:31:19Z</time>
      </trkpt>
      <trkpt lat="44.07995" lon="7.72774">
        <ele>1836.308</ele>
        <time>2018-07-01T12:31:20Z</time>
      </trkpt>
      <trkpt lat="44.08" lon="7.72776">
        <ele>1836.289</ele>
        <time>2018-07-01T12:31:21Z</time>
      </trkpt>
      <trkpt lat="44.08007" lon="7.72777">
        <ele>1835.823</ele>
        <time>2018-07-01T12:31:22Z</time>
      </trkpt>
      <trkpt lat="44.08015" lon="7.72781">
        <ele>1836.089</ele>
        <time>2018-07-01T12:31:23Z</time>
      </trkpt>
      <trkpt lat="44.08022" lon="7.72784">
        <ele>1836.342</ele>
        <time>2018-07-01T12:31:24Z</time>
      </trkpt>
      <trkpt lat="44.0803" lon="7.72787">
        <ele>1836.084</ele>
        <time>2018-07-01T12:31:25Z</time>
      </trkpt>
      <trkpt lat="44.08036" lon="7.72789">
        <ele>1835.627</ele>
        <time>2018-07-01T12:31:26Z</time>
      </trkpt>
      <trkpt lat="44.08044" lon="7.7279">
        <ele>1835.542</ele>
        <time>2018-07-01T12:31:27Z</time>
      </trkpt>
      <trkpt lat="44.08051" lon="7.72792">
        <ele>1835.393</ele>
        <time>2018-07-01T12:31:28Z</time>
      </trkpt>
      <trkpt lat="44.08059" lon="7.72795">
        <ele>1835.091</ele>
        <time>2018-07-01T12:31:29Z</time>
      </trkpt>
      <trkpt lat="44.08066" lon="7.72799">
        <ele>1835.281</ele>
        <time>2018-07-01T12:31:30Z</time>
      </trkpt>
      <trkpt lat="44.08073" lon="7.72805">
        <ele>1835.319</ele>
        <time>2018-07-01T12:31:31Z</time>
      </trkpt>
      <trkpt lat="44.08079" lon="7.7281">
        <ele>1835.508</ele>
        <time>2018-07-01T12:31:32Z</time>
      </trkpt>
      <trkpt lat="44.08085" lon="7.72816">
        <ele>1835.391</ele>
        <time>2018-07-01T12:31:33Z</time>
      </trkpt>
      <trkpt lat="44.08092" lon="7.72822">
        <ele>1835.275</ele>
        <time>2018-07-01T12:31:34Z</time>
      </trkpt>
      <trkpt lat="44.081" lon="7.72828">
        <ele>1835.081</ele>
        <time>2018-07-01T12:31:35Z</time>
      </trkpt>
      <trkpt lat="44.08108" lon="7.72835">
        <ele>1835.294</ele>
        <time>2018-07-01T12:31:36Z</time>
      </trkpt>
      <trkpt lat="44.08115" lon="7.72842">
        <ele>1834.946</ele>
        <time>2018-07-01T12:31:37Z</time>
      </trkpt>
      <trkpt lat="44.08123" lon="7.72849">
        <ele>1834.979</ele>
        <time>2018-07-01T12:31:38Z</time>
      </trkpt>
      <trkpt lat="44.0813" lon="7.72856">
        <ele>1835.224</ele>
        <time>2018-07-01T12:31:39Z</time>
      </trkpt>
      <trkpt lat="44.08137" lon="7.72864">
        <ele>1835.295</ele>
        <time>2018-07-01T12:31:40Z</time>
      </trkpt>
      <trkpt lat="44.08144" lon="7.72872">
        <ele>1835.143</ele>
        <time>2018-07-01T12:31:41Z</time>
      </trkpt>
      <trkpt lat="44.0815" lon="7.72879">
        <ele>1835.264</ele>
        <time>2018-07-01T12:31:42Z</time>
      </trkpt>
      <trkpt lat="44.08156" lon="7.72886">
        <ele>1835.11</ele>
        <time>2018-07-01T12:31:43Z</time>
      </trkpt>
      <trkpt lat="44.08162" lon="7.72892">
        <ele>1835.108</ele>
        <time>2018-07-01T12:31:44Z</time>
      </trkpt>
      <trkpt lat="44.08166" lon="7.729">
        <ele>1835.296</ele>
        <time>2018-07-01T12:31:45Z</time>
      </trkpt>
      <trkpt lat="44.0817" lon="7.72908">
        <ele>1835.42</ele>
        <time>2018-07-01T12:31:46Z</time>
      </trkpt>
      <trkpt lat="44.08173" lon="7.72917">
        <ele>1835.516</ele>
        <time>2018-07-01T12:31:47Z</time>
      </trkpt>
      <trkpt lat="44.08175" lon="7.72927">
        <ele>1835.269</ele>
        <time>2018-07-01T12:31:48Z</time>
      </trkpt>
      <trkpt lat="44.08179" lon="7.72937">
        <ele>1835.061</ele>
        <time>2018-07-01T12:31:49Z</time>
      </trkpt>
      <trkpt lat="44.08184" lon="7.72946">
        <ele>1835.024</ele>
        <time>2018-07-01T12:31:50Z</time>
      </trkpt>
      <trkpt lat="44.08188" lon="7.72955">
        <ele>1835.049</ele>
        <time>2018-07-01T12:31:51Z</time>
      </trkpt>
      <trkpt lat="44.08192" lon="7.72963">
        <ele>1834.95</ele>
        <time>2018-07-01T12:31:52Z</time>
      </trkpt>
      <trkpt lat="44.08198" lon="7.72971">
        <ele>1834.836</ele>
        <time>2018-07-01T12:31:53Z</time>
      </trkpt>
      <trkpt lat="44.08203" lon="7.72981">
        <ele>1834.617</ele>
        <time>2018-07-01T12:31:54Z</time>
      </trkpt>
      <trkpt lat="44.08209" lon="7.7299">
        <ele>1834.418</ele>
        <time>2018-07-01T12:31:55Z</time>
      </trkpt>
      <trkpt lat="44.08214" lon="7.73">
        <ele>1834.408</ele>
        <time>2018-07-01T12:31:56Z</time>
      </trkpt>
      <trkpt lat="44.0822" lon="7.7301">
        <ele>1834.325</ele>
        <time>2018-07-01T12:31:57Z</time>
      </trkpt>
      <trkpt lat="44.08224" lon="7.73021">
        <ele>1834.479</ele>
        <time>2018-07-01T12:31:58Z</time>
      </trkpt>
      <trkpt lat="44.08227" lon="7.73033">
        <ele>1834.465</ele>
        <time>2018-07-01T12:31:59Z</time>
      </trkpt>
      <trkpt lat="44.08231" lon="7.73044">
        <ele>1834.548</ele>
        <time>2018-07-01T12:32:00Z</time>
      </trkpt>
      <trkpt lat="44.08234" lon="7.73055">
        <ele>1834.34</ele>
        <time>2018-07-01T12:32:01Z</time>
      </trkpt>
      <trkpt lat="44.08238" lon="7.73065">
        <ele>1834.183</ele>
        <time>2018-07-01T12:32:02Z</time>
      </trkpt>
      <trkpt lat="44.08242" lon="7.73076">
        <ele>1833.948</ele>
        <time>2018-07-01T12:32:03Z</time>
      </trkpt>
      <trkpt lat="44.08247" lon="7.73085">
        <ele>1833.819</ele>
        <time>2018-07-01T12:32:04Z</time>
      </trkpt>
      <trkpt lat="44.08252" lon="7.73096">
        <ele>1833.956</ele>
        <time>2018-07-01T12:32:05Z</time>
      </trkpt>
      <trkpt lat="44.08258" lon="7.73106">
        <ele>1833.959</ele>
        <time>2018-07-01T12:32:06Z</time>
      </trkpt>
      <trkpt lat="44.08264" lon="7.73114">
        <ele>1834.114</ele>
        <time>2018-07-01T12:32:07Z</time>
      </trkpt>
      <trkpt lat="44.08271" lon="7.73122">
        <ele>1834.608</ele>
        <time>2018-07-01T12:32:08Z</time>
      </trkpt>
      <trkpt lat="44.08278" lon="7.73129">
        <ele>1834.187</ele>
        <time>2018-07-01T12:32:09Z</time>
      </trkpt>
      <trkpt lat="44.08284" lon="7.73138">
        <ele>1833.891</ele>
        <time>2018-07-01T12:32:10Z</time>
      </trkpt>
      <trkpt lat="44.08288" lon="7.73148">
        <ele>1833.167</ele>
        <time>2018-07-01T12:32:11Z</time>
      </trkpt>
      <trkpt lat="44.08295" lon="7.73158">
        <ele>1833.02</ele>
        <time>2018-07-01T12:32:12Z</time>
      </trkpt>
      <trkpt lat="44.08301" lon="7.7317">
        <ele>1833.272</ele>
        <time>2018-07-01T12:32:13Z</time>
      </trkpt>
      <trkpt lat="44.08308" lon="7.73182">
        <ele>1832.455</ele>
        <time>2018-07-01T12:32:14Z</time>
      </trkpt>
      <trkpt lat="44.08314" lon="7.73195">
        <ele>1832.24</ele>
        <time>2018-07-01T12:32:15Z</time>
      </trkpt>
      <trkpt lat="44.08318" lon="7.73207">
        <ele>1831.671</ele>
        <time>2018-07-01T12:32:16Z</time>
      </trkpt>
      <trkpt lat="44.08323" lon="7.73218">
        <ele>1831.984</ele>
        <time>2018-07-01T12:32:17Z</time>
      </trkpt>
      <trkpt lat="44.08326" lon="7.73229">
        <ele>1831.307</ele>
        <time>2018-07-01T12:32:18Z</time>
      </trkpt>
      <trkpt lat="44.08328" lon="7.73241">
        <ele>1831.417</ele>
        <time>2018-07-01T12:32:19Z</time>
      </trkpt>
      <trkpt lat="44.08331" lon="7.73254">
        <ele>1831.508</ele>
        <time>2018-07-01T12:32:20Z</time>
      </trkpt>
      <trkpt lat="44.08334" lon="7.73264">
        <ele>1831.74</ele>
        <time>2018-07-01T12:32:21Z</time>
      </trkpt>
      <trkpt lat="44.08337" lon="7.73273">
        <ele>1831.444</ele>
        <time>2018-07-01T12:32:22Z</time>
      </trkpt>
      <trkpt lat="44.0834" lon="7.7328">
        <ele>1830.82</ele>
        <time>2018-07-01T12:32:23Z</time>
      </trkpt>
      <trkpt lat="44.08343" lon="7.73286">
        <ele>1830.823</ele>
        <time>2018-07-01T12:32:24Z</time>
      </trkpt>
      <trkpt lat="44.08346" lon="7.73291">
        <ele>1830.915</ele>
        <time>2018-07-01T12:32:25Z</time>
      </trkpt>
      <trkpt lat="44.08351" lon="7.73295">
        <ele>1830.128</ele>
        <time>2018-07-01T12:32:27Z</time>
      </trkpt>
      <trkpt lat="44.08358" lon="7.73289">
        <ele>1829.453</ele>
        <time>2018-07-01T12:32:28Z</time>
      </trkpt>
      <trkpt lat="44.08364" lon="7.73285">
        <ele>1830.054</ele>
        <time>2018-07-01T12:32:29Z</time>
      </trkpt>
      <trkpt lat="44.08366" lon="7.73279">
        <ele>1828.782</ele>
        <time>2018-07-01T12:32:30Z</time>
      </trkpt>
      <trkpt lat="44.08374" lon="7.73268">
        <ele>1828.743</ele>
        <time>2018-07-01T12:32:31Z</time>
      </trkpt>
      <trkpt lat="44.08383" lon="7.73253">
        <ele>1828.817</ele>
        <time>2018-07-01T12:32:32Z</time>
      </trkpt>
      <trkpt lat="44.08389" lon="7.73241">
        <ele>1828.408</ele>
        <time>2018-07-01T12:32:33Z</time>
      </trkpt>
      <trkpt lat="44.08397" lon="7.73231">
        <ele>1828.45</ele>
        <time>2018-07-01T12:32:34Z</time>
      </trkpt>
      <trkpt lat="44.08407" lon="7.73221">
        <ele>1828.734</ele>
        <time>2018-07-01T12:32:35Z</time>
      </trkpt>
      <trkpt lat="44.08416" lon="7.73212">
        <ele>1830.63</ele>
        <time>2018-07-01T12:32:36Z</time>
      </trkpt>
      <trkpt lat="44.08421" lon="7.73203">
        <ele>1831.733</ele>
        <time>2018-07-01T12:32:37Z</time>
      </trkpt>
      <trkpt lat="44.08431" lon="7.73194">
        <ele>1831.715</ele>
        <time>2018-07-01T12:32:38Z</time>
      </trkpt>
      <trkpt lat="44.08443" lon="7.73185">
        <ele>1832.298</ele>
        <time>2018-07-01T12:32:39Z</time>
      </trkpt>
      <trkpt lat="44.08452" lon="7.73175">
        <ele>1831.563</ele>
        <time>2018-07-01T12:32:40Z</time>
      </trkpt>
      <trkpt lat="44.08461" lon="7.73165">
        <ele>1831.834</ele>
        <time>2018-07-01T12:32:41Z</time>
      </trkpt>
      <trkpt lat="44.08466" lon="7.73157">
        <ele>1830.717</ele>
        <time>2018-07-01T12:32:42Z</time>
      </trkpt>
      <trkpt lat="44.08471" lon="7.73147">
        <ele>1831.087</ele>
        <time>2018-07-01T12:32:43Z</time>
      </trkpt>
      <trkpt lat="44.08476" lon="7.73139">
        <ele>1830.615</ele>
        <time>2018-07-01T12:32:44Z</time>
      </trkpt>
      <trkpt lat="44.08483" lon="7.73129">
        <ele>1830.508</ele>
        <time>2018-07-01T12:32:45Z</time>
      </trkpt>
      <trkpt lat="44.08489" lon="7.73119">
        <ele>1830.243</ele>
        <time>2018-07-01T12:32:46Z</time>
      </trkpt>
      <trkpt lat="44.08496" lon="7.7311">
        <ele>1830.617</ele>
        <time>2018-07-01T12:32:47Z</time>
      </trkpt>
      <trkpt lat="44.08503" lon="7.73098">
        <ele>1830.063</ele>
        <time>2018-07-01T12:32:48Z</time>
      </trkpt>
      <trkpt lat="44.0851" lon="7.73088">
        <ele>1829.956</ele>
        <time>2018-07-01T12:32:49Z</time>
      </trkpt>
      <trkpt lat="44.08515" lon="7.73078">
        <ele>1829.398</ele>
        <time>2018-07-01T12:32:50Z</time>
      </trkpt>
      <trkpt lat="44.0852" lon="7.73069">
        <ele>1829.441</ele>
        <time>2018-07-01T12:32:51Z</time>
      </trkpt>
      <trkpt lat="44.08527" lon="7.73059">
        <ele>1829.116</ele>
        <time>2018-07-01T12:32:52Z</time>
      </trkpt>
      <trkpt lat="44.08528" lon="7.73046">
        <ele>1829.967</ele>
        <time>2018-07-01T12:32:53Z</time>
      </trkpt>
      <trkpt lat="44.0853" lon="7.73033">
        <ele>1830.053</ele>
        <time>2018-07-01T12:32:54Z</time>
      </trkpt>
      <trkpt lat="44.08535" lon="7.73021">
        <ele>1830.304</ele>
        <time>2018-07-01T12:32:55Z</time>
      </trkpt>
      <trkpt lat="44.08539" lon="7.73011">
        <ele>1830.414</ele>
        <time>2018-07-01T12:32:56Z</time>
      </trkpt>
      <trkpt lat="44.08544" lon="7.73002">
        <ele>1831.408</ele>
        <time>2018-07-01T12:32:57Z</time>
      </trkpt>
      <trkpt lat="44.08546" lon="7.72993">
        <ele>1831.827</ele>
        <time>2018-07-01T12:32:58Z</time>
      </trkpt>
      <trkpt lat="44.0855" lon="7.72985">
        <ele>1832.281</ele>
        <time>2018-07-01T12:32:59Z</time>
      </trkpt>
      <trkpt lat="44.08554" lon="7.7298">
        <ele>1830.517</ele>
        <time>2018-07-01T12:33:00Z</time>
      </trkpt>
      <trkpt lat="44.08558" lon="7.72973">
        <ele>1830.91</ele>
        <time>2018-07-01T12:33:01Z</time>
      </trkpt>
      <trkpt lat="44.08568" lon="7.72969">
        <ele>1831.762</ele>
        <time>2018-07-01T12:33:02Z</time>
      </trkpt>
      <trkpt lat="44.08574" lon="7.72968">
        <ele>1831.785</ele>
        <time>2018-07-01T12:33:03Z</time>
      </trkpt>
      <trkpt lat="44.08584" lon="7.7297">
        <ele>1830.25</ele>
        <time>2018-07-01T12:33:04Z</time>
      </trkpt>
      <trkpt lat="44.08589" lon="7.72968">
        <ele>1829.871</ele>
        <time>2018-07-01T12:33:05Z</time>
      </trkpt>
      <trkpt lat="44.08598" lon="7.72968">
        <ele>1829.629</ele>
        <time>2018-07-01T12:33:06Z</time>
      </trkpt>
      <trkpt lat="44.08609" lon="7.72964">
        <ele>1830</ele>
        <time>2018-07-01T12:33:07Z</time>
      </trkpt>
      <trkpt lat="44.08617" lon="7.7296">
        <ele>1829.82</ele>
        <time>2018-07-01T12:33:08Z</time>
      </trkpt>
      <trkpt lat="44.08625" lon="7.72959">
        <ele>1829.308</ele>
        <time>2018-07-01T12:33:09Z</time>
      </trkpt>
      <trkpt lat="44.08636" lon="7.72953">
        <ele>1829.454</ele>
        <time>2018-07-01T12:33:10Z</time>
      </trkpt>
      <trkpt lat="44.08645" lon="7.72942">
        <ele>1828.788</ele>
        <time>2018-07-01T12:33:12Z</time>
      </trkpt>
      <trkpt lat="44.08652" lon="7.72935">
        <ele>1828.214</ele>
        <time>2018-07-01T12:33:13Z</time>
      </trkpt>
      <trkpt lat="44.08661" lon="7.72927">
        <ele>1828.697</ele>
        <time>2018-07-01T12:33:14Z</time>
      </trkpt>
      <trkpt lat="44.08659" lon="7.72916">
        <ele>1827.329</ele>
        <time>2018-07-01T12:33:15Z</time>
      </trkpt>
      <trkpt lat="44.08662" lon="7.72906">
        <ele>1824.962</ele>
        <time>2018-07-01T12:33:16Z</time>
      </trkpt>
      <trkpt lat="44.08662" lon="7.72892">
        <ele>1825.087</ele>
        <time>2018-07-01T12:33:17Z</time>
      </trkpt>
      <trkpt lat="44.08667" lon="7.72879">
        <ele>1824.168</ele>
        <time>2018-07-01T12:33:18Z</time>
      </trkpt>
      <trkpt lat="44.08672" lon="7.72871">
        <ele>1824.786</ele>
        <time>2018-07-01T12:33:19Z</time>
      </trkpt>
      <trkpt lat="44.08677" lon="7.7286">
        <ele>1824.86</ele>
        <time>2018-07-01T12:33:20Z</time>
      </trkpt>
      <trkpt lat="44.08686" lon="7.7285">
        <ele>1824.626</ele>
        <time>2018-07-01T12:33:21Z</time>
      </trkpt>
      <trkpt lat="44.08688" lon="7.72836">
        <ele>1825.408</ele>
        <time>2018-07-01T12:33:22Z</time>
      </trkpt>
      <trkpt lat="44.08696" lon="7.72825">
        <ele>1824.79</ele>
        <time>2018-07-01T12:33:23Z</time>
      </trkpt>
      <trkpt lat="44.08702" lon="7.72816">
        <ele>1824.134</ele>
        <time>2018-07-01T12:33:24Z</time>
      </trkpt>
      <trkpt lat="44.08705" lon="7.72803">
        <ele>1824.81</ele>
        <time>2018-07-01T12:33:25Z</time>
      </trkpt>
      <trkpt lat="44.08709" lon="7.72792">
        <ele>1823.313</ele>
        <time>2018-07-01T12:33:26Z</time>
      </trkpt>
      <trkpt lat="44.08718" lon="7.72784">
        <ele>1822.765</ele>
        <time>2018-07-01T12:33:27Z</time>
      </trkpt>
      <trkpt lat="44.08724" lon="7.72778">
        <ele>1821.878</ele>
        <time>2018-07-01T12:33:28Z</time>
      </trkpt>
      <trkpt lat="44.08729" lon="7.72768">
        <ele>1821.243</ele>
        <time>2018-07-01T12:33:29Z</time>
      </trkpt>
      <trkpt lat="44.08733" lon="7.7276">
        <ele>1820.364</ele>
        <time>2018-07-01T12:33:30Z</time>
      </trkpt>
      <trkpt lat="44.08737" lon="7.72752">
        <ele>1820.251</ele>
        <time>2018-07-01T12:33:31Z</time>
      </trkpt>
      <trkpt lat="44.08742" lon="7.72742">
        <ele>1821.201</ele>
        <time>2018-07-01T12:33:32Z</time>
      </trkpt>
      <trkpt lat="44.08745" lon="7.72731">
        <ele>1820.511</ele>
        <time>2018-07-01T12:33:33Z</time>
      </trkpt>
      <trkpt lat="44.08748" lon="7.72718">
        <ele>1820.108</ele>
        <time>2018-07-01T12:33:34Z</time>
      </trkpt>
      <trkpt lat="44.08753" lon="7.72705">
        <ele>1819.917</ele>
        <time>2018-07-01T12:33:35Z</time>
      </trkpt>
      <trkpt lat="44.08756" lon="7.72693">
        <ele>1820.291</ele>
        <time>2018-07-01T12:33:36Z</time>
      </trkpt>
      <trkpt lat="44.08762" lon="7.72679">
        <ele>1819.977</ele>
        <time>2018-07-01T12:33:37Z</time>
      </trkpt>
      <trkpt lat="44.08768" lon="7.72665">
        <ele>1819.89</ele>
        <time>2018-07-01T12:33:38Z</time>
      </trkpt>
      <trkpt lat="44.08773" lon="7.72651">
        <ele>1820.092</ele>
        <time>2018-07-01T12:33:39Z</time>
      </trkpt>
      <trkpt lat="44.08777" lon="7.72637">
        <ele>1820.885</ele>
        <time>2018-07-01T12:33:40Z</time>
      </trkpt>
      <trkpt lat="44.08778" lon="7.7262">
        <ele>1821.67</ele>
        <time>2018-07-01T12:33:41Z</time>
      </trkpt>
      <trkpt lat="44.08784" lon="7.72606">
        <ele>1821.171</ele>
        <time>2018-07-01T12:33:42Z</time>
      </trkpt>
      <trkpt lat="44.08791" lon="7.72593">
        <ele>1820.843</ele>
        <time>2018-07-01T12:33:43Z</time>
      </trkpt>
      <trkpt lat="44.088" lon="7.7258">
        <ele>1821.364</ele>
        <time>2018-07-01T12:33:44Z</time>
      </trkpt>
      <trkpt lat="44.08801" lon="7.72564">
        <ele>1821.61</ele>
        <time>2018-07-01T12:33:45Z</time>
      </trkpt>
      <trkpt lat="44.08803" lon="7.72549">
        <ele>1821.908</ele>
        <time>2018-07-01T12:33:46Z</time>
      </trkpt>
      <trkpt lat="44.08813" lon="7.72537">
        <ele>1821.456</ele>
        <time>2018-07-01T12:33:47Z</time>
      </trkpt>
      <trkpt lat="44.08811" lon="7.72523">
        <ele>1819.49</ele>
        <time>2018-07-01T12:33:48Z</time>
      </trkpt>
      <trkpt lat="44.08812" lon="7.72507">
        <ele>1819.686</ele>
        <time>2018-07-01T12:33:49Z</time>
      </trkpt>
      <trkpt lat="44.08813" lon="7.72495">
        <ele>1819.089</ele>
        <time>2018-07-01T12:33:50Z</time>
      </trkpt>
      <trkpt lat="44.08816" lon="7.72483">
        <ele>1820.351</ele>
        <time>2018-07-01T12:33:51Z</time>
      </trkpt>
      <trkpt lat="44.08819" lon="7.72471">
        <ele>1819.924</ele>
        <time>2018-07-01T12:33:52Z</time>
      </trkpt>
      <trkpt lat="44.08819" lon="7.72458">
        <ele>1819.719</ele>
        <time>2018-07-01T12:33:53Z</time>
      </trkpt>
      <trkpt lat="44.08813" lon="7.72447">
        <ele>1819.31</ele>
        <time>2018-07-01T12:33:54Z</time>
      </trkpt>
      <trkpt lat="44.08814" lon="7.72435">
        <ele>1821.383</ele>
        <time>2018-07-01T12:33:55Z</time>
      </trkpt>
      <trkpt lat="44.08814" lon="7.72421">
        <ele>1821.625</ele>
        <time>2018-07-01T12:33:56Z</time>
      </trkpt>
      <trkpt lat="44.08816" lon="7.72405">
        <ele>1822.417</ele>
        <time>2018-07-01T12:33:57Z</time>
      </trkpt>
      <trkpt lat="44.0881" lon="7.7239">
        <ele>1822.208</ele>
        <time>2018-07-01T12:33:58Z</time>
      </trkpt>
      <trkpt lat="44.08806" lon="7.72378">
        <ele>1823.73</ele>
        <time>2018-07-01T12:33:59Z</time>
      </trkpt>
      <trkpt lat="44.08807" lon="7.72365">
        <ele>1825.584</ele>
        <time>2018-07-01T12:34:00Z</time>
      </trkpt>
      <trkpt lat="44.0881" lon="7.72355">
        <ele>1826.54</ele>
        <time>2018-07-01T12:34:01Z</time>
      </trkpt>
      <trkpt lat="44.0881" lon="7.7234">
        <ele>1826.383</ele>
        <time>2018-07-01T12:34:02Z</time>
      </trkpt>
      <trkpt lat="44.08813" lon="7.72329">
        <ele>1826.885</ele>
        <time>2018-07-01T12:34:03Z</time>
      </trkpt>
      <trkpt lat="44.08813" lon="7.72316">
        <ele>1826.828</ele>
        <time>2018-07-01T12:34:04Z</time>
      </trkpt>
      <trkpt lat="44.08818" lon="7.72305">
        <ele>1828.183</ele>
        <time>2018-07-01T12:34:05Z</time>
      </trkpt>
      <trkpt lat="44.08819" lon="7.72293">
        <ele>1827.784</ele>
        <time>2018-07-01T12:34:06Z</time>
      </trkpt>
      <trkpt lat="44.08824" lon="7.72282">
        <ele>1827.943</ele>
        <time>2018-07-01T12:34:07Z</time>
      </trkpt>
      <trkpt lat="44.08834" lon="7.72274">
        <ele>1828.464</ele>
        <time>2018-07-01T12:34:08Z</time>
      </trkpt>
      <trkpt lat="44.08844" lon="7.72268">
        <ele>1828.71</ele>
        <time>2018-07-01T12:34:09Z</time>
      </trkpt>
      <trkpt lat="44.08853" lon="7.72262">
        <ele>1828.808</ele>
        <time>2018-07-01T12:34:10Z</time>
      </trkpt>
      <trkpt lat="44.08861" lon="7.72257">
        <ele>1829.176</ele>
        <time>2018-07-01T12:34:11Z</time>
      </trkpt>
      <trkpt lat="44.08869" lon="7.72253">
        <ele>1829.68</ele>
        <time>2018-07-01T12:34:12Z</time>
      </trkpt>
      <trkpt lat="44.08878" lon="7.7225">
        <ele>1829.656</ele>
        <time>2018-07-01T12:34:13Z</time>
      </trkpt>
      <trkpt lat="44.08889" lon="7.7225">
        <ele>1829.889</ele>
        <time>2018-07-01T12:34:14Z</time>
      </trkpt>
      <trkpt lat="44.08898" lon="7.72251">
        <ele>1829.021</ele>
        <time>2018-07-01T12:34:15Z</time>
      </trkpt>
      <trkpt lat="44.08909" lon="7.72249">
        <ele>1827.864</ele>
        <time>2018-07-01T12:34:16Z</time>
      </trkpt>
      <trkpt lat="44.08916" lon="7.72248">
        <ele>1826.869</ele>
        <time>2018-07-01T12:34:17Z</time>
      </trkpt>
      <trkpt lat="44.08923" lon="7.72246">
        <ele>1827.48</ele>
        <time>2018-07-01T12:34:18Z</time>
      </trkpt>
      <trkpt lat="44.08929" lon="7.72244">
        <ele>1828.022</ele>
        <time>2018-07-01T12:34:19Z</time>
      </trkpt>
      <trkpt lat="44.08936" lon="7.72239">
        <ele>1828.662</ele>
        <time>2018-07-01T12:34:20Z</time>
      </trkpt>
      <trkpt lat="44.08943" lon="7.72232">
        <ele>1828.508</ele>
        <time>2018-07-01T12:34:21Z</time>
      </trkpt>
      <trkpt lat="44.08949" lon="7.72227">
        <ele>1828.508</ele>
        <time>2018-07-01T12:34:22Z</time>
      </trkpt>
      <trkpt lat="44.08939" lon="7.72207">
        <ele>1828.374</ele>
        <time>2018-07-01T12:34:24Z</time>
      </trkpt>
      <trkpt lat="44.08945" lon="7.72198">
        <ele>1829.078</ele>
        <time>2018-07-01T12:34:25Z</time>
      </trkpt>
      <trkpt lat="44.0895" lon="7.7219">
        <ele>1828.914</ele>
        <time>2018-07-01T12:34:26Z</time>
      </trkpt>
      <trkpt lat="44.08957" lon="7.72184">
        <ele>1829.477</ele>
        <time>2018-07-01T12:34:27Z</time>
      </trkpt>
      <trkpt lat="44.08963" lon="7.72179">
        <ele>1829.439</ele>
        <time>2018-07-01T12:34:28Z</time>
      </trkpt>
      <trkpt lat="44.08972" lon="7.72174">
        <ele>1829.732</ele>
        <time>2018-07-01T12:34:30Z</time>
      </trkpt>
      <trkpt lat="44.08977" lon="7.7217">
        <ele>1830.457</ele>
        <time>2018-07-01T12:34:31Z</time>
      </trkpt>
      <trkpt lat="44.08976" lon="7.72161">
        <ele>1827.878</ele>
        <time>2018-07-01T12:34:32Z</time>
      </trkpt>
      <trkpt lat="44.08979" lon="7.72153">
        <ele>1829.955</ele>
        <time>2018-07-01T12:34:33Z</time>
      </trkpt>
      <trkpt lat="44.0898" lon="7.72144">
        <ele>1829.107</ele>
        <time>2018-07-01T12:34:34Z</time>
      </trkpt>
      <trkpt lat="44.0898" lon="7.72135">
        <ele>1829.417</ele>
        <time>2018-07-01T12:34:35Z</time>
      </trkpt>
      <trkpt lat="44.08981" lon="7.72124">
        <ele>1828.908</ele>
        <time>2018-07-01T12:34:36Z</time>
      </trkpt>
      <trkpt lat="44.08983" lon="7.72112">
        <ele>1829.467</ele>
        <time>2018-07-01T12:34:37Z</time>
      </trkpt>
      <trkpt lat="44.08984" lon="7.72098">
        <ele>1830.541</ele>
        <time>2018-07-01T12:34:38Z</time>
      </trkpt>
      <trkpt lat="44.08987" lon="7.72086">
        <ele>1831.237</ele>
        <time>2018-07-01T12:34:39Z</time>
      </trkpt>
      <trkpt lat="44.08991" lon="7.72074">
        <ele>1831.96</ele>
        <time>2018-07-01T12:34:40Z</time>
      </trkpt>
      <trkpt lat="44.08994" lon="7.72064">
        <ele>1832.172</ele>
        <time>2018-07-01T12:34:41Z</time>
      </trkpt>
      <trkpt lat="44.08997" lon="7.72055">
        <ele>1832.765</ele>
        <time>2018-07-01T12:34:42Z</time>
      </trkpt>
      <trkpt lat="44.08999" lon="7.72045">
        <ele>1833.17</ele>
        <time>2018-07-01T12:34:43Z</time>
      </trkpt>
      <trkpt lat="44.09" lon="7.72037">
        <ele>1834.151</ele>
        <time>2018-07-01T12:34:44Z</time>
      </trkpt>
      <trkpt lat="44.09" lon="7.72029">
        <ele>1834.671</ele>
        <time>2018-07-01T12:34:45Z</time>
      </trkpt>
      <trkpt lat="44.09002" lon="7.72022">
        <ele>1834.341</ele>
        <time>2018-07-01T12:34:46Z</time>
      </trkpt>
      <trkpt lat="44.09004" lon="7.72015">
        <ele>1834.815</ele>
        <time>2018-07-01T12:34:47Z</time>
      </trkpt>
      <trkpt lat="44.09007" lon="7.72009">
        <ele>1834.908</ele>
        <time>2018-07-01T12:34:48Z</time>
      </trkpt>
      <trkpt lat="44.09014" lon="7.72006">
        <ele>1834.379</ele>
        <time>2018-07-01T12:34:49Z</time>
      </trkpt>
      <trkpt lat="44.09021" lon="7.72004">
        <ele>1833.823</ele>
        <time>2018-07-01T12:34:50Z</time>
      </trkpt>
      <trkpt lat="44.09027" lon="7.72004">
        <ele>1833.519</ele>
        <time>2018-07-01T12:34:51Z</time>
      </trkpt>
      <trkpt lat="44.09033" lon="7.72008">
        <ele>1833.362</ele>
        <time>2018-07-01T12:34:52Z</time>
      </trkpt>
      <trkpt lat="44.09037" lon="7.72012">
        <ele>1833.324</ele>
        <time>2018-07-01T12:34:53Z</time>
      </trkpt>
      <trkpt lat="44.09043" lon="7.72017">
        <ele>1834.087</ele>
        <time>2018-07-01T12:34:54Z</time>
      </trkpt>
      <trkpt lat="44.09048" lon="7.72024">
        <ele>1832.892</ele>
        <time>2018-07-01T12:34:55Z</time>
      </trkpt>
      <trkpt lat="44.09054" lon="7.7203">
        <ele>1832.793</ele>
        <time>2018-07-01T12:34:56Z</time>
      </trkpt>
      <trkpt lat="44.09061" lon="7.72035">
        <ele>1832.696</ele>
        <time>2018-07-01T12:34:57Z</time>
      </trkpt>
      <trkpt lat="44.09067" lon="7.72039">
        <ele>1832.931</ele>
        <time>2018-07-01T12:34:58Z</time>
      </trkpt>
      <trkpt lat="44.09074" lon="7.72043">
        <ele>1833.824</ele>
        <time>2018-07-01T12:34:59Z</time>
      </trkpt>
      <trkpt lat="44.09082" lon="7.72047">
        <ele>1834.208</ele>
        <time>2018-07-01T12:35:00Z</time>
      </trkpt>
      <trkpt lat="44.09089" lon="7.72049">
        <ele>1834.791</ele>
        <time>2018-07-01T12:35:01Z</time>
      </trkpt>
      <trkpt lat="44.09094" lon="7.7205">
        <ele>1834.545</ele>
        <time>2018-07-01T12:35:02Z</time>
      </trkpt>
      <trkpt lat="44.09101" lon="7.72053">
        <ele>1834.611</ele>
        <time>2018-07-01T12:35:03Z</time>
      </trkpt>
      <trkpt lat="44.09106" lon="7.72056">
        <ele>1834.484</ele>
        <time>2018-07-01T12:35:04Z</time>
      </trkpt>
      <trkpt lat="44.09111" lon="7.72059">
        <ele>1834.586</ele>
        <time>2018-07-01T12:35:05Z</time>
      </trkpt>
      <trkpt lat="44.09116" lon="7.7206">
        <ele>1834.719</ele>
        <time>2018-07-01T12:35:06Z</time>
      </trkpt>
      <trkpt lat="44.09122" lon="7.72062">
        <ele>1835.754</ele>
        <time>2018-07-01T12:35:07Z</time>
      </trkpt>
      <trkpt lat="44.09128" lon="7.72063">
        <ele>1835.845</ele>
        <time>2018-07-01T12:35:08Z</time>
      </trkpt>
      <trkpt lat="44.09133" lon="7.72065">
        <ele>1836.485</ele>
        <time>2018-07-01T12:35:09Z</time>
      </trkpt>
      <trkpt lat="44.0914" lon="7.7207">
        <ele>1836.889</ele>
        <time>2018-07-01T12:35:10Z</time>
      </trkpt>
      <trkpt lat="44.09147" lon="7.72072">
        <ele>1837.317</ele>
        <time>2018-07-01T12:35:11Z</time>
      </trkpt>
      <trkpt lat="44.09152" lon="7.72075">
        <ele>1837.408</ele>
        <time>2018-07-01T12:35:12Z</time>
      </trkpt>
      <trkpt lat="44.09158" lon="7.72079">
        <ele>1836.41</ele>
        <time>2018-07-01T12:35:13Z</time>
      </trkpt>
      <trkpt lat="44.09166" lon="7.72083">
        <ele>1837.374</ele>
        <time>2018-07-01T12:35:14Z</time>
      </trkpt>
      <trkpt lat="44.09173" lon="7.72084">
        <ele>1838.15</ele>
        <time>2018-07-01T12:35:15Z</time>
      </trkpt>
      <trkpt lat="44.09181" lon="7.72086">
        <ele>1837.183</ele>
        <time>2018-07-01T12:35:16Z</time>
      </trkpt>
      <trkpt lat="44.09186" lon="7.72085">
        <ele>1836.345</ele>
        <time>2018-07-01T12:35:17Z</time>
      </trkpt>
      <trkpt lat="44.09195" lon="7.72081">
        <ele>1836.618</ele>
        <time>2018-07-01T12:35:18Z</time>
      </trkpt>
      <trkpt lat="44.09203" lon="7.72079">
        <ele>1837.223</ele>
        <time>2018-07-01T12:35:19Z</time>
      </trkpt>
      <trkpt lat="44.0921" lon="7.72078">
        <ele>1836.534</ele>
        <time>2018-07-01T12:35:20Z</time>
      </trkpt>
      <trkpt lat="44.09217" lon="7.72078">
        <ele>1836.485</ele>
        <time>2018-07-01T12:35:21Z</time>
      </trkpt>
      <trkpt lat="44.09225" lon="7.72081">
        <ele>1836.189</ele>
        <time>2018-07-01T12:35:22Z</time>
      </trkpt>
      <trkpt lat="44.09232" lon="7.72083">
        <ele>1835.517</ele>
        <time>2018-07-01T12:35:23Z</time>
      </trkpt>
      <trkpt lat="44.09239" lon="7.72087">
        <ele>1834.508</ele>
        <time>2018-07-01T12:35:24Z</time>
      </trkpt>
      <trkpt lat="44.09246" lon="7.72091">
        <ele>1834.29</ele>
        <time>2018-07-01T12:35:25Z</time>
      </trkpt>
      <trkpt lat="44.09253" lon="7.72097">
        <ele>1834.014</ele>
        <time>2018-07-01T12:35:26Z</time>
      </trkpt>
      <trkpt lat="44.09259" lon="7.72104">
        <ele>1834.07</ele>
        <time>2018-07-01T12:35:27Z</time>
      </trkpt>
      <trkpt lat="44.09266" lon="7.72112">
        <ele>1833.513</ele>
        <time>2018-07-01T12:35:28Z</time>
      </trkpt>
      <trkpt lat="44.09271" lon="7.72121">
        <ele>1833.175</ele>
        <time>2018-07-01T12:35:29Z</time>
      </trkpt>
      <trkpt lat="44.09276" lon="7.72128">
        <ele>1832.318</ele>
        <time>2018-07-01T12:35:30Z</time>
      </trkpt>
      <trkpt lat="44.09281" lon="7.72138">
        <ele>1831.913</ele>
        <time>2018-07-01T12:35:31Z</time>
      </trkpt>
      <trkpt lat="44.09287" lon="7.72146">
        <ele>1831.714</ele>
        <time>2018-07-01T12:35:32Z</time>
      </trkpt>
      <trkpt lat="44.09293" lon="7.72153">
        <ele>1831.042</ele>
        <time>2018-07-01T12:35:33Z</time>
      </trkpt>
      <trkpt lat="44.093" lon="7.7216">
        <ele>1830.022</ele>
        <time>2018-07-01T12:35:34Z</time>
      </trkpt>
      <trkpt lat="44.09307" lon="7.72168">
        <ele>1829.714</ele>
        <time>2018-07-01T12:35:35Z</time>
      </trkpt>
      <trkpt lat="44.09314" lon="7.72174">
        <ele>1828.008</ele>
        <time>2018-07-01T12:35:36Z</time>
      </trkpt>
      <trkpt lat="44.0932" lon="7.7218">
        <ele>1827.156</ele>
        <time>2018-07-01T12:35:37Z</time>
      </trkpt>
      <trkpt lat="44.09327" lon="7.72186">
        <ele>1826.97</ele>
        <time>2018-07-01T12:35:38Z</time>
      </trkpt>
      <trkpt lat="44.09334" lon="7.7219">
        <ele>1826.536</ele>
        <time>2018-07-01T12:35:39Z</time>
      </trkpt>
      <trkpt lat="44.09341" lon="7.72193">
        <ele>1826.279</ele>
        <time>2018-07-01T12:35:40Z</time>
      </trkpt>
      <trkpt lat="44.09349" lon="7.72192">
        <ele>1826.441</ele>
        <time>2018-07-01T12:35:41Z</time>
      </trkpt>
      <trkpt lat="44.09357" lon="7.72193">
        <ele>1827.074</ele>
        <time>2018-07-01T12:35:42Z</time>
      </trkpt>
      <trkpt lat="44.09364" lon="7.72188">
        <ele>1827.189</ele>
        <time>2018-07-01T12:35:43Z</time>
      </trkpt>
      <trkpt lat="44.09371" lon="7.72186">
        <ele>1826.32</ele>
        <time>2018-07-01T12:35:44Z</time>
      </trkpt>
      <trkpt lat="44.09378" lon="7.7218">
        <ele>1825.875</ele>
        <time>2018-07-01T12:35:45Z</time>
      </trkpt>
      <trkpt lat="44.09388" lon="7.72175">
        <ele>1826.028</ele>
        <time>2018-07-01T12:35:46Z</time>
      </trkpt>
      <trkpt lat="44.09398" lon="7.72172">
        <ele>1826.72</ele>
        <time>2018-07-01T12:35:47Z</time>
      </trkpt>
      <trkpt lat="44.09405" lon="7.72172">
        <ele>1826.008</ele>
        <time>2018-07-01T12:35:48Z</time>
      </trkpt>
      <trkpt lat="44.09413" lon="7.72176">
        <ele>1826.489</ele>
        <time>2018-07-01T12:35:49Z</time>
      </trkpt>
      <trkpt lat="44.09421" lon="7.72178">
        <ele>1826.553</ele>
        <time>2018-07-01T12:35:50Z</time>
      </trkpt>
      <trkpt lat="44.09427" lon="7.72182">
        <ele>1826.019</ele>
        <time>2018-07-01T12:35:51Z</time>
      </trkpt>
      <trkpt lat="44.09436" lon="7.72184">
        <ele>1826.222</ele>
        <time>2018-07-01T12:35:52Z</time>
      </trkpt>
      <trkpt lat="44.09443" lon="7.72188">
        <ele>1825.964</ele>
        <time>2018-07-01T12:35:53Z</time>
      </trkpt>
      <trkpt lat="44.09451" lon="7.72196">
        <ele>1826.167</ele>
        <time>2018-07-01T12:35:54Z</time>
      </trkpt>
      <trkpt lat="44.0946" lon="7.72205">
        <ele>1825.912</ele>
        <time>2018-07-01T12:35:55Z</time>
      </trkpt>
      <trkpt lat="44.0947" lon="7.72212">
        <ele>1826.093</ele>
        <time>2018-07-01T12:35:56Z</time>
      </trkpt>
      <trkpt lat="44.09478" lon="7.72221">
        <ele>1825.718</ele>
        <time>2018-07-01T12:35:57Z</time>
      </trkpt>
      <trkpt lat="44.09487" lon="7.72231">
        <ele>1825.998</ele>
        <time>2018-07-01T12:35:58Z</time>
      </trkpt>
      <trkpt lat="44.09495" lon="7.72238">
        <ele>1825.917</ele>
        <time>2018-07-01T12:35:59Z</time>
      </trkpt>
      <trkpt lat="44.09503" lon="7.72246">
        <ele>1826.208</ele>
        <time>2018-07-01T12:36:00Z</time>
      </trkpt>
      <trkpt lat="44.09512" lon="7.72249">
        <ele>1825.753</ele>
        <time>2018-07-01T12:36:01Z</time>
      </trkpt>
      <trkpt lat="44.0952" lon="7.72254">
        <ele>1826.037</ele>
        <time>2018-07-01T12:36:02Z</time>
      </trkpt>
      <trkpt lat="44.09524" lon="7.72261">
        <ele>1825.733</ele>
        <time>2018-07-01T12:36:03Z</time>
      </trkpt>
      <trkpt lat="44.09531" lon="7.72268">
        <ele>1825.596</ele>
        <time>2018-07-01T12:36:04Z</time>
      </trkpt>
      <trkpt lat="44.09536" lon="7.72276">
        <ele>1824.998</ele>
        <time>2018-07-01T12:36:05Z</time>
      </trkpt>
      <trkpt lat="44.09539" lon="7.72282">
        <ele>1824.581</ele>
        <time>2018-07-01T12:36:06Z</time>
      </trkpt>
      <trkpt lat="44.09543" lon="7.72285">
        <ele>1824.436</ele>
        <time>2018-07-01T12:36:07Z</time>
      </trkpt>
      <trkpt lat="44.09547" lon="7.72289">
        <ele>1824.267</ele>
        <time>2018-07-01T12:36:08Z</time>
      </trkpt>
      <trkpt lat="44.09556" lon="7.72294">
        <ele>1824.453</ele>
        <time>2018-07-01T12:36:10Z</time>
      </trkpt>
      <trkpt lat="44.09563" lon="7.72295">
        <ele>1824.304</ele>
        <time>2018-07-01T12:36:11Z</time>
      </trkpt>
      <trkpt lat="44.09571" lon="7.72294">
        <ele>1824.514</ele>
        <time>2018-07-01T12:36:12Z</time>
      </trkpt>
      <trkpt lat="44.09579" lon="7.7229">
        <ele>1824.908</ele>
        <time>2018-07-01T12:36:13Z</time>
      </trkpt>
      <trkpt lat="44.09587" lon="7.72284">
        <ele>1824.697</ele>
        <time>2018-07-01T12:36:14Z</time>
      </trkpt>
      <trkpt lat="44.09593" lon="7.72276">
        <ele>1824.521</ele>
        <time>2018-07-01T12:36:15Z</time>
      </trkpt>
      <trkpt lat="44.09598" lon="7.72259">
        <ele>1824.127</ele>
        <time>2018-07-01T12:36:16Z</time>
      </trkpt>
      <trkpt lat="44.09596" lon="7.72244">
        <ele>1823.62</ele>
        <time>2018-07-01T12:36:17Z</time>
      </trkpt>
      <trkpt lat="44.09599" lon="7.72234">
        <ele>1823.632</ele>
        <time>2018-07-01T12:36:18Z</time>
      </trkpt>
      <trkpt lat="44.09602" lon="7.72223">
        <ele>1823.555</ele>
        <time>2018-07-01T12:36:19Z</time>
      </trkpt>
      <trkpt lat="44.09601" lon="7.72211">
        <ele>1823.35</ele>
        <time>2018-07-01T12:36:20Z</time>
      </trkpt>
      <trkpt lat="44.09596" lon="7.72199">
        <ele>1824.141</ele>
        <time>2018-07-01T12:36:21Z</time>
      </trkpt>
      <trkpt lat="44.09593" lon="7.72191">
        <ele>1824.444</ele>
        <time>2018-07-01T12:36:22Z</time>
      </trkpt>
      <trkpt lat="44.09591" lon="7.7218">
        <ele>1824.705</ele>
        <time>2018-07-01T12:36:23Z</time>
      </trkpt>
      <trkpt lat="44.09589" lon="7.7217">
        <ele>1824.915</ele>
        <time>2018-07-01T12:36:24Z</time>
      </trkpt>
      <trkpt lat="44.0959" lon="7.72161">
        <ele>1825.108</ele>
        <time>2018-07-01T12:36:25Z</time>
      </trkpt>
      <trkpt lat="44.0959" lon="7.72148">
        <ele>1825.126</ele>
        <time>2018-07-01T12:36:26Z</time>
      </trkpt>
      <trkpt lat="44.09588" lon="7.72139">
        <ele>1825.31</ele>
        <time>2018-07-01T12:36:27Z</time>
      </trkpt>
      <trkpt lat="44.09586" lon="7.7213">
        <ele>1824.326</ele>
        <time>2018-07-01T12:36:28Z</time>
      </trkpt>
      <trkpt lat="44.09595" lon="7.72118">
        <ele>1824.779</ele>
        <time>2018-07-01T12:36:29Z</time>
      </trkpt>
      <trkpt lat="44.09595" lon="7.72107">
        <ele>1825.481</ele>
        <time>2018-07-01T12:36:30Z</time>
      </trkpt>
      <trkpt lat="44.09596" lon="7.72095">
        <ele>1826.074</ele>
        <time>2018-07-01T12:36:31Z</time>
      </trkpt>
      <trkpt lat="44.09597" lon="7.72083">
        <ele>1827.349</ele>
        <time>2018-07-01T12:36:32Z</time>
      </trkpt>
      <trkpt lat="44.096" lon="7.72073">
        <ele>1827.44</ele>
        <time>2018-07-01T12:36:33Z</time>
      </trkpt>
      <trkpt lat="44.096" lon="7.72061">
        <ele>1827.825</ele>
        <time>2018-07-01T12:36:34Z</time>
      </trkpt>
      <trkpt lat="44.09602" lon="7.72047">
        <ele>1828.326</ele>
        <time>2018-07-01T12:36:35Z</time>
      </trkpt>
      <trkpt lat="44.09603" lon="7.72033">
        <ele>1827.708</ele>
        <time>2018-07-01T12:36:36Z</time>
      </trkpt>
      <trkpt lat="44.09607" lon="7.72021">
        <ele>1826.708</ele>
        <time>2018-07-01T12:36:37Z</time>
      </trkpt>
      <trkpt lat="44.09607" lon="7.7201">
        <ele>1827.314</ele>
        <time>2018-07-01T12:36:38Z</time>
      </trkpt>
      <trkpt lat="44.09607" lon="7.71999">
        <ele>1826.528</ele>
        <time>2018-07-01T12:36:39Z</time>
      </trkpt>
      <trkpt lat="44.09609" lon="7.7199">
        <ele>1826.874</ele>
        <time>2018-07-01T12:36:40Z</time>
      </trkpt>
      <trkpt lat="44.09611" lon="7.71982">
        <ele>1832.977</ele>
        <time>2018-07-01T12:36:41Z</time>
      </trkpt>
      <trkpt lat="44.0962" lon="7.71979">
        <ele>1834.179</ele>
        <time>2018-07-01T12:36:42Z</time>
      </trkpt>
      <trkpt lat="44.09623" lon="7.71972">
        <ele>1833.942</ele>
        <time>2018-07-01T12:36:43Z</time>
      </trkpt>
      <trkpt lat="44.0963" lon="7.71966">
        <ele>1835.917</ele>
        <time>2018-07-01T12:36:44Z</time>
      </trkpt>
      <trkpt lat="44.09635" lon="7.71957">
        <ele>1836.798</ele>
        <time>2018-07-01T12:36:45Z</time>
      </trkpt>
      <trkpt lat="44.09633" lon="7.71951">
        <ele>1835.698</ele>
        <time>2018-07-01T12:36:46Z</time>
      </trkpt>
      <trkpt lat="44.09636" lon="7.71943">
        <ele>1836.615</ele>
        <time>2018-07-01T12:36:47Z</time>
      </trkpt>
      <trkpt lat="44.09638" lon="7.71936">
        <ele>1836.626</ele>
        <time>2018-07-01T12:36:48Z</time>
      </trkpt>
      <trkpt lat="44.09639" lon="7.71927">
        <ele>1837.408</ele>
        <time>2018-07-01T12:36:49Z</time>
      </trkpt>
      <trkpt lat="44.09641" lon="7.71916">
        <ele>1838.361</ele>
        <time>2018-07-01T12:36:50Z</time>
      </trkpt>
      <trkpt lat="44.09643" lon="7.71904">
        <ele>1838.725</ele>
        <time>2018-07-01T12:36:51Z</time>
      </trkpt>
      <trkpt lat="44.09644" lon="7.71893">
        <ele>1839.991</ele>
        <time>2018-07-01T12:36:52Z</time>
      </trkpt>
      <trkpt lat="44.09642" lon="7.71878">
        <ele>1840.714</ele>
        <time>2018-07-01T12:36:53Z</time>
      </trkpt>
      <trkpt lat="44.09643" lon="7.71867">
        <ele>1843.126</ele>
        <time>2018-07-01T12:36:54Z</time>
      </trkpt>
      <trkpt lat="44.09645" lon="7.71857">
        <ele>1845.019</ele>
        <time>2018-07-01T12:36:55Z</time>
      </trkpt>
      <trkpt lat="44.0965" lon="7.71848">
        <ele>1846.124</ele>
        <time>2018-07-01T12:36:56Z</time>
      </trkpt>
      <trkpt lat="44.09652" lon="7.71835">
        <ele>1846.945</ele>
        <time>2018-07-01T12:36:57Z</time>
      </trkpt>
      <trkpt lat="44.09651" lon="7.71823">
        <ele>1847.447</ele>
        <time>2018-07-01T12:36:58Z</time>
      </trkpt>
      <trkpt lat="44.09653" lon="7.71814">
        <ele>1849.229</ele>
        <time>2018-07-01T12:36:59Z</time>
      </trkpt>
      <trkpt lat="44.09654" lon="7.71803">
        <ele>1850.321</ele>
        <time>2018-07-01T12:37:00Z</time>
      </trkpt>
      <trkpt lat="44.09654" lon="7.71791">
        <ele>1851.708</ele>
        <time>2018-07-01T12:37:01Z</time>
      </trkpt>
      <trkpt lat="44.09655" lon="7.7178">
        <ele>1852.656</ele>
        <time>2018-07-01T12:37:02Z</time>
      </trkpt>
      <trkpt lat="44.09659" lon="7.71769">
        <ele>1852.22</ele>
        <time>2018-07-01T12:37:03Z</time>
      </trkpt>
      <trkpt lat="44.0966" lon="7.71758">
        <ele>1851.816</ele>
        <time>2018-07-01T12:37:04Z</time>
      </trkpt>
      <trkpt lat="44.09661" lon="7.71747">
        <ele>1850.719</ele>
        <time>2018-07-01T12:37:05Z</time>
      </trkpt>
      <trkpt lat="44.0966" lon="7.71734">
        <ele>1850.411</ele>
        <time>2018-07-01T12:37:06Z</time>
      </trkpt>
      <trkpt lat="44.09658" lon="7.71721">
        <ele>1850.344</ele>
        <time>2018-07-01T12:37:07Z</time>
      </trkpt>
      <trkpt lat="44.09658" lon="7.71711">
        <ele>1851.079</ele>
        <time>2018-07-01T12:37:08Z</time>
      </trkpt>
      <trkpt lat="44.09663" lon="7.717">
        <ele>1851.86</ele>
        <time>2018-07-01T12:37:09Z</time>
      </trkpt>
      <trkpt lat="44.09666" lon="7.71689">
        <ele>1853.258</ele>
        <time>2018-07-01T12:37:10Z</time>
      </trkpt>
      <trkpt lat="44.09672" lon="7.71679">
        <ele>1853.352</ele>
        <time>2018-07-01T12:37:11Z</time>
      </trkpt>
      <trkpt lat="44.09677" lon="7.7167">
        <ele>1853.317</ele>
        <time>2018-07-01T12:37:12Z</time>
      </trkpt>
      <trkpt lat="44.09681" lon="7.71663">
        <ele>1852.608</ele>
        <time>2018-07-01T12:37:13Z</time>
      </trkpt>
      <trkpt lat="44.09685" lon="7.71655">
        <ele>1853.447</ele>
        <time>2018-07-01T12:37:14Z</time>
      </trkpt>
      <trkpt lat="44.09689" lon="7.71645">
        <ele>1853.621</ele>
        <time>2018-07-01T12:37:15Z</time>
      </trkpt>
      <trkpt lat="44.09695" lon="7.71637">
        <ele>1854.637</ele>
        <time>2018-07-01T12:37:16Z</time>
      </trkpt>
      <trkpt lat="44.09701" lon="7.71629">
        <ele>1854.73</ele>
        <time>2018-07-01T12:37:17Z</time>
      </trkpt>
      <trkpt lat="44.09707" lon="7.71618">
        <ele>1855.752</ele>
        <time>2018-07-01T12:37:18Z</time>
      </trkpt>
      <trkpt lat="44.09715" lon="7.71609">
        <ele>1855.895</ele>
        <time>2018-07-01T12:37:19Z</time>
      </trkpt>
      <trkpt lat="44.09722" lon="7.71601">
        <ele>1855.75</ele>
        <time>2018-07-01T12:37:20Z</time>
      </trkpt>
      <trkpt lat="44.09729" lon="7.71592">
        <ele>1856.241</ele>
        <time>2018-07-01T12:37:21Z</time>
      </trkpt>
      <trkpt lat="44.09735" lon="7.71583">
        <ele>1856.289</ele>
        <time>2018-07-01T12:37:22Z</time>
      </trkpt>
      <trkpt lat="44.09741" lon="7.71574">
        <ele>1857.106</ele>
        <time>2018-07-01T12:37:23Z</time>
      </trkpt>
      <trkpt lat="44.09747" lon="7.71565">
        <ele>1856.926</ele>
        <time>2018-07-01T12:37:24Z</time>
      </trkpt>
      <trkpt lat="44.09751" lon="7.71558">
        <ele>1857.008</ele>
        <time>2018-07-01T12:37:25Z</time>
      </trkpt>
      <trkpt lat="44.09759" lon="7.71554">
        <ele>1856.99</ele>
        <time>2018-07-01T12:37:26Z</time>
      </trkpt>
      <trkpt lat="44.09765" lon="7.7155">
        <ele>1856.964</ele>
        <time>2018-07-01T12:37:27Z</time>
      </trkpt>
      <trkpt lat="44.09771" lon="7.71548">
        <ele>1857.49</ele>
        <time>2018-07-01T12:37:28Z</time>
      </trkpt>
      <trkpt lat="44.0978" lon="7.71548">
        <ele>1857.573</ele>
        <time>2018-07-01T12:37:29Z</time>
      </trkpt>
      <trkpt lat="44.09788" lon="7.71551">
        <ele>1857.425</ele>
        <time>2018-07-01T12:37:30Z</time>
      </trkpt>
      <trkpt lat="44.09797" lon="7.7156">
        <ele>1858.088</ele>
        <time>2018-07-01T12:37:31Z</time>
      </trkpt>
      <trkpt lat="44.09804" lon="7.71567">
        <ele>1857.983</ele>
        <time>2018-07-01T12:37:32Z</time>
      </trkpt>
      <trkpt lat="44.09808" lon="7.71578">
        <ele>1857.494</ele>
        <time>2018-07-01T12:37:33Z</time>
      </trkpt>
      <trkpt lat="44.09812" lon="7.71588">
        <ele>1856.468</ele>
        <time>2018-07-01T12:37:34Z</time>
      </trkpt>
      <trkpt lat="44.09817" lon="7.71598">
        <ele>1855.842</ele>
        <time>2018-07-01T12:37:35Z</time>
      </trkpt>
      <trkpt lat="44.09826" lon="7.71607">
        <ele>1855.726</ele>
        <time>2018-07-01T12:37:36Z</time>
      </trkpt>
      <trkpt lat="44.09832" lon="7.71614">
        <ele>1854.508</ele>
        <time>2018-07-01T12:37:37Z</time>
      </trkpt>
      <trkpt lat="44.09842" lon="7.71624">
        <ele>1855.658</ele>
        <time>2018-07-01T12:37:38Z</time>
      </trkpt>
      <trkpt lat="44.09852" lon="7.7163">
        <ele>1856.532</ele>
        <time>2018-07-01T12:37:39Z</time>
      </trkpt>
      <trkpt lat="44.09863" lon="7.71638">
        <ele>1855.968</ele>
        <time>2018-07-01T12:37:40Z</time>
      </trkpt>
      <trkpt lat="44.09873" lon="7.71646">
        <ele>1854.891</ele>
        <time>2018-07-01T12:37:41Z</time>
      </trkpt>
      <trkpt lat="44.0988" lon="7.71657">
        <ele>1853.883</ele>
        <time>2018-07-01T12:37:42Z</time>
      </trkpt>
      <trkpt lat="44.09886" lon="7.71667">
        <ele>1852.956</ele>
        <time>2018-07-01T12:37:43Z</time>
      </trkpt>
      <trkpt lat="44.09894" lon="7.71684">
        <ele>1852.541</ele>
        <time>2018-07-01T12:37:44Z</time>
      </trkpt>
      <trkpt lat="44.09902" lon="7.71697">
        <ele>1852.932</ele>
        <time>2018-07-01T12:37:45Z</time>
      </trkpt>
      <trkpt lat="44.09907" lon="7.71708">
        <ele>1852.354</ele>
        <time>2018-07-01T12:37:46Z</time>
      </trkpt>
      <trkpt lat="44.09911" lon="7.7172">
        <ele>1852.456</ele>
        <time>2018-07-01T12:37:47Z</time>
      </trkpt>
      <trkpt lat="44.09919" lon="7.7173">
        <ele>1852.111</ele>
        <time>2018-07-01T12:37:48Z</time>
      </trkpt>
      <trkpt lat="44.09923" lon="7.71737">
        <ele>1851.008</ele>
        <time>2018-07-01T12:37:49Z</time>
      </trkpt>
      <trkpt lat="44.09927" lon="7.71745">
        <ele>1850.467</ele>
        <time>2018-07-01T12:37:50Z</time>
      </trkpt>
      <trkpt lat="44.09932" lon="7.71751">
        <ele>1850.021</ele>
        <time>2018-07-01T12:37:51Z</time>
      </trkpt>
      <trkpt lat="44.09937" lon="7.71757">
        <ele>1850.787</ele>
        <time>2018-07-01T12:37:52Z</time>
      </trkpt>
      <trkpt lat="44.09943" lon="7.71762">
        <ele>1850.78</ele>
        <time>2018-07-01T12:37:53Z</time>
      </trkpt>
      <trkpt lat="44.09955" lon="7.71762">
        <ele>1851.612</ele>
        <time>2018-07-01T12:37:54Z</time>
      </trkpt>
      <trkpt lat="44.09962" lon="7.71762">
        <ele>1852.145</ele>
        <time>2018-07-01T12:37:55Z</time>
      </trkpt>
      <trkpt lat="44.0997" lon="7.71765">
        <ele>1852.15</ele>
        <time>2018-07-01T12:37:56Z</time>
      </trkpt>
      <trkpt lat="44.09979" lon="7.7177">
        <ele>1852.281</ele>
        <time>2018-07-01T12:37:57Z</time>
      </trkpt>
      <trkpt lat="44.09988" lon="7.71773">
        <ele>1852.599</ele>
        <time>2018-07-01T12:37:58Z</time>
      </trkpt>
      <trkpt lat="44.09997" lon="7.71776">
        <ele>1852.207</ele>
        <time>2018-07-01T12:37:59Z</time>
      </trkpt>
      <trkpt lat="44.1001" lon="7.71792">
        <ele>1852.127</ele>
        <time>2018-07-01T12:38:00Z</time>
      </trkpt>
      <trkpt lat="44.10022" lon="7.71799">
        <ele>1851.508</ele>
        <time>2018-07-01T12:38:01Z</time>
      </trkpt>
      <trkpt lat="44.10035" lon="7.71812">
        <ele>1851.661</ele>
        <time>2018-07-01T12:38:02Z</time>
      </trkpt>
      <trkpt lat="44.10042" lon="7.71816">
        <ele>1851.365</ele>
        <time>2018-07-01T12:38:03Z</time>
      </trkpt>
      <trkpt lat="44.10049" lon="7.71825">
        <ele>1851.861</ele>
        <time>2018-07-01T12:38:04Z</time>
      </trkpt>
      <trkpt lat="44.10057" lon="7.71835">
        <ele>1852.394</ele>
        <time>2018-07-01T12:38:05Z</time>
      </trkpt>
      <trkpt lat="44.10065" lon="7.71844">
        <ele>1852.486</ele>
        <time>2018-07-01T12:38:06Z</time>
      </trkpt>
      <trkpt lat="44.10072" lon="7.71852">
        <ele>1851.939</ele>
        <time>2018-07-01T12:38:07Z</time>
      </trkpt>
      <trkpt lat="44.1008" lon="7.7186">
        <ele>1852.044</ele>
        <time>2018-07-01T12:38:08Z</time>
      </trkpt>
      <trkpt lat="44.10088" lon="7.71869">
        <ele>1852.165</ele>
        <time>2018-07-01T12:38:09Z</time>
      </trkpt>
      <trkpt lat="44.10096" lon="7.71877">
        <ele>1852.448</ele>
        <time>2018-07-01T12:38:10Z</time>
      </trkpt>
      <trkpt lat="44.10106" lon="7.71887">
        <ele>1852.861</ele>
        <time>2018-07-01T12:38:11Z</time>
      </trkpt>
      <trkpt lat="44.10114" lon="7.71893">
        <ele>1853.217</ele>
        <time>2018-07-01T12:38:12Z</time>
      </trkpt>
      <trkpt lat="44.10122" lon="7.71898">
        <ele>1853.208</ele>
        <time>2018-07-01T12:38:13Z</time>
      </trkpt>
      <trkpt lat="44.1013" lon="7.71901">
        <ele>1853.666</ele>
        <time>2018-07-01T12:38:14Z</time>
      </trkpt>
      <trkpt lat="44.10139" lon="7.71903">
        <ele>1854.55</ele>
        <time>2018-07-01T12:38:15Z</time>
      </trkpt>
      <trkpt lat="44.10147" lon="7.71903">
        <ele>1854.536</ele>
        <time>2018-07-01T12:38:16Z</time>
      </trkpt>
      <trkpt lat="44.10156" lon="7.71903">
        <ele>1854.669</ele>
        <time>2018-07-01T12:38:17Z</time>
      </trkpt>
      <trkpt lat="44.10165" lon="7.719">
        <ele>1854.971</ele>
        <time>2018-07-01T12:38:18Z</time>
      </trkpt>
      <trkpt lat="44.10171" lon="7.71895">
        <ele>1855.254</ele>
        <time>2018-07-01T12:38:19Z</time>
      </trkpt>
      <trkpt lat="44.10175" lon="7.71887">
        <ele>1855.239</ele>
        <time>2018-07-01T12:38:20Z</time>
      </trkpt>
      <trkpt lat="44.10182" lon="7.71882">
        <ele>1855.96</ele>
        <time>2018-07-01T12:38:21Z</time>
      </trkpt>
      <trkpt lat="44.10191" lon="7.71874">
        <ele>1856.192</ele>
        <time>2018-07-01T12:38:22Z</time>
      </trkpt>
      <trkpt lat="44.10199" lon="7.71865">
        <ele>1856.073</ele>
        <time>2018-07-01T12:38:23Z</time>
      </trkpt>
      <trkpt lat="44.10207" lon="7.71858">
        <ele>1856.02</ele>
        <time>2018-07-01T12:38:24Z</time>
      </trkpt>
      <trkpt lat="44.10215" lon="7.71852">
        <ele>1856.608</ele>
        <time>2018-07-01T12:38:25Z</time>
      </trkpt>
      <trkpt lat="44.10223" lon="7.71846">
        <ele>1856.511</ele>
        <time>2018-07-01T12:38:26Z</time>
      </trkpt>
      <trkpt lat="44.10232" lon="7.71845">
        <ele>1857.845</ele>
        <time>2018-07-01T12:38:27Z</time>
      </trkpt>
      <trkpt lat="44.10239" lon="7.71844">
        <ele>1858.621</ele>
        <time>2018-07-01T12:38:28Z</time>
      </trkpt>
      <trkpt lat="44.10247" lon="7.71843">
        <ele>1858.754</ele>
        <time>2018-07-01T12:38:29Z</time>
      </trkpt>
      <trkpt lat="44.10256" lon="7.71844">
        <ele>1859.076</ele>
        <time>2018-07-01T12:38:30Z</time>
      </trkpt>
      <trkpt lat="44.10265" lon="7.71847">
        <ele>1858.899</ele>
        <time>2018-07-01T12:38:31Z</time>
      </trkpt>
      <trkpt lat="44.10274" lon="7.71848">
        <ele>1859.424</ele>
        <time>2018-07-01T12:38:32Z</time>
      </trkpt>
      <trkpt lat="44.10281" lon="7.71847">
        <ele>1859.945</ele>
        <time>2018-07-01T12:38:33Z</time>
      </trkpt>
      <trkpt lat="44.10288" lon="7.71845">
        <ele>1860.719</ele>
        <time>2018-07-01T12:38:34Z</time>
      </trkpt>
      <trkpt lat="44.10293" lon="7.71839">
        <ele>1858.909</ele>
        <time>2018-07-01T12:38:36Z</time>
      </trkpt>
      <trkpt lat="44.10297" lon="7.71826">
        <ele>1860.019</ele>
        <time>2018-07-01T12:38:38Z</time>
      </trkpt>
      <trkpt lat="44.10298" lon="7.71816">
        <ele>1860.408</ele>
        <time>2018-07-01T12:38:39Z</time>
      </trkpt>
      <trkpt lat="44.10298" lon="7.71806">
        <ele>1860.253</ele>
        <time>2018-07-01T12:38:40Z</time>
      </trkpt>
      <trkpt lat="44.10297" lon="7.71792">
        <ele>1861.927</ele>
        <time>2018-07-01T12:38:41Z</time>
      </trkpt>
      <trkpt lat="44.10297" lon="7.7178">
        <ele>1862.093</ele>
        <time>2018-07-01T12:38:42Z</time>
      </trkpt>
      <trkpt lat="44.10298" lon="7.7177">
        <ele>1861.816</ele>
        <time>2018-07-01T12:38:43Z</time>
      </trkpt>
      <trkpt lat="44.10298" lon="7.7176">
        <ele>1861.468</ele>
        <time>2018-07-01T12:38:44Z</time>
      </trkpt>
      <trkpt lat="44.10296" lon="7.71753">
        <ele>1861.351</ele>
        <time>2018-07-01T12:38:45Z</time>
      </trkpt>
      <trkpt lat="44.10295" lon="7.71744">
        <ele>1861.446</ele>
        <time>2018-07-01T12:38:46Z</time>
      </trkpt>
      <trkpt lat="44.10291" lon="7.71736">
        <ele>1860.757</ele>
        <time>2018-07-01T12:38:47Z</time>
      </trkpt>
      <trkpt lat="44.10287" lon="7.71731">
        <ele>1860.377</ele>
        <time>2018-07-01T12:38:48Z</time>
      </trkpt>
      <trkpt lat="44.10279" lon="7.71723">
        <ele>1860.161</ele>
        <time>2018-07-01T12:38:50Z</time>
      </trkpt>
      <trkpt lat="44.10273" lon="7.71718">
        <ele>1861.627</ele>
        <time>2018-07-01T12:38:51Z</time>
      </trkpt>
      <trkpt lat="44.10266" lon="7.71714">
        <ele>1862.408</ele>
        <time>2018-07-01T12:38:52Z</time>
      </trkpt>
      <trkpt lat="44.10259" lon="7.7171">
        <ele>1862.499</ele>
        <time>2018-07-01T12:38:54Z</time>
      </trkpt>
      <trkpt lat="44.10253" lon="7.71706">
        <ele>1863.453</ele>
        <time>2018-07-01T12:38:55Z</time>
      </trkpt>
      <trkpt lat="44.10247" lon="7.717">
        <ele>1864.369</ele>
        <time>2018-07-01T12:38:56Z</time>
      </trkpt>
      <trkpt lat="44.10238" lon="7.71693">
        <ele>1865.532</ele>
        <time>2018-07-01T12:38:58Z</time>
      </trkpt>
      <trkpt lat="44.10229" lon="7.71688">
        <ele>1866.394</ele>
        <time>2018-07-01T12:39:00Z</time>
      </trkpt>
      <trkpt lat="44.10224" lon="7.71682">
        <ele>1866.617</ele>
        <time>2018-07-01T12:39:01Z</time>
      </trkpt>
      <trkpt lat="44.10218" lon="7.71676">
        <ele>1867.242</ele>
        <time>2018-07-01T12:39:02Z</time>
      </trkpt>
      <trkpt lat="44.10207" lon="7.71668">
        <ele>1867.863</ele>
        <time>2018-07-01T12:39:04Z</time>
      </trkpt>
      <trkpt lat="44.10202" lon="7.71667">
        <ele>1868.056</ele>
        <time>2018-07-01T12:39:05Z</time>
      </trkpt>
      <trkpt lat="44.10195" lon="7.71664">
        <ele>1869.159</ele>
        <time>2018-07-01T12:39:06Z</time>
      </trkpt>
      <trkpt lat="44.10183" lon="7.71656">
        <ele>1871.814</ele>
        <time>2018-07-01T12:39:08Z</time>
      </trkpt>
      <trkpt lat="44.10178" lon="7.71646">
        <ele>1873.008</ele>
        <time>2018-07-01T12:39:09Z</time>
      </trkpt>
      <trkpt lat="44.10175" lon="7.71629">
        <ele>1871.947</ele>
        <time>2018-07-01T12:39:10Z</time>
      </trkpt>
      <trkpt lat="44.10171" lon="7.7162">
        <ele>1871.461</ele>
        <time>2018-07-01T12:39:11Z</time>
      </trkpt>
      <trkpt lat="44.10166" lon="7.7161">
        <ele>1871.957</ele>
        <time>2018-07-01T12:39:12Z</time>
      </trkpt>
      <trkpt lat="44.10162" lon="7.71596">
        <ele>1871.56</ele>
        <time>2018-07-01T12:39:13Z</time>
      </trkpt>
      <trkpt lat="44.10157" lon="7.71586">
        <ele>1871.952</ele>
        <time>2018-07-01T12:39:14Z</time>
      </trkpt>
      <trkpt lat="44.10153" lon="7.71573">
        <ele>1872.175</ele>
        <time>2018-07-01T12:39:15Z</time>
      </trkpt>
      <trkpt lat="44.10148" lon="7.71561">
        <ele>1874.58</ele>
        <time>2018-07-01T12:39:16Z</time>
      </trkpt>
      <trkpt lat="44.10147" lon="7.71549">
        <ele>1877.291</ele>
        <time>2018-07-01T12:39:17Z</time>
      </trkpt>
      <trkpt lat="44.10149" lon="7.71543">
        <ele>1879.148</ele>
        <time>2018-07-01T12:39:18Z</time>
      </trkpt>
      <trkpt lat="44.10149" lon="7.71533">
        <ele>1878.361</ele>
        <time>2018-07-01T12:39:20Z</time>
      </trkpt>
      <trkpt lat="44.10153" lon="7.71525">
        <ele>1879.017</ele>
        <time>2018-07-01T12:39:21Z</time>
      </trkpt>
      <trkpt lat="44.10155" lon="7.71518">
        <ele>1879.308</ele>
        <time>2018-07-01T12:39:22Z</time>
      </trkpt>
      <trkpt lat="44.10163" lon="7.71515">
        <ele>1879.366</ele>
        <time>2018-07-01T12:39:23Z</time>
      </trkpt>
      <trkpt lat="44.10167" lon="7.71509">
        <ele>1879.03</ele>
        <time>2018-07-01T12:39:24Z</time>
      </trkpt>
      <trkpt lat="44.1017" lon="7.71501">
        <ele>1879.276</ele>
        <time>2018-07-01T12:39:25Z</time>
      </trkpt>
      <trkpt lat="44.10172" lon="7.71495">
        <ele>1879.119</ele>
        <time>2018-07-01T12:39:26Z</time>
      </trkpt>
      <trkpt lat="44.10177" lon="7.71489">
        <ele>1878.761</ele>
        <time>2018-07-01T12:39:27Z</time>
      </trkpt>
      <trkpt lat="44.10183" lon="7.71482">
        <ele>1878.364</ele>
        <time>2018-07-01T12:39:28Z</time>
      </trkpt>
      <trkpt lat="44.10187" lon="7.71474">
        <ele>1878.379</ele>
        <time>2018-07-01T12:39:29Z</time>
      </trkpt>
      <trkpt lat="44.1019" lon="7.71463">
        <ele>1878.17</ele>
        <time>2018-07-01T12:39:30Z</time>
      </trkpt>
      <trkpt lat="44.10191" lon="7.71452">
        <ele>1878.092</ele>
        <time>2018-07-01T12:39:31Z</time>
      </trkpt>
      <trkpt lat="44.10192" lon="7.71441">
        <ele>1878.273</ele>
        <time>2018-07-01T12:39:32Z</time>
      </trkpt>
      <trkpt lat="44.10198" lon="7.71434">
        <ele>1879.12</ele>
        <time>2018-07-01T12:39:33Z</time>
      </trkpt>
      <trkpt lat="44.10201" lon="7.71425">
        <ele>1878.908</ele>
        <time>2018-07-01T12:39:34Z</time>
      </trkpt>
      <trkpt lat="44.10205" lon="7.71417">
        <ele>1879.261</ele>
        <time>2018-07-01T12:39:35Z</time>
      </trkpt>
      <trkpt lat="44.10201" lon="7.71405">
        <ele>1879.775</ele>
        <time>2018-07-01T12:39:36Z</time>
      </trkpt>
      <trkpt lat="44.10203" lon="7.71396">
        <ele>1881.941</ele>
        <time>2018-07-01T12:39:37Z</time>
      </trkpt>
      <trkpt lat="44.10204" lon="7.71388">
        <ele>1882.164</ele>
        <time>2018-07-01T12:39:38Z</time>
      </trkpt>
      <trkpt lat="44.10206" lon="7.71378">
        <ele>1881.876</ele>
        <time>2018-07-01T12:39:39Z</time>
      </trkpt>
      <trkpt lat="44.10206" lon="7.71367">
        <ele>1881.939</ele>
        <time>2018-07-01T12:39:40Z</time>
      </trkpt>
      <trkpt lat="44.10204" lon="7.71356">
        <ele>1882.054</ele>
        <time>2018-07-01T12:39:41Z</time>
      </trkpt>
      <trkpt lat="44.10205" lon="7.71347">
        <ele>1883.175</ele>
        <time>2018-07-01T12:39:42Z</time>
      </trkpt>
      <trkpt lat="44.10205" lon="7.71339">
        <ele>1884.286</ele>
        <time>2018-07-01T12:39:43Z</time>
      </trkpt>
      <trkpt lat="44.10202" lon="7.71332">
        <ele>1884.96</ele>
        <time>2018-07-01T12:39:44Z</time>
      </trkpt>
      <trkpt lat="44.10201" lon="7.71324">
        <ele>1885.126</ele>
        <time>2018-07-01T12:39:45Z</time>
      </trkpt>
      <trkpt lat="44.10203" lon="7.71316">
        <ele>1885.308</ele>
        <time>2018-07-01T12:39:46Z</time>
      </trkpt>
      <trkpt lat="44.102" lon="7.71309">
        <ele>1885.48</ele>
        <time>2018-07-01T12:39:47Z</time>
      </trkpt>
      <trkpt lat="44.10205" lon="7.71299">
        <ele>1886.574</ele>
        <time>2018-07-01T12:39:48Z</time>
      </trkpt>
      <trkpt lat="44.10208" lon="7.71287">
        <ele>1886.03</ele>
        <time>2018-07-01T12:39:49Z</time>
      </trkpt>
      <trkpt lat="44.1021" lon="7.71278">
        <ele>1885.833</ele>
        <time>2018-07-01T12:39:50Z</time>
      </trkpt>
      <trkpt lat="44.10214" lon="7.71268">
        <ele>1886.175</ele>
        <time>2018-07-01T12:39:51Z</time>
      </trkpt>
      <trkpt lat="44.10218" lon="7.71258">
        <ele>1885.968</ele>
        <time>2018-07-01T12:39:52Z</time>
      </trkpt>
      <trkpt lat="44.10223" lon="7.71248">
        <ele>1885.263</ele>
        <time>2018-07-01T12:39:53Z</time>
      </trkpt>
      <trkpt lat="44.10227" lon="7.71239">
        <ele>1885.084</ele>
        <time>2018-07-01T12:39:54Z</time>
      </trkpt>
      <trkpt lat="44.10229" lon="7.71231">
        <ele>1884.929</ele>
        <time>2018-07-01T12:39:55Z</time>
      </trkpt>
      <trkpt lat="44.10232" lon="7.71221">
        <ele>1885.3</ele>
        <time>2018-07-01T12:39:56Z</time>
      </trkpt>
      <trkpt lat="44.10234" lon="7.71209">
        <ele>1885.12</ele>
        <time>2018-07-01T12:39:57Z</time>
      </trkpt>
      <trkpt lat="44.10236" lon="7.71199">
        <ele>1885.408</ele>
        <time>2018-07-01T12:39:58Z</time>
      </trkpt>
      <trkpt lat="44.10238" lon="7.71188">
        <ele>1885.254</ele>
        <time>2018-07-01T12:39:59Z</time>
      </trkpt>
      <trkpt lat="44.1024" lon="7.71178">
        <ele>1885.648</ele>
        <time>2018-07-01T12:40:00Z</time>
      </trkpt>
      <trkpt lat="44.10242" lon="7.7117">
        <ele>1886.374</ele>
        <time>2018-07-01T12:40:01Z</time>
      </trkpt>
      <trkpt lat="44.10242" lon="7.71161">
        <ele>1886.617</ele>
        <time>2018-07-01T12:40:02Z</time>
      </trkpt>
      <trkpt lat="44.10244" lon="7.71149">
        <ele>1887.379</ele>
        <time>2018-07-01T12:40:04Z</time>
      </trkpt>
      <trkpt lat="44.10244" lon="7.71141">
        <ele>1887.272</ele>
        <time>2018-07-01T12:40:05Z</time>
      </trkpt>
      <trkpt lat="44.10245" lon="7.71132">
        <ele>1887.487</ele>
        <time>2018-07-01T12:40:06Z</time>
      </trkpt>
      <trkpt lat="44.10246" lon="7.71122">
        <ele>1887.548</ele>
        <time>2018-07-01T12:40:07Z</time>
      </trkpt>
      <trkpt lat="44.10246" lon="7.71111">
        <ele>1888.532</ele>
        <time>2018-07-01T12:40:08Z</time>
      </trkpt>
      <trkpt lat="44.10247" lon="7.711">
        <ele>1888.992</ele>
        <time>2018-07-01T12:40:09Z</time>
      </trkpt>
      <trkpt lat="44.10248" lon="7.71091">
        <ele>1889.311</ele>
        <time>2018-07-01T12:40:10Z</time>
      </trkpt>
      <trkpt lat="44.10247" lon="7.71077">
        <ele>1889.308</ele>
        <time>2018-07-01T12:40:11Z</time>
      </trkpt>
      <trkpt lat="44.10246" lon="7.71066">
        <ele>1889.615</ele>
        <time>2018-07-01T12:40:12Z</time>
      </trkpt>
      <trkpt lat="44.10244" lon="7.71053">
        <ele>1889.989</ele>
        <time>2018-07-01T12:40:13Z</time>
      </trkpt>
      <trkpt lat="44.10246" lon="7.71043">
        <ele>1890.025</ele>
        <time>2018-07-01T12:40:14Z</time>
      </trkpt>
      <trkpt lat="44.10248" lon="7.71032">
        <ele>1890.398</ele>
        <time>2018-07-01T12:40:15Z</time>
      </trkpt>
      <trkpt lat="44.10246" lon="7.71021">
        <ele>1890.44</ele>
        <time>2018-07-01T12:40:16Z</time>
      </trkpt>
      <trkpt lat="44.10249" lon="7.71012">
        <ele>1891.123</ele>
        <time>2018-07-01T12:40:17Z</time>
      </trkpt>
      <trkpt lat="44.10251" lon="7.71001">
        <ele>1891.228</ele>
        <time>2018-07-01T12:40:18Z</time>
      </trkpt>
      <trkpt lat="44.10252" lon="7.7099">
        <ele>1891.539</ele>
        <time>2018-07-01T12:40:19Z</time>
      </trkpt>
      <trkpt lat="44.10255" lon="7.70981">
        <ele>1891.858</ele>
        <time>2018-07-01T12:40:20Z</time>
      </trkpt>
      <trkpt lat="44.10256" lon="7.7097">
        <ele>1892.152</ele>
        <time>2018-07-01T12:40:21Z</time>
      </trkpt>
      <trkpt lat="44.10257" lon="7.70962">
        <ele>1892.617</ele>
        <time>2018-07-01T12:40:22Z</time>
      </trkpt>
      <trkpt lat="44.10256" lon="7.70954">
        <ele>1893.408</ele>
        <time>2018-07-01T12:40:23Z</time>
      </trkpt>
      <trkpt lat="44.10259" lon="7.70948">
        <ele>1894.377</ele>
        <time>2018-07-01T12:40:24Z</time>
      </trkpt>
      <trkpt lat="44.10261" lon="7.70941">
        <ele>1894.911</ele>
        <time>2018-07-01T12:40:26Z</time>
      </trkpt>
      <trkpt lat="44.10267" lon="7.70933">
        <ele>1894.637</ele>
        <time>2018-07-01T12:40:28Z</time>
      </trkpt>
      <trkpt lat="44.10272" lon="7.70931">
        <ele>1895.36</ele>
        <time>2018-07-01T12:40:29Z</time>
      </trkpt>
      <trkpt lat="44.10278" lon="7.7093">
        <ele>1895.582</ele>
        <time>2018-07-01T12:40:30Z</time>
      </trkpt>
      <trkpt lat="44.10285" lon="7.70932">
        <ele>1896.325</ele>
        <time>2018-07-01T12:40:31Z</time>
      </trkpt>
      <trkpt lat="44.10293" lon="7.70934">
        <ele>1896.35</ele>
        <time>2018-07-01T12:40:32Z</time>
      </trkpt>
      <trkpt lat="44.10301" lon="7.70938">
        <ele>1896.541</ele>
        <time>2018-07-01T12:40:33Z</time>
      </trkpt>
      <trkpt lat="44.10309" lon="7.70943">
        <ele>1896.982</ele>
        <time>2018-07-01T12:40:34Z</time>
      </trkpt>
      <trkpt lat="44.1032" lon="7.70951">
        <ele>1897.443</ele>
        <time>2018-07-01T12:40:35Z</time>
      </trkpt>
      <trkpt lat="44.10328" lon="7.70954">
        <ele>1898.017</ele>
        <time>2018-07-01T12:40:36Z</time>
      </trkpt>
      <trkpt lat="44.10336" lon="7.70957">
        <ele>1898.908</ele>
        <time>2018-07-01T12:40:37Z</time>
      </trkpt>
      <trkpt lat="44.10345" lon="7.7096">
        <ele>1899.41</ele>
        <time>2018-07-01T12:40:38Z</time>
      </trkpt>
      <trkpt lat="44.10356" lon="7.70962">
        <ele>1900.174</ele>
        <time>2018-07-01T12:40:39Z</time>
      </trkpt>
      <trkpt lat="44.10365" lon="7.70963">
        <ele>1900.23</ele>
        <time>2018-07-01T12:40:40Z</time>
      </trkpt>
      <trkpt lat="44.10375" lon="7.70965">
        <ele>1901.223</ele>
        <time>2018-07-01T12:40:41Z</time>
      </trkpt>
      <trkpt lat="44.10385" lon="7.70965">
        <ele>1901.255</ele>
        <time>2018-07-01T12:40:42Z</time>
      </trkpt>
      <trkpt lat="44.10392" lon="7.70964">
        <ele>1901.978</ele>
        <time>2018-07-01T12:40:43Z</time>
      </trkpt>
      <trkpt lat="44.104" lon="7.70964">
        <ele>1902.623</ele>
        <time>2018-07-01T12:40:44Z</time>
      </trkpt>
      <trkpt lat="44.10411" lon="7.70965">
        <ele>1902.814</ele>
        <time>2018-07-01T12:40:45Z</time>
      </trkpt>
      <trkpt lat="44.1042" lon="7.70968">
        <ele>1903.421</ele>
        <time>2018-07-01T12:40:46Z</time>
      </trkpt>
      <trkpt lat="44.10427" lon="7.70973">
        <ele>1903.341</ele>
        <time>2018-07-01T12:40:47Z</time>
      </trkpt>
      <trkpt lat="44.10436" lon="7.70978">
        <ele>1904.805</ele>
        <time>2018-07-01T12:40:48Z</time>
      </trkpt>
      <trkpt lat="44.10442" lon="7.70984">
        <ele>1905.108</ele>
        <time>2018-07-01T12:40:49Z</time>
      </trkpt>
      <trkpt lat="44.10449" lon="7.70991">
        <ele>1905.514</ele>
        <time>2018-07-01T12:40:50Z</time>
      </trkpt>
      <trkpt lat="44.10458" lon="7.70999">
        <ele>1906.598</ele>
        <time>2018-07-01T12:40:51Z</time>
      </trkpt>
      <trkpt lat="44.10466" lon="7.71007">
        <ele>1906.864</ele>
        <time>2018-07-01T12:40:52Z</time>
      </trkpt>
      <trkpt lat="44.10473" lon="7.71015">
        <ele>1907.067</ele>
        <time>2018-07-01T12:40:53Z</time>
      </trkpt>
      <trkpt lat="44.10479" lon="7.7102">
        <ele>1907.279</ele>
        <time>2018-07-01T12:40:54Z</time>
      </trkpt>
      <trkpt lat="44.10484" lon="7.71026">
        <ele>1907.122</ele>
        <time>2018-07-01T12:40:55Z</time>
      </trkpt>
      <trkpt lat="44.10488" lon="7.71029">
        <ele>1906.877</ele>
        <time>2018-07-01T12:40:56Z</time>
      </trkpt>
      <trkpt lat="44.10492" lon="7.71033">
        <ele>1907.068</ele>
        <time>2018-07-01T12:40:57Z</time>
      </trkpt>
      <trkpt lat="44.10496" lon="7.71037">
        <ele>1907.234</ele>
        <time>2018-07-01T12:40:58Z</time>
      </trkpt>
      <trkpt lat="44.10499" lon="7.71041">
        <ele>1908.055</ele>
        <time>2018-07-01T12:40:59Z</time>
      </trkpt>
      <trkpt lat="44.10507" lon="7.71044">
        <ele>1908.21</ele>
        <time>2018-07-01T12:41:01Z</time>
      </trkpt>
      <trkpt lat="44.10513" lon="7.71043">
        <ele>1906.408</ele>
        <time>2018-07-01T12:41:02Z</time>
      </trkpt>
      <trkpt lat="44.10518" lon="7.7104">
        <ele>1905.365</ele>
        <time>2018-07-01T12:41:03Z</time>
      </trkpt>
      <trkpt lat="44.10523" lon="7.71038">
        <ele>1905.089</ele>
        <time>2018-07-01T12:41:04Z</time>
      </trkpt>
      <trkpt lat="44.10528" lon="7.71031">
        <ele>1904.625</ele>
        <time>2018-07-01T12:41:05Z</time>
      </trkpt>
      <trkpt lat="44.10533" lon="7.71026">
        <ele>1905.328</ele>
        <time>2018-07-01T12:41:06Z</time>
      </trkpt>
      <trkpt lat="44.10539" lon="7.71019">
        <ele>1905.33</ele>
        <time>2018-07-01T12:41:07Z</time>
      </trkpt>
      <trkpt lat="44.10545" lon="7.71011">
        <ele>1904.223</ele>
        <time>2018-07-01T12:41:08Z</time>
      </trkpt>
      <trkpt lat="44.10553" lon="7.71005">
        <ele>1904.868</ele>
        <time>2018-07-01T12:41:09Z</time>
      </trkpt>
      <trkpt lat="44.10559" lon="7.70997">
        <ele>1905.099</ele>
        <time>2018-07-01T12:41:10Z</time>
      </trkpt>
      <trkpt lat="44.10563" lon="7.70984">
        <ele>1905.238</ele>
        <time>2018-07-01T12:41:11Z</time>
      </trkpt>
      <trkpt lat="44.1057" lon="7.70976">
        <ele>1905.37</ele>
        <time>2018-07-01T12:41:12Z</time>
      </trkpt>
      <trkpt lat="44.10575" lon="7.70964">
        <ele>1905.317</ele>
        <time>2018-07-01T12:41:13Z</time>
      </trkpt>
      <trkpt lat="44.10582" lon="7.70956">
        <ele>1905.308</ele>
        <time>2018-07-01T12:41:14Z</time>
      </trkpt>
      <trkpt lat="44.10587" lon="7.70948">
        <ele>1905.455</ele>
        <time>2018-07-01T12:41:15Z</time>
      </trkpt>
      <trkpt lat="44.10591" lon="7.70937">
        <ele>1906.249</ele>
        <time>2018-07-01T12:41:16Z</time>
      </trkpt>
      <trkpt lat="44.10599" lon="7.7093">
        <ele>1906.065</ele>
        <time>2018-07-01T12:41:17Z</time>
      </trkpt>
      <trkpt lat="44.1061" lon="7.70922">
        <ele>1903.238</ele>
        <time>2018-07-01T12:41:18Z</time>
      </trkpt>
      <trkpt lat="44.10618" lon="7.70915">
        <ele>1902.72</ele>
        <time>2018-07-01T12:41:19Z</time>
      </trkpt>
      <trkpt lat="44.10625" lon="7.70909">
        <ele>1901.133</ele>
        <time>2018-07-01T12:41:20Z</time>
      </trkpt>
      <trkpt lat="44.10632" lon="7.70903">
        <ele>1900.938</ele>
        <time>2018-07-01T12:41:21Z</time>
      </trkpt>
      <trkpt lat="44.10636" lon="7.70897">
        <ele>1901.639</ele>
        <time>2018-07-01T12:41:22Z</time>
      </trkpt>
      <trkpt lat="44.10645" lon="7.70892">
        <ele>1902.022</ele>
        <time>2018-07-01T12:41:23Z</time>
      </trkpt>
      <trkpt lat="44.1065" lon="7.70886">
        <ele>1901.162</ele>
        <time>2018-07-01T12:41:24Z</time>
      </trkpt>
      <trkpt lat="44.10655" lon="7.70875">
        <ele>1901.408</ele>
        <time>2018-07-01T12:41:25Z</time>
      </trkpt>
      <trkpt lat="44.1066" lon="7.70864">
        <ele>1901.208</ele>
        <time>2018-07-01T12:41:26Z</time>
      </trkpt>
      <trkpt lat="44.10664" lon="7.70853">
        <ele>1901.354</ele>
        <time>2018-07-01T12:41:27Z</time>
      </trkpt>
      <trkpt lat="44.1067" lon="7.70842">
        <ele>1901.948</ele>
        <time>2018-07-01T12:41:28Z</time>
      </trkpt>
      <trkpt lat="44.10674" lon="7.70831">
        <ele>1902.224</ele>
        <time>2018-07-01T12:41:29Z</time>
      </trkpt>
      <trkpt lat="44.10679" lon="7.70819">
        <ele>1902.117</ele>
        <time>2018-07-01T12:41:30Z</time>
      </trkpt>
      <trkpt lat="44.10685" lon="7.70808">
        <ele>1901.959</ele>
        <time>2018-07-01T12:41:31Z</time>
      </trkpt>
      <trkpt lat="44.10691" lon="7.70799">
        <ele>1901.152</ele>
        <time>2018-07-01T12:41:32Z</time>
      </trkpt>
      <trkpt lat="44.10696" lon="7.70789">
        <ele>1900.367</ele>
        <time>2018-07-01T12:41:33Z</time>
      </trkpt>
      <trkpt lat="44.10701" lon="7.70781">
        <ele>1900.918</ele>
        <time>2018-07-01T12:41:34Z</time>
      </trkpt>
      <trkpt lat="44.10707" lon="7.70772">
        <ele>1900.969</ele>
        <time>2018-07-01T12:41:35Z</time>
      </trkpt>
      <trkpt lat="44.1071" lon="7.70761">
        <ele>1901.204</ele>
        <time>2018-07-01T12:41:36Z</time>
      </trkpt>
      <trkpt lat="44.10712" lon="7.7075">
        <ele>1901.424</ele>
        <time>2018-07-01T12:41:37Z</time>
      </trkpt>
      <trkpt lat="44.10715" lon="7.70738">
        <ele>1901.708</ele>
        <time>2018-07-01T12:41:38Z</time>
      </trkpt>
      <trkpt lat="44.10716" lon="7.70728">
        <ele>1901.148</ele>
        <time>2018-07-01T12:41:39Z</time>
      </trkpt>
      <trkpt lat="44.10719" lon="7.70717">
        <ele>1901.242</ele>
        <time>2018-07-01T12:41:40Z</time>
      </trkpt>
      <trkpt lat="44.10721" lon="7.70706">
        <ele>1901.798</ele>
        <time>2018-07-01T12:41:41Z</time>
      </trkpt>
      <trkpt lat="44.10723" lon="7.70691">
        <ele>1901.721</ele>
        <time>2018-07-01T12:41:42Z</time>
      </trkpt>
      <trkpt lat="44.10727" lon="7.70679">
        <ele>1902.633</ele>
        <time>2018-07-01T12:41:43Z</time>
      </trkpt>
      <trkpt lat="44.1073" lon="7.70666">
        <ele>1902.426</ele>
        <time>2018-07-01T12:41:44Z</time>
      </trkpt>
      <trkpt lat="44.10734" lon="7.70656">
        <ele>1902.381</ele>
        <time>2018-07-01T12:41:45Z</time>
      </trkpt>
      <trkpt lat="44.10739" lon="7.70644">
        <ele>1902.382</ele>
        <time>2018-07-01T12:41:46Z</time>
      </trkpt>
      <trkpt lat="44.10742" lon="7.70633">
        <ele>1902.765</ele>
        <time>2018-07-01T12:41:47Z</time>
      </trkpt>
      <trkpt lat="44.10748" lon="7.70625">
        <ele>1903.268</ele>
        <time>2018-07-01T12:41:48Z</time>
      </trkpt>
      <trkpt lat="44.10754" lon="7.70617">
        <ele>1903.114</ele>
        <time>2018-07-01T12:41:49Z</time>
      </trkpt>
      <trkpt lat="44.10758" lon="7.70609">
        <ele>1903.808</ele>
        <time>2018-07-01T12:41:50Z</time>
      </trkpt>
      <trkpt lat="44.10764" lon="7.70602">
        <ele>1904.058</ele>
        <time>2018-07-01T12:41:51Z</time>
      </trkpt>
      <trkpt lat="44.10771" lon="7.70593">
        <ele>1904.812</ele>
        <time>2018-07-01T12:41:52Z</time>
      </trkpt>
      <trkpt lat="44.10777" lon="7.70585">
        <ele>1902.988</ele>
        <time>2018-07-01T12:41:53Z</time>
      </trkpt>
      <trkpt lat="44.10783" lon="7.70575">
        <ele>1903.871</ele>
        <time>2018-07-01T12:41:54Z</time>
      </trkpt>
      <trkpt lat="44.10788" lon="7.70564">
        <ele>1902.143</ele>
        <time>2018-07-01T12:41:55Z</time>
      </trkpt>
      <trkpt lat="44.10793" lon="7.70551">
        <ele>1903.336</ele>
        <time>2018-07-01T12:41:56Z</time>
      </trkpt>
      <trkpt lat="44.10795" lon="7.70539">
        <ele>1902.471</ele>
        <time>2018-07-01T12:41:57Z</time>
      </trkpt>
      <trkpt lat="44.108" lon="7.70528">
        <ele>1903.362</ele>
        <time>2018-07-01T12:41:58Z</time>
      </trkpt>
      <trkpt lat="44.10806" lon="7.70516">
        <ele>1903.071</ele>
        <time>2018-07-01T12:41:59Z</time>
      </trkpt>
      <trkpt lat="44.10809" lon="7.70504">
        <ele>1902.741</ele>
        <time>2018-07-01T12:42:00Z</time>
      </trkpt>
      <trkpt lat="44.10811" lon="7.70495">
        <ele>1903.315</ele>
        <time>2018-07-01T12:42:01Z</time>
      </trkpt>
      <trkpt lat="44.10813" lon="7.70489">
        <ele>1903.808</ele>
        <time>2018-07-01T12:42:02Z</time>
      </trkpt>
      <trkpt lat="44.10816" lon="7.70479">
        <ele>1903.939</ele>
        <time>2018-07-01T12:42:03Z</time>
      </trkpt>
      <trkpt lat="44.10813" lon="7.7047">
        <ele>1903.743</ele>
        <time>2018-07-01T12:42:04Z</time>
      </trkpt>
      <trkpt lat="44.1081" lon="7.7046">
        <ele>1904.869</ele>
        <time>2018-07-01T12:42:05Z</time>
      </trkpt>
      <trkpt lat="44.10812" lon="7.7045">
        <ele>1905.382</ele>
        <time>2018-07-01T12:42:06Z</time>
      </trkpt>
      <trkpt lat="44.1081" lon="7.7044">
        <ele>1906.314</ele>
        <time>2018-07-01T12:42:07Z</time>
      </trkpt>
      <trkpt lat="44.10809" lon="7.70432">
        <ele>1905.097</ele>
        <time>2018-07-01T12:42:08Z</time>
      </trkpt>
      <trkpt lat="44.1081" lon="7.70423">
        <ele>1904.212</ele>
        <time>2018-07-01T12:42:09Z</time>
      </trkpt>
      <trkpt lat="44.10811" lon="7.70416">
        <ele>1904.193</ele>
        <time>2018-07-01T12:42:10Z</time>
      </trkpt>
      <trkpt lat="44.10817" lon="7.70411">
        <ele>1903.866</ele>
        <time>2018-07-01T12:42:11Z</time>
      </trkpt>
      <trkpt lat="44.10823" lon="7.70407">
        <ele>1904.329</ele>
        <time>2018-07-01T12:42:12Z</time>
      </trkpt>
      <trkpt lat="44.1083" lon="7.70402">
        <ele>1904.321</ele>
        <time>2018-07-01T12:42:13Z</time>
      </trkpt>
      <trkpt lat="44.10834" lon="7.70398">
        <ele>1903.708</ele>
        <time>2018-07-01T12:42:14Z</time>
      </trkpt>
      <trkpt lat="44.1084" lon="7.70396">
        <ele>1903.838</ele>
        <time>2018-07-01T12:42:15Z</time>
      </trkpt>
      <trkpt lat="44.1085" lon="7.70392">
        <ele>1903.042</ele>
        <time>2018-07-01T12:42:16Z</time>
      </trkpt>
      <trkpt lat="44.10861" lon="7.70391">
        <ele>1901.958</ele>
        <time>2018-07-01T12:42:17Z</time>
      </trkpt>
      <trkpt lat="44.10875" lon="7.70388">
        <ele>1900.931</ele>
        <time>2018-07-01T12:42:18Z</time>
      </trkpt>
      <trkpt lat="44.1088" lon="7.70387">
        <ele>1899.923</ele>
        <time>2018-07-01T12:42:19Z</time>
      </trkpt>
      <trkpt lat="44.10887" lon="7.70387">
        <ele>1900.246</ele>
        <time>2018-07-01T12:42:20Z</time>
      </trkpt>
      <trkpt lat="44.10894" lon="7.70385">
        <ele>1899.391</ele>
        <time>2018-07-01T12:42:21Z</time>
      </trkpt>
      <trkpt lat="44.10902" lon="7.70382">
        <ele>1899.732</ele>
        <time>2018-07-01T12:42:22Z</time>
      </trkpt>
      <trkpt lat="44.10908" lon="7.7038">
        <ele>1899.643</ele>
        <time>2018-07-01T12:42:23Z</time>
      </trkpt>
      <trkpt lat="44.10916" lon="7.70376">
        <ele>1899.364</ele>
        <time>2018-07-01T12:42:24Z</time>
      </trkpt>
      <trkpt lat="44.10925" lon="7.70366">
        <ele>1898.31</ele>
        <time>2018-07-01T12:42:25Z</time>
      </trkpt>
      <trkpt lat="44.10935" lon="7.70356">
        <ele>1899.208</ele>
        <time>2018-07-01T12:42:26Z</time>
      </trkpt>
      <trkpt lat="44.10939" lon="7.70345">
        <ele>1899.326</ele>
        <time>2018-07-01T12:42:27Z</time>
      </trkpt>
      <trkpt lat="44.10945" lon="7.70336">
        <ele>1899.35</ele>
        <time>2018-07-01T12:42:28Z</time>
      </trkpt>
      <trkpt lat="44.10951" lon="7.70327">
        <ele>1899.176</ele>
        <time>2018-07-01T12:42:29Z</time>
      </trkpt>
      <trkpt lat="44.10959" lon="7.70327">
        <ele>1899.119</ele>
        <time>2018-07-01T12:42:30Z</time>
      </trkpt>
      <trkpt lat="44.10968" lon="7.70329">
        <ele>1899.681</ele>
        <time>2018-07-01T12:42:31Z</time>
      </trkpt>
      <trkpt lat="44.10976" lon="7.70329">
        <ele>1900.174</ele>
        <time>2018-07-01T12:42:32Z</time>
      </trkpt>
      <trkpt lat="44.10982" lon="7.70331">
        <ele>1899.599</ele>
        <time>2018-07-01T12:42:33Z</time>
      </trkpt>
      <trkpt lat="44.10987" lon="7.7033">
        <ele>1899.38</ele>
        <time>2018-07-01T12:42:34Z</time>
      </trkpt>
      <trkpt lat="44.10992" lon="7.70326">
        <ele>1900.581</ele>
        <time>2018-07-01T12:42:37Z</time>
      </trkpt>
      <trkpt lat="44.10997" lon="7.70327">
        <ele>1901.961</ele>
        <time>2018-07-01T12:42:40Z</time>
      </trkpt>
      <trkpt lat="44.10992" lon="7.70327">
        <ele>1902.917</ele>
        <time>2018-07-01T12:43:08Z</time>
      </trkpt>
      <trkpt lat="44.10993" lon="7.70334">
        <ele>1898.908</ele>
        <time>2018-07-01T12:43:25Z</time>
      </trkpt>
      <trkpt lat="44.10994" lon="7.7034">
        <ele>1898.57</ele>
        <time>2018-07-01T12:43:28Z</time>
      </trkpt>
      <trkpt lat="44.10992" lon="7.70333">
        <ele>1897.294</ele>
        <time>2018-07-01T12:43:46Z</time>
      </trkpt>
      <trkpt lat="44.10987" lon="7.70334">
        <ele>1900.66</ele>
        <time>2018-07-01T12:44:47Z</time>
      </trkpt>
      <trkpt lat="44.10991" lon="7.7033">
        <ele>1899.353</ele>
        <time>2018-07-01T12:46:29Z</time>
      </trkpt>
      <trkpt lat="44.10994" lon="7.70334">
        <ele>1899.345</ele>
        <time>2018-07-01T12:46:41Z</time>
      </trkpt>
      <trkpt lat="44.10988" lon="7.70333">
        <ele>1898.468</ele>
        <time>2018-07-01T12:47:27Z</time>
      </trkpt>
      <trkpt lat="44.10994" lon="7.70337">
        <ele>1898.393</ele>
        <time>2018-07-01T12:50:30Z</time>
      </trkpt>
      <trkpt lat="44.11002" lon="7.70339">
        <ele>1901.164</ele>
        <time>2018-07-01T12:50:32Z</time>
      </trkpt>
      <trkpt lat="44.1101" lon="7.7034">
        <ele>1900.769</ele>
        <time>2018-07-01T12:50:34Z</time>
      </trkpt>
      <trkpt lat="44.11017" lon="7.70341">
        <ele>1899.004</ele>
        <time>2018-07-01T12:50:36Z</time>
      </trkpt>
      <trkpt lat="44.11022" lon="7.70343">
        <ele>1899.924</ele>
        <time>2018-07-01T12:50:38Z</time>
      </trkpt>
      <trkpt lat="44.11028" lon="7.70348">
        <ele>1898.708</ele>
        <time>2018-07-01T12:50:40Z</time>
      </trkpt>
      <trkpt lat="44.11027" lon="7.70354">
        <ele>1898.748</ele>
        <time>2018-07-01T12:50:41Z</time>
      </trkpt>
      <trkpt lat="44.11032" lon="7.70356">
        <ele>1898.522</ele>
        <time>2018-07-01T12:50:42Z</time>
      </trkpt>
      <trkpt lat="44.1104" lon="7.70359">
        <ele>1899.088</ele>
        <time>2018-07-01T12:50:43Z</time>
      </trkpt>
      <trkpt lat="44.11045" lon="7.7036">
        <ele>1898.441</ele>
        <time>2018-07-01T12:50:44Z</time>
      </trkpt>
      <trkpt lat="44.1105" lon="7.70363">
        <ele>1900.863</ele>
        <time>2018-07-01T12:50:45Z</time>
      </trkpt>
      <trkpt lat="44.11054" lon="7.70365">
        <ele>1900.426</ele>
        <time>2018-07-01T12:50:46Z</time>
      </trkpt>
      <trkpt lat="44.1106" lon="7.70364">
        <ele>1898.331</ele>
        <time>2018-07-01T12:50:47Z</time>
      </trkpt>
      <trkpt lat="44.11069" lon="7.70366">
        <ele>1897.472</ele>
        <time>2018-07-01T12:50:49Z</time>
      </trkpt>
      <trkpt lat="44.11075" lon="7.70368">
        <ele>1897.754</ele>
        <time>2018-07-01T12:50:50Z</time>
      </trkpt>
      <trkpt lat="44.11083" lon="7.70372">
        <ele>1899.856</ele>
        <time>2018-07-01T12:50:51Z</time>
      </trkpt>
      <trkpt lat="44.11089" lon="7.70376">
        <ele>1899.811</ele>
        <time>2018-07-01T12:50:52Z</time>
      </trkpt>
      <trkpt lat="44.11094" lon="7.70379">
        <ele>1899.608</ele>
        <time>2018-07-01T12:50:53Z</time>
      </trkpt>
      <trkpt lat="44.111" lon="7.70383">
        <ele>1900.537</ele>
        <time>2018-07-01T12:50:54Z</time>
      </trkpt>
      <trkpt lat="44.11107" lon="7.70387">
        <ele>1901.791</ele>
        <time>2018-07-01T12:50:55Z</time>
      </trkpt>
      <trkpt lat="44.11112" lon="7.70388">
        <ele>1901.197</ele>
        <time>2018-07-01T12:50:56Z</time>
      </trkpt>
      <trkpt lat="44.11118" lon="7.70391">
        <ele>1900.87</ele>
        <time>2018-07-01T12:50:57Z</time>
      </trkpt>
      <trkpt lat="44.11123" lon="7.70396">
        <ele>1901.282</ele>
        <time>2018-07-01T12:50:58Z</time>
      </trkpt>
      <trkpt lat="44.11129" lon="7.70398">
        <ele>1901.665</ele>
        <time>2018-07-01T12:50:59Z</time>
      </trkpt>
      <trkpt lat="44.11138" lon="7.70398">
        <ele>1902.05</ele>
        <time>2018-07-01T12:51:00Z</time>
      </trkpt>
      <trkpt lat="44.11146" lon="7.70397">
        <ele>1902.621</ele>
        <time>2018-07-01T12:51:01Z</time>
      </trkpt>
      <trkpt lat="44.11151" lon="7.70399">
        <ele>1901.267</ele>
        <time>2018-07-01T12:51:02Z</time>
      </trkpt>
      <trkpt lat="44.11159" lon="7.70399">
        <ele>1901.181</ele>
        <time>2018-07-01T12:51:03Z</time>
      </trkpt>
      <trkpt lat="44.11165" lon="7.704">
        <ele>1900.619</ele>
        <time>2018-07-01T12:51:04Z</time>
      </trkpt>
      <trkpt lat="44.1117" lon="7.70407">
        <ele>1901.608</ele>
        <time>2018-07-01T12:51:06Z</time>
      </trkpt>
      <trkpt lat="44.11175" lon="7.70411">
        <ele>1902.598</ele>
        <time>2018-07-01T12:51:07Z</time>
      </trkpt>
      <trkpt lat="44.11179" lon="7.70413">
        <ele>1902.662</ele>
        <time>2018-07-01T12:51:08Z</time>
      </trkpt>
      <trkpt lat="44.11184" lon="7.70417">
        <ele>1902.728</ele>
        <time>2018-07-01T12:51:09Z</time>
      </trkpt>
      <trkpt lat="44.11188" lon="7.7042">
        <ele>1902.121</ele>
        <time>2018-07-01T12:51:10Z</time>
      </trkpt>
      <trkpt lat="44.11193" lon="7.70426">
        <ele>1902.393</ele>
        <time>2018-07-01T12:51:11Z</time>
      </trkpt>
      <trkpt lat="44.11195" lon="7.70433">
        <ele>1901.986</ele>
        <time>2018-07-01T12:51:12Z</time>
      </trkpt>
      <trkpt lat="44.11197" lon="7.70441">
        <ele>1901.661</ele>
        <time>2018-07-01T12:51:13Z</time>
      </trkpt>
      <trkpt lat="44.11199" lon="7.70448">
        <ele>1901.812</ele>
        <time>2018-07-01T12:51:14Z</time>
      </trkpt>
      <trkpt lat="44.11202" lon="7.70457">
        <ele>1901.169</ele>
        <time>2018-07-01T12:51:15Z</time>
      </trkpt>
      <trkpt lat="44.11206" lon="7.70466">
        <ele>1901.304</ele>
        <time>2018-07-01T12:51:16Z</time>
      </trkpt>
      <trkpt lat="44.1121" lon="7.70474">
        <ele>1901.324</ele>
        <time>2018-07-01T12:51:17Z</time>
      </trkpt>
      <trkpt lat="44.11215" lon="7.70483">
        <ele>1901.508</ele>
        <time>2018-07-01T12:51:18Z</time>
      </trkpt>
      <trkpt lat="44.11218" lon="7.70491">
        <ele>1902.448</ele>
        <time>2018-07-01T12:51:19Z</time>
      </trkpt>
      <trkpt lat="44.11222" lon="7.70498">
        <ele>1902.722</ele>
        <time>2018-07-01T12:51:20Z</time>
      </trkpt>
      <trkpt lat="44.11228" lon="7.70502">
        <ele>1902.888</ele>
        <time>2018-07-01T12:51:21Z</time>
      </trkpt>
      <trkpt lat="44.11232" lon="7.70504">
        <ele>1901.071</ele>
        <time>2018-07-01T12:51:22Z</time>
      </trkpt>
      <trkpt lat="44.11237" lon="7.70508">
        <ele>1901.153</ele>
        <time>2018-07-01T12:51:23Z</time>
      </trkpt>
      <trkpt lat="44.11246" lon="7.70505">
        <ele>1901.116</ele>
        <time>2018-07-01T12:51:24Z</time>
      </trkpt>
      <trkpt lat="44.11253" lon="7.70503">
        <ele>1902.271</ele>
        <time>2018-07-01T12:51:25Z</time>
      </trkpt>
      <trkpt lat="44.11259" lon="7.70499">
        <ele>1903.792</ele>
        <time>2018-07-01T12:51:26Z</time>
      </trkpt>
      <trkpt lat="44.11267" lon="7.70493">
        <ele>1902.931</ele>
        <time>2018-07-01T12:51:27Z</time>
      </trkpt>
      <trkpt lat="44.11274" lon="7.70486">
        <ele>1903.161</ele>
        <time>2018-07-01T12:51:28Z</time>
      </trkpt>
      <trkpt lat="44.1128" lon="7.70477">
        <ele>1902.607</ele>
        <time>2018-07-01T12:51:29Z</time>
      </trkpt>
      <trkpt lat="44.11286" lon="7.70467">
        <ele>1901.608</ele>
        <time>2018-07-01T12:51:30Z</time>
      </trkpt>
      <trkpt lat="44.11291" lon="7.70458">
        <ele>1901.215</ele>
        <time>2018-07-01T12:51:31Z</time>
      </trkpt>
      <trkpt lat="44.11294" lon="7.70449">
        <ele>1900.869</ele>
        <time>2018-07-01T12:51:32Z</time>
      </trkpt>
      <trkpt lat="44.11298" lon="7.70441">
        <ele>1900.595</ele>
        <time>2018-07-01T12:51:33Z</time>
      </trkpt>
      <trkpt lat="44.11302" lon="7.70434">
        <ele>1899.288</ele>
        <time>2018-07-01T12:51:34Z</time>
      </trkpt>
      <trkpt lat="44.11306" lon="7.70426">
        <ele>1898.59</ele>
        <time>2018-07-01T12:51:35Z</time>
      </trkpt>
      <trkpt lat="44.1131" lon="7.70416">
        <ele>1899.143</ele>
        <time>2018-07-01T12:51:36Z</time>
      </trkpt>
      <trkpt lat="44.11313" lon="7.70406">
        <ele>1899.518</ele>
        <time>2018-07-01T12:51:37Z</time>
      </trkpt>
      <trkpt lat="44.11317" lon="7.704">
        <ele>1898.569</ele>
        <time>2018-07-01T12:51:38Z</time>
      </trkpt>
      <trkpt lat="44.1132" lon="7.70388">
        <ele>1898.027</ele>
        <time>2018-07-01T12:51:39Z</time>
      </trkpt>
      <trkpt lat="44.11322" lon="7.70378">
        <ele>1897.968</ele>
        <time>2018-07-01T12:51:40Z</time>
      </trkpt>
      <trkpt lat="44.11326" lon="7.70368">
        <ele>1898.014</ele>
        <time>2018-07-01T12:51:41Z</time>
      </trkpt>
      <trkpt lat="44.1133" lon="7.7036">
        <ele>1897.608</ele>
        <time>2018-07-01T12:51:42Z</time>
      </trkpt>
      <trkpt lat="44.11335" lon="7.70353">
        <ele>1898.024</ele>
        <time>2018-07-01T12:51:43Z</time>
      </trkpt>
      <trkpt lat="44.11338" lon="7.70343">
        <ele>1898.178</ele>
        <time>2018-07-01T12:51:44Z</time>
      </trkpt>
      <trkpt lat="44.11343" lon="7.70334">
        <ele>1898.274</ele>
        <time>2018-07-01T12:51:45Z</time>
      </trkpt>
      <trkpt lat="44.11347" lon="7.70325">
        <ele>1897.597</ele>
        <time>2018-07-01T12:51:46Z</time>
      </trkpt>
      <trkpt lat="44.11351" lon="7.70315">
        <ele>1897.879</ele>
        <time>2018-07-01T12:51:47Z</time>
      </trkpt>
      <trkpt lat="44.11355" lon="7.70306">
        <ele>1897.962</ele>
        <time>2018-07-01T12:51:48Z</time>
      </trkpt>
      <trkpt lat="44.1136" lon="7.70298">
        <ele>1897.237</ele>
        <time>2018-07-01T12:51:49Z</time>
      </trkpt>
      <trkpt lat="44.11364" lon="7.70288">
        <ele>1897.128</ele>
        <time>2018-07-01T12:51:50Z</time>
      </trkpt>
      <trkpt lat="44.11367" lon="7.70278">
        <ele>1897.064</ele>
        <time>2018-07-01T12:51:51Z</time>
      </trkpt>
      <trkpt lat="44.11369" lon="7.70268">
        <ele>1897.306</ele>
        <time>2018-07-01T12:51:52Z</time>
      </trkpt>
      <trkpt lat="44.11373" lon="7.70259">
        <ele>1897.416</ele>
        <time>2018-07-01T12:51:53Z</time>
      </trkpt>
      <trkpt lat="44.11375" lon="7.70247">
        <ele>1897.408</ele>
        <time>2018-07-01T12:51:54Z</time>
      </trkpt>
      <trkpt lat="44.11378" lon="7.70236">
        <ele>1897.338</ele>
        <time>2018-07-01T12:51:55Z</time>
      </trkpt>
      <trkpt lat="44.11381" lon="7.70225">
        <ele>1897.512</ele>
        <time>2018-07-01T12:51:56Z</time>
      </trkpt>
      <trkpt lat="44.11388" lon="7.70216">
        <ele>1897.738</ele>
        <time>2018-07-01T12:51:57Z</time>
      </trkpt>
      <trkpt lat="44.11394" lon="7.70207">
        <ele>1897.841</ele>
        <time>2018-07-01T12:51:58Z</time>
      </trkpt>
      <trkpt lat="44.11401" lon="7.702">
        <ele>1897.523</ele>
        <time>2018-07-01T12:51:59Z</time>
      </trkpt>
      <trkpt lat="44.11407" lon="7.70194">
        <ele>1897.846</ele>
        <time>2018-07-01T12:52:00Z</time>
      </trkpt>
      <trkpt lat="44.11413" lon="7.70188">
        <ele>1898.171</ele>
        <time>2018-07-01T12:52:01Z</time>
      </trkpt>
      <trkpt lat="44.11417" lon="7.70181">
        <ele>1897.912</ele>
        <time>2018-07-01T12:52:02Z</time>
      </trkpt>
      <trkpt lat="44.11422" lon="7.70175">
        <ele>1897.852</ele>
        <time>2018-07-01T12:52:03Z</time>
      </trkpt>
      <trkpt lat="44.11429" lon="7.7017">
        <ele>1897.753</ele>
        <time>2018-07-01T12:52:04Z</time>
      </trkpt>
      <trkpt lat="44.11437" lon="7.70165">
        <ele>1897.208</ele>
        <time>2018-07-01T12:52:05Z</time>
      </trkpt>
      <trkpt lat="44.11443" lon="7.70162">
        <ele>1896.508</ele>
        <time>2018-07-01T12:52:06Z</time>
      </trkpt>
      <trkpt lat="44.11448" lon="7.70154">
        <ele>1896.327</ele>
        <time>2018-07-01T12:52:07Z</time>
      </trkpt>
      <trkpt lat="44.11453" lon="7.70147">
        <ele>1896.731</ele>
        <time>2018-07-01T12:52:08Z</time>
      </trkpt>
      <trkpt lat="44.11456" lon="7.70138">
        <ele>1896.947</ele>
        <time>2018-07-01T12:52:09Z</time>
      </trkpt>
      <trkpt lat="44.11459" lon="7.7013">
        <ele>1897.47</ele>
        <time>2018-07-01T12:52:10Z</time>
      </trkpt>
      <trkpt lat="44.11462" lon="7.70121">
        <ele>1897.282</ele>
        <time>2018-07-01T12:52:11Z</time>
      </trkpt>
      <trkpt lat="44.11457" lon="7.70108">
        <ele>1897.055</ele>
        <time>2018-07-01T12:52:12Z</time>
      </trkpt>
      <trkpt lat="44.11455" lon="7.70091">
        <ele>1897.22</ele>
        <time>2018-07-01T12:52:14Z</time>
      </trkpt>
      <trkpt lat="44.11451" lon="7.70078">
        <ele>1897.591</ele>
        <time>2018-07-01T12:52:15Z</time>
      </trkpt>
      <trkpt lat="44.11448" lon="7.70067">
        <ele>1897.712</ele>
        <time>2018-07-01T12:52:16Z</time>
      </trkpt>
      <trkpt lat="44.11446" lon="7.70056">
        <ele>1898.332</ele>
        <time>2018-07-01T12:52:17Z</time>
      </trkpt>
      <trkpt lat="44.11445" lon="7.70047">
        <ele>1899.405</ele>
        <time>2018-07-01T12:52:18Z</time>
      </trkpt>
      <trkpt lat="44.11442" lon="7.70037">
        <ele>1899.308</ele>
        <time>2018-07-01T12:52:19Z</time>
      </trkpt>
      <trkpt lat="44.11442" lon="7.70028">
        <ele>1899.983</ele>
        <time>2018-07-01T12:52:20Z</time>
      </trkpt>
      <trkpt lat="44.11445" lon="7.70019">
        <ele>1899.837</ele>
        <time>2018-07-01T12:52:21Z</time>
      </trkpt>
      <trkpt lat="44.1145" lon="7.70009">
        <ele>1899.543</ele>
        <time>2018-07-01T12:52:22Z</time>
      </trkpt>
      <trkpt lat="44.11454" lon="7.70003">
        <ele>1899.516</ele>
        <time>2018-07-01T12:52:23Z</time>
      </trkpt>
      <trkpt lat="44.11461" lon="7.69993">
        <ele>1899.248</ele>
        <time>2018-07-01T12:52:24Z</time>
      </trkpt>
      <trkpt lat="44.11469" lon="7.69983">
        <ele>1898.241</ele>
        <time>2018-07-01T12:52:25Z</time>
      </trkpt>
      <trkpt lat="44.11475" lon="7.69976">
        <ele>1898.436</ele>
        <time>2018-07-01T12:52:26Z</time>
      </trkpt>
      <trkpt lat="44.11481" lon="7.69972">
        <ele>1895.717</ele>
        <time>2018-07-01T12:52:27Z</time>
      </trkpt>
      <trkpt lat="44.11484" lon="7.69964">
        <ele>1893.853</ele>
        <time>2018-07-01T12:52:28Z</time>
      </trkpt>
      <trkpt lat="44.11488" lon="7.69953">
        <ele>1894.004</ele>
        <time>2018-07-01T12:52:29Z</time>
      </trkpt>
      <trkpt lat="44.11492" lon="7.69941">
        <ele>1894.514</ele>
        <time>2018-07-01T12:52:30Z</time>
      </trkpt>
      <trkpt lat="44.11496" lon="7.6993">
        <ele>1894.608</ele>
        <time>2018-07-01T12:52:31Z</time>
      </trkpt>
      <trkpt lat="44.11501" lon="7.6992">
        <ele>1894.787</ele>
        <time>2018-07-01T12:52:32Z</time>
      </trkpt>
      <trkpt lat="44.11502" lon="7.69908">
        <ele>1894.091</ele>
        <time>2018-07-01T12:52:33Z</time>
      </trkpt>
      <trkpt lat="44.11507" lon="7.69896">
        <ele>1893.967</ele>
        <time>2018-07-01T12:52:34Z</time>
      </trkpt>
      <trkpt lat="44.11511" lon="7.69885">
        <ele>1894.25</ele>
        <time>2018-07-01T12:52:35Z</time>
      </trkpt>
      <trkpt lat="44.11516" lon="7.69878">
        <ele>1893.452</ele>
        <time>2018-07-01T12:52:36Z</time>
      </trkpt>
      <trkpt lat="44.11524" lon="7.69872">
        <ele>1892.815</ele>
        <time>2018-07-01T12:52:37Z</time>
      </trkpt>
      <trkpt lat="44.11526" lon="7.69862">
        <ele>1892.39</ele>
        <time>2018-07-01T12:52:38Z</time>
      </trkpt>
      <trkpt lat="44.11529" lon="7.69853">
        <ele>1891.951</ele>
        <time>2018-07-01T12:52:39Z</time>
      </trkpt>
      <trkpt lat="44.11533" lon="7.69845">
        <ele>1893.744</ele>
        <time>2018-07-01T12:52:40Z</time>
      </trkpt>
      <trkpt lat="44.1154" lon="7.69839">
        <ele>1893.205</ele>
        <time>2018-07-01T12:52:41Z</time>
      </trkpt>
      <trkpt lat="44.11549" lon="7.69832">
        <ele>1892.915</ele>
        <time>2018-07-01T12:52:42Z</time>
      </trkpt>
      <trkpt lat="44.11556" lon="7.69825">
        <ele>1892.508</ele>
        <time>2018-07-01T12:52:43Z</time>
      </trkpt>
      <trkpt lat="44.11563" lon="7.69819">
        <ele>1892.416</ele>
        <time>2018-07-01T12:52:44Z</time>
      </trkpt>
      <trkpt lat="44.11569" lon="7.69818">
        <ele>1892.53</ele>
        <time>2018-07-01T12:52:45Z</time>
      </trkpt>
      <trkpt lat="44.1158" lon="7.69821">
        <ele>1892.946</ele>
        <time>2018-07-01T12:52:46Z</time>
      </trkpt>
      <trkpt lat="44.11587" lon="7.69821">
        <ele>1893.569</ele>
        <time>2018-07-01T12:52:47Z</time>
      </trkpt>
      <trkpt lat="44.11595" lon="7.69822">
        <ele>1893.521</ele>
        <time>2018-07-01T12:52:48Z</time>
      </trkpt>
      <trkpt lat="44.11594" lon="7.69833">
        <ele>1893.164</ele>
        <time>2018-07-01T12:52:49Z</time>
      </trkpt>
      <trkpt lat="44.11594" lon="7.69844">
        <ele>1893.149</ele>
        <time>2018-07-01T12:52:50Z</time>
      </trkpt>
      <trkpt lat="44.11599" lon="7.69857">
        <ele>1893.01</ele>
        <time>2018-07-01T12:52:52Z</time>
      </trkpt>
      <trkpt lat="44.11606" lon="7.69866">
        <ele>1893.378</ele>
        <time>2018-07-01T12:52:53Z</time>
      </trkpt>
      <trkpt lat="44.1161" lon="7.69875">
        <ele>1893.133</ele>
        <time>2018-07-01T12:52:54Z</time>
      </trkpt>
      <trkpt lat="44.11615" lon="7.6988">
        <ele>1892.626</ele>
        <time>2018-07-01T12:52:55Z</time>
      </trkpt>
      <trkpt lat="44.11622" lon="7.69884">
        <ele>1892.508</ele>
        <time>2018-07-01T12:52:56Z</time>
      </trkpt>
      <trkpt lat="44.11627" lon="7.6989">
        <ele>1893.719</ele>
        <time>2018-07-01T12:52:57Z</time>
      </trkpt>
      <trkpt lat="44.11632" lon="7.6989">
        <ele>1894.073</ele>
        <time>2018-07-01T12:52:58Z</time>
      </trkpt>
      <trkpt lat="44.11636" lon="7.69892">
        <ele>1894.169</ele>
        <time>2018-07-01T12:52:59Z</time>
      </trkpt>
      <trkpt lat="44.1164" lon="7.69884">
        <ele>1895.252</ele>
        <time>2018-07-01T12:53:00Z</time>
      </trkpt>
      <trkpt lat="44.11643" lon="7.69875">
        <ele>1895.444</ele>
        <time>2018-07-01T12:53:01Z</time>
      </trkpt>
      <trkpt lat="44.11646" lon="7.69867">
        <ele>1895.447</ele>
        <time>2018-07-01T12:53:02Z</time>
      </trkpt>
      <trkpt lat="44.11649" lon="7.69859">
        <ele>1895.542</ele>
        <time>2018-07-01T12:53:03Z</time>
      </trkpt>
      <trkpt lat="44.11651" lon="7.69849">
        <ele>1895.213</ele>
        <time>2018-07-01T12:53:04Z</time>
      </trkpt>
      <trkpt lat="44.11654" lon="7.69844">
        <ele>1895.533</ele>
        <time>2018-07-01T12:53:05Z</time>
      </trkpt>
      <trkpt lat="44.11662" lon="7.69843">
        <ele>1895.723</ele>
        <time>2018-07-01T12:53:06Z</time>
      </trkpt>
      <trkpt lat="44.11668" lon="7.69842">
        <ele>1896.315</ele>
        <time>2018-07-01T12:53:07Z</time>
      </trkpt>
      <trkpt lat="44.11672" lon="7.69839">
        <ele>1895.708</ele>
        <time>2018-07-01T12:53:08Z</time>
      </trkpt>
      <trkpt lat="44.11677" lon="7.69835">
        <ele>1895.835</ele>
        <time>2018-07-01T12:53:09Z</time>
      </trkpt>
      <trkpt lat="44.1168" lon="7.6983">
        <ele>1896.179</ele>
        <time>2018-07-01T12:53:10Z</time>
      </trkpt>
      <trkpt lat="44.11684" lon="7.69824">
        <ele>1896.095</ele>
        <time>2018-07-01T12:53:11Z</time>
      </trkpt>
      <trkpt lat="44.1169" lon="7.69819">
        <ele>1896.738</ele>
        <time>2018-07-01T12:53:12Z</time>
      </trkpt>
      <trkpt lat="44.11693" lon="7.69811">
        <ele>1897.26</ele>
        <time>2018-07-01T12:53:13Z</time>
      </trkpt>
      <trkpt lat="44.11698" lon="7.69804">
        <ele>1898.683</ele>
        <time>2018-07-01T12:53:14Z</time>
      </trkpt>
      <trkpt lat="44.11701" lon="7.69798">
        <ele>1898.688</ele>
        <time>2018-07-01T12:53:15Z</time>
      </trkpt>
      <trkpt lat="44.11707" lon="7.69791">
        <ele>1899.489</ele>
        <time>2018-07-01T12:53:16Z</time>
      </trkpt>
      <trkpt lat="44.11712" lon="7.69783">
        <ele>1900.638</ele>
        <time>2018-07-01T12:53:17Z</time>
      </trkpt>
      <trkpt lat="44.11716" lon="7.69777">
        <ele>1900.47</ele>
        <time>2018-07-01T12:53:18Z</time>
      </trkpt>
      <trkpt lat="44.1172" lon="7.69771">
        <ele>1901.017</ele>
        <time>2018-07-01T12:53:19Z</time>
      </trkpt>
      <trkpt lat="44.11724" lon="7.69766">
        <ele>1900.908</ele>
        <time>2018-07-01T12:53:20Z</time>
      </trkpt>
      <trkpt lat="44.11728" lon="7.69762">
        <ele>1901.845</ele>
        <time>2018-07-01T12:53:21Z</time>
      </trkpt>
      <trkpt lat="44.11734" lon="7.69758">
        <ele>1901.759</ele>
        <time>2018-07-01T12:53:23Z</time>
      </trkpt>
      <trkpt lat="44.11742" lon="7.69762">
        <ele>1901.655</ele>
        <time>2018-07-01T12:53:25Z</time>
      </trkpt>
      <trkpt lat="44.11746" lon="7.69765">
        <ele>1901.678</ele>
        <time>2018-07-01T12:53:26Z</time>
      </trkpt>
      <trkpt lat="44.11749" lon="7.69769">
        <ele>1902.27</ele>
        <time>2018-07-01T12:53:27Z</time>
      </trkpt>
      <trkpt lat="44.11753" lon="7.69779">
        <ele>1901.843</ele>
        <time>2018-07-01T12:53:29Z</time>
      </trkpt>
      <trkpt lat="44.11757" lon="7.69785">
        <ele>1902.298</ele>
        <time>2018-07-01T12:53:30Z</time>
      </trkpt>
      <trkpt lat="44.11764" lon="7.69793">
        <ele>1900.779</ele>
        <time>2018-07-01T12:53:31Z</time>
      </trkpt>
      <trkpt lat="44.1177" lon="7.698">
        <ele>1901.393</ele>
        <time>2018-07-01T12:53:32Z</time>
      </trkpt>
      <trkpt lat="44.11775" lon="7.69807">
        <ele>1901.365</ele>
        <time>2018-07-01T12:53:33Z</time>
      </trkpt>
      <trkpt lat="44.11781" lon="7.69816">
        <ele>1901.421</ele>
        <time>2018-07-01T12:53:34Z</time>
      </trkpt>
      <trkpt lat="44.11786" lon="7.69823">
        <ele>1901.608</ele>
        <time>2018-07-01T12:53:35Z</time>
      </trkpt>
      <trkpt lat="44.11791" lon="7.69832">
        <ele>1901.071</ele>
        <time>2018-07-01T12:53:36Z</time>
      </trkpt>
      <trkpt lat="44.11795" lon="7.69841">
        <ele>1900.165</ele>
        <time>2018-07-01T12:53:37Z</time>
      </trkpt>
      <trkpt lat="44.11798" lon="7.69853">
        <ele>1900.771</ele>
        <time>2018-07-01T12:53:38Z</time>
      </trkpt>
      <trkpt lat="44.118" lon="7.69862">
        <ele>1899.544</ele>
        <time>2018-07-01T12:53:39Z</time>
      </trkpt>
      <trkpt lat="44.11803" lon="7.69872">
        <ele>1900.136</ele>
        <time>2018-07-01T12:53:40Z</time>
      </trkpt>
      <trkpt lat="44.11804" lon="7.69883">
        <ele>1899.369</ele>
        <time>2018-07-01T12:53:41Z</time>
      </trkpt>
      <trkpt lat="44.11808" lon="7.69891">
        <ele>1899.014</ele>
        <time>2018-07-01T12:53:42Z</time>
      </trkpt>
      <trkpt lat="44.11809" lon="7.69902">
        <ele>1899.295</ele>
        <time>2018-07-01T12:53:43Z</time>
      </trkpt>
      <trkpt lat="44.11812" lon="7.69914">
        <ele>1899.681</ele>
        <time>2018-07-01T12:53:44Z</time>
      </trkpt>
      <trkpt lat="44.11815" lon="7.69927">
        <ele>1899.461</ele>
        <time>2018-07-01T12:53:45Z</time>
      </trkpt>
      <trkpt lat="44.11816" lon="7.69937">
        <ele>1898.317</ele>
        <time>2018-07-01T12:53:46Z</time>
      </trkpt>
      <trkpt lat="44.11819" lon="7.69948">
        <ele>1898.608</ele>
        <time>2018-07-01T12:53:47Z</time>
      </trkpt>
      <trkpt lat="44.11821" lon="7.6996">
        <ele>1898.56</ele>
        <time>2018-07-01T12:53:48Z</time>
      </trkpt>
      <trkpt lat="44.11823" lon="7.6997">
        <ele>1898.024</ele>
        <time>2018-07-01T12:53:49Z</time>
      </trkpt>
      <trkpt lat="44.11825" lon="7.69979">
        <ele>1898.23</ele>
        <time>2018-07-01T12:53:50Z</time>
      </trkpt>
      <trkpt lat="44.11828" lon="7.69987">
        <ele>1898.373</ele>
        <time>2018-07-01T12:53:51Z</time>
      </trkpt>
      <trkpt lat="44.11831" lon="7.69993">
        <ele>1898.535</ele>
        <time>2018-07-01T12:53:52Z</time>
      </trkpt>
      <trkpt lat="44.11834" lon="7.69998">
        <ele>1898.668</ele>
        <time>2018-07-01T12:53:53Z</time>
      </trkpt>
      <trkpt lat="44.11842" lon="7.69999">
        <ele>1899.073</ele>
        <time>2018-07-01T12:53:55Z</time>
      </trkpt>
      <trkpt lat="44.11847" lon="7.69997">
        <ele>1899.274</ele>
        <time>2018-07-01T12:53:56Z</time>
      </trkpt>
      <trkpt lat="44.11853" lon="7.69978">
        <ele>1899.784</ele>
        <time>2018-07-01T12:53:58Z</time>
      </trkpt>
      <trkpt lat="44.11855" lon="7.69971">
        <ele>1899.507</ele>
        <time>2018-07-01T12:53:59Z</time>
      </trkpt>
      <trkpt lat="44.11853" lon="7.69955">
        <ele>1899.717</ele>
        <time>2018-07-01T12:54:00Z</time>
      </trkpt>
      <trkpt lat="44.11853" lon="7.6994">
        <ele>1899.908</ele>
        <time>2018-07-01T12:54:01Z</time>
      </trkpt>
      <trkpt lat="44.11856" lon="7.69928">
        <ele>1900.28</ele>
        <time>2018-07-01T12:54:02Z</time>
      </trkpt>
      <trkpt lat="44.11858" lon="7.69915">
        <ele>1901.154</ele>
        <time>2018-07-01T12:54:03Z</time>
      </trkpt>
      <trkpt lat="44.1186" lon="7.69906">
        <ele>1902.17</ele>
        <time>2018-07-01T12:54:04Z</time>
      </trkpt>
      <trkpt lat="44.11863" lon="7.69895">
        <ele>1903.123</ele>
        <time>2018-07-01T12:54:05Z</time>
      </trkpt>
      <trkpt lat="44.11869" lon="7.69882">
        <ele>1904.035</ele>
        <time>2018-07-01T12:54:06Z</time>
      </trkpt>
      <trkpt lat="44.11872" lon="7.6987">
        <ele>1903.988</ele>
        <time>2018-07-01T12:54:07Z</time>
      </trkpt>
      <trkpt lat="44.11875" lon="7.69858">
        <ele>1903.893</ele>
        <time>2018-07-01T12:54:08Z</time>
      </trkpt>
      <trkpt lat="44.11879" lon="7.69851">
        <ele>1904.064</ele>
        <time>2018-07-01T12:54:09Z</time>
      </trkpt>
      <trkpt lat="44.11882" lon="7.6984">
        <ele>1904.567</ele>
        <time>2018-07-01T12:54:10Z</time>
      </trkpt>
      <trkpt lat="44.11885" lon="7.69832">
        <ele>1905.181</ele>
        <time>2018-07-01T12:54:11Z</time>
      </trkpt>
      <trkpt lat="44.1189" lon="7.69828">
        <ele>1904.919</ele>
        <time>2018-07-01T12:54:12Z</time>
      </trkpt>
      <trkpt lat="44.11894" lon="7.69823">
        <ele>1905.508</ele>
        <time>2018-07-01T12:54:13Z</time>
      </trkpt>
      <trkpt lat="44.11898" lon="7.69811">
        <ele>1905.738</ele>
        <time>2018-07-01T12:54:14Z</time>
      </trkpt>
      <trkpt lat="44.11909" lon="7.69811">
        <ele>1906.772</ele>
        <time>2018-07-01T12:54:15Z</time>
      </trkpt>
      <trkpt lat="44.11916" lon="7.69808">
        <ele>1904.818</ele>
        <time>2018-07-01T12:54:16Z</time>
      </trkpt>
      <trkpt lat="44.11923" lon="7.69804">
        <ele>1906.951</ele>
        <time>2018-07-01T12:54:17Z</time>
      </trkpt>
      <trkpt lat="44.11929" lon="7.698">
        <ele>1906.893</ele>
        <time>2018-07-01T12:54:18Z</time>
      </trkpt>
      <trkpt lat="44.11938" lon="7.69796">
        <ele>1907.126</ele>
        <time>2018-07-01T12:54:19Z</time>
      </trkpt>
      <trkpt lat="44.11944" lon="7.69786">
        <ele>1907.311</ele>
        <time>2018-07-01T12:54:20Z</time>
      </trkpt>
      <trkpt lat="44.11949" lon="7.69778">
        <ele>1907.572</ele>
        <time>2018-07-01T12:54:21Z</time>
      </trkpt>
      <trkpt lat="44.11953" lon="7.69768">
        <ele>1907.586</ele>
        <time>2018-07-01T12:54:22Z</time>
      </trkpt>
      <trkpt lat="44.11959" lon="7.6976">
        <ele>1906.56</ele>
        <time>2018-07-01T12:54:23Z</time>
      </trkpt>
      <trkpt lat="44.11963" lon="7.69749">
        <ele>1906.126</ele>
        <time>2018-07-01T12:54:24Z</time>
      </trkpt>
      <trkpt lat="44.11968" lon="7.69736">
        <ele>1903.508</ele>
        <time>2018-07-01T12:54:25Z</time>
      </trkpt>
      <trkpt lat="44.11972" lon="7.69725">
        <ele>1903.15</ele>
        <time>2018-07-01T12:54:26Z</time>
      </trkpt>
      <trkpt lat="44.11976" lon="7.69715">
        <ele>1904.144</ele>
        <time>2018-07-01T12:54:27Z</time>
      </trkpt>
      <trkpt lat="44.11984" lon="7.69703">
        <ele>1905.28</ele>
        <time>2018-07-01T12:54:28Z</time>
      </trkpt>
      <trkpt lat="44.11989" lon="7.69689">
        <ele>1905.663</ele>
        <time>2018-07-01T12:54:29Z</time>
      </trkpt>
      <trkpt lat="44.11992" lon="7.69678">
        <ele>1906.945</ele>
        <time>2018-07-01T12:54:30Z</time>
      </trkpt>
      <trkpt lat="44.11994" lon="7.69666">
        <ele>1908.158</ele>
        <time>2018-07-01T12:54:31Z</time>
      </trkpt>
      <trkpt lat="44.11997" lon="7.69657">
        <ele>1907.643</ele>
        <time>2018-07-01T12:54:32Z</time>
      </trkpt>
      <trkpt lat="44.12" lon="7.69644">
        <ele>1908.894</ele>
        <time>2018-07-01T12:54:33Z</time>
      </trkpt>
      <trkpt lat="44.12002" lon="7.69636">
        <ele>1907.924</ele>
        <time>2018-07-01T12:54:34Z</time>
      </trkpt>
      <trkpt lat="44.12005" lon="7.69626">
        <ele>1908.404</ele>
        <time>2018-07-01T12:54:35Z</time>
      </trkpt>
      <trkpt lat="44.12006" lon="7.69615">
        <ele>1910.014</ele>
        <time>2018-07-01T12:54:36Z</time>
      </trkpt>
      <trkpt lat="44.12008" lon="7.69604">
        <ele>1912.108</ele>
        <time>2018-07-01T12:54:37Z</time>
      </trkpt>
      <trkpt lat="44.12011" lon="7.69598">
        <ele>1911.494</ele>
        <time>2018-07-01T12:54:38Z</time>
      </trkpt>
      <trkpt lat="44.12011" lon="7.69591">
        <ele>1910.418</ele>
        <time>2018-07-01T12:54:39Z</time>
      </trkpt>
      <trkpt lat="44.12013" lon="7.6958">
        <ele>1909.674</ele>
        <time>2018-07-01T12:54:40Z</time>
      </trkpt>
      <trkpt lat="44.12011" lon="7.69565">
        <ele>1909.967</ele>
        <time>2018-07-01T12:54:41Z</time>
      </trkpt>
      <trkpt lat="44.12013" lon="7.69555">
        <ele>1909.939</ele>
        <time>2018-07-01T12:54:42Z</time>
      </trkpt>
      <trkpt lat="44.12015" lon="7.69542">
        <ele>1911.462</ele>
        <time>2018-07-01T12:54:43Z</time>
      </trkpt>
      <trkpt lat="44.12018" lon="7.6953">
        <ele>1911.657</ele>
        <time>2018-07-01T12:54:44Z</time>
      </trkpt>
      <trkpt lat="44.12022" lon="7.69519">
        <ele>1911.468</ele>
        <time>2018-07-01T12:54:45Z</time>
      </trkpt>
      <trkpt lat="44.12026" lon="7.69507">
        <ele>1911.085</ele>
        <time>2018-07-01T12:54:46Z</time>
      </trkpt>
      <trkpt lat="44.12031" lon="7.69499">
        <ele>1912.189</ele>
        <time>2018-07-01T12:54:47Z</time>
      </trkpt>
      <trkpt lat="44.12033" lon="7.69489">
        <ele>1910.117</ele>
        <time>2018-07-01T12:54:48Z</time>
      </trkpt>
      <trkpt lat="44.12034" lon="7.69477">
        <ele>1908.808</ele>
        <time>2018-07-01T12:54:49Z</time>
      </trkpt>
      <trkpt lat="44.12035" lon="7.69465">
        <ele>1910.57</ele>
        <time>2018-07-01T12:54:50Z</time>
      </trkpt>
      <trkpt lat="44.12037" lon="7.69454">
        <ele>1911.894</ele>
        <time>2018-07-01T12:54:51Z</time>
      </trkpt>
      <trkpt lat="44.12035" lon="7.6944">
        <ele>1910.96</ele>
        <time>2018-07-01T12:54:52Z</time>
      </trkpt>
      <trkpt lat="44.12036" lon="7.69424">
        <ele>1912.543</ele>
        <time>2018-07-01T12:54:53Z</time>
      </trkpt>
      <trkpt lat="44.12036" lon="7.69407">
        <ele>1914.225</ele>
        <time>2018-07-01T12:54:54Z</time>
      </trkpt>
      <trkpt lat="44.12037" lon="7.69398">
        <ele>1913.978</ele>
        <time>2018-07-01T12:54:55Z</time>
      </trkpt>
      <trkpt lat="44.12036" lon="7.69382">
        <ele>1914.443</ele>
        <time>2018-07-01T12:54:56Z</time>
      </trkpt>
      <trkpt lat="44.12037" lon="7.69368">
        <ele>1913.254</ele>
        <time>2018-07-01T12:54:57Z</time>
      </trkpt>
      <trkpt lat="44.12035" lon="7.69354">
        <ele>1913.153</ele>
        <time>2018-07-01T12:54:58Z</time>
      </trkpt>
      <trkpt lat="44.12035" lon="7.69338">
        <ele>1914.004</ele>
        <time>2018-07-01T12:54:59Z</time>
      </trkpt>
      <trkpt lat="44.12039" lon="7.69329">
        <ele>1916.314</ele>
        <time>2018-07-01T12:55:00Z</time>
      </trkpt>
      <trkpt lat="44.1204" lon="7.69315">
        <ele>1916.108</ele>
        <time>2018-07-01T12:55:01Z</time>
      </trkpt>
      <trkpt lat="44.12042" lon="7.69303">
        <ele>1916.087</ele>
        <time>2018-07-01T12:55:02Z</time>
      </trkpt>
      <trkpt lat="44.12042" lon="7.69292">
        <ele>1916.521</ele>
        <time>2018-07-01T12:55:03Z</time>
      </trkpt>
      <trkpt lat="44.12043" lon="7.69279">
        <ele>1917.077</ele>
        <time>2018-07-01T12:55:04Z</time>
      </trkpt>
      <trkpt lat="44.12046" lon="7.69266">
        <ele>1916.74</ele>
        <time>2018-07-01T12:55:05Z</time>
      </trkpt>
      <trkpt lat="44.12049" lon="7.69253">
        <ele>1916.752</ele>
        <time>2018-07-01T12:55:06Z</time>
      </trkpt>
      <trkpt lat="44.12052" lon="7.69246">
        <ele>1916.775</ele>
        <time>2018-07-01T12:55:07Z</time>
      </trkpt>
      <trkpt lat="44.12053" lon="7.69238">
        <ele>1916.56</ele>
        <time>2018-07-01T12:55:08Z</time>
      </trkpt>
      <trkpt lat="44.12056" lon="7.69232">
        <ele>1917.491</ele>
        <time>2018-07-01T12:55:09Z</time>
      </trkpt>
      <trkpt lat="44.1206" lon="7.69222">
        <ele>1917.021</ele>
        <time>2018-07-01T12:55:10Z</time>
      </trkpt>
      <trkpt lat="44.12065" lon="7.69213">
        <ele>1917.441</ele>
        <time>2018-07-01T12:55:11Z</time>
      </trkpt>
      <trkpt lat="44.12068" lon="7.69204">
        <ele>1918.505</ele>
        <time>2018-07-01T12:55:12Z</time>
      </trkpt>
      <trkpt lat="44.1207" lon="7.69192">
        <ele>1919.408</ele>
        <time>2018-07-01T12:55:13Z</time>
      </trkpt>
      <trkpt lat="44.12072" lon="7.6918">
        <ele>1920.954</ele>
        <time>2018-07-01T12:55:14Z</time>
      </trkpt>
      <trkpt lat="44.12076" lon="7.69174">
        <ele>1920.378</ele>
        <time>2018-07-01T12:55:15Z</time>
      </trkpt>
      <trkpt lat="44.12078" lon="7.69167">
        <ele>1918.214</ele>
        <time>2018-07-01T12:55:16Z</time>
      </trkpt>
      <trkpt lat="44.12081" lon="7.69158">
        <ele>1919.857</ele>
        <time>2018-07-01T12:55:17Z</time>
      </trkpt>
      <trkpt lat="44.12086" lon="7.69149">
        <ele>1921.099</ele>
        <time>2018-07-01T12:55:18Z</time>
      </trkpt>
      <trkpt lat="44.12091" lon="7.69142">
        <ele>1921.142</ele>
        <time>2018-07-01T12:55:19Z</time>
      </trkpt>
      <trkpt lat="44.12099" lon="7.69137">
        <ele>1922.937</ele>
        <time>2018-07-01T12:55:20Z</time>
      </trkpt>
      <trkpt lat="44.12105" lon="7.69135">
        <ele>1923.318</ele>
        <time>2018-07-01T12:55:21Z</time>
      </trkpt>
      <trkpt lat="44.12113" lon="7.69137">
        <ele>1921.995</ele>
        <time>2018-07-01T12:55:22Z</time>
      </trkpt>
      <trkpt lat="44.1212" lon="7.6914">
        <ele>1920.349</ele>
        <time>2018-07-01T12:55:23Z</time>
      </trkpt>
      <trkpt lat="44.12128" lon="7.69139">
        <ele>1919.723</ele>
        <time>2018-07-01T12:55:24Z</time>
      </trkpt>
      <trkpt lat="44.12137" lon="7.69138">
        <ele>1920.908</ele>
        <time>2018-07-01T12:55:25Z</time>
      </trkpt>
      <trkpt lat="44.12144" lon="7.69138">
        <ele>1921.941</ele>
        <time>2018-07-01T12:55:26Z</time>
      </trkpt>
      <trkpt lat="44.12157" lon="7.69134">
        <ele>1921.295</ele>
        <time>2018-07-01T12:55:27Z</time>
      </trkpt>
      <trkpt lat="44.12164" lon="7.69131">
        <ele>1921.041</ele>
        <time>2018-07-01T12:55:28Z</time>
      </trkpt>
      <trkpt lat="44.12173" lon="7.69127">
        <ele>1922.374</ele>
        <time>2018-07-01T12:55:29Z</time>
      </trkpt>
      <trkpt lat="44.12179" lon="7.69124">
        <ele>1921.846</ele>
        <time>2018-07-01T12:55:30Z</time>
      </trkpt>
      <trkpt lat="44.12187" lon="7.6912">
        <ele>1922.319</ele>
        <time>2018-07-01T12:55:31Z</time>
      </trkpt>
      <trkpt lat="44.12192" lon="7.69117">
        <ele>1922.484</ele>
        <time>2018-07-01T12:55:32Z</time>
      </trkpt>
      <trkpt lat="44.12199" lon="7.69114">
        <ele>1922.195</ele>
        <time>2018-07-01T12:55:33Z</time>
      </trkpt>
      <trkpt lat="44.12202" lon="7.69106">
        <ele>1921.047</ele>
        <time>2018-07-01T12:55:35Z</time>
      </trkpt>
      <trkpt lat="44.12198" lon="7.69093">
        <ele>1919.429</ele>
        <time>2018-07-01T12:55:36Z</time>
      </trkpt>
      <trkpt lat="44.12198" lon="7.69081">
        <ele>1919.121</ele>
        <time>2018-07-01T12:55:37Z</time>
      </trkpt>
      <trkpt lat="44.12196" lon="7.69071">
        <ele>1917.908</ele>
        <time>2018-07-01T12:55:38Z</time>
      </trkpt>
      <trkpt lat="44.12196" lon="7.69058">
        <ele>1917.536</ele>
        <time>2018-07-01T12:55:39Z</time>
      </trkpt>
      <trkpt lat="44.12198" lon="7.69047">
        <ele>1918.02</ele>
        <time>2018-07-01T12:55:40Z</time>
      </trkpt>
      <trkpt lat="44.12201" lon="7.69037">
        <ele>1917.646</ele>
        <time>2018-07-01T12:55:41Z</time>
      </trkpt>
      <trkpt lat="44.12205" lon="7.69029">
        <ele>1918.699</ele>
        <time>2018-07-01T12:55:42Z</time>
      </trkpt>
      <trkpt lat="44.12211" lon="7.69022">
        <ele>1919.171</ele>
        <time>2018-07-01T12:55:43Z</time>
      </trkpt>
      <trkpt lat="44.12217" lon="7.69021">
        <ele>1922.334</ele>
        <time>2018-07-01T12:55:44Z</time>
      </trkpt>
      <trkpt lat="44.12226" lon="7.69022">
        <ele>1921.649</ele>
        <time>2018-07-01T12:55:45Z</time>
      </trkpt>
      <trkpt lat="44.12234" lon="7.69022">
        <ele>1920.71</ele>
        <time>2018-07-01T12:55:46Z</time>
      </trkpt>
      <trkpt lat="44.12241" lon="7.69023">
        <ele>1920.672</ele>
        <time>2018-07-01T12:55:47Z</time>
      </trkpt>
      <trkpt lat="44.12249" lon="7.69022">
        <ele>1918.513</ele>
        <time>2018-07-01T12:55:48Z</time>
      </trkpt>
      <trkpt lat="44.12254" lon="7.69023">
        <ele>1917.714</ele>
        <time>2018-07-01T12:55:49Z</time>
      </trkpt>
      <trkpt lat="44.12259" lon="7.69023">
        <ele>1918.308</ele>
        <time>2018-07-01T12:55:50Z</time>
      </trkpt>
      <trkpt lat="44.12265" lon="7.6903">
        <ele>1918.899</ele>
        <time>2018-07-01T12:55:52Z</time>
      </trkpt>
      <trkpt lat="44.1227" lon="7.69038">
        <ele>1918.363</ele>
        <time>2018-07-01T12:55:54Z</time>
      </trkpt>
      <trkpt lat="44.12273" lon="7.69043">
        <ele>1919.069</ele>
        <time>2018-07-01T12:55:55Z</time>
      </trkpt>
      <trkpt lat="44.12279" lon="7.69047">
        <ele>1919.222</ele>
        <time>2018-07-01T12:55:56Z</time>
      </trkpt>
      <trkpt lat="44.12283" lon="7.69052">
        <ele>1920.124</ele>
        <time>2018-07-01T12:55:57Z</time>
      </trkpt>
      <trkpt lat="44.12288" lon="7.69054">
        <ele>1921.137</ele>
        <time>2018-07-01T12:55:58Z</time>
      </trkpt>
      <trkpt lat="44.12294" lon="7.69055">
        <ele>1921.362</ele>
        <time>2018-07-01T12:55:59Z</time>
      </trkpt>
      <trkpt lat="44.12299" lon="7.69054">
        <ele>1920.993</ele>
        <time>2018-07-01T12:56:00Z</time>
      </trkpt>
      <trkpt lat="44.12303" lon="7.69053">
        <ele>1921.074</ele>
        <time>2018-07-01T12:56:01Z</time>
      </trkpt>
      <trkpt lat="44.12314" lon="7.6905">
        <ele>1921.056</ele>
        <time>2018-07-01T12:56:03Z</time>
      </trkpt>
      <trkpt lat="44.12323" lon="7.6905">
        <ele>1919.821</ele>
        <time>2018-07-01T12:56:05Z</time>
      </trkpt>
      <trkpt lat="44.1233" lon="7.69049">
        <ele>1919.308</ele>
        <time>2018-07-01T12:56:07Z</time>
      </trkpt>
      <trkpt lat="44.12335" lon="7.69053">
        <ele>1919.619</ele>
        <time>2018-07-01T12:56:08Z</time>
      </trkpt>
      <trkpt lat="44.12339" lon="7.69056">
        <ele>1920.063</ele>
        <time>2018-07-01T12:56:09Z</time>
      </trkpt>
      <trkpt lat="44.12344" lon="7.69057">
        <ele>1921.129</ele>
        <time>2018-07-01T12:56:10Z</time>
      </trkpt>
      <trkpt lat="44.12349" lon="7.69057">
        <ele>1920.542</ele>
        <time>2018-07-01T12:56:11Z</time>
      </trkpt>
      <trkpt lat="44.12353" lon="7.69059">
        <ele>1922.254</ele>
        <time>2018-07-01T12:56:12Z</time>
      </trkpt>
      <trkpt lat="44.12364" lon="7.69059">
        <ele>1924.117</ele>
        <time>2018-07-01T12:56:14Z</time>
      </trkpt>
      <trkpt lat="44.12373" lon="7.6906">
        <ele>1924.272</ele>
        <time>2018-07-01T12:56:15Z</time>
      </trkpt>
      <trkpt lat="44.1238" lon="7.6906">
        <ele>1924.893</ele>
        <time>2018-07-01T12:56:16Z</time>
      </trkpt>
      <trkpt lat="44.12387" lon="7.69061">
        <ele>1925.247</ele>
        <time>2018-07-01T12:56:17Z</time>
      </trkpt>
      <trkpt lat="44.12395" lon="7.6906">
        <ele>1924.829</ele>
        <time>2018-07-01T12:56:18Z</time>
      </trkpt>
      <trkpt lat="44.12403" lon="7.69061">
        <ele>1925.221</ele>
        <time>2018-07-01T12:56:19Z</time>
      </trkpt>
      <trkpt lat="44.12411" lon="7.69064">
        <ele>1925.608</ele>
        <time>2018-07-01T12:56:20Z</time>
      </trkpt>
      <trkpt lat="44.12419" lon="7.69067">
        <ele>1925.816</ele>
        <time>2018-07-01T12:56:21Z</time>
      </trkpt>
      <trkpt lat="44.12428" lon="7.69074">
        <ele>1926.95</ele>
        <time>2018-07-01T12:56:22Z</time>
      </trkpt>
      <trkpt lat="44.12435" lon="7.6908">
        <ele>1929.496</ele>
        <time>2018-07-01T12:56:23Z</time>
      </trkpt>
      <trkpt lat="44.12443" lon="7.69086">
        <ele>1930.779</ele>
        <time>2018-07-01T12:56:24Z</time>
      </trkpt>
      <trkpt lat="44.1245" lon="7.69093">
        <ele>1931.971</ele>
        <time>2018-07-01T12:56:25Z</time>
      </trkpt>
      <trkpt lat="44.12457" lon="7.69099">
        <ele>1930.824</ele>
        <time>2018-07-01T12:56:26Z</time>
      </trkpt>
      <trkpt lat="44.12464" lon="7.69106">
        <ele>1931.669</ele>
        <time>2018-07-01T12:56:27Z</time>
      </trkpt>
      <trkpt lat="44.1247" lon="7.69115">
        <ele>1932.16</ele>
        <time>2018-07-01T12:56:28Z</time>
      </trkpt>
      <trkpt lat="44.12477" lon="7.69122">
        <ele>1932.548</ele>
        <time>2018-07-01T12:56:29Z</time>
      </trkpt>
      <trkpt lat="44.12481" lon="7.69131">
        <ele>1933.661</ele>
        <time>2018-07-01T12:56:30Z</time>
      </trkpt>
      <trkpt lat="44.12485" lon="7.69139">
        <ele>1934.717</ele>
        <time>2018-07-01T12:56:31Z</time>
      </trkpt>
      <trkpt lat="44.12488" lon="7.69147">
        <ele>1934.608</ele>
        <time>2018-07-01T12:56:32Z</time>
      </trkpt>
      <trkpt lat="44.12491" lon="7.69156">
        <ele>1934.936</ele>
        <time>2018-07-01T12:56:33Z</time>
      </trkpt>
      <trkpt lat="44.12493" lon="7.69165">
        <ele>1935.07</ele>
        <time>2018-07-01T12:56:34Z</time>
      </trkpt>
      <trkpt lat="44.12495" lon="7.69173">
        <ele>1935.356</ele>
        <time>2018-07-01T12:56:35Z</time>
      </trkpt>
      <trkpt lat="44.12499" lon="7.69181">
        <ele>1933.839</ele>
        <time>2018-07-01T12:56:36Z</time>
      </trkpt>
      <trkpt lat="44.12502" lon="7.69189">
        <ele>1934.041</ele>
        <time>2018-07-01T12:56:37Z</time>
      </trkpt>
      <trkpt lat="44.12505" lon="7.69197">
        <ele>1933.154</ele>
        <time>2018-07-01T12:56:38Z</time>
      </trkpt>
      <trkpt lat="44.12507" lon="7.69206">
        <ele>1932.329</ele>
        <time>2018-07-01T12:56:39Z</time>
      </trkpt>
      <trkpt lat="44.12511" lon="7.69212">
        <ele>1931.16</ele>
        <time>2018-07-01T12:56:40Z</time>
      </trkpt>
      <trkpt lat="44.12513" lon="7.69221">
        <ele>1933.012</ele>
        <time>2018-07-01T12:56:41Z</time>
      </trkpt>
      <trkpt lat="44.12524" lon="7.69228">
        <ele>1934.632</ele>
        <time>2018-07-01T12:56:43Z</time>
      </trkpt>
      <trkpt lat="44.12532" lon="7.69231">
        <ele>1935.005</ele>
        <time>2018-07-01T12:56:45Z</time>
      </trkpt>
      <trkpt lat="44.12544" lon="7.69223">
        <ele>1933.308</ele>
        <time>2018-07-01T12:56:47Z</time>
      </trkpt>
      <trkpt lat="44.12553" lon="7.69219">
        <ele>1934.933</ele>
        <time>2018-07-01T12:56:48Z</time>
      </trkpt>
      <trkpt lat="44.12561" lon="7.69215">
        <ele>1935.687</ele>
        <time>2018-07-01T12:56:49Z</time>
      </trkpt>
      <trkpt lat="44.1257" lon="7.69212">
        <ele>1938.143</ele>
        <time>2018-07-01T12:56:50Z</time>
      </trkpt>
      <trkpt lat="44.12579" lon="7.69207">
        <ele>1938.876</ele>
        <time>2018-07-01T12:56:51Z</time>
      </trkpt>
      <trkpt lat="44.12588" lon="7.69204">
        <ele>1939.478</ele>
        <time>2018-07-01T12:56:52Z</time>
      </trkpt>
      <trkpt lat="44.12596" lon="7.69201">
        <ele>1938.921</ele>
        <time>2018-07-01T12:56:53Z</time>
      </trkpt>
      <trkpt lat="44.12604" lon="7.69199">
        <ele>1939.596</ele>
        <time>2018-07-01T12:56:54Z</time>
      </trkpt>
      <trkpt lat="44.12612" lon="7.69196">
        <ele>1938.737</ele>
        <time>2018-07-01T12:56:55Z</time>
      </trkpt>
      <trkpt lat="44.12619" lon="7.69192">
        <ele>1939.253</ele>
        <time>2018-07-01T12:56:56Z</time>
      </trkpt>
      <trkpt lat="44.12626" lon="7.6919">
        <ele>1939.004</ele>
        <time>2018-07-01T12:56:57Z</time>
      </trkpt>
      <trkpt lat="44.12635" lon="7.69186">
        <ele>1940.114</ele>
        <time>2018-07-01T12:56:58Z</time>
      </trkpt>
      <trkpt lat="44.12642" lon="7.69181">
        <ele>1940.208</ele>
        <time>2018-07-01T12:56:59Z</time>
      </trkpt>
      <trkpt lat="44.1265" lon="7.69176">
        <ele>1941.657</ele>
        <time>2018-07-01T12:57:00Z</time>
      </trkpt>
      <trkpt lat="44.12658" lon="7.6917">
        <ele>1941.571</ele>
        <time>2018-07-01T12:57:01Z</time>
      </trkpt>
      <trkpt lat="44.12666" lon="7.69164">
        <ele>1942.187</ele>
        <time>2018-07-01T12:57:02Z</time>
      </trkpt>
      <trkpt lat="44.12673" lon="7.69159">
        <ele>1942.25</ele>
        <time>2018-07-01T12:57:03Z</time>
      </trkpt>
      <trkpt lat="44.1268" lon="7.69153">
        <ele>1943.142</ele>
        <time>2018-07-01T12:57:04Z</time>
      </trkpt>
      <trkpt lat="44.12686" lon="7.69148">
        <ele>1942.755</ele>
        <time>2018-07-01T12:57:05Z</time>
      </trkpt>
      <trkpt lat="44.12693" lon="7.69143">
        <ele>1942.81</ele>
        <time>2018-07-01T12:57:06Z</time>
      </trkpt>
      <trkpt lat="44.12699" lon="7.69137">
        <ele>1942.231</ele>
        <time>2018-07-01T12:57:07Z</time>
      </trkpt>
      <trkpt lat="44.12704" lon="7.69132">
        <ele>1941.852</ele>
        <time>2018-07-01T12:57:08Z</time>
      </trkpt>
      <trkpt lat="44.1271" lon="7.69127">
        <ele>1942.453</ele>
        <time>2018-07-01T12:57:09Z</time>
      </trkpt>
      <trkpt lat="44.12718" lon="7.69122">
        <ele>1943.308</ele>
        <time>2018-07-01T12:57:10Z</time>
      </trkpt>
      <trkpt lat="44.12727" lon="7.69118">
        <ele>1942.808</ele>
        <time>2018-07-01T12:57:11Z</time>
      </trkpt>
      <trkpt lat="44.12735" lon="7.69114">
        <ele>1943.127</ele>
        <time>2018-07-01T12:57:12Z</time>
      </trkpt>
      <trkpt lat="44.12743" lon="7.69112">
        <ele>1943.261</ele>
        <time>2018-07-01T12:57:13Z</time>
      </trkpt>
      <trkpt lat="44.12751" lon="7.69107">
        <ele>1943.527</ele>
        <time>2018-07-01T12:57:14Z</time>
      </trkpt>
      <trkpt lat="44.12759" lon="7.69103">
        <ele>1944.33</ele>
        <time>2018-07-01T12:57:15Z</time>
      </trkpt>
      <trkpt lat="44.12766" lon="7.69098">
        <ele>1943.932</ele>
        <time>2018-07-01T12:57:16Z</time>
      </trkpt>
      <trkpt lat="44.12773" lon="7.69093">
        <ele>1943.775</ele>
        <time>2018-07-01T12:57:17Z</time>
      </trkpt>
      <trkpt lat="44.12781" lon="7.69087">
        <ele>1944.75</ele>
        <time>2018-07-01T12:57:18Z</time>
      </trkpt>
      <trkpt lat="44.12789" lon="7.69083">
        <ele>1945.961</ele>
        <time>2018-07-01T12:57:19Z</time>
      </trkpt>
      <trkpt lat="44.12795" lon="7.69077">
        <ele>1946.339</ele>
        <time>2018-07-01T12:57:20Z</time>
      </trkpt>
      <trkpt lat="44.12802" lon="7.6907">
        <ele>1946.401</ele>
        <time>2018-07-01T12:57:21Z</time>
      </trkpt>
      <trkpt lat="44.12809" lon="7.69063">
        <ele>1948.021</ele>
        <time>2018-07-01T12:57:22Z</time>
      </trkpt>
      <trkpt lat="44.12815" lon="7.69056">
        <ele>1948.308</ele>
        <time>2018-07-01T12:57:23Z</time>
      </trkpt>
      <trkpt lat="44.12819" lon="7.69048">
        <ele>1948.745</ele>
        <time>2018-07-01T12:57:24Z</time>
      </trkpt>
      <trkpt lat="44.12824" lon="7.69037">
        <ele>1948.919</ele>
        <time>2018-07-01T12:57:25Z</time>
      </trkpt>
      <trkpt lat="44.12827" lon="7.69028">
        <ele>1949.355</ele>
        <time>2018-07-01T12:57:26Z</time>
      </trkpt>
      <trkpt lat="44.12831" lon="7.69018">
        <ele>1949.828</ele>
        <time>2018-07-01T12:57:27Z</time>
      </trkpt>
      <trkpt lat="44.12833" lon="7.69007">
        <ele>1949.91</ele>
        <time>2018-07-01T12:57:28Z</time>
      </trkpt>
      <trkpt lat="44.12835" lon="7.68996">
        <ele>1950.693</ele>
        <time>2018-07-01T12:57:29Z</time>
      </trkpt>
      <trkpt lat="44.12837" lon="7.68987">
        <ele>1950.458</ele>
        <time>2018-07-01T12:57:30Z</time>
      </trkpt>
      <trkpt lat="44.1284" lon="7.68975">
        <ele>1950.589</ele>
        <time>2018-07-01T12:57:31Z</time>
      </trkpt>
      <trkpt lat="44.12841" lon="7.68963">
        <ele>1950.623</ele>
        <time>2018-07-01T12:57:32Z</time>
      </trkpt>
      <trkpt lat="44.12842" lon="7.68951">
        <ele>1950.783</ele>
        <time>2018-07-01T12:57:33Z</time>
      </trkpt>
      <trkpt lat="44.12844" lon="7.68941">
        <ele>1951.311</ele>
        <time>2018-07-01T12:57:34Z</time>
      </trkpt>
      <trkpt lat="44.12847" lon="7.6893">
        <ele>1951.408</ele>
        <time>2018-07-01T12:57:35Z</time>
      </trkpt>
      <trkpt lat="44.12848" lon="7.68922">
        <ele>1951.324</ele>
        <time>2018-07-01T12:57:36Z</time>
      </trkpt>
      <trkpt lat="44.12849" lon="7.68913">
        <ele>1951.658</ele>
        <time>2018-07-01T12:57:37Z</time>
      </trkpt>
      <trkpt lat="44.1285" lon="7.68905">
        <ele>1951.944</ele>
        <time>2018-07-01T12:57:38Z</time>
      </trkpt>
      <trkpt lat="44.12848" lon="7.68896">
        <ele>1951.957</ele>
        <time>2018-07-01T12:57:39Z</time>
      </trkpt>
      <trkpt lat="44.12845" lon="7.68887">
        <ele>1951.799</ele>
        <time>2018-07-01T12:57:40Z</time>
      </trkpt>
      <trkpt lat="44.1284" lon="7.68875">
        <ele>1951.692</ele>
        <time>2018-07-01T12:57:41Z</time>
      </trkpt>
      <trkpt lat="44.12837" lon="7.68863">
        <ele>1952.127</ele>
        <time>2018-07-01T12:57:42Z</time>
      </trkpt>
      <trkpt lat="44.12836" lon="7.68857">
        <ele>1952.698</ele>
        <time>2018-07-01T12:57:43Z</time>
      </trkpt>
      <trkpt lat="44.12833" lon="7.68844">
        <ele>1952.479</ele>
        <time>2018-07-01T12:57:44Z</time>
      </trkpt>
      <trkpt lat="44.1283" lon="7.68835">
        <ele>1952.805</ele>
        <time>2018-07-01T12:57:45Z</time>
      </trkpt>
      <trkpt lat="44.12827" lon="7.68823">
        <ele>1952.525</ele>
        <time>2018-07-01T12:57:46Z</time>
      </trkpt>
      <trkpt lat="44.12825" lon="7.68813">
        <ele>1952.408</ele>
        <time>2018-07-01T12:57:47Z</time>
      </trkpt>
      <trkpt lat="44.12821" lon="7.68802">
        <ele>1951.759</ele>
        <time>2018-07-01T12:57:48Z</time>
      </trkpt>
      <trkpt lat="44.1282" lon="7.68792">
        <ele>1951.853</ele>
        <time>2018-07-01T12:57:49Z</time>
      </trkpt>
      <trkpt lat="44.12817" lon="7.68781">
        <ele>1951.469</ele>
        <time>2018-07-01T12:57:50Z</time>
      </trkpt>
      <trkpt lat="44.12824" lon="7.68774">
        <ele>1952.032</ele>
        <time>2018-07-01T12:57:51Z</time>
      </trkpt>
      <trkpt lat="44.12827" lon="7.68765">
        <ele>1953.444</ele>
        <time>2018-07-01T12:57:52Z</time>
      </trkpt>
      <trkpt lat="44.12829" lon="7.68752">
        <ele>1953.057</ele>
        <time>2018-07-01T12:57:53Z</time>
      </trkpt>
      <trkpt lat="44.12834" lon="7.68743">
        <ele>1954.542</ele>
        <time>2018-07-01T12:57:54Z</time>
      </trkpt>
      <trkpt lat="44.12836" lon="7.68734">
        <ele>1955.513</ele>
        <time>2018-07-01T12:57:55Z</time>
      </trkpt>
      <trkpt lat="44.12839" lon="7.68725">
        <ele>1956.189</ele>
        <time>2018-07-01T12:57:56Z</time>
      </trkpt>
      <trkpt lat="44.12838" lon="7.68713">
        <ele>1957.106</ele>
        <time>2018-07-01T12:57:57Z</time>
      </trkpt>
      <trkpt lat="44.12836" lon="7.687">
        <ele>1956.326</ele>
        <time>2018-07-01T12:57:58Z</time>
      </trkpt>
      <trkpt lat="44.12835" lon="7.6869">
        <ele>1955.108</ele>
        <time>2018-07-01T12:57:59Z</time>
      </trkpt>
      <trkpt lat="44.12834" lon="7.68681">
        <ele>1954.51</ele>
        <time>2018-07-01T12:58:00Z</time>
      </trkpt>
      <trkpt lat="44.12832" lon="7.68673">
        <ele>1954.144</ele>
        <time>2018-07-01T12:58:01Z</time>
      </trkpt>
      <trkpt lat="44.12831" lon="7.68667">
        <ele>1954.35</ele>
        <time>2018-07-01T12:58:02Z</time>
      </trkpt>
      <trkpt lat="44.12828" lon="7.68655">
        <ele>1955.123</ele>
        <time>2018-07-01T12:58:04Z</time>
      </trkpt>
      <trkpt lat="44.12824" lon="7.68647">
        <ele>1954.365</ele>
        <time>2018-07-01T12:58:06Z</time>
      </trkpt>
      <trkpt lat="44.12817" lon="7.68643">
        <ele>1954.568</ele>
        <time>2018-07-01T12:58:07Z</time>
      </trkpt>
      <trkpt lat="44.12813" lon="7.68637">
        <ele>1953.813</ele>
        <time>2018-07-01T12:58:08Z</time>
      </trkpt>
      <trkpt lat="44.12806" lon="7.68625">
        <ele>1953.914</ele>
        <time>2018-07-01T12:58:09Z</time>
      </trkpt>
      <trkpt lat="44.12799" lon="7.68617">
        <ele>1953.877</ele>
        <time>2018-07-01T12:58:10Z</time>
      </trkpt>
      <trkpt lat="44.12793" lon="7.68609">
        <ele>1953.861</ele>
        <time>2018-07-01T12:58:11Z</time>
      </trkpt>
      <trkpt lat="44.12788" lon="7.68596">
        <ele>1953.527</ele>
        <time>2018-07-01T12:58:12Z</time>
      </trkpt>
      <trkpt lat="44.12782" lon="7.68585">
        <ele>1954.708</ele>
        <time>2018-07-01T12:58:13Z</time>
      </trkpt>
      <trkpt lat="44.12779" lon="7.68576">
        <ele>1955.059</ele>
        <time>2018-07-01T12:58:14Z</time>
      </trkpt>
      <trkpt lat="44.12771" lon="7.68561">
        <ele>1955.913</ele>
        <time>2018-07-01T12:58:15Z</time>
      </trkpt>
      <trkpt lat="44.12765" lon="7.6855">
        <ele>1955.959</ele>
        <time>2018-07-01T12:58:16Z</time>
      </trkpt>
      <trkpt lat="44.12756" lon="7.68535">
        <ele>1955.652</ele>
        <time>2018-07-01T12:58:17Z</time>
      </trkpt>
      <trkpt lat="44.12751" lon="7.68527">
        <ele>1955.854</ele>
        <time>2018-07-01T12:58:19Z</time>
      </trkpt>
      <trkpt lat="44.12748" lon="7.68516">
        <ele>1955.977</ele>
        <time>2018-07-01T12:58:20Z</time>
      </trkpt>
      <trkpt lat="44.12742" lon="7.68505">
        <ele>1955.572</ele>
        <time>2018-07-01T12:58:21Z</time>
      </trkpt>
      <trkpt lat="44.12737" lon="7.68496">
        <ele>1955.543</ele>
        <time>2018-07-01T12:58:22Z</time>
      </trkpt>
      <trkpt lat="44.12733" lon="7.68486">
        <ele>1955.539</ele>
        <time>2018-07-01T12:58:23Z</time>
      </trkpt>
      <trkpt lat="44.12731" lon="7.68478">
        <ele>1956.101</ele>
        <time>2018-07-01T12:58:24Z</time>
      </trkpt>
      <trkpt lat="44.12727" lon="7.68467">
        <ele>1955.921</ele>
        <time>2018-07-01T12:58:25Z</time>
      </trkpt>
      <trkpt lat="44.12723" lon="7.68457">
        <ele>1956.108</ele>
        <time>2018-07-01T12:58:26Z</time>
      </trkpt>
      <trkpt lat="44.12721" lon="7.68449">
        <ele>1957.225</ele>
        <time>2018-07-01T12:58:27Z</time>
      </trkpt>
      <trkpt lat="44.12718" lon="7.68442">
        <ele>1957.459</ele>
        <time>2018-07-01T12:58:28Z</time>
      </trkpt>
      <trkpt lat="44.12714" lon="7.68434">
        <ele>1957.625</ele>
        <time>2018-07-01T12:58:29Z</time>
      </trkpt>
      <trkpt lat="44.12711" lon="7.68425">
        <ele>1957.718</ele>
        <time>2018-07-01T12:58:30Z</time>
      </trkpt>
      <trkpt lat="44.12707" lon="7.68416">
        <ele>1958.25</ele>
        <time>2018-07-01T12:58:31Z</time>
      </trkpt>
      <trkpt lat="44.12705" lon="7.68407">
        <ele>1958.343</ele>
        <time>2018-07-01T12:58:32Z</time>
      </trkpt>
      <trkpt lat="44.12702" lon="7.68398">
        <ele>1958.888</ele>
        <time>2018-07-01T12:58:33Z</time>
      </trkpt>
      <trkpt lat="44.12699" lon="7.68387">
        <ele>1958.749</ele>
        <time>2018-07-01T12:58:34Z</time>
      </trkpt>
      <trkpt lat="44.12695" lon="7.68374">
        <ele>1958.842</ele>
        <time>2018-07-01T12:58:35Z</time>
      </trkpt>
      <trkpt lat="44.12692" lon="7.68363">
        <ele>1958.822</ele>
        <time>2018-07-01T12:58:36Z</time>
      </trkpt>
      <trkpt lat="44.12688" lon="7.68354">
        <ele>1958.714</ele>
        <time>2018-07-01T12:58:37Z</time>
      </trkpt>
      <trkpt lat="44.12684" lon="7.68348">
        <ele>1958.908</ele>
        <time>2018-07-01T12:58:38Z</time>
      </trkpt>
      <trkpt lat="44.12681" lon="7.68339">
        <ele>1959.036</ele>
        <time>2018-07-01T12:58:39Z</time>
      </trkpt>
      <trkpt lat="44.12678" lon="7.68331">
        <ele>1959.42</ele>
        <time>2018-07-01T12:58:40Z</time>
      </trkpt>
      <trkpt lat="44.12675" lon="7.68322">
        <ele>1959.226</ele>
        <time>2018-07-01T12:58:41Z</time>
      </trkpt>
      <trkpt lat="44.12672" lon="7.68311">
        <ele>1959.399</ele>
        <time>2018-07-01T12:58:42Z</time>
      </trkpt>
      <trkpt lat="44.12669" lon="7.68302">
        <ele>1959.091</ele>
        <time>2018-07-01T12:58:43Z</time>
      </trkpt>
      <trkpt lat="44.12666" lon="7.68291">
        <ele>1958.824</ele>
        <time>2018-07-01T12:58:44Z</time>
      </trkpt>
      <trkpt lat="44.12666" lon="7.68278">
        <ele>1958.359</ele>
        <time>2018-07-01T12:58:45Z</time>
      </trkpt>
      <trkpt lat="44.12669" lon="7.68271">
        <ele>1957.13</ele>
        <time>2018-07-01T12:58:46Z</time>
      </trkpt>
      <trkpt lat="44.12671" lon="7.68261">
        <ele>1957.121</ele>
        <time>2018-07-01T12:58:47Z</time>
      </trkpt>
      <trkpt lat="44.12675" lon="7.68252">
        <ele>1957.441</ele>
        <time>2018-07-01T12:58:48Z</time>
      </trkpt>
      <trkpt lat="44.1268" lon="7.68252">
        <ele>1958.905</ele>
        <time>2018-07-01T12:58:50Z</time>
      </trkpt>
      <trkpt lat="44.12678" lon="7.68245">
        <ele>1960.008</ele>
        <time>2018-07-01T12:58:52Z</time>
      </trkpt>
      <trkpt lat="44.1267" lon="7.68232">
        <ele>1960.684</ele>
        <time>2018-07-01T12:58:53Z</time>
      </trkpt>
      <trkpt lat="44.12667" lon="7.68226">
        <ele>1963.798</ele>
        <time>2018-07-01T12:58:54Z</time>
      </trkpt>
      <trkpt lat="44.1267" lon="7.68215">
        <ele>1962.044</ele>
        <time>2018-07-01T12:58:55Z</time>
      </trkpt>
      <trkpt lat="44.12671" lon="7.68205">
        <ele>1961.397</ele>
        <time>2018-07-01T12:58:56Z</time>
      </trkpt>
      <trkpt lat="44.12675" lon="7.68199">
        <ele>1963.469</ele>
        <time>2018-07-01T12:58:57Z</time>
      </trkpt>
      <trkpt lat="44.12678" lon="7.68188">
        <ele>1963.712</ele>
        <time>2018-07-01T12:58:58Z</time>
      </trkpt>
      <trkpt lat="44.12681" lon="7.68178">
        <ele>1963.777</ele>
        <time>2018-07-01T12:58:59Z</time>
      </trkpt>
      <trkpt lat="44.12683" lon="7.6817">
        <ele>1963.418</ele>
        <time>2018-07-01T12:59:00Z</time>
      </trkpt>
      <trkpt lat="44.12686" lon="7.68164">
        <ele>1964.051</ele>
        <time>2018-07-01T12:59:01Z</time>
      </trkpt>
      <trkpt lat="44.12688" lon="7.68156">
        <ele>1967.001</ele>
        <time>2018-07-01T12:59:02Z</time>
      </trkpt>
      <trkpt lat="44.12687" lon="7.68149">
        <ele>1966.111</ele>
        <time>2018-07-01T12:59:03Z</time>
      </trkpt>
      <trkpt lat="44.12687" lon="7.68141">
        <ele>1965.808</ele>
        <time>2018-07-01T12:59:04Z</time>
      </trkpt>
      <trkpt lat="44.12685" lon="7.68134">
        <ele>1965.027</ele>
        <time>2018-07-01T12:59:05Z</time>
      </trkpt>
      <trkpt lat="44.12682" lon="7.68126">
        <ele>1964.471</ele>
        <time>2018-07-01T12:59:06Z</time>
      </trkpt>
      <trkpt lat="44.12678" lon="7.68118">
        <ele>1965.087</ele>
        <time>2018-07-01T12:59:07Z</time>
      </trkpt>
      <trkpt lat="44.12674" lon="7.68109">
        <ele>1965.24</ele>
        <time>2018-07-01T12:59:08Z</time>
      </trkpt>
      <trkpt lat="44.1267" lon="7.681">
        <ele>1967.182</ele>
        <time>2018-07-01T12:59:09Z</time>
      </trkpt>
      <trkpt lat="44.12667" lon="7.68092">
        <ele>1966.875</ele>
        <time>2018-07-01T12:59:10Z</time>
      </trkpt>
      <trkpt lat="44.12663" lon="7.68084">
        <ele>1966.85</ele>
        <time>2018-07-01T12:59:11Z</time>
      </trkpt>
      <trkpt lat="44.12661" lon="7.68077">
        <ele>1967.611</ele>
        <time>2018-07-01T12:59:12Z</time>
      </trkpt>
      <trkpt lat="44.12659" lon="7.68068">
        <ele>1968.592</ele>
        <time>2018-07-01T12:59:13Z</time>
      </trkpt>
      <trkpt lat="44.1266" lon="7.68062">
        <ele>1964.973</ele>
        <time>2018-07-01T12:59:14Z</time>
      </trkpt>
      <trkpt lat="44.1266" lon="7.68053">
        <ele>1964.92</ele>
        <time>2018-07-01T12:59:15Z</time>
      </trkpt>
      <trkpt lat="44.12662" lon="7.68045">
        <ele>1965.108</ele>
        <time>2018-07-01T12:59:16Z</time>
      </trkpt>
      <trkpt lat="44.12665" lon="7.68038">
        <ele>1966.371</ele>
        <time>2018-07-01T12:59:17Z</time>
      </trkpt>
      <trkpt lat="44.12668" lon="7.68033">
        <ele>1964.365</ele>
        <time>2018-07-01T12:59:18Z</time>
      </trkpt>
      <trkpt lat="44.12673" lon="7.68029">
        <ele>1955.771</ele>
        <time>2018-07-01T12:59:19Z</time>
      </trkpt>
      <trkpt lat="44.12677" lon="7.6802">
        <ele>1958.034</ele>
        <time>2018-07-01T12:59:20Z</time>
      </trkpt>
      <trkpt lat="44.12681" lon="7.68013">
        <ele>1958.126</ele>
        <time>2018-07-01T12:59:21Z</time>
      </trkpt>
      <trkpt lat="44.12683" lon="7.68004">
        <ele>1957.469</ele>
        <time>2018-07-01T12:59:22Z</time>
      </trkpt>
      <trkpt lat="44.12687" lon="7.67997">
        <ele>1957.344</ele>
        <time>2018-07-01T12:59:23Z</time>
      </trkpt>
      <trkpt lat="44.12693" lon="7.67992">
        <ele>1958.575</ele>
        <time>2018-07-01T12:59:24Z</time>
      </trkpt>
      <trkpt lat="44.12698" lon="7.67989">
        <ele>1959.196</ele>
        <time>2018-07-01T12:59:25Z</time>
      </trkpt>
      <trkpt lat="44.12703" lon="7.67985">
        <ele>1960.131</ele>
        <time>2018-07-01T12:59:26Z</time>
      </trkpt>
      <trkpt lat="44.1271" lon="7.67988">
        <ele>1961.124</ele>
        <time>2018-07-01T12:59:27Z</time>
      </trkpt>
      <trkpt lat="44.1272" lon="7.67995">
        <ele>1961.908</ele>
        <time>2018-07-01T12:59:28Z</time>
      </trkpt>
      <trkpt lat="44.12729" lon="7.68">
        <ele>1961.971</ele>
        <time>2018-07-01T12:59:29Z</time>
      </trkpt>
      <trkpt lat="44.12739" lon="7.68005">
        <ele>1963.745</ele>
        <time>2018-07-01T12:59:30Z</time>
      </trkpt>
      <trkpt lat="44.12748" lon="7.68009">
        <ele>1963.831</ele>
        <time>2018-07-01T12:59:31Z</time>
      </trkpt>
      <trkpt lat="44.12756" lon="7.68013">
        <ele>1964.474</ele>
        <time>2018-07-01T12:59:32Z</time>
      </trkpt>
      <trkpt lat="44.12765" lon="7.68016">
        <ele>1964.946</ele>
        <time>2018-07-01T12:59:33Z</time>
      </trkpt>
      <trkpt lat="44.12774" lon="7.68018">
        <ele>1965.039</ele>
        <time>2018-07-01T12:59:34Z</time>
      </trkpt>
      <trkpt lat="44.1278" lon="7.68018">
        <ele>1964.874</ele>
        <time>2018-07-01T12:59:35Z</time>
      </trkpt>
      <trkpt lat="44.12786" lon="7.68021">
        <ele>1964.925</ele>
        <time>2018-07-01T12:59:36Z</time>
      </trkpt>
      <trkpt lat="44.12792" lon="7.68014">
        <ele>1966.655</ele>
        <time>2018-07-01T12:59:37Z</time>
      </trkpt>
      <trkpt lat="44.12799" lon="7.6801">
        <ele>1966.207</ele>
        <time>2018-07-01T12:59:38Z</time>
      </trkpt>
      <trkpt lat="44.12805" lon="7.68007">
        <ele>1965.917</ele>
        <time>2018-07-01T12:59:39Z</time>
      </trkpt>
      <trkpt lat="44.1281" lon="7.67998">
        <ele>1966.308</ele>
        <time>2018-07-01T12:59:40Z</time>
      </trkpt>
      <trkpt lat="44.12814" lon="7.67993">
        <ele>1966.357</ele>
        <time>2018-07-01T12:59:41Z</time>
      </trkpt>
      <trkpt lat="44.12819" lon="7.67987">
        <ele>1966.041</ele>
        <time>2018-07-01T12:59:42Z</time>
      </trkpt>
      <trkpt lat="44.12824" lon="7.67982">
        <ele>1965.917</ele>
        <time>2018-07-01T12:59:43Z</time>
      </trkpt>
      <trkpt lat="44.12829" lon="7.67983">
        <ele>1965.28</ele>
        <time>2018-07-01T12:59:44Z</time>
      </trkpt>
      <trkpt lat="44.12833" lon="7.67986">
        <ele>1965.432</ele>
        <time>2018-07-01T12:59:45Z</time>
      </trkpt>
      <trkpt lat="44.12837" lon="7.67995">
        <ele>1965.625</ele>
        <time>2018-07-01T12:59:47Z</time>
      </trkpt>
      <trkpt lat="44.12845" lon="7.68007">
        <ele>1965.72</ele>
        <time>2018-07-01T12:59:48Z</time>
      </trkpt>
      <trkpt lat="44.12848" lon="7.68018">
        <ele>1965.621</ele>
        <time>2018-07-01T12:59:49Z</time>
      </trkpt>
      <trkpt lat="44.12852" lon="7.68027">
        <ele>1966.249</ele>
        <time>2018-07-01T12:59:50Z</time>
      </trkpt>
      <trkpt lat="44.12856" lon="7.68033">
        <ele>1966.902</ele>
        <time>2018-07-01T12:59:51Z</time>
      </trkpt>
      <trkpt lat="44.12859" lon="7.68037">
        <ele>1967.322</ele>
        <time>2018-07-01T12:59:52Z</time>
      </trkpt>
      <trkpt lat="44.12865" lon="7.68039">
        <ele>1967.708</ele>
        <time>2018-07-01T12:59:53Z</time>
      </trkpt>
      <trkpt lat="44.1287" lon="7.68038">
        <ele>1968.466</ele>
        <time>2018-07-01T12:59:54Z</time>
      </trkpt>
      <trkpt lat="44.12876" lon="7.6804">
        <ele>1967.69</ele>
        <time>2018-07-01T12:59:55Z</time>
      </trkpt>
      <trkpt lat="44.12882" lon="7.6804">
        <ele>1967.646</ele>
        <time>2018-07-01T12:59:56Z</time>
      </trkpt>
      <trkpt lat="44.12892" lon="7.68029">
        <ele>1967.689</ele>
        <time>2018-07-01T12:59:57Z</time>
      </trkpt>
      <trkpt lat="44.129" lon="7.68024">
        <ele>1967.671</ele>
        <time>2018-07-01T12:59:58Z</time>
      </trkpt>
      <trkpt lat="44.12903" lon="7.68019">
        <ele>1967.464</ele>
        <time>2018-07-01T12:59:59Z</time>
      </trkpt>
      <trkpt lat="44.12908" lon="7.68013">
        <ele>1967.479</ele>
        <time>2018-07-01T13:00:00Z</time>
      </trkpt>
      <trkpt lat="44.12912" lon="7.68007">
        <ele>1967.53</ele>
        <time>2018-07-01T13:00:01Z</time>
      </trkpt>
      <trkpt lat="44.12916" lon="7.68001">
        <ele>1967.594</ele>
        <time>2018-07-01T13:00:02Z</time>
      </trkpt>
      <trkpt lat="44.12921" lon="7.67997">
        <ele>1967.357</ele>
        <time>2018-07-01T13:00:03Z</time>
      </trkpt>
      <trkpt lat="44.12926" lon="7.6799">
        <ele>1967.422</ele>
        <time>2018-07-01T13:00:04Z</time>
      </trkpt>
      <trkpt lat="44.1293" lon="7.67983">
        <ele>1967.708</ele>
        <time>2018-07-01T13:00:05Z</time>
      </trkpt>
      <trkpt lat="44.12932" lon="7.67975">
        <ele>1967.511</ele>
        <time>2018-07-01T13:00:06Z</time>
      </trkpt>
      <trkpt lat="44.12937" lon="7.67971">
        <ele>1967.695</ele>
        <time>2018-07-01T13:00:07Z</time>
      </trkpt>
      <trkpt lat="44.12942" lon="7.67969">
        <ele>1967.331</ele>
        <time>2018-07-01T13:00:08Z</time>
      </trkpt>
      <trkpt lat="44.12947" lon="7.67966">
        <ele>1967.214</ele>
        <time>2018-07-01T13:00:09Z</time>
      </trkpt>
      <trkpt lat="44.12955" lon="7.67967">
        <ele>1967.066</ele>
        <time>2018-07-01T13:00:10Z</time>
      </trkpt>
      <trkpt lat="44.12961" lon="7.67971">
        <ele>1967.699</ele>
        <time>2018-07-01T13:00:11Z</time>
      </trkpt>
      <trkpt lat="44.12969" lon="7.67975">
        <ele>1968.194</ele>
        <time>2018-07-01T13:00:12Z</time>
      </trkpt>
      <trkpt lat="44.12976" lon="7.67981">
        <ele>1968.665</ele>
        <time>2018-07-01T13:00:13Z</time>
      </trkpt>
      <trkpt lat="44.12982" lon="7.67987">
        <ele>1968.839</ele>
        <time>2018-07-01T13:00:14Z</time>
      </trkpt>
      <trkpt lat="44.12986" lon="7.67995">
        <ele>1968.801</ele>
        <time>2018-07-01T13:00:15Z</time>
      </trkpt>
      <trkpt lat="44.12991" lon="7.68002">
        <ele>1968.421</ele>
        <time>2018-07-01T13:00:16Z</time>
      </trkpt>
      <trkpt lat="44.12997" lon="7.68011">
        <ele>1968.608</ele>
        <time>2018-07-01T13:00:17Z</time>
      </trkpt>
      <trkpt lat="44.13001" lon="7.6802">
        <ele>1968.565</ele>
        <time>2018-07-01T13:00:18Z</time>
      </trkpt>
      <trkpt lat="44.13006" lon="7.68028">
        <ele>1968.219</ele>
        <time>2018-07-01T13:00:19Z</time>
      </trkpt>
      <trkpt lat="44.13011" lon="7.68037">
        <ele>1968.215</ele>
        <time>2018-07-01T13:00:20Z</time>
      </trkpt>
      <trkpt lat="44.13015" lon="7.68046">
        <ele>1968.648</ele>
        <time>2018-07-01T13:00:21Z</time>
      </trkpt>
      <trkpt lat="44.1302" lon="7.68054">
        <ele>1968.77</ele>
        <time>2018-07-01T13:00:22Z</time>
      </trkpt>
      <trkpt lat="44.13026" lon="7.68063">
        <ele>1968.733</ele>
        <time>2018-07-01T13:00:23Z</time>
      </trkpt>
      <trkpt lat="44.13032" lon="7.68072">
        <ele>1968.898</ele>
        <time>2018-07-01T13:00:24Z</time>
      </trkpt>
      <trkpt lat="44.13038" lon="7.68081">
        <ele>1968.839</ele>
        <time>2018-07-01T13:00:25Z</time>
      </trkpt>
      <trkpt lat="44.13043" lon="7.6809">
        <ele>1968.877</ele>
        <time>2018-07-01T13:00:26Z</time>
      </trkpt>
      <trkpt lat="44.1305" lon="7.68099">
        <ele>1969.061</ele>
        <time>2018-07-01T13:00:27Z</time>
      </trkpt>
      <trkpt lat="44.13056" lon="7.68105">
        <ele>1968.227</ele>
        <time>2018-07-01T13:00:28Z</time>
      </trkpt>
      <trkpt lat="44.13064" lon="7.68112">
        <ele>1968.608</ele>
        <time>2018-07-01T13:00:29Z</time>
      </trkpt>
      <trkpt lat="44.1307" lon="7.68122">
        <ele>1968.919</ele>
        <time>2018-07-01T13:00:30Z</time>
      </trkpt>
      <trkpt lat="44.13075" lon="7.68129">
        <ele>1968.533</ele>
        <time>2018-07-01T13:00:31Z</time>
      </trkpt>
      <trkpt lat="44.13079" lon="7.68137">
        <ele>1968.079</ele>
        <time>2018-07-01T13:00:32Z</time>
      </trkpt>
      <trkpt lat="44.13082" lon="7.68144">
        <ele>1967.912</ele>
        <time>2018-07-01T13:00:33Z</time>
      </trkpt>
      <trkpt lat="44.13088" lon="7.68147">
        <ele>1968.134</ele>
        <time>2018-07-01T13:00:34Z</time>
      </trkpt>
      <trkpt lat="44.13093" lon="7.68154">
        <ele>1968.717</ele>
        <time>2018-07-01T13:00:35Z</time>
      </trkpt>
      <trkpt lat="44.13097" lon="7.6816">
        <ele>1969.022</ele>
        <time>2018-07-01T13:00:36Z</time>
      </trkpt>
      <trkpt lat="44.13106" lon="7.68166">
        <ele>1969.053</ele>
        <time>2018-07-01T13:00:38Z</time>
      </trkpt>
      <trkpt lat="44.1311" lon="7.68168">
        <ele>1969.295</ele>
        <time>2018-07-01T13:00:39Z</time>
      </trkpt>
      <trkpt lat="44.13115" lon="7.68168">
        <ele>1969.449</ele>
        <time>2018-07-01T13:00:40Z</time>
      </trkpt>
      <trkpt lat="44.1312" lon="7.68168">
        <ele>1969.823</ele>
        <time>2018-07-01T13:00:41Z</time>
      </trkpt>
      <trkpt lat="44.13124" lon="7.68167">
        <ele>1969.408</ele>
        <time>2018-07-01T13:00:42Z</time>
      </trkpt>
      <trkpt lat="44.13128" lon="7.68163">
        <ele>1969.541</ele>
        <time>2018-07-01T13:00:43Z</time>
      </trkpt>
      <trkpt lat="44.13132" lon="7.68158">
        <ele>1969.695</ele>
        <time>2018-07-01T13:00:44Z</time>
      </trkpt>
      <trkpt lat="44.13135" lon="7.68152">
        <ele>1969.671</ele>
        <time>2018-07-01T13:00:45Z</time>
      </trkpt>
      <trkpt lat="44.13137" lon="7.68146">
        <ele>1969.514</ele>
        <time>2018-07-01T13:00:46Z</time>
      </trkpt>
      <trkpt lat="44.13141" lon="7.68141">
        <ele>1969.636</ele>
        <time>2018-07-01T13:00:47Z</time>
      </trkpt>
      <trkpt lat="44.13145" lon="7.68136">
        <ele>1970.369</ele>
        <time>2018-07-01T13:00:48Z</time>
      </trkpt>
      <trkpt lat="44.13152" lon="7.68132">
        <ele>1971.074</ele>
        <time>2018-07-01T13:00:50Z</time>
      </trkpt>
      <trkpt lat="44.13161" lon="7.6813">
        <ele>1970.325</ele>
        <time>2018-07-01T13:00:52Z</time>
      </trkpt>
      <trkpt lat="44.13165" lon="7.68127">
        <ele>1969.934</ele>
        <time>2018-07-01T13:00:53Z</time>
      </trkpt>
      <trkpt lat="44.13172" lon="7.68119">
        <ele>1969.455</ele>
        <time>2018-07-01T13:00:55Z</time>
      </trkpt>
      <trkpt lat="44.13175" lon="7.68113">
        <ele>1969.31</ele>
        <time>2018-07-01T13:00:56Z</time>
      </trkpt>
      <trkpt lat="44.13178" lon="7.68104">
        <ele>1969.508</ele>
        <time>2018-07-01T13:00:57Z</time>
      </trkpt>
      <trkpt lat="44.1318" lon="7.68092">
        <ele>1969.765</ele>
        <time>2018-07-01T13:00:58Z</time>
      </trkpt>
      <trkpt lat="44.13182" lon="7.68079">
        <ele>1970.279</ele>
        <time>2018-07-01T13:00:59Z</time>
      </trkpt>
      <trkpt lat="44.1318" lon="7.6806">
        <ele>1970.745</ele>
        <time>2018-07-01T13:01:00Z</time>
      </trkpt>
      <trkpt lat="44.13182" lon="7.68047">
        <ele>1971.178</ele>
        <time>2018-07-01T13:01:01Z</time>
      </trkpt>
      <trkpt lat="44.13183" lon="7.68034">
        <ele>1971.13</ele>
        <time>2018-07-01T13:01:02Z</time>
      </trkpt>
      <trkpt lat="44.13186" lon="7.68021">
        <ele>1971.123</ele>
        <time>2018-07-01T13:01:03Z</time>
      </trkpt>
      <trkpt lat="44.13187" lon="7.68007">
        <ele>1971.928</ele>
        <time>2018-07-01T13:01:04Z</time>
      </trkpt>
      <trkpt lat="44.13192" lon="7.67993">
        <ele>1972.649</ele>
        <time>2018-07-01T13:01:05Z</time>
      </trkpt>
      <trkpt lat="44.13196" lon="7.67979">
        <ele>1973.036</ele>
        <time>2018-07-01T13:01:06Z</time>
      </trkpt>
      <trkpt lat="44.13197" lon="7.67963">
        <ele>1973.517</ele>
        <time>2018-07-01T13:01:07Z</time>
      </trkpt>
      <trkpt lat="44.13201" lon="7.67941">
        <ele>1973.618</ele>
        <time>2018-07-01T13:01:08Z</time>
      </trkpt>
      <trkpt lat="44.13209" lon="7.67928">
        <ele>1974.308</ele>
        <time>2018-07-01T13:01:09Z</time>
      </trkpt>
      <trkpt lat="44.13213" lon="7.67917">
        <ele>1974.125</ele>
        <time>2018-07-01T13:01:10Z</time>
      </trkpt>
      <trkpt lat="44.13216" lon="7.67907">
        <ele>1975.649</ele>
        <time>2018-07-01T13:01:11Z</time>
      </trkpt>
      <trkpt lat="44.13225" lon="7.67898">
        <ele>1976.315</ele>
        <time>2018-07-01T13:01:12Z</time>
      </trkpt>
      <trkpt lat="44.13233" lon="7.67887">
        <ele>1977.068</ele>
        <time>2018-07-01T13:01:13Z</time>
      </trkpt>
      <trkpt lat="44.13242" lon="7.67876">
        <ele>1977.95</ele>
        <time>2018-07-01T13:01:14Z</time>
      </trkpt>
      <trkpt lat="44.1325" lon="7.67863">
        <ele>1978.153</ele>
        <time>2018-07-01T13:01:15Z</time>
      </trkpt>
      <trkpt lat="44.13257" lon="7.67852">
        <ele>1978.398</ele>
        <time>2018-07-01T13:01:16Z</time>
      </trkpt>
      <trkpt lat="44.13264" lon="7.67839">
        <ele>1978.889</ele>
        <time>2018-07-01T13:01:17Z</time>
      </trkpt>
      <trkpt lat="44.13271" lon="7.67831">
        <ele>1979.082</ele>
        <time>2018-07-01T13:01:18Z</time>
      </trkpt>
      <trkpt lat="44.13278" lon="7.67825">
        <ele>1979.243</ele>
        <time>2018-07-01T13:01:19Z</time>
      </trkpt>
      <trkpt lat="44.13287" lon="7.67821">
        <ele>1979.017</ele>
        <time>2018-07-01T13:01:20Z</time>
      </trkpt>
      <trkpt lat="44.13298" lon="7.67819">
        <ele>1976.508</ele>
        <time>2018-07-01T13:01:21Z</time>
      </trkpt>
      <trkpt lat="44.13306" lon="7.67815">
        <ele>1975.91</ele>
        <time>2018-07-01T13:01:22Z</time>
      </trkpt>
      <trkpt lat="44.13312" lon="7.67811">
        <ele>1976.464</ele>
        <time>2018-07-01T13:01:23Z</time>
      </trkpt>
      <trkpt lat="44.13321" lon="7.67807">
        <ele>1975.04</ele>
        <time>2018-07-01T13:01:24Z</time>
      </trkpt>
      <trkpt lat="44.13325" lon="7.67802">
        <ele>1975.373</ele>
        <time>2018-07-01T13:01:25Z</time>
      </trkpt>
      <trkpt lat="44.13328" lon="7.67794">
        <ele>1975.175</ele>
        <time>2018-07-01T13:01:26Z</time>
      </trkpt>
      <trkpt lat="44.13335" lon="7.67789">
        <ele>1975.568</ele>
        <time>2018-07-01T13:01:27Z</time>
      </trkpt>
      <trkpt lat="44.13339" lon="7.67783">
        <ele>1975.353</ele>
        <time>2018-07-01T13:01:28Z</time>
      </trkpt>
      <trkpt lat="44.13343" lon="7.67772">
        <ele>1976.194</ele>
        <time>2018-07-01T13:01:29Z</time>
      </trkpt>
      <trkpt lat="44.13341" lon="7.6776">
        <ele>1976.476</ele>
        <time>2018-07-01T13:01:30Z</time>
      </trkpt>
      <trkpt lat="44.13337" lon="7.67752">
        <ele>1975.59</ele>
        <time>2018-07-01T13:01:31Z</time>
      </trkpt>
      <trkpt lat="44.13337" lon="7.6774">
        <ele>1974.319</ele>
        <time>2018-07-01T13:01:32Z</time>
      </trkpt>
      <trkpt lat="44.1334" lon="7.67726">
        <ele>1974.008</ele>
        <time>2018-07-01T13:01:33Z</time>
      </trkpt>
      <trkpt lat="44.13344" lon="7.67712">
        <ele>1975.299</ele>
        <time>2018-07-01T13:01:34Z</time>
      </trkpt>
      <trkpt lat="44.13348" lon="7.67699">
        <ele>1974.313</ele>
        <time>2018-07-01T13:01:35Z</time>
      </trkpt>
      <trkpt lat="44.13349" lon="7.67684">
        <ele>1974.179</ele>
        <time>2018-07-01T13:01:36Z</time>
      </trkpt>
      <trkpt lat="44.13351" lon="7.67671">
        <ele>1976.152</ele>
        <time>2018-07-01T13:01:37Z</time>
      </trkpt>
      <trkpt lat="44.13354" lon="7.67659">
        <ele>1975.654</ele>
        <time>2018-07-01T13:01:38Z</time>
      </trkpt>
      <trkpt lat="44.13355" lon="7.67641">
        <ele>1975.087</ele>
        <time>2018-07-01T13:01:39Z</time>
      </trkpt>
      <trkpt lat="44.13357" lon="7.67626">
        <ele>1974.972</ele>
        <time>2018-07-01T13:01:40Z</time>
      </trkpt>
      <trkpt lat="44.13359" lon="7.67608">
        <ele>1974.233</ele>
        <time>2018-07-01T13:01:41Z</time>
      </trkpt>
      <trkpt lat="44.13361" lon="7.67593">
        <ele>1975.374</ele>
        <time>2018-07-01T13:01:42Z</time>
      </trkpt>
      <trkpt lat="44.13363" lon="7.67578">
        <ele>1976.556</ele>
        <time>2018-07-01T13:01:43Z</time>
      </trkpt>
      <trkpt lat="44.13364" lon="7.67568">
        <ele>1980.021</ele>
        <time>2018-07-01T13:01:44Z</time>
      </trkpt>
      <trkpt lat="44.13365" lon="7.67556">
        <ele>1981.508</ele>
        <time>2018-07-01T13:01:45Z</time>
      </trkpt>
      <trkpt lat="44.13366" lon="7.67545">
        <ele>1981.369</ele>
        <time>2018-07-01T13:01:46Z</time>
      </trkpt>
      <trkpt lat="44.13368" lon="7.67533">
        <ele>1983.163</ele>
        <time>2018-07-01T13:01:47Z</time>
      </trkpt>
      <trkpt lat="44.13371" lon="7.67527">
        <ele>1982.669</ele>
        <time>2018-07-01T13:01:48Z</time>
      </trkpt>
      <trkpt lat="44.13374" lon="7.67519">
        <ele>1982.742</ele>
        <time>2018-07-01T13:01:49Z</time>
      </trkpt>
      <trkpt lat="44.13377" lon="7.67512">
        <ele>1982.514</ele>
        <time>2018-07-01T13:01:50Z</time>
      </trkpt>
      <trkpt lat="44.13379" lon="7.67505">
        <ele>1982.617</ele>
        <time>2018-07-01T13:01:51Z</time>
      </trkpt>
      <trkpt lat="44.13376" lon="7.67491">
        <ele>1982.472</ele>
        <time>2018-07-01T13:01:53Z</time>
      </trkpt>
      <trkpt lat="44.13371" lon="7.6748">
        <ele>1982.483</ele>
        <time>2018-07-01T13:01:54Z</time>
      </trkpt>
      <trkpt lat="44.13369" lon="7.67469">
        <ele>1981.993</ele>
        <time>2018-07-01T13:01:55Z</time>
      </trkpt>
      <trkpt lat="44.13367" lon="7.67459">
        <ele>1981.465</ele>
        <time>2018-07-01T13:01:56Z</time>
      </trkpt>
      <trkpt lat="44.13371" lon="7.6745">
        <ele>1983.721</ele>
        <time>2018-07-01T13:01:57Z</time>
      </trkpt>
      <trkpt lat="44.13374" lon="7.67439">
        <ele>1983.008</ele>
        <time>2018-07-01T13:01:58Z</time>
      </trkpt>
      <trkpt lat="44.13379" lon="7.6743">
        <ele>1984.891</ele>
        <time>2018-07-01T13:01:59Z</time>
      </trkpt>
      <trkpt lat="44.13385" lon="7.67421">
        <ele>1986.215</ele>
        <time>2018-07-01T13:02:00Z</time>
      </trkpt>
      <trkpt lat="44.1339" lon="7.67413">
        <ele>1986.141</ele>
        <time>2018-07-01T13:02:01Z</time>
      </trkpt>
      <trkpt lat="44.13396" lon="7.67406">
        <ele>1986.264</ele>
        <time>2018-07-01T13:02:02Z</time>
      </trkpt>
      <trkpt lat="44.13403" lon="7.674">
        <ele>1988.476</ele>
        <time>2018-07-01T13:02:03Z</time>
      </trkpt>
      <trkpt lat="44.13411" lon="7.67389">
        <ele>1987.849</ele>
        <time>2018-07-01T13:02:04Z</time>
      </trkpt>
      <trkpt lat="44.13418" lon="7.67381">
        <ele>1987.924</ele>
        <time>2018-07-01T13:02:05Z</time>
      </trkpt>
      <trkpt lat="44.13426" lon="7.67372">
        <ele>1988.055</ele>
        <time>2018-07-01T13:02:06Z</time>
      </trkpt>
      <trkpt lat="44.13433" lon="7.67364">
        <ele>1988.894</ele>
        <time>2018-07-01T13:02:07Z</time>
      </trkpt>
      <trkpt lat="44.13439" lon="7.67355">
        <ele>1988.857</ele>
        <time>2018-07-01T13:02:08Z</time>
      </trkpt>
      <trkpt lat="44.13444" lon="7.67345">
        <ele>1990.322</ele>
        <time>2018-07-01T13:02:09Z</time>
      </trkpt>
      <trkpt lat="44.13449" lon="7.67337">
        <ele>1990.108</ele>
        <time>2018-07-01T13:02:10Z</time>
      </trkpt>
      <trkpt lat="44.13453" lon="7.67332">
        <ele>1989.981</ele>
        <time>2018-07-01T13:02:11Z</time>
      </trkpt>
      <trkpt lat="44.13457" lon="7.67327">
        <ele>1989.685</ele>
        <time>2018-07-01T13:02:12Z</time>
      </trkpt>
      <trkpt lat="44.13463" lon="7.67325">
        <ele>1991.831</ele>
        <time>2018-07-01T13:02:13Z</time>
      </trkpt>
      <trkpt lat="44.13468" lon="7.67325">
        <ele>1991.574</ele>
        <time>2018-07-01T13:02:14Z</time>
      </trkpt>
      <trkpt lat="44.13477" lon="7.67327">
        <ele>1992.276</ele>
        <time>2018-07-01T13:02:15Z</time>
      </trkpt>
      <trkpt lat="44.1348" lon="7.67333">
        <ele>1995.099</ele>
        <time>2018-07-01T13:02:16Z</time>
      </trkpt>
      <trkpt lat="44.13482" lon="7.67339">
        <ele>1996.294</ele>
        <time>2018-07-01T13:02:17Z</time>
      </trkpt>
      <trkpt lat="44.13488" lon="7.67344">
        <ele>1996.825</ele>
        <time>2018-07-01T13:02:18Z</time>
      </trkpt>
      <trkpt lat="44.13493" lon="7.6735">
        <ele>1998.895</ele>
        <time>2018-07-01T13:02:19Z</time>
      </trkpt>
      <trkpt lat="44.13501" lon="7.67359">
        <ele>1999.749</ele>
        <time>2018-07-01T13:02:20Z</time>
      </trkpt>
      <trkpt lat="44.13508" lon="7.67369">
        <ele>2000.423</ele>
        <time>2018-07-01T13:02:21Z</time>
      </trkpt>
      <trkpt lat="44.13516" lon="7.67375">
        <ele>2001.308</ele>
        <time>2018-07-01T13:02:22Z</time>
      </trkpt>
      <trkpt lat="44.13521" lon="7.6738">
        <ele>2000.471</ele>
        <time>2018-07-01T13:02:23Z</time>
      </trkpt>
      <trkpt lat="44.13527" lon="7.67385">
        <ele>2000.995</ele>
        <time>2018-07-01T13:02:24Z</time>
      </trkpt>
      <trkpt lat="44.13534" lon="7.6739">
        <ele>2000.651</ele>
        <time>2018-07-01T13:02:25Z</time>
      </trkpt>
      <trkpt lat="44.13541" lon="7.67395">
        <ele>2002.424</ele>
        <time>2018-07-01T13:02:26Z</time>
      </trkpt>
      <trkpt lat="44.13547" lon="7.67399">
        <ele>2003.956</ele>
        <time>2018-07-01T13:02:27Z</time>
      </trkpt>
      <trkpt lat="44.13554" lon="7.67403">
        <ele>2004.219</ele>
        <time>2018-07-01T13:02:28Z</time>
      </trkpt>
      <trkpt lat="44.13562" lon="7.67407">
        <ele>2002.664</ele>
        <time>2018-07-01T13:02:29Z</time>
      </trkpt>
      <trkpt lat="44.13571" lon="7.67409">
        <ele>2003.475</ele>
        <time>2018-07-01T13:02:30Z</time>
      </trkpt>
      <trkpt lat="44.13576" lon="7.67412">
        <ele>2003.868</ele>
        <time>2018-07-01T13:02:31Z</time>
      </trkpt>
      <trkpt lat="44.13583" lon="7.67416">
        <ele>2004.342</ele>
        <time>2018-07-01T13:02:32Z</time>
      </trkpt>
      <trkpt lat="44.13589" lon="7.67421">
        <ele>2004.126</ele>
        <time>2018-07-01T13:02:33Z</time>
      </trkpt>
      <trkpt lat="44.13595" lon="7.67425">
        <ele>2005.108</ele>
        <time>2018-07-01T13:02:34Z</time>
      </trkpt>
      <trkpt lat="44.13601" lon="7.67427">
        <ele>2005.648</ele>
        <time>2018-07-01T13:02:35Z</time>
      </trkpt>
      <trkpt lat="44.1361" lon="7.67426">
        <ele>2007.212</ele>
        <time>2018-07-01T13:02:37Z</time>
      </trkpt>
      <trkpt lat="44.13617" lon="7.67435">
        <ele>2008.778</ele>
        <time>2018-07-01T13:02:39Z</time>
      </trkpt>
      <trkpt lat="44.13622" lon="7.67439">
        <ele>2009.171</ele>
        <time>2018-07-01T13:02:40Z</time>
      </trkpt>
      <trkpt lat="44.13624" lon="7.67446">
        <ele>2010.323</ele>
        <time>2018-07-01T13:02:41Z</time>
      </trkpt>
      <trkpt lat="44.13626" lon="7.67454">
        <ele>2010.356</ele>
        <time>2018-07-01T13:02:42Z</time>
      </trkpt>
      <trkpt lat="44.1363" lon="7.6746">
        <ele>2010.921</ele>
        <time>2018-07-01T13:02:43Z</time>
      </trkpt>
      <trkpt lat="44.13633" lon="7.67467">
        <ele>2011.142</ele>
        <time>2018-07-01T13:02:44Z</time>
      </trkpt>
      <trkpt lat="44.13637" lon="7.67474">
        <ele>2012.269</ele>
        <time>2018-07-01T13:02:45Z</time>
      </trkpt>
      <trkpt lat="44.13639" lon="7.6748">
        <ele>2012.304</ele>
        <time>2018-07-01T13:02:46Z</time>
      </trkpt>
      <trkpt lat="44.13642" lon="7.67485">
        <ele>2012.224</ele>
        <time>2018-07-01T13:02:47Z</time>
      </trkpt>
      <trkpt lat="44.13649" lon="7.67493">
        <ele>2012.808</ele>
        <time>2018-07-01T13:02:49Z</time>
      </trkpt>
      <trkpt lat="44.13654" lon="7.67497">
        <ele>2013.318</ele>
        <time>2018-07-01T13:02:50Z</time>
      </trkpt>
      <trkpt lat="44.13658" lon="7.67501">
        <ele>2013.762</ele>
        <time>2018-07-01T13:02:51Z</time>
      </trkpt>
      <trkpt lat="44.13662" lon="7.67507">
        <ele>2013.818</ele>
        <time>2018-07-01T13:02:52Z</time>
      </trkpt>
      <trkpt lat="44.13664" lon="7.67514">
        <ele>2014.151</ele>
        <time>2018-07-01T13:02:53Z</time>
      </trkpt>
      <trkpt lat="44.13666" lon="7.67522">
        <ele>2014.973</ele>
        <time>2018-07-01T13:02:54Z</time>
      </trkpt>
      <trkpt lat="44.13666" lon="7.67532">
        <ele>2015.386</ele>
        <time>2018-07-01T13:02:55Z</time>
      </trkpt>
      <trkpt lat="44.13668" lon="7.67542">
        <ele>2015.681</ele>
        <time>2018-07-01T13:02:56Z</time>
      </trkpt>
      <trkpt lat="44.13671" lon="7.67552">
        <ele>2016.262</ele>
        <time>2018-07-01T13:02:57Z</time>
      </trkpt>
      <trkpt lat="44.13673" lon="7.67559">
        <ele>2017.251</ele>
        <time>2018-07-01T13:02:58Z</time>
      </trkpt>
      <trkpt lat="44.13677" lon="7.67567">
        <ele>2017.801</ele>
        <time>2018-07-01T13:02:59Z</time>
      </trkpt>
      <trkpt lat="44.13681" lon="7.67575">
        <ele>2018.311</ele>
        <time>2018-07-01T13:03:00Z</time>
      </trkpt>
      <trkpt lat="44.13687" lon="7.67581">
        <ele>2018.608</ele>
        <time>2018-07-01T13:03:01Z</time>
      </trkpt>
      <trkpt lat="44.13694" lon="7.67589">
        <ele>2019.847</ele>
        <time>2018-07-01T13:03:02Z</time>
      </trkpt>
      <trkpt lat="44.137" lon="7.67596">
        <ele>2019.871</ele>
        <time>2018-07-01T13:03:03Z</time>
      </trkpt>
      <trkpt lat="44.13705" lon="7.67605">
        <ele>2020.117</ele>
        <time>2018-07-01T13:03:04Z</time>
      </trkpt>
      <trkpt lat="44.13709" lon="7.67615">
        <ele>2020.57</ele>
        <time>2018-07-01T13:03:05Z</time>
      </trkpt>
      <trkpt lat="44.13715" lon="7.67622">
        <ele>2021.532</ele>
        <time>2018-07-01T13:03:06Z</time>
      </trkpt>
      <trkpt lat="44.13721" lon="7.6763">
        <ele>2022.855</ele>
        <time>2018-07-01T13:03:07Z</time>
      </trkpt>
      <trkpt lat="44.13726" lon="7.67637">
        <ele>2024.59</ele>
        <time>2018-07-01T13:03:08Z</time>
      </trkpt>
      <trkpt lat="44.13731" lon="7.67646">
        <ele>2025.611</ele>
        <time>2018-07-01T13:03:09Z</time>
      </trkpt>
      <trkpt lat="44.13735" lon="7.67657">
        <ele>2025.762</ele>
        <time>2018-07-01T13:03:10Z</time>
      </trkpt>
      <trkpt lat="44.1374" lon="7.67667">
        <ele>2026.083</ele>
        <time>2018-07-01T13:03:11Z</time>
      </trkpt>
      <trkpt lat="44.13744" lon="7.67679">
        <ele>2025.111</ele>
        <time>2018-07-01T13:03:12Z</time>
      </trkpt>
      <trkpt lat="44.13748" lon="7.6769">
        <ele>2025.308</ele>
        <time>2018-07-01T13:03:13Z</time>
      </trkpt>
      <trkpt lat="44.13752" lon="7.67699">
        <ele>2026.328</ele>
        <time>2018-07-01T13:03:14Z</time>
      </trkpt>
      <trkpt lat="44.13757" lon="7.6771">
        <ele>2027.342</ele>
        <time>2018-07-01T13:03:15Z</time>
      </trkpt>
      <trkpt lat="44.1376" lon="7.67716">
        <ele>2028.018</ele>
        <time>2018-07-01T13:03:16Z</time>
      </trkpt>
      <trkpt lat="44.13763" lon="7.67722">
        <ele>2028.981</ele>
        <time>2018-07-01T13:03:17Z</time>
      </trkpt>
      <trkpt lat="44.13769" lon="7.6772">
        <ele>2029.353</ele>
        <time>2018-07-01T13:03:18Z</time>
      </trkpt>
      <trkpt lat="44.13774" lon="7.67721">
        <ele>2029.946</ele>
        <time>2018-07-01T13:03:19Z</time>
      </trkpt>
      <trkpt lat="44.13779" lon="7.67719">
        <ele>2031.671</ele>
        <time>2018-07-01T13:03:20Z</time>
      </trkpt>
      <trkpt lat="44.13785" lon="7.67715">
        <ele>2031.562</ele>
        <time>2018-07-01T13:03:21Z</time>
      </trkpt>
      <trkpt lat="44.1379" lon="7.67713">
        <ele>2031.811</ele>
        <time>2018-07-01T13:03:22Z</time>
      </trkpt>
      <trkpt lat="44.13794" lon="7.67712">
        <ele>2032.421</ele>
        <time>2018-07-01T13:03:23Z</time>
      </trkpt>
      <trkpt lat="44.138" lon="7.67707">
        <ele>2033.503</ele>
        <time>2018-07-01T13:03:24Z</time>
      </trkpt>
      <trkpt lat="44.13806" lon="7.67701">
        <ele>2036.308</ele>
        <time>2018-07-01T13:03:25Z</time>
      </trkpt>
      <trkpt lat="44.13813" lon="7.67697">
        <ele>2035.593</ele>
        <time>2018-07-01T13:03:26Z</time>
      </trkpt>
      <trkpt lat="44.1382" lon="7.67692">
        <ele>2037.727</ele>
        <time>2018-07-01T13:03:27Z</time>
      </trkpt>
      <trkpt lat="44.13827" lon="7.67688">
        <ele>2039.343</ele>
        <time>2018-07-01T13:03:28Z</time>
      </trkpt>
      <trkpt lat="44.13836" lon="7.67684">
        <ele>2040.556</ele>
        <time>2018-07-01T13:03:29Z</time>
      </trkpt>
      <trkpt lat="44.13844" lon="7.67679">
        <ele>2042.438</ele>
        <time>2018-07-01T13:03:30Z</time>
      </trkpt>
      <trkpt lat="44.13851" lon="7.67675">
        <ele>2043.831</ele>
        <time>2018-07-01T13:03:31Z</time>
      </trkpt>
      <trkpt lat="44.13859" lon="7.67669">
        <ele>2045.056</ele>
        <time>2018-07-01T13:03:32Z</time>
      </trkpt>
      <trkpt lat="44.13866" lon="7.67663">
        <ele>2046.497</ele>
        <time>2018-07-01T13:03:33Z</time>
      </trkpt>
      <trkpt lat="44.13874" lon="7.6766">
        <ele>2047.587</ele>
        <time>2018-07-01T13:03:34Z</time>
      </trkpt>
      <trkpt lat="44.13886" lon="7.67662">
        <ele>2050.242</ele>
        <time>2018-07-01T13:03:35Z</time>
      </trkpt>
      <trkpt lat="44.13891" lon="7.6766">
        <ele>2050.226</ele>
        <time>2018-07-01T13:03:36Z</time>
      </trkpt>
      <trkpt lat="44.13897" lon="7.67649">
        <ele>2051.808</ele>
        <time>2018-07-01T13:03:37Z</time>
      </trkpt>
      <trkpt lat="44.13907" lon="7.67642">
        <ele>2051.94</ele>
        <time>2018-07-01T13:03:38Z</time>
      </trkpt>
      <trkpt lat="44.13912" lon="7.6764">
        <ele>2051.474</ele>
        <time>2018-07-01T13:03:39Z</time>
      </trkpt>
      <trkpt lat="44.13922" lon="7.67637">
        <ele>2053.19</ele>
        <time>2018-07-01T13:03:40Z</time>
      </trkpt>
      <trkpt lat="44.13928" lon="7.67637">
        <ele>2053.193</ele>
        <time>2018-07-01T13:03:41Z</time>
      </trkpt>
      <trkpt lat="44.13937" lon="7.67637">
        <ele>2054.715</ele>
        <time>2018-07-01T13:03:42Z</time>
      </trkpt>
      <trkpt lat="44.13944" lon="7.6764">
        <ele>2055.458</ele>
        <time>2018-07-01T13:03:43Z</time>
      </trkpt>
      <trkpt lat="44.13951" lon="7.67646">
        <ele>2057.023</ele>
        <time>2018-07-01T13:03:44Z</time>
      </trkpt>
      <trkpt lat="44.13955" lon="7.67654">
        <ele>2057.784</ele>
        <time>2018-07-01T13:03:45Z</time>
      </trkpt>
      <trkpt lat="44.13959" lon="7.67659">
        <ele>2058.083</ele>
        <time>2018-07-01T13:03:46Z</time>
      </trkpt>
      <trkpt lat="44.13965" lon="7.67667">
        <ele>2058.925</ele>
        <time>2018-07-01T13:03:47Z</time>
      </trkpt>
      <trkpt lat="44.13971" lon="7.67671">
        <ele>2059.617</ele>
        <time>2018-07-01T13:03:48Z</time>
      </trkpt>
      <trkpt lat="44.13978" lon="7.67676">
        <ele>2061.108</ele>
        <time>2018-07-01T13:03:49Z</time>
      </trkpt>
      <trkpt lat="44.13985" lon="7.67679">
        <ele>2061.44</ele>
        <time>2018-07-01T13:03:50Z</time>
      </trkpt>
      <trkpt lat="44.13992" lon="7.67681">
        <ele>2060.874</ele>
        <time>2018-07-01T13:03:51Z</time>
      </trkpt>
      <trkpt lat="44.13998" lon="7.67684">
        <ele>2060.42</ele>
        <time>2018-07-01T13:03:52Z</time>
      </trkpt>
      <trkpt lat="44.14004" lon="7.67688">
        <ele>2061.513</ele>
        <time>2018-07-01T13:03:53Z</time>
      </trkpt>
      <trkpt lat="44.1401" lon="7.67691">
        <ele>2062.135</ele>
        <time>2018-07-01T13:03:54Z</time>
      </trkpt>
      <trkpt lat="44.14017" lon="7.67695">
        <ele>2063.778</ele>
        <time>2018-07-01T13:03:55Z</time>
      </trkpt>
      <trkpt lat="44.14023" lon="7.67698">
        <ele>2064.773</ele>
        <time>2018-07-01T13:03:56Z</time>
      </trkpt>
      <trkpt lat="44.1403" lon="7.677">
        <ele>2065.144</ele>
        <time>2018-07-01T13:03:57Z</time>
      </trkpt>
      <trkpt lat="44.14034" lon="7.67702">
        <ele>2066.139</ele>
        <time>2018-07-01T13:03:58Z</time>
      </trkpt>
      <trkpt lat="44.14039" lon="7.67704">
        <ele>2066.201</ele>
        <time>2018-07-01T13:03:59Z</time>
      </trkpt>
      <trkpt lat="44.14044" lon="7.67704">
        <ele>2066.521</ele>
        <time>2018-07-01T13:04:00Z</time>
      </trkpt>
      <trkpt lat="44.14049" lon="7.67704">
        <ele>2066.808</ele>
        <time>2018-07-01T13:04:01Z</time>
      </trkpt>
      <trkpt lat="44.14054" lon="7.67704">
        <ele>2066.915</ele>
        <time>2018-07-01T13:04:02Z</time>
      </trkpt>
      <trkpt lat="44.14059" lon="7.67704">
        <ele>2067.859</ele>
        <time>2018-07-01T13:04:03Z</time>
      </trkpt>
      <trkpt lat="44.14064" lon="7.67703">
        <ele>2067.925</ele>
        <time>2018-07-01T13:04:04Z</time>
      </trkpt>
      <trkpt lat="44.14071" lon="7.677">
        <ele>2068.158</ele>
        <time>2018-07-01T13:04:05Z</time>
      </trkpt>
      <trkpt lat="44.14076" lon="7.67699">
        <ele>2068.54</ele>
        <time>2018-07-01T13:04:06Z</time>
      </trkpt>
      <trkpt lat="44.14082" lon="7.67696">
        <ele>2069.063</ele>
        <time>2018-07-01T13:04:07Z</time>
      </trkpt>
      <trkpt lat="44.14088" lon="7.67696">
        <ele>2070.068</ele>
        <time>2018-07-01T13:04:08Z</time>
      </trkpt>
      <trkpt lat="44.14094" lon="7.67696">
        <ele>2070.669</ele>
        <time>2018-07-01T13:04:09Z</time>
      </trkpt>
      <trkpt lat="44.141" lon="7.67695">
        <ele>2071.266</ele>
        <time>2018-07-01T13:04:10Z</time>
      </trkpt>
      <trkpt lat="44.14105" lon="7.67695">
        <ele>2071.129</ele>
        <time>2018-07-01T13:04:11Z</time>
      </trkpt>
      <trkpt lat="44.14111" lon="7.67694">
        <ele>2070.921</ele>
        <time>2018-07-01T13:04:12Z</time>
      </trkpt>
      <trkpt lat="44.14116" lon="7.67693">
        <ele>2071.208</ele>
        <time>2018-07-01T13:04:13Z</time>
      </trkpt>
      <trkpt lat="44.14122" lon="7.67693">
        <ele>2071.558</ele>
        <time>2018-07-01T13:04:14Z</time>
      </trkpt>
      <trkpt lat="44.14127" lon="7.67694">
        <ele>2071.962</ele>
        <time>2018-07-01T13:04:15Z</time>
      </trkpt>
      <trkpt lat="44.14133" lon="7.67693">
        <ele>2072.258</ele>
        <time>2018-07-01T13:04:16Z</time>
      </trkpt>
      <trkpt lat="44.14139" lon="7.6769">
        <ele>2072.971</ele>
        <time>2018-07-01T13:04:17Z</time>
      </trkpt>
      <trkpt lat="44.14144" lon="7.6769">
        <ele>2074.043</ele>
        <time>2018-07-01T13:04:18Z</time>
      </trkpt>
      <trkpt lat="44.14151" lon="7.67689">
        <ele>2074.396</ele>
        <time>2018-07-01T13:04:19Z</time>
      </trkpt>
      <trkpt lat="44.14158" lon="7.67688">
        <ele>2074.511</ele>
        <time>2018-07-01T13:04:20Z</time>
      </trkpt>
      <trkpt lat="44.14164" lon="7.67685">
        <ele>2074.732</ele>
        <time>2018-07-01T13:04:21Z</time>
      </trkpt>
      <trkpt lat="44.1417" lon="7.67684">
        <ele>2074.454</ele>
        <time>2018-07-01T13:04:22Z</time>
      </trkpt>
      <trkpt lat="44.14176" lon="7.67683">
        <ele>2074.856</ele>
        <time>2018-07-01T13:04:23Z</time>
      </trkpt>
      <trkpt lat="44.14183" lon="7.67682">
        <ele>2076.411</ele>
        <time>2018-07-01T13:04:24Z</time>
      </trkpt>
      <trkpt lat="44.1419" lon="7.67683">
        <ele>2076.808</ele>
        <time>2018-07-01T13:04:25Z</time>
      </trkpt>
      <trkpt lat="44.14197" lon="7.67685">
        <ele>2077.097</ele>
        <time>2018-07-01T13:04:26Z</time>
      </trkpt>
      <trkpt lat="44.14205" lon="7.67686">
        <ele>2077.341</ele>
        <time>2018-07-01T13:04:27Z</time>
      </trkpt>
      <trkpt lat="44.14213" lon="7.67685">
        <ele>2077.687</ele>
        <time>2018-07-01T13:04:28Z</time>
      </trkpt>
      <trkpt lat="44.14222" lon="7.67686">
        <ele>2077.96</ele>
        <time>2018-07-01T13:04:29Z</time>
      </trkpt>
      <trkpt lat="44.1423" lon="7.67689">
        <ele>2078.042</ele>
        <time>2018-07-01T13:04:30Z</time>
      </trkpt>
      <trkpt lat="44.14237" lon="7.67691">
        <ele>2078.475</ele>
        <time>2018-07-01T13:04:31Z</time>
      </trkpt>
      <trkpt lat="44.14244" lon="7.67693">
        <ele>2079.87</ele>
        <time>2018-07-01T13:04:32Z</time>
      </trkpt>
      <trkpt lat="44.1425" lon="7.67694">
        <ele>2080.641</ele>
        <time>2018-07-01T13:04:33Z</time>
      </trkpt>
      <trkpt lat="44.14257" lon="7.67696">
        <ele>2081.866</ele>
        <time>2018-07-01T13:04:34Z</time>
      </trkpt>
      <trkpt lat="44.14262" lon="7.67698">
        <ele>2082.429</ele>
        <time>2018-07-01T13:04:35Z</time>
      </trkpt>
      <trkpt lat="44.14267" lon="7.677">
        <ele>2083.521</ele>
        <time>2018-07-01T13:04:36Z</time>
      </trkpt>
      <trkpt lat="44.14273" lon="7.67702">
        <ele>2083.808</ele>
        <time>2018-07-01T13:04:37Z</time>
      </trkpt>
      <trkpt lat="44.14277" lon="7.67703">
        <ele>2083.338</ele>
        <time>2018-07-01T13:04:38Z</time>
      </trkpt>
      <trkpt lat="44.14287" lon="7.67705">
        <ele>2084.422</ele>
        <time>2018-07-01T13:04:40Z</time>
      </trkpt>
      <trkpt lat="44.14293" lon="7.67707">
        <ele>2085.238</ele>
        <time>2018-07-01T13:04:41Z</time>
      </trkpt>
      <trkpt lat="44.14297" lon="7.67711">
        <ele>2085.511</ele>
        <time>2018-07-01T13:04:42Z</time>
      </trkpt>
      <trkpt lat="44.14302" lon="7.67715">
        <ele>2086.293</ele>
        <time>2018-07-01T13:04:43Z</time>
      </trkpt>
      <trkpt lat="44.14307" lon="7.67718">
        <ele>2086.456</ele>
        <time>2018-07-01T13:04:44Z</time>
      </trkpt>
      <trkpt lat="44.14311" lon="7.67723">
        <ele>2087.451</ele>
        <time>2018-07-01T13:04:45Z</time>
      </trkpt>
      <trkpt lat="44.14315" lon="7.67728">
        <ele>2088.582</ele>
        <time>2018-07-01T13:04:46Z</time>
      </trkpt>
      <trkpt lat="44.14318" lon="7.67734">
        <ele>2088.975</ele>
        <time>2018-07-01T13:04:47Z</time>
      </trkpt>
      <trkpt lat="44.14322" lon="7.67743">
        <ele>2088.628</ele>
        <time>2018-07-01T13:04:49Z</time>
      </trkpt>
      <trkpt lat="44.14327" lon="7.67747">
        <ele>2088.82</ele>
        <time>2018-07-01T13:04:50Z</time>
      </trkpt>
      <trkpt lat="44.14333" lon="7.67746">
        <ele>2088.808</ele>
        <time>2018-07-01T13:04:51Z</time>
      </trkpt>
      <trkpt lat="44.14342" lon="7.67753">
        <ele>2089.649</ele>
        <time>2018-07-01T13:04:53Z</time>
      </trkpt>
      <trkpt lat="44.14346" lon="7.67757">
        <ele>2091.313</ele>
        <time>2018-07-01T13:04:54Z</time>
      </trkpt>
      <trkpt lat="44.14349" lon="7.67762">
        <ele>2091.939</ele>
        <time>2018-07-01T13:04:55Z</time>
      </trkpt>
      <trkpt lat="44.14354" lon="7.67768">
        <ele>2092.542</ele>
        <time>2018-07-01T13:04:56Z</time>
      </trkpt>
      <trkpt lat="44.14358" lon="7.67772">
        <ele>2092.984</ele>
        <time>2018-07-01T13:04:57Z</time>
      </trkpt>
      <trkpt lat="44.14363" lon="7.67779">
        <ele>2091.967</ele>
        <time>2018-07-01T13:04:58Z</time>
      </trkpt>
      <trkpt lat="44.14367" lon="7.67785">
        <ele>2092.072</ele>
        <time>2018-07-01T13:04:59Z</time>
      </trkpt>
      <trkpt lat="44.14371" lon="7.6779">
        <ele>2092.693</ele>
        <time>2018-07-01T13:05:00Z</time>
      </trkpt>
      <trkpt lat="44.14374" lon="7.67796">
        <ele>2094.652</ele>
        <time>2018-07-01T13:05:01Z</time>
      </trkpt>
      <trkpt lat="44.14377" lon="7.67802">
        <ele>2094.653</ele>
        <time>2018-07-01T13:05:02Z</time>
      </trkpt>
      <trkpt lat="44.14379" lon="7.67809">
        <ele>2096.008</ele>
        <time>2018-07-01T13:05:03Z</time>
      </trkpt>
      <trkpt lat="44.14381" lon="7.67816">
        <ele>2096.408</ele>
        <time>2018-07-01T13:05:04Z</time>
      </trkpt>
      <trkpt lat="44.14383" lon="7.67825">
        <ele>2097.327</ele>
        <time>2018-07-01T13:05:05Z</time>
      </trkpt>
      <trkpt lat="44.14385" lon="7.67834">
        <ele>2098.321</ele>
        <time>2018-07-01T13:05:06Z</time>
      </trkpt>
      <trkpt lat="44.14388" lon="7.67843">
        <ele>2099.797</ele>
        <time>2018-07-01T13:05:07Z</time>
      </trkpt>
      <trkpt lat="44.1439" lon="7.67853">
        <ele>2099.78</ele>
        <time>2018-07-01T13:05:08Z</time>
      </trkpt>
      <trkpt lat="44.1439" lon="7.67862">
        <ele>2100.192</ele>
        <time>2018-07-01T13:05:09Z</time>
      </trkpt>
      <trkpt lat="44.14391" lon="7.67871">
        <ele>2099.565</ele>
        <time>2018-07-01T13:05:10Z</time>
      </trkpt>
      <trkpt lat="44.14393" lon="7.6788">
        <ele>2100.56</ele>
        <time>2018-07-01T13:05:11Z</time>
      </trkpt>
      <trkpt lat="44.14396" lon="7.67889">
        <ele>2100.081</ele>
        <time>2018-07-01T13:05:12Z</time>
      </trkpt>
      <trkpt lat="44.144" lon="7.679">
        <ele>2101.151</ele>
        <time>2018-07-01T13:05:13Z</time>
      </trkpt>
      <trkpt lat="44.14402" lon="7.67909">
        <ele>2102.801</ele>
        <time>2018-07-01T13:05:14Z</time>
      </trkpt>
      <trkpt lat="44.14404" lon="7.67919">
        <ele>2104.011</ele>
        <time>2018-07-01T13:05:15Z</time>
      </trkpt>
      <trkpt lat="44.14406" lon="7.67931">
        <ele>2104.608</ele>
        <time>2018-07-01T13:05:16Z</time>
      </trkpt>
      <trkpt lat="44.14407" lon="7.67943">
        <ele>2104.037</ele>
        <time>2018-07-01T13:05:17Z</time>
      </trkpt>
      <trkpt lat="44.14409" lon="7.67952">
        <ele>2105.281</ele>
        <time>2018-07-01T13:05:18Z</time>
      </trkpt>
      <trkpt lat="44.14412" lon="7.67963">
        <ele>2105.947</ele>
        <time>2018-07-01T13:05:19Z</time>
      </trkpt>
      <trkpt lat="44.14415" lon="7.67973">
        <ele>2106.34</ele>
        <time>2018-07-01T13:05:20Z</time>
      </trkpt>
      <trkpt lat="44.14416" lon="7.67984">
        <ele>2107.112</ele>
        <time>2018-07-01T13:05:21Z</time>
      </trkpt>
      <trkpt lat="44.14417" lon="7.67995">
        <ele>2107.015</ele>
        <time>2018-07-01T13:05:22Z</time>
      </trkpt>
      <trkpt lat="44.14418" lon="7.68006">
        <ele>2106.71</ele>
        <time>2018-07-01T13:05:23Z</time>
      </trkpt>
      <trkpt lat="44.1442" lon="7.68018">
        <ele>2106.541</ele>
        <time>2018-07-01T13:05:24Z</time>
      </trkpt>
      <trkpt lat="44.14422" lon="7.6803">
        <ele>2106.217</ele>
        <time>2018-07-01T13:05:25Z</time>
      </trkpt>
      <trkpt lat="44.14425" lon="7.68041">
        <ele>2104.987</ele>
        <time>2018-07-01T13:05:26Z</time>
      </trkpt>
      <trkpt lat="44.14427" lon="7.68053">
        <ele>2105.315</ele>
        <time>2018-07-01T13:05:27Z</time>
      </trkpt>
      <trkpt lat="44.14428" lon="7.68065">
        <ele>2105.308</ele>
        <time>2018-07-01T13:05:28Z</time>
      </trkpt>
      <trkpt lat="44.14429" lon="7.68078">
        <ele>2105.113</ele>
        <time>2018-07-01T13:05:29Z</time>
      </trkpt>
      <trkpt lat="44.1443" lon="7.68088">
        <ele>2107.017</ele>
        <time>2018-07-01T13:05:30Z</time>
      </trkpt>
      <trkpt lat="44.1443" lon="7.68101">
        <ele>2108.123</ele>
        <time>2018-07-01T13:05:31Z</time>
      </trkpt>
      <trkpt lat="44.14432" lon="7.68113">
        <ele>2105.336</ele>
        <time>2018-07-01T13:05:32Z</time>
      </trkpt>
      <trkpt lat="44.14431" lon="7.68126">
        <ele>2105.518</ele>
        <time>2018-07-01T13:05:33Z</time>
      </trkpt>
      <trkpt lat="44.14431" lon="7.68139">
        <ele>2102.691</ele>
        <time>2018-07-01T13:05:34Z</time>
      </trkpt>
      <trkpt lat="44.14428" lon="7.6815">
        <ele>2103.686</ele>
        <time>2018-07-01T13:05:35Z</time>
      </trkpt>
      <trkpt lat="44.14428" lon="7.68162">
        <ele>2103.447</ele>
        <time>2018-07-01T13:05:36Z</time>
      </trkpt>
      <trkpt lat="44.14426" lon="7.68171">
        <ele>2104.146</ele>
        <time>2018-07-01T13:05:37Z</time>
      </trkpt>
      <trkpt lat="44.14426" lon="7.68181">
        <ele>2103.488</ele>
        <time>2018-07-01T13:05:38Z</time>
      </trkpt>
      <trkpt lat="44.14426" lon="7.6819">
        <ele>2104.516</ele>
        <time>2018-07-01T13:05:39Z</time>
      </trkpt>
      <trkpt lat="44.14427" lon="7.682">
        <ele>2105.608</ele>
        <time>2018-07-01T13:05:40Z</time>
      </trkpt>
      <trkpt lat="44.14429" lon="7.68207">
        <ele>2106.896</ele>
        <time>2018-07-01T13:05:41Z</time>
      </trkpt>
      <trkpt lat="44.14431" lon="7.68217">
        <ele>2107.33</ele>
        <time>2018-07-01T13:05:42Z</time>
      </trkpt>
      <trkpt lat="44.14435" lon="7.68227">
        <ele>2107.986</ele>
        <time>2018-07-01T13:05:43Z</time>
      </trkpt>
      <trkpt lat="44.14437" lon="7.68237">
        <ele>2108.119</ele>
        <time>2018-07-01T13:05:44Z</time>
      </trkpt>
      <trkpt lat="44.14439" lon="7.68247">
        <ele>2108.591</ele>
        <time>2018-07-01T13:05:45Z</time>
      </trkpt>
      <trkpt lat="44.14441" lon="7.68257">
        <ele>2109.724</ele>
        <time>2018-07-01T13:05:46Z</time>
      </trkpt>
      <trkpt lat="44.14444" lon="7.68267">
        <ele>2111.229</ele>
        <time>2018-07-01T13:05:47Z</time>
      </trkpt>
      <trkpt lat="44.14446" lon="7.68278">
        <ele>2111.89</ele>
        <time>2018-07-01T13:05:48Z</time>
      </trkpt>
      <trkpt lat="44.14448" lon="7.68287">
        <ele>2112.251</ele>
        <time>2018-07-01T13:05:49Z</time>
      </trkpt>
      <trkpt lat="44.14449" lon="7.68296">
        <ele>2112.801</ele>
        <time>2018-07-01T13:05:50Z</time>
      </trkpt>
      <trkpt lat="44.1445" lon="7.68305">
        <ele>2113.211</ele>
        <time>2018-07-01T13:05:51Z</time>
      </trkpt>
      <trkpt lat="44.14453" lon="7.68314">
        <ele>2114.408</ele>
        <time>2018-07-01T13:05:52Z</time>
      </trkpt>
      <trkpt lat="44.14457" lon="7.68321">
        <ele>2113.997</ele>
        <time>2018-07-01T13:05:53Z</time>
      </trkpt>
      <trkpt lat="44.1446" lon="7.68328">
        <ele>2114.981</ele>
        <time>2018-07-01T13:05:54Z</time>
      </trkpt>
      <trkpt lat="44.14463" lon="7.68337">
        <ele>2115.127</ele>
        <time>2018-07-01T13:05:55Z</time>
      </trkpt>
      <trkpt lat="44.14466" lon="7.68345">
        <ele>2115.95</ele>
        <time>2018-07-01T13:05:56Z</time>
      </trkpt>
      <trkpt lat="44.14469" lon="7.68355">
        <ele>2115.992</ele>
        <time>2018-07-01T13:05:57Z</time>
      </trkpt>
      <trkpt lat="44.14471" lon="7.68366">
        <ele>2117.355</ele>
        <time>2018-07-01T13:05:58Z</time>
      </trkpt>
      <trkpt lat="44.14473" lon="7.68376">
        <ele>2117.77</ele>
        <time>2018-07-01T13:05:59Z</time>
      </trkpt>
      <trkpt lat="44.14474" lon="7.68387">
        <ele>2117.861</ele>
        <time>2018-07-01T13:06:00Z</time>
      </trkpt>
      <trkpt lat="44.14475" lon="7.68398">
        <ele>2118.445</ele>
        <time>2018-07-01T13:06:01Z</time>
      </trkpt>
      <trkpt lat="44.14476" lon="7.68408">
        <ele>2120.347</ele>
        <time>2018-07-01T13:06:02Z</time>
      </trkpt>
      <trkpt lat="44.14476" lon="7.68418">
        <ele>2120.211</ele>
        <time>2018-07-01T13:06:03Z</time>
      </trkpt>
      <trkpt lat="44.14476" lon="7.68428">
        <ele>2120.408</ele>
        <time>2018-07-01T13:06:04Z</time>
      </trkpt>
      <trkpt lat="44.14477" lon="7.68439">
        <ele>2121.146</ele>
        <time>2018-07-01T13:06:05Z</time>
      </trkpt>
      <trkpt lat="44.14477" lon="7.68449">
        <ele>2122.38</ele>
        <time>2018-07-01T13:06:06Z</time>
      </trkpt>
      <trkpt lat="44.14477" lon="7.68458">
        <ele>2122.836</ele>
        <time>2018-07-01T13:06:07Z</time>
      </trkpt>
      <trkpt lat="44.14476" lon="7.68468">
        <ele>2122.599</ele>
        <time>2018-07-01T13:06:08Z</time>
      </trkpt>
      <trkpt lat="44.14476" lon="7.68476">
        <ele>2123.111</ele>
        <time>2018-07-01T13:06:09Z</time>
      </trkpt>
      <trkpt lat="44.14478" lon="7.68485">
        <ele>2122.854</ele>
        <time>2018-07-01T13:06:10Z</time>
      </trkpt>
      <trkpt lat="44.1448" lon="7.68492">
        <ele>2123.649</ele>
        <time>2018-07-01T13:06:11Z</time>
      </trkpt>
      <trkpt lat="44.14483" lon="7.68499">
        <ele>2124.46</ele>
        <time>2018-07-01T13:06:12Z</time>
      </trkpt>
      <trkpt lat="44.14486" lon="7.68508">
        <ele>2125.698</ele>
        <time>2018-07-01T13:06:13Z</time>
      </trkpt>
      <trkpt lat="44.1449" lon="7.68517">
        <ele>2126.015</ele>
        <time>2018-07-01T13:06:14Z</time>
      </trkpt>
      <trkpt lat="44.14496" lon="7.68529">
        <ele>2126.426</ele>
        <time>2018-07-01T13:06:16Z</time>
      </trkpt>
      <trkpt lat="44.14499" lon="7.68537">
        <ele>2127.208</ele>
        <time>2018-07-01T13:06:17Z</time>
      </trkpt>
      <trkpt lat="44.14502" lon="7.68545">
        <ele>2127.811</ele>
        <time>2018-07-01T13:06:18Z</time>
      </trkpt>
      <trkpt lat="44.14502" lon="7.68555">
        <ele>2128.985</ele>
        <time>2018-07-01T13:06:19Z</time>
      </trkpt>
      <trkpt lat="44.14502" lon="7.68563">
        <ele>2128.851</ele>
        <time>2018-07-01T13:06:20Z</time>
      </trkpt>
      <trkpt lat="44.14501" lon="7.68572">
        <ele>2127.634</ele>
        <time>2018-07-01T13:06:21Z</time>
      </trkpt>
      <trkpt lat="44.14499" lon="7.6858">
        <ele>2128.986</ele>
        <time>2018-07-01T13:06:22Z</time>
      </trkpt>
      <trkpt lat="44.14495" lon="7.68589">
        <ele>2129.739</ele>
        <time>2018-07-01T13:06:23Z</time>
      </trkpt>
      <trkpt lat="44.14492" lon="7.68598">
        <ele>2130.854</ele>
        <time>2018-07-01T13:06:24Z</time>
      </trkpt>
      <trkpt lat="44.14489" lon="7.68608">
        <ele>2131.155</ele>
        <time>2018-07-01T13:06:25Z</time>
      </trkpt>
      <trkpt lat="44.1449" lon="7.68618">
        <ele>2130.815</ele>
        <time>2018-07-01T13:06:26Z</time>
      </trkpt>
      <trkpt lat="44.14492" lon="7.68627">
        <ele>2130.865</ele>
        <time>2018-07-01T13:06:27Z</time>
      </trkpt>
      <trkpt lat="44.14495" lon="7.68637">
        <ele>2132.011</ele>
        <time>2018-07-01T13:06:28Z</time>
      </trkpt>
      <trkpt lat="44.14496" lon="7.68647">
        <ele>2133.708</ele>
        <time>2018-07-01T13:06:29Z</time>
      </trkpt>
      <trkpt lat="44.14495" lon="7.68656">
        <ele>2134.883</ele>
        <time>2018-07-01T13:06:30Z</time>
      </trkpt>
      <trkpt lat="44.14492" lon="7.68665">
        <ele>2138.167</ele>
        <time>2018-07-01T13:06:31Z</time>
      </trkpt>
      <trkpt lat="44.14488" lon="7.68673">
        <ele>2138.523</ele>
        <time>2018-07-01T13:06:32Z</time>
      </trkpt>
      <trkpt lat="44.14484" lon="7.68682">
        <ele>2138.716</ele>
        <time>2018-07-01T13:06:33Z</time>
      </trkpt>
      <trkpt lat="44.14483" lon="7.68691">
        <ele>2138.268</ele>
        <time>2018-07-01T13:06:34Z</time>
      </trkpt>
      <trkpt lat="44.14481" lon="7.68701">
        <ele>2139.631</ele>
        <time>2018-07-01T13:06:35Z</time>
      </trkpt>
      <trkpt lat="44.14481" lon="7.6871">
        <ele>2139.726</ele>
        <time>2018-07-01T13:06:36Z</time>
      </trkpt>
      <trkpt lat="44.14483" lon="7.68721">
        <ele>2140.227</ele>
        <time>2018-07-01T13:06:37Z</time>
      </trkpt>
      <trkpt lat="44.14486" lon="7.68731">
        <ele>2141.083</ele>
        <time>2018-07-01T13:06:38Z</time>
      </trkpt>
      <trkpt lat="44.14488" lon="7.68743">
        <ele>2141.425</ele>
        <time>2018-07-01T13:06:39Z</time>
      </trkpt>
      <trkpt lat="44.14492" lon="7.68754">
        <ele>2140.817</ele>
        <time>2018-07-01T13:06:40Z</time>
      </trkpt>
      <trkpt lat="44.14494" lon="7.68764">
        <ele>2140.708</ele>
        <time>2018-07-01T13:06:41Z</time>
      </trkpt>
      <trkpt lat="44.14495" lon="7.68775">
        <ele>2141.56</ele>
        <time>2018-07-01T13:06:42Z</time>
      </trkpt>
      <trkpt lat="44.14497" lon="7.68784">
        <ele>2143.184</ele>
        <time>2018-07-01T13:06:43Z</time>
      </trkpt>
      <trkpt lat="44.145" lon="7.68792">
        <ele>2142.44</ele>
        <time>2018-07-01T13:06:44Z</time>
      </trkpt>
      <trkpt lat="44.14503" lon="7.688">
        <ele>2143.113</ele>
        <time>2018-07-01T13:06:45Z</time>
      </trkpt>
      <trkpt lat="44.14509" lon="7.68809">
        <ele>2143.955</ele>
        <time>2018-07-01T13:06:46Z</time>
      </trkpt>
      <trkpt lat="44.14514" lon="7.68816">
        <ele>2143.148</ele>
        <time>2018-07-01T13:06:47Z</time>
      </trkpt>
      <trkpt lat="44.1452" lon="7.68825">
        <ele>2144.323</ele>
        <time>2018-07-01T13:06:48Z</time>
      </trkpt>
      <trkpt lat="44.14522" lon="7.68834">
        <ele>2145.664</ele>
        <time>2018-07-01T13:06:49Z</time>
      </trkpt>
      <trkpt lat="44.14525" lon="7.68843">
        <ele>2145.997</ele>
        <time>2018-07-01T13:06:50Z</time>
      </trkpt>
      <trkpt lat="44.14527" lon="7.68853">
        <ele>2146.823</ele>
        <time>2018-07-01T13:06:51Z</time>
      </trkpt>
      <trkpt lat="44.1453" lon="7.68864">
        <ele>2146.325</ele>
        <time>2018-07-01T13:06:52Z</time>
      </trkpt>
      <trkpt lat="44.14532" lon="7.68875">
        <ele>2146.308</ele>
        <time>2018-07-01T13:06:53Z</time>
      </trkpt>
      <trkpt lat="44.14533" lon="7.68886">
        <ele>2147.511</ele>
        <time>2018-07-01T13:06:54Z</time>
      </trkpt>
      <trkpt lat="44.14533" lon="7.68898">
        <ele>2148.365</ele>
        <time>2018-07-01T13:06:55Z</time>
      </trkpt>
      <trkpt lat="44.14534" lon="7.68909">
        <ele>2148.841</ele>
        <time>2018-07-01T13:06:56Z</time>
      </trkpt>
      <trkpt lat="44.14534" lon="7.6892">
        <ele>2148.774</ele>
        <time>2018-07-01T13:06:57Z</time>
      </trkpt>
      <trkpt lat="44.14535" lon="7.68931">
        <ele>2149.526</ele>
        <time>2018-07-01T13:06:58Z</time>
      </trkpt>
      <trkpt lat="44.14534" lon="7.68943">
        <ele>2151.039</ele>
        <time>2018-07-01T13:06:59Z</time>
      </trkpt>
      <trkpt lat="44.14535" lon="7.68956">
        <ele>2151.154</ele>
        <time>2018-07-01T13:07:00Z</time>
      </trkpt>
      <trkpt lat="44.14535" lon="7.68967">
        <ele>2151.745</ele>
        <time>2018-07-01T13:07:01Z</time>
      </trkpt>
      <trkpt lat="44.14536" lon="7.68979">
        <ele>2153.839</ele>
        <time>2018-07-01T13:07:02Z</time>
      </trkpt>
      <trkpt lat="44.14539" lon="7.68992">
        <ele>2154.301</ele>
        <time>2018-07-01T13:07:03Z</time>
      </trkpt>
      <trkpt lat="44.14541" lon="7.69003">
        <ele>2155.321</ele>
        <time>2018-07-01T13:07:04Z</time>
      </trkpt>
      <trkpt lat="44.14544" lon="7.69015">
        <ele>2155.408</ele>
        <time>2018-07-01T13:07:05Z</time>
      </trkpt>
      <trkpt lat="44.14546" lon="7.69026">
        <ele>2155.525</ele>
        <time>2018-07-01T13:07:06Z</time>
      </trkpt>
      <trkpt lat="44.14548" lon="7.69036">
        <ele>2156.699</ele>
        <time>2018-07-01T13:07:07Z</time>
      </trkpt>
      <trkpt lat="44.1455" lon="7.69046">
        <ele>2158.355</ele>
        <time>2018-07-01T13:07:08Z</time>
      </trkpt>
      <trkpt lat="44.14552" lon="7.69057">
        <ele>2161.118</ele>
        <time>2018-07-01T13:07:09Z</time>
      </trkpt>
      <trkpt lat="44.14554" lon="7.69066">
        <ele>2161.58</ele>
        <time>2018-07-01T13:07:10Z</time>
      </trkpt>
      <trkpt lat="44.14556" lon="7.69074">
        <ele>2162.073</ele>
        <time>2018-07-01T13:07:11Z</time>
      </trkpt>
      <trkpt lat="44.14558" lon="7.69082">
        <ele>2162.288</ele>
        <time>2018-07-01T13:07:12Z</time>
      </trkpt>
      <trkpt lat="44.14559" lon="7.6909">
        <ele>2162.449</ele>
        <time>2018-07-01T13:07:13Z</time>
      </trkpt>
      <trkpt lat="44.14561" lon="7.691">
        <ele>2162.944</ele>
        <time>2018-07-01T13:07:14Z</time>
      </trkpt>
      <trkpt lat="44.14563" lon="7.6911">
        <ele>2164.005</ele>
        <time>2018-07-01T13:07:15Z</time>
      </trkpt>
      <trkpt lat="44.14566" lon="7.69121">
        <ele>2165.015</ele>
        <time>2018-07-01T13:07:16Z</time>
      </trkpt>
      <trkpt lat="44.14568" lon="7.69133">
        <ele>2165.608</ele>
        <time>2018-07-01T13:07:17Z</time>
      </trkpt>
      <trkpt lat="44.1457" lon="7.69144">
        <ele>2167.266</ele>
        <time>2018-07-01T13:07:18Z</time>
      </trkpt>
      <trkpt lat="44.14571" lon="7.69154">
        <ele>2167.67</ele>
        <time>2018-07-01T13:07:19Z</time>
      </trkpt>
      <trkpt lat="44.14573" lon="7.69164">
        <ele>2168.076</ele>
        <time>2018-07-01T13:07:20Z</time>
      </trkpt>
      <trkpt lat="44.14576" lon="7.69174">
        <ele>2167.899</ele>
        <time>2018-07-01T13:07:21Z</time>
      </trkpt>
      <trkpt lat="44.14577" lon="7.69182">
        <ele>2166.921</ele>
        <time>2018-07-01T13:07:22Z</time>
      </trkpt>
      <trkpt lat="44.1458" lon="7.69192">
        <ele>2167.484</ele>
        <time>2018-07-01T13:07:23Z</time>
      </trkpt>
      <trkpt lat="44.14583" lon="7.69202">
        <ele>2168.249</ele>
        <time>2018-07-01T13:07:24Z</time>
      </trkpt>
      <trkpt lat="44.14587" lon="7.69211">
        <ele>2169.38</ele>
        <time>2018-07-01T13:07:25Z</time>
      </trkpt>
      <trkpt lat="44.1459" lon="7.6922">
        <ele>2169.558</ele>
        <time>2018-07-01T13:07:26Z</time>
      </trkpt>
      <trkpt lat="44.14594" lon="7.69229">
        <ele>2169.752</ele>
        <time>2018-07-01T13:07:27Z</time>
      </trkpt>
      <trkpt lat="44.14599" lon="7.69238">
        <ele>2170.217</ele>
        <time>2018-07-01T13:07:28Z</time>
      </trkpt>
      <trkpt lat="44.14604" lon="7.69246">
        <ele>2170.508</ele>
        <time>2018-07-01T13:07:29Z</time>
      </trkpt>
      <trkpt lat="44.14608" lon="7.69254">
        <ele>2171.747</ele>
        <time>2018-07-01T13:07:30Z</time>
      </trkpt>
      <trkpt lat="44.14613" lon="7.69262">
        <ele>2171.361</ele>
        <time>2018-07-01T13:07:31Z</time>
      </trkpt>
      <trkpt lat="44.14619" lon="7.6927">
        <ele>2171.477</ele>
        <time>2018-07-01T13:07:32Z</time>
      </trkpt>
      <trkpt lat="44.14624" lon="7.69277">
        <ele>2172.05</ele>
        <time>2018-07-01T13:07:33Z</time>
      </trkpt>
      <trkpt lat="44.1463" lon="7.69285">
        <ele>2172.922</ele>
        <time>2018-07-01T13:07:34Z</time>
      </trkpt>
      <trkpt lat="44.14634" lon="7.69292">
        <ele>2172.175</ele>
        <time>2018-07-01T13:07:35Z</time>
      </trkpt>
      <trkpt lat="44.14638" lon="7.69301">
        <ele>2173.49</ele>
        <time>2018-07-01T13:07:36Z</time>
      </trkpt>
      <trkpt lat="44.14643" lon="7.69311">
        <ele>2174.721</ele>
        <time>2018-07-01T13:07:37Z</time>
      </trkpt>
      <trkpt lat="44.14646" lon="7.69321">
        <ele>2175.546</ele>
        <time>2018-07-01T13:07:38Z</time>
      </trkpt>
      <trkpt lat="44.14648" lon="7.69331">
        <ele>2175.188</ele>
        <time>2018-07-01T13:07:39Z</time>
      </trkpt>
      <trkpt lat="44.14652" lon="7.6934">
        <ele>2176.216</ele>
        <time>2018-07-01T13:07:40Z</time>
      </trkpt>
      <trkpt lat="44.14655" lon="7.69347">
        <ele>2176.408</ele>
        <time>2018-07-01T13:07:41Z</time>
      </trkpt>
      <trkpt lat="44.14656" lon="7.69355">
        <ele>2177.616</ele>
        <time>2018-07-01T13:07:42Z</time>
      </trkpt>
      <trkpt lat="44.14658" lon="7.69362">
        <ele>2177.38</ele>
        <time>2018-07-01T13:07:43Z</time>
      </trkpt>
      <trkpt lat="44.14662" lon="7.6937">
        <ele>2177.366</ele>
        <time>2018-07-01T13:07:44Z</time>
      </trkpt>
      <trkpt lat="44.14665" lon="7.69377">
        <ele>2178.929</ele>
        <time>2018-07-01T13:07:45Z</time>
      </trkpt>
      <trkpt lat="44.14668" lon="7.69385">
        <ele>2180.781</ele>
        <time>2018-07-01T13:07:46Z</time>
      </trkpt>
      <trkpt lat="44.14672" lon="7.69393">
        <ele>2181.074</ele>
        <time>2018-07-01T13:07:47Z</time>
      </trkpt>
      <trkpt lat="44.14677" lon="7.69402">
        <ele>2181.159</ele>
        <time>2018-07-01T13:07:48Z</time>
      </trkpt>
      <trkpt lat="44.1468" lon="7.69412">
        <ele>2180.33</ele>
        <time>2018-07-01T13:07:49Z</time>
      </trkpt>
      <trkpt lat="44.14684" lon="7.6942">
        <ele>2180.587</ele>
        <time>2018-07-01T13:07:50Z</time>
      </trkpt>
      <trkpt lat="44.14689" lon="7.69429">
        <ele>2180.042</ele>
        <time>2018-07-01T13:07:51Z</time>
      </trkpt>
      <trkpt lat="44.14692" lon="7.6944">
        <ele>2181.126</ele>
        <time>2018-07-01T13:07:52Z</time>
      </trkpt>
      <trkpt lat="44.14698" lon="7.69449">
        <ele>2182.008</ele>
        <time>2018-07-01T13:07:53Z</time>
      </trkpt>
      <trkpt lat="44.14703" lon="7.69458">
        <ele>2182.48</ele>
        <time>2018-07-01T13:07:54Z</time>
      </trkpt>
      <trkpt lat="44.14707" lon="7.69469">
        <ele>2183.754</ele>
        <time>2018-07-01T13:07:55Z</time>
      </trkpt>
      <trkpt lat="44.1471" lon="7.69479">
        <ele>2184.19</ele>
        <time>2018-07-01T13:07:56Z</time>
      </trkpt>
      <trkpt lat="44.14713" lon="7.69491">
        <ele>2185.653</ele>
        <time>2018-07-01T13:07:57Z</time>
      </trkpt>
      <trkpt lat="44.14715" lon="7.69501">
        <ele>2185.845</ele>
        <time>2018-07-01T13:07:58Z</time>
      </trkpt>
      <trkpt lat="44.14716" lon="7.69509">
        <ele>2186.298</ele>
        <time>2018-07-01T13:07:59Z</time>
      </trkpt>
      <trkpt lat="44.14717" lon="7.69517">
        <ele>2186.593</ele>
        <time>2018-07-01T13:08:00Z</time>
      </trkpt>
      <trkpt lat="44.14718" lon="7.69523">
        <ele>2187.514</ele>
        <time>2018-07-01T13:08:01Z</time>
      </trkpt>
      <trkpt lat="44.1472" lon="7.69531">
        <ele>2187.419</ele>
        <time>2018-07-01T13:08:02Z</time>
      </trkpt>
      <trkpt lat="44.14724" lon="7.69541">
        <ele>2187.109</ele>
        <time>2018-07-01T13:08:04Z</time>
      </trkpt>
      <trkpt lat="44.14728" lon="7.69545">
        <ele>2187.719</ele>
        <time>2018-07-01T13:08:05Z</time>
      </trkpt>
      <trkpt lat="44.14732" lon="7.69547">
        <ele>2187.908</ele>
        <time>2018-07-01T13:08:06Z</time>
      </trkpt>
      <trkpt lat="44.1474" lon="7.69548">
        <ele>2186.133</ele>
        <time>2018-07-01T13:08:08Z</time>
      </trkpt>
      <trkpt lat="44.14745" lon="7.69544">
        <ele>2185.837</ele>
        <time>2018-07-01T13:08:10Z</time>
      </trkpt>
      <trkpt lat="44.14748" lon="7.69537">
        <ele>2188.133</ele>
        <time>2018-07-01T13:08:12Z</time>
      </trkpt>
      <trkpt lat="44.14748" lon="7.6953">
        <ele>2186.866</ele>
        <time>2018-07-01T13:08:13Z</time>
      </trkpt>
      <trkpt lat="44.14749" lon="7.6952">
        <ele>2187.238</ele>
        <time>2018-07-01T13:08:15Z</time>
      </trkpt>
      <trkpt lat="44.14749" lon="7.6951">
        <ele>2186.731</ele>
        <time>2018-07-01T13:08:16Z</time>
      </trkpt>
      <trkpt lat="44.14747" lon="7.69501">
        <ele>2186.336</ele>
        <time>2018-07-01T13:08:17Z</time>
      </trkpt>
      <trkpt lat="44.14745" lon="7.69492">
        <ele>2186.737</ele>
        <time>2018-07-01T13:08:18Z</time>
      </trkpt>
      <trkpt lat="44.14745" lon="7.69481">
        <ele>2187.586</ele>
        <time>2018-07-01T13:08:19Z</time>
      </trkpt>
      <trkpt lat="44.14742" lon="7.69471">
        <ele>2186.86</ele>
        <time>2018-07-01T13:08:20Z</time>
      </trkpt>
      <trkpt lat="44.14741" lon="7.69462">
        <ele>2186.926</ele>
        <time>2018-07-01T13:08:21Z</time>
      </trkpt>
      <trkpt lat="44.14741" lon="7.69455">
        <ele>2186.908</ele>
        <time>2018-07-01T13:08:22Z</time>
      </trkpt>
      <trkpt lat="44.1474" lon="7.69448">
        <ele>2186.84</ele>
        <time>2018-07-01T13:08:23Z</time>
      </trkpt>
      <trkpt lat="44.1474" lon="7.69442">
        <ele>2186.754</ele>
        <time>2018-07-01T13:08:24Z</time>
      </trkpt>
      <trkpt lat="44.14739" lon="7.69436">
        <ele>2187.03</ele>
        <time>2018-07-01T13:08:25Z</time>
      </trkpt>
      <trkpt lat="44.14737" lon="7.69421">
        <ele>2188.993</ele>
        <time>2018-07-01T13:08:27Z</time>
      </trkpt>
      <trkpt lat="44.14737" lon="7.69414">
        <ele>2189.955</ele>
        <time>2018-07-01T13:08:28Z</time>
      </trkpt>
      <trkpt lat="44.14736" lon="7.69405">
        <ele>2191.068</ele>
        <time>2018-07-01T13:08:29Z</time>
      </trkpt>
      <trkpt lat="44.14736" lon="7.69398">
        <ele>2191.483</ele>
        <time>2018-07-01T13:08:30Z</time>
      </trkpt>
      <trkpt lat="44.14736" lon="7.6939">
        <ele>2192.314</ele>
        <time>2018-07-01T13:08:31Z</time>
      </trkpt>
      <trkpt lat="44.14735" lon="7.69383">
        <ele>2193.124</ele>
        <time>2018-07-01T13:08:32Z</time>
      </trkpt>
      <trkpt lat="44.14735" lon="7.69375">
        <ele>2193.504</ele>
        <time>2018-07-01T13:08:33Z</time>
      </trkpt>
      <trkpt lat="44.14735" lon="7.69368">
        <ele>2194.914</ele>
        <time>2018-07-01T13:08:34Z</time>
      </trkpt>
      <trkpt lat="44.14735" lon="7.6936">
        <ele>2194.608</ele>
        <time>2018-07-01T13:08:35Z</time>
      </trkpt>
      <trkpt lat="44.14735" lon="7.69353">
        <ele>2195.764</ele>
        <time>2018-07-01T13:08:36Z</time>
      </trkpt>
      <trkpt lat="44.14735" lon="7.69346">
        <ele>2197.018</ele>
        <time>2018-07-01T13:08:37Z</time>
      </trkpt>
      <trkpt lat="44.14736" lon="7.69338">
        <ele>2197.234</ele>
        <time>2018-07-01T13:08:38Z</time>
      </trkpt>
      <trkpt lat="44.14736" lon="7.6933">
        <ele>2197.937</ele>
        <time>2018-07-01T13:08:39Z</time>
      </trkpt>
      <trkpt lat="44.14737" lon="7.69323">
        <ele>2198.819</ele>
        <time>2018-07-01T13:08:40Z</time>
      </trkpt>
      <trkpt lat="44.14738" lon="7.69314">
        <ele>2200.732</ele>
        <time>2018-07-01T13:08:41Z</time>
      </trkpt>
      <trkpt lat="44.14738" lon="7.69306">
        <ele>2201.247</ele>
        <time>2018-07-01T13:08:42Z</time>
      </trkpt>
      <trkpt lat="44.14739" lon="7.69297">
        <ele>2202.758</ele>
        <time>2018-07-01T13:08:43Z</time>
      </trkpt>
      <trkpt lat="44.1474" lon="7.6929">
        <ele>2203.274</ele>
        <time>2018-07-01T13:08:44Z</time>
      </trkpt>
      <trkpt lat="44.14741" lon="7.69282">
        <ele>2203.756</ele>
        <time>2018-07-01T13:08:45Z</time>
      </trkpt>
      <trkpt lat="44.14741" lon="7.69274">
        <ele>2204.121</ele>
        <time>2018-07-01T13:08:46Z</time>
      </trkpt>
      <trkpt lat="44.14742" lon="7.69266">
        <ele>2204.808</ele>
        <time>2018-07-01T13:08:47Z</time>
      </trkpt>
      <trkpt lat="44.14743" lon="7.69259">
        <ele>2206.769</ele>
        <time>2018-07-01T13:08:48Z</time>
      </trkpt>
      <trkpt lat="44.14744" lon="7.69252">
        <ele>2207.783</ele>
        <time>2018-07-01T13:08:49Z</time>
      </trkpt>
      <trkpt lat="44.14745" lon="7.69244">
        <ele>2208.169</ele>
        <time>2018-07-01T13:08:50Z</time>
      </trkpt>
      <trkpt lat="44.14747" lon="7.69236">
        <ele>2208.422</ele>
        <time>2018-07-01T13:08:51Z</time>
      </trkpt>
      <trkpt lat="44.14748" lon="7.69226">
        <ele>2209.034</ele>
        <time>2018-07-01T13:08:52Z</time>
      </trkpt>
      <trkpt lat="44.14749" lon="7.69215">
        <ele>2208.497</ele>
        <time>2018-07-01T13:08:53Z</time>
      </trkpt>
      <trkpt lat="44.14751" lon="7.69206">
        <ele>2210.082</ele>
        <time>2018-07-01T13:08:54Z</time>
      </trkpt>
      <trkpt lat="44.14751" lon="7.69195">
        <ele>2210.793</ele>
        <time>2018-07-01T13:08:55Z</time>
      </trkpt>
      <trkpt lat="44.14753" lon="7.69187">
        <ele>2210.495</ele>
        <time>2018-07-01T13:08:56Z</time>
      </trkpt>
      <trkpt lat="44.14754" lon="7.69176">
        <ele>2210.649</ele>
        <time>2018-07-01T13:08:57Z</time>
      </trkpt>
      <trkpt lat="44.14755" lon="7.69164">
        <ele>2210.923</ele>
        <time>2018-07-01T13:08:58Z</time>
      </trkpt>
      <trkpt lat="44.14756" lon="7.69152">
        <ele>2211.908</ele>
        <time>2018-07-01T13:08:59Z</time>
      </trkpt>
      <trkpt lat="44.14757" lon="7.69139">
        <ele>2212.431</ele>
        <time>2018-07-01T13:09:00Z</time>
      </trkpt>
      <trkpt lat="44.14758" lon="7.69126">
        <ele>2213.135</ele>
        <time>2018-07-01T13:09:01Z</time>
      </trkpt>
      <trkpt lat="44.1476" lon="7.69114">
        <ele>2214.231</ele>
        <time>2018-07-01T13:09:02Z</time>
      </trkpt>
      <trkpt lat="44.14761" lon="7.691">
        <ele>2212.984</ele>
        <time>2018-07-01T13:09:03Z</time>
      </trkpt>
      <trkpt lat="44.14761" lon="7.69086">
        <ele>2213.766</ele>
        <time>2018-07-01T13:09:04Z</time>
      </trkpt>
      <trkpt lat="44.14762" lon="7.69072">
        <ele>2214.229</ele>
        <time>2018-07-01T13:09:05Z</time>
      </trkpt>
      <trkpt lat="44.14762" lon="7.69059">
        <ele>2214.894</ele>
        <time>2018-07-01T13:09:06Z</time>
      </trkpt>
      <trkpt lat="44.14763" lon="7.69046">
        <ele>2215.585</ele>
        <time>2018-07-01T13:09:07Z</time>
      </trkpt>
      <trkpt lat="44.14764" lon="7.69032">
        <ele>2215.161</ele>
        <time>2018-07-01T13:09:08Z</time>
      </trkpt>
      <trkpt lat="44.14765" lon="7.69018">
        <ele>2215.921</ele>
        <time>2018-07-01T13:09:09Z</time>
      </trkpt>
      <trkpt lat="44.14766" lon="7.69004">
        <ele>2215.813</ele>
        <time>2018-07-01T13:09:10Z</time>
      </trkpt>
      <trkpt lat="44.14767" lon="7.6899">
        <ele>2213.708</ele>
        <time>2018-07-01T13:09:11Z</time>
      </trkpt>
      <trkpt lat="44.14769" lon="7.68978">
        <ele>2214.178</ele>
        <time>2018-07-01T13:09:12Z</time>
      </trkpt>
      <trkpt lat="44.1477" lon="7.68964">
        <ele>2215.142</ele>
        <time>2018-07-01T13:09:13Z</time>
      </trkpt>
      <trkpt lat="44.14772" lon="7.68951">
        <ele>2213.088</ele>
        <time>2018-07-01T13:09:14Z</time>
      </trkpt>
      <trkpt lat="44.14773" lon="7.68936">
        <ele>2213.341</ele>
        <time>2018-07-01T13:09:15Z</time>
      </trkpt>
      <trkpt lat="44.14774" lon="7.68921">
        <ele>2213.853</ele>
        <time>2018-07-01T13:09:16Z</time>
      </trkpt>
      <trkpt lat="44.14775" lon="7.68908">
        <ele>2214.826</ele>
        <time>2018-07-01T13:09:17Z</time>
      </trkpt>
      <trkpt lat="44.14776" lon="7.68894">
        <ele>2212.731</ele>
        <time>2018-07-01T13:09:18Z</time>
      </trkpt>
      <trkpt lat="44.14777" lon="7.68881">
        <ele>2213.542</ele>
        <time>2018-07-01T13:09:19Z</time>
      </trkpt>
      <trkpt lat="44.14777" lon="7.68867">
        <ele>2215.068</ele>
        <time>2018-07-01T13:09:20Z</time>
      </trkpt>
      <trkpt lat="44.14778" lon="7.68855">
        <ele>2216.942</ele>
        <time>2018-07-01T13:09:21Z</time>
      </trkpt>
      <trkpt lat="44.14778" lon="7.68845">
        <ele>2215.526</ele>
        <time>2018-07-01T13:09:22Z</time>
      </trkpt>
      <trkpt lat="44.14778" lon="7.68837">
        <ele>2215.108</ele>
        <time>2018-07-01T13:09:23Z</time>
      </trkpt>
      <trkpt lat="44.14778" lon="7.68829">
        <ele>2215.828</ele>
        <time>2018-07-01T13:09:24Z</time>
      </trkpt>
      <trkpt lat="44.14777" lon="7.68818">
        <ele>2215.122</ele>
        <time>2018-07-01T13:09:25Z</time>
      </trkpt>
      <trkpt lat="44.14775" lon="7.68808">
        <ele>2214.858</ele>
        <time>2018-07-01T13:09:26Z</time>
      </trkpt>
      <trkpt lat="44.14772" lon="7.688">
        <ele>2213.441</ele>
        <time>2018-07-01T13:09:27Z</time>
      </trkpt>
      <trkpt lat="44.1477" lon="7.68793">
        <ele>2214.443</ele>
        <time>2018-07-01T13:09:28Z</time>
      </trkpt>
      <trkpt lat="44.14766" lon="7.68786">
        <ele>2215.646</ele>
        <time>2018-07-01T13:09:29Z</time>
      </trkpt>
      <trkpt lat="44.14763" lon="7.68779">
        <ele>2216.311</ele>
        <time>2018-07-01T13:09:30Z</time>
      </trkpt>
      <trkpt lat="44.14759" lon="7.68771">
        <ele>2218.222</ele>
        <time>2018-07-01T13:09:31Z</time>
      </trkpt>
      <trkpt lat="44.14755" lon="7.68762">
        <ele>2218.413</ele>
        <time>2018-07-01T13:09:32Z</time>
      </trkpt>
      <trkpt lat="44.14751" lon="7.68752">
        <ele>2218.643</ele>
        <time>2018-07-01T13:09:33Z</time>
      </trkpt>
      <trkpt lat="44.14746" lon="7.68744">
        <ele>2218.607</ele>
        <time>2018-07-01T13:09:34Z</time>
      </trkpt>
      <trkpt lat="44.14741" lon="7.68735">
        <ele>2219.208</ele>
        <time>2018-07-01T13:09:35Z</time>
      </trkpt>
      <trkpt lat="44.14736" lon="7.68726">
        <ele>2219.023</ele>
        <time>2018-07-01T13:09:36Z</time>
      </trkpt>
      <trkpt lat="44.14731" lon="7.68718">
        <ele>2220.087</ele>
        <time>2018-07-01T13:09:37Z</time>
      </trkpt>
      <trkpt lat="44.14728" lon="7.68709">
        <ele>2220.973</ele>
        <time>2018-07-01T13:09:38Z</time>
      </trkpt>
      <trkpt lat="44.14724" lon="7.68699">
        <ele>2220.666</ele>
        <time>2018-07-01T13:09:39Z</time>
      </trkpt>
      <trkpt lat="44.14722" lon="7.68689">
        <ele>2221.968</ele>
        <time>2018-07-01T13:09:40Z</time>
      </trkpt>
      <trkpt lat="44.1472" lon="7.68679">
        <ele>2221.981</ele>
        <time>2018-07-01T13:09:41Z</time>
      </trkpt>
      <trkpt lat="44.1472" lon="7.68669">
        <ele>2223.646</ele>
        <time>2018-07-01T13:09:42Z</time>
      </trkpt>
      <trkpt lat="44.1472" lon="7.68661">
        <ele>2224.457</ele>
        <time>2018-07-01T13:09:43Z</time>
      </trkpt>
      <trkpt lat="44.1472" lon="7.68652">
        <ele>2225.646</ele>
        <time>2018-07-01T13:09:44Z</time>
      </trkpt>
      <trkpt lat="44.14722" lon="7.68643">
        <ele>2225.488</ele>
        <time>2018-07-01T13:09:45Z</time>
      </trkpt>
      <trkpt lat="44.14723" lon="7.68633">
        <ele>2224.916</ele>
        <time>2018-07-01T13:09:46Z</time>
      </trkpt>
      <trkpt lat="44.14726" lon="7.68624">
        <ele>2227.008</ele>
        <time>2018-07-01T13:09:47Z</time>
      </trkpt>
      <trkpt lat="44.14728" lon="7.68615">
        <ele>2228.766</ele>
        <time>2018-07-01T13:09:48Z</time>
      </trkpt>
      <trkpt lat="44.14732" lon="7.68606">
        <ele>2227.62</ele>
        <time>2018-07-01T13:09:49Z</time>
      </trkpt>
      <trkpt lat="44.14735" lon="7.68596">
        <ele>2227.726</ele>
        <time>2018-07-01T13:09:50Z</time>
      </trkpt>
      <trkpt lat="44.14739" lon="7.68587">
        <ele>2229.059</ele>
        <time>2018-07-01T13:09:51Z</time>
      </trkpt>
      <trkpt lat="44.14742" lon="7.68577">
        <ele>2229.251</ele>
        <time>2018-07-01T13:09:52Z</time>
      </trkpt>
      <trkpt lat="44.14747" lon="7.68566">
        <ele>2228.984</ele>
        <time>2018-07-01T13:09:53Z</time>
      </trkpt>
      <trkpt lat="44.14752" lon="7.68557">
        <ele>2228.929</ele>
        <time>2018-07-01T13:09:54Z</time>
      </trkpt>
      <trkpt lat="44.14755" lon="7.68549">
        <ele>2228.53</ele>
        <time>2018-07-01T13:09:55Z</time>
      </trkpt>
      <trkpt lat="44.14757" lon="7.68539">
        <ele>2228.681</ele>
        <time>2018-07-01T13:09:56Z</time>
      </trkpt>
      <trkpt lat="44.1476" lon="7.68528">
        <ele>2228.861</ele>
        <time>2018-07-01T13:09:57Z</time>
      </trkpt>
      <trkpt lat="44.14764" lon="7.68518">
        <ele>2230.117</ele>
        <time>2018-07-01T13:09:58Z</time>
      </trkpt>
      <trkpt lat="44.14766" lon="7.68506">
        <ele>2231.808</ele>
        <time>2018-07-01T13:09:59Z</time>
      </trkpt>
      <trkpt lat="44.14767" lon="7.68496">
        <ele>2233.71</ele>
        <time>2018-07-01T13:10:00Z</time>
      </trkpt>
      <trkpt lat="44.1477" lon="7.68484">
        <ele>2233.594</ele>
        <time>2018-07-01T13:10:01Z</time>
      </trkpt>
      <trkpt lat="44.14772" lon="7.68472">
        <ele>2233.58</ele>
        <time>2018-07-01T13:10:02Z</time>
      </trkpt>
      <trkpt lat="44.14774" lon="7.6846">
        <ele>2235.643</ele>
        <time>2018-07-01T13:10:03Z</time>
      </trkpt>
      <trkpt lat="44.14777" lon="7.68447">
        <ele>2237.325</ele>
        <time>2018-07-01T13:10:04Z</time>
      </trkpt>
      <trkpt lat="44.14779" lon="7.68435">
        <ele>2238.438</ele>
        <time>2018-07-01T13:10:05Z</time>
      </trkpt>
      <trkpt lat="44.14782" lon="7.68422">
        <ele>2238.553</ele>
        <time>2018-07-01T13:10:06Z</time>
      </trkpt>
      <trkpt lat="44.14785" lon="7.68408">
        <ele>2238.084</ele>
        <time>2018-07-01T13:10:07Z</time>
      </trkpt>
      <trkpt lat="44.14789" lon="7.68397">
        <ele>2238.012</ele>
        <time>2018-07-01T13:10:08Z</time>
      </trkpt>
      <trkpt lat="44.14793" lon="7.68388">
        <ele>2237.832</ele>
        <time>2018-07-01T13:10:09Z</time>
      </trkpt>
      <trkpt lat="44.14799" lon="7.68379">
        <ele>2239.305</ele>
        <time>2018-07-01T13:10:10Z</time>
      </trkpt>
      <trkpt lat="44.14804" lon="7.6837">
        <ele>2238.608</ele>
        <time>2018-07-01T13:10:11Z</time>
      </trkpt>
      <trkpt lat="44.1481" lon="7.68361">
        <ele>2239.123</ele>
        <time>2018-07-01T13:10:12Z</time>
      </trkpt>
      <trkpt lat="44.14815" lon="7.68353">
        <ele>2239.877</ele>
        <time>2018-07-01T13:10:13Z</time>
      </trkpt>
      <trkpt lat="44.14822" lon="7.68344">
        <ele>2240.643</ele>
        <time>2018-07-01T13:10:14Z</time>
      </trkpt>
      <trkpt lat="44.14828" lon="7.68337">
        <ele>2240.886</ele>
        <time>2018-07-01T13:10:15Z</time>
      </trkpt>
      <trkpt lat="44.14834" lon="7.68331">
        <ele>2240.348</ele>
        <time>2018-07-01T13:10:16Z</time>
      </trkpt>
      <trkpt lat="44.1484" lon="7.68328">
        <ele>2239.961</ele>
        <time>2018-07-01T13:10:17Z</time>
      </trkpt>
      <trkpt lat="44.14846" lon="7.68325">
        <ele>2240.286</ele>
        <time>2018-07-01T13:10:18Z</time>
      </trkpt>
      <trkpt lat="44.1485" lon="7.68323">
        <ele>2239.977</ele>
        <time>2018-07-01T13:10:19Z</time>
      </trkpt>
      <trkpt lat="44.14858" lon="7.68319">
        <ele>2239.993</ele>
        <time>2018-07-01T13:10:21Z</time>
      </trkpt>
      <trkpt lat="44.14867" lon="7.68316">
        <ele>2239.465</ele>
        <time>2018-07-01T13:10:23Z</time>
      </trkpt>
      <trkpt lat="44.14871" lon="7.68316">
        <ele>2239.721</ele>
        <time>2018-07-01T13:10:24Z</time>
      </trkpt>
      <trkpt lat="44.14878" lon="7.68316">
        <ele>2239.808</ele>
        <time>2018-07-01T13:10:25Z</time>
      </trkpt>
      <trkpt lat="44.14884" lon="7.68317">
        <ele>2237.551</ele>
        <time>2018-07-01T13:10:26Z</time>
      </trkpt>
      <trkpt lat="44.14889" lon="7.68318">
        <ele>2237.265</ele>
        <time>2018-07-01T13:10:27Z</time>
      </trkpt>
      <trkpt lat="44.14897" lon="7.68316">
        <ele>2237.271</ele>
        <time>2018-07-01T13:10:29Z</time>
      </trkpt>
      <trkpt lat="44.14902" lon="7.6831">
        <ele>2237.454</ele>
        <time>2018-07-01T13:10:30Z</time>
      </trkpt>
      <trkpt lat="44.14905" lon="7.68303">
        <ele>2237.216</ele>
        <time>2018-07-01T13:10:31Z</time>
      </trkpt>
      <trkpt lat="44.14909" lon="7.68297">
        <ele>2234.859</ele>
        <time>2018-07-01T13:10:32Z</time>
      </trkpt>
      <trkpt lat="44.14913" lon="7.68287">
        <ele>2235.434</ele>
        <time>2018-07-01T13:10:33Z</time>
      </trkpt>
      <trkpt lat="44.14917" lon="7.68277">
        <ele>2235.295</ele>
        <time>2018-07-01T13:10:34Z</time>
      </trkpt>
      <trkpt lat="44.14921" lon="7.68267">
        <ele>2234.131</ele>
        <time>2018-07-01T13:10:35Z</time>
      </trkpt>
      <trkpt lat="44.14925" lon="7.68259">
        <ele>2235.061</ele>
        <time>2018-07-01T13:10:36Z</time>
      </trkpt>
      <trkpt lat="44.14928" lon="7.68249">
        <ele>2235.407</ele>
        <time>2018-07-01T13:10:37Z</time>
      </trkpt>
      <trkpt lat="44.14931" lon="7.68242">
        <ele>2230.308</ele>
        <time>2018-07-01T13:10:38Z</time>
      </trkpt>
      <trkpt lat="44.14933" lon="7.68233">
        <ele>2229.545</ele>
        <time>2018-07-01T13:10:39Z</time>
      </trkpt>
      <trkpt lat="44.14935" lon="7.68222">
        <ele>2230.069</ele>
        <time>2018-07-01T13:10:40Z</time>
      </trkpt>
      <trkpt lat="44.14937" lon="7.68211">
        <ele>2230.635</ele>
        <time>2018-07-01T13:10:41Z</time>
      </trkpt>
      <trkpt lat="44.14938" lon="7.68199">
        <ele>2232.038</ele>
        <time>2018-07-01T13:10:42Z</time>
      </trkpt>
      <trkpt lat="44.1494" lon="7.68189">
        <ele>2231.93</ele>
        <time>2018-07-01T13:10:43Z</time>
      </trkpt>
      <trkpt lat="44.1494" lon="7.68178">
        <ele>2231.263</ele>
        <time>2018-07-01T13:10:44Z</time>
      </trkpt>
      <trkpt lat="44.14941" lon="7.68167">
        <ele>2230.718</ele>
        <time>2018-07-01T13:10:45Z</time>
      </trkpt>
      <trkpt lat="44.14942" lon="7.68157">
        <ele>2229.339</ele>
        <time>2018-07-01T13:10:46Z</time>
      </trkpt>
      <trkpt lat="44.14944" lon="7.68145">
        <ele>2228.219</ele>
        <time>2018-07-01T13:10:47Z</time>
      </trkpt>
      <trkpt lat="44.14945" lon="7.68133">
        <ele>2228.009</ele>
        <time>2018-07-01T13:10:48Z</time>
      </trkpt>
      <trkpt lat="44.14947" lon="7.68122">
        <ele>2227.319</ele>
        <time>2018-07-01T13:10:49Z</time>
      </trkpt>
      <trkpt lat="44.1495" lon="7.6811">
        <ele>2227.308</ele>
        <time>2018-07-01T13:10:50Z</time>
      </trkpt>
      <trkpt lat="44.14953" lon="7.68098">
        <ele>2226.683</ele>
        <time>2018-07-01T13:10:51Z</time>
      </trkpt>
      <trkpt lat="44.14956" lon="7.68087">
        <ele>2226.047</ele>
        <time>2018-07-01T13:10:52Z</time>
      </trkpt>
      <trkpt lat="44.14961" lon="7.68078">
        <ele>2226.983</ele>
        <time>2018-07-01T13:10:53Z</time>
      </trkpt>
      <trkpt lat="44.14963" lon="7.68068">
        <ele>2226.386</ele>
        <time>2018-07-01T13:10:54Z</time>
      </trkpt>
      <trkpt lat="44.14965" lon="7.68058">
        <ele>2225.368</ele>
        <time>2018-07-01T13:10:55Z</time>
      </trkpt>
      <trkpt lat="44.14968" lon="7.68049">
        <ele>2223.711</ele>
        <time>2018-07-01T13:10:56Z</time>
      </trkpt>
      <trkpt lat="44.1497" lon="7.68037">
        <ele>2223.776</ele>
        <time>2018-07-01T13:10:57Z</time>
      </trkpt>
      <trkpt lat="44.14972" lon="7.68027">
        <ele>2222.657</ele>
        <time>2018-07-01T13:10:58Z</time>
      </trkpt>
      <trkpt lat="44.14974" lon="7.68017">
        <ele>2222.357</ele>
        <time>2018-07-01T13:10:59Z</time>
      </trkpt>
      <trkpt lat="44.14976" lon="7.68009">
        <ele>2222.6</ele>
        <time>2018-07-01T13:11:00Z</time>
      </trkpt>
      <trkpt lat="44.14976" lon="7.67999">
        <ele>2221.62</ele>
        <time>2018-07-01T13:11:01Z</time>
      </trkpt>
      <trkpt lat="44.14976" lon="7.67991">
        <ele>2221.508</ele>
        <time>2018-07-01T13:11:02Z</time>
      </trkpt>
      <trkpt lat="44.14976" lon="7.67984">
        <ele>2221.927</ele>
        <time>2018-07-01T13:11:03Z</time>
      </trkpt>
      <trkpt lat="44.14973" lon="7.67975">
        <ele>2222.151</ele>
        <time>2018-07-01T13:11:04Z</time>
      </trkpt>
      <trkpt lat="44.1497" lon="7.67963">
        <ele>2222.127</ele>
        <time>2018-07-01T13:11:06Z</time>
      </trkpt>
      <trkpt lat="44.1497" lon="7.67957">
        <ele>2222.56</ele>
        <time>2018-07-01T13:11:07Z</time>
      </trkpt>
      <trkpt lat="44.14973" lon="7.67945">
        <ele>2221.332</ele>
        <time>2018-07-01T13:11:09Z</time>
      </trkpt>
      <trkpt lat="44.14976" lon="7.6794">
        <ele>2221.535</ele>
        <time>2018-07-01T13:11:10Z</time>
      </trkpt>
      <trkpt lat="44.14979" lon="7.67936">
        <ele>2220.71</ele>
        <time>2018-07-01T13:11:11Z</time>
      </trkpt>
      <trkpt lat="44.14983" lon="7.67932">
        <ele>2220.271</ele>
        <time>2018-07-01T13:11:12Z</time>
      </trkpt>
      <trkpt lat="44.14986" lon="7.67927">
        <ele>2219.622</ele>
        <time>2018-07-01T13:11:13Z</time>
      </trkpt>
      <trkpt lat="44.14989" lon="7.67922">
        <ele>2219.862</ele>
        <time>2018-07-01T13:11:14Z</time>
      </trkpt>
      <trkpt lat="44.14992" lon="7.67915">
        <ele>2220.008</ele>
        <time>2018-07-01T13:11:15Z</time>
      </trkpt>
      <trkpt lat="44.14994" lon="7.67907">
        <ele>2220.008</ele>
        <time>2018-07-01T13:11:16Z</time>
      </trkpt>
      <trkpt lat="44.14996" lon="7.67899">
        <ele>2220.234</ele>
        <time>2018-07-01T13:11:17Z</time>
      </trkpt>
      <trkpt lat="44.14997" lon="7.67891">
        <ele>2219.458</ele>
        <time>2018-07-01T13:11:18Z</time>
      </trkpt>
      <trkpt lat="44.14999" lon="7.67881">
        <ele>2219.254</ele>
        <time>2018-07-01T13:11:19Z</time>
      </trkpt>
      <trkpt lat="44.15002" lon="7.67872">
        <ele>2218.947</ele>
        <time>2018-07-01T13:11:20Z</time>
      </trkpt>
      <trkpt lat="44.15002" lon="7.6786">
        <ele>2218.749</ele>
        <time>2018-07-01T13:11:21Z</time>
      </trkpt>
      <trkpt lat="44.15003" lon="7.67852">
        <ele>2218.212</ele>
        <time>2018-07-01T13:11:22Z</time>
      </trkpt>
      <trkpt lat="44.15005" lon="7.67844">
        <ele>2217.487</ele>
        <time>2018-07-01T13:11:23Z</time>
      </trkpt>
      <trkpt lat="44.15007" lon="7.67835">
        <ele>2216.648</ele>
        <time>2018-07-01T13:11:24Z</time>
      </trkpt>
      <trkpt lat="44.15008" lon="7.67827">
        <ele>2216.145</ele>
        <time>2018-07-01T13:11:25Z</time>
      </trkpt>
      <trkpt lat="44.15007" lon="7.67819">
        <ele>2215.947</ele>
        <time>2018-07-01T13:11:26Z</time>
      </trkpt>
      <trkpt lat="44.15008" lon="7.67813">
        <ele>2215.311</ele>
        <time>2018-07-01T13:11:27Z</time>
      </trkpt>
      <trkpt lat="44.15006" lon="7.67803">
        <ele>2214.408</ele>
        <time>2018-07-01T13:11:29Z</time>
      </trkpt>
      <trkpt lat="44.15006" lon="7.67795">
        <ele>2214.336</ele>
        <time>2018-07-01T13:11:31Z</time>
      </trkpt>
      <trkpt lat="44.15004" lon="7.67788">
        <ele>2212.49</ele>
        <time>2018-07-01T13:12:00Z</time>
      </trkpt>
      <trkpt lat="44.15009" lon="7.67786">
        <ele>2205.296</ele>
        <time>2018-07-01T13:12:45Z</time>
      </trkpt>
      <trkpt lat="44.15013" lon="7.6778">
        <ele>2204.429</ele>
        <time>2018-07-01T13:12:47Z</time>
      </trkpt>
      <trkpt lat="44.15016" lon="7.6777">
        <ele>2206.431</ele>
        <time>2018-07-01T13:12:49Z</time>
      </trkpt>
      <trkpt lat="44.15017" lon="7.67763">
        <ele>2206.524</ele>
        <time>2018-07-01T13:12:50Z</time>
      </trkpt>
      <trkpt lat="44.15017" lon="7.67752">
        <ele>2206.739</ele>
        <time>2018-07-01T13:12:51Z</time>
      </trkpt>
      <trkpt lat="44.15018" lon="7.67742">
        <ele>2206.08</ele>
        <time>2018-07-01T13:12:52Z</time>
      </trkpt>
      <trkpt lat="44.1502" lon="7.67733">
        <ele>2205.316</ele>
        <time>2018-07-01T13:12:53Z</time>
      </trkpt>
      <trkpt lat="44.15023" lon="7.67723">
        <ele>2205.876</ele>
        <time>2018-07-01T13:12:54Z</time>
      </trkpt>
      <trkpt lat="44.15025" lon="7.67712">
        <ele>2205.813</ele>
        <time>2018-07-01T13:12:55Z</time>
      </trkpt>
      <trkpt lat="44.15027" lon="7.67702">
        <ele>2206.108</ele>
        <time>2018-07-01T13:12:56Z</time>
      </trkpt>
      <trkpt lat="44.15031" lon="7.67695">
        <ele>2206.393</ele>
        <time>2018-07-01T13:12:57Z</time>
      </trkpt>
      <trkpt lat="44.15036" lon="7.67687">
        <ele>2208.227</ele>
        <time>2018-07-01T13:12:58Z</time>
      </trkpt>
      <trkpt lat="44.15041" lon="7.67681">
        <ele>2207.193</ele>
        <time>2018-07-01T13:12:59Z</time>
      </trkpt>
      <trkpt lat="44.15046" lon="7.67675">
        <ele>2207.486</ele>
        <time>2018-07-01T13:13:00Z</time>
      </trkpt>
      <trkpt lat="44.15051" lon="7.6767">
        <ele>2208.458</ele>
        <time>2018-07-01T13:13:01Z</time>
      </trkpt>
      <trkpt lat="44.15055" lon="7.67665">
        <ele>2209.451</ele>
        <time>2018-07-01T13:13:02Z</time>
      </trkpt>
      <trkpt lat="44.1506" lon="7.6766">
        <ele>2209.866</ele>
        <time>2018-07-01T13:13:03Z</time>
      </trkpt>
      <trkpt lat="44.15065" lon="7.67656">
        <ele>2210.137</ele>
        <time>2018-07-01T13:13:04Z</time>
      </trkpt>
      <trkpt lat="44.1507" lon="7.67649">
        <ele>2207.629</ele>
        <time>2018-07-01T13:13:05Z</time>
      </trkpt>
      <trkpt lat="44.15075" lon="7.67644">
        <ele>2207.3</ele>
        <time>2018-07-01T13:13:06Z</time>
      </trkpt>
      <trkpt lat="44.15081" lon="7.67636">
        <ele>2209.52</ele>
        <time>2018-07-01T13:13:07Z</time>
      </trkpt>
      <trkpt lat="44.15084" lon="7.6763">
        <ele>2209.708</ele>
        <time>2018-07-01T13:13:08Z</time>
      </trkpt>
      <trkpt lat="44.15087" lon="7.67623">
        <ele>2208.274</ele>
        <time>2018-07-01T13:13:09Z</time>
      </trkpt>
      <trkpt lat="44.15088" lon="7.67615">
        <ele>2208.418</ele>
        <time>2018-07-01T13:13:10Z</time>
      </trkpt>
      <trkpt lat="44.15091" lon="7.67606">
        <ele>2208.054</ele>
        <time>2018-07-01T13:13:11Z</time>
      </trkpt>
      <trkpt lat="44.15094" lon="7.67599">
        <ele>2208.497</ele>
        <time>2018-07-01T13:13:12Z</time>
      </trkpt>
      <trkpt lat="44.15097" lon="7.67592">
        <ele>2208.449</ele>
        <time>2018-07-01T13:13:13Z</time>
      </trkpt>
      <trkpt lat="44.151" lon="7.67585">
        <ele>2206.852</ele>
        <time>2018-07-01T13:13:14Z</time>
      </trkpt>
      <trkpt lat="44.15102" lon="7.67578">
        <ele>2205.147</ele>
        <time>2018-07-01T13:13:15Z</time>
      </trkpt>
      <trkpt lat="44.15105" lon="7.67571">
        <ele>2205.158</ele>
        <time>2018-07-01T13:13:16Z</time>
      </trkpt>
      <trkpt lat="44.15106" lon="7.67563">
        <ele>2203.424</ele>
        <time>2018-07-01T13:13:17Z</time>
      </trkpt>
      <trkpt lat="44.15107" lon="7.67556">
        <ele>2200.604</ele>
        <time>2018-07-01T13:13:18Z</time>
      </trkpt>
      <trkpt lat="44.1511" lon="7.67548">
        <ele>2201.514</ele>
        <time>2018-07-01T13:13:19Z</time>
      </trkpt>
      <trkpt lat="44.15112" lon="7.67538">
        <ele>2199.908</ele>
        <time>2018-07-01T13:13:20Z</time>
      </trkpt>
      <trkpt lat="44.15114" lon="7.67529">
        <ele>2198.484</ele>
        <time>2018-07-01T13:13:21Z</time>
      </trkpt>
      <trkpt lat="44.15116" lon="7.67521">
        <ele>2197.188</ele>
        <time>2018-07-01T13:13:22Z</time>
      </trkpt>
      <trkpt lat="44.15118" lon="7.67511">
        <ele>2195.594</ele>
        <time>2018-07-01T13:13:23Z</time>
      </trkpt>
      <trkpt lat="44.15121" lon="7.67501">
        <ele>2194.777</ele>
        <time>2018-07-01T13:13:24Z</time>
      </trkpt>
      <trkpt lat="44.15122" lon="7.67492">
        <ele>2192.929</ele>
        <time>2018-07-01T13:13:25Z</time>
      </trkpt>
      <trkpt lat="44.15122" lon="7.67483">
        <ele>2192.772</ele>
        <time>2018-07-01T13:13:26Z</time>
      </trkpt>
      <trkpt lat="44.15122" lon="7.67474">
        <ele>2192.667</ele>
        <time>2018-07-01T13:13:27Z</time>
      </trkpt>
      <trkpt lat="44.15122" lon="7.67465">
        <ele>2191.438</ele>
        <time>2018-07-01T13:13:28Z</time>
      </trkpt>
      <trkpt lat="44.15123" lon="7.67454">
        <ele>2191.436</ele>
        <time>2018-07-01T13:13:29Z</time>
      </trkpt>
      <trkpt lat="44.15126" lon="7.6744">
        <ele>2191.317</ele>
        <time>2018-07-01T13:13:30Z</time>
      </trkpt>
      <trkpt lat="44.15128" lon="7.67428">
        <ele>2191.418</ele>
        <time>2018-07-01T13:13:31Z</time>
      </trkpt>
      <trkpt lat="44.15133" lon="7.67414">
        <ele>2191.008</ele>
        <time>2018-07-01T13:13:32Z</time>
      </trkpt>
      <trkpt lat="44.15137" lon="7.67403">
        <ele>2189.985</ele>
        <time>2018-07-01T13:13:33Z</time>
      </trkpt>
      <trkpt lat="44.15141" lon="7.67392">
        <ele>2190.089</ele>
        <time>2018-07-01T13:13:34Z</time>
      </trkpt>
      <trkpt lat="44.15145" lon="7.6738">
        <ele>2190.675</ele>
        <time>2018-07-01T13:13:35Z</time>
      </trkpt>
      <trkpt lat="44.1515" lon="7.67372">
        <ele>2190.048</ele>
        <time>2018-07-01T13:13:36Z</time>
      </trkpt>
      <trkpt lat="44.15154" lon="7.67361">
        <ele>2190.41</ele>
        <time>2018-07-01T13:13:37Z</time>
      </trkpt>
      <trkpt lat="44.15155" lon="7.6735">
        <ele>2190.193</ele>
        <time>2018-07-01T13:13:38Z</time>
      </trkpt>
      <trkpt lat="44.15158" lon="7.67342">
        <ele>2189.698</ele>
        <time>2018-07-01T13:13:39Z</time>
      </trkpt>
      <trkpt lat="44.1516" lon="7.67334">
        <ele>2189.749</ele>
        <time>2018-07-01T13:13:40Z</time>
      </trkpt>
      <trkpt lat="44.15163" lon="7.67325">
        <ele>2189.684</ele>
        <time>2018-07-01T13:13:41Z</time>
      </trkpt>
      <trkpt lat="44.1517" lon="7.67318">
        <ele>2190.507</ele>
        <time>2018-07-01T13:13:42Z</time>
      </trkpt>
      <trkpt lat="44.15176" lon="7.67312">
        <ele>2190.317</ele>
        <time>2018-07-01T13:13:43Z</time>
      </trkpt>
      <trkpt lat="44.15184" lon="7.67307">
        <ele>2190.308</ele>
        <time>2018-07-01T13:13:44Z</time>
      </trkpt>
      <trkpt lat="44.15192" lon="7.67302">
        <ele>2190.72</ele>
        <time>2018-07-01T13:13:45Z</time>
      </trkpt>
      <trkpt lat="44.152" lon="7.67302">
        <ele>2191.234</ele>
        <time>2018-07-01T13:13:46Z</time>
      </trkpt>
      <trkpt lat="44.15209" lon="7.67301">
        <ele>2191.17</ele>
        <time>2018-07-01T13:13:47Z</time>
      </trkpt>
      <trkpt lat="44.15215" lon="7.67297">
        <ele>2189.993</ele>
        <time>2018-07-01T13:13:48Z</time>
      </trkpt>
      <trkpt lat="44.15221" lon="7.67294">
        <ele>2189.235</ele>
        <time>2018-07-01T13:13:49Z</time>
      </trkpt>
      <trkpt lat="44.15227" lon="7.6729">
        <ele>2188.848</ele>
        <time>2018-07-01T13:13:50Z</time>
      </trkpt>
      <trkpt lat="44.15234" lon="7.67288">
        <ele>2189.353</ele>
        <time>2018-07-01T13:13:51Z</time>
      </trkpt>
      <trkpt lat="44.15241" lon="7.67285">
        <ele>2189.784</ele>
        <time>2018-07-01T13:13:52Z</time>
      </trkpt>
      <trkpt lat="44.15246" lon="7.67285">
        <ele>2189.871</ele>
        <time>2018-07-01T13:13:53Z</time>
      </trkpt>
      <trkpt lat="44.15251" lon="7.67282">
        <ele>2192.341</ele>
        <time>2018-07-01T13:13:54Z</time>
      </trkpt>
      <trkpt lat="44.15255" lon="7.67279">
        <ele>2191.315</ele>
        <time>2018-07-01T13:13:55Z</time>
      </trkpt>
      <trkpt lat="44.15261" lon="7.67269">
        <ele>2191.008</ele>
        <time>2018-07-01T13:13:57Z</time>
      </trkpt>
      <trkpt lat="44.15263" lon="7.67262">
        <ele>2190.579</ele>
        <time>2018-07-01T13:13:58Z</time>
      </trkpt>
      <trkpt lat="44.15265" lon="7.67256">
        <ele>2189.723</ele>
        <time>2018-07-01T13:13:59Z</time>
      </trkpt>
      <trkpt lat="44.15268" lon="7.6725">
        <ele>2189.739</ele>
        <time>2018-07-01T13:14:00Z</time>
      </trkpt>
      <trkpt lat="44.15272" lon="7.67247">
        <ele>2184.622</ele>
        <time>2018-07-01T13:14:03Z</time>
      </trkpt>
      <trkpt lat="44.15275" lon="7.67239">
        <ele>2183.794</ele>
        <time>2018-07-01T13:14:04Z</time>
      </trkpt>
      <trkpt lat="44.15277" lon="7.67233">
        <ele>2185.147</ele>
        <time>2018-07-01T13:14:05Z</time>
      </trkpt>
      <trkpt lat="44.15282" lon="7.67227">
        <ele>2184.142</ele>
        <time>2018-07-01T13:14:06Z</time>
      </trkpt>
      <trkpt lat="44.15287" lon="7.67222">
        <ele>2183.563</ele>
        <time>2018-07-01T13:14:07Z</time>
      </trkpt>
      <trkpt lat="44.15292" lon="7.67217">
        <ele>2182.985</ele>
        <time>2018-07-01T13:14:08Z</time>
      </trkpt>
      <trkpt lat="44.15297" lon="7.67211">
        <ele>2182.189</ele>
        <time>2018-07-01T13:14:09Z</time>
      </trkpt>
      <trkpt lat="44.15301" lon="7.67207">
        <ele>2179.017</ele>
        <time>2018-07-01T13:14:10Z</time>
      </trkpt>
      <trkpt lat="44.15307" lon="7.67202">
        <ele>2178.208</ele>
        <time>2018-07-01T13:14:11Z</time>
      </trkpt>
      <trkpt lat="44.15313" lon="7.67201">
        <ele>2178.51</ele>
        <time>2018-07-01T13:14:12Z</time>
      </trkpt>
      <trkpt lat="44.15319" lon="7.67199">
        <ele>2177.584</ele>
        <time>2018-07-01T13:14:13Z</time>
      </trkpt>
      <trkpt lat="44.15325" lon="7.67198">
        <ele>2176.81</ele>
        <time>2018-07-01T13:14:14Z</time>
      </trkpt>
      <trkpt lat="44.1533" lon="7.67197">
        <ele>2176.143</ele>
        <time>2018-07-01T13:14:15Z</time>
      </trkpt>
      <trkpt lat="44.15336" lon="7.67194">
        <ele>2175.915</ele>
        <time>2018-07-01T13:14:16Z</time>
      </trkpt>
      <trkpt lat="44.15339" lon="7.6719">
        <ele>2175.578</ele>
        <time>2018-07-01T13:14:17Z</time>
      </trkpt>
      <trkpt lat="44.15345" lon="7.67184">
        <ele>2174.923</ele>
        <time>2018-07-01T13:14:18Z</time>
      </trkpt>
      <trkpt lat="44.1535" lon="7.67175">
        <ele>2174.894</ele>
        <time>2018-07-01T13:14:19Z</time>
      </trkpt>
      <trkpt lat="44.15352" lon="7.67167">
        <ele>2174.429</ele>
        <time>2018-07-01T13:14:20Z</time>
      </trkpt>
      <trkpt lat="44.15354" lon="7.67157">
        <ele>2173.9</ele>
        <time>2018-07-01T13:14:21Z</time>
      </trkpt>
      <trkpt lat="44.15356" lon="7.6715">
        <ele>2172.22</ele>
        <time>2018-07-01T13:14:22Z</time>
      </trkpt>
      <trkpt lat="44.15361" lon="7.67143">
        <ele>2171.608</ele>
        <time>2018-07-01T13:14:23Z</time>
      </trkpt>
      <trkpt lat="44.15365" lon="7.67137">
        <ele>2171.124</ele>
        <time>2018-07-01T13:14:24Z</time>
      </trkpt>
      <trkpt lat="44.1537" lon="7.67133">
        <ele>2170.518</ele>
        <time>2018-07-01T13:14:25Z</time>
      </trkpt>
      <trkpt lat="44.15375" lon="7.67129">
        <ele>2170.474</ele>
        <time>2018-07-01T13:14:26Z</time>
      </trkpt>
      <trkpt lat="44.15381" lon="7.67127">
        <ele>2170.277</ele>
        <time>2018-07-01T13:14:27Z</time>
      </trkpt>
      <trkpt lat="44.15386" lon="7.67126">
        <ele>2168.849</ele>
        <time>2018-07-01T13:14:28Z</time>
      </trkpt>
      <trkpt lat="44.15392" lon="7.67125">
        <ele>2167.912</ele>
        <time>2018-07-01T13:14:29Z</time>
      </trkpt>
      <trkpt lat="44.15398" lon="7.67126">
        <ele>2167.237</ele>
        <time>2018-07-01T13:14:30Z</time>
      </trkpt>
      <trkpt lat="44.15404" lon="7.67128">
        <ele>2166.728</ele>
        <time>2018-07-01T13:14:31Z</time>
      </trkpt>
      <trkpt lat="44.1541" lon="7.67131">
        <ele>2165.954</ele>
        <time>2018-07-01T13:14:32Z</time>
      </trkpt>
      <trkpt lat="44.15415" lon="7.67133">
        <ele>2165.256</ele>
        <time>2018-07-01T13:14:33Z</time>
      </trkpt>
      <trkpt lat="44.15421" lon="7.67132">
        <ele>2165.011</ele>
        <time>2018-07-01T13:14:34Z</time>
      </trkpt>
      <trkpt lat="44.15428" lon="7.6713">
        <ele>2163.708</ele>
        <time>2018-07-01T13:14:35Z</time>
      </trkpt>
      <trkpt lat="44.15435" lon="7.67127">
        <ele>2163.587</ele>
        <time>2018-07-01T13:14:36Z</time>
      </trkpt>
      <trkpt lat="44.15443" lon="7.67124">
        <ele>2163.151</ele>
        <time>2018-07-01T13:14:37Z</time>
      </trkpt>
      <trkpt lat="44.15449" lon="7.6712">
        <ele>2162.427</ele>
        <time>2018-07-01T13:14:38Z</time>
      </trkpt>
      <trkpt lat="44.15456" lon="7.67117">
        <ele>2162.06</ele>
        <time>2018-07-01T13:14:39Z</time>
      </trkpt>
      <trkpt lat="44.1546" lon="7.67115">
        <ele>2160.212</ele>
        <time>2018-07-01T13:14:40Z</time>
      </trkpt>
      <trkpt lat="44.15465" lon="7.67114">
        <ele>2159.215</ele>
        <time>2018-07-01T13:14:41Z</time>
      </trkpt>
      <trkpt lat="44.15471" lon="7.67114">
        <ele>2158.52</ele>
        <time>2018-07-01T13:14:42Z</time>
      </trkpt>
      <trkpt lat="44.15475" lon="7.67112">
        <ele>2157.881</ele>
        <time>2018-07-01T13:14:43Z</time>
      </trkpt>
      <trkpt lat="44.1548" lon="7.67108">
        <ele>2156.758</ele>
        <time>2018-07-01T13:14:44Z</time>
      </trkpt>
      <trkpt lat="44.15484" lon="7.67101">
        <ele>2155.952</ele>
        <time>2018-07-01T13:14:45Z</time>
      </trkpt>
      <trkpt lat="44.15489" lon="7.67095">
        <ele>2155.517</ele>
        <time>2018-07-01T13:14:46Z</time>
      </trkpt>
      <trkpt lat="44.15492" lon="7.6709">
        <ele>2155.308</ele>
        <time>2018-07-01T13:14:47Z</time>
      </trkpt>
      <trkpt lat="44.15497" lon="7.67085">
        <ele>2155.397</ele>
        <time>2018-07-01T13:14:48Z</time>
      </trkpt>
      <trkpt lat="44.15501" lon="7.67085">
        <ele>2154.521</ele>
        <time>2018-07-01T13:14:49Z</time>
      </trkpt>
      <trkpt lat="44.15506" lon="7.67084">
        <ele>2153.797</ele>
        <time>2018-07-01T13:14:50Z</time>
      </trkpt>
      <trkpt lat="44.15512" lon="7.67089">
        <ele>2154.49</ele>
        <time>2018-07-01T13:14:51Z</time>
      </trkpt>
      <trkpt lat="44.15517" lon="7.67092">
        <ele>2153.352</ele>
        <time>2018-07-01T13:14:52Z</time>
      </trkpt>
      <trkpt lat="44.15521" lon="7.67096">
        <ele>2152.345</ele>
        <time>2018-07-01T13:14:53Z</time>
      </trkpt>
      <trkpt lat="44.15525" lon="7.67101">
        <ele>2151.51</ele>
        <time>2018-07-01T13:14:54Z</time>
      </trkpt>
      <trkpt lat="44.15528" lon="7.67107">
        <ele>2151.181</ele>
        <time>2018-07-01T13:14:55Z</time>
      </trkpt>
      <trkpt lat="44.1553" lon="7.67113">
        <ele>2150.425</ele>
        <time>2018-07-01T13:14:56Z</time>
      </trkpt>
      <trkpt lat="44.15535" lon="7.67122">
        <ele>2149.926</ele>
        <time>2018-07-01T13:14:58Z</time>
      </trkpt>
      <trkpt lat="44.15543" lon="7.67124">
        <ele>2148.708</ele>
        <time>2018-07-01T13:15:00Z</time>
      </trkpt>
      <trkpt lat="44.15548" lon="7.67123">
        <ele>2148.208</ele>
        <time>2018-07-01T13:15:01Z</time>
      </trkpt>
      <trkpt lat="44.15553" lon="7.67122">
        <ele>2148.254</ele>
        <time>2018-07-01T13:15:02Z</time>
      </trkpt>
      <trkpt lat="44.15558" lon="7.67123">
        <ele>2147.488</ele>
        <time>2018-07-01T13:15:03Z</time>
      </trkpt>
      <trkpt lat="44.15563" lon="7.67126">
        <ele>2147.014</ele>
        <time>2018-07-01T13:15:04Z</time>
      </trkpt>
      <trkpt lat="44.15568" lon="7.67134">
        <ele>2145.467</ele>
        <time>2018-07-01T13:15:06Z</time>
      </trkpt>
      <trkpt lat="44.15573" lon="7.67137">
        <ele>2145.279</ele>
        <time>2018-07-01T13:15:07Z</time>
      </trkpt>
      <trkpt lat="44.15576" lon="7.67142">
        <ele>2145.092</ele>
        <time>2018-07-01T13:15:08Z</time>
      </trkpt>
      <trkpt lat="44.15582" lon="7.67142">
        <ele>2145.487</ele>
        <time>2018-07-01T13:15:09Z</time>
      </trkpt>
      <trkpt lat="44.1559" lon="7.67144">
        <ele>2143.518</ele>
        <time>2018-07-01T13:15:10Z</time>
      </trkpt>
      <trkpt lat="44.15596" lon="7.67146">
        <ele>2142.853</ele>
        <time>2018-07-01T13:15:11Z</time>
      </trkpt>
      <trkpt lat="44.15602" lon="7.6715">
        <ele>2143.004</ele>
        <time>2018-07-01T13:15:12Z</time>
      </trkpt>
      <trkpt lat="44.15607" lon="7.67152">
        <ele>2142.114</ele>
        <time>2018-07-01T13:15:13Z</time>
      </trkpt>
      <trkpt lat="44.15613" lon="7.67153">
        <ele>2140.708</ele>
        <time>2018-07-01T13:15:14Z</time>
      </trkpt>
      <trkpt lat="44.15617" lon="7.67152">
        <ele>2139.367</ele>
        <time>2018-07-01T13:15:15Z</time>
      </trkpt>
      <trkpt lat="44.15625" lon="7.67149">
        <ele>2138.131</ele>
        <time>2018-07-01T13:15:17Z</time>
      </trkpt>
      <trkpt lat="44.1563" lon="7.67148">
        <ele>2137.897</ele>
        <time>2018-07-01T13:15:18Z</time>
      </trkpt>
      <trkpt lat="44.15635" lon="7.67148">
        <ele>2138.24</ele>
        <time>2018-07-01T13:15:19Z</time>
      </trkpt>
      <trkpt lat="44.15641" lon="7.67144">
        <ele>2136.312</ele>
        <time>2018-07-01T13:15:20Z</time>
      </trkpt>
      <trkpt lat="44.15647" lon="7.67141">
        <ele>2136.375</ele>
        <time>2018-07-01T13:15:21Z</time>
      </trkpt>
      <trkpt lat="44.15652" lon="7.67136">
        <ele>2137.38</ele>
        <time>2018-07-01T13:15:22Z</time>
      </trkpt>
      <trkpt lat="44.15657" lon="7.67131">
        <ele>2135.791</ele>
        <time>2018-07-01T13:15:23Z</time>
      </trkpt>
      <trkpt lat="44.15661" lon="7.67127">
        <ele>2134.249</ele>
        <time>2018-07-01T13:15:24Z</time>
      </trkpt>
      <trkpt lat="44.15667" lon="7.67123">
        <ele>2134.602</ele>
        <time>2018-07-01T13:15:25Z</time>
      </trkpt>
      <trkpt lat="44.15671" lon="7.67119">
        <ele>2133.822</ele>
        <time>2018-07-01T13:15:26Z</time>
      </trkpt>
      <trkpt lat="44.15678" lon="7.67118">
        <ele>2134.108</ele>
        <time>2018-07-01T13:15:27Z</time>
      </trkpt>
      <trkpt lat="44.15684" lon="7.67114">
        <ele>2133.876</ele>
        <time>2018-07-01T13:15:28Z</time>
      </trkpt>
      <trkpt lat="44.15688" lon="7.67113">
        <ele>2132.81</ele>
        <time>2018-07-01T13:15:29Z</time>
      </trkpt>
      <trkpt lat="44.15694" lon="7.67113">
        <ele>2132.436</ele>
        <time>2018-07-01T13:15:30Z</time>
      </trkpt>
      <trkpt lat="44.15701" lon="7.67112">
        <ele>2131.239</ele>
        <time>2018-07-01T13:15:31Z</time>
      </trkpt>
      <trkpt lat="44.15708" lon="7.67112">
        <ele>2131.021</ele>
        <time>2018-07-01T13:15:32Z</time>
      </trkpt>
      <trkpt lat="44.15716" lon="7.67112">
        <ele>2130.584</ele>
        <time>2018-07-01T13:15:33Z</time>
      </trkpt>
      <trkpt lat="44.15723" lon="7.67113">
        <ele>2130.139</ele>
        <time>2018-07-01T13:15:34Z</time>
      </trkpt>
      <trkpt lat="44.1573" lon="7.67113">
        <ele>2128.93</ele>
        <time>2018-07-01T13:15:35Z</time>
      </trkpt>
      <trkpt lat="44.15736" lon="7.67115">
        <ele>2129.599</ele>
        <time>2018-07-01T13:15:36Z</time>
      </trkpt>
      <trkpt lat="44.15741" lon="7.67118">
        <ele>2128.807</ele>
        <time>2018-07-01T13:15:37Z</time>
      </trkpt>
      <trkpt lat="44.15747" lon="7.67121">
        <ele>2128.527</ele>
        <time>2018-07-01T13:15:38Z</time>
      </trkpt>
      <trkpt lat="44.15753" lon="7.67121">
        <ele>2126.008</ele>
        <time>2018-07-01T13:15:39Z</time>
      </trkpt>
      <trkpt lat="44.15759" lon="7.67122">
        <ele>2125.751</ele>
        <time>2018-07-01T13:15:40Z</time>
      </trkpt>
      <trkpt lat="44.15764" lon="7.67123">
        <ele>2125.265</ele>
        <time>2018-07-01T13:15:41Z</time>
      </trkpt>
      <trkpt lat="44.1577" lon="7.67124">
        <ele>2125.181</ele>
        <time>2018-07-01T13:15:42Z</time>
      </trkpt>
      <trkpt lat="44.15776" lon="7.67126">
        <ele>2124.994</ele>
        <time>2018-07-01T13:15:43Z</time>
      </trkpt>
      <trkpt lat="44.1578" lon="7.6713">
        <ele>2123.066</ele>
        <time>2018-07-01T13:15:44Z</time>
      </trkpt>
      <trkpt lat="44.15785" lon="7.67134">
        <ele>2122.269</ele>
        <time>2018-07-01T13:15:45Z</time>
      </trkpt>
      <trkpt lat="44.15791" lon="7.67139">
        <ele>2121.714</ele>
        <time>2018-07-01T13:15:46Z</time>
      </trkpt>
      <trkpt lat="44.15796" lon="7.67143">
        <ele>2122.635</ele>
        <time>2018-07-01T13:15:47Z</time>
      </trkpt>
      <trkpt lat="44.15801" lon="7.67148">
        <ele>2121.829</ele>
        <time>2018-07-01T13:15:48Z</time>
      </trkpt>
      <trkpt lat="44.15805" lon="7.67152">
        <ele>2121.3</ele>
        <time>2018-07-01T13:15:49Z</time>
      </trkpt>
      <trkpt lat="44.15811" lon="7.67155">
        <ele>2121.22</ele>
        <time>2018-07-01T13:15:50Z</time>
      </trkpt>
      <trkpt lat="44.15815" lon="7.67155">
        <ele>2120.308</ele>
        <time>2018-07-01T13:15:51Z</time>
      </trkpt>
      <trkpt lat="44.1582" lon="7.67155">
        <ele>2119.614</ele>
        <time>2018-07-01T13:15:52Z</time>
      </trkpt>
      <trkpt lat="44.15828" lon="7.67156">
        <ele>2116.568</ele>
        <time>2018-07-01T13:15:54Z</time>
      </trkpt>
      <trkpt lat="44.15832" lon="7.67157">
        <ele>2114.774</ele>
        <time>2018-07-01T13:15:56Z</time>
      </trkpt>
      <trkpt lat="44.15837" lon="7.67156">
        <ele>2113.677</ele>
        <time>2018-07-01T13:15:58Z</time>
      </trkpt>
      <trkpt lat="44.15837" lon="7.67163">
        <ele>2111.089</ele>
        <time>2018-07-01T13:16:46Z</time>
      </trkpt>
      <trkpt lat="44.1584" lon="7.6717">
        <ele>2112.312</ele>
        <time>2018-07-01T13:16:50Z</time>
      </trkpt>
      <trkpt lat="44.15838" lon="7.67162">
        <ele>2110.197</ele>
        <time>2018-07-01T13:17:01Z</time>
      </trkpt>
      <trkpt lat="44.15837" lon="7.67155">
        <ele>2109.618</ele>
        <time>2018-07-01T13:17:05Z</time>
      </trkpt>
      <trkpt lat="44.15838" lon="7.67162">
        <ele>2110.718</ele>
        <time>2018-07-01T13:17:30Z</time>
      </trkpt>
      <trkpt lat="44.1584" lon="7.67169">
        <ele>2111.698</ele>
        <time>2018-07-01T13:17:34Z</time>
      </trkpt>
      <trkpt lat="44.15841" lon="7.67177">
        <ele>2111.517</ele>
        <time>2018-07-01T13:17:37Z</time>
      </trkpt>
      <trkpt lat="44.15843" lon="7.67184">
        <ele>2111.808</ele>
        <time>2018-07-01T13:17:41Z</time>
      </trkpt>
      <trkpt lat="44.15844" lon="7.67191">
        <ele>2111.973</ele>
        <time>2018-07-01T13:17:43Z</time>
      </trkpt>
      <trkpt lat="44.15846" lon="7.67197">
        <ele>2111.727</ele>
        <time>2018-07-01T13:17:45Z</time>
      </trkpt>
      <trkpt lat="44.15844" lon="7.67206">
        <ele>2111.893</ele>
        <time>2018-07-01T13:17:48Z</time>
      </trkpt>
      <trkpt lat="44.1584" lon="7.67213">
        <ele>2110.566</ele>
        <time>2018-07-01T13:17:51Z</time>
      </trkpt>
      <trkpt lat="44.15837" lon="7.67218">
        <ele>2110.148</ele>
        <time>2018-07-01T13:17:53Z</time>
      </trkpt>
      <trkpt lat="44.15833" lon="7.67223">
        <ele>2109.811</ele>
        <time>2018-07-01T13:17:55Z</time>
      </trkpt>
      <trkpt lat="44.15828" lon="7.67228">
        <ele>2108.426</ele>
        <time>2018-07-01T13:17:58Z</time>
      </trkpt>
      <trkpt lat="44.15824" lon="7.67233">
        <ele>2108.297</ele>
        <time>2018-07-01T13:18:00Z</time>
      </trkpt>
      <trkpt lat="44.15821" lon="7.67238">
        <ele>2107.834</ele>
        <time>2018-07-01T13:18:02Z</time>
      </trkpt>
      <trkpt lat="44.15819" lon="7.67244">
        <ele>2107.355</ele>
        <time>2018-07-01T13:18:04Z</time>
      </trkpt>
      <trkpt lat="44.15817" lon="7.67252">
        <ele>2105.71</ele>
        <time>2018-07-01T13:18:07Z</time>
      </trkpt>
      <trkpt lat="44.15814" lon="7.67261">
        <ele>2105.208</ele>
        <time>2018-07-01T13:18:10Z</time>
      </trkpt>
      <trkpt lat="44.15812" lon="7.67267">
        <ele>2103.625</ele>
        <time>2018-07-01T13:18:12Z</time>
      </trkpt>
      <trkpt lat="44.15811" lon="7.67273">
        <ele>2102.219</ele>
        <time>2018-07-01T13:18:16Z</time>
      </trkpt>
      <trkpt lat="44.15811" lon="7.67281">
        <ele>2100.725</ele>
        <time>2018-07-01T13:18:21Z</time>
      </trkpt>
      <trkpt lat="44.15811" lon="7.6729">
        <ele>2099.518</ele>
        <time>2018-07-01T13:18:26Z</time>
      </trkpt>
      <trkpt lat="44.15811" lon="7.67298">
        <ele>2098.22</ele>
        <time>2018-07-01T13:18:30Z</time>
      </trkpt>
      <trkpt lat="44.15809" lon="7.67306">
        <ele>2096.493</ele>
        <time>2018-07-01T13:18:34Z</time>
      </trkpt>
      <trkpt lat="44.15808" lon="7.67314">
        <ele>2094.828</ele>
        <time>2018-07-01T13:18:38Z</time>
      </trkpt>
      <trkpt lat="44.15808" lon="7.67321">
        <ele>2094.629</ele>
        <time>2018-07-01T13:18:41Z</time>
      </trkpt>
      <trkpt lat="44.15808" lon="7.67327">
        <ele>2094.463</ele>
        <time>2018-07-01T13:18:44Z</time>
      </trkpt>
      <trkpt lat="44.15807" lon="7.67335">
        <ele>2093.044</ele>
        <time>2018-07-01T13:18:47Z</time>
      </trkpt>
      <trkpt lat="44.15808" lon="7.67342">
        <ele>2092.518</ele>
        <time>2018-07-01T13:18:50Z</time>
      </trkpt>
      <trkpt lat="44.15812" lon="7.67345">
        <ele>2091.508</ele>
        <time>2018-07-01T13:18:54Z</time>
      </trkpt>
      <trkpt lat="44.15817" lon="7.67344">
        <ele>2091.248</ele>
        <time>2018-07-01T13:18:59Z</time>
      </trkpt>
      <trkpt lat="44.15812" lon="7.67345">
        <ele>2090.142</ele>
        <time>2018-07-01T13:19:11Z</time>
      </trkpt>
      <trkpt lat="44.15808" lon="7.67348">
        <ele>2092.318</ele>
        <time>2018-07-01T13:19:28Z</time>
      </trkpt>
      <trkpt lat="44.15858" lon="7.67351">
        <ele>2038.151</ele>
        <time>2018-07-01T13:22:04Z</time>
      </trkpt>
      <trkpt lat="44.15853" lon="7.67353">
        <ele>2032.153</ele>
        <time>2018-07-01T13:22:26Z</time>
      </trkpt>
      <trkpt lat="44.15851" lon="7.67359">
        <ele>2032.366</ele>
        <time>2018-07-01T13:22:31Z</time>
      </trkpt>
      <trkpt lat="44.15848" lon="7.67353">
        <ele>2032.651</ele>
        <time>2018-07-01T13:22:41Z</time>
      </trkpt>
      <trkpt lat="44.15844" lon="7.67349">
        <ele>2032.412</ele>
        <time>2018-07-01T13:22:45Z</time>
      </trkpt>
      <trkpt lat="44.1584" lon="7.67343">
        <ele>2032.267</ele>
        <time>2018-07-01T13:22:47Z</time>
      </trkpt>
      <trkpt lat="44.15837" lon="7.67338">
        <ele>2032.181</ele>
        <time>2018-07-01T13:22:49Z</time>
      </trkpt>
      <trkpt lat="44.15825" lon="7.67333">
        <ele>2032.019</ele>
        <time>2018-07-01T13:22:51Z</time>
      </trkpt>
      <trkpt lat="44.15819" lon="7.67331">
        <ele>2031.908</ele>
        <time>2018-07-01T13:22:52Z</time>
      </trkpt>
      <trkpt lat="44.15812" lon="7.67328">
        <ele>2031.798</ele>
        <time>2018-07-01T13:22:54Z</time>
      </trkpt>
      <trkpt lat="44.15811" lon="7.67334">
        <ele>2031.572</ele>
        <time>2018-07-01T13:23:23Z</time>
      </trkpt>
      <trkpt lat="44.15816" lon="7.67333">
        <ele>2030.078</ele>
        <time>2018-07-01T13:23:36Z</time>
      </trkpt>
      <trkpt lat="44.15819" lon="7.67327">
        <ele>2027.731</ele>
        <time>2018-07-01T13:24:12Z</time>
      </trkpt>
      <trkpt lat="44.15821" lon="7.67322">
        <ele>2027.083</ele>
        <time>2018-07-01T13:24:32Z</time>
      </trkpt>
      <trkpt lat="44.15822" lon="7.67314">
        <ele>2026.856</ele>
        <time>2018-07-01T13:24:39Z</time>
      </trkpt>
      <trkpt lat="44.15823" lon="7.67306">
        <ele>2026.891</ele>
        <time>2018-07-01T13:24:40Z</time>
      </trkpt>
      <trkpt lat="44.15823" lon="7.67299">
        <ele>2026.862</ele>
        <time>2018-07-01T13:24:43Z</time>
      </trkpt>
      <trkpt lat="44.15828" lon="7.67302">
        <ele>2026.856</ele>
        <time>2018-07-01T13:24:50Z</time>
      </trkpt>
      <trkpt lat="44.15828" lon="7.67308">
        <ele>2026.859</ele>
        <time>2018-07-01T13:24:54Z</time>
      </trkpt>
      <trkpt lat="44.15828" lon="7.67315">
        <ele>2026.814</ele>
        <time>2018-07-01T13:24:57Z</time>
      </trkpt>
      <trkpt lat="44.15828" lon="7.67322">
        <ele>2026.908</ele>
        <time>2018-07-01T13:25:01Z</time>
      </trkpt>
      <trkpt lat="44.15816" lon="7.67335">
        <ele>2102.587</ele>
        <time>2018-07-01T13:26:19Z</time>
      </trkpt>
      <trkpt lat="44.15821" lon="7.67335">
        <ele>2092.121</ele>
        <time>2018-07-01T13:26:24Z</time>
      </trkpt>
      <trkpt lat="44.15822" lon="7.67342">
        <ele>2093.377</ele>
        <time>2018-07-01T13:26:31Z</time>
      </trkpt>
      <trkpt lat="44.15817" lon="7.67344">
        <ele>2091.21</ele>
        <time>2018-07-01T13:26:36Z</time>
      </trkpt>
      <trkpt lat="44.15816" lon="7.6735">
        <ele>2092.142</ele>
        <time>2018-07-01T13:26:41Z</time>
      </trkpt>
      <trkpt lat="44.15813" lon="7.67343">
        <ele>2089.695</ele>
        <time>2018-07-01T13:26:46Z</time>
      </trkpt>
      <trkpt lat="44.15809" lon="7.67337">
        <ele>2088.35</ele>
        <time>2018-07-01T13:26:48Z</time>
      </trkpt>
      <trkpt lat="44.15808" lon="7.67331">
        <ele>2089.281</ele>
        <time>2018-07-01T13:26:50Z</time>
      </trkpt>
      <trkpt lat="44.1581" lon="7.67323">
        <ele>2090.272</ele>
        <time>2018-07-01T13:26:53Z</time>
      </trkpt>
      <trkpt lat="44.15811" lon="7.67315">
        <ele>2091.913</ele>
        <time>2018-07-01T13:26:57Z</time>
      </trkpt>
      <trkpt lat="44.15812" lon="7.67308">
        <ele>2092.514</ele>
        <time>2018-07-01T13:27:00Z</time>
      </trkpt>
      <trkpt lat="44.15811" lon="7.67301">
        <ele>2093.408</ele>
        <time>2018-07-01T13:27:03Z</time>
      </trkpt>
      <trkpt lat="44.15811" lon="7.67295">
        <ele>2092.779</ele>
        <time>2018-07-01T13:27:06Z</time>
      </trkpt>
      <trkpt lat="44.15811" lon="7.67288">
        <ele>2094.373</ele>
        <time>2018-07-01T13:27:09Z</time>
      </trkpt>
      <trkpt lat="44.15811" lon="7.67281">
        <ele>2094.049</ele>
        <time>2018-07-01T13:27:12Z</time>
      </trkpt>
      <trkpt lat="44.15812" lon="7.67275">
        <ele>2094.872</ele>
        <time>2018-07-01T13:27:15Z</time>
      </trkpt>
      <trkpt lat="44.15814" lon="7.67269">
        <ele>2095.524</ele>
        <time>2018-07-01T13:27:18Z</time>
      </trkpt>
      <trkpt lat="44.15815" lon="7.67263">
        <ele>2096.527</ele>
        <time>2018-07-01T13:27:21Z</time>
      </trkpt>
      <trkpt lat="44.15818" lon="7.67258">
        <ele>2096.022</ele>
        <time>2018-07-01T13:27:24Z</time>
      </trkpt>
      <trkpt lat="44.15821" lon="7.67252">
        <ele>2096.173</ele>
        <time>2018-07-01T13:27:28Z</time>
      </trkpt>
      <trkpt lat="44.15823" lon="7.67246">
        <ele>2095.969</ele>
        <time>2018-07-01T13:27:32Z</time>
      </trkpt>
      <trkpt lat="44.15825" lon="7.67239">
        <ele>2096.504</ele>
        <time>2018-07-01T13:27:37Z</time>
      </trkpt>
      <trkpt lat="44.15828" lon="7.67233">
        <ele>2095.224</ele>
        <time>2018-07-01T13:27:44Z</time>
      </trkpt>
      <trkpt lat="44.15832" lon="7.67228">
        <ele>2097.408</ele>
        <time>2018-07-01T13:27:49Z</time>
      </trkpt>
      <trkpt lat="44.15834" lon="7.67221">
        <ele>2097.968</ele>
        <time>2018-07-01T13:27:55Z</time>
      </trkpt>
      <trkpt lat="44.15838" lon="7.67218">
        <ele>2098.182</ele>
        <time>2018-07-01T13:28:00Z</time>
      </trkpt>
      <trkpt lat="44.15841" lon="7.67212">
        <ele>2099.298</ele>
        <time>2018-07-01T13:28:16Z</time>
      </trkpt>
      <trkpt lat="44.15844" lon="7.67207">
        <ele>2100.551</ele>
        <time>2018-07-01T13:28:22Z</time>
      </trkpt>
      <trkpt lat="44.15846" lon="7.67201">
        <ele>2102.333</ele>
        <time>2018-07-01T13:28:28Z</time>
      </trkpt>
      <trkpt lat="44.15846" lon="7.67193">
        <ele>2104.426</ele>
        <time>2018-07-01T13:28:34Z</time>
      </trkpt>
      <trkpt lat="44.15843" lon="7.67186">
        <ele>2104.771</ele>
        <time>2018-07-01T13:28:38Z</time>
      </trkpt>
      <trkpt lat="44.15843" lon="7.6718">
        <ele>2105.842</ele>
        <time>2018-07-01T13:28:42Z</time>
      </trkpt>
      <trkpt lat="44.15841" lon="7.67173">
        <ele>2106.541</ele>
        <time>2018-07-01T13:28:47Z</time>
      </trkpt>
      <trkpt lat="44.15842" lon="7.67167">
        <ele>2108.081</ele>
        <time>2018-07-01T13:28:52Z</time>
      </trkpt>
      <trkpt lat="44.15847" lon="7.67164">
        <ele>2108.809</ele>
        <time>2018-07-01T13:28:58Z</time>
      </trkpt>
      <trkpt lat="44.15843" lon="7.67161">
        <ele>2111.208</ele>
        <time>2018-07-01T13:31:17Z</time>
      </trkpt>
      <trkpt lat="44.1584" lon="7.67155">
        <ele>2112.746</ele>
        <time>2018-07-01T13:31:22Z</time>
      </trkpt>
      <trkpt lat="44.15839" lon="7.67149">
        <ele>2112.84</ele>
        <time>2018-07-01T13:35:45Z</time>
      </trkpt>
      <trkpt lat="44.15842" lon="7.67142">
        <ele>2112.626</ele>
        <time>2018-07-01T13:35:47Z</time>
      </trkpt>
      <trkpt lat="44.15847" lon="7.67135">
        <ele>2112.589</ele>
        <time>2018-07-01T13:35:49Z</time>
      </trkpt>
      <trkpt lat="44.15851" lon="7.67133">
        <ele>2112.641</ele>
        <time>2018-07-01T13:35:50Z</time>
      </trkpt>
      <trkpt lat="44.15856" lon="7.6713">
        <ele>2111.924</ele>
        <time>2018-07-01T13:35:51Z</time>
      </trkpt>
      <trkpt lat="44.15863" lon="7.67127">
        <ele>2111.719</ele>
        <time>2018-07-01T13:35:52Z</time>
      </trkpt>
      <trkpt lat="44.15869" lon="7.67123">
        <ele>2111.45</ele>
        <time>2018-07-01T13:35:53Z</time>
      </trkpt>
      <trkpt lat="44.15875" lon="7.67119">
        <ele>2111.466</ele>
        <time>2018-07-01T13:35:54Z</time>
      </trkpt>
      <trkpt lat="44.1588" lon="7.67115">
        <ele>2111.029</ele>
        <time>2018-07-01T13:35:55Z</time>
      </trkpt>
      <trkpt lat="44.15885" lon="7.67112">
        <ele>2111.021</ele>
        <time>2018-07-01T13:35:56Z</time>
      </trkpt>
      <trkpt lat="44.15891" lon="7.67111">
        <ele>2110.608</ele>
        <time>2018-07-01T13:35:57Z</time>
      </trkpt>
      <trkpt lat="44.15897" lon="7.67111">
        <ele>2109.658</ele>
        <time>2018-07-01T13:35:58Z</time>
      </trkpt>
      <trkpt lat="44.15903" lon="7.67112">
        <ele>2108.692</ele>
        <time>2018-07-01T13:35:59Z</time>
      </trkpt>
      <trkpt lat="44.15908" lon="7.67112">
        <ele>2107.628</ele>
        <time>2018-07-01T13:36:00Z</time>
      </trkpt>
      <trkpt lat="44.15916" lon="7.67112">
        <ele>2106.011</ele>
        <time>2018-07-01T13:36:02Z</time>
      </trkpt>
      <trkpt lat="44.15919" lon="7.67107">
        <ele>2105.423</ele>
        <time>2018-07-01T13:36:03Z</time>
      </trkpt>
      <trkpt lat="44.15923" lon="7.67101">
        <ele>2105.396</ele>
        <time>2018-07-01T13:36:04Z</time>
      </trkpt>
      <trkpt lat="44.15926" lon="7.67095">
        <ele>2104.361</ele>
        <time>2018-07-01T13:36:05Z</time>
      </trkpt>
      <trkpt lat="44.15929" lon="7.67087">
        <ele>2103.772</ele>
        <time>2018-07-01T13:36:06Z</time>
      </trkpt>
      <trkpt lat="44.15931" lon="7.67078">
        <ele>2103.361</ele>
        <time>2018-07-01T13:36:07Z</time>
      </trkpt>
      <trkpt lat="44.15933" lon="7.6707">
        <ele>2103.021</ele>
        <time>2018-07-01T13:36:08Z</time>
      </trkpt>
      <trkpt lat="44.15935" lon="7.67062">
        <ele>2102.913</ele>
        <time>2018-07-01T13:36:09Z</time>
      </trkpt>
      <trkpt lat="44.15938" lon="7.67054">
        <ele>2102.908</ele>
        <time>2018-07-01T13:36:10Z</time>
      </trkpt>
      <trkpt lat="44.15941" lon="7.67048">
        <ele>2101.648</ele>
        <time>2018-07-01T13:36:11Z</time>
      </trkpt>
      <trkpt lat="44.15945" lon="7.67041">
        <ele>2101.452</ele>
        <time>2018-07-01T13:36:12Z</time>
      </trkpt>
      <trkpt lat="44.15951" lon="7.67035">
        <ele>2101.698</ele>
        <time>2018-07-01T13:36:13Z</time>
      </trkpt>
      <trkpt lat="44.15957" lon="7.67029">
        <ele>2101.691</ele>
        <time>2018-07-01T13:36:14Z</time>
      </trkpt>
      <trkpt lat="44.15962" lon="7.67022">
        <ele>2101.493</ele>
        <time>2018-07-01T13:36:15Z</time>
      </trkpt>
      <trkpt lat="44.15967" lon="7.67017">
        <ele>2101.256</ele>
        <time>2018-07-01T13:36:16Z</time>
      </trkpt>
      <trkpt lat="44.15972" lon="7.67012">
        <ele>2101.361</ele>
        <time>2018-07-01T13:36:17Z</time>
      </trkpt>
      <trkpt lat="44.15978" lon="7.67007">
        <ele>2100.872</ele>
        <time>2018-07-01T13:36:18Z</time>
      </trkpt>
      <trkpt lat="44.15983" lon="7.67001">
        <ele>2100.681</ele>
        <time>2018-07-01T13:36:19Z</time>
      </trkpt>
      <trkpt lat="44.15988" lon="7.66993">
        <ele>2100.861</ele>
        <time>2018-07-01T13:36:20Z</time>
      </trkpt>
      <trkpt lat="44.15993" lon="7.66987">
        <ele>2100.717</ele>
        <time>2018-07-01T13:36:21Z</time>
      </trkpt>
      <trkpt lat="44.15998" lon="7.66981">
        <ele>2100.608</ele>
        <time>2018-07-01T13:36:22Z</time>
      </trkpt>
      <trkpt lat="44.16003" lon="7.66977">
        <ele>2100.78</ele>
        <time>2018-07-01T13:36:23Z</time>
      </trkpt>
      <trkpt lat="44.16007" lon="7.66974">
        <ele>2100.334</ele>
        <time>2018-07-01T13:36:24Z</time>
      </trkpt>
      <trkpt lat="44.16016" lon="7.66972">
        <ele>2099.66</ele>
        <time>2018-07-01T13:36:26Z</time>
      </trkpt>
      <trkpt lat="44.16022" lon="7.66975">
        <ele>2098.413</ele>
        <time>2018-07-01T13:36:27Z</time>
      </trkpt>
      <trkpt lat="44.16028" lon="7.66978">
        <ele>2098.025</ele>
        <time>2018-07-01T13:36:28Z</time>
      </trkpt>
      <trkpt lat="44.16034" lon="7.66983">
        <ele>2097.338</ele>
        <time>2018-07-01T13:36:29Z</time>
      </trkpt>
      <trkpt lat="44.16041" lon="7.66987">
        <ele>2097.293</ele>
        <time>2018-07-01T13:36:30Z</time>
      </trkpt>
      <trkpt lat="44.16047" lon="7.6699">
        <ele>2096.854</ele>
        <time>2018-07-01T13:36:31Z</time>
      </trkpt>
      <trkpt lat="44.16053" lon="7.66994">
        <ele>2095.862</ele>
        <time>2018-07-01T13:36:32Z</time>
      </trkpt>
      <trkpt lat="44.16059" lon="7.66996">
        <ele>2094.883</ele>
        <time>2018-07-01T13:36:33Z</time>
      </trkpt>
      <trkpt lat="44.16066" lon="7.66998">
        <ele>2094.511</ele>
        <time>2018-07-01T13:36:34Z</time>
      </trkpt>
      <trkpt lat="44.16072" lon="7.66999">
        <ele>2093.908</ele>
        <time>2018-07-01T13:36:35Z</time>
      </trkpt>
      <trkpt lat="44.16078" lon="7.67">
        <ele>2093.828</ele>
        <time>2018-07-01T13:36:36Z</time>
      </trkpt>
      <trkpt lat="44.16083" lon="7.67001">
        <ele>2092.952</ele>
        <time>2018-07-01T13:36:37Z</time>
      </trkpt>
      <trkpt lat="44.16088" lon="7.67001">
        <ele>2092.148</ele>
        <time>2018-07-01T13:36:38Z</time>
      </trkpt>
      <trkpt lat="44.16094" lon="7.67001">
        <ele>2092.061</ele>
        <time>2018-07-01T13:36:39Z</time>
      </trkpt>
      <trkpt lat="44.16102" lon="7.66996">
        <ele>2091.543</ele>
        <time>2018-07-01T13:36:41Z</time>
      </trkpt>
      <trkpt lat="44.16106" lon="7.66991">
        <ele>2091.786</ele>
        <time>2018-07-01T13:36:42Z</time>
      </trkpt>
      <trkpt lat="44.1611" lon="7.66982">
        <ele>2092.111</ele>
        <time>2018-07-01T13:36:43Z</time>
      </trkpt>
      <trkpt lat="44.16113" lon="7.66975">
        <ele>2091.822</ele>
        <time>2018-07-01T13:36:44Z</time>
      </trkpt>
      <trkpt lat="44.16116" lon="7.66967">
        <ele>2091.675</ele>
        <time>2018-07-01T13:36:45Z</time>
      </trkpt>
      <trkpt lat="44.1612" lon="7.66961">
        <ele>2091.228</ele>
        <time>2018-07-01T13:36:46Z</time>
      </trkpt>
      <trkpt lat="44.16124" lon="7.66956">
        <ele>2091.22</ele>
        <time>2018-07-01T13:36:47Z</time>
      </trkpt>
      <trkpt lat="44.16129" lon="7.66953">
        <ele>2091.308</ele>
        <time>2018-07-01T13:36:48Z</time>
      </trkpt>
      <trkpt lat="44.16133" lon="7.6695">
        <ele>2091.249</ele>
        <time>2018-07-01T13:36:49Z</time>
      </trkpt>
      <trkpt lat="44.1614" lon="7.66949">
        <ele>2090.963</ele>
        <time>2018-07-01T13:36:50Z</time>
      </trkpt>
      <trkpt lat="44.16147" lon="7.66952">
        <ele>2089.929</ele>
        <time>2018-07-01T13:36:51Z</time>
      </trkpt>
      <trkpt lat="44.16154" lon="7.66954">
        <ele>2088.992</ele>
        <time>2018-07-01T13:36:52Z</time>
      </trkpt>
      <trkpt lat="44.16162" lon="7.66954">
        <ele>2088.654</ele>
        <time>2018-07-01T13:36:53Z</time>
      </trkpt>
      <trkpt lat="44.16169" lon="7.66953">
        <ele>2089.057</ele>
        <time>2018-07-01T13:36:54Z</time>
      </trkpt>
      <trkpt lat="44.16177" lon="7.66952">
        <ele>2089.022</ele>
        <time>2018-07-01T13:36:55Z</time>
      </trkpt>
      <trkpt lat="44.16186" lon="7.66951">
        <ele>2087.953</ele>
        <time>2018-07-01T13:36:56Z</time>
      </trkpt>
      <trkpt lat="44.16194" lon="7.66953">
        <ele>2088.019</ele>
        <time>2018-07-01T13:36:57Z</time>
      </trkpt>
      <trkpt lat="44.16203" lon="7.66958">
        <ele>2087.409</ele>
        <time>2018-07-01T13:36:58Z</time>
      </trkpt>
      <trkpt lat="44.16213" lon="7.66961">
        <ele>2087.419</ele>
        <time>2018-07-01T13:36:59Z</time>
      </trkpt>
      <trkpt lat="44.16222" lon="7.66968">
        <ele>2086.708</ele>
        <time>2018-07-01T13:37:00Z</time>
      </trkpt>
      <trkpt lat="44.16231" lon="7.6697">
        <ele>2086.783</ele>
        <time>2018-07-01T13:37:01Z</time>
      </trkpt>
      <trkpt lat="44.16241" lon="7.66972">
        <ele>2086.027</ele>
        <time>2018-07-01T13:37:02Z</time>
      </trkpt>
      <trkpt lat="44.1625" lon="7.66974">
        <ele>2084.753</ele>
        <time>2018-07-01T13:37:03Z</time>
      </trkpt>
      <trkpt lat="44.16259" lon="7.66976">
        <ele>2084.576</ele>
        <time>2018-07-01T13:37:04Z</time>
      </trkpt>
      <trkpt lat="44.16266" lon="7.66974">
        <ele>2085.148</ele>
        <time>2018-07-01T13:37:05Z</time>
      </trkpt>
      <trkpt lat="44.16273" lon="7.66969">
        <ele>2085.021</ele>
        <time>2018-07-01T13:37:06Z</time>
      </trkpt>
      <trkpt lat="44.1628" lon="7.66964">
        <ele>2085.076</ele>
        <time>2018-07-01T13:37:07Z</time>
      </trkpt>
      <trkpt lat="44.16286" lon="7.66958">
        <ele>2084.247</ele>
        <time>2018-07-01T13:37:08Z</time>
      </trkpt>
      <trkpt lat="44.16291" lon="7.66953">
        <ele>2083.792</ele>
        <time>2018-07-01T13:37:09Z</time>
      </trkpt>
      <trkpt lat="44.16296" lon="7.66949">
        <ele>2084.073</ele>
        <time>2018-07-01T13:37:10Z</time>
      </trkpt>
      <trkpt lat="44.16302" lon="7.66947">
        <ele>2083.92</ele>
        <time>2018-07-01T13:37:11Z</time>
      </trkpt>
      <trkpt lat="44.16309" lon="7.66947">
        <ele>2084.208</ele>
        <time>2018-07-01T13:37:12Z</time>
      </trkpt>
      <trkpt lat="44.16316" lon="7.66949">
        <ele>2083.991</ele>
        <time>2018-07-01T13:37:13Z</time>
      </trkpt>
      <trkpt lat="44.16325" lon="7.66951">
        <ele>2083.835</ele>
        <time>2018-07-01T13:37:14Z</time>
      </trkpt>
      <trkpt lat="44.16335" lon="7.66954">
        <ele>2084.361</ele>
        <time>2018-07-01T13:37:15Z</time>
      </trkpt>
      <trkpt lat="44.16341" lon="7.66959">
        <ele>2083.114</ele>
        <time>2018-07-01T13:37:16Z</time>
      </trkpt>
      <trkpt lat="44.16345" lon="7.66964">
        <ele>2082.596</ele>
        <time>2018-07-01T13:37:17Z</time>
      </trkpt>
      <trkpt lat="44.16352" lon="7.66966">
        <ele>2082.579</ele>
        <time>2018-07-01T13:37:18Z</time>
      </trkpt>
      <trkpt lat="44.16359" lon="7.66969">
        <ele>2082.034</ele>
        <time>2018-07-01T13:37:19Z</time>
      </trkpt>
      <trkpt lat="44.16366" lon="7.66972">
        <ele>2081.715</ele>
        <time>2018-07-01T13:37:20Z</time>
      </trkpt>
      <trkpt lat="44.16372" lon="7.66974">
        <ele>2080.462</ele>
        <time>2018-07-01T13:37:21Z</time>
      </trkpt>
      <trkpt lat="44.16378" lon="7.66973">
        <ele>2080.083</ele>
        <time>2018-07-01T13:37:22Z</time>
      </trkpt>
      <trkpt lat="44.16383" lon="7.66972">
        <ele>2079.011</ele>
        <time>2018-07-01T13:37:23Z</time>
      </trkpt>
      <trkpt lat="44.1639" lon="7.66966">
        <ele>2078.908</ele>
        <time>2018-07-01T13:37:24Z</time>
      </trkpt>
      <trkpt lat="44.16396" lon="7.66959">
        <ele>2078.568</ele>
        <time>2018-07-01T13:37:25Z</time>
      </trkpt>
      <trkpt lat="44.16402" lon="7.66955">
        <ele>2077.632</ele>
        <time>2018-07-01T13:37:26Z</time>
      </trkpt>
      <trkpt lat="44.16407" lon="7.66952">
        <ele>2077.788</ele>
        <time>2018-07-01T13:37:27Z</time>
      </trkpt>
      <trkpt lat="44.16413" lon="7.66953">
        <ele>2077.911</ele>
        <time>2018-07-01T13:37:28Z</time>
      </trkpt>
      <trkpt lat="44.16418" lon="7.66953">
        <ele>2077.623</ele>
        <time>2018-07-01T13:37:29Z</time>
      </trkpt>
      <trkpt lat="44.16424" lon="7.66952">
        <ele>2077.866</ele>
        <time>2018-07-01T13:37:30Z</time>
      </trkpt>
      <trkpt lat="44.1643" lon="7.66948">
        <ele>2078.791</ele>
        <time>2018-07-01T13:37:31Z</time>
      </trkpt>
      <trkpt lat="44.16438" lon="7.66939">
        <ele>2078.772</ele>
        <time>2018-07-01T13:37:32Z</time>
      </trkpt>
      <trkpt lat="44.16445" lon="7.66932">
        <ele>2078.525</ele>
        <time>2018-07-01T13:37:33Z</time>
      </trkpt>
      <trkpt lat="44.1645" lon="7.66925">
        <ele>2078.126</ele>
        <time>2018-07-01T13:37:34Z</time>
      </trkpt>
      <trkpt lat="44.16455" lon="7.66919">
        <ele>2077.808</ele>
        <time>2018-07-01T13:37:35Z</time>
      </trkpt>
      <trkpt lat="44.1646" lon="7.66914">
        <ele>2077.908</ele>
        <time>2018-07-01T13:37:36Z</time>
      </trkpt>
      <trkpt lat="44.16465" lon="7.6691">
        <ele>2078.054</ele>
        <time>2018-07-01T13:37:37Z</time>
      </trkpt>
      <trkpt lat="44.16471" lon="7.66909">
        <ele>2077.578</ele>
        <time>2018-07-01T13:37:38Z</time>
      </trkpt>
      <trkpt lat="44.16476" lon="7.66909">
        <ele>2078.114</ele>
        <time>2018-07-01T13:37:39Z</time>
      </trkpt>
      <trkpt lat="44.16482" lon="7.66909">
        <ele>2077.937</ele>
        <time>2018-07-01T13:37:40Z</time>
      </trkpt>
      <trkpt lat="44.16487" lon="7.66907">
        <ele>2078.119</ele>
        <time>2018-07-01T13:37:41Z</time>
      </trkpt>
      <trkpt lat="44.16489" lon="7.66901">
        <ele>2076.822</ele>
        <time>2018-07-01T13:37:42Z</time>
      </trkpt>
      <trkpt lat="44.16487" lon="7.66891">
        <ele>2074.937</ele>
        <time>2018-07-01T13:37:44Z</time>
      </trkpt>
      <trkpt lat="44.16484" lon="7.66886">
        <ele>2076.328</ele>
        <time>2018-07-01T13:37:45Z</time>
      </trkpt>
      <trkpt lat="44.16481" lon="7.6688">
        <ele>2076.476</ele>
        <time>2018-07-01T13:37:46Z</time>
      </trkpt>
      <trkpt lat="44.16479" lon="7.66873">
        <ele>2075.89</ele>
        <time>2018-07-01T13:37:47Z</time>
      </trkpt>
      <trkpt lat="44.16482" lon="7.66867">
        <ele>2075.619</ele>
        <time>2018-07-01T13:37:48Z</time>
      </trkpt>
      <trkpt lat="44.16487" lon="7.66864">
        <ele>2075.508</ele>
        <time>2018-07-01T13:37:49Z</time>
      </trkpt>
      <trkpt lat="44.16492" lon="7.6686">
        <ele>2075.669</ele>
        <time>2018-07-01T13:37:50Z</time>
      </trkpt>
      <trkpt lat="44.16496" lon="7.66857">
        <ele>2076.823</ele>
        <time>2018-07-01T13:37:51Z</time>
      </trkpt>
      <trkpt lat="44.16505" lon="7.66856">
        <ele>2076.639</ele>
        <time>2018-07-01T13:37:52Z</time>
      </trkpt>
      <trkpt lat="44.16512" lon="7.6686">
        <ele>2076.512</ele>
        <time>2018-07-01T13:37:53Z</time>
      </trkpt>
      <trkpt lat="44.1652" lon="7.66865">
        <ele>2076.414</ele>
        <time>2018-07-01T13:37:54Z</time>
      </trkpt>
      <trkpt lat="44.16527" lon="7.6687">
        <ele>2077.597</ele>
        <time>2018-07-01T13:37:55Z</time>
      </trkpt>
      <trkpt lat="44.16534" lon="7.66871">
        <ele>2077.542</ele>
        <time>2018-07-01T13:37:56Z</time>
      </trkpt>
      <trkpt lat="44.16539" lon="7.6687">
        <ele>2077.023</ele>
        <time>2018-07-01T13:37:57Z</time>
      </trkpt>
      <trkpt lat="44.16544" lon="7.66867">
        <ele>2077.425</ele>
        <time>2018-07-01T13:37:58Z</time>
      </trkpt>
      <trkpt lat="44.16551" lon="7.66864">
        <ele>2077.226</ele>
        <time>2018-07-01T13:37:59Z</time>
      </trkpt>
      <trkpt lat="44.16557" lon="7.66858">
        <ele>2077.008</ele>
        <time>2018-07-01T13:38:00Z</time>
      </trkpt>
      <trkpt lat="44.16564" lon="7.66856">
        <ele>2077.208</ele>
        <time>2018-07-01T13:38:01Z</time>
      </trkpt>
      <trkpt lat="44.1657" lon="7.66856">
        <ele>2077.754</ele>
        <time>2018-07-01T13:38:02Z</time>
      </trkpt>
      <trkpt lat="44.16578" lon="7.66857">
        <ele>2077.888</ele>
        <time>2018-07-01T13:38:03Z</time>
      </trkpt>
      <trkpt lat="44.16583" lon="7.66854">
        <ele>2077.244</ele>
        <time>2018-07-01T13:38:04Z</time>
      </trkpt>
      <trkpt lat="44.16588" lon="7.66851">
        <ele>2077.217</ele>
        <time>2018-07-01T13:38:05Z</time>
      </trkpt>
      <trkpt lat="44.16593" lon="7.66845">
        <ele>2076.819</ele>
        <time>2018-07-01T13:38:06Z</time>
      </trkpt>
      <trkpt lat="44.16597" lon="7.66841">
        <ele>2075.892</ele>
        <time>2018-07-01T13:38:07Z</time>
      </trkpt>
      <trkpt lat="44.16602" lon="7.66837">
        <ele>2076.217</ele>
        <time>2018-07-01T13:38:08Z</time>
      </trkpt>
      <trkpt lat="44.16607" lon="7.66834">
        <ele>2076.148</ele>
        <time>2018-07-01T13:38:09Z</time>
      </trkpt>
      <trkpt lat="44.16616" lon="7.66835">
        <ele>2076.143</ele>
        <time>2018-07-01T13:38:10Z</time>
      </trkpt>
      <trkpt lat="44.16622" lon="7.66832">
        <ele>2075.964</ele>
        <time>2018-07-01T13:38:11Z</time>
      </trkpt>
      <trkpt lat="44.16629" lon="7.6683">
        <ele>2077.11</ele>
        <time>2018-07-01T13:38:12Z</time>
      </trkpt>
      <trkpt lat="44.16637" lon="7.66832">
        <ele>2077.208</ele>
        <time>2018-07-01T13:38:13Z</time>
      </trkpt>
      <trkpt lat="44.16643" lon="7.66835">
        <ele>2077.756</ele>
        <time>2018-07-01T13:38:14Z</time>
      </trkpt>
      <trkpt lat="44.16649" lon="7.66839">
        <ele>2078.13</ele>
        <time>2018-07-01T13:38:15Z</time>
      </trkpt>
      <trkpt lat="44.16656" lon="7.66843">
        <ele>2078.156</ele>
        <time>2018-07-01T13:38:16Z</time>
      </trkpt>
      <trkpt lat="44.16667" lon="7.66839">
        <ele>2078.699</ele>
        <time>2018-07-01T13:38:18Z</time>
      </trkpt>
      <trkpt lat="44.16672" lon="7.66837">
        <ele>2078.221</ele>
        <time>2018-07-01T13:38:19Z</time>
      </trkpt>
      <trkpt lat="44.16677" lon="7.66831">
        <ele>2078.574</ele>
        <time>2018-07-01T13:38:20Z</time>
      </trkpt>
      <trkpt lat="44.16678" lon="7.66825">
        <ele>2078.069</ele>
        <time>2018-07-01T13:38:21Z</time>
      </trkpt>
      <trkpt lat="44.16681" lon="7.66817">
        <ele>2078.03</ele>
        <time>2018-07-01T13:38:22Z</time>
      </trkpt>
      <trkpt lat="44.1668" lon="7.66808">
        <ele>2078.055</ele>
        <time>2018-07-01T13:38:23Z</time>
      </trkpt>
      <trkpt lat="44.16678" lon="7.66798">
        <ele>2076.107</ele>
        <time>2018-07-01T13:38:24Z</time>
      </trkpt>
      <trkpt lat="44.16678" lon="7.66791">
        <ele>2075.117</ele>
        <time>2018-07-01T13:38:25Z</time>
      </trkpt>
      <trkpt lat="44.16681" lon="7.66786">
        <ele>2077.008</ele>
        <time>2018-07-01T13:38:26Z</time>
      </trkpt>
      <trkpt lat="44.16685" lon="7.66782">
        <ele>2077.257</ele>
        <time>2018-07-01T13:38:27Z</time>
      </trkpt>
      <trkpt lat="44.1669" lon="7.6678">
        <ele>2075.581</ele>
        <time>2018-07-01T13:38:28Z</time>
      </trkpt>
      <trkpt lat="44.167" lon="7.66782">
        <ele>2076.227</ele>
        <time>2018-07-01T13:38:29Z</time>
      </trkpt>
      <trkpt lat="44.16709" lon="7.66782">
        <ele>2076.91</ele>
        <time>2018-07-01T13:38:30Z</time>
      </trkpt>
      <trkpt lat="44.16716" lon="7.6678">
        <ele>2076.932</ele>
        <time>2018-07-01T13:38:31Z</time>
      </trkpt>
      <trkpt lat="44.16722" lon="7.66777">
        <ele>2077.485</ele>
        <time>2018-07-01T13:38:32Z</time>
      </trkpt>
      <trkpt lat="44.16728" lon="7.66777">
        <ele>2077.76</ele>
        <time>2018-07-01T13:38:33Z</time>
      </trkpt>
      <trkpt lat="44.16735" lon="7.66777">
        <ele>2078.081</ele>
        <time>2018-07-01T13:38:34Z</time>
      </trkpt>
      <trkpt lat="44.16741" lon="7.6678">
        <ele>2079.958</ele>
        <time>2018-07-01T13:38:35Z</time>
      </trkpt>
      <trkpt lat="44.16747" lon="7.66784">
        <ele>2081.552</ele>
        <time>2018-07-01T13:38:36Z</time>
      </trkpt>
      <trkpt lat="44.16756" lon="7.66783">
        <ele>2081.617</ele>
        <time>2018-07-01T13:38:37Z</time>
      </trkpt>
      <trkpt lat="44.16765" lon="7.66782">
        <ele>2080.508</ele>
        <time>2018-07-01T13:38:38Z</time>
      </trkpt>
      <trkpt lat="44.16775" lon="7.66782">
        <ele>2080.017</ele>
        <time>2018-07-01T13:38:39Z</time>
      </trkpt>
      <trkpt lat="44.16783" lon="7.66779">
        <ele>2079.641</ele>
        <time>2018-07-01T13:38:40Z</time>
      </trkpt>
      <trkpt lat="44.16788" lon="7.6678">
        <ele>2080.177</ele>
        <time>2018-07-01T13:38:41Z</time>
      </trkpt>
      <trkpt lat="44.16795" lon="7.66781">
        <ele>2079.98</ele>
        <time>2018-07-01T13:38:42Z</time>
      </trkpt>
      <trkpt lat="44.16801" lon="7.66778">
        <ele>2081.982</ele>
        <time>2018-07-01T13:38:43Z</time>
      </trkpt>
      <trkpt lat="44.16806" lon="7.66775">
        <ele>2081.945</ele>
        <time>2018-07-01T13:38:44Z</time>
      </trkpt>
      <trkpt lat="44.16811" lon="7.66773">
        <ele>2081.98</ele>
        <time>2018-07-01T13:38:45Z</time>
      </trkpt>
      <trkpt lat="44.16816" lon="7.6677">
        <ele>2082.381</ele>
        <time>2018-07-01T13:38:46Z</time>
      </trkpt>
      <trkpt lat="44.1682" lon="7.66765">
        <ele>2082.244</ele>
        <time>2018-07-01T13:38:47Z</time>
      </trkpt>
      <trkpt lat="44.16825" lon="7.66755">
        <ele>2080.305</ele>
        <time>2018-07-01T13:38:49Z</time>
      </trkpt>
      <trkpt lat="44.16827" lon="7.66748">
        <ele>2080.915</ele>
        <time>2018-07-01T13:38:50Z</time>
      </trkpt>
      <trkpt lat="44.16833" lon="7.66743">
        <ele>2079.608</ele>
        <time>2018-07-01T13:38:52Z</time>
      </trkpt>
      <trkpt lat="44.16838" lon="7.66741">
        <ele>2079.696</ele>
        <time>2018-07-01T13:38:53Z</time>
      </trkpt>
      <trkpt lat="44.16843" lon="7.6674">
        <ele>2079.95</ele>
        <time>2018-07-01T13:38:54Z</time>
      </trkpt>
      <trkpt lat="44.16848" lon="7.66739">
        <ele>2080.786</ele>
        <time>2018-07-01T13:38:55Z</time>
      </trkpt>
      <trkpt lat="44.16853" lon="7.6674">
        <ele>2080.799</ele>
        <time>2018-07-01T13:38:56Z</time>
      </trkpt>
      <trkpt lat="44.16857" lon="7.66747">
        <ele>2081.141</ele>
        <time>2018-07-01T13:38:57Z</time>
      </trkpt>
      <trkpt lat="44.1686" lon="7.66752">
        <ele>2081.394</ele>
        <time>2018-07-01T13:38:58Z</time>
      </trkpt>
      <trkpt lat="44.16865" lon="7.66756">
        <ele>2080.989</ele>
        <time>2018-07-01T13:38:59Z</time>
      </trkpt>
      <trkpt lat="44.16872" lon="7.66758">
        <ele>2082.81</ele>
        <time>2018-07-01T13:39:01Z</time>
      </trkpt>
      <trkpt lat="44.16881" lon="7.66752">
        <ele>2085.748</ele>
        <time>2018-07-01T13:39:03Z</time>
      </trkpt>
      <trkpt lat="44.16887" lon="7.66748">
        <ele>2085.961</ele>
        <time>2018-07-01T13:39:04Z</time>
      </trkpt>
      <trkpt lat="44.16893" lon="7.66743">
        <ele>2085.317</ele>
        <time>2018-07-01T13:39:05Z</time>
      </trkpt>
      <trkpt lat="44.16898" lon="7.66738">
        <ele>2085.408</ele>
        <time>2018-07-01T13:39:06Z</time>
      </trkpt>
      <trkpt lat="44.16902" lon="7.66735">
        <ele>2085.736</ele>
        <time>2018-07-01T13:39:07Z</time>
      </trkpt>
      <trkpt lat="44.16908" lon="7.66732">
        <ele>2086.35</ele>
        <time>2018-07-01T13:39:08Z</time>
      </trkpt>
      <trkpt lat="44.16913" lon="7.66729">
        <ele>2086.696</ele>
        <time>2018-07-01T13:39:09Z</time>
      </trkpt>
      <trkpt lat="44.16918" lon="7.66729">
        <ele>2087.479</ele>
        <time>2018-07-01T13:39:10Z</time>
      </trkpt>
      <trkpt lat="44.16924" lon="7.66728">
        <ele>2087.391</ele>
        <time>2018-07-01T13:39:11Z</time>
      </trkpt>
      <trkpt lat="44.16928" lon="7.66722">
        <ele>2089.124</ele>
        <time>2018-07-01T13:39:12Z</time>
      </trkpt>
      <trkpt lat="44.16933" lon="7.66712">
        <ele>2089.189</ele>
        <time>2018-07-01T13:39:13Z</time>
      </trkpt>
      <trkpt lat="44.16937" lon="7.66702">
        <ele>2090.02</ele>
        <time>2018-07-01T13:39:14Z</time>
      </trkpt>
      <trkpt lat="44.16941" lon="7.66694">
        <ele>2090.161</ele>
        <time>2018-07-01T13:39:15Z</time>
      </trkpt>
      <trkpt lat="44.16945" lon="7.66687">
        <ele>2090.321</ele>
        <time>2018-07-01T13:39:16Z</time>
      </trkpt>
      <trkpt lat="44.16951" lon="7.66682">
        <ele>2091.713</ele>
        <time>2018-07-01T13:39:17Z</time>
      </trkpt>
      <trkpt lat="44.16956" lon="7.66676">
        <ele>2091.508</ele>
        <time>2018-07-01T13:39:18Z</time>
      </trkpt>
      <trkpt lat="44.16962" lon="7.66669">
        <ele>2092.298</ele>
        <time>2018-07-01T13:39:19Z</time>
      </trkpt>
      <trkpt lat="44.16967" lon="7.66663">
        <ele>2091.952</ele>
        <time>2018-07-01T13:39:20Z</time>
      </trkpt>
      <trkpt lat="44.16972" lon="7.66658">
        <ele>2093.458</ele>
        <time>2018-07-01T13:39:21Z</time>
      </trkpt>
      <trkpt lat="44.16978" lon="7.66652">
        <ele>2094.961</ele>
        <time>2018-07-01T13:39:22Z</time>
      </trkpt>
      <trkpt lat="44.16985" lon="7.66647">
        <ele>2095.193</ele>
        <time>2018-07-01T13:39:23Z</time>
      </trkpt>
      <trkpt lat="44.16993" lon="7.66644">
        <ele>2095.916</ele>
        <time>2018-07-01T13:39:24Z</time>
      </trkpt>
      <trkpt lat="44.16999" lon="7.6664">
        <ele>2096.581</ele>
        <time>2018-07-01T13:39:25Z</time>
      </trkpt>
      <trkpt lat="44.17005" lon="7.66637">
        <ele>2096.742</ele>
        <time>2018-07-01T13:39:26Z</time>
      </trkpt>
      <trkpt lat="44.1701" lon="7.66634">
        <ele>2097.223</ele>
        <time>2018-07-01T13:39:27Z</time>
      </trkpt>
      <trkpt lat="44.17015" lon="7.66631">
        <ele>2098.383</ele>
        <time>2018-07-01T13:39:28Z</time>
      </trkpt>
      <trkpt lat="44.17018" lon="7.66624">
        <ele>2097.311</ele>
        <time>2018-07-01T13:39:29Z</time>
      </trkpt>
      <trkpt lat="44.1702" lon="7.66616">
        <ele>2099.308</ele>
        <time>2018-07-01T13:39:30Z</time>
      </trkpt>
      <trkpt lat="44.17022" lon="7.66609">
        <ele>2100.244</ele>
        <time>2018-07-01T13:39:31Z</time>
      </trkpt>
      <trkpt lat="44.17024" lon="7.66602">
        <ele>2100.168</ele>
        <time>2018-07-01T13:39:32Z</time>
      </trkpt>
      <trkpt lat="44.17025" lon="7.66595">
        <ele>2101.124</ele>
        <time>2018-07-01T13:39:33Z</time>
      </trkpt>
      <trkpt lat="44.17023" lon="7.66584">
        <ele>2101.027</ele>
        <time>2018-07-01T13:39:34Z</time>
      </trkpt>
      <trkpt lat="44.17018" lon="7.66575">
        <ele>2101.119</ele>
        <time>2018-07-01T13:39:35Z</time>
      </trkpt>
      <trkpt lat="44.17014" lon="7.66567">
        <ele>2101.692</ele>
        <time>2018-07-01T13:39:36Z</time>
      </trkpt>
      <trkpt lat="44.17011" lon="7.66558">
        <ele>2102.087</ele>
        <time>2018-07-01T13:39:37Z</time>
      </trkpt>
      <trkpt lat="44.17005" lon="7.66549">
        <ele>2102.538</ele>
        <time>2018-07-01T13:39:38Z</time>
      </trkpt>
      <trkpt lat="44.17" lon="7.66541">
        <ele>2102.159</ele>
        <time>2018-07-01T13:39:39Z</time>
      </trkpt>
      <trkpt lat="44.16997" lon="7.66532">
        <ele>2101.703</ele>
        <time>2018-07-01T13:39:40Z</time>
      </trkpt>
      <trkpt lat="44.16995" lon="7.66525">
        <ele>2101.623</ele>
        <time>2018-07-01T13:39:41Z</time>
      </trkpt>
      <trkpt lat="44.16993" lon="7.66515">
        <ele>2102.708</ele>
        <time>2018-07-01T13:39:42Z</time>
      </trkpt>
      <trkpt lat="44.16996" lon="7.66509">
        <ele>2103.447</ele>
        <time>2018-07-01T13:39:43Z</time>
      </trkpt>
      <trkpt lat="44.16996" lon="7.665">
        <ele>2104.821</ele>
        <time>2018-07-01T13:39:44Z</time>
      </trkpt>
      <trkpt lat="44.17" lon="7.66494">
        <ele>2105.947</ele>
        <time>2018-07-01T13:39:45Z</time>
      </trkpt>
      <trkpt lat="44.17004" lon="7.66491">
        <ele>2107.65</ele>
        <time>2018-07-01T13:39:46Z</time>
      </trkpt>
      <trkpt lat="44.17011" lon="7.66487">
        <ele>2108.792</ele>
        <time>2018-07-01T13:39:47Z</time>
      </trkpt>
      <trkpt lat="44.17017" lon="7.66483">
        <ele>2108.955</ele>
        <time>2018-07-01T13:39:48Z</time>
      </trkpt>
      <trkpt lat="44.17024" lon="7.6648">
        <ele>2109.57</ele>
        <time>2018-07-01T13:39:49Z</time>
      </trkpt>
      <trkpt lat="44.17029" lon="7.66484">
        <ele>2109.461</ele>
        <time>2018-07-01T13:39:50Z</time>
      </trkpt>
      <trkpt lat="44.17034" lon="7.66483">
        <ele>2109.824</ele>
        <time>2018-07-01T13:39:51Z</time>
      </trkpt>
      <trkpt lat="44.17038" lon="7.66482">
        <ele>2109.504</ele>
        <time>2018-07-01T13:39:53Z</time>
      </trkpt>
      <trkpt lat="44.17039" lon="7.66473">
        <ele>2109.414</ele>
        <time>2018-07-01T13:39:54Z</time>
      </trkpt>
      <trkpt lat="44.17043" lon="7.66469">
        <ele>2108.308</ele>
        <time>2018-07-01T13:39:55Z</time>
      </trkpt>
      <trkpt lat="44.17049" lon="7.66462">
        <ele>2107.334</ele>
        <time>2018-07-01T13:39:56Z</time>
      </trkpt>
      <trkpt lat="44.17055" lon="7.66456">
        <ele>2107.958</ele>
        <time>2018-07-01T13:39:57Z</time>
      </trkpt>
      <trkpt lat="44.1706" lon="7.66446">
        <ele>2108.314</ele>
        <time>2018-07-01T13:39:58Z</time>
      </trkpt>
      <trkpt lat="44.17067" lon="7.66438">
        <ele>2107.817</ele>
        <time>2018-07-01T13:39:59Z</time>
      </trkpt>
      <trkpt lat="44.17072" lon="7.66429">
        <ele>2108.269</ele>
        <time>2018-07-01T13:40:00Z</time>
      </trkpt>
      <trkpt lat="44.17077" lon="7.66418">
        <ele>2108.832</ele>
        <time>2018-07-01T13:40:01Z</time>
      </trkpt>
      <trkpt lat="44.17082" lon="7.66406">
        <ele>2109.067</ele>
        <time>2018-07-01T13:40:02Z</time>
      </trkpt>
      <trkpt lat="44.17086" lon="7.66396">
        <ele>2107.698</ele>
        <time>2018-07-01T13:40:03Z</time>
      </trkpt>
      <trkpt lat="44.17089" lon="7.66386">
        <ele>2107.288</ele>
        <time>2018-07-01T13:40:04Z</time>
      </trkpt>
      <trkpt lat="44.17092" lon="7.66377">
        <ele>2107.924</ele>
        <time>2018-07-01T13:40:05Z</time>
      </trkpt>
      <trkpt lat="44.17094" lon="7.66368">
        <ele>2107.726</ele>
        <time>2018-07-01T13:40:06Z</time>
      </trkpt>
      <trkpt lat="44.17093" lon="7.66358">
        <ele>2107.408</ele>
        <time>2018-07-01T13:40:07Z</time>
      </trkpt>
      <trkpt lat="44.17093" lon="7.6635">
        <ele>2107.26</ele>
        <time>2018-07-01T13:40:08Z</time>
      </trkpt>
      <trkpt lat="44.17093" lon="7.66341">
        <ele>2107.114</ele>
        <time>2018-07-01T13:40:09Z</time>
      </trkpt>
      <trkpt lat="44.17093" lon="7.66332">
        <ele>2107.87</ele>
        <time>2018-07-01T13:40:10Z</time>
      </trkpt>
      <trkpt lat="44.17096" lon="7.66323">
        <ele>2108.133</ele>
        <time>2018-07-01T13:40:11Z</time>
      </trkpt>
      <trkpt lat="44.17098" lon="7.66315">
        <ele>2108.455</ele>
        <time>2018-07-01T13:40:12Z</time>
      </trkpt>
      <trkpt lat="44.17098" lon="7.66301">
        <ele>2109.868</ele>
        <time>2018-07-01T13:40:14Z</time>
      </trkpt>
      <trkpt lat="44.17097" lon="7.66294">
        <ele>2110.053</ele>
        <time>2018-07-01T13:40:15Z</time>
      </trkpt>
      <trkpt lat="44.17092" lon="7.66286">
        <ele>2109.544</ele>
        <time>2018-07-01T13:40:16Z</time>
      </trkpt>
      <trkpt lat="44.17083" lon="7.66281">
        <ele>2111.517</ele>
        <time>2018-07-01T13:40:17Z</time>
      </trkpt>
      <trkpt lat="44.17076" lon="7.66277">
        <ele>2111.087</ele>
        <time>2018-07-01T13:40:18Z</time>
      </trkpt>
      <trkpt lat="44.1707" lon="7.66272">
        <ele>2111.315</ele>
        <time>2018-07-01T13:40:19Z</time>
      </trkpt>
      <trkpt lat="44.17061" lon="7.66268">
        <ele>2111.808</ele>
        <time>2018-07-01T13:40:20Z</time>
      </trkpt>
      <trkpt lat="44.17052" lon="7.66261">
        <ele>2112.613</ele>
        <time>2018-07-01T13:40:21Z</time>
      </trkpt>
      <trkpt lat="44.17044" lon="7.66254">
        <ele>2114.547</ele>
        <time>2018-07-01T13:40:22Z</time>
      </trkpt>
      <trkpt lat="44.17036" lon="7.66246">
        <ele>2115.013</ele>
        <time>2018-07-01T13:40:23Z</time>
      </trkpt>
      <trkpt lat="44.1703" lon="7.66237">
        <ele>2115.026</ele>
        <time>2018-07-01T13:40:24Z</time>
      </trkpt>
      <trkpt lat="44.17023" lon="7.66232">
        <ele>2114.288</ele>
        <time>2018-07-01T13:40:25Z</time>
      </trkpt>
      <trkpt lat="44.17017" lon="7.66228">
        <ele>2113.831</ele>
        <time>2018-07-01T13:40:26Z</time>
      </trkpt>
      <trkpt lat="44.17011" lon="7.66225">
        <ele>2112.876</ele>
        <time>2018-07-01T13:40:27Z</time>
      </trkpt>
      <trkpt lat="44.17003" lon="7.66223">
        <ele>2113.367</ele>
        <time>2018-07-01T13:40:28Z</time>
      </trkpt>
      <trkpt lat="44.16997" lon="7.6622">
        <ele>2114.394</ele>
        <time>2018-07-01T13:40:29Z</time>
      </trkpt>
      <trkpt lat="44.16992" lon="7.66214">
        <ele>2114.057</ele>
        <time>2018-07-01T13:40:30Z</time>
      </trkpt>
      <trkpt lat="44.16988" lon="7.66208">
        <ele>2114.622</ele>
        <time>2018-07-01T13:40:31Z</time>
      </trkpt>
      <trkpt lat="44.16986" lon="7.66201">
        <ele>2113.208</ele>
        <time>2018-07-01T13:40:32Z</time>
      </trkpt>
      <trkpt lat="44.16986" lon="7.66194">
        <ele>2114.051</ele>
        <time>2018-07-01T13:40:33Z</time>
      </trkpt>
      <trkpt lat="44.16986" lon="7.66184">
        <ele>2114.055</ele>
        <time>2018-07-01T13:40:34Z</time>
      </trkpt>
      <trkpt lat="44.16987" lon="7.66175">
        <ele>2114.851</ele>
        <time>2018-07-01T13:40:35Z</time>
      </trkpt>
      <trkpt lat="44.16986" lon="7.66167">
        <ele>2114.874</ele>
        <time>2018-07-01T13:40:36Z</time>
      </trkpt>
      <trkpt lat="44.16983" lon="7.66159">
        <ele>2114.976</ele>
        <time>2018-07-01T13:40:37Z</time>
      </trkpt>
      <trkpt lat="44.1698" lon="7.66151">
        <ele>2113.659</ele>
        <time>2018-07-01T13:40:38Z</time>
      </trkpt>
      <trkpt lat="44.16973" lon="7.66142">
        <ele>2113.874</ele>
        <time>2018-07-01T13:40:39Z</time>
      </trkpt>
      <trkpt lat="44.16967" lon="7.66138">
        <ele>2114.055</ele>
        <time>2018-07-01T13:40:40Z</time>
      </trkpt>
      <trkpt lat="44.16956" lon="7.66131">
        <ele>2115.261</ele>
        <time>2018-07-01T13:40:41Z</time>
      </trkpt>
      <trkpt lat="44.16947" lon="7.66124">
        <ele>2114.421</ele>
        <time>2018-07-01T13:40:42Z</time>
      </trkpt>
      <trkpt lat="44.16937" lon="7.66116">
        <ele>2115.313</ele>
        <time>2018-07-01T13:40:43Z</time>
      </trkpt>
      <trkpt lat="44.16929" lon="7.66108">
        <ele>2115.008</ele>
        <time>2018-07-01T13:40:44Z</time>
      </trkpt>
      <trkpt lat="44.16923" lon="7.66097">
        <ele>2115.188</ele>
        <time>2018-07-01T13:40:45Z</time>
      </trkpt>
      <trkpt lat="44.16917" lon="7.66088">
        <ele>2114.852</ele>
        <time>2018-07-01T13:40:46Z</time>
      </trkpt>
      <trkpt lat="44.16911" lon="7.6608">
        <ele>2115.258</ele>
        <time>2018-07-01T13:40:47Z</time>
      </trkpt>
      <trkpt lat="44.16907" lon="7.66072">
        <ele>2115.741</ele>
        <time>2018-07-01T13:40:48Z</time>
      </trkpt>
      <trkpt lat="44.16905" lon="7.66063">
        <ele>2117.673</ele>
        <time>2018-07-01T13:40:49Z</time>
      </trkpt>
      <trkpt lat="44.16902" lon="7.66053">
        <ele>2117.566</ele>
        <time>2018-07-01T13:40:50Z</time>
      </trkpt>
      <trkpt lat="44.16902" lon="7.66041">
        <ele>2117.811</ele>
        <time>2018-07-01T13:40:51Z</time>
      </trkpt>
      <trkpt lat="44.16903" lon="7.66029">
        <ele>2119.692</ele>
        <time>2018-07-01T13:40:52Z</time>
      </trkpt>
      <trkpt lat="44.16907" lon="7.66018">
        <ele>2121.758</ele>
        <time>2018-07-01T13:40:53Z</time>
      </trkpt>
      <trkpt lat="44.16911" lon="7.66006">
        <ele>2122.552</ele>
        <time>2018-07-01T13:40:54Z</time>
      </trkpt>
      <trkpt lat="44.16914" lon="7.65994">
        <ele>2123.617</ele>
        <time>2018-07-01T13:40:55Z</time>
      </trkpt>
      <trkpt lat="44.16916" lon="7.65983">
        <ele>2123.908</ele>
        <time>2018-07-01T13:40:56Z</time>
      </trkpt>
      <trkpt lat="44.16917" lon="7.65973">
        <ele>2123.917</ele>
        <time>2018-07-01T13:40:57Z</time>
      </trkpt>
      <trkpt lat="44.1692" lon="7.65964">
        <ele>2124.631</ele>
        <time>2018-07-01T13:40:58Z</time>
      </trkpt>
      <trkpt lat="44.16923" lon="7.65956">
        <ele>2123.957</ele>
        <time>2018-07-01T13:40:59Z</time>
      </trkpt>
      <trkpt lat="44.16928" lon="7.65947">
        <ele>2126.31</ele>
        <time>2018-07-01T13:41:00Z</time>
      </trkpt>
      <trkpt lat="44.16934" lon="7.65939">
        <ele>2126.792</ele>
        <time>2018-07-01T13:41:01Z</time>
      </trkpt>
      <trkpt lat="44.1694" lon="7.65933">
        <ele>2127.325</ele>
        <time>2018-07-01T13:41:02Z</time>
      </trkpt>
      <trkpt lat="44.16947" lon="7.65926">
        <ele>2127.43</ele>
        <time>2018-07-01T13:41:03Z</time>
      </trkpt>
      <trkpt lat="44.16953" lon="7.65921">
        <ele>2127.931</ele>
        <time>2018-07-01T13:41:04Z</time>
      </trkpt>
      <trkpt lat="44.16957" lon="7.65916">
        <ele>2128.357</ele>
        <time>2018-07-01T13:41:05Z</time>
      </trkpt>
      <trkpt lat="44.16962" lon="7.65909">
        <ele>2130.5</ele>
        <time>2018-07-01T13:41:06Z</time>
      </trkpt>
      <trkpt lat="44.16966" lon="7.659">
        <ele>2131.72</ele>
        <time>2018-07-01T13:41:07Z</time>
      </trkpt>
      <trkpt lat="44.16969" lon="7.65891">
        <ele>2132.708</ele>
        <time>2018-07-01T13:41:08Z</time>
      </trkpt>
      <trkpt lat="44.16972" lon="7.65882">
        <ele>2132.757</ele>
        <time>2018-07-01T13:41:09Z</time>
      </trkpt>
      <trkpt lat="44.16974" lon="7.65872">
        <ele>2133.861</ele>
        <time>2018-07-01T13:41:10Z</time>
      </trkpt>
      <trkpt lat="44.16975" lon="7.65859">
        <ele>2134.197</ele>
        <time>2018-07-01T13:41:11Z</time>
      </trkpt>
      <trkpt lat="44.16976" lon="7.65848">
        <ele>2135.43</ele>
        <time>2018-07-01T13:41:12Z</time>
      </trkpt>
      <trkpt lat="44.16979" lon="7.65836">
        <ele>2136.252</ele>
        <time>2018-07-01T13:41:13Z</time>
      </trkpt>
      <trkpt lat="44.1698" lon="7.65826">
        <ele>2135.865</ele>
        <time>2018-07-01T13:41:14Z</time>
      </trkpt>
      <trkpt lat="44.16981" lon="7.65816">
        <ele>2137.37</ele>
        <time>2018-07-01T13:41:15Z</time>
      </trkpt>
      <trkpt lat="44.16982" lon="7.65805">
        <ele>2137.661</ele>
        <time>2018-07-01T13:41:16Z</time>
      </trkpt>
      <trkpt lat="44.16982" lon="7.65793">
        <ele>2138.125</ele>
        <time>2018-07-01T13:41:17Z</time>
      </trkpt>
      <trkpt lat="44.16983" lon="7.65782">
        <ele>2139.326</ele>
        <time>2018-07-01T13:41:18Z</time>
      </trkpt>
      <trkpt lat="44.16985" lon="7.65771">
        <ele>2139.908</ele>
        <time>2018-07-01T13:41:19Z</time>
      </trkpt>
      <trkpt lat="44.16987" lon="7.65762">
        <ele>2140.808</ele>
        <time>2018-07-01T13:41:20Z</time>
      </trkpt>
      <trkpt lat="44.16988" lon="7.65752">
        <ele>2141.044</ele>
        <time>2018-07-01T13:41:21Z</time>
      </trkpt>
      <trkpt lat="44.16987" lon="7.65741">
        <ele>2141.758</ele>
        <time>2018-07-01T13:41:22Z</time>
      </trkpt>
      <trkpt lat="44.16987" lon="7.6573">
        <ele>2142.574</ele>
        <time>2018-07-01T13:41:23Z</time>
      </trkpt>
      <trkpt lat="44.16989" lon="7.65721">
        <ele>2142.727</ele>
        <time>2018-07-01T13:41:24Z</time>
      </trkpt>
      <trkpt lat="44.16986" lon="7.6571">
        <ele>2143.039</ele>
        <time>2018-07-01T13:41:25Z</time>
      </trkpt>
      <trkpt lat="44.16989" lon="7.65699">
        <ele>2144.122</ele>
        <time>2018-07-01T13:41:26Z</time>
      </trkpt>
      <trkpt lat="44.16989" lon="7.65691">
        <ele>2144.037</ele>
        <time>2018-07-01T13:41:27Z</time>
      </trkpt>
      <trkpt lat="44.1699" lon="7.65683">
        <ele>2144.928</ele>
        <time>2018-07-01T13:41:28Z</time>
      </trkpt>
      <trkpt lat="44.16991" lon="7.65676">
        <ele>2144.148</ele>
        <time>2018-07-01T13:41:29Z</time>
      </trkpt>
      <trkpt lat="44.16994" lon="7.65668">
        <ele>2146.361</ele>
        <time>2018-07-01T13:41:31Z</time>
      </trkpt>
      <trkpt lat="44.17001" lon="7.65662">
        <ele>2146.517</ele>
        <time>2018-07-01T13:41:32Z</time>
      </trkpt>
      <trkpt lat="44.1701" lon="7.65661">
        <ele>2147.308</ele>
        <time>2018-07-01T13:41:33Z</time>
      </trkpt>
      <trkpt lat="44.17015" lon="7.65659">
        <ele>2149.166</ele>
        <time>2018-07-01T13:41:34Z</time>
      </trkpt>
      <trkpt lat="44.1702" lon="7.65656">
        <ele>2149.99</ele>
        <time>2018-07-01T13:41:35Z</time>
      </trkpt>
      <trkpt lat="44.17024" lon="7.65653">
        <ele>2151.016</ele>
        <time>2018-07-01T13:41:36Z</time>
      </trkpt>
      <trkpt lat="44.1703" lon="7.65651">
        <ele>2154.569</ele>
        <time>2018-07-01T13:41:37Z</time>
      </trkpt>
      <trkpt lat="44.17035" lon="7.65648">
        <ele>2155.991</ele>
        <time>2018-07-01T13:41:38Z</time>
      </trkpt>
      <trkpt lat="44.1704" lon="7.65646">
        <ele>2156.524</ele>
        <time>2018-07-01T13:41:39Z</time>
      </trkpt>
      <trkpt lat="44.17045" lon="7.65642">
        <ele>2156.079</ele>
        <time>2018-07-01T13:41:40Z</time>
      </trkpt>
      <trkpt lat="44.1705" lon="7.65638">
        <ele>2157.92</ele>
        <time>2018-07-01T13:41:41Z</time>
      </trkpt>
      <trkpt lat="44.17054" lon="7.65634">
        <ele>2158.563</ele>
        <time>2018-07-01T13:41:42Z</time>
      </trkpt>
      <trkpt lat="44.17057" lon="7.65629">
        <ele>2160.244</ele>
        <time>2018-07-01T13:41:43Z</time>
      </trkpt>
      <trkpt lat="44.17059" lon="7.65621">
        <ele>2161.818</ele>
        <time>2018-07-01T13:41:44Z</time>
      </trkpt>
      <trkpt lat="44.17062" lon="7.65615">
        <ele>2162.008</ele>
        <time>2018-07-01T13:41:45Z</time>
      </trkpt>
      <trkpt lat="44.17067" lon="7.65612">
        <ele>2162.978</ele>
        <time>2018-07-01T13:41:46Z</time>
      </trkpt>
      <trkpt lat="44.17073" lon="7.6561">
        <ele>2163.332</ele>
        <time>2018-07-01T13:41:47Z</time>
      </trkpt>
      <trkpt lat="44.17078" lon="7.65608">
        <ele>2163.648</ele>
        <time>2018-07-01T13:41:48Z</time>
      </trkpt>
      <trkpt lat="44.17085" lon="7.65606">
        <ele>2163.491</ele>
        <time>2018-07-01T13:41:49Z</time>
      </trkpt>
      <trkpt lat="44.1709" lon="7.65606">
        <ele>2163.613</ele>
        <time>2018-07-01T13:41:50Z</time>
      </trkpt>
      <trkpt lat="44.17096" lon="7.65605">
        <ele>2165.146</ele>
        <time>2018-07-01T13:41:51Z</time>
      </trkpt>
      <trkpt lat="44.17102" lon="7.65607">
        <ele>2168.131</ele>
        <time>2018-07-01T13:41:52Z</time>
      </trkpt>
      <trkpt lat="44.17107" lon="7.6561">
        <ele>2168.652</ele>
        <time>2018-07-01T13:41:53Z</time>
      </trkpt>
      <trkpt lat="44.17111" lon="7.65613">
        <ele>2168.856</ele>
        <time>2018-07-01T13:41:54Z</time>
      </trkpt>
      <trkpt lat="44.17117" lon="7.65614">
        <ele>2170.559</ele>
        <time>2018-07-01T13:41:55Z</time>
      </trkpt>
      <trkpt lat="44.17121" lon="7.65612">
        <ele>2170.314</ele>
        <time>2018-07-01T13:41:56Z</time>
      </trkpt>
      <trkpt lat="44.17128" lon="7.6561">
        <ele>2171.208</ele>
        <time>2018-07-01T13:41:58Z</time>
      </trkpt>
      <trkpt lat="44.17129" lon="7.65602">
        <ele>2173.637</ele>
        <time>2018-07-01T13:42:00Z</time>
      </trkpt>
      <trkpt lat="44.17124" lon="7.65595">
        <ele>2173.871</ele>
        <time>2018-07-01T13:42:01Z</time>
      </trkpt>
      <trkpt lat="44.17119" lon="7.6559">
        <ele>2175.997</ele>
        <time>2018-07-01T13:42:02Z</time>
      </trkpt>
      <trkpt lat="44.17116" lon="7.65584">
        <ele>2175.82</ele>
        <time>2018-07-01T13:42:03Z</time>
      </trkpt>
      <trkpt lat="44.1711" lon="7.65583">
        <ele>2176.512</ele>
        <time>2018-07-01T13:42:04Z</time>
      </trkpt>
      <trkpt lat="44.17102" lon="7.65585">
        <ele>2176.035</ele>
        <time>2018-07-01T13:42:05Z</time>
      </trkpt>
      <trkpt lat="44.17096" lon="7.65583">
        <ele>2175.95</ele>
        <time>2018-07-01T13:42:06Z</time>
      </trkpt>
      <trkpt lat="44.17091" lon="7.65579">
        <ele>2176.631</ele>
        <time>2018-07-01T13:42:07Z</time>
      </trkpt>
      <trkpt lat="44.17086" lon="7.65575">
        <ele>2177.096</ele>
        <time>2018-07-01T13:42:08Z</time>
      </trkpt>
      <trkpt lat="44.17083" lon="7.65568">
        <ele>2176.731</ele>
        <time>2018-07-01T13:42:09Z</time>
      </trkpt>
      <trkpt lat="44.17079" lon="7.65562">
        <ele>2176.224</ele>
        <time>2018-07-01T13:42:10Z</time>
      </trkpt>
      <trkpt lat="44.17076" lon="7.65554">
        <ele>2176.708</ele>
        <time>2018-07-01T13:42:11Z</time>
      </trkpt>
      <trkpt lat="44.17069" lon="7.65551">
        <ele>2177.721</ele>
        <time>2018-07-01T13:42:12Z</time>
      </trkpt>
      <trkpt lat="44.17065" lon="7.65544">
        <ele>2178.375</ele>
        <time>2018-07-01T13:42:13Z</time>
      </trkpt>
      <trkpt lat="44.1706" lon="7.6554">
        <ele>2178.541</ele>
        <time>2018-07-01T13:42:14Z</time>
      </trkpt>
      <trkpt lat="44.17057" lon="7.65535">
        <ele>2178.224</ele>
        <time>2018-07-01T13:42:15Z</time>
      </trkpt>
      <trkpt lat="44.17053" lon="7.65531">
        <ele>2178.386</ele>
        <time>2018-07-01T13:42:16Z</time>
      </trkpt>
      <trkpt lat="44.17047" lon="7.6553">
        <ele>2179.119</ele>
        <time>2018-07-01T13:42:17Z</time>
      </trkpt>
      <trkpt lat="44.17041" lon="7.65532">
        <ele>2178.884</ele>
        <time>2018-07-01T13:42:18Z</time>
      </trkpt>
      <trkpt lat="44.17036" lon="7.65534">
        <ele>2179.375</ele>
        <time>2018-07-01T13:42:19Z</time>
      </trkpt>
      <trkpt lat="44.17031" lon="7.65537">
        <ele>2179.224</ele>
        <time>2018-07-01T13:42:20Z</time>
      </trkpt>
      <trkpt lat="44.17027" lon="7.65545">
        <ele>2178.404</ele>
        <time>2018-07-01T13:42:21Z</time>
      </trkpt>
      <trkpt lat="44.17025" lon="7.6555">
        <ele>2178.314</ele>
        <time>2018-07-01T13:42:22Z</time>
      </trkpt>
      <trkpt lat="44.1702" lon="7.65555">
        <ele>2178.708</ele>
        <time>2018-07-01T13:42:23Z</time>
      </trkpt>
      <trkpt lat="44.17011" lon="7.65557">
        <ele>2180.954</ele>
        <time>2018-07-01T13:42:25Z</time>
      </trkpt>
      <trkpt lat="44.17005" lon="7.65556">
        <ele>2180.928</ele>
        <time>2018-07-01T13:42:26Z</time>
      </trkpt>
      <trkpt lat="44.17" lon="7.65555">
        <ele>2181.764</ele>
        <time>2018-07-01T13:42:27Z</time>
      </trkpt>
      <trkpt lat="44.16995" lon="7.65555">
        <ele>2179.857</ele>
        <time>2018-07-01T13:42:28Z</time>
      </trkpt>
      <trkpt lat="44.1699" lon="7.65555">
        <ele>2180.579</ele>
        <time>2018-07-01T13:42:29Z</time>
      </trkpt>
      <trkpt lat="44.16983" lon="7.65555">
        <ele>2180.162</ele>
        <time>2018-07-01T13:42:30Z</time>
      </trkpt>
      <trkpt lat="44.16977" lon="7.65559">
        <ele>2180.097</ele>
        <time>2018-07-01T13:42:31Z</time>
      </trkpt>
      <trkpt lat="44.16971" lon="7.65564">
        <ele>2180.468</ele>
        <time>2018-07-01T13:42:32Z</time>
      </trkpt>
      <trkpt lat="44.16965" lon="7.65568">
        <ele>2180.886</ele>
        <time>2018-07-01T13:42:33Z</time>
      </trkpt>
      <trkpt lat="44.1696" lon="7.65573">
        <ele>2180.96</ele>
        <time>2018-07-01T13:42:34Z</time>
      </trkpt>
      <trkpt lat="44.16955" lon="7.65581">
        <ele>2181.426</ele>
        <time>2018-07-01T13:42:35Z</time>
      </trkpt>
      <trkpt lat="44.16949" lon="7.65587">
        <ele>2181.808</ele>
        <time>2018-07-01T13:42:36Z</time>
      </trkpt>
      <trkpt lat="44.1694" lon="7.65593">
        <ele>2181.78</ele>
        <time>2018-07-01T13:42:38Z</time>
      </trkpt>
      <trkpt lat="44.16935" lon="7.656">
        <ele>2182.584</ele>
        <time>2018-07-01T13:42:39Z</time>
      </trkpt>
      <trkpt lat="44.1693" lon="7.65604">
        <ele>2182.95</ele>
        <time>2018-07-01T13:42:40Z</time>
      </trkpt>
      <trkpt lat="44.16924" lon="7.65607">
        <ele>2184.653</ele>
        <time>2018-07-01T13:42:42Z</time>
      </trkpt>
      <trkpt lat="44.16916" lon="7.65608">
        <ele>2184.885</ele>
        <time>2018-07-01T13:42:43Z</time>
      </trkpt>
      <trkpt lat="44.16911" lon="7.65608">
        <ele>2185.218</ele>
        <time>2018-07-01T13:42:44Z</time>
      </trkpt>
      <trkpt lat="44.16906" lon="7.65609">
        <ele>2186.073</ele>
        <time>2018-07-01T13:42:45Z</time>
      </trkpt>
      <trkpt lat="44.16899" lon="7.65614">
        <ele>2186.714</ele>
        <time>2018-07-01T13:42:47Z</time>
      </trkpt>
      <trkpt lat="44.16892" lon="7.6562">
        <ele>2186.621</ele>
        <time>2018-07-01T13:42:49Z</time>
      </trkpt>
      <trkpt lat="44.16885" lon="7.65625">
        <ele>2187.641</ele>
        <time>2018-07-01T13:42:51Z</time>
      </trkpt>
      <trkpt lat="44.16879" lon="7.65625">
        <ele>2187.805</ele>
        <time>2018-07-01T13:42:53Z</time>
      </trkpt>
      <trkpt lat="44.16877" lon="7.65615">
        <ele>2187.908</ele>
        <time>2018-07-01T13:42:55Z</time>
      </trkpt>
      <trkpt lat="44.16881" lon="7.65609">
        <ele>2188.994</ele>
        <time>2018-07-01T13:42:57Z</time>
      </trkpt>
      <trkpt lat="44.16886" lon="7.65603">
        <ele>2190.288</ele>
        <time>2018-07-01T13:42:59Z</time>
      </trkpt>
      <trkpt lat="44.16895" lon="7.65602">
        <ele>2191.524</ele>
        <time>2018-07-01T13:43:00Z</time>
      </trkpt>
      <trkpt lat="44.16901" lon="7.65598">
        <ele>2192.047</ele>
        <time>2018-07-01T13:43:01Z</time>
      </trkpt>
      <trkpt lat="44.16906" lon="7.65596">
        <ele>2191.439</ele>
        <time>2018-07-01T13:43:02Z</time>
      </trkpt>
      <trkpt lat="44.1691" lon="7.65593">
        <ele>2192.552</ele>
        <time>2018-07-01T13:43:03Z</time>
      </trkpt>
      <trkpt lat="44.16916" lon="7.65592">
        <ele>2195.367</ele>
        <time>2018-07-01T13:43:04Z</time>
      </trkpt>
      <trkpt lat="44.1692" lon="7.65592">
        <ele>2197.048</ele>
        <time>2018-07-01T13:43:05Z</time>
      </trkpt>
      <trkpt lat="44.16927" lon="7.65589">
        <ele>2198.024</ele>
        <time>2018-07-01T13:43:06Z</time>
      </trkpt>
      <trkpt lat="44.16931" lon="7.65586">
        <ele>2198.104</ele>
        <time>2018-07-01T13:43:07Z</time>
      </trkpt>
      <trkpt lat="44.16935" lon="7.6558">
        <ele>2199.014</ele>
        <time>2018-07-01T13:43:08Z</time>
      </trkpt>
      <trkpt lat="44.16938" lon="7.65571">
        <ele>2199.508</ele>
        <time>2018-07-01T13:43:09Z</time>
      </trkpt>
      <trkpt lat="44.16941" lon="7.65563">
        <ele>2201.484</ele>
        <time>2018-07-01T13:43:10Z</time>
      </trkpt>
      <trkpt lat="44.16943" lon="7.65554">
        <ele>2202.098</ele>
        <time>2018-07-01T13:43:11Z</time>
      </trkpt>
      <trkpt lat="44.16944" lon="7.65544">
        <ele>2203.194</ele>
        <time>2018-07-01T13:43:12Z</time>
      </trkpt>
      <trkpt lat="44.16947" lon="7.65535">
        <ele>2203.267</ele>
        <time>2018-07-01T13:43:13Z</time>
      </trkpt>
      <trkpt lat="44.1695" lon="7.6553">
        <ele>2203.449</ele>
        <time>2018-07-01T13:43:14Z</time>
      </trkpt>
      <trkpt lat="44.16955" lon="7.65524">
        <ele>2203.682</ele>
        <time>2018-07-01T13:43:15Z</time>
      </trkpt>
      <trkpt lat="44.1696" lon="7.65518">
        <ele>2203.597</ele>
        <time>2018-07-01T13:43:16Z</time>
      </trkpt>
      <trkpt lat="44.16963" lon="7.65512">
        <ele>2204.798</ele>
        <time>2018-07-01T13:43:17Z</time>
      </trkpt>
      <trkpt lat="44.16963" lon="7.65505">
        <ele>2204.555</ele>
        <time>2018-07-01T13:43:18Z</time>
      </trkpt>
      <trkpt lat="44.16966" lon="7.65499">
        <ele>2206.307</ele>
        <time>2018-07-01T13:43:19Z</time>
      </trkpt>
      <trkpt lat="44.16969" lon="7.65493">
        <ele>2207.117</ele>
        <time>2018-07-01T13:43:20Z</time>
      </trkpt>
      <trkpt lat="44.1697" lon="7.65483">
        <ele>2208.308</ele>
        <time>2018-07-01T13:43:21Z</time>
      </trkpt>
      <trkpt lat="44.16969" lon="7.6547">
        <ele>2208.037</ele>
        <time>2018-07-01T13:43:22Z</time>
      </trkpt>
      <trkpt lat="44.16965" lon="7.65457">
        <ele>2209.861</ele>
        <time>2018-07-01T13:43:23Z</time>
      </trkpt>
      <trkpt lat="44.16966" lon="7.65446">
        <ele>2209.917</ele>
        <time>2018-07-01T13:43:24Z</time>
      </trkpt>
      <trkpt lat="44.16967" lon="7.65437">
        <ele>2210.49</ele>
        <time>2018-07-01T13:43:25Z</time>
      </trkpt>
      <trkpt lat="44.16967" lon="7.65429">
        <ele>2211.382</ele>
        <time>2018-07-01T13:43:26Z</time>
      </trkpt>
      <trkpt lat="44.16968" lon="7.65421">
        <ele>2213.375</ele>
        <time>2018-07-01T13:43:27Z</time>
      </trkpt>
      <trkpt lat="44.16971" lon="7.65414">
        <ele>2214.87</ele>
        <time>2018-07-01T13:43:28Z</time>
      </trkpt>
      <trkpt lat="44.16974" lon="7.65408">
        <ele>2214.971</ele>
        <time>2018-07-01T13:43:29Z</time>
      </trkpt>
      <trkpt lat="44.16983" lon="7.65401">
        <ele>2214.269</ele>
        <time>2018-07-01T13:43:31Z</time>
      </trkpt>
      <trkpt lat="44.16988" lon="7.654">
        <ele>2214.404</ele>
        <time>2018-07-01T13:43:32Z</time>
      </trkpt>
      <trkpt lat="44.16994" lon="7.65395">
        <ele>2214.424</ele>
        <time>2018-07-01T13:43:33Z</time>
      </trkpt>
      <trkpt lat="44.17" lon="7.65389">
        <ele>2215.208</ele>
        <time>2018-07-01T13:43:34Z</time>
      </trkpt>
      <trkpt lat="44.17007" lon="7.65383">
        <ele>2215.558</ele>
        <time>2018-07-01T13:43:35Z</time>
      </trkpt>
      <trkpt lat="44.17014" lon="7.65379">
        <ele>2215.182</ele>
        <time>2018-07-01T13:43:36Z</time>
      </trkpt>
      <trkpt lat="44.17021" lon="7.65376">
        <ele>2215.848</ele>
        <time>2018-07-01T13:43:37Z</time>
      </trkpt>
      <trkpt lat="44.17027" lon="7.65376">
        <ele>2216.281</ele>
        <time>2018-07-01T13:43:38Z</time>
      </trkpt>
      <trkpt lat="44.17032" lon="7.65378">
        <ele>2216.853</ele>
        <time>2018-07-01T13:43:39Z</time>
      </trkpt>
      <trkpt lat="44.17038" lon="7.65382">
        <ele>2218.396</ele>
        <time>2018-07-01T13:43:40Z</time>
      </trkpt>
      <trkpt lat="44.17043" lon="7.65385">
        <ele>2218.611</ele>
        <time>2018-07-01T13:43:41Z</time>
      </trkpt>
      <trkpt lat="44.17049" lon="7.65385">
        <ele>2218.392</ele>
        <time>2018-07-01T13:43:42Z</time>
      </trkpt>
      <trkpt lat="44.17054" lon="7.65384">
        <ele>2218.181</ele>
        <time>2018-07-01T13:43:43Z</time>
      </trkpt>
      <trkpt lat="44.17059" lon="7.65381">
        <ele>2217.461</ele>
        <time>2018-07-01T13:43:44Z</time>
      </trkpt>
      <trkpt lat="44.17063" lon="7.65375">
        <ele>2217.017</ele>
        <time>2018-07-01T13:43:45Z</time>
      </trkpt>
      <trkpt lat="44.17066" lon="7.65369">
        <ele>2215.608</ele>
        <time>2018-07-01T13:43:46Z</time>
      </trkpt>
      <trkpt lat="44.17068" lon="7.65361">
        <ele>2216.63</ele>
        <time>2018-07-01T13:43:47Z</time>
      </trkpt>
      <trkpt lat="44.17068" lon="7.65353">
        <ele>2216.954</ele>
        <time>2018-07-01T13:43:48Z</time>
      </trkpt>
      <trkpt lat="44.17067" lon="7.65345">
        <ele>2217.06</ele>
        <time>2018-07-01T13:43:49Z</time>
      </trkpt>
      <trkpt lat="44.17064" lon="7.65339">
        <ele>2215.463</ele>
        <time>2018-07-01T13:43:50Z</time>
      </trkpt>
      <trkpt lat="44.17061" lon="7.65333">
        <ele>2215.525</ele>
        <time>2018-07-01T13:43:51Z</time>
      </trkpt>
      <trkpt lat="44.17056" lon="7.6533">
        <ele>2215.268</ele>
        <time>2018-07-01T13:43:52Z</time>
      </trkpt>
      <trkpt lat="44.17051" lon="7.65328">
        <ele>2215.683</ele>
        <time>2018-07-01T13:43:53Z</time>
      </trkpt>
      <trkpt lat="44.17047" lon="7.65325">
        <ele>2215.744</ele>
        <time>2018-07-01T13:43:54Z</time>
      </trkpt>
      <trkpt lat="44.17041" lon="7.65322">
        <ele>2215.358</ele>
        <time>2018-07-01T13:43:55Z</time>
      </trkpt>
      <trkpt lat="44.17038" lon="7.65317">
        <ele>2215.152</ele>
        <time>2018-07-01T13:43:56Z</time>
      </trkpt>
      <trkpt lat="44.17033" lon="7.65312">
        <ele>2214.717</ele>
        <time>2018-07-01T13:43:57Z</time>
      </trkpt>
      <trkpt lat="44.17028" lon="7.65306">
        <ele>2215.908</ele>
        <time>2018-07-01T13:43:58Z</time>
      </trkpt>
      <trkpt lat="44.1702" lon="7.653">
        <ele>2216.217</ele>
        <time>2018-07-01T13:43:59Z</time>
      </trkpt>
      <trkpt lat="44.17012" lon="7.65293">
        <ele>2216.981</ele>
        <time>2018-07-01T13:44:00Z</time>
      </trkpt>
      <trkpt lat="44.17005" lon="7.65284">
        <ele>2216.147</ele>
        <time>2018-07-01T13:44:01Z</time>
      </trkpt>
      <trkpt lat="44.16997" lon="7.65272">
        <ele>2215.99</ele>
        <time>2018-07-01T13:44:02Z</time>
      </trkpt>
      <trkpt lat="44.16991" lon="7.65262">
        <ele>2215.872</ele>
        <time>2018-07-01T13:44:03Z</time>
      </trkpt>
      <trkpt lat="44.16986" lon="7.65252">
        <ele>2214.925</ele>
        <time>2018-07-01T13:44:04Z</time>
      </trkpt>
      <trkpt lat="44.16981" lon="7.65242">
        <ele>2214.41</ele>
        <time>2018-07-01T13:44:05Z</time>
      </trkpt>
      <trkpt lat="44.16975" lon="7.65231">
        <ele>2214.731</ele>
        <time>2018-07-01T13:44:06Z</time>
      </trkpt>
      <trkpt lat="44.16971" lon="7.6522">
        <ele>2215.259</ele>
        <time>2018-07-01T13:44:07Z</time>
      </trkpt>
      <trkpt lat="44.16966" lon="7.65207">
        <ele>2215.603</ele>
        <time>2018-07-01T13:44:08Z</time>
      </trkpt>
      <trkpt lat="44.16965" lon="7.65195">
        <ele>2215.323</ele>
        <time>2018-07-01T13:44:09Z</time>
      </trkpt>
      <trkpt lat="44.16965" lon="7.65182">
        <ele>2215.808</ele>
        <time>2018-07-01T13:44:10Z</time>
      </trkpt>
      <trkpt lat="44.16965" lon="7.65166">
        <ele>2214.497</ele>
        <time>2018-07-01T13:44:11Z</time>
      </trkpt>
      <trkpt lat="44.16965" lon="7.65152">
        <ele>2215.731</ele>
        <time>2018-07-01T13:44:12Z</time>
      </trkpt>
      <trkpt lat="44.16964" lon="7.6514">
        <ele>2215.477</ele>
        <time>2018-07-01T13:44:13Z</time>
      </trkpt>
      <trkpt lat="44.16963" lon="7.65128">
        <ele>2214.83</ele>
        <time>2018-07-01T13:44:14Z</time>
      </trkpt>
      <trkpt lat="44.16963" lon="7.65116">
        <ele>2216.472</ele>
        <time>2018-07-01T13:44:15Z</time>
      </trkpt>
      <trkpt lat="44.16964" lon="7.65104">
        <ele>2216.335</ele>
        <time>2018-07-01T13:44:16Z</time>
      </trkpt>
      <trkpt lat="44.16965" lon="7.65093">
        <ele>2216.82</ele>
        <time>2018-07-01T13:44:17Z</time>
      </trkpt>
      <trkpt lat="44.16967" lon="7.65083">
        <ele>2217.581</ele>
        <time>2018-07-01T13:44:18Z</time>
      </trkpt>
      <trkpt lat="44.16968" lon="7.65075">
        <ele>2217.986</ele>
        <time>2018-07-01T13:44:19Z</time>
      </trkpt>
      <trkpt lat="44.16971" lon="7.6507">
        <ele>2219.76</ele>
        <time>2018-07-01T13:44:20Z</time>
      </trkpt>
      <trkpt lat="44.16974" lon="7.65064">
        <ele>2220.326</ele>
        <time>2018-07-01T13:44:21Z</time>
      </trkpt>
      <trkpt lat="44.16976" lon="7.65058">
        <ele>2221.608</ele>
        <time>2018-07-01T13:44:22Z</time>
      </trkpt>
      <trkpt lat="44.16979" lon="7.65051">
        <ele>2222.75</ele>
        <time>2018-07-01T13:44:23Z</time>
      </trkpt>
      <trkpt lat="44.1698" lon="7.65043">
        <ele>2223.194</ele>
        <time>2018-07-01T13:44:24Z</time>
      </trkpt>
      <trkpt lat="44.16983" lon="7.65034">
        <ele>2223.66</ele>
        <time>2018-07-01T13:44:25Z</time>
      </trkpt>
      <trkpt lat="44.16986" lon="7.65027">
        <ele>2223.833</ele>
        <time>2018-07-01T13:44:26Z</time>
      </trkpt>
      <trkpt lat="44.1699" lon="7.65019">
        <ele>2224.745</ele>
        <time>2018-07-01T13:44:27Z</time>
      </trkpt>
      <trkpt lat="44.16994" lon="7.65011">
        <ele>2225.128</ele>
        <time>2018-07-01T13:44:28Z</time>
      </trkpt>
      <trkpt lat="44.17" lon="7.65004">
        <ele>2227.053</ele>
        <time>2018-07-01T13:44:29Z</time>
      </trkpt>
      <trkpt lat="44.17004" lon="7.64998">
        <ele>2227.174</ele>
        <time>2018-07-01T13:44:30Z</time>
      </trkpt>
      <trkpt lat="44.17008" lon="7.64991">
        <ele>2225.938</ele>
        <time>2018-07-01T13:44:31Z</time>
      </trkpt>
      <trkpt lat="44.17012" lon="7.64982">
        <ele>2226.47</ele>
        <time>2018-07-01T13:44:32Z</time>
      </trkpt>
      <trkpt lat="44.17015" lon="7.64974">
        <ele>2227.817</ele>
        <time>2018-07-01T13:44:33Z</time>
      </trkpt>
      <trkpt lat="44.17016" lon="7.64967">
        <ele>2229.308</ele>
        <time>2018-07-01T13:44:34Z</time>
      </trkpt>
      <trkpt lat="44.17016" lon="7.64959">
        <ele>2230.645</ele>
        <time>2018-07-01T13:44:35Z</time>
      </trkpt>
      <trkpt lat="44.17014" lon="7.64951">
        <ele>2230.599</ele>
        <time>2018-07-01T13:44:36Z</time>
      </trkpt>
      <trkpt lat="44.17012" lon="7.64942">
        <ele>2230.975</ele>
        <time>2018-07-01T13:44:37Z</time>
      </trkpt>
      <trkpt lat="44.1701" lon="7.64931">
        <ele>2231.128</ele>
        <time>2018-07-01T13:44:38Z</time>
      </trkpt>
      <trkpt lat="44.17009" lon="7.6492">
        <ele>2230.51</ele>
        <time>2018-07-01T13:44:39Z</time>
      </trkpt>
      <trkpt lat="44.17008" lon="7.6491">
        <ele>2231.263</ele>
        <time>2018-07-01T13:44:40Z</time>
      </trkpt>
      <trkpt lat="44.17008" lon="7.64897">
        <ele>2232.558</ele>
        <time>2018-07-01T13:44:41Z</time>
      </trkpt>
      <trkpt lat="44.17007" lon="7.64885">
        <ele>2233.359</ele>
        <time>2018-07-01T13:44:42Z</time>
      </trkpt>
      <trkpt lat="44.17007" lon="7.64875">
        <ele>2233.239</ele>
        <time>2018-07-01T13:44:43Z</time>
      </trkpt>
      <trkpt lat="44.17008" lon="7.64864">
        <ele>2233.101</ele>
        <time>2018-07-01T13:44:44Z</time>
      </trkpt>
      <trkpt lat="44.17009" lon="7.64853">
        <ele>2232.921</ele>
        <time>2018-07-01T13:44:45Z</time>
      </trkpt>
      <trkpt lat="44.17011" lon="7.64843">
        <ele>2232.908</ele>
        <time>2018-07-01T13:44:46Z</time>
      </trkpt>
      <trkpt lat="44.17011" lon="7.64832">
        <ele>2232.335</ele>
        <time>2018-07-01T13:44:47Z</time>
      </trkpt>
      <trkpt lat="44.1701" lon="7.64821">
        <ele>2232.359</ele>
        <time>2018-07-01T13:44:48Z</time>
      </trkpt>
      <trkpt lat="44.1701" lon="7.6481">
        <ele>2231.635</ele>
        <time>2018-07-01T13:44:49Z</time>
      </trkpt>
      <trkpt lat="44.1701" lon="7.648">
        <ele>2231.328</ele>
        <time>2018-07-01T13:44:50Z</time>
      </trkpt>
      <trkpt lat="44.17008" lon="7.64791">
        <ele>2230.76</ele>
        <time>2018-07-01T13:44:51Z</time>
      </trkpt>
      <trkpt lat="44.17006" lon="7.64784">
        <ele>2229.753</ele>
        <time>2018-07-01T13:44:52Z</time>
      </trkpt>
      <trkpt lat="44.17001" lon="7.64775">
        <ele>2229.978</ele>
        <time>2018-07-01T13:44:54Z</time>
      </trkpt>
      <trkpt lat="44.16998" lon="7.64766">
        <ele>2231.329</ele>
        <time>2018-07-01T13:44:56Z</time>
      </trkpt>
      <trkpt lat="44.17" lon="7.64758">
        <ele>2231.016</ele>
        <time>2018-07-01T13:44:58Z</time>
      </trkpt>
      <trkpt lat="44.17007" lon="7.64758">
        <ele>2229.776</ele>
        <time>2018-07-01T13:45:00Z</time>
      </trkpt>
      <trkpt lat="44.17011" lon="7.64762">
        <ele>2229.613</ele>
        <time>2018-07-01T13:45:01Z</time>
      </trkpt>
      <trkpt lat="44.17015" lon="7.64767">
        <ele>2229.208</ele>
        <time>2018-07-01T13:45:02Z</time>
      </trkpt>
      <trkpt lat="44.17018" lon="7.64774">
        <ele>2228.293</ele>
        <time>2018-07-01T13:45:03Z</time>
      </trkpt>
      <trkpt lat="44.17021" lon="7.6478">
        <ele>2227.287</ele>
        <time>2018-07-01T13:45:04Z</time>
      </trkpt>
      <trkpt lat="44.17025" lon="7.64786">
        <ele>2227.323</ele>
        <time>2018-07-01T13:45:05Z</time>
      </trkpt>
      <trkpt lat="44.17029" lon="7.64792">
        <ele>2227.396</ele>
        <time>2018-07-01T13:45:06Z</time>
      </trkpt>
      <trkpt lat="44.17034" lon="7.64794">
        <ele>2226.928</ele>
        <time>2018-07-01T13:45:07Z</time>
      </trkpt>
      <trkpt lat="44.1704" lon="7.64795">
        <ele>2226.861</ele>
        <time>2018-07-01T13:45:08Z</time>
      </trkpt>
      <trkpt lat="44.17045" lon="7.64795">
        <ele>2227.286</ele>
        <time>2018-07-01T13:45:09Z</time>
      </trkpt>
      <trkpt lat="44.17051" lon="7.64795">
        <ele>2226.987</ele>
        <time>2018-07-01T13:45:10Z</time>
      </trkpt>
      <trkpt lat="44.17056" lon="7.64795">
        <ele>2226.656</ele>
        <time>2018-07-01T13:45:11Z</time>
      </trkpt>
      <trkpt lat="44.17062" lon="7.64796">
        <ele>2226.059</ele>
        <time>2018-07-01T13:45:12Z</time>
      </trkpt>
      <trkpt lat="44.17068" lon="7.64796">
        <ele>2224.814</ele>
        <time>2018-07-01T13:45:13Z</time>
      </trkpt>
      <trkpt lat="44.17078" lon="7.64792">
        <ele>2224.308</ele>
        <time>2018-07-01T13:45:15Z</time>
      </trkpt>
      <trkpt lat="44.17084" lon="7.64789">
        <ele>2224.147</ele>
        <time>2018-07-01T13:45:16Z</time>
      </trkpt>
      <trkpt lat="44.17088" lon="7.64782">
        <ele>2223.321</ele>
        <time>2018-07-01T13:45:17Z</time>
      </trkpt>
      <trkpt lat="44.17092" lon="7.64775">
        <ele>2223.057</ele>
        <time>2018-07-01T13:45:18Z</time>
      </trkpt>
      <trkpt lat="44.17095" lon="7.64766">
        <ele>2222.39</ele>
        <time>2018-07-01T13:45:19Z</time>
      </trkpt>
      <trkpt lat="44.17096" lon="7.64758">
        <ele>2221.212</ele>
        <time>2018-07-01T13:45:20Z</time>
      </trkpt>
      <trkpt lat="44.17097" lon="7.6475">
        <ele>2220.695</ele>
        <time>2018-07-01T13:45:21Z</time>
      </trkpt>
      <trkpt lat="44.17097" lon="7.6474">
        <ele>2220.48</ele>
        <time>2018-07-01T13:45:22Z</time>
      </trkpt>
      <trkpt lat="44.17095" lon="7.64733">
        <ele>2219.041</ele>
        <time>2018-07-01T13:45:23Z</time>
      </trkpt>
      <trkpt lat="44.17094" lon="7.64726">
        <ele>2217.276</ele>
        <time>2018-07-01T13:45:24Z</time>
      </trkpt>
      <trkpt lat="44.17092" lon="7.64719">
        <ele>2215.69</ele>
        <time>2018-07-01T13:45:25Z</time>
      </trkpt>
      <trkpt lat="44.17092" lon="7.64711">
        <ele>2214.419</ele>
        <time>2018-07-01T13:45:26Z</time>
      </trkpt>
      <trkpt lat="44.17092" lon="7.64703">
        <ele>2213.908</ele>
        <time>2018-07-01T13:45:27Z</time>
      </trkpt>
      <trkpt lat="44.17098" lon="7.64697">
        <ele>2213.369</ele>
        <time>2018-07-01T13:45:28Z</time>
      </trkpt>
      <trkpt lat="44.17102" lon="7.64688">
        <ele>2213.433</ele>
        <time>2018-07-01T13:45:29Z</time>
      </trkpt>
      <trkpt lat="44.17106" lon="7.64682">
        <ele>2213.119</ele>
        <time>2018-07-01T13:45:30Z</time>
      </trkpt>
      <trkpt lat="44.17108" lon="7.64674">
        <ele>2212.862</ele>
        <time>2018-07-01T13:45:31Z</time>
      </trkpt>
      <trkpt lat="44.17111" lon="7.64668">
        <ele>2211.374</ele>
        <time>2018-07-01T13:45:32Z</time>
      </trkpt>
      <trkpt lat="44.17113" lon="7.6466">
        <ele>2211.017</ele>
        <time>2018-07-01T13:45:33Z</time>
      </trkpt>
      <trkpt lat="44.17116" lon="7.64654">
        <ele>2210.782</ele>
        <time>2018-07-01T13:45:34Z</time>
      </trkpt>
      <trkpt lat="44.17121" lon="7.64648">
        <ele>2210.493</ele>
        <time>2018-07-01T13:45:35Z</time>
      </trkpt>
      <trkpt lat="44.17126" lon="7.64642">
        <ele>2211.087</ele>
        <time>2018-07-01T13:45:36Z</time>
      </trkpt>
      <trkpt lat="44.17132" lon="7.64639">
        <ele>2210.542</ele>
        <time>2018-07-01T13:45:37Z</time>
      </trkpt>
      <trkpt lat="44.17142" lon="7.64637">
        <ele>2208.826</ele>
        <time>2018-07-01T13:45:38Z</time>
      </trkpt>
      <trkpt lat="44.17149" lon="7.64635">
        <ele>2209.108</ele>
        <time>2018-07-01T13:45:39Z</time>
      </trkpt>
      <trkpt lat="44.17157" lon="7.64634">
        <ele>2208.43</ele>
        <time>2018-07-01T13:45:40Z</time>
      </trkpt>
      <trkpt lat="44.17165" lon="7.64634">
        <ele>2208.874</ele>
        <time>2018-07-01T13:45:41Z</time>
      </trkpt>
      <trkpt lat="44.17172" lon="7.64636">
        <ele>2208.29</ele>
        <time>2018-07-01T13:45:42Z</time>
      </trkpt>
      <trkpt lat="44.17178" lon="7.64637">
        <ele>2208.883</ele>
        <time>2018-07-01T13:45:43Z</time>
      </trkpt>
      <trkpt lat="44.17185" lon="7.64638">
        <ele>2208.385</ele>
        <time>2018-07-01T13:45:44Z</time>
      </trkpt>
      <trkpt lat="44.17191" lon="7.6464">
        <ele>2207.788</ele>
        <time>2018-07-01T13:45:45Z</time>
      </trkpt>
      <trkpt lat="44.17196" lon="7.64641">
        <ele>2207.483</ele>
        <time>2018-07-01T13:45:46Z</time>
      </trkpt>
      <trkpt lat="44.172" lon="7.6464">
        <ele>2206.934</ele>
        <time>2018-07-01T13:45:47Z</time>
      </trkpt>
      <trkpt lat="44.17205" lon="7.64636">
        <ele>2205.957</ele>
        <time>2018-07-01T13:45:48Z</time>
      </trkpt>
      <trkpt lat="44.17209" lon="7.6463">
        <ele>2205.4</ele>
        <time>2018-07-01T13:45:49Z</time>
      </trkpt>
      <trkpt lat="44.1721" lon="7.64623">
        <ele>2204.62</ele>
        <time>2018-07-01T13:45:50Z</time>
      </trkpt>
      <trkpt lat="44.17211" lon="7.64615">
        <ele>2204.208</ele>
        <time>2018-07-01T13:45:51Z</time>
      </trkpt>
      <trkpt lat="44.17211" lon="7.64607">
        <ele>2203.547</ele>
        <time>2018-07-01T13:45:52Z</time>
      </trkpt>
      <trkpt lat="44.17213" lon="7.64599">
        <ele>2203.751</ele>
        <time>2018-07-01T13:45:53Z</time>
      </trkpt>
      <trkpt lat="44.17216" lon="7.64593">
        <ele>2202.787</ele>
        <time>2018-07-01T13:45:54Z</time>
      </trkpt>
      <trkpt lat="44.1722" lon="7.64587">
        <ele>2202.99</ele>
        <time>2018-07-01T13:45:55Z</time>
      </trkpt>
      <trkpt lat="44.17226" lon="7.64587">
        <ele>2202.192</ele>
        <time>2018-07-01T13:45:56Z</time>
      </trkpt>
      <trkpt lat="44.17231" lon="7.64588">
        <ele>2202.175</ele>
        <time>2018-07-01T13:45:57Z</time>
      </trkpt>
      <trkpt lat="44.17236" lon="7.64589">
        <ele>2201.44</ele>
        <time>2018-07-01T13:45:58Z</time>
      </trkpt>
      <trkpt lat="44.17241" lon="7.64588">
        <ele>2200.881</ele>
        <time>2018-07-01T13:45:59Z</time>
      </trkpt>
      <trkpt lat="44.17246" lon="7.64585">
        <ele>2200.297</ele>
        <time>2018-07-01T13:46:00Z</time>
      </trkpt>
      <trkpt lat="44.17244" lon="7.64577">
        <ele>2200.023</ele>
        <time>2018-07-01T13:46:01Z</time>
      </trkpt>
      <trkpt lat="44.17242" lon="7.64567">
        <ele>2199.825</ele>
        <time>2018-07-01T13:46:03Z</time>
      </trkpt>
      <trkpt lat="44.17228" lon="7.64566">
        <ele>2198.008</ele>
        <time>2018-07-01T13:46:05Z</time>
      </trkpt>
      <trkpt lat="44.17222" lon="7.64561">
        <ele>2197.361</ele>
        <time>2018-07-01T13:46:06Z</time>
      </trkpt>
      <trkpt lat="44.17217" lon="7.64554">
        <ele>2196.935</ele>
        <time>2018-07-01T13:46:07Z</time>
      </trkpt>
      <trkpt lat="44.17213" lon="7.64546">
        <ele>2196.661</ele>
        <time>2018-07-01T13:46:08Z</time>
      </trkpt>
      <trkpt lat="44.17209" lon="7.64537">
        <ele>2195.864</ele>
        <time>2018-07-01T13:46:09Z</time>
      </trkpt>
      <trkpt lat="44.17206" lon="7.64528">
        <ele>2194.756</ele>
        <time>2018-07-01T13:46:10Z</time>
      </trkpt>
      <trkpt lat="44.17203" lon="7.6452">
        <ele>2193.699</ele>
        <time>2018-07-01T13:46:11Z</time>
      </trkpt>
      <trkpt lat="44.17202" lon="7.64512">
        <ele>2193.784</ele>
        <time>2018-07-01T13:46:12Z</time>
      </trkpt>
      <trkpt lat="44.17201" lon="7.64503">
        <ele>2193.815</ele>
        <time>2018-07-01T13:46:13Z</time>
      </trkpt>
      <trkpt lat="44.17201" lon="7.64497">
        <ele>2192.559</ele>
        <time>2018-07-01T13:46:14Z</time>
      </trkpt>
      <trkpt lat="44.17205" lon="7.6449">
        <ele>2190.303</ele>
        <time>2018-07-01T13:46:15Z</time>
      </trkpt>
      <trkpt lat="44.17207" lon="7.64481">
        <ele>2190.123</ele>
        <time>2018-07-01T13:46:16Z</time>
      </trkpt>
      <trkpt lat="44.17211" lon="7.64474">
        <ele>2188.508</ele>
        <time>2018-07-01T13:46:17Z</time>
      </trkpt>
      <trkpt lat="44.17214" lon="7.64467">
        <ele>2188.467</ele>
        <time>2018-07-01T13:46:18Z</time>
      </trkpt>
      <trkpt lat="44.17218" lon="7.64463">
        <ele>2187.121</ele>
        <time>2018-07-01T13:46:19Z</time>
      </trkpt>
      <trkpt lat="44.1722" lon="7.64458">
        <ele>2185.987</ele>
        <time>2018-07-01T13:46:20Z</time>
      </trkpt>
      <trkpt lat="44.17222" lon="7.64451">
        <ele>2185.56</ele>
        <time>2018-07-01T13:46:21Z</time>
      </trkpt>
      <trkpt lat="44.17222" lon="7.64443">
        <ele>2184.782</ele>
        <time>2018-07-01T13:46:22Z</time>
      </trkpt>
      <trkpt lat="44.17222" lon="7.64435">
        <ele>2184.415</ele>
        <time>2018-07-01T13:46:23Z</time>
      </trkpt>
      <trkpt lat="44.17221" lon="7.64426">
        <ele>2184.13</ele>
        <time>2018-07-01T13:46:24Z</time>
      </trkpt>
      <trkpt lat="44.1722" lon="7.64416">
        <ele>2183.651</ele>
        <time>2018-07-01T13:46:25Z</time>
      </trkpt>
      <trkpt lat="44.1721" lon="7.64403">
        <ele>2181.721</ele>
        <time>2018-07-01T13:46:26Z</time>
      </trkpt>
      <trkpt lat="44.17206" lon="7.64392">
        <ele>2179.941</ele>
        <time>2018-07-01T13:46:27Z</time>
      </trkpt>
      <trkpt lat="44.17202" lon="7.64381">
        <ele>2178.505</ele>
        <time>2018-07-01T13:46:28Z</time>
      </trkpt>
      <trkpt lat="44.17199" lon="7.64371">
        <ele>2177.608</ele>
        <time>2018-07-01T13:46:29Z</time>
      </trkpt>
      <trkpt lat="44.17195" lon="7.64361">
        <ele>2177.114</ele>
        <time>2018-07-01T13:46:30Z</time>
      </trkpt>
      <trkpt lat="44.17192" lon="7.64351">
        <ele>2176.168</ele>
        <time>2018-07-01T13:46:31Z</time>
      </trkpt>
      <trkpt lat="44.17188" lon="7.64342">
        <ele>2175.084</ele>
        <time>2018-07-01T13:46:32Z</time>
      </trkpt>
      <trkpt lat="44.17184" lon="7.64333">
        <ele>2173.327</ele>
        <time>2018-07-01T13:46:33Z</time>
      </trkpt>
      <trkpt lat="44.17181" lon="7.64324">
        <ele>2172.119</ele>
        <time>2018-07-01T13:46:34Z</time>
      </trkpt>
      <trkpt lat="44.17178" lon="7.64315">
        <ele>2171.172</ele>
        <time>2018-07-01T13:46:35Z</time>
      </trkpt>
      <trkpt lat="44.17176" lon="7.64304">
        <ele>2170.367</ele>
        <time>2018-07-01T13:46:36Z</time>
      </trkpt>
      <trkpt lat="44.17175" lon="7.64294">
        <ele>2169.538</ele>
        <time>2018-07-01T13:46:37Z</time>
      </trkpt>
      <trkpt lat="44.17174" lon="7.64284">
        <ele>2168.364</ele>
        <time>2018-07-01T13:46:38Z</time>
      </trkpt>
      <trkpt lat="44.17174" lon="7.64273">
        <ele>2167.306</ele>
        <time>2018-07-01T13:46:39Z</time>
      </trkpt>
      <trkpt lat="44.17175" lon="7.64263">
        <ele>2166.916</ele>
        <time>2018-07-01T13:46:40Z</time>
      </trkpt>
      <trkpt lat="44.17176" lon="7.64254">
        <ele>2165.908</ele>
        <time>2018-07-01T13:46:41Z</time>
      </trkpt>
      <trkpt lat="44.17175" lon="7.64244">
        <ele>2165.488</ele>
        <time>2018-07-01T13:46:42Z</time>
      </trkpt>
      <trkpt lat="44.17173" lon="7.64235">
        <ele>2164.172</ele>
        <time>2018-07-01T13:46:43Z</time>
      </trkpt>
      <trkpt lat="44.1717" lon="7.64226">
        <ele>2162.858</ele>
        <time>2018-07-01T13:46:44Z</time>
      </trkpt>
      <trkpt lat="44.17166" lon="7.64216">
        <ele>2162.041</ele>
        <time>2018-07-01T13:46:45Z</time>
      </trkpt>
      <trkpt lat="44.17164" lon="7.64206">
        <ele>2161.033</ele>
        <time>2018-07-01T13:46:46Z</time>
      </trkpt>
      <trkpt lat="44.17161" lon="7.64196">
        <ele>2160.466</ele>
        <time>2018-07-01T13:46:47Z</time>
      </trkpt>
      <trkpt lat="44.17159" lon="7.64187">
        <ele>2158.811</ele>
        <time>2018-07-01T13:46:48Z</time>
      </trkpt>
      <trkpt lat="44.17156" lon="7.64177">
        <ele>2158.522</ele>
        <time>2018-07-01T13:46:49Z</time>
      </trkpt>
      <trkpt lat="44.17152" lon="7.64169">
        <ele>2158.539</ele>
        <time>2018-07-01T13:46:50Z</time>
      </trkpt>
      <trkpt lat="44.17148" lon="7.64159">
        <ele>2156.201</ele>
        <time>2018-07-01T13:46:51Z</time>
      </trkpt>
      <trkpt lat="44.17144" lon="7.64151">
        <ele>2154.821</ele>
        <time>2018-07-01T13:46:52Z</time>
      </trkpt>
      <trkpt lat="44.17136" lon="7.64141">
        <ele>2153.408</ele>
        <time>2018-07-01T13:46:53Z</time>
      </trkpt>
      <trkpt lat="44.17128" lon="7.6413">
        <ele>2153.245</ele>
        <time>2018-07-01T13:46:54Z</time>
      </trkpt>
      <trkpt lat="44.17122" lon="7.64118">
        <ele>2152.729</ele>
        <time>2018-07-01T13:46:55Z</time>
      </trkpt>
      <trkpt lat="44.17114" lon="7.64106">
        <ele>2152.975</ele>
        <time>2018-07-01T13:46:56Z</time>
      </trkpt>
      <trkpt lat="44.17107" lon="7.64093">
        <ele>2151.868</ele>
        <time>2018-07-01T13:46:57Z</time>
      </trkpt>
      <trkpt lat="44.17101" lon="7.6408">
        <ele>2152.48</ele>
        <time>2018-07-01T13:46:58Z</time>
      </trkpt>
      <trkpt lat="44.17095" lon="7.64067">
        <ele>2152.483</ele>
        <time>2018-07-01T13:46:59Z</time>
      </trkpt>
      <trkpt lat="44.17091" lon="7.64055">
        <ele>2152.728</ele>
        <time>2018-07-01T13:47:00Z</time>
      </trkpt>
      <trkpt lat="44.17086" lon="7.64046">
        <ele>2152.289</ele>
        <time>2018-07-01T13:47:01Z</time>
      </trkpt>
      <trkpt lat="44.1708" lon="7.64037">
        <ele>2153.045</ele>
        <time>2018-07-01T13:47:02Z</time>
      </trkpt>
      <trkpt lat="44.17074" lon="7.64028">
        <ele>2151.647</ele>
        <time>2018-07-01T13:47:03Z</time>
      </trkpt>
      <trkpt lat="44.17064" lon="7.64025">
        <ele>2152.911</ele>
        <time>2018-07-01T13:47:04Z</time>
      </trkpt>
      <trkpt lat="44.17058" lon="7.64024">
        <ele>2153.008</ele>
        <time>2018-07-01T13:47:05Z</time>
      </trkpt>
      <trkpt lat="44.17053" lon="7.64021">
        <ele>2152.116</ele>
        <time>2018-07-01T13:47:06Z</time>
      </trkpt>
      <trkpt lat="44.17048" lon="7.64016">
        <ele>2152.04</ele>
        <time>2018-07-01T13:47:07Z</time>
      </trkpt>
      <trkpt lat="44.17045" lon="7.64008">
        <ele>2151.436</ele>
        <time>2018-07-01T13:47:08Z</time>
      </trkpt>
      <trkpt lat="44.17043" lon="7.63999">
        <ele>2152.249</ele>
        <time>2018-07-01T13:47:09Z</time>
      </trkpt>
      <trkpt lat="44.17041" lon="7.6399">
        <ele>2154.041</ele>
        <time>2018-07-01T13:47:10Z</time>
      </trkpt>
      <trkpt lat="44.17037" lon="7.63982">
        <ele>2153.954</ele>
        <time>2018-07-01T13:47:11Z</time>
      </trkpt>
      <trkpt lat="44.17038" lon="7.63971">
        <ele>2153.979</ele>
        <time>2018-07-01T13:47:12Z</time>
      </trkpt>
      <trkpt lat="44.17039" lon="7.63964">
        <ele>2154.32</ele>
        <time>2018-07-01T13:47:13Z</time>
      </trkpt>
      <trkpt lat="44.17041" lon="7.63956">
        <ele>2153.692</ele>
        <time>2018-07-01T13:47:14Z</time>
      </trkpt>
      <trkpt lat="44.17042" lon="7.63949">
        <ele>2153.273</ele>
        <time>2018-07-01T13:47:15Z</time>
      </trkpt>
      <trkpt lat="44.17047" lon="7.63947">
        <ele>2153.02</ele>
        <time>2018-07-01T13:47:16Z</time>
      </trkpt>
      <trkpt lat="44.17056" lon="7.63944">
        <ele>2150.408</ele>
        <time>2018-07-01T13:47:18Z</time>
      </trkpt>
      <trkpt lat="44.17064" lon="7.63942">
        <ele>2149.621</ele>
        <time>2018-07-01T13:47:19Z</time>
      </trkpt>
      <trkpt lat="44.17074" lon="7.6394">
        <ele>2149.385</ele>
        <time>2018-07-01T13:47:20Z</time>
      </trkpt>
      <trkpt lat="44.17082" lon="7.63938">
        <ele>2149.671</ele>
        <time>2018-07-01T13:47:21Z</time>
      </trkpt>
      <trkpt lat="44.17092" lon="7.63935">
        <ele>2149.814</ele>
        <time>2018-07-01T13:47:22Z</time>
      </trkpt>
      <trkpt lat="44.17102" lon="7.63931">
        <ele>2149.826</ele>
        <time>2018-07-01T13:47:23Z</time>
      </trkpt>
      <trkpt lat="44.17112" lon="7.63926">
        <ele>2149.619</ele>
        <time>2018-07-01T13:47:24Z</time>
      </trkpt>
      <trkpt lat="44.1712" lon="7.63919">
        <ele>2148.554</ele>
        <time>2018-07-01T13:47:25Z</time>
      </trkpt>
      <trkpt lat="44.17129" lon="7.63913">
        <ele>2148.245</ele>
        <time>2018-07-01T13:47:26Z</time>
      </trkpt>
      <trkpt lat="44.17138" lon="7.63908">
        <ele>2148.627</ele>
        <time>2018-07-01T13:47:27Z</time>
      </trkpt>
      <trkpt lat="44.17144" lon="7.63903">
        <ele>2148.768</ele>
        <time>2018-07-01T13:47:28Z</time>
      </trkpt>
      <trkpt lat="44.1715" lon="7.63898">
        <ele>2148.314</ele>
        <time>2018-07-01T13:47:29Z</time>
      </trkpt>
      <trkpt lat="44.17156" lon="7.63895">
        <ele>2148.308</ele>
        <time>2018-07-01T13:47:30Z</time>
      </trkpt>
      <trkpt lat="44.17162" lon="7.63894">
        <ele>2148.414</ele>
        <time>2018-07-01T13:47:31Z</time>
      </trkpt>
      <trkpt lat="44.17169" lon="7.63894">
        <ele>2148.398</ele>
        <time>2018-07-01T13:47:32Z</time>
      </trkpt>
      <trkpt lat="44.17176" lon="7.63896">
        <ele>2149.324</ele>
        <time>2018-07-01T13:47:33Z</time>
      </trkpt>
      <trkpt lat="44.17182" lon="7.639">
        <ele>2150.177</ele>
        <time>2018-07-01T13:47:34Z</time>
      </trkpt>
      <trkpt lat="44.17189" lon="7.63906">
        <ele>2150.399</ele>
        <time>2018-07-01T13:47:35Z</time>
      </trkpt>
      <trkpt lat="44.172" lon="7.63907">
        <ele>2150.382</ele>
        <time>2018-07-01T13:47:36Z</time>
      </trkpt>
      <trkpt lat="44.17208" lon="7.63907">
        <ele>2151.627</ele>
        <time>2018-07-01T13:47:37Z</time>
      </trkpt>
      <trkpt lat="44.17215" lon="7.63906">
        <ele>2151.728</ele>
        <time>2018-07-01T13:47:38Z</time>
      </trkpt>
      <trkpt lat="44.17223" lon="7.63908">
        <ele>2150.497</ele>
        <time>2018-07-01T13:47:39Z</time>
      </trkpt>
      <trkpt lat="44.17231" lon="7.6391">
        <ele>2150.023</ele>
        <time>2018-07-01T13:47:40Z</time>
      </trkpt>
      <trkpt lat="44.17239" lon="7.63914">
        <ele>2150.325</ele>
        <time>2018-07-01T13:47:41Z</time>
      </trkpt>
      <trkpt lat="44.17248" lon="7.63917">
        <ele>2149.808</ele>
        <time>2018-07-01T13:47:42Z</time>
      </trkpt>
      <trkpt lat="44.17258" lon="7.63919">
        <ele>2150.431</ele>
        <time>2018-07-01T13:47:43Z</time>
      </trkpt>
      <trkpt lat="44.17267" lon="7.63921">
        <ele>2149.475</ele>
        <time>2018-07-01T13:47:44Z</time>
      </trkpt>
      <trkpt lat="44.17276" lon="7.63922">
        <ele>2149.141</ele>
        <time>2018-07-01T13:47:45Z</time>
      </trkpt>
      <trkpt lat="44.17284" lon="7.63919">
        <ele>2147.174</ele>
        <time>2018-07-01T13:47:46Z</time>
      </trkpt>
      <trkpt lat="44.17288" lon="7.63914">
        <ele>2146.796</ele>
        <time>2018-07-01T13:47:47Z</time>
      </trkpt>
      <trkpt lat="44.17296" lon="7.63904">
        <ele>2146.999</ele>
        <time>2018-07-01T13:47:48Z</time>
      </trkpt>
      <trkpt lat="44.17306" lon="7.63895">
        <ele>2145.044</ele>
        <time>2018-07-01T13:47:49Z</time>
      </trkpt>
      <trkpt lat="44.17317" lon="7.63888">
        <ele>2146.545</ele>
        <time>2018-07-01T13:47:50Z</time>
      </trkpt>
      <trkpt lat="44.17326" lon="7.63881">
        <ele>2146.446</ele>
        <time>2018-07-01T13:47:51Z</time>
      </trkpt>
      <trkpt lat="44.17335" lon="7.63872">
        <ele>2147.288</ele>
        <time>2018-07-01T13:47:52Z</time>
      </trkpt>
      <trkpt lat="44.17345" lon="7.63867">
        <ele>2147.116</ele>
        <time>2018-07-01T13:47:53Z</time>
      </trkpt>
      <trkpt lat="44.17355" lon="7.63864">
        <ele>2146.708</ele>
        <time>2018-07-01T13:47:54Z</time>
      </trkpt>
      <trkpt lat="44.17365" lon="7.63861">
        <ele>2147.146</ele>
        <time>2018-07-01T13:47:55Z</time>
      </trkpt>
      <trkpt lat="44.17371" lon="7.63857">
        <ele>2147.68</ele>
        <time>2018-07-01T13:47:56Z</time>
      </trkpt>
      <trkpt lat="44.17376" lon="7.63851">
        <ele>2146.616</ele>
        <time>2018-07-01T13:47:57Z</time>
      </trkpt>
      <trkpt lat="44.17381" lon="7.63844">
        <ele>2147.089</ele>
        <time>2018-07-01T13:47:58Z</time>
      </trkpt>
      <trkpt lat="44.17381" lon="7.63835">
        <ele>2146.291</ele>
        <time>2018-07-01T13:47:59Z</time>
      </trkpt>
      <trkpt lat="44.17381" lon="7.63823">
        <ele>2149.864</ele>
        <time>2018-07-01T13:48:00Z</time>
      </trkpt>
      <trkpt lat="44.17381" lon="7.63813">
        <ele>2149.649</ele>
        <time>2018-07-01T13:48:01Z</time>
      </trkpt>
      <trkpt lat="44.17383" lon="7.63807">
        <ele>2148.56</ele>
        <time>2018-07-01T13:48:02Z</time>
      </trkpt>
      <trkpt lat="44.17383" lon="7.63798">
        <ele>2148.667</ele>
        <time>2018-07-01T13:48:03Z</time>
      </trkpt>
      <trkpt lat="44.1738" lon="7.63787">
        <ele>2148.581</ele>
        <time>2018-07-01T13:48:04Z</time>
      </trkpt>
      <trkpt lat="44.17379" lon="7.63776">
        <ele>2148.519</ele>
        <time>2018-07-01T13:48:05Z</time>
      </trkpt>
      <trkpt lat="44.17381" lon="7.63765">
        <ele>2148.808</ele>
        <time>2018-07-01T13:48:06Z</time>
      </trkpt>
      <trkpt lat="44.17384" lon="7.63757">
        <ele>2148.688</ele>
        <time>2018-07-01T13:48:07Z</time>
      </trkpt>
      <trkpt lat="44.17387" lon="7.6375">
        <ele>2148.332</ele>
        <time>2018-07-01T13:48:08Z</time>
      </trkpt>
      <trkpt lat="44.17387" lon="7.63742">
        <ele>2147.258</ele>
        <time>2018-07-01T13:48:09Z</time>
      </trkpt>
      <trkpt lat="44.17387" lon="7.63733">
        <ele>2146.661</ele>
        <time>2018-07-01T13:48:10Z</time>
      </trkpt>
      <trkpt lat="44.17384" lon="7.63724">
        <ele>2148.663</ele>
        <time>2018-07-01T13:48:11Z</time>
      </trkpt>
      <trkpt lat="44.17382" lon="7.63716">
        <ele>2149.976</ele>
        <time>2018-07-01T13:48:12Z</time>
      </trkpt>
      <trkpt lat="44.17378" lon="7.63709">
        <ele>2149.161</ele>
        <time>2018-07-01T13:48:13Z</time>
      </trkpt>
      <trkpt lat="44.1737" lon="7.63709">
        <ele>2147.532</ele>
        <time>2018-07-01T13:48:14Z</time>
      </trkpt>
      <trkpt lat="44.17361" lon="7.63709">
        <ele>2147.261</ele>
        <time>2018-07-01T13:48:15Z</time>
      </trkpt>
      <trkpt lat="44.17354" lon="7.63709">
        <ele>2147.121</ele>
        <time>2018-07-01T13:48:16Z</time>
      </trkpt>
      <trkpt lat="44.17347" lon="7.63707">
        <ele>2146.613</ele>
        <time>2018-07-01T13:48:17Z</time>
      </trkpt>
      <trkpt lat="44.17341" lon="7.63702">
        <ele>2146.008</ele>
        <time>2018-07-01T13:48:18Z</time>
      </trkpt>
      <trkpt lat="44.17336" lon="7.63694">
        <ele>2144.258</ele>
        <time>2018-07-01T13:48:19Z</time>
      </trkpt>
      <trkpt lat="44.17329" lon="7.63686">
        <ele>2141.572</ele>
        <time>2018-07-01T13:48:20Z</time>
      </trkpt>
      <trkpt lat="44.1732" lon="7.6368">
        <ele>2141.028</ele>
        <time>2018-07-01T13:48:21Z</time>
      </trkpt>
      <trkpt lat="44.17313" lon="7.63674">
        <ele>2140.391</ele>
        <time>2018-07-01T13:48:22Z</time>
      </trkpt>
      <trkpt lat="44.17306" lon="7.63669">
        <ele>2138.963</ele>
        <time>2018-07-01T13:48:23Z</time>
      </trkpt>
      <trkpt lat="44.173" lon="7.63666">
        <ele>2138.836</ele>
        <time>2018-07-01T13:48:24Z</time>
      </trkpt>
      <trkpt lat="44.17292" lon="7.63665">
        <ele>2138.431</ele>
        <time>2018-07-01T13:48:25Z</time>
      </trkpt>
      <trkpt lat="44.17285" lon="7.63663">
        <ele>2137.242</ele>
        <time>2018-07-01T13:48:26Z</time>
      </trkpt>
      <trkpt lat="44.17277" lon="7.63662">
        <ele>2137.477</ele>
        <time>2018-07-01T13:48:27Z</time>
      </trkpt>
      <trkpt lat="44.17269" lon="7.6366">
        <ele>2136.961</ele>
        <time>2018-07-01T13:48:28Z</time>
      </trkpt>
      <trkpt lat="44.1726" lon="7.63658">
        <ele>2136.327</ele>
        <time>2018-07-01T13:48:29Z</time>
      </trkpt>
      <trkpt lat="44.17253" lon="7.63656">
        <ele>2133.808</ele>
        <time>2018-07-01T13:48:30Z</time>
      </trkpt>
      <trkpt lat="44.17246" lon="7.63652">
        <ele>2133.139</ele>
        <time>2018-07-01T13:48:31Z</time>
      </trkpt>
      <trkpt lat="44.17238" lon="7.63651">
        <ele>2133.013</ele>
        <time>2018-07-01T13:48:32Z</time>
      </trkpt>
      <trkpt lat="44.17234" lon="7.63646">
        <ele>2133.449</ele>
        <time>2018-07-01T13:48:33Z</time>
      </trkpt>
      <trkpt lat="44.1723" lon="7.63641">
        <ele>2134.222</ele>
        <time>2018-07-01T13:48:34Z</time>
      </trkpt>
      <trkpt lat="44.17227" lon="7.63635">
        <ele>2134.574</ele>
        <time>2018-07-01T13:48:35Z</time>
      </trkpt>
      <trkpt lat="44.17226" lon="7.63626">
        <ele>2134.257</ele>
        <time>2018-07-01T13:48:36Z</time>
      </trkpt>
      <trkpt lat="44.17223" lon="7.63619">
        <ele>2134.622</ele>
        <time>2018-07-01T13:48:37Z</time>
      </trkpt>
      <trkpt lat="44.17219" lon="7.6361">
        <ele>2134.163</ele>
        <time>2018-07-01T13:48:38Z</time>
      </trkpt>
      <trkpt lat="44.17214" lon="7.63604">
        <ele>2135.013</ele>
        <time>2018-07-01T13:48:39Z</time>
      </trkpt>
      <trkpt lat="44.17211" lon="7.63597">
        <ele>2134.043</ele>
        <time>2018-07-01T13:48:40Z</time>
      </trkpt>
      <trkpt lat="44.17205" lon="7.63593">
        <ele>2133.107</ele>
        <time>2018-07-01T13:48:41Z</time>
      </trkpt>
      <trkpt lat="44.17196" lon="7.63589">
        <ele>2133.408</ele>
        <time>2018-07-01T13:48:42Z</time>
      </trkpt>
      <trkpt lat="44.17189" lon="7.63585">
        <ele>2134.033</ele>
        <time>2018-07-01T13:48:43Z</time>
      </trkpt>
      <trkpt lat="44.17183" lon="7.6358">
        <ele>2133.217</ele>
        <time>2018-07-01T13:48:44Z</time>
      </trkpt>
      <trkpt lat="44.17175" lon="7.63578">
        <ele>2133.423</ele>
        <time>2018-07-01T13:48:45Z</time>
      </trkpt>
      <trkpt lat="44.17168" lon="7.63575">
        <ele>2131.976</ele>
        <time>2018-07-01T13:48:46Z</time>
      </trkpt>
      <trkpt lat="44.17161" lon="7.63573">
        <ele>2133.818</ele>
        <time>2018-07-01T13:48:47Z</time>
      </trkpt>
      <trkpt lat="44.17153" lon="7.63572">
        <ele>2133.151</ele>
        <time>2018-07-01T13:48:48Z</time>
      </trkpt>
      <trkpt lat="44.17145" lon="7.63571">
        <ele>2131.846</ele>
        <time>2018-07-01T13:48:49Z</time>
      </trkpt>
      <trkpt lat="44.17138" lon="7.63571">
        <ele>2132.257</ele>
        <time>2018-07-01T13:48:50Z</time>
      </trkpt>
      <trkpt lat="44.17131" lon="7.63569">
        <ele>2133.023</ele>
        <time>2018-07-01T13:48:51Z</time>
      </trkpt>
      <trkpt lat="44.17125" lon="7.63565">
        <ele>2132.983</ele>
        <time>2018-07-01T13:48:52Z</time>
      </trkpt>
      <trkpt lat="44.1712" lon="7.6356">
        <ele>2133.611</ele>
        <time>2018-07-01T13:48:53Z</time>
      </trkpt>
      <trkpt lat="44.17117" lon="7.63554">
        <ele>2133.908</ele>
        <time>2018-07-01T13:48:54Z</time>
      </trkpt>
      <trkpt lat="44.17117" lon="7.63546">
        <ele>2132.144</ele>
        <time>2018-07-01T13:48:55Z</time>
      </trkpt>
      <trkpt lat="44.17118" lon="7.63538">
        <ele>2132.228</ele>
        <time>2018-07-01T13:48:56Z</time>
      </trkpt>
      <trkpt lat="44.17119" lon="7.63532">
        <ele>2132.944</ele>
        <time>2018-07-01T13:48:57Z</time>
      </trkpt>
      <trkpt lat="44.1712" lon="7.63524">
        <ele>2133.797</ele>
        <time>2018-07-01T13:48:58Z</time>
      </trkpt>
      <trkpt lat="44.17121" lon="7.63516">
        <ele>2136.129</ele>
        <time>2018-07-01T13:48:59Z</time>
      </trkpt>
      <trkpt lat="44.17121" lon="7.63507">
        <ele>2136.182</ele>
        <time>2018-07-01T13:49:00Z</time>
      </trkpt>
      <trkpt lat="44.17121" lon="7.63499">
        <ele>2136.157</ele>
        <time>2018-07-01T13:49:01Z</time>
      </trkpt>
      <trkpt lat="44.1712" lon="7.6349">
        <ele>2136.088</ele>
        <time>2018-07-01T13:49:02Z</time>
      </trkpt>
      <trkpt lat="44.17121" lon="7.63481">
        <ele>2135.839</ele>
        <time>2018-07-01T13:49:03Z</time>
      </trkpt>
      <trkpt lat="44.1712" lon="7.63471">
        <ele>2134.501</ele>
        <time>2018-07-01T13:49:04Z</time>
      </trkpt>
      <trkpt lat="44.17116" lon="7.63463">
        <ele>2134.421</ele>
        <time>2018-07-01T13:49:05Z</time>
      </trkpt>
      <trkpt lat="44.17113" lon="7.63454">
        <ele>2133.508</ele>
        <time>2018-07-01T13:49:06Z</time>
      </trkpt>
      <trkpt lat="44.17111" lon="7.63445">
        <ele>2133.345</ele>
        <time>2018-07-01T13:49:07Z</time>
      </trkpt>
      <trkpt lat="44.17109" lon="7.63437">
        <ele>2133.389</ele>
        <time>2018-07-01T13:49:08Z</time>
      </trkpt>
      <trkpt lat="44.17107" lon="7.63429">
        <ele>2134.345</ele>
        <time>2018-07-01T13:49:09Z</time>
      </trkpt>
      <trkpt lat="44.17106" lon="7.63421">
        <ele>2133.748</ele>
        <time>2018-07-01T13:49:10Z</time>
      </trkpt>
      <trkpt lat="44.17103" lon="7.63413">
        <ele>2132.91</ele>
        <time>2018-07-01T13:49:11Z</time>
      </trkpt>
      <trkpt lat="44.171" lon="7.63405">
        <ele>2132.573</ele>
        <time>2018-07-01T13:49:12Z</time>
      </trkpt>
      <trkpt lat="44.17096" lon="7.63398">
        <ele>2133.018</ele>
        <time>2018-07-01T13:49:13Z</time>
      </trkpt>
      <trkpt lat="44.1709" lon="7.63393">
        <ele>2132.819</ele>
        <time>2018-07-01T13:49:14Z</time>
      </trkpt>
      <trkpt lat="44.17083" lon="7.6339">
        <ele>2133.361</ele>
        <time>2018-07-01T13:49:15Z</time>
      </trkpt>
      <trkpt lat="44.17077" lon="7.63387">
        <ele>2132.521</ele>
        <time>2018-07-01T13:49:16Z</time>
      </trkpt>
      <trkpt lat="44.17071" lon="7.63386">
        <ele>2131.913</ele>
        <time>2018-07-01T13:49:17Z</time>
      </trkpt>
      <trkpt lat="44.17064" lon="7.63385">
        <ele>2131.208</ele>
        <time>2018-07-01T13:49:18Z</time>
      </trkpt>
      <trkpt lat="44.17058" lon="7.63385">
        <ele>2131.758</ele>
        <time>2018-07-01T13:49:19Z</time>
      </trkpt>
      <trkpt lat="44.17051" lon="7.63383">
        <ele>2131.412</ele>
        <time>2018-07-01T13:49:20Z</time>
      </trkpt>
      <trkpt lat="44.17045" lon="7.6338">
        <ele>2130.978</ele>
        <time>2018-07-01T13:49:21Z</time>
      </trkpt>
      <trkpt lat="44.17038" lon="7.63376">
        <ele>2131.921</ele>
        <time>2018-07-01T13:49:22Z</time>
      </trkpt>
      <trkpt lat="44.17032" lon="7.6337">
        <ele>2130.253</ele>
        <time>2018-07-01T13:49:23Z</time>
      </trkpt>
      <trkpt lat="44.17025" lon="7.63365">
        <ele>2129.756</ele>
        <time>2018-07-01T13:49:24Z</time>
      </trkpt>
      <trkpt lat="44.17019" lon="7.6336">
        <ele>2129.581</ele>
        <time>2018-07-01T13:49:25Z</time>
      </trkpt>
      <trkpt lat="44.17012" lon="7.63356">
        <ele>2129.592</ele>
        <time>2018-07-01T13:49:26Z</time>
      </trkpt>
      <trkpt lat="44.17007" lon="7.63352">
        <ele>2127.733</ele>
        <time>2018-07-01T13:49:27Z</time>
      </trkpt>
      <trkpt lat="44.17001" lon="7.63347">
        <ele>2126.723</ele>
        <time>2018-07-01T13:49:28Z</time>
      </trkpt>
      <trkpt lat="44.16995" lon="7.63342">
        <ele>2127.115</ele>
        <time>2018-07-01T13:49:29Z</time>
      </trkpt>
      <trkpt lat="44.1699" lon="7.63335">
        <ele>2126.008</ele>
        <time>2018-07-01T13:49:30Z</time>
      </trkpt>
      <trkpt lat="44.16984" lon="7.63328">
        <ele>2124.585</ele>
        <time>2018-07-01T13:49:31Z</time>
      </trkpt>
      <trkpt lat="44.16979" lon="7.63321">
        <ele>2123.339</ele>
        <time>2018-07-01T13:49:32Z</time>
      </trkpt>
      <trkpt lat="44.16971" lon="7.63314">
        <ele>2122.485</ele>
        <time>2018-07-01T13:49:33Z</time>
      </trkpt>
      <trkpt lat="44.16966" lon="7.63307">
        <ele>2119.548</ele>
        <time>2018-07-01T13:49:34Z</time>
      </trkpt>
      <trkpt lat="44.1696" lon="7.633">
        <ele>2119.79</ele>
        <time>2018-07-01T13:49:35Z</time>
      </trkpt>
      <trkpt lat="44.16954" lon="7.63293">
        <ele>2118.813</ele>
        <time>2018-07-01T13:49:36Z</time>
      </trkpt>
      <trkpt lat="44.16948" lon="7.63289">
        <ele>2117.568</ele>
        <time>2018-07-01T13:49:37Z</time>
      </trkpt>
      <trkpt lat="44.16943" lon="7.63286">
        <ele>2117.429</ele>
        <time>2018-07-01T13:49:38Z</time>
      </trkpt>
      <trkpt lat="44.16936" lon="7.63285">
        <ele>2117.944</ele>
        <time>2018-07-01T13:49:39Z</time>
      </trkpt>
      <trkpt lat="44.16929" lon="7.63285">
        <ele>2117.605</ele>
        <time>2018-07-01T13:49:40Z</time>
      </trkpt>
      <trkpt lat="44.16921" lon="7.63287">
        <ele>2117.715</ele>
        <time>2018-07-01T13:49:41Z</time>
      </trkpt>
      <trkpt lat="44.16914" lon="7.63289">
        <ele>2116.908</ele>
        <time>2018-07-01T13:49:42Z</time>
      </trkpt>
      <trkpt lat="44.16907" lon="7.6329">
        <ele>2116.086</ele>
        <time>2018-07-01T13:49:43Z</time>
      </trkpt>
      <trkpt lat="44.16899" lon="7.63291">
        <ele>2115.59</ele>
        <time>2018-07-01T13:49:44Z</time>
      </trkpt>
      <trkpt lat="44.16892" lon="7.63292">
        <ele>2114.276</ele>
        <time>2018-07-01T13:49:45Z</time>
      </trkpt>
      <trkpt lat="44.16885" lon="7.63295">
        <ele>2113.529</ele>
        <time>2018-07-01T13:49:46Z</time>
      </trkpt>
      <trkpt lat="44.1688" lon="7.63301">
        <ele>2112.181</ele>
        <time>2018-07-01T13:49:47Z</time>
      </trkpt>
      <trkpt lat="44.16873" lon="7.63305">
        <ele>2111.434</ele>
        <time>2018-07-01T13:49:48Z</time>
      </trkpt>
      <trkpt lat="44.16865" lon="7.63308">
        <ele>2111.469</ele>
        <time>2018-07-01T13:49:49Z</time>
      </trkpt>
      <trkpt lat="44.16858" lon="7.63309">
        <ele>2109.78</ele>
        <time>2018-07-01T13:49:50Z</time>
      </trkpt>
      <trkpt lat="44.16849" lon="7.63308">
        <ele>2108.685</ele>
        <time>2018-07-01T13:49:51Z</time>
      </trkpt>
      <trkpt lat="44.16841" lon="7.63308">
        <ele>2107.789</ele>
        <time>2018-07-01T13:49:52Z</time>
      </trkpt>
      <trkpt lat="44.16832" lon="7.63307">
        <ele>2106.817</ele>
        <time>2018-07-01T13:49:53Z</time>
      </trkpt>
      <trkpt lat="44.16824" lon="7.63307">
        <ele>2106.108</ele>
        <time>2018-07-01T13:49:54Z</time>
      </trkpt>
      <trkpt lat="44.16815" lon="7.63307">
        <ele>2106.32</ele>
        <time>2018-07-01T13:49:55Z</time>
      </trkpt>
      <trkpt lat="44.16806" lon="7.63309">
        <ele>2105.284</ele>
        <time>2018-07-01T13:49:56Z</time>
      </trkpt>
      <trkpt lat="44.16797" lon="7.63311">
        <ele>2104.87</ele>
        <time>2018-07-01T13:49:57Z</time>
      </trkpt>
      <trkpt lat="44.16789" lon="7.63312">
        <ele>2104.463</ele>
        <time>2018-07-01T13:49:58Z</time>
      </trkpt>
      <trkpt lat="44.1678" lon="7.63313">
        <ele>2104.465</ele>
        <time>2018-07-01T13:49:59Z</time>
      </trkpt>
      <trkpt lat="44.16773" lon="7.63311">
        <ele>2104.548</ele>
        <time>2018-07-01T13:50:00Z</time>
      </trkpt>
      <trkpt lat="44.16765" lon="7.6331">
        <ele>2103.883</ele>
        <time>2018-07-01T13:50:01Z</time>
      </trkpt>
      <trkpt lat="44.16759" lon="7.63309">
        <ele>2104.434</ele>
        <time>2018-07-01T13:50:02Z</time>
      </trkpt>
      <trkpt lat="44.16754" lon="7.6331">
        <ele>2105.317</ele>
        <time>2018-07-01T13:50:03Z</time>
      </trkpt>
      <trkpt lat="44.16749" lon="7.63311">
        <ele>2105.087</ele>
        <time>2018-07-01T13:50:04Z</time>
      </trkpt>
      <trkpt lat="44.16741" lon="7.63311">
        <ele>2105.415</ele>
        <time>2018-07-01T13:50:06Z</time>
      </trkpt>
      <trkpt lat="44.16739" lon="7.63326">
        <ele>2105.508</ele>
        <time>2018-07-01T13:50:07Z</time>
      </trkpt>
      <trkpt lat="44.16737" lon="7.63338">
        <ele>2105.253</ele>
        <time>2018-07-01T13:50:08Z</time>
      </trkpt>
      <trkpt lat="44.16734" lon="7.63352">
        <ele>2105.567</ele>
        <time>2018-07-01T13:50:09Z</time>
      </trkpt>
      <trkpt lat="44.16731" lon="7.63361">
        <ele>2105.973</ele>
        <time>2018-07-01T13:50:10Z</time>
      </trkpt>
      <trkpt lat="44.16725" lon="7.63378">
        <ele>2107.366</ele>
        <time>2018-07-01T13:50:11Z</time>
      </trkpt>
      <trkpt lat="44.1672" lon="7.63392">
        <ele>2106.228</ele>
        <time>2018-07-01T13:50:12Z</time>
      </trkpt>
      <trkpt lat="44.16715" lon="7.6341">
        <ele>2106.251</ele>
        <time>2018-07-01T13:50:13Z</time>
      </trkpt>
      <trkpt lat="44.16709" lon="7.63423">
        <ele>2105.936</ele>
        <time>2018-07-01T13:50:14Z</time>
      </trkpt>
      <trkpt lat="44.16703" lon="7.63438">
        <ele>2106.547</ele>
        <time>2018-07-01T13:50:15Z</time>
      </trkpt>
      <trkpt lat="44.16698" lon="7.63451">
        <ele>2106.612</ele>
        <time>2018-07-01T13:50:16Z</time>
      </trkpt>
      <trkpt lat="44.16695" lon="7.63463">
        <ele>2105.332</ele>
        <time>2018-07-01T13:50:17Z</time>
      </trkpt>
      <trkpt lat="44.16692" lon="7.63472">
        <ele>2104.505</ele>
        <time>2018-07-01T13:50:18Z</time>
      </trkpt>
      <trkpt lat="44.16689" lon="7.63482">
        <ele>2103.808</ele>
        <time>2018-07-01T13:50:19Z</time>
      </trkpt>
      <trkpt lat="44.16686" lon="7.6349">
        <ele>2103.873</ele>
        <time>2018-07-01T13:50:20Z</time>
      </trkpt>
      <trkpt lat="44.16682" lon="7.63498">
        <ele>2104.097</ele>
        <time>2018-07-01T13:50:21Z</time>
      </trkpt>
      <trkpt lat="44.16677" lon="7.63505">
        <ele>2103.963</ele>
        <time>2018-07-01T13:50:22Z</time>
      </trkpt>
      <trkpt lat="44.16671" lon="7.63514">
        <ele>2103.386</ele>
        <time>2018-07-01T13:50:23Z</time>
      </trkpt>
      <trkpt lat="44.16663" lon="7.63515">
        <ele>2100.748</ele>
        <time>2018-07-01T13:50:24Z</time>
      </trkpt>
      <trkpt lat="44.16656" lon="7.63516">
        <ele>2101.061</ele>
        <time>2018-07-01T13:50:25Z</time>
      </trkpt>
      <trkpt lat="44.16648" lon="7.63518">
        <ele>2101.056</ele>
        <time>2018-07-01T13:50:26Z</time>
      </trkpt>
      <trkpt lat="44.1664" lon="7.63521">
        <ele>2100.447</ele>
        <time>2018-07-01T13:50:27Z</time>
      </trkpt>
      <trkpt lat="44.16634" lon="7.63525">
        <ele>2100.644</ele>
        <time>2018-07-01T13:50:28Z</time>
      </trkpt>
      <trkpt lat="44.16627" lon="7.6353">
        <ele>2099.105</ele>
        <time>2018-07-01T13:50:29Z</time>
      </trkpt>
      <trkpt lat="44.16622" lon="7.63535">
        <ele>2098.915</ele>
        <time>2018-07-01T13:50:30Z</time>
      </trkpt>
      <trkpt lat="44.16616" lon="7.63536">
        <ele>2098.308</ele>
        <time>2018-07-01T13:50:31Z</time>
      </trkpt>
      <trkpt lat="44.1661" lon="7.63537">
        <ele>2098.176</ele>
        <time>2018-07-01T13:50:32Z</time>
      </trkpt>
      <trkpt lat="44.16602" lon="7.63538">
        <ele>2097.13</ele>
        <time>2018-07-01T13:50:33Z</time>
      </trkpt>
      <trkpt lat="44.16595" lon="7.63538">
        <ele>2094.626</ele>
        <time>2018-07-01T13:50:34Z</time>
      </trkpt>
      <trkpt lat="44.1659" lon="7.63538">
        <ele>2093.869</ele>
        <time>2018-07-01T13:50:35Z</time>
      </trkpt>
      <trkpt lat="44.16584" lon="7.63538">
        <ele>2093.821</ele>
        <time>2018-07-01T13:50:36Z</time>
      </trkpt>
      <trkpt lat="44.16578" lon="7.63534">
        <ele>2093.684</ele>
        <time>2018-07-01T13:50:37Z</time>
      </trkpt>
      <trkpt lat="44.16573" lon="7.6353">
        <ele>2094.059</ele>
        <time>2018-07-01T13:50:38Z</time>
      </trkpt>
      <trkpt lat="44.16568" lon="7.63526">
        <ele>2094.11</ele>
        <time>2018-07-01T13:50:39Z</time>
      </trkpt>
      <trkpt lat="44.16563" lon="7.63522">
        <ele>2093.533</ele>
        <time>2018-07-01T13:50:40Z</time>
      </trkpt>
      <trkpt lat="44.16557" lon="7.63519">
        <ele>2093.223</ele>
        <time>2018-07-01T13:50:41Z</time>
      </trkpt>
      <trkpt lat="44.16552" lon="7.63514">
        <ele>2092.915</ele>
        <time>2018-07-01T13:50:42Z</time>
      </trkpt>
      <trkpt lat="44.16546" lon="7.63508">
        <ele>2093.008</ele>
        <time>2018-07-01T13:50:43Z</time>
      </trkpt>
      <trkpt lat="44.16542" lon="7.635">
        <ele>2092.075</ele>
        <time>2018-07-01T13:50:44Z</time>
      </trkpt>
      <trkpt lat="44.16538" lon="7.6349">
        <ele>2090.669</ele>
        <time>2018-07-01T13:50:45Z</time>
      </trkpt>
      <trkpt lat="44.16534" lon="7.63479">
        <ele>2090.115</ele>
        <time>2018-07-01T13:50:46Z</time>
      </trkpt>
      <trkpt lat="44.16531" lon="7.63468">
        <ele>2088.968</ele>
        <time>2018-07-01T13:50:47Z</time>
      </trkpt>
      <trkpt lat="44.16528" lon="7.63458">
        <ele>2088.81</ele>
        <time>2018-07-01T13:50:48Z</time>
      </trkpt>
      <trkpt lat="44.16525" lon="7.63449">
        <ele>2089.033</ele>
        <time>2018-07-01T13:50:49Z</time>
      </trkpt>
      <trkpt lat="44.16525" lon="7.6344">
        <ele>2088.858</ele>
        <time>2018-07-01T13:50:50Z</time>
      </trkpt>
      <trkpt lat="44.16524" lon="7.6343">
        <ele>2089.419</ele>
        <time>2018-07-01T13:50:51Z</time>
      </trkpt>
      <trkpt lat="44.16523" lon="7.63418">
        <ele>2089.967</ele>
        <time>2018-07-01T13:50:52Z</time>
      </trkpt>
      <trkpt lat="44.16524" lon="7.63406">
        <ele>2089.181</ele>
        <time>2018-07-01T13:50:53Z</time>
      </trkpt>
      <trkpt lat="44.16524" lon="7.63394">
        <ele>2088.019</ele>
        <time>2018-07-01T13:50:54Z</time>
      </trkpt>
      <trkpt lat="44.16525" lon="7.63382">
        <ele>2086.508</ele>
        <time>2018-07-01T13:50:55Z</time>
      </trkpt>
      <trkpt lat="44.16525" lon="7.63371">
        <ele>2085.048</ele>
        <time>2018-07-01T13:50:56Z</time>
      </trkpt>
      <trkpt lat="44.16523" lon="7.6336">
        <ele>2084.212</ele>
        <time>2018-07-01T13:50:57Z</time>
      </trkpt>
      <trkpt lat="44.16521" lon="7.6335">
        <ele>2082.638</ele>
        <time>2018-07-01T13:50:58Z</time>
      </trkpt>
      <trkpt lat="44.16518" lon="7.63339">
        <ele>2081.831</ele>
        <time>2018-07-01T13:50:59Z</time>
      </trkpt>
      <trkpt lat="44.16514" lon="7.63329">
        <ele>2080.953</ele>
        <time>2018-07-01T13:51:00Z</time>
      </trkpt>
      <trkpt lat="44.16512" lon="7.63317">
        <ele>2080.016</ele>
        <time>2018-07-01T13:51:01Z</time>
      </trkpt>
      <trkpt lat="44.16509" lon="7.63305">
        <ele>2079.391</ele>
        <time>2018-07-01T13:51:02Z</time>
      </trkpt>
      <trkpt lat="44.16506" lon="7.63293">
        <ele>2078.562</ele>
        <time>2018-07-01T13:51:03Z</time>
      </trkpt>
      <trkpt lat="44.16503" lon="7.63282">
        <ele>2077.446</ele>
        <time>2018-07-01T13:51:04Z</time>
      </trkpt>
      <trkpt lat="44.165" lon="7.63269">
        <ele>2076.388</ele>
        <time>2018-07-01T13:51:05Z</time>
      </trkpt>
      <trkpt lat="44.16498" lon="7.63256">
        <ele>2074.916</ele>
        <time>2018-07-01T13:51:06Z</time>
      </trkpt>
      <trkpt lat="44.16496" lon="7.63244">
        <ele>2074.208</ele>
        <time>2018-07-01T13:51:07Z</time>
      </trkpt>
      <trkpt lat="44.16493" lon="7.6323">
        <ele>2073.756</ele>
        <time>2018-07-01T13:51:08Z</time>
      </trkpt>
      <trkpt lat="44.1649" lon="7.63216">
        <ele>2073.97</ele>
        <time>2018-07-01T13:51:09Z</time>
      </trkpt>
      <trkpt lat="44.16488" lon="7.63202">
        <ele>2074.056</ele>
        <time>2018-07-01T13:51:10Z</time>
      </trkpt>
      <trkpt lat="44.16486" lon="7.63192">
        <ele>2073.239</ele>
        <time>2018-07-01T13:51:11Z</time>
      </trkpt>
      <trkpt lat="44.16486" lon="7.63181">
        <ele>2073.081</ele>
        <time>2018-07-01T13:51:12Z</time>
      </trkpt>
      <trkpt lat="44.16486" lon="7.6317">
        <ele>2072.474</ele>
        <time>2018-07-01T13:51:13Z</time>
      </trkpt>
      <trkpt lat="44.16485" lon="7.63161">
        <ele>2072.279</ele>
        <time>2018-07-01T13:51:14Z</time>
      </trkpt>
      <trkpt lat="44.16484" lon="7.63153">
        <ele>2072.35</ele>
        <time>2018-07-01T13:51:15Z</time>
      </trkpt>
      <trkpt lat="44.16482" lon="7.63147">
        <ele>2071.554</ele>
        <time>2018-07-01T13:51:16Z</time>
      </trkpt>
      <trkpt lat="44.16476" lon="7.63142">
        <ele>2071.356</ele>
        <time>2018-07-01T13:51:17Z</time>
      </trkpt>
      <trkpt lat="44.16471" lon="7.63139">
        <ele>2071.411</ele>
        <time>2018-07-01T13:51:18Z</time>
      </trkpt>
      <trkpt lat="44.16465" lon="7.63136">
        <ele>2071.208</ele>
        <time>2018-07-01T13:51:19Z</time>
      </trkpt>
      <trkpt lat="44.1646" lon="7.63137">
        <ele>2072.367</ele>
        <time>2018-07-01T13:51:20Z</time>
      </trkpt>
      <trkpt lat="44.16456" lon="7.63141">
        <ele>2070.771</ele>
        <time>2018-07-01T13:51:21Z</time>
      </trkpt>
      <trkpt lat="44.16451" lon="7.63145">
        <ele>2070.127</ele>
        <time>2018-07-01T13:51:22Z</time>
      </trkpt>
      <trkpt lat="44.16444" lon="7.63148">
        <ele>2071.28</ele>
        <time>2018-07-01T13:51:23Z</time>
      </trkpt>
      <trkpt lat="44.16436" lon="7.63148">
        <ele>2073.112</ele>
        <time>2018-07-01T13:51:24Z</time>
      </trkpt>
      <trkpt lat="44.16428" lon="7.63149">
        <ele>2073.875</ele>
        <time>2018-07-01T13:51:25Z</time>
      </trkpt>
      <trkpt lat="44.1642" lon="7.63146">
        <ele>2074.04</ele>
        <time>2018-07-01T13:51:26Z</time>
      </trkpt>
      <trkpt lat="44.16416" lon="7.63139">
        <ele>2074.671</ele>
        <time>2018-07-01T13:51:27Z</time>
      </trkpt>
      <trkpt lat="44.16413" lon="7.63133">
        <ele>2074.287</ele>
        <time>2018-07-01T13:51:28Z</time>
      </trkpt>
      <trkpt lat="44.16414" lon="7.63116">
        <ele>2074.042</ele>
        <time>2018-07-01T13:51:30Z</time>
      </trkpt>
      <trkpt lat="44.16415" lon="7.63105">
        <ele>2073.426</ele>
        <time>2018-07-01T13:51:31Z</time>
      </trkpt>
      <trkpt lat="44.16413" lon="7.63098">
        <ele>2072.608</ele>
        <time>2018-07-01T13:51:32Z</time>
      </trkpt>
      <trkpt lat="44.16408" lon="7.63093">
        <ele>2072.93</ele>
        <time>2018-07-01T13:51:33Z</time>
      </trkpt>
      <trkpt lat="44.16403" lon="7.63089">
        <ele>2072.234</ele>
        <time>2018-07-01T13:51:34Z</time>
      </trkpt>
      <trkpt lat="44.16398" lon="7.63087">
        <ele>2072.59</ele>
        <time>2018-07-01T13:51:35Z</time>
      </trkpt>
      <trkpt lat="44.16393" lon="7.63087">
        <ele>2072.143</ele>
        <time>2018-07-01T13:51:36Z</time>
      </trkpt>
      <trkpt lat="44.16383" lon="7.6309">
        <ele>2071.965</ele>
        <time>2018-07-01T13:51:38Z</time>
      </trkpt>
      <trkpt lat="44.16378" lon="7.63095">
        <ele>2072.348</ele>
        <time>2018-07-01T13:51:39Z</time>
      </trkpt>
      <trkpt lat="44.16377" lon="7.63102">
        <ele>2073.043</ele>
        <time>2018-07-01T13:51:40Z</time>
      </trkpt>
      <trkpt lat="44.16374" lon="7.63111">
        <ele>2075.064</ele>
        <time>2018-07-01T13:51:41Z</time>
      </trkpt>
      <trkpt lat="44.16372" lon="7.63117">
        <ele>2075.012</ele>
        <time>2018-07-01T13:51:42Z</time>
      </trkpt>
      <trkpt lat="44.1637" lon="7.63123">
        <ele>2075.332</ele>
        <time>2018-07-01T13:51:43Z</time>
      </trkpt>
      <trkpt lat="44.16369" lon="7.6313">
        <ele>2074.405</ele>
        <time>2018-07-01T13:51:44Z</time>
      </trkpt>
      <trkpt lat="44.16368" lon="7.63136">
        <ele>2075.108</ele>
        <time>2018-07-01T13:51:45Z</time>
      </trkpt>
      <trkpt lat="44.16364" lon="7.63145">
        <ele>2074.953</ele>
        <time>2018-07-01T13:51:47Z</time>
      </trkpt>
      <trkpt lat="44.1636" lon="7.63144">
        <ele>2075.217</ele>
        <time>2018-07-01T13:51:48Z</time>
      </trkpt>
      <trkpt lat="44.16356" lon="7.63141">
        <ele>2075.713</ele>
        <time>2018-07-01T13:51:50Z</time>
      </trkpt>
      <trkpt lat="44.16355" lon="7.63133">
        <ele>2077.386</ele>
        <time>2018-07-01T13:51:53Z</time>
      </trkpt>
      <trkpt lat="44.16356" lon="7.63125">
        <ele>2078.248</ele>
        <time>2018-07-01T13:51:55Z</time>
      </trkpt>
      <trkpt lat="44.16357" lon="7.63116">
        <ele>2080.121</ele>
        <time>2018-07-01T13:51:57Z</time>
      </trkpt>
      <trkpt lat="44.16357" lon="7.63104">
        <ele>2081.676</ele>
        <time>2018-07-01T13:51:59Z</time>
      </trkpt>
      <trkpt lat="44.16357" lon="7.6309">
        <ele>2080.817</ele>
        <time>2018-07-01T13:52:01Z</time>
      </trkpt>
      <trkpt lat="44.16356" lon="7.63076">
        <ele>2081.921</ele>
        <time>2018-07-01T13:52:03Z</time>
      </trkpt>
      <trkpt lat="44.16355" lon="7.63062">
        <ele>2082.041</ele>
        <time>2018-07-01T13:52:05Z</time>
      </trkpt>
      <trkpt lat="44.16354" lon="7.63055">
        <ele>2081.705</ele>
        <time>2018-07-01T13:52:06Z</time>
      </trkpt>
      <trkpt lat="44.16353" lon="7.63047">
        <ele>2082.908</ele>
        <time>2018-07-01T13:52:07Z</time>
      </trkpt>
      <trkpt lat="44.16352" lon="7.63039">
        <ele>2084.834</ele>
        <time>2018-07-01T13:52:08Z</time>
      </trkpt>
      <trkpt lat="44.16352" lon="7.63031">
        <ele>2085.458</ele>
        <time>2018-07-01T13:52:09Z</time>
      </trkpt>
      <trkpt lat="44.1635" lon="7.63022">
        <ele>2087.474</ele>
        <time>2018-07-01T13:52:10Z</time>
      </trkpt>
      <trkpt lat="44.16349" lon="7.63015">
        <ele>2087.517</ele>
        <time>2018-07-01T13:52:11Z</time>
      </trkpt>
      <trkpt lat="44.16349" lon="7.63006">
        <ele>2087.479</ele>
        <time>2018-07-01T13:52:12Z</time>
      </trkpt>
      <trkpt lat="44.16348" lon="7.63">
        <ele>2088.662</ele>
        <time>2018-07-01T13:52:13Z</time>
      </trkpt>
      <trkpt lat="44.1635" lon="7.62988">
        <ele>2090.597</ele>
        <time>2018-07-01T13:52:15Z</time>
      </trkpt>
      <trkpt lat="44.16352" lon="7.62981">
        <ele>2091.078</ele>
        <time>2018-07-01T13:52:16Z</time>
      </trkpt>
      <trkpt lat="44.16354" lon="7.62974">
        <ele>2091.297</ele>
        <time>2018-07-01T13:52:17Z</time>
      </trkpt>
      <trkpt lat="44.16356" lon="7.62968">
        <ele>2091.323</ele>
        <time>2018-07-01T13:52:18Z</time>
      </trkpt>
      <trkpt lat="44.16359" lon="7.62961">
        <ele>2091.525</ele>
        <time>2018-07-01T13:52:19Z</time>
      </trkpt>
      <trkpt lat="44.16363" lon="7.62955">
        <ele>2091.808</ele>
        <time>2018-07-01T13:52:20Z</time>
      </trkpt>
      <trkpt lat="44.16366" lon="7.62949">
        <ele>2091.851</ele>
        <time>2018-07-01T13:52:21Z</time>
      </trkpt>
      <trkpt lat="44.16369" lon="7.62943">
        <ele>2091.975</ele>
        <time>2018-07-01T13:52:22Z</time>
      </trkpt>
      <trkpt lat="44.16372" lon="7.62936">
        <ele>2092.151</ele>
        <time>2018-07-01T13:52:23Z</time>
      </trkpt>
      <trkpt lat="44.16374" lon="7.6293">
        <ele>2091.744</ele>
        <time>2018-07-01T13:52:24Z</time>
      </trkpt>
      <trkpt lat="44.16377" lon="7.62923">
        <ele>2092.556</ele>
        <time>2018-07-01T13:52:25Z</time>
      </trkpt>
      <trkpt lat="44.1638" lon="7.62916">
        <ele>2093.799</ele>
        <time>2018-07-01T13:52:26Z</time>
      </trkpt>
      <trkpt lat="44.16382" lon="7.62908">
        <ele>2094.634</ele>
        <time>2018-07-01T13:52:27Z</time>
      </trkpt>
      <trkpt lat="44.16384" lon="7.629">
        <ele>2096.665</ele>
        <time>2018-07-01T13:52:28Z</time>
      </trkpt>
      <trkpt lat="44.16388" lon="7.62892">
        <ele>2095.651</ele>
        <time>2018-07-01T13:52:29Z</time>
      </trkpt>
      <trkpt lat="44.1639" lon="7.62885">
        <ele>2095.601</ele>
        <time>2018-07-01T13:52:30Z</time>
      </trkpt>
      <trkpt lat="44.16391" lon="7.62877">
        <ele>2097.011</ele>
        <time>2018-07-01T13:52:31Z</time>
      </trkpt>
      <trkpt lat="44.16395" lon="7.6287">
        <ele>2097.408</ele>
        <time>2018-07-01T13:52:32Z</time>
      </trkpt>
      <trkpt lat="44.16397" lon="7.62862">
        <ele>2097.397</ele>
        <time>2018-07-01T13:52:33Z</time>
      </trkpt>
      <trkpt lat="44.16399" lon="7.62856">
        <ele>2097.431</ele>
        <time>2018-07-01T13:52:34Z</time>
      </trkpt>
      <trkpt lat="44.164" lon="7.62849">
        <ele>2098.177</ele>
        <time>2018-07-01T13:52:35Z</time>
      </trkpt>
      <trkpt lat="44.164" lon="7.62842">
        <ele>2098.51</ele>
        <time>2018-07-01T13:52:36Z</time>
      </trkpt>
      <trkpt lat="44.164" lon="7.62834">
        <ele>2099.052</ele>
        <time>2018-07-01T13:52:37Z</time>
      </trkpt>
      <trkpt lat="44.16401" lon="7.62825">
        <ele>2099.275</ele>
        <time>2018-07-01T13:52:38Z</time>
      </trkpt>
      <trkpt lat="44.16401" lon="7.62815">
        <ele>2100.19</ele>
        <time>2018-07-01T13:52:39Z</time>
      </trkpt>
      <trkpt lat="44.164" lon="7.62807">
        <ele>2101.411</ele>
        <time>2018-07-01T13:52:40Z</time>
      </trkpt>
      <trkpt lat="44.164" lon="7.628">
        <ele>2101.666</ele>
        <time>2018-07-01T13:52:41Z</time>
      </trkpt>
      <trkpt lat="44.16401" lon="7.62792">
        <ele>2101.629</ele>
        <time>2018-07-01T13:52:42Z</time>
      </trkpt>
      <trkpt lat="44.16403" lon="7.62784">
        <ele>2100.921</ele>
        <time>2018-07-01T13:52:43Z</time>
      </trkpt>
      <trkpt lat="44.16407" lon="7.62776">
        <ele>2100.608</ele>
        <time>2018-07-01T13:52:44Z</time>
      </trkpt>
      <trkpt lat="44.1641" lon="7.6277">
        <ele>2100.428</ele>
        <time>2018-07-01T13:52:45Z</time>
      </trkpt>
      <trkpt lat="44.16414" lon="7.62763">
        <ele>2101.572</ele>
        <time>2018-07-01T13:52:46Z</time>
      </trkpt>
      <trkpt lat="44.16417" lon="7.62756">
        <ele>2102.138</ele>
        <time>2018-07-01T13:52:47Z</time>
      </trkpt>
      <trkpt lat="44.16419" lon="7.6275">
        <ele>2102.631</ele>
        <time>2018-07-01T13:52:48Z</time>
      </trkpt>
      <trkpt lat="44.16422" lon="7.62742">
        <ele>2102.993</ele>
        <time>2018-07-01T13:52:49Z</time>
      </trkpt>
      <trkpt lat="44.16423" lon="7.62735">
        <ele>2103.676</ele>
        <time>2018-07-01T13:52:50Z</time>
      </trkpt>
      <trkpt lat="44.16426" lon="7.62729">
        <ele>2103.731</ele>
        <time>2018-07-01T13:52:51Z</time>
      </trkpt>
      <trkpt lat="44.16429" lon="7.62723">
        <ele>2104.722</ele>
        <time>2018-07-01T13:52:52Z</time>
      </trkpt>
      <trkpt lat="44.16433" lon="7.62719">
        <ele>2104.881</ele>
        <time>2018-07-01T13:52:53Z</time>
      </trkpt>
      <trkpt lat="44.16436" lon="7.62713">
        <ele>2106.361</ele>
        <time>2018-07-01T13:52:54Z</time>
      </trkpt>
      <trkpt lat="44.16438" lon="7.62706">
        <ele>2106.617</ele>
        <time>2018-07-01T13:52:55Z</time>
      </trkpt>
      <trkpt lat="44.1644" lon="7.62699">
        <ele>2106.508</ele>
        <time>2018-07-01T13:52:56Z</time>
      </trkpt>
      <trkpt lat="44.16442" lon="7.62691">
        <ele>2107.44</ele>
        <time>2018-07-01T13:52:57Z</time>
      </trkpt>
      <trkpt lat="44.16445" lon="7.62685">
        <ele>2107.554</ele>
        <time>2018-07-01T13:52:58Z</time>
      </trkpt>
      <trkpt lat="44.16448" lon="7.62678">
        <ele>2107.33</ele>
        <time>2018-07-01T13:52:59Z</time>
      </trkpt>
      <trkpt lat="44.16452" lon="7.6267">
        <ele>2108.483</ele>
        <time>2018-07-01T13:53:00Z</time>
      </trkpt>
      <trkpt lat="44.16457" lon="7.62664">
        <ele>2109.525</ele>
        <time>2018-07-01T13:53:01Z</time>
      </trkpt>
      <trkpt lat="44.16461" lon="7.62659">
        <ele>2110.198</ele>
        <time>2018-07-01T13:53:02Z</time>
      </trkpt>
      <trkpt lat="44.16466" lon="7.62652">
        <ele>2110.553</ele>
        <time>2018-07-01T13:53:03Z</time>
      </trkpt>
      <trkpt lat="44.16469" lon="7.62644">
        <ele>2110.664</ele>
        <time>2018-07-01T13:53:04Z</time>
      </trkpt>
      <trkpt lat="44.16473" lon="7.62636">
        <ele>2110.914</ele>
        <time>2018-07-01T13:53:05Z</time>
      </trkpt>
      <trkpt lat="44.16476" lon="7.62629">
        <ele>2111.354</ele>
        <time>2018-07-01T13:53:06Z</time>
      </trkpt>
      <trkpt lat="44.16479" lon="7.62623">
        <ele>2111.709</ele>
        <time>2018-07-01T13:53:07Z</time>
      </trkpt>
      <trkpt lat="44.16484" lon="7.62618">
        <ele>2112.708</ele>
        <time>2018-07-01T13:53:08Z</time>
      </trkpt>
      <trkpt lat="44.16489" lon="7.62613">
        <ele>2112.813</ele>
        <time>2018-07-01T13:53:09Z</time>
      </trkpt>
      <trkpt lat="44.16493" lon="7.62606">
        <ele>2112.847</ele>
        <time>2018-07-01T13:53:10Z</time>
      </trkpt>
      <trkpt lat="44.16499" lon="7.626">
        <ele>2112.863</ele>
        <time>2018-07-01T13:53:11Z</time>
      </trkpt>
      <trkpt lat="44.16504" lon="7.62592">
        <ele>2112.616</ele>
        <time>2018-07-01T13:53:12Z</time>
      </trkpt>
      <trkpt lat="44.16509" lon="7.62585">
        <ele>2112.758</ele>
        <time>2018-07-01T13:53:13Z</time>
      </trkpt>
      <trkpt lat="44.16513" lon="7.62577">
        <ele>2113.111</ele>
        <time>2018-07-01T13:53:14Z</time>
      </trkpt>
      <trkpt lat="44.16515" lon="7.62566">
        <ele>2113.346</ele>
        <time>2018-07-01T13:53:15Z</time>
      </trkpt>
      <trkpt lat="44.16517" lon="7.62558">
        <ele>2113.177</ele>
        <time>2018-07-01T13:53:16Z</time>
      </trkpt>
      <trkpt lat="44.1652" lon="7.6255">
        <ele>2113.248</ele>
        <time>2018-07-01T13:53:17Z</time>
      </trkpt>
      <trkpt lat="44.16521" lon="7.6254">
        <ele>2113.661</ele>
        <time>2018-07-01T13:53:18Z</time>
      </trkpt>
      <trkpt lat="44.16523" lon="7.62529">
        <ele>2113.317</ele>
        <time>2018-07-01T13:53:19Z</time>
      </trkpt>
      <trkpt lat="44.16528" lon="7.62521">
        <ele>2114.408</ele>
        <time>2018-07-01T13:53:20Z</time>
      </trkpt>
      <trkpt lat="44.16531" lon="7.62512">
        <ele>2114.676</ele>
        <time>2018-07-01T13:53:21Z</time>
      </trkpt>
      <trkpt lat="44.16535" lon="7.62504">
        <ele>2115.65</ele>
        <time>2018-07-01T13:53:22Z</time>
      </trkpt>
      <trkpt lat="44.16538" lon="7.62496">
        <ele>2115.966</ele>
        <time>2018-07-01T13:53:23Z</time>
      </trkpt>
      <trkpt lat="44.16542" lon="7.62489">
        <ele>2116.999</ele>
        <time>2018-07-01T13:53:24Z</time>
      </trkpt>
      <trkpt lat="44.16547" lon="7.62484">
        <ele>2116.951</ele>
        <time>2018-07-01T13:53:25Z</time>
      </trkpt>
      <trkpt lat="44.16556" lon="7.6248">
        <ele>2118.114</ele>
        <time>2018-07-01T13:53:26Z</time>
      </trkpt>
      <trkpt lat="44.16562" lon="7.62477">
        <ele>2119.149</ele>
        <time>2018-07-01T13:53:27Z</time>
      </trkpt>
      <trkpt lat="44.16567" lon="7.62475">
        <ele>2118.47</ele>
        <time>2018-07-01T13:53:28Z</time>
      </trkpt>
      <trkpt lat="44.16576" lon="7.62473">
        <ele>2119.254</ele>
        <time>2018-07-01T13:53:30Z</time>
      </trkpt>
      <trkpt lat="44.16584" lon="7.62471">
        <ele>2120.256</ele>
        <time>2018-07-01T13:53:32Z</time>
      </trkpt>
      <trkpt lat="44.16591" lon="7.62468">
        <ele>2121.111</ele>
        <time>2018-07-01T13:53:34Z</time>
      </trkpt>
      <trkpt lat="44.16595" lon="7.62462">
        <ele>2122.808</ele>
        <time>2018-07-01T13:53:36Z</time>
      </trkpt>
      <trkpt lat="44.16594" lon="7.62456">
        <ele>2125.237</ele>
        <time>2018-07-01T13:53:39Z</time>
      </trkpt>
      <trkpt lat="44.1659" lon="7.62454">
        <ele>2128.641</ele>
        <time>2018-07-01T13:53:58Z</time>
      </trkpt>
      <trkpt lat="44.16585" lon="7.62458">
        <ele>2128.947</ele>
        <time>2018-07-01T13:54:02Z</time>
      </trkpt>
      <trkpt lat="44.1659" lon="7.62458">
        <ele>2131.62</ele>
        <time>2018-07-01T13:54:47Z</time>
      </trkpt>
      <trkpt lat="44.16595" lon="7.62457">
        <ele>2135.092</ele>
        <time>2018-07-01T13:55:18Z</time>
      </trkpt>
      <trkpt lat="44.1659" lon="7.62457">
        <ele>2130.865</ele>
        <time>2018-07-01T13:55:25Z</time>
      </trkpt>
      <trkpt lat="44.16585" lon="7.6246">
        <ele>2128.98</ele>
        <time>2018-07-01T13:55:31Z</time>
      </trkpt>
      <trkpt lat="44.1659" lon="7.62458">
        <ele>2128.771</ele>
        <time>2018-07-01T13:55:55Z</time>
      </trkpt>
      <trkpt lat="44.16594" lon="7.62456">
        <ele>2128.192</ele>
        <time>2018-07-01T13:56:00Z</time>
      </trkpt>
      <trkpt lat="44.16595" lon="7.62462">
        <ele>2129.773</ele>
        <time>2018-07-01T13:56:36Z</time>
      </trkpt>
      <trkpt lat="44.166" lon="7.62464">
        <ele>2128.22</ele>
        <time>2018-07-01T13:56:59Z</time>
      </trkpt>
      <trkpt lat="44.16598" lon="7.6247">
        <ele>2128.808</ele>
        <time>2018-07-01T13:57:05Z</time>
      </trkpt>
      <trkpt lat="44.16597" lon="7.62464">
        <ele>2130.011</ele>
        <time>2018-07-01T14:01:46Z</time>
      </trkpt>
      <trkpt lat="44.16592" lon="7.62461">
        <ele>2126.435</ele>
        <time>2018-07-01T14:01:55Z</time>
      </trkpt>
      <trkpt lat="44.16593" lon="7.62454">
        <ele>2128.691</ele>
        <time>2018-07-01T14:02:26Z</time>
      </trkpt>
      <trkpt lat="44.16589" lon="7.62463">
        <ele>2128.244</ele>
        <time>2018-07-01T14:03:56Z</time>
      </trkpt>
      <trkpt lat="44.16589" lon="7.62457">
        <ele>2118.716</ele>
        <time>2018-07-01T14:04:13Z</time>
      </trkpt>
      <trkpt lat="44.16583" lon="7.62458">
        <ele>2130.669</ele>
        <time>2018-07-01T14:07:00Z</time>
      </trkpt>
      <trkpt lat="44.16579" lon="7.62462">
        <ele>2130.414</ele>
        <time>2018-07-01T14:07:18Z</time>
      </trkpt>
      <trkpt lat="44.16575" lon="7.62465">
        <ele>2123.025</ele>
        <time>2018-07-01T14:07:20Z</time>
      </trkpt>
      <trkpt lat="44.16568" lon="7.62466">
        <ele>2122.737</ele>
        <time>2018-07-01T14:07:22Z</time>
      </trkpt>
      <trkpt lat="44.16561" lon="7.62465">
        <ele>2120.649</ele>
        <time>2018-07-01T14:07:24Z</time>
      </trkpt>
      <trkpt lat="44.16556" lon="7.62464">
        <ele>2121.013</ele>
        <time>2018-07-01T14:07:26Z</time>
      </trkpt>
      <trkpt lat="44.1655" lon="7.62467">
        <ele>2122.808</ele>
        <time>2018-07-01T14:07:28Z</time>
      </trkpt>
      <trkpt lat="44.16543" lon="7.62474">
        <ele>2124.585</ele>
        <time>2018-07-01T14:07:30Z</time>
      </trkpt>
      <trkpt lat="44.16538" lon="7.62483">
        <ele>2125.889</ele>
        <time>2018-07-01T14:07:32Z</time>
      </trkpt>
      <trkpt lat="44.16535" lon="7.62488">
        <ele>2125.925</ele>
        <time>2018-07-01T14:07:33Z</time>
      </trkpt>
      <trkpt lat="44.16533" lon="7.62494">
        <ele>2125.238</ele>
        <time>2018-07-01T14:07:34Z</time>
      </trkpt>
      <trkpt lat="44.1653" lon="7.625">
        <ele>2124.97</ele>
        <time>2018-07-01T14:07:35Z</time>
      </trkpt>
      <trkpt lat="44.16525" lon="7.62508">
        <ele>2124.993</ele>
        <time>2018-07-01T14:07:37Z</time>
      </trkpt>
      <trkpt lat="44.16521" lon="7.62513">
        <ele>2125.168</ele>
        <time>2018-07-01T14:07:38Z</time>
      </trkpt>
      <trkpt lat="44.16517" lon="7.62518">
        <ele>2124.849</ele>
        <time>2018-07-01T14:07:39Z</time>
      </trkpt>
      <trkpt lat="44.16514" lon="7.62524">
        <ele>2124.378</ele>
        <time>2018-07-01T14:07:40Z</time>
      </trkpt>
      <trkpt lat="44.1651" lon="7.6253">
        <ele>2124.233</ele>
        <time>2018-07-01T14:07:41Z</time>
      </trkpt>
      <trkpt lat="44.16507" lon="7.62535">
        <ele>2124.126</ele>
        <time>2018-07-01T14:07:42Z</time>
      </trkpt>
      <trkpt lat="44.165" lon="7.62542">
        <ele>2125.608</ele>
        <time>2018-07-01T14:07:44Z</time>
      </trkpt>
      <trkpt lat="44.16492" lon="7.62546">
        <ele>2126.779</ele>
        <time>2018-07-01T14:07:46Z</time>
      </trkpt>
      <trkpt lat="44.16486" lon="7.62546">
        <ele>2127.483</ele>
        <time>2018-07-01T14:07:47Z</time>
      </trkpt>
      <trkpt lat="44.16482" lon="7.62547">
        <ele>2128.469</ele>
        <time>2018-07-01T14:07:48Z</time>
      </trkpt>
      <trkpt lat="44.16474" lon="7.62552">
        <ele>2128.832</ele>
        <time>2018-07-01T14:07:50Z</time>
      </trkpt>
      <trkpt lat="44.16469" lon="7.62555">
        <ele>2130.064</ele>
        <time>2018-07-01T14:07:51Z</time>
      </trkpt>
      <trkpt lat="44.16464" lon="7.6256">
        <ele>2131.457</ele>
        <time>2018-07-01T14:07:52Z</time>
      </trkpt>
      <trkpt lat="44.16458" lon="7.62565">
        <ele>2131.322</ele>
        <time>2018-07-01T14:07:53Z</time>
      </trkpt>
      <trkpt lat="44.16453" lon="7.62569">
        <ele>2131.923</ele>
        <time>2018-07-01T14:07:54Z</time>
      </trkpt>
      <trkpt lat="44.16447" lon="7.62573">
        <ele>2132.518</ele>
        <time>2018-07-01T14:07:55Z</time>
      </trkpt>
      <trkpt lat="44.16441" lon="7.62578">
        <ele>2133.498</ele>
        <time>2018-07-01T14:07:56Z</time>
      </trkpt>
      <trkpt lat="44.16434" lon="7.62581">
        <ele>2134.017</ele>
        <time>2018-07-01T14:07:57Z</time>
      </trkpt>
      <trkpt lat="44.16425" lon="7.62579">
        <ele>2135.608</ele>
        <time>2018-07-01T14:07:58Z</time>
      </trkpt>
      <trkpt lat="44.16418" lon="7.62582">
        <ele>2135.483</ele>
        <time>2018-07-01T14:07:59Z</time>
      </trkpt>
      <trkpt lat="44.1641" lon="7.62585">
        <ele>2136.437</ele>
        <time>2018-07-01T14:08:00Z</time>
      </trkpt>
      <trkpt lat="44.16403" lon="7.62584">
        <ele>2138.083</ele>
        <time>2018-07-01T14:08:01Z</time>
      </trkpt>
      <trkpt lat="44.16394" lon="7.62587">
        <ele>2138.966</ele>
        <time>2018-07-01T14:08:02Z</time>
      </trkpt>
      <trkpt lat="44.16385" lon="7.62586">
        <ele>2140.018</ele>
        <time>2018-07-01T14:08:03Z</time>
      </trkpt>
      <trkpt lat="44.16378" lon="7.62582">
        <ele>2139.911</ele>
        <time>2018-07-01T14:08:04Z</time>
      </trkpt>
      <trkpt lat="44.1637" lon="7.62585">
        <ele>2140.326</ele>
        <time>2018-07-01T14:08:05Z</time>
      </trkpt>
      <trkpt lat="44.16362" lon="7.62583">
        <ele>2141.177</ele>
        <time>2018-07-01T14:08:06Z</time>
      </trkpt>
      <trkpt lat="44.16355" lon="7.62584">
        <ele>2141.532</ele>
        <time>2018-07-01T14:08:07Z</time>
      </trkpt>
      <trkpt lat="44.16349" lon="7.62584">
        <ele>2141.892</ele>
        <time>2018-07-01T14:08:08Z</time>
      </trkpt>
      <trkpt lat="44.16343" lon="7.62584">
        <ele>2142.111</ele>
        <time>2018-07-01T14:08:09Z</time>
      </trkpt>
      <trkpt lat="44.16339" lon="7.62584">
        <ele>2142.608</ele>
        <time>2018-07-01T14:08:10Z</time>
      </trkpt>
      <trkpt lat="44.16334" lon="7.62582">
        <ele>2142.765</ele>
        <time>2018-07-01T14:08:11Z</time>
      </trkpt>
      <trkpt lat="44.16325" lon="7.62589">
        <ele>2143.449</ele>
        <time>2018-07-01T14:08:12Z</time>
      </trkpt>
      <trkpt lat="44.16318" lon="7.62596">
        <ele>2143.315</ele>
        <time>2018-07-01T14:08:13Z</time>
      </trkpt>
      <trkpt lat="44.16311" lon="7.62598">
        <ele>2143.258</ele>
        <time>2018-07-01T14:08:14Z</time>
      </trkpt>
      <trkpt lat="44.16305" lon="7.62601">
        <ele>2143.19</ele>
        <time>2018-07-01T14:08:15Z</time>
      </trkpt>
      <trkpt lat="44.16297" lon="7.62603">
        <ele>2142.793</ele>
        <time>2018-07-01T14:08:16Z</time>
      </trkpt>
      <trkpt lat="44.16288" lon="7.62611">
        <ele>2138.598</ele>
        <time>2018-07-01T14:08:18Z</time>
      </trkpt>
      <trkpt lat="44.16279" lon="7.62609">
        <ele>2138.749</ele>
        <time>2018-07-01T14:08:19Z</time>
      </trkpt>
      <trkpt lat="44.1627" lon="7.62609">
        <ele>2147.399</ele>
        <time>2018-07-01T14:08:20Z</time>
      </trkpt>
      <trkpt lat="44.16263" lon="7.62609">
        <ele>2146.307</ele>
        <time>2018-07-01T14:08:21Z</time>
      </trkpt>
      <trkpt lat="44.16256" lon="7.62612">
        <ele>2145.627</ele>
        <time>2018-07-01T14:08:22Z</time>
      </trkpt>
      <trkpt lat="44.16249" lon="7.62609">
        <ele>2145.608</ele>
        <time>2018-07-01T14:08:23Z</time>
      </trkpt>
      <trkpt lat="44.16241" lon="7.62613">
        <ele>2145.211</ele>
        <time>2018-07-01T14:08:24Z</time>
      </trkpt>
      <trkpt lat="44.16236" lon="7.62612">
        <ele>2146.055</ele>
        <time>2018-07-01T14:08:25Z</time>
      </trkpt>
      <trkpt lat="44.16231" lon="7.62612">
        <ele>2147.291</ele>
        <time>2018-07-01T14:08:26Z</time>
      </trkpt>
      <trkpt lat="44.16226" lon="7.62611">
        <ele>2149.364</ele>
        <time>2018-07-01T14:08:28Z</time>
      </trkpt>
      <trkpt lat="44.16219" lon="7.62617">
        <ele>2150.366</ele>
        <time>2018-07-01T14:08:30Z</time>
      </trkpt>
      <trkpt lat="44.16216" lon="7.62621">
        <ele>2150.579</ele>
        <time>2018-07-01T14:08:31Z</time>
      </trkpt>
      <trkpt lat="44.1621" lon="7.62627">
        <ele>2150.884</ele>
        <time>2018-07-01T14:08:33Z</time>
      </trkpt>
      <trkpt lat="44.16203" lon="7.62627">
        <ele>2152.465</ele>
        <time>2018-07-01T14:08:35Z</time>
      </trkpt>
      <trkpt lat="44.16196" lon="7.62629">
        <ele>2151.822</ele>
        <time>2018-07-01T14:08:37Z</time>
      </trkpt>
      <trkpt lat="44.16188" lon="7.62628">
        <ele>2151.562</ele>
        <time>2018-07-01T14:08:39Z</time>
      </trkpt>
      <trkpt lat="44.16182" lon="7.62626">
        <ele>2151.708</ele>
        <time>2018-07-01T14:08:41Z</time>
      </trkpt>
      <trkpt lat="44.16176" lon="7.62625">
        <ele>2153.008</ele>
        <time>2018-07-01T14:08:43Z</time>
      </trkpt>
      <trkpt lat="44.16172" lon="7.62621">
        <ele>2149.684</ele>
        <time>2018-07-01T14:09:12Z</time>
      </trkpt>
      <trkpt lat="44.16169" lon="7.62616">
        <ele>2152.088</ele>
        <time>2018-07-01T14:09:24Z</time>
      </trkpt>
      <trkpt lat="44.16163" lon="7.62609">
        <ele>2152.454</ele>
        <time>2018-07-01T14:09:27Z</time>
      </trkpt>
      <trkpt lat="44.16155" lon="7.62604">
        <ele>2152.287</ele>
        <time>2018-07-01T14:09:29Z</time>
      </trkpt>
      <trkpt lat="44.16152" lon="7.62601">
        <ele>2152.279</ele>
        <time>2018-07-01T14:09:30Z</time>
      </trkpt>
      <trkpt lat="44.16147" lon="7.62597">
        <ele>2152.152</ele>
        <time>2018-07-01T14:09:31Z</time>
      </trkpt>
      <trkpt lat="44.1614" lon="7.62591">
        <ele>2151.837</ele>
        <time>2018-07-01T14:09:32Z</time>
      </trkpt>
      <trkpt lat="44.16134" lon="7.62589">
        <ele>2151.538</ele>
        <time>2018-07-01T14:09:33Z</time>
      </trkpt>
      <trkpt lat="44.16129" lon="7.62588">
        <ele>2151.824</ele>
        <time>2018-07-01T14:09:34Z</time>
      </trkpt>
      <trkpt lat="44.16124" lon="7.62586">
        <ele>2151.604</ele>
        <time>2018-07-01T14:09:35Z</time>
      </trkpt>
      <trkpt lat="44.16119" lon="7.62583">
        <ele>2151.814</ele>
        <time>2018-07-01T14:09:36Z</time>
      </trkpt>
      <trkpt lat="44.16111" lon="7.62583">
        <ele>2151.108</ele>
        <time>2018-07-01T14:09:38Z</time>
      </trkpt>
      <trkpt lat="44.16106" lon="7.62586">
        <ele>2151.674</ele>
        <time>2018-07-01T14:09:39Z</time>
      </trkpt>
      <trkpt lat="44.16097" lon="7.62595">
        <ele>2151.948</ele>
        <time>2018-07-01T14:09:41Z</time>
      </trkpt>
      <trkpt lat="44.16093" lon="7.62603">
        <ele>2152.844</ele>
        <time>2018-07-01T14:09:42Z</time>
      </trkpt>
      <trkpt lat="44.16088" lon="7.62608">
        <ele>2153.597</ele>
        <time>2018-07-01T14:09:43Z</time>
      </trkpt>
      <trkpt lat="44.16081" lon="7.62611">
        <ele>2153.249</ele>
        <time>2018-07-01T14:09:45Z</time>
      </trkpt>
      <trkpt lat="44.16074" lon="7.62612">
        <ele>2151.962</ele>
        <time>2018-07-01T14:09:47Z</time>
      </trkpt>
      <trkpt lat="44.16067" lon="7.62618">
        <ele>2151.617</ele>
        <time>2018-07-01T14:09:49Z</time>
      </trkpt>
      <trkpt lat="44.16063" lon="7.62622">
        <ele>2152.548</ele>
        <time>2018-07-01T14:09:50Z</time>
      </trkpt>
      <trkpt lat="44.16061" lon="7.62629">
        <ele>2152.697</ele>
        <time>2018-07-01T14:09:51Z</time>
      </trkpt>
      <trkpt lat="44.16056" lon="7.62632">
        <ele>2152.623</ele>
        <time>2018-07-01T14:09:52Z</time>
      </trkpt>
      <trkpt lat="44.16046" lon="7.62634">
        <ele>2152.025</ele>
        <time>2018-07-01T14:09:54Z</time>
      </trkpt>
      <trkpt lat="44.16041" lon="7.62636">
        <ele>2152.108</ele>
        <time>2018-07-01T14:09:55Z</time>
      </trkpt>
      <trkpt lat="44.16039" lon="7.62629">
        <ele>2151.591</ele>
        <time>2018-07-01T14:09:56Z</time>
      </trkpt>
      <trkpt lat="44.16035" lon="7.62622">
        <ele>2150.825</ele>
        <time>2018-07-01T14:09:58Z</time>
      </trkpt>
      <trkpt lat="44.1603" lon="7.62619">
        <ele>2151.011</ele>
        <time>2018-07-01T14:10:00Z</time>
      </trkpt>
      <trkpt lat="44.16026" lon="7.62614">
        <ele>2151.524</ele>
        <time>2018-07-01T14:10:01Z</time>
      </trkpt>
      <trkpt lat="44.16022" lon="7.6261">
        <ele>2148.226</ele>
        <time>2018-07-01T14:10:02Z</time>
      </trkpt>
      <trkpt lat="44.16017" lon="7.6261">
        <ele>2147.279</ele>
        <time>2018-07-01T14:10:03Z</time>
      </trkpt>
      <trkpt lat="44.16007" lon="7.62617">
        <ele>2144.954</ele>
        <time>2018-07-01T14:10:05Z</time>
      </trkpt>
      <trkpt lat="44.16001" lon="7.62624">
        <ele>2144.955</ele>
        <time>2018-07-01T14:10:06Z</time>
      </trkpt>
      <trkpt lat="44.15993" lon="7.62623">
        <ele>2146.276</ele>
        <time>2018-07-01T14:10:07Z</time>
      </trkpt>
      <trkpt lat="44.15987" lon="7.62631">
        <ele>2144.29</ele>
        <time>2018-07-01T14:10:08Z</time>
      </trkpt>
      <trkpt lat="44.1598" lon="7.62629">
        <ele>2144.719</ele>
        <time>2018-07-01T14:10:09Z</time>
      </trkpt>
      <trkpt lat="44.15974" lon="7.62628">
        <ele>2144.508</ele>
        <time>2018-07-01T14:10:10Z</time>
      </trkpt>
      <trkpt lat="44.15967" lon="7.6263">
        <ele>2143.879</ele>
        <time>2018-07-01T14:10:11Z</time>
      </trkpt>
      <trkpt lat="44.15961" lon="7.6263">
        <ele>2144.283</ele>
        <time>2018-07-01T14:10:12Z</time>
      </trkpt>
      <trkpt lat="44.15955" lon="7.62629">
        <ele>2144.259</ele>
        <time>2018-07-01T14:10:13Z</time>
      </trkpt>
      <trkpt lat="44.15948" lon="7.62626">
        <ele>2144.112</ele>
        <time>2018-07-01T14:10:14Z</time>
      </trkpt>
      <trkpt lat="44.15942" lon="7.62624">
        <ele>2144.064</ele>
        <time>2018-07-01T14:10:15Z</time>
      </trkpt>
      <trkpt lat="44.15935" lon="7.62624">
        <ele>2144.267</ele>
        <time>2018-07-01T14:10:16Z</time>
      </trkpt>
      <trkpt lat="44.15929" lon="7.62622">
        <ele>2144.852</ele>
        <time>2018-07-01T14:10:17Z</time>
      </trkpt>
      <trkpt lat="44.15923" lon="7.6262">
        <ele>2144.783</ele>
        <time>2018-07-01T14:10:18Z</time>
      </trkpt>
      <trkpt lat="44.15917" lon="7.62616">
        <ele>2144.733</ele>
        <time>2018-07-01T14:10:19Z</time>
      </trkpt>
      <trkpt lat="44.1591" lon="7.62617">
        <ele>2143.323</ele>
        <time>2018-07-01T14:10:20Z</time>
      </trkpt>
      <trkpt lat="44.15902" lon="7.62617">
        <ele>2143.115</ele>
        <time>2018-07-01T14:10:21Z</time>
      </trkpt>
      <trkpt lat="44.15895" lon="7.62618">
        <ele>2141.808</ele>
        <time>2018-07-01T14:10:22Z</time>
      </trkpt>
      <trkpt lat="44.15887" lon="7.62615">
        <ele>2141.755</ele>
        <time>2018-07-01T14:10:23Z</time>
      </trkpt>
      <trkpt lat="44.15879" lon="7.62613">
        <ele>2142.099</ele>
        <time>2018-07-01T14:10:24Z</time>
      </trkpt>
      <trkpt lat="44.15872" lon="7.62609">
        <ele>2142.335</ele>
        <time>2018-07-01T14:10:25Z</time>
      </trkpt>
      <trkpt lat="44.15865" lon="7.6261">
        <ele>2141.218</ele>
        <time>2018-07-01T14:10:26Z</time>
      </trkpt>
      <trkpt lat="44.15859" lon="7.62614">
        <ele>2138.41</ele>
        <time>2018-07-01T14:10:27Z</time>
      </trkpt>
      <trkpt lat="44.15853" lon="7.62612">
        <ele>2138.373</ele>
        <time>2018-07-01T14:10:28Z</time>
      </trkpt>
      <trkpt lat="44.15846" lon="7.62608">
        <ele>2137.658</ele>
        <time>2018-07-01T14:10:29Z</time>
      </trkpt>
      <trkpt lat="44.15839" lon="7.62607">
        <ele>2137.549</ele>
        <time>2018-07-01T14:10:30Z</time>
      </trkpt>
      <trkpt lat="44.15832" lon="7.62606">
        <ele>2137.142</ele>
        <time>2018-07-01T14:10:31Z</time>
      </trkpt>
      <trkpt lat="44.15828" lon="7.62602">
        <ele>2135.022</ele>
        <time>2018-07-01T14:10:32Z</time>
      </trkpt>
      <trkpt lat="44.15822" lon="7.62602">
        <ele>2134.514</ele>
        <time>2018-07-01T14:10:33Z</time>
      </trkpt>
      <trkpt lat="44.15817" lon="7.626">
        <ele>2129.508</ele>
        <time>2018-07-01T14:10:34Z</time>
      </trkpt>
      <trkpt lat="44.15812" lon="7.62599">
        <ele>2128.026</ele>
        <time>2018-07-01T14:10:35Z</time>
      </trkpt>
      <trkpt lat="44.15807" lon="7.62596">
        <ele>2128.13</ele>
        <time>2018-07-01T14:10:36Z</time>
      </trkpt>
      <trkpt lat="44.15801" lon="7.62586">
        <ele>2127.096</ele>
        <time>2018-07-01T14:10:37Z</time>
      </trkpt>
      <trkpt lat="44.15795" lon="7.62579">
        <ele>2125.569</ele>
        <time>2018-07-01T14:10:38Z</time>
      </trkpt>
      <trkpt lat="44.15789" lon="7.62573">
        <ele>2124.161</ele>
        <time>2018-07-01T14:10:39Z</time>
      </trkpt>
      <trkpt lat="44.15783" lon="7.62565">
        <ele>2124.374</ele>
        <time>2018-07-01T14:10:40Z</time>
      </trkpt>
      <trkpt lat="44.15777" lon="7.62558">
        <ele>2123.499</ele>
        <time>2018-07-01T14:10:41Z</time>
      </trkpt>
      <trkpt lat="44.15771" lon="7.62552">
        <ele>2122.98</ele>
        <time>2018-07-01T14:10:42Z</time>
      </trkpt>
      <trkpt lat="44.15766" lon="7.62545">
        <ele>2123.619</ele>
        <time>2018-07-01T14:10:43Z</time>
      </trkpt>
      <trkpt lat="44.1576" lon="7.62539">
        <ele>2123.409</ele>
        <time>2018-07-01T14:10:44Z</time>
      </trkpt>
      <trkpt lat="44.15755" lon="7.62539">
        <ele>2121.219</ele>
        <time>2018-07-01T14:10:45Z</time>
      </trkpt>
      <trkpt lat="44.15749" lon="7.62537">
        <ele>2118.708</ele>
        <time>2018-07-01T14:10:46Z</time>
      </trkpt>
      <trkpt lat="44.15741" lon="7.62533">
        <ele>2118.643</ele>
        <time>2018-07-01T14:10:47Z</time>
      </trkpt>
      <trkpt lat="44.15735" lon="7.62529">
        <ele>2117.917</ele>
        <time>2018-07-01T14:10:48Z</time>
      </trkpt>
      <trkpt lat="44.15729" lon="7.62524">
        <ele>2118.213</ele>
        <time>2018-07-01T14:10:49Z</time>
      </trkpt>
      <trkpt lat="44.15723" lon="7.62522">
        <ele>2115.686</ele>
        <time>2018-07-01T14:10:50Z</time>
      </trkpt>
      <trkpt lat="44.15717" lon="7.62519">
        <ele>2115.248</ele>
        <time>2018-07-01T14:10:51Z</time>
      </trkpt>
      <trkpt lat="44.15711" lon="7.62518">
        <ele>2114.731</ele>
        <time>2018-07-01T14:10:52Z</time>
      </trkpt>
      <trkpt lat="44.15704" lon="7.62516">
        <ele>2113.716</ele>
        <time>2018-07-01T14:10:53Z</time>
      </trkpt>
      <trkpt lat="44.15697" lon="7.62517">
        <ele>2111.547</ele>
        <time>2018-07-01T14:10:54Z</time>
      </trkpt>
      <trkpt lat="44.15689" lon="7.62516">
        <ele>2110.531</ele>
        <time>2018-07-01T14:10:55Z</time>
      </trkpt>
      <trkpt lat="44.15682" lon="7.62512">
        <ele>2110.261</ele>
        <time>2018-07-01T14:10:56Z</time>
      </trkpt>
      <trkpt lat="44.15675" lon="7.62509">
        <ele>2109.607</ele>
        <time>2018-07-01T14:10:57Z</time>
      </trkpt>
      <trkpt lat="44.15668" lon="7.62505">
        <ele>2109.408</ele>
        <time>2018-07-01T14:10:58Z</time>
      </trkpt>
      <trkpt lat="44.15662" lon="7.62495">
        <ele>2108.595</ele>
        <time>2018-07-01T14:10:59Z</time>
      </trkpt>
      <trkpt lat="44.15655" lon="7.62492">
        <ele>2105.179</ele>
        <time>2018-07-01T14:11:00Z</time>
      </trkpt>
      <trkpt lat="44.15645" lon="7.62493">
        <ele>2104.535</ele>
        <time>2018-07-01T14:11:01Z</time>
      </trkpt>
      <trkpt lat="44.15637" lon="7.62492">
        <ele>2103.578</ele>
        <time>2018-07-01T14:11:02Z</time>
      </trkpt>
      <trkpt lat="44.1563" lon="7.62488">
        <ele>2103.12</ele>
        <time>2018-07-01T14:11:03Z</time>
      </trkpt>
      <trkpt lat="44.15623" lon="7.62484">
        <ele>2103.363</ele>
        <time>2018-07-01T14:11:04Z</time>
      </trkpt>
      <trkpt lat="44.15615" lon="7.62482">
        <ele>2103.468</ele>
        <time>2018-07-01T14:11:05Z</time>
      </trkpt>
      <trkpt lat="44.15608" lon="7.62476">
        <ele>2104.289</ele>
        <time>2018-07-01T14:11:06Z</time>
      </trkpt>
      <trkpt lat="44.15601" lon="7.6247">
        <ele>2101.673</ele>
        <time>2018-07-01T14:11:07Z</time>
      </trkpt>
      <trkpt lat="44.15594" lon="7.62463">
        <ele>2099.285</ele>
        <time>2018-07-01T14:11:08Z</time>
      </trkpt>
      <trkpt lat="44.15586" lon="7.62455">
        <ele>2099.913</ele>
        <time>2018-07-01T14:11:09Z</time>
      </trkpt>
      <trkpt lat="44.15579" lon="7.62454">
        <ele>2100.908</ele>
        <time>2018-07-01T14:11:10Z</time>
      </trkpt>
      <trkpt lat="44.15573" lon="7.62448">
        <ele>2103.399</ele>
        <time>2018-07-01T14:11:11Z</time>
      </trkpt>
      <trkpt lat="44.15567" lon="7.62431">
        <ele>2101.643</ele>
        <time>2018-07-01T14:11:12Z</time>
      </trkpt>
      <trkpt lat="44.15566" lon="7.62444">
        <ele>2094.519</ele>
        <time>2018-07-01T14:11:13Z</time>
      </trkpt>
      <trkpt lat="44.15556" lon="7.62438">
        <ele>2093.112</ele>
        <time>2018-07-01T14:11:15Z</time>
      </trkpt>
      <trkpt lat="44.1555" lon="7.62438">
        <ele>2091.264</ele>
        <time>2018-07-01T14:11:16Z</time>
      </trkpt>
      <trkpt lat="44.15545" lon="7.62431">
        <ele>2091.557</ele>
        <time>2018-07-01T14:11:17Z</time>
      </trkpt>
      <trkpt lat="44.15539" lon="7.62424">
        <ele>2092.622</ele>
        <time>2018-07-01T14:11:18Z</time>
      </trkpt>
      <trkpt lat="44.15535" lon="7.62418">
        <ele>2090.763</ele>
        <time>2018-07-01T14:11:19Z</time>
      </trkpt>
      <trkpt lat="44.1553" lon="7.62411">
        <ele>2089.924</ele>
        <time>2018-07-01T14:11:20Z</time>
      </trkpt>
      <trkpt lat="44.15526" lon="7.62404">
        <ele>2089.204</ele>
        <time>2018-07-01T14:11:21Z</time>
      </trkpt>
      <trkpt lat="44.15522" lon="7.62397">
        <ele>2087.614</ele>
        <time>2018-07-01T14:11:22Z</time>
      </trkpt>
      <trkpt lat="44.15518" lon="7.6239">
        <ele>2086.508</ele>
        <time>2018-07-01T14:11:23Z</time>
      </trkpt>
      <trkpt lat="44.15514" lon="7.62381">
        <ele>2086.284</ele>
        <time>2018-07-01T14:11:24Z</time>
      </trkpt>
      <trkpt lat="44.15511" lon="7.62371">
        <ele>2084.488</ele>
        <time>2018-07-01T14:11:25Z</time>
      </trkpt>
      <trkpt lat="44.15507" lon="7.62362">
        <ele>2083.984</ele>
        <time>2018-07-01T14:11:26Z</time>
      </trkpt>
      <trkpt lat="44.15504" lon="7.62356">
        <ele>2082.217</ele>
        <time>2018-07-01T14:11:27Z</time>
      </trkpt>
      <trkpt lat="44.15501" lon="7.62349">
        <ele>2081.559</ele>
        <time>2018-07-01T14:11:28Z</time>
      </trkpt>
      <trkpt lat="44.15497" lon="7.62345">
        <ele>2078.812</ele>
        <time>2018-07-01T14:11:29Z</time>
      </trkpt>
      <trkpt lat="44.15493" lon="7.62338">
        <ele>2077.997</ele>
        <time>2018-07-01T14:11:30Z</time>
      </trkpt>
      <trkpt lat="44.15493" lon="7.62329">
        <ele>2077.938</ele>
        <time>2018-07-01T14:11:31Z</time>
      </trkpt>
      <trkpt lat="44.15494" lon="7.6232">
        <ele>2075.615</ele>
        <time>2018-07-01T14:11:32Z</time>
      </trkpt>
      <trkpt lat="44.15495" lon="7.62312">
        <ele>2075.765</ele>
        <time>2018-07-01T14:11:33Z</time>
      </trkpt>
      <trkpt lat="44.15496" lon="7.62303">
        <ele>2075.711</ele>
        <time>2018-07-01T14:11:34Z</time>
      </trkpt>
      <trkpt lat="44.15501" lon="7.623">
        <ele>2073.508</ele>
        <time>2018-07-01T14:11:35Z</time>
      </trkpt>
      <trkpt lat="44.15504" lon="7.62292">
        <ele>2071.283</ele>
        <time>2018-07-01T14:11:36Z</time>
      </trkpt>
      <trkpt lat="44.15509" lon="7.62282">
        <ele>2071.367</ele>
        <time>2018-07-01T14:11:37Z</time>
      </trkpt>
      <trkpt lat="44.15514" lon="7.62275">
        <ele>2071.073</ele>
        <time>2018-07-01T14:11:38Z</time>
      </trkpt>
      <trkpt lat="44.15519" lon="7.62269">
        <ele>2070.586</ele>
        <time>2018-07-01T14:11:39Z</time>
      </trkpt>
      <trkpt lat="44.15523" lon="7.62263">
        <ele>2068.898</ele>
        <time>2018-07-01T14:11:40Z</time>
      </trkpt>
      <trkpt lat="44.15527" lon="7.62257">
        <ele>2067.721</ele>
        <time>2018-07-01T14:11:41Z</time>
      </trkpt>
      <trkpt lat="44.15532" lon="7.62252">
        <ele>2067.356</ele>
        <time>2018-07-01T14:11:42Z</time>
      </trkpt>
      <trkpt lat="44.15538" lon="7.62248">
        <ele>2068.257</ele>
        <time>2018-07-01T14:11:43Z</time>
      </trkpt>
      <trkpt lat="44.15544" lon="7.62244">
        <ele>2065.049</ele>
        <time>2018-07-01T14:11:44Z</time>
      </trkpt>
      <trkpt lat="44.15548" lon="7.62238">
        <ele>2064.702</ele>
        <time>2018-07-01T14:11:45Z</time>
      </trkpt>
      <trkpt lat="44.15552" lon="7.62231">
        <ele>2063.622</ele>
        <time>2018-07-01T14:11:46Z</time>
      </trkpt>
      <trkpt lat="44.15554" lon="7.62224">
        <ele>2063.808</ele>
        <time>2018-07-01T14:11:47Z</time>
      </trkpt>
      <trkpt lat="44.15558" lon="7.62218">
        <ele>2064.776</ele>
        <time>2018-07-01T14:11:48Z</time>
      </trkpt>
      <trkpt lat="44.15557" lon="7.62211">
        <ele>2065.64</ele>
        <time>2018-07-01T14:11:49Z</time>
      </trkpt>
      <trkpt lat="44.15555" lon="7.62204">
        <ele>2065.296</ele>
        <time>2018-07-01T14:11:50Z</time>
      </trkpt>
      <trkpt lat="44.15551" lon="7.62198">
        <ele>2064.819</ele>
        <time>2018-07-01T14:11:51Z</time>
      </trkpt>
      <trkpt lat="44.15545" lon="7.62191">
        <ele>2064.221</ele>
        <time>2018-07-01T14:11:52Z</time>
      </trkpt>
      <trkpt lat="44.15533" lon="7.62184">
        <ele>2063.614</ele>
        <time>2018-07-01T14:11:53Z</time>
      </trkpt>
      <trkpt lat="44.15529" lon="7.62176">
        <ele>2064.149</ele>
        <time>2018-07-01T14:11:54Z</time>
      </trkpt>
      <trkpt lat="44.15526" lon="7.62168">
        <ele>2062.08</ele>
        <time>2018-07-01T14:11:55Z</time>
      </trkpt>
      <trkpt lat="44.15524" lon="7.62161">
        <ele>2060.858</ele>
        <time>2018-07-01T14:11:56Z</time>
      </trkpt>
      <trkpt lat="44.15522" lon="7.62153">
        <ele>2060.452</ele>
        <time>2018-07-01T14:11:57Z</time>
      </trkpt>
      <trkpt lat="44.1552" lon="7.62144">
        <ele>2059.917</ele>
        <time>2018-07-01T14:11:58Z</time>
      </trkpt>
      <trkpt lat="44.15519" lon="7.62136">
        <ele>2061.208</ele>
        <time>2018-07-01T14:11:59Z</time>
      </trkpt>
      <trkpt lat="44.15516" lon="7.62129">
        <ele>2061.237</ele>
        <time>2018-07-01T14:12:00Z</time>
      </trkpt>
      <trkpt lat="44.15513" lon="7.62121">
        <ele>2061.251</ele>
        <time>2018-07-01T14:12:01Z</time>
      </trkpt>
      <trkpt lat="44.1551" lon="7.62112">
        <ele>2060.027</ele>
        <time>2018-07-01T14:12:02Z</time>
      </trkpt>
      <trkpt lat="44.15506" lon="7.62103">
        <ele>2059.39</ele>
        <time>2018-07-01T14:12:03Z</time>
      </trkpt>
      <trkpt lat="44.15501" lon="7.62094">
        <ele>2059.242</ele>
        <time>2018-07-01T14:12:04Z</time>
      </trkpt>
      <trkpt lat="44.15499" lon="7.62084">
        <ele>2058.245</ele>
        <time>2018-07-01T14:12:05Z</time>
      </trkpt>
      <trkpt lat="44.15496" lon="7.62073">
        <ele>2057.37</ele>
        <time>2018-07-01T14:12:06Z</time>
      </trkpt>
      <trkpt lat="44.15493" lon="7.62064">
        <ele>2057.221</ele>
        <time>2018-07-01T14:12:07Z</time>
      </trkpt>
      <trkpt lat="44.15488" lon="7.62055">
        <ele>2057.146</ele>
        <time>2018-07-01T14:12:08Z</time>
      </trkpt>
      <trkpt lat="44.15483" lon="7.62045">
        <ele>2056.588</ele>
        <time>2018-07-01T14:12:09Z</time>
      </trkpt>
      <trkpt lat="44.15478" lon="7.62035">
        <ele>2056.516</ele>
        <time>2018-07-01T14:12:10Z</time>
      </trkpt>
      <trkpt lat="44.15472" lon="7.62025">
        <ele>2056.008</ele>
        <time>2018-07-01T14:12:11Z</time>
      </trkpt>
      <trkpt lat="44.15466" lon="7.62015">
        <ele>2055.156</ele>
        <time>2018-07-01T14:12:12Z</time>
      </trkpt>
      <trkpt lat="44.1546" lon="7.62006">
        <ele>2055.02</ele>
        <time>2018-07-01T14:12:13Z</time>
      </trkpt>
      <trkpt lat="44.15455" lon="7.61996">
        <ele>2054.976</ele>
        <time>2018-07-01T14:12:14Z</time>
      </trkpt>
      <trkpt lat="44.15449" lon="7.61986">
        <ele>2053.819</ele>
        <time>2018-07-01T14:12:15Z</time>
      </trkpt>
      <trkpt lat="44.15444" lon="7.61976">
        <ele>2053.361</ele>
        <time>2018-07-01T14:12:16Z</time>
      </trkpt>
      <trkpt lat="44.15439" lon="7.61965">
        <ele>2052.944</ele>
        <time>2018-07-01T14:12:17Z</time>
      </trkpt>
      <trkpt lat="44.15434" lon="7.61956">
        <ele>2053.079</ele>
        <time>2018-07-01T14:12:18Z</time>
      </trkpt>
      <trkpt lat="44.1543" lon="7.61949">
        <ele>2052.16</ele>
        <time>2018-07-01T14:12:19Z</time>
      </trkpt>
      <trkpt lat="44.15426" lon="7.61943">
        <ele>2051.733</ele>
        <time>2018-07-01T14:12:20Z</time>
      </trkpt>
      <trkpt lat="44.15422" lon="7.61937">
        <ele>2051.823</ele>
        <time>2018-07-01T14:12:21Z</time>
      </trkpt>
      <trkpt lat="44.15415" lon="7.61933">
        <ele>2051.115</ele>
        <time>2018-07-01T14:12:23Z</time>
      </trkpt>
      <trkpt lat="44.15405" lon="7.61938">
        <ele>2051.108</ele>
        <time>2018-07-01T14:12:24Z</time>
      </trkpt>
      <trkpt lat="44.15397" lon="7.61944">
        <ele>2052.425</ele>
        <time>2018-07-01T14:12:25Z</time>
      </trkpt>
      <trkpt lat="44.15389" lon="7.61948">
        <ele>2053.369</ele>
        <time>2018-07-01T14:12:26Z</time>
      </trkpt>
      <trkpt lat="44.15383" lon="7.61949">
        <ele>2054.045</ele>
        <time>2018-07-01T14:12:27Z</time>
      </trkpt>
      <trkpt lat="44.15377" lon="7.61956">
        <ele>2053.368</ele>
        <time>2018-07-01T14:12:28Z</time>
      </trkpt>
      <trkpt lat="44.15371" lon="7.61959">
        <ele>2053.59</ele>
        <time>2018-07-01T14:12:29Z</time>
      </trkpt>
      <trkpt lat="44.15364" lon="7.61958">
        <ele>2054.453</ele>
        <time>2018-07-01T14:12:30Z</time>
      </trkpt>
      <trkpt lat="44.1536" lon="7.61942">
        <ele>2053.168</ele>
        <time>2018-07-01T14:12:31Z</time>
      </trkpt>
      <trkpt lat="44.15354" lon="7.6195">
        <ele>2051.419</ele>
        <time>2018-07-01T14:12:32Z</time>
      </trkpt>
      <trkpt lat="44.15347" lon="7.61951">
        <ele>2052.515</ele>
        <time>2018-07-01T14:12:33Z</time>
      </trkpt>
      <trkpt lat="44.15342" lon="7.61952">
        <ele>2050.865</ele>
        <time>2018-07-01T14:12:34Z</time>
      </trkpt>
      <trkpt lat="44.15337" lon="7.61956">
        <ele>2050.511</ele>
        <time>2018-07-01T14:12:35Z</time>
      </trkpt>
      <trkpt lat="44.15331" lon="7.61958">
        <ele>2049.908</ele>
        <time>2018-07-01T14:12:36Z</time>
      </trkpt>
      <trkpt lat="44.15325" lon="7.61956">
        <ele>2050.373</ele>
        <time>2018-07-01T14:12:37Z</time>
      </trkpt>
      <trkpt lat="44.15321" lon="7.61953">
        <ele>2049.927</ele>
        <time>2018-07-01T14:12:38Z</time>
      </trkpt>
      <trkpt lat="44.15315" lon="7.61962">
        <ele>2048.673</ele>
        <time>2018-07-01T14:12:39Z</time>
      </trkpt>
      <trkpt lat="44.15308" lon="7.61959">
        <ele>2049.326</ele>
        <time>2018-07-01T14:12:40Z</time>
      </trkpt>
      <trkpt lat="44.15302" lon="7.61958">
        <ele>2048.688</ele>
        <time>2018-07-01T14:12:41Z</time>
      </trkpt>
      <trkpt lat="44.15296" lon="7.61959">
        <ele>2048.831</ele>
        <time>2018-07-01T14:12:42Z</time>
      </trkpt>
      <trkpt lat="44.15289" lon="7.61955">
        <ele>2048.876</ele>
        <time>2018-07-01T14:12:43Z</time>
      </trkpt>
      <trkpt lat="44.15283" lon="7.61944">
        <ele>2049.917</ele>
        <time>2018-07-01T14:12:44Z</time>
      </trkpt>
      <trkpt lat="44.15278" lon="7.61936">
        <ele>2056.185</ele>
        <time>2018-07-01T14:12:45Z</time>
      </trkpt>
      <trkpt lat="44.15273" lon="7.61932">
        <ele>2056.489</ele>
        <time>2018-07-01T14:12:46Z</time>
      </trkpt>
      <trkpt lat="44.15267" lon="7.61928">
        <ele>2057.417</ele>
        <time>2018-07-01T14:12:47Z</time>
      </trkpt>
      <trkpt lat="44.15261" lon="7.61925">
        <ele>2059.608</ele>
        <time>2018-07-01T14:12:48Z</time>
      </trkpt>
      <trkpt lat="44.15253" lon="7.61925">
        <ele>2061.81</ele>
        <time>2018-07-01T14:12:50Z</time>
      </trkpt>
      <trkpt lat="44.15248" lon="7.61922">
        <ele>2064.164</ele>
        <time>2018-07-01T14:12:51Z</time>
      </trkpt>
      <trkpt lat="44.15242" lon="7.61925">
        <ele>2063.14</ele>
        <time>2018-07-01T14:12:52Z</time>
      </trkpt>
      <trkpt lat="44.15235" lon="7.61914">
        <ele>2061.153</ele>
        <time>2018-07-01T14:12:53Z</time>
      </trkpt>
      <trkpt lat="44.15231" lon="7.61909">
        <ele>2059.275</ele>
        <time>2018-07-01T14:12:54Z</time>
      </trkpt>
      <trkpt lat="44.15224" lon="7.61906">
        <ele>2066.848</ele>
        <time>2018-07-01T14:12:56Z</time>
      </trkpt>
      <trkpt lat="44.15219" lon="7.61897">
        <ele>2068.943</ele>
        <time>2018-07-01T14:12:57Z</time>
      </trkpt>
      <trkpt lat="44.15214" lon="7.61886">
        <ele>2068.974</ele>
        <time>2018-07-01T14:12:58Z</time>
      </trkpt>
      <trkpt lat="44.15211" lon="7.61879">
        <ele>2067.034</ele>
        <time>2018-07-01T14:12:59Z</time>
      </trkpt>
      <trkpt lat="44.15209" lon="7.61869">
        <ele>2067.755</ele>
        <time>2018-07-01T14:13:00Z</time>
      </trkpt>
      <trkpt lat="44.15207" lon="7.61861">
        <ele>2067.31</ele>
        <time>2018-07-01T14:13:01Z</time>
      </trkpt>
      <trkpt lat="44.15204" lon="7.61853">
        <ele>2067.308</ele>
        <time>2018-07-01T14:13:02Z</time>
      </trkpt>
      <trkpt lat="44.15199" lon="7.61844">
        <ele>2067.575</ele>
        <time>2018-07-01T14:13:03Z</time>
      </trkpt>
      <trkpt lat="44.15195" lon="7.61832">
        <ele>2067.549</ele>
        <time>2018-07-01T14:13:04Z</time>
      </trkpt>
      <trkpt lat="44.1519" lon="7.61825">
        <ele>2067.655</ele>
        <time>2018-07-01T14:13:05Z</time>
      </trkpt>
      <trkpt lat="44.15186" lon="7.61816">
        <ele>2069.318</ele>
        <time>2018-07-01T14:13:06Z</time>
      </trkpt>
      <trkpt lat="44.15182" lon="7.61809">
        <ele>2068.69</ele>
        <time>2018-07-01T14:13:07Z</time>
      </trkpt>
      <trkpt lat="44.15177" lon="7.61803">
        <ele>2070.593</ele>
        <time>2018-07-01T14:13:08Z</time>
      </trkpt>
      <trkpt lat="44.15171" lon="7.61789">
        <ele>2070.768</ele>
        <time>2018-07-01T14:13:10Z</time>
      </trkpt>
      <trkpt lat="44.15165" lon="7.61776">
        <ele>2071.039</ele>
        <time>2018-07-01T14:13:12Z</time>
      </trkpt>
      <trkpt lat="44.15162" lon="7.61768">
        <ele>2071.229</ele>
        <time>2018-07-01T14:13:13Z</time>
      </trkpt>
      <trkpt lat="44.1516" lon="7.6176">
        <ele>2071.5</ele>
        <time>2018-07-01T14:13:14Z</time>
      </trkpt>
      <trkpt lat="44.15157" lon="7.61753">
        <ele>2073.32</ele>
        <time>2018-07-01T14:13:15Z</time>
      </trkpt>
      <trkpt lat="44.15153" lon="7.61743">
        <ele>2074.708</ele>
        <time>2018-07-01T14:13:16Z</time>
      </trkpt>
      <trkpt lat="44.15152" lon="7.61734">
        <ele>2076.954</ele>
        <time>2018-07-01T14:13:17Z</time>
      </trkpt>
      <trkpt lat="44.1515" lon="7.61719">
        <ele>2077.018</ele>
        <time>2018-07-01T14:13:19Z</time>
      </trkpt>
      <trkpt lat="44.15149" lon="7.6171">
        <ele>2077.484</ele>
        <time>2018-07-01T14:13:20Z</time>
      </trkpt>
      <trkpt lat="44.15147" lon="7.61704">
        <ele>2078.437</ele>
        <time>2018-07-01T14:13:21Z</time>
      </trkpt>
      <trkpt lat="44.15146" lon="7.61697">
        <ele>2079.359</ele>
        <time>2018-07-01T14:13:22Z</time>
      </trkpt>
      <trkpt lat="44.15145" lon="7.61689">
        <ele>2079.912</ele>
        <time>2018-07-01T14:13:23Z</time>
      </trkpt>
      <trkpt lat="44.15143" lon="7.61683">
        <ele>2081.117</ele>
        <time>2018-07-01T14:13:24Z</time>
      </trkpt>
      <trkpt lat="44.15144" lon="7.61677">
        <ele>2081.758</ele>
        <time>2018-07-01T14:13:25Z</time>
      </trkpt>
      <trkpt lat="44.15144" lon="7.61669">
        <ele>2082.129</ele>
        <time>2018-07-01T14:13:26Z</time>
      </trkpt>
      <trkpt lat="44.15145" lon="7.61661">
        <ele>2082.5</ele>
        <time>2018-07-01T14:13:27Z</time>
      </trkpt>
      <trkpt lat="44.15147" lon="7.61653">
        <ele>2083.12</ele>
        <time>2018-07-01T14:13:28Z</time>
      </trkpt>
      <trkpt lat="44.15148" lon="7.61646">
        <ele>2083.908</ele>
        <time>2018-07-01T14:13:29Z</time>
      </trkpt>
      <trkpt lat="44.15144" lon="7.61635">
        <ele>2085.524</ele>
        <time>2018-07-01T14:13:31Z</time>
      </trkpt>
      <trkpt lat="44.15145" lon="7.61629">
        <ele>2087.378</ele>
        <time>2018-07-01T14:13:32Z</time>
      </trkpt>
      <trkpt lat="44.15147" lon="7.61623">
        <ele>2089.144</ele>
        <time>2018-07-01T14:13:33Z</time>
      </trkpt>
      <trkpt lat="44.15149" lon="7.61614">
        <ele>2089.457</ele>
        <time>2018-07-01T14:13:35Z</time>
      </trkpt>
      <trkpt lat="44.15155" lon="7.61608">
        <ele>2089.569</ele>
        <time>2018-07-01T14:13:37Z</time>
      </trkpt>
      <trkpt lat="44.15161" lon="7.61604">
        <ele>2090.082</ele>
        <time>2018-07-01T14:13:39Z</time>
      </trkpt>
      <trkpt lat="44.15167" lon="7.61597">
        <ele>2090.477</ele>
        <time>2018-07-01T14:13:41Z</time>
      </trkpt>
      <trkpt lat="44.15168" lon="7.61592">
        <ele>2090.618</ele>
        <time>2018-07-01T14:13:42Z</time>
      </trkpt>
      <trkpt lat="44.1517" lon="7.61583">
        <ele>2090.942</ele>
        <time>2018-07-01T14:13:43Z</time>
      </trkpt>
      <trkpt lat="44.15172" lon="7.61573">
        <ele>2090.422</ele>
        <time>2018-07-01T14:13:44Z</time>
      </trkpt>
      <trkpt lat="44.15176" lon="7.61564">
        <ele>2090.114</ele>
        <time>2018-07-01T14:13:45Z</time>
      </trkpt>
      <trkpt lat="44.15179" lon="7.61551">
        <ele>2091.708</ele>
        <time>2018-07-01T14:13:47Z</time>
      </trkpt>
      <trkpt lat="44.15178" lon="7.61543">
        <ele>2092.256</ele>
        <time>2018-07-01T14:13:48Z</time>
      </trkpt>
      <trkpt lat="44.15177" lon="7.61526">
        <ele>2092.62</ele>
        <time>2018-07-01T14:13:50Z</time>
      </trkpt>
      <trkpt lat="44.15177" lon="7.6152">
        <ele>2094.236</ele>
        <time>2018-07-01T14:13:51Z</time>
      </trkpt>
      <trkpt lat="44.15177" lon="7.61509">
        <ele>2094.839</ele>
        <time>2018-07-01T14:13:52Z</time>
      </trkpt>
      <trkpt lat="44.15178" lon="7.61498">
        <ele>2094.951</ele>
        <time>2018-07-01T14:13:53Z</time>
      </trkpt>
      <trkpt lat="44.15179" lon="7.6149">
        <ele>2095.514</ele>
        <time>2018-07-01T14:13:54Z</time>
      </trkpt>
      <trkpt lat="44.1518" lon="7.61483">
        <ele>2096.299</ele>
        <time>2018-07-01T14:13:55Z</time>
      </trkpt>
      <trkpt lat="44.15182" lon="7.61476">
        <ele>2098.62</ele>
        <time>2018-07-01T14:13:56Z</time>
      </trkpt>
      <trkpt lat="44.15185" lon="7.61468">
        <ele>2098.463</ele>
        <time>2018-07-01T14:13:57Z</time>
      </trkpt>
      <trkpt lat="44.15191" lon="7.61461">
        <ele>2099.144</ele>
        <time>2018-07-01T14:13:58Z</time>
      </trkpt>
      <trkpt lat="44.15196" lon="7.61456">
        <ele>2099.718</ele>
        <time>2018-07-01T14:13:59Z</time>
      </trkpt>
      <trkpt lat="44.15199" lon="7.6145">
        <ele>2100.008</ele>
        <time>2018-07-01T14:14:00Z</time>
      </trkpt>
      <trkpt lat="44.15205" lon="7.61447">
        <ele>2098.778</ele>
        <time>2018-07-01T14:14:01Z</time>
      </trkpt>
      <trkpt lat="44.15211" lon="7.61443">
        <ele>2098.092</ele>
        <time>2018-07-01T14:14:02Z</time>
      </trkpt>
      <trkpt lat="44.15216" lon="7.61441">
        <ele>2098.878</ele>
        <time>2018-07-01T14:14:03Z</time>
      </trkpt>
      <trkpt lat="44.15221" lon="7.61439">
        <ele>2098.921</ele>
        <time>2018-07-01T14:14:04Z</time>
      </trkpt>
      <trkpt lat="44.15228" lon="7.61439">
        <ele>2099.863</ele>
        <time>2018-07-01T14:14:05Z</time>
      </trkpt>
      <trkpt lat="44.15234" lon="7.61441">
        <ele>2101.526</ele>
        <time>2018-07-01T14:14:06Z</time>
      </trkpt>
      <trkpt lat="44.15239" lon="7.61444">
        <ele>2101.521</ele>
        <time>2018-07-01T14:14:07Z</time>
      </trkpt>
      <trkpt lat="44.15247" lon="7.6145">
        <ele>2099.812</ele>
        <time>2018-07-01T14:14:09Z</time>
      </trkpt>
      <trkpt lat="44.15251" lon="7.61455">
        <ele>2099.916</ele>
        <time>2018-07-01T14:14:10Z</time>
      </trkpt>
      <trkpt lat="44.15255" lon="7.61464">
        <ele>2100.576</ele>
        <time>2018-07-01T14:14:11Z</time>
      </trkpt>
      <trkpt lat="44.1526" lon="7.61472">
        <ele>2100.013</ele>
        <time>2018-07-01T14:14:12Z</time>
      </trkpt>
      <trkpt lat="44.15266" lon="7.61479">
        <ele>2100.308</ele>
        <time>2018-07-01T14:14:13Z</time>
      </trkpt>
      <trkpt lat="44.15271" lon="7.61484">
        <ele>2100.753</ele>
        <time>2018-07-01T14:14:14Z</time>
      </trkpt>
      <trkpt lat="44.15276" lon="7.61488">
        <ele>2100.717</ele>
        <time>2018-07-01T14:14:15Z</time>
      </trkpt>
      <trkpt lat="44.15281" lon="7.61487">
        <ele>2101.633</ele>
        <time>2018-07-01T14:14:16Z</time>
      </trkpt>
      <trkpt lat="44.15287" lon="7.61486">
        <ele>2103.246</ele>
        <time>2018-07-01T14:14:17Z</time>
      </trkpt>
      <trkpt lat="44.15292" lon="7.61483">
        <ele>2102.088</ele>
        <time>2018-07-01T14:14:18Z</time>
      </trkpt>
      <trkpt lat="44.15297" lon="7.6148">
        <ele>2101.871</ele>
        <time>2018-07-01T14:14:19Z</time>
      </trkpt>
      <trkpt lat="44.153" lon="7.61473">
        <ele>2102.046</ele>
        <time>2018-07-01T14:14:20Z</time>
      </trkpt>
      <trkpt lat="44.15305" lon="7.61466">
        <ele>2102.237</ele>
        <time>2018-07-01T14:14:21Z</time>
      </trkpt>
      <trkpt lat="44.15308" lon="7.6146">
        <ele>2102.282</ele>
        <time>2018-07-01T14:14:22Z</time>
      </trkpt>
      <trkpt lat="44.15312" lon="7.61452">
        <ele>2102.843</ele>
        <time>2018-07-01T14:14:23Z</time>
      </trkpt>
      <trkpt lat="44.15316" lon="7.61443">
        <ele>2103.617</ele>
        <time>2018-07-01T14:14:24Z</time>
      </trkpt>
      <trkpt lat="44.1532" lon="7.61436">
        <ele>2105.208</ele>
        <time>2018-07-01T14:14:25Z</time>
      </trkpt>
      <trkpt lat="44.15324" lon="7.61429">
        <ele>2105.41</ele>
        <time>2018-07-01T14:14:26Z</time>
      </trkpt>
      <trkpt lat="44.1533" lon="7.61426">
        <ele>2104.954</ele>
        <time>2018-07-01T14:14:27Z</time>
      </trkpt>
      <trkpt lat="44.15335" lon="7.61422">
        <ele>2105.26</ele>
        <time>2018-07-01T14:14:28Z</time>
      </trkpt>
      <trkpt lat="44.15342" lon="7.6142">
        <ele>2106.233</ele>
        <time>2018-07-01T14:14:29Z</time>
      </trkpt>
      <trkpt lat="44.15349" lon="7.61418">
        <ele>2106.345</ele>
        <time>2018-07-01T14:14:30Z</time>
      </trkpt>
      <trkpt lat="44.15356" lon="7.61416">
        <ele>2107.438</ele>
        <time>2018-07-01T14:14:31Z</time>
      </trkpt>
      <trkpt lat="44.15361" lon="7.61414">
        <ele>2107.053</ele>
        <time>2018-07-01T14:14:32Z</time>
      </trkpt>
      <trkpt lat="44.15367" lon="7.6141">
        <ele>2106.824</ele>
        <time>2018-07-01T14:14:33Z</time>
      </trkpt>
      <trkpt lat="44.15372" lon="7.61407">
        <ele>2106.725</ele>
        <time>2018-07-01T14:14:34Z</time>
      </trkpt>
      <trkpt lat="44.15378" lon="7.61398">
        <ele>2105.926</ele>
        <time>2018-07-01T14:14:35Z</time>
      </trkpt>
      <trkpt lat="44.15384" lon="7.61391">
        <ele>2105.108</ele>
        <time>2018-07-01T14:14:36Z</time>
      </trkpt>
      <trkpt lat="44.15389" lon="7.61386">
        <ele>2104.408</ele>
        <time>2018-07-01T14:14:37Z</time>
      </trkpt>
      <trkpt lat="44.15394" lon="7.6138">
        <ele>2104.374</ele>
        <time>2018-07-01T14:14:38Z</time>
      </trkpt>
      <trkpt lat="44.15398" lon="7.61366">
        <ele>2103.548</ele>
        <time>2018-07-01T14:14:39Z</time>
      </trkpt>
      <trkpt lat="44.15403" lon="7.61357">
        <ele>2103.074</ele>
        <time>2018-07-01T14:14:40Z</time>
      </trkpt>
      <trkpt lat="44.15408" lon="7.61352">
        <ele>2103.977</ele>
        <time>2018-07-01T14:14:41Z</time>
      </trkpt>
      <trkpt lat="44.15413" lon="7.61343">
        <ele>2103.829</ele>
        <time>2018-07-01T14:14:42Z</time>
      </trkpt>
      <trkpt lat="44.15415" lon="7.61333">
        <ele>2103.992</ele>
        <time>2018-07-01T14:14:43Z</time>
      </trkpt>
      <trkpt lat="44.15418" lon="7.61322">
        <ele>2104.317</ele>
        <time>2018-07-01T14:14:44Z</time>
      </trkpt>
      <trkpt lat="44.15422" lon="7.61313">
        <ele>2106.158</ele>
        <time>2018-07-01T14:14:45Z</time>
      </trkpt>
      <trkpt lat="44.15427" lon="7.61305">
        <ele>2107.579</ele>
        <time>2018-07-01T14:14:46Z</time>
      </trkpt>
      <trkpt lat="44.15432" lon="7.61297">
        <ele>2107.505</ele>
        <time>2018-07-01T14:14:47Z</time>
      </trkpt>
      <trkpt lat="44.15437" lon="7.61287">
        <ele>2107.425</ele>
        <time>2018-07-01T14:14:48Z</time>
      </trkpt>
      <trkpt lat="44.15442" lon="7.6128">
        <ele>2109.308</ele>
        <time>2018-07-01T14:14:49Z</time>
      </trkpt>
      <trkpt lat="44.15448" lon="7.61273">
        <ele>2110.189</ele>
        <time>2018-07-01T14:14:50Z</time>
      </trkpt>
      <trkpt lat="44.15451" lon="7.61268">
        <ele>2109.243</ele>
        <time>2018-07-01T14:14:51Z</time>
      </trkpt>
      <trkpt lat="44.15456" lon="7.61262">
        <ele>2108.739</ele>
        <time>2018-07-01T14:14:52Z</time>
      </trkpt>
      <trkpt lat="44.1546" lon="7.61251">
        <ele>2107.112</ele>
        <time>2018-07-01T14:14:54Z</time>
      </trkpt>
      <trkpt lat="44.1546" lon="7.61244">
        <ele>2106.444</ele>
        <time>2018-07-01T14:14:55Z</time>
      </trkpt>
      <trkpt lat="44.15459" lon="7.61231">
        <ele>2106.057</ele>
        <time>2018-07-01T14:14:57Z</time>
      </trkpt>
      <trkpt lat="44.15457" lon="7.61224">
        <ele>2105.742</ele>
        <time>2018-07-01T14:14:58Z</time>
      </trkpt>
      <trkpt lat="44.15453" lon="7.61218">
        <ele>2106.163</ele>
        <time>2018-07-01T14:14:59Z</time>
      </trkpt>
      <trkpt lat="44.15448" lon="7.61212">
        <ele>2106.637</ele>
        <time>2018-07-01T14:15:00Z</time>
      </trkpt>
      <trkpt lat="44.15442" lon="7.61207">
        <ele>2106.549</ele>
        <time>2018-07-01T14:15:01Z</time>
      </trkpt>
      <trkpt lat="44.15436" lon="7.61204">
        <ele>2106.713</ele>
        <time>2018-07-01T14:15:02Z</time>
      </trkpt>
      <trkpt lat="44.15429" lon="7.61203">
        <ele>2107.108</ele>
        <time>2018-07-01T14:15:03Z</time>
      </trkpt>
      <trkpt lat="44.15423" lon="7.61202">
        <ele>2107.295</ele>
        <time>2018-07-01T14:15:04Z</time>
      </trkpt>
      <trkpt lat="44.15413" lon="7.61207">
        <ele>2107.599</ele>
        <time>2018-07-01T14:15:05Z</time>
      </trkpt>
      <trkpt lat="44.15407" lon="7.61205">
        <ele>2108.655</ele>
        <time>2018-07-01T14:15:06Z</time>
      </trkpt>
      <trkpt lat="44.154" lon="7.61202">
        <ele>2108.778</ele>
        <time>2018-07-01T14:15:07Z</time>
      </trkpt>
      <trkpt lat="44.15392" lon="7.61201">
        <ele>2108.89</ele>
        <time>2018-07-01T14:15:08Z</time>
      </trkpt>
      <trkpt lat="44.15386" lon="7.61195">
        <ele>2108.493</ele>
        <time>2018-07-01T14:15:09Z</time>
      </trkpt>
      <trkpt lat="44.15378" lon="7.61196">
        <ele>2108.778</ele>
        <time>2018-07-01T14:15:10Z</time>
      </trkpt>
      <trkpt lat="44.1537" lon="7.61192">
        <ele>2108.719</ele>
        <time>2018-07-01T14:15:11Z</time>
      </trkpt>
      <trkpt lat="44.15362" lon="7.61187">
        <ele>2108.324</ele>
        <time>2018-07-01T14:15:12Z</time>
      </trkpt>
      <trkpt lat="44.15354" lon="7.61188">
        <ele>2108.004</ele>
        <time>2018-07-01T14:15:13Z</time>
      </trkpt>
      <trkpt lat="44.15346" lon="7.61184">
        <ele>2108.914</ele>
        <time>2018-07-01T14:15:14Z</time>
      </trkpt>
      <trkpt lat="44.15339" lon="7.6118">
        <ele>2109.408</ele>
        <time>2018-07-01T14:15:15Z</time>
      </trkpt>
      <trkpt lat="44.15333" lon="7.61175">
        <ele>2109.394</ele>
        <time>2018-07-01T14:15:16Z</time>
      </trkpt>
      <trkpt lat="44.15325" lon="7.61174">
        <ele>2109.488</ele>
        <time>2018-07-01T14:15:17Z</time>
      </trkpt>
      <trkpt lat="44.15318" lon="7.61171">
        <ele>2110.144</ele>
        <time>2018-07-01T14:15:18Z</time>
      </trkpt>
      <trkpt lat="44.15312" lon="7.61166">
        <ele>2110.497</ele>
        <time>2018-07-01T14:15:19Z</time>
      </trkpt>
      <trkpt lat="44.15306" lon="7.61159">
        <ele>2109.859</ele>
        <time>2018-07-01T14:15:20Z</time>
      </trkpt>
      <trkpt lat="44.15299" lon="7.61153">
        <ele>2109.482</ele>
        <time>2018-07-01T14:15:21Z</time>
      </trkpt>
      <trkpt lat="44.15293" lon="7.6115">
        <ele>2108.887</ele>
        <time>2018-07-01T14:15:22Z</time>
      </trkpt>
      <trkpt lat="44.15287" lon="7.61139">
        <ele>2110.938</ele>
        <time>2018-07-01T14:15:23Z</time>
      </trkpt>
      <trkpt lat="44.15279" lon="7.6113">
        <ele>2112.033</ele>
        <time>2018-07-01T14:15:24Z</time>
      </trkpt>
      <trkpt lat="44.15273" lon="7.61124">
        <ele>2111.323</ele>
        <time>2018-07-01T14:15:25Z</time>
      </trkpt>
      <trkpt lat="44.15266" lon="7.6112">
        <ele>2111.815</ele>
        <time>2018-07-01T14:15:26Z</time>
      </trkpt>
      <trkpt lat="44.1526" lon="7.61116">
        <ele>2112.308</ele>
        <time>2018-07-01T14:15:27Z</time>
      </trkpt>
      <trkpt lat="44.15253" lon="7.61114">
        <ele>2112.735</ele>
        <time>2018-07-01T14:15:28Z</time>
      </trkpt>
      <trkpt lat="44.15248" lon="7.61107">
        <ele>2113.629</ele>
        <time>2018-07-01T14:15:29Z</time>
      </trkpt>
      <trkpt lat="44.15241" lon="7.61102">
        <ele>2113.235</ele>
        <time>2018-07-01T14:15:30Z</time>
      </trkpt>
      <trkpt lat="44.15236" lon="7.61092">
        <ele>2112.988</ele>
        <time>2018-07-01T14:15:31Z</time>
      </trkpt>
      <trkpt lat="44.15232" lon="7.61081">
        <ele>2112.24</ele>
        <time>2018-07-01T14:15:32Z</time>
      </trkpt>
      <trkpt lat="44.15227" lon="7.61071">
        <ele>2112.233</ele>
        <time>2018-07-01T14:15:33Z</time>
      </trkpt>
      <trkpt lat="44.15223" lon="7.61063">
        <ele>2111.668</ele>
        <time>2018-07-01T14:15:34Z</time>
      </trkpt>
      <trkpt lat="44.15219" lon="7.61055">
        <ele>2112.579</ele>
        <time>2018-07-01T14:15:35Z</time>
      </trkpt>
      <trkpt lat="44.15216" lon="7.61045">
        <ele>2112.668</ele>
        <time>2018-07-01T14:15:36Z</time>
      </trkpt>
      <trkpt lat="44.15213" lon="7.61035">
        <ele>2112.842</ele>
        <time>2018-07-01T14:15:37Z</time>
      </trkpt>
      <trkpt lat="44.15213" lon="7.6102">
        <ele>2113.626</ele>
        <time>2018-07-01T14:15:38Z</time>
      </trkpt>
      <trkpt lat="44.1521" lon="7.61009">
        <ele>2113.908</ele>
        <time>2018-07-01T14:15:39Z</time>
      </trkpt>
      <trkpt lat="44.15208" lon="7.60998">
        <ele>2115.328</ele>
        <time>2018-07-01T14:15:40Z</time>
      </trkpt>
      <trkpt lat="44.15204" lon="7.60989">
        <ele>2115.342</ele>
        <time>2018-07-01T14:15:41Z</time>
      </trkpt>
      <trkpt lat="44.152" lon="7.60983">
        <ele>2115.188</ele>
        <time>2018-07-01T14:15:42Z</time>
      </trkpt>
      <trkpt lat="44.15197" lon="7.60976">
        <ele>2114.941</ele>
        <time>2018-07-01T14:15:43Z</time>
      </trkpt>
      <trkpt lat="44.15193" lon="7.60973">
        <ele>2115.913</ele>
        <time>2018-07-01T14:15:44Z</time>
      </trkpt>
      <trkpt lat="44.15189" lon="7.60967">
        <ele>2116.066</ele>
        <time>2018-07-01T14:15:45Z</time>
      </trkpt>
      <trkpt lat="44.15184" lon="7.60961">
        <ele>2116.471</ele>
        <time>2018-07-01T14:15:46Z</time>
      </trkpt>
      <trkpt lat="44.15179" lon="7.60957">
        <ele>2116.642</ele>
        <time>2018-07-01T14:15:47Z</time>
      </trkpt>
      <trkpt lat="44.15175" lon="7.6095">
        <ele>2116.769</ele>
        <time>2018-07-01T14:15:48Z</time>
      </trkpt>
      <trkpt lat="44.1517" lon="7.60943">
        <ele>2116.704</ele>
        <time>2018-07-01T14:15:49Z</time>
      </trkpt>
      <trkpt lat="44.15166" lon="7.60937">
        <ele>2115.624</ele>
        <time>2018-07-01T14:15:50Z</time>
      </trkpt>
      <trkpt lat="44.15162" lon="7.60928">
        <ele>2115.708</ele>
        <time>2018-07-01T14:15:51Z</time>
      </trkpt>
      <trkpt lat="44.15159" lon="7.6092">
        <ele>2116.288</ele>
        <time>2018-07-01T14:15:52Z</time>
      </trkpt>
      <trkpt lat="44.15157" lon="7.60912">
        <ele>2117.092</ele>
        <time>2018-07-01T14:15:53Z</time>
      </trkpt>
      <trkpt lat="44.15154" lon="7.60903">
        <ele>2117.478</ele>
        <time>2018-07-01T14:15:54Z</time>
      </trkpt>
      <trkpt lat="44.15154" lon="7.60893">
        <ele>2117.231</ele>
        <time>2018-07-01T14:15:55Z</time>
      </trkpt>
      <trkpt lat="44.15152" lon="7.60883">
        <ele>2117.193</ele>
        <time>2018-07-01T14:15:56Z</time>
      </trkpt>
      <trkpt lat="44.15153" lon="7.60873">
        <ele>2117.746</ele>
        <time>2018-07-01T14:15:57Z</time>
      </trkpt>
      <trkpt lat="44.15152" lon="7.60865">
        <ele>2117.341</ele>
        <time>2018-07-01T14:15:58Z</time>
      </trkpt>
      <trkpt lat="44.15151" lon="7.60854">
        <ele>2117.972</ele>
        <time>2018-07-01T14:15:59Z</time>
      </trkpt>
      <trkpt lat="44.15149" lon="7.60845">
        <ele>2117.913</ele>
        <time>2018-07-01T14:16:00Z</time>
      </trkpt>
      <trkpt lat="44.15147" lon="7.60836">
        <ele>2118.143</ele>
        <time>2018-07-01T14:16:01Z</time>
      </trkpt>
      <trkpt lat="44.15146" lon="7.60827">
        <ele>2118.307</ele>
        <time>2018-07-01T14:16:02Z</time>
      </trkpt>
      <trkpt lat="44.15144" lon="7.60817">
        <ele>2118.608</ele>
        <time>2018-07-01T14:16:03Z</time>
      </trkpt>
      <trkpt lat="44.15143" lon="7.60808">
        <ele>2118.353</ele>
        <time>2018-07-01T14:16:04Z</time>
      </trkpt>
      <trkpt lat="44.1514" lon="7.60798">
        <ele>2117.917</ele>
        <time>2018-07-01T14:16:05Z</time>
      </trkpt>
      <trkpt lat="44.15139" lon="7.60787">
        <ele>2118.043</ele>
        <time>2018-07-01T14:16:06Z</time>
      </trkpt>
      <trkpt lat="44.15139" lon="7.60775">
        <ele>2117.646</ele>
        <time>2018-07-01T14:16:07Z</time>
      </trkpt>
      <trkpt lat="44.1514" lon="7.60766">
        <ele>2117.188</ele>
        <time>2018-07-01T14:16:08Z</time>
      </trkpt>
      <trkpt lat="44.15141" lon="7.60756">
        <ele>2117.241</ele>
        <time>2018-07-01T14:16:09Z</time>
      </trkpt>
      <trkpt lat="44.1514" lon="7.60746">
        <ele>2116.736</ele>
        <time>2018-07-01T14:16:10Z</time>
      </trkpt>
      <trkpt lat="44.15142" lon="7.60735">
        <ele>2117.737</ele>
        <time>2018-07-01T14:16:11Z</time>
      </trkpt>
      <trkpt lat="44.15144" lon="7.60723">
        <ele>2118.356</ele>
        <time>2018-07-01T14:16:12Z</time>
      </trkpt>
      <trkpt lat="44.15146" lon="7.60716">
        <ele>2117.959</ele>
        <time>2018-07-01T14:16:13Z</time>
      </trkpt>
      <trkpt lat="44.15149" lon="7.60708">
        <ele>2117.914</ele>
        <time>2018-07-01T14:16:14Z</time>
      </trkpt>
      <trkpt lat="44.15151" lon="7.60699">
        <ele>2118.008</ele>
        <time>2018-07-01T14:16:15Z</time>
      </trkpt>
      <trkpt lat="44.15153" lon="7.60689">
        <ele>2119.297</ele>
        <time>2018-07-01T14:16:16Z</time>
      </trkpt>
      <trkpt lat="44.15155" lon="7.60681">
        <ele>2118.931</ele>
        <time>2018-07-01T14:16:17Z</time>
      </trkpt>
      <trkpt lat="44.15153" lon="7.60672">
        <ele>2118.927</ele>
        <time>2018-07-01T14:16:18Z</time>
      </trkpt>
      <trkpt lat="44.15149" lon="7.60664">
        <ele>2117.12</ele>
        <time>2018-07-01T14:16:19Z</time>
      </trkpt>
      <trkpt lat="44.15145" lon="7.60655">
        <ele>2117.962</ele>
        <time>2018-07-01T14:16:20Z</time>
      </trkpt>
      <trkpt lat="44.15145" lon="7.6064">
        <ele>2117.615</ele>
        <time>2018-07-01T14:16:22Z</time>
      </trkpt>
      <trkpt lat="44.15141" lon="7.60631">
        <ele>2118.17</ele>
        <time>2018-07-01T14:16:23Z</time>
      </trkpt>
      <trkpt lat="44.1514" lon="7.60623">
        <ele>2118.671</ele>
        <time>2018-07-01T14:16:24Z</time>
      </trkpt>
      <trkpt lat="44.15139" lon="7.60614">
        <ele>2118.683</ele>
        <time>2018-07-01T14:16:25Z</time>
      </trkpt>
      <trkpt lat="44.1514" lon="7.60607">
        <ele>2118.725</ele>
        <time>2018-07-01T14:16:26Z</time>
      </trkpt>
      <trkpt lat="44.15141" lon="7.606">
        <ele>2117.717</ele>
        <time>2018-07-01T14:16:27Z</time>
      </trkpt>
      <trkpt lat="44.15143" lon="7.60593">
        <ele>2117.408</ele>
        <time>2018-07-01T14:16:28Z</time>
      </trkpt>
      <trkpt lat="44.15145" lon="7.60585">
        <ele>2117.99</ele>
        <time>2018-07-01T14:16:29Z</time>
      </trkpt>
      <trkpt lat="44.15145" lon="7.60575">
        <ele>2118.674</ele>
        <time>2018-07-01T14:16:30Z</time>
      </trkpt>
      <trkpt lat="44.15147" lon="7.60565">
        <ele>2119.03</ele>
        <time>2018-07-01T14:16:31Z</time>
      </trkpt>
      <trkpt lat="44.1515" lon="7.60558">
        <ele>2118.153</ele>
        <time>2018-07-01T14:16:32Z</time>
      </trkpt>
      <trkpt lat="44.15154" lon="7.60551">
        <ele>2118.185</ele>
        <time>2018-07-01T14:16:33Z</time>
      </trkpt>
      <trkpt lat="44.1516" lon="7.60541">
        <ele>2119.518</ele>
        <time>2018-07-01T14:16:34Z</time>
      </trkpt>
      <trkpt lat="44.15164" lon="7.60534">
        <ele>2119.693</ele>
        <time>2018-07-01T14:16:35Z</time>
      </trkpt>
      <trkpt lat="44.15167" lon="7.60528">
        <ele>2118.694</ele>
        <time>2018-07-01T14:16:36Z</time>
      </trkpt>
      <trkpt lat="44.1517" lon="7.60523">
        <ele>2118.078</ele>
        <time>2018-07-01T14:16:37Z</time>
      </trkpt>
      <trkpt lat="44.15174" lon="7.60516">
        <ele>2118.433</ele>
        <time>2018-07-01T14:16:38Z</time>
      </trkpt>
      <trkpt lat="44.15183" lon="7.60506">
        <ele>2118.326</ele>
        <time>2018-07-01T14:16:39Z</time>
      </trkpt>
      <trkpt lat="44.15182" lon="7.60493">
        <ele>2117.908</ele>
        <time>2018-07-01T14:16:40Z</time>
      </trkpt>
      <trkpt lat="44.15183" lon="7.60482">
        <ele>2119.189</ele>
        <time>2018-07-01T14:16:41Z</time>
      </trkpt>
      <trkpt lat="44.15184" lon="7.60472">
        <ele>2119.933</ele>
        <time>2018-07-01T14:16:42Z</time>
      </trkpt>
      <trkpt lat="44.15186" lon="7.60465">
        <ele>2120.719</ele>
        <time>2018-07-01T14:16:43Z</time>
      </trkpt>
      <trkpt lat="44.15189" lon="7.60457">
        <ele>2119.622</ele>
        <time>2018-07-01T14:16:44Z</time>
      </trkpt>
      <trkpt lat="44.15192" lon="7.60449">
        <ele>2119.844</ele>
        <time>2018-07-01T14:16:45Z</time>
      </trkpt>
      <trkpt lat="44.15193" lon="7.60441">
        <ele>2120.097</ele>
        <time>2018-07-01T14:16:46Z</time>
      </trkpt>
      <trkpt lat="44.15193" lon="7.60433">
        <ele>2120.712</ele>
        <time>2018-07-01T14:16:47Z</time>
      </trkpt>
      <trkpt lat="44.15195" lon="7.60426">
        <ele>2121.063</ele>
        <time>2018-07-01T14:16:48Z</time>
      </trkpt>
      <trkpt lat="44.15194" lon="7.60416">
        <ele>2122.441</ele>
        <time>2018-07-01T14:16:49Z</time>
      </trkpt>
      <trkpt lat="44.15192" lon="7.60406">
        <ele>2123.081</ele>
        <time>2018-07-01T14:16:50Z</time>
      </trkpt>
      <trkpt lat="44.15193" lon="7.6039">
        <ele>2122.809</ele>
        <time>2018-07-01T14:16:52Z</time>
      </trkpt>
      <trkpt lat="44.15194" lon="7.6038">
        <ele>2122.808</ele>
        <time>2018-07-01T14:16:53Z</time>
      </trkpt>
      <trkpt lat="44.15194" lon="7.60372">
        <ele>2123.056</ele>
        <time>2018-07-01T14:16:54Z</time>
      </trkpt>
      <trkpt lat="44.15197" lon="7.60364">
        <ele>2122.51</ele>
        <time>2018-07-01T14:16:55Z</time>
      </trkpt>
      <trkpt lat="44.15198" lon="7.60354">
        <ele>2123.366</ele>
        <time>2018-07-01T14:16:56Z</time>
      </trkpt>
      <trkpt lat="44.15201" lon="7.60345">
        <ele>2123.669</ele>
        <time>2018-07-01T14:16:57Z</time>
      </trkpt>
      <trkpt lat="44.15202" lon="7.60335">
        <ele>2124.571</ele>
        <time>2018-07-01T14:16:58Z</time>
      </trkpt>
      <trkpt lat="44.15204" lon="7.60327">
        <ele>2124.184</ele>
        <time>2018-07-01T14:16:59Z</time>
      </trkpt>
      <trkpt lat="44.15206" lon="7.60319">
        <ele>2124.049</ele>
        <time>2018-07-01T14:17:00Z</time>
      </trkpt>
      <trkpt lat="44.1521" lon="7.60313">
        <ele>2122.49</ele>
        <time>2018-07-01T14:17:01Z</time>
      </trkpt>
      <trkpt lat="44.1521" lon="7.60302">
        <ele>2122.776</ele>
        <time>2018-07-01T14:17:02Z</time>
      </trkpt>
      <trkpt lat="44.15213" lon="7.60294">
        <ele>2123.19</ele>
        <time>2018-07-01T14:17:03Z</time>
      </trkpt>
      <trkpt lat="44.15215" lon="7.60285">
        <ele>2123.619</ele>
        <time>2018-07-01T14:17:04Z</time>
      </trkpt>
      <trkpt lat="44.15218" lon="7.60275">
        <ele>2124.208</ele>
        <time>2018-07-01T14:17:05Z</time>
      </trkpt>
      <trkpt lat="44.1522" lon="7.60265">
        <ele>2124.969</ele>
        <time>2018-07-01T14:17:06Z</time>
      </trkpt>
      <trkpt lat="44.15221" lon="7.60256">
        <ele>2125.063</ele>
        <time>2018-07-01T14:17:07Z</time>
      </trkpt>
      <trkpt lat="44.15222" lon="7.60247">
        <ele>2125.359</ele>
        <time>2018-07-01T14:17:08Z</time>
      </trkpt>
      <trkpt lat="44.15218" lon="7.60237">
        <ele>2125.772</ele>
        <time>2018-07-01T14:17:09Z</time>
      </trkpt>
      <trkpt lat="44.15219" lon="7.60226">
        <ele>2126.554</ele>
        <time>2018-07-01T14:17:10Z</time>
      </trkpt>
      <trkpt lat="44.15219" lon="7.60216">
        <ele>2126.457</ele>
        <time>2018-07-01T14:17:11Z</time>
      </trkpt>
      <trkpt lat="44.15222" lon="7.60205">
        <ele>2126.332</ele>
        <time>2018-07-01T14:17:12Z</time>
      </trkpt>
      <trkpt lat="44.15224" lon="7.60195">
        <ele>2126.553</ele>
        <time>2018-07-01T14:17:13Z</time>
      </trkpt>
      <trkpt lat="44.15225" lon="7.60184">
        <ele>2126.528</ele>
        <time>2018-07-01T14:17:14Z</time>
      </trkpt>
      <trkpt lat="44.15227" lon="7.60174">
        <ele>2126.589</ele>
        <time>2018-07-01T14:17:15Z</time>
      </trkpt>
      <trkpt lat="44.15228" lon="7.60166">
        <ele>2125.917</ele>
        <time>2018-07-01T14:17:16Z</time>
      </trkpt>
      <trkpt lat="44.1523" lon="7.60159">
        <ele>2125.808</ele>
        <time>2018-07-01T14:17:17Z</time>
      </trkpt>
      <trkpt lat="44.15233" lon="7.60147">
        <ele>2125.264</ele>
        <time>2018-07-01T14:17:19Z</time>
      </trkpt>
      <trkpt lat="44.15233" lon="7.60141">
        <ele>2125.418</ele>
        <time>2018-07-01T14:17:20Z</time>
      </trkpt>
      <trkpt lat="44.15234" lon="7.60134">
        <ele>2125.464</ele>
        <time>2018-07-01T14:17:21Z</time>
      </trkpt>
      <trkpt lat="44.15235" lon="7.60127">
        <ele>2125.887</ele>
        <time>2018-07-01T14:17:22Z</time>
      </trkpt>
      <trkpt lat="44.15236" lon="7.6012">
        <ele>2125.999</ele>
        <time>2018-07-01T14:17:23Z</time>
      </trkpt>
      <trkpt lat="44.15238" lon="7.60112">
        <ele>2125.912</ele>
        <time>2018-07-01T14:17:24Z</time>
      </trkpt>
      <trkpt lat="44.15241" lon="7.60105">
        <ele>2125.927</ele>
        <time>2018-07-01T14:17:25Z</time>
      </trkpt>
      <trkpt lat="44.15244" lon="7.60098">
        <ele>2125.778</ele>
        <time>2018-07-01T14:17:26Z</time>
      </trkpt>
      <trkpt lat="44.15249" lon="7.6009">
        <ele>2125.824</ele>
        <time>2018-07-01T14:17:27Z</time>
      </trkpt>
      <trkpt lat="44.15253" lon="7.6008">
        <ele>2125.904</ele>
        <time>2018-07-01T14:17:28Z</time>
      </trkpt>
      <trkpt lat="44.15257" lon="7.60067">
        <ele>2126.314</ele>
        <time>2018-07-01T14:17:29Z</time>
      </trkpt>
      <trkpt lat="44.15259" lon="7.60061">
        <ele>2126.008</ele>
        <time>2018-07-01T14:17:30Z</time>
      </trkpt>
      <trkpt lat="44.15263" lon="7.60051">
        <ele>2125.994</ele>
        <time>2018-07-01T14:17:31Z</time>
      </trkpt>
      <trkpt lat="44.15267" lon="7.60044">
        <ele>2126.638</ele>
        <time>2018-07-01T14:17:32Z</time>
      </trkpt>
      <trkpt lat="44.15273" lon="7.60038">
        <ele>2127.214</ele>
        <time>2018-07-01T14:17:33Z</time>
      </trkpt>
      <trkpt lat="44.15279" lon="7.60033">
        <ele>2126.787</ele>
        <time>2018-07-01T14:17:34Z</time>
      </trkpt>
      <trkpt lat="44.15284" lon="7.60027">
        <ele>2126.989</ele>
        <time>2018-07-01T14:17:35Z</time>
      </trkpt>
      <trkpt lat="44.15289" lon="7.60022">
        <ele>2127.512</ele>
        <time>2018-07-01T14:17:36Z</time>
      </trkpt>
      <trkpt lat="44.15292" lon="7.60014">
        <ele>2127.647</ele>
        <time>2018-07-01T14:17:37Z</time>
      </trkpt>
      <trkpt lat="44.15296" lon="7.60008">
        <ele>2128.518</ele>
        <time>2018-07-01T14:17:38Z</time>
      </trkpt>
      <trkpt lat="44.15303" lon="7.60004">
        <ele>2129.692</ele>
        <time>2018-07-01T14:17:39Z</time>
      </trkpt>
      <trkpt lat="44.1531" lon="7.59997">
        <ele>2129.873</ele>
        <time>2018-07-01T14:17:40Z</time>
      </trkpt>
      <trkpt lat="44.15316" lon="7.59991">
        <ele>2130.12</ele>
        <time>2018-07-01T14:17:41Z</time>
      </trkpt>
      <trkpt lat="44.15322" lon="7.59985">
        <ele>2129.908</ele>
        <time>2018-07-01T14:17:42Z</time>
      </trkpt>
      <trkpt lat="44.15328" lon="7.59978">
        <ele>2129.391</ele>
        <time>2018-07-01T14:17:43Z</time>
      </trkpt>
      <trkpt lat="44.15335" lon="7.59973">
        <ele>2128.785</ele>
        <time>2018-07-01T14:17:44Z</time>
      </trkpt>
      <trkpt lat="44.15342" lon="7.59968">
        <ele>2129.591</ele>
        <time>2018-07-01T14:17:45Z</time>
      </trkpt>
      <trkpt lat="44.15349" lon="7.59965">
        <ele>2129.824</ele>
        <time>2018-07-01T14:17:46Z</time>
      </trkpt>
      <trkpt lat="44.15356" lon="7.59961">
        <ele>2131.486</ele>
        <time>2018-07-01T14:17:47Z</time>
      </trkpt>
      <trkpt lat="44.15361" lon="7.59958">
        <ele>2131.789</ele>
        <time>2018-07-01T14:17:48Z</time>
      </trkpt>
      <trkpt lat="44.15367" lon="7.59954">
        <ele>2132.194</ele>
        <time>2018-07-01T14:17:49Z</time>
      </trkpt>
      <trkpt lat="44.1537" lon="7.59949">
        <ele>2132.645</ele>
        <time>2018-07-01T14:17:50Z</time>
      </trkpt>
      <trkpt lat="44.15374" lon="7.59944">
        <ele>2132.449</ele>
        <time>2018-07-01T14:17:51Z</time>
      </trkpt>
      <trkpt lat="44.15379" lon="7.59937">
        <ele>2132.902</ele>
        <time>2018-07-01T14:17:52Z</time>
      </trkpt>
      <trkpt lat="44.15383" lon="7.59929">
        <ele>2133.522</ele>
        <time>2018-07-01T14:17:53Z</time>
      </trkpt>
      <trkpt lat="44.15388" lon="7.59922">
        <ele>2133.608</ele>
        <time>2018-07-01T14:17:54Z</time>
      </trkpt>
      <trkpt lat="44.15394" lon="7.59915">
        <ele>2133.856</ele>
        <time>2018-07-01T14:17:55Z</time>
      </trkpt>
      <trkpt lat="44.15399" lon="7.5991">
        <ele>2134.18</ele>
        <time>2018-07-01T14:17:56Z</time>
      </trkpt>
      <trkpt lat="44.15404" lon="7.59906">
        <ele>2135.296</ele>
        <time>2018-07-01T14:17:57Z</time>
      </trkpt>
      <trkpt lat="44.15409" lon="7.59901">
        <ele>2135.019</ele>
        <time>2018-07-01T14:17:58Z</time>
      </trkpt>
      <trkpt lat="44.15414" lon="7.59897">
        <ele>2134.931</ele>
        <time>2018-07-01T14:17:59Z</time>
      </trkpt>
      <trkpt lat="44.15418" lon="7.59894">
        <ele>2134.994</ele>
        <time>2018-07-01T14:18:00Z</time>
      </trkpt>
      <trkpt lat="44.15425" lon="7.59896">
        <ele>2135.729</ele>
        <time>2018-07-01T14:18:01Z</time>
      </trkpt>
      <trkpt lat="44.15432" lon="7.59902">
        <ele>2133.53</ele>
        <time>2018-07-01T14:18:03Z</time>
      </trkpt>
      <trkpt lat="44.15438" lon="7.59907">
        <ele>2133.558</ele>
        <time>2018-07-01T14:18:04Z</time>
      </trkpt>
      <trkpt lat="44.15451" lon="7.59914">
        <ele>2133.552</ele>
        <time>2018-07-01T14:18:06Z</time>
      </trkpt>
      <trkpt lat="44.15458" lon="7.59912">
        <ele>2133.217</ele>
        <time>2018-07-01T14:18:07Z</time>
      </trkpt>
      <trkpt lat="44.15465" lon="7.59911">
        <ele>2133.108</ele>
        <time>2018-07-01T14:18:08Z</time>
      </trkpt>
      <trkpt lat="44.15471" lon="7.59908">
        <ele>2134.017</ele>
        <time>2018-07-01T14:18:09Z</time>
      </trkpt>
      <trkpt lat="44.15476" lon="7.59907">
        <ele>2133.481</ele>
        <time>2018-07-01T14:18:10Z</time>
      </trkpt>
      <trkpt lat="44.15485" lon="7.59905">
        <ele>2132.917</ele>
        <time>2018-07-01T14:18:11Z</time>
      </trkpt>
      <trkpt lat="44.15491" lon="7.59903">
        <ele>2134.59</ele>
        <time>2018-07-01T14:18:12Z</time>
      </trkpt>
      <trkpt lat="44.15499" lon="7.59901">
        <ele>2135.792</ele>
        <time>2018-07-01T14:18:13Z</time>
      </trkpt>
      <trkpt lat="44.15506" lon="7.59901">
        <ele>2135.825</ele>
        <time>2018-07-01T14:18:14Z</time>
      </trkpt>
      <trkpt lat="44.15514" lon="7.599">
        <ele>2136.24</ele>
        <time>2018-07-01T14:18:15Z</time>
      </trkpt>
      <trkpt lat="44.15521" lon="7.59898">
        <ele>2136.561</ele>
        <time>2018-07-01T14:18:16Z</time>
      </trkpt>
      <trkpt lat="44.15527" lon="7.59896">
        <ele>2137.165</ele>
        <time>2018-07-01T14:18:17Z</time>
      </trkpt>
      <trkpt lat="44.15533" lon="7.59895">
        <ele>2137.868</ele>
        <time>2018-07-01T14:18:18Z</time>
      </trkpt>
      <trkpt lat="44.15538" lon="7.59892">
        <ele>2137.814</ele>
        <time>2018-07-01T14:18:19Z</time>
      </trkpt>
      <trkpt lat="44.15543" lon="7.59888">
        <ele>2138.808</ele>
        <time>2018-07-01T14:18:20Z</time>
      </trkpt>
      <trkpt lat="44.15548" lon="7.59886">
        <ele>2139.558</ele>
        <time>2018-07-01T14:18:21Z</time>
      </trkpt>
      <trkpt lat="44.15554" lon="7.59884">
        <ele>2139.642</ele>
        <time>2018-07-01T14:18:22Z</time>
      </trkpt>
      <trkpt lat="44.15558" lon="7.59881">
        <ele>2140.588</ele>
        <time>2018-07-01T14:18:24Z</time>
      </trkpt>
      <trkpt lat="44.1556" lon="7.59873">
        <ele>2140.221</ele>
        <time>2018-07-01T14:18:26Z</time>
      </trkpt>
      <trkpt lat="44.15556" lon="7.59859">
        <ele>2140.153</ele>
        <time>2018-07-01T14:18:28Z</time>
      </trkpt>
      <trkpt lat="44.15551" lon="7.59853">
        <ele>2139.076</ele>
        <time>2018-07-01T14:18:29Z</time>
      </trkpt>
      <trkpt lat="44.15547" lon="7.59846">
        <ele>2138.271</ele>
        <time>2018-07-01T14:18:30Z</time>
      </trkpt>
      <trkpt lat="44.15544" lon="7.59838">
        <ele>2137.872</ele>
        <time>2018-07-01T14:18:31Z</time>
      </trkpt>
      <trkpt lat="44.15542" lon="7.59833">
        <ele>2136.861</ele>
        <time>2018-07-01T14:18:32Z</time>
      </trkpt>
      <trkpt lat="44.15539" lon="7.59825">
        <ele>2135.621</ele>
        <time>2018-07-01T14:18:33Z</time>
      </trkpt>
      <trkpt lat="44.15534" lon="7.5982">
        <ele>2134.713</ele>
        <time>2018-07-01T14:18:34Z</time>
      </trkpt>
      <trkpt lat="44.1553" lon="7.59816">
        <ele>2134.408</ele>
        <time>2018-07-01T14:18:35Z</time>
      </trkpt>
      <trkpt lat="44.15525" lon="7.59813">
        <ele>2133.958</ele>
        <time>2018-07-01T14:18:36Z</time>
      </trkpt>
      <trkpt lat="44.15519" lon="7.5981">
        <ele>2134.292</ele>
        <time>2018-07-01T14:18:37Z</time>
      </trkpt>
      <trkpt lat="44.15514" lon="7.59802">
        <ele>2134.358</ele>
        <time>2018-07-01T14:18:38Z</time>
      </trkpt>
      <trkpt lat="44.15511" lon="7.59795">
        <ele>2133.641</ele>
        <time>2018-07-01T14:18:39Z</time>
      </trkpt>
      <trkpt lat="44.15508" lon="7.59789">
        <ele>2132.983</ele>
        <time>2018-07-01T14:18:40Z</time>
      </trkpt>
      <trkpt lat="44.15505" lon="7.59781">
        <ele>2131.996</ele>
        <time>2018-07-01T14:18:41Z</time>
      </trkpt>
      <trkpt lat="44.15502" lon="7.59775">
        <ele>2132.361</ele>
        <time>2018-07-01T14:18:42Z</time>
      </trkpt>
      <trkpt lat="44.15499" lon="7.59769">
        <ele>2132.342</ele>
        <time>2018-07-01T14:18:43Z</time>
      </trkpt>
      <trkpt lat="44.15496" lon="7.5976">
        <ele>2131.523</ele>
        <time>2018-07-01T14:18:45Z</time>
      </trkpt>
      <trkpt lat="44.155" lon="7.59756">
        <ele>2127.183</ele>
        <time>2018-07-01T14:18:48Z</time>
      </trkpt>
      <trkpt lat="44.15504" lon="7.59758">
        <ele>2124.911</ele>
        <time>2018-07-01T14:18:50Z</time>
      </trkpt>
      <trkpt lat="44.15509" lon="7.59763">
        <ele>2126.108</ele>
        <time>2018-07-01T14:18:52Z</time>
      </trkpt>
      <trkpt lat="44.15511" lon="7.5977">
        <ele>2126.634</ele>
        <time>2018-07-01T14:18:53Z</time>
      </trkpt>
      <trkpt lat="44.15513" lon="7.59777">
        <ele>2125.628</ele>
        <time>2018-07-01T14:18:54Z</time>
      </trkpt>
      <trkpt lat="44.15516" lon="7.59785">
        <ele>2123.854</ele>
        <time>2018-07-01T14:18:55Z</time>
      </trkpt>
      <trkpt lat="44.15519" lon="7.59791">
        <ele>2123.777</ele>
        <time>2018-07-01T14:18:56Z</time>
      </trkpt>
      <trkpt lat="44.15525" lon="7.59796">
        <ele>2123.499</ele>
        <time>2018-07-01T14:18:57Z</time>
      </trkpt>
      <trkpt lat="44.1553" lon="7.59798">
        <ele>2121.582</ele>
        <time>2018-07-01T14:18:58Z</time>
      </trkpt>
      <trkpt lat="44.15538" lon="7.598">
        <ele>2120.137</ele>
        <time>2018-07-01T14:18:59Z</time>
      </trkpt>
      <trkpt lat="44.15544" lon="7.59803">
        <ele>2119.938</ele>
        <time>2018-07-01T14:19:00Z</time>
      </trkpt>
      <trkpt lat="44.1555" lon="7.5981">
        <ele>2118.447</ele>
        <time>2018-07-01T14:19:01Z</time>
      </trkpt>
      <trkpt lat="44.15557" lon="7.59817">
        <ele>2116.929</ele>
        <time>2018-07-01T14:19:02Z</time>
      </trkpt>
      <trkpt lat="44.15562" lon="7.59823">
        <ele>2116.221</ele>
        <time>2018-07-01T14:19:03Z</time>
      </trkpt>
      <trkpt lat="44.15569" lon="7.59829">
        <ele>2116.408</ele>
        <time>2018-07-01T14:19:04Z</time>
      </trkpt>
      <trkpt lat="44.15575" lon="7.59834">
        <ele>2115.666</ele>
        <time>2018-07-01T14:19:05Z</time>
      </trkpt>
      <trkpt lat="44.15581" lon="7.59837">
        <ele>2114.74</ele>
        <time>2018-07-01T14:19:06Z</time>
      </trkpt>
      <trkpt lat="44.15587" lon="7.59838">
        <ele>2114.346</ele>
        <time>2018-07-01T14:19:07Z</time>
      </trkpt>
      <trkpt lat="44.15593" lon="7.59834">
        <ele>2113.899</ele>
        <time>2018-07-01T14:19:08Z</time>
      </trkpt>
      <trkpt lat="44.15598" lon="7.59829">
        <ele>2113.011</ele>
        <time>2018-07-01T14:19:09Z</time>
      </trkpt>
      <trkpt lat="44.15603" lon="7.59824">
        <ele>2112.244</ele>
        <time>2018-07-01T14:19:10Z</time>
      </trkpt>
      <trkpt lat="44.15607" lon="7.5982">
        <ele>2111.319</ele>
        <time>2018-07-01T14:19:11Z</time>
      </trkpt>
      <trkpt lat="44.15613" lon="7.59817">
        <ele>2110.72</ele>
        <time>2018-07-01T14:19:12Z</time>
      </trkpt>
      <trkpt lat="44.1562" lon="7.59818">
        <ele>2110.719</ele>
        <time>2018-07-01T14:19:13Z</time>
      </trkpt>
      <trkpt lat="44.15627" lon="7.59818">
        <ele>2108.409</ele>
        <time>2018-07-01T14:19:14Z</time>
      </trkpt>
      <trkpt lat="44.15635" lon="7.5982">
        <ele>2107.219</ele>
        <time>2018-07-01T14:19:15Z</time>
      </trkpt>
      <trkpt lat="44.15642" lon="7.59823">
        <ele>2105.708</ele>
        <time>2018-07-01T14:19:16Z</time>
      </trkpt>
      <trkpt lat="44.15648" lon="7.59828">
        <ele>2105.283</ele>
        <time>2018-07-01T14:19:17Z</time>
      </trkpt>
      <trkpt lat="44.15656" lon="7.59834">
        <ele>2103.827</ele>
        <time>2018-07-01T14:19:18Z</time>
      </trkpt>
      <trkpt lat="44.15664" lon="7.59838">
        <ele>2102.743</ele>
        <time>2018-07-01T14:19:19Z</time>
      </trkpt>
      <trkpt lat="44.15672" lon="7.59842">
        <ele>2101.716</ele>
        <time>2018-07-01T14:19:20Z</time>
      </trkpt>
      <trkpt lat="44.15678" lon="7.59845">
        <ele>2101.178</ele>
        <time>2018-07-01T14:19:21Z</time>
      </trkpt>
      <trkpt lat="44.15685" lon="7.59849">
        <ele>2100.361</ele>
        <time>2018-07-01T14:19:22Z</time>
      </trkpt>
      <trkpt lat="44.15692" lon="7.59852">
        <ele>2100.256</ele>
        <time>2018-07-01T14:19:23Z</time>
      </trkpt>
      <trkpt lat="44.15699" lon="7.59854">
        <ele>2099.787</ele>
        <time>2018-07-01T14:19:24Z</time>
      </trkpt>
      <trkpt lat="44.15707" lon="7.59857">
        <ele>2099.121</ele>
        <time>2018-07-01T14:19:25Z</time>
      </trkpt>
      <trkpt lat="44.15714" lon="7.59859">
        <ele>2098.441</ele>
        <time>2018-07-01T14:19:26Z</time>
      </trkpt>
      <trkpt lat="44.15721" lon="7.59859">
        <ele>2096.705</ele>
        <time>2018-07-01T14:19:27Z</time>
      </trkpt>
      <trkpt lat="44.15728" lon="7.5986">
        <ele>2096.708</ele>
        <time>2018-07-01T14:19:28Z</time>
      </trkpt>
      <trkpt lat="44.15735" lon="7.59859">
        <ele>2096.954</ele>
        <time>2018-07-01T14:19:29Z</time>
      </trkpt>
      <trkpt lat="44.1574" lon="7.59857">
        <ele>2097.068</ele>
        <time>2018-07-01T14:19:30Z</time>
      </trkpt>
      <trkpt lat="44.15745" lon="7.59857">
        <ele>2096.574</ele>
        <time>2018-07-01T14:19:31Z</time>
      </trkpt>
      <trkpt lat="44.1575" lon="7.59859">
        <ele>2094.757</ele>
        <time>2018-07-01T14:19:32Z</time>
      </trkpt>
      <trkpt lat="44.15755" lon="7.59856">
        <ele>2094.299</ele>
        <time>2018-07-01T14:19:33Z</time>
      </trkpt>
      <trkpt lat="44.15759" lon="7.59853">
        <ele>2092.822</ele>
        <time>2018-07-01T14:19:35Z</time>
      </trkpt>
      <trkpt lat="44.15756" lon="7.59849">
        <ele>2092.587</ele>
        <time>2018-07-01T14:19:37Z</time>
      </trkpt>
      <trkpt lat="44.15747" lon="7.5985">
        <ele>2092.688</ele>
        <time>2018-07-01T14:19:39Z</time>
      </trkpt>
      <trkpt lat="44.15736" lon="7.59851">
        <ele>2092.178</ele>
        <time>2018-07-01T14:19:41Z</time>
      </trkpt>
      <trkpt lat="44.15728" lon="7.59852">
        <ele>2092.333</ele>
        <time>2018-07-01T14:19:42Z</time>
      </trkpt>
      <trkpt lat="44.1572" lon="7.59851">
        <ele>2092.926</ele>
        <time>2018-07-01T14:19:43Z</time>
      </trkpt>
      <trkpt lat="44.15711" lon="7.59847">
        <ele>2092.208</ele>
        <time>2018-07-01T14:19:44Z</time>
      </trkpt>
      <trkpt lat="44.15702" lon="7.59839">
        <ele>2091.669</ele>
        <time>2018-07-01T14:19:45Z</time>
      </trkpt>
      <trkpt lat="44.15696" lon="7.59834">
        <ele>2088.683</ele>
        <time>2018-07-01T14:19:46Z</time>
      </trkpt>
      <trkpt lat="44.1569" lon="7.59825">
        <ele>2087.069</ele>
        <time>2018-07-01T14:19:47Z</time>
      </trkpt>
      <trkpt lat="44.15685" lon="7.59821">
        <ele>2084.332</ele>
        <time>2018-07-01T14:19:48Z</time>
      </trkpt>
      <trkpt lat="44.15678" lon="7.59815">
        <ele>2083.364</ele>
        <time>2018-07-01T14:19:49Z</time>
      </trkpt>
      <trkpt lat="44.15671" lon="7.5981">
        <ele>2082.747</ele>
        <time>2018-07-01T14:19:50Z</time>
      </trkpt>
      <trkpt lat="44.15665" lon="7.59803">
        <ele>2082.382</ele>
        <time>2018-07-01T14:19:51Z</time>
      </trkpt>
      <trkpt lat="44.1566" lon="7.59797">
        <ele>2079.843</ele>
        <time>2018-07-01T14:19:52Z</time>
      </trkpt>
      <trkpt lat="44.15655" lon="7.59789">
        <ele>2079.129</ele>
        <time>2018-07-01T14:19:53Z</time>
      </trkpt>
      <trkpt lat="44.1565" lon="7.5978">
        <ele>2079.5</ele>
        <time>2018-07-01T14:19:54Z</time>
      </trkpt>
      <trkpt lat="44.15644" lon="7.59771">
        <ele>2078.72</ele>
        <time>2018-07-01T14:19:55Z</time>
      </trkpt>
      <trkpt lat="44.15638" lon="7.59764">
        <ele>2078.108</ele>
        <time>2018-07-01T14:19:56Z</time>
      </trkpt>
      <trkpt lat="44.15631" lon="7.59757">
        <ele>2078.754</ele>
        <time>2018-07-01T14:19:57Z</time>
      </trkpt>
      <trkpt lat="44.15624" lon="7.59753">
        <ele>2078.218</ele>
        <time>2018-07-01T14:19:58Z</time>
      </trkpt>
      <trkpt lat="44.15619" lon="7.59745">
        <ele>2078.314</ele>
        <time>2018-07-01T14:19:59Z</time>
      </trkpt>
      <trkpt lat="44.15614" lon="7.59738">
        <ele>2077.357</ele>
        <time>2018-07-01T14:20:00Z</time>
      </trkpt>
      <trkpt lat="44.15609" lon="7.59731">
        <ele>2077.599</ele>
        <time>2018-07-01T14:20:01Z</time>
      </trkpt>
      <trkpt lat="44.15604" lon="7.59725">
        <ele>2077.532</ele>
        <time>2018-07-01T14:20:02Z</time>
      </trkpt>
      <trkpt lat="44.15597" lon="7.59729">
        <ele>2075.957</ele>
        <time>2018-07-01T14:20:04Z</time>
      </trkpt>
      <trkpt lat="44.1559" lon="7.59723">
        <ele>2074.718</ele>
        <time>2018-07-01T14:20:06Z</time>
      </trkpt>
      <trkpt lat="44.15587" lon="7.59716">
        <ele>2075.684</ele>
        <time>2018-07-01T14:20:07Z</time>
      </trkpt>
      <trkpt lat="44.15586" lon="7.59708">
        <ele>2075.207</ele>
        <time>2018-07-01T14:20:08Z</time>
      </trkpt>
      <trkpt lat="44.15587" lon="7.59699">
        <ele>2072.517</ele>
        <time>2018-07-01T14:20:09Z</time>
      </trkpt>
      <trkpt lat="44.1559" lon="7.59693">
        <ele>2067.408</ele>
        <time>2018-07-01T14:20:10Z</time>
      </trkpt>
      <trkpt lat="44.15591" lon="7.59683">
        <ele>2066.52</ele>
        <time>2018-07-01T14:20:11Z</time>
      </trkpt>
      <trkpt lat="44.15593" lon="7.59676">
        <ele>2063.324</ele>
        <time>2018-07-01T14:20:12Z</time>
      </trkpt>
      <trkpt lat="44.15592" lon="7.59667">
        <ele>2062.86</ele>
        <time>2018-07-01T14:20:13Z</time>
      </trkpt>
      <trkpt lat="44.15589" lon="7.59655">
        <ele>2065.193</ele>
        <time>2018-07-01T14:20:14Z</time>
      </trkpt>
      <trkpt lat="44.15586" lon="7.59649">
        <ele>2064.885</ele>
        <time>2018-07-01T14:20:15Z</time>
      </trkpt>
      <trkpt lat="44.15581" lon="7.59641">
        <ele>2065.698</ele>
        <time>2018-07-01T14:20:16Z</time>
      </trkpt>
      <trkpt lat="44.15575" lon="7.59636">
        <ele>2065.683</ele>
        <time>2018-07-01T14:20:17Z</time>
      </trkpt>
      <trkpt lat="44.1557" lon="7.59631">
        <ele>2065.334</ele>
        <time>2018-07-01T14:20:18Z</time>
      </trkpt>
      <trkpt lat="44.15567" lon="7.59626">
        <ele>2063.821</ele>
        <time>2018-07-01T14:20:19Z</time>
      </trkpt>
      <trkpt lat="44.15566" lon="7.59617">
        <ele>2063.641</ele>
        <time>2018-07-01T14:20:20Z</time>
      </trkpt>
      <trkpt lat="44.15564" lon="7.59608">
        <ele>2063.505</ele>
        <time>2018-07-01T14:20:21Z</time>
      </trkpt>
      <trkpt lat="44.15567" lon="7.59598">
        <ele>2063.308</ele>
        <time>2018-07-01T14:20:22Z</time>
      </trkpt>
      <trkpt lat="44.15569" lon="7.5959">
        <ele>2062.684</ele>
        <time>2018-07-01T14:20:23Z</time>
      </trkpt>
      <trkpt lat="44.15573" lon="7.59582">
        <ele>2062.058</ele>
        <time>2018-07-01T14:20:24Z</time>
      </trkpt>
      <trkpt lat="44.15575" lon="7.59573">
        <ele>2062.024</ele>
        <time>2018-07-01T14:20:25Z</time>
      </trkpt>
      <trkpt lat="44.1558" lon="7.59563">
        <ele>2060.597</ele>
        <time>2018-07-01T14:20:26Z</time>
      </trkpt>
      <trkpt lat="44.15583" lon="7.59552">
        <ele>2057.899</ele>
        <time>2018-07-01T14:20:27Z</time>
      </trkpt>
      <trkpt lat="44.15586" lon="7.59541">
        <ele>2057.062</ele>
        <time>2018-07-01T14:20:28Z</time>
      </trkpt>
      <trkpt lat="44.15589" lon="7.59533">
        <ele>2056.087</ele>
        <time>2018-07-01T14:20:29Z</time>
      </trkpt>
      <trkpt lat="44.15589" lon="7.59524">
        <ele>2055.168</ele>
        <time>2018-07-01T14:20:30Z</time>
      </trkpt>
      <trkpt lat="44.1559" lon="7.59515">
        <ele>2054.865</ele>
        <time>2018-07-01T14:20:31Z</time>
      </trkpt>
      <trkpt lat="44.15589" lon="7.59507">
        <ele>2054.868</ele>
        <time>2018-07-01T14:20:32Z</time>
      </trkpt>
      <trkpt lat="44.15588" lon="7.595">
        <ele>2054.914</ele>
        <time>2018-07-01T14:20:33Z</time>
      </trkpt>
      <trkpt lat="44.1559" lon="7.59493">
        <ele>2054.808</ele>
        <time>2018-07-01T14:20:34Z</time>
      </trkpt>
      <trkpt lat="44.15594" lon="7.59494">
        <ele>2053.278</ele>
        <time>2018-07-01T14:20:35Z</time>
      </trkpt>
      <trkpt lat="44.15601" lon="7.59495">
        <ele>2052.462</ele>
        <time>2018-07-01T14:20:37Z</time>
      </trkpt>
      <trkpt lat="44.15604" lon="7.59499">
        <ele>2052.788</ele>
        <time>2018-07-01T14:20:38Z</time>
      </trkpt>
      <trkpt lat="44.15608" lon="7.59505">
        <ele>2052.521</ele>
        <time>2018-07-01T14:20:39Z</time>
      </trkpt>
      <trkpt lat="44.1561" lon="7.59512">
        <ele>2052.513</ele>
        <time>2018-07-01T14:20:40Z</time>
      </trkpt>
      <trkpt lat="44.15614" lon="7.5952">
        <ele>2051.726</ele>
        <time>2018-07-01T14:20:41Z</time>
      </trkpt>
      <trkpt lat="44.15618" lon="7.59526">
        <ele>2051.731</ele>
        <time>2018-07-01T14:20:42Z</time>
      </trkpt>
      <trkpt lat="44.15624" lon="7.59531">
        <ele>2051.312</ele>
        <time>2018-07-01T14:20:43Z</time>
      </trkpt>
      <trkpt lat="44.15631" lon="7.59535">
        <ele>2050.661</ele>
        <time>2018-07-01T14:20:44Z</time>
      </trkpt>
      <trkpt lat="44.15642" lon="7.59533">
        <ele>2049.721</ele>
        <time>2018-07-01T14:20:45Z</time>
      </trkpt>
      <trkpt lat="44.15651" lon="7.5953">
        <ele>2047.913</ele>
        <time>2018-07-01T14:20:46Z</time>
      </trkpt>
      <trkpt lat="44.1566" lon="7.59524">
        <ele>2046.108</ele>
        <time>2018-07-01T14:20:47Z</time>
      </trkpt>
      <trkpt lat="44.15665" lon="7.59521">
        <ele>2043.768</ele>
        <time>2018-07-01T14:20:48Z</time>
      </trkpt>
      <trkpt lat="44.15673" lon="7.59516">
        <ele>2042.762</ele>
        <time>2018-07-01T14:20:49Z</time>
      </trkpt>
      <trkpt lat="44.15682" lon="7.59514">
        <ele>2040.898</ele>
        <time>2018-07-01T14:20:50Z</time>
      </trkpt>
      <trkpt lat="44.15689" lon="7.59509">
        <ele>2039.561</ele>
        <time>2018-07-01T14:20:51Z</time>
      </trkpt>
      <trkpt lat="44.15698" lon="7.59504">
        <ele>2039.233</ele>
        <time>2018-07-01T14:20:52Z</time>
      </trkpt>
      <trkpt lat="44.15705" lon="7.59505">
        <ele>2036.396</ele>
        <time>2018-07-01T14:20:53Z</time>
      </trkpt>
      <trkpt lat="44.15713" lon="7.59506">
        <ele>2034.071</ele>
        <time>2018-07-01T14:20:54Z</time>
      </trkpt>
      <trkpt lat="44.15722" lon="7.59511">
        <ele>2030.952</ele>
        <time>2018-07-01T14:20:56Z</time>
      </trkpt>
      <trkpt lat="44.15729" lon="7.59513">
        <ele>2030.525</ele>
        <time>2018-07-01T14:20:57Z</time>
      </trkpt>
      <trkpt lat="44.15733" lon="7.59519">
        <ele>2029.926</ele>
        <time>2018-07-01T14:20:58Z</time>
      </trkpt>
      <trkpt lat="44.15719" lon="7.59528">
        <ele>2028.008</ele>
        <time>2018-07-01T14:20:59Z</time>
      </trkpt>
      <trkpt lat="44.15716" lon="7.59538">
        <ele>2027.408</ele>
        <time>2018-07-01T14:21:01Z</time>
      </trkpt>
      <trkpt lat="44.15714" lon="7.59546">
        <ele>2025.634</ele>
        <time>2018-07-01T14:21:03Z</time>
      </trkpt>
      <trkpt lat="44.15719" lon="7.59547">
        <ele>2024.448</ele>
        <time>2018-07-01T14:21:04Z</time>
      </trkpt>
      <trkpt lat="44.15728" lon="7.59542">
        <ele>2024.124</ele>
        <time>2018-07-01T14:21:06Z</time>
      </trkpt>
      <trkpt lat="44.15733" lon="7.59538">
        <ele>2024.347</ele>
        <time>2018-07-01T14:21:07Z</time>
      </trkpt>
      <trkpt lat="44.15738" lon="7.59532">
        <ele>2023.769</ele>
        <time>2018-07-01T14:21:08Z</time>
      </trkpt>
      <trkpt lat="44.15741" lon="7.59525">
        <ele>2021.822</ele>
        <time>2018-07-01T14:21:09Z</time>
      </trkpt>
      <trkpt lat="44.15744" lon="7.5952">
        <ele>2021.217</ele>
        <time>2018-07-01T14:21:10Z</time>
      </trkpt>
      <trkpt lat="44.15748" lon="7.59513">
        <ele>2020.268</ele>
        <time>2018-07-01T14:21:11Z</time>
      </trkpt>
      <trkpt lat="44.15752" lon="7.59507">
        <ele>2019.075</ele>
        <time>2018-07-01T14:21:12Z</time>
      </trkpt>
      <trkpt lat="44.15756" lon="7.59502">
        <ele>2014.728</ele>
        <time>2018-07-01T14:21:13Z</time>
      </trkpt>
      <trkpt lat="44.15759" lon="7.59496">
        <ele>2013.82</ele>
        <time>2018-07-01T14:21:14Z</time>
      </trkpt>
      <trkpt lat="44.15763" lon="7.59487">
        <ele>2013.608</ele>
        <time>2018-07-01T14:21:15Z</time>
      </trkpt>
      <trkpt lat="44.15766" lon="7.59479">
        <ele>2011.369</ele>
        <time>2018-07-01T14:21:16Z</time>
      </trkpt>
      <trkpt lat="44.15769" lon="7.5947">
        <ele>2011.533</ele>
        <time>2018-07-01T14:21:17Z</time>
      </trkpt>
      <trkpt lat="44.15772" lon="7.59461">
        <ele>2008.919</ele>
        <time>2018-07-01T14:21:18Z</time>
      </trkpt>
      <trkpt lat="44.15774" lon="7.59449">
        <ele>2009.032</ele>
        <time>2018-07-01T14:21:19Z</time>
      </trkpt>
      <trkpt lat="44.15775" lon="7.59438">
        <ele>2008.784</ele>
        <time>2018-07-01T14:21:20Z</time>
      </trkpt>
      <trkpt lat="44.15774" lon="7.59426">
        <ele>2009.087</ele>
        <time>2018-07-01T14:21:21Z</time>
      </trkpt>
      <trkpt lat="44.15775" lon="7.59416">
        <ele>2009.462</ele>
        <time>2018-07-01T14:21:22Z</time>
      </trkpt>
      <trkpt lat="44.15775" lon="7.59403">
        <ele>2009.293</ele>
        <time>2018-07-01T14:21:23Z</time>
      </trkpt>
      <trkpt lat="44.15775" lon="7.5939">
        <ele>2008.783</ele>
        <time>2018-07-01T14:21:24Z</time>
      </trkpt>
      <trkpt lat="44.15775" lon="7.59377">
        <ele>2008.625</ele>
        <time>2018-07-01T14:21:25Z</time>
      </trkpt>
      <trkpt lat="44.15777" lon="7.59369">
        <ele>2005.517</ele>
        <time>2018-07-01T14:21:26Z</time>
      </trkpt>
      <trkpt lat="44.15777" lon="7.59356">
        <ele>2005.108</ele>
        <time>2018-07-01T14:21:27Z</time>
      </trkpt>
      <trkpt lat="44.15778" lon="7.59344">
        <ele>2004.86</ele>
        <time>2018-07-01T14:21:28Z</time>
      </trkpt>
      <trkpt lat="44.1578" lon="7.59332">
        <ele>2004.084</ele>
        <time>2018-07-01T14:21:29Z</time>
      </trkpt>
      <trkpt lat="44.1578" lon="7.59319">
        <ele>2003.66</ele>
        <time>2018-07-01T14:21:30Z</time>
      </trkpt>
      <trkpt lat="44.15782" lon="7.59307">
        <ele>2003.373</ele>
        <time>2018-07-01T14:21:31Z</time>
      </trkpt>
      <trkpt lat="44.15784" lon="7.59296">
        <ele>2002.945</ele>
        <time>2018-07-01T14:21:32Z</time>
      </trkpt>
      <trkpt lat="44.15789" lon="7.59284">
        <ele>2003.098</ele>
        <time>2018-07-01T14:21:33Z</time>
      </trkpt>
      <trkpt lat="44.15796" lon="7.59274">
        <ele>2002.773</ele>
        <time>2018-07-01T14:21:34Z</time>
      </trkpt>
      <trkpt lat="44.15802" lon="7.59264">
        <ele>2002.184</ele>
        <time>2018-07-01T14:21:35Z</time>
      </trkpt>
      <trkpt lat="44.15806" lon="7.59261">
        <ele>1999.151</ele>
        <time>2018-07-01T14:21:36Z</time>
      </trkpt>
      <trkpt lat="44.15814" lon="7.5925">
        <ele>1998.701</ele>
        <time>2018-07-01T14:21:37Z</time>
      </trkpt>
      <trkpt lat="44.15821" lon="7.59237">
        <ele>1998.111</ele>
        <time>2018-07-01T14:21:38Z</time>
      </trkpt>
      <trkpt lat="44.1583" lon="7.59226">
        <ele>1997.008</ele>
        <time>2018-07-01T14:21:39Z</time>
      </trkpt>
      <trkpt lat="44.1584" lon="7.59217">
        <ele>1996.497</ele>
        <time>2018-07-01T14:21:40Z</time>
      </trkpt>
      <trkpt lat="44.15848" lon="7.59206">
        <ele>1996.091</ele>
        <time>2018-07-01T14:21:41Z</time>
      </trkpt>
      <trkpt lat="44.15858" lon="7.59196">
        <ele>1996.057</ele>
        <time>2018-07-01T14:21:42Z</time>
      </trkpt>
      <trkpt lat="44.15865" lon="7.59186">
        <ele>1995.74</ele>
        <time>2018-07-01T14:21:43Z</time>
      </trkpt>
      <trkpt lat="44.15871" lon="7.59178">
        <ele>1994.912</ele>
        <time>2018-07-01T14:21:44Z</time>
      </trkpt>
      <trkpt lat="44.15878" lon="7.59167">
        <ele>1994.385</ele>
        <time>2018-07-01T14:21:45Z</time>
      </trkpt>
      <trkpt lat="44.15882" lon="7.59157">
        <ele>1993.14</ele>
        <time>2018-07-01T14:21:46Z</time>
      </trkpt>
      <trkpt lat="44.15888" lon="7.59148">
        <ele>1992.741</ele>
        <time>2018-07-01T14:21:47Z</time>
      </trkpt>
      <trkpt lat="44.15897" lon="7.5914">
        <ele>1992.829</ele>
        <time>2018-07-01T14:21:48Z</time>
      </trkpt>
      <trkpt lat="44.15905" lon="7.59132">
        <ele>1992.3</ele>
        <time>2018-07-01T14:21:49Z</time>
      </trkpt>
      <trkpt lat="44.1591" lon="7.59127">
        <ele>1990.22</ele>
        <time>2018-07-01T14:21:50Z</time>
      </trkpt>
      <trkpt lat="44.15917" lon="7.59123">
        <ele>1989.408</ele>
        <time>2018-07-01T14:21:51Z</time>
      </trkpt>
      <trkpt lat="44.15924" lon="7.59118">
        <ele>1988.574</ele>
        <time>2018-07-01T14:21:52Z</time>
      </trkpt>
      <trkpt lat="44.15932" lon="7.59115">
        <ele>1987.578</ele>
        <time>2018-07-01T14:21:53Z</time>
      </trkpt>
      <trkpt lat="44.1594" lon="7.59112">
        <ele>1986.984</ele>
        <time>2018-07-01T14:21:54Z</time>
      </trkpt>
      <trkpt lat="44.15947" lon="7.59111">
        <ele>1986.447</ele>
        <time>2018-07-01T14:21:55Z</time>
      </trkpt>
      <trkpt lat="44.15955" lon="7.59111">
        <ele>1985.419</ele>
        <time>2018-07-01T14:21:56Z</time>
      </trkpt>
      <trkpt lat="44.15961" lon="7.59106">
        <ele>1986.032</ele>
        <time>2018-07-01T14:21:57Z</time>
      </trkpt>
      <trkpt lat="44.15968" lon="7.59104">
        <ele>1983.647</ele>
        <time>2018-07-01T14:21:58Z</time>
      </trkpt>
      <trkpt lat="44.15975" lon="7.591">
        <ele>1982.878</ele>
        <time>2018-07-01T14:21:59Z</time>
      </trkpt>
      <trkpt lat="44.1598" lon="7.59098">
        <ele>1982.551</ele>
        <time>2018-07-01T14:22:00Z</time>
      </trkpt>
      <trkpt lat="44.15987" lon="7.59095">
        <ele>1982.301</ele>
        <time>2018-07-01T14:22:02Z</time>
      </trkpt>
      <trkpt lat="44.15984" lon="7.59087">
        <ele>1975.711</ele>
        <time>2018-07-01T14:22:38Z</time>
      </trkpt>
      <trkpt lat="44.15982" lon="7.59073">
        <ele>1975.608</ele>
        <time>2018-07-01T14:22:40Z</time>
      </trkpt>
      <trkpt lat="44.15979" lon="7.59068">
        <ele>1975.617</ele>
        <time>2018-07-01T14:22:41Z</time>
      </trkpt>
      <trkpt lat="44.15976" lon="7.59062">
        <ele>1974.651</ele>
        <time>2018-07-01T14:22:42Z</time>
      </trkpt>
      <trkpt lat="44.1597" lon="7.59057">
        <ele>1973.847</ele>
        <time>2018-07-01T14:22:43Z</time>
      </trkpt>
      <trkpt lat="44.15965" lon="7.59053">
        <ele>1972.52</ele>
        <time>2018-07-01T14:22:44Z</time>
      </trkpt>
      <trkpt lat="44.15958" lon="7.59049">
        <ele>1972.132</ele>
        <time>2018-07-01T14:22:45Z</time>
      </trkpt>
      <trkpt lat="44.15953" lon="7.59046">
        <ele>1971.595</ele>
        <time>2018-07-01T14:22:46Z</time>
      </trkpt>
      <trkpt lat="44.15947" lon="7.59044">
        <ele>1970.39</ele>
        <time>2018-07-01T14:22:47Z</time>
      </trkpt>
      <trkpt lat="44.15941" lon="7.59042">
        <ele>1969.151</ele>
        <time>2018-07-01T14:22:48Z</time>
      </trkpt>
      <trkpt lat="44.15936" lon="7.59043">
        <ele>1969.275</ele>
        <time>2018-07-01T14:22:49Z</time>
      </trkpt>
      <trkpt lat="44.15927" lon="7.5905">
        <ele>1966.428</ele>
        <time>2018-07-01T14:22:51Z</time>
      </trkpt>
      <trkpt lat="44.15924" lon="7.59055">
        <ele>1966.12</ele>
        <time>2018-07-01T14:22:52Z</time>
      </trkpt>
      <trkpt lat="44.15917" lon="7.59066">
        <ele>1964.808</ele>
        <time>2018-07-01T14:22:54Z</time>
      </trkpt>
      <trkpt lat="44.15913" lon="7.5907">
        <ele>1964.359</ele>
        <time>2018-07-01T14:22:55Z</time>
      </trkpt>
      <trkpt lat="44.15908" lon="7.59073">
        <ele>1963.233</ele>
        <time>2018-07-01T14:22:57Z</time>
      </trkpt>
      <trkpt lat="44.15902" lon="7.59078">
        <ele>1962.389</ele>
        <time>2018-07-01T14:22:59Z</time>
      </trkpt>
      <trkpt lat="44.15897" lon="7.59083">
        <ele>1961.342</ele>
        <time>2018-07-01T14:23:01Z</time>
      </trkpt>
      <trkpt lat="44.15892" lon="7.59088">
        <ele>1960.034</ele>
        <time>2018-07-01T14:23:03Z</time>
      </trkpt>
      <trkpt lat="44.15885" lon="7.59093">
        <ele>1959.147</ele>
        <time>2018-07-01T14:23:05Z</time>
      </trkpt>
      <trkpt lat="44.15878" lon="7.59098">
        <ele>1958.682</ele>
        <time>2018-07-01T14:23:07Z</time>
      </trkpt>
      <trkpt lat="44.1587" lon="7.59102">
        <ele>1958.483</ele>
        <time>2018-07-01T14:23:09Z</time>
      </trkpt>
      <trkpt lat="44.15865" lon="7.59104">
        <ele>1958.447</ele>
        <time>2018-07-01T14:23:10Z</time>
      </trkpt>
      <trkpt lat="44.15855" lon="7.59104">
        <ele>1957.029</ele>
        <time>2018-07-01T14:23:11Z</time>
      </trkpt>
      <trkpt lat="44.15846" lon="7.59106">
        <ele>1956.921</ele>
        <time>2018-07-01T14:23:12Z</time>
      </trkpt>
      <trkpt lat="44.15839" lon="7.59108">
        <ele>1957.108</ele>
        <time>2018-07-01T14:23:13Z</time>
      </trkpt>
      <trkpt lat="44.15831" lon="7.59109">
        <ele>1956.296</ele>
        <time>2018-07-01T14:23:14Z</time>
      </trkpt>
      <trkpt lat="44.15824" lon="7.59111">
        <ele>1956.14</ele>
        <time>2018-07-01T14:23:15Z</time>
      </trkpt>
      <trkpt lat="44.15816" lon="7.59113">
        <ele>1955.576</ele>
        <time>2018-07-01T14:23:16Z</time>
      </trkpt>
      <trkpt lat="44.15808" lon="7.59116">
        <ele>1954.529</ele>
        <time>2018-07-01T14:23:17Z</time>
      </trkpt>
      <trkpt lat="44.15802" lon="7.59119">
        <ele>1953.571</ele>
        <time>2018-07-01T14:23:18Z</time>
      </trkpt>
      <trkpt lat="44.15796" lon="7.59123">
        <ele>1952.044</ele>
        <time>2018-07-01T14:23:19Z</time>
      </trkpt>
      <trkpt lat="44.15789" lon="7.59128">
        <ele>1952.179</ele>
        <time>2018-07-01T14:23:20Z</time>
      </trkpt>
      <trkpt lat="44.1578" lon="7.59134">
        <ele>1952.58</ele>
        <time>2018-07-01T14:23:21Z</time>
      </trkpt>
      <trkpt lat="44.15772" lon="7.59138">
        <ele>1951.764</ele>
        <time>2018-07-01T14:23:22Z</time>
      </trkpt>
      <trkpt lat="44.15766" lon="7.59142">
        <ele>1949.706</ele>
        <time>2018-07-01T14:23:23Z</time>
      </trkpt>
      <trkpt lat="44.15759" lon="7.59146">
        <ele>1948.816</ele>
        <time>2018-07-01T14:23:24Z</time>
      </trkpt>
      <trkpt lat="44.15752" lon="7.5915">
        <ele>1948.608</ele>
        <time>2018-07-01T14:23:25Z</time>
      </trkpt>
      <trkpt lat="44.15743" lon="7.59153">
        <ele>1948.578</ele>
        <time>2018-07-01T14:23:26Z</time>
      </trkpt>
      <trkpt lat="44.15734" lon="7.59156">
        <ele>1946.922</ele>
        <time>2018-07-01T14:23:27Z</time>
      </trkpt>
      <trkpt lat="44.15725" lon="7.59158">
        <ele>1945.298</ele>
        <time>2018-07-01T14:23:28Z</time>
      </trkpt>
      <trkpt lat="44.15717" lon="7.59161">
        <ele>1942.611</ele>
        <time>2018-07-01T14:23:29Z</time>
      </trkpt>
      <trkpt lat="44.15708" lon="7.59161">
        <ele>1942.153</ele>
        <time>2018-07-01T14:23:30Z</time>
      </trkpt>
      <trkpt lat="44.157" lon="7.59162">
        <ele>1941.776</ele>
        <time>2018-07-01T14:23:31Z</time>
      </trkpt>
      <trkpt lat="44.15692" lon="7.59163">
        <ele>1941.541</ele>
        <time>2018-07-01T14:23:32Z</time>
      </trkpt>
      <trkpt lat="44.15684" lon="7.59164">
        <ele>1940.982</ele>
        <time>2018-07-01T14:23:33Z</time>
      </trkpt>
      <trkpt lat="44.1568" lon="7.59169">
        <ele>1938.547</ele>
        <time>2018-07-01T14:23:34Z</time>
      </trkpt>
      <trkpt lat="44.15673" lon="7.59171">
        <ele>1939.029</ele>
        <time>2018-07-01T14:23:35Z</time>
      </trkpt>
      <trkpt lat="44.15663" lon="7.5918">
        <ele>1936.521</ele>
        <time>2018-07-01T14:23:37Z</time>
      </trkpt>
      <trkpt lat="44.15657" lon="7.59185">
        <ele>1936.808</ele>
        <time>2018-07-01T14:23:38Z</time>
      </trkpt>
      <trkpt lat="44.15649" lon="7.59191">
        <ele>1936.696</ele>
        <time>2018-07-01T14:23:39Z</time>
      </trkpt>
      <trkpt lat="44.15644" lon="7.59198">
        <ele>1935.03</ele>
        <time>2018-07-01T14:23:40Z</time>
      </trkpt>
      <trkpt lat="44.15638" lon="7.59203">
        <ele>1935.436</ele>
        <time>2018-07-01T14:23:41Z</time>
      </trkpt>
      <trkpt lat="44.15631" lon="7.59207">
        <ele>1935.089</ele>
        <time>2018-07-01T14:23:42Z</time>
      </trkpt>
      <trkpt lat="44.15625" lon="7.59206">
        <ele>1934.761</ele>
        <time>2018-07-01T14:23:43Z</time>
      </trkpt>
      <trkpt lat="44.15618" lon="7.59205">
        <ele>1933.734</ele>
        <time>2018-07-01T14:23:44Z</time>
      </trkpt>
      <trkpt lat="44.15609" lon="7.59201">
        <ele>1931.879</ele>
        <time>2018-07-01T14:23:46Z</time>
      </trkpt>
      <trkpt lat="44.15603" lon="7.59199">
        <ele>1930.52</ele>
        <time>2018-07-01T14:23:47Z</time>
      </trkpt>
      <trkpt lat="44.15598" lon="7.59196">
        <ele>1929.675</ele>
        <time>2018-07-01T14:23:48Z</time>
      </trkpt>
      <trkpt lat="44.15594" lon="7.59192">
        <ele>1928.128</ele>
        <time>2018-07-01T14:23:49Z</time>
      </trkpt>
      <trkpt lat="44.15589" lon="7.5919">
        <ele>1927.42</ele>
        <time>2018-07-01T14:23:50Z</time>
      </trkpt>
      <trkpt lat="44.15583" lon="7.59192">
        <ele>1925.808</ele>
        <time>2018-07-01T14:23:51Z</time>
      </trkpt>
      <trkpt lat="44.15577" lon="7.59192">
        <ele>1924.049</ele>
        <time>2018-07-01T14:23:52Z</time>
      </trkpt>
      <trkpt lat="44.1557" lon="7.59188">
        <ele>1923.993</ele>
        <time>2018-07-01T14:23:53Z</time>
      </trkpt>
      <trkpt lat="44.15562" lon="7.59179">
        <ele>1923.949</ele>
        <time>2018-07-01T14:23:54Z</time>
      </trkpt>
      <trkpt lat="44.15555" lon="7.59173">
        <ele>1923.352</ele>
        <time>2018-07-01T14:23:55Z</time>
      </trkpt>
      <trkpt lat="44.15548" lon="7.59167">
        <ele>1922.734</ele>
        <time>2018-07-01T14:23:56Z</time>
      </trkpt>
      <trkpt lat="44.15542" lon="7.59171">
        <ele>1920.247</ele>
        <time>2018-07-01T14:23:58Z</time>
      </trkpt>
      <trkpt lat="44.15531" lon="7.59174">
        <ele>1919.242</ele>
        <time>2018-07-01T14:24:00Z</time>
      </trkpt>
      <trkpt lat="44.15522" lon="7.59178">
        <ele>1918.443</ele>
        <time>2018-07-01T14:24:01Z</time>
      </trkpt>
      <trkpt lat="44.15513" lon="7.59173">
        <ele>1918.354</ele>
        <time>2018-07-01T14:24:02Z</time>
      </trkpt>
      <trkpt lat="44.15506" lon="7.59173">
        <ele>1916.056</ele>
        <time>2018-07-01T14:24:03Z</time>
      </trkpt>
      <trkpt lat="44.15501" lon="7.59166">
        <ele>1915.911</ele>
        <time>2018-07-01T14:24:04Z</time>
      </trkpt>
      <trkpt lat="44.15497" lon="7.59166">
        <ele>1915.108</ele>
        <time>2018-07-01T14:24:05Z</time>
      </trkpt>
      <trkpt lat="44.15493" lon="7.59157">
        <ele>1915.287</ele>
        <time>2018-07-01T14:24:06Z</time>
      </trkpt>
      <trkpt lat="44.15489" lon="7.59148">
        <ele>1914.621</ele>
        <time>2018-07-01T14:24:07Z</time>
      </trkpt>
      <trkpt lat="44.15483" lon="7.59138">
        <ele>1914.957</ele>
        <time>2018-07-01T14:24:08Z</time>
      </trkpt>
      <trkpt lat="44.15479" lon="7.59129">
        <ele>1915.71</ele>
        <time>2018-07-01T14:24:09Z</time>
      </trkpt>
      <trkpt lat="44.15474" lon="7.59121">
        <ele>1915.712</ele>
        <time>2018-07-01T14:24:10Z</time>
      </trkpt>
      <trkpt lat="44.15467" lon="7.59115">
        <ele>1915.345</ele>
        <time>2018-07-01T14:24:11Z</time>
      </trkpt>
      <trkpt lat="44.1546" lon="7.59107">
        <ele>1915.05</ele>
        <time>2018-07-01T14:24:13Z</time>
      </trkpt>
      <trkpt lat="44.15451" lon="7.59099">
        <ele>1914.341</ele>
        <time>2018-07-01T14:24:15Z</time>
      </trkpt>
      <trkpt lat="44.15447" lon="7.59092">
        <ele>1913.634</ele>
        <time>2018-07-01T14:24:16Z</time>
      </trkpt>
      <trkpt lat="44.15439" lon="7.59084">
        <ele>1914.355</ele>
        <time>2018-07-01T14:24:17Z</time>
      </trkpt>
      <trkpt lat="44.15434" lon="7.59075">
        <ele>1916.01</ele>
        <time>2018-07-01T14:24:18Z</time>
      </trkpt>
      <trkpt lat="44.1543" lon="7.59068">
        <ele>1916.208</ele>
        <time>2018-07-01T14:24:19Z</time>
      </trkpt>
      <trkpt lat="44.15425" lon="7.59057">
        <ele>1916.545</ele>
        <time>2018-07-01T14:24:20Z</time>
      </trkpt>
      <trkpt lat="44.15427" lon="7.59049">
        <ele>1916.669</ele>
        <time>2018-07-01T14:24:21Z</time>
      </trkpt>
      <trkpt lat="44.15427" lon="7.5904">
        <ele>1916.675</ele>
        <time>2018-07-01T14:24:22Z</time>
      </trkpt>
      <trkpt lat="44.15423" lon="7.59032">
        <ele>1917.358</ele>
        <time>2018-07-01T14:24:23Z</time>
      </trkpt>
      <trkpt lat="44.15418" lon="7.59024">
        <ele>1919.26</ele>
        <time>2018-07-01T14:24:24Z</time>
      </trkpt>
      <trkpt lat="44.15419" lon="7.59016">
        <ele>1919.413</ele>
        <time>2018-07-01T14:24:25Z</time>
      </trkpt>
      <trkpt lat="44.15418" lon="7.59008">
        <ele>1919.638</ele>
        <time>2018-07-01T14:24:26Z</time>
      </trkpt>
      <trkpt lat="44.15419" lon="7.59">
        <ele>1919.869</ele>
        <time>2018-07-01T14:24:27Z</time>
      </trkpt>
      <trkpt lat="44.15418" lon="7.58992">
        <ele>1920.092</ele>
        <time>2018-07-01T14:24:28Z</time>
      </trkpt>
      <trkpt lat="44.15417" lon="7.58983">
        <ele>1920.273</ele>
        <time>2018-07-01T14:24:29Z</time>
      </trkpt>
      <trkpt lat="44.15413" lon="7.58974">
        <ele>1920.62</ele>
        <time>2018-07-01T14:24:30Z</time>
      </trkpt>
      <trkpt lat="44.1541" lon="7.58965">
        <ele>1921.608</ele>
        <time>2018-07-01T14:24:31Z</time>
      </trkpt>
      <trkpt lat="44.1541" lon="7.58957">
        <ele>1923.721</ele>
        <time>2018-07-01T14:24:32Z</time>
      </trkpt>
      <trkpt lat="44.15408" lon="7.58946">
        <ele>1924.085</ele>
        <time>2018-07-01T14:24:33Z</time>
      </trkpt>
      <trkpt lat="44.15404" lon="7.58937">
        <ele>1924.451</ele>
        <time>2018-07-01T14:24:34Z</time>
      </trkpt>
      <trkpt lat="44.15405" lon="7.58926">
        <ele>1925.814</ele>
        <time>2018-07-01T14:24:35Z</time>
      </trkpt>
      <trkpt lat="44.15403" lon="7.58916">
        <ele>1925.686</ele>
        <time>2018-07-01T14:24:36Z</time>
      </trkpt>
      <trkpt lat="44.15402" lon="7.58906">
        <ele>1925.319</ele>
        <time>2018-07-01T14:24:37Z</time>
      </trkpt>
      <trkpt lat="44.15401" lon="7.58896">
        <ele>1925.514</ele>
        <time>2018-07-01T14:24:38Z</time>
      </trkpt>
      <trkpt lat="44.15401" lon="7.58888">
        <ele>1925.565</ele>
        <time>2018-07-01T14:24:39Z</time>
      </trkpt>
      <trkpt lat="44.15401" lon="7.58878">
        <ele>1925.134</ele>
        <time>2018-07-01T14:24:40Z</time>
      </trkpt>
      <trkpt lat="44.15401" lon="7.58869">
        <ele>1925.255</ele>
        <time>2018-07-01T14:24:41Z</time>
      </trkpt>
      <trkpt lat="44.15399" lon="7.58861">
        <ele>1925.11</ele>
        <time>2018-07-01T14:24:42Z</time>
      </trkpt>
      <trkpt lat="44.15394" lon="7.58853">
        <ele>1925.108</ele>
        <time>2018-07-01T14:24:43Z</time>
      </trkpt>
      <trkpt lat="44.15391" lon="7.58844">
        <ele>1924.945</ele>
        <time>2018-07-01T14:24:44Z</time>
      </trkpt>
      <trkpt lat="44.15387" lon="7.58836">
        <ele>1924.979</ele>
        <time>2018-07-01T14:24:45Z</time>
      </trkpt>
      <trkpt lat="44.15382" lon="7.58827">
        <ele>1925.375</ele>
        <time>2018-07-01T14:24:46Z</time>
      </trkpt>
      <trkpt lat="44.15382" lon="7.58817">
        <ele>1925.898</ele>
        <time>2018-07-01T14:24:47Z</time>
      </trkpt>
      <trkpt lat="44.15382" lon="7.58806">
        <ele>1925.52</ele>
        <time>2018-07-01T14:24:48Z</time>
      </trkpt>
      <trkpt lat="44.15381" lon="7.58794">
        <ele>1925.143</ele>
        <time>2018-07-01T14:24:49Z</time>
      </trkpt>
      <trkpt lat="44.1538" lon="7.58784">
        <ele>1924.558</ele>
        <time>2018-07-01T14:24:50Z</time>
      </trkpt>
      <trkpt lat="44.15379" lon="7.58774">
        <ele>1924.699</ele>
        <time>2018-07-01T14:24:51Z</time>
      </trkpt>
      <trkpt lat="44.15377" lon="7.58765">
        <ele>1924.136</ele>
        <time>2018-07-01T14:24:52Z</time>
      </trkpt>
      <trkpt lat="44.15374" lon="7.58756">
        <ele>1924.317</ele>
        <time>2018-07-01T14:24:53Z</time>
      </trkpt>
      <trkpt lat="44.15371" lon="7.58746">
        <ele>1925.218</ele>
        <time>2018-07-01T14:24:54Z</time>
      </trkpt>
      <trkpt lat="44.15368" lon="7.58736">
        <ele>1925.608</ele>
        <time>2018-07-01T14:24:55Z</time>
      </trkpt>
      <trkpt lat="44.15367" lon="7.58726">
        <ele>1925.725</ele>
        <time>2018-07-01T14:24:56Z</time>
      </trkpt>
      <trkpt lat="44.15364" lon="7.5871">
        <ele>1925.279</ele>
        <time>2018-07-01T14:24:57Z</time>
      </trkpt>
      <trkpt lat="44.15363" lon="7.58697">
        <ele>1925.265</ele>
        <time>2018-07-01T14:24:58Z</time>
      </trkpt>
      <trkpt lat="44.15361" lon="7.58685">
        <ele>1925.468</ele>
        <time>2018-07-01T14:24:59Z</time>
      </trkpt>
      <trkpt lat="44.15359" lon="7.58674">
        <ele>1925.42</ele>
        <time>2018-07-01T14:25:00Z</time>
      </trkpt>
      <trkpt lat="44.15356" lon="7.58665">
        <ele>1924.923</ele>
        <time>2018-07-01T14:25:01Z</time>
      </trkpt>
      <trkpt lat="44.15354" lon="7.58656">
        <ele>1924.258</ele>
        <time>2018-07-01T14:25:02Z</time>
      </trkpt>
      <trkpt lat="44.15349" lon="7.58647">
        <ele>1923.279</ele>
        <time>2018-07-01T14:25:03Z</time>
      </trkpt>
      <trkpt lat="44.15346" lon="7.58637">
        <ele>1923.093</ele>
        <time>2018-07-01T14:25:04Z</time>
      </trkpt>
      <trkpt lat="44.15343" lon="7.58625">
        <ele>1922.665</ele>
        <time>2018-07-01T14:25:05Z</time>
      </trkpt>
      <trkpt lat="44.1534" lon="7.58613">
        <ele>1921.621</ele>
        <time>2018-07-01T14:25:06Z</time>
      </trkpt>
      <trkpt lat="44.15336" lon="7.58603">
        <ele>1921.108</ele>
        <time>2018-07-01T14:25:07Z</time>
      </trkpt>
      <trkpt lat="44.15334" lon="7.58594">
        <ele>1921.061</ele>
        <time>2018-07-01T14:25:08Z</time>
      </trkpt>
      <trkpt lat="44.15332" lon="7.58584">
        <ele>1920.715</ele>
        <time>2018-07-01T14:25:09Z</time>
      </trkpt>
      <trkpt lat="44.15329" lon="7.58573">
        <ele>1920.891</ele>
        <time>2018-07-01T14:25:10Z</time>
      </trkpt>
      <trkpt lat="44.15325" lon="7.58561">
        <ele>1920.084</ele>
        <time>2018-07-01T14:25:11Z</time>
      </trkpt>
      <trkpt lat="44.15323" lon="7.58549">
        <ele>1919.596</ele>
        <time>2018-07-01T14:25:12Z</time>
      </trkpt>
      <trkpt lat="44.15321" lon="7.58539">
        <ele>1919.459</ele>
        <time>2018-07-01T14:25:13Z</time>
      </trkpt>
      <trkpt lat="44.15317" lon="7.5853">
        <ele>1919.294</ele>
        <time>2018-07-01T14:25:14Z</time>
      </trkpt>
      <trkpt lat="44.15315" lon="7.58521">
        <ele>1919.075</ele>
        <time>2018-07-01T14:25:15Z</time>
      </trkpt>
      <trkpt lat="44.15312" lon="7.58513">
        <ele>1918.226</ele>
        <time>2018-07-01T14:25:16Z</time>
      </trkpt>
      <trkpt lat="44.15309" lon="7.58502">
        <ele>1918.447</ele>
        <time>2018-07-01T14:25:17Z</time>
      </trkpt>
      <trkpt lat="44.15307" lon="7.58491">
        <ele>1918.411</ele>
        <time>2018-07-01T14:25:18Z</time>
      </trkpt>
      <trkpt lat="44.15305" lon="7.5848">
        <ele>1918.808</ele>
        <time>2018-07-01T14:25:19Z</time>
      </trkpt>
      <trkpt lat="44.15301" lon="7.58471">
        <ele>1919.414</ele>
        <time>2018-07-01T14:25:20Z</time>
      </trkpt>
      <trkpt lat="44.15299" lon="7.58462">
        <ele>1918.078</ele>
        <time>2018-07-01T14:25:21Z</time>
      </trkpt>
      <trkpt lat="44.153" lon="7.58452">
        <ele>1918.024</ele>
        <time>2018-07-01T14:25:22Z</time>
      </trkpt>
      <trkpt lat="44.153" lon="7.58442">
        <ele>1917.627</ele>
        <time>2018-07-01T14:25:23Z</time>
      </trkpt>
      <trkpt lat="44.15301" lon="7.5843">
        <ele>1917.559</ele>
        <time>2018-07-01T14:25:24Z</time>
      </trkpt>
      <trkpt lat="44.15302" lon="7.58419">
        <ele>1916.932</ele>
        <time>2018-07-01T14:25:25Z</time>
      </trkpt>
      <trkpt lat="44.15299" lon="7.58412">
        <ele>1916.897</ele>
        <time>2018-07-01T14:25:26Z</time>
      </trkpt>
      <trkpt lat="44.15303" lon="7.58396">
        <ele>1917.038</ele>
        <time>2018-07-01T14:25:27Z</time>
      </trkpt>
      <trkpt lat="44.15305" lon="7.58382">
        <ele>1916.681</ele>
        <time>2018-07-01T14:25:28Z</time>
      </trkpt>
      <trkpt lat="44.15306" lon="7.58369">
        <ele>1916.461</ele>
        <time>2018-07-01T14:25:29Z</time>
      </trkpt>
      <trkpt lat="44.15308" lon="7.58356">
        <ele>1915.917</ele>
        <time>2018-07-01T14:25:30Z</time>
      </trkpt>
      <trkpt lat="44.15311" lon="7.58346">
        <ele>1912.708</ele>
        <time>2018-07-01T14:25:31Z</time>
      </trkpt>
      <trkpt lat="44.15315" lon="7.58333">
        <ele>1911.98</ele>
        <time>2018-07-01T14:25:32Z</time>
      </trkpt>
      <trkpt lat="44.15318" lon="7.58321">
        <ele>1911.994</ele>
        <time>2018-07-01T14:25:33Z</time>
      </trkpt>
      <trkpt lat="44.15321" lon="7.5831">
        <ele>1911.35</ele>
        <time>2018-07-01T14:25:34Z</time>
      </trkpt>
      <trkpt lat="44.15324" lon="7.58301">
        <ele>1910.793</ele>
        <time>2018-07-01T14:25:35Z</time>
      </trkpt>
      <trkpt lat="44.15329" lon="7.58292">
        <ele>1909.995</ele>
        <time>2018-07-01T14:25:36Z</time>
      </trkpt>
      <trkpt lat="44.15334" lon="7.58284">
        <ele>1909.738</ele>
        <time>2018-07-01T14:25:37Z</time>
      </trkpt>
      <trkpt lat="44.1534" lon="7.58277">
        <ele>1908.993</ele>
        <time>2018-07-01T14:25:38Z</time>
      </trkpt>
      <trkpt lat="44.15345" lon="7.58269">
        <ele>1908.424</ele>
        <time>2018-07-01T14:25:39Z</time>
      </trkpt>
      <trkpt lat="44.15349" lon="7.58262">
        <ele>1908.182</ele>
        <time>2018-07-01T14:25:40Z</time>
      </trkpt>
      <trkpt lat="44.15345" lon="7.58254">
        <ele>1907.043</ele>
        <time>2018-07-01T14:25:41Z</time>
      </trkpt>
      <trkpt lat="44.15339" lon="7.58245">
        <ele>1904.617</ele>
        <time>2018-07-01T14:25:42Z</time>
      </trkpt>
      <trkpt lat="44.15334" lon="7.58235">
        <ele>1903.908</ele>
        <time>2018-07-01T14:25:43Z</time>
      </trkpt>
      <trkpt lat="44.1533" lon="7.58225">
        <ele>1903.65</ele>
        <time>2018-07-01T14:25:44Z</time>
      </trkpt>
      <trkpt lat="44.15323" lon="7.58216">
        <ele>1902.624</ele>
        <time>2018-07-01T14:25:45Z</time>
      </trkpt>
      <trkpt lat="44.1532" lon="7.58209">
        <ele>1901.37</ele>
        <time>2018-07-01T14:25:46Z</time>
      </trkpt>
      <trkpt lat="44.15315" lon="7.58199">
        <ele>1900.433</ele>
        <time>2018-07-01T14:25:47Z</time>
      </trkpt>
      <trkpt lat="44.15311" lon="7.58187">
        <ele>1900.275</ele>
        <time>2018-07-01T14:25:48Z</time>
      </trkpt>
      <trkpt lat="44.15309" lon="7.58175">
        <ele>1899.638</ele>
        <time>2018-07-01T14:25:49Z</time>
      </trkpt>
      <trkpt lat="44.15306" lon="7.58164">
        <ele>1899.553</ele>
        <time>2018-07-01T14:25:50Z</time>
      </trkpt>
      <trkpt lat="44.15304" lon="7.58154">
        <ele>1898.334</ele>
        <time>2018-07-01T14:25:51Z</time>
      </trkpt>
      <trkpt lat="44.15299" lon="7.58145">
        <ele>1897.682</ele>
        <time>2018-07-01T14:25:52Z</time>
      </trkpt>
      <trkpt lat="44.15294" lon="7.58137">
        <ele>1896.343</ele>
        <time>2018-07-01T14:25:53Z</time>
      </trkpt>
      <trkpt lat="44.15288" lon="7.58129">
        <ele>1896.317</ele>
        <time>2018-07-01T14:25:54Z</time>
      </trkpt>
      <trkpt lat="44.15282" lon="7.58119">
        <ele>1895.308</ele>
        <time>2018-07-01T14:25:55Z</time>
      </trkpt>
      <trkpt lat="44.15276" lon="7.58107">
        <ele>1895.51</ele>
        <time>2018-07-01T14:25:56Z</time>
      </trkpt>
      <trkpt lat="44.15271" lon="7.58098">
        <ele>1894.354</ele>
        <time>2018-07-01T14:25:57Z</time>
      </trkpt>
      <trkpt lat="44.15267" lon="7.58089">
        <ele>1893.71</ele>
        <time>2018-07-01T14:25:58Z</time>
      </trkpt>
      <trkpt lat="44.15263" lon="7.58079">
        <ele>1894.013</ele>
        <time>2018-07-01T14:25:59Z</time>
      </trkpt>
      <trkpt lat="44.15259" lon="7.58069">
        <ele>1893.265</ele>
        <time>2018-07-01T14:26:00Z</time>
      </trkpt>
      <trkpt lat="44.15257" lon="7.58059">
        <ele>1892.648</ele>
        <time>2018-07-01T14:26:01Z</time>
      </trkpt>
      <trkpt lat="44.15254" lon="7.58048">
        <ele>1891.683</ele>
        <time>2018-07-01T14:26:02Z</time>
      </trkpt>
      <trkpt lat="44.1525" lon="7.58038">
        <ele>1891.094</ele>
        <time>2018-07-01T14:26:03Z</time>
      </trkpt>
      <trkpt lat="44.15247" lon="7.58027">
        <ele>1891.049</ele>
        <time>2018-07-01T14:26:04Z</time>
      </trkpt>
      <trkpt lat="44.15245" lon="7.58016">
        <ele>1889.802</ele>
        <time>2018-07-01T14:26:05Z</time>
      </trkpt>
      <trkpt lat="44.15243" lon="7.58005">
        <ele>1889.622</ele>
        <time>2018-07-01T14:26:06Z</time>
      </trkpt>
      <trkpt lat="44.15242" lon="7.57993">
        <ele>1888.008</ele>
        <time>2018-07-01T14:26:07Z</time>
      </trkpt>
      <trkpt lat="44.15242" lon="7.57982">
        <ele>1887.936</ele>
        <time>2018-07-01T14:26:08Z</time>
      </trkpt>
      <trkpt lat="44.15241" lon="7.57971">
        <ele>1887.96</ele>
        <time>2018-07-01T14:26:09Z</time>
      </trkpt>
      <trkpt lat="44.1524" lon="7.5796">
        <ele>1887.166</ele>
        <time>2018-07-01T14:26:10Z</time>
      </trkpt>
      <trkpt lat="44.15239" lon="7.57949">
        <ele>1887.179</ele>
        <time>2018-07-01T14:26:11Z</time>
      </trkpt>
      <trkpt lat="44.15239" lon="7.57938">
        <ele>1887.111</ele>
        <time>2018-07-01T14:26:12Z</time>
      </trkpt>
      <trkpt lat="44.15239" lon="7.57928">
        <ele>1886.614</ele>
        <time>2018-07-01T14:26:13Z</time>
      </trkpt>
      <trkpt lat="44.15237" lon="7.57916">
        <ele>1886.199</ele>
        <time>2018-07-01T14:26:14Z</time>
      </trkpt>
      <trkpt lat="44.15236" lon="7.57907">
        <ele>1884.68</ele>
        <time>2018-07-01T14:26:15Z</time>
      </trkpt>
      <trkpt lat="44.15237" lon="7.57896">
        <ele>1884.629</ele>
        <time>2018-07-01T14:26:16Z</time>
      </trkpt>
      <trkpt lat="44.15237" lon="7.57885">
        <ele>1883.9</ele>
        <time>2018-07-01T14:26:17Z</time>
      </trkpt>
      <trkpt lat="44.15237" lon="7.57874">
        <ele>1884.52</ele>
        <time>2018-07-01T14:26:18Z</time>
      </trkpt>
      <trkpt lat="44.1524" lon="7.57868">
        <ele>1883.208</ele>
        <time>2018-07-01T14:26:19Z</time>
      </trkpt>
      <trkpt lat="44.1524" lon="7.57857">
        <ele>1882.914</ele>
        <time>2018-07-01T14:26:20Z</time>
      </trkpt>
      <trkpt lat="44.15244" lon="7.57847">
        <ele>1884.148</ele>
        <time>2018-07-01T14:26:21Z</time>
      </trkpt>
      <trkpt lat="44.15247" lon="7.57837">
        <ele>1884.354</ele>
        <time>2018-07-01T14:26:22Z</time>
      </trkpt>
      <trkpt lat="44.1525" lon="7.57828">
        <ele>1884.417</ele>
        <time>2018-07-01T14:26:23Z</time>
      </trkpt>
      <trkpt lat="44.15252" lon="7.57818">
        <ele>1885.249</ele>
        <time>2018-07-01T14:26:24Z</time>
      </trkpt>
      <trkpt lat="44.15256" lon="7.57808">
        <ele>1884.842</ele>
        <time>2018-07-01T14:26:25Z</time>
      </trkpt>
      <trkpt lat="44.15259" lon="7.57799">
        <ele>1884.857</ele>
        <time>2018-07-01T14:26:26Z</time>
      </trkpt>
      <trkpt lat="44.15263" lon="7.57791">
        <ele>1883.948</ele>
        <time>2018-07-01T14:26:27Z</time>
      </trkpt>
      <trkpt lat="44.15268" lon="7.57784">
        <ele>1882.695</ele>
        <time>2018-07-01T14:26:28Z</time>
      </trkpt>
      <trkpt lat="44.15272" lon="7.57777">
        <ele>1881.849</ele>
        <time>2018-07-01T14:26:29Z</time>
      </trkpt>
      <trkpt lat="44.15277" lon="7.5777">
        <ele>1880.523</ele>
        <time>2018-07-01T14:26:30Z</time>
      </trkpt>
      <trkpt lat="44.15279" lon="7.57761">
        <ele>1880.208</ele>
        <time>2018-07-01T14:26:31Z</time>
      </trkpt>
      <trkpt lat="44.15282" lon="7.57753">
        <ele>1879.951</ele>
        <time>2018-07-01T14:26:32Z</time>
      </trkpt>
      <trkpt lat="44.15288" lon="7.57748">
        <ele>1879.665</ele>
        <time>2018-07-01T14:26:33Z</time>
      </trkpt>
      <trkpt lat="44.15294" lon="7.5774">
        <ele>1879.421</ele>
        <time>2018-07-01T14:26:34Z</time>
      </trkpt>
      <trkpt lat="44.15299" lon="7.57735">
        <ele>1883.334</ele>
        <time>2018-07-01T14:26:35Z</time>
      </trkpt>
      <trkpt lat="44.15305" lon="7.57729">
        <ele>1883.976</ele>
        <time>2018-07-01T14:26:36Z</time>
      </trkpt>
      <trkpt lat="44.15311" lon="7.57724">
        <ele>1883.979</ele>
        <time>2018-07-01T14:26:37Z</time>
      </trkpt>
      <trkpt lat="44.15316" lon="7.57719">
        <ele>1883.124</ele>
        <time>2018-07-01T14:26:38Z</time>
      </trkpt>
      <trkpt lat="44.15321" lon="7.57711">
        <ele>1882.725</ele>
        <time>2018-07-01T14:26:39Z</time>
      </trkpt>
      <trkpt lat="44.15327" lon="7.57702">
        <ele>1882.594</ele>
        <time>2018-07-01T14:26:40Z</time>
      </trkpt>
      <trkpt lat="44.15333" lon="7.57691">
        <ele>1883.057</ele>
        <time>2018-07-01T14:26:41Z</time>
      </trkpt>
      <trkpt lat="44.1534" lon="7.57684">
        <ele>1884.622</ele>
        <time>2018-07-01T14:26:42Z</time>
      </trkpt>
      <trkpt lat="44.15346" lon="7.57677">
        <ele>1883.708</ele>
        <time>2018-07-01T14:26:43Z</time>
      </trkpt>
      <trkpt lat="44.15351" lon="7.57671">
        <ele>1883.721</ele>
        <time>2018-07-01T14:26:44Z</time>
      </trkpt>
      <trkpt lat="44.15354" lon="7.57664">
        <ele>1884.245</ele>
        <time>2018-07-01T14:26:45Z</time>
      </trkpt>
      <trkpt lat="44.1536" lon="7.57659">
        <ele>1884.681</ele>
        <time>2018-07-01T14:26:46Z</time>
      </trkpt>
      <trkpt lat="44.15366" lon="7.57654">
        <ele>1883.994</ele>
        <time>2018-07-01T14:26:47Z</time>
      </trkpt>
      <trkpt lat="44.15371" lon="7.57648">
        <ele>1883.266</ele>
        <time>2018-07-01T14:26:48Z</time>
      </trkpt>
      <trkpt lat="44.15376" lon="7.57642">
        <ele>1883.699</ele>
        <time>2018-07-01T14:26:49Z</time>
      </trkpt>
      <trkpt lat="44.1538" lon="7.57635">
        <ele>1883.644</ele>
        <time>2018-07-01T14:26:50Z</time>
      </trkpt>
      <trkpt lat="44.15382" lon="7.57627">
        <ele>1884.395</ele>
        <time>2018-07-01T14:26:51Z</time>
      </trkpt>
      <trkpt lat="44.15388" lon="7.57619">
        <ele>1885.081</ele>
        <time>2018-07-01T14:26:52Z</time>
      </trkpt>
      <trkpt lat="44.15389" lon="7.57609">
        <ele>1885.861</ele>
        <time>2018-07-01T14:26:53Z</time>
      </trkpt>
      <trkpt lat="44.15388" lon="7.57601">
        <ele>1886.717</ele>
        <time>2018-07-01T14:26:54Z</time>
      </trkpt>
      <trkpt lat="44.15384" lon="7.57593">
        <ele>1886.008</ele>
        <time>2018-07-01T14:26:55Z</time>
      </trkpt>
      <trkpt lat="44.15382" lon="7.57584">
        <ele>1886.27</ele>
        <time>2018-07-01T14:26:56Z</time>
      </trkpt>
      <trkpt lat="44.15379" lon="7.57576">
        <ele>1886.044</ele>
        <time>2018-07-01T14:26:57Z</time>
      </trkpt>
      <trkpt lat="44.15375" lon="7.57565">
        <ele>1886.37</ele>
        <time>2018-07-01T14:26:58Z</time>
      </trkpt>
      <trkpt lat="44.15371" lon="7.57554">
        <ele>1886.263</ele>
        <time>2018-07-01T14:26:59Z</time>
      </trkpt>
      <trkpt lat="44.15367" lon="7.57542">
        <ele>1887.285</ele>
        <time>2018-07-01T14:27:00Z</time>
      </trkpt>
      <trkpt lat="44.15366" lon="7.57528">
        <ele>1887.528</ele>
        <time>2018-07-01T14:27:01Z</time>
      </trkpt>
      <trkpt lat="44.15361" lon="7.5752">
        <ele>1887.023</ele>
        <time>2018-07-01T14:27:02Z</time>
      </trkpt>
      <trkpt lat="44.15357" lon="7.5751">
        <ele>1886.534</ele>
        <time>2018-07-01T14:27:03Z</time>
      </trkpt>
      <trkpt lat="44.15354" lon="7.575">
        <ele>1886.838</ele>
        <time>2018-07-01T14:27:04Z</time>
      </trkpt>
      <trkpt lat="44.15351" lon="7.57494">
        <ele>1886.47</ele>
        <time>2018-07-01T14:27:05Z</time>
      </trkpt>
      <trkpt lat="44.15347" lon="7.57486">
        <ele>1886.317</ele>
        <time>2018-07-01T14:27:06Z</time>
      </trkpt>
      <trkpt lat="44.15343" lon="7.57479">
        <ele>1886.408</ele>
        <time>2018-07-01T14:27:07Z</time>
      </trkpt>
      <trkpt lat="44.15338" lon="7.57469">
        <ele>1886.075</ele>
        <time>2018-07-01T14:27:08Z</time>
      </trkpt>
      <trkpt lat="44.15335" lon="7.57457">
        <ele>1885.329</ele>
        <time>2018-07-01T14:27:09Z</time>
      </trkpt>
      <trkpt lat="44.15329" lon="7.57447">
        <ele>1885.555</ele>
        <time>2018-07-01T14:27:10Z</time>
      </trkpt>
      <trkpt lat="44.15323" lon="7.57438">
        <ele>1885.698</ele>
        <time>2018-07-01T14:27:11Z</time>
      </trkpt>
      <trkpt lat="44.15315" lon="7.5743">
        <ele>1885.36</ele>
        <time>2018-07-01T14:27:12Z</time>
      </trkpt>
      <trkpt lat="44.1531" lon="7.57421">
        <ele>1884.733</ele>
        <time>2018-07-01T14:27:13Z</time>
      </trkpt>
      <trkpt lat="44.15305" lon="7.57414">
        <ele>1885.228</ele>
        <time>2018-07-01T14:27:14Z</time>
      </trkpt>
      <trkpt lat="44.15298" lon="7.57407">
        <ele>1885.799</ele>
        <time>2018-07-01T14:27:15Z</time>
      </trkpt>
      <trkpt lat="44.15292" lon="7.574">
        <ele>1886.055</ele>
        <time>2018-07-01T14:27:16Z</time>
      </trkpt>
      <trkpt lat="44.15285" lon="7.57394">
        <ele>1886.207</ele>
        <time>2018-07-01T14:27:17Z</time>
      </trkpt>
      <trkpt lat="44.15278" lon="7.57387">
        <ele>1886.617</ele>
        <time>2018-07-01T14:27:18Z</time>
      </trkpt>
      <trkpt lat="44.15272" lon="7.57383">
        <ele>1886.908</ele>
        <time>2018-07-01T14:27:19Z</time>
      </trkpt>
      <trkpt lat="44.15266" lon="7.57375">
        <ele>1886.387</ele>
        <time>2018-07-01T14:27:20Z</time>
      </trkpt>
      <trkpt lat="44.1526" lon="7.57368">
        <ele>1886.481</ele>
        <time>2018-07-01T14:27:21Z</time>
      </trkpt>
      <trkpt lat="44.15254" lon="7.57362">
        <ele>1886.827</ele>
        <time>2018-07-01T14:27:22Z</time>
      </trkpt>
      <trkpt lat="44.15248" lon="7.57357">
        <ele>1887.34</ele>
        <time>2018-07-01T14:27:23Z</time>
      </trkpt>
      <trkpt lat="44.15241" lon="7.5735">
        <ele>1887.242</ele>
        <time>2018-07-01T14:27:24Z</time>
      </trkpt>
      <trkpt lat="44.15235" lon="7.57344">
        <ele>1887.195</ele>
        <time>2018-07-01T14:27:25Z</time>
      </trkpt>
      <trkpt lat="44.1523" lon="7.57336">
        <ele>1887.26</ele>
        <time>2018-07-01T14:27:26Z</time>
      </trkpt>
      <trkpt lat="44.15224" lon="7.57332">
        <ele>1887.741</ele>
        <time>2018-07-01T14:27:27Z</time>
      </trkpt>
      <trkpt lat="44.15219" lon="7.57326">
        <ele>1887.676</ele>
        <time>2018-07-01T14:27:28Z</time>
      </trkpt>
      <trkpt lat="44.15213" lon="7.5732">
        <ele>1887.39</ele>
        <time>2018-07-01T14:27:29Z</time>
      </trkpt>
      <trkpt lat="44.15207" lon="7.57316">
        <ele>1886.919</ele>
        <time>2018-07-01T14:27:30Z</time>
      </trkpt>
      <trkpt lat="44.15201" lon="7.57308">
        <ele>1887.308</ele>
        <time>2018-07-01T14:27:31Z</time>
      </trkpt>
      <trkpt lat="44.15195" lon="7.57302">
        <ele>1887.149</ele>
        <time>2018-07-01T14:27:32Z</time>
      </trkpt>
      <trkpt lat="44.15189" lon="7.57293">
        <ele>1886.723</ele>
        <time>2018-07-01T14:27:33Z</time>
      </trkpt>
      <trkpt lat="44.15184" lon="7.57287">
        <ele>1886.529</ele>
        <time>2018-07-01T14:27:34Z</time>
      </trkpt>
      <trkpt lat="44.15179" lon="7.57279">
        <ele>1885.652</ele>
        <time>2018-07-01T14:27:35Z</time>
      </trkpt>
      <trkpt lat="44.15173" lon="7.57272">
        <ele>1884.724</ele>
        <time>2018-07-01T14:27:36Z</time>
      </trkpt>
      <trkpt lat="44.15167" lon="7.57266">
        <ele>1885.217</ele>
        <time>2018-07-01T14:27:37Z</time>
      </trkpt>
      <trkpt lat="44.15162" lon="7.5726">
        <ele>1884.952</ele>
        <time>2018-07-01T14:27:38Z</time>
      </trkpt>
      <trkpt lat="44.15157" lon="7.57254">
        <ele>1884.693</ele>
        <time>2018-07-01T14:27:39Z</time>
      </trkpt>
      <trkpt lat="44.15153" lon="7.57245">
        <ele>1884.028</ele>
        <time>2018-07-01T14:27:40Z</time>
      </trkpt>
      <trkpt lat="44.1515" lon="7.57234">
        <ele>1883.589</ele>
        <time>2018-07-01T14:27:41Z</time>
      </trkpt>
      <trkpt lat="44.15149" lon="7.57225">
        <ele>1883.517</ele>
        <time>2018-07-01T14:27:42Z</time>
      </trkpt>
      <trkpt lat="44.15149" lon="7.57215">
        <ele>1884.208</ele>
        <time>2018-07-01T14:27:43Z</time>
      </trkpt>
      <trkpt lat="44.1515" lon="7.57205">
        <ele>1884.554</ele>
        <time>2018-07-01T14:27:44Z</time>
      </trkpt>
      <trkpt lat="44.15152" lon="7.57196">
        <ele>1884.688</ele>
        <time>2018-07-01T14:27:45Z</time>
      </trkpt>
      <trkpt lat="44.15154" lon="7.57186">
        <ele>1885.064</ele>
        <time>2018-07-01T14:27:46Z</time>
      </trkpt>
      <trkpt lat="44.15156" lon="7.57177">
        <ele>1885.217</ele>
        <time>2018-07-01T14:27:47Z</time>
      </trkpt>
      <trkpt lat="44.15158" lon="7.57168">
        <ele>1886.139</ele>
        <time>2018-07-01T14:27:48Z</time>
      </trkpt>
      <trkpt lat="44.1516" lon="7.5716">
        <ele>1886.962</ele>
        <time>2018-07-01T14:27:49Z</time>
      </trkpt>
      <trkpt lat="44.15163" lon="7.57152">
        <ele>1888.147</ele>
        <time>2018-07-01T14:27:50Z</time>
      </trkpt>
      <trkpt lat="44.15166" lon="7.57141">
        <ele>1889.698</ele>
        <time>2018-07-01T14:27:51Z</time>
      </trkpt>
      <trkpt lat="44.1517" lon="7.57132">
        <ele>1890.034</ele>
        <time>2018-07-01T14:27:52Z</time>
      </trkpt>
      <trkpt lat="44.15174" lon="7.57123">
        <ele>1890.555</ele>
        <time>2018-07-01T14:27:53Z</time>
      </trkpt>
      <trkpt lat="44.15178" lon="7.57113">
        <ele>1889.71</ele>
        <time>2018-07-01T14:27:54Z</time>
      </trkpt>
      <trkpt lat="44.15181" lon="7.57102">
        <ele>1889.208</ele>
        <time>2018-07-01T14:27:55Z</time>
      </trkpt>
      <trkpt lat="44.15185" lon="7.57093">
        <ele>1889.945</ele>
        <time>2018-07-01T14:27:56Z</time>
      </trkpt>
      <trkpt lat="44.15188" lon="7.57083">
        <ele>1890.249</ele>
        <time>2018-07-01T14:27:57Z</time>
      </trkpt>
      <trkpt lat="44.15191" lon="7.57073">
        <ele>1890.425</ele>
        <time>2018-07-01T14:27:58Z</time>
      </trkpt>
      <trkpt lat="44.15194" lon="7.57065">
        <ele>1890.658</ele>
        <time>2018-07-01T14:27:59Z</time>
      </trkpt>
      <trkpt lat="44.15198" lon="7.57057">
        <ele>1890.83</ele>
        <time>2018-07-01T14:28:00Z</time>
      </trkpt>
      <trkpt lat="44.15201" lon="7.57049">
        <ele>1891.543</ele>
        <time>2018-07-01T14:28:01Z</time>
      </trkpt>
      <trkpt lat="44.15205" lon="7.57041">
        <ele>1891.798</ele>
        <time>2018-07-01T14:28:02Z</time>
      </trkpt>
      <trkpt lat="44.15208" lon="7.57032">
        <ele>1891.939</ele>
        <time>2018-07-01T14:28:03Z</time>
      </trkpt>
      <trkpt lat="44.15211" lon="7.57025">
        <ele>1892.457</ele>
        <time>2018-07-01T14:28:04Z</time>
      </trkpt>
      <trkpt lat="44.15214" lon="7.57017">
        <ele>1892.2</ele>
        <time>2018-07-01T14:28:05Z</time>
      </trkpt>
      <trkpt lat="44.15217" lon="7.57007">
        <ele>1892.22</ele>
        <time>2018-07-01T14:28:06Z</time>
      </trkpt>
      <trkpt lat="44.15219" lon="7.56999">
        <ele>1892.308</ele>
        <time>2018-07-01T14:28:07Z</time>
      </trkpt>
      <trkpt lat="44.15222" lon="7.56991">
        <ele>1891.247</ele>
        <time>2018-07-01T14:28:08Z</time>
      </trkpt>
      <trkpt lat="44.15223" lon="7.56985">
        <ele>1890.391</ele>
        <time>2018-07-01T14:28:09Z</time>
      </trkpt>
      <trkpt lat="44.15226" lon="7.56978">
        <ele>1890.577</ele>
        <time>2018-07-01T14:28:10Z</time>
      </trkpt>
      <trkpt lat="44.15228" lon="7.56968">
        <ele>1890.99</ele>
        <time>2018-07-01T14:28:11Z</time>
      </trkpt>
      <trkpt lat="44.15228" lon="7.56959">
        <ele>1891.012</ele>
        <time>2018-07-01T14:28:12Z</time>
      </trkpt>
      <trkpt lat="44.15229" lon="7.56951">
        <ele>1891.375</ele>
        <time>2018-07-01T14:28:13Z</time>
      </trkpt>
      <trkpt lat="44.1523" lon="7.56942">
        <ele>1891.35</ele>
        <time>2018-07-01T14:28:14Z</time>
      </trkpt>
      <trkpt lat="44.15233" lon="7.56934">
        <ele>1891.821</ele>
        <time>2018-07-01T14:28:15Z</time>
      </trkpt>
      <trkpt lat="44.15237" lon="7.56927">
        <ele>1891.963</ele>
        <time>2018-07-01T14:28:16Z</time>
      </trkpt>
      <trkpt lat="44.15241" lon="7.56921">
        <ele>1892.444</ele>
        <time>2018-07-01T14:28:17Z</time>
      </trkpt>
      <trkpt lat="44.15245" lon="7.56917">
        <ele>1892.218</ele>
        <time>2018-07-01T14:28:18Z</time>
      </trkpt>
      <trkpt lat="44.15248" lon="7.56912">
        <ele>1891.908</ele>
        <time>2018-07-01T14:28:19Z</time>
      </trkpt>
      <trkpt lat="44.15252" lon="7.56903">
        <ele>1891.668</ele>
        <time>2018-07-01T14:28:21Z</time>
      </trkpt>
      <trkpt lat="44.15256" lon="7.56895">
        <ele>1892.062</ele>
        <time>2018-07-01T14:28:23Z</time>
      </trkpt>
      <trkpt lat="44.1526" lon="7.56884">
        <ele>1891.458</ele>
        <time>2018-07-01T14:28:25Z</time>
      </trkpt>
      <trkpt lat="44.15262" lon="7.56878">
        <ele>1892.391</ele>
        <time>2018-07-01T14:28:26Z</time>
      </trkpt>
      <trkpt lat="44.15265" lon="7.56872">
        <ele>1893.493</ele>
        <time>2018-07-01T14:28:27Z</time>
      </trkpt>
      <trkpt lat="44.15268" lon="7.56867">
        <ele>1893.526</ele>
        <time>2018-07-01T14:28:28Z</time>
      </trkpt>
      <trkpt lat="44.15271" lon="7.56857">
        <ele>1892.551</ele>
        <time>2018-07-01T14:28:29Z</time>
      </trkpt>
      <trkpt lat="44.15272" lon="7.56847">
        <ele>1891.952</ele>
        <time>2018-07-01T14:28:30Z</time>
      </trkpt>
      <trkpt lat="44.15275" lon="7.56839">
        <ele>1892.456</ele>
        <time>2018-07-01T14:28:31Z</time>
      </trkpt>
      <trkpt lat="44.15278" lon="7.56827">
        <ele>1892.259</ele>
        <time>2018-07-01T14:28:32Z</time>
      </trkpt>
      <trkpt lat="44.1528" lon="7.56817">
        <ele>1892.214</ele>
        <time>2018-07-01T14:28:33Z</time>
      </trkpt>
      <trkpt lat="44.15282" lon="7.56807">
        <ele>1892.608</ele>
        <time>2018-07-01T14:28:34Z</time>
      </trkpt>
      <trkpt lat="44.15282" lon="7.56796">
        <ele>1892.967</ele>
        <time>2018-07-01T14:28:35Z</time>
      </trkpt>
      <trkpt lat="44.15284" lon="7.56787">
        <ele>1892.971</ele>
        <time>2018-07-01T14:28:36Z</time>
      </trkpt>
      <trkpt lat="44.15286" lon="7.56777">
        <ele>1893.137</ele>
        <time>2018-07-01T14:28:37Z</time>
      </trkpt>
      <trkpt lat="44.15288" lon="7.56764">
        <ele>1892.76</ele>
        <time>2018-07-01T14:28:39Z</time>
      </trkpt>
      <trkpt lat="44.15287" lon="7.56756">
        <ele>1894.562</ele>
        <time>2018-07-01T14:28:40Z</time>
      </trkpt>
      <trkpt lat="44.15284" lon="7.56745">
        <ele>1891.375</ele>
        <time>2018-07-01T14:28:42Z</time>
      </trkpt>
      <trkpt lat="44.15282" lon="7.56738">
        <ele>1892.41</ele>
        <time>2018-07-01T14:28:43Z</time>
      </trkpt>
      <trkpt lat="44.1528" lon="7.56733">
        <ele>1893.241</ele>
        <time>2018-07-01T14:28:44Z</time>
      </trkpt>
      <trkpt lat="44.15274" lon="7.56725">
        <ele>1892.359</ele>
        <time>2018-07-01T14:28:46Z</time>
      </trkpt>
      <trkpt lat="44.1527" lon="7.56722">
        <ele>1892.703</ele>
        <time>2018-07-01T14:28:47Z</time>
      </trkpt>
      <trkpt lat="44.15262" lon="7.56719">
        <ele>1892.723</ele>
        <time>2018-07-01T14:28:49Z</time>
      </trkpt>
      <trkpt lat="44.15255" lon="7.56719">
        <ele>1893.008</ele>
        <time>2018-07-01T14:28:51Z</time>
      </trkpt>
      <trkpt lat="44.15248" lon="7.5672">
        <ele>1893.927</ele>
        <time>2018-07-01T14:28:53Z</time>
      </trkpt>
      <trkpt lat="44.15242" lon="7.56724">
        <ele>1895.321</ele>
        <time>2018-07-01T14:28:55Z</time>
      </trkpt>
      <trkpt lat="44.15235" lon="7.5673">
        <ele>1896.757</ele>
        <time>2018-07-01T14:28:57Z</time>
      </trkpt>
      <trkpt lat="44.15227" lon="7.56736">
        <ele>1896.53</ele>
        <time>2018-07-01T14:28:59Z</time>
      </trkpt>
      <trkpt lat="44.15219" lon="7.56739">
        <ele>1897.642</ele>
        <time>2018-07-01T14:29:01Z</time>
      </trkpt>
      <trkpt lat="44.15211" lon="7.5674">
        <ele>1897.915</ele>
        <time>2018-07-01T14:29:03Z</time>
      </trkpt>
      <trkpt lat="44.15203" lon="7.56742">
        <ele>1899.72</ele>
        <time>2018-07-01T14:29:05Z</time>
      </trkpt>
      <trkpt lat="44.15195" lon="7.56743">
        <ele>1900.381</ele>
        <time>2018-07-01T14:29:07Z</time>
      </trkpt>
      <trkpt lat="44.15188" lon="7.56744">
        <ele>1901.484</ele>
        <time>2018-07-01T14:29:09Z</time>
      </trkpt>
      <trkpt lat="44.15181" lon="7.56745">
        <ele>1901.907</ele>
        <time>2018-07-01T14:29:11Z</time>
      </trkpt>
      <trkpt lat="44.15176" lon="7.56745">
        <ele>1902.117</ele>
        <time>2018-07-01T14:29:13Z</time>
      </trkpt>
      <trkpt lat="44.15171" lon="7.56744">
        <ele>1902.408</ele>
        <time>2018-07-01T14:29:15Z</time>
      </trkpt>
      <trkpt lat="44.15174" lon="7.56739">
        <ele>1902.78</ele>
        <time>2018-07-01T14:31:34Z</time>
      </trkpt>
      <trkpt lat="44.15173" lon="7.56745">
        <ele>1903.554</ele>
        <time>2018-07-01T14:33:25Z</time>
      </trkpt>
      <trkpt lat="44.15169" lon="7.56742">
        <ele>1901.77</ele>
        <time>2018-07-01T14:34:42Z</time>
      </trkpt>
      <trkpt lat="44.15164" lon="7.56745">
        <ele>1902.733</ele>
        <time>2018-07-01T14:34:49Z</time>
      </trkpt>
      <trkpt lat="44.1516" lon="7.56747">
        <ele>1904.815</ele>
        <time>2018-07-01T14:34:56Z</time>
      </trkpt>
      <trkpt lat="44.15155" lon="7.56747">
        <ele>1905.858</ele>
        <time>2018-07-01T14:44:36Z</time>
      </trkpt>
      <trkpt lat="44.14994" lon="7.56218">
        <ele>1864.81</ele>
        <time>2017-01-01T08:50:48Z</time>
      </trkpt>
      <trkpt lat="44.15194" lon="7.56548">
        <ele>1836.93</ele>
        <time>2017-01-01T08:51:05Z</time>
      </trkpt>
      <trkpt lat="44.15469" lon="7.5638">
        <ele>1816.25</ele>
        <time>2017-01-01T08:51:21Z</time>
      </trkpt>
      <trkpt lat="44.15874" lon="7.56304">
        <ele>1777.53</ele>
        <time>2017-01-01T08:51:44Z</time>
      </trkpt>
      <trkpt lat="44.16083" lon="7.56114">
        <ele>1759.65</ele>
        <time>2017-01-01T08:51:57Z</time>
      </trkpt>
      <trkpt lat="44.15794" lon="7.56566">
        <ele>1718.42</ele>
        <time>2017-01-01T08:52:21Z</time>
      </trkpt>
      <trkpt lat="44.15962" lon="7.56507">
        <ele>1700.14</ele>
        <time>2017-01-01T08:52:31Z</time>
      </trkpt>
      <trkpt lat="44.16198" lon="7.56372">
        <ele>1675.14</ele>
        <time>2017-01-01T08:52:45Z</time>
      </trkpt>
      <trkpt lat="44.15919" lon="7.56745">
        <ele>1654.61</ele>
        <time>2017-01-01T08:53:06Z</time>
      </trkpt>
      <trkpt lat="44.15926" lon="7.56867">
        <ele>1645.84</ele>
        <time>2017-01-01T08:53:11Z</time>
      </trkpt>
      <trkpt lat="44.16248" lon="7.56528">
        <ele>1604.57</ele>
        <time>2017-01-01T08:53:33Z</time>
      </trkpt>
      <trkpt lat="44.16092" lon="7.56803">
        <ele>1579.47</ele>
        <time>2017-01-01T08:53:47Z</time>
      </trkpt>
      <trkpt lat="44.16111" lon="7.57117">
        <ele>1563.38</ele>
        <time>2017-01-01T08:53:59Z</time>
      </trkpt>
      <trkpt lat="44.16103" lon="7.5719">
        <ele>1558.81</ele>
        <time>2017-01-01T08:54:02Z</time>
      </trkpt>
      <trkpt lat="44.16136" lon="7.57128">
        <ele>1553.69</ele>
        <time>2017-01-01T08:54:05Z</time>
      </trkpt>
      <trkpt lat="44.16166" lon="7.56921">
        <ele>1542.57</ele>
        <time>2017-01-01T08:54:13Z</time>
      </trkpt>
      <trkpt lat="44.16311" lon="7.5671">
        <ele>1522.97</ele>
        <time>2017-01-01T08:54:25Z</time>
      </trkpt>
      <trkpt lat="44.16236" lon="7.57031">
        <ele>1503.76</ele>
        <time>2017-01-01T08:54:38Z</time>
      </trkpt>
      <trkpt lat="44.16256" lon="7.57192">
        <ele>1498.29</ele>
        <time>2017-01-01T08:54:44Z</time>
      </trkpt>
      <trkpt lat="44.16301" lon="7.56998">
        <ele>1484.57</ele>
        <time>2017-01-01T08:54:52Z</time>
      </trkpt>
      <trkpt lat="44.16307" lon="7.57092">
        <ele>1474.69</ele>
        <time>2017-01-01T08:54:56Z</time>
      </trkpt>
      <trkpt lat="44.16302" lon="7.57267">
        <ele>1462.27</ele>
        <time>2017-01-01T08:55:03Z</time>
      </trkpt>
      <trkpt lat="44.16235" lon="7.5732">
        <ele>1458.56</ele>
        <time>2017-01-01T08:55:07Z</time>
      </trkpt>
      <trkpt lat="44.16317" lon="7.57278">
        <ele>1453.28</ele>
        <time>2017-01-01T08:55:12Z</time>
      </trkpt>
      <trkpt lat="44.1636" lon="7.57116">
        <ele>1448.12</ele>
        <time>2017-01-01T08:55:19Z</time>
      </trkpt>
      <trkpt lat="44.16413" lon="7.57019">
        <ele>1439.82</ele>
        <time>2017-01-01T08:55:24Z</time>
      </trkpt>
      <trkpt lat="44.1639" lon="7.57179">
        <ele>1432.49</ele>
        <time>2017-01-01T08:55:30Z</time>
      </trkpt>
      <trkpt lat="44.16413" lon="7.57221">
        <ele>1427.71</ele>
        <time>2017-01-01T08:55:32Z</time>
      </trkpt>
      <trkpt lat="44.16505" lon="7.57122">
        <ele>1418.39</ele>
        <time>2017-01-01T08:55:38Z</time>
      </trkpt>
      <trkpt lat="44.16508" lon="7.57014">
        <ele>1409.82</ele>
        <time>2017-01-01T08:55:43Z</time>
      </trkpt>
      <trkpt lat="44.16585" lon="7.57015">
        <ele>1401.39</ele>
        <time>2017-01-01T08:55:47Z</time>
      </trkpt>
      <trkpt lat="44.16598" lon="7.56899">
        <ele>1397.43</ele>
        <time>2017-01-01T08:55:52Z</time>
      </trkpt>
      <trkpt lat="44.16787" lon="7.56889">
        <ele>1381.28</ele>
        <time>2017-01-01T08:56:02Z</time>
      </trkpt>
      <trkpt lat="44.16976" lon="7.56944">
        <ele>1362.95</ele>
        <time>2017-01-01T08:56:12Z</time>
      </trkpt>
      <trkpt lat="44.17142" lon="7.569">
        <ele>1345.47</ele>
        <time>2017-01-01T08:56:22Z</time>
      </trkpt>
      <trkpt lat="44.17207" lon="7.56751">
        <ele>1336.22</ele>
        <time>2017-01-01T08:56:29Z</time>
      </trkpt>
      <trkpt lat="44.17358" lon="7.5682">
        <ele>1317.91</ele>
        <time>2017-01-01T08:56:37Z</time>
      </trkpt>
      <trkpt lat="44.17422" lon="7.5681">
        <ele>1312.4</ele>
        <time>2017-01-01T08:56:41Z</time>
      </trkpt>
      <trkpt lat="44.17472" lon="7.56772">
        <ele>1304.64</ele>
        <time>2017-01-01T08:56:44Z</time>
      </trkpt>
      <trkpt lat="44.17496" lon="7.56686">
        <ele>1297.82</ele>
        <time>2017-01-01T08:56:48Z</time>
      </trkpt>
      <trkpt lat="44.17639" lon="7.56696">
        <ele>1284.38</ele>
        <time>2017-01-01T08:56:56Z</time>
      </trkpt>
      <trkpt lat="44.17883" lon="7.56533">
        <ele>1262.01</ele>
        <time>2017-01-01T08:57:10Z</time>
      </trkpt>
      <trkpt lat="44.18013" lon="7.5633">
        <ele>1240.98</ele>
        <time>2017-01-01T08:57:21Z</time>
      </trkpt>
      <trkpt lat="44.18083" lon="7.56301">
        <ele>1237.92</ele>
        <time>2017-01-01T08:57:25Z</time>
      </trkpt>
      <trkpt lat="44.1799" lon="7.56451">
        <ele>1227.63</ele>
        <time>2017-01-01T08:57:33Z</time>
      </trkpt>
      <trkpt lat="44.1791" lon="7.56698">
        <ele>1210.35</ele>
        <time>2017-01-01T08:57:43Z</time>
      </trkpt>
      <trkpt lat="44.18174" lon="7.56391">
        <ele>1189.42</ele>
        <time>2017-01-01T08:58:02Z</time>
      </trkpt>
      <trkpt lat="44.18191" lon="7.5606">
        <ele>1171.04</ele>
        <time>2017-01-01T08:58:15Z</time>
      </trkpt>
      <trkpt lat="44.18211" lon="7.55979">
        <ele>1164.91</ele>
        <time>2017-01-01T08:58:19Z</time>
      </trkpt>
      <trkpt lat="44.18256" lon="7.56259">
        <ele>1156.79</ele>
        <time>2017-01-01T08:58:30Z</time>
      </trkpt>
      <trkpt lat="44.18289" lon="7.56278">
        <ele>1149.86</ele>
        <time>2017-01-01T08:58:32Z</time>
      </trkpt>
      <trkpt lat="44.18275" lon="7.56127">
        <ele>1149.52</ele>
        <time>2017-01-01T08:58:38Z</time>
      </trkpt>
      <trkpt lat="44.18301" lon="7.56093">
        <ele>1145.04</ele>
        <time>2017-01-01T08:58:40Z</time>
      </trkpt>
      <trkpt lat="44.1831" lon="7.56233">
        <ele>1145.54</ele>
        <time>2017-01-01T08:58:45Z</time>
      </trkpt>
      <trkpt lat="44.18349" lon="7.56205">
        <ele>1136.36</ele>
        <time>2017-01-01T08:58:48Z</time>
      </trkpt>
      <trkpt lat="44.18348" lon="7.56044">
        <ele>1135.64</ele>
        <time>2017-01-01T08:58:54Z</time>
      </trkpt>
      <trkpt lat="44.18381" lon="7.56077">
        <ele>1131.07</ele>
        <time>2017-01-01T08:58:56Z</time>
      </trkpt>
      <trkpt lat="44.18396" lon="7.56264">
        <ele>1122.85</ele>
        <time>2017-01-01T08:59:04Z</time>
      </trkpt>
      <trkpt lat="44.18452" lon="7.56312">
        <ele>1121.57</ele>
        <time>2017-01-01T08:59:07Z</time>
      </trkpt>
      <trkpt lat="44.18593" lon="7.56348">
        <ele>1106.54</ele>
        <time>2017-01-01T08:59:15Z</time>
      </trkpt>
      <trkpt lat="44.18518" lon="7.56289">
        <ele>1106.3</ele>
        <time>2017-01-01T08:59:20Z</time>
      </trkpt>
      <trkpt lat="44.18542" lon="7.56247">
        <ele>1100.61</ele>
        <time>2017-01-01T08:59:22Z</time>
      </trkpt>
      <trkpt lat="44.18662" lon="7.56245">
        <ele>1093.4</ele>
        <time>2017-01-01T08:59:29Z</time>
      </trkpt>
      <trkpt lat="44.18914" lon="7.56658">
        <ele>1063.96</ele>
        <time>2017-01-01T08:59:50Z</time>
      </trkpt>
      <trkpt lat="44.19525" lon="7.57449">
        <ele>1020.65</ele>
        <time>2017-01-01T09:00:36Z</time>
      </trkpt>
      <trkpt lat="44.19954" lon="7.57519">
        <ele>1002.79</ele>
        <time>2017-01-01T09:00:59Z</time>
      </trkpt>
      <trkpt lat="44.20355" lon="7.57387">
        <ele>981.51</ele>
        <time>2017-01-01T09:01:22Z</time>
      </trkpt>
      <trkpt lat="44.20526" lon="7.57497">
        <ele>972.7</ele>
        <time>2017-01-01T09:01:32Z</time>
      </trkpt>
      <trkpt lat="44.2085" lon="7.57398">
        <ele>959.52</ele>
        <time>2017-01-01T09:01:50Z</time>
      </trkpt>
      <trkpt lat="44.21105" lon="7.57199">
        <ele>947.8</ele>
        <time>2017-01-01T09:02:06Z</time>
      </trkpt>
      <trkpt lat="44.2126" lon="7.57253">
        <ele>941.74</ele>
        <time>2017-01-01T09:02:15Z</time>
      </trkpt>
      <trkpt lat="44.21736" lon="7.57016">
        <ele>923.71</ele>
        <time>2017-01-01T09:02:43Z</time>
      </trkpt>
      <trkpt lat="44.22166" lon="7.5678">
        <ele>910.01</ele>
        <time>2017-01-01T09:03:08Z</time>
      </trkpt>
      <trkpt lat="44.22309" lon="7.56522">
        <ele>902.14</ele>
        <time>2017-01-01T09:03:21Z</time>
      </trkpt>
      <trkpt lat="44.22487" lon="7.564">
        <ele>892.24</ele>
        <time>2017-01-01T09:03:32Z</time>
      </trkpt>
      <trkpt lat="44.22662" lon="7.56253">
        <ele>882.72</ele>
        <time>2017-01-01T09:03:43Z</time>
      </trkpt>
      <trkpt lat="44.2283" lon="7.56242">
        <ele>875.11</ele>
        <time>2017-01-01T09:03:52Z</time>
      </trkpt>
      <trkpt lat="44.22863" lon="7.56196">
        <ele>872.47</ele>
        <time>2017-01-01T09:03:55Z</time>
      </trkpt>
      <trkpt lat="44.22828" lon="7.55836">
        <ele>865.05</ele>
        <time>2017-01-01T09:04:09Z</time>
      </trkpt>
      <trkpt lat="44.22947" lon="7.55629">
        <ele>858.4</ele>
        <time>2017-01-01T09:04:20Z</time>
      </trkpt>
      <trkpt lat="44.23115" lon="7.55504">
        <ele>854.79</ele>
        <time>2017-01-01T09:04:30Z</time>
      </trkpt>
      <trkpt lat="44.23189" lon="7.55268">
        <ele>850.92</ele>
        <time>2017-01-01T09:04:40Z</time>
      </trkpt>
      <trkpt lat="44.23356" lon="7.54962">
        <ele>841.82</ele>
        <time>2017-01-01T09:04:55Z</time>
      </trkpt>
      <trkpt lat="44.23382" lon="7.54774">
        <ele>834.7</ele>
        <time>2017-01-01T09:05:03Z</time>
      </trkpt>
      <trkpt lat="44.23534" lon="7.5464">
        <ele>828.59</ele>
        <time>2017-01-01T09:05:13Z</time>
      </trkpt>
      <trkpt lat="44.23699" lon="7.54415">
        <ele>817.98</ele>
        <time>2017-01-01T09:05:25Z</time>
      </trkpt>
      <trkpt lat="44.23828" lon="7.54161">
        <ele>812.5</ele>
        <time>2017-01-01T09:05:37Z</time>
      </trkpt>
      <trkpt lat="44.24047" lon="7.5389">
        <ele>803.47</ele>
        <time>2017-01-01T09:05:53Z</time>
      </trkpt>
      <trkpt lat="44.24262" lon="7.53548">
        <ele>795.17</ele>
        <time>2017-01-01T09:06:11Z</time>
      </trkpt>
      <trkpt lat="44.24333" lon="7.53386">
        <ele>787.9</ele>
        <time>2017-01-01T09:06:19Z</time>
      </trkpt>
      <trkpt lat="44.24473" lon="7.5328">
        <ele>782.97</ele>
        <time>2017-01-01T09:06:28Z</time>
      </trkpt>
      <trkpt lat="44.24736" lon="7.53186">
        <ele>777</ele>
        <time>2017-01-01T09:06:42Z</time>
      </trkpt>
      <trkpt lat="44.24729" lon="7.53138">
        <ele>775.94</ele>
        <time>2017-01-01T09:06:44Z</time>
      </trkpt>
      <trkpt lat="44.2474" lon="7.53052">
        <ele>778.32</ele>
        <time>2017-01-01T09:06:48Z</time>
      </trkpt>
      <trkpt lat="44.24899" lon="7.5303">
        <ele>785.85</ele>
        <time>2017-01-01T09:06:57Z</time>
      </trkpt>
      <trkpt lat="44.24972" lon="7.52967">
        <ele>797.95</ele>
        <time>2017-01-01T09:07:01Z</time>
      </trkpt>
      <trkpt lat="44.25118" lon="7.52755">
        <ele>828.79</ele>
        <time>2017-01-01T09:07:13Z</time>
      </trkpt>
      <trkpt lat="44.25255" lon="7.52671">
        <ele>856.52</ele>
        <time>2017-01-01T09:07:21Z</time>
      </trkpt>
      <trkpt lat="44.2532" lon="7.52474">
        <ele>886.44</ele>
        <time>2017-01-01T09:07:29Z</time>
      </trkpt>
      <trkpt lat="44.25341" lon="7.52168">
        <ele>915.45</ele>
        <time>2017-01-01T09:07:42Z</time>
      </trkpt>
      <trkpt lat="44.25282" lon="7.52106">
        <ele>933.27</ele>
        <time>2017-01-01T09:07:46Z</time>
      </trkpt>
      <trkpt lat="44.25286" lon="7.52033">
        <ele>948.99</ele>
        <time>2017-01-01T09:07:48Z</time>
      </trkpt>
      <trkpt lat="44.25372" lon="7.51955">
        <ele>968.65</ele>
        <time>2017-01-01T09:07:54Z</time>
      </trkpt>
      <trkpt lat="44.25421" lon="7.51964">
        <ele>974.57</ele>
        <time>2017-01-01T09:07:57Z</time>
      </trkpt>
      <trkpt lat="44.25365" lon="7.51896">
        <ele>984.62</ele>
        <time>2017-01-01T09:08:01Z</time>
      </trkpt>
      <trkpt lat="44.25345" lon="7.51735">
        <ele>983.51</ele>
        <time>2017-01-01T09:08:07Z</time>
      </trkpt>
      <trkpt lat="44.25273" lon="7.51606">
        <ele>985.32</ele>
        <time>2017-01-01T09:08:14Z</time>
      </trkpt>
      <trkpt lat="44.25146" lon="7.51676">
        <ele>1006.02</ele>
        <time>2017-01-01T09:08:21Z</time>
      </trkpt>
      <trkpt lat="44.249" lon="7.51635">
        <ele>1047.07</ele>
        <time>2017-01-01T09:08:35Z</time>
      </trkpt>
      <trkpt lat="44.25102" lon="7.51823">
        <ele>1077.6</ele>
        <time>2017-01-01T09:08:48Z</time>
      </trkpt>
      <trkpt lat="44.25055" lon="7.51834">
        <ele>1098.35</ele>
        <time>2017-01-01T09:08:51Z</time>
      </trkpt>
      <trkpt lat="44.2476" lon="7.51829">
        <ele>1153.94</ele>
        <time>2017-01-01T09:09:07Z</time>
      </trkpt>
      <trkpt lat="44.24623" lon="7.51632">
        <ele>1184.54</ele>
        <time>2017-01-01T09:09:18Z</time>
      </trkpt>
      <trkpt lat="44.24592" lon="7.51599">
        <ele>1190.58</ele>
        <time>2017-01-01T09:09:20Z</time>
      </trkpt>
      <trkpt lat="44.24561" lon="7.51593">
        <ele>1195.39</ele>
        <time>2017-01-01T09:09:21Z</time>
      </trkpt>
      <trkpt lat="44.24491" lon="7.51504">
        <ele>1203.86</ele>
        <time>2017-01-01T09:09:27Z</time>
      </trkpt>
      <trkpt lat="44.24415" lon="7.51259">
        <ele>1231.74</ele>
        <time>2017-01-01T09:09:37Z</time>
      </trkpt>
      <trkpt lat="44.24456" lon="7.51195">
        <ele>1235.35</ele>
        <time>2017-01-01T09:09:40Z</time>
      </trkpt>
      <trkpt lat="44.24471" lon="7.51018">
        <ele>1247.22</ele>
        <time>2017-01-01T09:09:47Z</time>
      </trkpt>
      <trkpt lat="44.2448" lon="7.50922">
        <ele>1255.65</ele>
        <time>2017-01-01T09:09:51Z</time>
      </trkpt>
      <trkpt lat="44.24383" lon="7.50787">
        <ele>1267.28</ele>
        <time>2017-01-01T09:09:59Z</time>
      </trkpt>
      <trkpt lat="44.24303" lon="7.5063">
        <ele>1283.14</ele>
        <time>2017-01-01T09:10:06Z</time>
      </trkpt>
      <trkpt lat="44.24222" lon="7.50407">
        <ele>1295.25</ele>
        <time>2017-01-01T09:10:16Z</time>
      </trkpt>
      <trkpt lat="44.24149" lon="7.50308">
        <ele>1307.2</ele>
        <time>2017-01-01T09:10:22Z</time>
      </trkpt>
      <trkpt lat="44.24139" lon="7.50204">
        <ele>1323.74</ele>
        <time>2017-01-01T09:10:26Z</time>
      </trkpt>
      <trkpt lat="44.24157" lon="7.50074">
        <ele>1338.61</ele>
        <time>2017-01-01T09:10:31Z</time>
      </trkpt>
      <trkpt lat="44.24117" lon="7.4997">
        <ele>1334.97</ele>
        <time>2017-01-01T09:10:36Z</time>
      </trkpt>
      <trkpt lat="44.24014" lon="7.49911">
        <ele>1339.4</ele>
        <time>2017-01-01T09:10:42Z</time>
      </trkpt>
      <trkpt lat="44.23986" lon="7.49799">
        <ele>1342.12</ele>
        <time>2017-01-01T09:10:46Z</time>
      </trkpt>
      <trkpt lat="44.24007" lon="7.497">
        <ele>1338.47</ele>
        <time>2017-01-01T09:10:50Z</time>
      </trkpt>
      <trkpt lat="44.23997" lon="7.49503">
        <ele>1328.67</ele>
        <time>2017-01-01T09:10:58Z</time>
      </trkpt>
      <trkpt lat="44.24062" lon="7.49363">
        <ele>1313.59</ele>
        <time>2017-01-01T09:11:05Z</time>
      </trkpt>
      <trkpt lat="44.2402" lon="7.49217">
        <ele>1314.67</ele>
        <time>2017-01-01T09:11:11Z</time>
      </trkpt>
      <trkpt lat="44.24097" lon="7.49178">
        <ele>1310.86</ele>
        <time>2017-01-01T09:11:15Z</time>
      </trkpt>
      <trkpt lat="44.24152" lon="7.48993">
        <ele>1322.5</ele>
        <time>2017-01-01T09:11:23Z</time>
      </trkpt>
      <trkpt lat="44.24151" lon="7.48926">
        <ele>1329.55</ele>
        <time>2017-01-01T09:11:26Z</time>
      </trkpt>
      <trkpt lat="44.24245" lon="7.48808">
        <ele>1336.08</ele>
        <time>2017-01-01T09:11:33Z</time>
      </trkpt>
      <trkpt lat="44.24349" lon="7.48777">
        <ele>1336.42</ele>
        <time>2017-01-01T09:11:39Z</time>
      </trkpt>
      <trkpt lat="44.24374" lon="7.48796">
        <ele>1333.09</ele>
        <time>2017-01-01T09:11:40Z</time>
      </trkpt>
      <trkpt lat="44.24403" lon="7.48805">
        <ele>1331.91</ele>
        <time>2017-01-01T09:11:42Z</time>
      </trkpt>
      <trkpt lat="44.24504" lon="7.48786">
        <ele>1326.88</ele>
        <time>2017-01-01T09:11:47Z</time>
      </trkpt>
      <trkpt lat="44.2471" lon="7.48635">
        <ele>1307.72</ele>
        <time>2017-01-01T09:12:00Z</time>
      </trkpt>
      <trkpt lat="44.2474" lon="7.48572">
        <ele>1302.37</ele>
        <time>2017-01-01T09:12:03Z</time>
      </trkpt>
      <trkpt lat="44.247" lon="7.48606">
        <ele>1297.68</ele>
        <time>2017-01-01T09:12:06Z</time>
      </trkpt>
      <trkpt lat="44.24494" lon="7.48675">
        <ele>1280.16</ele>
        <time>2017-01-01T09:12:17Z</time>
      </trkpt>
      <trkpt lat="44.24465" lon="7.48609">
        <ele>1274.91</ele>
        <time>2017-01-01T09:12:20Z</time>
      </trkpt>
      <trkpt lat="44.2449" lon="7.48511">
        <ele>1264.38</ele>
        <time>2017-01-01T09:12:24Z</time>
      </trkpt>
      <trkpt lat="44.24529" lon="7.48602">
        <ele>1257.23</ele>
        <time>2017-01-01T09:12:29Z</time>
      </trkpt>
      <trkpt lat="44.24662" lon="7.48473">
        <ele>1240.64</ele>
        <time>2017-01-01T09:12:38Z</time>
      </trkpt>
      <trkpt lat="44.24769" lon="7.48307">
        <ele>1217.16</ele>
        <time>2017-01-01T09:12:46Z</time>
      </trkpt>
      <trkpt lat="44.24849" lon="7.48253">
        <ele>1207.51</ele>
        <time>2017-01-01T09:12:51Z</time>
      </trkpt>
      <trkpt lat="44.24933" lon="7.48246">
        <ele>1198.78</ele>
        <time>2017-01-01T09:12:56Z</time>
      </trkpt>
      <trkpt lat="44.25008" lon="7.48272">
        <ele>1192.37</ele>
        <time>2017-01-01T09:13:00Z</time>
      </trkpt>
      <trkpt lat="44.2505" lon="7.48452">
        <ele>1182.32</ele>
        <time>2017-01-01T09:13:07Z</time>
      </trkpt>
      <trkpt lat="44.25096" lon="7.48543">
        <ele>1178.56</ele>
        <time>2017-01-01T09:13:12Z</time>
      </trkpt>
      <trkpt lat="44.25176" lon="7.48509">
        <ele>1172.53</ele>
        <time>2017-01-01T09:13:16Z</time>
      </trkpt>
      <trkpt lat="44.252" lon="7.48508">
        <ele>1174.16</ele>
        <time>2017-01-01T09:13:18Z</time>
      </trkpt>
      <trkpt lat="44.25213" lon="7.48452">
        <ele>1169.17</ele>
        <time>2017-01-01T09:13:20Z</time>
      </trkpt>
      <trkpt lat="44.25249" lon="7.48413">
        <ele>1169.78</ele>
        <time>2017-01-01T09:13:23Z</time>
      </trkpt>
      <trkpt lat="44.25302" lon="7.48401">
        <ele>1170.95</ele>
        <time>2017-01-01T09:13:26Z</time>
      </trkpt>
      <trkpt lat="44.25295" lon="7.48327">
        <ele>1162.83</ele>
        <time>2017-01-01T09:13:28Z</time>
      </trkpt>
      <trkpt lat="44.25331" lon="7.48256">
        <ele>1164.84</ele>
        <time>2017-01-01T09:13:32Z</time>
      </trkpt>
      <trkpt lat="44.25393" lon="7.48227">
        <ele>1162.38</ele>
        <time>2017-01-01T09:13:35Z</time>
      </trkpt>
      <trkpt lat="44.25373" lon="7.48119">
        <ele>1161.91</ele>
        <time>2017-01-01T09:13:40Z</time>
      </trkpt>
      <trkpt lat="44.25397" lon="7.48063">
        <ele>1167.35</ele>
        <time>2017-01-01T09:13:42Z</time>
      </trkpt>
      <trkpt lat="44.25391" lon="7.47995">
        <ele>1154.79</ele>
        <time>2017-01-01T09:13:45Z</time>
      </trkpt>
      <trkpt lat="44.25415" lon="7.47968">
        <ele>1160.62</ele>
        <time>2017-01-01T09:13:47Z</time>
      </trkpt>
      <trkpt lat="44.25458" lon="7.47936">
        <ele>1162.18</ele>
        <time>2017-01-01T09:13:49Z</time>
      </trkpt>
      <trkpt lat="44.25463" lon="7.47862">
        <ele>1150.12</ele>
        <time>2017-01-01T09:13:52Z</time>
      </trkpt>
      <trkpt lat="44.25507" lon="7.47756">
        <ele>1131.57</ele>
        <time>2017-01-01T09:13:57Z</time>
      </trkpt>
      <trkpt lat="44.25569" lon="7.47679">
        <ele>1118.51</ele>
        <time>2017-01-01T09:14:02Z</time>
      </trkpt>
      <trkpt lat="44.2561" lon="7.47677">
        <ele>1114.81</ele>
        <time>2017-01-01T09:14:04Z</time>
      </trkpt>
      <trkpt lat="44.25511" lon="7.47524">
        <ele>1095.23</ele>
        <time>2017-01-01T09:14:12Z</time>
      </trkpt>
      <trkpt lat="44.25632" lon="7.47635">
        <ele>1088.43</ele>
        <time>2017-01-01T09:14:20Z</time>
      </trkpt>
      <trkpt lat="44.25729" lon="7.4757">
        <ele>1069.6</ele>
        <time>2017-01-01T09:14:26Z</time>
      </trkpt>
      <trkpt lat="44.25774" lon="7.47584">
        <ele>1063.9</ele>
        <time>2017-01-01T09:14:28Z</time>
      </trkpt>
      <trkpt lat="44.25924" lon="7.47501">
        <ele>1042.49</ele>
        <time>2017-01-01T09:14:37Z</time>
      </trkpt>
      <trkpt lat="44.25959" lon="7.47612">
        <ele>1040.12</ele>
        <time>2017-01-01T09:14:42Z</time>
      </trkpt>
      <trkpt lat="44.26067" lon="7.4753">
        <ele>1015.02</ele>
        <time>2017-01-01T09:14:49Z</time>
      </trkpt>
      <trkpt lat="44.26096" lon="7.47595">
        <ele>1027.54</ele>
        <time>2017-01-01T09:14:52Z</time>
      </trkpt>
      <trkpt lat="44.26155" lon="7.47489">
        <ele>1015.54</ele>
        <time>2017-01-01T09:14:57Z</time>
      </trkpt>
      <trkpt lat="44.26156" lon="7.47454">
        <ele>1010.28</ele>
        <time>2017-01-01T09:14:58Z</time>
      </trkpt>
      <trkpt lat="44.26178" lon="7.47445">
        <ele>1013.23</ele>
        <time>2017-01-01T09:15:00Z</time>
      </trkpt>
      <trkpt lat="44.26267" lon="7.47496">
        <ele>1018.1</ele>
        <time>2017-01-01T09:15:05Z</time>
      </trkpt>
      <trkpt lat="44.26284" lon="7.47407">
        <ele>1015.88</ele>
        <time>2017-01-01T09:15:09Z</time>
      </trkpt>
      <trkpt lat="44.26211" lon="7.47166">
        <ele>1005.36</ele>
        <time>2017-01-01T09:15:19Z</time>
      </trkpt>
      <trkpt lat="44.26309" lon="7.47104">
        <ele>995.18</ele>
        <time>2017-01-01T09:15:25Z</time>
      </trkpt>
      <trkpt lat="44.26375" lon="7.47055">
        <ele>987.44</ele>
        <time>2017-01-01T09:15:29Z</time>
      </trkpt>
      <trkpt lat="44.26484" lon="7.47111">
        <ele>980.56</ele>
        <time>2017-01-01T09:15:35Z</time>
      </trkpt>
      <trkpt lat="44.2655" lon="7.47021">
        <ele>971.06</ele>
        <time>2017-01-01T09:15:40Z</time>
      </trkpt>
      <trkpt lat="44.2656" lon="7.46897">
        <ele>962</ele>
        <time>2017-01-01T09:15:45Z</time>
      </trkpt>
      <trkpt lat="44.26595" lon="7.46864">
        <ele>958.68</ele>
        <time>2017-01-01T09:15:47Z</time>
      </trkpt>
      <trkpt lat="44.26669" lon="7.46856">
        <ele>951.6</ele>
        <time>2017-01-01T09:15:51Z</time>
      </trkpt>
      <trkpt lat="44.26605" lon="7.46793">
        <ele>937.87</ele>
        <time>2017-01-01T09:15:56Z</time>
      </trkpt>
      <trkpt lat="44.26506" lon="7.46805">
        <ele>928.72</ele>
        <time>2017-01-01T09:16:01Z</time>
      </trkpt>
      <trkpt lat="44.26457" lon="7.46903">
        <ele>922.87</ele>
        <time>2017-01-01T09:16:06Z</time>
      </trkpt>
      <trkpt lat="44.26363" lon="7.46818">
        <ele>908.24</ele>
        <time>2017-01-01T09:16:12Z</time>
      </trkpt>
      <trkpt lat="44.26206" lon="7.46864">
        <ele>893.85</ele>
        <time>2017-01-01T09:16:21Z</time>
      </trkpt>
      <trkpt lat="44.26111" lon="7.46785">
        <ele>881.28</ele>
        <time>2017-01-01T09:16:27Z</time>
      </trkpt>
      <trkpt lat="44.26044" lon="7.46786">
        <ele>878.38</ele>
        <time>2017-01-01T09:16:31Z</time>
      </trkpt>
      <trkpt lat="44.2609" lon="7.46695">
        <ele>867.92</ele>
        <time>2017-01-01T09:16:35Z</time>
      </trkpt>
      <trkpt lat="44.26301" lon="7.4658">
        <ele>851.61</ele>
        <time>2017-01-01T09:16:47Z</time>
      </trkpt>
      <trkpt lat="44.26407" lon="7.46341">
        <ele>836.9</ele>
        <time>2017-01-01T09:16:58Z</time>
      </trkpt>
      <trkpt lat="44.26533" lon="7.462">
        <ele>831.56</ele>
        <time>2017-01-01T09:17:07Z</time>
      </trkpt>
      <trkpt lat="44.26694" lon="7.46034">
        <ele>828.56</ele>
        <time>2017-01-01T09:17:18Z</time>
      </trkpt>
      <trkpt lat="44.2672" lon="7.45946">
        <ele>819.03</ele>
        <time>2017-01-01T09:17:22Z</time>
      </trkpt>
      <trkpt lat="44.268" lon="7.45887">
        <ele>820.14</ele>
        <time>2017-01-01T09:17:27Z</time>
      </trkpt>
      <trkpt lat="44.26803" lon="7.45743">
        <ele>811.25</ele>
        <time>2017-01-01T09:17:33Z</time>
      </trkpt>
      <trkpt lat="44.26841" lon="7.45641">
        <ele>805.21</ele>
        <time>2017-01-01T09:17:37Z</time>
      </trkpt>
      <trkpt lat="44.2698" lon="7.45426">
        <ele>804.45</ele>
        <time>2017-01-01T09:17:49Z</time>
      </trkpt>
      <trkpt lat="44.2705" lon="7.45403">
        <ele>795.91</ele>
        <time>2017-01-01T09:17:52Z</time>
      </trkpt>
      <trkpt lat="44.27135" lon="7.4525">
        <ele>792.88</ele>
        <time>2017-01-01T09:18:00Z</time>
      </trkpt>
      <trkpt lat="44.27155" lon="7.45145">
        <ele>791.85</ele>
        <time>2017-01-01T09:18:04Z</time>
      </trkpt>
      <trkpt lat="44.274" lon="7.44774">
        <ele>781.27</ele>
        <time>2017-01-01T09:18:24Z</time>
      </trkpt>
      <trkpt lat="44.27521" lon="7.44657">
        <ele>776.3</ele>
        <time>2017-01-01T09:18:32Z</time>
      </trkpt>
      <trkpt lat="44.27693" lon="7.44587">
        <ele>771.8</ele>
        <time>2017-01-01T09:18:42Z</time>
      </trkpt>
      <trkpt lat="44.27881" lon="7.44436">
        <ele>763.56</ele>
        <time>2017-01-01T09:18:54Z</time>
      </trkpt>
      <trkpt lat="44.28034" lon="7.44151">
        <ele>759.56</ele>
        <time>2017-01-01T09:19:08Z</time>
      </trkpt>
      <trkpt lat="44.28229" lon="7.44025">
        <ele>755.03</ele>
        <time>2017-01-01T09:19:20Z</time>
      </trkpt>
      <trkpt lat="44.28265" lon="7.43786">
        <ele>743.82</ele>
        <time>2017-01-01T09:19:29Z</time>
      </trkpt>
      <trkpt lat="44.28396" lon="7.43633">
        <ele>738.52</ele>
        <time>2017-01-01T09:19:39Z</time>
      </trkpt>
      <trkpt lat="44.28526" lon="7.43524">
        <ele>735.73</ele>
        <time>2017-01-01T09:19:47Z</time>
      </trkpt>
      <trkpt lat="44.28874" lon="7.43406">
        <ele>719.15</ele>
        <time>2017-01-01T09:20:07Z</time>
      </trkpt>
      <trkpt lat="44.28946" lon="7.4336">
        <ele>717.7</ele>
        <time>2017-01-01T09:20:11Z</time>
      </trkpt>
      <trkpt lat="44.29039" lon="7.43442">
        <ele>711.51</ele>
        <time>2017-01-01T09:20:17Z</time>
      </trkpt>
      <trkpt lat="44.29329" lon="7.43296">
        <ele>711.3</ele>
        <time>2017-01-01T09:20:34Z</time>
      </trkpt>
      <trkpt lat="44.292" lon="7.42621">
        <ele>721.36</ele>
        <time>2017-01-01T09:21:01Z</time>
      </trkpt>
      <trkpt lat="44.28778" lon="7.41926">
        <ele>734.33</ele>
        <time>2017-01-01T09:21:37Z</time>
      </trkpt>
      <trkpt lat="44.28531" lon="7.41505">
        <ele>739.13</ele>
        <time>2017-01-01T09:21:58Z</time>
      </trkpt>
      <trkpt lat="44.28251" lon="7.41171">
        <ele>744.89</ele>
        <time>2017-01-01T09:22:19Z</time>
      </trkpt>
      <trkpt lat="44.28102" lon="7.40872">
        <ele>748.41</ele>
        <time>2017-01-01T09:22:33Z</time>
      </trkpt>
      <trkpt lat="44.28083" lon="7.40632">
        <ele>775.51</ele>
        <time>2017-01-01T09:22:42Z</time>
      </trkpt>
      <trkpt lat="44.27912" lon="7.40349">
        <ele>760.71</ele>
        <time>2017-01-01T09:22:57Z</time>
      </trkpt>
      <trkpt lat="44.2774" lon="7.39911">
        <ele>769.05</ele>
        <time>2017-01-01T09:23:16Z</time>
      </trkpt>
      <trkpt lat="44.27695" lon="7.39817">
        <ele>774.23</ele>
        <time>2017-01-01T09:23:21Z</time>
      </trkpt>
      <trkpt lat="44.27749" lon="7.39636">
        <ele>788.23</ele>
        <time>2017-01-01T09:23:29Z</time>
      </trkpt>
      <trkpt lat="44.27761" lon="7.39523">
        <ele>797.53</ele>
        <time>2017-01-01T09:23:33Z</time>
      </trkpt>
      <trkpt lat="44.27721" lon="7.39454">
        <ele>803.53</ele>
        <time>2017-01-01T09:23:37Z</time>
      </trkpt>
      <trkpt lat="44.27842" lon="7.39216">
        <ele>834.93</ele>
        <time>2017-01-01T09:23:48Z</time>
      </trkpt>
      <trkpt lat="44.27895" lon="7.39351">
        <ele>850.27</ele>
        <time>2017-01-01T09:23:54Z</time>
      </trkpt>
      <trkpt lat="44.27935" lon="7.39195">
        <ele>860.11</ele>
        <time>2017-01-01T09:24:01Z</time>
      </trkpt>
      <trkpt lat="44.27976" lon="7.3904">
        <ele>877.95</ele>
        <time>2017-01-01T09:24:07Z</time>
      </trkpt>
      <trkpt lat="44.28044" lon="7.38853">
        <ele>908.69</ele>
        <time>2017-01-01T09:24:15Z</time>
      </trkpt>
      <trkpt lat="44.2809" lon="7.39005">
        <ele>919.76</ele>
        <time>2017-01-01T09:24:22Z</time>
      </trkpt>
      <trkpt lat="44.28139" lon="7.38662">
        <ele>941.31</ele>
        <time>2017-01-01T09:24:36Z</time>
      </trkpt>
      <trkpt lat="44.28182" lon="7.38894">
        <ele>963.65</ele>
        <time>2017-01-01T09:24:45Z</time>
      </trkpt>
      <trkpt lat="44.28285" lon="7.38521">
        <ele>990.12</ele>
        <time>2017-01-01T09:25:01Z</time>
      </trkpt>
      <trkpt lat="44.28271" lon="7.38342">
        <ele>1002.37</ele>
        <time>2017-01-01T09:25:08Z</time>
      </trkpt>
      <trkpt lat="44.28348" lon="7.38443">
        <ele>1020.27</ele>
        <time>2017-01-01T09:25:13Z</time>
      </trkpt>
      <trkpt lat="44.28299" lon="7.38269">
        <ele>1030.03</ele>
        <time>2017-01-01T09:25:21Z</time>
      </trkpt>
      <trkpt lat="44.28217" lon="7.38085">
        <ele>1045.84</ele>
        <time>2017-01-01T09:25:29Z</time>
      </trkpt>
      <trkpt lat="44.28002" lon="7.3831">
        <ele>1066.29</ele>
        <time>2017-01-01T09:25:44Z</time>
      </trkpt>
      <trkpt lat="44.27564" lon="7.38289">
        <ele>1111.93</ele>
        <time>2017-01-01T09:26:08Z</time>
      </trkpt>
      <trkpt lat="44.27809" lon="7.38057">
        <ele>1149.14</ele>
        <time>2017-01-01T09:26:24Z</time>
      </trkpt>
      <trkpt lat="44.27936" lon="7.3804">
        <ele>1164.32</ele>
        <time>2017-01-01T09:26:31Z</time>
      </trkpt>
      <trkpt lat="44.28088" lon="7.37671">
        <ele>1202.59</ele>
        <time>2017-01-01T09:26:48Z</time>
      </trkpt>
      <trkpt lat="44.27813" lon="7.37776">
        <ele>1228.56</ele>
        <time>2017-01-01T09:27:03Z</time>
      </trkpt>
      <trkpt lat="44.28339" lon="7.37276">
        <ele>1300.58</ele>
        <time>2017-01-01T09:27:38Z</time>
      </trkpt>
      <trkpt lat="44.28296" lon="7.37079">
        <ele>1285.29</ele>
        <time>2017-01-01T09:27:46Z</time>
      </trkpt>
      <trkpt lat="44.28622" lon="7.37139">
        <ele>1214.98</ele>
        <time>2017-01-01T09:28:04Z</time>
      </trkpt>
      <trkpt lat="44.28514" lon="7.36984">
        <ele>1200.64</ele>
        <time>2017-01-01T09:28:13Z</time>
      </trkpt>
      <trkpt lat="44.28684" lon="7.36594">
        <ele>1169.01</ele>
        <time>2017-01-01T09:28:31Z</time>
      </trkpt>
      <trkpt lat="44.28729" lon="7.36894">
        <ele>1134.49</ele>
        <time>2017-01-01T09:28:43Z</time>
      </trkpt>
      <trkpt lat="44.28824" lon="7.36334">
        <ele>1091.49</ele>
        <time>2017-01-01T09:29:05Z</time>
      </trkpt>
      <trkpt lat="44.2908" lon="7.36055">
        <ele>1028.17</ele>
        <time>2017-01-01T09:29:23Z</time>
      </trkpt>
      <trkpt lat="44.29073" lon="7.36377">
        <ele>1004.85</ele>
        <time>2017-01-01T09:29:36Z</time>
      </trkpt>
      <trkpt lat="44.29156" lon="7.36126">
        <ele>990.13</ele>
        <time>2017-01-01T09:29:47Z</time>
      </trkpt>
      <trkpt lat="44.29272" lon="7.35851">
        <ele>963.86</ele>
        <time>2017-01-01T09:29:59Z</time>
      </trkpt>
      <trkpt lat="44.29442" lon="7.35705">
        <ele>899.08</ele>
        <time>2017-01-01T09:30:10Z</time>
      </trkpt>
      <trkpt lat="44.29491" lon="7.35272">
        <ele>861.45</ele>
        <time>2017-01-01T09:30:27Z</time>
      </trkpt>
      <trkpt lat="44.2954" lon="7.35491">
        <ele>847.29</ele>
        <time>2017-01-01T09:30:36Z</time>
      </trkpt>
      <trkpt lat="44.29642" lon="7.35525">
        <ele>831.93</ele>
        <time>2017-01-01T09:30:42Z</time>
      </trkpt>
      <trkpt lat="44.29688" lon="7.35259">
        <ele>808.38</ele>
        <time>2017-01-01T09:30:53Z</time>
      </trkpt>
      <trkpt lat="44.29779" lon="7.34971">
        <ele>789.88</ele>
        <time>2017-01-01T09:31:05Z</time>
      </trkpt>
      <trkpt lat="44.30054" lon="7.33946">
        <ele>742.3</ele>
        <time>2017-01-01T09:31:48Z</time>
      </trkpt>
      <trkpt lat="44.30069" lon="7.34233">
        <ele>742.23</ele>
        <time>2017-01-01T09:32:00Z</time>
      </trkpt>
      <trkpt lat="44.30192" lon="7.3427">
        <ele>727.75</ele>
        <time>2017-01-01T09:32:06Z</time>
      </trkpt>
      <trkpt lat="44.31298" lon="7.3448">
        <ele>697</ele>
        <time>2017-01-01T09:33:08Z</time>
      </trkpt>
      <trkpt lat="44.31398" lon="7.33687">
        <ele>710.8</ele>
        <time>2017-01-01T09:33:39Z</time>
      </trkpt>
      <trkpt lat="44.31388" lon="7.33296">
        <ele>720.96</ele>
        <time>2017-01-01T09:33:55Z</time>
      </trkpt>
      <trkpt lat="44.31514" lon="7.3229">
        <ele>736.51</ele>
        <time>2017-01-01T09:34:35Z</time>
      </trkpt>
      <trkpt lat="44.31683" lon="7.31491">
        <ele>749.61</ele>
        <time>2017-01-01T09:35:07Z</time>
      </trkpt>
      <trkpt lat="44.3166" lon="7.30896">
        <ele>747.53</ele>
        <time>2017-01-01T09:35:31Z</time>
      </trkpt>
      <trkpt lat="44.31594" lon="7.30304">
        <ele>759.84</ele>
        <time>2017-01-01T09:35:54Z</time>
      </trkpt>
      <trkpt lat="44.31477" lon="7.29928">
        <ele>772.86</ele>
        <time>2017-01-01T09:36:10Z</time>
      </trkpt>
      <trkpt lat="44.31537" lon="7.29582">
        <ele>780.02</ele>
        <time>2017-01-01T09:36:24Z</time>
      </trkpt>
      <trkpt lat="44.31483" lon="7.29463">
        <ele>779.37</ele>
        <time>2017-01-01T09:36:30Z</time>
      </trkpt>
      <trkpt lat="44.3149" lon="7.29444">
        <ele>779.66</ele>
        <time>2017-01-01T09:36:31Z</time>
      </trkpt>
      <trkpt lat="44.31471" lon="7.29351">
        <ele>781.67</ele>
        <time>2017-01-01T09:36:34Z</time>
      </trkpt>
      <trkpt lat="44.31483" lon="7.2933">
        <ele>784.38</ele>
        <time>2017-01-01T09:36:35Z</time>
      </trkpt>
      <trkpt lat="44.31525" lon="7.29361">
        <ele>787.72</ele>
        <time>2017-01-01T09:36:38Z</time>
      </trkpt>
      <trkpt lat="44.316" lon="7.29398">
        <ele>787.92</ele>
        <time>2017-01-01T09:36:42Z</time>
      </trkpt>
      <trkpt lat="44.31642" lon="7.29316">
        <ele>789.02</ele>
        <time>2017-01-01T09:36:46Z</time>
      </trkpt>
      <trkpt lat="44.31711" lon="7.29277">
        <ele>791.11</ele>
        <time>2017-01-01T09:36:50Z</time>
      </trkpt>
      <trkpt lat="44.31778" lon="7.29216">
        <ele>791.22</ele>
        <time>2017-01-01T09:36:55Z</time>
      </trkpt>
      <trkpt lat="44.31857" lon="7.29162">
        <ele>801.1</ele>
        <time>2017-01-01T09:37:00Z</time>
      </trkpt>
      <trkpt lat="44.31893" lon="7.29001">
        <ele>815.49</ele>
        <time>2017-01-01T09:37:06Z</time>
      </trkpt>
      <trkpt lat="44.31874" lon="7.28857">
        <ele>824.22</ele>
        <time>2017-01-01T09:37:12Z</time>
      </trkpt>
      <trkpt lat="44.31891" lon="7.2881">
        <ele>831.11</ele>
        <time>2017-01-01T09:37:14Z</time>
      </trkpt>
      <trkpt lat="44.31903" lon="7.28875">
        <ele>834.23</ele>
        <time>2017-01-01T09:37:17Z</time>
      </trkpt>
      <trkpt lat="44.31945" lon="7.28924">
        <ele>836.01</ele>
        <time>2017-01-01T09:37:20Z</time>
      </trkpt>
      <trkpt lat="44.3198" lon="7.28851">
        <ele>840.54</ele>
        <time>2017-01-01T09:37:23Z</time>
      </trkpt>
      <trkpt lat="44.3229" lon="7.28594">
        <ele>870.33</ele>
        <time>2017-01-01T09:37:43Z</time>
      </trkpt>
      <trkpt lat="44.32318" lon="7.28436">
        <ele>883.34</ele>
        <time>2017-01-01T09:37:49Z</time>
      </trkpt>
      <trkpt lat="44.32185" lon="7.28081">
        <ele>896.88</ele>
        <time>2017-01-01T09:38:05Z</time>
      </trkpt>
      <trkpt lat="44.32338" lon="7.27834">
        <ele>923.19</ele>
        <time>2017-01-01T09:38:18Z</time>
      </trkpt>
      <trkpt lat="44.32394" lon="7.27607">
        <ele>939.04</ele>
        <time>2017-01-01T09:38:27Z</time>
      </trkpt>
      <trkpt lat="44.32466" lon="7.27485">
        <ele>943.94</ele>
        <time>2017-01-01T09:38:33Z</time>
      </trkpt>
      <trkpt lat="44.32544" lon="7.27219">
        <ele>957.43</ele>
        <time>2017-01-01T09:38:45Z</time>
      </trkpt>
      <trkpt lat="44.32748" lon="7.26825">
        <ele>968.99</ele>
        <time>2017-01-01T09:39:04Z</time>
      </trkpt>
      <trkpt lat="44.32834" lon="7.26588">
        <ele>963.2</ele>
        <time>2017-01-01T09:39:14Z</time>
      </trkpt>
      <trkpt lat="44.32948" lon="7.26382">
        <ele>963.23</ele>
        <time>2017-01-01T09:39:24Z</time>
      </trkpt>
      <trkpt lat="44.32982" lon="7.26115">
        <ele>973.35</ele>
        <time>2017-01-01T09:39:35Z</time>
      </trkpt>
      <trkpt lat="44.33049" lon="7.25868">
        <ele>979.5</ele>
        <time>2017-01-01T09:39:45Z</time>
      </trkpt>
      <trkpt lat="44.3315" lon="7.25712">
        <ele>998.68</ele>
        <time>2017-01-01T09:39:54Z</time>
      </trkpt>
      <trkpt lat="44.33201" lon="7.25586">
        <ele>1007.93</ele>
        <time>2017-01-01T09:39:59Z</time>
      </trkpt>
      <trkpt lat="44.33207" lon="7.25305">
        <ele>1025.99</ele>
        <time>2017-01-01T09:40:10Z</time>
      </trkpt>
      <trkpt lat="44.33145" lon="7.25096">
        <ele>1029.43</ele>
        <time>2017-01-01T09:40:19Z</time>
      </trkpt>
      <trkpt lat="44.33207" lon="7.24941">
        <ele>1043.79</ele>
        <time>2017-01-01T09:40:26Z</time>
      </trkpt>
      <trkpt lat="44.33341" lon="7.24759">
        <ele>1068.05</ele>
        <time>2017-01-01T09:40:36Z</time>
      </trkpt>
      <trkpt lat="44.33341" lon="7.2487">
        <ele>1077.06</ele>
        <time>2017-01-01T09:40:41Z</time>
      </trkpt>
      <trkpt lat="44.33387" lon="7.24656">
        <ele>1089.32</ele>
        <time>2017-01-01T09:40:49Z</time>
      </trkpt>
      <trkpt lat="44.33409" lon="7.24407">
        <ele>1110.41</ele>
        <time>2017-01-01T09:40:59Z</time>
      </trkpt>
      <trkpt lat="44.33463" lon="7.24227">
        <ele>1131.55</ele>
        <time>2017-01-01T09:41:07Z</time>
      </trkpt>
      <trkpt lat="44.33465" lon="7.23595">
        <ele>1166.49</ele>
        <time>2017-01-01T09:41:32Z</time>
      </trkpt>
      <trkpt lat="44.33576" lon="7.2343">
        <ele>1187.02</ele>
        <time>2017-01-01T09:41:41Z</time>
      </trkpt>
      <trkpt lat="44.33547" lon="7.23381">
        <ele>1187</ele>
        <time>2017-01-01T09:41:43Z</time>
      </trkpt>
      <trkpt lat="44.33576" lon="7.23338">
        <ele>1190.4</ele>
        <time>2017-01-01T09:41:45Z</time>
      </trkpt>
      <trkpt lat="44.33653" lon="7.23237">
        <ele>1201.78</ele>
        <time>2017-01-01T09:41:51Z</time>
      </trkpt>
      <trkpt lat="44.33702" lon="7.23102">
        <ele>1209.44</ele>
        <time>2017-01-01T09:41:57Z</time>
      </trkpt>
      <trkpt lat="44.33804" lon="7.22699">
        <ele>1237.64</ele>
        <time>2017-01-01T09:42:14Z</time>
      </trkpt>
      <trkpt lat="44.33819" lon="7.22482">
        <ele>1249.5</ele>
        <time>2017-01-01T09:42:22Z</time>
      </trkpt>
      <trkpt lat="44.33902" lon="7.22202">
        <ele>1262.98</ele>
        <time>2017-01-01T09:42:34Z</time>
      </trkpt>
      <trkpt lat="44.33902" lon="7.21855">
        <ele>1272.15</ele>
        <time>2017-01-01T09:42:48Z</time>
      </trkpt>
      <trkpt lat="44.34044" lon="7.21383">
        <ele>1270.17</ele>
        <time>2017-01-01T09:43:08Z</time>
      </trkpt>
      <trkpt lat="44.34364" lon="7.21033">
        <ele>1276.52</ele>
        <time>2017-01-01T09:43:30Z</time>
      </trkpt>
      <trkpt lat="44.34487" lon="7.20565">
        <ele>1289.75</ele>
        <time>2017-01-01T09:43:50Z</time>
      </trkpt>
      <trkpt lat="44.34596" lon="7.20443">
        <ele>1298.48</ele>
        <time>2017-01-01T09:43:57Z</time>
      </trkpt>
      <trkpt lat="44.34635" lon="7.20423">
        <ele>1299.73</ele>
        <time>2017-01-01T09:44:00Z</time>
      </trkpt>
      <trkpt lat="44.34598" lon="7.20343">
        <ele>1305.52</ele>
        <time>2017-01-01T09:44:03Z</time>
      </trkpt>
      <trkpt lat="44.3463" lon="7.20091">
        <ele>1313.94</ele>
        <time>2017-01-01T09:44:13Z</time>
      </trkpt>
      <trkpt lat="44.34615" lon="7.19909">
        <ele>1317.23</ele>
        <time>2017-01-01T09:44:21Z</time>
      </trkpt>
      <trkpt lat="44.34641" lon="7.19459">
        <ele>1336.88</ele>
        <time>2017-01-01T09:44:38Z</time>
      </trkpt>
      <trkpt lat="44.34681" lon="7.19578">
        <ele>1345.77</ele>
        <time>2017-01-01T09:44:43Z</time>
      </trkpt>
      <trkpt lat="44.34727" lon="7.1919">
        <ele>1364.68</ele>
        <time>2017-01-01T09:44:59Z</time>
      </trkpt>
      <trkpt lat="44.34811" lon="7.18799">
        <ele>1397.64</ele>
        <time>2017-01-01T09:45:15Z</time>
      </trkpt>
      <trkpt lat="44.34919" lon="7.18607">
        <ele>1403.59</ele>
        <time>2017-01-01T09:45:24Z</time>
      </trkpt>
      <trkpt lat="44.34989" lon="7.18388">
        <ele>1413.23</ele>
        <time>2017-01-01T09:45:34Z</time>
      </trkpt>
      <trkpt lat="44.35099" lon="7.18166">
        <ele>1429.98</ele>
        <time>2017-01-01T09:45:44Z</time>
      </trkpt>
      <trkpt lat="44.35258" lon="7.17832">
        <ele>1449.98</ele>
        <time>2017-01-01T09:46:00Z</time>
      </trkpt>
      <trkpt lat="44.35444" lon="7.17532">
        <ele>1483.24</ele>
        <time>2017-01-01T09:46:16Z</time>
      </trkpt>
      <trkpt lat="44.35565" lon="7.17319">
        <ele>1481.37</ele>
        <time>2017-01-01T09:46:26Z</time>
      </trkpt>
      <trkpt lat="44.35736" lon="7.17144">
        <ele>1495.92</ele>
        <time>2017-01-01T09:46:38Z</time>
      </trkpt>
      <trkpt lat="44.35811" lon="7.1683">
        <ele>1517.49</ele>
        <time>2017-01-01T09:46:51Z</time>
      </trkpt>
      <trkpt lat="44.35814" lon="7.16918">
        <ele>1525.38</ele>
        <time>2017-01-01T09:46:54Z</time>
      </trkpt>
      <trkpt lat="44.35913" lon="7.16656">
        <ele>1549.38</ele>
        <time>2017-01-01T09:47:06Z</time>
      </trkpt>
      <trkpt lat="44.36025" lon="7.16437">
        <ele>1566.6</ele>
        <time>2017-01-01T09:47:17Z</time>
      </trkpt>
      <trkpt lat="44.36082" lon="7.16301">
        <ele>1586.13</ele>
        <time>2017-01-01T09:47:23Z</time>
      </trkpt>
      <trkpt lat="44.36088" lon="7.16111">
        <ele>1605.76</ele>
        <time>2017-01-01T09:47:30Z</time>
      </trkpt>
      <trkpt lat="44.3608" lon="7.15923">
        <ele>1623.91</ele>
        <time>2017-01-01T09:47:38Z</time>
      </trkpt>
      <trkpt lat="44.36175" lon="7.16079">
        <ele>1645.21</ele>
        <time>2017-01-01T09:47:46Z</time>
      </trkpt>
      <trkpt lat="44.36143" lon="7.15931">
        <ele>1658.57</ele>
        <time>2017-01-01T09:47:52Z</time>
      </trkpt>
      <trkpt lat="44.36138" lon="7.1579">
        <ele>1671.23</ele>
        <time>2017-01-01T09:47:57Z</time>
      </trkpt>
      <trkpt lat="44.36191" lon="7.15654">
        <ele>1691.22</ele>
        <time>2017-01-01T09:48:03Z</time>
      </trkpt>
      <trkpt lat="44.36248" lon="7.15517">
        <ele>1699.93</ele>
        <time>2017-01-01T09:48:10Z</time>
      </trkpt>
      <trkpt lat="44.36487" lon="7.1528">
        <ele>1733.27</ele>
        <time>2017-01-01T09:48:26Z</time>
      </trkpt>
      <trkpt lat="44.36498" lon="7.15202">
        <ele>1732.69</ele>
        <time>2017-01-01T09:48:29Z</time>
      </trkpt>
      <trkpt lat="44.36519" lon="7.15279">
        <ele>1747.17</ele>
        <time>2017-01-01T09:48:32Z</time>
      </trkpt>
      <trkpt lat="44.364" lon="7.15481">
        <ele>1764.63</ele>
        <time>2017-01-01T09:48:42Z</time>
      </trkpt>
      <trkpt lat="44.36329" lon="7.15771">
        <ele>1791.4</ele>
        <time>2017-01-01T09:48:54Z</time>
      </trkpt>
      <trkpt lat="44.36452" lon="7.156">
        <ele>1805.22</ele>
        <time>2017-01-01T09:49:04Z</time>
      </trkpt>
      <trkpt lat="44.36493" lon="7.15516">
        <ele>1807.97</ele>
        <time>2017-01-01T09:49:08Z</time>
      </trkpt>
      <trkpt lat="44.36671" lon="7.15395">
        <ele>1823.33</ele>
        <time>2017-01-01T09:49:19Z</time>
      </trkpt>
      <trkpt lat="44.36978" lon="7.15267">
        <ele>1861.44</ele>
        <time>2017-01-01T09:49:36Z</time>
      </trkpt>
      <trkpt lat="44.3715" lon="7.15086">
        <ele>1886.49</ele>
        <time>2017-01-01T09:49:48Z</time>
      </trkpt>
      <trkpt lat="44.37148" lon="7.14974">
        <ele>1896.58</ele>
        <time>2017-01-01T09:49:52Z</time>
      </trkpt>
      <trkpt lat="44.37218" lon="7.14925">
        <ele>1897.82</ele>
        <time>2017-01-01T09:49:57Z</time>
      </trkpt>
      <trkpt lat="44.37208" lon="7.14989">
        <ele>1902.18</ele>
        <time>2017-01-01T09:49:59Z</time>
      </trkpt>
      <trkpt lat="44.37238" lon="7.14999">
        <ele>1908.39</ele>
        <time>2017-01-01T09:50:01Z</time>
      </trkpt>
      <trkpt lat="44.37368" lon="7.14863">
        <ele>1923.52</ele>
        <time>2017-01-01T09:50:10Z</time>
      </trkpt>
      <trkpt lat="44.37438" lon="7.1448">
        <ele>1940.92</ele>
        <time>2017-01-01T09:50:25Z</time>
      </trkpt>
      <trkpt lat="44.37576" lon="7.14145">
        <ele>1984.69</ele>
        <time>2017-01-01T09:50:40Z</time>
      </trkpt>
      <trkpt lat="44.37553" lon="7.13904">
        <ele>2004.81</ele>
        <time>2017-01-01T09:50:50Z</time>
      </trkpt>
      <trkpt lat="44.37603" lon="7.13911">
        <ele>2011.08</ele>
        <time>2017-01-01T09:50:53Z</time>
      </trkpt>
      <trkpt lat="44.37739" lon="7.13632">
        <ele>2043.7</ele>
        <time>2017-01-01T09:51:06Z</time>
      </trkpt>
      <trkpt lat="44.37769" lon="7.13277">
        <ele>2055.79</ele>
        <time>2017-01-01T09:51:20Z</time>
      </trkpt>
      <trkpt lat="44.37826" lon="7.12806">
        <ele>2090.58</ele>
        <time>2017-01-01T09:51:39Z</time>
      </trkpt>
      <trkpt lat="44.37821" lon="7.12302">
        <ele>2131.02</ele>
        <time>2017-01-01T09:51:58Z</time>
      </trkpt>
      <trkpt lat="44.377" lon="7.12386">
        <ele>2137.65</ele>
        <time>2017-01-01T09:52:06Z</time>
      </trkpt>
      <trkpt lat="44.37705" lon="7.12067">
        <ele>2176.22</ele>
        <time>2017-01-01T09:52:18Z</time>
      </trkpt>
      <trkpt lat="44.37617" lon="7.12094">
        <ele>2175.96</ele>
        <time>2017-01-01T09:52:23Z</time>
      </trkpt>
      <trkpt lat="44.37599" lon="7.1199">
        <ele>2188.43</ele>
        <time>2017-01-01T09:52:27Z</time>
      </trkpt>
      <trkpt lat="44.37656" lon="7.11975">
        <ele>2194.45</ele>
        <time>2017-01-01T09:52:31Z</time>
      </trkpt>
      <trkpt lat="44.37722" lon="7.11922">
        <ele>2203.46</ele>
        <time>2017-01-01T09:52:35Z</time>
      </trkpt>
      <trkpt lat="44.37808" lon="7.11844">
        <ele>2207.74</ele>
        <time>2017-01-01T09:52:40Z</time>
      </trkpt>
      <trkpt lat="44.37876" lon="7.11742">
        <ele>2221.39</ele>
        <time>2017-01-01T09:52:46Z</time>
      </trkpt>
      <trkpt lat="44.37892" lon="7.11542">
        <ele>2236.15</ele>
        <time>2017-01-01T09:52:54Z</time>
      </trkpt>
      <trkpt lat="44.37925" lon="7.11315">
        <ele>2255.01</ele>
        <time>2017-01-01T09:53:03Z</time>
      </trkpt>
      <trkpt lat="44.37897" lon="7.11255">
        <ele>2262.24</ele>
        <time>2017-01-01T09:53:06Z</time>
      </trkpt>
      <trkpt lat="44.37937" lon="7.11115">
        <ele>2277.71</ele>
        <time>2017-01-01T09:53:11Z</time>
      </trkpt>
      <trkpt lat="44.38" lon="7.11191">
        <ele>2283.75</ele>
        <time>2017-01-01T09:53:16Z</time>
      </trkpt>
      <trkpt lat="44.38022" lon="7.11195">
        <ele>2289.26</ele>
        <time>2017-01-01T09:53:17Z</time>
      </trkpt>
      <trkpt lat="44.37961" lon="7.11033">
        <ele>2296.79</ele>
        <time>2017-01-01T09:53:24Z</time>
      </trkpt>
      <trkpt lat="44.37834" lon="7.11171">
        <ele>2294.07</ele>
        <time>2017-01-01T09:53:33Z</time>
      </trkpt>
      <trkpt lat="44.37815" lon="7.11165">
        <ele>2296</ele>
        <time>2017-01-01T09:53:34Z</time>
      </trkpt>
      <trkpt lat="44.37899" lon="7.11058">
        <ele>2307.83</ele>
        <time>2017-01-01T09:53:40Z</time>
      </trkpt>
      <trkpt lat="44.38003" lon="7.10588">
        <ele>2349.43</ele>
        <time>2017-01-01T09:54:00Z</time>
      </trkpt>
      <trkpt lat="44.38039" lon="7.10514">
        <ele>2357.22</ele>
        <time>2017-01-01T09:54:03Z</time>
      </trkpt>
      <trkpt lat="44.37958" lon="7.10459">
        <ele>2372.63</ele>
        <time>2017-01-01T09:54:08Z</time>
      </trkpt>
      <trkpt lat="44.38085" lon="7.1024">
        <ele>2401.19</ele>
        <time>2017-01-01T09:54:19Z</time>
      </trkpt>
      <trkpt lat="44.38117" lon="7.10231">
        <ele>2407.18</ele>
        <time>2017-01-01T09:54:21Z</time>
      </trkpt>
      <trkpt lat="44.3813" lon="7.10234">
        <ele>2409.53</ele>
        <time>2017-01-01T09:54:22Z</time>
      </trkpt>
      <trkpt lat="44.38142" lon="7.10207">
        <ele>2414.7</ele>
        <time>2017-01-01T09:54:23Z</time>
      </trkpt>
      <trkpt lat="44.38168" lon="7.10105">
        <ele>2413.58</ele>
        <time>2017-01-01T09:54:27Z</time>
      </trkpt>
      <trkpt lat="44.38137" lon="7.1007">
        <ele>2410.72</ele>
        <time>2017-01-01T09:54:29Z</time>
      </trkpt>
      <trkpt lat="44.38097" lon="7.10069">
        <ele>2409.91</ele>
        <time>2017-01-01T09:54:32Z</time>
      </trkpt>
      <trkpt lat="44.38063" lon="7.10023">
        <ele>2404.5</ele>
        <time>2017-01-01T09:54:34Z</time>
      </trkpt>
      <trkpt lat="44.38095" lon="7.10046">
        <ele>2404.23</ele>
        <time>2017-01-01T09:54:36Z</time>
      </trkpt>
      <trkpt lat="44.38107" lon="7.10045">
        <ele>2403.4</ele>
        <time>2017-01-01T09:54:37Z</time>
      </trkpt>
      <trkpt lat="44.38122" lon="7.10022">
        <ele>2397.14</ele>
        <time>2017-01-01T09:54:38Z</time>
      </trkpt>
      <trkpt lat="44.38174" lon="7.10014">
        <ele>2391.87</ele>
        <time>2017-01-01T09:54:41Z</time>
      </trkpt>
      <trkpt lat="44.3824" lon="7.0999">
        <ele>2390.65</ele>
        <time>2017-01-01T09:54:45Z</time>
      </trkpt>
      <trkpt lat="44.38273" lon="7.09966">
        <ele>2389.64</ele>
        <time>2017-01-01T09:54:47Z</time>
      </trkpt>
      <trkpt lat="44.38345" lon="7.09954">
        <ele>2391.69</ele>
        <time>2017-01-01T09:54:51Z</time>
      </trkpt>
      <trkpt lat="44.3845" lon="7.09726">
        <ele>2403.45</ele>
        <time>2017-01-01T09:55:01Z</time>
      </trkpt>
      <trkpt lat="44.38432" lon="7.09661">
        <ele>2402.38</ele>
        <time>2017-01-01T09:55:04Z</time>
      </trkpt>
      <trkpt lat="44.38466" lon="7.09615">
        <ele>2401.53</ele>
        <time>2017-01-01T09:55:07Z</time>
      </trkpt>
      <trkpt lat="44.38463" lon="7.09539">
        <ele>2403.25</ele>
        <time>2017-01-01T09:55:10Z</time>
      </trkpt>
      <trkpt lat="44.38489" lon="7.09453">
        <ele>2403.63</ele>
        <time>2017-01-01T09:55:13Z</time>
      </trkpt>
      <trkpt lat="44.38489" lon="7.09387">
        <ele>2406.21</ele>
        <time>2017-01-01T09:55:16Z</time>
      </trkpt>
      <trkpt lat="44.38506" lon="7.09357">
        <ele>2407.64</ele>
        <time>2017-01-01T09:55:17Z</time>
      </trkpt>
      <trkpt lat="44.38581" lon="7.09417">
        <ele>2413.65</ele>
        <time>2017-01-01T09:55:22Z</time>
      </trkpt>
      <trkpt lat="44.3858" lon="7.09322">
        <ele>2418.96</ele>
        <time>2017-01-01T09:55:26Z</time>
      </trkpt>
      <trkpt lat="44.38609" lon="7.09233">
        <ele>2424</ele>
        <time>2017-01-01T09:55:30Z</time>
      </trkpt>
      <trkpt lat="44.38573" lon="7.09062">
        <ele>2421.87</ele>
        <time>2017-01-01T09:55:37Z</time>
      </trkpt>
      <trkpt lat="44.38513" lon="7.09039">
        <ele>2417.62</ele>
        <time>2017-01-01T09:55:40Z</time>
      </trkpt>
      <trkpt lat="44.38479" lon="7.08989">
        <ele>2418.21</ele>
        <time>2017-01-01T09:55:43Z</time>
      </trkpt>
      <trkpt lat="44.38465" lon="7.08949">
        <ele>2417.15</ele>
        <time>2017-01-01T09:55:44Z</time>
      </trkpt>
      <trkpt lat="44.38447" lon="7.08927">
        <ele>2416.49</ele>
        <time>2017-01-01T09:55:46Z</time>
      </trkpt>
      <trkpt lat="44.38427" lon="7.08922">
        <ele>2416.63</ele>
        <time>2017-01-01T09:55:47Z</time>
      </trkpt>
      <trkpt lat="44.38405" lon="7.08958">
        <ele>2412.57</ele>
        <time>2017-01-01T09:55:49Z</time>
      </trkpt>
      <trkpt lat="44.38377" lon="7.08951">
        <ele>2411.49</ele>
        <time>2017-01-01T09:55:50Z</time>
      </trkpt>
      <trkpt lat="44.38377" lon="7.08904">
        <ele>2413.89</ele>
        <time>2017-01-01T09:55:52Z</time>
      </trkpt>
      <trkpt lat="44.38313" lon="7.08805">
        <ele>2408.51</ele>
        <time>2017-01-01T09:55:57Z</time>
      </trkpt>
      <trkpt lat="44.38247" lon="7.08716">
        <ele>2407.21</ele>
        <time>2017-01-01T09:56:02Z</time>
      </trkpt>
      <trkpt lat="44.38205" lon="7.08656">
        <ele>2408.55</ele>
        <time>2017-01-01T09:56:06Z</time>
      </trkpt>
      <trkpt lat="44.382" lon="7.08568">
        <ele>2404.8</ele>
        <time>2017-01-01T09:56:09Z</time>
      </trkpt>
      <trkpt lat="44.38215" lon="7.08477">
        <ele>2400.65</ele>
        <time>2017-01-01T09:56:13Z</time>
      </trkpt>
      <trkpt lat="44.38276" lon="7.08349">
        <ele>2404.92</ele>
        <time>2017-01-01T09:56:19Z</time>
      </trkpt>
      <trkpt lat="44.38303" lon="7.08191">
        <ele>2405.6</ele>
        <time>2017-01-01T09:56:25Z</time>
      </trkpt>
      <trkpt lat="44.38336" lon="7.08136">
        <ele>2404.4</ele>
        <time>2017-01-01T09:56:28Z</time>
      </trkpt>
      <trkpt lat="44.38337" lon="7.08045">
        <ele>2404.71</ele>
        <time>2017-01-01T09:56:32Z</time>
      </trkpt>
      <trkpt lat="44.38308" lon="7.07974">
        <ele>2404.97</ele>
        <time>2017-01-01T09:56:35Z</time>
      </trkpt>
      <trkpt lat="44.38322" lon="7.07785">
        <ele>2410.47</ele>
        <time>2017-01-01T09:56:42Z</time>
      </trkpt>
      <trkpt lat="44.38353" lon="7.0763">
        <ele>2401.97</ele>
        <time>2017-01-01T09:56:48Z</time>
      </trkpt>
      <trkpt lat="44.3854" lon="7.0728">
        <ele>2400.41</ele>
        <time>2017-01-01T09:57:06Z</time>
      </trkpt>
      <trkpt lat="44.38747" lon="7.06972">
        <ele>2400.55</ele>
        <time>2017-01-01T09:57:22Z</time>
      </trkpt>
      <trkpt lat="44.38779" lon="7.06881">
        <ele>2405.53</ele>
        <time>2017-01-01T09:57:26Z</time>
      </trkpt>
      <trkpt lat="44.38788" lon="7.06813">
        <ele>2405.05</ele>
        <time>2017-01-01T09:57:29Z</time>
      </trkpt>
      <trkpt lat="44.38747" lon="7.06769">
        <ele>2404.24</ele>
        <time>2017-01-01T09:57:32Z</time>
      </trkpt>
      <trkpt lat="44.38748" lon="7.06742">
        <ele>2406.31</ele>
        <time>2017-01-01T09:57:33Z</time>
      </trkpt>
      <trkpt lat="44.38737" lon="7.06727">
        <ele>2408.28</ele>
        <time>2017-01-01T09:57:34Z</time>
      </trkpt>
      <trkpt lat="44.38714" lon="7.0673">
        <ele>2402.56</ele>
        <time>2017-01-01T09:57:35Z</time>
      </trkpt>
      <trkpt lat="44.38631" lon="7.06621">
        <ele>2402.47</ele>
        <time>2017-01-01T09:57:41Z</time>
      </trkpt>
      <trkpt lat="44.38622" lon="7.06546">
        <ele>2406.22</ele>
        <time>2017-01-01T09:57:44Z</time>
      </trkpt>
      <trkpt lat="44.38481" lon="7.06467">
        <ele>2398.32</ele>
        <time>2017-01-01T09:57:52Z</time>
      </trkpt>
      <trkpt lat="44.38481" lon="7.06392">
        <ele>2396.14</ele>
        <time>2017-01-01T09:57:55Z</time>
      </trkpt>
      <trkpt lat="44.38401" lon="7.06153">
        <ele>2392.59</ele>
        <time>2017-01-01T09:58:06Z</time>
      </trkpt>
      <trkpt lat="44.38343" lon="7.0611">
        <ele>2400.16</ele>
        <time>2017-01-01T09:58:09Z</time>
      </trkpt>
      <trkpt lat="44.38282" lon="7.06022">
        <ele>2404.83</ele>
        <time>2017-01-01T09:58:14Z</time>
      </trkpt>
      <trkpt lat="44.38225" lon="7.0601">
        <ele>2415.55</ele>
        <time>2017-01-01T09:58:17Z</time>
      </trkpt>
      <trkpt lat="44.38167" lon="7.05801">
        <ele>2418.44</ele>
        <time>2017-01-01T09:58:26Z</time>
      </trkpt>
      <trkpt lat="44.38082" lon="7.05791">
        <ele>2430.54</ele>
        <time>2017-01-01T09:58:31Z</time>
      </trkpt>
      <trkpt lat="44.38082" lon="7.05747">
        <ele>2429.32</ele>
        <time>2017-01-01T09:58:32Z</time>
      </trkpt>
      <trkpt lat="44.38032" lon="7.05627">
        <ele>2435.23</ele>
        <time>2017-01-01T09:58:38Z</time>
      </trkpt>
      <trkpt lat="44.38011" lon="7.0556">
        <ele>2438.24</ele>
        <time>2017-01-01T09:58:41Z</time>
      </trkpt>
      <trkpt lat="44.38014" lon="7.05539">
        <ele>2438.53</ele>
        <time>2017-01-01T09:58:42Z</time>
      </trkpt>
      <trkpt lat="44.38047" lon="7.05473">
        <ele>2437.5</ele>
        <time>2017-01-01T09:58:45Z</time>
      </trkpt>
      <trkpt lat="44.38144" lon="7.05376">
        <ele>2437.66</ele>
        <time>2017-01-01T09:58:51Z</time>
      </trkpt>
      <trkpt lat="44.38144" lon="7.05347">
        <ele>2443.32</ele>
        <time>2017-01-01T09:58:52Z</time>
      </trkpt>
      <trkpt lat="44.38182" lon="7.05343">
        <ele>2441.03</ele>
        <time>2017-01-01T09:58:54Z</time>
      </trkpt>
      <trkpt lat="44.38195" lon="7.05372">
        <ele>2438.49</ele>
        <time>2017-01-01T09:58:56Z</time>
      </trkpt>
      <trkpt lat="44.38219" lon="7.05369">
        <ele>2436.83</ele>
        <time>2017-01-01T09:58:57Z</time>
      </trkpt>
      <trkpt lat="44.38264" lon="7.05262">
        <ele>2433.38</ele>
        <time>2017-01-01T09:59:02Z</time>
      </trkpt>
      <trkpt lat="44.38275" lon="7.05122">
        <ele>2434.58</ele>
        <time>2017-01-01T09:59:08Z</time>
      </trkpt>
      <trkpt lat="44.38267" lon="7.05007">
        <ele>2440.26</ele>
        <time>2017-01-01T09:59:12Z</time>
      </trkpt>
      <trkpt lat="44.3822" lon="7.0492">
        <ele>2449.32</ele>
        <time>2017-01-01T09:59:16Z</time>
      </trkpt>
      <trkpt lat="44.38231" lon="7.04887">
        <ele>2449.65</ele>
        <time>2017-01-01T09:59:18Z</time>
      </trkpt>
      <trkpt lat="44.38212" lon="7.04851">
        <ele>2452.52</ele>
        <time>2017-01-01T09:59:19Z</time>
      </trkpt>
      <trkpt lat="44.38225" lon="7.04629">
        <ele>2450.35</ele>
        <time>2017-01-01T09:59:28Z</time>
      </trkpt>
      <trkpt lat="44.38262" lon="7.04548">
        <ele>2451.6</ele>
        <time>2017-01-01T09:59:32Z</time>
      </trkpt>
      <trkpt lat="44.38322" lon="7.04532">
        <ele>2447.97</ele>
        <time>2017-01-01T09:59:35Z</time>
      </trkpt>
      <trkpt lat="44.38379" lon="7.04277">
        <ele>2451.52</ele>
        <time>2017-01-01T09:59:46Z</time>
      </trkpt>
      <trkpt lat="44.38417" lon="7.04289">
        <ele>2451.43</ele>
        <time>2017-01-01T09:59:48Z</time>
      </trkpt>
      <trkpt lat="44.38429" lon="7.04374">
        <ele>2448.56</ele>
        <time>2017-01-01T09:59:51Z</time>
      </trkpt>
      <trkpt lat="44.38462" lon="7.04398">
        <ele>2450.15</ele>
        <time>2017-01-01T09:59:53Z</time>
      </trkpt>
      <trkpt lat="44.38508" lon="7.04385">
        <ele>2452.8</ele>
        <time>2017-01-01T09:59:56Z</time>
      </trkpt>
      <trkpt lat="44.38559" lon="7.04315">
        <ele>2454.37</ele>
        <time>2017-01-01T10:00:00Z</time>
      </trkpt>
      <trkpt lat="44.38735" lon="7.04334">
        <ele>2449.65</ele>
        <time>2017-01-01T10:00:09Z</time>
      </trkpt>
      <trkpt lat="44.38746" lon="7.04305">
        <ele>2452.15</ele>
        <time>2017-01-01T10:00:11Z</time>
      </trkpt>
      <trkpt lat="44.38816" lon="7.04299">
        <ele>2448.91</ele>
        <time>2017-01-01T10:00:15Z</time>
      </trkpt>
      <trkpt lat="44.38823" lon="7.04241">
        <ele>2447.69</ele>
        <time>2017-01-01T10:00:17Z</time>
      </trkpt>
      <trkpt lat="44.38816" lon="7.04197">
        <ele>2441.61</ele>
        <time>2017-01-01T10:00:19Z</time>
      </trkpt>
      <trkpt lat="44.38763" lon="7.04157">
        <ele>2455.45</ele>
        <time>2017-01-01T10:00:22Z</time>
      </trkpt>
      <trkpt lat="44.38677" lon="7.04036">
        <ele>2439.52</ele>
        <time>2017-01-01T10:00:29Z</time>
      </trkpt>
      <trkpt lat="44.38579" lon="7.03947">
        <ele>2436.97</ele>
        <time>2017-01-01T10:00:35Z</time>
      </trkpt>
      <trkpt lat="44.38522" lon="7.03845">
        <ele>2428.7</ele>
        <time>2017-01-01T10:00:40Z</time>
      </trkpt>
      <trkpt lat="44.38491" lon="7.03795">
        <ele>2424.49</ele>
        <time>2017-01-01T10:00:43Z</time>
      </trkpt>
      <trkpt lat="44.38504" lon="7.03736">
        <ele>2421.5</ele>
        <time>2017-01-01T10:00:45Z</time>
      </trkpt>
      <trkpt lat="44.38488" lon="7.037">
        <ele>2422.42</ele>
        <time>2017-01-01T10:00:47Z</time>
      </trkpt>
      <trkpt lat="44.38505" lon="7.03668">
        <ele>2415.8</ele>
        <time>2017-01-01T10:00:48Z</time>
      </trkpt>
      <trkpt lat="44.38487" lon="7.03622">
        <ele>2417.61</ele>
        <time>2017-01-01T10:00:50Z</time>
      </trkpt>
      <trkpt lat="44.38565" lon="7.03517">
        <ele>2401.31</ele>
        <time>2017-01-01T10:00:56Z</time>
      </trkpt>
      <trkpt lat="44.38616" lon="7.03412">
        <ele>2400.15</ele>
        <time>2017-01-01T10:01:01Z</time>
      </trkpt>
      <trkpt lat="44.3859" lon="7.03335">
        <ele>2396.94</ele>
        <time>2017-01-01T10:01:05Z</time>
      </trkpt>
      <trkpt lat="44.3863" lon="7.03161">
        <ele>2379.32</ele>
        <time>2017-01-01T10:01:12Z</time>
      </trkpt>
      <trkpt lat="44.3855" lon="7.03023">
        <ele>2376.07</ele>
        <time>2017-01-01T10:01:19Z</time>
      </trkpt>
      <trkpt lat="44.38574" lon="7.02989">
        <ele>2374.91</ele>
        <time>2017-01-01T10:01:21Z</time>
      </trkpt>
      <trkpt lat="44.38622" lon="7.02958">
        <ele>2373.02</ele>
        <time>2017-01-01T10:01:24Z</time>
      </trkpt>
      <trkpt lat="44.38652" lon="7.02888">
        <ele>2376.08</ele>
        <time>2017-01-01T10:01:27Z</time>
      </trkpt>
      <trkpt lat="44.38696" lon="7.02893">
        <ele>2371.2</ele>
        <time>2017-01-01T10:01:29Z</time>
      </trkpt>
      <trkpt lat="44.38779" lon="7.02839">
        <ele>2376.49</ele>
        <time>2017-01-01T10:01:34Z</time>
      </trkpt>
      <trkpt lat="44.38818" lon="7.02845">
        <ele>2375.74</ele>
        <time>2017-01-01T10:01:36Z</time>
      </trkpt>
      <trkpt lat="44.38838" lon="7.02841">
        <ele>2376.94</ele>
        <time>2017-01-01T10:01:37Z</time>
      </trkpt>
      <trkpt lat="44.38856" lon="7.02825">
        <ele>2376.12</ele>
        <time>2017-01-01T10:01:39Z</time>
      </trkpt>
      <trkpt lat="44.38895" lon="7.02788">
        <ele>2376.11</ele>
        <time>2017-01-01T10:01:41Z</time>
      </trkpt>
      <trkpt lat="44.39013" lon="7.02806">
        <ele>2373.33</ele>
        <time>2017-01-01T10:01:48Z</time>
      </trkpt>
      <trkpt lat="44.39098" lon="7.02733">
        <ele>2373.27</ele>
        <time>2017-01-01T10:01:53Z</time>
      </trkpt>
      <trkpt lat="44.39143" lon="7.02623">
        <ele>2376.63</ele>
        <time>2017-01-01T10:01:58Z</time>
      </trkpt>
      <trkpt lat="44.39191" lon="7.02618">
        <ele>2374.43</ele>
        <time>2017-01-01T10:02:01Z</time>
      </trkpt>
      <trkpt lat="44.39234" lon="7.02579">
        <ele>2371.45</ele>
        <time>2017-01-01T10:02:04Z</time>
      </trkpt>
      <trkpt lat="44.39302" lon="7.02429">
        <ele>2372.81</ele>
        <time>2017-01-01T10:02:11Z</time>
      </trkpt>
      <trkpt lat="44.39332" lon="7.02436">
        <ele>2369.13</ele>
        <time>2017-01-01T10:02:12Z</time>
      </trkpt>
      <trkpt lat="44.39398" lon="7.02372">
        <ele>2368.39</ele>
        <time>2017-01-01T10:02:17Z</time>
      </trkpt>
      <trkpt lat="44.39427" lon="7.02333">
        <ele>2371.92</ele>
        <time>2017-01-01T10:02:19Z</time>
      </trkpt>
      <trkpt lat="44.39566" lon="7.02349">
        <ele>2363.99</ele>
        <time>2017-01-01T10:02:26Z</time>
      </trkpt>
      <trkpt lat="44.39765" lon="7.02212">
        <ele>2349.48</ele>
        <time>2017-01-01T10:02:39Z</time>
      </trkpt>
      <trkpt lat="44.3983" lon="7.0209">
        <ele>2345.18</ele>
        <time>2017-01-01T10:02:45Z</time>
      </trkpt>
      <trkpt lat="44.39903" lon="7.02065">
        <ele>2342.58</ele>
        <time>2017-01-01T10:02:49Z</time>
      </trkpt>
      <trkpt lat="44.39963" lon="7.01861">
        <ele>2334.21</ele>
        <time>2017-01-01T10:02:57Z</time>
      </trkpt>
      <trkpt lat="44.39948" lon="7.01759">
        <ele>2329.88</ele>
        <time>2017-01-01T10:03:01Z</time>
      </trkpt>
      <trkpt lat="44.40166" lon="7.0159">
        <ele>2311.2</ele>
        <time>2017-01-01T10:03:15Z</time>
      </trkpt>
      <trkpt lat="44.40345" lon="7.01567">
        <ele>2303.97</ele>
        <time>2017-01-01T10:03:25Z</time>
      </trkpt>
      <trkpt lat="44.40399" lon="7.0158">
        <ele>2304.68</ele>
        <time>2017-01-01T10:03:28Z</time>
      </trkpt>
      <trkpt lat="44.40421" lon="7.01604">
        <ele>2301.7</ele>
        <time>2017-01-01T10:03:29Z</time>
      </trkpt>
      <trkpt lat="44.40471" lon="7.01596">
        <ele>2300.13</ele>
        <time>2017-01-01T10:03:32Z</time>
      </trkpt>
      <trkpt lat="44.4048" lon="7.0151">
        <ele>2302.96</ele>
        <time>2017-01-01T10:03:36Z</time>
      </trkpt>
      <trkpt lat="44.40538" lon="7.01488">
        <ele>2299.79</ele>
        <time>2017-01-01T10:03:39Z</time>
      </trkpt>
      <trkpt lat="44.40589" lon="7.01427">
        <ele>2300.6</ele>
        <time>2017-01-01T10:03:43Z</time>
      </trkpt>
      <trkpt lat="44.40648" lon="7.01457">
        <ele>2304.11</ele>
        <time>2017-01-01T10:03:46Z</time>
      </trkpt>
      <trkpt lat="44.40652" lon="7.01474">
        <ele>2302.8</ele>
        <time>2017-01-01T10:03:47Z</time>
      </trkpt>
      <trkpt lat="44.40668" lon="7.0149">
        <ele>2302.4</ele>
        <time>2017-01-01T10:03:48Z</time>
      </trkpt>
      <trkpt lat="44.40694" lon="7.0159">
        <ele>2295.71</ele>
        <time>2017-01-01T10:03:52Z</time>
      </trkpt>
      <trkpt lat="44.40652" lon="7.01853">
        <ele>2293.42</ele>
        <time>2017-01-01T10:04:03Z</time>
      </trkpt>
      <trkpt lat="44.40684" lon="7.01962">
        <ele>2295.27</ele>
        <time>2017-01-01T10:04:07Z</time>
      </trkpt>
      <trkpt lat="44.40682" lon="7.02216">
        <ele>2282.46</ele>
        <time>2017-01-01T10:04:17Z</time>
      </trkpt>
      <trkpt lat="44.40557" lon="7.02758">
        <ele>2240.28</ele>
        <time>2017-01-01T10:04:39Z</time>
      </trkpt>
      <trkpt lat="44.40618" lon="7.03019">
        <ele>2220.15</ele>
        <time>2017-01-01T10:04:50Z</time>
      </trkpt>
      <trkpt lat="44.40567" lon="7.03012">
        <ele>2220.28</ele>
        <time>2017-01-01T10:04:53Z</time>
      </trkpt>
      <trkpt lat="44.40491" lon="7.03049">
        <ele>2212.27</ele>
        <time>2017-01-01T10:04:57Z</time>
      </trkpt>
      <trkpt lat="44.40409" lon="7.03057">
        <ele>2206.62</ele>
        <time>2017-01-01T10:05:02Z</time>
      </trkpt>
      <trkpt lat="44.40343" lon="7.03032">
        <ele>2199.54</ele>
        <time>2017-01-01T10:05:06Z</time>
      </trkpt>
      <trkpt lat="44.40247" lon="7.02983">
        <ele>2186.31</ele>
        <time>2017-01-01T10:05:11Z</time>
      </trkpt>
      <trkpt lat="44.40305" lon="7.03259">
        <ele>2168.2</ele>
        <time>2017-01-01T10:05:23Z</time>
      </trkpt>
      <trkpt lat="44.40235" lon="7.03417">
        <ele>2155.65</ele>
        <time>2017-01-01T10:05:30Z</time>
      </trkpt>
      <trkpt lat="44.40279" lon="7.03601">
        <ele>2137.32</ele>
        <time>2017-01-01T10:05:38Z</time>
      </trkpt>
      <trkpt lat="44.40248" lon="7.03732">
        <ele>2126.57</ele>
        <time>2017-01-01T10:05:43Z</time>
      </trkpt>
      <trkpt lat="44.40399" lon="7.03797">
        <ele>2116.08</ele>
        <time>2017-01-01T10:05:52Z</time>
      </trkpt>
      <trkpt lat="44.40361" lon="7.03836">
        <ele>2111.82</ele>
        <time>2017-01-01T10:05:54Z</time>
      </trkpt>
      <trkpt lat="44.40406" lon="7.03891">
        <ele>2107.65</ele>
        <time>2017-01-01T10:05:57Z</time>
      </trkpt>
      <trkpt lat="44.40429" lon="7.04107">
        <ele>2074.31</ele>
        <time>2017-01-01T10:06:06Z</time>
      </trkpt>
      <trkpt lat="44.40426" lon="7.04146">
        <ele>2072.8</ele>
        <time>2017-01-01T10:06:08Z</time>
      </trkpt>
      <trkpt lat="44.40445" lon="7.04161">
        <ele>2073.16</ele>
        <time>2017-01-01T10:06:09Z</time>
      </trkpt>
      <trkpt lat="44.40481" lon="7.04151">
        <ele>2069.54</ele>
        <time>2017-01-01T10:06:11Z</time>
      </trkpt>
      <trkpt lat="44.40505" lon="7.04112">
        <ele>2066.63</ele>
        <time>2017-01-01T10:06:13Z</time>
      </trkpt>
      <trkpt lat="44.40489" lon="7.04083">
        <ele>2064.77</ele>
        <time>2017-01-01T10:06:14Z</time>
      </trkpt>
      <trkpt lat="44.40555" lon="7.03913">
        <ele>2049.84</ele>
        <time>2017-01-01T10:06:22Z</time>
      </trkpt>
      <trkpt lat="44.40625" lon="7.03882">
        <ele>2035.7</ele>
        <time>2017-01-01T10:06:26Z</time>
      </trkpt>
      <trkpt lat="44.40715" lon="7.03741">
        <ele>2024.79</ele>
        <time>2017-01-01T10:06:33Z</time>
      </trkpt>
      <trkpt lat="44.40658" lon="7.03932">
        <ele>2001.56</ele>
        <time>2017-01-01T10:06:41Z</time>
      </trkpt>
      <trkpt lat="44.40722" lon="7.03844">
        <ele>1983.84</ele>
        <time>2017-01-01T10:06:46Z</time>
      </trkpt>
      <trkpt lat="44.40863" lon="7.03707">
        <ele>1953.66</ele>
        <time>2017-01-01T10:06:56Z</time>
      </trkpt>
      <trkpt lat="44.41077" lon="7.0351">
        <ele>1915.7</ele>
        <time>2017-01-01T10:07:10Z</time>
      </trkpt>
      <trkpt lat="44.41233" lon="7.03689">
        <ele>1892.54</ele>
        <time>2017-01-01T10:07:21Z</time>
      </trkpt>
      <trkpt lat="44.41223" lon="7.03707">
        <ele>1886.98</ele>
        <time>2017-01-01T10:07:22Z</time>
      </trkpt>
      <trkpt lat="44.41144" lon="7.03668">
        <ele>1880.64</ele>
        <time>2017-01-01T10:07:26Z</time>
      </trkpt>
      <trkpt lat="44.41077" lon="7.03684">
        <ele>1877.63</ele>
        <time>2017-01-01T10:07:30Z</time>
      </trkpt>
      <trkpt lat="44.4113" lon="7.03723">
        <ele>1868.62</ele>
        <time>2017-01-01T10:07:33Z</time>
      </trkpt>
      <trkpt lat="44.41056" lon="7.03769">
        <ele>1861.65</ele>
        <time>2017-01-01T10:07:38Z</time>
      </trkpt>
      <trkpt lat="44.41188" lon="7.03856">
        <ele>1841.95</ele>
        <time>2017-01-01T10:07:46Z</time>
      </trkpt>
      <trkpt lat="44.41298" lon="7.04041">
        <ele>1819.08</ele>
        <time>2017-01-01T10:07:55Z</time>
      </trkpt>
      <trkpt lat="44.41427" lon="7.04114">
        <ele>1800.72</ele>
        <time>2017-01-01T10:08:03Z</time>
      </trkpt>
      <trkpt lat="44.41572" lon="7.04226">
        <ele>1774.49</ele>
        <time>2017-01-01T10:08:12Z</time>
      </trkpt>
      <trkpt lat="44.41775" lon="7.04301">
        <ele>1749.38</ele>
        <time>2017-01-01T10:08:23Z</time>
      </trkpt>
      <trkpt lat="44.41931" lon="7.04426">
        <ele>1727.5</ele>
        <time>2017-01-01T10:08:33Z</time>
      </trkpt>
      <trkpt lat="44.42112" lon="7.04522">
        <ele>1710.08</ele>
        <time>2017-01-01T10:08:44Z</time>
      </trkpt>
      <trkpt lat="44.42152" lon="7.04612">
        <ele>1700.68</ele>
        <time>2017-01-01T10:08:48Z</time>
      </trkpt>
      <trkpt lat="44.4207" lon="7.04563">
        <ele>1694.05</ele>
        <time>2017-01-01T10:08:53Z</time>
      </trkpt>
      <trkpt lat="44.41984" lon="7.04617">
        <ele>1678.83</ele>
        <time>2017-01-01T10:08:58Z</time>
      </trkpt>
      <trkpt lat="44.4223" lon="7.04959">
        <ele>1658.15</ele>
        <time>2017-01-01T10:09:17Z</time>
      </trkpt>
      <trkpt lat="44.42364" lon="7.05087">
        <ele>1637.45</ele>
        <time>2017-01-01T10:09:26Z</time>
      </trkpt>
      <trkpt lat="44.42693" lon="7.05211">
        <ele>1600.04</ele>
        <time>2017-01-01T10:09:44Z</time>
      </trkpt>
      <trkpt lat="44.42777" lon="7.05354">
        <ele>1586.83</ele>
        <time>2017-01-01T10:09:52Z</time>
      </trkpt>
      <trkpt lat="44.43366" lon="7.05451">
        <ele>1549.29</ele>
        <time>2017-01-01T10:10:24Z</time>
      </trkpt>
      <trkpt lat="44.43427" lon="7.055">
        <ele>1542.09</ele>
        <time>2017-01-01T10:10:28Z</time>
      </trkpt>
      <trkpt lat="44.43573" lon="7.05693">
        <ele>1530.5</ele>
        <time>2017-01-01T10:10:39Z</time>
      </trkpt>
      <trkpt lat="44.43712" lon="7.05735">
        <ele>1515.55</ele>
        <time>2017-01-01T10:10:47Z</time>
      </trkpt>
      <trkpt lat="44.43841" lon="7.05684">
        <ele>1508.33</ele>
        <time>2017-01-01T10:10:54Z</time>
      </trkpt>
      <trkpt lat="44.4394" lon="7.05771">
        <ele>1494.2</ele>
        <time>2017-01-01T10:11:01Z</time>
      </trkpt>
      <trkpt lat="44.43892" lon="7.05754">
        <ele>1488.05</ele>
        <time>2017-01-01T10:11:03Z</time>
      </trkpt>
      <trkpt lat="44.43859" lon="7.05772">
        <ele>1484.96</ele>
        <time>2017-01-01T10:11:05Z</time>
      </trkpt>
      <trkpt lat="44.4397" lon="7.05921">
        <ele>1477.27</ele>
        <time>2017-01-01T10:11:14Z</time>
      </trkpt>
      <trkpt lat="44.44146" lon="7.05975">
        <ele>1475.01</ele>
        <time>2017-01-01T10:11:24Z</time>
      </trkpt>
      <trkpt lat="44.44253" lon="7.06116">
        <ele>1443.62</ele>
        <time>2017-01-01T10:11:32Z</time>
      </trkpt>
      <trkpt lat="44.44247" lon="7.06287">
        <ele>1429.55</ele>
        <time>2017-01-01T10:11:38Z</time>
      </trkpt>
      <trkpt lat="44.44713" lon="7.06769">
        <ele>1352.31</ele>
        <time>2017-01-01T10:12:10Z</time>
      </trkpt>
      <trkpt lat="44.45008" lon="7.07056">
        <ele>1316.38</ele>
        <time>2017-01-01T10:12:30Z</time>
      </trkpt>
      <trkpt lat="44.45083" lon="7.07126">
        <ele>1311.16</ele>
        <time>2017-01-01T10:12:35Z</time>
      </trkpt>
      <trkpt lat="44.45081" lon="7.07243">
        <ele>1295.31</ele>
        <time>2017-01-01T10:12:39Z</time>
      </trkpt>
      <trkpt lat="44.45298" lon="7.07751">
        <ele>1258.81</ele>
        <time>2017-01-01T10:13:02Z</time>
      </trkpt>
      <trkpt lat="44.45514" lon="7.08144">
        <ele>1236.46</ele>
        <time>2017-01-01T10:13:22Z</time>
      </trkpt>
      <trkpt lat="44.45495" lon="7.08247">
        <ele>1231.42</ele>
        <time>2017-01-01T10:13:26Z</time>
      </trkpt>
      <trkpt lat="44.45441" lon="7.0831">
        <ele>1232.34</ele>
        <time>2017-01-01T10:13:30Z</time>
      </trkpt>
      <trkpt lat="44.45469" lon="7.08543">
        <ele>1219.32</ele>
        <time>2017-01-01T10:13:39Z</time>
      </trkpt>
      <trkpt lat="44.45672" lon="7.09052">
        <ele>1199.55</ele>
        <time>2017-01-01T10:14:02Z</time>
      </trkpt>
      <trkpt lat="44.45694" lon="7.09215">
        <ele>1195.88</ele>
        <time>2017-01-01T10:14:08Z</time>
      </trkpt>
      <trkpt lat="44.45764" lon="7.09253">
        <ele>1193.47</ele>
        <time>2017-01-01T10:14:13Z</time>
      </trkpt>
      <trkpt lat="44.45925" lon="7.09133">
        <ele>1175.59</ele>
        <time>2017-01-01T10:14:23Z</time>
      </trkpt>
      <trkpt lat="44.46003" lon="7.09147">
        <ele>1166.99</ele>
        <time>2017-01-01T10:14:27Z</time>
      </trkpt>
      <trkpt lat="44.46205" lon="7.09282">
        <ele>1154.11</ele>
        <time>2017-01-01T10:14:39Z</time>
      </trkpt>
      <trkpt lat="44.46345" lon="7.09318">
        <ele>1145.53</ele>
        <time>2017-01-01T10:14:47Z</time>
      </trkpt>
      <trkpt lat="44.46504" lon="7.0927">
        <ele>1129.19</ele>
        <time>2017-01-01T10:14:56Z</time>
      </trkpt>
      <trkpt lat="44.46662" lon="7.09195">
        <ele>1120.14</ele>
        <time>2017-01-01T10:15:05Z</time>
      </trkpt>
      <trkpt lat="44.46898" lon="7.09351">
        <ele>1090.27</ele>
        <time>2017-01-01T10:15:19Z</time>
      </trkpt>
      <trkpt lat="44.47136" lon="7.09454">
        <ele>1064.43</ele>
        <time>2017-01-01T10:15:33Z</time>
      </trkpt>
      <trkpt lat="44.47285" lon="7.09494">
        <ele>1052.91</ele>
        <time>2017-01-01T10:15:41Z</time>
      </trkpt>
      <trkpt lat="44.47393" lon="7.09431">
        <ele>1049.88</ele>
        <time>2017-01-01T10:15:48Z</time>
      </trkpt>
      <trkpt lat="44.4764" lon="7.09551">
        <ele>1030.49</ele>
        <time>2017-01-01T10:16:02Z</time>
      </trkpt>
      <trkpt lat="44.47829" lon="7.09509">
        <ele>1025.81</ele>
        <time>2017-01-01T10:16:12Z</time>
      </trkpt>
      <trkpt lat="44.48037" lon="7.09508">
        <ele>1021.1</ele>
        <time>2017-01-01T10:16:24Z</time>
      </trkpt>
      <trkpt lat="44.48189" lon="7.09367">
        <ele>1008.12</ele>
        <time>2017-01-01T10:16:34Z</time>
      </trkpt>
      <trkpt lat="44.48381" lon="7.09452">
        <ele>987.63</ele>
        <time>2017-01-01T10:16:45Z</time>
      </trkpt>
      <trkpt lat="44.48461" lon="7.09449">
        <ele>975.89</ele>
        <time>2017-01-01T10:16:49Z</time>
      </trkpt>
      <trkpt lat="44.48623" lon="7.09349">
        <ele>960.7</ele>
        <time>2017-01-01T10:16:59Z</time>
      </trkpt>
      <trkpt lat="44.48803" lon="7.09391">
        <ele>951.89</ele>
        <time>2017-01-01T10:17:09Z</time>
      </trkpt>
      <trkpt lat="44.48945" lon="7.09328">
        <ele>944.43</ele>
        <time>2017-01-01T10:17:17Z</time>
      </trkpt>
      <trkpt lat="44.49226" lon="7.09646">
        <ele>937.47</ele>
        <time>2017-01-01T10:17:37Z</time>
      </trkpt>
      <trkpt lat="44.493" lon="7.09809">
        <ele>932.94</ele>
        <time>2017-01-01T10:17:44Z</time>
      </trkpt>
      <trkpt lat="44.49395" lon="7.09824">
        <ele>941.38</ele>
        <time>2017-01-01T10:17:50Z</time>
      </trkpt>
      <trkpt lat="44.49449" lon="7.09974">
        <ele>928.56</ele>
        <time>2017-01-01T10:17:56Z</time>
      </trkpt>
      <trkpt lat="44.49445" lon="7.10107">
        <ele>925.9</ele>
        <time>2017-01-01T10:18:01Z</time>
      </trkpt>
      <trkpt lat="44.49575" lon="7.10387">
        <ele>918.11</ele>
        <time>2017-01-01T10:18:15Z</time>
      </trkpt>
      <trkpt lat="44.4967" lon="7.10675">
        <ele>927.93</ele>
        <time>2017-01-01T10:18:27Z</time>
      </trkpt>
      <trkpt lat="44.49872" lon="7.11319">
        <ele>922.31</ele>
        <time>2017-01-01T10:18:54Z</time>
      </trkpt>
      <trkpt lat="44.50055" lon="7.11945">
        <ele>923.5</ele>
        <time>2017-01-01T10:19:21Z</time>
      </trkpt>
      <trkpt lat="44.50208" lon="7.12211">
        <ele>909.89</ele>
        <time>2017-01-01T10:19:34Z</time>
      </trkpt>
      <trkpt lat="44.5041" lon="7.12254">
        <ele>916.92</ele>
        <time>2017-01-01T10:19:45Z</time>
      </trkpt>
      <trkpt lat="44.50245" lon="7.12469">
        <ele>924.52</ele>
        <time>2017-01-01T10:19:58Z</time>
      </trkpt>
      <trkpt lat="44.50334" lon="7.13005">
        <ele>936.31</ele>
        <time>2017-01-01T10:20:19Z</time>
      </trkpt>
      <trkpt lat="44.50312" lon="7.13456">
        <ele>938.47</ele>
        <time>2017-01-01T10:20:37Z</time>
      </trkpt>
      <trkpt lat="44.50389" lon="7.13143">
        <ele>974.99</ele>
        <time>2017-01-01T10:20:50Z</time>
      </trkpt>
      <trkpt lat="44.50468" lon="7.12722">
        <ele>1000.77</ele>
        <time>2017-01-01T10:21:07Z</time>
      </trkpt>
      <trkpt lat="44.50416" lon="7.12533">
        <ele>1017.21</ele>
        <time>2017-01-01T10:21:15Z</time>
      </trkpt>
      <trkpt lat="44.50612" lon="7.12464">
        <ele>1034.44</ele>
        <time>2017-01-01T10:21:26Z</time>
      </trkpt>
      <trkpt lat="44.50811" lon="7.12409">
        <ele>1054.72</ele>
        <time>2017-01-01T10:21:37Z</time>
      </trkpt>
      <trkpt lat="44.50597" lon="7.12598">
        <ele>1085.05</ele>
        <time>2017-01-01T10:21:51Z</time>
      </trkpt>
      <trkpt lat="44.50787" lon="7.1261">
        <ele>1099.26</ele>
        <time>2017-01-01T10:22:01Z</time>
      </trkpt>
      <trkpt lat="44.50903" lon="7.12533">
        <ele>1115.94</ele>
        <time>2017-01-01T10:22:08Z</time>
      </trkpt>
      <trkpt lat="44.51129" lon="7.12602">
        <ele>1137.66</ele>
        <time>2017-01-01T10:22:21Z</time>
      </trkpt>
      <trkpt lat="44.5135" lon="7.12619">
        <ele>1169.86</ele>
        <time>2017-01-01T10:22:33Z</time>
      </trkpt>
      <trkpt lat="44.51053" lon="7.12726">
        <ele>1202.58</ele>
        <time>2017-01-01T10:22:50Z</time>
      </trkpt>
      <trkpt lat="44.50842" lon="7.12898">
        <ele>1234.56</ele>
        <time>2017-01-01T10:23:03Z</time>
      </trkpt>
      <trkpt lat="44.51007" lon="7.12907">
        <ele>1256.36</ele>
        <time>2017-01-01T10:23:12Z</time>
      </trkpt>
      <trkpt lat="44.51062" lon="7.12829">
        <ele>1252.13</ele>
        <time>2017-01-01T10:23:17Z</time>
      </trkpt>
      <trkpt lat="44.51506" lon="7.12967">
        <ele>1310.65</ele>
        <time>2017-01-01T10:23:42Z</time>
      </trkpt>
      <trkpt lat="44.51591" lon="7.12967">
        <ele>1326.94</ele>
        <time>2017-01-01T10:23:46Z</time>
      </trkpt>
      <trkpt lat="44.51689" lon="7.12872">
        <ele>1335.96</ele>
        <time>2017-01-01T10:23:53Z</time>
      </trkpt>
      <trkpt lat="44.52105" lon="7.12855">
        <ele>1378.94</ele>
        <time>2017-01-01T10:24:16Z</time>
      </trkpt>
      <trkpt lat="44.5202" lon="7.1252">
        <ele>1369.26</ele>
        <time>2017-01-01T10:24:29Z</time>
      </trkpt>
      <trkpt lat="44.52103" lon="7.12426">
        <ele>1371.29</ele>
        <time>2017-01-01T10:24:35Z</time>
      </trkpt>
      <trkpt lat="44.52225" lon="7.12426">
        <ele>1367.17</ele>
        <time>2017-01-01T10:24:42Z</time>
      </trkpt>
      <trkpt lat="44.52075" lon="7.12095">
        <ele>1384.49</ele>
        <time>2017-01-01T10:24:57Z</time>
      </trkpt>
      <trkpt lat="44.51843" lon="7.12018">
        <ele>1390.59</ele>
        <time>2017-01-01T10:25:10Z</time>
      </trkpt>
      <trkpt lat="44.52044" lon="7.11619">
        <ele>1406.16</ele>
        <time>2017-01-01T10:25:30Z</time>
      </trkpt>
      <trkpt lat="44.51965" lon="7.1155">
        <ele>1397.71</ele>
        <time>2017-01-01T10:25:35Z</time>
      </trkpt>
      <trkpt lat="44.51656" lon="7.11585">
        <ele>1409.02</ele>
        <time>2017-01-01T10:25:52Z</time>
      </trkpt>
      <trkpt lat="44.51622" lon="7.11417">
        <ele>1407.22</ele>
        <time>2017-01-01T10:25:58Z</time>
      </trkpt>
      <trkpt lat="44.51433" lon="7.11598">
        <ele>1419.09</ele>
        <time>2017-01-01T10:26:11Z</time>
      </trkpt>
      <trkpt lat="44.51326" lon="7.11224">
        <ele>1440.86</ele>
        <time>2017-01-01T10:26:27Z</time>
      </trkpt>
      <trkpt lat="44.50818" lon="7.11456">
        <ele>1457.52</ele>
        <time>2017-01-01T10:26:56Z</time>
      </trkpt>
      <trkpt lat="44.50671" lon="7.11031">
        <ele>1458.21</ele>
        <time>2017-01-01T10:27:14Z</time>
      </trkpt>
      <trkpt lat="44.50705" lon="7.10808">
        <ele>1472.94</ele>
        <time>2017-01-01T10:27:23Z</time>
      </trkpt>
      <trkpt lat="44.50778" lon="7.10538">
        <ele>1501.75</ele>
        <time>2017-01-01T10:27:35Z</time>
      </trkpt>
      <trkpt lat="44.50873" lon="7.10752">
        <ele>1522.7</ele>
        <time>2017-01-01T10:27:45Z</time>
      </trkpt>
      <trkpt lat="44.50922" lon="7.11138">
        <ele>1552.8</ele>
        <time>2017-01-01T10:28:00Z</time>
      </trkpt>
      <trkpt lat="44.51114" lon="7.11044">
        <ele>1573.09</ele>
        <time>2017-01-01T10:28:11Z</time>
      </trkpt>
      <trkpt lat="44.50986" lon="7.11044">
        <ele>1590.34</ele>
        <time>2017-01-01T10:28:18Z</time>
      </trkpt>
      <trkpt lat="44.51332" lon="7.10756">
        <ele>1638.11</ele>
        <time>2017-01-01T10:28:40Z</time>
      </trkpt>
      <trkpt lat="44.51833" lon="7.10864">
        <ele>1692.15</ele>
        <time>2017-01-01T10:29:08Z</time>
      </trkpt>
      <trkpt lat="44.51537" lon="7.10538">
        <ele>1729.58</ele>
        <time>2017-01-01T10:29:29Z</time>
      </trkpt>
      <trkpt lat="44.51779" lon="7.10636">
        <ele>1763.93</ele>
        <time>2017-01-01T10:29:42Z</time>
      </trkpt>
      <trkpt lat="44.51693" lon="7.10417">
        <ele>1805.57</ele>
        <time>2017-01-01T10:29:52Z</time>
      </trkpt>
      <trkpt lat="44.5184" lon="7.10477">
        <ele>1822.76</ele>
        <time>2017-01-01T10:30:01Z</time>
      </trkpt>
      <trkpt lat="44.52036" lon="7.10529">
        <ele>1848.53</ele>
        <time>2017-01-01T10:30:11Z</time>
      </trkpt>
      <trkpt lat="44.52326" lon="7.10653">
        <ele>1882.52</ele>
        <time>2017-01-01T10:30:28Z</time>
      </trkpt>
      <trkpt lat="44.52299" lon="7.10525">
        <ele>1893.28</ele>
        <time>2017-01-01T10:30:33Z</time>
      </trkpt>
      <trkpt lat="44.52552" lon="7.10237">
        <ele>1931.31</ele>
        <time>2017-01-01T10:30:51Z</time>
      </trkpt>
      <trkpt lat="44.5295" lon="7.10671">
        <ele>1907.96</ele>
        <time>2017-01-01T10:31:19Z</time>
      </trkpt>
      <trkpt lat="44.53231" lon="7.10675">
        <ele>1870.94</ele>
        <time>2017-01-01T10:31:34Z</time>
      </trkpt>
      <trkpt lat="44.5328" lon="7.10722">
        <ele>1869.96</ele>
        <time>2017-01-01T10:31:38Z</time>
      </trkpt>
      <trkpt lat="44.53403" lon="7.10559">
        <ele>1847.76</ele>
        <time>2017-01-01T10:31:47Z</time>
      </trkpt>
      <trkpt lat="44.53549" lon="7.10435">
        <ele>1822.94</ele>
        <time>2017-01-01T10:31:56Z</time>
      </trkpt>
      <trkpt lat="44.53699" lon="7.09804">
        <ele>1774.29</ele>
        <time>2017-01-01T10:32:22Z</time>
      </trkpt>
      <trkpt lat="44.54124" lon="7.09954">
        <ele>1733.52</ele>
        <time>2017-01-01T10:32:46Z</time>
      </trkpt>
      <trkpt lat="44.54154" lon="7.09622">
        <ele>1703.75</ele>
        <time>2017-01-01T10:32:59Z</time>
      </trkpt>
      <trkpt lat="44.5414" lon="7.09424">
        <ele>1710.6</ele>
        <time>2017-01-01T10:33:07Z</time>
      </trkpt>
      <trkpt lat="44.5412" lon="7.09301">
        <ele>1707.95</ele>
        <time>2017-01-01T10:33:12Z</time>
      </trkpt>
      <trkpt lat="44.54173" lon="7.09229">
        <ele>1708.07</ele>
        <time>2017-01-01T10:33:16Z</time>
      </trkpt>
      <trkpt lat="44.54339" lon="7.09162">
        <ele>1715.54</ele>
        <time>2017-01-01T10:33:25Z</time>
      </trkpt>
      <trkpt lat="44.54367" lon="7.09041">
        <ele>1714.9</ele>
        <time>2017-01-01T10:33:30Z</time>
      </trkpt>
      <trkpt lat="44.54453" lon="7.08932">
        <ele>1718.87</ele>
        <time>2017-01-01T10:33:37Z</time>
      </trkpt>
      <trkpt lat="44.5446" lon="7.08572">
        <ele>1710.47</ele>
        <time>2017-01-01T10:33:51Z</time>
      </trkpt>
      <trkpt lat="44.54516" lon="7.08382">
        <ele>1710.58</ele>
        <time>2017-01-01T10:33:59Z</time>
      </trkpt>
      <trkpt lat="44.54535" lon="7.08363">
        <ele>1713.62</ele>
        <time>2017-01-01T10:34:00Z</time>
      </trkpt>
      <trkpt lat="44.54632" lon="7.08309">
        <ele>1724.85</ele>
        <time>2017-01-01T10:34:06Z</time>
      </trkpt>
      <trkpt lat="44.5465" lon="7.08234">
        <ele>1725.6</ele>
        <time>2017-01-01T10:34:09Z</time>
      </trkpt>
      <trkpt lat="44.54916" lon="7.07851">
        <ele>1765.11</ele>
        <time>2017-01-01T10:34:30Z</time>
      </trkpt>
      <trkpt lat="44.55265" lon="7.07807">
        <ele>1803.87</ele>
        <time>2017-01-01T10:34:49Z</time>
      </trkpt>
      <trkpt lat="44.55257" lon="7.07831">
        <ele>1811.74</ele>
        <time>2017-01-01T10:34:50Z</time>
      </trkpt>
      <trkpt lat="44.55105" lon="7.07928">
        <ele>1824.9</ele>
        <time>2017-01-01T10:34:59Z</time>
      </trkpt>
      <trkpt lat="44.55052" lon="7.08031">
        <ele>1834.69</ele>
        <time>2017-01-01T10:35:04Z</time>
      </trkpt>
      <trkpt lat="44.5513" lon="7.07997">
        <ele>1848.25</ele>
        <time>2017-01-01T10:35:09Z</time>
      </trkpt>
      <trkpt lat="44.55243" lon="7.0798">
        <ele>1857.14</ele>
        <time>2017-01-01T10:35:15Z</time>
      </trkpt>
      <trkpt lat="44.55279" lon="7.07941">
        <ele>1858.9</ele>
        <time>2017-01-01T10:35:17Z</time>
      </trkpt>
      <trkpt lat="44.55273" lon="7.07992">
        <ele>1863.6</ele>
        <time>2017-01-01T10:35:19Z</time>
      </trkpt>
      <trkpt lat="44.55217" lon="7.08049">
        <ele>1872.69</ele>
        <time>2017-01-01T10:35:23Z</time>
      </trkpt>
      <trkpt lat="44.55203" lon="7.08102">
        <ele>1876.48</ele>
        <time>2017-01-01T10:35:25Z</time>
      </trkpt>
      <trkpt lat="44.55267" lon="7.08111">
        <ele>1887.16</ele>
        <time>2017-01-01T10:35:29Z</time>
      </trkpt>
      <trkpt lat="44.55323" lon="7.08164">
        <ele>1897.83</ele>
        <time>2017-01-01T10:35:33Z</time>
      </trkpt>
      <trkpt lat="44.55299" lon="7.08217">
        <ele>1903.95</ele>
        <time>2017-01-01T10:35:35Z</time>
      </trkpt>
      <trkpt lat="44.55335" lon="7.08317">
        <ele>1916.73</ele>
        <time>2017-01-01T10:35:39Z</time>
      </trkpt>
      <trkpt lat="44.5527" lon="7.08339">
        <ele>1929.31</ele>
        <time>2017-01-01T10:35:43Z</time>
      </trkpt>
      <trkpt lat="44.55171" lon="7.0833">
        <ele>1943.89</ele>
        <time>2017-01-01T10:35:48Z</time>
      </trkpt>
      <trkpt lat="44.55117" lon="7.08459">
        <ele>1958.63</ele>
        <time>2017-01-01T10:35:54Z</time>
      </trkpt>
      <trkpt lat="44.55111" lon="7.08603">
        <ele>1970.48</ele>
        <time>2017-01-01T10:36:00Z</time>
      </trkpt>
      <trkpt lat="44.55175" lon="7.08529">
        <ele>1986.36</ele>
        <time>2017-01-01T10:36:05Z</time>
      </trkpt>
      <trkpt lat="44.55193" lon="7.08585">
        <ele>1993.41</ele>
        <time>2017-01-01T10:36:07Z</time>
      </trkpt>
      <trkpt lat="44.55244" lon="7.085">
        <ele>2001.96</ele>
        <time>2017-01-01T10:36:11Z</time>
      </trkpt>
      <trkpt lat="44.55254" lon="7.08553">
        <ele>2013.08</ele>
        <time>2017-01-01T10:36:13Z</time>
      </trkpt>
      <trkpt lat="44.55339" lon="7.08647">
        <ele>2029.71</ele>
        <time>2017-01-01T10:36:19Z</time>
      </trkpt>
      <trkpt lat="44.55366" lon="7.0859">
        <ele>2034.64</ele>
        <time>2017-01-01T10:36:22Z</time>
      </trkpt>
      <trkpt lat="44.55407" lon="7.08611">
        <ele>2042.16</ele>
        <time>2017-01-01T10:36:24Z</time>
      </trkpt>
      <trkpt lat="44.55475" lon="7.08716">
        <ele>2060.01</ele>
        <time>2017-01-01T10:36:30Z</time>
      </trkpt>
      <trkpt lat="44.55648" lon="7.0869">
        <ele>2086.4</ele>
        <time>2017-01-01T10:36:39Z</time>
      </trkpt>
      <trkpt lat="44.55783" lon="7.08553">
        <ele>2114.54</ele>
        <time>2017-01-01T10:36:49Z</time>
      </trkpt>
      <trkpt lat="44.55791" lon="7.08489">
        <ele>2120.63</ele>
        <time>2017-01-01T10:36:51Z</time>
      </trkpt>
      <trkpt lat="44.55808" lon="7.08577">
        <ele>2126.21</ele>
        <time>2017-01-01T10:36:55Z</time>
      </trkpt>
      <trkpt lat="44.55808" lon="7.08742">
        <ele>2138.18</ele>
        <time>2017-01-01T10:37:01Z</time>
      </trkpt>
      <trkpt lat="44.55737" lon="7.08843">
        <ele>2147.22</ele>
        <time>2017-01-01T10:37:07Z</time>
      </trkpt>
      <trkpt lat="44.55604" lon="7.08988">
        <ele>2165.6</ele>
        <time>2017-01-01T10:37:16Z</time>
      </trkpt>
      <trkpt lat="44.55684" lon="7.09025">
        <ele>2182.3</ele>
        <time>2017-01-01T10:37:20Z</time>
      </trkpt>
      <trkpt lat="44.55908" lon="7.08928">
        <ele>2211.09</ele>
        <time>2017-01-01T10:37:33Z</time>
      </trkpt>
      <trkpt lat="44.55815" lon="7.09038">
        <ele>2220.03</ele>
        <time>2017-01-01T10:37:40Z</time>
      </trkpt>
      <trkpt lat="44.55955" lon="7.09006">
        <ele>2244.39</ele>
        <time>2017-01-01T10:37:48Z</time>
      </trkpt>
      <trkpt lat="44.55871" lon="7.09051">
        <ele>2238.68</ele>
        <time>2017-01-01T10:37:53Z</time>
      </trkpt>
      <trkpt lat="44.55814" lon="7.09167">
        <ele>2240.37</ele>
        <time>2017-01-01T10:37:58Z</time>
      </trkpt>
      <trkpt lat="44.55743" lon="7.09177">
        <ele>2236.19</ele>
        <time>2017-01-01T10:38:02Z</time>
      </trkpt>
      <trkpt lat="44.55746" lon="7.09279">
        <ele>2238.48</ele>
        <time>2017-01-01T10:38:06Z</time>
      </trkpt>
      <trkpt lat="44.55693" lon="7.09452">
        <ele>2239.31</ele>
        <time>2017-01-01T10:38:13Z</time>
      </trkpt>
      <trkpt lat="44.55622" lon="7.09569">
        <ele>2240.62</ele>
        <time>2017-01-01T10:38:19Z</time>
      </trkpt>
      <trkpt lat="44.55588" lon="7.09653">
        <ele>2242.4</ele>
        <time>2017-01-01T10:38:23Z</time>
      </trkpt>
      <trkpt lat="44.5558" lon="7.09804">
        <ele>2241.21</ele>
        <time>2017-01-01T10:38:29Z</time>
      </trkpt>
      <trkpt lat="44.55557" lon="7.09954">
        <ele>2243.96</ele>
        <time>2017-01-01T10:38:35Z</time>
      </trkpt>
      <trkpt lat="44.5559" lon="7.10014">
        <ele>2248.99</ele>
        <time>2017-01-01T10:38:38Z</time>
      </trkpt>
      <trkpt lat="44.5557" lon="7.10108">
        <ele>2251.47</ele>
        <time>2017-01-01T10:38:42Z</time>
      </trkpt>
      <trkpt lat="44.55501" lon="7.10267">
        <ele>2258.15</ele>
        <time>2017-01-01T10:38:49Z</time>
      </trkpt>
      <trkpt lat="44.55416" lon="7.10425">
        <ele>2258.76</ele>
        <time>2017-01-01T10:38:57Z</time>
      </trkpt>
      <trkpt lat="44.55467" lon="7.10515">
        <ele>2268.63</ele>
        <time>2017-01-01T10:39:02Z</time>
      </trkpt>
      <trkpt lat="44.55378" lon="7.10637">
        <ele>2261.26</ele>
        <time>2017-01-01T10:39:08Z</time>
      </trkpt>
      <trkpt lat="44.5535" lon="7.10864">
        <ele>2263.79</ele>
        <time>2017-01-01T10:39:17Z</time>
      </trkpt>
      <trkpt lat="44.55356" lon="7.11055">
        <ele>2265.15</ele>
        <time>2017-01-01T10:39:25Z</time>
      </trkpt>
      <trkpt lat="44.55284" lon="7.11234">
        <ele>2268.72</ele>
        <time>2017-01-01T10:39:33Z</time>
      </trkpt>
      <trkpt lat="44.55202" lon="7.11501">
        <ele>2275.39</ele>
        <time>2017-01-01T10:39:44Z</time>
      </trkpt>
      <trkpt lat="44.55185" lon="7.11653">
        <ele>2281.31</ele>
        <time>2017-01-01T10:39:50Z</time>
      </trkpt>
      <trkpt lat="44.55215" lon="7.11799">
        <ele>2281.19</ele>
        <time>2017-01-01T10:39:56Z</time>
      </trkpt>
      <trkpt lat="44.55117" lon="7.11904">
        <ele>2281.24</ele>
        <time>2017-01-01T10:40:03Z</time>
      </trkpt>
      <trkpt lat="44.55114" lon="7.11926">
        <ele>2281.89</ele>
        <time>2017-01-01T10:40:04Z</time>
      </trkpt>
      <trkpt lat="44.55096" lon="7.11958">
        <ele>2282.28</ele>
        <time>2017-01-01T10:40:05Z</time>
      </trkpt>
      <trkpt lat="44.55096" lon="7.11958">
        <ele>2282.28</ele>
        <time>2017-01-01T10:40:05Z</time>
      </trkpt>
      <trkpt lat="44.55076" lon="7.12146">
        <ele>2280.3</ele>
      </trkpt>
      <trkpt lat="44.55133" lon="7.12306">
        <ele>2264.9</ele>
      </trkpt>
      <trkpt lat="44.55181" lon="7.12486">
        <ele>2242.8</ele>
      </trkpt>
      <trkpt lat="44.55077" lon="7.12676">
        <ele>2228</ele>
      </trkpt>
      <trkpt lat="44.54902" lon="7.12688">
        <ele>2238</ele>
      </trkpt>
      <trkpt lat="44.54795" lon="7.12929">
        <ele>2193.6</ele>
      </trkpt>
      <trkpt lat="44.54759" lon="7.13174">
        <ele>2181.4</ele>
      </trkpt>
      <trkpt lat="44.54748" lon="7.13169">
        <ele>2191.3</ele>
      </trkpt>
      <trkpt lat="44.5475" lon="7.13174">
        <ele>2184.3</ele>
      </trkpt>
      <trkpt lat="44.54769" lon="7.13197">
        <ele>2174.1</ele>
      </trkpt>
      <trkpt lat="44.54772" lon="7.13217">
        <ele>2173.1</ele>
      </trkpt>
      <trkpt lat="44.54772" lon="7.13236">
        <ele>2174.2</ele>
      </trkpt>
      <trkpt lat="44.54782" lon="7.13257">
        <ele>2168.4</ele>
      </trkpt>
      <trkpt lat="44.54782" lon="7.13285">
        <ele>2166.5</ele>
      </trkpt>
      <trkpt lat="44.54774" lon="7.13341">
        <ele>2164.4</ele>
      </trkpt>
      <trkpt lat="44.54769" lon="7.1341">
        <ele>2163.7</ele>
      </trkpt>
      <trkpt lat="44.54769" lon="7.13496">
        <ele>2160.3</ele>
      </trkpt>
      <trkpt lat="44.54774" lon="7.13528">
        <ele>2156.7</ele>
      </trkpt>
      <trkpt lat="44.54789" lon="7.13575">
        <ele>2154.2</ele>
      </trkpt>
      <trkpt lat="44.54845" lon="7.13639">
        <ele>2141.5</ele>
      </trkpt>
      <trkpt lat="44.5486" lon="7.13646">
        <ele>2140.6</ele>
      </trkpt>
      <trkpt lat="44.54905" lon="7.1365">
        <ele>2136.1</ele>
      </trkpt>
      <trkpt lat="44.5492" lon="7.13656">
        <ele>2129.6</ele>
      </trkpt>
      <trkpt lat="44.54928" lon="7.13671">
        <ele>2130.8</ele>
      </trkpt>
      <trkpt lat="44.54935" lon="7.13708">
        <ele>2130.3</ele>
      </trkpt>
      <trkpt lat="44.54948" lon="7.13725">
        <ele>2130.1</ele>
      </trkpt>
      <trkpt lat="44.54967" lon="7.13738">
        <ele>2127.7</ele>
      </trkpt>
      <trkpt lat="44.55018" lon="7.13736">
        <ele>2112</ele>
      </trkpt>
      <trkpt lat="44.55033" lon="7.1374">
        <ele>2108.7</ele>
      </trkpt>
      <trkpt lat="44.55053" lon="7.13764">
        <ele>2110.2</ele>
      </trkpt>
      <trkpt lat="44.55081" lon="7.13862">
        <ele>2117.2</ele>
      </trkpt>
      <trkpt lat="44.55132" lon="7.13965">
        <ele>2096.7</ele>
      </trkpt>
      <trkpt lat="44.55136" lon="7.14021">
        <ele>2099.3</ele>
      </trkpt>
      <trkpt lat="44.5513" lon="7.14053">
        <ele>2101.7</ele>
      </trkpt>
      <trkpt lat="44.55134" lon="7.14068">
        <ele>2100.8</ele>
      </trkpt>
      <trkpt lat="44.55169" lon="7.14088">
        <ele>2089.6</ele>
      </trkpt>
      <trkpt lat="44.55231" lon="7.14099">
        <ele>2083.4</ele>
      </trkpt>
      <trkpt lat="44.55244" lon="7.14107">
        <ele>2083.2</ele>
      </trkpt>
      <trkpt lat="44.55291" lon="7.14163">
        <ele>2073.8</ele>
      </trkpt>
      <trkpt lat="44.55329" lon="7.14184">
        <ele>2075</ele>
      </trkpt>
      <trkpt lat="44.5536" lon="7.14221">
        <ele>2065.4</ele>
      </trkpt>
      <trkpt lat="44.55372" lon="7.14242">
        <ele>2064.5</ele>
      </trkpt>
      <trkpt lat="44.55375" lon="7.14253">
        <ele>2061.3</ele>
      </trkpt>
      <trkpt lat="44.5537" lon="7.14266">
        <ele>2061.5</ele>
      </trkpt>
      <trkpt lat="44.55347" lon="7.14315">
        <ele>2062.5</ele>
      </trkpt>
      <trkpt lat="44.5534" lon="7.14339">
        <ele>2062.7</ele>
      </trkpt>
      <trkpt lat="44.5534" lon="7.14358">
        <ele>2057.7</ele>
      </trkpt>
      <trkpt lat="44.55347" lon="7.14377">
        <ele>2055.7</ele>
      </trkpt>
      <trkpt lat="44.55372" lon="7.14429">
        <ele>2049.1</ele>
      </trkpt>
      <trkpt lat="44.55383" lon="7.1451">
        <ele>2048.2</ele>
      </trkpt>
      <trkpt lat="44.55383" lon="7.14568">
        <ele>2050</ele>
      </trkpt>
      <trkpt lat="44.55392" lon="7.14603">
        <ele>2051.7</ele>
      </trkpt>
      <trkpt lat="44.554" lon="7.14635">
        <ele>2052.8</ele>
      </trkpt>
      <trkpt lat="44.55432" lon="7.14686">
        <ele>2023</ele>
      </trkpt>
      <trkpt lat="44.55443" lon="7.14768">
        <ele>2031.1</ele>
      </trkpt>
      <trkpt lat="44.55463" lon="7.14819">
        <ele>2026.9</ele>
      </trkpt>
      <trkpt lat="44.5548" lon="7.14875">
        <ele>2030</ele>
      </trkpt>
      <trkpt lat="44.55512" lon="7.14916">
        <ele>2015.3</ele>
      </trkpt>
      <trkpt lat="44.55523" lon="7.14933">
        <ele>2009.6</ele>
      </trkpt>
      <trkpt lat="44.55535" lon="7.1494">
        <ele>2006.3</ele>
      </trkpt>
      <trkpt lat="44.5554" lon="7.14957">
        <ele>2004.3</ele>
      </trkpt>
      <trkpt lat="44.55533" lon="7.14968">
        <ele>2004</ele>
      </trkpt>
      <trkpt lat="44.55499" lon="7.1497">
        <ele>2015.8</ele>
      </trkpt>
      <trkpt lat="44.55465" lon="7.14983">
        <ele>2018</ele>
      </trkpt>
      <trkpt lat="44.55428" lon="7.15006">
        <ele>2006.2</ele>
      </trkpt>
      <trkpt lat="44.55405" lon="7.15025">
        <ele>2010.2</ele>
      </trkpt>
      <trkpt lat="44.55366" lon="7.15081">
        <ele>2003.6</ele>
      </trkpt>
      <trkpt lat="44.55353" lon="7.15092">
        <ele>1986.8</ele>
      </trkpt>
      <trkpt lat="44.55332" lon="7.15101">
        <ele>1994.3</ele>
      </trkpt>
      <trkpt lat="44.55289" lon="7.15096">
        <ele>1992.4</ele>
      </trkpt>
      <trkpt lat="44.55272" lon="7.15107">
        <ele>1992</ele>
      </trkpt>
      <trkpt lat="44.55252" lon="7.15135">
        <ele>1988.2</ele>
      </trkpt>
      <trkpt lat="44.55237" lon="7.15163">
        <ele>1987.3</ele>
      </trkpt>
      <trkpt lat="44.55224" lon="7.15201">
        <ele>1979.7</ele>
      </trkpt>
      <trkpt lat="44.55207" lon="7.15244">
        <ele>1977.5</ele>
      </trkpt>
      <trkpt lat="44.55194" lon="7.15257">
        <ele>1963</ele>
      </trkpt>
      <trkpt lat="44.55115" lon="7.15253">
        <ele>1968</ele>
      </trkpt>
      <trkpt lat="44.55093" lon="7.15255">
        <ele>1973</ele>
      </trkpt>
      <trkpt lat="44.55083" lon="7.15257">
        <ele>1977</ele>
      </trkpt>
      <trkpt lat="44.55044" lon="7.15281">
        <ele>1971</ele>
      </trkpt>
      <trkpt lat="44.55027" lon="7.15285">
        <ele>1971.8</ele>
      </trkpt>
      <trkpt lat="44.55014" lon="7.15292">
        <ele>1971.1</ele>
      </trkpt>
      <trkpt lat="44.54967" lon="7.15332">
        <ele>1981.3</ele>
      </trkpt>
      <trkpt lat="44.5496" lon="7.15337">
        <ele>1963.2</ele>
      </trkpt>
      <trkpt lat="44.5495" lon="7.15345">
        <ele>1965.5</ele>
      </trkpt>
      <trkpt lat="44.54948" lon="7.15352">
        <ele>1965.2</ele>
      </trkpt>
      <trkpt lat="44.54948" lon="7.15356">
        <ele>1964.5</ele>
      </trkpt>
      <trkpt lat="44.5495" lon="7.15362">
        <ele>1963.1</ele>
      </trkpt>
      <trkpt lat="44.54954" lon="7.15365">
        <ele>1961.8</ele>
      </trkpt>
      <trkpt lat="44.54958" lon="7.15365">
        <ele>1961</ele>
      </trkpt>
      <trkpt lat="44.54967" lon="7.15347">
        <ele>1961</ele>
      </trkpt>
      <trkpt lat="44.54975" lon="7.15339">
        <ele>1959.9</ele>
      </trkpt>
      <trkpt lat="44.54986" lon="7.1533">
        <ele>1971.7</ele>
      </trkpt>
      <trkpt lat="44.55008" lon="7.15324">
        <ele>1961.7</ele>
      </trkpt>
      <trkpt lat="44.5502" lon="7.15317">
        <ele>1964.3</ele>
      </trkpt>
      <trkpt lat="44.55055" lon="7.15315">
        <ele>1961.7</ele>
      </trkpt>
      <trkpt lat="44.55076" lon="7.15311">
        <ele>1958.7</ele>
      </trkpt>
      <trkpt lat="44.55096" lon="7.15311">
        <ele>1954.4</ele>
      </trkpt>
      <trkpt lat="44.55134" lon="7.15317">
        <ele>1954.5</ele>
      </trkpt>
      <trkpt lat="44.55229" lon="7.15352">
        <ele>1923.6</ele>
      </trkpt>
      <trkpt lat="44.55284" lon="7.15326">
        <ele>1934.8</ele>
      </trkpt>
      <trkpt lat="44.55308" lon="7.15322">
        <ele>1930.8</ele>
      </trkpt>
      <trkpt lat="44.55327" lon="7.15313">
        <ele>1928.6</ele>
      </trkpt>
      <trkpt lat="44.55336" lon="7.15307">
        <ele>1920.1</ele>
      </trkpt>
      <trkpt lat="44.55342" lon="7.15298">
        <ele>1921.9</ele>
      </trkpt>
      <trkpt lat="44.55349" lon="7.15294">
        <ele>1922.5</ele>
      </trkpt>
      <trkpt lat="44.55392" lon="7.15285">
        <ele>1919.7</ele>
      </trkpt>
      <trkpt lat="44.55437" lon="7.15268">
        <ele>1910.2</ele>
      </trkpt>
      <trkpt lat="44.5546" lon="7.15268">
        <ele>1906.1</ele>
      </trkpt>
      <trkpt lat="44.55482" lon="7.15272">
        <ele>1904.1</ele>
      </trkpt>
      <trkpt lat="44.55497" lon="7.15268">
        <ele>1904.7</ele>
      </trkpt>
      <trkpt lat="44.55518" lon="7.15257">
        <ele>1899.7</ele>
      </trkpt>
      <trkpt lat="44.55533" lon="7.15253">
        <ele>1897.4</ele>
      </trkpt>
      <trkpt lat="44.55596" lon="7.15253">
        <ele>1898.1</ele>
      </trkpt>
      <trkpt lat="44.55608" lon="7.15259">
        <ele>1897.3</ele>
      </trkpt>
      <trkpt lat="44.5563" lon="7.15279">
        <ele>1896.5</ele>
      </trkpt>
      <trkpt lat="44.55653" lon="7.15294">
        <ele>1895.3</ele>
      </trkpt>
      <trkpt lat="44.55662" lon="7.153">
        <ele>1894</ele>
      </trkpt>
      <trkpt lat="44.55668" lon="7.15307">
        <ele>1899.1</ele>
      </trkpt>
      <trkpt lat="44.55688" lon="7.15341">
        <ele>1881.4</ele>
      </trkpt>
      <trkpt lat="44.55724" lon="7.15375">
        <ele>1878.4</ele>
      </trkpt>
      <trkpt lat="44.55739" lon="7.15388">
        <ele>1875.9</ele>
      </trkpt>
      <trkpt lat="44.55752" lon="7.15401">
        <ele>1876.3</ele>
      </trkpt>
      <trkpt lat="44.55769" lon="7.15407">
        <ele>1877.7</ele>
      </trkpt>
      <trkpt lat="44.55782" lon="7.15407">
        <ele>1880.2</ele>
      </trkpt>
      <trkpt lat="44.55799" lon="7.15403">
        <ele>1882</ele>
      </trkpt>
      <trkpt lat="44.5581" lon="7.15397">
        <ele>1882.8</ele>
      </trkpt>
      <trkpt lat="44.55819" lon="7.15395">
        <ele>1882.8</ele>
      </trkpt>
      <trkpt lat="44.55825" lon="7.15395">
        <ele>1882.6</ele>
      </trkpt>
      <trkpt lat="44.55829" lon="7.15399">
        <ele>1881.5</ele>
      </trkpt>
      <trkpt lat="44.55832" lon="7.15405">
        <ele>1879.8</ele>
      </trkpt>
      <trkpt lat="44.55832" lon="7.15412">
        <ele>1877.9</ele>
      </trkpt>
      <trkpt lat="44.55827" lon="7.15416">
        <ele>1878</ele>
      </trkpt>
      <trkpt lat="44.55823" lon="7.15418">
        <ele>1868.8</ele>
      </trkpt>
      <trkpt lat="44.55817" lon="7.15418">
        <ele>1866</ele>
      </trkpt>
      <trkpt lat="44.55812" lon="7.15416">
        <ele>1880.5</ele>
      </trkpt>
      <trkpt lat="44.55806" lon="7.15416">
        <ele>1880.8</ele>
      </trkpt>
      <trkpt lat="44.55802" lon="7.15418">
        <ele>1862.1</ele>
      </trkpt>
      <trkpt lat="44.55761" lon="7.15422">
        <ele>1862.5</ele>
      </trkpt>
      <trkpt lat="44.5575" lon="7.15422">
        <ele>1863</ele>
      </trkpt>
      <trkpt lat="44.55701" lon="7.15395">
        <ele>1873.1</ele>
      </trkpt>
      <trkpt lat="44.55681" lon="7.1539">
        <ele>1871.6</ele>
      </trkpt>
      <trkpt lat="44.5566" lon="7.15388">
        <ele>1866.7</ele>
      </trkpt>
      <trkpt lat="44.55641" lon="7.15388">
        <ele>1867.3</ele>
      </trkpt>
      <trkpt lat="44.5563" lon="7.15395">
        <ele>1866.5</ele>
      </trkpt>
      <trkpt lat="44.55591" lon="7.15422">
        <ele>1852.5</ele>
      </trkpt>
      <trkpt lat="44.55529" lon="7.15442">
        <ele>1849.2</ele>
      </trkpt>
      <trkpt lat="44.55503" lon="7.15444">
        <ele>1850</ele>
      </trkpt>
      <trkpt lat="44.5549" lon="7.15448">
        <ele>1852.1</ele>
      </trkpt>
      <trkpt lat="44.55482" lon="7.15457">
        <ele>1851.1</ele>
      </trkpt>
      <trkpt lat="44.55478" lon="7.15465">
        <ele>1850.1</ele>
      </trkpt>
      <trkpt lat="44.55475" lon="7.15474">
        <ele>1849.2</ele>
      </trkpt>
      <trkpt lat="44.55475" lon="7.15485">
        <ele>1847.9</ele>
      </trkpt>
      <trkpt lat="44.55465" lon="7.15528">
        <ele>1835.8</ele>
      </trkpt>
      <trkpt lat="44.5546" lon="7.15543">
        <ele>1834.6</ele>
      </trkpt>
      <trkpt lat="44.55454" lon="7.15553">
        <ele>1833.9</ele>
      </trkpt>
      <trkpt lat="44.55422" lon="7.15566">
        <ele>1833.6</ele>
      </trkpt>
      <trkpt lat="44.55398" lon="7.15575">
        <ele>1840.5</ele>
      </trkpt>
      <trkpt lat="44.55385" lon="7.15586">
        <ele>1840.5</ele>
      </trkpt>
      <trkpt lat="44.55381" lon="7.15594">
        <ele>1841.4</ele>
      </trkpt>
      <trkpt lat="44.55379" lon="7.15613">
        <ele>1841.8</ele>
      </trkpt>
      <trkpt lat="44.55394" lon="7.15656">
        <ele>1836.1</ele>
      </trkpt>
      <trkpt lat="44.55413" lon="7.15721">
        <ele>1834.2</ele>
      </trkpt>
      <trkpt lat="44.55426" lon="7.15901">
        <ele>1804.7</ele>
      </trkpt>
      <trkpt lat="44.5543" lon="7.15955">
        <ele>1794.2</ele>
      </trkpt>
      <trkpt lat="44.55424" lon="7.15993">
        <ele>1800.2</ele>
      </trkpt>
      <trkpt lat="44.55413" lon="7.16025">
        <ele>1806.9</ele>
      </trkpt>
      <trkpt lat="44.55342" lon="7.16094">
        <ele>1794.1</ele>
      </trkpt>
      <trkpt lat="44.55319" lon="7.1615">
        <ele>1800.3</ele>
      </trkpt>
      <trkpt lat="44.55293" lon="7.16193">
        <ele>1789.6</ele>
      </trkpt>
      <trkpt lat="44.55274" lon="7.1624">
        <ele>1788.5</ele>
      </trkpt>
      <trkpt lat="44.55269" lon="7.16291">
        <ele>1778.3</ele>
      </trkpt>
      <trkpt lat="44.55274" lon="7.16309">
        <ele>1777.9</ele>
      </trkpt>
      <trkpt lat="44.55276" lon="7.16319">
        <ele>1778</ele>
      </trkpt>
      <trkpt lat="44.55342" lon="7.16416">
        <ele>1765.5</ele>
      </trkpt>
      <trkpt lat="44.55364" lon="7.16435">
        <ele>1769.1</ele>
      </trkpt>
      <trkpt lat="44.55439" lon="7.16457">
        <ele>1749.3</ele>
      </trkpt>
      <trkpt lat="44.55523" lon="7.16463">
        <ele>1734</ele>
      </trkpt>
      <trkpt lat="44.55572" lon="7.16512">
        <ele>1741.9</ele>
      </trkpt>
      <trkpt lat="44.55619" lon="7.16519">
        <ele>1730.3</ele>
      </trkpt>
      <trkpt lat="44.55636" lon="7.16532">
        <ele>1729.1</ele>
      </trkpt>
      <trkpt lat="44.55651" lon="7.16549">
        <ele>1729.4</ele>
      </trkpt>
      <trkpt lat="44.5566" lon="7.16562">
        <ele>1729.8</ele>
      </trkpt>
      <trkpt lat="44.55666" lon="7.16566">
        <ele>1729.6</ele>
      </trkpt>
      <trkpt lat="44.55675" lon="7.16564">
        <ele>1714.1</ele>
      </trkpt>
      <trkpt lat="44.55681" lon="7.16558">
        <ele>1710.6</ele>
      </trkpt>
      <trkpt lat="44.55681" lon="7.16549">
        <ele>1708.8</ele>
      </trkpt>
      <trkpt lat="44.55677" lon="7.1654">
        <ele>1708.3</ele>
      </trkpt>
      <trkpt lat="44.55647" lon="7.16506">
        <ele>1723.7</ele>
      </trkpt>
      <trkpt lat="44.55634" lon="7.16474">
        <ele>1714.8</ele>
      </trkpt>
      <trkpt lat="44.55621" lon="7.16448">
        <ele>1713.6</ele>
      </trkpt>
      <trkpt lat="44.55608" lon="7.16431">
        <ele>1713.5</ele>
      </trkpt>
      <trkpt lat="44.556" lon="7.16416">
        <ele>1707.7</ele>
      </trkpt>
      <trkpt lat="44.55587" lon="7.16405">
        <ele>1709.1</ele>
      </trkpt>
      <trkpt lat="44.55566" lon="7.1639">
        <ele>1714.2</ele>
      </trkpt>
      <trkpt lat="44.55557" lon="7.16382">
        <ele>1714.1</ele>
      </trkpt>
      <trkpt lat="44.55555" lon="7.16375">
        <ele>1713.8</ele>
      </trkpt>
      <trkpt lat="44.55555" lon="7.16369">
        <ele>1713.3</ele>
      </trkpt>
      <trkpt lat="44.55572" lon="7.16309">
        <ele>1707.7</ele>
      </trkpt>
      <trkpt lat="44.55574" lon="7.16304">
        <ele>1707.9</ele>
      </trkpt>
      <trkpt lat="44.55581" lon="7.16298">
        <ele>1708</ele>
      </trkpt>
      <trkpt lat="44.55585" lon="7.16298">
        <ele>1701.8</ele>
      </trkpt>
      <trkpt lat="44.55623" lon="7.16304">
        <ele>1699.9</ele>
      </trkpt>
      <trkpt lat="44.55638" lon="7.16302">
        <ele>1699</ele>
      </trkpt>
      <trkpt lat="44.5566" lon="7.16296">
        <ele>1698.3</ele>
      </trkpt>
      <trkpt lat="44.55671" lon="7.16296">
        <ele>1690.2</ele>
      </trkpt>
      <trkpt lat="44.55688" lon="7.16309">
        <ele>1689.1</ele>
      </trkpt>
      <trkpt lat="44.55714" lon="7.16324">
        <ele>1686.6</ele>
      </trkpt>
      <trkpt lat="44.55724" lon="7.16322">
        <ele>1685.5</ele>
      </trkpt>
      <trkpt lat="44.55735" lon="7.16309">
        <ele>1685</ele>
      </trkpt>
      <trkpt lat="44.55739" lon="7.16296">
        <ele>1685</ele>
      </trkpt>
      <trkpt lat="44.55741" lon="7.16281">
        <ele>1684.4</ele>
      </trkpt>
      <trkpt lat="44.55718" lon="7.16178">
        <ele>1684.4</ele>
      </trkpt>
      <trkpt lat="44.55718" lon="7.16167">
        <ele>1684.1</ele>
      </trkpt>
      <trkpt lat="44.55759" lon="7.16126">
        <ele>1673.9</ele>
      </trkpt>
      <trkpt lat="44.55765" lon="7.16122">
        <ele>1674</ele>
      </trkpt>
      <trkpt lat="44.55771" lon="7.16122">
        <ele>1673.7</ele>
      </trkpt>
      <trkpt lat="44.5578" lon="7.16124">
        <ele>1672.9</ele>
      </trkpt>
      <trkpt lat="44.55789" lon="7.16131">
        <ele>1671.8</ele>
      </trkpt>
      <trkpt lat="44.55802" lon="7.16135">
        <ele>1670.5</ele>
      </trkpt>
      <trkpt lat="44.55821" lon="7.16135">
        <ele>1669.1</ele>
      </trkpt>
      <trkpt lat="44.55842" lon="7.16122">
        <ele>1661.3</ele>
      </trkpt>
      <trkpt lat="44.55853" lon="7.16111">
        <ele>1661.8</ele>
      </trkpt>
      <trkpt lat="44.55862" lon="7.16105">
        <ele>1661.5</ele>
      </trkpt>
      <trkpt lat="44.55885" lon="7.16101">
        <ele>1659</ele>
      </trkpt>
      <trkpt lat="44.55911" lon="7.16088">
        <ele>1657.4</ele>
      </trkpt>
      <trkpt lat="44.55917" lon="7.16088">
        <ele>1655.2</ele>
      </trkpt>
      <trkpt lat="44.55939" lon="7.16085">
        <ele>1650.5</ele>
      </trkpt>
      <trkpt lat="44.55962" lon="7.16085">
        <ele>1647.9</ele>
      </trkpt>
      <trkpt lat="44.55969" lon="7.16085">
        <ele>1647.5</ele>
      </trkpt>
      <trkpt lat="44.56063" lon="7.16092">
        <ele>1639.6</ele>
      </trkpt>
      <trkpt lat="44.56078" lon="7.16092">
        <ele>1641.2</ele>
      </trkpt>
      <trkpt lat="44.56096" lon="7.16085">
        <ele>1636.9</ele>
      </trkpt>
      <trkpt lat="44.56117" lon="7.1607">
        <ele>1644.3</ele>
      </trkpt>
      <trkpt lat="44.56121" lon="7.16068">
        <ele>1644.1</ele>
      </trkpt>
      <trkpt lat="44.56132" lon="7.16066">
        <ele>1643.2</ele>
      </trkpt>
      <trkpt lat="44.56141" lon="7.16066">
        <ele>1642.1</ele>
      </trkpt>
      <trkpt lat="44.56153" lon="7.1607">
        <ele>1638.9</ele>
      </trkpt>
      <trkpt lat="44.56218" lon="7.16109">
        <ele>1626.6</ele>
      </trkpt>
      <trkpt lat="44.56233" lon="7.16124">
        <ele>1625.2</ele>
      </trkpt>
      <trkpt lat="44.56261" lon="7.16161">
        <ele>1626.2</ele>
      </trkpt>
      <trkpt lat="44.56271" lon="7.1618">
        <ele>1620.2</ele>
      </trkpt>
      <trkpt lat="44.56282" lon="7.16201">
        <ele>1620.4</ele>
      </trkpt>
      <trkpt lat="44.56291" lon="7.16216">
        <ele>1620</ele>
      </trkpt>
      <trkpt lat="44.56297" lon="7.16236">
        <ele>1619.2</ele>
      </trkpt>
      <trkpt lat="44.56304" lon="7.16259">
        <ele>1608.9</ele>
      </trkpt>
      <trkpt lat="44.56314" lon="7.16309">
        <ele>1604.9</ele>
      </trkpt>
      <trkpt lat="44.56317" lon="7.16324">
        <ele>1604.5</ele>
      </trkpt>
      <trkpt lat="44.56319" lon="7.16343">
        <ele>1596.6</ele>
      </trkpt>
      <trkpt lat="44.56317" lon="7.16384">
        <ele>1588.6</ele>
      </trkpt>
      <trkpt lat="44.56319" lon="7.16392">
        <ele>1587.7</ele>
      </trkpt>
      <trkpt lat="44.56325" lon="7.16409">
        <ele>1586.1</ele>
      </trkpt>
      <trkpt lat="44.56332" lon="7.16416">
        <ele>1585.2</ele>
      </trkpt>
      <trkpt lat="44.56336" lon="7.16418">
        <ele>1583.2</ele>
      </trkpt>
      <trkpt lat="44.5634" lon="7.16418">
        <ele>1581</ele>
      </trkpt>
      <trkpt lat="44.56344" lon="7.16416">
        <ele>1589.9</ele>
      </trkpt>
      <trkpt lat="44.56353" lon="7.16409">
        <ele>1592.7</ele>
      </trkpt>
      <trkpt lat="44.56357" lon="7.16403">
        <ele>1594.3</ele>
      </trkpt>
      <trkpt lat="44.56364" lon="7.16397">
        <ele>1595.9</ele>
      </trkpt>
      <trkpt lat="44.56377" lon="7.16394">
        <ele>1596.9</ele>
      </trkpt>
      <trkpt lat="44.56409" lon="7.16403">
        <ele>1593.1</ele>
      </trkpt>
      <trkpt lat="44.56486" lon="7.16452">
        <ele>1577.9</ele>
      </trkpt>
      <trkpt lat="44.56559" lon="7.16515">
        <ele>1562.7</ele>
      </trkpt>
      <trkpt lat="44.56671" lon="7.16581">
        <ele>1557.3</ele>
      </trkpt>
      <trkpt lat="44.56688" lon="7.16607">
        <ele>1534.4</ele>
      </trkpt>
      <trkpt lat="44.56696" lon="7.16613">
        <ele>1531.2</ele>
      </trkpt>
      <trkpt lat="44.56703" lon="7.16618">
        <ele>1529.5</ele>
      </trkpt>
      <trkpt lat="44.56713" lon="7.16615">
        <ele>1529.9</ele>
      </trkpt>
      <trkpt lat="44.56741" lon="7.16583">
        <ele>1556.2</ele>
      </trkpt>
      <trkpt lat="44.56763" lon="7.16573">
        <ele>1546.7</ele>
      </trkpt>
      <trkpt lat="44.56789" lon="7.16558">
        <ele>1540.8</ele>
      </trkpt>
      <trkpt lat="44.56797" lon="7.16538">
        <ele>1540</ele>
      </trkpt>
      <trkpt lat="44.56804" lon="7.16532">
        <ele>1538.8</ele>
      </trkpt>
      <trkpt lat="44.56808" lon="7.1653">
        <ele>1537.8</ele>
      </trkpt>
      <trkpt lat="44.56814" lon="7.16538">
        <ele>1536.5</ele>
      </trkpt>
      <trkpt lat="44.56814" lon="7.16549">
        <ele>1535.8</ele>
      </trkpt>
      <trkpt lat="44.5681" lon="7.1656">
        <ele>1535.5</ele>
      </trkpt>
      <trkpt lat="44.56786" lon="7.16568">
        <ele>1540.9</ele>
      </trkpt>
      <trkpt lat="44.56771" lon="7.16579">
        <ele>1544.9</ele>
      </trkpt>
      <trkpt lat="44.56709" lon="7.1665">
        <ele>1519.8</ele>
      </trkpt>
      <trkpt lat="44.56703" lon="7.16656">
        <ele>1518.5</ele>
      </trkpt>
      <trkpt lat="44.56692" lon="7.16656">
        <ele>1517.5</ele>
      </trkpt>
      <trkpt lat="44.56681" lon="7.16652">
        <ele>1516.5</ele>
      </trkpt>
      <trkpt lat="44.56641" lon="7.16615">
        <ele>1528.4</ele>
      </trkpt>
      <trkpt lat="44.56628" lon="7.16611">
        <ele>1528.3</ele>
      </trkpt>
      <trkpt lat="44.56565" lon="7.16613">
        <ele>1517.4</ele>
      </trkpt>
      <trkpt lat="44.56533" lon="7.16607">
        <ele>1514.7</ele>
      </trkpt>
      <trkpt lat="44.56516" lon="7.16603">
        <ele>1515.3</ele>
      </trkpt>
      <trkpt lat="44.56462" lon="7.16579">
        <ele>1532.9</ele>
      </trkpt>
      <trkpt lat="44.56447" lon="7.16577">
        <ele>1532.2</ele>
      </trkpt>
      <trkpt lat="44.56428" lon="7.16579">
        <ele>1527.1</ele>
      </trkpt>
      <trkpt lat="44.56396" lon="7.16588">
        <ele>1507.6</ele>
      </trkpt>
      <trkpt lat="44.56359" lon="7.16594">
        <ele>1501.9</ele>
      </trkpt>
      <trkpt lat="44.56321" lon="7.16594">
        <ele>1504.9</ele>
      </trkpt>
      <trkpt lat="44.5631" lon="7.16596">
        <ele>1505</ele>
      </trkpt>
      <trkpt lat="44.56302" lon="7.16605">
        <ele>1504.9</ele>
      </trkpt>
      <trkpt lat="44.56295" lon="7.16613">
        <ele>1504.8</ele>
      </trkpt>
      <trkpt lat="44.56293" lon="7.16622">
        <ele>1504.4</ele>
      </trkpt>
      <trkpt lat="44.56291" lon="7.16652">
        <ele>1502.6</ele>
      </trkpt>
      <trkpt lat="44.56295" lon="7.16676">
        <ele>1495.8</ele>
      </trkpt>
      <trkpt lat="44.56289" lon="7.16729">
        <ele>1495.9</ele>
      </trkpt>
      <trkpt lat="44.56291" lon="7.16753">
        <ele>1493.1</ele>
      </trkpt>
      <trkpt lat="44.56302" lon="7.16789">
        <ele>1490.9</ele>
      </trkpt>
      <trkpt lat="44.5631" lon="7.16802">
        <ele>1489.5</ele>
      </trkpt>
      <trkpt lat="44.56332" lon="7.16819">
        <ele>1484.9</ele>
      </trkpt>
      <trkpt lat="44.56355" lon="7.1683">
        <ele>1471.9</ele>
      </trkpt>
      <trkpt lat="44.56389" lon="7.16856">
        <ele>1468.3</ele>
      </trkpt>
      <trkpt lat="44.56447" lon="7.16912">
        <ele>1455.3</ele>
      </trkpt>
      <trkpt lat="44.56465" lon="7.16929">
        <ele>1454.9</ele>
      </trkpt>
      <trkpt lat="44.56477" lon="7.16942">
        <ele>1453.4</ele>
      </trkpt>
      <trkpt lat="44.56486" lon="7.16961">
        <ele>1453</ele>
      </trkpt>
      <trkpt lat="44.56488" lon="7.1698">
        <ele>1451.8</ele>
      </trkpt>
      <trkpt lat="44.56486" lon="7.1701">
        <ele>1449</ele>
      </trkpt>
      <trkpt lat="44.56469" lon="7.17092">
        <ele>1440.3</ele>
      </trkpt>
      <trkpt lat="44.5646" lon="7.17103">
        <ele>1440.3</ele>
      </trkpt>
      <trkpt lat="44.56413" lon="7.1713">
        <ele>1446.6</ele>
      </trkpt>
      <trkpt lat="44.56407" lon="7.17137">
        <ele>1445.8</ele>
      </trkpt>
      <trkpt lat="44.56402" lon="7.17145">
        <ele>1444.6</ele>
      </trkpt>
      <trkpt lat="44.564" lon="7.17154">
        <ele>1443.4</ele>
      </trkpt>
      <trkpt lat="44.56402" lon="7.17191">
        <ele>1429.5</ele>
      </trkpt>
      <trkpt lat="44.56398" lon="7.17206">
        <ele>1426.8</ele>
      </trkpt>
      <trkpt lat="44.56392" lon="7.1721">
        <ele>1426.2</ele>
      </trkpt>
      <trkpt lat="44.56374" lon="7.17212">
        <ele>1426.2</ele>
      </trkpt>
      <trkpt lat="44.56312" lon="7.17201">
        <ele>1429.2</ele>
      </trkpt>
      <trkpt lat="44.56295" lon="7.17201">
        <ele>1428.6</ele>
      </trkpt>
      <trkpt lat="44.56239" lon="7.17203">
        <ele>1429.6</ele>
      </trkpt>
      <trkpt lat="44.56209" lon="7.17203">
        <ele>1430.2</ele>
      </trkpt>
      <trkpt lat="44.56196" lon="7.17208">
        <ele>1430.1</ele>
      </trkpt>
      <trkpt lat="44.56188" lon="7.17214">
        <ele>1429.4</ele>
      </trkpt>
      <trkpt lat="44.56179" lon="7.17229">
        <ele>1427.2</ele>
      </trkpt>
      <trkpt lat="44.56173" lon="7.17246">
        <ele>1424.5</ele>
      </trkpt>
      <trkpt lat="44.56175" lon="7.17257">
        <ele>1419.3</ele>
      </trkpt>
      <trkpt lat="44.56201" lon="7.17304">
        <ele>1412.4</ele>
      </trkpt>
      <trkpt lat="44.56216" lon="7.17354">
        <ele>1408.1</ele>
      </trkpt>
      <trkpt lat="44.56246" lon="7.17439">
        <ele>1407</ele>
      </trkpt>
      <trkpt lat="44.56256" lon="7.1751">
        <ele>1393.8</ele>
      </trkpt>
      <trkpt lat="44.56256" lon="7.17536">
        <ele>1392</ele>
      </trkpt>
      <trkpt lat="44.56261" lon="7.17564">
        <ele>1393.9</ele>
      </trkpt>
      <trkpt lat="44.56274" lon="7.17579">
        <ele>1393</ele>
      </trkpt>
      <trkpt lat="44.56291" lon="7.17588">
        <ele>1398.2</ele>
      </trkpt>
      <trkpt lat="44.56349" lon="7.17594">
        <ele>1386</ele>
      </trkpt>
      <trkpt lat="44.56385" lon="7.17588">
        <ele>1386.3</ele>
      </trkpt>
      <trkpt lat="44.5642" lon="7.17575">
        <ele>1375.1</ele>
      </trkpt>
      <trkpt lat="44.56518" lon="7.175">
        <ele>1351.4</ele>
      </trkpt>
      <trkpt lat="44.56553" lon="7.17467">
        <ele>1346.5</ele>
      </trkpt>
      <trkpt lat="44.56561" lon="7.17463">
        <ele>1345.8</ele>
      </trkpt>
      <trkpt lat="44.5657" lon="7.17463">
        <ele>1345.3</ele>
      </trkpt>
      <trkpt lat="44.56578" lon="7.17472">
        <ele>1344.9</ele>
      </trkpt>
      <trkpt lat="44.5658" lon="7.1748">
        <ele>1344.5</ele>
      </trkpt>
      <trkpt lat="44.56587" lon="7.17538">
        <ele>1336.6</ele>
      </trkpt>
      <trkpt lat="44.56591" lon="7.17564">
        <ele>1341.3</ele>
      </trkpt>
      <trkpt lat="44.5661" lon="7.17613">
        <ele>1344.5</ele>
      </trkpt>
      <trkpt lat="44.56636" lon="7.17654">
        <ele>1340.9</ele>
      </trkpt>
      <trkpt lat="44.5666" lon="7.17682">
        <ele>1342.8</ele>
      </trkpt>
      <trkpt lat="44.56686" lon="7.17708">
        <ele>1329.7</ele>
      </trkpt>
      <trkpt lat="44.56731" lon="7.17746">
        <ele>1324.4</ele>
      </trkpt>
      <trkpt lat="44.56741" lon="7.17753">
        <ele>1327.3</ele>
      </trkpt>
      <trkpt lat="44.56771" lon="7.17761">
        <ele>1318</ele>
      </trkpt>
      <trkpt lat="44.56915" lon="7.1792">
        <ele>1311.1</ele>
      </trkpt>
      <trkpt lat="44.56924" lon="7.17922">
        <ele>1303.9</ele>
      </trkpt>
      <trkpt lat="44.56956" lon="7.17916">
        <ele>1283.8</ele>
      </trkpt>
      <trkpt lat="44.5696" lon="7.17924">
        <ele>1293.5</ele>
      </trkpt>
      <trkpt lat="44.56958" lon="7.17944">
        <ele>1295.2</ele>
      </trkpt>
      <trkpt lat="44.56958" lon="7.17976">
        <ele>1297.6</ele>
      </trkpt>
      <trkpt lat="44.5696" lon="7.17987">
        <ele>1297.4</ele>
      </trkpt>
      <trkpt lat="44.56962" lon="7.17991">
        <ele>1296.7</ele>
      </trkpt>
      <trkpt lat="44.56969" lon="7.17989">
        <ele>1294.1</ele>
      </trkpt>
      <trkpt lat="44.56969" lon="7.17969">
        <ele>1294.1</ele>
      </trkpt>
      <trkpt lat="44.56973" lon="7.17931">
        <ele>1289.8</ele>
      </trkpt>
      <trkpt lat="44.5698" lon="7.17916">
        <ele>1277.5</ele>
      </trkpt>
      <trkpt lat="44.5698" lon="7.17897">
        <ele>1277.1</ele>
      </trkpt>
      <trkpt lat="44.56977" lon="7.17877">
        <ele>1275.5</ele>
      </trkpt>
      <trkpt lat="44.56971" lon="7.17871">
        <ele>1275.7</ele>
      </trkpt>
      <trkpt lat="44.56952" lon="7.17866">
        <ele>1278.9</ele>
      </trkpt>
      <trkpt lat="44.56917" lon="7.17866">
        <ele>1283.4</ele>
      </trkpt>
      <trkpt lat="44.56907" lon="7.17856">
        <ele>1300.9</ele>
      </trkpt>
      <trkpt lat="44.56877" lon="7.17766">
        <ele>1285</ele>
      </trkpt>
      <trkpt lat="44.56855" lon="7.17669">
        <ele>1272.7</ele>
      </trkpt>
      <trkpt lat="44.56834" lon="7.17633">
        <ele>1270</ele>
      </trkpt>
      <trkpt lat="44.5681" lon="7.17588">
        <ele>1284.1</ele>
      </trkpt>
      <trkpt lat="44.56812" lon="7.17575">
        <ele>1283.7</ele>
      </trkpt>
      <trkpt lat="44.56814" lon="7.17564">
        <ele>1284.4</ele>
      </trkpt>
      <trkpt lat="44.56819" lon="7.17564">
        <ele>1283.8</ele>
      </trkpt>
      <trkpt lat="44.56825" lon="7.17564">
        <ele>1283</ele>
      </trkpt>
      <trkpt lat="44.56892" lon="7.17609">
        <ele>1263.4</ele>
      </trkpt>
      <trkpt lat="44.56917" lon="7.17609">
        <ele>1248.7</ele>
      </trkpt>
      <trkpt lat="44.56941" lon="7.17609">
        <ele>1245.9</ele>
      </trkpt>
      <trkpt lat="44.5696" lon="7.17596">
        <ele>1243.4</ele>
      </trkpt>
      <trkpt lat="44.56986" lon="7.17568">
        <ele>1245.6</ele>
      </trkpt>
      <trkpt lat="44.5701" lon="7.17549">
        <ele>1235.9</ele>
      </trkpt>
      <trkpt lat="44.57027" lon="7.17517">
        <ele>1237.8</ele>
      </trkpt>
      <trkpt lat="44.57042" lon="7.17508">
        <ele>1235.9</ele>
      </trkpt>
      <trkpt lat="44.57059" lon="7.17506">
        <ele>1233.6</ele>
      </trkpt>
      <trkpt lat="44.57123" lon="7.17506">
        <ele>1221</ele>
      </trkpt>
      <trkpt lat="44.57136" lon="7.17504">
        <ele>1219.7</ele>
      </trkpt>
      <trkpt lat="44.57147" lon="7.17495">
        <ele>1222.9</ele>
      </trkpt>
      <trkpt lat="44.57158" lon="7.1748">
        <ele>1222.7</ele>
      </trkpt>
      <trkpt lat="44.57171" lon="7.17444">
        <ele>1210.1</ele>
      </trkpt>
      <trkpt lat="44.57173" lon="7.17394">
        <ele>1215.9</ele>
      </trkpt>
      <trkpt lat="44.57168" lon="7.17364">
        <ele>1217.5</ele>
      </trkpt>
      <trkpt lat="44.57166" lon="7.17328">
        <ele>1228.2</ele>
      </trkpt>
      <trkpt lat="44.57173" lon="7.17313">
        <ele>1232.9</ele>
      </trkpt>
      <trkpt lat="44.57186" lon="7.173">
        <ele>1236.5</ele>
      </trkpt>
      <trkpt lat="44.57194" lon="7.17302">
        <ele>1236.4</ele>
      </trkpt>
      <trkpt lat="44.57325" lon="7.17375">
        <ele>1199.5</ele>
      </trkpt>
      <trkpt lat="44.5734" lon="7.17377">
        <ele>1187.9</ele>
      </trkpt>
      <trkpt lat="44.57359" lon="7.17373">
        <ele>1187.1</ele>
      </trkpt>
      <trkpt lat="44.57368" lon="7.17364">
        <ele>1187.6</ele>
      </trkpt>
      <trkpt lat="44.57411" lon="7.17227">
        <ele>1205.8</ele>
      </trkpt>
      <trkpt lat="44.57439" lon="7.1712">
        <ele>1181.9</ele>
      </trkpt>
      <trkpt lat="44.57449" lon="7.17073">
        <ele>1185.1</ele>
      </trkpt>
      <trkpt lat="44.57467" lon="7.17019">
        <ele>1179.9</ele>
      </trkpt>
      <trkpt lat="44.57495" lon="7.16882">
        <ele>1178.7</ele>
      </trkpt>
      <trkpt lat="44.57512" lon="7.16774">
        <ele>1148.5</ele>
      </trkpt>
      <trkpt lat="44.57522" lon="7.16652">
        <ele>1137.6</ele>
      </trkpt>
      <trkpt lat="44.57518" lon="7.16603">
        <ele>1133.7</ele>
      </trkpt>
      <trkpt lat="44.57505" lon="7.16553">
        <ele>1129.5</ele>
      </trkpt>
      <trkpt lat="44.57486" lon="7.16515">
        <ele>1145.1</ele>
      </trkpt>
      <trkpt lat="44.57467" lon="7.16474">
        <ele>1147.7</ele>
      </trkpt>
      <trkpt lat="44.57456" lon="7.16459">
        <ele>1150</ele>
      </trkpt>
      <trkpt lat="44.57449" lon="7.16446">
        <ele>1150.8</ele>
      </trkpt>
      <trkpt lat="44.57454" lon="7.16433">
        <ele>1149.9</ele>
      </trkpt>
      <trkpt lat="44.57462" lon="7.16427">
        <ele>1148.2</ele>
      </trkpt>
      <trkpt lat="44.57471" lon="7.16429">
        <ele>1146.6</ele>
      </trkpt>
      <trkpt lat="44.5748" lon="7.16448">
        <ele>1145.8</ele>
      </trkpt>
      <trkpt lat="44.57501" lon="7.1648">
        <ele>1130.3</ele>
      </trkpt>
      <trkpt lat="44.57544" lon="7.1654">
        <ele>1123.5</ele>
      </trkpt>
      <trkpt lat="44.57563" lon="7.16588">
        <ele>1119</ele>
      </trkpt>
      <trkpt lat="44.57643" lon="7.16841">
        <ele>1091.8</ele>
      </trkpt>
      <trkpt lat="44.57638" lon="7.16978">
        <ele>1091</ele>
      </trkpt>
      <trkpt lat="44.57649" lon="7.17083">
        <ele>1081</ele>
      </trkpt>
      <trkpt lat="44.57649" lon="7.17208">
        <ele>1073.1</ele>
      </trkpt>
      <trkpt lat="44.57632" lon="7.17422">
        <ele>1040.1</ele>
      </trkpt>
      <trkpt lat="44.57589" lon="7.17611">
        <ele>1025.6</ele>
      </trkpt>
      <trkpt lat="44.57589" lon="7.17624">
        <ele>1023.5</ele>
      </trkpt>
      <trkpt lat="44.57591" lon="7.17633">
        <ele>1022.6</ele>
      </trkpt>
      <trkpt lat="44.57613" lon="7.17648">
        <ele>1019.5</ele>
      </trkpt>
      <trkpt lat="44.5763" lon="7.17671">
        <ele>1013.4</ele>
      </trkpt>
      <trkpt lat="44.57632" lon="7.17727">
        <ele>1012.7</ele>
      </trkpt>
      <trkpt lat="44.57604" lon="7.17796">
        <ele>1013.3</ele>
      </trkpt>
      <trkpt lat="44.57602" lon="7.17843">
        <ele>1013</ele>
      </trkpt>
      <trkpt lat="44.57604" lon="7.17942">
        <ele>1007.1</ele>
      </trkpt>
      <trkpt lat="44.57606" lon="7.17969">
        <ele>1005.6</ele>
      </trkpt>
      <trkpt lat="44.57619" lon="7.1803">
        <ele>999.5</ele>
      </trkpt>
      <trkpt lat="44.57621" lon="7.18038">
        <ele>998.8</ele>
      </trkpt>
      <trkpt lat="44.57649" lon="7.18072">
        <ele>991.9</ele>
      </trkpt>
      <trkpt lat="44.57718" lon="7.18156">
        <ele>976.6</ele>
      </trkpt>
      <trkpt lat="44.57746" lon="7.18197">
        <ele>974.4</ele>
      </trkpt>
      <trkpt lat="44.5775" lon="7.18227">
        <ele>973.3</ele>
      </trkpt>
      <trkpt lat="44.57741" lon="7.18418">
        <ele>965.1</ele>
      </trkpt>
      <trkpt lat="44.57743" lon="7.18427">
        <ele>965.3</ele>
      </trkpt>
      <trkpt lat="44.57746" lon="7.18444">
        <ele>965.6</ele>
      </trkpt>
      <trkpt lat="44.57756" lon="7.18448">
        <ele>961.4</ele>
      </trkpt>
      <trkpt lat="44.57767" lon="7.18459">
        <ele>960.8</ele>
      </trkpt>
      <trkpt lat="44.57771" lon="7.18463">
        <ele>960.7</ele>
      </trkpt>
      <trkpt lat="44.57812" lon="7.1851">
        <ele>960.1</ele>
      </trkpt>
      <trkpt lat="44.57816" lon="7.18514">
        <ele>960.3</ele>
      </trkpt>
      <trkpt lat="44.57823" lon="7.18523">
        <ele>960.3</ele>
      </trkpt>
      <trkpt lat="44.57823" lon="7.18532">
        <ele>960.2</ele>
      </trkpt>
      <trkpt lat="44.57821" lon="7.18551">
        <ele>960.4</ele>
      </trkpt>
      <trkpt lat="44.57814" lon="7.18622">
        <ele>959.7</ele>
      </trkpt>
      <trkpt lat="44.57802" lon="7.18689">
        <ele>958.9</ele>
      </trkpt>
      <trkpt lat="44.57806" lon="7.1869">
        <ele>959.3</ele>
      </trkpt>
      <trkpt lat="44.57842" lon="7.18675">
        <ele>966.31</ele>
        <time>2017-01-01T11:19:33Z</time>
      </trkpt>
      <trkpt lat="44.57754" lon="7.18963">
        <ele>955.88</ele>
        <time>2017-01-01T11:19:45Z</time>
      </trkpt>
      <trkpt lat="44.57612" lon="7.19212">
        <ele>946.6</ele>
        <time>2017-01-01T11:19:57Z</time>
      </trkpt>
      <trkpt lat="44.57561" lon="7.196">
        <ele>933.31</ele>
        <time>2017-01-01T11:20:13Z</time>
      </trkpt>
      <trkpt lat="44.57629" lon="7.19811">
        <ele>933.46</ele>
        <time>2017-01-01T11:20:22Z</time>
      </trkpt>
      <trkpt lat="44.57691" lon="7.19858">
        <ele>933.11</ele>
        <time>2017-01-01T11:20:26Z</time>
      </trkpt>
      <trkpt lat="44.57708" lon="7.19787">
        <ele>938.14</ele>
        <time>2017-01-01T11:20:29Z</time>
      </trkpt>
      <trkpt lat="44.57741" lon="7.19811">
        <ele>939.73</ele>
        <time>2017-01-01T11:20:31Z</time>
      </trkpt>
      <trkpt lat="44.57801" lon="7.2002">
        <ele>942.06</ele>
        <time>2017-01-01T11:20:39Z</time>
      </trkpt>
      <trkpt lat="44.57795" lon="7.19718">
        <ele>954.74</ele>
        <time>2017-01-01T11:20:51Z</time>
      </trkpt>
      <trkpt lat="44.57718" lon="7.1933">
        <ele>970.64</ele>
        <time>2017-01-01T11:21:07Z</time>
      </trkpt>
      <trkpt lat="44.57838" lon="7.19325">
        <ele>981.16</ele>
        <time>2017-01-01T11:21:13Z</time>
      </trkpt>
      <trkpt lat="44.57901" lon="7.19828">
        <ele>1016.98</ele>
        <time>2017-01-01T11:21:33Z</time>
      </trkpt>
      <trkpt lat="44.58011" lon="7.20133">
        <ele>1046.46</ele>
        <time>2017-01-01T11:21:47Z</time>
      </trkpt>
      <trkpt lat="44.58043" lon="7.20305">
        <ele>1065.58</ele>
        <time>2017-01-01T11:21:54Z</time>
      </trkpt>
      <trkpt lat="44.58139" lon="7.20586">
        <ele>1084.19</ele>
        <time>2017-01-01T11:22:06Z</time>
      </trkpt>
      <trkpt lat="44.58237" lon="7.20988">
        <ele>1116.39</ele>
        <time>2017-01-01T11:22:22Z</time>
      </trkpt>
      <trkpt lat="44.58256" lon="7.21176">
        <ele>1123.98</ele>
        <time>2017-01-01T11:22:30Z</time>
      </trkpt>
      <trkpt lat="44.58252" lon="7.2116">
        <ele>1125.34</ele>
        <time>2017-01-01T11:22:31Z</time>
      </trkpt>
      <trkpt lat="44.58251" lon="7.21111">
        <ele>1129.15</ele>
        <time>2017-01-01T11:22:32Z</time>
      </trkpt>
      <trkpt lat="44.58276" lon="7.21016">
        <ele>1137.1</ele>
        <time>2017-01-01T11:22:36Z</time>
      </trkpt>
      <trkpt lat="44.58274" lon="7.2088">
        <ele>1149.59</ele>
        <time>2017-01-01T11:22:42Z</time>
      </trkpt>
      <trkpt lat="44.58285" lon="7.20799">
        <ele>1152.51</ele>
        <time>2017-01-01T11:22:45Z</time>
      </trkpt>
      <trkpt lat="44.58283" lon="7.20665">
        <ele>1160.3</ele>
        <time>2017-01-01T11:22:50Z</time>
      </trkpt>
      <trkpt lat="44.58301" lon="7.20614">
        <ele>1166.92</ele>
        <time>2017-01-01T11:22:52Z</time>
      </trkpt>
      <trkpt lat="44.58309" lon="7.2042">
        <ele>1182.78</ele>
        <time>2017-01-01T11:23:00Z</time>
      </trkpt>
      <trkpt lat="44.5835" lon="7.20268">
        <ele>1193.17</ele>
        <time>2017-01-01T11:23:06Z</time>
      </trkpt>
      <trkpt lat="44.58362" lon="7.2011">
        <ele>1198.24</ele>
        <time>2017-01-01T11:23:13Z</time>
      </trkpt>
      <trkpt lat="44.58375" lon="7.20102">
        <ele>1201.55</ele>
        <time>2017-01-01T11:23:13Z</time>
      </trkpt>
      <trkpt lat="44.58378" lon="7.20144">
        <ele>1204.47</ele>
        <time>2017-01-01T11:23:15Z</time>
      </trkpt>
      <trkpt lat="44.58405" lon="7.20089">
        <ele>1210.33</ele>
        <time>2017-01-01T11:23:18Z</time>
      </trkpt>
      <trkpt lat="44.58427" lon="7.20019">
        <ele>1218.05</ele>
        <time>2017-01-01T11:23:21Z</time>
      </trkpt>
      <trkpt lat="44.58429" lon="7.19938">
        <ele>1223.87</ele>
        <time>2017-01-01T11:23:24Z</time>
      </trkpt>
      <trkpt lat="44.58445" lon="7.19974">
        <ele>1226.04</ele>
        <time>2017-01-01T11:23:25Z</time>
      </trkpt>
      <trkpt lat="44.58461" lon="7.20096">
        <ele>1232.98</ele>
        <time>2017-01-01T11:23:30Z</time>
      </trkpt>
      <trkpt lat="44.58444" lon="7.20286">
        <ele>1245.03</ele>
        <time>2017-01-01T11:23:38Z</time>
      </trkpt>
      <trkpt lat="44.58474" lon="7.20509">
        <ele>1260.16</ele>
        <time>2017-01-01T11:23:47Z</time>
      </trkpt>
      <trkpt lat="44.58516" lon="7.20816">
        <ele>1273.2</ele>
        <time>2017-01-01T11:23:59Z</time>
      </trkpt>
      <trkpt lat="44.58558" lon="7.20933">
        <ele>1281.56</ele>
        <time>2017-01-01T11:24:04Z</time>
      </trkpt>
      <trkpt lat="44.58574" lon="7.20993">
        <ele>1288.74</ele>
        <time>2017-01-01T11:24:06Z</time>
      </trkpt>
      <trkpt lat="44.58605" lon="7.21154">
        <ele>1296.54</ele>
        <time>2017-01-01T11:24:13Z</time>
      </trkpt>
      <trkpt lat="44.58614" lon="7.21249">
        <ele>1295.46</ele>
        <time>2017-01-01T11:24:17Z</time>
      </trkpt>
      <trkpt lat="44.58622" lon="7.21187">
        <ele>1303.09</ele>
        <time>2017-01-01T11:24:19Z</time>
      </trkpt>
      <trkpt lat="44.58615" lon="7.21074">
        <ele>1311.59</ele>
        <time>2017-01-01T11:24:23Z</time>
      </trkpt>
      <trkpt lat="44.5862" lon="7.2097">
        <ele>1318.49</ele>
        <time>2017-01-01T11:24:28Z</time>
      </trkpt>
      <trkpt lat="44.58656" lon="7.20761">
        <ele>1336.42</ele>
        <time>2017-01-01T11:24:36Z</time>
      </trkpt>
      <trkpt lat="44.58695" lon="7.20563">
        <ele>1347.54</ele>
        <time>2017-01-01T11:24:44Z</time>
      </trkpt>
      <trkpt lat="44.58723" lon="7.20338">
        <ele>1361.5</ele>
        <time>2017-01-01T11:24:53Z</time>
      </trkpt>
      <trkpt lat="44.5883" lon="7.20234">
        <ele>1373.22</ele>
        <time>2017-01-01T11:25:00Z</time>
      </trkpt>
      <trkpt lat="44.58914" lon="7.20291">
        <ele>1375.73</ele>
        <time>2017-01-01T11:25:05Z</time>
      </trkpt>
      <trkpt lat="44.58932" lon="7.20328">
        <ele>1376.91</ele>
        <time>2017-01-01T11:25:07Z</time>
      </trkpt>
      <trkpt lat="44.58915" lon="7.20335">
        <ele>1377.1</ele>
        <time>2017-01-01T11:25:08Z</time>
      </trkpt>
      <trkpt lat="44.58859" lon="7.20461">
        <ele>1379.38</ele>
        <time>2017-01-01T11:25:14Z</time>
      </trkpt>
      <trkpt lat="44.58795" lon="7.20636">
        <ele>1376.1</ele>
        <time>2017-01-01T11:25:21Z</time>
      </trkpt>
      <trkpt lat="44.58868" lon="7.2045">
        <ele>1378.34</ele>
        <time>2017-01-01T11:25:30Z</time>
      </trkpt>
      <trkpt lat="44.58916" lon="7.20341">
        <ele>1376.79</ele>
        <time>2017-01-01T11:25:35Z</time>
      </trkpt>
      <trkpt lat="44.58947" lon="7.20327">
        <ele>1377.32</ele>
        <time>2017-01-01T11:25:36Z</time>
      </trkpt>
      <trkpt lat="44.5897" lon="7.20313">
        <ele>1379.71</ele>
        <time>2017-01-01T11:25:38Z</time>
      </trkpt>
      <trkpt lat="44.59013" lon="7.20225">
        <ele>1378.18</ele>
        <time>2017-01-01T11:25:42Z</time>
      </trkpt>
      <trkpt lat="44.59085" lon="7.20181">
        <ele>1378.71</ele>
        <time>2017-01-01T11:25:46Z</time>
      </trkpt>
      <trkpt lat="44.59171" lon="7.20159">
        <ele>1381.88</ele>
        <time>2017-01-01T11:25:51Z</time>
      </trkpt>
      <trkpt lat="44.59271" lon="7.20079">
        <ele>1392.74</ele>
        <time>2017-01-01T11:25:57Z</time>
      </trkpt>
      <trkpt lat="44.59362" lon="7.1996">
        <ele>1404.83</ele>
        <time>2017-01-01T11:26:04Z</time>
      </trkpt>
      <trkpt lat="44.59443" lon="7.19909">
        <ele>1415.91</ele>
        <time>2017-01-01T11:26:09Z</time>
      </trkpt>
      <trkpt lat="44.59497" lon="7.19838">
        <ele>1420.6</ele>
        <time>2017-01-01T11:26:13Z</time>
      </trkpt>
      <trkpt lat="44.59525" lon="7.19806">
        <ele>1425.35</ele>
        <time>2017-01-01T11:26:15Z</time>
      </trkpt>
      <trkpt lat="44.59458" lon="7.19979">
        <ele>1435.68</ele>
        <time>2017-01-01T11:26:23Z</time>
      </trkpt>
      <trkpt lat="44.59408" lon="7.20154">
        <ele>1448.23</ele>
        <time>2017-01-01T11:26:30Z</time>
      </trkpt>
      <trkpt lat="44.59324" lon="7.20327">
        <ele>1463.85</ele>
        <time>2017-01-01T11:26:38Z</time>
      </trkpt>
      <trkpt lat="44.59389" lon="7.20315">
        <ele>1473.24</ele>
        <time>2017-01-01T11:26:42Z</time>
      </trkpt>
      <trkpt lat="44.59586" lon="7.20114">
        <ele>1503.62</ele>
        <time>2017-01-01T11:26:55Z</time>
      </trkpt>
      <trkpt lat="44.59569" lon="7.20183">
        <ele>1509.07</ele>
        <time>2017-01-01T11:26:58Z</time>
      </trkpt>
      <trkpt lat="44.59594" lon="7.20164">
        <ele>1513.87</ele>
        <time>2017-01-01T11:27:00Z</time>
      </trkpt>
      <trkpt lat="44.59643" lon="7.20072">
        <ele>1519.23</ele>
        <time>2017-01-01T11:27:04Z</time>
      </trkpt>
      <trkpt lat="44.59701" lon="7.20045">
        <ele>1524.27</ele>
        <time>2017-01-01T11:27:07Z</time>
      </trkpt>
      <trkpt lat="44.59785" lon="7.20034">
        <ele>1533.47</ele>
        <time>2017-01-01T11:27:12Z</time>
      </trkpt>
      <trkpt lat="44.59756" lon="7.20095">
        <ele>1538.85</ele>
        <time>2017-01-01T11:27:15Z</time>
      </trkpt>
      <trkpt lat="44.59731" lon="7.20157">
        <ele>1545.89</ele>
        <time>2017-01-01T11:27:18Z</time>
      </trkpt>
      <trkpt lat="44.59701" lon="7.20213">
        <ele>1549.07</ele>
        <time>2017-01-01T11:27:20Z</time>
      </trkpt>
      <trkpt lat="44.59707" lon="7.20257">
        <ele>1551.62</ele>
        <time>2017-01-01T11:27:22Z</time>
      </trkpt>
      <trkpt lat="44.59787" lon="7.2031">
        <ele>1555.97</ele>
        <time>2017-01-01T11:27:27Z</time>
      </trkpt>
      <trkpt lat="44.59861" lon="7.20367">
        <ele>1562.12</ele>
        <time>2017-01-01T11:27:32Z</time>
      </trkpt>
      <trkpt lat="44.59954" lon="7.20483">
        <ele>1572.96</ele>
        <time>2017-01-01T11:27:38Z</time>
      </trkpt>
      <trkpt lat="44.5997" lon="7.20531">
        <ele>1575.35</ele>
        <time>2017-01-01T11:27:40Z</time>
      </trkpt>
      <trkpt lat="44.59991" lon="7.2056">
        <ele>1576.54</ele>
        <time>2017-01-01T11:27:42Z</time>
      </trkpt>
      <trkpt lat="44.59998" lon="7.20602">
        <ele>1576.81</ele>
        <time>2017-01-01T11:27:44Z</time>
      </trkpt>
      <trkpt lat="44.60048" lon="7.20685">
        <ele>1581.82</ele>
        <time>2017-01-01T11:27:48Z</time>
      </trkpt>
      <trkpt lat="44.60072" lon="7.20709">
        <ele>1585.3</ele>
        <time>2017-01-01T11:27:50Z</time>
      </trkpt>
      <trkpt lat="44.60103" lon="7.20807">
        <ele>1586.36</ele>
        <time>2017-01-01T11:27:54Z</time>
      </trkpt>
      <trkpt lat="44.60142" lon="7.20857">
        <ele>1589.92</ele>
        <time>2017-01-01T11:27:57Z</time>
      </trkpt>
      <trkpt lat="44.60168" lon="7.20922">
        <ele>1590.04</ele>
        <time>2017-01-01T11:28:00Z</time>
      </trkpt>
      <trkpt lat="44.60165" lon="7.20937">
        <ele>1591.45</ele>
        <time>2017-01-01T11:28:00Z</time>
      </trkpt>
      <trkpt lat="44.60156" lon="7.20948">
        <ele>1590.6</ele>
        <time>2017-01-01T11:28:01Z</time>
      </trkpt>
      <trkpt lat="44.60123" lon="7.20962">
        <ele>1585.21</ele>
        <time>2017-01-01T11:28:03Z</time>
      </trkpt>
      <trkpt lat="44.60089" lon="7.21036">
        <ele>1589.21</ele>
        <time>2017-01-01T11:28:06Z</time>
      </trkpt>
      <trkpt lat="44.6008" lon="7.21094">
        <ele>1590.9</ele>
        <time>2017-01-01T11:28:08Z</time>
      </trkpt>
      <trkpt lat="44.60063" lon="7.21134">
        <ele>1589.8</ele>
        <time>2017-01-01T11:28:10Z</time>
      </trkpt>
      <trkpt lat="44.60057" lon="7.21163">
        <ele>1591.97</ele>
        <time>2017-01-01T11:28:11Z</time>
      </trkpt>
      <trkpt lat="44.60034" lon="7.2122">
        <ele>1593.17</ele>
        <time>2017-01-01T11:28:14Z</time>
      </trkpt>
      <trkpt lat="44.60049" lon="7.21389">
        <ele>1595.74</ele>
        <time>2017-01-01T11:28:21Z</time>
      </trkpt>
      <trkpt lat="44.6006" lon="7.21403">
        <ele>1600.31</ele>
        <time>2017-01-01T11:28:22Z</time>
      </trkpt>
      <trkpt lat="44.60059" lon="7.21423">
        <ele>1599.07</ele>
        <time>2017-01-01T11:28:22Z</time>
      </trkpt>
      <trkpt lat="44.60053" lon="7.21436">
        <ele>1598.05</ele>
        <time>2017-01-01T11:28:23Z</time>
      </trkpt>
      <trkpt lat="44.60061" lon="7.21522">
        <ele>1600.64</ele>
        <time>2017-01-01T11:28:26Z</time>
      </trkpt>
      <trkpt lat="44.60041" lon="7.21604">
        <ele>1603.48</ele>
        <time>2017-01-01T11:28:30Z</time>
      </trkpt>
      <trkpt lat="44.60017" lon="7.21625">
        <ele>1600.29</ele>
        <time>2017-01-01T11:28:31Z</time>
      </trkpt>
      <trkpt lat="44.6001" lon="7.2165">
        <ele>1602.69</ele>
        <time>2017-01-01T11:28:32Z</time>
      </trkpt>
      <trkpt lat="44.60017" lon="7.21827">
        <ele>1609.21</ele>
        <time>2017-01-01T11:28:39Z</time>
      </trkpt>
      <trkpt lat="44.60032" lon="7.2187">
        <ele>1613.69</ele>
        <time>2017-01-01T11:28:41Z</time>
      </trkpt>
      <trkpt lat="44.6003" lon="7.21891">
        <ele>1612.69</ele>
        <time>2017-01-01T11:28:42Z</time>
      </trkpt>
      <trkpt lat="44.60023" lon="7.21902">
        <ele>1610.56</ele>
        <time>2017-01-01T11:28:42Z</time>
      </trkpt>
      <trkpt lat="44.60024" lon="7.21941">
        <ele>1609.95</ele>
        <time>2017-01-01T11:28:44Z</time>
      </trkpt>
      <trkpt lat="44.60011" lon="7.22032">
        <ele>1608.28</ele>
        <time>2017-01-01T11:28:48Z</time>
      </trkpt>
      <trkpt lat="44.60018" lon="7.22063">
        <ele>1609.03</ele>
        <time>2017-01-01T11:28:49Z</time>
      </trkpt>
      <trkpt lat="44.60031" lon="7.221">
        <ele>1608.22</ele>
        <time>2017-01-01T11:28:50Z</time>
      </trkpt>
      <trkpt lat="44.60053" lon="7.22132">
        <ele>1607.13</ele>
        <time>2017-01-01T11:28:52Z</time>
      </trkpt>
      <trkpt lat="44.60079" lon="7.22152">
        <ele>1607.87</ele>
        <time>2017-01-01T11:28:54Z</time>
      </trkpt>
      <trkpt lat="44.60102" lon="7.22186">
        <ele>1606.04</ele>
        <time>2017-01-01T11:28:56Z</time>
      </trkpt>
      <trkpt lat="44.60122" lon="7.22192">
        <ele>1609.18</ele>
        <time>2017-01-01T11:28:57Z</time>
      </trkpt>
      <trkpt lat="44.60115" lon="7.22231">
        <ele>1607.75</ele>
        <time>2017-01-01T11:28:58Z</time>
      </trkpt>
      <trkpt lat="44.60119" lon="7.22268">
        <ele>1607.33</ele>
        <time>2017-01-01T11:29:00Z</time>
      </trkpt>
      <trkpt lat="44.60143" lon="7.22294">
        <ele>1610.22</ele>
        <time>2017-01-01T11:29:02Z</time>
      </trkpt>
      <trkpt lat="44.60182" lon="7.22347">
        <ele>1612.62</ele>
        <time>2017-01-01T11:29:04Z</time>
      </trkpt>
      <trkpt lat="44.60195" lon="7.22401">
        <ele>1611.38</ele>
        <time>2017-01-01T11:29:07Z</time>
      </trkpt>
      <trkpt lat="44.60203" lon="7.22417">
        <ele>1613.25</ele>
        <time>2017-01-01T11:29:07Z</time>
      </trkpt>
      <trkpt lat="44.60208" lon="7.22441">
        <ele>1614.62</ele>
        <time>2017-01-01T11:29:08Z</time>
      </trkpt>
      <trkpt lat="44.60206" lon="7.22478">
        <ele>1613.28</ele>
        <time>2017-01-01T11:29:10Z</time>
      </trkpt>
      <trkpt lat="44.60215" lon="7.22508">
        <ele>1615.28</ele>
        <time>2017-01-01T11:29:11Z</time>
      </trkpt>
      <trkpt lat="44.60218" lon="7.2254">
        <ele>1614.54</ele>
        <time>2017-01-01T11:29:12Z</time>
      </trkpt>
      <trkpt lat="44.60238" lon="7.22595">
        <ele>1616.64</ele>
        <time>2017-01-01T11:29:15Z</time>
      </trkpt>
      <trkpt lat="44.60245" lon="7.22646">
        <ele>1615.92</ele>
        <time>2017-01-01T11:29:17Z</time>
      </trkpt>
      <trkpt lat="44.60277" lon="7.22772">
        <ele>1620.22</ele>
        <time>2017-01-01T11:29:22Z</time>
      </trkpt>
      <trkpt lat="44.60334" lon="7.2284">
        <ele>1624.57</ele>
        <time>2017-01-01T11:29:26Z</time>
      </trkpt>
      <trkpt lat="44.60344" lon="7.22896">
        <ele>1623.65</ele>
        <time>2017-01-01T11:29:28Z</time>
      </trkpt>
      <trkpt lat="44.60357" lon="7.22945">
        <ele>1626.26</ele>
        <time>2017-01-01T11:29:31Z</time>
      </trkpt>
      <trkpt lat="44.60351" lon="7.22989">
        <ele>1626.21</ele>
        <time>2017-01-01T11:29:32Z</time>
      </trkpt>
      <trkpt lat="44.60356" lon="7.23011">
        <ele>1629.41</ele>
        <time>2017-01-01T11:29:33Z</time>
      </trkpt>
      <trkpt lat="44.60354" lon="7.23023">
        <ele>1628.85</ele>
        <time>2017-01-01T11:29:34Z</time>
      </trkpt>
      <trkpt lat="44.60346" lon="7.23033">
        <ele>1625.99</ele>
        <time>2017-01-01T11:29:34Z</time>
      </trkpt>
      <trkpt lat="44.60346" lon="7.23077">
        <ele>1628.87</ele>
        <time>2017-01-01T11:29:36Z</time>
      </trkpt>
      <trkpt lat="44.60335" lon="7.23123">
        <ele>1629.09</ele>
        <time>2017-01-01T11:29:38Z</time>
      </trkpt>
      <trkpt lat="44.60333" lon="7.23204">
        <ele>1631.92</ele>
        <time>2017-01-01T11:29:41Z</time>
      </trkpt>
      <trkpt lat="44.60339" lon="7.23279">
        <ele>1630.56</ele>
        <time>2017-01-01T11:29:44Z</time>
      </trkpt>
      <trkpt lat="44.60353" lon="7.2333">
        <ele>1630.82</ele>
        <time>2017-01-01T11:29:46Z</time>
      </trkpt>
      <trkpt lat="44.60364" lon="7.23354">
        <ele>1631.92</ele>
        <time>2017-01-01T11:29:47Z</time>
      </trkpt>
      <trkpt lat="44.6036" lon="7.23388">
        <ele>1630.59</ele>
        <time>2017-01-01T11:29:49Z</time>
      </trkpt>
      <trkpt lat="44.60352" lon="7.23422">
        <ele>1631.08</ele>
        <time>2017-01-01T11:29:50Z</time>
      </trkpt>
      <trkpt lat="44.60363" lon="7.23454">
        <ele>1631.87</ele>
        <time>2017-01-01T11:29:51Z</time>
      </trkpt>
      <trkpt lat="44.60379" lon="7.2348">
        <ele>1629.94</ele>
        <time>2017-01-01T11:29:53Z</time>
      </trkpt>
      <trkpt lat="44.60399" lon="7.23492">
        <ele>1628.94</ele>
        <time>2017-01-01T11:29:54Z</time>
      </trkpt>
      <trkpt lat="44.60421" lon="7.23496">
        <ele>1629.74</ele>
        <time>2017-01-01T11:29:55Z</time>
      </trkpt>
      <trkpt lat="44.60502" lon="7.23551">
        <ele>1623.12</ele>
        <time>2017-01-01T11:30:00Z</time>
      </trkpt>
      <trkpt lat="44.6053" lon="7.2358">
        <ele>1620.73</ele>
        <time>2017-01-01T11:30:02Z</time>
      </trkpt>
      <trkpt lat="44.60571" lon="7.23575">
        <ele>1626.84</ele>
        <time>2017-01-01T11:30:04Z</time>
      </trkpt>
      <trkpt lat="44.60598" lon="7.23583">
        <ele>1625.85</ele>
        <time>2017-01-01T11:30:06Z</time>
      </trkpt>
      <trkpt lat="44.60628" lon="7.23583">
        <ele>1629.01</ele>
        <time>2017-01-01T11:30:07Z</time>
      </trkpt>
      <trkpt lat="44.6067" lon="7.2362">
        <ele>1623.23</ele>
        <time>2017-01-01T11:30:10Z</time>
      </trkpt>
      <trkpt lat="44.60733" lon="7.23639">
        <ele>1629.8</ele>
        <time>2017-01-01T11:30:14Z</time>
      </trkpt>
      <trkpt lat="44.60782" lon="7.23702">
        <ele>1635.18</ele>
        <time>2017-01-01T11:30:17Z</time>
      </trkpt>
      <trkpt lat="44.60761" lon="7.23757">
        <ele>1634.51</ele>
        <time>2017-01-01T11:30:20Z</time>
      </trkpt>
      <trkpt lat="44.60709" lon="7.23803">
        <ele>1633.27</ele>
        <time>2017-01-01T11:30:23Z</time>
      </trkpt>
      <trkpt lat="44.60749" lon="7.23878">
        <ele>1644.21</ele>
        <time>2017-01-01T11:30:27Z</time>
      </trkpt>
      <trkpt lat="44.60747" lon="7.23914">
        <ele>1644.29</ele>
        <time>2017-01-01T11:30:28Z</time>
      </trkpt>
      <trkpt lat="44.60702" lon="7.23942">
        <ele>1646.03</ele>
        <time>2017-01-01T11:30:31Z</time>
      </trkpt>
      <trkpt lat="44.60682" lon="7.24067">
        <ele>1650.06</ele>
        <time>2017-01-01T11:30:36Z</time>
      </trkpt>
      <trkpt lat="44.60675" lon="7.24192">
        <ele>1659</ele>
        <time>2017-01-01T11:30:41Z</time>
      </trkpt>
      <trkpt lat="44.60687" lon="7.24286">
        <ele>1666.89</ele>
        <time>2017-01-01T11:30:44Z</time>
      </trkpt>
      <trkpt lat="44.60657" lon="7.24317">
        <ele>1665.64</ele>
        <time>2017-01-01T11:30:46Z</time>
      </trkpt>
      <trkpt lat="44.60654" lon="7.24392">
        <ele>1671.36</ele>
        <time>2017-01-01T11:30:49Z</time>
      </trkpt>
      <trkpt lat="44.60615" lon="7.24428">
        <ele>1673.1</ele>
        <time>2017-01-01T11:30:52Z</time>
      </trkpt>
      <trkpt lat="44.606" lon="7.24474">
        <ele>1678.11</ele>
        <time>2017-01-01T11:30:54Z</time>
      </trkpt>
      <trkpt lat="44.60602" lon="7.24541">
        <ele>1684.08</ele>
        <time>2017-01-01T11:30:56Z</time>
      </trkpt>
      <trkpt lat="44.60559" lon="7.24656">
        <ele>1691.17</ele>
        <time>2017-01-01T11:31:02Z</time>
      </trkpt>
      <trkpt lat="44.60526" lon="7.24718">
        <ele>1692.04</ele>
        <time>2017-01-01T11:31:05Z</time>
      </trkpt>
      <trkpt lat="44.60534" lon="7.24789">
        <ele>1698.47</ele>
        <time>2017-01-01T11:31:07Z</time>
      </trkpt>
      <trkpt lat="44.605" lon="7.24914">
        <ele>1704.56</ele>
        <time>2017-01-01T11:31:13Z</time>
      </trkpt>
      <trkpt lat="44.60504" lon="7.25027">
        <ele>1710.15</ele>
        <time>2017-01-01T11:31:17Z</time>
      </trkpt>
      <trkpt lat="44.60501" lon="7.25066">
        <ele>1710.79</ele>
        <time>2017-01-01T11:31:19Z</time>
      </trkpt>
      <trkpt lat="44.60497" lon="7.25086">
        <ele>1712.12</ele>
        <time>2017-01-01T11:31:19Z</time>
      </trkpt>
      <trkpt lat="44.60504" lon="7.25098">
        <ele>1712.44</ele>
        <time>2017-01-01T11:31:20Z</time>
      </trkpt>
      <trkpt lat="44.60532" lon="7.25086">
        <ele>1710.41</ele>
        <time>2017-01-01T11:31:22Z</time>
      </trkpt>
      <trkpt lat="44.60574" lon="7.25061">
        <ele>1705.57</ele>
        <time>2017-01-01T11:31:24Z</time>
      </trkpt>
      <trkpt lat="44.60682" lon="7.2506">
        <ele>1691.91</ele>
        <time>2017-01-01T11:31:30Z</time>
      </trkpt>
      <trkpt lat="44.60785" lon="7.25059">
        <ele>1684.25</ele>
        <time>2017-01-01T11:31:36Z</time>
      </trkpt>
      <trkpt lat="44.60892" lon="7.25005">
        <ele>1671.77</ele>
        <time>2017-01-01T11:31:42Z</time>
      </trkpt>
      <trkpt lat="44.60974" lon="7.2498">
        <ele>1666.39</ele>
        <time>2017-01-01T11:31:46Z</time>
      </trkpt>
      <trkpt lat="44.61033" lon="7.25014">
        <ele>1655.98</ele>
        <time>2017-01-01T11:31:50Z</time>
      </trkpt>
      <trkpt lat="44.61108" lon="7.25001">
        <ele>1649.98</ele>
        <time>2017-01-01T11:31:54Z</time>
      </trkpt>
      <trkpt lat="44.61263" lon="7.25096">
        <ele>1628.55</ele>
        <time>2017-01-01T11:32:03Z</time>
      </trkpt>
      <trkpt lat="44.61332" lon="7.25158">
        <ele>1619.41</ele>
        <time>2017-01-01T11:32:08Z</time>
      </trkpt>
      <trkpt lat="44.61381" lon="7.25201">
        <ele>1611.24</ele>
        <time>2017-01-01T11:32:11Z</time>
      </trkpt>
      <trkpt lat="44.61443" lon="7.2521">
        <ele>1606.67</ele>
        <time>2017-01-01T11:32:14Z</time>
      </trkpt>
      <trkpt lat="44.6149" lon="7.25166">
        <ele>1601.23</ele>
        <time>2017-01-01T11:32:18Z</time>
      </trkpt>
      <trkpt lat="44.61474" lon="7.25239">
        <ele>1594.32</ele>
        <time>2017-01-01T11:32:21Z</time>
      </trkpt>
      <trkpt lat="44.61455" lon="7.25265">
        <ele>1590.73</ele>
        <time>2017-01-01T11:32:22Z</time>
      </trkpt>
      <trkpt lat="44.61467" lon="7.25265">
        <ele>1589.8</ele>
        <time>2017-01-01T11:32:23Z</time>
      </trkpt>
      <trkpt lat="44.61493" lon="7.25251">
        <ele>1587.45</ele>
        <time>2017-01-01T11:32:24Z</time>
      </trkpt>
      <trkpt lat="44.6158" lon="7.25061">
        <ele>1575.78</ele>
        <time>2017-01-01T11:32:33Z</time>
      </trkpt>
      <trkpt lat="44.61642" lon="7.24981">
        <ele>1566.35</ele>
        <time>2017-01-01T11:32:38Z</time>
      </trkpt>
      <trkpt lat="44.61656" lon="7.24948">
        <ele>1570.23</ele>
        <time>2017-01-01T11:32:39Z</time>
      </trkpt>
      <trkpt lat="44.61665" lon="7.24953">
        <ele>1568.34</ele>
        <time>2017-01-01T11:32:40Z</time>
      </trkpt>
      <trkpt lat="44.61668" lon="7.25019">
        <ele>1557.83</ele>
        <time>2017-01-01T11:32:42Z</time>
      </trkpt>
      <trkpt lat="44.61674" lon="7.25099">
        <ele>1553.38</ele>
        <time>2017-01-01T11:32:45Z</time>
      </trkpt>
      <trkpt lat="44.61691" lon="7.25165">
        <ele>1551.53</ele>
        <time>2017-01-01T11:32:48Z</time>
      </trkpt>
      <trkpt lat="44.61739" lon="7.25214">
        <ele>1548.99</ele>
        <time>2017-01-01T11:32:51Z</time>
      </trkpt>
      <trkpt lat="44.61746" lon="7.25245">
        <ele>1545.16</ele>
        <time>2017-01-01T11:32:53Z</time>
      </trkpt>
      <trkpt lat="44.61751" lon="7.25289">
        <ele>1542.53</ele>
        <time>2017-01-01T11:32:54Z</time>
      </trkpt>
      <trkpt lat="44.61762" lon="7.25341">
        <ele>1535.93</ele>
        <time>2017-01-01T11:32:57Z</time>
      </trkpt>
      <trkpt lat="44.61857" lon="7.2535">
        <ele>1535.37</ele>
        <time>2017-01-01T11:33:02Z</time>
      </trkpt>
      <trkpt lat="44.61935" lon="7.25287">
        <ele>1535.5</ele>
        <time>2017-01-01T11:33:07Z</time>
      </trkpt>
      <trkpt lat="44.61965" lon="7.25246">
        <ele>1538.24</ele>
        <time>2017-01-01T11:33:09Z</time>
      </trkpt>
      <trkpt lat="44.62027" lon="7.25251">
        <ele>1535.55</ele>
        <time>2017-01-01T11:33:12Z</time>
      </trkpt>
      <trkpt lat="44.621" lon="7.25279">
        <ele>1530.27</ele>
        <time>2017-01-01T11:33:16Z</time>
      </trkpt>
      <trkpt lat="44.62139" lon="7.25254">
        <ele>1532.08</ele>
        <time>2017-01-01T11:33:19Z</time>
      </trkpt>
      <trkpt lat="44.62166" lon="7.25247">
        <ele>1532.3</ele>
        <time>2017-01-01T11:33:20Z</time>
      </trkpt>
      <trkpt lat="44.62258" lon="7.25264">
        <ele>1526.09</ele>
        <time>2017-01-01T11:33:25Z</time>
      </trkpt>
      <trkpt lat="44.62319" lon="7.25221">
        <ele>1527.36</ele>
        <time>2017-01-01T11:33:29Z</time>
      </trkpt>
      <trkpt lat="44.62391" lon="7.25226">
        <ele>1524.93</ele>
        <time>2017-01-01T11:33:33Z</time>
      </trkpt>
      <trkpt lat="44.62457" lon="7.25245">
        <ele>1522.97</ele>
        <time>2017-01-01T11:33:37Z</time>
      </trkpt>
      <trkpt lat="44.62468" lon="7.25264">
        <ele>1522.69</ele>
        <time>2017-01-01T11:33:38Z</time>
      </trkpt>
      <trkpt lat="44.6251" lon="7.25251">
        <ele>1521.74</ele>
        <time>2017-01-01T11:33:40Z</time>
      </trkpt>
      <trkpt lat="44.62551" lon="7.25244">
        <ele>1519.97</ele>
        <time>2017-01-01T11:33:42Z</time>
      </trkpt>
      <trkpt lat="44.62579" lon="7.25273">
        <ele>1517.77</ele>
        <time>2017-01-01T11:33:44Z</time>
      </trkpt>
      <trkpt lat="44.62621" lon="7.25292">
        <ele>1513.37</ele>
        <time>2017-01-01T11:33:47Z</time>
      </trkpt>
      <trkpt lat="44.6266" lon="7.25322">
        <ele>1510.57</ele>
        <time>2017-01-01T11:33:49Z</time>
      </trkpt>
      <trkpt lat="44.62728" lon="7.25416">
        <ele>1505.42</ele>
        <time>2017-01-01T11:33:54Z</time>
      </trkpt>
      <trkpt lat="44.62795" lon="7.25471">
        <ele>1503.94</ele>
        <time>2017-01-01T11:33:59Z</time>
      </trkpt>
      <trkpt lat="44.62924" lon="7.25631">
        <ele>1501.57</ele>
        <time>2017-01-01T11:34:08Z</time>
      </trkpt>
      <trkpt lat="44.63015" lon="7.25746">
        <ele>1490.97</ele>
        <time>2017-01-01T11:34:15Z</time>
      </trkpt>
      <trkpt lat="44.63055" lon="7.25853">
        <ele>1494.08</ele>
        <time>2017-01-01T11:34:20Z</time>
      </trkpt>
      <trkpt lat="44.63067" lon="7.25947">
        <ele>1498.57</ele>
        <time>2017-01-01T11:34:23Z</time>
      </trkpt>
      <trkpt lat="44.63082" lon="7.26041">
        <ele>1499.58</ele>
        <time>2017-01-01T11:34:27Z</time>
      </trkpt>
      <trkpt lat="44.63003" lon="7.26122">
        <ele>1497.18</ele>
        <time>2017-01-01T11:34:32Z</time>
      </trkpt>
      <trkpt lat="44.62983" lon="7.26176">
        <ele>1487.03</ele>
        <time>2017-01-01T11:34:35Z</time>
      </trkpt>
      <trkpt lat="44.62901" lon="7.26255">
        <ele>1483.16</ele>
        <time>2017-01-01T11:34:40Z</time>
      </trkpt>
      <trkpt lat="44.62867" lon="7.26334">
        <ele>1475.91</ele>
        <time>2017-01-01T11:34:44Z</time>
      </trkpt>
      <trkpt lat="44.62864" lon="7.26432">
        <ele>1471.91</ele>
        <time>2017-01-01T11:34:48Z</time>
      </trkpt>
      <trkpt lat="44.62831" lon="7.26503">
        <ele>1469.73</ele>
        <time>2017-01-01T11:34:51Z</time>
      </trkpt>
      <trkpt lat="44.62877" lon="7.2659">
        <ele>1465.76</ele>
        <time>2017-01-01T11:34:55Z</time>
      </trkpt>
      <trkpt lat="44.6291" lon="7.26625">
        <ele>1458.42</ele>
        <time>2017-01-01T11:34:57Z</time>
      </trkpt>
      <trkpt lat="44.62919" lon="7.2666">
        <ele>1457.1</ele>
        <time>2017-01-01T11:34:59Z</time>
      </trkpt>
      <trkpt lat="44.62945" lon="7.26677">
        <ele>1451.05</ele>
        <time>2017-01-01T11:35:00Z</time>
      </trkpt>
      <trkpt lat="44.6297" lon="7.26769">
        <ele>1447.9</ele>
        <time>2017-01-01T11:35:04Z</time>
      </trkpt>
      <trkpt lat="44.62966" lon="7.26885">
        <ele>1445.92</ele>
        <time>2017-01-01T11:35:09Z</time>
      </trkpt>
      <trkpt lat="44.62989" lon="7.26957">
        <ele>1440.08</ele>
        <time>2017-01-01T11:35:12Z</time>
      </trkpt>
      <trkpt lat="44.62979" lon="7.27079">
        <ele>1434.32</ele>
        <time>2017-01-01T11:35:17Z</time>
      </trkpt>
      <trkpt lat="44.63001" lon="7.27107">
        <ele>1431.71</ele>
        <time>2017-01-01T11:35:18Z</time>
      </trkpt>
      <trkpt lat="44.63018" lon="7.27125">
        <ele>1429.31</ele>
        <time>2017-01-01T11:35:20Z</time>
      </trkpt>
      <trkpt lat="44.63048" lon="7.27165">
        <ele>1424.92</ele>
        <time>2017-01-01T11:35:22Z</time>
      </trkpt>
      <trkpt lat="44.6308" lon="7.27198">
        <ele>1419.78</ele>
        <time>2017-01-01T11:35:24Z</time>
      </trkpt>
      <trkpt lat="44.63165" lon="7.27227">
        <ele>1412.13</ele>
        <time>2017-01-01T11:35:29Z</time>
      </trkpt>
      <trkpt lat="44.63214" lon="7.27286">
        <ele>1401.04</ele>
        <time>2017-01-01T11:35:32Z</time>
      </trkpt>
      <trkpt lat="44.63266" lon="7.27336">
        <ele>1391.08</ele>
        <time>2017-01-01T11:35:36Z</time>
      </trkpt>
      <trkpt lat="44.63302" lon="7.27328">
        <ele>1382.59</ele>
        <time>2017-01-01T11:35:38Z</time>
      </trkpt>
      <trkpt lat="44.63337" lon="7.27331">
        <ele>1376.54</ele>
        <time>2017-01-01T11:35:40Z</time>
      </trkpt>
      <trkpt lat="44.63367" lon="7.27365">
        <ele>1367.48</ele>
        <time>2017-01-01T11:35:42Z</time>
      </trkpt>
      <trkpt lat="44.63377" lon="7.27441">
        <ele>1359.95</ele>
        <time>2017-01-01T11:35:45Z</time>
      </trkpt>
      <trkpt lat="44.63396" lon="7.2747">
        <ele>1352.35</ele>
        <time>2017-01-01T11:35:46Z</time>
      </trkpt>
      <trkpt lat="44.63403" lon="7.27489">
        <ele>1350.36</ele>
        <time>2017-01-01T11:35:47Z</time>
      </trkpt>
      <trkpt lat="44.63408" lon="7.2751">
        <ele>1349.66</ele>
        <time>2017-01-01T11:35:48Z</time>
      </trkpt>
      <trkpt lat="44.63443" lon="7.2753">
        <ele>1339.97</ele>
        <time>2017-01-01T11:35:50Z</time>
      </trkpt>
      <trkpt lat="44.63466" lon="7.27517">
        <ele>1335.62</ele>
        <time>2017-01-01T11:35:51Z</time>
      </trkpt>
      <trkpt lat="44.63481" lon="7.27486">
        <ele>1328.87</ele>
        <time>2017-01-01T11:35:53Z</time>
      </trkpt>
      <trkpt lat="44.63474" lon="7.27451">
        <ele>1326.25</ele>
        <time>2017-01-01T11:35:54Z</time>
      </trkpt>
      <trkpt lat="44.63488" lon="7.27453">
        <ele>1322.39</ele>
        <time>2017-01-01T11:35:55Z</time>
      </trkpt>
      <trkpt lat="44.63512" lon="7.27493">
        <ele>1318.57</ele>
        <time>2017-01-01T11:35:57Z</time>
      </trkpt>
      <trkpt lat="44.6354" lon="7.27522">
        <ele>1315.07</ele>
        <time>2017-01-01T11:35:59Z</time>
      </trkpt>
      <trkpt lat="44.63557" lon="7.27529">
        <ele>1311.9</ele>
        <time>2017-01-01T11:36:00Z</time>
      </trkpt>
      <trkpt lat="44.63572" lon="7.27522">
        <ele>1306.79</ele>
        <time>2017-01-01T11:36:01Z</time>
      </trkpt>
      <trkpt lat="44.63594" lon="7.2755">
        <ele>1308.48</ele>
        <time>2017-01-01T11:36:02Z</time>
      </trkpt>
      <trkpt lat="44.63607" lon="7.27546">
        <ele>1305.36</ele>
        <time>2017-01-01T11:36:03Z</time>
      </trkpt>
      <trkpt lat="44.63618" lon="7.27528">
        <ele>1301.28</ele>
        <time>2017-01-01T11:36:04Z</time>
      </trkpt>
      <trkpt lat="44.63615" lon="7.27503">
        <ele>1298.06</ele>
        <time>2017-01-01T11:36:05Z</time>
      </trkpt>
      <trkpt lat="44.63588" lon="7.27462">
        <ele>1295.47</ele>
        <time>2017-01-01T11:36:07Z</time>
      </trkpt>
      <trkpt lat="44.63569" lon="7.27397">
        <ele>1286.22</ele>
        <time>2017-01-01T11:36:10Z</time>
      </trkpt>
      <trkpt lat="44.63602" lon="7.27307">
        <ele>1278.41</ele>
        <time>2017-01-01T11:36:14Z</time>
      </trkpt>
      <trkpt lat="44.63611" lon="7.27302">
        <ele>1277.05</ele>
        <time>2017-01-01T11:36:15Z</time>
      </trkpt>
      <trkpt lat="44.63622" lon="7.27308">
        <ele>1273.42</ele>
        <time>2017-01-01T11:36:15Z</time>
      </trkpt>
      <trkpt lat="44.63644" lon="7.27383">
        <ele>1267.62</ele>
        <time>2017-01-01T11:36:18Z</time>
      </trkpt>
      <trkpt lat="44.63657" lon="7.27384">
        <ele>1265.17</ele>
        <time>2017-01-01T11:36:19Z</time>
      </trkpt>
      <trkpt lat="44.63671" lon="7.27384">
        <ele>1262.43</ele>
        <time>2017-01-01T11:36:20Z</time>
      </trkpt>
      <trkpt lat="44.63674" lon="7.27374">
        <ele>1259.88</ele>
        <time>2017-01-01T11:36:20Z</time>
      </trkpt>
      <trkpt lat="44.63663" lon="7.27359">
        <ele>1259.83</ele>
        <time>2017-01-01T11:36:21Z</time>
      </trkpt>
      <trkpt lat="44.63662" lon="7.27335">
        <ele>1257.36</ele>
        <time>2017-01-01T11:36:22Z</time>
      </trkpt>
      <trkpt lat="44.63678" lon="7.27291">
        <ele>1250.78</ele>
        <time>2017-01-01T11:36:24Z</time>
      </trkpt>
      <trkpt lat="44.63686" lon="7.27288">
        <ele>1247.81</ele>
        <time>2017-01-01T11:36:24Z</time>
      </trkpt>
      <trkpt lat="44.63701" lon="7.2731">
        <ele>1243.99</ele>
        <time>2017-01-01T11:36:26Z</time>
      </trkpt>
      <trkpt lat="44.63717" lon="7.2734">
        <ele>1241.79</ele>
        <time>2017-01-01T11:36:27Z</time>
      </trkpt>
      <trkpt lat="44.63751" lon="7.27349">
        <ele>1235.91</ele>
        <time>2017-01-01T11:36:29Z</time>
      </trkpt>
      <trkpt lat="44.6376" lon="7.27342">
        <ele>1233.27</ele>
        <time>2017-01-01T11:36:29Z</time>
      </trkpt>
      <trkpt lat="44.63754" lon="7.27314">
        <ele>1230.45</ele>
        <time>2017-01-01T11:36:31Z</time>
      </trkpt>
      <trkpt lat="44.63749" lon="7.27278">
        <ele>1226.33</ele>
        <time>2017-01-01T11:36:32Z</time>
      </trkpt>
      <trkpt lat="44.63737" lon="7.27252">
        <ele>1225.24</ele>
        <time>2017-01-01T11:36:33Z</time>
      </trkpt>
      <trkpt lat="44.63739" lon="7.27242">
        <ele>1222.62</ele>
        <time>2017-01-01T11:36:34Z</time>
      </trkpt>
      <trkpt lat="44.63753" lon="7.27241">
        <ele>1219.67</ele>
        <time>2017-01-01T11:36:34Z</time>
      </trkpt>
      <trkpt lat="44.63766" lon="7.2723">
        <ele>1215.85</ele>
        <time>2017-01-01T11:36:35Z</time>
      </trkpt>
      <trkpt lat="44.63779" lon="7.27232">
        <ele>1214.52</ele>
        <time>2017-01-01T11:36:36Z</time>
      </trkpt>
      <trkpt lat="44.63856" lon="7.27215">
        <ele>1199.85</ele>
        <time>2017-01-01T11:36:40Z</time>
      </trkpt>
      <trkpt lat="44.63901" lon="7.27234">
        <ele>1191.91</ele>
        <time>2017-01-01T11:36:43Z</time>
      </trkpt>
      <trkpt lat="44.63928" lon="7.27246">
        <ele>1188.21</ele>
        <time>2017-01-01T11:36:44Z</time>
      </trkpt>
      <trkpt lat="44.63958" lon="7.27244">
        <ele>1184.34</ele>
        <time>2017-01-01T11:36:46Z</time>
      </trkpt>
      <trkpt lat="44.63987" lon="7.27258">
        <ele>1182.08</ele>
        <time>2017-01-01T11:36:48Z</time>
      </trkpt>
      <trkpt lat="44.64021" lon="7.2728">
        <ele>1182.12</ele>
        <time>2017-01-01T11:36:50Z</time>
      </trkpt>
      <trkpt lat="44.64044" lon="7.27329">
        <ele>1184.17</ele>
        <time>2017-01-01T11:36:52Z</time>
      </trkpt>
      <trkpt lat="44.6408" lon="7.27364">
        <ele>1178.8</ele>
        <time>2017-01-01T11:36:54Z</time>
      </trkpt>
      <trkpt lat="44.64092" lon="7.27413">
        <ele>1177.39</ele>
        <time>2017-01-01T11:36:56Z</time>
      </trkpt>
      <trkpt lat="44.64093" lon="7.27458">
        <ele>1170.09</ele>
        <time>2017-01-01T11:36:58Z</time>
      </trkpt>
      <trkpt lat="44.64065" lon="7.275">
        <ele>1171.12</ele>
        <time>2017-01-01T11:37:00Z</time>
      </trkpt>
      <trkpt lat="44.64006" lon="7.27545">
        <ele>1171.27</ele>
        <time>2017-01-01T11:37:04Z</time>
      </trkpt>
      <trkpt lat="44.63931" lon="7.27641">
        <ele>1163.56</ele>
        <time>2017-01-01T11:37:10Z</time>
      </trkpt>
      <trkpt lat="44.63933" lon="7.27678">
        <ele>1155.34</ele>
        <time>2017-01-01T11:37:11Z</time>
      </trkpt>
      <trkpt lat="44.63928" lon="7.2771">
        <ele>1151.66</ele>
        <time>2017-01-01T11:37:12Z</time>
      </trkpt>
      <trkpt lat="44.63911" lon="7.27741">
        <ele>1152.5</ele>
        <time>2017-01-01T11:37:14Z</time>
      </trkpt>
      <trkpt lat="44.6392" lon="7.27797">
        <ele>1147.28</ele>
        <time>2017-01-01T11:37:16Z</time>
      </trkpt>
      <trkpt lat="44.63925" lon="7.27876">
        <ele>1144.52</ele>
        <time>2017-01-01T11:37:19Z</time>
      </trkpt>
      <trkpt lat="44.63958" lon="7.27894">
        <ele>1135.74</ele>
        <time>2017-01-01T11:37:21Z</time>
      </trkpt>
      <trkpt lat="44.63978" lon="7.27937">
        <ele>1135.11</ele>
        <time>2017-01-01T11:37:23Z</time>
      </trkpt>
      <trkpt lat="44.63987" lon="7.27996">
        <ele>1130.42</ele>
        <time>2017-01-01T11:37:26Z</time>
      </trkpt>
      <trkpt lat="44.6397" lon="7.28042">
        <ele>1124.96</ele>
        <time>2017-01-01T11:37:28Z</time>
      </trkpt>
      <trkpt lat="44.63979" lon="7.28058">
        <ele>1117.81</ele>
        <time>2017-01-01T11:37:28Z</time>
      </trkpt>
      <trkpt lat="44.63996" lon="7.28046">
        <ele>1115.72</ele>
        <time>2017-01-01T11:37:29Z</time>
      </trkpt>
      <trkpt lat="44.64008" lon="7.28007">
        <ele>1115.51</ele>
        <time>2017-01-01T11:37:31Z</time>
      </trkpt>
      <trkpt lat="44.64028" lon="7.27945">
        <ele>1109.74</ele>
        <time>2017-01-01T11:37:34Z</time>
      </trkpt>
      <trkpt lat="44.64001" lon="7.27856">
        <ele>1103.81</ele>
        <time>2017-01-01T11:37:38Z</time>
      </trkpt>
      <trkpt lat="44.64007" lon="7.27853">
        <ele>1099.69</ele>
        <time>2017-01-01T11:37:38Z</time>
      </trkpt>
      <trkpt lat="44.64053" lon="7.27922">
        <ele>1091.32</ele>
        <time>2017-01-01T11:37:42Z</time>
      </trkpt>
      <trkpt lat="44.64059" lon="7.2796">
        <ele>1088.9</ele>
        <time>2017-01-01T11:37:43Z</time>
      </trkpt>
      <trkpt lat="44.64038" lon="7.28092">
        <ele>1082.09</ele>
        <time>2017-01-01T11:37:48Z</time>
      </trkpt>
      <trkpt lat="44.64031" lon="7.28189">
        <ele>1073.52</ele>
        <time>2017-01-01T11:37:52Z</time>
      </trkpt>
      <trkpt lat="44.64036" lon="7.28217">
        <ele>1070.73</ele>
        <time>2017-01-01T11:37:53Z</time>
      </trkpt>
      <trkpt lat="44.64043" lon="7.28233">
        <ele>1068.84</ele>
        <time>2017-01-01T11:37:54Z</time>
      </trkpt>
      <trkpt lat="44.64094" lon="7.2827">
        <ele>1067.36</ele>
        <time>2017-01-01T11:37:57Z</time>
      </trkpt>
      <trkpt lat="44.64156" lon="7.28327">
        <ele>1067.61</ele>
        <time>2017-01-01T11:38:01Z</time>
      </trkpt>
      <trkpt lat="44.64251" lon="7.28463">
        <ele>1059.46</ele>
        <time>2017-01-01T11:38:09Z</time>
      </trkpt>
      <trkpt lat="44.64279" lon="7.28482">
        <ele>1056.21</ele>
        <time>2017-01-01T11:38:10Z</time>
      </trkpt>
      <trkpt lat="44.64319" lon="7.28478">
        <ele>1053.88</ele>
        <time>2017-01-01T11:38:13Z</time>
      </trkpt>
      <trkpt lat="44.64358" lon="7.28461">
        <ele>1050.68</ele>
        <time>2017-01-01T11:38:15Z</time>
      </trkpt>
      <trkpt lat="44.64382" lon="7.28473">
        <ele>1051.06</ele>
        <time>2017-01-01T11:38:16Z</time>
      </trkpt>
      <trkpt lat="44.64395" lon="7.285">
        <ele>1049.99</ele>
        <time>2017-01-01T11:38:17Z</time>
      </trkpt>
      <trkpt lat="44.64398" lon="7.28538">
        <ele>1049.4</ele>
        <time>2017-01-01T11:38:19Z</time>
      </trkpt>
      <trkpt lat="44.64414" lon="7.28624">
        <ele>1045.24</ele>
        <time>2017-01-01T11:38:22Z</time>
      </trkpt>
      <trkpt lat="44.64438" lon="7.28674">
        <ele>1042.47</ele>
        <time>2017-01-01T11:38:25Z</time>
      </trkpt>
      <trkpt lat="44.64466" lon="7.28707">
        <ele>1040.22</ele>
        <time>2017-01-01T11:38:27Z</time>
      </trkpt>
      <trkpt lat="44.64496" lon="7.28781">
        <ele>1039.85</ele>
        <time>2017-01-01T11:38:30Z</time>
      </trkpt>
      <trkpt lat="44.64538" lon="7.28852">
        <ele>1035.36</ele>
        <time>2017-01-01T11:38:34Z</time>
      </trkpt>
      <trkpt lat="44.64539" lon="7.28865">
        <ele>1032.34</ele>
        <time>2017-01-01T11:38:34Z</time>
      </trkpt>
      <trkpt lat="44.64528" lon="7.28868">
        <ele>1034.29</ele>
        <time>2017-01-01T11:38:35Z</time>
      </trkpt>
      <trkpt lat="44.64472" lon="7.28811">
        <ele>1026.09</ele>
        <time>2017-01-01T11:38:39Z</time>
      </trkpt>
      <trkpt lat="44.64422" lon="7.28749">
        <ele>1020.06</ele>
        <time>2017-01-01T11:38:42Z</time>
      </trkpt>
      <trkpt lat="44.64396" lon="7.28726">
        <ele>1014.72</ele>
        <time>2017-01-01T11:38:44Z</time>
      </trkpt>
      <trkpt lat="44.64367" lon="7.28686">
        <ele>1012.11</ele>
        <time>2017-01-01T11:38:46Z</time>
      </trkpt>
      <trkpt lat="44.64362" lon="7.28695">
        <ele>1008.38</ele>
        <time>2017-01-01T11:38:47Z</time>
      </trkpt>
      <trkpt lat="44.64399" lon="7.28793">
        <ele>1003.34</ele>
        <time>2017-01-01T11:38:51Z</time>
      </trkpt>
      <trkpt lat="44.64406" lon="7.28857">
        <ele>997.14</ele>
        <time>2017-01-01T11:38:53Z</time>
      </trkpt>
      <trkpt lat="44.64449" lon="7.2893">
        <ele>989.29</ele>
        <time>2017-01-01T11:38:57Z</time>
      </trkpt>
      <trkpt lat="44.64486" lon="7.29068">
        <ele>980.95</ele>
        <time>2017-01-01T11:39:03Z</time>
      </trkpt>
      <trkpt lat="44.64513" lon="7.2909">
        <ele>981.78</ele>
        <time>2017-01-01T11:39:05Z</time>
      </trkpt>
      <trkpt lat="44.64556" lon="7.29098">
        <ele>977.21</ele>
        <time>2017-01-01T11:39:07Z</time>
      </trkpt>
      <trkpt lat="44.64559" lon="7.2911">
        <ele>974.88</ele>
        <time>2017-01-01T11:39:07Z</time>
      </trkpt>
      <trkpt lat="44.64557" lon="7.29125">
        <ele>971.64</ele>
        <time>2017-01-01T11:39:08Z</time>
      </trkpt>
      <trkpt lat="44.64494" lon="7.29124">
        <ele>964.79</ele>
        <time>2017-01-01T11:39:11Z</time>
      </trkpt>
      <trkpt lat="44.64462" lon="7.291">
        <ele>963.78</ele>
        <time>2017-01-01T11:39:13Z</time>
      </trkpt>
      <trkpt lat="44.64427" lon="7.28992">
        <ele>963.5</ele>
        <time>2017-01-01T11:39:18Z</time>
      </trkpt>
      <trkpt lat="44.64391" lon="7.29009">
        <ele>946.46</ele>
        <time>2017-01-01T11:39:20Z</time>
      </trkpt>
      <trkpt lat="44.64363" lon="7.28993">
        <ele>949.97</ele>
        <time>2017-01-01T11:39:22Z</time>
      </trkpt>
      <trkpt lat="44.64332" lon="7.2896">
        <ele>948.87</ele>
        <time>2017-01-01T11:39:24Z</time>
      </trkpt>
      <trkpt lat="44.64276" lon="7.28915">
        <ele>940.77</ele>
        <time>2017-01-01T11:39:27Z</time>
      </trkpt>
      <trkpt lat="44.64268" lon="7.28932">
        <ele>936.09</ele>
        <time>2017-01-01T11:39:28Z</time>
      </trkpt>
      <trkpt lat="44.64272" lon="7.28962">
        <ele>930.9</ele>
        <time>2017-01-01T11:39:29Z</time>
      </trkpt>
      <trkpt lat="44.6431" lon="7.29014">
        <ele>922.75</ele>
        <time>2017-01-01T11:39:32Z</time>
      </trkpt>
      <trkpt lat="44.64357" lon="7.29054">
        <ele>922.33</ele>
        <time>2017-01-01T11:39:35Z</time>
      </trkpt>
      <trkpt lat="44.64364" lon="7.29094">
        <ele>916.61</ele>
        <time>2017-01-01T11:39:37Z</time>
      </trkpt>
      <trkpt lat="44.64368" lon="7.29134">
        <ele>916.72</ele>
        <time>2017-01-01T11:39:39Z</time>
      </trkpt>
      <trkpt lat="44.64398" lon="7.29227">
        <ele>907.73</ele>
        <time>2017-01-01T11:39:43Z</time>
      </trkpt>
      <trkpt lat="44.64411" lon="7.29276">
        <ele>902.78</ele>
        <time>2017-01-01T11:39:45Z</time>
      </trkpt>
      <trkpt lat="44.64404" lon="7.29276">
        <ele>900.85</ele>
        <time>2017-01-01T11:39:45Z</time>
      </trkpt>
      <trkpt lat="44.64388" lon="7.29233">
        <ele>902.5</ele>
        <time>2017-01-01T11:39:47Z</time>
      </trkpt>
      <trkpt lat="44.64358" lon="7.2921">
        <ele>898.21</ele>
        <time>2017-01-01T11:39:49Z</time>
      </trkpt>
      <trkpt lat="44.6434" lon="7.29211">
        <ele>893.3</ele>
        <time>2017-01-01T11:39:50Z</time>
      </trkpt>
      <trkpt lat="44.64342" lon="7.29234">
        <ele>889.5</ele>
        <time>2017-01-01T11:39:51Z</time>
      </trkpt>
      <trkpt lat="44.64362" lon="7.29285">
        <ele>885.42</ele>
        <time>2017-01-01T11:39:53Z</time>
      </trkpt>
      <trkpt lat="44.64366" lon="7.29325">
        <ele>881.43</ele>
        <time>2017-01-01T11:39:54Z</time>
      </trkpt>
      <trkpt lat="44.64376" lon="7.29357">
        <ele>877.15</ele>
        <time>2017-01-01T11:39:56Z</time>
      </trkpt>
      <trkpt lat="44.64388" lon="7.29365">
        <ele>875.61</ele>
        <time>2017-01-01T11:39:56Z</time>
      </trkpt>
      <trkpt lat="44.64404" lon="7.29357">
        <ele>870.45</ele>
        <time>2017-01-01T11:39:57Z</time>
      </trkpt>
      <trkpt lat="44.64441" lon="7.29322">
        <ele>873.4</ele>
        <time>2017-01-01T11:40:00Z</time>
      </trkpt>
      <trkpt lat="44.64462" lon="7.29295">
        <ele>877.18</ele>
        <time>2017-01-01T11:40:01Z</time>
      </trkpt>
      <trkpt lat="44.64486" lon="7.29296">
        <ele>874.74</ele>
        <time>2017-01-01T11:40:03Z</time>
      </trkpt>
      <trkpt lat="44.64488" lon="7.29316">
        <ele>866.25</ele>
        <time>2017-01-01T11:40:04Z</time>
      </trkpt>
      <trkpt lat="44.64576" lon="7.29477">
        <ele>868.06</ele>
        <time>2017-01-01T11:40:11Z</time>
      </trkpt>
      <trkpt lat="44.64612" lon="7.29511">
        <ele>865.25</ele>
        <time>2017-01-01T11:40:14Z</time>
      </trkpt>
      <trkpt lat="44.6464" lon="7.295">
        <ele>867.66</ele>
        <time>2017-01-01T11:40:15Z</time>
      </trkpt>
      <trkpt lat="44.64702" lon="7.29176">
        <ele>881.3</ele>
        <time>2017-01-01T11:40:29Z</time>
      </trkpt>
      <trkpt lat="44.64696" lon="7.29086">
        <ele>881.89</ele>
        <time>2017-01-01T11:40:32Z</time>
      </trkpt>
      <trkpt lat="44.64696" lon="7.29024">
        <ele>892.03</ele>
        <time>2017-01-01T11:40:34Z</time>
      </trkpt>
      <trkpt lat="44.64709" lon="7.28982">
        <ele>895.39</ele>
        <time>2017-01-01T11:40:36Z</time>
      </trkpt>
      <trkpt lat="44.64728" lon="7.28953">
        <ele>899.17</ele>
        <time>2017-01-01T11:40:38Z</time>
      </trkpt>
      <trkpt lat="44.64749" lon="7.28947">
        <ele>898.56</ele>
        <time>2017-01-01T11:40:39Z</time>
      </trkpt>
      <trkpt lat="44.64784" lon="7.28955">
        <ele>899.47</ele>
        <time>2017-01-01T11:40:41Z</time>
      </trkpt>
      <trkpt lat="44.64838" lon="7.29019">
        <ele>896.34</ele>
        <time>2017-01-01T11:40:45Z</time>
      </trkpt>
      <trkpt lat="44.64884" lon="7.29039">
        <ele>892.95</ele>
        <time>2017-01-01T11:40:47Z</time>
      </trkpt>
      <trkpt lat="44.64951" lon="7.29046">
        <ele>895.39</ele>
        <time>2017-01-01T11:40:51Z</time>
      </trkpt>
      <trkpt lat="44.65021" lon="7.29055">
        <ele>894.06</ele>
        <time>2017-01-01T11:40:55Z</time>
      </trkpt>
      <trkpt lat="44.65076" lon="7.29065">
        <ele>885.86</ele>
        <time>2017-01-01T11:40:58Z</time>
      </trkpt>
      <trkpt lat="44.65156" lon="7.29027">
        <ele>884.23</ele>
        <time>2017-01-01T11:41:03Z</time>
      </trkpt>
      <trkpt lat="44.65198" lon="7.28963">
        <ele>878.52</ele>
        <time>2017-01-01T11:41:06Z</time>
      </trkpt>
      <trkpt lat="44.65224" lon="7.28919">
        <ele>874.55</ele>
        <time>2017-01-01T11:41:08Z</time>
      </trkpt>
      <trkpt lat="44.65253" lon="7.28889">
        <ele>866.02</ele>
        <time>2017-01-01T11:41:10Z</time>
      </trkpt>
      <trkpt lat="44.65281" lon="7.28903">
        <ele>856.48</ele>
        <time>2017-01-01T11:41:12Z</time>
      </trkpt>
      <trkpt lat="44.653" lon="7.28913">
        <ele>852.34</ele>
        <time>2017-01-01T11:41:13Z</time>
      </trkpt>
      <trkpt lat="44.65319" lon="7.28914">
        <ele>851.37</ele>
        <time>2017-01-01T11:41:14Z</time>
      </trkpt>
      <trkpt lat="44.65376" lon="7.28862">
        <ele>858.36</ele>
        <time>2017-01-01T11:41:18Z</time>
      </trkpt>
      <trkpt lat="44.65407" lon="7.28857">
        <ele>860.01</ele>
        <time>2017-01-01T11:41:19Z</time>
      </trkpt>
      <trkpt lat="44.6547" lon="7.28872">
        <ele>859.12</ele>
        <time>2017-01-01T11:41:23Z</time>
      </trkpt>
      <trkpt lat="44.65484" lon="7.28866">
        <ele>860.14</ele>
        <time>2017-01-01T11:41:24Z</time>
      </trkpt>
      <trkpt lat="44.65492" lon="7.28809">
        <ele>859.14</ele>
        <time>2017-01-01T11:41:26Z</time>
      </trkpt>
      <trkpt lat="44.65483" lon="7.28741">
        <ele>862.03</ele>
        <time>2017-01-01T11:41:29Z</time>
      </trkpt>
      <trkpt lat="44.65457" lon="7.2868">
        <ele>865.61</ele>
        <time>2017-01-01T11:41:32Z</time>
      </trkpt>
      <trkpt lat="44.65421" lon="7.28627">
        <ele>863.4</ele>
        <time>2017-01-01T11:41:34Z</time>
      </trkpt>
      <trkpt lat="44.65379" lon="7.28589">
        <ele>856.84</ele>
        <time>2017-01-01T11:41:37Z</time>
      </trkpt>
      <trkpt lat="44.6533" lon="7.28582">
        <ele>863.39</ele>
        <time>2017-01-01T11:41:40Z</time>
      </trkpt>
      <trkpt lat="44.65285" lon="7.28562">
        <ele>861.27</ele>
        <time>2017-01-01T11:41:42Z</time>
      </trkpt>
      <trkpt lat="44.65218" lon="7.2845">
        <ele>867.35</ele>
        <time>2017-01-01T11:41:48Z</time>
      </trkpt>
      <trkpt lat="44.65185" lon="7.28427">
        <ele>865.85</ele>
        <time>2017-01-01T11:41:50Z</time>
      </trkpt>
      <trkpt lat="44.65156" lon="7.28388">
        <ele>862.59</ele>
        <time>2017-01-01T11:41:52Z</time>
      </trkpt>
      <trkpt lat="44.65125" lon="7.28352">
        <ele>856.62</ele>
        <time>2017-01-01T11:41:55Z</time>
      </trkpt>
      <trkpt lat="44.65117" lon="7.28308">
        <ele>848.79</ele>
        <time>2017-01-01T11:41:56Z</time>
      </trkpt>
      <trkpt lat="44.65084" lon="7.28275">
        <ele>844.32</ele>
        <time>2017-01-01T11:41:59Z</time>
      </trkpt>
      <trkpt lat="44.65072" lon="7.2829">
        <ele>846.28</ele>
        <time>2017-01-01T11:41:59Z</time>
      </trkpt>
      <trkpt lat="44.65055" lon="7.28287">
        <ele>844.64</ele>
        <time>2017-01-01T11:42:00Z</time>
      </trkpt>
      <trkpt lat="44.65049" lon="7.28248">
        <ele>836.85</ele>
        <time>2017-01-01T11:42:02Z</time>
      </trkpt>
      <trkpt lat="44.64991" lon="7.28232">
        <ele>827.89</ele>
        <time>2017-01-01T11:42:05Z</time>
      </trkpt>
      <trkpt lat="44.64958" lon="7.28203">
        <ele>822.8</ele>
        <time>2017-01-01T11:42:07Z</time>
      </trkpt>
      <trkpt lat="44.64914" lon="7.28199">
        <ele>820.56</ele>
        <time>2017-01-01T11:42:10Z</time>
      </trkpt>
      <trkpt lat="44.64873" lon="7.28209">
        <ele>817.61</ele>
        <time>2017-01-01T11:42:12Z</time>
      </trkpt>
      <trkpt lat="44.6482" lon="7.28119">
        <ele>813.22</ele>
        <time>2017-01-01T11:42:17Z</time>
      </trkpt>
      <trkpt lat="44.64795" lon="7.28047">
        <ele>803.11</ele>
        <time>2017-01-01T11:42:20Z</time>
      </trkpt>
      <trkpt lat="44.64783" lon="7.28021">
        <ele>801.66</ele>
        <time>2017-01-01T11:42:21Z</time>
      </trkpt>
      <trkpt lat="44.64782" lon="7.27998">
        <ele>801.73</ele>
        <time>2017-01-01T11:42:22Z</time>
      </trkpt>
      <trkpt lat="44.64807" lon="7.27995">
        <ele>798.77</ele>
        <time>2017-01-01T11:42:23Z</time>
      </trkpt>
      <trkpt lat="44.64837" lon="7.28023">
        <ele>790.47</ele>
        <time>2017-01-01T11:42:25Z</time>
      </trkpt>
      <trkpt lat="44.64859" lon="7.28029">
        <ele>785.65</ele>
        <time>2017-01-01T11:42:26Z</time>
      </trkpt>
      <trkpt lat="44.64881" lon="7.28027">
        <ele>781.52</ele>
        <time>2017-01-01T11:42:28Z</time>
      </trkpt>
      <trkpt lat="44.64909" lon="7.28042">
        <ele>780.95</ele>
        <time>2017-01-01T11:42:29Z</time>
      </trkpt>
      <trkpt lat="44.64937" lon="7.28019">
        <ele>773.5</ele>
        <time>2017-01-01T11:42:31Z</time>
      </trkpt>
      <trkpt lat="44.64971" lon="7.27954">
        <ele>770.43</ele>
        <time>2017-01-01T11:42:34Z</time>
      </trkpt>
      <trkpt lat="44.65014" lon="7.27937">
        <ele>762.96</ele>
        <time>2017-01-01T11:42:37Z</time>
      </trkpt>
      <trkpt lat="44.6505" lon="7.2795">
        <ele>753.92</ele>
        <time>2017-01-01T11:42:39Z</time>
      </trkpt>
      <trkpt lat="44.65089" lon="7.27941">
        <ele>748.57</ele>
        <time>2017-01-01T11:42:41Z</time>
      </trkpt>
      <trkpt lat="44.65127" lon="7.27894">
        <ele>744.37</ele>
        <time>2017-01-01T11:42:44Z</time>
      </trkpt>
      <trkpt lat="44.65039" lon="7.2686">
        <ele>887.01</ele>
        <time>2017-01-01T11:43:24Z</time>
      </trkpt>
      <trkpt lat="44.65845" lon="7.26942">
        <ele>1038.45</ele>
        <time>2017-01-01T11:44:08Z</time>
      </trkpt>
      <trkpt lat="44.65152" lon="7.26333">
        <ele>1089.67</ele>
        <time>2017-01-01T11:44:53Z</time>
      </trkpt>
      <trkpt lat="44.64566" lon="7.25599">
        <ele>1173.55</ele>
        <time>2017-01-01T11:45:36Z</time>
      </trkpt>
      <trkpt lat="44.63718" lon="7.24929">
        <ele>1266.35</ele>
        <time>2017-01-01T11:46:30Z</time>
      </trkpt>
      <trkpt lat="44.63864" lon="7.24629">
        <ele>1346.83</ele>
        <time>2017-01-01T11:46:44Z</time>
      </trkpt>
      <trkpt lat="44.63995" lon="7.24303">
        <ele>1485.01</ele>
        <time>2017-01-01T11:46:58Z</time>
      </trkpt>
      <trkpt lat="44.64044" lon="7.23908">
        <ele>1607.65</ele>
        <time>2017-01-01T11:47:14Z</time>
      </trkpt>
      <trkpt lat="44.6442" lon="7.24281">
        <ele>1517.99</ele>
        <time>2017-01-01T11:47:39Z</time>
      </trkpt>
      <trkpt lat="44.64325" lon="7.24376">
        <ele>1490.71</ele>
        <time>2017-01-01T11:47:46Z</time>
      </trkpt>
      <trkpt lat="44.64637" lon="7.24655">
        <ele>1457.17</ele>
        <time>2017-01-01T11:48:06Z</time>
      </trkpt>
      <trkpt lat="44.65125" lon="7.25358">
        <ele>1383.46</ele>
        <time>2017-01-01T11:48:44Z</time>
      </trkpt>
      <trkpt lat="44.65271" lon="7.25418">
        <ele>1376.58</ele>
        <time>2017-01-01T11:48:53Z</time>
      </trkpt>
      <trkpt lat="44.65073" lon="7.24934">
        <ele>1399.83</ele>
        <time>2017-01-01T11:49:14Z</time>
      </trkpt>
      <trkpt lat="44.64753" lon="7.24337">
        <ele>1418.86</ele>
        <time>2017-01-01T11:49:44Z</time>
      </trkpt>
      <trkpt lat="44.64588" lon="7.23904">
        <ele>1437.55</ele>
        <time>2017-01-01T11:50:03Z</time>
      </trkpt>
      <trkpt lat="44.64616" lon="7.23526">
        <ele>1451.2</ele>
        <time>2017-01-01T11:50:17Z</time>
      </trkpt>
      <trkpt lat="44.64747" lon="7.2344">
        <ele>1455.13</ele>
        <time>2017-01-01T11:50:25Z</time>
      </trkpt>
      <trkpt lat="44.64759" lon="7.2302">
        <ele>1457.38</ele>
        <time>2017-01-01T11:50:42Z</time>
      </trkpt>
      <trkpt lat="44.65125" lon="7.23015">
        <ele>1459.7</ele>
        <time>2017-01-01T11:51:02Z</time>
      </trkpt>
      <trkpt lat="44.65324" lon="7.22633">
        <ele>1482.95</ele>
        <time>2017-01-01T11:51:20Z</time>
      </trkpt>
      <trkpt lat="44.6612" lon="7.23011">
        <ele>1499.45</ele>
        <time>2017-01-01T11:52:06Z</time>
      </trkpt>
      <trkpt lat="44.66859" lon="7.2305">
        <ele>1525.81</ele>
        <time>2017-01-01T11:52:47Z</time>
      </trkpt>
      <trkpt lat="44.67198" lon="7.23466">
        <ele>1547.95</ele>
        <time>2017-01-01T11:53:12Z</time>
      </trkpt>
      <trkpt lat="44.6714" lon="7.22706">
        <ele>1555.09</ele>
        <time>2017-01-01T11:53:41Z</time>
      </trkpt>
      <trkpt lat="44.66581" lon="7.22329">
        <ele>1493.7</ele>
        <time>2017-01-01T11:54:15Z</time>
      </trkpt>
      <trkpt lat="44.67512" lon="7.2202">
        <ele>1400.54</ele>
        <time>2017-01-01T11:55:08Z</time>
      </trkpt>
      <trkpt lat="44.66819" lon="7.21887">
        <ele>1360.56</ele>
        <time>2017-01-01T11:55:46Z</time>
      </trkpt>
      <trkpt lat="44.66789" lon="7.21483">
        <ele>1248.74</ele>
        <time>2017-01-01T11:56:02Z</time>
      </trkpt>
      <trkpt lat="44.65712" lon="7.20899">
        <ele>1250.83</ele>
        <time>2017-01-01T11:57:05Z</time>
      </trkpt>
      <trkpt lat="44.66069" lon="7.20663">
        <ele>1237.04</ele>
        <time>2017-01-01T11:57:27Z</time>
      </trkpt>
      <trkpt lat="44.66108" lon="7.20518">
        <ele>1235.67</ele>
        <time>2017-01-01T11:57:33Z</time>
      </trkpt>
      <trkpt lat="44.66273" lon="7.20616">
        <ele>1222.7</ele>
        <time>2017-01-01T11:57:43Z</time>
      </trkpt>
      <trkpt lat="44.66569" lon="7.20505">
        <ele>1199.9</ele>
        <time>2017-01-01T11:57:59Z</time>
      </trkpt>
      <trkpt lat="44.6671" lon="7.20367">
        <ele>1207.07</ele>
        <time>2017-01-01T11:58:09Z</time>
      </trkpt>
      <trkpt lat="44.67192" lon="7.20161">
        <ele>1203.47</ele>
        <time>2017-01-01T11:58:36Z</time>
      </trkpt>
      <trkpt lat="44.6688" lon="7.19767">
        <ele>1154.28</ele>
        <time>2017-01-01T11:58:59Z</time>
      </trkpt>
      <trkpt lat="44.66853" lon="7.19642">
        <ele>1146.4</ele>
        <time>2017-01-01T11:59:05Z</time>
      </trkpt>
      <trkpt lat="44.6657" lon="7.19374">
        <ele>1109.73</ele>
        <time>2017-01-01T11:59:23Z</time>
      </trkpt>
      <trkpt lat="44.67022" lon="7.19013">
        <ele>1137.62</ele>
        <time>2017-01-01T11:59:52Z</time>
      </trkpt>
      <trkpt lat="44.67363" lon="7.19065">
        <ele>1120.78</ele>
        <time>2017-01-01T12:00:10Z</time>
      </trkpt>
      <trkpt lat="44.67638" lon="7.19365">
        <ele>1084.45</ele>
        <time>2017-01-01T12:00:30Z</time>
      </trkpt>
      <trkpt lat="44.68632" lon="7.20773">
        <ele>895.39</ele>
        <time>2017-01-01T12:01:47Z</time>
      </trkpt>
      <trkpt lat="44.68455" lon="7.22481">
        <ele>839.67</ele>
        <time>2017-01-01T12:02:54Z</time>
      </trkpt>
      <trkpt lat="44.68687" lon="7.23253">
        <ele>750.74</ele>
        <time>2017-01-01T12:03:27Z</time>
      </trkpt>
      <trkpt lat="44.68748" lon="7.23992">
        <ele>729.27</ele>
        <time>2017-01-01T12:03:56Z</time>
      </trkpt>
      <trkpt lat="44.68669" lon="7.24816">
        <ele>696.05</ele>
        <time>2017-01-01T12:04:28Z</time>
      </trkpt>
      <trkpt lat="44.68673" lon="7.27419">
        <ele>619.78</ele>
        <time>2017-01-01T12:06:10Z</time>
      </trkpt>
      <trkpt lat="44.68685" lon="7.27412">
        <ele>622.11</ele>
        <time>2017-01-01T12:06:10Z</time>
      </trkpt>
      <trkpt lat="44.68692" lon="7.2742">
        <ele>622.61</ele>
        <time>2017-01-01T12:06:11Z</time>
      </trkpt>
      <trkpt lat="44.68691" lon="7.27448">
        <ele>622.22</ele>
        <time>2017-01-01T12:06:12Z</time>
      </trkpt>
      <trkpt lat="44.68703" lon="7.27484">
        <ele>623.96</ele>
        <time>2017-01-01T12:06:14Z</time>
      </trkpt>
      <trkpt lat="44.68711" lon="7.27496">
        <ele>624.87</ele>
        <time>2017-01-01T12:06:14Z</time>
      </trkpt>
      <trkpt lat="44.68786" lon="7.27511">
        <ele>632.85</ele>
        <time>2017-01-01T12:06:18Z</time>
      </trkpt>
      <trkpt lat="44.68804" lon="7.27496">
        <ele>637.79</ele>
        <time>2017-01-01T12:06:19Z</time>
      </trkpt>
      <trkpt lat="44.68742" lon="7.2746">
        <ele>638.4</ele>
        <time>2017-01-01T12:06:23Z</time>
      </trkpt>
      <trkpt lat="44.68735" lon="7.27435">
        <ele>641.4</ele>
        <time>2017-01-01T12:06:24Z</time>
      </trkpt>
      <trkpt lat="44.6874" lon="7.27423">
        <ele>645.04</ele>
        <time>2017-01-01T12:06:25Z</time>
      </trkpt>
      <trkpt lat="44.68777" lon="7.27441">
        <ele>647.67</ele>
        <time>2017-01-01T12:06:27Z</time>
      </trkpt>
      <trkpt lat="44.6884" lon="7.27429">
        <ele>652.29</ele>
        <time>2017-01-01T12:06:30Z</time>
      </trkpt>
      <trkpt lat="44.68765" lon="7.27379">
        <ele>658.54</ele>
        <time>2017-01-01T12:06:35Z</time>
      </trkpt>
      <trkpt lat="44.68776" lon="7.27319">
        <ele>664.44</ele>
        <time>2017-01-01T12:06:37Z</time>
      </trkpt>
      <trkpt lat="44.68806" lon="7.27209">
        <ele>672.84</ele>
        <time>2017-01-01T12:06:42Z</time>
      </trkpt>
      <trkpt lat="44.68811" lon="7.2716">
        <ele>673.72</ele>
        <time>2017-01-01T12:06:44Z</time>
      </trkpt>
      <trkpt lat="44.68823" lon="7.27169">
        <ele>680.11</ele>
        <time>2017-01-01T12:06:44Z</time>
      </trkpt>
      <trkpt lat="44.68819" lon="7.27191">
        <ele>679.42</ele>
        <time>2017-01-01T12:06:45Z</time>
      </trkpt>
      <trkpt lat="44.68816" lon="7.27285">
        <ele>683.67</ele>
        <time>2017-01-01T12:06:49Z</time>
      </trkpt>
      <trkpt lat="44.68824" lon="7.27306">
        <ele>686.53</ele>
        <time>2017-01-01T12:06:50Z</time>
      </trkpt>
      <trkpt lat="44.68903" lon="7.27309">
        <ele>693.27</ele>
        <time>2017-01-01T12:06:54Z</time>
      </trkpt>
      <trkpt lat="44.68916" lon="7.27305">
        <ele>695.13</ele>
        <time>2017-01-01T12:06:55Z</time>
      </trkpt>
      <trkpt lat="44.68914" lon="7.2729">
        <ele>697.34</ele>
        <time>2017-01-01T12:06:56Z</time>
      </trkpt>
      <trkpt lat="44.68874" lon="7.27279">
        <ele>700.1</ele>
        <time>2017-01-01T12:06:58Z</time>
      </trkpt>
      <trkpt lat="44.6885" lon="7.27247">
        <ele>698.63</ele>
        <time>2017-01-01T12:07:00Z</time>
      </trkpt>
      <trkpt lat="44.68864" lon="7.27188">
        <ele>703.26</ele>
        <time>2017-01-01T12:07:02Z</time>
      </trkpt>
      <trkpt lat="44.68899" lon="7.27132">
        <ele>712.04</ele>
        <time>2017-01-01T12:07:05Z</time>
      </trkpt>
      <trkpt lat="44.68901" lon="7.27108">
        <ele>714.95</ele>
        <time>2017-01-01T12:07:06Z</time>
      </trkpt>
      <trkpt lat="44.68884" lon="7.27082">
        <ele>713.1</ele>
        <time>2017-01-01T12:07:07Z</time>
      </trkpt>
      <trkpt lat="44.68891" lon="7.27069">
        <ele>716.3</ele>
        <time>2017-01-01T12:07:08Z</time>
      </trkpt>
      <trkpt lat="44.68906" lon="7.27088">
        <ele>719.31</ele>
        <time>2017-01-01T12:07:09Z</time>
      </trkpt>
      <trkpt lat="44.68917" lon="7.27169">
        <ele>720.8</ele>
        <time>2017-01-01T12:07:12Z</time>
      </trkpt>
      <trkpt lat="44.6893" lon="7.27106">
        <ele>727.14</ele>
        <time>2017-01-01T12:07:15Z</time>
      </trkpt>
      <trkpt lat="44.68883" lon="7.26963">
        <ele>731.84</ele>
        <time>2017-01-01T12:07:21Z</time>
      </trkpt>
      <trkpt lat="44.6888" lon="7.26924">
        <ele>733.98</ele>
        <time>2017-01-01T12:07:23Z</time>
      </trkpt>
      <trkpt lat="44.68888" lon="7.26897">
        <ele>736.07</ele>
        <time>2017-01-01T12:07:24Z</time>
      </trkpt>
      <trkpt lat="44.68901" lon="7.2695">
        <ele>739.67</ele>
        <time>2017-01-01T12:07:26Z</time>
      </trkpt>
      <trkpt lat="44.68927" lon="7.27007">
        <ele>742.65</ele>
        <time>2017-01-01T12:07:28Z</time>
      </trkpt>
      <trkpt lat="44.68962" lon="7.27043">
        <ele>746.25</ele>
        <time>2017-01-01T12:07:31Z</time>
      </trkpt>
      <trkpt lat="44.68985" lon="7.26999">
        <ele>752.38</ele>
        <time>2017-01-01T12:07:33Z</time>
      </trkpt>
      <trkpt lat="44.69014" lon="7.26968">
        <ele>755.67</ele>
        <time>2017-01-01T12:07:35Z</time>
      </trkpt>
      <trkpt lat="44.69047" lon="7.26931">
        <ele>758.43</ele>
        <time>2017-01-01T12:07:37Z</time>
      </trkpt>
      <trkpt lat="44.69081" lon="7.26937">
        <ele>764.71</ele>
        <time>2017-01-01T12:07:39Z</time>
      </trkpt>
      <trkpt lat="44.69099" lon="7.2697">
        <ele>764.43</ele>
        <time>2017-01-01T12:07:41Z</time>
      </trkpt>
      <trkpt lat="44.6915" lon="7.26975">
        <ele>768.85</ele>
        <time>2017-01-01T12:07:44Z</time>
      </trkpt>
      <trkpt lat="44.6918" lon="7.26939">
        <ele>776.12</ele>
        <time>2017-01-01T12:07:46Z</time>
      </trkpt>
      <trkpt lat="44.69234" lon="7.26968">
        <ele>775.32</ele>
        <time>2017-01-01T12:07:49Z</time>
      </trkpt>
      <trkpt lat="44.69238" lon="7.26947">
        <ele>780.57</ele>
        <time>2017-01-01T12:07:50Z</time>
      </trkpt>
      <trkpt lat="44.69153" lon="7.26899">
        <ele>783.15</ele>
        <time>2017-01-01T12:07:55Z</time>
      </trkpt>
      <trkpt lat="44.69162" lon="7.26882">
        <ele>786.36</ele>
        <time>2017-01-01T12:07:56Z</time>
      </trkpt>
      <trkpt lat="44.69189" lon="7.2689">
        <ele>790.58</ele>
        <time>2017-01-01T12:07:57Z</time>
      </trkpt>
      <trkpt lat="44.69222" lon="7.26894">
        <ele>795.02</ele>
        <time>2017-01-01T12:07:59Z</time>
      </trkpt>
      <trkpt lat="44.69329" lon="7.26929">
        <ele>801.88</ele>
        <time>2017-01-01T12:08:05Z</time>
      </trkpt>
      <trkpt lat="44.69376" lon="7.26903">
        <ele>812.29</ele>
        <time>2017-01-01T12:08:08Z</time>
      </trkpt>
      <trkpt lat="44.69409" lon="7.2695">
        <ele>812.76</ele>
        <time>2017-01-01T12:08:10Z</time>
      </trkpt>
      <trkpt lat="44.69436" lon="7.26923">
        <ele>818.22</ele>
        <time>2017-01-01T12:08:12Z</time>
      </trkpt>
      <trkpt lat="44.69448" lon="7.26885">
        <ele>821.72</ele>
        <time>2017-01-01T12:08:14Z</time>
      </trkpt>
      <trkpt lat="44.69424" lon="7.26911">
        <ele>822.54</ele>
        <time>2017-01-01T12:08:15Z</time>
      </trkpt>
      <trkpt lat="44.69405" lon="7.26888">
        <ele>823.73</ele>
        <time>2017-01-01T12:08:17Z</time>
      </trkpt>
      <trkpt lat="44.69388" lon="7.26851">
        <ele>829.6</ele>
        <time>2017-01-01T12:08:18Z</time>
      </trkpt>
      <trkpt lat="44.69336" lon="7.26852">
        <ele>832.56</ele>
        <time>2017-01-01T12:08:21Z</time>
      </trkpt>
      <trkpt lat="44.69332" lon="7.26831">
        <ele>837.36</ele>
        <time>2017-01-01T12:08:22Z</time>
      </trkpt>
      <trkpt lat="44.69377" lon="7.26815">
        <ele>839.84</ele>
        <time>2017-01-01T12:08:25Z</time>
      </trkpt>
      <trkpt lat="44.69422" lon="7.26824">
        <ele>841.04</ele>
        <time>2017-01-01T12:08:27Z</time>
      </trkpt>
      <trkpt lat="44.69425" lon="7.26804">
        <ele>845.47</ele>
        <time>2017-01-01T12:08:28Z</time>
      </trkpt>
      <trkpt lat="44.69345" lon="7.26776">
        <ele>851.1</ele>
        <time>2017-01-01T12:08:32Z</time>
      </trkpt>
      <trkpt lat="44.69299" lon="7.26775">
        <ele>851.03</ele>
        <time>2017-01-01T12:08:35Z</time>
      </trkpt>
      <trkpt lat="44.69302" lon="7.26754">
        <ele>855.09</ele>
        <time>2017-01-01T12:08:36Z</time>
      </trkpt>
      <trkpt lat="44.69357" lon="7.2675">
        <ele>859.03</ele>
        <time>2017-01-01T12:08:39Z</time>
      </trkpt>
      <trkpt lat="44.69408" lon="7.2674">
        <ele>861.08</ele>
        <time>2017-01-01T12:08:42Z</time>
      </trkpt>
      <trkpt lat="44.69408" lon="7.26717">
        <ele>864.97</ele>
        <time>2017-01-01T12:08:43Z</time>
      </trkpt>
      <trkpt lat="44.69348" lon="7.26719">
        <ele>866.95</ele>
        <time>2017-01-01T12:08:46Z</time>
      </trkpt>
      <trkpt lat="44.69344" lon="7.26687">
        <ele>868.91</ele>
        <time>2017-01-01T12:08:47Z</time>
      </trkpt>
      <trkpt lat="44.69375" lon="7.26623">
        <ele>875.19</ele>
        <time>2017-01-01T12:08:50Z</time>
      </trkpt>
      <trkpt lat="44.69392" lon="7.26604">
        <ele>878.53</ele>
        <time>2017-01-01T12:08:51Z</time>
      </trkpt>
      <trkpt lat="44.69423" lon="7.26533">
        <ele>886.97</ele>
        <time>2017-01-01T12:08:55Z</time>
      </trkpt>
      <trkpt lat="44.69415" lon="7.26517">
        <ele>887.12</ele>
        <time>2017-01-01T12:08:55Z</time>
      </trkpt>
      <trkpt lat="44.69381" lon="7.26505">
        <ele>886.06</ele>
        <time>2017-01-01T12:08:57Z</time>
      </trkpt>
      <trkpt lat="44.69363" lon="7.26444">
        <ele>887.67</ele>
        <time>2017-01-01T12:09:00Z</time>
      </trkpt>
      <trkpt lat="44.69366" lon="7.26352">
        <ele>893.32</ele>
        <time>2017-01-01T12:09:03Z</time>
      </trkpt>
      <trkpt lat="44.69393" lon="7.26283">
        <ele>895.31</ele>
        <time>2017-01-01T12:09:07Z</time>
      </trkpt>
      <trkpt lat="44.69469" lon="7.26246">
        <ele>900.55</ele>
        <time>2017-01-01T12:09:11Z</time>
      </trkpt>
      <trkpt lat="44.6951" lon="7.26259">
        <ele>905.15</ele>
        <time>2017-01-01T12:09:13Z</time>
      </trkpt>
      <trkpt lat="44.6959" lon="7.26245">
        <ele>911.61</ele>
        <time>2017-01-01T12:09:18Z</time>
      </trkpt>
      <trkpt lat="44.69609" lon="7.26195">
        <ele>912.07</ele>
        <time>2017-01-01T12:09:20Z</time>
      </trkpt>
      <trkpt lat="44.69647" lon="7.26175">
        <ele>908.47</ele>
        <time>2017-01-01T12:09:22Z</time>
      </trkpt>
      <trkpt lat="44.69692" lon="7.2624">
        <ele>911.68</ele>
        <time>2017-01-01T12:09:26Z</time>
      </trkpt>
      <trkpt lat="44.69776" lon="7.2641">
        <ele>918.94</ele>
        <time>2017-01-01T12:09:34Z</time>
      </trkpt>
      <trkpt lat="44.69821" lon="7.26458">
        <ele>922.94</ele>
        <time>2017-01-01T12:09:37Z</time>
      </trkpt>
      <trkpt lat="44.69831" lon="7.26441">
        <ele>925.81</ele>
        <time>2017-01-01T12:09:38Z</time>
      </trkpt>
      <trkpt lat="44.69848" lon="7.26349">
        <ele>930.01</ele>
        <time>2017-01-01T12:09:41Z</time>
      </trkpt>
      <trkpt lat="44.69895" lon="7.26452">
        <ele>938.3</ele>
        <time>2017-01-01T12:09:46Z</time>
      </trkpt>
      <trkpt lat="44.69895" lon="7.26336">
        <ele>945.73</ele>
        <time>2017-01-01T12:09:51Z</time>
      </trkpt>
      <trkpt lat="44.69965" lon="7.26183">
        <ele>959.19</ele>
        <time>2017-01-01T12:09:58Z</time>
      </trkpt>
      <trkpt lat="44.70049" lon="7.26186">
        <ele>964.89</ele>
        <time>2017-01-01T12:10:02Z</time>
      </trkpt>
      <trkpt lat="44.70103" lon="7.26235">
        <ele>974.66</ele>
        <time>2017-01-01T12:10:06Z</time>
      </trkpt>
      <trkpt lat="44.70146" lon="7.26293">
        <ele>979.92</ele>
        <time>2017-01-01T12:10:09Z</time>
      </trkpt>
      <trkpt lat="44.70187" lon="7.263">
        <ele>983.16</ele>
        <time>2017-01-01T12:10:11Z</time>
      </trkpt>
      <trkpt lat="44.70213" lon="7.26288">
        <ele>985.73</ele>
        <time>2017-01-01T12:10:13Z</time>
      </trkpt>
      <trkpt lat="44.70232" lon="7.26204">
        <ele>993.89</ele>
        <time>2017-01-01T12:10:16Z</time>
      </trkpt>
      <trkpt lat="44.70205" lon="7.26159">
        <ele>992.28</ele>
        <time>2017-01-01T12:10:19Z</time>
      </trkpt>
      <trkpt lat="44.70203" lon="7.26121">
        <ele>994.23</ele>
        <time>2017-01-01T12:10:20Z</time>
      </trkpt>
      <trkpt lat="44.70248" lon="7.26097">
        <ele>997.14</ele>
        <time>2017-01-01T12:10:23Z</time>
      </trkpt>
      <trkpt lat="44.70264" lon="7.26081">
        <ele>999.85</ele>
        <time>2017-01-01T12:10:24Z</time>
      </trkpt>
      <trkpt lat="44.70269" lon="7.26044">
        <ele>999.09</ele>
        <time>2017-01-01T12:10:25Z</time>
      </trkpt>
      <trkpt lat="44.7028" lon="7.26031">
        <ele>1001.36</ele>
        <time>2017-01-01T12:10:26Z</time>
      </trkpt>
      <trkpt lat="44.70352" lon="7.26039">
        <ele>1010.54</ele>
        <time>2017-01-01T12:10:30Z</time>
      </trkpt>
      <trkpt lat="44.70387" lon="7.26003">
        <ele>1015.2</ele>
        <time>2017-01-01T12:10:32Z</time>
      </trkpt>
      <trkpt lat="44.70426" lon="7.25982">
        <ele>1018.57</ele>
        <time>2017-01-01T12:10:35Z</time>
      </trkpt>
      <trkpt lat="44.70462" lon="7.25972">
        <ele>1022.7</ele>
        <time>2017-01-01T12:10:37Z</time>
      </trkpt>
      <trkpt lat="44.70473" lon="7.25953">
        <ele>1023.86</ele>
        <time>2017-01-01T12:10:38Z</time>
      </trkpt>
      <trkpt lat="44.70521" lon="7.25933">
        <ele>1032.93</ele>
        <time>2017-01-01T12:10:40Z</time>
      </trkpt>
      <trkpt lat="44.70569" lon="7.25907">
        <ele>1044.19</ele>
        <time>2017-01-01T12:10:43Z</time>
      </trkpt>
      <trkpt lat="44.70599" lon="7.25845">
        <ele>1048.53</ele>
        <time>2017-01-01T12:10:46Z</time>
      </trkpt>
      <trkpt lat="44.70612" lon="7.25819">
        <ele>1049.62</ele>
        <time>2017-01-01T12:10:47Z</time>
      </trkpt>
      <trkpt lat="44.70685" lon="7.25804">
        <ele>1053.9</ele>
        <time>2017-01-01T12:10:51Z</time>
      </trkpt>
      <trkpt lat="44.70685" lon="7.25821">
        <ele>1058.43</ele>
        <time>2017-01-01T12:10:52Z</time>
      </trkpt>
      <trkpt lat="44.70665" lon="7.2583">
        <ele>1057.89</ele>
        <time>2017-01-01T12:10:53Z</time>
      </trkpt>
      <trkpt lat="44.70648" lon="7.25853">
        <ele>1062.52</ele>
        <time>2017-01-01T12:10:54Z</time>
      </trkpt>
      <trkpt lat="44.7063" lon="7.25871">
        <ele>1063.1</ele>
        <time>2017-01-01T12:10:56Z</time>
      </trkpt>
      <trkpt lat="44.70617" lon="7.25924">
        <ele>1070.86</ele>
        <time>2017-01-01T12:10:58Z</time>
      </trkpt>
      <trkpt lat="44.70589" lon="7.25988">
        <ele>1072.53</ele>
        <time>2017-01-01T12:11:01Z</time>
      </trkpt>
      <trkpt lat="44.70599" lon="7.26006">
        <ele>1081.1</ele>
        <time>2017-01-01T12:11:02Z</time>
      </trkpt>
      <trkpt lat="44.70637" lon="7.25964">
        <ele>1087.2</ele>
        <time>2017-01-01T12:11:04Z</time>
      </trkpt>
      <trkpt lat="44.70651" lon="7.25936">
        <ele>1085.42</ele>
        <time>2017-01-01T12:11:06Z</time>
      </trkpt>
      <trkpt lat="44.70673" lon="7.25928">
        <ele>1089.24</ele>
        <time>2017-01-01T12:11:07Z</time>
      </trkpt>
      <trkpt lat="44.70713" lon="7.25941">
        <ele>1093.96</ele>
        <time>2017-01-01T12:11:09Z</time>
      </trkpt>
      <trkpt lat="44.70744" lon="7.2593">
        <ele>1097.79</ele>
        <time>2017-01-01T12:11:11Z</time>
      </trkpt>
      <trkpt lat="44.70763" lon="7.25902">
        <ele>1100.11</ele>
        <time>2017-01-01T12:11:12Z</time>
      </trkpt>
      <trkpt lat="44.70804" lon="7.25862">
        <ele>1104.68</ele>
        <time>2017-01-01T12:11:15Z</time>
      </trkpt>
      <trkpt lat="44.70813" lon="7.25867">
        <ele>1108.53</ele>
        <time>2017-01-01T12:11:16Z</time>
      </trkpt>
      <trkpt lat="44.70808" lon="7.25906">
        <ele>1114.16</ele>
        <time>2017-01-01T12:11:17Z</time>
      </trkpt>
      <trkpt lat="44.70781" lon="7.2595">
        <ele>1115.68</ele>
        <time>2017-01-01T12:11:19Z</time>
      </trkpt>
      <trkpt lat="44.70769" lon="7.26022">
        <ele>1123.47</ele>
        <time>2017-01-01T12:11:22Z</time>
      </trkpt>
      <trkpt lat="44.70744" lon="7.26116">
        <ele>1132.38</ele>
        <time>2017-01-01T12:11:26Z</time>
      </trkpt>
      <trkpt lat="44.70718" lon="7.26185">
        <ele>1137.92</ele>
        <time>2017-01-01T12:11:29Z</time>
      </trkpt>
      <trkpt lat="44.70696" lon="7.26242">
        <ele>1142.47</ele>
        <time>2017-01-01T12:11:32Z</time>
      </trkpt>
      <trkpt lat="44.70692" lon="7.26289">
        <ele>1147.3</ele>
        <time>2017-01-01T12:11:34Z</time>
      </trkpt>
      <trkpt lat="44.70676" lon="7.26323">
        <ele>1147.91</ele>
        <time>2017-01-01T12:11:35Z</time>
      </trkpt>
      <trkpt lat="44.7068" lon="7.2634">
        <ele>1150.18</ele>
        <time>2017-01-01T12:11:36Z</time>
      </trkpt>
      <trkpt lat="44.70698" lon="7.26341">
        <ele>1153.69</ele>
        <time>2017-01-01T12:11:37Z</time>
      </trkpt>
      <trkpt lat="44.70714" lon="7.26332">
        <ele>1156.07</ele>
        <time>2017-01-01T12:11:38Z</time>
      </trkpt>
      <trkpt lat="44.7074" lon="7.26254">
        <ele>1160.1</ele>
        <time>2017-01-01T12:11:41Z</time>
      </trkpt>
      <trkpt lat="44.70755" lon="7.26223">
        <ele>1159.07</ele>
        <time>2017-01-01T12:11:43Z</time>
      </trkpt>
      <trkpt lat="44.70789" lon="7.262">
        <ele>1166.04</ele>
        <time>2017-01-01T12:11:45Z</time>
      </trkpt>
      <trkpt lat="44.70827" lon="7.26179">
        <ele>1172.43</ele>
        <time>2017-01-01T12:11:47Z</time>
      </trkpt>
      <trkpt lat="44.7083" lon="7.26196">
        <ele>1174.5</ele>
        <time>2017-01-01T12:11:48Z</time>
      </trkpt>
      <trkpt lat="44.70819" lon="7.2623">
        <ele>1176.86</ele>
        <time>2017-01-01T12:11:49Z</time>
      </trkpt>
      <trkpt lat="44.70812" lon="7.26267">
        <ele>1179.93</ele>
        <time>2017-01-01T12:11:51Z</time>
      </trkpt>
      <trkpt lat="44.70815" lon="7.2641">
        <ele>1182.5</ele>
        <time>2017-01-01T12:11:56Z</time>
      </trkpt>
      <trkpt lat="44.70763" lon="7.26523">
        <ele>1192.43</ele>
        <time>2017-01-01T12:12:01Z</time>
      </trkpt>
      <trkpt lat="44.70745" lon="7.26606">
        <ele>1197.34</ele>
        <time>2017-01-01T12:12:05Z</time>
      </trkpt>
      <trkpt lat="44.70744" lon="7.26639">
        <ele>1199.95</ele>
        <time>2017-01-01T12:12:06Z</time>
      </trkpt>
      <trkpt lat="44.70763" lon="7.26649">
        <ele>1199.58</ele>
        <time>2017-01-01T12:12:07Z</time>
      </trkpt>
      <trkpt lat="44.70782" lon="7.26639">
        <ele>1198.29</ele>
        <time>2017-01-01T12:12:08Z</time>
      </trkpt>
      <trkpt lat="44.70808" lon="7.26582">
        <ele>1206.32</ele>
        <time>2017-01-01T12:12:11Z</time>
      </trkpt>
      <trkpt lat="44.70843" lon="7.26544">
        <ele>1212.93</ele>
        <time>2017-01-01T12:12:13Z</time>
      </trkpt>
      <trkpt lat="44.70908" lon="7.26528">
        <ele>1225.36</ele>
        <time>2017-01-01T12:12:17Z</time>
      </trkpt>
      <trkpt lat="44.70935" lon="7.26507">
        <ele>1230.89</ele>
        <time>2017-01-01T12:12:19Z</time>
      </trkpt>
      <trkpt lat="44.70963" lon="7.26485">
        <ele>1236.26</ele>
        <time>2017-01-01T12:12:20Z</time>
      </trkpt>
      <trkpt lat="44.70975" lon="7.2648">
        <ele>1237.73</ele>
        <time>2017-01-01T12:12:21Z</time>
      </trkpt>
      <trkpt lat="44.70972" lon="7.26466">
        <ele>1240.42</ele>
        <time>2017-01-01T12:12:22Z</time>
      </trkpt>
      <trkpt lat="44.70947" lon="7.26456">
        <ele>1241.99</ele>
        <time>2017-01-01T12:12:23Z</time>
      </trkpt>
      <trkpt lat="44.70931" lon="7.26441">
        <ele>1242.56</ele>
        <time>2017-01-01T12:12:24Z</time>
      </trkpt>
      <trkpt lat="44.70927" lon="7.26416">
        <ele>1244.85</ele>
        <time>2017-01-01T12:12:25Z</time>
      </trkpt>
      <trkpt lat="44.70932" lon="7.26385">
        <ele>1247.42</ele>
        <time>2017-01-01T12:12:26Z</time>
      </trkpt>
      <trkpt lat="44.70951" lon="7.26319">
        <ele>1251.28</ele>
        <time>2017-01-01T12:12:29Z</time>
      </trkpt>
      <trkpt lat="44.70974" lon="7.26283">
        <ele>1254.67</ele>
        <time>2017-01-01T12:12:31Z</time>
      </trkpt>
      <trkpt lat="44.71004" lon="7.26263">
        <ele>1259.14</ele>
        <time>2017-01-01T12:12:33Z</time>
      </trkpt>
      <trkpt lat="44.71017" lon="7.2627">
        <ele>1264.9</ele>
        <time>2017-01-01T12:12:34Z</time>
      </trkpt>
      <trkpt lat="44.70989" lon="7.2631">
        <ele>1263.95</ele>
        <time>2017-01-01T12:12:36Z</time>
      </trkpt>
      <trkpt lat="44.70976" lon="7.26336">
        <ele>1265.06</ele>
        <time>2017-01-01T12:12:37Z</time>
      </trkpt>
      <trkpt lat="44.70972" lon="7.26365">
        <ele>1264.38</ele>
        <time>2017-01-01T12:12:38Z</time>
      </trkpt>
      <trkpt lat="44.70977" lon="7.26371">
        <ele>1264.18</ele>
        <time>2017-01-01T12:12:39Z</time>
      </trkpt>
      <trkpt lat="44.71044" lon="7.26352">
        <ele>1271.87</ele>
        <time>2017-01-01T12:12:42Z</time>
      </trkpt>
      <trkpt lat="44.7111" lon="7.26348">
        <ele>1280.01</ele>
        <time>2017-01-01T12:12:46Z</time>
      </trkpt>
      <trkpt lat="44.71131" lon="7.26363">
        <ele>1278.81</ele>
        <time>2017-01-01T12:12:47Z</time>
      </trkpt>
      <trkpt lat="44.7115" lon="7.26365">
        <ele>1280.35</ele>
        <time>2017-01-01T12:12:48Z</time>
      </trkpt>
      <trkpt lat="44.71206" lon="7.26334">
        <ele>1287.66</ele>
        <time>2017-01-01T12:12:52Z</time>
      </trkpt>
      <trkpt lat="44.71264" lon="7.26316">
        <ele>1294.38</ele>
        <time>2017-01-01T12:12:55Z</time>
      </trkpt>
      <trkpt lat="44.7132" lon="7.26329">
        <ele>1299.66</ele>
        <time>2017-01-01T12:12:58Z</time>
      </trkpt>
      <trkpt lat="44.71352" lon="7.26349">
        <ele>1302.61</ele>
        <time>2017-01-01T12:13:00Z</time>
      </trkpt>
      <trkpt lat="44.71378" lon="7.26355">
        <ele>1304.67</ele>
        <time>2017-01-01T12:13:01Z</time>
      </trkpt>
      <trkpt lat="44.71401" lon="7.26333">
        <ele>1309.28</ele>
        <time>2017-01-01T12:13:03Z</time>
      </trkpt>
      <trkpt lat="44.71422" lon="7.26307">
        <ele>1314.28</ele>
        <time>2017-01-01T12:13:04Z</time>
      </trkpt>
      <trkpt lat="44.71461" lon="7.26304">
        <ele>1313.23</ele>
        <time>2017-01-01T12:13:07Z</time>
      </trkpt>
      <trkpt lat="44.71481" lon="7.26287">
        <ele>1312.57</ele>
        <time>2017-01-01T12:13:08Z</time>
      </trkpt>
      <trkpt lat="44.7153" lon="7.26094">
        <ele>1314.99</ele>
        <time>2017-01-01T12:13:16Z</time>
      </trkpt>
      <trkpt lat="44.71533" lon="7.26031">
        <ele>1317.12</ele>
        <time>2017-01-01T12:13:18Z</time>
      </trkpt>
      <trkpt lat="44.71545" lon="7.25968">
        <ele>1318.22</ele>
        <time>2017-01-01T12:13:21Z</time>
      </trkpt>
      <trkpt lat="44.71599" lon="7.25843">
        <ele>1319.59</ele>
        <time>2017-01-01T12:13:26Z</time>
      </trkpt>
      <trkpt lat="44.71702" lon="7.25709">
        <ele>1320.67</ele>
        <time>2017-01-01T12:13:34Z</time>
      </trkpt>
      <trkpt lat="44.71756" lon="7.25661">
        <ele>1319.73</ele>
        <time>2017-01-01T12:13:38Z</time>
      </trkpt>
      <trkpt lat="44.71837" lon="7.25478">
        <ele>1320.78</ele>
        <time>2017-01-01T12:13:46Z</time>
      </trkpt>
      <trkpt lat="44.71848" lon="7.25363">
        <ele>1326.46</ele>
        <time>2017-01-01T12:13:51Z</time>
      </trkpt>
      <trkpt lat="44.71874" lon="7.25319">
        <ele>1325.96</ele>
        <time>2017-01-01T12:13:53Z</time>
      </trkpt>
      <trkpt lat="44.72006" lon="7.25175">
        <ele>1327.63</ele>
        <time>2017-01-01T12:14:02Z</time>
      </trkpt>
      <trkpt lat="44.72067" lon="7.2515">
        <ele>1324.99</ele>
        <time>2017-01-01T12:14:05Z</time>
      </trkpt>
      <trkpt lat="44.72112" lon="7.2511">
        <ele>1322.87</ele>
        <time>2017-01-01T12:14:08Z</time>
      </trkpt>
      <trkpt lat="44.72136" lon="7.25083">
        <ele>1321.82</ele>
        <time>2017-01-01T12:14:10Z</time>
      </trkpt>
      <trkpt lat="44.72196" lon="7.25012">
        <ele>1319.58</ele>
        <time>2017-01-01T12:14:14Z</time>
      </trkpt>
      <trkpt lat="44.72199" lon="7.2498">
        <ele>1321.91</ele>
        <time>2017-01-01T12:14:16Z</time>
      </trkpt>
      <trkpt lat="44.72198" lon="7.24948">
        <ele>1322.07</ele>
        <time>2017-01-01T12:14:17Z</time>
      </trkpt>
      <trkpt lat="44.72145" lon="7.24861">
        <ele>1332.69</ele>
        <time>2017-01-01T12:14:21Z</time>
      </trkpt>
      <trkpt lat="44.7209" lon="7.24656">
        <ele>1331.4</ele>
        <time>2017-01-01T12:14:30Z</time>
      </trkpt>
      <trkpt lat="44.72064" lon="7.246">
        <ele>1332.49</ele>
        <time>2017-01-01T12:14:32Z</time>
      </trkpt>
      <trkpt lat="44.72017" lon="7.24546">
        <ele>1328.73</ele>
        <time>2017-01-01T12:14:36Z</time>
      </trkpt>
      <trkpt lat="44.71995" lon="7.24532">
        <ele>1331.38</ele>
        <time>2017-01-01T12:14:37Z</time>
      </trkpt>
      <trkpt lat="44.71993" lon="7.24512">
        <ele>1332.6</ele>
        <time>2017-01-01T12:14:38Z</time>
      </trkpt>
      <trkpt lat="44.7202" lon="7.24394">
        <ele>1333.57</ele>
        <time>2017-01-01T12:14:43Z</time>
      </trkpt>
      <trkpt lat="44.72021" lon="7.24355">
        <ele>1334.73</ele>
        <time>2017-01-01T12:14:44Z</time>
      </trkpt>
      <trkpt lat="44.72053" lon="7.24347">
        <ele>1327.81</ele>
        <time>2017-01-01T12:14:46Z</time>
      </trkpt>
      <trkpt lat="44.72099" lon="7.2428">
        <ele>1330.08</ele>
        <time>2017-01-01T12:14:50Z</time>
      </trkpt>
      <trkpt lat="44.72135" lon="7.24155">
        <ele>1327.08</ele>
        <time>2017-01-01T12:14:55Z</time>
      </trkpt>
      <trkpt lat="44.72169" lon="7.24044">
        <ele>1320.28</ele>
        <time>2017-01-01T12:15:00Z</time>
      </trkpt>
      <trkpt lat="44.72181" lon="7.24031">
        <ele>1315.99</ele>
        <time>2017-01-01T12:15:00Z</time>
      </trkpt>
      <trkpt lat="44.72186" lon="7.24016">
        <ele>1313.7</ele>
        <time>2017-01-01T12:15:01Z</time>
      </trkpt>
      <trkpt lat="44.72188" lon="7.24001">
        <ele>1312</ele>
        <time>2017-01-01T12:15:02Z</time>
      </trkpt>
      <trkpt lat="44.72194" lon="7.23979">
        <ele>1311.88</ele>
        <time>2017-01-01T12:15:03Z</time>
      </trkpt>
      <trkpt lat="44.72239" lon="7.23945">
        <ele>1297.19</ele>
        <time>2017-01-01T12:15:05Z</time>
      </trkpt>
      <trkpt lat="44.72302" lon="7.23865">
        <ele>1284.83</ele>
        <time>2017-01-01T12:15:10Z</time>
      </trkpt>
      <trkpt lat="44.72332" lon="7.23814">
        <ele>1274.9</ele>
        <time>2017-01-01T12:15:13Z</time>
      </trkpt>
      <trkpt lat="44.72363" lon="7.23675">
        <ele>1257.92</ele>
        <time>2017-01-01T12:15:18Z</time>
      </trkpt>
      <trkpt lat="44.72361" lon="7.23622">
        <ele>1252.78</ele>
        <time>2017-01-01T12:15:20Z</time>
      </trkpt>
      <trkpt lat="44.7235" lon="7.23568">
        <ele>1247.93</ele>
        <time>2017-01-01T12:15:22Z</time>
      </trkpt>
      <trkpt lat="44.72343" lon="7.2354">
        <ele>1245.13</ele>
        <time>2017-01-01T12:15:24Z</time>
      </trkpt>
      <trkpt lat="44.72345" lon="7.23528">
        <ele>1242.39</ele>
        <time>2017-01-01T12:15:24Z</time>
      </trkpt>
      <trkpt lat="44.72352" lon="7.23528">
        <ele>1239.94</ele>
        <time>2017-01-01T12:15:24Z</time>
      </trkpt>
      <trkpt lat="44.72395" lon="7.23602">
        <ele>1233.14</ele>
        <time>2017-01-01T12:15:28Z</time>
      </trkpt>
      <trkpt lat="44.72434" lon="7.2368">
        <ele>1223.68</ele>
        <time>2017-01-01T12:15:32Z</time>
      </trkpt>
      <trkpt lat="44.72446" lon="7.23719">
        <ele>1217.74</ele>
        <time>2017-01-01T12:15:34Z</time>
      </trkpt>
      <trkpt lat="44.72446" lon="7.23737">
        <ele>1217.06</ele>
        <time>2017-01-01T12:15:34Z</time>
      </trkpt>
      <trkpt lat="44.72451" lon="7.23743">
        <ele>1214.84</ele>
        <time>2017-01-01T12:15:35Z</time>
      </trkpt>
      <trkpt lat="44.72471" lon="7.23704">
        <ele>1210.12</ele>
        <time>2017-01-01T12:15:37Z</time>
      </trkpt>
      <trkpt lat="44.725" lon="7.23671">
        <ele>1204.1</ele>
        <time>2017-01-01T12:15:39Z</time>
      </trkpt>
      <trkpt lat="44.72505" lon="7.23645">
        <ele>1201.11</ele>
        <time>2017-01-01T12:15:40Z</time>
      </trkpt>
      <trkpt lat="44.72502" lon="7.23608">
        <ele>1196.84</ele>
        <time>2017-01-01T12:15:41Z</time>
      </trkpt>
      <trkpt lat="44.72495" lon="7.23583">
        <ele>1195.74</ele>
        <time>2017-01-01T12:15:42Z</time>
      </trkpt>
      <trkpt lat="44.72505" lon="7.23581">
        <ele>1191.81</ele>
        <time>2017-01-01T12:15:43Z</time>
      </trkpt>
      <trkpt lat="44.72531" lon="7.236">
        <ele>1186.53</ele>
        <time>2017-01-01T12:15:44Z</time>
      </trkpt>
      <trkpt lat="44.72558" lon="7.23631">
        <ele>1181.45</ele>
        <time>2017-01-01T12:15:46Z</time>
      </trkpt>
      <trkpt lat="44.72594" lon="7.23699">
        <ele>1172.17</ele>
        <time>2017-01-01T12:15:50Z</time>
      </trkpt>
      <trkpt lat="44.72589" lon="7.23759">
        <ele>1167.23</ele>
        <time>2017-01-01T12:15:52Z</time>
      </trkpt>
      <trkpt lat="44.72557" lon="7.23866">
        <ele>1158.75</ele>
        <time>2017-01-01T12:15:56Z</time>
      </trkpt>
      <trkpt lat="44.72565" lon="7.23872">
        <ele>1154.69</ele>
        <time>2017-01-01T12:15:57Z</time>
      </trkpt>
      <trkpt lat="44.72576" lon="7.2385">
        <ele>1154.01</ele>
        <time>2017-01-01T12:15:58Z</time>
      </trkpt>
      <trkpt lat="44.72621" lon="7.23802">
        <ele>1142.12</ele>
        <time>2017-01-01T12:16:01Z</time>
      </trkpt>
      <trkpt lat="44.72639" lon="7.23758">
        <ele>1140.95</ele>
        <time>2017-01-01T12:16:03Z</time>
      </trkpt>
      <trkpt lat="44.7265" lon="7.23765">
        <ele>1135.01</ele>
        <time>2017-01-01T12:16:04Z</time>
      </trkpt>
      <trkpt lat="44.72627" lon="7.23848">
        <ele>1127.22</ele>
        <time>2017-01-01T12:16:07Z</time>
      </trkpt>
      <trkpt lat="44.72614" lon="7.23929">
        <ele>1122.32</ele>
        <time>2017-01-01T12:16:10Z</time>
      </trkpt>
      <trkpt lat="44.72625" lon="7.24024">
        <ele>1114.84</ele>
        <time>2017-01-01T12:16:14Z</time>
      </trkpt>
      <trkpt lat="44.72648" lon="7.24051">
        <ele>1106.91</ele>
        <time>2017-01-01T12:16:16Z</time>
      </trkpt>
      <trkpt lat="44.72669" lon="7.24105">
        <ele>1099.71</ele>
        <time>2017-01-01T12:16:18Z</time>
      </trkpt>
      <trkpt lat="44.72677" lon="7.24154">
        <ele>1100.02</ele>
        <time>2017-01-01T12:16:20Z</time>
      </trkpt>
      <trkpt lat="44.72693" lon="7.24175">
        <ele>1091.14</ele>
        <time>2017-01-01T12:16:21Z</time>
      </trkpt>
      <trkpt lat="44.7269" lon="7.24089">
        <ele>1086.53</ele>
        <time>2017-01-01T12:16:25Z</time>
      </trkpt>
      <trkpt lat="44.72687" lon="7.24021">
        <ele>1082.93</ele>
        <time>2017-01-01T12:16:27Z</time>
      </trkpt>
      <trkpt lat="44.72696" lon="7.24039">
        <ele>1078.84</ele>
        <time>2017-01-01T12:16:28Z</time>
      </trkpt>
      <trkpt lat="44.72699" lon="7.24065">
        <ele>1078.52</ele>
        <time>2017-01-01T12:16:29Z</time>
      </trkpt>
      <trkpt lat="44.72709" lon="7.24067">
        <ele>1074.12</ele>
        <time>2017-01-01T12:16:30Z</time>
      </trkpt>
      <trkpt lat="44.72721" lon="7.23993">
        <ele>1064.82</ele>
        <time>2017-01-01T12:16:33Z</time>
      </trkpt>
      <trkpt lat="44.72733" lon="7.23966">
        <ele>1061.04</ele>
        <time>2017-01-01T12:16:34Z</time>
      </trkpt>
      <trkpt lat="44.72742" lon="7.2395">
        <ele>1058.79</ele>
        <time>2017-01-01T12:16:35Z</time>
      </trkpt>
      <trkpt lat="44.7275" lon="7.2389">
        <ele>1059.12</ele>
        <time>2017-01-01T12:16:37Z</time>
      </trkpt>
      <trkpt lat="44.72763" lon="7.23842">
        <ele>1060.38</ele>
        <time>2017-01-01T12:16:39Z</time>
      </trkpt>
      <trkpt lat="44.72766" lon="7.23758">
        <ele>1066.16</ele>
        <time>2017-01-01T12:16:42Z</time>
      </trkpt>
      <trkpt lat="44.72735" lon="7.23634">
        <ele>1077.91</ele>
        <time>2017-01-01T12:16:48Z</time>
      </trkpt>
      <trkpt lat="44.72707" lon="7.23535">
        <ele>1088.85</ele>
        <time>2017-01-01T12:16:52Z</time>
      </trkpt>
      <trkpt lat="44.72688" lon="7.23516">
        <ele>1095.53</ele>
        <time>2017-01-01T12:16:53Z</time>
      </trkpt>
      <trkpt lat="44.72694" lon="7.23451">
        <ele>1096.68</ele>
        <time>2017-01-01T12:16:56Z</time>
      </trkpt>
      <trkpt lat="44.72689" lon="7.23411">
        <ele>1101.05</ele>
        <time>2017-01-01T12:16:57Z</time>
      </trkpt>
      <trkpt lat="44.72701" lon="7.23392">
        <ele>1099.61</ele>
        <time>2017-01-01T12:16:58Z</time>
      </trkpt>
      <trkpt lat="44.72716" lon="7.2339">
        <ele>1101.94</ele>
        <time>2017-01-01T12:16:59Z</time>
      </trkpt>
      <trkpt lat="44.72757" lon="7.23441">
        <ele>1099.45</ele>
        <time>2017-01-01T12:17:02Z</time>
      </trkpt>
      <trkpt lat="44.72775" lon="7.23448">
        <ele>1103.96</ele>
        <time>2017-01-01T12:17:03Z</time>
      </trkpt>
      <trkpt lat="44.72792" lon="7.23473">
        <ele>1104.12</ele>
        <time>2017-01-01T12:17:04Z</time>
      </trkpt>
      <trkpt lat="44.72822" lon="7.23482">
        <ele>1111.78</ele>
        <time>2017-01-01T12:17:06Z</time>
      </trkpt>
      <trkpt lat="44.72842" lon="7.23471">
        <ele>1121.88</ele>
        <time>2017-01-01T12:17:07Z</time>
      </trkpt>
      <trkpt lat="44.72912" lon="7.23542">
        <ele>1129.72</ele>
        <time>2017-01-01T12:17:12Z</time>
      </trkpt>
      <trkpt lat="44.73008" lon="7.23631">
        <ele>1135.42</ele>
        <time>2017-01-01T12:17:18Z</time>
      </trkpt>
      <trkpt lat="44.72987" lon="7.23602">
        <ele>1135.42</ele>
        <time>2017-01-01T12:17:20Z</time>
      </trkpt>
      <trkpt lat="44.73017" lon="7.23649">
        <ele>1133.76</ele>
        <time>2017-01-01T12:17:22Z</time>
      </trkpt>
      <trkpt lat="44.73026" lon="7.2368">
        <ele>1131.19</ele>
        <time>2017-01-01T12:17:24Z</time>
      </trkpt>
      <trkpt lat="44.73039" lon="7.2369">
        <ele>1132.74</ele>
        <time>2017-01-01T12:17:24Z</time>
      </trkpt>
      <trkpt lat="44.73052" lon="7.23681">
        <ele>1135.37</ele>
        <time>2017-01-01T12:17:25Z</time>
      </trkpt>
      <trkpt lat="44.73069" lon="7.23671">
        <ele>1138.63</ele>
        <time>2017-01-01T12:17:26Z</time>
      </trkpt>
      <trkpt lat="44.73089" lon="7.23667">
        <ele>1140.48</ele>
        <time>2017-01-01T12:17:27Z</time>
      </trkpt>
      <trkpt lat="44.73148" lon="7.23612">
        <ele>1148.62</ele>
        <time>2017-01-01T12:17:31Z</time>
      </trkpt>
      <trkpt lat="44.73229" lon="7.23466">
        <ele>1164.7</ele>
        <time>2017-01-01T12:17:38Z</time>
      </trkpt>
      <trkpt lat="44.73212" lon="7.23463">
        <ele>1169.9</ele>
        <time>2017-01-01T12:17:39Z</time>
      </trkpt>
      <trkpt lat="44.73147" lon="7.23499">
        <ele>1176.53</ele>
        <time>2017-01-01T12:17:43Z</time>
      </trkpt>
      <trkpt lat="44.73111" lon="7.23499">
        <ele>1182.15</ele>
        <time>2017-01-01T12:17:45Z</time>
      </trkpt>
      <trkpt lat="44.73064" lon="7.23472">
        <ele>1186.13</ele>
        <time>2017-01-01T12:17:48Z</time>
      </trkpt>
      <trkpt lat="44.73107" lon="7.23447">
        <ele>1191.62</ele>
        <time>2017-01-01T12:17:50Z</time>
      </trkpt>
      <trkpt lat="44.73161" lon="7.23408">
        <ele>1196.97</ele>
        <time>2017-01-01T12:17:54Z</time>
      </trkpt>
      <trkpt lat="44.73204" lon="7.23383">
        <ele>1197.4</ele>
        <time>2017-01-01T12:17:56Z</time>
      </trkpt>
      <trkpt lat="44.73283" lon="7.23331">
        <ele>1201.92</ele>
        <time>2017-01-01T12:18:01Z</time>
      </trkpt>
      <trkpt lat="44.73312" lon="7.23204">
        <ele>1208.7</ele>
        <time>2017-01-01T12:18:06Z</time>
      </trkpt>
      <trkpt lat="44.73349" lon="7.23038">
        <ele>1228.69</ele>
        <time>2017-01-01T12:18:13Z</time>
      </trkpt>
      <trkpt lat="44.73392" lon="7.22982">
        <ele>1225.14</ele>
        <time>2017-01-01T12:18:16Z</time>
      </trkpt>
      <trkpt lat="44.73425" lon="7.22974">
        <ele>1223.43</ele>
        <time>2017-01-01T12:18:18Z</time>
      </trkpt>
      <trkpt lat="44.73453" lon="7.23011">
        <ele>1217.7</ele>
        <time>2017-01-01T12:18:20Z</time>
      </trkpt>
      <trkpt lat="44.73472" lon="7.23113">
        <ele>1209.72</ele>
        <time>2017-01-01T12:18:24Z</time>
      </trkpt>
      <trkpt lat="44.73496" lon="7.23169">
        <ele>1209.94</ele>
        <time>2017-01-01T12:18:27Z</time>
      </trkpt>
      <trkpt lat="44.7355" lon="7.23245">
        <ele>1207.57</ele>
        <time>2017-01-01T12:18:31Z</time>
      </trkpt>
      <trkpt lat="44.736" lon="7.23261">
        <ele>1208.28</ele>
        <time>2017-01-01T12:18:34Z</time>
      </trkpt>
      <trkpt lat="44.7363" lon="7.2332">
        <ele>1215.09</ele>
        <time>2017-01-01T12:18:37Z</time>
      </trkpt>
      <trkpt lat="44.73634" lon="7.23379">
        <ele>1215.1</ele>
        <time>2017-01-01T12:18:39Z</time>
      </trkpt>
      <trkpt lat="44.7365" lon="7.23428">
        <ele>1214.92</ele>
        <time>2017-01-01T12:18:41Z</time>
      </trkpt>
      <trkpt lat="44.73691" lon="7.23449">
        <ele>1221.16</ele>
        <time>2017-01-01T12:18:44Z</time>
      </trkpt>
      <trkpt lat="44.73786" lon="7.23463">
        <ele>1237.23</ele>
        <time>2017-01-01T12:18:49Z</time>
      </trkpt>
      <trkpt lat="44.73875" lon="7.23489">
        <ele>1253.12</ele>
        <time>2017-01-01T12:18:54Z</time>
      </trkpt>
      <trkpt lat="44.73927" lon="7.23478">
        <ele>1261.88</ele>
        <time>2017-01-01T12:18:57Z</time>
      </trkpt>
      <trkpt lat="44.7392" lon="7.23463">
        <ele>1267.32</ele>
        <time>2017-01-01T12:18:57Z</time>
      </trkpt>
      <trkpt lat="44.73882" lon="7.2346">
        <ele>1267.86</ele>
        <time>2017-01-01T12:18:59Z</time>
      </trkpt>
      <trkpt lat="44.73852" lon="7.23442">
        <ele>1273.04</ele>
        <time>2017-01-01T12:19:01Z</time>
      </trkpt>
      <trkpt lat="44.7381" lon="7.23389">
        <ele>1281.32</ele>
        <time>2017-01-01T12:19:04Z</time>
      </trkpt>
      <trkpt lat="44.73762" lon="7.23355">
        <ele>1286.37</ele>
        <time>2017-01-01T12:19:07Z</time>
      </trkpt>
      <trkpt lat="44.73741" lon="7.23308">
        <ele>1291.56</ele>
        <time>2017-01-01T12:19:09Z</time>
      </trkpt>
      <trkpt lat="44.73734" lon="7.23283">
        <ele>1290.9</ele>
        <time>2017-01-01T12:19:10Z</time>
      </trkpt>
      <trkpt lat="44.73745" lon="7.23263">
        <ele>1297.7</ele>
        <time>2017-01-01T12:19:11Z</time>
      </trkpt>
      <trkpt lat="44.73757" lon="7.23301">
        <ele>1299.14</ele>
        <time>2017-01-01T12:19:13Z</time>
      </trkpt>
      <trkpt lat="44.73778" lon="7.23325">
        <ele>1299.91</ele>
        <time>2017-01-01T12:19:15Z</time>
      </trkpt>
      <trkpt lat="44.73808" lon="7.23324">
        <ele>1305.33</ele>
        <time>2017-01-01T12:19:16Z</time>
      </trkpt>
      <trkpt lat="44.73838" lon="7.2334">
        <ele>1311.17</ele>
        <time>2017-01-01T12:19:18Z</time>
      </trkpt>
      <trkpt lat="44.73879" lon="7.23389">
        <ele>1309.4</ele>
        <time>2017-01-01T12:19:21Z</time>
      </trkpt>
      <trkpt lat="44.7394" lon="7.23382">
        <ele>1308.87</ele>
        <time>2017-01-01T12:19:24Z</time>
      </trkpt>
      <trkpt lat="44.73981" lon="7.23386">
        <ele>1313.52</ele>
        <time>2017-01-01T12:19:26Z</time>
      </trkpt>
      <trkpt lat="44.74034" lon="7.23424">
        <ele>1320.22</ele>
        <time>2017-01-01T12:19:30Z</time>
      </trkpt>
      <trkpt lat="44.74048" lon="7.23474">
        <ele>1321.74</ele>
        <time>2017-01-01T12:19:32Z</time>
      </trkpt>
      <trkpt lat="44.74067" lon="7.23512">
        <ele>1318.7</ele>
        <time>2017-01-01T12:19:34Z</time>
      </trkpt>
      <trkpt lat="44.74127" lon="7.23546">
        <ele>1319.62</ele>
        <time>2017-01-01T12:19:37Z</time>
      </trkpt>
      <trkpt lat="44.74183" lon="7.23633">
        <ele>1322.15</ele>
        <time>2017-01-01T12:19:42Z</time>
      </trkpt>
      <trkpt lat="44.74207" lon="7.23727">
        <ele>1326.96</ele>
        <time>2017-01-01T12:19:46Z</time>
      </trkpt>
      <trkpt lat="44.74202" lon="7.23846">
        <ele>1324.23</ele>
        <time>2017-01-01T12:19:50Z</time>
      </trkpt>
      <trkpt lat="44.74232" lon="7.23962">
        <ele>1328.88</ele>
        <time>2017-01-01T12:19:55Z</time>
      </trkpt>
      <trkpt lat="44.74239" lon="7.24006">
        <ele>1332.59</ele>
        <time>2017-01-01T12:19:57Z</time>
      </trkpt>
      <trkpt lat="44.74232" lon="7.24052">
        <ele>1334.1</ele>
        <time>2017-01-01T12:19:59Z</time>
      </trkpt>
      <trkpt lat="44.74209" lon="7.24078">
        <ele>1335.99</ele>
        <time>2017-01-01T12:20:00Z</time>
      </trkpt>
      <trkpt lat="44.74205" lon="7.24104">
        <ele>1342.38</ele>
        <time>2017-01-01T12:20:01Z</time>
      </trkpt>
      <trkpt lat="44.74249" lon="7.24076">
        <ele>1346.13</ele>
        <time>2017-01-01T12:20:04Z</time>
      </trkpt>
      <trkpt lat="44.74294" lon="7.24055">
        <ele>1348.33</ele>
        <time>2017-01-01T12:20:07Z</time>
      </trkpt>
      <trkpt lat="44.74443" lon="7.2379">
        <ele>1348.86</ele>
        <time>2017-01-01T12:20:20Z</time>
      </trkpt>
      <trkpt lat="44.74461" lon="7.2372">
        <ele>1351.82</ele>
        <time>2017-01-01T12:20:23Z</time>
      </trkpt>
      <trkpt lat="44.74492" lon="7.23656">
        <ele>1354.08</ele>
        <time>2017-01-01T12:20:26Z</time>
      </trkpt>
      <trkpt lat="44.74529" lon="7.23609">
        <ele>1359.75</ele>
        <time>2017-01-01T12:20:28Z</time>
      </trkpt>
      <trkpt lat="44.7457" lon="7.23605">
        <ele>1359.25</ele>
        <time>2017-01-01T12:20:31Z</time>
      </trkpt>
      <trkpt lat="44.74618" lon="7.23567">
        <ele>1362.51</ele>
        <time>2017-01-01T12:20:34Z</time>
      </trkpt>
      <trkpt lat="44.74643" lon="7.23529">
        <ele>1364.8</ele>
        <time>2017-01-01T12:20:36Z</time>
      </trkpt>
      <trkpt lat="44.74706" lon="7.23475">
        <ele>1368.6</ele>
        <time>2017-01-01T12:20:40Z</time>
      </trkpt>
      <trkpt lat="44.74769" lon="7.23452">
        <ele>1368.86</ele>
        <time>2017-01-01T12:20:43Z</time>
      </trkpt>
      <trkpt lat="44.74776" lon="7.23438">
        <ele>1373.43</ele>
        <time>2017-01-01T12:20:44Z</time>
      </trkpt>
      <trkpt lat="44.74693" lon="7.23441">
        <ele>1376.5</ele>
        <time>2017-01-01T12:20:48Z</time>
      </trkpt>
      <trkpt lat="44.74628" lon="7.23459">
        <ele>1384.59</ele>
        <time>2017-01-01T12:20:52Z</time>
      </trkpt>
      <trkpt lat="44.7455" lon="7.23447">
        <ele>1390.43</ele>
        <time>2017-01-01T12:20:56Z</time>
      </trkpt>
      <trkpt lat="44.74494" lon="7.23463">
        <ele>1399.11</ele>
        <time>2017-01-01T12:21:00Z</time>
      </trkpt>
      <trkpt lat="44.74455" lon="7.23521">
        <ele>1402.16</ele>
        <time>2017-01-01T12:21:03Z</time>
      </trkpt>
      <trkpt lat="44.7437" lon="7.23655">
        <ele>1412.69</ele>
        <time>2017-01-01T12:21:10Z</time>
      </trkpt>
      <trkpt lat="44.74341" lon="7.23654">
        <ele>1412.44</ele>
        <time>2017-01-01T12:21:11Z</time>
      </trkpt>
      <trkpt lat="44.74353" lon="7.23491">
        <ele>1433.99</ele>
        <time>2017-01-01T12:21:18Z</time>
      </trkpt>
      <trkpt lat="44.74298" lon="7.23322">
        <ele>1452.19</ele>
        <time>2017-01-01T12:21:25Z</time>
      </trkpt>
      <trkpt lat="44.74292" lon="7.23126">
        <ele>1471.36</ele>
        <time>2017-01-01T12:21:33Z</time>
      </trkpt>
      <trkpt lat="44.74233" lon="7.22964">
        <ele>1483.94</ele>
        <time>2017-01-01T12:21:40Z</time>
      </trkpt>
      <trkpt lat="44.74311" lon="7.23044">
        <ele>1491.87</ele>
        <time>2017-01-01T12:21:45Z</time>
      </trkpt>
      <trkpt lat="44.74388" lon="7.23199">
        <ele>1503.91</ele>
        <time>2017-01-01T12:21:52Z</time>
      </trkpt>
      <trkpt lat="44.74414" lon="7.2323">
        <ele>1507.34</ele>
        <time>2017-01-01T12:21:54Z</time>
      </trkpt>
      <trkpt lat="44.74463" lon="7.23225">
        <ele>1513.04</ele>
        <time>2017-01-01T12:21:57Z</time>
      </trkpt>
      <trkpt lat="44.74568" lon="7.23156">
        <ele>1528.47</ele>
        <time>2017-01-01T12:22:03Z</time>
      </trkpt>
      <trkpt lat="44.74679" lon="7.23117">
        <ele>1526.57</ele>
        <time>2017-01-01T12:22:09Z</time>
      </trkpt>
      <trkpt lat="44.74707" lon="7.23043">
        <ele>1522.52</ele>
        <time>2017-01-01T12:22:13Z</time>
      </trkpt>
      <trkpt lat="44.74712" lon="7.22907">
        <ele>1518.33</ele>
        <time>2017-01-01T12:22:18Z</time>
      </trkpt>
      <trkpt lat="44.74747" lon="7.22811">
        <ele>1513.56</ele>
        <time>2017-01-01T12:22:22Z</time>
      </trkpt>
      <trkpt lat="44.74815" lon="7.22755">
        <ele>1509.6</ele>
        <time>2017-01-01T12:22:26Z</time>
      </trkpt>
      <trkpt lat="44.74951" lon="7.22628">
        <ele>1514.86</ele>
        <time>2017-01-01T12:22:35Z</time>
      </trkpt>
      <trkpt lat="44.75096" lon="7.22516">
        <ele>1522.54</ele>
        <time>2017-01-01T12:22:45Z</time>
      </trkpt>
      <trkpt lat="44.75172" lon="7.22366">
        <ele>1534.76</ele>
        <time>2017-01-01T12:22:52Z</time>
      </trkpt>
      <trkpt lat="44.75258" lon="7.22248">
        <ele>1545.29</ele>
        <time>2017-01-01T12:22:58Z</time>
      </trkpt>
      <trkpt lat="44.7535" lon="7.22201">
        <ele>1547.85</ele>
        <time>2017-01-01T12:23:04Z</time>
      </trkpt>
      <trkpt lat="44.75458" lon="7.22193">
        <ele>1546.29</ele>
        <time>2017-01-01T12:23:10Z</time>
      </trkpt>
      <trkpt lat="44.7556" lon="7.22111">
        <ele>1544.77</ele>
        <time>2017-01-01T12:23:16Z</time>
      </trkpt>
      <trkpt lat="44.75644" lon="7.22059">
        <ele>1541.81</ele>
        <time>2017-01-01T12:23:21Z</time>
      </trkpt>
      <trkpt lat="44.75723" lon="7.21984">
        <ele>1536.09</ele>
        <time>2017-01-01T12:23:26Z</time>
      </trkpt>
      <trkpt lat="44.7578" lon="7.21917">
        <ele>1528.62</ele>
        <time>2017-01-01T12:23:30Z</time>
      </trkpt>
      <trkpt lat="44.75784" lon="7.21852">
        <ele>1528.27</ele>
        <time>2017-01-01T12:23:33Z</time>
      </trkpt>
      <trkpt lat="44.75783" lon="7.21791">
        <ele>1524.88</ele>
        <time>2017-01-01T12:23:35Z</time>
      </trkpt>
      <trkpt lat="44.75739" lon="7.21731">
        <ele>1516.38</ele>
        <time>2017-01-01T12:23:39Z</time>
      </trkpt>
      <trkpt lat="44.75652" lon="7.2171">
        <ele>1511.04</ele>
        <time>2017-01-01T12:23:43Z</time>
      </trkpt>
      <trkpt lat="44.75531" lon="7.21657">
        <ele>1498.63</ele>
        <time>2017-01-01T12:23:50Z</time>
      </trkpt>
      <trkpt lat="44.7546" lon="7.21649">
        <ele>1492.57</ele>
        <time>2017-01-01T12:23:54Z</time>
      </trkpt>
      <trkpt lat="44.75397" lon="7.21624">
        <ele>1483.98</ele>
        <time>2017-01-01T12:23:58Z</time>
      </trkpt>
      <trkpt lat="44.75371" lon="7.21593">
        <ele>1476.75</ele>
        <time>2017-01-01T12:24:00Z</time>
      </trkpt>
      <trkpt lat="44.75299" lon="7.2159">
        <ele>1473.96</ele>
        <time>2017-01-01T12:24:04Z</time>
      </trkpt>
      <trkpt lat="44.75268" lon="7.2155">
        <ele>1464.99</ele>
        <time>2017-01-01T12:24:06Z</time>
      </trkpt>
      <trkpt lat="44.7519" lon="7.2154">
        <ele>1458.78</ele>
        <time>2017-01-01T12:24:10Z</time>
      </trkpt>
      <trkpt lat="44.75158" lon="7.2152">
        <ele>1453.54</ele>
        <time>2017-01-01T12:24:12Z</time>
      </trkpt>
      <trkpt lat="44.75077" lon="7.21509">
        <ele>1447.78</ele>
        <time>2017-01-01T12:24:17Z</time>
      </trkpt>
      <trkpt lat="44.75078" lon="7.21502">
        <ele>1446.04</ele>
        <time>2017-01-01T12:24:17Z</time>
      </trkpt>
      <trkpt lat="44.75122" lon="7.21483">
        <ele>1444.38</ele>
        <time>2017-01-01T12:24:19Z</time>
      </trkpt>
      <trkpt lat="44.75093" lon="7.21466">
        <ele>1439.16</ele>
        <time>2017-01-01T12:24:21Z</time>
      </trkpt>
      <trkpt lat="44.75036" lon="7.21501">
        <ele>1435.93</ele>
        <time>2017-01-01T12:24:25Z</time>
      </trkpt>
      <trkpt lat="44.75" lon="7.21505">
        <ele>1429.77</ele>
        <time>2017-01-01T12:24:27Z</time>
      </trkpt>
      <trkpt lat="44.74974" lon="7.21533">
        <ele>1430.38</ele>
        <time>2017-01-01T12:24:28Z</time>
      </trkpt>
      <trkpt lat="44.74934" lon="7.21534">
        <ele>1425.43</ele>
        <time>2017-01-01T12:24:31Z</time>
      </trkpt>
      <trkpt lat="44.74881" lon="7.21452">
        <ele>1412.49</ele>
        <time>2017-01-01T12:24:35Z</time>
      </trkpt>
      <trkpt lat="44.74892" lon="7.21398">
        <ele>1405.72</ele>
        <time>2017-01-01T12:24:37Z</time>
      </trkpt>
      <trkpt lat="44.74878" lon="7.2136">
        <ele>1403.37</ele>
        <time>2017-01-01T12:24:39Z</time>
      </trkpt>
      <trkpt lat="44.74837" lon="7.21344">
        <ele>1409.46</ele>
        <time>2017-01-01T12:24:41Z</time>
      </trkpt>
      <trkpt lat="44.74866" lon="7.21296">
        <ele>1399.28</ele>
        <time>2017-01-01T12:24:43Z</time>
      </trkpt>
      <trkpt lat="44.74892" lon="7.21189">
        <ele>1395.3</ele>
        <time>2017-01-01T12:24:48Z</time>
      </trkpt>
      <trkpt lat="44.74901" lon="7.21177">
        <ele>1393.85</ele>
        <time>2017-01-01T12:24:49Z</time>
      </trkpt>
      <trkpt lat="44.74908" lon="7.21143">
        <ele>1394.96</ele>
        <time>2017-01-01T12:24:50Z</time>
      </trkpt>
      <trkpt lat="44.74905" lon="7.21101">
        <ele>1393.56</ele>
        <time>2017-01-01T12:24:52Z</time>
      </trkpt>
      <trkpt lat="44.74907" lon="7.21054">
        <ele>1391.87</ele>
        <time>2017-01-01T12:24:53Z</time>
      </trkpt>
      <trkpt lat="44.74919" lon="7.21012">
        <ele>1390.27</ele>
        <time>2017-01-01T12:24:55Z</time>
      </trkpt>
      <trkpt lat="44.74915" lon="7.20955">
        <ele>1387.24</ele>
        <time>2017-01-01T12:24:57Z</time>
      </trkpt>
      <trkpt lat="44.74896" lon="7.20917">
        <ele>1389.11</ele>
        <time>2017-01-01T12:24:59Z</time>
      </trkpt>
      <trkpt lat="44.74858" lon="7.20887">
        <ele>1393.55</ele>
        <time>2017-01-01T12:25:02Z</time>
      </trkpt>
      <trkpt lat="44.7484" lon="7.20863">
        <ele>1392.85</ele>
        <time>2017-01-01T12:25:03Z</time>
      </trkpt>
      <trkpt lat="44.74851" lon="7.20835">
        <ele>1394.54</ele>
        <time>2017-01-01T12:25:04Z</time>
      </trkpt>
      <trkpt lat="44.74901" lon="7.20805">
        <ele>1396.53</ele>
        <time>2017-01-01T12:25:07Z</time>
      </trkpt>
      <trkpt lat="44.74999" lon="7.20783">
        <ele>1396.36</ele>
        <time>2017-01-01T12:25:13Z</time>
      </trkpt>
      <trkpt lat="44.75029" lon="7.20764">
        <ele>1397.02</ele>
        <time>2017-01-01T12:25:14Z</time>
      </trkpt>
      <trkpt lat="44.75047" lon="7.20727">
        <ele>1399.04</ele>
        <time>2017-01-01T12:25:16Z</time>
      </trkpt>
      <trkpt lat="44.75163" lon="7.20584">
        <ele>1391.62</ele>
        <time>2017-01-01T12:25:25Z</time>
      </trkpt>
      <trkpt lat="44.7523" lon="7.20461">
        <ele>1381.32</ele>
        <time>2017-01-01T12:25:31Z</time>
      </trkpt>
      <trkpt lat="44.75281" lon="7.20403">
        <ele>1367.61</ele>
        <time>2017-01-01T12:25:34Z</time>
      </trkpt>
      <trkpt lat="44.75328" lon="7.20287">
        <ele>1363.9</ele>
        <time>2017-01-01T12:25:39Z</time>
      </trkpt>
      <trkpt lat="44.75375" lon="7.20274">
        <ele>1368.88</ele>
        <time>2017-01-01T12:25:42Z</time>
      </trkpt>
      <trkpt lat="44.75377" lon="7.2025">
        <ele>1364.77</ele>
        <time>2017-01-01T12:25:43Z</time>
      </trkpt>
      <trkpt lat="44.75335" lon="7.20219">
        <ele>1360.26</ele>
        <time>2017-01-01T12:25:46Z</time>
      </trkpt>
      <trkpt lat="44.7531" lon="7.20174">
        <ele>1352.37</ele>
        <time>2017-01-01T12:25:48Z</time>
      </trkpt>
      <trkpt lat="44.75339" lon="7.20184">
        <ele>1351.3</ele>
        <time>2017-01-01T12:25:49Z</time>
      </trkpt>
      <trkpt lat="44.75336" lon="7.20162">
        <ele>1345.86</ele>
        <time>2017-01-01T12:25:50Z</time>
      </trkpt>
      <trkpt lat="44.75236" lon="7.20026">
        <ele>1333.83</ele>
        <time>2017-01-01T12:25:58Z</time>
      </trkpt>
      <trkpt lat="44.75238" lon="7.1995">
        <ele>1328.49</ele>
        <time>2017-01-01T12:26:01Z</time>
      </trkpt>
      <trkpt lat="44.75288" lon="7.19847">
        <ele>1315.2</ele>
        <time>2017-01-01T12:26:06Z</time>
      </trkpt>
      <trkpt lat="44.75301" lon="7.19681">
        <ele>1316.1</ele>
        <time>2017-01-01T12:26:12Z</time>
      </trkpt>
      <trkpt lat="44.75301" lon="7.19512">
        <ele>1322.6</ele>
        <time>2017-01-01T12:26:19Z</time>
      </trkpt>
      <trkpt lat="44.75255" lon="7.19453">
        <ele>1327.45</ele>
        <time>2017-01-01T12:26:22Z</time>
      </trkpt>
      <trkpt lat="44.75214" lon="7.19363">
        <ele>1327.41</ele>
        <time>2017-01-01T12:26:26Z</time>
      </trkpt>
      <trkpt lat="44.75206" lon="7.19322">
        <ele>1325.9</ele>
        <time>2017-01-01T12:26:28Z</time>
      </trkpt>
      <trkpt lat="44.75158" lon="7.19297">
        <ele>1326.39</ele>
        <time>2017-01-01T12:26:31Z</time>
      </trkpt>
      <trkpt lat="44.75105" lon="7.19269">
        <ele>1321.33</ele>
        <time>2017-01-01T12:26:34Z</time>
      </trkpt>
      <trkpt lat="44.75063" lon="7.19238">
        <ele>1319.47</ele>
        <time>2017-01-01T12:26:37Z</time>
      </trkpt>
      <trkpt lat="44.75028" lon="7.19189">
        <ele>1313.51</ele>
        <time>2017-01-01T12:26:39Z</time>
      </trkpt>
      <trkpt lat="44.74984" lon="7.19165">
        <ele>1313.44</ele>
        <time>2017-01-01T12:26:42Z</time>
      </trkpt>
      <trkpt lat="44.74964" lon="7.19119">
        <ele>1307.92</ele>
        <time>2017-01-01T12:26:44Z</time>
      </trkpt>
      <trkpt lat="44.74933" lon="7.1909">
        <ele>1308.34</ele>
        <time>2017-01-01T12:26:46Z</time>
      </trkpt>
      <trkpt lat="44.74884" lon="7.19047">
        <ele>1310.58</ele>
        <time>2017-01-01T12:26:49Z</time>
      </trkpt>
      <trkpt lat="44.74857" lon="7.18984">
        <ele>1309.99</ele>
        <time>2017-01-01T12:26:52Z</time>
      </trkpt>
      <trkpt lat="44.74859" lon="7.18913">
        <ele>1313.49</ele>
        <time>2017-01-01T12:26:55Z</time>
      </trkpt>
      <trkpt lat="44.74891" lon="7.18877">
        <ele>1317.51</ele>
        <time>2017-01-01T12:26:57Z</time>
      </trkpt>
      <trkpt lat="44.74964" lon="7.18885">
        <ele>1321.27</ele>
        <time>2017-01-01T12:27:01Z</time>
      </trkpt>
      <trkpt lat="44.75027" lon="7.18906">
        <ele>1319.6</ele>
        <time>2017-01-01T12:27:05Z</time>
      </trkpt>
      <trkpt lat="44.75067" lon="7.18863">
        <ele>1326.57</ele>
        <time>2017-01-01T12:27:07Z</time>
      </trkpt>
      <trkpt lat="44.75185" lon="7.18821">
        <ele>1334.81</ele>
        <time>2017-01-01T12:27:14Z</time>
      </trkpt>
      <trkpt lat="44.753" lon="7.18813">
        <ele>1340.17</ele>
        <time>2017-01-01T12:27:20Z</time>
      </trkpt>
      <trkpt lat="44.7531" lon="7.18803">
        <ele>1341.69</ele>
        <time>2017-01-01T12:27:21Z</time>
      </trkpt>
      <trkpt lat="44.75305" lon="7.18773">
        <ele>1342.01</ele>
        <time>2017-01-01T12:27:22Z</time>
      </trkpt>
      <trkpt lat="44.75339" lon="7.18722">
        <ele>1338.78</ele>
        <time>2017-01-01T12:27:25Z</time>
      </trkpt>
      <trkpt lat="44.75341" lon="7.18675">
        <ele>1338.14</ele>
        <time>2017-01-01T12:27:27Z</time>
      </trkpt>
      <trkpt lat="44.75374" lon="7.18656">
        <ele>1338.03</ele>
        <time>2017-01-01T12:27:29Z</time>
      </trkpt>
      <trkpt lat="44.75378" lon="7.18635">
        <ele>1338.4</ele>
        <time>2017-01-01T12:27:30Z</time>
      </trkpt>
      <trkpt lat="44.75344" lon="7.18612">
        <ele>1344.54</ele>
        <time>2017-01-01T12:27:32Z</time>
      </trkpt>
      <trkpt lat="44.75326" lon="7.18575">
        <ele>1349.87</ele>
        <time>2017-01-01T12:27:33Z</time>
      </trkpt>
      <trkpt lat="44.75322" lon="7.18541">
        <ele>1351.05</ele>
        <time>2017-01-01T12:27:35Z</time>
      </trkpt>
      <trkpt lat="44.75305" lon="7.18512">
        <ele>1354.94</ele>
        <time>2017-01-01T12:27:36Z</time>
      </trkpt>
      <trkpt lat="44.75278" lon="7.18481">
        <ele>1357</ele>
        <time>2017-01-01T12:27:38Z</time>
      </trkpt>
      <trkpt lat="44.75282" lon="7.18458">
        <ele>1361.32</ele>
        <time>2017-01-01T12:27:39Z</time>
      </trkpt>
      <trkpt lat="44.75321" lon="7.18468">
        <ele>1359.08</ele>
        <time>2017-01-01T12:27:41Z</time>
      </trkpt>
      <trkpt lat="44.75364" lon="7.1844">
        <ele>1368.93</ele>
        <time>2017-01-01T12:27:44Z</time>
      </trkpt>
      <trkpt lat="44.75393" lon="7.18443">
        <ele>1369.92</ele>
        <time>2017-01-01T12:27:45Z</time>
      </trkpt>
      <trkpt lat="44.75422" lon="7.18421">
        <ele>1376.69</ele>
        <time>2017-01-01T12:27:47Z</time>
      </trkpt>
      <trkpt lat="44.75435" lon="7.18386">
        <ele>1382.09</ele>
        <time>2017-01-01T12:27:49Z</time>
      </trkpt>
      <trkpt lat="44.75441" lon="7.18332">
        <ele>1387.52</ele>
        <time>2017-01-01T12:27:51Z</time>
      </trkpt>
      <trkpt lat="44.75427" lon="7.18279">
        <ele>1397.67</ele>
        <time>2017-01-01T12:27:53Z</time>
      </trkpt>
      <trkpt lat="44.75425" lon="7.18218">
        <ele>1404.24</ele>
        <time>2017-01-01T12:27:55Z</time>
      </trkpt>
      <trkpt lat="44.7543" lon="7.18177">
        <ele>1409.57</ele>
        <time>2017-01-01T12:27:57Z</time>
      </trkpt>
      <trkpt lat="44.7548" lon="7.1819">
        <ele>1410.95</ele>
        <time>2017-01-01T12:28:00Z</time>
      </trkpt>
      <trkpt lat="44.75528" lon="7.18214">
        <ele>1413.18</ele>
        <time>2017-01-01T12:28:03Z</time>
      </trkpt>
      <trkpt lat="44.75533" lon="7.18192">
        <ele>1414.24</ele>
        <time>2017-01-01T12:28:04Z</time>
      </trkpt>
      <trkpt lat="44.7553" lon="7.18164">
        <ele>1413.56</ele>
        <time>2017-01-01T12:28:05Z</time>
      </trkpt>
      <trkpt lat="44.75541" lon="7.1814">
        <ele>1411.55</ele>
        <time>2017-01-01T12:28:06Z</time>
      </trkpt>
      <trkpt lat="44.75566" lon="7.18139">
        <ele>1408.07</ele>
        <time>2017-01-01T12:28:07Z</time>
      </trkpt>
      <trkpt lat="44.75625" lon="7.18171">
        <ele>1400.91</ele>
        <time>2017-01-01T12:28:11Z</time>
      </trkpt>
      <trkpt lat="44.75648" lon="7.18158">
        <ele>1395.1</ele>
        <time>2017-01-01T12:28:12Z</time>
      </trkpt>
      <trkpt lat="44.75648" lon="7.1812">
        <ele>1395.52</ele>
        <time>2017-01-01T12:28:13Z</time>
      </trkpt>
      <trkpt lat="44.75639" lon="7.1809">
        <ele>1396.19</ele>
        <time>2017-01-01T12:28:15Z</time>
      </trkpt>
      <trkpt lat="44.75647" lon="7.18059">
        <ele>1396.43</ele>
        <time>2017-01-01T12:28:16Z</time>
      </trkpt>
      <trkpt lat="44.75644" lon="7.18002">
        <ele>1398.26</ele>
        <time>2017-01-01T12:28:18Z</time>
      </trkpt>
      <trkpt lat="44.75624" lon="7.17975">
        <ele>1401.07</ele>
        <time>2017-01-01T12:28:20Z</time>
      </trkpt>
      <trkpt lat="44.75643" lon="7.17926">
        <ele>1401.26</ele>
        <time>2017-01-01T12:28:22Z</time>
      </trkpt>
      <trkpt lat="44.75671" lon="7.17952">
        <ele>1398.04</ele>
        <time>2017-01-01T12:28:24Z</time>
      </trkpt>
      <trkpt lat="44.75685" lon="7.17956">
        <ele>1396.48</ele>
        <time>2017-01-01T12:28:24Z</time>
      </trkpt>
      <trkpt lat="44.75703" lon="7.17931">
        <ele>1396.33</ele>
        <time>2017-01-01T12:28:26Z</time>
      </trkpt>
      <trkpt lat="44.75754" lon="7.17956">
        <ele>1397.39</ele>
        <time>2017-01-01T12:28:29Z</time>
      </trkpt>
      <trkpt lat="44.75763" lon="7.18003">
        <ele>1396.83</ele>
        <time>2017-01-01T12:28:31Z</time>
      </trkpt>
      <trkpt lat="44.75763" lon="7.18047">
        <ele>1397.77</ele>
        <time>2017-01-01T12:28:32Z</time>
      </trkpt>
      <trkpt lat="44.75777" lon="7.18052">
        <ele>1401.99</ele>
        <time>2017-01-01T12:28:33Z</time>
      </trkpt>
      <trkpt lat="44.75801" lon="7.17999">
        <ele>1404.55</ele>
        <time>2017-01-01T12:28:36Z</time>
      </trkpt>
      <trkpt lat="44.75792" lon="7.1794">
        <ele>1405.22</ele>
        <time>2017-01-01T12:28:38Z</time>
      </trkpt>
      <trkpt lat="44.75801" lon="7.17899">
        <ele>1407.77</ele>
        <time>2017-01-01T12:28:40Z</time>
      </trkpt>
      <trkpt lat="44.75826" lon="7.17897">
        <ele>1411.73</ele>
        <time>2017-01-01T12:28:41Z</time>
      </trkpt>
      <trkpt lat="44.7585" lon="7.17903">
        <ele>1414.09</ele>
        <time>2017-01-01T12:28:42Z</time>
      </trkpt>
      <trkpt lat="44.75859" lon="7.17889">
        <ele>1415.92</ele>
        <time>2017-01-01T12:28:43Z</time>
      </trkpt>
      <trkpt lat="44.75859" lon="7.17871">
        <ele>1414.32</ele>
        <time>2017-01-01T12:28:44Z</time>
      </trkpt>
      <trkpt lat="44.75865" lon="7.17844">
        <ele>1412.71</ele>
        <time>2017-01-01T12:28:45Z</time>
      </trkpt>
      <trkpt lat="44.75899" lon="7.17849">
        <ele>1409.93</ele>
        <time>2017-01-01T12:28:47Z</time>
      </trkpt>
      <trkpt lat="44.75935" lon="7.17847">
        <ele>1408.55</ele>
        <time>2017-01-01T12:28:49Z</time>
      </trkpt>
      <trkpt lat="44.75979" lon="7.17877">
        <ele>1404.28</ele>
        <time>2017-01-01T12:28:51Z</time>
      </trkpt>
      <trkpt lat="44.7606" lon="7.18062">
        <ele>1399.82</ele>
        <time>2017-01-01T12:29:00Z</time>
      </trkpt>
      <trkpt lat="44.76122" lon="7.18127">
        <ele>1413.92</ele>
        <time>2017-01-01T12:29:04Z</time>
      </trkpt>
      <trkpt lat="44.7618" lon="7.18199">
        <ele>1416.25</ele>
        <time>2017-01-01T12:29:08Z</time>
      </trkpt>
      <trkpt lat="44.76212" lon="7.18222">
        <ele>1421.01</ele>
        <time>2017-01-01T12:29:10Z</time>
      </trkpt>
      <trkpt lat="44.76233" lon="7.18252">
        <ele>1424.52</ele>
        <time>2017-01-01T12:29:12Z</time>
      </trkpt>
      <trkpt lat="44.76249" lon="7.18333">
        <ele>1430.5</ele>
        <time>2017-01-01T12:29:15Z</time>
      </trkpt>
      <trkpt lat="44.76246" lon="7.18439">
        <ele>1428.93</ele>
        <time>2017-01-01T12:29:19Z</time>
      </trkpt>
      <trkpt lat="44.76285" lon="7.18543">
        <ele>1430.02</ele>
        <time>2017-01-01T12:29:24Z</time>
      </trkpt>
      <trkpt lat="44.76426" lon="7.18722">
        <ele>1440.17</ele>
        <time>2017-01-01T12:29:34Z</time>
      </trkpt>
      <trkpt lat="44.76524" lon="7.18844">
        <ele>1446.55</ele>
        <time>2017-01-01T12:29:42Z</time>
      </trkpt>
      <trkpt lat="44.76557" lon="7.18866">
        <ele>1446.83</ele>
        <time>2017-01-01T12:29:44Z</time>
      </trkpt>
      <trkpt lat="44.76566" lon="7.1891">
        <ele>1445.89</ele>
        <time>2017-01-01T12:29:45Z</time>
      </trkpt>
      <trkpt lat="44.76586" lon="7.18894">
        <ele>1444.28</ele>
        <time>2017-01-01T12:29:47Z</time>
      </trkpt>
      <trkpt lat="44.76577" lon="7.18814">
        <ele>1441.1</ele>
        <time>2017-01-01T12:29:50Z</time>
      </trkpt>
      <trkpt lat="44.76594" lon="7.1877">
        <ele>1433.51</ele>
        <time>2017-01-01T12:29:52Z</time>
      </trkpt>
      <trkpt lat="44.76622" lon="7.18894">
        <ele>1426.17</ele>
        <time>2017-01-01T12:29:57Z</time>
      </trkpt>
      <trkpt lat="44.76633" lon="7.18887">
        <ele>1418.27</ele>
        <time>2017-01-01T12:29:57Z</time>
      </trkpt>
      <trkpt lat="44.76624" lon="7.18816">
        <ele>1414.84</ele>
        <time>2017-01-01T12:30:00Z</time>
      </trkpt>
      <trkpt lat="44.7667" lon="7.18556">
        <ele>1386.51</ele>
        <time>2017-01-01T12:30:11Z</time>
      </trkpt>
      <trkpt lat="44.7672" lon="7.18493">
        <ele>1372.08</ele>
        <time>2017-01-01T12:30:14Z</time>
      </trkpt>
      <trkpt lat="44.76777" lon="7.18434">
        <ele>1364.21</ele>
        <time>2017-01-01T12:30:18Z</time>
      </trkpt>
      <trkpt lat="44.76813" lon="7.18378">
        <ele>1356.51</ele>
        <time>2017-01-01T12:30:21Z</time>
      </trkpt>
      <trkpt lat="44.76832" lon="7.18308">
        <ele>1354.52</ele>
        <time>2017-01-01T12:30:24Z</time>
      </trkpt>
      <trkpt lat="44.76863" lon="7.18301">
        <ele>1349.99</ele>
        <time>2017-01-01T12:30:26Z</time>
      </trkpt>
      <trkpt lat="44.76982" lon="7.18429">
        <ele>1332.07</ele>
        <time>2017-01-01T12:30:34Z</time>
      </trkpt>
      <trkpt lat="44.77116" lon="7.18238">
        <ele>1324.74</ele>
        <time>2017-01-01T12:30:44Z</time>
      </trkpt>
      <trkpt lat="44.77279" lon="7.18474">
        <ele>1312.87</ele>
        <time>2017-01-01T12:30:57Z</time>
      </trkpt>
      <trkpt lat="44.77364" lon="7.1865">
        <ele>1295.98</ele>
        <time>2017-01-01T12:31:06Z</time>
      </trkpt>
      <trkpt lat="44.77416" lon="7.18783">
        <ele>1282.64</ele>
        <time>2017-01-01T12:31:11Z</time>
      </trkpt>
      <trkpt lat="44.77498" lon="7.18835">
        <ele>1277.3</ele>
        <time>2017-01-01T12:31:16Z</time>
      </trkpt>
      <trkpt lat="44.77546" lon="7.18938">
        <ele>1272.88</ele>
        <time>2017-01-01T12:31:21Z</time>
      </trkpt>
      <trkpt lat="44.77583" lon="7.19089">
        <ele>1264.53</ele>
        <time>2017-01-01T12:31:27Z</time>
      </trkpt>
      <trkpt lat="44.77579" lon="7.19237">
        <ele>1256.34</ele>
        <time>2017-01-01T12:31:33Z</time>
      </trkpt>
      <trkpt lat="44.776" lon="7.19396">
        <ele>1246.44</ele>
        <time>2017-01-01T12:31:39Z</time>
      </trkpt>
      <trkpt lat="44.77503" lon="7.19115">
        <ele>1228.94</ele>
        <time>2017-01-01T12:31:52Z</time>
      </trkpt>
      <trkpt lat="44.77493" lon="7.19219">
        <ele>1212.63</ele>
        <time>2017-01-01T12:31:56Z</time>
      </trkpt>
      <trkpt lat="44.7747" lon="7.1915">
        <ele>1206.57</ele>
        <time>2017-01-01T12:31:59Z</time>
      </trkpt>
      <trkpt lat="44.77523" lon="7.19609">
        <ele>1184.84</ele>
        <time>2017-01-01T12:32:17Z</time>
      </trkpt>
      <trkpt lat="44.77625" lon="7.19621">
        <ele>1180.12</ele>
        <time>2017-01-01T12:32:22Z</time>
      </trkpt>
      <trkpt lat="44.77733" lon="7.19654">
        <ele>1172.53</ele>
        <time>2017-01-01T12:32:28Z</time>
      </trkpt>
      <trkpt lat="44.77812" lon="7.19685">
        <ele>1164.89</ele>
        <time>2017-01-01T12:32:33Z</time>
      </trkpt>
      <trkpt lat="44.77871" lon="7.19696">
        <ele>1162.47</ele>
        <time>2017-01-01T12:32:36Z</time>
      </trkpt>
      <trkpt lat="44.77919" lon="7.19742">
        <ele>1160.07</ele>
        <time>2017-01-01T12:32:39Z</time>
      </trkpt>
      <trkpt lat="44.77981" lon="7.19742">
        <ele>1168.12</ele>
        <time>2017-01-01T12:32:43Z</time>
      </trkpt>
      <trkpt lat="44.78032" lon="7.19765">
        <ele>1167.51</ele>
        <time>2017-01-01T12:32:46Z</time>
      </trkpt>
      <trkpt lat="44.78067" lon="7.19715">
        <ele>1166.02</ele>
        <time>2017-01-01T12:32:48Z</time>
      </trkpt>
      <trkpt lat="44.78105" lon="7.19668">
        <ele>1158.14</ele>
        <time>2017-01-01T12:32:51Z</time>
      </trkpt>
      <trkpt lat="44.78138" lon="7.19608">
        <ele>1150.17</ele>
        <time>2017-01-01T12:32:54Z</time>
      </trkpt>
      <trkpt lat="44.78179" lon="7.19529">
        <ele>1140.21</ele>
        <time>2017-01-01T12:32:58Z</time>
      </trkpt>
      <trkpt lat="44.78198" lon="7.19514">
        <ele>1135.86</ele>
        <time>2017-01-01T12:32:59Z</time>
      </trkpt>
      <trkpt lat="44.78176" lon="7.19392">
        <ele>1126.35</ele>
        <time>2017-01-01T12:33:04Z</time>
      </trkpt>
      <trkpt lat="44.78188" lon="7.19286">
        <ele>1118.72</ele>
        <time>2017-01-01T12:33:08Z</time>
      </trkpt>
      <trkpt lat="44.78171" lon="7.19238">
        <ele>1116.48</ele>
        <time>2017-01-01T12:33:10Z</time>
      </trkpt>
      <trkpt lat="44.78244" lon="7.19287">
        <ele>1107</ele>
        <time>2017-01-01T12:33:15Z</time>
      </trkpt>
      <trkpt lat="44.78255" lon="7.19201">
        <ele>1099.02</ele>
        <time>2017-01-01T12:33:18Z</time>
      </trkpt>
      <trkpt lat="44.78276" lon="7.19083">
        <ele>1086.85</ele>
        <time>2017-01-01T12:33:23Z</time>
      </trkpt>
      <trkpt lat="44.78305" lon="7.19167">
        <ele>1076.11</ele>
        <time>2017-01-01T12:33:27Z</time>
      </trkpt>
      <trkpt lat="44.78346" lon="7.19114">
        <ele>1066.5</ele>
        <time>2017-01-01T12:33:30Z</time>
      </trkpt>
      <trkpt lat="44.78356" lon="7.19044">
        <ele>1060.71</ele>
        <time>2017-01-01T12:33:32Z</time>
      </trkpt>
      <trkpt lat="44.78391" lon="7.19093">
        <ele>1049.78</ele>
        <time>2017-01-01T12:33:35Z</time>
      </trkpt>
      <trkpt lat="44.78415" lon="7.18991">
        <ele>1046.07</ele>
        <time>2017-01-01T12:33:39Z</time>
      </trkpt>
      <trkpt lat="44.78424" lon="7.1889">
        <ele>1038.97</ele>
        <time>2017-01-01T12:33:43Z</time>
      </trkpt>
      <trkpt lat="44.78465" lon="7.18813">
        <ele>1035.17</ele>
        <time>2017-01-01T12:33:47Z</time>
      </trkpt>
      <trkpt lat="44.78473" lon="7.18716">
        <ele>1032.24</ele>
        <time>2017-01-01T12:33:51Z</time>
      </trkpt>
      <trkpt lat="44.7845" lon="7.18621">
        <ele>1028.92</ele>
        <time>2017-01-01T12:33:55Z</time>
      </trkpt>
      <trkpt lat="44.78548" lon="7.18637">
        <ele>1026.96</ele>
        <time>2017-01-01T12:34:00Z</time>
      </trkpt>
      <trkpt lat="44.78602" lon="7.18688">
        <ele>1020.72</ele>
        <time>2017-01-01T12:34:04Z</time>
      </trkpt>
      <trkpt lat="44.78729" lon="7.18756">
        <ele>1019.01</ele>
        <time>2017-01-01T12:34:11Z</time>
      </trkpt>
      <trkpt lat="44.78773" lon="7.18843">
        <ele>1013.57</ele>
        <time>2017-01-01T12:34:15Z</time>
      </trkpt>
      <trkpt lat="44.78858" lon="7.18803">
        <ele>1013.55</ele>
        <time>2017-01-01T12:34:20Z</time>
      </trkpt>
      <trkpt lat="44.78878" lon="7.18826">
        <ele>1014.49</ele>
        <time>2017-01-01T12:34:22Z</time>
      </trkpt>
      <trkpt lat="44.78825" lon="7.18975">
        <ele>1006.52</ele>
        <time>2017-01-01T12:34:28Z</time>
      </trkpt>
      <trkpt lat="44.78772" lon="7.19074">
        <ele>995.88</ele>
        <time>2017-01-01T12:34:33Z</time>
      </trkpt>
      <trkpt lat="44.7879" lon="7.19132">
        <ele>997.36</ele>
        <time>2017-01-01T12:34:35Z</time>
      </trkpt>
      <trkpt lat="44.78782" lon="7.19227">
        <ele>991.47</ele>
        <time>2017-01-01T12:34:39Z</time>
      </trkpt>
      <trkpt lat="44.78898" lon="7.19393">
        <ele>976.37</ele>
        <time>2017-01-01T12:34:48Z</time>
      </trkpt>
      <trkpt lat="44.7903" lon="7.19456">
        <ele>966.64</ele>
        <time>2017-01-01T12:34:56Z</time>
      </trkpt>
      <trkpt lat="44.79058" lon="7.19448">
        <ele>970.37</ele>
        <time>2017-01-01T12:34:57Z</time>
      </trkpt>
      <trkpt lat="44.79131" lon="7.19475">
        <ele>971.22</ele>
        <time>2017-01-01T12:35:01Z</time>
      </trkpt>
      <trkpt lat="44.79183" lon="7.19456">
        <ele>979.86</ele>
        <time>2017-01-01T12:35:04Z</time>
      </trkpt>
      <trkpt lat="44.79318" lon="7.19598">
        <ele>987.67</ele>
        <time>2017-01-01T12:35:14Z</time>
      </trkpt>
      <trkpt lat="44.79383" lon="7.19885">
        <ele>1011.92</ele>
        <time>2017-01-01T12:35:25Z</time>
      </trkpt>
      <trkpt lat="44.79383" lon="7.19833">
        <ele>1014.84</ele>
        <time>2017-01-01T12:35:27Z</time>
      </trkpt>
      <trkpt lat="44.79434" lon="7.1968">
        <ele>1037.35</ele>
        <time>2017-01-01T12:35:34Z</time>
      </trkpt>
      <trkpt lat="44.79448" lon="7.19531">
        <ele>1056.13</ele>
        <time>2017-01-01T12:35:40Z</time>
      </trkpt>
      <trkpt lat="44.79502" lon="7.19669">
        <ele>1068.28</ele>
        <time>2017-01-01T12:35:46Z</time>
      </trkpt>
      <trkpt lat="44.7952" lon="7.19665">
        <ele>1074.6</ele>
        <time>2017-01-01T12:35:47Z</time>
      </trkpt>
      <trkpt lat="44.79539" lon="7.19719">
        <ele>1078.22</ele>
        <time>2017-01-01T12:35:49Z</time>
      </trkpt>
      <trkpt lat="44.7956" lon="7.19855">
        <ele>1095.5</ele>
        <time>2017-01-01T12:35:55Z</time>
      </trkpt>
      <trkpt lat="44.7961" lon="7.1978">
        <ele>1104.79</ele>
        <time>2017-01-01T12:35:59Z</time>
      </trkpt>
      <trkpt lat="44.79626" lon="7.19719">
        <ele>1109.68</ele>
        <time>2017-01-01T12:36:01Z</time>
      </trkpt>
      <trkpt lat="44.79639" lon="7.19634">
        <ele>1119.68</ele>
        <time>2017-01-01T12:36:05Z</time>
      </trkpt>
      <trkpt lat="44.79659" lon="7.19677">
        <ele>1122.23</ele>
        <time>2017-01-01T12:36:07Z</time>
      </trkpt>
      <trkpt lat="44.79665" lon="7.19769">
        <ele>1124.3</ele>
        <time>2017-01-01T12:36:10Z</time>
      </trkpt>
      <trkpt lat="44.79713" lon="7.19836">
        <ele>1133.11</ele>
        <time>2017-01-01T12:36:14Z</time>
      </trkpt>
      <trkpt lat="44.79734" lon="7.19851">
        <ele>1136.73</ele>
        <time>2017-01-01T12:36:15Z</time>
      </trkpt>
      <trkpt lat="44.79817" lon="7.19781">
        <ele>1148.92</ele>
        <time>2017-01-01T12:36:20Z</time>
      </trkpt>
      <trkpt lat="44.79853" lon="7.1979">
        <ele>1145.72</ele>
        <time>2017-01-01T12:36:22Z</time>
      </trkpt>
      <trkpt lat="44.79875" lon="7.19849">
        <ele>1142.16</ele>
        <time>2017-01-01T12:36:25Z</time>
      </trkpt>
      <trkpt lat="44.79883" lon="7.19914">
        <ele>1142.11</ele>
        <time>2017-01-01T12:36:28Z</time>
      </trkpt>
      <trkpt lat="44.79901" lon="7.19953">
        <ele>1140.71</ele>
        <time>2017-01-01T12:36:29Z</time>
      </trkpt>
      <trkpt lat="44.79926" lon="7.19999">
        <ele>1136.7</ele>
        <time>2017-01-01T12:36:32Z</time>
      </trkpt>
      <trkpt lat="44.79954" lon="7.20019">
        <ele>1132.89</ele>
        <time>2017-01-01T12:36:33Z</time>
      </trkpt>
      <trkpt lat="44.80003" lon="7.20015">
        <ele>1123.6</ele>
        <time>2017-01-01T12:36:36Z</time>
      </trkpt>
      <trkpt lat="44.80032" lon="7.20038">
        <ele>1118.88</ele>
        <time>2017-01-01T12:36:38Z</time>
      </trkpt>
      <trkpt lat="44.80054" lon="7.20108">
        <ele>1120.97</ele>
        <time>2017-01-01T12:36:41Z</time>
      </trkpt>
      <trkpt lat="44.80097" lon="7.20137">
        <ele>1113.43</ele>
        <time>2017-01-01T12:36:44Z</time>
      </trkpt>
      <trkpt lat="44.80145" lon="7.20185">
        <ele>1106.32</ele>
        <time>2017-01-01T12:36:47Z</time>
      </trkpt>
      <trkpt lat="44.80179" lon="7.20264">
        <ele>1107.7</ele>
        <time>2017-01-01T12:36:50Z</time>
      </trkpt>
      <trkpt lat="44.80193" lon="7.20262">
        <ele>1101.74</ele>
        <time>2017-01-01T12:36:51Z</time>
      </trkpt>
      <trkpt lat="44.80143" lon="7.20132">
        <ele>1094.32</ele>
        <time>2017-01-01T12:36:57Z</time>
      </trkpt>
      <trkpt lat="44.80084" lon="7.20002">
        <ele>1082.05</ele>
        <time>2017-01-01T12:37:03Z</time>
      </trkpt>
      <trkpt lat="44.80057" lon="7.19925">
        <ele>1082.24</ele>
        <time>2017-01-01T12:37:06Z</time>
      </trkpt>
      <trkpt lat="44.80044" lon="7.19842">
        <ele>1069.66</ele>
        <time>2017-01-01T12:37:09Z</time>
      </trkpt>
      <trkpt lat="44.80019" lon="7.19621">
        <ele>1054.71</ele>
        <time>2017-01-01T12:37:18Z</time>
      </trkpt>
      <trkpt lat="44.80013" lon="7.19399">
        <ele>1041.51</ele>
        <time>2017-01-01T12:37:27Z</time>
      </trkpt>
      <trkpt lat="44.80024" lon="7.19266">
        <ele>1032.06</ele>
        <time>2017-01-01T12:37:32Z</time>
      </trkpt>
      <trkpt lat="44.80017" lon="7.19189">
        <ele>1025.03</ele>
        <time>2017-01-01T12:37:35Z</time>
      </trkpt>
      <trkpt lat="44.79978" lon="7.19099">
        <ele>1028.51</ele>
        <time>2017-01-01T12:37:39Z</time>
      </trkpt>
      <trkpt lat="44.79943" lon="7.18983">
        <ele>1024.77</ele>
        <time>2017-01-01T12:37:44Z</time>
      </trkpt>
      <trkpt lat="44.79984" lon="7.18876">
        <ele>1005.87</ele>
        <time>2017-01-01T12:37:49Z</time>
      </trkpt>
      <trkpt lat="44.79969" lon="7.18762">
        <ele>994.28</ele>
        <time>2017-01-01T12:37:53Z</time>
      </trkpt>
      <trkpt lat="44.79936" lon="7.18718">
        <ele>994.74</ele>
        <time>2017-01-01T12:37:56Z</time>
      </trkpt>
      <trkpt lat="44.80001" lon="7.18766">
        <ele>981.81</ele>
        <time>2017-01-01T12:38:00Z</time>
      </trkpt>
      <trkpt lat="44.80049" lon="7.18823">
        <ele>974.52</ele>
        <time>2017-01-01T12:38:03Z</time>
      </trkpt>
      <trkpt lat="44.80056" lon="7.18857">
        <ele>973.09</ele>
        <time>2017-01-01T12:38:05Z</time>
      </trkpt>
      <trkpt lat="44.80022" lon="7.18938">
        <ele>969.03</ele>
        <time>2017-01-01T12:38:08Z</time>
      </trkpt>
      <trkpt lat="44.80044" lon="7.18988">
        <ele>960.37</ele>
        <time>2017-01-01T12:38:11Z</time>
      </trkpt>
      <trkpt lat="44.80126" lon="7.19063">
        <ele>950.29</ele>
        <time>2017-01-01T12:38:16Z</time>
      </trkpt>
      <trkpt lat="44.80155" lon="7.19128">
        <ele>944.59</ele>
        <time>2017-01-01T12:38:19Z</time>
      </trkpt>
      <trkpt lat="44.80159" lon="7.19217">
        <ele>941.28</ele>
        <time>2017-01-01T12:38:22Z</time>
      </trkpt>
      <trkpt lat="44.80193" lon="7.19292">
        <ele>928.4</ele>
        <time>2017-01-01T12:38:26Z</time>
      </trkpt>
      <trkpt lat="44.80229" lon="7.19328">
        <ele>918.8</ele>
        <time>2017-01-01T12:38:28Z</time>
      </trkpt>
      <trkpt lat="44.8027" lon="7.19439">
        <ele>914.04</ele>
        <time>2017-01-01T12:38:33Z</time>
      </trkpt>
      <trkpt lat="44.80351" lon="7.19559">
        <ele>907.35</ele>
        <time>2017-01-01T12:38:40Z</time>
      </trkpt>
      <trkpt lat="44.8036" lon="7.19526">
        <ele>899.17</ele>
        <time>2017-01-01T12:38:41Z</time>
      </trkpt>
      <trkpt lat="44.80306" lon="7.19405">
        <ele>890.72</ele>
        <time>2017-01-01T12:38:47Z</time>
      </trkpt>
      <trkpt lat="44.80277" lon="7.19248">
        <ele>877.95</ele>
        <time>2017-01-01T12:38:53Z</time>
      </trkpt>
      <trkpt lat="44.80271" lon="7.1909">
        <ele>863.58</ele>
        <time>2017-01-01T12:38:59Z</time>
      </trkpt>
      <trkpt lat="44.80256" lon="7.18915">
        <ele>847.42</ele>
        <time>2017-01-01T12:39:06Z</time>
      </trkpt>
      <trkpt lat="44.80275" lon="7.18893">
        <ele>844.36</ele>
        <time>2017-01-01T12:39:07Z</time>
      </trkpt>
      <trkpt lat="44.8028" lon="7.1885">
        <ele>844.76</ele>
        <time>2017-01-01T12:39:09Z</time>
      </trkpt>
      <trkpt lat="44.80255" lon="7.18789">
        <ele>845.71</ele>
        <time>2017-01-01T12:39:12Z</time>
      </trkpt>
      <trkpt lat="44.80259" lon="7.18699">
        <ele>838.58</ele>
        <time>2017-01-01T12:39:15Z</time>
      </trkpt>
      <trkpt lat="44.80293" lon="7.18658">
        <ele>823.33</ele>
        <time>2017-01-01T12:39:18Z</time>
      </trkpt>
      <trkpt lat="44.80307" lon="7.18607">
        <ele>823.04</ele>
        <time>2017-01-01T12:39:20Z</time>
      </trkpt>
      <trkpt lat="44.80268" lon="7.18552">
        <ele>823.46</ele>
        <time>2017-01-01T12:39:23Z</time>
      </trkpt>
      <trkpt lat="44.80255" lon="7.18473">
        <ele>810.03</ele>
        <time>2017-01-01T12:39:26Z</time>
      </trkpt>
      <trkpt lat="44.80223" lon="7.18431">
        <ele>814.49</ele>
        <time>2017-01-01T12:39:28Z</time>
      </trkpt>
      <trkpt lat="44.80207" lon="7.1838">
        <ele>804.95</ele>
        <time>2017-01-01T12:39:30Z</time>
      </trkpt>
      <trkpt lat="44.80226" lon="7.18326">
        <ele>796.99</ele>
        <time>2017-01-01T12:39:33Z</time>
      </trkpt>
      <trkpt lat="44.80226" lon="7.18283">
        <ele>796.3</ele>
        <time>2017-01-01T12:39:35Z</time>
      </trkpt>
      <trkpt lat="44.80233" lon="7.18261">
        <ele>790.6</ele>
        <time>2017-01-01T12:39:35Z</time>
      </trkpt>
      <trkpt lat="44.80253" lon="7.18298">
        <ele>783.72</ele>
        <time>2017-01-01T12:39:37Z</time>
      </trkpt>
      <trkpt lat="44.80248" lon="7.18336">
        <ele>786.42</ele>
        <time>2017-01-01T12:39:39Z</time>
      </trkpt>
      <trkpt lat="44.80261" lon="7.18375">
        <ele>787.95</ele>
        <time>2017-01-01T12:39:40Z</time>
      </trkpt>
      <trkpt lat="44.80298" lon="7.1837">
        <ele>779.19</ele>
        <time>2017-01-01T12:39:42Z</time>
      </trkpt>
      <trkpt lat="44.80337" lon="7.18347">
        <ele>776.95</ele>
        <time>2017-01-01T12:39:45Z</time>
      </trkpt>
      <trkpt lat="44.80367" lon="7.1834">
        <ele>775.79</ele>
        <time>2017-01-01T12:39:46Z</time>
      </trkpt>
      <trkpt lat="44.8036" lon="7.18313">
        <ele>774.33</ele>
        <time>2017-01-01T12:39:48Z</time>
      </trkpt>
      <trkpt lat="44.8034" lon="7.18303">
        <ele>772.9</ele>
        <time>2017-01-01T12:39:49Z</time>
      </trkpt>
      <trkpt lat="44.80296" lon="7.18332">
        <ele>774.15</ele>
        <time>2017-01-01T12:39:51Z</time>
      </trkpt>
      <trkpt lat="44.80281" lon="7.1833">
        <ele>774.45</ele>
        <time>2017-01-01T12:39:52Z</time>
      </trkpt>
      <trkpt lat="44.80273" lon="7.18276">
        <ele>768.88</ele>
        <time>2017-01-01T12:39:54Z</time>
      </trkpt>
      <trkpt lat="44.80258" lon="7.18203">
        <ele>764.16</ele>
        <time>2017-01-01T12:39:57Z</time>
      </trkpt>
      <trkpt lat="44.80272" lon="7.18127">
        <ele>755.53</ele>
        <time>2017-01-01T12:40:00Z</time>
      </trkpt>
      <trkpt lat="44.80288" lon="7.18101">
        <ele>752.74</ele>
        <time>2017-01-01T12:40:02Z</time>
      </trkpt>
      <trkpt lat="44.80322" lon="7.18101">
        <ele>745.14</ele>
        <time>2017-01-01T12:40:04Z</time>
      </trkpt>
      <trkpt lat="44.80353" lon="7.1806">
        <ele>747.23</ele>
        <time>2017-01-01T12:40:06Z</time>
      </trkpt>
      <trkpt lat="44.80395" lon="7.17804">
        <ele>724.23</ele>
        <time>2017-01-01T12:40:16Z</time>
      </trkpt>
      <trkpt lat="44.80376" lon="7.17683">
        <ele>714.64</ele>
        <time>2017-01-01T12:40:21Z</time>
      </trkpt>
      <trkpt lat="44.80339" lon="7.17583">
        <ele>714.34</ele>
        <time>2017-01-01T12:40:25Z</time>
      </trkpt>
      <trkpt lat="44.80367" lon="7.17561">
        <ele>700.6</ele>
        <time>2017-01-01T12:40:27Z</time>
      </trkpt>
      <trkpt lat="44.80433" lon="7.17816">
        <ele>698.27</ele>
        <time>2017-01-01T12:40:38Z</time>
      </trkpt>
      <trkpt lat="44.80433" lon="7.17925">
        <ele>690.79</ele>
        <time>2017-01-01T12:40:42Z</time>
      </trkpt>
      <trkpt lat="44.80439" lon="7.18045">
        <ele>687.92</ele>
        <time>2017-01-01T12:40:47Z</time>
      </trkpt>
      <trkpt lat="44.80487" lon="7.18114">
        <ele>677.52</ele>
        <time>2017-01-01T12:40:50Z</time>
      </trkpt>
      <trkpt lat="44.80517" lon="7.18199">
        <ele>671.08</ele>
        <time>2017-01-01T12:40:54Z</time>
      </trkpt>
      <trkpt lat="44.80507" lon="7.18289">
        <ele>668.35</ele>
        <time>2017-01-01T12:40:58Z</time>
      </trkpt>
      <trkpt lat="44.80525" lon="7.18587">
        <ele>652.72</ele>
        <time>2017-01-01T12:41:09Z</time>
      </trkpt>
      <trkpt lat="44.80554" lon="7.18648">
        <ele>646.36</ele>
        <time>2017-01-01T12:41:12Z</time>
      </trkpt>
      <trkpt lat="44.80571" lon="7.18704">
        <ele>641.78</ele>
        <time>2017-01-01T12:41:14Z</time>
      </trkpt>
      <trkpt lat="44.80571" lon="7.18747">
        <ele>641.66</ele>
        <time>2017-01-01T12:41:16Z</time>
      </trkpt>
      <trkpt lat="44.8058" lon="7.18798">
        <ele>642.85</ele>
        <time>2017-01-01T12:41:18Z</time>
      </trkpt>
      <trkpt lat="44.80611" lon="7.18827">
        <ele>635.96</ele>
        <time>2017-01-01T12:41:20Z</time>
      </trkpt>
      <trkpt lat="44.80664" lon="7.18822">
        <ele>630.01</ele>
        <time>2017-01-01T12:41:23Z</time>
      </trkpt>
      <trkpt lat="44.80692" lon="7.18876">
        <ele>629.48</ele>
        <time>2017-01-01T12:41:26Z</time>
      </trkpt>
      <trkpt lat="44.80707" lon="7.18854">
        <ele>626.31</ele>
        <time>2017-01-01T12:41:27Z</time>
      </trkpt>
      <trkpt lat="44.80699" lon="7.18711">
        <ele>619.21</ele>
        <time>2017-01-01T12:41:32Z</time>
      </trkpt>
      <trkpt lat="44.80821" lon="7.18706">
        <ele>610.2</ele>
        <time>2017-01-01T12:41:39Z</time>
      </trkpt>
      <trkpt lat="44.80867" lon="7.18826">
        <ele>605.17</ele>
        <time>2017-01-01T12:41:44Z</time>
      </trkpt>
      <trkpt lat="44.80909" lon="7.19072">
        <ele>596.64</ele>
        <time>2017-01-01T12:41:54Z</time>
      </trkpt>
      <trkpt lat="44.8098" lon="7.19199">
        <ele>579.72</ele>
        <time>2017-01-01T12:42:01Z</time>
      </trkpt>
      <trkpt lat="44.81119" lon="7.19285">
        <ele>573.53</ele>
        <time>2017-01-01T12:42:09Z</time>
      </trkpt>
      <trkpt lat="44.81296" lon="7.19785">
        <ele>563.71</ele>
        <time>2017-01-01T12:42:31Z</time>
      </trkpt>
      <trkpt lat="44.8136" lon="7.19965">
        <ele>558.26</ele>
        <time>2017-01-01T12:42:38Z</time>
      </trkpt>
      <trkpt lat="44.81405" lon="7.20085">
        <ele>553.59</ele>
        <time>2017-01-01T12:42:44Z</time>
      </trkpt>
      <trkpt lat="44.81408" lon="7.2025">
        <ele>549.94</ele>
        <time>2017-01-01T12:42:50Z</time>
      </trkpt>
      <trkpt lat="44.8152" lon="7.20589">
        <ele>544.41</ele>
        <time>2017-01-01T12:43:05Z</time>
      </trkpt>
      <trkpt lat="44.81558" lon="7.20619">
        <ele>539.65</ele>
        <time>2017-01-01T12:43:07Z</time>
      </trkpt>
      <trkpt lat="44.8159" lon="7.2065">
        <ele>537.72</ele>
        <time>2017-01-01T12:43:09Z</time>
      </trkpt>
      <trkpt lat="44.81795" lon="7.20585">
        <ele>536.29</ele>
        <time>2017-01-01T12:43:21Z</time>
      </trkpt>
      <trkpt lat="44.81827" lon="7.2063">
        <ele>537.11</ele>
        <time>2017-01-01T12:43:23Z</time>
      </trkpt>
      <trkpt lat="44.81838" lon="7.20772">
        <ele>537.96</ele>
        <time>2017-01-01T12:43:29Z</time>
      </trkpt>
      <trkpt lat="44.81955" lon="7.20933">
        <ele>544.28</ele>
        <time>2017-01-01T12:43:38Z</time>
      </trkpt>
      <trkpt lat="44.81967" lon="7.2116">
        <ele>539.52</ele>
        <time>2017-01-01T12:43:47Z</time>
      </trkpt>
      <trkpt lat="44.81932" lon="7.21386">
        <ele>531.62</ele>
        <time>2017-01-01T12:43:56Z</time>
      </trkpt>
      <trkpt lat="44.81955" lon="7.22036">
        <ele>524.72</ele>
        <time>2017-01-01T12:44:21Z</time>
      </trkpt>
      <trkpt lat="44.81981" lon="7.22398">
        <ele>518</ele>
        <time>2017-01-01T12:44:35Z</time>
      </trkpt>
      <trkpt lat="44.8202" lon="7.22551">
        <ele>515.73</ele>
        <time>2017-01-01T12:44:41Z</time>
      </trkpt>
      <trkpt lat="44.8209" lon="7.22713">
        <ele>517</ele>
        <time>2017-01-01T12:44:49Z</time>
      </trkpt>
      <trkpt lat="44.82051" lon="7.22995">
        <ele>517.15</ele>
        <time>2017-01-01T12:45:00Z</time>
      </trkpt>
      <trkpt lat="44.81998" lon="7.23244">
        <ele>511.21</ele>
        <time>2017-01-01T12:45:10Z</time>
      </trkpt>
      <trkpt lat="44.81773" lon="7.23695">
        <ele>497.79</ele>
        <time>2017-01-01T12:45:31Z</time>
      </trkpt>
      <trkpt lat="44.81987" lon="7.2375">
        <ele>511.05</ele>
        <time>2017-01-01T12:45:43Z</time>
      </trkpt>
      <trkpt lat="44.82113" lon="7.23782">
        <ele>517.11</ele>
        <time>2017-01-01T12:45:50Z</time>
      </trkpt>
      <trkpt lat="44.82206" lon="7.23766">
        <ele>523.98</ele>
        <time>2017-01-01T12:45:56Z</time>
      </trkpt>
      <trkpt lat="44.82378" lon="7.2365">
        <ele>547.31</ele>
        <time>2017-01-01T12:46:06Z</time>
      </trkpt>
      <trkpt lat="44.82375" lon="7.23568">
        <ele>549.22</ele>
        <time>2017-01-01T12:46:09Z</time>
      </trkpt>
      <trkpt lat="44.82458" lon="7.23506">
        <ele>553.78</ele>
        <time>2017-01-01T12:46:14Z</time>
      </trkpt>
      <trkpt lat="44.82605" lon="7.2334">
        <ele>567.27</ele>
        <time>2017-01-01T12:46:25Z</time>
      </trkpt>
      <trkpt lat="44.82664" lon="7.23298">
        <ele>574.32</ele>
        <time>2017-01-01T12:46:28Z</time>
      </trkpt>
      <trkpt lat="44.82739" lon="7.23306">
        <ele>583.36</ele>
        <time>2017-01-01T12:46:32Z</time>
      </trkpt>
      <trkpt lat="44.82782" lon="7.23357">
        <ele>589.7</ele>
        <time>2017-01-01T12:46:35Z</time>
      </trkpt>
      <trkpt lat="44.82784" lon="7.23304">
        <ele>590.63</ele>
        <time>2017-01-01T12:46:38Z</time>
      </trkpt>
      <trkpt lat="44.82792" lon="7.23233">
        <ele>590.41</ele>
        <time>2017-01-01T12:46:40Z</time>
      </trkpt>
      <trkpt lat="44.82818" lon="7.23126">
        <ele>590.67</ele>
        <time>2017-01-01T12:46:45Z</time>
      </trkpt>
      <trkpt lat="44.8283" lon="7.23066">
        <ele>593.68</ele>
        <time>2017-01-01T12:46:47Z</time>
      </trkpt>
      <trkpt lat="44.82929" lon="7.22943">
        <ele>608.29</ele>
        <time>2017-01-01T12:46:54Z</time>
      </trkpt>
      <trkpt lat="44.83002" lon="7.2275">
        <ele>614.74</ele>
        <time>2017-01-01T12:47:03Z</time>
      </trkpt>
      <trkpt lat="44.83048" lon="7.22662">
        <ele>626.82</ele>
        <time>2017-01-01T12:47:07Z</time>
      </trkpt>
      <trkpt lat="44.8309" lon="7.22601">
        <ele>624.85</ele>
        <time>2017-01-01T12:47:10Z</time>
      </trkpt>
      <trkpt lat="44.83245" lon="7.22488">
        <ele>635.38</ele>
        <time>2017-01-01T12:47:20Z</time>
      </trkpt>
      <trkpt lat="44.83381" lon="7.22572">
        <ele>652.45</ele>
        <time>2017-01-01T12:47:28Z</time>
      </trkpt>
      <trkpt lat="44.83465" lon="7.22583">
        <ele>651.58</ele>
        <time>2017-01-01T12:47:33Z</time>
      </trkpt>
      <trkpt lat="44.83564" lon="7.22596">
        <ele>661.34</ele>
        <time>2017-01-01T12:47:38Z</time>
      </trkpt>
      <trkpt lat="44.83618" lon="7.22628">
        <ele>667.6</ele>
        <time>2017-01-01T12:47:41Z</time>
      </trkpt>
      <trkpt lat="44.83662" lon="7.22672">
        <ele>671.69</ele>
        <time>2017-01-01T12:47:44Z</time>
      </trkpt>
      <trkpt lat="44.83693" lon="7.22652">
        <ele>677.4</ele>
        <time>2017-01-01T12:47:46Z</time>
      </trkpt>
      <trkpt lat="44.83742" lon="7.22591">
        <ele>682.21</ele>
        <time>2017-01-01T12:47:50Z</time>
      </trkpt>
      <trkpt lat="44.83829" lon="7.22539">
        <ele>686.49</ele>
        <time>2017-01-01T12:47:55Z</time>
      </trkpt>
      <trkpt lat="44.83886" lon="7.2257">
        <ele>686.94</ele>
        <time>2017-01-01T12:47:58Z</time>
      </trkpt>
      <trkpt lat="44.83936" lon="7.2264">
        <ele>694.98</ele>
        <time>2017-01-01T12:48:02Z</time>
      </trkpt>
      <trkpt lat="44.83985" lon="7.22785">
        <ele>715.64</ele>
        <time>2017-01-01T12:48:08Z</time>
      </trkpt>
      <trkpt lat="44.84029" lon="7.2268">
        <ele>717.31</ele>
        <time>2017-01-01T12:48:13Z</time>
      </trkpt>
      <trkpt lat="44.84097" lon="7.22678">
        <ele>728.67</ele>
        <time>2017-01-01T12:48:17Z</time>
      </trkpt>
      <trkpt lat="44.84151" lon="7.22705">
        <ele>741.06</ele>
        <time>2017-01-01T12:48:20Z</time>
      </trkpt>
      <trkpt lat="44.84152" lon="7.22658">
        <ele>737.46</ele>
        <time>2017-01-01T12:48:22Z</time>
      </trkpt>
      <trkpt lat="44.84113" lon="7.22553">
        <ele>738.71</ele>
        <time>2017-01-01T12:48:26Z</time>
      </trkpt>
      <trkpt lat="44.84129" lon="7.22476">
        <ele>740.69</ele>
        <time>2017-01-01T12:48:30Z</time>
      </trkpt>
      <trkpt lat="44.84209" lon="7.22447">
        <ele>745.66</ele>
        <time>2017-01-01T12:48:34Z</time>
      </trkpt>
      <trkpt lat="44.84277" lon="7.22507">
        <ele>752.46</ele>
        <time>2017-01-01T12:48:38Z</time>
      </trkpt>
      <trkpt lat="44.84292" lon="7.22475">
        <ele>751.51</ele>
        <time>2017-01-01T12:48:40Z</time>
      </trkpt>
      <trkpt lat="44.84307" lon="7.22422">
        <ele>754.75</ele>
        <time>2017-01-01T12:48:42Z</time>
      </trkpt>
      <trkpt lat="44.84361" lon="7.22404">
        <ele>758.05</ele>
        <time>2017-01-01T12:48:45Z</time>
      </trkpt>
      <trkpt lat="44.84387" lon="7.22407">
        <ele>760.38</ele>
        <time>2017-01-01T12:48:47Z</time>
      </trkpt>
      <trkpt lat="44.84355" lon="7.22505">
        <ele>771.59</ele>
        <time>2017-01-01T12:48:51Z</time>
      </trkpt>
      <trkpt lat="44.8432" lon="7.22609">
        <ele>779</ele>
        <time>2017-01-01T12:48:55Z</time>
      </trkpt>
      <trkpt lat="44.84247" lon="7.2259">
        <ele>783.03</ele>
        <time>2017-01-01T12:48:59Z</time>
      </trkpt>
      <trkpt lat="44.84266" lon="7.22617">
        <ele>788.25</ele>
        <time>2017-01-01T12:49:01Z</time>
      </trkpt>
      <trkpt lat="44.84306" lon="7.22669">
        <ele>794.27</ele>
        <time>2017-01-01T12:49:04Z</time>
      </trkpt>
      <trkpt lat="44.84332" lon="7.22755">
        <ele>802.05</ele>
        <time>2017-01-01T12:49:08Z</time>
      </trkpt>
      <trkpt lat="44.84353" lon="7.22747">
        <ele>803.69</ele>
        <time>2017-01-01T12:49:09Z</time>
      </trkpt>
      <trkpt lat="44.84383" lon="7.2268">
        <ele>806.58</ele>
        <time>2017-01-01T12:49:12Z</time>
      </trkpt>
      <trkpt lat="44.84403" lon="7.22678">
        <ele>812.04</ele>
        <time>2017-01-01T12:49:13Z</time>
      </trkpt>
      <trkpt lat="44.84387" lon="7.22706">
        <ele>812.25</ele>
        <time>2017-01-01T12:49:14Z</time>
      </trkpt>
      <trkpt lat="44.84386" lon="7.22796">
        <ele>818.52</ele>
        <time>2017-01-01T12:49:18Z</time>
      </trkpt>
      <trkpt lat="44.84345" lon="7.22841">
        <ele>822.44</ele>
        <time>2017-01-01T12:49:21Z</time>
      </trkpt>
      <trkpt lat="44.84365" lon="7.22848">
        <ele>827.75</ele>
        <time>2017-01-01T12:49:22Z</time>
      </trkpt>
      <trkpt lat="44.84394" lon="7.22838">
        <ele>829.91</ele>
        <time>2017-01-01T12:49:23Z</time>
      </trkpt>
      <trkpt lat="44.84422" lon="7.22807">
        <ele>833.96</ele>
        <time>2017-01-01T12:49:25Z</time>
      </trkpt>
      <trkpt lat="44.84427" lon="7.22775">
        <ele>833.86</ele>
        <time>2017-01-01T12:49:27Z</time>
      </trkpt>
      <trkpt lat="44.84489" lon="7.22727">
        <ele>844.44</ele>
        <time>2017-01-01T12:49:30Z</time>
      </trkpt>
      <trkpt lat="44.84536" lon="7.22666">
        <ele>848.58</ele>
        <time>2017-01-01T12:49:34Z</time>
      </trkpt>
      <trkpt lat="44.84575" lon="7.22678">
        <ele>855.21</ele>
        <time>2017-01-01T12:49:36Z</time>
      </trkpt>
      <trkpt lat="44.84597" lon="7.22673">
        <ele>857.72</ele>
        <time>2017-01-01T12:49:37Z</time>
      </trkpt>
      <trkpt lat="44.84615" lon="7.22651">
        <ele>860.57</ele>
        <time>2017-01-01T12:49:39Z</time>
      </trkpt>
      <trkpt lat="44.84608" lon="7.22706">
        <ele>866.27</ele>
        <time>2017-01-01T12:49:41Z</time>
      </trkpt>
      <trkpt lat="44.84583" lon="7.22767">
        <ele>872.41</ele>
        <time>2017-01-01T12:49:44Z</time>
      </trkpt>
      <trkpt lat="44.84552" lon="7.22797">
        <ele>876.98</ele>
        <time>2017-01-01T12:49:46Z</time>
      </trkpt>
      <trkpt lat="44.84531" lon="7.22833">
        <ele>878.35</ele>
        <time>2017-01-01T12:49:47Z</time>
      </trkpt>
      <trkpt lat="44.84543" lon="7.22867">
        <ele>880.79</ele>
        <time>2017-01-01T12:49:49Z</time>
      </trkpt>
      <trkpt lat="44.84527" lon="7.22926">
        <ele>883.19</ele>
        <time>2017-01-01T12:49:51Z</time>
      </trkpt>
      <trkpt lat="44.84485" lon="7.23002">
        <ele>885.96</ele>
        <time>2017-01-01T12:49:55Z</time>
      </trkpt>
      <trkpt lat="44.84463" lon="7.23064">
        <ele>888.64</ele>
        <time>2017-01-01T12:49:58Z</time>
      </trkpt>
      <trkpt lat="44.84493" lon="7.23109">
        <ele>891.37</ele>
        <time>2017-01-01T12:50:00Z</time>
      </trkpt>
      <trkpt lat="44.84552" lon="7.23156">
        <ele>896.68</ele>
        <time>2017-01-01T12:50:04Z</time>
      </trkpt>
      <trkpt lat="44.84568" lon="7.23223">
        <ele>897.34</ele>
        <time>2017-01-01T12:50:07Z</time>
      </trkpt>
      <trkpt lat="44.84512" lon="7.2327">
        <ele>895.83</ele>
        <time>2017-01-01T12:50:10Z</time>
      </trkpt>
      <trkpt lat="44.84505" lon="7.23305">
        <ele>902.22</ele>
        <time>2017-01-01T12:50:12Z</time>
      </trkpt>
      <trkpt lat="44.84469" lon="7.23404">
        <ele>903.91</ele>
        <time>2017-01-01T12:50:16Z</time>
      </trkpt>
      <trkpt lat="44.8443" lon="7.23381">
        <ele>900.62</ele>
        <time>2017-01-01T12:50:18Z</time>
      </trkpt>
      <trkpt lat="44.84376" lon="7.23463">
        <ele>904.82</ele>
        <time>2017-01-01T12:50:23Z</time>
      </trkpt>
      <trkpt lat="44.84361" lon="7.23606">
        <ele>910.88</ele>
        <time>2017-01-01T12:50:28Z</time>
      </trkpt>
      <trkpt lat="44.8431" lon="7.23648">
        <ele>914.23</ele>
        <time>2017-01-01T12:50:31Z</time>
      </trkpt>
      <trkpt lat="44.84287" lon="7.23703">
        <ele>916.76</ele>
        <time>2017-01-01T12:50:34Z</time>
      </trkpt>
      <trkpt lat="44.84294" lon="7.23769">
        <ele>922.9</ele>
        <time>2017-01-01T12:50:37Z</time>
      </trkpt>
      <trkpt lat="44.84277" lon="7.2385">
        <ele>930.57</ele>
        <time>2017-01-01T12:50:40Z</time>
      </trkpt>
      <trkpt lat="44.84276" lon="7.23993">
        <ele>940.85</ele>
        <time>2017-01-01T12:50:45Z</time>
      </trkpt>
      <trkpt lat="44.84245" lon="7.24058">
        <ele>943.41</ele>
        <time>2017-01-01T12:50:48Z</time>
      </trkpt>
      <trkpt lat="44.84203" lon="7.24054">
        <ele>946.01</ele>
        <time>2017-01-01T12:50:51Z</time>
      </trkpt>
      <trkpt lat="44.84181" lon="7.24075">
        <ele>949.98</ele>
        <time>2017-01-01T12:50:52Z</time>
      </trkpt>
      <trkpt lat="44.84165" lon="7.24109">
        <ele>953.94</ele>
        <time>2017-01-01T12:50:54Z</time>
      </trkpt>
      <trkpt lat="44.84163" lon="7.24166">
        <ele>954.99</ele>
        <time>2017-01-01T12:50:56Z</time>
      </trkpt>
      <trkpt lat="44.84209" lon="7.24191">
        <ele>959.35</ele>
        <time>2017-01-01T12:50:59Z</time>
      </trkpt>
      <trkpt lat="44.84262" lon="7.24201">
        <ele>961.24</ele>
        <time>2017-01-01T12:51:02Z</time>
      </trkpt>
      <trkpt lat="44.84342" lon="7.24143">
        <ele>969.95</ele>
        <time>2017-01-01T12:51:07Z</time>
      </trkpt>
      <trkpt lat="44.84424" lon="7.24094">
        <ele>979.53</ele>
        <time>2017-01-01T12:51:11Z</time>
      </trkpt>
      <trkpt lat="44.84437" lon="7.23997">
        <ele>990.5</ele>
        <time>2017-01-01T12:51:15Z</time>
      </trkpt>
      <trkpt lat="44.84464" lon="7.23955">
        <ele>995.56</ele>
        <time>2017-01-01T12:51:18Z</time>
      </trkpt>
      <trkpt lat="44.84489" lon="7.23929">
        <ele>995.95</ele>
        <time>2017-01-01T12:51:19Z</time>
      </trkpt>
      <trkpt lat="44.84515" lon="7.23937">
        <ele>997.8</ele>
        <time>2017-01-01T12:51:21Z</time>
      </trkpt>
      <trkpt lat="44.84537" lon="7.24012">
        <ele>995.02</ele>
        <time>2017-01-01T12:51:24Z</time>
      </trkpt>
      <trkpt lat="44.84593" lon="7.24018">
        <ele>996.83</ele>
        <time>2017-01-01T12:51:27Z</time>
      </trkpt>
      <trkpt lat="44.84648" lon="7.23995">
        <ele>1007.21</ele>
        <time>2017-01-01T12:51:30Z</time>
      </trkpt>
      <trkpt lat="44.84768" lon="7.24014">
        <ele>1012.58</ele>
        <time>2017-01-01T12:51:37Z</time>
      </trkpt>
      <trkpt lat="44.84738" lon="7.23996">
        <ele>1021.53</ele>
        <time>2017-01-01T12:51:38Z</time>
      </trkpt>
      <trkpt lat="44.84701" lon="7.23949">
        <ele>1026.93</ele>
        <time>2017-01-01T12:51:41Z</time>
      </trkpt>
      <trkpt lat="44.84699" lon="7.23872">
        <ele>1031.88</ele>
        <time>2017-01-01T12:51:44Z</time>
      </trkpt>
      <trkpt lat="44.84768" lon="7.23769">
        <ele>1042.01</ele>
        <time>2017-01-01T12:51:50Z</time>
      </trkpt>
      <trkpt lat="44.84805" lon="7.23718">
        <ele>1046.06</ele>
        <time>2017-01-01T12:51:52Z</time>
      </trkpt>
      <trkpt lat="44.84849" lon="7.23696">
        <ele>1052.41</ele>
        <time>2017-01-01T12:51:55Z</time>
      </trkpt>
      <trkpt lat="44.84866" lon="7.23616">
        <ele>1057.63</ele>
        <time>2017-01-01T12:51:58Z</time>
      </trkpt>
      <trkpt lat="44.84919" lon="7.2354">
        <ele>1061.07</ele>
        <time>2017-01-01T12:52:02Z</time>
      </trkpt>
      <trkpt lat="44.84898" lon="7.23491">
        <ele>1062.09</ele>
        <time>2017-01-01T12:52:05Z</time>
      </trkpt>
      <trkpt lat="44.84915" lon="7.23385">
        <ele>1071.17</ele>
        <time>2017-01-01T12:52:09Z</time>
      </trkpt>
      <trkpt lat="44.84913" lon="7.23276">
        <ele>1067.6</ele>
        <time>2017-01-01T12:52:13Z</time>
      </trkpt>
      <trkpt lat="44.84927" lon="7.23178">
        <ele>1068.29</ele>
        <time>2017-01-01T12:52:17Z</time>
      </trkpt>
      <trkpt lat="44.84958" lon="7.23151">
        <ele>1069.05</ele>
        <time>2017-01-01T12:52:19Z</time>
      </trkpt>
      <trkpt lat="44.8499" lon="7.23149">
        <ele>1069.43</ele>
        <time>2017-01-01T12:52:21Z</time>
      </trkpt>
      <trkpt lat="44.85056" lon="7.23151">
        <ele>1068.65</ele>
        <time>2017-01-01T12:52:24Z</time>
      </trkpt>
      <trkpt lat="44.85117" lon="7.23158">
        <ele>1064.09</ele>
        <time>2017-01-01T12:52:28Z</time>
      </trkpt>
      <trkpt lat="44.85179" lon="7.23141">
        <ele>1069.15</ele>
        <time>2017-01-01T12:52:31Z</time>
      </trkpt>
      <trkpt lat="44.85178" lon="7.23088">
        <ele>1065.69</ele>
        <time>2017-01-01T12:52:33Z</time>
      </trkpt>
      <trkpt lat="44.85198" lon="7.22986">
        <ele>1064.56</ele>
        <time>2017-01-01T12:52:37Z</time>
      </trkpt>
      <trkpt lat="44.85306" lon="7.22893">
        <ele>1065.76</ele>
        <time>2017-01-01T12:52:44Z</time>
      </trkpt>
      <trkpt lat="44.85368" lon="7.22812">
        <ele>1068.23</ele>
        <time>2017-01-01T12:52:49Z</time>
      </trkpt>
      <trkpt lat="44.8544" lon="7.2278">
        <ele>1076.08</ele>
        <time>2017-01-01T12:52:53Z</time>
      </trkpt>
      <trkpt lat="44.85506" lon="7.22625">
        <ele>1084.59</ele>
        <time>2017-01-01T12:53:00Z</time>
      </trkpt>
      <trkpt lat="44.85589" lon="7.22374">
        <ele>1097.43</ele>
        <time>2017-01-01T12:53:11Z</time>
      </trkpt>
      <trkpt lat="44.85791" lon="7.22287">
        <ele>1115.02</ele>
        <time>2017-01-01T12:53:22Z</time>
      </trkpt>
      <trkpt lat="44.8594" lon="7.22027">
        <ele>1127.22</ele>
        <time>2017-01-01T12:53:35Z</time>
      </trkpt>
      <trkpt lat="44.86001" lon="7.21963">
        <ele>1133.34</ele>
        <time>2017-01-01T12:53:40Z</time>
      </trkpt>
      <trkpt lat="44.86072" lon="7.21964">
        <ele>1141.47</ele>
        <time>2017-01-01T12:53:43Z</time>
      </trkpt>
      <trkpt lat="44.861" lon="7.22017">
        <ele>1147.56</ele>
        <time>2017-01-01T12:53:46Z</time>
      </trkpt>
      <trkpt lat="44.86185" lon="7.2197">
        <ele>1154.34</ele>
        <time>2017-01-01T12:53:51Z</time>
      </trkpt>
      <trkpt lat="44.8626" lon="7.21984">
        <ele>1161.09</ele>
        <time>2017-01-01T12:53:55Z</time>
      </trkpt>
      <trkpt lat="44.86359" lon="7.21891">
        <ele>1175.38</ele>
        <time>2017-01-01T12:54:02Z</time>
      </trkpt>
      <trkpt lat="44.86395" lon="7.21702">
        <ele>1180.98</ele>
        <time>2017-01-01T12:54:09Z</time>
      </trkpt>
      <trkpt lat="44.86451" lon="7.2167">
        <ele>1191.08</ele>
        <time>2017-01-01T12:54:13Z</time>
      </trkpt>
      <trkpt lat="44.86494" lon="7.21585">
        <ele>1195.89</ele>
        <time>2017-01-01T12:54:17Z</time>
      </trkpt>
      <trkpt lat="44.86563" lon="7.21508">
        <ele>1204.32</ele>
        <time>2017-01-01T12:54:22Z</time>
      </trkpt>
      <trkpt lat="44.86618" lon="7.21493">
        <ele>1207.38</ele>
        <time>2017-01-01T12:54:25Z</time>
      </trkpt>
      <trkpt lat="44.86565" lon="7.21571">
        <ele>1217.54</ele>
        <time>2017-01-01T12:54:29Z</time>
      </trkpt>
      <trkpt lat="44.86465" lon="7.21884">
        <ele>1237</ele>
        <time>2017-01-01T12:54:42Z</time>
      </trkpt>
      <trkpt lat="44.86534" lon="7.21811">
        <ele>1249.37</ele>
        <time>2017-01-01T12:54:47Z</time>
      </trkpt>
      <trkpt lat="44.8659" lon="7.2178">
        <ele>1253.25</ele>
        <time>2017-01-01T12:54:50Z</time>
      </trkpt>
      <trkpt lat="44.86669" lon="7.21772">
        <ele>1257.66</ele>
        <time>2017-01-01T12:54:55Z</time>
      </trkpt>
      <trkpt lat="44.86759" lon="7.21676">
        <ele>1270.43</ele>
        <time>2017-01-01T12:55:01Z</time>
      </trkpt>
      <trkpt lat="44.86811" lon="7.21525">
        <ele>1273.23</ele>
        <time>2017-01-01T12:55:07Z</time>
      </trkpt>
      <trkpt lat="44.86846" lon="7.21469">
        <ele>1277.9</ele>
        <time>2017-01-01T12:55:10Z</time>
      </trkpt>
      <trkpt lat="44.86922" lon="7.21428">
        <ele>1285.3</ele>
        <time>2017-01-01T12:55:15Z</time>
      </trkpt>
      <trkpt lat="44.8698" lon="7.21302">
        <ele>1293.98</ele>
        <time>2017-01-01T12:55:20Z</time>
      </trkpt>
      <trkpt lat="44.87112" lon="7.2128">
        <ele>1307.25</ele>
        <time>2017-01-01T12:55:28Z</time>
      </trkpt>
      <trkpt lat="44.87131" lon="7.21231">
        <ele>1306.88</ele>
        <time>2017-01-01T12:55:30Z</time>
      </trkpt>
      <trkpt lat="44.87154" lon="7.21191">
        <ele>1311.72</ele>
        <time>2017-01-01T12:55:32Z</time>
      </trkpt>
      <trkpt lat="44.87175" lon="7.21051">
        <ele>1317.99</ele>
        <time>2017-01-01T12:55:37Z</time>
      </trkpt>
      <trkpt lat="44.87201" lon="7.20987">
        <ele>1318.23</ele>
        <time>2017-01-01T12:55:40Z</time>
      </trkpt>
      <trkpt lat="44.87245" lon="7.20968">
        <ele>1325.02</ele>
        <time>2017-01-01T12:55:43Z</time>
      </trkpt>
      <trkpt lat="44.87306" lon="7.20771">
        <ele>1344.55</ele>
        <time>2017-01-01T12:55:51Z</time>
      </trkpt>
      <trkpt lat="44.87248" lon="7.20658">
        <ele>1348.52</ele>
        <time>2017-01-01T12:55:57Z</time>
      </trkpt>
      <trkpt lat="44.87261" lon="7.20585">
        <ele>1356.78</ele>
        <time>2017-01-01T12:55:59Z</time>
      </trkpt>
      <trkpt lat="44.87321" lon="7.20478">
        <ele>1363.1</ele>
        <time>2017-01-01T12:56:05Z</time>
      </trkpt>
      <trkpt lat="44.87293" lon="7.20595">
        <ele>1370.34</ele>
        <time>2017-01-01T12:56:10Z</time>
      </trkpt>
      <trkpt lat="44.87338" lon="7.20566">
        <ele>1380.95</ele>
        <time>2017-01-01T12:56:12Z</time>
      </trkpt>
      <trkpt lat="44.87384" lon="7.20312">
        <ele>1390.93</ele>
        <time>2017-01-01T12:56:23Z</time>
      </trkpt>
      <trkpt lat="44.87467" lon="7.19933">
        <ele>1413.36</ele>
        <time>2017-01-01T12:56:38Z</time>
      </trkpt>
      <trkpt lat="44.87477" lon="7.19785">
        <ele>1422.65</ele>
        <time>2017-01-01T12:56:44Z</time>
      </trkpt>
      <trkpt lat="44.87486" lon="7.19556">
        <ele>1443.85</ele>
        <time>2017-01-01T12:56:53Z</time>
      </trkpt>
      <trkpt lat="44.87528" lon="7.19682">
        <ele>1448.26</ele>
        <time>2017-01-01T12:56:58Z</time>
      </trkpt>
      <trkpt lat="44.87539" lon="7.19924">
        <ele>1456.24</ele>
        <time>2017-01-01T12:57:07Z</time>
      </trkpt>
      <trkpt lat="44.87571" lon="7.20169">
        <ele>1462.06</ele>
        <time>2017-01-01T12:57:17Z</time>
      </trkpt>
      <trkpt lat="44.87561" lon="7.20292">
        <ele>1460.66</ele>
        <time>2017-01-01T12:57:22Z</time>
      </trkpt>
      <trkpt lat="44.87586" lon="7.20369">
        <ele>1464.7</ele>
        <time>2017-01-01T12:57:25Z</time>
      </trkpt>
      <trkpt lat="44.87637" lon="7.20528">
        <ele>1455.71</ele>
        <time>2017-01-01T12:57:32Z</time>
      </trkpt>
      <trkpt lat="44.8768" lon="7.20662">
        <ele>1449.93</ele>
        <time>2017-01-01T12:57:38Z</time>
      </trkpt>
      <trkpt lat="44.87703" lon="7.20682">
        <ele>1445.42</ele>
        <time>2017-01-01T12:57:39Z</time>
      </trkpt>
      <trkpt lat="44.87707" lon="7.20743">
        <ele>1444.84</ele>
        <time>2017-01-01T12:57:42Z</time>
      </trkpt>
      <trkpt lat="44.87748" lon="7.2096">
        <ele>1431.41</ele>
        <time>2017-01-01T12:57:50Z</time>
      </trkpt>
      <trkpt lat="44.87785" lon="7.21076">
        <ele>1424.02</ele>
        <time>2017-01-01T12:57:55Z</time>
      </trkpt>
      <trkpt lat="44.8794" lon="7.21302">
        <ele>1403.61</ele>
        <time>2017-01-01T12:58:07Z</time>
      </trkpt>
      <trkpt lat="44.87968" lon="7.21367">
        <ele>1399.46</ele>
        <time>2017-01-01T12:58:10Z</time>
      </trkpt>
      <trkpt lat="44.87978" lon="7.21436">
        <ele>1393.21</ele>
        <time>2017-01-01T12:58:13Z</time>
      </trkpt>
      <trkpt lat="44.87931" lon="7.21496">
        <ele>1388.42</ele>
        <time>2017-01-01T12:58:17Z</time>
      </trkpt>
      <trkpt lat="44.87877" lon="7.21549">
        <ele>1381.15</ele>
        <time>2017-01-01T12:58:20Z</time>
      </trkpt>
      <trkpt lat="44.87878" lon="7.2156">
        <ele>1377.8</ele>
        <time>2017-01-01T12:58:21Z</time>
      </trkpt>
      <trkpt lat="44.88012" lon="7.21492">
        <ele>1370.35</ele>
        <time>2017-01-01T12:58:28Z</time>
      </trkpt>
      <trkpt lat="44.88107" lon="7.21485">
        <ele>1361.78</ele>
        <time>2017-01-01T12:58:34Z</time>
      </trkpt>
      <trkpt lat="44.88145" lon="7.21472">
        <ele>1359.11</ele>
        <time>2017-01-01T12:58:36Z</time>
      </trkpt>
      <trkpt lat="44.88158" lon="7.21453">
        <ele>1358.51</ele>
        <time>2017-01-01T12:58:37Z</time>
      </trkpt>
      <trkpt lat="44.88168" lon="7.21399">
        <ele>1355.32</ele>
        <time>2017-01-01T12:58:39Z</time>
      </trkpt>
      <trkpt lat="44.88159" lon="7.21257">
        <ele>1348.63</ele>
        <time>2017-01-01T12:58:45Z</time>
      </trkpt>
      <trkpt lat="44.88162" lon="7.2113">
        <ele>1339.99</ele>
        <time>2017-01-01T12:58:49Z</time>
      </trkpt>
      <trkpt lat="44.88197" lon="7.21216">
        <ele>1334.88</ele>
        <time>2017-01-01T12:58:53Z</time>
      </trkpt>
      <trkpt lat="44.88238" lon="7.21291">
        <ele>1329.71</ele>
        <time>2017-01-01T12:58:57Z</time>
      </trkpt>
      <trkpt lat="44.88299" lon="7.21327">
        <ele>1322.22</ele>
        <time>2017-01-01T12:59:01Z</time>
      </trkpt>
      <trkpt lat="44.88346" lon="7.21315">
        <ele>1317.52</ele>
        <time>2017-01-01T12:59:03Z</time>
      </trkpt>
      <trkpt lat="44.88374" lon="7.2129">
        <ele>1316.01</ele>
        <time>2017-01-01T12:59:05Z</time>
      </trkpt>
      <trkpt lat="44.88384" lon="7.2122">
        <ele>1309.05</ele>
        <time>2017-01-01T12:59:08Z</time>
      </trkpt>
      <trkpt lat="44.88408" lon="7.21167">
        <ele>1304.07</ele>
        <time>2017-01-01T12:59:10Z</time>
      </trkpt>
      <trkpt lat="44.88432" lon="7.21167">
        <ele>1302.83</ele>
        <time>2017-01-01T12:59:12Z</time>
      </trkpt>
      <trkpt lat="44.88471" lon="7.21203">
        <ele>1296.82</ele>
        <time>2017-01-01T12:59:14Z</time>
      </trkpt>
      <trkpt lat="44.88508" lon="7.21248">
        <ele>1292.5</ele>
        <time>2017-01-01T12:59:17Z</time>
      </trkpt>
      <trkpt lat="44.88494" lon="7.21185">
        <ele>1288.43</ele>
        <time>2017-01-01T12:59:19Z</time>
      </trkpt>
      <trkpt lat="44.88466" lon="7.21142">
        <ele>1286.79</ele>
        <time>2017-01-01T12:59:22Z</time>
      </trkpt>
      <trkpt lat="44.88451" lon="7.2106">
        <ele>1278.33</ele>
        <time>2017-01-01T12:59:25Z</time>
      </trkpt>
      <trkpt lat="44.88408" lon="7.21049">
        <ele>1274.96</ele>
        <time>2017-01-01T12:59:27Z</time>
      </trkpt>
      <trkpt lat="44.88431" lon="7.2103">
        <ele>1271.26</ele>
        <time>2017-01-01T12:59:29Z</time>
      </trkpt>
      <trkpt lat="44.88476" lon="7.21026">
        <ele>1266.28</ele>
        <time>2017-01-01T12:59:31Z</time>
      </trkpt>
      <trkpt lat="44.88519" lon="7.2103">
        <ele>1261.39</ele>
        <time>2017-01-01T12:59:34Z</time>
      </trkpt>
      <trkpt lat="44.88559" lon="7.2108">
        <ele>1254.57</ele>
        <time>2017-01-01T12:59:37Z</time>
      </trkpt>
      <trkpt lat="44.88602" lon="7.21211">
        <ele>1246.38</ele>
        <time>2017-01-01T12:59:42Z</time>
      </trkpt>
      <trkpt lat="44.88642" lon="7.21288">
        <ele>1235.8</ele>
        <time>2017-01-01T12:59:46Z</time>
      </trkpt>
      <trkpt lat="44.8866" lon="7.21287">
        <ele>1232.76</ele>
        <time>2017-01-01T12:59:47Z</time>
      </trkpt>
      <trkpt lat="44.88685" lon="7.21258">
        <ele>1230.22</ele>
        <time>2017-01-01T12:59:49Z</time>
      </trkpt>
      <trkpt lat="44.88729" lon="7.21332">
        <ele>1223.54</ele>
        <time>2017-01-01T12:59:52Z</time>
      </trkpt>
      <trkpt lat="44.88818" lon="7.21381">
        <ele>1219.13</ele>
        <time>2017-01-01T12:59:58Z</time>
      </trkpt>
      <trkpt lat="44.88915" lon="7.21483">
        <ele>1211.6</ele>
        <time>2017-01-01T13:00:04Z</time>
      </trkpt>
      <trkpt lat="44.8897" lon="7.2151">
        <ele>1209.23</ele>
        <time>2017-01-01T13:00:08Z</time>
      </trkpt>
      <trkpt lat="44.88994" lon="7.2159">
        <ele>1208.41</ele>
        <time>2017-01-01T13:00:11Z</time>
      </trkpt>
      <trkpt lat="44.88992" lon="7.21671">
        <ele>1205.85</ele>
        <time>2017-01-01T13:00:14Z</time>
      </trkpt>
      <trkpt lat="44.88862" lon="7.21855">
        <ele>1193.95</ele>
        <time>2017-01-01T13:00:24Z</time>
      </trkpt>
      <trkpt lat="44.88827" lon="7.21995">
        <ele>1181.74</ele>
        <time>2017-01-01T13:00:30Z</time>
      </trkpt>
      <trkpt lat="44.88761" lon="7.22054">
        <ele>1178.74</ele>
        <time>2017-01-01T13:00:34Z</time>
      </trkpt>
      <trkpt lat="44.88745" lon="7.22132">
        <ele>1172.18</ele>
        <time>2017-01-01T13:00:37Z</time>
      </trkpt>
      <trkpt lat="44.88783" lon="7.2212">
        <ele>1164.03</ele>
        <time>2017-01-01T13:00:39Z</time>
      </trkpt>
      <trkpt lat="44.88806" lon="7.22064">
        <ele>1163.88</ele>
        <time>2017-01-01T13:00:42Z</time>
      </trkpt>
      <trkpt lat="44.88864" lon="7.22047">
        <ele>1157.69</ele>
        <time>2017-01-01T13:00:45Z</time>
      </trkpt>
      <trkpt lat="44.88957" lon="7.21885">
        <ele>1148.18</ele>
        <time>2017-01-01T13:00:53Z</time>
      </trkpt>
      <trkpt lat="44.89024" lon="7.21894">
        <ele>1138.68</ele>
        <time>2017-01-01T13:00:57Z</time>
      </trkpt>
      <trkpt lat="44.89068" lon="7.21851">
        <ele>1138.87</ele>
        <time>2017-01-01T13:01:00Z</time>
      </trkpt>
      <trkpt lat="44.89111" lon="7.21862">
        <ele>1132.76</ele>
        <time>2017-01-01T13:01:02Z</time>
      </trkpt>
      <trkpt lat="44.89186" lon="7.2189">
        <ele>1133.3</ele>
        <time>2017-01-01T13:01:07Z</time>
      </trkpt>
      <trkpt lat="44.89186" lon="7.21795">
        <ele>1139.78</ele>
        <time>2017-01-01T13:01:10Z</time>
      </trkpt>
      <trkpt lat="44.89269" lon="7.21682">
        <ele>1125.33</ele>
        <time>2017-01-01T13:01:17Z</time>
      </trkpt>
      <trkpt lat="44.89291" lon="7.21507">
        <ele>1114.52</ele>
        <time>2017-01-01T13:01:23Z</time>
      </trkpt>
      <trkpt lat="44.89352" lon="7.21666">
        <ele>1093.6</ele>
        <time>2017-01-01T13:01:30Z</time>
      </trkpt>
      <trkpt lat="44.8936" lon="7.21489">
        <ele>1082.45</ele>
        <time>2017-01-01T13:01:37Z</time>
      </trkpt>
      <trkpt lat="44.89402" lon="7.21404">
        <ele>1072.21</ele>
        <time>2017-01-01T13:01:41Z</time>
      </trkpt>
      <trkpt lat="44.89402" lon="7.21304">
        <ele>1072.24</ele>
        <time>2017-01-01T13:01:45Z</time>
      </trkpt>
      <trkpt lat="44.89369" lon="7.21225">
        <ele>1064.09</ele>
        <time>2017-01-01T13:01:49Z</time>
      </trkpt>
      <trkpt lat="44.89361" lon="7.21138">
        <ele>1060.62</ele>
        <time>2017-01-01T13:01:52Z</time>
      </trkpt>
      <trkpt lat="44.89326" lon="7.21136">
        <ele>1055.96</ele>
        <time>2017-01-01T13:01:54Z</time>
      </trkpt>
      <trkpt lat="44.893" lon="7.21139">
        <ele>1054.95</ele>
        <time>2017-01-01T13:01:56Z</time>
      </trkpt>
      <trkpt lat="44.89278" lon="7.21119">
        <ele>1049.39</ele>
        <time>2017-01-01T13:01:57Z</time>
      </trkpt>
      <trkpt lat="44.893" lon="7.211">
        <ele>1043.83</ele>
        <time>2017-01-01T13:01:58Z</time>
      </trkpt>
      <trkpt lat="44.89332" lon="7.21096">
        <ele>1041.54</ele>
        <time>2017-01-01T13:02:00Z</time>
      </trkpt>
      <trkpt lat="44.89382" lon="7.21053">
        <ele>1033.96</ele>
        <time>2017-01-01T13:02:03Z</time>
      </trkpt>
      <trkpt lat="44.89498" lon="7.21012">
        <ele>1020.83</ele>
        <time>2017-01-01T13:02:10Z</time>
      </trkpt>
      <trkpt lat="44.89539" lon="7.20994">
        <ele>1012.29</ele>
        <time>2017-01-01T13:02:12Z</time>
      </trkpt>
      <trkpt lat="44.8956" lon="7.21051">
        <ele>1008.55</ele>
        <time>2017-01-01T13:02:15Z</time>
      </trkpt>
      <trkpt lat="44.89564" lon="7.2109">
        <ele>1003.25</ele>
        <time>2017-01-01T13:02:16Z</time>
      </trkpt>
      <trkpt lat="44.89577" lon="7.21113">
        <ele>995.82</ele>
        <time>2017-01-01T13:02:18Z</time>
      </trkpt>
      <trkpt lat="44.89586" lon="7.21">
        <ele>993.38</ele>
        <time>2017-01-01T13:02:22Z</time>
      </trkpt>
      <trkpt lat="44.89606" lon="7.20894">
        <ele>981.41</ele>
        <time>2017-01-01T13:02:26Z</time>
      </trkpt>
      <trkpt lat="44.89685" lon="7.20854">
        <ele>970.87</ele>
        <time>2017-01-01T13:02:31Z</time>
      </trkpt>
      <trkpt lat="44.89771" lon="7.20916">
        <ele>957.7</ele>
        <time>2017-01-01T13:02:36Z</time>
      </trkpt>
      <trkpt lat="44.89767" lon="7.20875">
        <ele>953</ele>
        <time>2017-01-01T13:02:38Z</time>
      </trkpt>
      <trkpt lat="44.89697" lon="7.2078">
        <ele>943.32</ele>
        <time>2017-01-01T13:02:43Z</time>
      </trkpt>
      <trkpt lat="44.89624" lon="7.20761">
        <ele>932.61</ele>
        <time>2017-01-01T13:02:47Z</time>
      </trkpt>
      <trkpt lat="44.89631" lon="7.20736">
        <ele>921.96</ele>
        <time>2017-01-01T13:02:48Z</time>
      </trkpt>
      <trkpt lat="44.89704" lon="7.20701">
        <ele>915.61</ele>
        <time>2017-01-01T13:02:52Z</time>
      </trkpt>
      <trkpt lat="44.89768" lon="7.20734">
        <ele>906.62</ele>
        <time>2017-01-01T13:02:56Z</time>
      </trkpt>
      <trkpt lat="44.89887" lon="7.20873">
        <ele>893.35</ele>
        <time>2017-01-01T13:03:04Z</time>
      </trkpt>
      <trkpt lat="44.89835" lon="7.20727">
        <ele>878.25</ele>
        <time>2017-01-01T13:03:11Z</time>
      </trkpt>
      <trkpt lat="44.89764" lon="7.20585">
        <ele>868.64</ele>
        <time>2017-01-01T13:03:18Z</time>
      </trkpt>
      <trkpt lat="44.89742" lon="7.20508">
        <ele>858.35</ele>
        <time>2017-01-01T13:03:21Z</time>
      </trkpt>
      <trkpt lat="44.89717" lon="7.20491">
        <ele>856.39</ele>
        <time>2017-01-01T13:03:22Z</time>
      </trkpt>
      <trkpt lat="44.89648" lon="7.20519">
        <ele>849.29</ele>
        <time>2017-01-01T13:03:26Z</time>
      </trkpt>
      <trkpt lat="44.89659" lon="7.2048">
        <ele>842.72</ele>
        <time>2017-01-01T13:03:28Z</time>
      </trkpt>
      <trkpt lat="44.89711" lon="7.20445">
        <ele>838.23</ele>
        <time>2017-01-01T13:03:31Z</time>
      </trkpt>
      <trkpt lat="44.89771" lon="7.20441">
        <ele>829.45</ele>
        <time>2017-01-01T13:03:34Z</time>
      </trkpt>
      <trkpt lat="44.89948" lon="7.20651">
        <ele>802.72</ele>
        <time>2017-01-01T13:03:47Z</time>
      </trkpt>
      <trkpt lat="44.90059" lon="7.20741">
        <ele>784.93</ele>
        <time>2017-01-01T13:03:54Z</time>
      </trkpt>
      <trkpt lat="44.90098" lon="7.20755">
        <ele>773.16</ele>
        <time>2017-01-01T13:03:56Z</time>
      </trkpt>
      <trkpt lat="44.90082" lon="7.2072">
        <ele>771.67</ele>
        <time>2017-01-01T13:03:58Z</time>
      </trkpt>
      <trkpt lat="44.89949" lon="7.20509">
        <ele>750.12</ele>
        <time>2017-01-01T13:04:09Z</time>
      </trkpt>
      <trkpt lat="44.8989" lon="7.20363">
        <ele>741.42</ele>
        <time>2017-01-01T13:04:15Z</time>
      </trkpt>
      <trkpt lat="44.89902" lon="7.20354">
        <ele>733.58</ele>
        <time>2017-01-01T13:04:16Z</time>
      </trkpt>
      <trkpt lat="44.89993" lon="7.20489">
        <ele>724</ele>
        <time>2017-01-01T13:04:23Z</time>
      </trkpt>
      <trkpt lat="44.90059" lon="7.2054">
        <ele>711.62</ele>
        <time>2017-01-01T13:04:27Z</time>
      </trkpt>
      <trkpt lat="44.90147" lon="7.20631">
        <ele>705.02</ele>
        <time>2017-01-01T13:04:33Z</time>
      </trkpt>
      <trkpt lat="44.90157" lon="7.20624">
        <ele>698.2</ele>
        <time>2017-01-01T13:04:34Z</time>
      </trkpt>
      <trkpt lat="44.90083" lon="7.2051">
        <ele>689.95</ele>
        <time>2017-01-01T13:04:40Z</time>
      </trkpt>
      <trkpt lat="44.90174" lon="7.20593">
        <ele>678.83</ele>
        <time>2017-01-01T13:04:46Z</time>
      </trkpt>
      <trkpt lat="44.90219" lon="7.20662">
        <ele>674.91</ele>
        <time>2017-01-01T13:04:50Z</time>
      </trkpt>
      <trkpt lat="44.90241" lon="7.20638">
        <ele>669.12</ele>
        <time>2017-01-01T13:04:51Z</time>
      </trkpt>
      <trkpt lat="44.90245" lon="7.20607">
        <ele>672.81</ele>
        <time>2017-01-01T13:04:52Z</time>
      </trkpt>
      <trkpt lat="44.90266" lon="7.20603">
        <ele>678.68</ele>
        <time>2017-01-01T13:04:54Z</time>
      </trkpt>
      <trkpt lat="44.9032" lon="7.20676">
        <ele>682.45</ele>
        <time>2017-01-01T13:04:58Z</time>
      </trkpt>
      <trkpt lat="44.90371" lon="7.20749">
        <ele>692.24</ele>
        <time>2017-01-01T13:05:02Z</time>
      </trkpt>
      <trkpt lat="44.90395" lon="7.20871">
        <ele>693.36</ele>
        <time>2017-01-01T13:05:06Z</time>
      </trkpt>
      <trkpt lat="44.90435" lon="7.20922">
        <ele>702.4</ele>
        <time>2017-01-01T13:05:09Z</time>
      </trkpt>
      <trkpt lat="44.90509" lon="7.20938">
        <ele>711.29</ele>
        <time>2017-01-01T13:05:14Z</time>
      </trkpt>
      <trkpt lat="44.90587" lon="7.2096">
        <ele>710.52</ele>
        <time>2017-01-01T13:05:18Z</time>
      </trkpt>
      <trkpt lat="44.90589" lon="7.20942">
        <ele>715.22</ele>
        <time>2017-01-01T13:05:19Z</time>
      </trkpt>
      <trkpt lat="44.90491" lon="7.20903">
        <ele>722.97</ele>
        <time>2017-01-01T13:05:24Z</time>
      </trkpt>
      <trkpt lat="44.90436" lon="7.2083">
        <ele>729.56</ele>
        <time>2017-01-01T13:05:28Z</time>
      </trkpt>
      <trkpt lat="44.90432" lon="7.20775">
        <ele>738</ele>
        <time>2017-01-01T13:05:30Z</time>
      </trkpt>
      <trkpt lat="44.90412" lon="7.20729">
        <ele>730.91</ele>
        <time>2017-01-01T13:05:33Z</time>
      </trkpt>
      <trkpt lat="44.90394" lon="7.20632">
        <ele>749</ele>
        <time>2017-01-01T13:05:36Z</time>
      </trkpt>
      <trkpt lat="44.90369" lon="7.20594">
        <ele>748.31</ele>
        <time>2017-01-01T13:05:38Z</time>
      </trkpt>
      <trkpt lat="44.90344" lon="7.20504">
        <ele>760.62</ele>
        <time>2017-01-01T13:05:42Z</time>
      </trkpt>
      <trkpt lat="44.90275" lon="7.20416">
        <ele>764.27</ele>
        <time>2017-01-01T13:05:47Z</time>
      </trkpt>
      <trkpt lat="44.90271" lon="7.20262">
        <ele>772.72</ele>
        <time>2017-01-01T13:05:53Z</time>
      </trkpt>
      <trkpt lat="44.90345" lon="7.20164">
        <ele>782.28</ele>
        <time>2017-01-01T13:05:59Z</time>
      </trkpt>
      <trkpt lat="44.90411" lon="7.20067">
        <ele>790.26</ele>
        <time>2017-01-01T13:06:04Z</time>
      </trkpt>
      <trkpt lat="44.90417" lon="7.20013">
        <ele>785.73</ele>
        <time>2017-01-01T13:06:06Z</time>
      </trkpt>
      <trkpt lat="44.90547" lon="7.19829">
        <ele>810.96</ele>
        <time>2017-01-01T13:06:16Z</time>
      </trkpt>
      <trkpt lat="44.90504" lon="7.1955">
        <ele>822.27</ele>
        <time>2017-01-01T13:06:27Z</time>
      </trkpt>
      <trkpt lat="44.90513" lon="7.1955">
        <ele>827.53</ele>
        <time>2017-01-01T13:06:28Z</time>
      </trkpt>
      <trkpt lat="44.90594" lon="7.19769">
        <ele>838.96</ele>
        <time>2017-01-01T13:06:37Z</time>
      </trkpt>
      <trkpt lat="44.90607" lon="7.19826">
        <ele>839.93</ele>
        <time>2017-01-01T13:06:40Z</time>
      </trkpt>
      <trkpt lat="44.90578" lon="7.19883">
        <ele>846.04</ele>
        <time>2017-01-01T13:06:42Z</time>
      </trkpt>
      <trkpt lat="44.90569" lon="7.19954">
        <ele>855.32</ele>
        <time>2017-01-01T13:06:45Z</time>
      </trkpt>
      <trkpt lat="44.90526" lon="7.20017">
        <ele>859.31</ele>
        <time>2017-01-01T13:06:49Z</time>
      </trkpt>
      <trkpt lat="44.90511" lon="7.20152">
        <ele>867.72</ele>
        <time>2017-01-01T13:06:54Z</time>
      </trkpt>
      <trkpt lat="44.90441" lon="7.20295">
        <ele>880.16</ele>
        <time>2017-01-01T13:07:01Z</time>
      </trkpt>
      <trkpt lat="44.90438" lon="7.20337">
        <ele>885.4</ele>
        <time>2017-01-01T13:07:02Z</time>
      </trkpt>
      <trkpt lat="44.90509" lon="7.20447">
        <ele>898.43</ele>
        <time>2017-01-01T13:07:08Z</time>
      </trkpt>
      <trkpt lat="44.90587" lon="7.20521">
        <ele>904.64</ele>
        <time>2017-01-01T13:07:13Z</time>
      </trkpt>
      <trkpt lat="44.90594" lon="7.20506">
        <ele>907.69</ele>
        <time>2017-01-01T13:07:14Z</time>
      </trkpt>
      <trkpt lat="44.90547" lon="7.20455">
        <ele>912.7</ele>
        <time>2017-01-01T13:07:17Z</time>
      </trkpt>
      <trkpt lat="44.90517" lon="7.20419">
        <ele>912.45</ele>
        <time>2017-01-01T13:07:19Z</time>
      </trkpt>
      <trkpt lat="44.90496" lon="7.20337">
        <ele>917.57</ele>
        <time>2017-01-01T13:07:23Z</time>
      </trkpt>
      <trkpt lat="44.90686" lon="7.19995">
        <ele>951.93</ele>
        <time>2017-01-01T13:07:40Z</time>
      </trkpt>
      <trkpt lat="44.9069" lon="7.19934">
        <ele>948.39</ele>
        <time>2017-01-01T13:07:42Z</time>
      </trkpt>
      <trkpt lat="44.90716" lon="7.19914">
        <ele>957.82</ele>
        <time>2017-01-01T13:07:44Z</time>
      </trkpt>
      <trkpt lat="44.90772" lon="7.19889">
        <ele>963.57</ele>
        <time>2017-01-01T13:07:47Z</time>
      </trkpt>
      <trkpt lat="44.90835" lon="7.19884">
        <ele>970.07</ele>
        <time>2017-01-01T13:07:50Z</time>
      </trkpt>
      <trkpt lat="44.90837" lon="7.19768">
        <ele>980.51</ele>
        <time>2017-01-01T13:07:55Z</time>
      </trkpt>
      <trkpt lat="44.90814" lon="7.19552">
        <ele>992.99</ele>
        <time>2017-01-01T13:08:03Z</time>
      </trkpt>
      <trkpt lat="44.90947" lon="7.19434">
        <ele>1018.32</ele>
        <time>2017-01-01T13:08:12Z</time>
      </trkpt>
      <trkpt lat="44.90852" lon="7.19278">
        <ele>1030.79</ele>
        <time>2017-01-01T13:08:20Z</time>
      </trkpt>
      <trkpt lat="44.90734" lon="7.192">
        <ele>1032.93</ele>
        <time>2017-01-01T13:08:27Z</time>
      </trkpt>
      <trkpt lat="44.90832" lon="7.18906">
        <ele>1059.31</ele>
        <time>2017-01-01T13:08:40Z</time>
      </trkpt>
      <trkpt lat="44.9089" lon="7.18785">
        <ele>1067.87</ele>
        <time>2017-01-01T13:08:45Z</time>
      </trkpt>
      <trkpt lat="44.90886" lon="7.18698">
        <ele>1068.85</ele>
        <time>2017-01-01T13:08:49Z</time>
      </trkpt>
      <trkpt lat="44.90904" lon="7.18684">
        <ele>1073.53</ele>
        <time>2017-01-01T13:08:50Z</time>
      </trkpt>
      <trkpt lat="44.90916" lon="7.18863">
        <ele>1086.84</ele>
        <time>2017-01-01T13:08:57Z</time>
      </trkpt>
      <trkpt lat="44.90913" lon="7.18959">
        <ele>1091.24</ele>
        <time>2017-01-01T13:09:01Z</time>
      </trkpt>
      <trkpt lat="44.90924" lon="7.19097">
        <ele>1093.14</ele>
        <time>2017-01-01T13:09:06Z</time>
      </trkpt>
      <trkpt lat="44.90947" lon="7.19131">
        <ele>1097.45</ele>
        <time>2017-01-01T13:09:08Z</time>
      </trkpt>
      <trkpt lat="44.91083" lon="7.19233">
        <ele>1114.09</ele>
        <time>2017-01-01T13:09:16Z</time>
      </trkpt>
      <trkpt lat="44.91135" lon="7.1932">
        <ele>1120.34</ele>
        <time>2017-01-01T13:09:21Z</time>
      </trkpt>
      <trkpt lat="44.91132" lon="7.19456">
        <ele>1122.9</ele>
        <time>2017-01-01T13:09:26Z</time>
      </trkpt>
      <trkpt lat="44.91092" lon="7.1954">
        <ele>1122.27</ele>
        <time>2017-01-01T13:09:30Z</time>
      </trkpt>
      <trkpt lat="44.91096" lon="7.19618">
        <ele>1124.07</ele>
        <time>2017-01-01T13:09:33Z</time>
      </trkpt>
      <trkpt lat="44.91173" lon="7.19673">
        <ele>1123.91</ele>
        <time>2017-01-01T13:09:38Z</time>
      </trkpt>
      <trkpt lat="44.91218" lon="7.19715">
        <ele>1131.07</ele>
        <time>2017-01-01T13:09:41Z</time>
      </trkpt>
      <trkpt lat="44.91236" lon="7.19788">
        <ele>1133.17</ele>
        <time>2017-01-01T13:09:44Z</time>
      </trkpt>
      <trkpt lat="44.91279" lon="7.19837">
        <ele>1138.32</ele>
        <time>2017-01-01T13:09:47Z</time>
      </trkpt>
      <trkpt lat="44.91295" lon="7.19834">
        <ele>1139.35</ele>
        <time>2017-01-01T13:09:47Z</time>
      </trkpt>
      <trkpt lat="44.91292" lon="7.19805">
        <ele>1147.68</ele>
        <time>2017-01-01T13:09:49Z</time>
      </trkpt>
      <trkpt lat="44.91273" lon="7.19794">
        <ele>1145.79</ele>
        <time>2017-01-01T13:09:50Z</time>
      </trkpt>
      <trkpt lat="44.91275" lon="7.19764">
        <ele>1151.06</ele>
        <time>2017-01-01T13:09:51Z</time>
      </trkpt>
      <trkpt lat="44.9132" lon="7.1977">
        <ele>1160.83</ele>
        <time>2017-01-01T13:09:53Z</time>
      </trkpt>
      <trkpt lat="44.91372" lon="7.19762">
        <ele>1171.72</ele>
        <time>2017-01-01T13:09:56Z</time>
      </trkpt>
      <trkpt lat="44.9136" lon="7.19631">
        <ele>1183.64</ele>
        <time>2017-01-01T13:10:01Z</time>
      </trkpt>
      <trkpt lat="44.91398" lon="7.19679">
        <ele>1190.06</ele>
        <time>2017-01-01T13:10:04Z</time>
      </trkpt>
      <trkpt lat="44.91464" lon="7.19669">
        <ele>1204.96</ele>
        <time>2017-01-01T13:10:08Z</time>
      </trkpt>
      <trkpt lat="44.91455" lon="7.19646">
        <ele>1210.86</ele>
        <time>2017-01-01T13:10:09Z</time>
      </trkpt>
      <trkpt lat="44.91424" lon="7.19631">
        <ele>1209.91</ele>
        <time>2017-01-01T13:10:11Z</time>
      </trkpt>
      <trkpt lat="44.91412" lon="7.19595">
        <ele>1211.17</ele>
        <time>2017-01-01T13:10:12Z</time>
      </trkpt>
      <trkpt lat="44.91439" lon="7.19526">
        <ele>1217.6</ele>
        <time>2017-01-01T13:10:15Z</time>
      </trkpt>
      <trkpt lat="44.9146" lon="7.19438">
        <ele>1223.81</ele>
        <time>2017-01-01T13:10:19Z</time>
      </trkpt>
      <trkpt lat="44.91478" lon="7.19477">
        <ele>1230.38</ele>
        <time>2017-01-01T13:10:21Z</time>
      </trkpt>
      <trkpt lat="44.91474" lon="7.19555">
        <ele>1236.7</ele>
        <time>2017-01-01T13:10:24Z</time>
      </trkpt>
      <trkpt lat="44.91483" lon="7.19584">
        <ele>1240.51</ele>
        <time>2017-01-01T13:10:25Z</time>
      </trkpt>
      <trkpt lat="44.91527" lon="7.195">
        <ele>1253.56</ele>
        <time>2017-01-01T13:10:29Z</time>
      </trkpt>
      <trkpt lat="44.91556" lon="7.19568">
        <ele>1262.29</ele>
        <time>2017-01-01T13:10:32Z</time>
      </trkpt>
      <trkpt lat="44.91598" lon="7.19515">
        <ele>1273.24</ele>
        <time>2017-01-01T13:10:35Z</time>
      </trkpt>
      <trkpt lat="44.91619" lon="7.19413">
        <ele>1286.16</ele>
        <time>2017-01-01T13:10:39Z</time>
      </trkpt>
      <trkpt lat="44.91672" lon="7.19317">
        <ele>1295.93</ele>
        <time>2017-01-01T13:10:44Z</time>
      </trkpt>
      <trkpt lat="44.9171" lon="7.19288">
        <ele>1303.29</ele>
        <time>2017-01-01T13:10:46Z</time>
      </trkpt>
      <trkpt lat="44.91698" lon="7.19355">
        <ele>1308.46</ele>
        <time>2017-01-01T13:10:49Z</time>
      </trkpt>
      <trkpt lat="44.91726" lon="7.19396">
        <ele>1315.17</ele>
        <time>2017-01-01T13:10:51Z</time>
      </trkpt>
      <trkpt lat="44.91741" lon="7.19442">
        <ele>1319.18</ele>
        <time>2017-01-01T13:10:53Z</time>
      </trkpt>
      <trkpt lat="44.9177" lon="7.19381">
        <ele>1326.85</ele>
        <time>2017-01-01T13:10:56Z</time>
      </trkpt>
      <trkpt lat="44.91792" lon="7.19313">
        <ele>1330.59</ele>
        <time>2017-01-01T13:10:59Z</time>
      </trkpt>
      <trkpt lat="44.91846" lon="7.19347">
        <ele>1341.33</ele>
        <time>2017-01-01T13:11:02Z</time>
      </trkpt>
      <trkpt lat="44.91833" lon="7.1939">
        <ele>1343.94</ele>
        <time>2017-01-01T13:11:04Z</time>
      </trkpt>
      <trkpt lat="44.91837" lon="7.19414">
        <ele>1345.47</ele>
        <time>2017-01-01T13:11:05Z</time>
      </trkpt>
      <trkpt lat="44.91921" lon="7.1941">
        <ele>1353.46</ele>
        <time>2017-01-01T13:11:10Z</time>
      </trkpt>
      <trkpt lat="44.91969" lon="7.19348">
        <ele>1358.82</ele>
        <time>2017-01-01T13:11:13Z</time>
      </trkpt>
      <trkpt lat="44.91955" lon="7.1924">
        <ele>1368.77</ele>
        <time>2017-01-01T13:11:17Z</time>
      </trkpt>
      <trkpt lat="44.91973" lon="7.19186">
        <ele>1376.2</ele>
        <time>2017-01-01T13:11:20Z</time>
      </trkpt>
      <trkpt lat="44.91965" lon="7.19141">
        <ele>1378.53</ele>
        <time>2017-01-01T13:11:22Z</time>
      </trkpt>
      <trkpt lat="44.91965" lon="7.191">
        <ele>1382.71</ele>
        <time>2017-01-01T13:11:23Z</time>
      </trkpt>
      <trkpt lat="44.91941" lon="7.19075">
        <ele>1385.72</ele>
        <time>2017-01-01T13:11:25Z</time>
      </trkpt>
      <trkpt lat="44.91916" lon="7.19034">
        <ele>1388.93</ele>
        <time>2017-01-01T13:11:27Z</time>
      </trkpt>
      <trkpt lat="44.9187" lon="7.19004">
        <ele>1394.48</ele>
        <time>2017-01-01T13:11:30Z</time>
      </trkpt>
      <trkpt lat="44.91866" lon="7.18934">
        <ele>1401.66</ele>
        <time>2017-01-01T13:11:32Z</time>
      </trkpt>
      <trkpt lat="44.91871" lon="7.18889">
        <ele>1407.11</ele>
        <time>2017-01-01T13:11:34Z</time>
      </trkpt>
      <trkpt lat="44.91891" lon="7.18868">
        <ele>1410.59</ele>
        <time>2017-01-01T13:11:35Z</time>
      </trkpt>
      <trkpt lat="44.91936" lon="7.18862">
        <ele>1416.09</ele>
        <time>2017-01-01T13:11:38Z</time>
      </trkpt>
      <trkpt lat="44.91977" lon="7.18926">
        <ele>1419.8</ele>
        <time>2017-01-01T13:11:41Z</time>
      </trkpt>
      <trkpt lat="44.92004" lon="7.18857">
        <ele>1427.86</ele>
        <time>2017-01-01T13:11:44Z</time>
      </trkpt>
      <trkpt lat="44.92029" lon="7.18769">
        <ele>1437.62</ele>
        <time>2017-01-01T13:11:48Z</time>
      </trkpt>
      <trkpt lat="44.9205" lon="7.1884">
        <ele>1439.4</ele>
        <time>2017-01-01T13:11:51Z</time>
      </trkpt>
      <trkpt lat="44.92085" lon="7.18866">
        <ele>1443.14</ele>
        <time>2017-01-01T13:11:53Z</time>
      </trkpt>
      <trkpt lat="44.9213" lon="7.18929">
        <ele>1450.76</ele>
        <time>2017-01-01T13:11:57Z</time>
      </trkpt>
      <trkpt lat="44.92139" lon="7.1898">
        <ele>1449.91</ele>
        <time>2017-01-01T13:11:59Z</time>
      </trkpt>
      <trkpt lat="44.92174" lon="7.18991">
        <ele>1456.49</ele>
        <time>2017-01-01T13:12:01Z</time>
      </trkpt>
      <trkpt lat="44.922" lon="7.19023">
        <ele>1458.58</ele>
        <time>2017-01-01T13:12:03Z</time>
      </trkpt>
      <trkpt lat="44.92215" lon="7.19004">
        <ele>1462.12</ele>
        <time>2017-01-01T13:12:04Z</time>
      </trkpt>
      <trkpt lat="44.92219" lon="7.1897">
        <ele>1465.06</ele>
        <time>2017-01-01T13:12:05Z</time>
      </trkpt>
      <trkpt lat="44.92208" lon="7.18916">
        <ele>1471.01</ele>
        <time>2017-01-01T13:12:07Z</time>
      </trkpt>
      <trkpt lat="44.92226" lon="7.18851">
        <ele>1475.41</ele>
        <time>2017-01-01T13:12:10Z</time>
      </trkpt>
      <trkpt lat="44.9221" lon="7.18808">
        <ele>1478.72</ele>
        <time>2017-01-01T13:12:12Z</time>
      </trkpt>
      <trkpt lat="44.92204" lon="7.18774">
        <ele>1481.34</ele>
        <time>2017-01-01T13:12:13Z</time>
      </trkpt>
      <trkpt lat="44.92213" lon="7.1874">
        <ele>1484.53</ele>
        <time>2017-01-01T13:12:15Z</time>
      </trkpt>
      <trkpt lat="44.92242" lon="7.18699">
        <ele>1492.87</ele>
        <time>2017-01-01T13:12:17Z</time>
      </trkpt>
      <trkpt lat="44.9226" lon="7.18614">
        <ele>1498.86</ele>
        <time>2017-01-01T13:12:20Z</time>
      </trkpt>
      <trkpt lat="44.9228" lon="7.18545">
        <ele>1506.63</ele>
        <time>2017-01-01T13:12:23Z</time>
      </trkpt>
      <trkpt lat="44.92271" lon="7.1847">
        <ele>1508.72</ele>
        <time>2017-01-01T13:12:26Z</time>
      </trkpt>
      <trkpt lat="44.92218" lon="7.1838">
        <ele>1514.26</ele>
        <time>2017-01-01T13:12:31Z</time>
      </trkpt>
      <trkpt lat="44.92197" lon="7.18266">
        <ele>1523.31</ele>
        <time>2017-01-01T13:12:35Z</time>
      </trkpt>
      <trkpt lat="44.92177" lon="7.182">
        <ele>1527.73</ele>
        <time>2017-01-01T13:12:38Z</time>
      </trkpt>
      <trkpt lat="44.92173" lon="7.18133">
        <ele>1531.86</ele>
        <time>2017-01-01T13:12:41Z</time>
      </trkpt>
      <trkpt lat="44.92185" lon="7.18054">
        <ele>1535.75</ele>
        <time>2017-01-01T13:12:44Z</time>
      </trkpt>
      <trkpt lat="44.922" lon="7.17977">
        <ele>1541.41</ele>
        <time>2017-01-01T13:12:47Z</time>
      </trkpt>
      <trkpt lat="44.92172" lon="7.17828">
        <ele>1554.7</ele>
        <time>2017-01-01T13:12:53Z</time>
      </trkpt>
      <trkpt lat="44.92145" lon="7.1771">
        <ele>1565.63</ele>
        <time>2017-01-01T13:12:58Z</time>
      </trkpt>
      <trkpt lat="44.92105" lon="7.17621">
        <ele>1571.3</ele>
        <time>2017-01-01T13:13:02Z</time>
      </trkpt>
      <trkpt lat="44.92061" lon="7.17532">
        <ele>1580.47</ele>
        <time>2017-01-01T13:13:06Z</time>
      </trkpt>
      <trkpt lat="44.92065" lon="7.17521">
        <ele>1584.03</ele>
        <time>2017-01-01T13:13:06Z</time>
      </trkpt>
      <trkpt lat="44.92154" lon="7.17616">
        <ele>1590.21</ele>
        <time>2017-01-01T13:13:13Z</time>
      </trkpt>
      <trkpt lat="44.922" lon="7.17644">
        <ele>1592.06</ele>
        <time>2017-01-01T13:13:15Z</time>
      </trkpt>
      <trkpt lat="44.92275" lon="7.17653">
        <ele>1585.9</ele>
        <time>2017-01-01T13:13:19Z</time>
      </trkpt>
      <trkpt lat="44.92331" lon="7.17675">
        <ele>1579.87</ele>
        <time>2017-01-01T13:13:23Z</time>
      </trkpt>
      <trkpt lat="44.92397" lon="7.17727">
        <ele>1572.59</ele>
        <time>2017-01-01T13:13:27Z</time>
      </trkpt>
      <trkpt lat="44.92403" lon="7.17716">
        <ele>1569.44</ele>
        <time>2017-01-01T13:13:27Z</time>
      </trkpt>
      <trkpt lat="44.92359" lon="7.17637">
        <ele>1564.25</ele>
        <time>2017-01-01T13:13:31Z</time>
      </trkpt>
      <trkpt lat="44.92351" lon="7.17593">
        <ele>1559.56</ele>
        <time>2017-01-01T13:13:33Z</time>
      </trkpt>
      <trkpt lat="44.92312" lon="7.17516">
        <ele>1548.6</ele>
        <time>2017-01-01T13:13:37Z</time>
      </trkpt>
      <trkpt lat="44.92451" lon="7.17636">
        <ele>1532.98</ele>
        <time>2017-01-01T13:13:46Z</time>
      </trkpt>
      <trkpt lat="44.92483" lon="7.1764">
        <ele>1528.34</ele>
        <time>2017-01-01T13:13:47Z</time>
      </trkpt>
      <trkpt lat="44.92679" lon="7.17781">
        <ele>1503.92</ele>
        <time>2017-01-01T13:13:59Z</time>
      </trkpt>
      <trkpt lat="44.9285" lon="7.17862">
        <ele>1482.99</ele>
        <time>2017-01-01T13:14:09Z</time>
      </trkpt>
      <trkpt lat="44.92964" lon="7.17879">
        <ele>1468.63</ele>
        <time>2017-01-01T13:14:16Z</time>
      </trkpt>
      <trkpt lat="44.92906" lon="7.17778">
        <ele>1457.63</ele>
        <time>2017-01-01T13:14:21Z</time>
      </trkpt>
      <trkpt lat="44.9284" lon="7.17702">
        <ele>1447.94</ele>
        <time>2017-01-01T13:14:25Z</time>
      </trkpt>
      <trkpt lat="44.92903" lon="7.17701">
        <ele>1439.38</ele>
        <time>2017-01-01T13:14:29Z</time>
      </trkpt>
      <trkpt lat="44.9301" lon="7.17742">
        <ele>1428.45</ele>
        <time>2017-01-01T13:14:35Z</time>
      </trkpt>
      <trkpt lat="44.93116" lon="7.17766">
        <ele>1418.17</ele>
        <time>2017-01-01T13:14:41Z</time>
      </trkpt>
      <trkpt lat="44.93131" lon="7.17737">
        <ele>1412.62</ele>
        <time>2017-01-01T13:14:42Z</time>
      </trkpt>
      <trkpt lat="44.9302" lon="7.17613">
        <ele>1398.49</ele>
        <time>2017-01-01T13:14:50Z</time>
      </trkpt>
      <trkpt lat="44.92975" lon="7.17511">
        <ele>1388.55</ele>
        <time>2017-01-01T13:14:55Z</time>
      </trkpt>
      <trkpt lat="44.92806" lon="7.1731">
        <ele>1365.92</ele>
        <time>2017-01-01T13:15:07Z</time>
      </trkpt>
      <trkpt lat="44.92668" lon="7.17017">
        <ele>1337.96</ele>
        <time>2017-01-01T13:15:20Z</time>
      </trkpt>
      <trkpt lat="44.92592" lon="7.16735">
        <ele>1315.96</ele>
        <time>2017-01-01T13:15:32Z</time>
      </trkpt>
      <trkpt lat="44.92631" lon="7.16519">
        <ele>1293.96</ele>
        <time>2017-01-01T13:15:41Z</time>
      </trkpt>
      <trkpt lat="44.92653" lon="7.16312">
        <ele>1276.93</ele>
        <time>2017-01-01T13:15:49Z</time>
      </trkpt>
      <trkpt lat="44.92619" lon="7.16206">
        <ele>1266.68</ele>
        <time>2017-01-01T13:15:53Z</time>
      </trkpt>
      <trkpt lat="44.92612" lon="7.16112">
        <ele>1256.7</ele>
        <time>2017-01-01T13:15:57Z</time>
      </trkpt>
      <trkpt lat="44.92757" lon="7.1624">
        <ele>1233.7</ele>
        <time>2017-01-01T13:16:06Z</time>
      </trkpt>
      <trkpt lat="44.92779" lon="7.16328">
        <ele>1229.49</ele>
        <time>2017-01-01T13:16:10Z</time>
      </trkpt>
      <trkpt lat="44.92803" lon="7.16226">
        <ele>1218.83</ele>
        <time>2017-01-01T13:16:14Z</time>
      </trkpt>
      <trkpt lat="44.92779" lon="7.16085">
        <ele>1206.28</ele>
        <time>2017-01-01T13:16:20Z</time>
      </trkpt>
      <trkpt lat="44.9282" lon="7.16108">
        <ele>1200.72</ele>
        <time>2017-01-01T13:16:22Z</time>
      </trkpt>
      <trkpt lat="44.92879" lon="7.16272">
        <ele>1188.05</ele>
        <time>2017-01-01T13:16:29Z</time>
      </trkpt>
      <trkpt lat="44.929" lon="7.16138">
        <ele>1177.6</ele>
        <time>2017-01-01T13:16:35Z</time>
      </trkpt>
      <trkpt lat="44.92894" lon="7.1606">
        <ele>1171.92</ele>
        <time>2017-01-01T13:16:38Z</time>
      </trkpt>
      <trkpt lat="44.92933" lon="7.1599">
        <ele>1165.09</ele>
        <time>2017-01-01T13:16:41Z</time>
      </trkpt>
      <trkpt lat="44.92941" lon="7.15933">
        <ele>1161.43</ele>
        <time>2017-01-01T13:16:43Z</time>
      </trkpt>
      <trkpt lat="44.9293" lon="7.15888">
        <ele>1158.36</ele>
        <time>2017-01-01T13:16:45Z</time>
      </trkpt>
      <trkpt lat="44.92942" lon="7.15885">
        <ele>1157.7</ele>
        <time>2017-01-01T13:16:46Z</time>
      </trkpt>
      <trkpt lat="44.92955" lon="7.15916">
        <ele>1156.58</ele>
        <time>2017-01-01T13:16:47Z</time>
      </trkpt>
      <trkpt lat="44.9297" lon="7.15994">
        <ele>1150.98</ele>
        <time>2017-01-01T13:16:50Z</time>
      </trkpt>
      <trkpt lat="44.93008" lon="7.15848">
        <ele>1133.63</ele>
        <time>2017-01-01T13:16:56Z</time>
      </trkpt>
      <trkpt lat="44.93001" lon="7.15665">
        <ele>1122.59</ele>
        <time>2017-01-01T13:17:04Z</time>
      </trkpt>
      <trkpt lat="44.9286" lon="7.15764">
        <ele>1118.92</ele>
        <time>2017-01-01T13:17:12Z</time>
      </trkpt>
      <trkpt lat="44.928" lon="7.15725">
        <ele>1114.2</ele>
        <time>2017-01-01T13:17:16Z</time>
      </trkpt>
      <trkpt lat="44.92861" lon="7.15724">
        <ele>1110.25</ele>
        <time>2017-01-01T13:17:19Z</time>
      </trkpt>
      <trkpt lat="44.92933" lon="7.15621">
        <ele>1095.35</ele>
        <time>2017-01-01T13:17:25Z</time>
      </trkpt>
      <trkpt lat="44.93014" lon="7.15532">
        <ele>1085.04</ele>
        <time>2017-01-01T13:17:30Z</time>
      </trkpt>
      <trkpt lat="44.93132" lon="7.15547">
        <ele>1074</ele>
        <time>2017-01-01T13:17:37Z</time>
      </trkpt>
      <trkpt lat="44.93087" lon="7.15504">
        <ele>1066.61</ele>
        <time>2017-01-01T13:17:40Z</time>
      </trkpt>
      <trkpt lat="44.93021" lon="7.15436">
        <ele>1057.75</ele>
        <time>2017-01-01T13:17:44Z</time>
      </trkpt>
      <trkpt lat="44.929" lon="7.1543">
        <ele>1046.08</ele>
        <time>2017-01-01T13:17:51Z</time>
      </trkpt>
      <trkpt lat="44.92983" lon="7.15355">
        <ele>1036.32</ele>
        <time>2017-01-01T13:17:56Z</time>
      </trkpt>
      <trkpt lat="44.92975" lon="7.15336">
        <ele>1032.2</ele>
        <time>2017-01-01T13:17:57Z</time>
      </trkpt>
      <trkpt lat="44.92861" lon="7.1537">
        <ele>1021.6</ele>
        <time>2017-01-01T13:18:04Z</time>
      </trkpt>
      <trkpt lat="44.92764" lon="7.15386">
        <ele>1014.3</ele>
        <time>2017-01-01T13:18:09Z</time>
      </trkpt>
      <trkpt lat="44.9275" lon="7.15366">
        <ele>1009.99</ele>
        <time>2017-01-01T13:18:10Z</time>
      </trkpt>
      <trkpt lat="44.92813" lon="7.15318">
        <ele>1001.01</ele>
        <time>2017-01-01T13:18:14Z</time>
      </trkpt>
      <trkpt lat="44.92857" lon="7.15261">
        <ele>994.32</ele>
        <time>2017-01-01T13:18:17Z</time>
      </trkpt>
      <trkpt lat="44.92895" lon="7.15236">
        <ele>993.13</ele>
        <time>2017-01-01T13:18:20Z</time>
      </trkpt>
      <trkpt lat="44.92936" lon="7.15217">
        <ele>991.4</ele>
        <time>2017-01-01T13:18:22Z</time>
      </trkpt>
      <trkpt lat="44.93062" lon="7.15233">
        <ele>984.21</ele>
        <time>2017-01-01T13:18:29Z</time>
      </trkpt>
      <trkpt lat="44.93079" lon="7.1522">
        <ele>984.89</ele>
        <time>2017-01-01T13:18:30Z</time>
      </trkpt>
      <trkpt lat="44.92938" lon="7.15131">
        <ele>961.38</ele>
        <time>2017-01-01T13:18:38Z</time>
      </trkpt>
      <trkpt lat="44.92868" lon="7.15141">
        <ele>960.02</ele>
        <time>2017-01-01T13:18:42Z</time>
      </trkpt>
      <trkpt lat="44.92768" lon="7.15126">
        <ele>952.27</ele>
        <time>2017-01-01T13:18:48Z</time>
      </trkpt>
      <trkpt lat="44.92667" lon="7.15138">
        <ele>947.81</ele>
        <time>2017-01-01T13:18:53Z</time>
      </trkpt>
      <trkpt lat="44.92669" lon="7.15114">
        <ele>941.68</ele>
        <time>2017-01-01T13:18:54Z</time>
      </trkpt>
      <trkpt lat="44.92849" lon="7.15028">
        <ele>923.1</ele>
        <time>2017-01-01T13:19:05Z</time>
      </trkpt>
      <trkpt lat="44.92974" lon="7.14979">
        <ele>909.97</ele>
        <time>2017-01-01T13:19:12Z</time>
      </trkpt>
      <trkpt lat="44.93024" lon="7.14906">
        <ele>900.86</ele>
        <time>2017-01-01T13:19:16Z</time>
      </trkpt>
      <trkpt lat="44.93053" lon="7.14787">
        <ele>890.85</ele>
        <time>2017-01-01T13:19:21Z</time>
      </trkpt>
      <trkpt lat="44.93109" lon="7.14753">
        <ele>883.93</ele>
        <time>2017-01-01T13:19:24Z</time>
      </trkpt>
      <trkpt lat="44.93168" lon="7.14784">
        <ele>883.46</ele>
        <time>2017-01-01T13:19:27Z</time>
      </trkpt>
      <trkpt lat="44.93235" lon="7.1476">
        <ele>871.74</ele>
        <time>2017-01-01T13:19:31Z</time>
      </trkpt>
      <trkpt lat="44.93348" lon="7.14681">
        <ele>859.54</ele>
        <time>2017-01-01T13:19:38Z</time>
      </trkpt>
      <trkpt lat="44.93437" lon="7.14446">
        <ele>839.6</ele>
        <time>2017-01-01T13:19:49Z</time>
      </trkpt>
      <trkpt lat="44.93515" lon="7.14387">
        <ele>822.87</ele>
        <time>2017-01-01T13:19:53Z</time>
      </trkpt>
      <trkpt lat="44.93532" lon="7.14351">
        <ele>822.76</ele>
        <time>2017-01-01T13:19:55Z</time>
      </trkpt>
      <trkpt lat="44.93461" lon="7.1434">
        <ele>820.25</ele>
        <time>2017-01-01T13:19:59Z</time>
      </trkpt>
      <trkpt lat="44.93394" lon="7.14354">
        <ele>816.44</ele>
        <time>2017-01-01T13:20:03Z</time>
      </trkpt>
      <trkpt lat="44.93383" lon="7.14324">
        <ele>809.59</ele>
        <time>2017-01-01T13:20:04Z</time>
      </trkpt>
      <trkpt lat="44.93519" lon="7.14258">
        <ele>799.7</ele>
        <time>2017-01-01T13:20:12Z</time>
      </trkpt>
      <trkpt lat="44.93524" lon="7.14239">
        <ele>792.73</ele>
        <time>2017-01-01T13:20:13Z</time>
      </trkpt>
      <trkpt lat="44.9349" lon="7.14242">
        <ele>793.93</ele>
        <time>2017-01-01T13:20:15Z</time>
      </trkpt>
      <trkpt lat="44.93449" lon="7.14253">
        <ele>793.51</ele>
        <time>2017-01-01T13:20:17Z</time>
      </trkpt>
      <trkpt lat="44.93458" lon="7.14231">
        <ele>788.74</ele>
        <time>2017-01-01T13:20:18Z</time>
      </trkpt>
      <trkpt lat="44.93525" lon="7.14214">
        <ele>782.36</ele>
        <time>2017-01-01T13:20:22Z</time>
      </trkpt>
      <trkpt lat="44.93607" lon="7.14235">
        <ele>771.3</ele>
        <time>2017-01-01T13:20:26Z</time>
      </trkpt>
      <trkpt lat="44.93584" lon="7.14206">
        <ele>769.31</ele>
        <time>2017-01-01T13:20:28Z</time>
      </trkpt>
      <trkpt lat="44.93483" lon="7.1417">
        <ele>765.57</ele>
        <time>2017-01-01T13:20:34Z</time>
      </trkpt>
      <trkpt lat="44.93373" lon="7.1417">
        <ele>758.46</ele>
        <time>2017-01-01T13:20:40Z</time>
      </trkpt>
      <trkpt lat="44.9338" lon="7.14149">
        <ele>754.83</ele>
        <time>2017-01-01T13:20:41Z</time>
      </trkpt>
      <trkpt lat="44.93397" lon="7.14139">
        <ele>752.98</ele>
        <time>2017-01-01T13:20:42Z</time>
      </trkpt>
      <trkpt lat="44.9356" lon="7.14131">
        <ele>740.38</ele>
        <time>2017-01-01T13:20:50Z</time>
      </trkpt>
      <trkpt lat="44.93591" lon="7.14108">
        <ele>730.87</ele>
        <time>2017-01-01T13:20:52Z</time>
      </trkpt>
      <trkpt lat="44.93593" lon="7.14019">
        <ele>729.13</ele>
        <time>2017-01-01T13:20:56Z</time>
      </trkpt>
      <trkpt lat="44.93573" lon="7.13938">
        <ele>723.44</ele>
        <time>2017-01-01T13:20:59Z</time>
      </trkpt>
      <trkpt lat="44.93603" lon="7.13897">
        <ele>725</ele>
        <time>2017-01-01T13:21:01Z</time>
      </trkpt>
      <trkpt lat="44.93721" lon="7.14031">
        <ele>726.96</ele>
        <time>2017-01-01T13:21:10Z</time>
      </trkpt>
      <trkpt lat="44.93781" lon="7.14152">
        <ele>726.79</ele>
        <time>2017-01-01T13:21:15Z</time>
      </trkpt>
      <trkpt lat="44.93814" lon="7.14291">
        <ele>735.01</ele>
        <time>2017-01-01T13:21:21Z</time>
      </trkpt>
      <trkpt lat="44.938" lon="7.1444">
        <ele>728.16</ele>
        <time>2017-01-01T13:21:27Z</time>
      </trkpt>
      <trkpt lat="44.93759" lon="7.14609">
        <ele>721.92</ele>
        <time>2017-01-01T13:21:34Z</time>
      </trkpt>
      <trkpt lat="44.93745" lon="7.14709">
        <ele>719.17</ele>
        <time>2017-01-01T13:21:38Z</time>
      </trkpt>
      <trkpt lat="44.93791" lon="7.14862">
        <ele>707.75</ele>
        <time>2017-01-01T13:21:44Z</time>
      </trkpt>
      <trkpt lat="44.93868" lon="7.14982">
        <ele>705.64</ele>
        <time>2017-01-01T13:21:51Z</time>
      </trkpt>
      <trkpt lat="44.93901" lon="7.15138">
        <ele>703.72</ele>
        <time>2017-01-01T13:21:57Z</time>
      </trkpt>
      <trkpt lat="44.93884" lon="7.15226">
        <ele>704.75</ele>
        <time>2017-01-01T13:22:00Z</time>
      </trkpt>
      <trkpt lat="44.93888" lon="7.15365">
        <ele>690.16</ele>
        <time>2017-01-01T13:22:06Z</time>
      </trkpt>
      <trkpt lat="44.93949" lon="7.15444">
        <ele>688.31</ele>
        <time>2017-01-01T13:22:10Z</time>
      </trkpt>
      <trkpt lat="44.93974" lon="7.15443">
        <ele>689.77</ele>
        <time>2017-01-01T13:22:12Z</time>
      </trkpt>
      <trkpt lat="44.9403" lon="7.15473">
        <ele>681.37</ele>
        <time>2017-01-01T13:22:15Z</time>
      </trkpt>
      <trkpt lat="44.94068" lon="7.15514">
        <ele>681.24</ele>
        <time>2017-01-01T13:22:18Z</time>
      </trkpt>
      <trkpt lat="44.94164" lon="7.15646">
        <ele>680.65</ele>
        <time>2017-01-01T13:22:25Z</time>
      </trkpt>
      <trkpt lat="44.94172" lon="7.15776">
        <ele>681.46</ele>
        <time>2017-01-01T13:22:30Z</time>
      </trkpt>
      <trkpt lat="44.94216" lon="7.1586">
        <ele>677.57</ele>
        <time>2017-01-01T13:22:34Z</time>
      </trkpt>
      <trkpt lat="44.94295" lon="7.15913">
        <ele>676.41</ele>
        <time>2017-01-01T13:22:39Z</time>
      </trkpt>
      <trkpt lat="44.94375" lon="7.15955">
        <ele>672.85</ele>
        <time>2017-01-01T13:22:44Z</time>
      </trkpt>
      <trkpt lat="44.94445" lon="7.16085">
        <ele>672.07</ele>
        <time>2017-01-01T13:22:50Z</time>
      </trkpt>
      <trkpt lat="44.94569" lon="7.16173">
        <ele>659.32</ele>
        <time>2017-01-01T13:22:58Z</time>
      </trkpt>
      <trkpt lat="44.94684" lon="7.16382">
        <ele>663.37</ele>
        <time>2017-01-01T13:23:08Z</time>
      </trkpt>
      <trkpt lat="44.94793" lon="7.16383">
        <ele>659.15</ele>
        <time>2017-01-01T13:23:14Z</time>
      </trkpt>
      <trkpt lat="44.94919" lon="7.1629">
        <ele>651.04</ele>
        <time>2017-01-01T13:23:22Z</time>
      </trkpt>
      <trkpt lat="44.95012" lon="7.16407">
        <ele>641.82</ele>
        <time>2017-01-01T13:23:28Z</time>
      </trkpt>
      <trkpt lat="44.95055" lon="7.16569">
        <ele>640.77</ele>
        <time>2017-01-01T13:23:35Z</time>
      </trkpt>
      <trkpt lat="44.95101" lon="7.16607">
        <ele>639.74</ele>
        <time>2017-01-01T13:23:38Z</time>
      </trkpt>
      <trkpt lat="44.95129" lon="7.16827">
        <ele>639.36</ele>
        <time>2017-01-01T13:23:47Z</time>
      </trkpt>
      <trkpt lat="44.95131" lon="7.17233">
        <ele>634.9</ele>
        <time>2017-01-01T13:24:02Z</time>
      </trkpt>
      <trkpt lat="44.95189" lon="7.17318">
        <ele>631.61</ele>
        <time>2017-01-01T13:24:07Z</time>
      </trkpt>
      <trkpt lat="44.95428" lon="7.17443">
        <ele>627.79</ele>
        <time>2017-01-01T13:24:21Z</time>
      </trkpt>
      <trkpt lat="44.95444" lon="7.17522">
        <ele>625.34</ele>
        <time>2017-01-01T13:24:24Z</time>
      </trkpt>
      <trkpt lat="44.9542" lon="7.1761">
        <ele>622.09</ele>
        <time>2017-01-01T13:24:28Z</time>
      </trkpt>
      <trkpt lat="44.95384" lon="7.1763">
        <ele>615.84</ele>
        <time>2017-01-01T13:24:30Z</time>
      </trkpt>
      <trkpt lat="44.95322" lon="7.17688">
        <ele>622.71</ele>
        <time>2017-01-01T13:24:34Z</time>
      </trkpt>
      <trkpt lat="44.95382" lon="7.17948">
        <ele>613.03</ele>
        <time>2017-01-01T13:24:45Z</time>
      </trkpt>
      <trkpt lat="44.954" lon="7.18184">
        <ele>609.6</ele>
        <time>2017-01-01T13:24:54Z</time>
      </trkpt>
      <trkpt lat="44.95367" lon="7.18426">
        <ele>605.07</ele>
        <time>2017-01-01T13:25:03Z</time>
      </trkpt>
      <trkpt lat="44.95271" lon="7.18682">
        <ele>614.91</ele>
        <time>2017-01-01T13:25:15Z</time>
      </trkpt>
      <trkpt lat="44.95294" lon="7.18784">
        <ele>610.22</ele>
        <time>2017-01-01T13:25:19Z</time>
      </trkpt>
      <trkpt lat="44.953" lon="7.18888">
        <ele>600.86</ele>
        <time>2017-01-01T13:25:23Z</time>
      </trkpt>
      <trkpt lat="44.95288" lon="7.19044">
        <ele>592.92</ele>
        <time>2017-01-01T13:25:29Z</time>
      </trkpt>
      <trkpt lat="44.95246" lon="7.19393">
        <ele>589.71</ele>
        <time>2017-01-01T13:25:43Z</time>
      </trkpt>
      <trkpt lat="44.95326" lon="7.19389">
        <ele>590.37</ele>
        <time>2017-01-01T13:25:47Z</time>
      </trkpt>
      <trkpt lat="44.95365" lon="7.19397">
        <ele>595.71</ele>
        <time>2017-01-01T13:25:49Z</time>
      </trkpt>
      <trkpt lat="44.95449" lon="7.19418">
        <ele>602.44</ele>
        <time>2017-01-01T13:25:54Z</time>
      </trkpt>
      <trkpt lat="44.95494" lon="7.1942">
        <ele>605.96</ele>
        <time>2017-01-01T13:25:56Z</time>
      </trkpt>
      <trkpt lat="44.95504" lon="7.19424">
        <ele>607.04</ele>
        <time>2017-01-01T13:25:57Z</time>
      </trkpt>
      <trkpt lat="44.95538" lon="7.19416">
        <ele>609.1</ele>
        <time>2017-01-01T13:25:59Z</time>
      </trkpt>
      <trkpt lat="44.95579" lon="7.19364">
        <ele>610.71</ele>
        <time>2017-01-01T13:26:02Z</time>
      </trkpt>
      <trkpt lat="44.9562" lon="7.19274">
        <ele>612.38</ele>
        <time>2017-01-01T13:26:06Z</time>
      </trkpt>
      <trkpt lat="44.95783" lon="7.19069">
        <ele>624.37</ele>
        <time>2017-01-01T13:26:18Z</time>
      </trkpt>
      <trkpt lat="44.95899" lon="7.18932">
        <ele>633.07</ele>
        <time>2017-01-01T13:26:26Z</time>
      </trkpt>
      <trkpt lat="44.95959" lon="7.1889">
        <ele>635.6</ele>
        <time>2017-01-01T13:26:30Z</time>
      </trkpt>
      <trkpt lat="44.96032" lon="7.18808">
        <ele>640.97</ele>
        <time>2017-01-01T13:26:35Z</time>
      </trkpt>
      <trkpt lat="44.96163" lon="7.18755">
        <ele>648.81</ele>
        <time>2017-01-01T13:26:43Z</time>
      </trkpt>
      <trkpt lat="44.96358" lon="7.18588">
        <ele>652.22</ele>
        <time>2017-01-01T13:26:55Z</time>
      </trkpt>
      <trkpt lat="44.96472" lon="7.18566">
        <ele>653.23</ele>
        <time>2017-01-01T13:27:01Z</time>
      </trkpt>
      <trkpt lat="44.96566" lon="7.18511">
        <ele>652.54</ele>
        <time>2017-01-01T13:27:07Z</time>
      </trkpt>
      <trkpt lat="44.96641" lon="7.18396">
        <ele>650.7</ele>
        <time>2017-01-01T13:27:13Z</time>
      </trkpt>
      <trkpt lat="44.96717" lon="7.18165">
        <ele>652.13</ele>
        <time>2017-01-01T13:27:23Z</time>
      </trkpt>
      <trkpt lat="44.96749" lon="7.18004">
        <ele>653.11</ele>
        <time>2017-01-01T13:27:29Z</time>
      </trkpt>
      <trkpt lat="44.96813" lon="7.17879">
        <ele>654.27</ele>
        <time>2017-01-01T13:27:35Z</time>
      </trkpt>
      <trkpt lat="44.96919" lon="7.17806">
        <ele>659.25</ele>
        <time>2017-01-01T13:27:42Z</time>
      </trkpt>
      <trkpt lat="44.97042" lon="7.17771">
        <ele>664.38</ele>
        <time>2017-01-01T13:27:49Z</time>
      </trkpt>
      <trkpt lat="44.97181" lon="7.17637">
        <ele>665.98</ele>
        <time>2017-01-01T13:27:58Z</time>
      </trkpt>
      <trkpt lat="44.97309" lon="7.17441">
        <ele>677.89</ele>
        <time>2017-01-01T13:28:08Z</time>
      </trkpt>
      <trkpt lat="44.97362" lon="7.17281">
        <ele>675.33</ele>
        <time>2017-01-01T13:28:15Z</time>
      </trkpt>
      <trkpt lat="44.97424" lon="7.17214">
        <ele>681.59</ele>
        <time>2017-01-01T13:28:19Z</time>
      </trkpt>
      <trkpt lat="44.97502" lon="7.17167">
        <ele>682.21</ele>
        <time>2017-01-01T13:28:24Z</time>
      </trkpt>
      <trkpt lat="44.97577" lon="7.17102">
        <ele>687.35</ele>
        <time>2017-01-01T13:28:29Z</time>
      </trkpt>
      <trkpt lat="44.9759" lon="7.16716">
        <ele>692.62</ele>
        <time>2017-01-01T13:28:44Z</time>
      </trkpt>
      <trkpt lat="44.97682" lon="7.16306">
        <ele>704.31</ele>
        <time>2017-01-01T13:29:01Z</time>
      </trkpt>
      <trkpt lat="44.97747" lon="7.16211">
        <ele>709.33</ele>
        <time>2017-01-01T13:29:06Z</time>
      </trkpt>
      <trkpt lat="44.97863" lon="7.16137">
        <ele>715</ele>
        <time>2017-01-01T13:29:13Z</time>
      </trkpt>
      <trkpt lat="44.97969" lon="7.16046">
        <ele>720.72</ele>
        <time>2017-01-01T13:29:19Z</time>
      </trkpt>
      <trkpt lat="44.98085" lon="7.15852">
        <ele>725.1</ele>
        <time>2017-01-01T13:29:29Z</time>
      </trkpt>
      <trkpt lat="44.98251" lon="7.1544">
        <ele>732.47</ele>
        <time>2017-01-01T13:29:48Z</time>
      </trkpt>
      <trkpt lat="44.98256" lon="7.15147">
        <ele>739.43</ele>
        <time>2017-01-01T13:29:59Z</time>
      </trkpt>
      <trkpt lat="44.98319" lon="7.14753">
        <ele>751.47</ele>
        <time>2017-01-01T13:30:15Z</time>
      </trkpt>
      <trkpt lat="44.98848" lon="7.14167">
        <ele>782.49</ele>
        <time>2017-01-01T13:30:51Z</time>
      </trkpt>
      <trkpt lat="44.99095" lon="7.14115">
        <ele>794.6</ele>
        <time>2017-01-01T13:31:05Z</time>
      </trkpt>
      <trkpt lat="44.99297" lon="7.14021">
        <ele>804.21</ele>
        <time>2017-01-01T13:31:17Z</time>
      </trkpt>
      <trkpt lat="44.99562" lon="7.13587">
        <ele>819.13</ele>
        <time>2017-01-01T13:31:39Z</time>
      </trkpt>
      <trkpt lat="44.99577" lon="7.13328">
        <ele>830.38</ele>
        <time>2017-01-01T13:31:49Z</time>
      </trkpt>
      <trkpt lat="44.99649" lon="7.13244">
        <ele>836.85</ele>
        <time>2017-01-01T13:31:54Z</time>
      </trkpt>
      <trkpt lat="44.99951" lon="7.13128">
        <ele>847.22</ele>
        <time>2017-01-01T13:32:11Z</time>
      </trkpt>
      <trkpt lat="45.00049" lon="7.12939">
        <ele>852.95</ele>
        <time>2017-01-01T13:32:20Z</time>
      </trkpt>
      <trkpt lat="45.00169" lon="7.12864">
        <ele>860.92</ele>
        <time>2017-01-01T13:32:28Z</time>
      </trkpt>
      <trkpt lat="45.00318" lon="7.12768">
        <ele>867.25</ele>
        <time>2017-01-01T13:32:37Z</time>
      </trkpt>
      <trkpt lat="45.00413" lon="7.12635">
        <ele>874.88</ele>
        <time>2017-01-01T13:32:44Z</time>
      </trkpt>
      <trkpt lat="45.00483" lon="7.12464">
        <ele>886.63</ele>
        <time>2017-01-01T13:32:52Z</time>
      </trkpt>
      <trkpt lat="45.00649" lon="7.12346">
        <ele>904.36</ele>
        <time>2017-01-01T13:33:02Z</time>
      </trkpt>
      <trkpt lat="45.00777" lon="7.12143">
        <ele>909.1</ele>
        <time>2017-01-01T13:33:12Z</time>
      </trkpt>
      <trkpt lat="45.01185" lon="7.11765">
        <ele>942.68</ele>
        <time>2017-01-01T13:33:39Z</time>
      </trkpt>
      <trkpt lat="45.01435" lon="7.11686">
        <ele>962.81</ele>
        <time>2017-01-01T13:33:53Z</time>
      </trkpt>
      <trkpt lat="45.01612" lon="7.11532">
        <ele>973.33</ele>
        <time>2017-01-01T13:34:05Z</time>
      </trkpt>
      <trkpt lat="45.01867" lon="7.11084">
        <ele>987.69</ele>
        <time>2017-01-01T13:34:27Z</time>
      </trkpt>
      <trkpt lat="45.02122" lon="7.10841">
        <ele>1000.43</ele>
        <time>2017-01-01T13:34:44Z</time>
      </trkpt>
      <trkpt lat="45.02274" lon="7.10354">
        <ele>1014.23</ele>
        <time>2017-01-01T13:35:04Z</time>
      </trkpt>
      <trkpt lat="45.02262" lon="7.10034">
        <ele>1033.22</ele>
        <time>2017-01-01T13:35:17Z</time>
      </trkpt>
      <trkpt lat="45.02203" lon="7.09654">
        <ele>1023.95</ele>
        <time>2017-01-01T13:35:32Z</time>
      </trkpt>
      <trkpt lat="45.02347" lon="7.09278">
        <ele>1045.38</ele>
        <time>2017-01-01T13:35:48Z</time>
      </trkpt>
      <trkpt lat="45.0239" lon="7.08791">
        <ele>1044.63</ele>
        <time>2017-01-01T13:36:07Z</time>
      </trkpt>
      <trkpt lat="45.02476" lon="7.08621">
        <ele>1045.62</ele>
        <time>2017-01-01T13:36:15Z</time>
      </trkpt>
      <trkpt lat="45.02508" lon="7.08368">
        <ele>1056.76</ele>
        <time>2017-01-01T13:36:25Z</time>
      </trkpt>
      <trkpt lat="45.02459" lon="7.08189">
        <ele>1045.77</ele>
        <time>2017-01-01T13:36:33Z</time>
      </trkpt>
      <trkpt lat="45.02483" lon="7.08063">
        <ele>1046.93</ele>
        <time>2017-01-01T13:36:38Z</time>
      </trkpt>
      <trkpt lat="45.02578" lon="7.07899">
        <ele>1063.36</ele>
        <time>2017-01-01T13:36:46Z</time>
      </trkpt>
      <trkpt lat="45.02618" lon="7.07711">
        <ele>1064.22</ele>
        <time>2017-01-01T13:36:54Z</time>
      </trkpt>
      <trkpt lat="45.02615" lon="7.07472">
        <ele>1064.43</ele>
        <time>2017-01-01T13:37:03Z</time>
      </trkpt>
      <trkpt lat="45.02663" lon="7.07266">
        <ele>1071.58</ele>
        <time>2017-01-01T13:37:11Z</time>
      </trkpt>
      <trkpt lat="45.02674" lon="7.06917">
        <ele>1084.11</ele>
        <time>2017-01-01T13:37:25Z</time>
      </trkpt>
      <trkpt lat="45.02648" lon="7.06815">
        <ele>1078.79</ele>
        <time>2017-01-01T13:37:29Z</time>
      </trkpt>
      <trkpt lat="45.02668" lon="7.06814">
        <ele>1083.67</ele>
        <time>2017-01-01T13:37:30Z</time>
      </trkpt>
      <trkpt lat="45.02697" lon="7.06856">
        <ele>1092.31</ele>
        <time>2017-01-01T13:37:33Z</time>
      </trkpt>
      <trkpt lat="45.02715" lon="7.07065">
        <ele>1105.21</ele>
        <time>2017-01-01T13:37:41Z</time>
      </trkpt>
      <trkpt lat="45.02753" lon="7.07274">
        <ele>1122.4</ele>
        <time>2017-01-01T13:37:49Z</time>
      </trkpt>
      <trkpt lat="45.02741" lon="7.07555">
        <ele>1134.96</ele>
        <time>2017-01-01T13:38:00Z</time>
      </trkpt>
      <trkpt lat="45.02836" lon="7.08073">
        <ele>1183.86</ele>
        <time>2017-01-01T13:38:21Z</time>
      </trkpt>
      <trkpt lat="45.02832" lon="7.08255">
        <ele>1190.85</ele>
        <time>2017-01-01T13:38:28Z</time>
      </trkpt>
      <trkpt lat="45.02871" lon="7.08517">
        <ele>1212.18</ele>
        <time>2017-01-01T13:38:38Z</time>
      </trkpt>
      <trkpt lat="45.02906" lon="7.08361">
        <ele>1231.72</ele>
        <time>2017-01-01T13:38:44Z</time>
      </trkpt>
      <trkpt lat="45.0295" lon="7.08208">
        <ele>1237.6</ele>
        <time>2017-01-01T13:38:51Z</time>
      </trkpt>
      <trkpt lat="45.02944" lon="7.08056">
        <ele>1249.54</ele>
        <time>2017-01-01T13:38:57Z</time>
      </trkpt>
      <trkpt lat="45.02963" lon="7.07788">
        <ele>1265.69</ele>
        <time>2017-01-01T13:39:07Z</time>
      </trkpt>
      <trkpt lat="45.03006" lon="7.07661">
        <ele>1281.7</ele>
        <time>2017-01-01T13:39:13Z</time>
      </trkpt>
      <trkpt lat="45.03021" lon="7.07791">
        <ele>1297.95</ele>
        <time>2017-01-01T13:39:18Z</time>
      </trkpt>
      <trkpt lat="45.03061" lon="7.08031">
        <ele>1320</ele>
        <time>2017-01-01T13:39:27Z</time>
      </trkpt>
      <trkpt lat="45.03165" lon="7.0833">
        <ele>1338.61</ele>
        <time>2017-01-01T13:39:40Z</time>
      </trkpt>
      <trkpt lat="45.03229" lon="7.08457">
        <ele>1360.21</ele>
        <time>2017-01-01T13:39:46Z</time>
      </trkpt>
      <trkpt lat="45.03237" lon="7.08537">
        <ele>1368.82</ele>
        <time>2017-01-01T13:39:49Z</time>
      </trkpt>
      <trkpt lat="45.03238" lon="7.08306">
        <ele>1384.3</ele>
        <time>2017-01-01T13:39:58Z</time>
      </trkpt>
      <trkpt lat="45.03271" lon="7.08078">
        <ele>1408</ele>
        <time>2017-01-01T13:40:07Z</time>
      </trkpt>
      <trkpt lat="45.03278" lon="7.07863">
        <ele>1415.18</ele>
        <time>2017-01-01T13:40:16Z</time>
      </trkpt>
      <trkpt lat="45.03352" lon="7.07791">
        <ele>1437.83</ele>
        <time>2017-01-01T13:40:21Z</time>
      </trkpt>
      <trkpt lat="45.03329" lon="7.07501">
        <ele>1470.43</ele>
        <time>2017-01-01T13:40:32Z</time>
      </trkpt>
      <trkpt lat="45.03263" lon="7.0726">
        <ele>1481.26</ele>
        <time>2017-01-01T13:40:42Z</time>
      </trkpt>
      <trkpt lat="45.03315" lon="7.07184">
        <ele>1493.06</ele>
        <time>2017-01-01T13:40:46Z</time>
      </trkpt>
      <trkpt lat="45.03416" lon="7.06953">
        <ele>1517.21</ele>
        <time>2017-01-01T13:40:57Z</time>
      </trkpt>
      <trkpt lat="45.03462" lon="7.06953">
        <ele>1548.82</ele>
        <time>2017-01-01T13:40:59Z</time>
      </trkpt>
      <trkpt lat="45.03453" lon="7.07154">
        <ele>1551.55</ele>
        <time>2017-01-01T13:41:07Z</time>
      </trkpt>
      <trkpt lat="45.03374" lon="7.07309">
        <ele>1555.87</ele>
        <time>2017-01-01T13:41:14Z</time>
      </trkpt>
      <trkpt lat="45.03478" lon="7.07464">
        <ele>1588.96</ele>
        <time>2017-01-01T13:41:22Z</time>
      </trkpt>
      <trkpt lat="45.03507" lon="7.0755">
        <ele>1591.37</ele>
        <time>2017-01-01T13:41:26Z</time>
      </trkpt>
      <trkpt lat="45.03478" lon="7.07322">
        <ele>1608.05</ele>
        <time>2017-01-01T13:41:35Z</time>
      </trkpt>
      <trkpt lat="45.03553" lon="7.07241">
        <ele>1621.16</ele>
        <time>2017-01-01T13:41:40Z</time>
      </trkpt>
      <trkpt lat="45.03623" lon="7.07078">
        <ele>1642.48</ele>
        <time>2017-01-01T13:41:48Z</time>
      </trkpt>
      <trkpt lat="45.03576" lon="7.07337">
        <ele>1650.89</ele>
        <time>2017-01-01T13:41:58Z</time>
      </trkpt>
      <trkpt lat="45.03676" lon="7.07492">
        <ele>1674.56</ele>
        <time>2017-01-01T13:42:06Z</time>
      </trkpt>
      <trkpt lat="45.03734" lon="7.07646">
        <ele>1688.53</ele>
        <time>2017-01-01T13:42:13Z</time>
      </trkpt>
      <trkpt lat="45.03725" lon="7.07816">
        <ele>1702.64</ele>
        <time>2017-01-01T13:42:20Z</time>
      </trkpt>
      <trkpt lat="45.03793" lon="7.07623">
        <ele>1719.95</ele>
        <time>2017-01-01T13:42:28Z</time>
      </trkpt>
      <trkpt lat="45.03802" lon="7.07414">
        <ele>1731.46</ele>
        <time>2017-01-01T13:42:36Z</time>
      </trkpt>
      <trkpt lat="45.03847" lon="7.07207">
        <ele>1753.86</ele>
        <time>2017-01-01T13:42:44Z</time>
      </trkpt>
      <trkpt lat="45.0382" lon="7.07068">
        <ele>1752.3</ele>
        <time>2017-01-01T13:42:50Z</time>
      </trkpt>
      <trkpt lat="45.03871" lon="7.07078">
        <ele>1752.29</ele>
        <time>2017-01-01T13:42:53Z</time>
      </trkpt>
      <trkpt lat="45.03907" lon="7.07265">
        <ele>1761.25</ele>
        <time>2017-01-01T13:43:00Z</time>
      </trkpt>
      <trkpt lat="45.03954" lon="7.07376">
        <ele>1758.49</ele>
        <time>2017-01-01T13:43:05Z</time>
      </trkpt>
      <trkpt lat="45.0402" lon="7.07614">
        <ele>1764.35</ele>
        <time>2017-01-01T13:43:15Z</time>
      </trkpt>
      <trkpt lat="45.0404" lon="7.07713">
        <ele>1773.08</ele>
        <time>2017-01-01T13:43:19Z</time>
      </trkpt>
      <trkpt lat="45.04096" lon="7.07767">
        <ele>1766.79</ele>
        <time>2017-01-01T13:43:23Z</time>
      </trkpt>
      <trkpt lat="45.04213" lon="7.07799">
        <ele>1772.24</ele>
        <time>2017-01-01T13:43:30Z</time>
      </trkpt>
      <trkpt lat="45.04407" lon="7.07805">
        <ele>1778.24</ele>
        <time>2017-01-01T13:43:40Z</time>
      </trkpt>
      <trkpt lat="45.045" lon="7.07859">
        <ele>1783.51</ele>
        <time>2017-01-01T13:43:46Z</time>
      </trkpt>
      <trkpt lat="45.04557" lon="7.07938">
        <ele>1792.39</ele>
        <time>2017-01-01T13:43:50Z</time>
      </trkpt>
      <trkpt lat="45.04667" lon="7.0796">
        <ele>1801.43</ele>
        <time>2017-01-01T13:43:56Z</time>
      </trkpt>
      <trkpt lat="45.04836" lon="7.0805">
        <ele>1809</ele>
        <time>2017-01-01T13:44:06Z</time>
      </trkpt>
      <trkpt lat="45.04886" lon="7.07998">
        <ele>1811.74</ele>
        <time>2017-01-01T13:44:09Z</time>
      </trkpt>
      <trkpt lat="45.0494" lon="7.07906">
        <ele>1804.54</ele>
        <time>2017-01-01T13:44:14Z</time>
      </trkpt>
      <trkpt lat="45.05051" lon="7.07996">
        <ele>1813.86</ele>
        <time>2017-01-01T13:44:21Z</time>
      </trkpt>
      <trkpt lat="45.05103" lon="7.08013">
        <ele>1812.3</ele>
        <time>2017-01-01T13:44:24Z</time>
      </trkpt>
      <trkpt lat="45.05156" lon="7.08002">
        <ele>1813.11</ele>
        <time>2017-01-01T13:44:27Z</time>
      </trkpt>
      <trkpt lat="45.05221" lon="7.07914">
        <ele>1813.64</ele>
        <time>2017-01-01T13:44:32Z</time>
      </trkpt>
      <trkpt lat="45.05236" lon="7.07804">
        <ele>1813.13</ele>
        <time>2017-01-01T13:44:36Z</time>
      </trkpt>
      <trkpt lat="45.05271" lon="7.07755">
        <ele>1815.1</ele>
        <time>2017-01-01T13:44:39Z</time>
      </trkpt>
      <trkpt lat="45.053" lon="7.07728">
        <ele>1821.22</ele>
        <time>2017-01-01T13:44:41Z</time>
      </trkpt>
      <trkpt lat="45.05289" lon="7.0762">
        <ele>1812.31</ele>
        <time>2017-01-01T13:44:45Z</time>
      </trkpt>
      <trkpt lat="45.05294" lon="7.07552">
        <ele>1823.12</ele>
        <time>2017-01-01T13:44:48Z</time>
      </trkpt>
      <trkpt lat="45.05268" lon="7.07484">
        <ele>1825.28</ele>
        <time>2017-01-01T13:44:51Z</time>
      </trkpt>
      <trkpt lat="45.0523" lon="7.07219">
        <ele>1828.35</ele>
        <time>2017-01-01T13:45:01Z</time>
      </trkpt>
      <trkpt lat="45.05238" lon="7.0712">
        <ele>1844.89</ele>
        <time>2017-01-01T13:45:05Z</time>
      </trkpt>
      <trkpt lat="45.0512" lon="7.07078">
        <ele>1828.36</ele>
        <time>2017-01-01T13:45:12Z</time>
      </trkpt>
      <trkpt lat="45.05066" lon="7.06836">
        <ele>1830.32</ele>
        <time>2017-01-01T13:45:22Z</time>
      </trkpt>
      <trkpt lat="45.05076" lon="7.06736">
        <ele>1835.28</ele>
        <time>2017-01-01T13:45:25Z</time>
      </trkpt>
      <trkpt lat="45.05067" lon="7.06653">
        <ele>1836.72</ele>
        <time>2017-01-01T13:45:29Z</time>
      </trkpt>
      <trkpt lat="45.05039" lon="7.06254">
        <ele>1835.75</ele>
        <time>2017-01-01T13:45:44Z</time>
      </trkpt>
      <trkpt lat="45.04947" lon="7.05846">
        <ele>1835.91</ele>
        <time>2017-01-01T13:46:01Z</time>
      </trkpt>
      <trkpt lat="45.05003" lon="7.05556">
        <ele>1850.12</ele>
        <time>2017-01-01T13:46:12Z</time>
      </trkpt>
      <trkpt lat="45.04997" lon="7.0541">
        <ele>1844.38</ele>
        <time>2017-01-01T13:46:18Z</time>
      </trkpt>
      <trkpt lat="45.04965" lon="7.05237">
        <ele>1861.82</ele>
        <time>2017-01-01T13:46:25Z</time>
      </trkpt>
      <trkpt lat="45.04956" lon="7.05149">
        <ele>1870.39</ele>
        <time>2017-01-01T13:46:28Z</time>
      </trkpt>
      <trkpt lat="45.04916" lon="7.05051">
        <ele>1868.56</ele>
        <time>2017-01-01T13:46:33Z</time>
      </trkpt>
      <trkpt lat="45.04959" lon="7.04915">
        <ele>1892.35</ele>
        <time>2017-01-01T13:46:39Z</time>
      </trkpt>
      <trkpt lat="45.05054" lon="7.0492">
        <ele>1902.81</ele>
        <time>2017-01-01T13:46:44Z</time>
      </trkpt>
      <trkpt lat="45.05198" lon="7.05043">
        <ele>1909.3</ele>
        <time>2017-01-01T13:46:53Z</time>
      </trkpt>
      <trkpt lat="45.05276" lon="7.05121">
        <ele>1916.28</ele>
        <time>2017-01-01T13:46:58Z</time>
      </trkpt>
      <trkpt lat="45.05343" lon="7.05145">
        <ele>1907.44</ele>
        <time>2017-01-01T13:47:02Z</time>
      </trkpt>
      <trkpt lat="45.05423" lon="7.05181">
        <ele>1914.13</ele>
        <time>2017-01-01T13:47:07Z</time>
      </trkpt>
      <trkpt lat="45.05558" lon="7.05154">
        <ele>1925.7</ele>
        <time>2017-01-01T13:47:14Z</time>
      </trkpt>
      <trkpt lat="45.05749" lon="7.0506">
        <ele>1929.6</ele>
        <time>2017-01-01T13:47:25Z</time>
      </trkpt>
      <trkpt lat="45.05822" lon="7.04916">
        <ele>1928.04</ele>
        <time>2017-01-01T13:47:32Z</time>
      </trkpt>
      <trkpt lat="45.05884" lon="7.04897">
        <ele>1931.5</ele>
        <time>2017-01-01T13:47:36Z</time>
      </trkpt>
      <trkpt lat="45.05938" lon="7.04939">
        <ele>1942.68</ele>
        <time>2017-01-01T13:47:39Z</time>
      </trkpt>
      <trkpt lat="45.06081" lon="7.04928">
        <ele>1942.4</ele>
        <time>2017-01-01T13:47:47Z</time>
      </trkpt>
      <trkpt lat="45.06105" lon="7.05018">
        <ele>1952.78</ele>
        <time>2017-01-01T13:47:51Z</time>
      </trkpt>
      <trkpt lat="45.06117" lon="7.05118">
        <ele>1964.77</ele>
        <time>2017-01-01T13:47:54Z</time>
      </trkpt>
      <trkpt lat="45.06158" lon="7.05103">
        <ele>1952.21</ele>
        <time>2017-01-01T13:47:57Z</time>
      </trkpt>
      <trkpt lat="45.06203" lon="7.05008">
        <ele>1941.67</ele>
        <time>2017-01-01T13:48:01Z</time>
      </trkpt>
      <trkpt lat="45.06161" lon="7.05">
        <ele>1936.72</ele>
        <time>2017-01-01T13:48:04Z</time>
      </trkpt>
      <trkpt lat="45.06175" lon="7.04932">
        <ele>1923.94</ele>
        <time>2017-01-01T13:48:06Z</time>
      </trkpt>
      <trkpt lat="45.06212" lon="7.04889">
        <ele>1920.29</ele>
        <time>2017-01-01T13:48:09Z</time>
      </trkpt>
      <trkpt lat="45.06296" lon="7.04899">
        <ele>1916.43</ele>
        <time>2017-01-01T13:48:14Z</time>
      </trkpt>
      <trkpt lat="45.06335" lon="7.04829">
        <ele>1904.19</ele>
        <time>2017-01-01T13:48:17Z</time>
      </trkpt>
      <trkpt lat="45.06409" lon="7.04788">
        <ele>1902.9</ele>
        <time>2017-01-01T13:48:21Z</time>
      </trkpt>
      <trkpt lat="45.06485" lon="7.04702">
        <ele>1891.99</ele>
        <time>2017-01-01T13:48:27Z</time>
      </trkpt>
      <trkpt lat="45.06592" lon="7.04662">
        <ele>1896.47</ele>
        <time>2017-01-01T13:48:33Z</time>
      </trkpt>
      <trkpt lat="45.06638" lon="7.04524">
        <ele>1892.03</ele>
        <time>2017-01-01T13:48:39Z</time>
      </trkpt>
      <trkpt lat="45.06641" lon="7.04337">
        <ele>1896.45</ele>
        <time>2017-01-01T13:48:46Z</time>
      </trkpt>
      <trkpt lat="45.06611" lon="7.04104">
        <ele>1896.79</ele>
        <time>2017-01-01T13:48:55Z</time>
      </trkpt>
      <trkpt lat="45.066" lon="7.03783">
        <ele>1900.55</ele>
        <time>2017-01-01T13:49:08Z</time>
      </trkpt>
      <trkpt lat="45.06705" lon="7.03522">
        <ele>1910.46</ele>
        <time>2017-01-01T13:49:19Z</time>
      </trkpt>
      <trkpt lat="45.06704" lon="7.03314">
        <ele>1916.27</ele>
        <time>2017-01-01T13:49:27Z</time>
      </trkpt>
      <trkpt lat="45.06702" lon="7.03201">
        <ele>1924.15</ele>
        <time>2017-01-01T13:49:32Z</time>
      </trkpt>
      <trkpt lat="45.06638" lon="7.03065">
        <ele>1930.93</ele>
        <time>2017-01-01T13:49:38Z</time>
      </trkpt>
      <trkpt lat="45.06575" lon="7.03">
        <ele>1937.8</ele>
        <time>2017-01-01T13:49:42Z</time>
      </trkpt>
      <trkpt lat="45.0647" lon="7.02994">
        <ele>1935.85</ele>
        <time>2017-01-01T13:49:48Z</time>
      </trkpt>
      <trkpt lat="45.06422" lon="7.02954">
        <ele>1944.4</ele>
        <time>2017-01-01T13:49:51Z</time>
      </trkpt>
      <trkpt lat="45.06379" lon="7.02858">
        <ele>1949.79</ele>
        <time>2017-01-01T13:49:55Z</time>
      </trkpt>
      <trkpt lat="45.06344" lon="7.02713">
        <ele>1966.45</ele>
        <time>2017-01-01T13:50:01Z</time>
      </trkpt>
      <trkpt lat="45.06276" lon="7.02665">
        <ele>1965.16</ele>
        <time>2017-01-01T13:50:05Z</time>
      </trkpt>
      <trkpt lat="45.0625" lon="7.02591">
        <ele>1972.29</ele>
        <time>2017-01-01T13:50:09Z</time>
      </trkpt>
      <trkpt lat="45.06255" lon="7.02343">
        <ele>1991.31</ele>
        <time>2017-01-01T13:50:18Z</time>
      </trkpt>
      <trkpt lat="45.06273" lon="7.02185">
        <ele>1997.93</ele>
        <time>2017-01-01T13:50:24Z</time>
      </trkpt>
      <trkpt lat="45.06311" lon="7.02107">
        <ele>2015.77</ele>
        <time>2017-01-01T13:50:28Z</time>
      </trkpt>
      <trkpt lat="45.06299" lon="7.02016">
        <ele>2020.76</ele>
        <time>2017-01-01T13:50:32Z</time>
      </trkpt>
      <trkpt lat="45.06244" lon="7.0197">
        <ele>2011.15</ele>
        <time>2017-01-01T13:50:35Z</time>
      </trkpt>
      <trkpt lat="45.06231" lon="7.01569">
        <ele>2042.19</ele>
        <time>2017-01-01T13:50:51Z</time>
      </trkpt>
      <trkpt lat="45.06258" lon="7.01404">
        <ele>2050.26</ele>
        <time>2017-01-01T13:50:57Z</time>
      </trkpt>
      <trkpt lat="45.06297" lon="7.01286">
        <ele>2072.53</ele>
        <time>2017-01-01T13:51:02Z</time>
      </trkpt>
      <trkpt lat="45.06262" lon="7.01181">
        <ele>2070.55</ele>
        <time>2017-01-01T13:51:07Z</time>
      </trkpt>
      <trkpt lat="45.06266" lon="7.01034">
        <ele>2081.25</ele>
        <time>2017-01-01T13:51:13Z</time>
      </trkpt>
      <trkpt lat="45.06247" lon="7.00917">
        <ele>2083.02</ele>
        <time>2017-01-01T13:51:17Z</time>
      </trkpt>
      <trkpt lat="45.06255" lon="7.00771">
        <ele>2095.73</ele>
        <time>2017-01-01T13:51:23Z</time>
      </trkpt>
      <trkpt lat="45.06208" lon="7.00591">
        <ele>2097.94</ele>
        <time>2017-01-01T13:51:30Z</time>
      </trkpt>
      <trkpt lat="45.06234" lon="7.00546">
        <ele>2109.96</ele>
        <time>2017-01-01T13:51:33Z</time>
      </trkpt>
      <trkpt lat="45.06228" lon="7.00458">
        <ele>2111.72</ele>
        <time>2017-01-01T13:51:36Z</time>
      </trkpt>
      <trkpt lat="45.06166" lon="7.0038">
        <ele>2120.57</ele>
        <time>2017-01-01T13:51:41Z</time>
      </trkpt>
      <trkpt lat="45.06064" lon="7.0034">
        <ele>2128.63</ele>
        <time>2017-01-01T13:51:46Z</time>
      </trkpt>
      <trkpt lat="45.0594" lon="7.00351">
        <ele>2123.51</ele>
        <time>2017-01-01T13:51:53Z</time>
      </trkpt>
      <trkpt lat="45.05902" lon="7.00299">
        <ele>2136.94</ele>
        <time>2017-01-01T13:51:56Z</time>
      </trkpt>
      <trkpt lat="45.05888" lon="7.00226">
        <ele>2146.52</ele>
        <time>2017-01-01T13:51:59Z</time>
      </trkpt>
      <trkpt lat="45.05926" lon="7.00076">
        <ele>2137.63</ele>
        <time>2017-01-01T13:52:05Z</time>
      </trkpt>
      <trkpt lat="45.05968" lon="7.00003">
        <ele>2137.95</ele>
        <time>2017-01-01T13:52:09Z</time>
      </trkpt>
      <trkpt lat="45.06076" lon="6.99926">
        <ele>2136.79</ele>
        <time>2017-01-01T13:52:15Z</time>
      </trkpt>
      <trkpt lat="45.06138" lon="6.99906">
        <ele>2147.05</ele>
        <time>2017-01-01T13:52:19Z</time>
      </trkpt>
      <trkpt lat="45.06193" lon="6.99852">
        <ele>2147.11</ele>
        <time>2017-01-01T13:52:23Z</time>
      </trkpt>
      <trkpt lat="45.06215" lon="6.99769">
        <ele>2137.35</ele>
        <time>2017-01-01T13:52:26Z</time>
      </trkpt>
      <trkpt lat="45.06212" lon="6.99664">
        <ele>2141.41</ele>
        <time>2017-01-01T13:52:30Z</time>
      </trkpt>
      <trkpt lat="45.06188" lon="6.99539">
        <ele>2162.3</ele>
        <time>2017-01-01T13:52:35Z</time>
      </trkpt>
      <trkpt lat="45.06126" lon="6.99457">
        <ele>2139.87</ele>
        <time>2017-01-01T13:52:40Z</time>
      </trkpt>
      <trkpt lat="45.06109" lon="6.99359">
        <ele>2154.01</ele>
        <time>2017-01-01T13:52:44Z</time>
      </trkpt>
      <trkpt lat="45.06011" lon="6.99289">
        <ele>2133.5</ele>
        <time>2017-01-01T13:52:50Z</time>
      </trkpt>
      <trkpt lat="45.05994" lon="6.99132">
        <ele>2141.9</ele>
        <time>2017-01-01T13:52:56Z</time>
      </trkpt>
      <trkpt lat="45.05916" lon="6.99047">
        <ele>2133.32</ele>
        <time>2017-01-01T13:53:01Z</time>
      </trkpt>
      <trkpt lat="45.05967" lon="6.98866">
        <ele>2145.89</ele>
        <time>2017-01-01T13:53:09Z</time>
      </trkpt>
      <trkpt lat="45.05997" lon="6.9878">
        <ele>2142.42</ele>
        <time>2017-01-01T13:53:13Z</time>
      </trkpt>
      <trkpt lat="45.06" lon="6.987">
        <ele>2141.07</ele>
        <time>2017-01-01T13:53:16Z</time>
      </trkpt>
      <trkpt lat="45.05962" lon="6.9853">
        <ele>2155.36</ele>
        <time>2017-01-01T13:53:23Z</time>
      </trkpt>
      <trkpt lat="45.05903" lon="6.98449">
        <ele>2204.52</ele>
        <time>2017-01-01T13:53:27Z</time>
      </trkpt>
      <trkpt lat="45.05835" lon="6.98391">
        <ele>2143.8</ele>
        <time>2017-01-01T13:53:31Z</time>
      </trkpt>
      <trkpt lat="45.05904" lon="6.98075">
        <ele>2165.34</ele>
        <time>2017-01-01T13:53:44Z</time>
      </trkpt>
      <trkpt lat="45.05955" lon="6.98014">
        <ele>2191.37</ele>
        <time>2017-01-01T13:53:48Z</time>
      </trkpt>
      <trkpt lat="45.05942" lon="6.97819">
        <ele>2183.21</ele>
        <time>2017-01-01T13:53:55Z</time>
      </trkpt>
      <trkpt lat="45.06059" lon="6.9757">
        <ele>2200.08</ele>
        <time>2017-01-01T13:54:07Z</time>
      </trkpt>
      <trkpt lat="45.06118" lon="6.97522">
        <ele>2224.57</ele>
        <time>2017-01-01T13:54:11Z</time>
      </trkpt>
      <trkpt lat="45.06097" lon="6.97445">
        <ele>2218.07</ele>
        <time>2017-01-01T13:54:14Z</time>
      </trkpt>
      <trkpt lat="45.06142" lon="6.97498">
        <ele>2234.24</ele>
        <time>2017-01-01T13:54:17Z</time>
      </trkpt>
      <trkpt lat="45.06137" lon="6.97561">
        <ele>2237.18</ele>
        <time>2017-01-01T13:54:20Z</time>
      </trkpt>
      <trkpt lat="45.06065" lon="6.97733">
        <ele>2243.8</ele>
        <time>2017-01-01T13:54:27Z</time>
      </trkpt>
      <trkpt lat="45.06025" lon="6.97877">
        <ele>2249.65</ele>
        <time>2017-01-01T13:54:33Z</time>
      </trkpt>
      <trkpt lat="45.06053" lon="6.97941">
        <ele>2263.4</ele>
        <time>2017-01-01T13:54:36Z</time>
      </trkpt>
      <trkpt lat="45.06054" lon="6.97847">
        <ele>2266.98</ele>
        <time>2017-01-01T13:54:40Z</time>
      </trkpt>
      <trkpt lat="45.06164" lon="6.97698">
        <ele>2287</ele>
        <time>2017-01-01T13:54:48Z</time>
      </trkpt>
      <trkpt lat="45.06252" lon="6.97559">
        <ele>2303.43</ele>
        <time>2017-01-01T13:54:55Z</time>
      </trkpt>
      <trkpt lat="45.06259" lon="6.9738">
        <ele>2305.93</ele>
        <time>2017-01-01T13:55:02Z</time>
      </trkpt>
      <trkpt lat="45.06225" lon="6.9731">
        <ele>2316.53</ele>
        <time>2017-01-01T13:55:06Z</time>
      </trkpt>
      <trkpt lat="45.06068" lon="6.97222">
        <ele>2318.39</ele>
        <time>2017-01-01T13:55:15Z</time>
      </trkpt>
      <trkpt lat="45.0604" lon="6.97162">
        <ele>2333.81</ele>
        <time>2017-01-01T13:55:18Z</time>
      </trkpt>
      <trkpt lat="45.06052" lon="6.97091">
        <ele>2355.82</ele>
        <time>2017-01-01T13:55:20Z</time>
      </trkpt>
      <trkpt lat="45.06014" lon="6.9702">
        <ele>2327.4</ele>
        <time>2017-01-01T13:55:24Z</time>
      </trkpt>
      <trkpt lat="45.06" lon="6.96951">
        <ele>2335.56</ele>
        <time>2017-01-01T13:55:27Z</time>
      </trkpt>
      <trkpt lat="45.06079" lon="6.96733">
        <ele>2339.51</ele>
        <time>2017-01-01T13:55:36Z</time>
      </trkpt>
      <trkpt lat="45.06192" lon="6.9656">
        <ele>2362.59</ele>
        <time>2017-01-01T13:55:45Z</time>
      </trkpt>
      <trkpt lat="45.06208" lon="6.96475">
        <ele>2350.91</ele>
        <time>2017-01-01T13:55:49Z</time>
      </trkpt>
      <trkpt lat="45.06291" lon="6.96395">
        <ele>2377.5</ele>
        <time>2017-01-01T13:55:54Z</time>
      </trkpt>
      <trkpt lat="45.06382" lon="6.96321">
        <ele>2385.12</ele>
        <time>2017-01-01T13:56:00Z</time>
      </trkpt>
      <trkpt lat="45.06485" lon="6.96345">
        <ele>2400.41</ele>
        <time>2017-01-01T13:56:06Z</time>
      </trkpt>
      <trkpt lat="45.06567" lon="6.9631">
        <ele>2398.82</ele>
        <time>2017-01-01T13:56:10Z</time>
      </trkpt>
      <trkpt lat="45.06659" lon="6.96318">
        <ele>2414.6</ele>
        <time>2017-01-01T13:56:15Z</time>
      </trkpt>
      <trkpt lat="45.06744" lon="6.96263">
        <ele>2419.69</ele>
        <time>2017-01-01T13:56:21Z</time>
      </trkpt>
      <trkpt lat="45.06813" lon="6.96202">
        <ele>2429.09</ele>
        <time>2017-01-01T13:56:25Z</time>
      </trkpt>
      <trkpt lat="45.06944" lon="6.96023">
        <ele>2443.6</ele>
        <time>2017-01-01T13:56:35Z</time>
      </trkpt>
      <trkpt lat="45.0704" lon="6.95892">
        <ele>2458.47</ele>
        <time>2017-01-01T13:56:42Z</time>
      </trkpt>
      <trkpt lat="45.07059" lon="6.95833">
        <ele>2463.54</ele>
        <time>2017-01-01T13:56:45Z</time>
      </trkpt>
      <trkpt lat="45.0705" lon="6.95734">
        <ele>2459.82</ele>
        <time>2017-01-01T13:56:49Z</time>
      </trkpt>
      <trkpt lat="45.07023" lon="6.9569">
        <ele>2458.75</ele>
        <time>2017-01-01T13:56:51Z</time>
      </trkpt>
      <trkpt lat="45.07022" lon="6.9565">
        <ele>2460.69</ele>
        <time>2017-01-01T13:56:52Z</time>
      </trkpt>
      <trkpt lat="45.07003" lon="6.95636">
        <ele>2464.51</ele>
        <time>2017-01-01T13:56:54Z</time>
      </trkpt>
      <trkpt lat="45.06978" lon="6.95655">
        <ele>2466.75</ele>
        <time>2017-01-01T13:56:55Z</time>
      </trkpt>
      <trkpt lat="45.06959" lon="6.95699">
        <ele>2467.01</ele>
        <time>2017-01-01T13:56:57Z</time>
      </trkpt>
      <trkpt lat="45.06928" lon="6.95725">
        <ele>2464.51</ele>
        <time>2017-01-01T13:56:59Z</time>
      </trkpt>
      <trkpt lat="45.06942" lon="6.95668">
        <ele>2475.57</ele>
        <time>2017-01-01T13:57:02Z</time>
      </trkpt>
      <trkpt lat="45.06933" lon="6.9562">
        <ele>2476.66</ele>
        <time>2017-01-01T13:57:03Z</time>
      </trkpt>
      <trkpt lat="45.06891" lon="6.95592">
        <ele>2484.95</ele>
        <time>2017-01-01T13:57:06Z</time>
      </trkpt>
      <trkpt lat="45.0686" lon="6.95539">
        <ele>2497.48</ele>
        <time>2017-01-01T13:57:09Z</time>
      </trkpt>
      <trkpt lat="45.06854" lon="6.95481">
        <ele>2502.03</ele>
        <time>2017-01-01T13:57:11Z</time>
      </trkpt>
      <trkpt lat="45.06914" lon="6.95376">
        <ele>2496.96</ele>
        <time>2017-01-01T13:57:16Z</time>
      </trkpt>
      <trkpt lat="45.06929" lon="6.95335">
        <ele>2494.69</ele>
        <time>2017-01-01T13:57:18Z</time>
      </trkpt>
      <trkpt lat="45.0692" lon="6.95301">
        <ele>2499.43</ele>
        <time>2017-01-01T13:57:19Z</time>
      </trkpt>
      <trkpt lat="45.06774" lon="6.95444">
        <ele>2519.01</ele>
        <time>2017-01-01T13:57:29Z</time>
      </trkpt>
      <trkpt lat="45.06711" lon="6.95419">
        <ele>2532.68</ele>
        <time>2017-01-01T13:57:33Z</time>
      </trkpt>
      <trkpt lat="45.06642" lon="6.95355">
        <ele>2534.3</ele>
        <time>2017-01-01T13:57:37Z</time>
      </trkpt>
      <trkpt lat="45.06598" lon="6.95335">
        <ele>2537.07</ele>
        <time>2017-01-01T13:57:40Z</time>
      </trkpt>
      <trkpt lat="45.06576" lon="6.95239">
        <ele>2536.45</ele>
        <time>2017-01-01T13:57:44Z</time>
      </trkpt>
      <trkpt lat="45.06546" lon="6.9517">
        <ele>2535.53</ele>
        <time>2017-01-01T13:57:47Z</time>
      </trkpt>
      <trkpt lat="45.06474" lon="6.95103">
        <ele>2535.41</ele>
        <time>2017-01-01T13:57:52Z</time>
      </trkpt>
      <trkpt lat="45.06381" lon="6.95067">
        <ele>2522.69</ele>
        <time>2017-01-01T13:57:57Z</time>
      </trkpt>
      <trkpt lat="45.06336" lon="6.9488">
        <ele>2524.76</ele>
        <time>2017-01-01T13:58:04Z</time>
      </trkpt>
      <trkpt lat="45.06332" lon="6.94789">
        <ele>2524.06</ele>
        <time>2017-01-01T13:58:08Z</time>
      </trkpt>
      <trkpt lat="45.06295" lon="6.9474">
        <ele>2526.01</ele>
        <time>2017-01-01T13:58:11Z</time>
      </trkpt>
      <trkpt lat="45.06277" lon="6.94652">
        <ele>2521.86</ele>
        <time>2017-01-01T13:58:14Z</time>
      </trkpt>
      <trkpt lat="45.0626" lon="6.94515">
        <ele>2525.34</ele>
        <time>2017-01-01T13:58:20Z</time>
      </trkpt>
      <trkpt lat="45.06234" lon="6.9441">
        <ele>2525.63</ele>
        <time>2017-01-01T13:58:24Z</time>
      </trkpt>
      <trkpt lat="45.06205" lon="6.94355">
        <ele>2526.18</ele>
        <time>2017-01-01T13:58:27Z</time>
      </trkpt>
      <trkpt lat="45.06209" lon="6.94283">
        <ele>2525.37</ele>
        <time>2017-01-01T13:58:29Z</time>
      </trkpt>
      <trkpt lat="45.06199" lon="6.94212">
        <ele>2521.81</ele>
        <time>2017-01-01T13:58:32Z</time>
      </trkpt>
      <trkpt lat="45.06194" lon="6.94148">
        <ele>2520.51</ele>
        <time>2017-01-01T13:58:35Z</time>
      </trkpt>
      <trkpt lat="45.06163" lon="6.93986">
        <ele>2522.17</ele>
        <time>2017-01-01T13:58:41Z</time>
      </trkpt>
      <trkpt lat="45.06087" lon="6.93916">
        <ele>2518.73</ele>
        <time>2017-01-01T13:58:46Z</time>
      </trkpt>
      <trkpt lat="45.06068" lon="6.93864">
        <ele>2518.01</ele>
        <time>2017-01-01T13:58:48Z</time>
      </trkpt>
      <trkpt lat="45.06052" lon="6.9381">
        <ele>2517.59</ele>
        <time>2017-01-01T13:58:51Z</time>
      </trkpt>
      <trkpt lat="45.06003" lon="6.93704">
        <ele>2514.75</ele>
        <time>2017-01-01T13:58:56Z</time>
      </trkpt>
      <trkpt lat="45.05957" lon="6.93599">
        <ele>2519.39</ele>
        <time>2017-01-01T13:59:00Z</time>
      </trkpt>
      <trkpt lat="45.05915" lon="6.93584">
        <ele>2512.79</ele>
        <time>2017-01-01T13:59:03Z</time>
      </trkpt>
      <trkpt lat="45.05858" lon="6.936">
        <ele>2504.93</ele>
        <time>2017-01-01T13:59:06Z</time>
      </trkpt>
      <trkpt lat="45.05831" lon="6.93638">
        <ele>2501.22</ele>
        <time>2017-01-01T13:59:08Z</time>
      </trkpt>
      <trkpt lat="45.05667" lon="6.93678">
        <ele>2489.91</ele>
        <time>2017-01-01T13:59:17Z</time>
      </trkpt>
      <trkpt lat="45.05595" lon="6.93636">
        <ele>2492.2</ele>
        <time>2017-01-01T13:59:22Z</time>
      </trkpt>
      <trkpt lat="45.05542" lon="6.93592">
        <ele>2486.85</ele>
        <time>2017-01-01T13:59:25Z</time>
      </trkpt>
      <trkpt lat="45.05554" lon="6.93516">
        <ele>2493.85</ele>
        <time>2017-01-01T13:59:28Z</time>
      </trkpt>
      <trkpt lat="45.05539" lon="6.9351">
        <ele>2490.85</ele>
        <time>2017-01-01T13:59:29Z</time>
      </trkpt>
      <trkpt lat="45.05444" lon="6.93508">
        <ele>2482.71</ele>
        <time>2017-01-01T13:59:34Z</time>
      </trkpt>
      <trkpt lat="45.05446" lon="6.93493">
        <ele>2484.11</ele>
        <time>2017-01-01T13:59:35Z</time>
      </trkpt>
      <trkpt lat="45.05455" lon="6.93481">
        <ele>2486.16</ele>
        <time>2017-01-01T13:59:35Z</time>
      </trkpt>
      <trkpt lat="45.05453" lon="6.93458">
        <ele>2488.66</ele>
        <time>2017-01-01T13:59:36Z</time>
      </trkpt>
      <trkpt lat="45.05443" lon="6.93442">
        <ele>2489.97</ele>
        <time>2017-01-01T13:59:37Z</time>
      </trkpt>
      <trkpt lat="45.0538" lon="6.9341">
        <ele>2485.43</ele>
        <time>2017-01-01T13:59:41Z</time>
      </trkpt>
      <trkpt lat="45.05335" lon="6.93385">
        <ele>2483.67</ele>
        <time>2017-01-01T13:59:43Z</time>
      </trkpt>
      <trkpt lat="45.05276" lon="6.93388">
        <ele>2488.57</ele>
        <time>2017-01-01T13:59:47Z</time>
      </trkpt>
      <trkpt lat="45.05229" lon="6.93375">
        <ele>2487.88</ele>
        <time>2017-01-01T13:59:49Z</time>
      </trkpt>
      <trkpt lat="45.0517" lon="6.9332">
        <ele>2481.15</ele>
        <time>2017-01-01T13:59:53Z</time>
      </trkpt>
      <trkpt lat="45.0505" lon="6.9329">
        <ele>2492.15</ele>
        <time>2017-01-01T14:00:00Z</time>
      </trkpt>
      <trkpt lat="45.04997" lon="6.93288">
        <ele>2492.69</ele>
        <time>2017-01-01T14:00:03Z</time>
      </trkpt>
      <trkpt lat="45.04943" lon="6.93305">
        <ele>2493.47</ele>
        <time>2017-01-01T14:00:06Z</time>
      </trkpt>
      <trkpt lat="45.04933" lon="6.93327">
        <ele>2499.97</ele>
        <time>2017-01-01T14:00:07Z</time>
      </trkpt>
      <trkpt lat="45.04938" lon="6.93354">
        <ele>2506.99</ele>
        <time>2017-01-01T14:00:08Z</time>
      </trkpt>
      <trkpt lat="45.0493" lon="6.93364">
        <ele>2508.18</ele>
        <time>2017-01-01T14:00:08Z</time>
      </trkpt>
      <trkpt lat="45.04916" lon="6.93372">
        <ele>2509.07</ele>
        <time>2017-01-01T14:00:09Z</time>
      </trkpt>
      <trkpt lat="45.04879" lon="6.9336">
        <ele>2497.63</ele>
        <time>2017-01-01T14:00:11Z</time>
      </trkpt>
      <trkpt lat="45.04857" lon="6.93362">
        <ele>2496</ele>
        <time>2017-01-01T14:00:12Z</time>
      </trkpt>
      <trkpt lat="45.04831" lon="6.93342">
        <ele>2491.15</ele>
        <time>2017-01-01T14:00:14Z</time>
      </trkpt>
      <trkpt lat="45.04801" lon="6.9333">
        <ele>2490.59</ele>
        <time>2017-01-01T14:00:16Z</time>
      </trkpt>
      <trkpt lat="45.04789" lon="6.93336">
        <ele>2489.73</ele>
        <time>2017-01-01T14:00:16Z</time>
      </trkpt>
      <trkpt lat="45.04777" lon="6.93341">
        <ele>2487.64</ele>
        <time>2017-01-01T14:00:17Z</time>
      </trkpt>
      <trkpt lat="45.04762" lon="6.9334">
        <ele>2484.58</ele>
        <time>2017-01-01T14:00:18Z</time>
      </trkpt>
      <trkpt lat="45.04744" lon="6.9333">
        <ele>2483.57</ele>
        <time>2017-01-01T14:00:19Z</time>
      </trkpt>
      <trkpt lat="45.04689" lon="6.93284">
        <ele>2482.4</ele>
        <time>2017-01-01T14:00:23Z</time>
      </trkpt>
      <trkpt lat="45.04641" lon="6.93274">
        <ele>2491.18</ele>
        <time>2017-01-01T14:00:25Z</time>
      </trkpt>
      <trkpt lat="45.04617" lon="6.93303">
        <ele>2484.13</ele>
        <time>2017-01-01T14:00:27Z</time>
      </trkpt>
      <trkpt lat="45.0454" lon="6.93348">
        <ele>2497.49</ele>
        <time>2017-01-01T14:00:31Z</time>
      </trkpt>
      <trkpt lat="45.04481" lon="6.93449">
        <ele>2452.43</ele>
        <time>2017-01-01T14:00:37Z</time>
      </trkpt>
      <trkpt lat="45.04439" lon="6.93418">
        <ele>2457.69</ele>
        <time>2017-01-01T14:00:39Z</time>
      </trkpt>
      <trkpt lat="45.04403" lon="6.93426">
        <ele>2451.38</ele>
        <time>2017-01-01T14:00:41Z</time>
      </trkpt>
      <trkpt lat="45.04376" lon="6.9341">
        <ele>2449.26</ele>
        <time>2017-01-01T14:00:43Z</time>
      </trkpt>
      <trkpt lat="45.04332" lon="6.9341">
        <ele>2439.39</ele>
        <time>2017-01-01T14:00:45Z</time>
      </trkpt>
      <trkpt lat="45.04301" lon="6.93397">
        <ele>2435.41</ele>
        <time>2017-01-01T14:00:47Z</time>
      </trkpt>
      <trkpt lat="45.04268" lon="6.93346">
        <ele>2440.14</ele>
        <time>2017-01-01T14:00:50Z</time>
      </trkpt>
      <trkpt lat="45.04149" lon="6.93261">
        <ele>2423.16</ele>
        <time>2017-01-01T14:00:57Z</time>
      </trkpt>
      <trkpt lat="45.04109" lon="6.93203">
        <ele>2426.06</ele>
        <time>2017-01-01T14:01:00Z</time>
      </trkpt>
      <trkpt lat="45.04049" lon="6.93164">
        <ele>2416.71</ele>
        <time>2017-01-01T14:01:04Z</time>
      </trkpt>
      <trkpt lat="45.03987" lon="6.93095">
        <ele>2417.19</ele>
        <time>2017-01-01T14:01:08Z</time>
      </trkpt>
      <trkpt lat="45.03963" lon="6.93031">
        <ele>2421.5</ele>
        <time>2017-01-01T14:01:11Z</time>
      </trkpt>
      <trkpt lat="45.03924" lon="6.92987">
        <ele>2419.76</ele>
        <time>2017-01-01T14:01:13Z</time>
      </trkpt>
      <trkpt lat="45.03855" lon="6.92975">
        <ele>2407.18</ele>
        <time>2017-01-01T14:01:17Z</time>
      </trkpt>
      <trkpt lat="45.03797" lon="6.92928">
        <ele>2407</ele>
        <time>2017-01-01T14:01:21Z</time>
      </trkpt>
      <trkpt lat="45.03759" lon="6.92863">
        <ele>2414.56</ele>
        <time>2017-01-01T14:01:24Z</time>
      </trkpt>
      <trkpt lat="45.03708" lon="6.92854">
        <ele>2401.99</ele>
        <time>2017-01-01T14:01:27Z</time>
      </trkpt>
      <trkpt lat="45.03664" lon="6.92826">
        <ele>2405.25</ele>
        <time>2017-01-01T14:01:30Z</time>
      </trkpt>
      <trkpt lat="45.03617" lon="6.92833">
        <ele>2391.82</ele>
        <time>2017-01-01T14:01:32Z</time>
      </trkpt>
      <trkpt lat="45.03561" lon="6.92736">
        <ele>2398.07</ele>
        <time>2017-01-01T14:01:37Z</time>
      </trkpt>
      <trkpt lat="45.03478" lon="6.92706">
        <ele>2386.41</ele>
        <time>2017-01-01T14:01:42Z</time>
      </trkpt>
      <trkpt lat="45.03399" lon="6.92687">
        <ele>2373.82</ele>
        <time>2017-01-01T14:01:46Z</time>
      </trkpt>
      <trkpt lat="45.03349" lon="6.92615">
        <ele>2387.03</ele>
        <time>2017-01-01T14:01:50Z</time>
      </trkpt>
      <trkpt lat="45.03292" lon="6.92565">
        <ele>2385.95</ele>
        <time>2017-01-01T14:01:54Z</time>
      </trkpt>
      <trkpt lat="45.03171" lon="6.92531">
        <ele>2370.03</ele>
        <time>2017-01-01T14:02:01Z</time>
      </trkpt>
      <trkpt lat="45.03158" lon="6.92491">
        <ele>2366.57</ele>
        <time>2017-01-01T14:02:02Z</time>
      </trkpt>
      <trkpt lat="45.03174" lon="6.92427">
        <ele>2371.61</ele>
        <time>2017-01-01T14:02:05Z</time>
      </trkpt>
      <trkpt lat="45.03201" lon="6.9237">
        <ele>2379.53</ele>
        <time>2017-01-01T14:02:08Z</time>
      </trkpt>
      <trkpt lat="45.0319" lon="6.92318">
        <ele>2374</ele>
        <time>2017-01-01T14:02:10Z</time>
      </trkpt>
      <trkpt lat="45.03207" lon="6.92266">
        <ele>2369.71</ele>
        <time>2017-01-01T14:02:12Z</time>
      </trkpt>
      <trkpt lat="45.0324" lon="6.92259">
        <ele>2378.22</ele>
        <time>2017-01-01T14:02:14Z</time>
      </trkpt>
      <trkpt lat="45.03274" lon="6.92205">
        <ele>2380.05</ele>
        <time>2017-01-01T14:02:16Z</time>
      </trkpt>
      <trkpt lat="45.03278" lon="6.92136">
        <ele>2369.48</ele>
        <time>2017-01-01T14:02:19Z</time>
      </trkpt>
      <trkpt lat="45.03349" lon="6.92044">
        <ele>2372.19</ele>
        <time>2017-01-01T14:02:24Z</time>
      </trkpt>
      <trkpt lat="45.03423" lon="6.92009">
        <ele>2382.06</ele>
        <time>2017-01-01T14:02:29Z</time>
      </trkpt>
      <trkpt lat="45.03554" lon="6.91855">
        <ele>2377.89</ele>
        <time>2017-01-01T14:02:38Z</time>
      </trkpt>
      <trkpt lat="45.03601" lon="6.91829">
        <ele>2383.82</ele>
        <time>2017-01-01T14:02:41Z</time>
      </trkpt>
      <trkpt lat="45.03641" lon="6.91789">
        <ele>2381.2</ele>
        <time>2017-01-01T14:02:43Z</time>
      </trkpt>
      <trkpt lat="45.03688" lon="6.91686">
        <ele>2370.93</ele>
        <time>2017-01-01T14:02:48Z</time>
      </trkpt>
      <trkpt lat="45.03722" lon="6.91642">
        <ele>2372.24</ele>
        <time>2017-01-01T14:02:51Z</time>
      </trkpt>
      <trkpt lat="45.03709" lon="6.91598">
        <ele>2370.07</ele>
        <time>2017-01-01T14:02:53Z</time>
      </trkpt>
      <trkpt lat="45.03684" lon="6.9154">
        <ele>2369.26</ele>
        <time>2017-01-01T14:02:55Z</time>
      </trkpt>
      <trkpt lat="45.03686" lon="6.91508">
        <ele>2376.4</ele>
        <time>2017-01-01T14:02:56Z</time>
      </trkpt>
      <trkpt lat="45.03669" lon="6.91495">
        <ele>2375.32</ele>
        <time>2017-01-01T14:02:58Z</time>
      </trkpt>
      <trkpt lat="45.03651" lon="6.91437">
        <ele>2379.64</ele>
        <time>2017-01-01T14:03:00Z</time>
      </trkpt>
      <trkpt lat="45.03649" lon="6.91396">
        <ele>2382.63</ele>
        <time>2017-01-01T14:03:02Z</time>
      </trkpt>
      <trkpt lat="45.03643" lon="6.91364">
        <ele>2383.07</ele>
        <time>2017-01-01T14:03:03Z</time>
      </trkpt>
      <trkpt lat="45.03615" lon="6.91304">
        <ele>2387.26</ele>
        <time>2017-01-01T14:03:06Z</time>
      </trkpt>
      <trkpt lat="45.03596" lon="6.91249">
        <ele>2391.69</ele>
        <time>2017-01-01T14:03:08Z</time>
      </trkpt>
      <trkpt lat="45.03585" lon="6.91191">
        <ele>2392.28</ele>
        <time>2017-01-01T14:03:10Z</time>
      </trkpt>
      <trkpt lat="45.03582" lon="6.91136">
        <ele>2391.86</ele>
        <time>2017-01-01T14:03:13Z</time>
      </trkpt>
      <trkpt lat="45.03572" lon="6.91114">
        <ele>2391.89</ele>
        <time>2017-01-01T14:03:14Z</time>
      </trkpt>
      <trkpt lat="45.03563" lon="6.91097">
        <ele>2393.14</ele>
        <time>2017-01-01T14:03:14Z</time>
      </trkpt>
      <trkpt lat="45.03535" lon="6.91072">
        <ele>2396.3</ele>
        <time>2017-01-01T14:03:16Z</time>
      </trkpt>
      <trkpt lat="45.03507" lon="6.91056">
        <ele>2399.39</ele>
        <time>2017-01-01T14:03:18Z</time>
      </trkpt>
      <trkpt lat="45.03474" lon="6.91054">
        <ele>2404.54</ele>
        <time>2017-01-01T14:03:20Z</time>
      </trkpt>
      <trkpt lat="45.03437" lon="6.9107">
        <ele>2410.42</ele>
        <time>2017-01-01T14:03:22Z</time>
      </trkpt>
      <trkpt lat="45.03432" lon="6.91066">
        <ele>2414.74</ele>
        <time>2017-01-01T14:03:22Z</time>
      </trkpt>
      <trkpt lat="45.03473" lon="6.91032">
        <ele>2413.39</ele>
        <time>2017-01-01T14:03:25Z</time>
      </trkpt>
      <trkpt lat="45.03516" lon="6.91009">
        <ele>2414.83</ele>
        <time>2017-01-01T14:03:27Z</time>
      </trkpt>
      <trkpt lat="45.0352" lon="6.90963">
        <ele>2424.98</ele>
        <time>2017-01-01T14:03:29Z</time>
      </trkpt>
      <trkpt lat="45.03533" lon="6.90939">
        <ele>2421.18</ele>
        <time>2017-01-01T14:03:30Z</time>
      </trkpt>
      <trkpt lat="45.03522" lon="6.90887">
        <ele>2426.99</ele>
        <time>2017-01-01T14:03:32Z</time>
      </trkpt>
      <trkpt lat="45.03519" lon="6.90844">
        <ele>2427.99</ele>
        <time>2017-01-01T14:03:34Z</time>
      </trkpt>
      <trkpt lat="45.03526" lon="6.90802">
        <ele>2423.84</ele>
        <time>2017-01-01T14:03:36Z</time>
      </trkpt>
      <trkpt lat="45.03498" lon="6.90762">
        <ele>2433.05</ele>
        <time>2017-01-01T14:03:38Z</time>
      </trkpt>
      <trkpt lat="45.03472" lon="6.90732">
        <ele>2440.19</ele>
        <time>2017-01-01T14:03:40Z</time>
      </trkpt>
      <trkpt lat="45.03461" lon="6.9074">
        <ele>2445.53</ele>
        <time>2017-01-01T14:03:40Z</time>
      </trkpt>
      <trkpt lat="45.03471" lon="6.90758">
        <ele>2443.34</ele>
        <time>2017-01-01T14:03:41Z</time>
      </trkpt>
      <trkpt lat="45.03477" lon="6.90778">
        <ele>2443.02</ele>
        <time>2017-01-01T14:03:42Z</time>
      </trkpt>
      <trkpt lat="45.03468" lon="6.90824">
        <ele>2452.82</ele>
        <time>2017-01-01T14:03:44Z</time>
      </trkpt>
      <trkpt lat="45.03465" lon="6.9085">
        <ele>2454.18</ele>
        <time>2017-01-01T14:03:45Z</time>
      </trkpt>
      <trkpt lat="45.0346" lon="6.90885">
        <ele>2452.17</ele>
        <time>2017-01-01T14:03:46Z</time>
      </trkpt>
      <trkpt lat="45.03448" lon="6.90916">
        <ele>2451.95</ele>
        <time>2017-01-01T14:03:48Z</time>
      </trkpt>
      <trkpt lat="45.03405" lon="6.90956">
        <ele>2464.07</ele>
        <time>2017-01-01T14:03:50Z</time>
      </trkpt>
      <trkpt lat="45.0337" lon="6.90972">
        <ele>2476.47</ele>
        <time>2017-01-01T14:03:53Z</time>
      </trkpt>
      <trkpt lat="45.0334" lon="6.91">
        <ele>2472.69</ele>
        <time>2017-01-01T14:03:54Z</time>
      </trkpt>
      <trkpt lat="45.03303" lon="6.91058">
        <ele>2481.05</ele>
        <time>2017-01-01T14:03:58Z</time>
      </trkpt>
      <trkpt lat="45.03295" lon="6.91058">
        <ele>2482.99</ele>
        <time>2017-01-01T14:03:58Z</time>
      </trkpt>
      <trkpt lat="45.03295" lon="6.91038">
        <ele>2484.16</ele>
        <time>2017-01-01T14:03:59Z</time>
      </trkpt>
      <trkpt lat="45.03309" lon="6.91009">
        <ele>2483.07</ele>
        <time>2017-01-01T14:04:00Z</time>
      </trkpt>
      <trkpt lat="45.03336" lon="6.90925">
        <ele>2498.78</ele>
        <time>2017-01-01T14:04:04Z</time>
      </trkpt>
      <trkpt lat="45.03348" lon="6.90896">
        <ele>2498.9</ele>
        <time>2017-01-01T14:04:05Z</time>
      </trkpt>
      <trkpt lat="45.03354" lon="6.90862">
        <ele>2501.69</ele>
        <time>2017-01-01T14:04:06Z</time>
      </trkpt>
      <trkpt lat="45.03341" lon="6.90844">
        <ele>2506.3</ele>
        <time>2017-01-01T14:04:07Z</time>
      </trkpt>
      <trkpt lat="45.03329" lon="6.90854">
        <ele>2508.03</ele>
        <time>2017-01-01T14:04:08Z</time>
      </trkpt>
      <trkpt lat="45.03317" lon="6.9088">
        <ele>2507.37</ele>
        <time>2017-01-01T14:04:09Z</time>
      </trkpt>
      <trkpt lat="45.03308" lon="6.90897">
        <ele>2506.79</ele>
        <time>2017-01-01T14:04:10Z</time>
      </trkpt>
      <trkpt lat="45.03291" lon="6.90915">
        <ele>2506.23</ele>
        <time>2017-01-01T14:04:11Z</time>
      </trkpt>
      <trkpt lat="45.03276" lon="6.90922">
        <ele>2506.18</ele>
        <time>2017-01-01T14:04:12Z</time>
      </trkpt>
      <trkpt lat="45.03261" lon="6.9092">
        <ele>2504.88</ele>
        <time>2017-01-01T14:04:13Z</time>
      </trkpt>
      <trkpt lat="45.0324" lon="6.90901">
        <ele>2503.28</ele>
        <time>2017-01-01T14:04:14Z</time>
      </trkpt>
      <trkpt lat="45.03196" lon="6.90826">
        <ele>2497.33</ele>
        <time>2017-01-01T14:04:18Z</time>
      </trkpt>
      <trkpt lat="45.03126" lon="6.90713">
        <ele>2486.4</ele>
        <time>2017-01-01T14:04:24Z</time>
      </trkpt>
      <trkpt lat="45.03074" lon="6.90579">
        <ele>2477.94</ele>
        <time>2017-01-01T14:04:30Z</time>
      </trkpt>
      <trkpt lat="45.03051" lon="6.90468">
        <ele>2470.63</ele>
        <time>2017-01-01T14:04:34Z</time>
      </trkpt>
      <trkpt lat="45.03014" lon="6.90355">
        <ele>2466.2</ele>
        <time>2017-01-01T14:04:39Z</time>
      </trkpt>
      <trkpt lat="45.02779" lon="6.90097">
        <ele>2429.27</ele>
        <time>2017-01-01T14:04:56Z</time>
      </trkpt>
      <trkpt lat="45.02765" lon="6.90071">
        <ele>2424.85</ele>
        <time>2017-01-01T14:04:57Z</time>
      </trkpt>
      <trkpt lat="45.02757" lon="6.90074">
        <ele>2423.02</ele>
        <time>2017-01-01T14:04:57Z</time>
      </trkpt>
      <trkpt lat="45.02789" lon="6.90167">
        <ele>2430.88</ele>
        <time>2017-01-01T14:05:01Z</time>
      </trkpt>
      <trkpt lat="45.0287" lon="6.90331">
        <ele>2419</ele>
        <time>2017-01-01T14:05:09Z</time>
      </trkpt>
      <trkpt lat="45.02883" lon="6.90367">
        <ele>2414.88</ele>
        <time>2017-01-01T14:05:11Z</time>
      </trkpt>
      <trkpt lat="45.02906" lon="6.90395">
        <ele>2418.27</ele>
        <time>2017-01-01T14:05:12Z</time>
      </trkpt>
      <trkpt lat="45.02899" lon="6.90403">
        <ele>2413.56</ele>
        <time>2017-01-01T14:05:13Z</time>
      </trkpt>
      <trkpt lat="45.02809" lon="6.90284">
        <ele>2407.38</ele>
        <time>2017-01-01T14:05:19Z</time>
      </trkpt>
      <trkpt lat="45.0271" lon="6.90225">
        <ele>2393.78</ele>
        <time>2017-01-01T14:05:25Z</time>
      </trkpt>
      <trkpt lat="45.02663" lon="6.90171">
        <ele>2392.11</ele>
        <time>2017-01-01T14:05:29Z</time>
      </trkpt>
      <trkpt lat="45.02616" lon="6.9009">
        <ele>2383.03</ele>
        <time>2017-01-01T14:05:33Z</time>
      </trkpt>
      <trkpt lat="45.02555" lon="6.90008">
        <ele>2370.04</ele>
        <time>2017-01-01T14:05:37Z</time>
      </trkpt>
      <trkpt lat="45.02515" lon="6.8998">
        <ele>2362.63</ele>
        <time>2017-01-01T14:05:40Z</time>
      </trkpt>
      <trkpt lat="45.02488" lon="6.89945">
        <ele>2355.87</ele>
        <time>2017-01-01T14:05:42Z</time>
      </trkpt>
      <trkpt lat="45.02485" lon="6.89955">
        <ele>2354.68</ele>
        <time>2017-01-01T14:05:42Z</time>
      </trkpt>
      <trkpt lat="45.02498" lon="6.89998">
        <ele>2357.11</ele>
        <time>2017-01-01T14:05:44Z</time>
      </trkpt>
      <trkpt lat="45.02518" lon="6.90038">
        <ele>2355.84</ele>
        <time>2017-01-01T14:05:46Z</time>
      </trkpt>
      <trkpt lat="45.02559" lon="6.90168">
        <ele>2352.91</ele>
        <time>2017-01-01T14:05:51Z</time>
      </trkpt>
      <trkpt lat="45.02555" lon="6.90179">
        <ele>2350.51</ele>
        <time>2017-01-01T14:05:52Z</time>
      </trkpt>
      <trkpt lat="45.02543" lon="6.9015">
        <ele>2348.55</ele>
        <time>2017-01-01T14:05:53Z</time>
      </trkpt>
      <trkpt lat="45.02532" lon="6.90128">
        <ele>2346.2</ele>
        <time>2017-01-01T14:05:54Z</time>
      </trkpt>
      <trkpt lat="45.02471" lon="6.90069">
        <ele>2339.72</ele>
        <time>2017-01-01T14:05:58Z</time>
      </trkpt>
      <trkpt lat="45.02406" lon="6.90019">
        <ele>2332.24</ele>
        <time>2017-01-01T14:06:02Z</time>
      </trkpt>
      <trkpt lat="45.02382" lon="6.89976">
        <ele>2330.36</ele>
        <time>2017-01-01T14:06:04Z</time>
      </trkpt>
      <trkpt lat="45.02363" lon="6.89949">
        <ele>2326.99</ele>
        <time>2017-01-01T14:06:06Z</time>
      </trkpt>
      <trkpt lat="45.02284" lon="6.89903">
        <ele>2314.21</ele>
        <time>2017-01-01T14:06:11Z</time>
      </trkpt>
      <trkpt lat="45.02272" lon="6.89888">
        <ele>2311.23</ele>
        <time>2017-01-01T14:06:12Z</time>
      </trkpt>
      <trkpt lat="45.02201" lon="6.89915">
        <ele>2304.73</ele>
        <time>2017-01-01T14:06:16Z</time>
      </trkpt>
      <trkpt lat="45.02133" lon="6.89972">
        <ele>2312.57</ele>
        <time>2017-01-01T14:06:20Z</time>
      </trkpt>
      <trkpt lat="45.02142" lon="6.90037">
        <ele>2313.93</ele>
        <time>2017-01-01T14:06:22Z</time>
      </trkpt>
      <trkpt lat="45.02138" lon="6.90092">
        <ele>2313.59</ele>
        <time>2017-01-01T14:06:25Z</time>
      </trkpt>
      <trkpt lat="45.0211" lon="6.90135">
        <ele>2316.7</ele>
        <time>2017-01-01T14:06:27Z</time>
      </trkpt>
      <trkpt lat="45.02097" lon="6.90191">
        <ele>2313.91</ele>
        <time>2017-01-01T14:06:29Z</time>
      </trkpt>
      <trkpt lat="45.02085" lon="6.902">
        <ele>2315.16</ele>
        <time>2017-01-01T14:06:30Z</time>
      </trkpt>
      <trkpt lat="45.02098" lon="6.9004">
        <ele>2324.06</ele>
        <time>2017-01-01T14:06:36Z</time>
      </trkpt>
      <trkpt lat="45.02059" lon="6.89969">
        <ele>2324.88</ele>
        <time>2017-01-01T14:06:40Z</time>
      </trkpt>
      <trkpt lat="45.02044" lon="6.89862">
        <ele>2313.34</ele>
        <time>2017-01-01T14:06:44Z</time>
      </trkpt>
      <trkpt lat="45.02013" lon="6.89799">
        <ele>2311.68</ele>
        <time>2017-01-01T14:06:47Z</time>
      </trkpt>
      <trkpt lat="45.01956" lon="6.89714">
        <ele>2312.76</ele>
        <time>2017-01-01T14:06:51Z</time>
      </trkpt>
      <trkpt lat="45.01897" lon="6.89734">
        <ele>2325.92</ele>
        <time>2017-01-01T14:06:55Z</time>
      </trkpt>
      <trkpt lat="45.01802" lon="6.89678">
        <ele>2315.26</ele>
        <time>2017-01-01T14:07:00Z</time>
      </trkpt>
      <trkpt lat="45.01756" lon="6.89582">
        <ele>2302.81</ele>
        <time>2017-01-01T14:07:05Z</time>
      </trkpt>
      <trkpt lat="45.01601" lon="6.89498">
        <ele>2304.65</ele>
        <time>2017-01-01T14:07:14Z</time>
      </trkpt>
      <trkpt lat="45.01521" lon="6.89388">
        <ele>2300.69</ele>
        <time>2017-01-01T14:07:20Z</time>
      </trkpt>
      <trkpt lat="45.01514" lon="6.89338">
        <ele>2292.05</ele>
        <time>2017-01-01T14:07:22Z</time>
      </trkpt>
      <trkpt lat="45.01443" lon="6.89281">
        <ele>2291.37</ele>
        <time>2017-01-01T14:07:27Z</time>
      </trkpt>
      <trkpt lat="45.01377" lon="6.8918">
        <ele>2294.18</ele>
        <time>2017-01-01T14:07:32Z</time>
      </trkpt>
      <trkpt lat="45.01308" lon="6.8912">
        <ele>2289.29</ele>
        <time>2017-01-01T14:07:36Z</time>
      </trkpt>
      <trkpt lat="45.01237" lon="6.89109">
        <ele>2279.86</ele>
        <time>2017-01-01T14:07:40Z</time>
      </trkpt>
      <trkpt lat="45.01182" lon="6.89145">
        <ele>2290.1</ele>
        <time>2017-01-01T14:07:43Z</time>
      </trkpt>
      <trkpt lat="45.01076" lon="6.89196">
        <ele>2293.56</ele>
        <time>2017-01-01T14:07:50Z</time>
      </trkpt>
      <trkpt lat="45.01021" lon="6.89225">
        <ele>2284.18</ele>
        <time>2017-01-01T14:07:53Z</time>
      </trkpt>
      <trkpt lat="45.00985" lon="6.89303">
        <ele>2294.54</ele>
        <time>2017-01-01T14:07:56Z</time>
      </trkpt>
      <trkpt lat="45.00846" lon="6.89388">
        <ele>2298.55</ele>
        <time>2017-01-01T14:08:05Z</time>
      </trkpt>
      <trkpt lat="45.00741" lon="6.89407">
        <ele>2297.41</ele>
        <time>2017-01-01T14:08:11Z</time>
      </trkpt>
      <trkpt lat="45.00676" lon="6.89375">
        <ele>2296.62</ele>
        <time>2017-01-01T14:08:14Z</time>
      </trkpt>
      <trkpt lat="45.00645" lon="6.89269">
        <ele>2293.18</ele>
        <time>2017-01-01T14:08:19Z</time>
      </trkpt>
      <trkpt lat="45.00629" lon="6.89234">
        <ele>2293.39</ele>
        <time>2017-01-01T14:08:20Z</time>
      </trkpt>
      <trkpt lat="45.00606" lon="6.89215">
        <ele>2295.23</ele>
        <time>2017-01-01T14:08:22Z</time>
      </trkpt>
      <trkpt lat="45.0057" lon="6.89203">
        <ele>2293.64</ele>
        <time>2017-01-01T14:08:24Z</time>
      </trkpt>
      <trkpt lat="45.00488" lon="6.89138">
        <ele>2298.5</ele>
        <time>2017-01-01T14:08:29Z</time>
      </trkpt>
      <trkpt lat="45.00506" lon="6.89041">
        <ele>2299.97</ele>
        <time>2017-01-01T14:08:33Z</time>
      </trkpt>
      <trkpt lat="45.00471" lon="6.89002">
        <ele>2296.22</ele>
        <time>2017-01-01T14:08:35Z</time>
      </trkpt>
      <trkpt lat="45.00452" lon="6.88995">
        <ele>2298.23</ele>
        <time>2017-01-01T14:08:36Z</time>
      </trkpt>
      <trkpt lat="45.00439" lon="6.89023">
        <ele>2294.76</ele>
        <time>2017-01-01T14:08:38Z</time>
      </trkpt>
      <trkpt lat="45.00345" lon="6.88986">
        <ele>2311.5</ele>
        <time>2017-01-01T14:08:43Z</time>
      </trkpt>
      <trkpt lat="45.00258" lon="6.88942">
        <ele>2318.79</ele>
        <time>2017-01-01T14:08:48Z</time>
      </trkpt>
      <trkpt lat="45.00144" lon="6.88949">
        <ele>2337.15</ele>
        <time>2017-01-01T14:08:54Z</time>
      </trkpt>
      <trkpt lat="45.0004" lon="6.89">
        <ele>2326.36</ele>
        <time>2017-01-01T14:09:00Z</time>
      </trkpt>
      <trkpt lat="45.00035" lon="6.88995">
        <ele>2326.38</ele>
        <time>2017-01-01T14:09:01Z</time>
      </trkpt>
      <trkpt lat="45.00032" lon="6.88983">
        <ele>2328.39</ele>
        <time>2017-01-01T14:09:01Z</time>
      </trkpt>
      <trkpt lat="45.0005" lon="6.88945">
        <ele>2339.49</ele>
        <time>2017-01-01T14:09:03Z</time>
      </trkpt>
      <trkpt lat="45.0004" lon="6.88867">
        <ele>2348.97</ele>
        <time>2017-01-01T14:09:06Z</time>
      </trkpt>
      <trkpt lat="45.00026" lon="6.88822">
        <ele>2352.89</ele>
        <time>2017-01-01T14:09:08Z</time>
      </trkpt>
      <trkpt lat="45.0002" lon="6.88756">
        <ele>2361.77</ele>
        <time>2017-01-01T14:09:11Z</time>
      </trkpt>
      <trkpt lat="45.00011" lon="6.88712">
        <ele>2366.79</ele>
        <time>2017-01-01T14:09:12Z</time>
      </trkpt>
      <trkpt lat="45.00009" lon="6.88672">
        <ele>2373.05</ele>
        <time>2017-01-01T14:09:14Z</time>
      </trkpt>
      <trkpt lat="44.99998" lon="6.88651">
        <ele>2373.51</ele>
        <time>2017-01-01T14:09:15Z</time>
      </trkpt>
      <trkpt lat="44.99949" lon="6.88613">
        <ele>2374.22</ele>
        <time>2017-01-01T14:09:18Z</time>
      </trkpt>
      <trkpt lat="44.99914" lon="6.88566">
        <ele>2375.56</ele>
        <time>2017-01-01T14:09:21Z</time>
      </trkpt>
      <trkpt lat="44.99888" lon="6.88459">
        <ele>2379.62</ele>
        <time>2017-01-01T14:09:25Z</time>
      </trkpt>
      <trkpt lat="44.99851" lon="6.88344">
        <ele>2383.42</ele>
        <time>2017-01-01T14:09:30Z</time>
      </trkpt>
      <trkpt lat="44.99819" lon="6.88288">
        <ele>2384.71</ele>
        <time>2017-01-01T14:09:33Z</time>
      </trkpt>
      <trkpt lat="44.99755" lon="6.8825">
        <ele>2379.84</ele>
        <time>2017-01-01T14:09:36Z</time>
      </trkpt>
      <trkpt lat="44.99735" lon="6.88202">
        <ele>2386.6</ele>
        <time>2017-01-01T14:09:39Z</time>
      </trkpt>
      <trkpt lat="44.99655" lon="6.88154">
        <ele>2387.11</ele>
        <time>2017-01-01T14:09:43Z</time>
      </trkpt>
      <trkpt lat="44.99622" lon="6.88099">
        <ele>2389.76</ele>
        <time>2017-01-01T14:09:46Z</time>
      </trkpt>
      <trkpt lat="44.9962" lon="6.8803">
        <ele>2395.4</ele>
        <time>2017-01-01T14:09:49Z</time>
      </trkpt>
      <trkpt lat="44.99629" lon="6.87939">
        <ele>2396.84</ele>
        <time>2017-01-01T14:09:52Z</time>
      </trkpt>
      <trkpt lat="44.99624" lon="6.87878">
        <ele>2398.66</ele>
        <time>2017-01-01T14:09:55Z</time>
      </trkpt>
      <trkpt lat="44.99557" lon="6.8781">
        <ele>2401.13</ele>
        <time>2017-01-01T14:09:59Z</time>
      </trkpt>
      <trkpt lat="44.99427" lon="6.87753">
        <ele>2404.63</ele>
        <time>2017-01-01T14:10:07Z</time>
      </trkpt>
      <trkpt lat="44.99369" lon="6.87757">
        <ele>2405.09</ele>
        <time>2017-01-01T14:10:10Z</time>
      </trkpt>
      <trkpt lat="44.99265" lon="6.87706">
        <ele>2409.2</ele>
        <time>2017-01-01T14:10:16Z</time>
      </trkpt>
      <trkpt lat="44.99197" lon="6.8755">
        <ele>2412.51</ele>
        <time>2017-01-01T14:10:23Z</time>
      </trkpt>
      <trkpt lat="44.99181" lon="6.87405">
        <ele>2417.27</ele>
        <time>2017-01-01T14:10:29Z</time>
      </trkpt>
      <trkpt lat="44.99192" lon="6.8736">
        <ele>2417.08</ele>
        <time>2017-01-01T14:10:31Z</time>
      </trkpt>
      <trkpt lat="44.99211" lon="6.87344">
        <ele>2419</ele>
        <time>2017-01-01T14:10:32Z</time>
      </trkpt>
      <trkpt lat="44.99258" lon="6.87309">
        <ele>2421.18</ele>
        <time>2017-01-01T14:10:35Z</time>
      </trkpt>
      <trkpt lat="44.99261" lon="6.87289">
        <ele>2421.9</ele>
        <time>2017-01-01T14:10:36Z</time>
      </trkpt>
      <trkpt lat="44.99198" lon="6.87226">
        <ele>2419.88</ele>
        <time>2017-01-01T14:10:40Z</time>
      </trkpt>
      <trkpt lat="44.99197" lon="6.87186">
        <ele>2423.64</ele>
        <time>2017-01-01T14:10:41Z</time>
      </trkpt>
      <trkpt lat="44.99178" lon="6.87154">
        <ele>2425.24</ele>
        <time>2017-01-01T14:10:43Z</time>
      </trkpt>
      <trkpt lat="44.99142" lon="6.87137">
        <ele>2422.55</ele>
        <time>2017-01-01T14:10:45Z</time>
      </trkpt>
      <trkpt lat="44.99107" lon="6.87125">
        <ele>2423.48</ele>
        <time>2017-01-01T14:10:47Z</time>
      </trkpt>
      <trkpt lat="44.98893" lon="6.86981">
        <ele>2427.65</ele>
        <time>2017-01-01T14:11:00Z</time>
      </trkpt>
      <trkpt lat="44.98853" lon="6.86893">
        <ele>2427.68</ele>
        <time>2017-01-01T14:11:04Z</time>
      </trkpt>
      <trkpt lat="44.98826" lon="6.86853">
        <ele>2423.99</ele>
        <time>2017-01-01T14:11:06Z</time>
      </trkpt>
      <trkpt lat="44.98825" lon="6.86839">
        <ele>2422.84</ele>
        <time>2017-01-01T14:11:07Z</time>
      </trkpt>
      <trkpt lat="44.98959" lon="6.86826">
        <ele>2404.96</ele>
        <time>2017-01-01T14:11:14Z</time>
      </trkpt>
      <trkpt lat="44.9901" lon="6.86806">
        <ele>2401.42</ele>
        <time>2017-01-01T14:11:17Z</time>
      </trkpt>
      <trkpt lat="44.99057" lon="6.86802">
        <ele>2396.49</ele>
        <time>2017-01-01T14:11:20Z</time>
      </trkpt>
      <trkpt lat="44.99104" lon="6.86815">
        <ele>2394.97</ele>
        <time>2017-01-01T14:11:22Z</time>
      </trkpt>
      <trkpt lat="44.99141" lon="6.86798">
        <ele>2390.1</ele>
        <time>2017-01-01T14:11:24Z</time>
      </trkpt>
      <trkpt lat="44.99156" lon="6.86768">
        <ele>2388.5</ele>
        <time>2017-01-01T14:11:26Z</time>
      </trkpt>
      <trkpt lat="44.99163" lon="6.86731">
        <ele>2384.95</ele>
        <time>2017-01-01T14:11:27Z</time>
      </trkpt>
      <trkpt lat="44.99214" lon="6.86712">
        <ele>2381.21</ele>
        <time>2017-01-01T14:11:30Z</time>
      </trkpt>
      <trkpt lat="44.9927" lon="6.86641">
        <ele>2373.37</ele>
        <time>2017-01-01T14:11:34Z</time>
      </trkpt>
      <trkpt lat="44.99338" lon="6.86568">
        <ele>2368.35</ele>
        <time>2017-01-01T14:11:39Z</time>
      </trkpt>
      <trkpt lat="44.99424" lon="6.86562">
        <ele>2363.63</ele>
        <time>2017-01-01T14:11:44Z</time>
      </trkpt>
      <trkpt lat="44.99461" lon="6.86549">
        <ele>2363.95</ele>
        <time>2017-01-01T14:11:46Z</time>
      </trkpt>
      <trkpt lat="44.9954" lon="6.86555">
        <ele>2364.54</ele>
        <time>2017-01-01T14:11:50Z</time>
      </trkpt>
      <trkpt lat="44.9966" lon="6.86369">
        <ele>2359.49</ele>
        <time>2017-01-01T14:12:00Z</time>
      </trkpt>
      <trkpt lat="44.99726" lon="6.86199">
        <ele>2350.08</ele>
        <time>2017-01-01T14:12:07Z</time>
      </trkpt>
      <trkpt lat="44.9979" lon="6.86143">
        <ele>2340.88</ele>
        <time>2017-01-01T14:12:11Z</time>
      </trkpt>
      <trkpt lat="44.99872" lon="6.85987">
        <ele>2322.64</ele>
        <time>2017-01-01T14:12:19Z</time>
      </trkpt>
      <trkpt lat="44.99881" lon="6.86101">
        <ele>2319.98</ele>
        <time>2017-01-01T14:12:23Z</time>
      </trkpt>
      <trkpt lat="44.99827" lon="6.86315">
        <ele>2303.74</ele>
        <time>2017-01-01T14:12:32Z</time>
      </trkpt>
      <trkpt lat="44.99778" lon="6.86515">
        <ele>2306.39</ele>
        <time>2017-01-01T14:12:40Z</time>
      </trkpt>
      <trkpt lat="44.99749" lon="6.86579">
        <ele>2308.55</ele>
        <time>2017-01-01T14:12:43Z</time>
      </trkpt>
      <trkpt lat="44.99854" lon="6.86811">
        <ele>2303.29</ele>
        <time>2017-01-01T14:12:54Z</time>
      </trkpt>
      <trkpt lat="44.99927" lon="6.86828">
        <ele>2298.76</ele>
        <time>2017-01-01T14:12:58Z</time>
      </trkpt>
      <trkpt lat="45.00004" lon="6.86894">
        <ele>2295.74</ele>
        <time>2017-01-01T14:13:03Z</time>
      </trkpt>
      <trkpt lat="45.00039" lon="6.86888">
        <ele>2293.57</ele>
        <time>2017-01-01T14:13:05Z</time>
      </trkpt>
      <trkpt lat="45.00031" lon="6.86719">
        <ele>2281.2</ele>
        <time>2017-01-01T14:13:12Z</time>
      </trkpt>
      <trkpt lat="45.00142" lon="6.86794">
        <ele>2274.15</ele>
        <time>2017-01-01T14:13:18Z</time>
      </trkpt>
      <trkpt lat="45.00168" lon="6.86864">
        <ele>2270.3</ele>
        <time>2017-01-01T14:13:21Z</time>
      </trkpt>
      <trkpt lat="45.00174" lon="6.86755">
        <ele>2262.22</ele>
        <time>2017-01-01T14:13:26Z</time>
      </trkpt>
      <trkpt lat="45.0015" lon="6.86699">
        <ele>2261.25</ele>
        <time>2017-01-01T14:13:28Z</time>
      </trkpt>
      <trkpt lat="45.00154" lon="6.8662">
        <ele>2249.29</ele>
        <time>2017-01-01T14:13:31Z</time>
      </trkpt>
      <trkpt lat="45.00119" lon="6.86446">
        <ele>2235.18</ele>
        <time>2017-01-01T14:13:38Z</time>
      </trkpt>
      <trkpt lat="45.00244" lon="6.8654">
        <ele>2218.05</ele>
        <time>2017-01-01T14:13:46Z</time>
      </trkpt>
      <trkpt lat="45.00274" lon="6.86388">
        <ele>2190.4</ele>
        <time>2017-01-01T14:13:52Z</time>
      </trkpt>
      <trkpt lat="45.00415" lon="6.86551">
        <ele>2169.42</ele>
        <time>2017-01-01T14:14:02Z</time>
      </trkpt>
      <trkpt lat="45.00524" lon="6.86798">
        <ele>2143.31</ele>
        <time>2017-01-01T14:14:13Z</time>
      </trkpt>
      <trkpt lat="45.00681" lon="6.87126">
        <ele>2132.02</ele>
        <time>2017-01-01T14:14:29Z</time>
      </trkpt>
      <trkpt lat="45.00819" lon="6.8786">
        <ele>2107.58</ele>
        <time>2017-01-01T14:14:58Z</time>
      </trkpt>
      <trkpt lat="45.01008" lon="6.88332">
        <ele>2075.26</ele>
        <time>2017-01-01T14:15:19Z</time>
      </trkpt>
      <trkpt lat="45.0106" lon="6.87729">
        <ele>2050.82</ele>
        <time>2017-01-01T14:15:43Z</time>
      </trkpt>
      <trkpt lat="45.01008" lon="6.87641">
        <ele>2061.12</ele>
        <time>2017-01-01T14:15:47Z</time>
      </trkpt>
      <trkpt lat="45.01134" lon="6.87566">
        <ele>2022.22</ele>
        <time>2017-01-01T14:15:55Z</time>
      </trkpt>
      <trkpt lat="45.01169" lon="6.87251">
        <ele>1979.17</ele>
        <time>2017-01-01T14:16:07Z</time>
      </trkpt>
      <trkpt lat="45.01253" lon="6.86824">
        <ele>1964.06</ele>
        <time>2017-01-01T14:16:24Z</time>
      </trkpt>
      <trkpt lat="45.01301" lon="6.86452">
        <ele>1923.7</ele>
        <time>2017-01-01T14:16:39Z</time>
      </trkpt>
      <trkpt lat="45.01342" lon="6.85993">
        <ele>1862.84</ele>
        <time>2017-01-01T14:16:57Z</time>
      </trkpt>
      <trkpt lat="45.01439" lon="6.85564">
        <ele>1804.18</ele>
        <time>2017-01-01T14:17:14Z</time>
      </trkpt>
      <trkpt lat="45.01435" lon="6.8524">
        <ele>1734.12</ele>
        <time>2017-01-01T14:17:27Z</time>
      </trkpt>
      <trkpt lat="45.01239" lon="6.84948">
        <ele>1678.79</ele>
        <time>2017-01-01T14:17:42Z</time>
      </trkpt>
      <trkpt lat="45.014" lon="6.84957">
        <ele>1666.24</ele>
        <time>2017-01-01T14:17:51Z</time>
      </trkpt>
      <trkpt lat="45.01318" lon="6.84897">
        <ele>1657.37</ele>
        <time>2017-01-01T14:17:56Z</time>
      </trkpt>
      <trkpt lat="45.01435" lon="6.8486">
        <ele>1631.89</ele>
        <time>2017-01-01T14:18:03Z</time>
      </trkpt>
      <trkpt lat="45.01674" lon="6.85214">
        <ele>1624.32</ele>
        <time>2017-01-01T14:18:22Z</time>
      </trkpt>
      <trkpt lat="45.018" lon="6.85268">
        <ele>1589.66</ele>
        <time>2017-01-01T14:18:29Z</time>
      </trkpt>
      <trkpt lat="45.01881" lon="6.85586">
        <ele>1582.9</ele>
        <time>2017-01-01T14:18:42Z</time>
      </trkpt>
      <trkpt lat="45.02076" lon="6.85819">
        <ele>1567.06</ele>
        <time>2017-01-01T14:18:56Z</time>
      </trkpt>
      <trkpt lat="45.02198" lon="6.85873">
        <ele>1557.5</ele>
        <time>2017-01-01T14:19:03Z</time>
      </trkpt>
      <trkpt lat="45.02355" lon="6.85912">
        <ele>1545.56</ele>
        <time>2017-01-01T14:19:12Z</time>
      </trkpt>
      <trkpt lat="45.02358" lon="6.86049">
        <ele>1554.85</ele>
        <time>2017-01-01T14:19:17Z</time>
      </trkpt>
      <trkpt lat="45.02437" lon="6.85978">
        <ele>1544.67</ele>
        <time>2017-01-01T14:19:22Z</time>
      </trkpt>
      <trkpt lat="45.02766" lon="6.85302">
        <ele>1454.1</ele>
        <time>2017-01-01T14:19:54Z</time>
      </trkpt>
      <trkpt lat="45.02314" lon="6.84373">
        <ele>1322</ele>
        <time>2017-01-01T14:20:38Z</time>
      </trkpt>
      <trkpt lat="45.02698" lon="6.83968">
        <ele>1259.68</ele>
        <time>2017-01-01T14:21:04Z</time>
      </trkpt>
      <trkpt lat="45.02258" lon="6.83845">
        <ele>1215.86</ele>
        <time>2017-01-01T14:21:29Z</time>
      </trkpt>
      <trkpt lat="45.02495" lon="6.83455">
        <ele>1170.04</ele>
        <time>2017-01-01T14:21:49Z</time>
      </trkpt>
      <trkpt lat="45.02813" lon="6.83455">
        <ele>1141.62</ele>
        <time>2017-01-01T14:22:06Z</time>
      </trkpt>
      <trkpt lat="45.02822" lon="6.83208">
        <ele>1113.91</ele>
        <time>2017-01-01T14:22:16Z</time>
      </trkpt>
      <trkpt lat="45.02985" lon="6.83332">
        <ele>1102.74</ele>
        <time>2017-01-01T14:22:26Z</time>
      </trkpt>
      <trkpt lat="45.03061" lon="6.83122">
        <ele>1084.71</ele>
        <time>2017-01-01T14:22:35Z</time>
      </trkpt>
      <trkpt lat="45.03062" lon="6.83124">
        <ele>1085</ele>
        <time>2017-01-02T07:00:00Z</time>
      </trkpt>
      <trkpt lat="45.03062" lon="6.83128">
        <ele>1085</ele>
        <time>2017-01-02T07:00:01Z</time>
      </trkpt>
      <trkpt lat="45.03139" lon="6.83204">
        <ele>1082</ele>
        <time>2017-01-02T07:00:39Z</time>
      </trkpt>
      <trkpt lat="45.03218" lon="6.83288">
        <ele>1081</ele>
        <time>2017-01-02T07:01:18Z</time>
      </trkpt>
      <trkpt lat="45.03285" lon="6.8332">
        <ele>1077</ele>
        <time>2017-01-02T07:01:46Z</time>
      </trkpt>
      <trkpt lat="45.03315" lon="6.83342">
        <ele>1078</ele>
        <time>2017-01-02T07:02:00Z</time>
      </trkpt>
      <trkpt lat="45.03333" lon="6.83363">
        <ele>1079</ele>
        <time>2017-01-02T07:02:09Z</time>
      </trkpt>
      <trkpt lat="45.0338" lon="6.83314">
        <ele>1078</ele>
        <time>2017-01-02T07:02:33Z</time>
      </trkpt>
      <trkpt lat="45.03394" lon="6.83303">
        <ele>1077</ele>
        <time>2017-01-02T07:02:39Z</time>
      </trkpt>
      <trkpt lat="45.03414" lon="6.83296">
        <ele>1075</ele>
        <time>2017-01-02T07:02:47Z</time>
      </trkpt>
      <trkpt lat="45.03445" lon="6.83294">
        <ele>1073</ele>
        <time>2017-01-02T07:03:00Z</time>
      </trkpt>
      <trkpt lat="45.03468" lon="6.83287">
        <ele>1075</ele>
        <time>2017-01-02T07:03:09Z</time>
      </trkpt>
      <trkpt lat="45.03483" lon="6.83281">
        <ele>1075</ele>
        <time>2017-01-02T07:03:15Z</time>
      </trkpt>
      <trkpt lat="45.03497" lon="6.83273">
        <ele>1074</ele>
        <time>2017-01-02T07:03:21Z</time>
      </trkpt>
      <trkpt lat="45.03515" lon="6.83257">
        <ele>1074</ele>
        <time>2017-01-02T07:03:30Z</time>
      </trkpt>
      <trkpt lat="45.03535" lon="6.83232">
        <ele>1073</ele>
        <time>2017-01-02T07:03:41Z</time>
      </trkpt>
      <trkpt lat="45.03542" lon="6.83233">
        <ele>1073</ele>
        <time>2017-01-02T07:03:43Z</time>
      </trkpt>
      <trkpt lat="45.03643" lon="6.83207">
        <ele>1070</ele>
        <time>2017-01-02T07:04:24Z</time>
      </trkpt>
      <trkpt lat="45.03852" lon="6.83152">
        <ele>1068</ele>
        <time>2017-01-02T07:05:50Z</time>
      </trkpt>
      <trkpt lat="45.03855" lon="6.83141">
        <ele>1068</ele>
        <time>2017-01-02T07:05:53Z</time>
      </trkpt>
      <trkpt lat="45.03854" lon="6.83114">
        <ele>1068</ele>
        <time>2017-01-02T07:06:01Z</time>
      </trkpt>
      <trkpt lat="45.03855" lon="6.8309">
        <ele>1068</ele>
        <time>2017-01-02T07:06:07Z</time>
      </trkpt>
      <trkpt lat="45.03827" lon="6.82791">
        <ele>1067</ele>
        <time>2017-01-02T07:07:33Z</time>
      </trkpt>
      <trkpt lat="45.03819" lon="6.82769">
        <ele>1066</ele>
        <time>2017-01-02T07:07:40Z</time>
      </trkpt>
      <trkpt lat="45.04016" lon="6.82572">
        <ele>1068</ele>
        <time>2017-01-02T07:09:16Z</time>
      </trkpt>
      <trkpt lat="45.04069" lon="6.82519">
        <ele>1071</ele>
        <time>2017-01-02T07:09:42Z</time>
      </trkpt>
      <trkpt lat="45.04089" lon="6.82505">
        <ele>1072</ele>
        <time>2017-01-02T07:09:51Z</time>
      </trkpt>
      <trkpt lat="45.04098" lon="6.82501">
        <ele>1072</ele>
        <time>2017-01-02T07:09:55Z</time>
      </trkpt>
      <trkpt lat="45.04115" lon="6.82497">
        <ele>1072</ele>
        <time>2017-01-02T07:10:02Z</time>
      </trkpt>
      <trkpt lat="45.04167" lon="6.82487">
        <ele>1079</ele>
        <time>2017-01-02T07:10:23Z</time>
      </trkpt>
      <trkpt lat="45.04169" lon="6.82331">
        <ele>1080</ele>
        <time>2017-01-02T07:11:07Z</time>
      </trkpt>
      <trkpt lat="45.04165" lon="6.82285">
        <ele>1083</ele>
        <time>2017-01-02T07:11:20Z</time>
      </trkpt>
      <trkpt lat="45.04161" lon="6.82251">
        <ele>1080</ele>
        <time>2017-01-02T07:11:30Z</time>
      </trkpt>
      <trkpt lat="45.0415" lon="6.82204">
        <ele>1079</ele>
        <time>2017-01-02T07:11:44Z</time>
      </trkpt>
      <trkpt lat="45.04136" lon="6.82154">
        <ele>1077</ele>
        <time>2017-01-02T07:11:59Z</time>
      </trkpt>
      <trkpt lat="45.04124" lon="6.82127">
        <ele>1077</ele>
        <time>2017-01-02T07:12:08Z</time>
      </trkpt>
      <trkpt lat="45.04121" lon="6.82114">
        <ele>1078</ele>
        <time>2017-01-02T07:12:12Z</time>
      </trkpt>
      <trkpt lat="45.04122" lon="6.82085">
        <ele>1079</ele>
        <time>2017-01-02T07:12:20Z</time>
      </trkpt>
      <trkpt lat="45.04127" lon="6.82072">
        <ele>1079</ele>
        <time>2017-01-02T07:12:24Z</time>
      </trkpt>
      <trkpt lat="45.04138" lon="6.82056">
        <ele>1080</ele>
        <time>2017-01-02T07:12:31Z</time>
      </trkpt>
      <trkpt lat="45.04187" lon="6.81925">
        <ele>1085</ele>
        <time>2017-01-02T07:13:13Z</time>
      </trkpt>
      <trkpt lat="45.04198" lon="6.81887">
        <ele>1082</ele>
        <time>2017-01-02T07:13:24Z</time>
      </trkpt>
      <trkpt lat="45.04208" lon="6.81847">
        <ele>1082</ele>
        <time>2017-01-02T07:13:36Z</time>
      </trkpt>
      <trkpt lat="45.04217" lon="6.81803">
        <ele>1082</ele>
        <time>2017-01-02T07:13:49Z</time>
      </trkpt>
      <trkpt lat="45.04278" lon="6.81437">
        <ele>1090</ele>
        <time>2017-01-02T07:15:36Z</time>
      </trkpt>
      <trkpt lat="45.04282" lon="6.81394">
        <ele>1086</ele>
        <time>2017-01-02T07:15:48Z</time>
      </trkpt>
      <trkpt lat="45.04283" lon="6.81356">
        <ele>1082</ele>
        <time>2017-01-02T07:15:59Z</time>
      </trkpt>
      <trkpt lat="45.04281" lon="6.81331">
        <ele>1079</ele>
        <time>2017-01-02T07:16:06Z</time>
      </trkpt>
      <trkpt lat="45.04277" lon="6.81307">
        <ele>1078</ele>
        <time>2017-01-02T07:16:13Z</time>
      </trkpt>
      <trkpt lat="45.04267" lon="6.81274">
        <ele>1078</ele>
        <time>2017-01-02T07:16:23Z</time>
      </trkpt>
      <trkpt lat="45.04258" lon="6.81253">
        <ele>1080</ele>
        <time>2017-01-02T07:16:30Z</time>
      </trkpt>
      <trkpt lat="45.04208" lon="6.81166">
        <ele>1084</ele>
        <time>2017-01-02T07:17:01Z</time>
      </trkpt>
      <trkpt lat="45.04192" lon="6.8113">
        <ele>1087</ele>
        <time>2017-01-02T07:17:13Z</time>
      </trkpt>
      <trkpt lat="45.04185" lon="6.81103">
        <ele>1089</ele>
        <time>2017-01-02T07:17:22Z</time>
      </trkpt>
      <trkpt lat="45.0418" lon="6.81073">
        <ele>1092</ele>
        <time>2017-01-02T07:17:30Z</time>
      </trkpt>
      <trkpt lat="45.04178" lon="6.81026">
        <ele>1095</ele>
        <time>2017-01-02T07:17:44Z</time>
      </trkpt>
      <trkpt lat="45.0418" lon="6.81002">
        <ele>1095</ele>
        <time>2017-01-02T07:17:50Z</time>
      </trkpt>
      <trkpt lat="45.04206" lon="6.80848">
        <ele>1098</ele>
        <time>2017-01-02T07:18:35Z</time>
      </trkpt>
      <trkpt lat="45.04213" lon="6.80821">
        <ele>1097</ele>
        <time>2017-01-02T07:18:43Z</time>
      </trkpt>
      <trkpt lat="45.04221" lon="6.80797">
        <ele>1098</ele>
        <time>2017-01-02T07:18:51Z</time>
      </trkpt>
      <trkpt lat="45.04238" lon="6.80764">
        <ele>1104</ele>
        <time>2017-01-02T07:19:02Z</time>
      </trkpt>
      <trkpt lat="45.04328" lon="6.80608">
        <ele>1105</ele>
        <time>2017-01-02T07:19:59Z</time>
      </trkpt>
      <trkpt lat="45.04379" lon="6.80515">
        <ele>1106</ele>
        <time>2017-01-02T07:20:33Z</time>
      </trkpt>
      <trkpt lat="45.04408" lon="6.80454">
        <ele>1108</ele>
        <time>2017-01-02T07:20:54Z</time>
      </trkpt>
      <trkpt lat="45.04434" lon="6.80385">
        <ele>1109</ele>
        <time>2017-01-02T07:21:16Z</time>
      </trkpt>
      <trkpt lat="45.04454" lon="6.80316">
        <ele>1112</ele>
        <time>2017-01-02T07:21:37Z</time>
      </trkpt>
      <trkpt lat="45.04463" lon="6.80275">
        <ele>1114</ele>
        <time>2017-01-02T07:21:49Z</time>
      </trkpt>
      <trkpt lat="45.04483" lon="6.8015">
        <ele>1115</ele>
        <time>2017-01-02T07:22:25Z</time>
      </trkpt>
      <trkpt lat="45.04523" lon="6.79885">
        <ele>1103</ele>
        <time>2017-01-02T07:23:42Z</time>
      </trkpt>
      <trkpt lat="45.04526" lon="6.79831">
        <ele>1102</ele>
        <time>2017-01-02T07:23:57Z</time>
      </trkpt>
      <trkpt lat="45.04523" lon="6.79777">
        <ele>1102</ele>
        <time>2017-01-02T07:24:12Z</time>
      </trkpt>
      <trkpt lat="45.04523" lon="6.79776">
        <ele>1102</ele>
        <time>2017-01-02T07:24:13Z</time>
      </trkpt>
      <trkpt lat="45.04512" lon="6.79715">
        <ele>1106</ele>
        <time>2017-01-02T07:24:30Z</time>
      </trkpt>
      <trkpt lat="45.04503" lon="6.79686">
        <ele>1108</ele>
        <time>2017-01-02T07:24:39Z</time>
      </trkpt>
      <trkpt lat="45.04453" lon="6.79562">
        <ele>1107</ele>
        <time>2017-01-02T07:25:20Z</time>
      </trkpt>
      <trkpt lat="45.0444" lon="6.79528">
        <ele>1106</ele>
        <time>2017-01-02T07:25:31Z</time>
      </trkpt>
      <trkpt lat="45.04432" lon="6.79497">
        <ele>1108</ele>
        <time>2017-01-02T07:25:40Z</time>
      </trkpt>
      <trkpt lat="45.04426" lon="6.79453">
        <ele>1109</ele>
        <time>2017-01-02T07:25:53Z</time>
      </trkpt>
      <trkpt lat="45.04407" lon="6.79217">
        <ele>1105</ele>
        <time>2017-01-02T07:27:00Z</time>
      </trkpt>
      <trkpt lat="45.0438" lon="6.78884">
        <ele>1108</ele>
        <time>2017-01-02T07:28:35Z</time>
      </trkpt>
      <trkpt lat="45.04371" lon="6.78825">
        <ele>1110</ele>
        <time>2017-01-02T07:28:52Z</time>
      </trkpt>
      <trkpt lat="45.04362" lon="6.78789">
        <ele>1113</ele>
        <time>2017-01-02T07:29:03Z</time>
      </trkpt>
      <trkpt lat="45.0435" lon="6.78755">
        <ele>1115</ele>
        <time>2017-01-02T07:29:13Z</time>
      </trkpt>
      <trkpt lat="45.04338" lon="6.7873">
        <ele>1116</ele>
        <time>2017-01-02T07:29:22Z</time>
      </trkpt>
      <trkpt lat="45.04306" lon="6.78684">
        <ele>1118</ele>
        <time>2017-01-02T07:29:40Z</time>
      </trkpt>
      <trkpt lat="45.04288" lon="6.78661">
        <ele>1118</ele>
        <time>2017-01-02T07:29:50Z</time>
      </trkpt>
      <trkpt lat="45.04239" lon="6.78614">
        <ele>1115</ele>
        <time>2017-01-02T07:30:14Z</time>
      </trkpt>
      <trkpt lat="45.04222" lon="6.78591">
        <ele>1114</ele>
        <time>2017-01-02T07:30:23Z</time>
      </trkpt>
      <trkpt lat="45.04208" lon="6.78565">
        <ele>1114</ele>
        <time>2017-01-02T07:30:32Z</time>
      </trkpt>
      <trkpt lat="45.04194" lon="6.78523">
        <ele>1115</ele>
        <time>2017-01-02T07:30:45Z</time>
      </trkpt>
      <trkpt lat="45.04182" lon="6.78483">
        <ele>1115</ele>
        <time>2017-01-02T07:30:58Z</time>
      </trkpt>
      <trkpt lat="45.04179" lon="6.78461">
        <ele>1115</ele>
        <time>2017-01-02T07:31:04Z</time>
      </trkpt>
      <trkpt lat="45.04178" lon="6.78381">
        <ele>1114</ele>
        <time>2017-01-02T07:31:27Z</time>
      </trkpt>
      <trkpt lat="45.0418" lon="6.78352">
        <ele>1116</ele>
        <time>2017-01-02T07:31:35Z</time>
      </trkpt>
      <trkpt lat="45.04191" lon="6.78279">
        <ele>1120</ele>
        <time>2017-01-02T07:31:56Z</time>
      </trkpt>
      <trkpt lat="45.04211" lon="6.78191">
        <ele>1120</ele>
        <time>2017-01-02T07:32:22Z</time>
      </trkpt>
      <trkpt lat="45.04221" lon="6.78155">
        <ele>1121</ele>
        <time>2017-01-02T07:32:33Z</time>
      </trkpt>
      <trkpt lat="45.04299" lon="6.77949">
        <ele>1121</ele>
        <time>2017-01-02T07:33:39Z</time>
      </trkpt>
      <trkpt lat="45.04373" lon="6.77758">
        <ele>1124</ele>
        <time>2017-01-02T07:34:41Z</time>
      </trkpt>
      <trkpt lat="45.04399" lon="6.77684">
        <ele>1125</ele>
        <time>2017-01-02T07:35:04Z</time>
      </trkpt>
      <trkpt lat="45.04415" lon="6.77629">
        <ele>1124</ele>
        <time>2017-01-02T07:35:21Z</time>
      </trkpt>
      <trkpt lat="45.04467" lon="6.77399">
        <ele>1127</ele>
        <time>2017-01-02T07:36:29Z</time>
      </trkpt>
      <trkpt lat="45.04479" lon="6.77324">
        <ele>1124</ele>
        <time>2017-01-02T07:36:51Z</time>
      </trkpt>
      <trkpt lat="45.04486" lon="6.77241">
        <ele>1128</ele>
        <time>2017-01-02T07:37:15Z</time>
      </trkpt>
      <trkpt lat="45.04503" lon="6.76758">
        <ele>1132</ele>
        <time>2017-01-02T07:39:31Z</time>
      </trkpt>
      <trkpt lat="45.04506" lon="6.76678">
        <ele>1135</ele>
        <time>2017-01-02T07:39:54Z</time>
      </trkpt>
      <trkpt lat="45.04512" lon="6.76603">
        <ele>1136</ele>
        <time>2017-01-02T07:40:15Z</time>
      </trkpt>
      <trkpt lat="45.04518" lon="6.76564">
        <ele>1136</ele>
        <time>2017-01-02T07:40:27Z</time>
      </trkpt>
      <trkpt lat="45.04532" lon="6.765">
        <ele>1140</ele>
        <time>2017-01-02T07:40:46Z</time>
      </trkpt>
      <trkpt lat="45.04599" lon="6.76238">
        <ele>1150</ele>
        <time>2017-01-02T07:42:05Z</time>
      </trkpt>
      <trkpt lat="45.04643" lon="6.76075">
        <ele>1158</ele>
        <time>2017-01-02T07:42:54Z</time>
      </trkpt>
      <trkpt lat="45.04668" lon="6.75999">
        <ele>1160</ele>
        <time>2017-01-02T07:43:18Z</time>
      </trkpt>
      <trkpt lat="45.04675" lon="6.7597">
        <ele>1160</ele>
        <time>2017-01-02T07:43:26Z</time>
      </trkpt>
      <trkpt lat="45.04688" lon="6.75895">
        <ele>1155</ele>
        <time>2017-01-02T07:43:48Z</time>
      </trkpt>
      <trkpt lat="45.04704" lon="6.75823">
        <ele>1153</ele>
        <time>2017-01-02T07:44:09Z</time>
      </trkpt>
    </trkseg>
  </trk>
  <trk>
    <name><![CDATA[TET-ITALY-Section02-20190715]]></name>
    <extensions>
      <line xmlns="http://www.topografix.com/GPX/gpx_style/0/2">
        <color>0008ff</color>
        <opacity>0.95</opacity>
        <width>4</width>
      </line>
    </extensions>
    <trkseg>
      <trkpt lat="45.04704" lon="6.75823">
        <ele>1153</ele>
        <time>2017-01-02T07:44:09Z</time>
      </trkpt>
      <trkpt lat="45.04704" lon="6.75823">
        <ele>1153</ele>
        <time>2017-01-02T07:44:09Z</time>
      </trkpt>
      <trkpt lat="45.04704" lon="6.75823">
        <ele>1153</ele>
        <time>2017-01-02T07:44:09Z</time>
      </trkpt>
      <trkpt lat="45.04691" lon="6.75815">
        <ele>1150</ele>
        <time>2017-01-02T07:44:15Z</time>
      </trkpt>
      <trkpt lat="45.0468" lon="6.75813">
        <ele>1148</ele>
        <time>2017-01-02T07:44:20Z</time>
      </trkpt>
      <trkpt lat="45.04658" lon="6.75802">
        <ele>1147</ele>
        <time>2017-01-02T07:44:29Z</time>
      </trkpt>
      <trkpt lat="45.04622" lon="6.75778">
        <ele>1151</ele>
        <time>2017-01-02T07:44:45Z</time>
      </trkpt>
      <trkpt lat="45.04598" lon="6.75768">
        <ele>1153</ele>
        <time>2017-01-02T07:44:55Z</time>
      </trkpt>
      <trkpt lat="45.0453" lon="6.75764">
        <ele>1162</ele>
        <time>2017-01-02T07:45:22Z</time>
      </trkpt>
      <trkpt lat="45.04443" lon="6.75729">
        <ele>1168</ele>
        <time>2017-01-02T07:45:58Z</time>
      </trkpt>
      <trkpt lat="45.04429" lon="6.75728">
        <ele>1168</ele>
        <time>2017-01-02T07:46:04Z</time>
      </trkpt>
      <trkpt lat="45.04392" lon="6.75717">
        <ele>1172</ele>
        <time>2017-01-02T07:46:19Z</time>
      </trkpt>
      <trkpt lat="45.0438" lon="6.75716">
        <ele>1173</ele>
        <time>2017-01-02T07:46:24Z</time>
      </trkpt>
      <trkpt lat="45.04388" lon="6.7569">
        <ele>1175</ele>
        <time>2017-01-02T07:46:32Z</time>
      </trkpt>
      <trkpt lat="45.04383" lon="6.7566">
        <ele>1178</ele>
        <time>2017-01-02T07:46:41Z</time>
      </trkpt>
      <trkpt lat="45.04388" lon="6.75639">
        <ele>1179</ele>
        <time>2017-01-02T07:46:47Z</time>
      </trkpt>
      <trkpt lat="45.04403" lon="6.75549">
        <ele>1180</ele>
        <time>2017-01-02T07:47:13Z</time>
      </trkpt>
      <trkpt lat="45.04407" lon="6.75506">
        <ele>1180</ele>
        <time>2017-01-02T07:47:26Z</time>
      </trkpt>
      <trkpt lat="45.04397" lon="6.75396">
        <ele>1176</ele>
        <time>2017-01-02T07:47:57Z</time>
      </trkpt>
      <trkpt lat="45.04395" lon="6.75343">
        <ele>1182</ele>
        <time>2017-01-02T07:48:12Z</time>
      </trkpt>
      <trkpt lat="45.04399" lon="6.75583">
        <ele>1178.92</ele>
        <time>2017-01-03T07:25:08Z</time>
      </trkpt>
      <trkpt lat="45.04408" lon="6.75529">
        <ele>1180.55</ele>
        <time>2017-01-03T07:25:10Z</time>
      </trkpt>
      <trkpt lat="45.04409" lon="6.75509">
        <ele>1179.2</ele>
        <time>2017-01-03T07:25:10Z</time>
      </trkpt>
      <trkpt lat="45.04405" lon="6.75466">
        <ele>1176.72</ele>
        <time>2017-01-03T07:25:12Z</time>
      </trkpt>
      <trkpt lat="45.04398" lon="6.75429">
        <ele>1175.35</ele>
        <time>2017-01-03T07:25:14Z</time>
      </trkpt>
      <trkpt lat="45.04396" lon="6.75389">
        <ele>1176.23</ele>
        <time>2017-01-03T07:25:15Z</time>
      </trkpt>
      <trkpt lat="45.04392" lon="6.75325">
        <ele>1183.86</ele>
        <time>2017-01-03T07:25:18Z</time>
      </trkpt>
      <trkpt lat="45.04398" lon="6.75312">
        <ele>1185.09</ele>
        <time>2017-01-03T07:25:18Z</time>
      </trkpt>
      <trkpt lat="45.04433" lon="6.75282">
        <ele>1186.63</ele>
        <time>2017-01-03T07:25:20Z</time>
      </trkpt>
      <trkpt lat="45.0444" lon="6.75272">
        <ele>1188.58</ele>
        <time>2017-01-03T07:25:21Z</time>
      </trkpt>
      <trkpt lat="45.04448" lon="6.75257">
        <ele>1191.98</ele>
        <time>2017-01-03T07:25:22Z</time>
      </trkpt>
      <trkpt lat="45.04462" lon="6.75244">
        <ele>1194.74</ele>
        <time>2017-01-03T07:25:23Z</time>
      </trkpt>
      <trkpt lat="45.04489" lon="6.75232">
        <ele>1197.27</ele>
        <time>2017-01-03T07:25:24Z</time>
      </trkpt>
      <trkpt lat="45.04501" lon="6.7523">
        <ele>1196.92</ele>
        <time>2017-01-03T07:25:25Z</time>
      </trkpt>
      <trkpt lat="45.04522" lon="6.75211">
        <ele>1197.22</ele>
        <time>2017-01-03T07:25:26Z</time>
      </trkpt>
      <trkpt lat="45.04534" lon="6.7519">
        <ele>1198.27</ele>
        <time>2017-01-03T07:25:27Z</time>
      </trkpt>
      <trkpt lat="45.04528" lon="6.75168">
        <ele>1207.56</ele>
        <time>2017-01-03T07:25:28Z</time>
      </trkpt>
      <trkpt lat="45.04503" lon="6.75198">
        <ele>1206.21</ele>
        <time>2017-01-03T07:25:30Z</time>
      </trkpt>
      <trkpt lat="45.04489" lon="6.75197">
        <ele>1209.49</ele>
        <time>2017-01-03T07:25:31Z</time>
      </trkpt>
      <trkpt lat="45.04482" lon="6.75187">
        <ele>1213.23</ele>
        <time>2017-01-03T07:25:32Z</time>
      </trkpt>
      <trkpt lat="45.04476" lon="6.75173">
        <ele>1217.04</ele>
        <time>2017-01-03T07:25:32Z</time>
      </trkpt>
      <trkpt lat="45.04483" lon="6.75141">
        <ele>1219.24</ele>
        <time>2017-01-03T07:25:34Z</time>
      </trkpt>
      <trkpt lat="45.04513" lon="6.75114">
        <ele>1223.12</ele>
        <time>2017-01-03T07:25:36Z</time>
      </trkpt>
      <trkpt lat="45.04541" lon="6.75077">
        <ele>1230.5</ele>
        <time>2017-01-03T07:25:38Z</time>
      </trkpt>
      <trkpt lat="45.04549" lon="6.75066">
        <ele>1229.63</ele>
        <time>2017-01-03T07:25:38Z</time>
      </trkpt>
      <trkpt lat="45.04564" lon="6.75057">
        <ele>1225.06</ele>
        <time>2017-01-03T07:25:39Z</time>
      </trkpt>
      <trkpt lat="45.04564" lon="6.75043">
        <ele>1230.19</ele>
        <time>2017-01-03T07:25:40Z</time>
      </trkpt>
      <trkpt lat="45.04554" lon="6.75042">
        <ele>1234.9</ele>
        <time>2017-01-03T07:25:40Z</time>
      </trkpt>
      <trkpt lat="45.04536" lon="6.75059">
        <ele>1236.04</ele>
        <time>2017-01-03T07:25:42Z</time>
      </trkpt>
      <trkpt lat="45.04526" lon="6.75063">
        <ele>1238.53</ele>
        <time>2017-01-03T07:25:42Z</time>
      </trkpt>
      <trkpt lat="45.04502" lon="6.75072">
        <ele>1237.58</ele>
        <time>2017-01-03T07:25:43Z</time>
      </trkpt>
      <trkpt lat="45.04489" lon="6.75072">
        <ele>1238.07</ele>
        <time>2017-01-03T07:25:44Z</time>
      </trkpt>
      <trkpt lat="45.04435" lon="6.75057">
        <ele>1239.2</ele>
        <time>2017-01-03T07:25:47Z</time>
      </trkpt>
      <trkpt lat="45.04412" lon="6.75052">
        <ele>1234.91</ele>
        <time>2017-01-03T07:25:48Z</time>
      </trkpt>
      <trkpt lat="45.0441" lon="6.75034">
        <ele>1240.65</ele>
        <time>2017-01-03T07:25:49Z</time>
      </trkpt>
      <trkpt lat="45.04437" lon="6.75032">
        <ele>1248.6</ele>
        <time>2017-01-03T07:25:51Z</time>
      </trkpt>
      <trkpt lat="45.04458" lon="6.75017">
        <ele>1257.64</ele>
        <time>2017-01-03T07:25:52Z</time>
      </trkpt>
      <trkpt lat="45.04484" lon="6.74997">
        <ele>1265.19</ele>
        <time>2017-01-03T07:25:54Z</time>
      </trkpt>
      <trkpt lat="45.04494" lon="6.74967">
        <ele>1274.07</ele>
        <time>2017-01-03T07:25:55Z</time>
      </trkpt>
      <trkpt lat="45.04479" lon="6.74966">
        <ele>1275.72</ele>
        <time>2017-01-03T07:25:56Z</time>
      </trkpt>
      <trkpt lat="45.04447" lon="6.74982">
        <ele>1272.07</ele>
        <time>2017-01-03T07:25:58Z</time>
      </trkpt>
      <trkpt lat="45.04437" lon="6.74987">
        <ele>1268.54</ele>
        <time>2017-01-03T07:25:59Z</time>
      </trkpt>
      <trkpt lat="45.04434" lon="6.74966">
        <ele>1275.7</ele>
        <time>2017-01-03T07:26:00Z</time>
      </trkpt>
      <trkpt lat="45.04457" lon="6.74945">
        <ele>1282.5</ele>
        <time>2017-01-03T07:26:01Z</time>
      </trkpt>
      <trkpt lat="45.04479" lon="6.74933">
        <ele>1283.84</ele>
        <time>2017-01-03T07:26:03Z</time>
      </trkpt>
      <trkpt lat="45.04491" lon="6.74924">
        <ele>1286.47</ele>
        <time>2017-01-03T07:26:03Z</time>
      </trkpt>
      <trkpt lat="45.04492" lon="6.74909">
        <ele>1291.2</ele>
        <time>2017-01-03T07:26:04Z</time>
      </trkpt>
      <trkpt lat="45.04481" lon="6.74907">
        <ele>1291.45</ele>
        <time>2017-01-03T07:26:05Z</time>
      </trkpt>
      <trkpt lat="45.04466" lon="6.74911">
        <ele>1290.37</ele>
        <time>2017-01-03T07:26:05Z</time>
      </trkpt>
      <trkpt lat="45.04436" lon="6.74923">
        <ele>1288.42</ele>
        <time>2017-01-03T07:26:07Z</time>
      </trkpt>
      <trkpt lat="45.04418" lon="6.74926">
        <ele>1285.47</ele>
        <time>2017-01-03T07:26:08Z</time>
      </trkpt>
      <trkpt lat="45.04404" lon="6.74915">
        <ele>1282</ele>
        <time>2017-01-03T07:26:09Z</time>
      </trkpt>
      <trkpt lat="45.04401" lon="6.74892">
        <ele>1285.93</ele>
        <time>2017-01-03T07:26:10Z</time>
      </trkpt>
      <trkpt lat="45.04403" lon="6.74877">
        <ele>1289.53</ele>
        <time>2017-01-03T07:26:10Z</time>
      </trkpt>
      <trkpt lat="45.04414" lon="6.74863">
        <ele>1296.57</ele>
        <time>2017-01-03T07:26:11Z</time>
      </trkpt>
      <trkpt lat="45.04427" lon="6.74856">
        <ele>1301.03</ele>
        <time>2017-01-03T07:26:12Z</time>
      </trkpt>
      <trkpt lat="45.0445" lon="6.74855">
        <ele>1305.23</ele>
        <time>2017-01-03T07:26:13Z</time>
      </trkpt>
      <trkpt lat="45.04463" lon="6.74858">
        <ele>1305.94</ele>
        <time>2017-01-03T07:26:14Z</time>
      </trkpt>
      <trkpt lat="45.0451" lon="6.74833">
        <ele>1315.14</ele>
        <time>2017-01-03T07:26:17Z</time>
      </trkpt>
      <trkpt lat="45.04534" lon="6.74829">
        <ele>1316.64</ele>
        <time>2017-01-03T07:26:18Z</time>
      </trkpt>
      <trkpt lat="45.04541" lon="6.74799">
        <ele>1325.36</ele>
        <time>2017-01-03T07:26:20Z</time>
      </trkpt>
      <trkpt lat="45.04532" lon="6.74788">
        <ele>1329.94</ele>
        <time>2017-01-03T07:26:20Z</time>
      </trkpt>
      <trkpt lat="45.04514" lon="6.74795">
        <ele>1329.98</ele>
        <time>2017-01-03T07:26:21Z</time>
      </trkpt>
      <trkpt lat="45.04495" lon="6.74811">
        <ele>1324.65</ele>
        <time>2017-01-03T07:26:23Z</time>
      </trkpt>
      <trkpt lat="45.04485" lon="6.74815">
        <ele>1322.92</ele>
        <time>2017-01-03T07:26:23Z</time>
      </trkpt>
      <trkpt lat="45.04467" lon="6.74814">
        <ele>1322.28</ele>
        <time>2017-01-03T07:26:24Z</time>
      </trkpt>
      <trkpt lat="45.04449" lon="6.74807">
        <ele>1321.4</ele>
        <time>2017-01-03T07:26:25Z</time>
      </trkpt>
      <trkpt lat="45.0444" lon="6.74799">
        <ele>1322</ele>
        <time>2017-01-03T07:26:26Z</time>
      </trkpt>
      <trkpt lat="45.04419" lon="6.74767">
        <ele>1326.69</ele>
        <time>2017-01-03T07:26:27Z</time>
      </trkpt>
      <trkpt lat="45.04408" lon="6.74734">
        <ele>1333.31</ele>
        <time>2017-01-03T07:26:29Z</time>
      </trkpt>
      <trkpt lat="45.04404" lon="6.7472">
        <ele>1336.33</ele>
        <time>2017-01-03T07:26:29Z</time>
      </trkpt>
      <trkpt lat="45.04392" lon="6.74699">
        <ele>1338.7</ele>
        <time>2017-01-03T07:26:30Z</time>
      </trkpt>
      <trkpt lat="45.04369" lon="6.74663">
        <ele>1339.77</ele>
        <time>2017-01-03T07:26:32Z</time>
      </trkpt>
      <trkpt lat="45.0437" lon="6.74649">
        <ele>1344.27</ele>
        <time>2017-01-03T07:26:33Z</time>
      </trkpt>
      <trkpt lat="45.04383" lon="6.74651">
        <ele>1348.99</ele>
        <time>2017-01-03T07:26:34Z</time>
      </trkpt>
      <trkpt lat="45.04391" lon="6.74666">
        <ele>1348.91</ele>
        <time>2017-01-03T07:26:34Z</time>
      </trkpt>
      <trkpt lat="45.04407" lon="6.74688">
        <ele>1348.61</ele>
        <time>2017-01-03T07:26:36Z</time>
      </trkpt>
      <trkpt lat="45.04438" lon="6.74739">
        <ele>1343.08</ele>
        <time>2017-01-03T07:26:38Z</time>
      </trkpt>
      <trkpt lat="45.04449" lon="6.74742">
        <ele>1345.6</ele>
        <time>2017-01-03T07:26:39Z</time>
      </trkpt>
      <trkpt lat="45.04444" lon="6.74722">
        <ele>1351.89</ele>
        <time>2017-01-03T07:26:40Z</time>
      </trkpt>
      <trkpt lat="45.04432" lon="6.74709">
        <ele>1351.31</ele>
        <time>2017-01-03T07:26:41Z</time>
      </trkpt>
      <trkpt lat="45.0442" lon="6.74674">
        <ele>1357.41</ele>
        <time>2017-01-03T07:26:42Z</time>
      </trkpt>
      <trkpt lat="45.04411" lon="6.74631">
        <ele>1366.28</ele>
        <time>2017-01-03T07:26:44Z</time>
      </trkpt>
      <trkpt lat="45.04404" lon="6.74612">
        <ele>1369.33</ele>
        <time>2017-01-03T07:26:45Z</time>
      </trkpt>
      <trkpt lat="45.04391" lon="6.74593">
        <ele>1369.53</ele>
        <time>2017-01-03T07:26:46Z</time>
      </trkpt>
      <trkpt lat="45.04363" lon="6.74563">
        <ele>1367.15</ele>
        <time>2017-01-03T07:26:48Z</time>
      </trkpt>
      <trkpt lat="45.04343" lon="6.74529">
        <ele>1369.46</ele>
        <time>2017-01-03T07:26:49Z</time>
      </trkpt>
      <trkpt lat="45.04329" lon="6.74494">
        <ele>1375.82</ele>
        <time>2017-01-03T07:26:51Z</time>
      </trkpt>
      <trkpt lat="45.0432" lon="6.74445">
        <ele>1383.68</ele>
        <time>2017-01-03T07:26:53Z</time>
      </trkpt>
      <trkpt lat="45.04318" lon="6.74397">
        <ele>1390.34</ele>
        <time>2017-01-03T07:26:55Z</time>
      </trkpt>
      <trkpt lat="45.04314" lon="6.74372">
        <ele>1392.69</ele>
        <time>2017-01-03T07:26:56Z</time>
      </trkpt>
      <trkpt lat="45.04306" lon="6.74339">
        <ele>1396.74</ele>
        <time>2017-01-03T07:26:57Z</time>
      </trkpt>
      <trkpt lat="45.04298" lon="6.74314">
        <ele>1400.7</ele>
        <time>2017-01-03T07:26:58Z</time>
      </trkpt>
      <trkpt lat="45.04294" lon="6.7429">
        <ele>1403.82</ele>
        <time>2017-01-03T07:26:59Z</time>
      </trkpt>
      <trkpt lat="45.04293" lon="6.74254">
        <ele>1407.08</ele>
        <time>2017-01-03T07:27:00Z</time>
      </trkpt>
      <trkpt lat="45.04297" lon="6.74203">
        <ele>1414</ele>
        <time>2017-01-03T07:27:02Z</time>
      </trkpt>
      <trkpt lat="45.04297" lon="6.74153">
        <ele>1419.49</ele>
        <time>2017-01-03T07:27:04Z</time>
      </trkpt>
      <trkpt lat="45.04295" lon="6.74125">
        <ele>1420.72</ele>
        <time>2017-01-03T07:27:06Z</time>
      </trkpt>
      <trkpt lat="45.04313" lon="6.74086">
        <ele>1428.88</ele>
        <time>2017-01-03T07:27:07Z</time>
      </trkpt>
      <trkpt lat="45.04329" lon="6.74064">
        <ele>1435.58</ele>
        <time>2017-01-03T07:27:09Z</time>
      </trkpt>
      <trkpt lat="45.04343" lon="6.74016">
        <ele>1439.27</ele>
        <time>2017-01-03T07:27:11Z</time>
      </trkpt>
      <trkpt lat="45.04352" lon="6.73971">
        <ele>1441.15</ele>
        <time>2017-01-03T07:27:12Z</time>
      </trkpt>
      <trkpt lat="45.04352" lon="6.73987">
        <ele>1440.46</ele>
        <time>2017-01-03T07:27:14Z</time>
      </trkpt>
      <trkpt lat="45.04352" lon="6.73877">
        <ele>1451.58</ele>
        <time>2017-01-03T07:27:18Z</time>
      </trkpt>
      <trkpt lat="45.04401" lon="6.73727">
        <ele>1455.52</ele>
        <time>2017-01-03T07:27:25Z</time>
      </trkpt>
      <trkpt lat="45.04412" lon="6.73706">
        <ele>1453.21</ele>
        <time>2017-01-03T07:27:26Z</time>
      </trkpt>
      <trkpt lat="45.0443" lon="6.737">
        <ele>1449.97</ele>
        <time>2017-01-03T07:27:27Z</time>
      </trkpt>
      <trkpt lat="45.04496" lon="6.73524">
        <ele>1466.18</ele>
        <time>2017-01-03T07:27:34Z</time>
      </trkpt>
      <trkpt lat="45.04494" lon="6.73461">
        <ele>1467.07</ele>
        <time>2017-01-03T07:27:37Z</time>
      </trkpt>
      <trkpt lat="45.04483" lon="6.73423">
        <ele>1467.78</ele>
        <time>2017-01-03T07:27:38Z</time>
      </trkpt>
      <trkpt lat="45.04445" lon="6.73351">
        <ele>1476.02</ele>
        <time>2017-01-03T07:27:42Z</time>
      </trkpt>
      <trkpt lat="45.04431" lon="6.73164">
        <ele>1466.34</ele>
        <time>2017-01-03T07:27:49Z</time>
      </trkpt>
      <trkpt lat="45.04411" lon="6.73113">
        <ele>1477.33</ele>
        <time>2017-01-03T07:27:51Z</time>
      </trkpt>
      <trkpt lat="45.0442" lon="6.73075">
        <ele>1474.26</ele>
        <time>2017-01-03T07:27:53Z</time>
      </trkpt>
      <trkpt lat="45.04443" lon="6.73038">
        <ele>1471.13</ele>
        <time>2017-01-03T07:27:55Z</time>
      </trkpt>
      <trkpt lat="45.04438" lon="6.73016">
        <ele>1476.09</ele>
        <time>2017-01-03T07:27:56Z</time>
      </trkpt>
      <trkpt lat="45.04457" lon="6.72951">
        <ele>1476.78</ele>
        <time>2017-01-03T07:27:58Z</time>
      </trkpt>
      <trkpt lat="45.04413" lon="6.7291">
        <ele>1490.12</ele>
        <time>2017-01-03T07:28:01Z</time>
      </trkpt>
      <trkpt lat="45.04352" lon="6.72913">
        <ele>1497.9</ele>
        <time>2017-01-03T07:28:05Z</time>
      </trkpt>
      <trkpt lat="45.04361" lon="6.72883">
        <ele>1499.5</ele>
        <time>2017-01-03T07:28:06Z</time>
      </trkpt>
      <trkpt lat="45.04378" lon="6.7287">
        <ele>1500.94</ele>
        <time>2017-01-03T07:28:07Z</time>
      </trkpt>
      <trkpt lat="45.04444" lon="6.72879">
        <ele>1492.66</ele>
        <time>2017-01-03T07:28:11Z</time>
      </trkpt>
      <trkpt lat="45.04523" lon="6.72925">
        <ele>1484.07</ele>
        <time>2017-01-03T07:28:15Z</time>
      </trkpt>
      <trkpt lat="45.04543" lon="6.72978">
        <ele>1475.06</ele>
        <time>2017-01-03T07:28:18Z</time>
      </trkpt>
      <trkpt lat="45.04569" lon="6.72994">
        <ele>1478.55</ele>
        <time>2017-01-03T07:28:19Z</time>
      </trkpt>
      <trkpt lat="45.04627" lon="6.72948">
        <ele>1482.45</ele>
        <time>2017-01-03T07:28:23Z</time>
      </trkpt>
      <trkpt lat="45.04643" lon="6.72853">
        <ele>1495.61</ele>
        <time>2017-01-03T07:28:27Z</time>
      </trkpt>
      <trkpt lat="45.04659" lon="6.72816">
        <ele>1503.97</ele>
        <time>2017-01-03T07:28:28Z</time>
      </trkpt>
      <trkpt lat="45.04702" lon="6.72849">
        <ele>1498.2</ele>
        <time>2017-01-03T07:28:31Z</time>
      </trkpt>
      <trkpt lat="45.04706" lon="6.72878">
        <ele>1488.43</ele>
        <time>2017-01-03T07:28:32Z</time>
      </trkpt>
      <trkpt lat="45.04739" lon="6.729">
        <ele>1498.96</ele>
        <time>2017-01-03T07:28:34Z</time>
      </trkpt>
      <trkpt lat="45.04756" lon="6.72945">
        <ele>1492.45</ele>
        <time>2017-01-03T07:28:36Z</time>
      </trkpt>
      <trkpt lat="45.04784" lon="6.72962">
        <ele>1497.52</ele>
        <time>2017-01-03T07:28:38Z</time>
      </trkpt>
      <trkpt lat="45.04763" lon="6.7296">
        <ele>1489.78</ele>
        <time>2017-01-03T07:28:39Z</time>
      </trkpt>
      <trkpt lat="45.04777" lon="6.72966">
        <ele>1493.24</ele>
        <time>2017-01-03T07:28:40Z</time>
      </trkpt>
      <trkpt lat="45.04785" lon="6.72975">
        <ele>1491.13</ele>
        <time>2017-01-03T07:28:40Z</time>
      </trkpt>
      <trkpt lat="45.04818" lon="6.72957">
        <ele>1509.21</ele>
        <time>2017-01-03T07:28:42Z</time>
      </trkpt>
      <trkpt lat="45.04828" lon="6.72955">
        <ele>1512.95</ele>
        <time>2017-01-03T07:28:43Z</time>
      </trkpt>
      <trkpt lat="45.04838" lon="6.72956">
        <ele>1514.65</ele>
        <time>2017-01-03T07:28:43Z</time>
      </trkpt>
      <trkpt lat="45.04848" lon="6.72959">
        <ele>1514.85</ele>
        <time>2017-01-03T07:28:44Z</time>
      </trkpt>
      <trkpt lat="45.04863" lon="6.72967">
        <ele>1514.23</ele>
        <time>2017-01-03T07:28:45Z</time>
      </trkpt>
      <trkpt lat="45.04899" lon="6.72986">
        <ele>1514.81</ele>
        <time>2017-01-03T07:28:47Z</time>
      </trkpt>
      <trkpt lat="45.04932" lon="6.72994">
        <ele>1522.26</ele>
        <time>2017-01-03T07:28:49Z</time>
      </trkpt>
      <trkpt lat="45.04938" lon="6.73013">
        <ele>1520.29</ele>
        <time>2017-01-03T07:28:50Z</time>
      </trkpt>
      <trkpt lat="45.04949" lon="6.7304">
        <ele>1518.78</ele>
        <time>2017-01-03T07:28:51Z</time>
      </trkpt>
      <trkpt lat="45.04961" lon="6.7306">
        <ele>1517.74</ele>
        <time>2017-01-03T07:28:52Z</time>
      </trkpt>
      <trkpt lat="45.04977" lon="6.7306">
        <ele>1520.76</ele>
        <time>2017-01-03T07:28:53Z</time>
      </trkpt>
      <trkpt lat="45.04984" lon="6.7305">
        <ele>1523.95</ele>
        <time>2017-01-03T07:28:53Z</time>
      </trkpt>
      <trkpt lat="45.04991" lon="6.73026">
        <ele>1531.08</ele>
        <time>2017-01-03T07:28:54Z</time>
      </trkpt>
      <trkpt lat="45.05011" lon="6.73029">
        <ele>1535.04</ele>
        <time>2017-01-03T07:28:56Z</time>
      </trkpt>
      <trkpt lat="45.05027" lon="6.73048">
        <ele>1533.72</ele>
        <time>2017-01-03T07:28:57Z</time>
      </trkpt>
      <trkpt lat="45.05036" lon="6.73065">
        <ele>1532.67</ele>
        <time>2017-01-03T07:28:58Z</time>
      </trkpt>
      <trkpt lat="45.05057" lon="6.73092">
        <ele>1534.97</ele>
        <time>2017-01-03T07:28:59Z</time>
      </trkpt>
      <trkpt lat="45.05087" lon="6.73118">
        <ele>1544.14</ele>
        <time>2017-01-03T07:29:01Z</time>
      </trkpt>
      <trkpt lat="45.05104" lon="6.73142">
        <ele>1548.61</ele>
        <time>2017-01-03T07:29:02Z</time>
      </trkpt>
      <trkpt lat="45.05109" lon="6.73157">
        <ele>1549.71</ele>
        <time>2017-01-03T07:29:03Z</time>
      </trkpt>
      <trkpt lat="45.05113" lon="6.73184">
        <ele>1550.53</ele>
        <time>2017-01-03T07:29:04Z</time>
      </trkpt>
      <trkpt lat="45.05115" lon="6.73215">
        <ele>1550.88</ele>
        <time>2017-01-03T07:29:05Z</time>
      </trkpt>
      <trkpt lat="45.05129" lon="6.73211">
        <ele>1554.12</ele>
        <time>2017-01-03T07:29:06Z</time>
      </trkpt>
      <trkpt lat="45.05147" lon="6.73157">
        <ele>1560.85</ele>
        <time>2017-01-03T07:29:09Z</time>
      </trkpt>
      <trkpt lat="45.0515" lon="6.73124">
        <ele>1562.98</ele>
        <time>2017-01-03T07:29:10Z</time>
      </trkpt>
      <trkpt lat="45.05148" lon="6.73108">
        <ele>1564.09</ele>
        <time>2017-01-03T07:29:11Z</time>
      </trkpt>
      <trkpt lat="45.05139" lon="6.73095">
        <ele>1564.34</ele>
        <time>2017-01-03T07:29:11Z</time>
      </trkpt>
      <trkpt lat="45.05134" lon="6.73075">
        <ele>1566.55</ele>
        <time>2017-01-03T07:29:12Z</time>
      </trkpt>
      <trkpt lat="45.05131" lon="6.73053">
        <ele>1570.31</ele>
        <time>2017-01-03T07:29:13Z</time>
      </trkpt>
      <trkpt lat="45.05123" lon="6.73035">
        <ele>1571.46</ele>
        <time>2017-01-03T07:29:14Z</time>
      </trkpt>
      <trkpt lat="45.05114" lon="6.73024">
        <ele>1570.76</ele>
        <time>2017-01-03T07:29:14Z</time>
      </trkpt>
      <trkpt lat="45.05104" lon="6.73003">
        <ele>1572.26</ele>
        <time>2017-01-03T07:29:15Z</time>
      </trkpt>
      <trkpt lat="45.05091" lon="6.72963">
        <ele>1575.99</ele>
        <time>2017-01-03T07:29:17Z</time>
      </trkpt>
      <trkpt lat="45.05078" lon="6.72912">
        <ele>1582.86</ele>
        <time>2017-01-03T07:29:19Z</time>
      </trkpt>
      <trkpt lat="45.05069" lon="6.72888">
        <ele>1587.15</ele>
        <time>2017-01-03T07:29:20Z</time>
      </trkpt>
      <trkpt lat="45.05061" lon="6.72878">
        <ele>1588.23</ele>
        <time>2017-01-03T07:29:21Z</time>
      </trkpt>
      <trkpt lat="45.0505" lon="6.72871">
        <ele>1588.61</ele>
        <time>2017-01-03T07:29:22Z</time>
      </trkpt>
      <trkpt lat="45.05035" lon="6.72866">
        <ele>1588.85</ele>
        <time>2017-01-03T07:29:22Z</time>
      </trkpt>
      <trkpt lat="45.05022" lon="6.72866">
        <ele>1587.96</ele>
        <time>2017-01-03T07:29:23Z</time>
      </trkpt>
      <trkpt lat="45.05009" lon="6.72861">
        <ele>1589.36</ele>
        <time>2017-01-03T07:29:24Z</time>
      </trkpt>
      <trkpt lat="45.04999" lon="6.72851">
        <ele>1592.61</ele>
        <time>2017-01-03T07:29:24Z</time>
      </trkpt>
      <trkpt lat="45.04987" lon="6.72843">
        <ele>1595.5</ele>
        <time>2017-01-03T07:29:25Z</time>
      </trkpt>
      <trkpt lat="45.04966" lon="6.7285">
        <ele>1591.08</ele>
        <time>2017-01-03T07:29:26Z</time>
      </trkpt>
      <trkpt lat="45.04955" lon="6.72853">
        <ele>1587.7</ele>
        <time>2017-01-03T07:29:27Z</time>
      </trkpt>
      <trkpt lat="45.04946" lon="6.72843">
        <ele>1590.76</ele>
        <time>2017-01-03T07:29:28Z</time>
      </trkpt>
      <trkpt lat="45.04932" lon="6.72822">
        <ele>1598.56</ele>
        <time>2017-01-03T07:29:29Z</time>
      </trkpt>
      <trkpt lat="45.04913" lon="6.72807">
        <ele>1600.19</ele>
        <time>2017-01-03T07:29:30Z</time>
      </trkpt>
      <trkpt lat="45.04924" lon="6.72797">
        <ele>1607.99</ele>
        <time>2017-01-03T07:29:31Z</time>
      </trkpt>
      <trkpt lat="45.04936" lon="6.72809">
        <ele>1606.43</ele>
        <time>2017-01-03T07:29:32Z</time>
      </trkpt>
      <trkpt lat="45.04956" lon="6.72815">
        <ele>1606.82</ele>
        <time>2017-01-03T07:29:33Z</time>
      </trkpt>
      <trkpt lat="45.04979" lon="6.72813">
        <ele>1608.92</ele>
        <time>2017-01-03T07:29:34Z</time>
      </trkpt>
      <trkpt lat="45.05006" lon="6.72788">
        <ele>1616.95</ele>
        <time>2017-01-03T07:29:36Z</time>
      </trkpt>
      <trkpt lat="45.05017" lon="6.72776">
        <ele>1621.6</ele>
        <time>2017-01-03T07:29:37Z</time>
      </trkpt>
      <trkpt lat="45.05028" lon="6.72772">
        <ele>1622.88</ele>
        <time>2017-01-03T07:29:37Z</time>
      </trkpt>
      <trkpt lat="45.05058" lon="6.72775">
        <ele>1623.63</ele>
        <time>2017-01-03T07:29:39Z</time>
      </trkpt>
      <trkpt lat="45.05069" lon="6.72781">
        <ele>1623.57</ele>
        <time>2017-01-03T07:29:40Z</time>
      </trkpt>
      <trkpt lat="45.05067" lon="6.72753">
        <ele>1634.28</ele>
        <time>2017-01-03T07:29:41Z</time>
      </trkpt>
      <trkpt lat="45.05051" lon="6.7274">
        <ele>1636.53</ele>
        <time>2017-01-03T07:29:42Z</time>
      </trkpt>
      <trkpt lat="45.05038" lon="6.72726">
        <ele>1641.15</ele>
        <time>2017-01-03T07:29:43Z</time>
      </trkpt>
      <trkpt lat="45.05028" lon="6.7272">
        <ele>1642.82</ele>
        <time>2017-01-03T07:29:44Z</time>
      </trkpt>
      <trkpt lat="45.05017" lon="6.7272">
        <ele>1642.41</ele>
        <time>2017-01-03T07:29:45Z</time>
      </trkpt>
      <trkpt lat="45.05" lon="6.72716">
        <ele>1643.24</ele>
        <time>2017-01-03T07:29:46Z</time>
      </trkpt>
      <trkpt lat="45.04984" lon="6.72706">
        <ele>1646.17</ele>
        <time>2017-01-03T07:29:46Z</time>
      </trkpt>
      <trkpt lat="45.04967" lon="6.72698">
        <ele>1647.2</ele>
        <time>2017-01-03T07:29:47Z</time>
      </trkpt>
      <trkpt lat="45.04954" lon="6.72688">
        <ele>1648.15</ele>
        <time>2017-01-03T07:29:48Z</time>
      </trkpt>
      <trkpt lat="45.04942" lon="6.7268">
        <ele>1648.94</ele>
        <time>2017-01-03T07:29:49Z</time>
      </trkpt>
      <trkpt lat="45.04913" lon="6.7268">
        <ele>1645.95</ele>
        <time>2017-01-03T07:29:51Z</time>
      </trkpt>
      <trkpt lat="45.04901" lon="6.72674">
        <ele>1645.39</ele>
        <time>2017-01-03T07:29:51Z</time>
      </trkpt>
      <trkpt lat="45.04891" lon="6.7267">
        <ele>1644.49</ele>
        <time>2017-01-03T07:29:52Z</time>
      </trkpt>
      <trkpt lat="45.04886" lon="6.7265">
        <ele>1645.39</ele>
        <time>2017-01-03T07:29:53Z</time>
      </trkpt>
      <trkpt lat="45.04913" lon="6.72659">
        <ele>1652.23</ele>
        <time>2017-01-03T07:29:54Z</time>
      </trkpt>
      <trkpt lat="45.04927" lon="6.7266">
        <ele>1653.75</ele>
        <time>2017-01-03T07:29:55Z</time>
      </trkpt>
      <trkpt lat="45.04945" lon="6.72646">
        <ele>1659.77</ele>
        <time>2017-01-03T07:29:56Z</time>
      </trkpt>
      <trkpt lat="45.04958" lon="6.72642">
        <ele>1662.89</ele>
        <time>2017-01-03T07:29:57Z</time>
      </trkpt>
      <trkpt lat="45.04982" lon="6.72637">
        <ele>1668.16</ele>
        <time>2017-01-03T07:29:58Z</time>
      </trkpt>
      <trkpt lat="45.04995" lon="6.72632">
        <ele>1672.01</ele>
        <time>2017-01-03T07:29:59Z</time>
      </trkpt>
      <trkpt lat="45.05005" lon="6.72625">
        <ele>1676.22</ele>
        <time>2017-01-03T07:30:00Z</time>
      </trkpt>
      <trkpt lat="45.05041" lon="6.7263">
        <ele>1678.8</ele>
        <time>2017-01-03T07:30:02Z</time>
      </trkpt>
      <trkpt lat="45.05066" lon="6.72622">
        <ele>1684.5</ele>
        <time>2017-01-03T07:30:03Z</time>
      </trkpt>
      <trkpt lat="45.05089" lon="6.72617">
        <ele>1690.13</ele>
        <time>2017-01-03T07:30:04Z</time>
      </trkpt>
      <trkpt lat="45.05104" lon="6.72622">
        <ele>1692.85</ele>
        <time>2017-01-03T07:30:05Z</time>
      </trkpt>
      <trkpt lat="45.05136" lon="6.72634">
        <ele>1696.3</ele>
        <time>2017-01-03T07:30:07Z</time>
      </trkpt>
      <trkpt lat="45.05172" lon="6.72645">
        <ele>1697.01</ele>
        <time>2017-01-03T07:30:09Z</time>
      </trkpt>
      <trkpt lat="45.05182" lon="6.72646">
        <ele>1697.43</ele>
        <time>2017-01-03T07:30:10Z</time>
      </trkpt>
      <trkpt lat="45.05199" lon="6.72639">
        <ele>1701.29</ele>
        <time>2017-01-03T07:30:11Z</time>
      </trkpt>
      <trkpt lat="45.05211" lon="6.72648">
        <ele>1699.69</ele>
        <time>2017-01-03T07:30:11Z</time>
      </trkpt>
      <trkpt lat="45.05222" lon="6.72656">
        <ele>1699.27</ele>
        <time>2017-01-03T07:30:12Z</time>
      </trkpt>
      <trkpt lat="45.05227" lon="6.72637">
        <ele>1703.74</ele>
        <time>2017-01-03T07:30:13Z</time>
      </trkpt>
      <trkpt lat="45.05208" lon="6.72625">
        <ele>1705.74</ele>
        <time>2017-01-03T07:30:14Z</time>
      </trkpt>
      <trkpt lat="45.05188" lon="6.72608">
        <ele>1711.04</ele>
        <time>2017-01-03T07:30:16Z</time>
      </trkpt>
      <trkpt lat="45.05147" lon="6.72571">
        <ele>1720.98</ele>
        <time>2017-01-03T07:30:18Z</time>
      </trkpt>
      <trkpt lat="45.05133" lon="6.7257">
        <ele>1720.64</ele>
        <time>2017-01-03T07:30:19Z</time>
      </trkpt>
      <trkpt lat="45.05116" lon="6.72574">
        <ele>1717.22</ele>
        <time>2017-01-03T07:30:20Z</time>
      </trkpt>
      <trkpt lat="45.05097" lon="6.7257">
        <ele>1712.96</ele>
        <time>2017-01-03T07:30:21Z</time>
      </trkpt>
      <trkpt lat="45.05087" lon="6.72563">
        <ele>1711.74</ele>
        <time>2017-01-03T07:30:22Z</time>
      </trkpt>
      <trkpt lat="45.05066" lon="6.72521">
        <ele>1729.14</ele>
        <time>2017-01-03T07:30:24Z</time>
      </trkpt>
      <trkpt lat="45.05048" lon="6.72509">
        <ele>1731.52</ele>
        <time>2017-01-03T07:30:25Z</time>
      </trkpt>
      <trkpt lat="45.05016" lon="6.72506">
        <ele>1727.8</ele>
        <time>2017-01-03T07:30:27Z</time>
      </trkpt>
      <trkpt lat="45.05005" lon="6.725">
        <ele>1728.72</ele>
        <time>2017-01-03T07:30:27Z</time>
      </trkpt>
      <trkpt lat="45.04995" lon="6.72491">
        <ele>1730.04</ele>
        <time>2017-01-03T07:30:28Z</time>
      </trkpt>
      <trkpt lat="45.04985" lon="6.72466">
        <ele>1735.15</ele>
        <time>2017-01-03T07:30:29Z</time>
      </trkpt>
      <trkpt lat="45.04971" lon="6.72416">
        <ele>1739.61</ele>
        <time>2017-01-03T07:30:31Z</time>
      </trkpt>
      <trkpt lat="45.0496" lon="6.72363">
        <ele>1742.8</ele>
        <time>2017-01-03T07:30:33Z</time>
      </trkpt>
      <trkpt lat="45.0496" lon="6.7234">
        <ele>1743.84</ele>
        <time>2017-01-03T07:30:34Z</time>
      </trkpt>
      <trkpt lat="45.04956" lon="6.72313">
        <ele>1743.26</ele>
        <time>2017-01-03T07:30:35Z</time>
      </trkpt>
      <trkpt lat="45.04952" lon="6.72246">
        <ele>1750.66</ele>
        <time>2017-01-03T07:30:38Z</time>
      </trkpt>
      <trkpt lat="45.04953" lon="6.72216">
        <ele>1755.07</ele>
        <time>2017-01-03T07:30:39Z</time>
      </trkpt>
      <trkpt lat="45.04955" lon="6.72198">
        <ele>1757.44</ele>
        <time>2017-01-03T07:30:40Z</time>
      </trkpt>
      <trkpt lat="45.04962" lon="6.72179">
        <ele>1762.09</ele>
        <time>2017-01-03T07:30:41Z</time>
      </trkpt>
      <trkpt lat="45.04977" lon="6.7214">
        <ele>1768.56</ele>
        <time>2017-01-03T07:30:42Z</time>
      </trkpt>
      <trkpt lat="45.04984" lon="6.72107">
        <ele>1770.32</ele>
        <time>2017-01-03T07:30:44Z</time>
      </trkpt>
      <trkpt lat="45.0499" lon="6.72019">
        <ele>1777.07</ele>
        <time>2017-01-03T07:30:47Z</time>
      </trkpt>
      <trkpt lat="45.05002" lon="6.71933">
        <ele>1792.97</ele>
        <time>2017-01-03T07:30:50Z</time>
      </trkpt>
      <trkpt lat="45.05002" lon="6.71894">
        <ele>1799.55</ele>
        <time>2017-01-03T07:30:52Z</time>
      </trkpt>
      <trkpt lat="45.04994" lon="6.71873">
        <ele>1802.3</ele>
        <time>2017-01-03T07:30:53Z</time>
      </trkpt>
      <trkpt lat="45.04981" lon="6.71864">
        <ele>1802.5</ele>
        <time>2017-01-03T07:30:54Z</time>
      </trkpt>
      <trkpt lat="45.04969" lon="6.71864">
        <ele>1801.02</ele>
        <time>2017-01-03T07:30:54Z</time>
      </trkpt>
      <trkpt lat="45.04938" lon="6.71874">
        <ele>1794.09</ele>
        <time>2017-01-03T07:30:56Z</time>
      </trkpt>
      <trkpt lat="45.04928" lon="6.71871">
        <ele>1792</ele>
        <time>2017-01-03T07:30:57Z</time>
      </trkpt>
      <trkpt lat="45.04925" lon="6.71851">
        <ele>1792.72</ele>
        <time>2017-01-03T07:30:57Z</time>
      </trkpt>
      <trkpt lat="45.04936" lon="6.71817">
        <ele>1797.76</ele>
        <time>2017-01-03T07:30:59Z</time>
      </trkpt>
      <trkpt lat="45.04947" lon="6.71801">
        <ele>1802.18</ele>
        <time>2017-01-03T07:31:00Z</time>
      </trkpt>
      <trkpt lat="45.04959" lon="6.71793">
        <ele>1805.48</ele>
        <time>2017-01-03T07:31:00Z</time>
      </trkpt>
      <trkpt lat="45.0497" lon="6.71792">
        <ele>1807.57</ele>
        <time>2017-01-03T07:31:01Z</time>
      </trkpt>
      <trkpt lat="45.04997" lon="6.71796">
        <ele>1812.76</ele>
        <time>2017-01-03T07:31:03Z</time>
      </trkpt>
      <trkpt lat="45.05026" lon="6.71799">
        <ele>1816.91</ele>
        <time>2017-01-03T07:31:04Z</time>
      </trkpt>
      <trkpt lat="45.05049" lon="6.71812">
        <ele>1818.36</ele>
        <time>2017-01-03T07:31:06Z</time>
      </trkpt>
      <trkpt lat="45.05072" lon="6.71839">
        <ele>1820.39</ele>
        <time>2017-01-03T07:31:07Z</time>
      </trkpt>
      <trkpt lat="45.05082" lon="6.71859">
        <ele>1822.62</ele>
        <time>2017-01-03T07:31:08Z</time>
      </trkpt>
      <trkpt lat="45.05086" lon="6.71887">
        <ele>1824.05</ele>
        <time>2017-01-03T07:31:09Z</time>
      </trkpt>
      <trkpt lat="45.05083" lon="6.71934">
        <ele>1824.46</ele>
        <time>2017-01-03T07:31:11Z</time>
      </trkpt>
      <trkpt lat="45.05084" lon="6.71982">
        <ele>1825.23</ele>
        <time>2017-01-03T07:31:13Z</time>
      </trkpt>
      <trkpt lat="45.05087" lon="6.71997">
        <ele>1825.98</ele>
        <time>2017-01-03T07:31:14Z</time>
      </trkpt>
      <trkpt lat="45.05114" lon="6.72025">
        <ele>1829.54</ele>
        <time>2017-01-03T07:31:15Z</time>
      </trkpt>
      <trkpt lat="45.05125" lon="6.72037">
        <ele>1832.01</ele>
        <time>2017-01-03T07:31:16Z</time>
      </trkpt>
      <trkpt lat="45.05132" lon="6.72053">
        <ele>1832.42</ele>
        <time>2017-01-03T07:31:17Z</time>
      </trkpt>
      <trkpt lat="45.05143" lon="6.72044">
        <ele>1838.21</ele>
        <time>2017-01-03T07:31:18Z</time>
      </trkpt>
      <trkpt lat="45.05149" lon="6.72019">
        <ele>1844.15</ele>
        <time>2017-01-03T07:31:19Z</time>
      </trkpt>
      <trkpt lat="45.05151" lon="6.71994">
        <ele>1847.7</ele>
        <time>2017-01-03T07:31:20Z</time>
      </trkpt>
      <trkpt lat="45.05145" lon="6.71971">
        <ele>1846.99</ele>
        <time>2017-01-03T07:31:21Z</time>
      </trkpt>
      <trkpt lat="45.05147" lon="6.71948">
        <ele>1847.88</ele>
        <time>2017-01-03T07:31:21Z</time>
      </trkpt>
      <trkpt lat="45.05171" lon="6.71905">
        <ele>1855.3</ele>
        <time>2017-01-03T07:31:24Z</time>
      </trkpt>
      <trkpt lat="45.05185" lon="6.71883">
        <ele>1859.98</ele>
        <time>2017-01-03T07:31:25Z</time>
      </trkpt>
      <trkpt lat="45.05192" lon="6.71866">
        <ele>1861.53</ele>
        <time>2017-01-03T07:31:25Z</time>
      </trkpt>
      <trkpt lat="45.05198" lon="6.71844">
        <ele>1862</ele>
        <time>2017-01-03T07:31:26Z</time>
      </trkpt>
      <trkpt lat="45.05198" lon="6.71812">
        <ele>1860.41</ele>
        <time>2017-01-03T07:31:28Z</time>
      </trkpt>
      <trkpt lat="45.05207" lon="6.71791">
        <ele>1863.54</ele>
        <time>2017-01-03T07:31:29Z</time>
      </trkpt>
      <trkpt lat="45.05215" lon="6.71776">
        <ele>1867.36</ele>
        <time>2017-01-03T07:31:29Z</time>
      </trkpt>
      <trkpt lat="45.05208" lon="6.71738">
        <ele>1868.64</ele>
        <time>2017-01-03T07:31:31Z</time>
      </trkpt>
      <trkpt lat="45.05207" lon="6.71718">
        <ele>1870.11</ele>
        <time>2017-01-03T07:31:32Z</time>
      </trkpt>
      <trkpt lat="45.0522" lon="6.71619">
        <ele>1885.8</ele>
        <time>2017-01-03T07:31:36Z</time>
      </trkpt>
      <trkpt lat="45.05224" lon="6.71566">
        <ele>1895.02</ele>
        <time>2017-01-03T07:31:38Z</time>
      </trkpt>
      <trkpt lat="45.05214" lon="6.71541">
        <ele>1895.44</ele>
        <time>2017-01-03T07:31:39Z</time>
      </trkpt>
      <trkpt lat="45.05196" lon="6.71519">
        <ele>1896.79</ele>
        <time>2017-01-03T07:31:40Z</time>
      </trkpt>
      <trkpt lat="45.05189" lon="6.71501">
        <ele>1900.94</ele>
        <time>2017-01-03T07:31:41Z</time>
      </trkpt>
      <trkpt lat="45.05184" lon="6.71481">
        <ele>1907.17</ele>
        <time>2017-01-03T07:31:42Z</time>
      </trkpt>
      <trkpt lat="45.05184" lon="6.71455">
        <ele>1916.68</ele>
        <time>2017-01-03T07:31:43Z</time>
      </trkpt>
      <trkpt lat="45.0519" lon="6.71438">
        <ele>1922.96</ele>
        <time>2017-01-03T07:31:43Z</time>
      </trkpt>
      <trkpt lat="45.05201" lon="6.71431">
        <ele>1926.31</ele>
        <time>2017-01-03T07:31:44Z</time>
      </trkpt>
      <trkpt lat="45.05218" lon="6.71438">
        <ele>1926.93</ele>
        <time>2017-01-03T07:31:45Z</time>
      </trkpt>
      <trkpt lat="45.05235" lon="6.71463">
        <ele>1924.7</ele>
        <time>2017-01-03T07:31:46Z</time>
      </trkpt>
      <trkpt lat="45.05258" lon="6.7149">
        <ele>1924.11</ele>
        <time>2017-01-03T07:31:48Z</time>
      </trkpt>
      <trkpt lat="45.05289" lon="6.71489">
        <ele>1933.68</ele>
        <time>2017-01-03T07:31:50Z</time>
      </trkpt>
      <trkpt lat="45.053" lon="6.71496">
        <ele>1935.18</ele>
        <time>2017-01-03T07:31:50Z</time>
      </trkpt>
      <trkpt lat="45.05305" lon="6.71517">
        <ele>1933.34</ele>
        <time>2017-01-03T07:31:51Z</time>
      </trkpt>
      <trkpt lat="45.05309" lon="6.71564">
        <ele>1927.93</ele>
        <time>2017-01-03T07:31:53Z</time>
      </trkpt>
      <trkpt lat="45.05313" lon="6.71609">
        <ele>1923.61</ele>
        <time>2017-01-03T07:31:55Z</time>
      </trkpt>
      <trkpt lat="45.05317" lon="6.71623">
        <ele>1923.68</ele>
        <time>2017-01-03T07:31:55Z</time>
      </trkpt>
      <trkpt lat="45.0533" lon="6.71632">
        <ele>1926.75</ele>
        <time>2017-01-03T07:31:56Z</time>
      </trkpt>
      <trkpt lat="45.05325" lon="6.71606">
        <ele>1927.93</ele>
        <time>2017-01-03T07:31:58Z</time>
      </trkpt>
      <trkpt lat="45.05323" lon="6.71591">
        <ele>1929.01</ele>
        <time>2017-01-03T07:31:58Z</time>
      </trkpt>
      <trkpt lat="45.05326" lon="6.71563">
        <ele>1935.3</ele>
        <time>2017-01-03T07:31:59Z</time>
      </trkpt>
      <trkpt lat="45.05328" lon="6.71539">
        <ele>1939.6</ele>
        <time>2017-01-03T07:32:00Z</time>
      </trkpt>
      <trkpt lat="45.05325" lon="6.71484">
        <ele>1946.58</ele>
        <time>2017-01-03T07:32:02Z</time>
      </trkpt>
      <trkpt lat="45.05288" lon="6.71455">
        <ele>1941.61</ele>
        <time>2017-01-03T07:32:05Z</time>
      </trkpt>
      <trkpt lat="45.0528" lon="6.71439">
        <ele>1943.66</ele>
        <time>2017-01-03T07:32:06Z</time>
      </trkpt>
      <trkpt lat="45.05243" lon="6.71336">
        <ele>1963.9</ele>
        <time>2017-01-03T07:32:10Z</time>
      </trkpt>
      <trkpt lat="45.05219" lon="6.71327">
        <ele>1962.7</ele>
        <time>2017-01-03T07:32:11Z</time>
      </trkpt>
      <trkpt lat="45.05198" lon="6.71326">
        <ele>1962.29</ele>
        <time>2017-01-03T07:32:13Z</time>
      </trkpt>
      <trkpt lat="45.05165" lon="6.71341">
        <ele>1959.2</ele>
        <time>2017-01-03T07:32:14Z</time>
      </trkpt>
      <trkpt lat="45.05154" lon="6.71343">
        <ele>1956.97</ele>
        <time>2017-01-03T07:32:15Z</time>
      </trkpt>
      <trkpt lat="45.05135" lon="6.71292">
        <ele>1971.06</ele>
        <time>2017-01-03T07:32:17Z</time>
      </trkpt>
      <trkpt lat="45.0513" lon="6.71217">
        <ele>1984.6</ele>
        <time>2017-01-03T07:32:20Z</time>
      </trkpt>
      <trkpt lat="45.05111" lon="6.71096">
        <ele>1997.67</ele>
        <time>2017-01-03T07:32:25Z</time>
      </trkpt>
      <trkpt lat="45.05091" lon="6.7103">
        <ele>1998.35</ele>
        <time>2017-01-03T07:32:28Z</time>
      </trkpt>
      <trkpt lat="45.05083" lon="6.70997">
        <ele>1999.34</ele>
        <time>2017-01-03T07:32:29Z</time>
      </trkpt>
      <trkpt lat="45.05082" lon="6.70975">
        <ele>2002.26</ele>
        <time>2017-01-03T07:32:30Z</time>
      </trkpt>
      <trkpt lat="45.05086" lon="6.70938">
        <ele>2006.72</ele>
        <time>2017-01-03T07:32:32Z</time>
      </trkpt>
      <trkpt lat="45.05085" lon="6.70922">
        <ele>2008.17</ele>
        <time>2017-01-03T07:32:32Z</time>
      </trkpt>
      <trkpt lat="45.0506" lon="6.70878">
        <ele>2011.64</ele>
        <time>2017-01-03T07:32:34Z</time>
      </trkpt>
      <trkpt lat="45.05073" lon="6.70843">
        <ele>2020.01</ele>
        <time>2017-01-03T07:32:36Z</time>
      </trkpt>
      <trkpt lat="45.05086" lon="6.70833">
        <ele>2021.55</ele>
        <time>2017-01-03T07:32:37Z</time>
      </trkpt>
      <trkpt lat="45.05097" lon="6.70865">
        <ele>2023.44</ele>
        <time>2017-01-03T07:32:38Z</time>
      </trkpt>
      <trkpt lat="45.0511" lon="6.70904">
        <ele>2023.22</ele>
        <time>2017-01-03T07:32:40Z</time>
      </trkpt>
      <trkpt lat="45.05129" lon="6.7094">
        <ele>2024.43</ele>
        <time>2017-01-03T07:32:42Z</time>
      </trkpt>
      <trkpt lat="45.05173" lon="6.71003">
        <ele>2027.01</ele>
        <time>2017-01-03T07:32:45Z</time>
      </trkpt>
      <trkpt lat="45.05176" lon="6.71028">
        <ele>2026.34</ele>
        <time>2017-01-03T07:32:46Z</time>
      </trkpt>
      <trkpt lat="45.05173" lon="6.71044">
        <ele>2025.46</ele>
        <time>2017-01-03T07:32:47Z</time>
      </trkpt>
      <trkpt lat="45.05177" lon="6.71057">
        <ele>2025.78</ele>
        <time>2017-01-03T07:32:48Z</time>
      </trkpt>
      <trkpt lat="45.05192" lon="6.71077">
        <ele>2027.72</ele>
        <time>2017-01-03T07:32:49Z</time>
      </trkpt>
      <trkpt lat="45.05192" lon="6.71094">
        <ele>2026.25</ele>
        <time>2017-01-03T07:32:49Z</time>
      </trkpt>
      <trkpt lat="45.05192" lon="6.71135">
        <ele>2019.06</ele>
        <time>2017-01-03T07:32:51Z</time>
      </trkpt>
      <trkpt lat="45.05198" lon="6.71168">
        <ele>2013.12</ele>
        <time>2017-01-03T07:32:52Z</time>
      </trkpt>
      <trkpt lat="45.05204" lon="6.71182">
        <ele>2010.51</ele>
        <time>2017-01-03T07:32:53Z</time>
      </trkpt>
      <trkpt lat="45.05222" lon="6.71177">
        <ele>2012.64</ele>
        <time>2017-01-03T07:32:54Z</time>
      </trkpt>
      <trkpt lat="45.05275" lon="6.71125">
        <ele>2017.15</ele>
        <time>2017-01-03T07:32:58Z</time>
      </trkpt>
      <trkpt lat="45.05292" lon="6.71122">
        <ele>2014.37</ele>
        <time>2017-01-03T07:32:59Z</time>
      </trkpt>
      <trkpt lat="45.05305" lon="6.71149">
        <ele>2009.67</ele>
        <time>2017-01-03T07:33:00Z</time>
      </trkpt>
      <trkpt lat="45.05306" lon="6.71198">
        <ele>2006.57</ele>
        <time>2017-01-03T07:33:02Z</time>
      </trkpt>
      <trkpt lat="45.05309" lon="6.71297">
        <ele>1991.2</ele>
        <time>2017-01-03T07:33:06Z</time>
      </trkpt>
      <trkpt lat="45.05316" lon="6.71337">
        <ele>1983.25</ele>
        <time>2017-01-03T07:33:07Z</time>
      </trkpt>
      <trkpt lat="45.05331" lon="6.71348">
        <ele>1984.72</ele>
        <time>2017-01-03T07:33:08Z</time>
      </trkpt>
      <trkpt lat="45.05353" lon="6.71344">
        <ele>1986.58</ele>
        <time>2017-01-03T07:33:09Z</time>
      </trkpt>
      <trkpt lat="45.05404" lon="6.71321">
        <ele>1987.54</ele>
        <time>2017-01-03T07:33:12Z</time>
      </trkpt>
      <trkpt lat="45.05421" lon="6.71315">
        <ele>1986.63</ele>
        <time>2017-01-03T07:33:13Z</time>
      </trkpt>
      <trkpt lat="45.05439" lon="6.71317">
        <ele>1983.58</ele>
        <time>2017-01-03T07:33:14Z</time>
      </trkpt>
      <trkpt lat="45.05457" lon="6.71319">
        <ele>1979.38</ele>
        <time>2017-01-03T07:33:15Z</time>
      </trkpt>
      <trkpt lat="45.05485" lon="6.71284">
        <ele>1973.39</ele>
        <time>2017-01-03T07:33:17Z</time>
      </trkpt>
      <trkpt lat="45.05506" lon="6.71225">
        <ele>1959.33</ele>
        <time>2017-01-03T07:33:20Z</time>
      </trkpt>
      <trkpt lat="45.05514" lon="6.71209">
        <ele>1953.04</ele>
        <time>2017-01-03T07:33:21Z</time>
      </trkpt>
      <trkpt lat="45.05508" lon="6.71164">
        <ele>1947.64</ele>
        <time>2017-01-03T07:33:23Z</time>
      </trkpt>
      <trkpt lat="45.05494" lon="6.71108">
        <ele>1942.1</ele>
        <time>2017-01-03T07:33:25Z</time>
      </trkpt>
      <trkpt lat="45.05476" lon="6.71079">
        <ele>1942.88</ele>
        <time>2017-01-03T07:33:26Z</time>
      </trkpt>
      <trkpt lat="45.05521" lon="6.71107">
        <ele>1933.42</ele>
        <time>2017-01-03T07:33:29Z</time>
      </trkpt>
      <trkpt lat="45.05559" lon="6.71149">
        <ele>1923.27</ele>
        <time>2017-01-03T07:33:32Z</time>
      </trkpt>
      <trkpt lat="45.0557" lon="6.71295">
        <ele>1918.98</ele>
        <time>2017-01-03T07:33:37Z</time>
      </trkpt>
      <trkpt lat="45.05599" lon="6.71225">
        <ele>1911.26</ele>
        <time>2017-01-03T07:33:41Z</time>
      </trkpt>
      <trkpt lat="45.05608" lon="6.71231">
        <ele>1907.8</ele>
        <time>2017-01-03T07:33:41Z</time>
      </trkpt>
      <trkpt lat="45.0561" lon="6.71276">
        <ele>1904.49</ele>
        <time>2017-01-03T07:33:43Z</time>
      </trkpt>
      <trkpt lat="45.056" lon="6.71327">
        <ele>1902.93</ele>
        <time>2017-01-03T07:33:45Z</time>
      </trkpt>
      <trkpt lat="45.05608" lon="6.71349">
        <ele>1896.64</ele>
        <time>2017-01-03T07:33:46Z</time>
      </trkpt>
      <trkpt lat="45.05637" lon="6.71274">
        <ele>1894.95</ele>
        <time>2017-01-03T07:33:49Z</time>
      </trkpt>
      <trkpt lat="45.05648" lon="6.71173">
        <ele>1895.82</ele>
        <time>2017-01-03T07:33:53Z</time>
      </trkpt>
      <trkpt lat="45.05679" lon="6.71126">
        <ele>1886.72</ele>
        <time>2017-01-03T07:33:56Z</time>
      </trkpt>
      <trkpt lat="45.05676" lon="6.71002">
        <ele>1870.78</ele>
        <time>2017-01-03T07:34:00Z</time>
      </trkpt>
      <trkpt lat="45.05686" lon="6.71">
        <ele>1865.95</ele>
        <time>2017-01-03T07:34:01Z</time>
      </trkpt>
      <trkpt lat="45.05699" lon="6.71016">
        <ele>1863.48</ele>
        <time>2017-01-03T07:34:02Z</time>
      </trkpt>
      <trkpt lat="45.05712" lon="6.7104">
        <ele>1865.04</ele>
        <time>2017-01-03T07:34:03Z</time>
      </trkpt>
      <trkpt lat="45.05775" lon="6.71046">
        <ele>1857.34</ele>
        <time>2017-01-03T07:34:07Z</time>
      </trkpt>
      <trkpt lat="45.05823" lon="6.7108">
        <ele>1847.09</ele>
        <time>2017-01-03T07:34:10Z</time>
      </trkpt>
      <trkpt lat="45.05858" lon="6.71117">
        <ele>1843.12</ele>
        <time>2017-01-03T07:34:12Z</time>
      </trkpt>
      <trkpt lat="45.05837" lon="6.71068">
        <ele>1839.18</ele>
        <time>2017-01-03T07:34:14Z</time>
      </trkpt>
      <trkpt lat="45.05811" lon="6.7099">
        <ele>1833.84</ele>
        <time>2017-01-03T07:34:18Z</time>
      </trkpt>
      <trkpt lat="45.0586" lon="6.71042">
        <ele>1824.98</ele>
        <time>2017-01-03T07:34:21Z</time>
      </trkpt>
      <trkpt lat="45.05967" lon="6.71135">
        <ele>1805.69</ele>
        <time>2017-01-03T07:34:28Z</time>
      </trkpt>
      <trkpt lat="45.05974" lon="6.71096">
        <ele>1800.54</ele>
        <time>2017-01-03T07:34:30Z</time>
      </trkpt>
      <trkpt lat="45.05931" lon="6.71014">
        <ele>1796.72</ele>
        <time>2017-01-03T07:34:34Z</time>
      </trkpt>
      <trkpt lat="45.05928" lon="6.7095">
        <ele>1783.24</ele>
        <time>2017-01-03T07:34:36Z</time>
      </trkpt>
      <trkpt lat="45.05909" lon="6.70933">
        <ele>1783.6</ele>
        <time>2017-01-03T07:34:37Z</time>
      </trkpt>
      <trkpt lat="45.05919" lon="6.70921">
        <ele>1779.22</ele>
        <time>2017-01-03T07:34:38Z</time>
      </trkpt>
      <trkpt lat="45.05996" lon="6.70963">
        <ele>1767.4</ele>
        <time>2017-01-03T07:34:43Z</time>
      </trkpt>
      <trkpt lat="45.06016" lon="6.71009">
        <ele>1764.84</ele>
        <time>2017-01-03T07:34:45Z</time>
      </trkpt>
      <trkpt lat="45.06078" lon="6.71052">
        <ele>1749.42</ele>
        <time>2017-01-03T07:34:49Z</time>
      </trkpt>
      <trkpt lat="45.06121" lon="6.71133">
        <ele>1737.8</ele>
        <time>2017-01-03T07:34:52Z</time>
      </trkpt>
      <trkpt lat="45.06139" lon="6.71205">
        <ele>1722.53</ele>
        <time>2017-01-03T07:34:55Z</time>
      </trkpt>
      <trkpt lat="45.06151" lon="6.71083">
        <ele>1724.73</ele>
        <time>2017-01-03T07:35:00Z</time>
      </trkpt>
      <trkpt lat="45.06162" lon="6.71056">
        <ele>1716.24</ele>
        <time>2017-01-03T07:35:01Z</time>
      </trkpt>
      <trkpt lat="45.06159" lon="6.71027">
        <ele>1714.23</ele>
        <time>2017-01-03T07:35:03Z</time>
      </trkpt>
      <trkpt lat="45.0621" lon="6.71057">
        <ele>1702.27</ele>
        <time>2017-01-03T07:35:06Z</time>
      </trkpt>
      <trkpt lat="45.06247" lon="6.71137">
        <ele>1697.73</ele>
        <time>2017-01-03T07:35:09Z</time>
      </trkpt>
      <trkpt lat="45.06267" lon="6.71068">
        <ele>1686.89</ele>
        <time>2017-01-03T07:35:12Z</time>
      </trkpt>
      <trkpt lat="45.06263" lon="6.71023">
        <ele>1682.71</ele>
        <time>2017-01-03T07:35:14Z</time>
      </trkpt>
      <trkpt lat="45.06301" lon="6.71058">
        <ele>1672.77</ele>
        <time>2017-01-03T07:35:17Z</time>
      </trkpt>
      <trkpt lat="45.06322" lon="6.71136">
        <ele>1668.53</ele>
        <time>2017-01-03T07:35:20Z</time>
      </trkpt>
      <trkpt lat="45.0634" lon="6.71136">
        <ele>1663.84</ele>
        <time>2017-01-03T07:35:21Z</time>
      </trkpt>
      <trkpt lat="45.06344" lon="6.71046">
        <ele>1656.53</ele>
        <time>2017-01-03T07:35:25Z</time>
      </trkpt>
      <trkpt lat="45.06334" lon="6.70978">
        <ele>1651.6</ele>
        <time>2017-01-03T07:35:27Z</time>
      </trkpt>
      <trkpt lat="45.06373" lon="6.71008">
        <ele>1641.38</ele>
        <time>2017-01-03T07:35:30Z</time>
      </trkpt>
      <trkpt lat="45.06396" lon="6.71056">
        <ele>1638.2</ele>
        <time>2017-01-03T07:35:32Z</time>
      </trkpt>
      <trkpt lat="45.0642" lon="6.71074">
        <ele>1629.22</ele>
        <time>2017-01-03T07:35:33Z</time>
      </trkpt>
      <trkpt lat="45.06436" lon="6.71134">
        <ele>1623.49</ele>
        <time>2017-01-03T07:35:36Z</time>
      </trkpt>
      <trkpt lat="45.06468" lon="6.71188">
        <ele>1617.03</ele>
        <time>2017-01-03T07:35:39Z</time>
      </trkpt>
      <trkpt lat="45.06467" lon="6.71132">
        <ele>1614.62</ele>
        <time>2017-01-03T07:35:41Z</time>
      </trkpt>
      <trkpt lat="45.06488" lon="6.70999">
        <ele>1594.8</ele>
        <time>2017-01-03T07:35:46Z</time>
      </trkpt>
      <trkpt lat="45.06453" lon="6.70911">
        <ele>1594.55</ele>
        <time>2017-01-03T07:35:50Z</time>
      </trkpt>
      <trkpt lat="45.06454" lon="6.70848">
        <ele>1590.72</ele>
        <time>2017-01-03T07:35:52Z</time>
      </trkpt>
      <trkpt lat="45.06474" lon="6.70808">
        <ele>1586.37</ele>
        <time>2017-01-03T07:35:54Z</time>
      </trkpt>
      <trkpt lat="45.06512" lon="6.70772">
        <ele>1580.54</ele>
        <time>2017-01-03T07:35:57Z</time>
      </trkpt>
      <trkpt lat="45.06523" lon="6.70738">
        <ele>1578.87</ele>
        <time>2017-01-03T07:35:58Z</time>
      </trkpt>
      <trkpt lat="45.06566" lon="6.70687">
        <ele>1564.48</ele>
        <time>2017-01-03T07:36:01Z</time>
      </trkpt>
      <trkpt lat="45.06596" lon="6.70654">
        <ele>1551.82</ele>
        <time>2017-01-03T07:36:03Z</time>
      </trkpt>
      <trkpt lat="45.06593" lon="6.70623">
        <ele>1554.15</ele>
        <time>2017-01-03T07:36:05Z</time>
      </trkpt>
      <trkpt lat="45.06606" lon="6.70629">
        <ele>1548.09</ele>
        <time>2017-01-03T07:36:06Z</time>
      </trkpt>
      <trkpt lat="45.06612" lon="6.70657">
        <ele>1543.18</ele>
        <time>2017-01-03T07:36:07Z</time>
      </trkpt>
      <trkpt lat="45.06602" lon="6.70692">
        <ele>1546.1</ele>
        <time>2017-01-03T07:36:08Z</time>
      </trkpt>
      <trkpt lat="45.06601" lon="6.70741">
        <ele>1542.47</ele>
        <time>2017-01-03T07:36:10Z</time>
      </trkpt>
      <trkpt lat="45.06607" lon="6.70812">
        <ele>1535.82</ele>
        <time>2017-01-03T07:36:13Z</time>
      </trkpt>
      <trkpt lat="45.06627" lon="6.70796">
        <ele>1528.08</ele>
        <time>2017-01-03T07:36:14Z</time>
      </trkpt>
      <trkpt lat="45.06639" lon="6.70831">
        <ele>1523.95</ele>
        <time>2017-01-03T07:36:16Z</time>
      </trkpt>
      <trkpt lat="45.06654" lon="6.70815">
        <ele>1517.11</ele>
        <time>2017-01-03T07:36:17Z</time>
      </trkpt>
      <trkpt lat="45.06642" lon="6.70758">
        <ele>1521.27</ele>
        <time>2017-01-03T07:36:19Z</time>
      </trkpt>
      <trkpt lat="45.06667" lon="6.70798">
        <ele>1510.27</ele>
        <time>2017-01-03T07:36:21Z</time>
      </trkpt>
      <trkpt lat="45.06681" lon="6.70871">
        <ele>1506.29</ele>
        <time>2017-01-03T07:36:24Z</time>
      </trkpt>
      <trkpt lat="45.06689" lon="6.70829">
        <ele>1501.14</ele>
        <time>2017-01-03T07:36:26Z</time>
      </trkpt>
      <trkpt lat="45.06685" lon="6.708">
        <ele>1500.44</ele>
        <time>2017-01-03T07:36:27Z</time>
      </trkpt>
      <trkpt lat="45.06714" lon="6.70704">
        <ele>1483.69</ele>
        <time>2017-01-03T07:36:31Z</time>
      </trkpt>
      <trkpt lat="45.06719" lon="6.70647">
        <ele>1480.51</ele>
        <time>2017-01-03T07:36:33Z</time>
      </trkpt>
      <trkpt lat="45.06771" lon="6.70679">
        <ele>1454.8</ele>
        <time>2017-01-03T07:36:37Z</time>
      </trkpt>
      <trkpt lat="45.06787" lon="6.70709">
        <ele>1447.7</ele>
        <time>2017-01-03T07:36:38Z</time>
      </trkpt>
      <trkpt lat="45.06801" lon="6.70666">
        <ele>1441.86</ele>
        <time>2017-01-03T07:36:40Z</time>
      </trkpt>
      <trkpt lat="45.06829" lon="6.70649">
        <ele>1433.68</ele>
        <time>2017-01-03T07:36:42Z</time>
      </trkpt>
      <trkpt lat="45.06838" lon="6.70594">
        <ele>1433.77</ele>
        <time>2017-01-03T07:36:44Z</time>
      </trkpt>
      <trkpt lat="45.06864" lon="6.70543">
        <ele>1423.42</ele>
        <time>2017-01-03T07:36:46Z</time>
      </trkpt>
      <trkpt lat="45.06894" lon="6.7041">
        <ele>1413.3</ele>
        <time>2017-01-03T07:36:52Z</time>
      </trkpt>
      <trkpt lat="45.06884" lon="6.70394">
        <ele>1417.75</ele>
        <time>2017-01-03T07:36:53Z</time>
      </trkpt>
      <trkpt lat="45.0691" lon="6.70412">
        <ele>1407.06</ele>
        <time>2017-01-03T07:36:54Z</time>
      </trkpt>
      <trkpt lat="45.06926" lon="6.70441">
        <ele>1398.5</ele>
        <time>2017-01-03T07:36:56Z</time>
      </trkpt>
      <trkpt lat="45.06924" lon="6.70507">
        <ele>1400.5</ele>
        <time>2017-01-03T07:36:58Z</time>
      </trkpt>
      <trkpt lat="45.06947" lon="6.70593">
        <ele>1385.52</ele>
        <time>2017-01-03T07:37:02Z</time>
      </trkpt>
      <trkpt lat="45.06988" lon="6.70557">
        <ele>1374</ele>
        <time>2017-01-03T07:37:04Z</time>
      </trkpt>
      <trkpt lat="45.07015" lon="6.70581">
        <ele>1369.38</ele>
        <time>2017-01-03T07:37:06Z</time>
      </trkpt>
      <trkpt lat="45.07025" lon="6.70575">
        <ele>1368.3</ele>
        <time>2017-01-03T07:37:07Z</time>
      </trkpt>
      <trkpt lat="45.07035" lon="6.70532">
        <ele>1365</ele>
        <time>2017-01-03T07:37:08Z</time>
      </trkpt>
      <trkpt lat="45.0703" lon="6.70482">
        <ele>1364.42</ele>
        <time>2017-01-03T07:37:10Z</time>
      </trkpt>
      <trkpt lat="45.07041" lon="6.70412">
        <ele>1360.24</ele>
        <time>2017-01-03T07:37:13Z</time>
      </trkpt>
      <trkpt lat="45.07085" lon="6.70359">
        <ele>1341.03</ele>
        <time>2017-01-03T07:37:16Z</time>
      </trkpt>
      <trkpt lat="45.07099" lon="6.70316">
        <ele>1331.5</ele>
        <time>2017-01-03T07:37:18Z</time>
      </trkpt>
      <trkpt lat="45.07068" lon="6.7021">
        <ele>1338.76</ele>
        <time>2017-01-03T07:37:23Z</time>
      </trkpt>
      <trkpt lat="45.07087" lon="6.70107">
        <ele>1318.99</ele>
        <time>2017-01-03T07:37:27Z</time>
      </trkpt>
      <trkpt lat="45.07081" lon="6.70083">
        <ele>1315.28</ele>
        <time>2017-01-03T07:37:28Z</time>
      </trkpt>
      <trkpt lat="45.07069" lon="6.70043">
        <ele>1313.93</ele>
        <time>2017-01-03T07:37:30Z</time>
      </trkpt>
      <trkpt lat="45.07101" lon="6.69976">
        <ele>1288.15</ele>
        <time>2017-01-03T07:37:33Z</time>
      </trkpt>
      <trkpt lat="45.07112" lon="6.69891">
        <ele>1277.12</ele>
        <time>2017-01-03T07:37:36Z</time>
      </trkpt>
      <trkpt lat="45.07135" lon="6.69818">
        <ele>1267.39</ele>
        <time>2017-01-03T07:37:39Z</time>
      </trkpt>
      <trkpt lat="45.07132" lon="6.69771">
        <ele>1270.68</ele>
        <time>2017-01-03T07:37:41Z</time>
      </trkpt>
      <trkpt lat="45.07147" lon="6.69726">
        <ele>1273.92</ele>
        <time>2017-01-03T07:37:43Z</time>
      </trkpt>
      <trkpt lat="45.07153" lon="6.69658">
        <ele>1276</ele>
        <time>2017-01-03T07:37:46Z</time>
      </trkpt>
      <trkpt lat="45.0711" lon="6.69741">
        <ele>1275.35</ele>
        <time>2017-01-03T07:37:50Z</time>
      </trkpt>
      <trkpt lat="45.07128" lon="6.69676">
        <ele>1276</ele>
        <time>2017-01-03T07:37:52Z</time>
      </trkpt>
      <trkpt lat="45.0715" lon="6.69649">
        <ele>1276</ele>
        <time>2017-01-03T07:37:54Z</time>
      </trkpt>
      <trkpt lat="45.07171" lon="6.69618">
        <ele>1277.3</ele>
        <time>2017-01-03T07:37:56Z</time>
      </trkpt>
      <trkpt lat="45.07376" lon="6.70524">
        <ele>1265.73</ele>
        <time>2017-01-03T15:23:42Z</time>
      </trkpt>
      <trkpt lat="45.07392" lon="6.70536">
        <ele>1265.99</ele>
        <time>2017-01-03T17:38:35Z</time>
      </trkpt>
      <trkpt lat="45.07502" lon="6.70798">
        <ele>1264.93</ele>
        <time>2017-01-03T17:38:47Z</time>
      </trkpt>
      <trkpt lat="45.0755" lon="6.70872">
        <ele>1260.53</ele>
        <time>2017-01-03T17:38:51Z</time>
      </trkpt>
      <trkpt lat="45.07563" lon="6.70879">
        <ele>1260.62</ele>
        <time>2017-01-03T17:38:52Z</time>
      </trkpt>
      <trkpt lat="45.07559" lon="6.70898">
        <ele>1259.51</ele>
        <time>2017-01-03T17:38:52Z</time>
      </trkpt>
      <trkpt lat="45.07473" lon="6.71076">
        <ele>1257.29</ele>
        <time>2017-01-03T17:39:01Z</time>
      </trkpt>
      <trkpt lat="45.07494" lon="6.71209">
        <ele>1248.93</ele>
        <time>2017-01-03T17:39:06Z</time>
      </trkpt>
      <trkpt lat="45.07506" lon="6.71356">
        <ele>1246.49</ele>
        <time>2017-01-03T17:39:12Z</time>
      </trkpt>
      <trkpt lat="45.07519" lon="6.71384">
        <ele>1247.14</ele>
        <time>2017-01-03T17:39:13Z</time>
      </trkpt>
      <trkpt lat="45.07549" lon="6.71379">
        <ele>1247.14</ele>
        <time>2017-01-03T17:39:15Z</time>
      </trkpt>
      <trkpt lat="45.07679" lon="6.71294">
        <ele>1258.38</ele>
        <time>2017-01-03T17:39:23Z</time>
      </trkpt>
      <trkpt lat="45.07841" lon="6.71111">
        <ele>1261.82</ele>
        <time>2017-01-03T17:39:34Z</time>
      </trkpt>
      <trkpt lat="45.07916" lon="6.71101">
        <ele>1271.43</ele>
        <time>2017-01-03T17:39:38Z</time>
      </trkpt>
      <trkpt lat="45.07998" lon="6.71059">
        <ele>1274.13</ele>
        <time>2017-01-03T17:39:43Z</time>
      </trkpt>
      <trkpt lat="45.08065" lon="6.71038">
        <ele>1281.71</ele>
        <time>2017-01-03T17:39:47Z</time>
      </trkpt>
      <trkpt lat="45.08082" lon="6.71025">
        <ele>1280.36</ele>
        <time>2017-01-03T17:39:48Z</time>
      </trkpt>
      <trkpt lat="45.08114" lon="6.71019">
        <ele>1284.59</ele>
        <time>2017-01-03T17:39:50Z</time>
      </trkpt>
      <trkpt lat="45.08205" lon="6.71018">
        <ele>1286.74</ele>
        <time>2017-01-03T17:39:55Z</time>
      </trkpt>
      <trkpt lat="45.08284" lon="6.71036">
        <ele>1288.82</ele>
        <time>2017-01-03T17:39:59Z</time>
      </trkpt>
      <trkpt lat="45.08511" lon="6.71183">
        <ele>1297.27</ele>
        <time>2017-01-03T17:40:13Z</time>
      </trkpt>
      <trkpt lat="45.08557" lon="6.71241">
        <ele>1296.05</ele>
        <time>2017-01-03T17:40:16Z</time>
      </trkpt>
      <trkpt lat="45.08602" lon="6.71392">
        <ele>1307.31</ele>
        <time>2017-01-03T17:40:22Z</time>
      </trkpt>
      <trkpt lat="45.08632" lon="6.71459">
        <ele>1305.43</ele>
        <time>2017-01-03T17:40:25Z</time>
      </trkpt>
      <trkpt lat="45.0868" lon="6.71513">
        <ele>1306.87</ele>
        <time>2017-01-03T17:40:29Z</time>
      </trkpt>
      <trkpt lat="45.08725" lon="6.71547">
        <ele>1307.43</ele>
        <time>2017-01-03T17:40:32Z</time>
      </trkpt>
      <trkpt lat="45.08779" lon="6.71563">
        <ele>1311.94</ele>
        <time>2017-01-03T17:40:35Z</time>
      </trkpt>
      <trkpt lat="45.08973" lon="6.7176">
        <ele>1333.41</ele>
        <time>2017-01-03T17:40:48Z</time>
      </trkpt>
      <trkpt lat="45.08998" lon="6.71813">
        <ele>1341.71</ele>
        <time>2017-01-03T17:40:50Z</time>
      </trkpt>
      <trkpt lat="45.09012" lon="6.71848">
        <ele>1345.55</ele>
        <time>2017-01-03T17:40:52Z</time>
      </trkpt>
      <trkpt lat="45.09056" lon="6.71885">
        <ele>1350.84</ele>
        <time>2017-01-03T17:40:55Z</time>
      </trkpt>
      <trkpt lat="45.09137" lon="6.71866">
        <ele>1349.62</ele>
        <time>2017-01-03T17:40:59Z</time>
      </trkpt>
      <trkpt lat="45.09145" lon="6.71876">
        <ele>1351.27</ele>
        <time>2017-01-03T17:41:00Z</time>
      </trkpt>
      <trkpt lat="45.0911" lon="6.71914">
        <ele>1369</ele>
        <time>2017-01-03T17:41:02Z</time>
      </trkpt>
      <trkpt lat="45.09061" lon="6.71936">
        <ele>1376.59</ele>
        <time>2017-01-03T17:41:05Z</time>
      </trkpt>
      <trkpt lat="45.09036" lon="6.71921">
        <ele>1373.25</ele>
        <time>2017-01-03T17:41:06Z</time>
      </trkpt>
      <trkpt lat="45.09025" lon="6.71922">
        <ele>1376.91</ele>
        <time>2017-01-03T17:41:07Z</time>
      </trkpt>
      <trkpt lat="45.09063" lon="6.71953">
        <ele>1385.35</ele>
        <time>2017-01-03T17:41:09Z</time>
      </trkpt>
      <trkpt lat="45.09133" lon="6.71962">
        <ele>1383.82</ele>
        <time>2017-01-03T17:41:13Z</time>
      </trkpt>
      <trkpt lat="45.09154" lon="6.7205">
        <ele>1399.51</ele>
        <time>2017-01-03T17:41:17Z</time>
      </trkpt>
      <trkpt lat="45.09201" lon="6.7224">
        <ele>1424.29</ele>
        <time>2017-01-03T17:41:25Z</time>
      </trkpt>
      <trkpt lat="45.09218" lon="6.72265">
        <ele>1425.53</ele>
        <time>2017-01-03T17:41:26Z</time>
      </trkpt>
      <trkpt lat="45.09244" lon="6.72274">
        <ele>1421.99</ele>
        <time>2017-01-03T17:41:27Z</time>
      </trkpt>
      <trkpt lat="45.09289" lon="6.72323">
        <ele>1429.59</ele>
        <time>2017-01-03T17:41:31Z</time>
      </trkpt>
      <trkpt lat="45.0931" lon="6.72366">
        <ele>1434.82</ele>
        <time>2017-01-03T17:41:33Z</time>
      </trkpt>
      <trkpt lat="45.0934" lon="6.72368">
        <ele>1431.16</ele>
        <time>2017-01-03T17:41:34Z</time>
      </trkpt>
      <trkpt lat="45.09366" lon="6.72404">
        <ele>1440.67</ele>
        <time>2017-01-03T17:41:36Z</time>
      </trkpt>
      <trkpt lat="45.09454" lon="6.72479">
        <ele>1433.23</ele>
        <time>2017-01-03T17:41:42Z</time>
      </trkpt>
      <trkpt lat="45.09529" lon="6.72532">
        <ele>1435.7</ele>
        <time>2017-01-03T17:41:46Z</time>
      </trkpt>
      <trkpt lat="45.09672" lon="6.7264">
        <ele>1453.85</ele>
        <time>2017-01-03T17:41:55Z</time>
      </trkpt>
      <trkpt lat="45.09714" lon="6.72677">
        <ele>1451.45</ele>
        <time>2017-01-03T17:41:58Z</time>
      </trkpt>
      <trkpt lat="45.09725" lon="6.72728">
        <ele>1457.72</ele>
        <time>2017-01-03T17:42:00Z</time>
      </trkpt>
      <trkpt lat="45.09732" lon="6.72767">
        <ele>1467.57</ele>
        <time>2017-01-03T17:42:02Z</time>
      </trkpt>
      <trkpt lat="45.09759" lon="6.72754">
        <ele>1459.19</ele>
        <time>2017-01-03T17:42:03Z</time>
      </trkpt>
      <trkpt lat="45.0981" lon="6.72819">
        <ele>1467.36</ele>
        <time>2017-01-03T17:42:07Z</time>
      </trkpt>
      <trkpt lat="45.09825" lon="6.72977">
        <ele>1483.37</ele>
        <time>2017-01-03T17:42:13Z</time>
      </trkpt>
      <trkpt lat="45.09827" lon="6.73065">
        <ele>1490.57</ele>
        <time>2017-01-03T17:42:17Z</time>
      </trkpt>
      <trkpt lat="45.09868" lon="6.7309">
        <ele>1479.79</ele>
        <time>2017-01-03T17:42:19Z</time>
      </trkpt>
      <trkpt lat="45.09871" lon="6.7315">
        <ele>1495.2</ele>
        <time>2017-01-03T17:42:21Z</time>
      </trkpt>
      <trkpt lat="45.09906" lon="6.73181">
        <ele>1493.33</ele>
        <time>2017-01-03T17:42:24Z</time>
      </trkpt>
      <trkpt lat="45.0996" lon="6.73229">
        <ele>1496.12</ele>
        <time>2017-01-03T17:42:27Z</time>
      </trkpt>
      <trkpt lat="45.10041" lon="6.73304">
        <ele>1513.9</ele>
        <time>2017-01-03T17:42:32Z</time>
      </trkpt>
      <trkpt lat="45.10076" lon="6.73261">
        <ele>1500.54</ele>
        <time>2017-01-03T17:42:35Z</time>
      </trkpt>
      <trkpt lat="45.10093" lon="6.73248">
        <ele>1499.19</ele>
        <time>2017-01-03T17:42:36Z</time>
      </trkpt>
      <trkpt lat="45.10165" lon="6.73261">
        <ele>1511.96</ele>
        <time>2017-01-03T17:42:40Z</time>
      </trkpt>
      <trkpt lat="45.10324" lon="6.73348">
        <ele>1521.88</ele>
        <time>2017-01-03T17:42:49Z</time>
      </trkpt>
      <trkpt lat="45.10387" lon="6.73452">
        <ele>1534.5</ele>
        <time>2017-01-03T17:42:55Z</time>
      </trkpt>
      <trkpt lat="45.10432" lon="6.73516">
        <ele>1539.16</ele>
        <time>2017-01-03T17:42:58Z</time>
      </trkpt>
      <trkpt lat="45.10511" lon="6.73564">
        <ele>1538.99</ele>
        <time>2017-01-03T17:43:03Z</time>
      </trkpt>
      <trkpt lat="45.10567" lon="6.73649">
        <ele>1547</ele>
        <time>2017-01-03T17:43:07Z</time>
      </trkpt>
      <trkpt lat="45.10639" lon="6.73783">
        <ele>1554.29</ele>
        <time>2017-01-03T17:43:14Z</time>
      </trkpt>
      <trkpt lat="45.10716" lon="6.73847">
        <ele>1550.02</ele>
        <time>2017-01-03T17:43:19Z</time>
      </trkpt>
      <trkpt lat="45.10732" lon="6.73895">
        <ele>1554.06</ele>
        <time>2017-01-03T17:43:21Z</time>
      </trkpt>
      <trkpt lat="45.1077" lon="6.73921">
        <ele>1552.37</ele>
        <time>2017-01-03T17:43:23Z</time>
      </trkpt>
      <trkpt lat="45.10831" lon="6.73993">
        <ele>1560.73</ele>
        <time>2017-01-03T17:43:27Z</time>
      </trkpt>
      <trkpt lat="45.10939" lon="6.74065">
        <ele>1563.59</ele>
        <time>2017-01-03T17:43:34Z</time>
      </trkpt>
      <trkpt lat="45.11022" lon="6.74221">
        <ele>1585.71</ele>
        <time>2017-01-03T17:43:42Z</time>
      </trkpt>
      <trkpt lat="45.1111" lon="6.74376">
        <ele>1594.07</ele>
        <time>2017-01-03T17:43:49Z</time>
      </trkpt>
      <trkpt lat="45.11152" lon="6.74446">
        <ele>1597.76</ele>
        <time>2017-01-03T17:43:53Z</time>
      </trkpt>
      <trkpt lat="45.11194" lon="6.74698">
        <ele>1616.7</ele>
        <time>2017-01-03T17:44:03Z</time>
      </trkpt>
      <trkpt lat="45.11249" lon="6.74937">
        <ele>1630.66</ele>
        <time>2017-01-03T17:44:13Z</time>
      </trkpt>
      <trkpt lat="45.1128" lon="6.75035">
        <ele>1636.12</ele>
        <time>2017-01-03T17:44:17Z</time>
      </trkpt>
      <trkpt lat="45.11307" lon="6.75064">
        <ele>1634.18</ele>
        <time>2017-01-03T17:44:19Z</time>
      </trkpt>
      <trkpt lat="45.11329" lon="6.75073">
        <ele>1635.2</ele>
        <time>2017-01-03T17:44:20Z</time>
      </trkpt>
      <trkpt lat="45.11357" lon="6.75059">
        <ele>1633.58</ele>
        <time>2017-01-03T17:44:21Z</time>
      </trkpt>
      <trkpt lat="45.11391" lon="6.75066">
        <ele>1637.83</ele>
        <time>2017-01-03T17:44:23Z</time>
      </trkpt>
      <trkpt lat="45.11531" lon="6.75102">
        <ele>1654.82</ele>
        <time>2017-01-03T17:44:31Z</time>
      </trkpt>
      <trkpt lat="45.11607" lon="6.75161">
        <ele>1666.42</ele>
        <time>2017-01-03T17:44:36Z</time>
      </trkpt>
      <trkpt lat="45.11664" lon="6.75202">
        <ele>1676.13</ele>
        <time>2017-01-03T17:44:39Z</time>
      </trkpt>
      <trkpt lat="45.11655" lon="6.7521">
        <ele>1678.53</ele>
        <time>2017-01-03T17:44:40Z</time>
      </trkpt>
      <trkpt lat="45.11572" lon="6.75177">
        <ele>1675.33</ele>
        <time>2017-01-03T17:44:45Z</time>
      </trkpt>
      <trkpt lat="45.11705" lon="6.75289">
        <ele>1694.97</ele>
        <time>2017-01-03T17:44:53Z</time>
      </trkpt>
      <trkpt lat="45.11666" lon="6.75286">
        <ele>1706.78</ele>
        <time>2017-01-03T17:44:56Z</time>
      </trkpt>
      <trkpt lat="45.11493" lon="6.75264">
        <ele>1723.68</ele>
        <time>2017-01-03T17:45:05Z</time>
      </trkpt>
      <trkpt lat="45.11428" lon="6.75262">
        <ele>1723.34</ele>
        <time>2017-01-03T17:45:09Z</time>
      </trkpt>
      <trkpt lat="45.11439" lon="6.75278">
        <ele>1729.49</ele>
        <time>2017-01-03T17:45:10Z</time>
      </trkpt>
      <trkpt lat="45.11546" lon="6.7532">
        <ele>1742.91</ele>
        <time>2017-01-03T17:45:16Z</time>
      </trkpt>
      <trkpt lat="45.11583" lon="6.75332">
        <ele>1751.3</ele>
        <time>2017-01-03T17:45:18Z</time>
      </trkpt>
      <trkpt lat="45.11634" lon="6.75387">
        <ele>1764.12</ele>
        <time>2017-01-03T17:45:22Z</time>
      </trkpt>
      <trkpt lat="45.1167" lon="6.75409">
        <ele>1766.84</ele>
        <time>2017-01-03T17:45:24Z</time>
      </trkpt>
      <trkpt lat="45.11723" lon="6.75453">
        <ele>1766.68</ele>
        <time>2017-01-03T17:45:27Z</time>
      </trkpt>
      <trkpt lat="45.11735" lon="6.75477">
        <ele>1773.42</ele>
        <time>2017-01-03T17:45:28Z</time>
      </trkpt>
      <trkpt lat="45.11657" lon="6.75457">
        <ele>1784.39</ele>
        <time>2017-01-03T17:45:33Z</time>
      </trkpt>
      <trkpt lat="45.116" lon="6.75441">
        <ele>1787.73</ele>
        <time>2017-01-03T17:45:36Z</time>
      </trkpt>
      <trkpt lat="45.11576" lon="6.7544">
        <ele>1786.09</ele>
        <time>2017-01-03T17:45:37Z</time>
      </trkpt>
      <trkpt lat="45.11522" lon="6.75478">
        <ele>1796.88</ele>
        <time>2017-01-03T17:45:41Z</time>
      </trkpt>
      <trkpt lat="45.11462" lon="6.75501">
        <ele>1801.56</ele>
        <time>2017-01-03T17:45:44Z</time>
      </trkpt>
      <trkpt lat="45.11561" lon="6.75576">
        <ele>1814.52</ele>
        <time>2017-01-03T17:45:50Z</time>
      </trkpt>
      <trkpt lat="45.11616" lon="6.75603">
        <ele>1820.85</ele>
        <time>2017-01-03T17:45:54Z</time>
      </trkpt>
      <trkpt lat="45.11645" lon="6.75641">
        <ele>1825.27</ele>
        <time>2017-01-03T17:45:56Z</time>
      </trkpt>
      <trkpt lat="45.11673" lon="6.75724">
        <ele>1835.12</ele>
        <time>2017-01-03T17:45:59Z</time>
      </trkpt>
      <trkpt lat="45.11706" lon="6.75753">
        <ele>1844.98</ele>
        <time>2017-01-03T17:46:02Z</time>
      </trkpt>
      <trkpt lat="45.11762" lon="6.75743">
        <ele>1848.1</ele>
        <time>2017-01-03T17:46:05Z</time>
      </trkpt>
      <trkpt lat="45.11828" lon="6.75815">
        <ele>1858.73</ele>
        <time>2017-01-03T17:46:09Z</time>
      </trkpt>
      <trkpt lat="45.11788" lon="6.75808">
        <ele>1861.07</ele>
        <time>2017-01-03T17:46:11Z</time>
      </trkpt>
      <trkpt lat="45.11756" lon="6.75801">
        <ele>1858.61</ele>
        <time>2017-01-03T17:46:13Z</time>
      </trkpt>
      <trkpt lat="45.11728" lon="6.75822">
        <ele>1862.43</ele>
        <time>2017-01-03T17:46:15Z</time>
      </trkpt>
      <trkpt lat="45.11725" lon="6.75846">
        <ele>1866.77</ele>
        <time>2017-01-03T17:46:16Z</time>
      </trkpt>
      <trkpt lat="45.11779" lon="6.75904">
        <ele>1872.52</ele>
        <time>2017-01-03T17:46:20Z</time>
      </trkpt>
      <trkpt lat="45.11793" lon="6.76003">
        <ele>1876.3</ele>
        <time>2017-01-03T17:46:23Z</time>
      </trkpt>
      <trkpt lat="45.11802" lon="6.76056">
        <ele>1884.01</ele>
        <time>2017-01-03T17:46:26Z</time>
      </trkpt>
      <trkpt lat="45.11821" lon="6.76078">
        <ele>1889.32</ele>
        <time>2017-01-03T17:46:27Z</time>
      </trkpt>
      <trkpt lat="45.11875" lon="6.76072">
        <ele>1890.53</ele>
        <time>2017-01-03T17:46:30Z</time>
      </trkpt>
      <trkpt lat="45.11927" lon="6.76126">
        <ele>1900.73</ele>
        <time>2017-01-03T17:46:33Z</time>
      </trkpt>
      <trkpt lat="45.11948" lon="6.76171">
        <ele>1908.88</ele>
        <time>2017-01-03T17:46:35Z</time>
      </trkpt>
      <trkpt lat="45.12003" lon="6.76195">
        <ele>1911.02</ele>
        <time>2017-01-03T17:46:39Z</time>
      </trkpt>
      <trkpt lat="45.12058" lon="6.76199">
        <ele>1910.7</ele>
        <time>2017-01-03T17:46:42Z</time>
      </trkpt>
      <trkpt lat="45.1219" lon="6.76296">
        <ele>1931.31</ele>
        <time>2017-01-03T17:46:50Z</time>
      </trkpt>
      <trkpt lat="45.12242" lon="6.76356">
        <ele>1937.7</ele>
        <time>2017-01-03T17:46:53Z</time>
      </trkpt>
      <trkpt lat="45.12282" lon="6.76445">
        <ele>1946.47</ele>
        <time>2017-01-03T17:46:58Z</time>
      </trkpt>
      <trkpt lat="45.12359" lon="6.76598">
        <ele>1964.21</ele>
        <time>2017-01-03T17:47:05Z</time>
      </trkpt>
      <trkpt lat="45.12401" lon="6.76675">
        <ele>1968.61</ele>
        <time>2017-01-03T17:47:09Z</time>
      </trkpt>
      <trkpt lat="45.12406" lon="6.76796">
        <ele>1980.12</ele>
        <time>2017-01-03T17:47:13Z</time>
      </trkpt>
      <trkpt lat="45.1236" lon="6.76945">
        <ele>1983.56</ele>
        <time>2017-01-03T17:47:20Z</time>
      </trkpt>
      <trkpt lat="45.12294" lon="6.77071">
        <ele>1999.41</ele>
        <time>2017-01-03T17:47:26Z</time>
      </trkpt>
      <trkpt lat="45.1231" lon="6.77089">
        <ele>1997.21</ele>
        <time>2017-01-03T17:47:27Z</time>
      </trkpt>
      <trkpt lat="45.12389" lon="6.77044">
        <ele>1982.85</ele>
        <time>2017-01-03T17:47:31Z</time>
      </trkpt>
      <trkpt lat="45.1243" lon="6.77044">
        <ele>1987.76</ele>
        <time>2017-01-03T17:47:34Z</time>
      </trkpt>
      <trkpt lat="45.12458" lon="6.77059">
        <ele>1995.42</ele>
        <time>2017-01-03T17:47:35Z</time>
      </trkpt>
      <trkpt lat="45.12483" lon="6.77054">
        <ele>1997.34</ele>
        <time>2017-01-03T17:47:37Z</time>
      </trkpt>
      <trkpt lat="45.12524" lon="6.77017">
        <ele>2000.07</ele>
        <time>2017-01-03T17:47:39Z</time>
      </trkpt>
      <trkpt lat="45.12583" lon="6.76904">
        <ele>1989.74</ele>
        <time>2017-01-03T17:47:45Z</time>
      </trkpt>
      <trkpt lat="45.12635" lon="6.76849">
        <ele>1992.14</ele>
        <time>2017-01-03T17:47:48Z</time>
      </trkpt>
      <trkpt lat="45.12743" lon="6.76791">
        <ele>1998.56</ele>
        <time>2017-01-03T17:47:55Z</time>
      </trkpt>
      <trkpt lat="45.12814" lon="6.76718">
        <ele>1987.8</ele>
        <time>2017-01-03T17:48:00Z</time>
      </trkpt>
      <trkpt lat="45.12869" lon="6.76715">
        <ele>1993.43</ele>
        <time>2017-01-03T17:48:03Z</time>
      </trkpt>
      <trkpt lat="45.12992" lon="6.76691">
        <ele>2001.81</ele>
        <time>2017-01-03T17:48:09Z</time>
      </trkpt>
      <trkpt lat="45.13124" lon="6.76633">
        <ele>2001.12</ele>
        <time>2017-01-03T17:48:17Z</time>
      </trkpt>
      <trkpt lat="45.13202" lon="6.76643">
        <ele>2000.81</ele>
        <time>2017-01-03T17:48:21Z</time>
      </trkpt>
      <trkpt lat="45.13272" lon="6.7664">
        <ele>2003.4</ele>
        <time>2017-01-03T17:48:25Z</time>
      </trkpt>
      <trkpt lat="45.1332" lon="6.76599">
        <ele>1987.51</ele>
        <time>2017-01-03T17:48:28Z</time>
      </trkpt>
      <trkpt lat="45.1339" lon="6.76592">
        <ele>1998.18</ele>
        <time>2017-01-03T17:48:32Z</time>
      </trkpt>
      <trkpt lat="45.13528" lon="6.76617">
        <ele>1996.11</ele>
        <time>2017-01-03T17:48:40Z</time>
      </trkpt>
      <trkpt lat="45.13579" lon="6.76662">
        <ele>2001.71</ele>
        <time>2017-01-03T17:48:43Z</time>
      </trkpt>
      <trkpt lat="45.13619" lon="6.7669">
        <ele>1999.81</ele>
        <time>2017-01-03T17:48:45Z</time>
      </trkpt>
      <trkpt lat="45.13671" lon="6.76734">
        <ele>1994.87</ele>
        <time>2017-01-03T17:48:49Z</time>
      </trkpt>
      <trkpt lat="45.13821" lon="6.76971">
        <ele>1997.92</ele>
        <time>2017-01-03T17:49:01Z</time>
      </trkpt>
      <trkpt lat="45.13841" lon="6.77091">
        <ele>2003.1</ele>
        <time>2017-01-03T17:49:06Z</time>
      </trkpt>
      <trkpt lat="45.13835" lon="6.77245">
        <ele>2012.38</ele>
        <time>2017-01-03T17:49:12Z</time>
      </trkpt>
      <trkpt lat="45.13845" lon="6.7759">
        <ele>2004.18</ele>
        <time>2017-01-03T17:49:25Z</time>
      </trkpt>
      <trkpt lat="45.13837" lon="6.77721">
        <ele>2000.85</ele>
        <time>2017-01-03T17:49:30Z</time>
      </trkpt>
      <trkpt lat="45.13867" lon="6.7775">
        <ele>2000.06</ele>
        <time>2017-01-03T17:49:32Z</time>
      </trkpt>
      <trkpt lat="45.13884" lon="6.77798">
        <ele>2004.55</ele>
        <time>2017-01-03T17:49:34Z</time>
      </trkpt>
      <trkpt lat="45.13885" lon="6.77966">
        <ele>2012.5</ele>
        <time>2017-01-03T17:49:41Z</time>
      </trkpt>
      <trkpt lat="45.13854" lon="6.78091">
        <ele>2024.08</ele>
        <time>2017-01-03T17:49:46Z</time>
      </trkpt>
      <trkpt lat="45.13794" lon="6.78173">
        <ele>2025.89</ele>
        <time>2017-01-03T17:49:50Z</time>
      </trkpt>
      <trkpt lat="45.13796" lon="6.78188">
        <ele>2027.42</ele>
        <time>2017-01-03T17:49:51Z</time>
      </trkpt>
      <trkpt lat="45.13833" lon="6.78174">
        <ele>2033.98</ele>
        <time>2017-01-03T17:49:53Z</time>
      </trkpt>
      <trkpt lat="45.13873" lon="6.78168">
        <ele>2045.04</ele>
        <time>2017-01-03T17:49:55Z</time>
      </trkpt>
      <trkpt lat="45.13908" lon="6.78067">
        <ele>2042.47</ele>
        <time>2017-01-03T17:50:00Z</time>
      </trkpt>
      <trkpt lat="45.13906" lon="6.78105">
        <ele>2046.98</ele>
        <time>2017-01-03T17:50:01Z</time>
      </trkpt>
      <trkpt lat="45.13902" lon="6.78262">
        <ele>2067.16</ele>
        <time>2017-01-03T17:50:07Z</time>
      </trkpt>
      <trkpt lat="45.13885" lon="6.78305">
        <ele>2065.24</ele>
        <time>2017-01-03T17:50:09Z</time>
      </trkpt>
      <trkpt lat="45.13859" lon="6.78388">
        <ele>2072.35</ele>
        <time>2017-01-03T17:50:13Z</time>
      </trkpt>
      <trkpt lat="45.13862" lon="6.78425">
        <ele>2081.17</ele>
        <time>2017-01-03T17:50:14Z</time>
      </trkpt>
      <trkpt lat="45.13832" lon="6.78434">
        <ele>2075.68</ele>
        <time>2017-01-03T17:50:16Z</time>
      </trkpt>
      <trkpt lat="45.13806" lon="6.78478">
        <ele>2072.7</ele>
        <time>2017-01-03T17:50:18Z</time>
      </trkpt>
      <trkpt lat="45.13784" lon="6.78621">
        <ele>2092.77</ele>
        <time>2017-01-03T17:50:24Z</time>
      </trkpt>
      <trkpt lat="45.13756" lon="6.78717">
        <ele>2100.53</ele>
        <time>2017-01-03T17:50:28Z</time>
      </trkpt>
      <trkpt lat="45.13626" lon="6.78948">
        <ele>2113.66</ele>
        <time>2017-01-03T17:50:39Z</time>
      </trkpt>
      <trkpt lat="45.13493" lon="6.79157">
        <ele>2123.33</ele>
        <time>2017-01-03T17:50:50Z</time>
      </trkpt>
      <trkpt lat="45.1346" lon="6.79256">
        <ele>2127.26</ele>
        <time>2017-01-03T17:50:54Z</time>
      </trkpt>
      <trkpt lat="45.13434" lon="6.79303">
        <ele>2128.51</ele>
        <time>2017-01-03T17:50:56Z</time>
      </trkpt>
      <trkpt lat="45.13428" lon="6.79366">
        <ele>2134.9</ele>
        <time>2017-01-03T17:50:59Z</time>
      </trkpt>
      <trkpt lat="45.13355" lon="6.79559">
        <ele>2145.72</ele>
        <time>2017-01-03T17:51:07Z</time>
      </trkpt>
      <trkpt lat="45.13287" lon="6.79625">
        <ele>2157.67</ele>
        <time>2017-01-03T17:51:12Z</time>
      </trkpt>
      <trkpt lat="45.13186" lon="6.79737">
        <ele>2164.28</ele>
        <time>2017-01-03T17:51:19Z</time>
      </trkpt>
      <trkpt lat="45.13151" lon="6.79761">
        <ele>2169.89</ele>
        <time>2017-01-03T17:51:21Z</time>
      </trkpt>
      <trkpt lat="45.13113" lon="6.7983">
        <ele>2179.62</ele>
        <time>2017-01-03T17:51:24Z</time>
      </trkpt>
      <trkpt lat="45.13059" lon="6.79954">
        <ele>2185.13</ele>
        <time>2017-01-03T17:51:30Z</time>
      </trkpt>
      <trkpt lat="45.1304" lon="6.80028">
        <ele>2191.72</ele>
        <time>2017-01-03T17:51:33Z</time>
      </trkpt>
      <trkpt lat="45.13044" lon="6.80102">
        <ele>2191.81</ele>
        <time>2017-01-03T17:51:36Z</time>
      </trkpt>
      <trkpt lat="45.13002" lon="6.80219">
        <ele>2201.19</ele>
        <time>2017-01-03T17:51:41Z</time>
      </trkpt>
      <trkpt lat="45.13001" lon="6.80109">
        <ele>2203.82</ele>
        <time>2017-01-03T17:51:45Z</time>
      </trkpt>
      <trkpt lat="45.12985" lon="6.79987">
        <ele>2210.45</ele>
        <time>2017-01-03T17:51:50Z</time>
      </trkpt>
      <trkpt lat="45.12985" lon="6.79927">
        <ele>2223.24</ele>
        <time>2017-01-03T17:51:52Z</time>
      </trkpt>
      <trkpt lat="45.12924" lon="6.8013">
        <ele>2235.24</ele>
        <time>2017-01-03T17:52:01Z</time>
      </trkpt>
      <trkpt lat="45.12934" lon="6.79988">
        <ele>2247.49</ele>
        <time>2017-01-03T17:52:07Z</time>
      </trkpt>
      <trkpt lat="45.12917" lon="6.80027">
        <ele>2249.91</ele>
        <time>2017-01-03T17:52:09Z</time>
      </trkpt>
      <trkpt lat="45.12866" lon="6.80105">
        <ele>2263.52</ele>
        <time>2017-01-03T17:52:13Z</time>
      </trkpt>
      <trkpt lat="45.12865" lon="6.80165">
        <ele>2255.13</ele>
        <time>2017-01-03T17:52:15Z</time>
      </trkpt>
      <trkpt lat="45.12828" lon="6.8021">
        <ele>2273.77</ele>
        <time>2017-01-03T17:52:18Z</time>
      </trkpt>
      <trkpt lat="45.12821" lon="6.80247">
        <ele>2279.14</ele>
        <time>2017-01-03T17:52:19Z</time>
      </trkpt>
      <trkpt lat="45.12895" lon="6.80349">
        <ele>2280.08</ele>
        <time>2017-01-03T17:52:25Z</time>
      </trkpt>
      <trkpt lat="45.12829" lon="6.80316">
        <ele>2283.14</ele>
        <time>2017-01-03T17:52:29Z</time>
      </trkpt>
      <trkpt lat="45.12806" lon="6.8029">
        <ele>2289.94</ele>
        <time>2017-01-03T17:52:30Z</time>
      </trkpt>
      <trkpt lat="45.12864" lon="6.80393">
        <ele>2305.11</ele>
        <time>2017-01-03T17:52:35Z</time>
      </trkpt>
      <trkpt lat="45.12796" lon="6.80327">
        <ele>2314.52</ele>
        <time>2017-01-03T17:52:40Z</time>
      </trkpt>
      <trkpt lat="45.12826" lon="6.80404">
        <ele>2319.94</ele>
        <time>2017-01-03T17:52:44Z</time>
      </trkpt>
      <trkpt lat="45.12854" lon="6.8044">
        <ele>2319.19</ele>
        <time>2017-01-03T17:52:46Z</time>
      </trkpt>
      <trkpt lat="45.12822" lon="6.80423">
        <ele>2326.32</ele>
        <time>2017-01-03T17:52:48Z</time>
      </trkpt>
      <trkpt lat="45.12769" lon="6.80363">
        <ele>2341.58</ele>
        <time>2017-01-03T17:52:52Z</time>
      </trkpt>
      <trkpt lat="45.1279" lon="6.80416">
        <ele>2334.01</ele>
        <time>2017-01-03T17:52:54Z</time>
      </trkpt>
      <trkpt lat="45.12814" lon="6.80475">
        <ele>2344.71</ele>
        <time>2017-01-03T17:52:57Z</time>
      </trkpt>
      <trkpt lat="45.12754" lon="6.80392">
        <ele>2355.3</ele>
        <time>2017-01-03T17:53:01Z</time>
      </trkpt>
      <trkpt lat="45.12769" lon="6.80475">
        <ele>2362.35</ele>
        <time>2017-01-03T17:53:05Z</time>
      </trkpt>
      <trkpt lat="45.12764" lon="6.80495">
        <ele>2365.69</ele>
        <time>2017-01-03T17:53:06Z</time>
      </trkpt>
      <trkpt lat="45.1274" lon="6.80437">
        <ele>2370.72</ele>
        <time>2017-01-03T17:53:08Z</time>
      </trkpt>
      <trkpt lat="45.12706" lon="6.80331">
        <ele>2362.06</ele>
        <time>2017-01-03T17:53:13Z</time>
      </trkpt>
      <trkpt lat="45.12696" lon="6.80399">
        <ele>2371.49</ele>
        <time>2017-01-03T17:53:15Z</time>
      </trkpt>
      <trkpt lat="45.12629" lon="6.80509">
        <ele>2389.45</ele>
        <time>2017-01-03T17:53:21Z</time>
      </trkpt>
      <trkpt lat="45.12613" lon="6.80502">
        <ele>2395.91</ele>
        <time>2017-01-03T17:53:22Z</time>
      </trkpt>
      <trkpt lat="45.12627" lon="6.80463">
        <ele>2395.99</ele>
        <time>2017-01-03T17:53:24Z</time>
      </trkpt>
      <trkpt lat="45.12648" lon="6.80388">
        <ele>2389.31</ele>
        <time>2017-01-03T17:53:27Z</time>
      </trkpt>
      <trkpt lat="45.12584" lon="6.8047">
        <ele>2407.73</ele>
        <time>2017-01-03T17:53:31Z</time>
      </trkpt>
      <trkpt lat="45.12525" lon="6.80568">
        <ele>2422.14</ele>
        <time>2017-01-03T17:53:36Z</time>
      </trkpt>
      <trkpt lat="45.12523" lon="6.80603">
        <ele>2417.8</ele>
        <time>2017-01-03T17:53:38Z</time>
      </trkpt>
      <trkpt lat="45.125" lon="6.80632">
        <ele>2423.74</ele>
        <time>2017-01-03T17:53:39Z</time>
      </trkpt>
      <trkpt lat="45.12478" lon="6.80686">
        <ele>2424.21</ele>
        <time>2017-01-03T17:53:42Z</time>
      </trkpt>
      <trkpt lat="45.12421" lon="6.80724">
        <ele>2442.34</ele>
        <time>2017-01-03T17:53:45Z</time>
      </trkpt>
      <trkpt lat="45.1239" lon="6.80768">
        <ele>2440.96</ele>
        <time>2017-01-03T17:53:48Z</time>
      </trkpt>
      <trkpt lat="45.12336" lon="6.80743">
        <ele>2450.11</ele>
        <time>2017-01-03T17:53:51Z</time>
      </trkpt>
      <trkpt lat="45.12265" lon="6.80779">
        <ele>2452.3</ele>
        <time>2017-01-03T17:53:55Z</time>
      </trkpt>
      <trkpt lat="45.12205" lon="6.80866">
        <ele>2456.04</ele>
        <time>2017-01-03T17:54:00Z</time>
      </trkpt>
      <trkpt lat="45.12146" lon="6.81032">
        <ele>2472.46</ele>
        <time>2017-01-03T17:54:07Z</time>
      </trkpt>
      <trkpt lat="45.12141" lon="6.81184">
        <ele>2478.63</ele>
        <time>2017-01-03T17:54:13Z</time>
      </trkpt>
      <trkpt lat="45.12151" lon="6.81296">
        <ele>2486.67</ele>
        <time>2017-01-03T17:54:17Z</time>
      </trkpt>
      <trkpt lat="45.12175" lon="6.81356">
        <ele>2498.58</ele>
        <time>2017-01-03T17:54:20Z</time>
      </trkpt>
      <trkpt lat="45.12108" lon="6.81397">
        <ele>2497.9</ele>
        <time>2017-01-03T17:54:24Z</time>
      </trkpt>
      <trkpt lat="45.12099" lon="6.81421">
        <ele>2499.71</ele>
        <time>2017-01-03T17:54:25Z</time>
      </trkpt>
      <trkpt lat="45.12168" lon="6.81413">
        <ele>2508.55</ele>
        <time>2017-01-03T17:54:29Z</time>
      </trkpt>
      <trkpt lat="45.12191" lon="6.81409">
        <ele>2508.92</ele>
        <time>2017-01-03T17:54:30Z</time>
      </trkpt>
      <trkpt lat="45.1213" lon="6.81463">
        <ele>2515.17</ele>
        <time>2017-01-03T17:54:34Z</time>
      </trkpt>
      <trkpt lat="45.12056" lon="6.81489">
        <ele>2520.83</ele>
        <time>2017-01-03T17:54:38Z</time>
      </trkpt>
      <trkpt lat="45.12017" lon="6.81528">
        <ele>2533.28</ele>
        <time>2017-01-03T17:54:41Z</time>
      </trkpt>
      <trkpt lat="45.11999" lon="6.81586">
        <ele>2538.98</ele>
        <time>2017-01-03T17:54:43Z</time>
      </trkpt>
      <trkpt lat="45.12" lon="6.81716">
        <ele>2550.55</ele>
        <time>2017-01-03T17:54:48Z</time>
      </trkpt>
      <trkpt lat="45.11919" lon="6.81846">
        <ele>2567.82</ele>
        <time>2017-01-03T17:54:55Z</time>
      </trkpt>
      <trkpt lat="45.11996" lon="6.81806">
        <ele>2565.71</ele>
        <time>2017-01-03T17:54:59Z</time>
      </trkpt>
      <trkpt lat="45.12081" lon="6.81774">
        <ele>2580.27</ele>
        <time>2017-01-03T17:55:04Z</time>
      </trkpt>
      <trkpt lat="45.12171" lon="6.81771">
        <ele>2582.51</ele>
        <time>2017-01-03T17:55:09Z</time>
      </trkpt>
      <trkpt lat="45.12214" lon="6.81705">
        <ele>2572.19</ele>
        <time>2017-01-03T17:55:12Z</time>
      </trkpt>
      <trkpt lat="45.12224" lon="6.81711">
        <ele>2568.67</ele>
        <time>2017-01-03T17:55:13Z</time>
      </trkpt>
      <trkpt lat="45.12216" lon="6.81731">
        <ele>2570.94</ele>
        <time>2017-01-03T17:55:14Z</time>
      </trkpt>
      <trkpt lat="45.12205" lon="6.81781">
        <ele>2573.46</ele>
        <time>2017-01-03T17:55:16Z</time>
      </trkpt>
      <trkpt lat="45.12222" lon="6.81868">
        <ele>2574.07</ele>
        <time>2017-01-03T17:55:19Z</time>
      </trkpt>
      <trkpt lat="45.12253" lon="6.81972">
        <ele>2571.54</ele>
        <time>2017-01-03T17:55:24Z</time>
      </trkpt>
      <trkpt lat="45.12254" lon="6.82294">
        <ele>2577.77</ele>
        <time>2017-01-03T17:55:36Z</time>
      </trkpt>
      <trkpt lat="45.12244" lon="6.82501">
        <ele>2579</ele>
        <time>2017-01-03T17:55:44Z</time>
      </trkpt>
      <trkpt lat="45.12236" lon="6.82569">
        <ele>2582.95</ele>
        <time>2017-01-03T17:55:47Z</time>
      </trkpt>
      <trkpt lat="45.12245" lon="6.82664">
        <ele>2595.75</ele>
        <time>2017-01-03T17:55:51Z</time>
      </trkpt>
      <trkpt lat="45.12236" lon="6.82786">
        <ele>2604.23</ele>
        <time>2017-01-03T17:55:55Z</time>
      </trkpt>
      <trkpt lat="45.12234" lon="6.82851">
        <ele>2609.49</ele>
        <time>2017-01-03T17:55:58Z</time>
      </trkpt>
      <trkpt lat="45.12214" lon="6.82874">
        <ele>2608.07</ele>
        <time>2017-01-03T17:55:59Z</time>
      </trkpt>
      <trkpt lat="45.1218" lon="6.82898">
        <ele>2608.49</ele>
        <time>2017-01-03T17:56:01Z</time>
      </trkpt>
      <trkpt lat="45.12183" lon="6.82917">
        <ele>2609.56</ele>
        <time>2017-01-03T17:56:02Z</time>
      </trkpt>
      <trkpt lat="45.1223" lon="6.82945">
        <ele>2612.49</ele>
        <time>2017-01-03T17:56:05Z</time>
      </trkpt>
      <trkpt lat="45.12252" lon="6.82938">
        <ele>2615.63</ele>
        <time>2017-01-03T17:56:06Z</time>
      </trkpt>
      <trkpt lat="45.12294" lon="6.82892">
        <ele>2621.9</ele>
        <time>2017-01-03T17:56:09Z</time>
      </trkpt>
      <trkpt lat="45.12285" lon="6.82933">
        <ele>2624.02</ele>
        <time>2017-01-03T17:56:11Z</time>
      </trkpt>
      <trkpt lat="45.12257" lon="6.83019">
        <ele>2628.82</ele>
        <time>2017-01-03T17:56:14Z</time>
      </trkpt>
      <trkpt lat="45.12245" lon="6.8312">
        <ele>2635</ele>
        <time>2017-01-03T17:56:18Z</time>
      </trkpt>
      <trkpt lat="45.12247" lon="6.83138">
        <ele>2638.41</ele>
        <time>2017-01-03T17:56:19Z</time>
      </trkpt>
      <trkpt lat="45.12262" lon="6.83125">
        <ele>2638.88</ele>
        <time>2017-01-03T17:56:20Z</time>
      </trkpt>
      <trkpt lat="45.12299" lon="6.8308">
        <ele>2644.11</ele>
        <time>2017-01-03T17:56:23Z</time>
      </trkpt>
      <trkpt lat="45.12335" lon="6.83018">
        <ele>2648.8</ele>
        <time>2017-01-03T17:56:26Z</time>
      </trkpt>
      <trkpt lat="45.12369" lon="6.82897">
        <ele>2651.29</ele>
        <time>2017-01-03T17:56:31Z</time>
      </trkpt>
      <trkpt lat="45.12366" lon="6.83039">
        <ele>2665.71</ele>
        <time>2017-01-03T17:56:37Z</time>
      </trkpt>
      <trkpt lat="45.12371" lon="6.83155">
        <ele>2671.52</ele>
        <time>2017-01-03T17:56:41Z</time>
      </trkpt>
      <trkpt lat="45.12356" lon="6.83248">
        <ele>2677.87</ele>
        <time>2017-01-03T17:56:45Z</time>
      </trkpt>
      <trkpt lat="45.12337" lon="6.83342">
        <ele>2681.38</ele>
        <time>2017-01-03T17:56:49Z</time>
      </trkpt>
      <trkpt lat="45.12338" lon="6.83357">
        <ele>2683.03</ele>
        <time>2017-01-03T17:56:49Z</time>
      </trkpt>
      <trkpt lat="45.12346" lon="6.83345">
        <ele>2685.96</ele>
        <time>2017-01-03T17:56:50Z</time>
      </trkpt>
      <trkpt lat="45.12397" lon="6.83237">
        <ele>2695.28</ele>
        <time>2017-01-03T17:56:55Z</time>
      </trkpt>
      <trkpt lat="45.12422" lon="6.83107">
        <ele>2694.84</ele>
        <time>2017-01-03T17:57:00Z</time>
      </trkpt>
      <trkpt lat="45.1243" lon="6.82996">
        <ele>2698.64</ele>
        <time>2017-01-03T17:57:04Z</time>
      </trkpt>
      <trkpt lat="45.12435" lon="6.83008">
        <ele>2702.19</ele>
        <time>2017-01-03T17:57:06Z</time>
      </trkpt>
      <trkpt lat="45.12444" lon="6.83159">
        <ele>2707.93</ele>
        <time>2017-01-03T17:57:12Z</time>
      </trkpt>
      <trkpt lat="45.12443" lon="6.83438">
        <ele>2732.84</ele>
        <time>2017-01-03T17:57:22Z</time>
      </trkpt>
      <trkpt lat="45.12455" lon="6.83502">
        <ele>2732.82</ele>
        <time>2017-01-03T17:57:25Z</time>
      </trkpt>
      <trkpt lat="45.12464" lon="6.83495">
        <ele>2737.48</ele>
        <time>2017-01-03T17:57:25Z</time>
      </trkpt>
      <trkpt lat="45.1246" lon="6.83413">
        <ele>2743.34</ele>
        <time>2017-01-03T17:57:29Z</time>
      </trkpt>
      <trkpt lat="45.1248" lon="6.8332">
        <ele>2746.21</ele>
        <time>2017-01-03T17:57:32Z</time>
      </trkpt>
      <trkpt lat="45.12499" lon="6.83215">
        <ele>2746.81</ele>
        <time>2017-01-03T17:57:37Z</time>
      </trkpt>
      <trkpt lat="45.12507" lon="6.83228">
        <ele>2749.57</ele>
        <time>2017-01-03T17:57:38Z</time>
      </trkpt>
      <trkpt lat="45.12516" lon="6.83459">
        <ele>2771.02</ele>
        <time>2017-01-03T17:57:47Z</time>
      </trkpt>
      <trkpt lat="45.1252" lon="6.83441">
        <ele>2775.84</ele>
        <time>2017-01-03T17:57:47Z</time>
      </trkpt>
      <trkpt lat="45.1253" lon="6.83359">
        <ele>2775.19</ele>
        <time>2017-01-03T17:57:51Z</time>
      </trkpt>
      <trkpt lat="45.12542" lon="6.83301">
        <ele>2773.29</ele>
        <time>2017-01-03T17:57:53Z</time>
      </trkpt>
      <trkpt lat="45.12548" lon="6.83328">
        <ele>2781.33</ele>
        <time>2017-01-03T17:57:54Z</time>
      </trkpt>
      <trkpt lat="45.12542" lon="6.83439">
        <ele>2787.67</ele>
        <time>2017-01-03T17:57:58Z</time>
      </trkpt>
      <trkpt lat="45.12582" lon="6.83503">
        <ele>2789.12</ele>
        <time>2017-01-03T17:58:02Z</time>
      </trkpt>
      <trkpt lat="45.12618" lon="6.83563">
        <ele>2790.5</ele>
        <time>2017-01-03T17:58:05Z</time>
      </trkpt>
      <trkpt lat="45.12638" lon="6.83606">
        <ele>2801</ele>
        <time>2017-01-03T17:58:07Z</time>
      </trkpt>
      <trkpt lat="45.12636" lon="6.83677">
        <ele>2811.16</ele>
        <time>2017-01-03T17:58:09Z</time>
      </trkpt>
      <trkpt lat="45.12634" lon="6.83728">
        <ele>2814.71</ele>
        <time>2017-01-03T17:58:11Z</time>
      </trkpt>
      <trkpt lat="45.12706" lon="6.83753">
        <ele>2820.22</ele>
        <time>2017-01-03T17:58:16Z</time>
      </trkpt>
      <trkpt lat="45.12726" lon="6.83745">
        <ele>2821.86</ele>
        <time>2017-01-03T17:58:17Z</time>
      </trkpt>
      <trkpt lat="45.12755" lon="6.83754">
        <ele>2827.49</ele>
        <time>2017-01-03T17:58:18Z</time>
      </trkpt>
      <trkpt lat="45.12779" lon="6.83859">
        <ele>2839.65</ele>
        <time>2017-01-03T17:58:23Z</time>
      </trkpt>
      <trkpt lat="45.12806" lon="6.83928">
        <ele>2837.28</ele>
        <time>2017-01-03T17:58:26Z</time>
      </trkpt>
      <trkpt lat="45.12858" lon="6.83975">
        <ele>2849.38</ele>
        <time>2017-01-03T17:58:29Z</time>
      </trkpt>
      <trkpt lat="45.12925" lon="6.83898">
        <ele>2856.57</ele>
        <time>2017-01-03T17:58:34Z</time>
      </trkpt>
      <trkpt lat="45.1294" lon="6.83818">
        <ele>2862.17</ele>
        <time>2017-01-03T17:58:37Z</time>
      </trkpt>
      <trkpt lat="45.12927" lon="6.83661">
        <ele>2868.5</ele>
        <time>2017-01-03T17:58:43Z</time>
      </trkpt>
      <trkpt lat="45.12983" lon="6.8382">
        <ele>2880.41</ele>
        <time>2017-01-03T17:58:50Z</time>
      </trkpt>
      <trkpt lat="45.13033" lon="6.83947">
        <ele>2886.99</ele>
        <time>2017-01-03T17:58:56Z</time>
      </trkpt>
      <trkpt lat="45.13045" lon="6.84015">
        <ele>2893.47</ele>
        <time>2017-01-03T17:58:58Z</time>
      </trkpt>
      <trkpt lat="45.13051" lon="6.83927">
        <ele>2895.35</ele>
        <time>2017-01-03T17:59:02Z</time>
      </trkpt>
      <trkpt lat="45.13031" lon="6.8381">
        <ele>2905.93</ele>
        <time>2017-01-03T17:59:06Z</time>
      </trkpt>
      <trkpt lat="45.12999" lon="6.83585">
        <ele>2913.04</ele>
        <time>2017-01-03T17:59:15Z</time>
      </trkpt>
      <trkpt lat="45.13078" lon="6.83803">
        <ele>2927.78</ele>
        <time>2017-01-03T17:59:25Z</time>
      </trkpt>
      <trkpt lat="45.13118" lon="6.83884">
        <ele>2940.04</ele>
        <time>2017-01-03T17:59:28Z</time>
      </trkpt>
      <trkpt lat="45.13145" lon="6.83979">
        <ele>2945.04</ele>
        <time>2017-01-03T17:59:32Z</time>
      </trkpt>
      <trkpt lat="45.13177" lon="6.84122">
        <ele>2950.75</ele>
        <time>2017-01-03T17:59:38Z</time>
      </trkpt>
      <trkpt lat="45.1323" lon="6.84238">
        <ele>2964.67</ele>
        <time>2017-01-03T17:59:44Z</time>
      </trkpt>
      <trkpt lat="45.13297" lon="6.84317">
        <ele>2972.52</ele>
        <time>2017-01-03T17:59:48Z</time>
      </trkpt>
      <trkpt lat="45.13308" lon="6.84398">
        <ele>2969.02</ele>
        <time>2017-01-03T17:59:52Z</time>
      </trkpt>
      <trkpt lat="45.13319" lon="6.84377">
        <ele>2969.42</ele>
        <time>2017-01-03T17:59:53Z</time>
      </trkpt>
      <trkpt lat="45.13331" lon="6.8434">
        <ele>2977.34</ele>
        <time>2017-01-03T17:59:55Z</time>
      </trkpt>
      <trkpt lat="45.13342" lon="6.84406">
        <ele>2975.67</ele>
        <time>2017-01-03T17:59:57Z</time>
      </trkpt>
      <trkpt lat="45.13353" lon="6.84426">
        <ele>2981.36</ele>
        <time>2017-01-03T17:59:58Z</time>
      </trkpt>
      <trkpt lat="45.13369" lon="6.84423">
        <ele>2985.05</ele>
        <time>2017-01-03T17:59:59Z</time>
      </trkpt>
      <trkpt lat="45.13403" lon="6.84416">
        <ele>2994.51</ele>
        <time>2017-01-03T18:00:01Z</time>
      </trkpt>
      <trkpt lat="45.13426" lon="6.84462">
        <ele>2997.5</ele>
        <time>2017-01-03T18:00:03Z</time>
      </trkpt>
      <trkpt lat="45.13403" lon="6.84416">
        <ele>2994.51</ele>
        <time>2017-01-03T18:00:05Z</time>
      </trkpt>
      <trkpt lat="45.13369" lon="6.84423">
        <ele>2985.05</ele>
        <time>2017-01-03T18:00:07Z</time>
      </trkpt>
      <trkpt lat="45.13353" lon="6.84426">
        <ele>2981.36</ele>
        <time>2017-01-03T18:00:08Z</time>
      </trkpt>
      <trkpt lat="45.13342" lon="6.84406">
        <ele>2975.67</ele>
        <time>2017-01-03T18:00:09Z</time>
      </trkpt>
      <trkpt lat="45.13331" lon="6.8434">
        <ele>2977.34</ele>
        <time>2017-01-03T18:00:12Z</time>
      </trkpt>
      <trkpt lat="45.13319" lon="6.84377">
        <ele>2969.42</ele>
        <time>2017-01-03T18:00:13Z</time>
      </trkpt>
      <trkpt lat="45.13314" lon="6.84405">
        <ele>2971.07</ele>
        <time>2017-01-03T18:00:15Z</time>
      </trkpt>
      <trkpt lat="45.13297" lon="6.84317">
        <ele>2972.52</ele>
        <time>2017-01-03T18:00:18Z</time>
      </trkpt>
      <trkpt lat="45.1323" lon="6.84238">
        <ele>2964.67</ele>
        <time>2017-01-03T18:00:23Z</time>
      </trkpt>
      <trkpt lat="45.13177" lon="6.84122">
        <ele>2950.75</ele>
        <time>2017-01-03T18:00:28Z</time>
      </trkpt>
      <trkpt lat="45.13118" lon="6.83884">
        <ele>2940.04</ele>
        <time>2017-01-03T18:00:38Z</time>
      </trkpt>
      <trkpt lat="45.13078" lon="6.83803">
        <ele>2927.78</ele>
        <time>2017-01-03T18:00:42Z</time>
      </trkpt>
      <trkpt lat="45.13028" lon="6.83656">
        <ele>2920.27</ele>
        <time>2017-01-03T18:00:48Z</time>
      </trkpt>
      <trkpt lat="45.12999" lon="6.83585">
        <ele>2913.04</ele>
        <time>2017-01-03T18:00:51Z</time>
      </trkpt>
      <trkpt lat="45.13011" lon="6.83658">
        <ele>2910.69</ele>
        <time>2017-01-03T18:00:54Z</time>
      </trkpt>
      <trkpt lat="45.13051" lon="6.83927">
        <ele>2895.35</ele>
        <time>2017-01-03T18:01:05Z</time>
      </trkpt>
      <trkpt lat="45.13045" lon="6.84015">
        <ele>2893.47</ele>
        <time>2017-01-03T18:01:08Z</time>
      </trkpt>
      <trkpt lat="45.13033" lon="6.83947">
        <ele>2886.99</ele>
        <time>2017-01-03T18:01:11Z</time>
      </trkpt>
      <trkpt lat="45.12958" lon="6.83735">
        <ele>2873.28</ele>
        <time>2017-01-03T18:01:20Z</time>
      </trkpt>
      <trkpt lat="45.12927" lon="6.83661">
        <ele>2868.5</ele>
        <time>2017-01-03T18:01:23Z</time>
      </trkpt>
      <trkpt lat="45.12923" lon="6.83681">
        <ele>2864.53</ele>
        <time>2017-01-03T18:01:24Z</time>
      </trkpt>
      <trkpt lat="45.1294" lon="6.83818">
        <ele>2862.17</ele>
        <time>2017-01-03T18:01:30Z</time>
      </trkpt>
      <trkpt lat="45.12925" lon="6.83898">
        <ele>2856.57</ele>
        <time>2017-01-03T18:01:33Z</time>
      </trkpt>
      <trkpt lat="45.12858" lon="6.83975">
        <ele>2849.38</ele>
        <time>2017-01-03T18:01:38Z</time>
      </trkpt>
      <trkpt lat="45.12806" lon="6.83928">
        <ele>2837.28</ele>
        <time>2017-01-03T18:01:41Z</time>
      </trkpt>
      <trkpt lat="45.12779" lon="6.83859">
        <ele>2839.65</ele>
        <time>2017-01-03T18:01:44Z</time>
      </trkpt>
      <trkpt lat="45.12755" lon="6.83754">
        <ele>2827.49</ele>
        <time>2017-01-03T18:01:48Z</time>
      </trkpt>
      <trkpt lat="45.12726" lon="6.83745">
        <ele>2821.86</ele>
        <time>2017-01-03T18:01:50Z</time>
      </trkpt>
      <trkpt lat="45.12706" lon="6.83753">
        <ele>2820.22</ele>
        <time>2017-01-03T18:01:51Z</time>
      </trkpt>
      <trkpt lat="45.12634" lon="6.83728">
        <ele>2814.71</ele>
        <time>2017-01-03T18:01:55Z</time>
      </trkpt>
      <trkpt lat="45.12636" lon="6.83677">
        <ele>2811.16</ele>
        <time>2017-01-03T18:01:57Z</time>
      </trkpt>
      <trkpt lat="45.12638" lon="6.83606">
        <ele>2801</ele>
        <time>2017-01-03T18:02:00Z</time>
      </trkpt>
      <trkpt lat="45.12618" lon="6.83563">
        <ele>2790.5</ele>
        <time>2017-01-03T18:02:02Z</time>
      </trkpt>
      <trkpt lat="45.12542" lon="6.83439">
        <ele>2787.67</ele>
        <time>2017-01-03T18:02:08Z</time>
      </trkpt>
      <trkpt lat="45.12548" lon="6.83328">
        <ele>2781.33</ele>
        <time>2017-01-03T18:02:12Z</time>
      </trkpt>
      <trkpt lat="45.12542" lon="6.83301">
        <ele>2773.29</ele>
        <time>2017-01-03T18:02:14Z</time>
      </trkpt>
      <trkpt lat="45.1253" lon="6.83359">
        <ele>2775.19</ele>
        <time>2017-01-03T18:02:16Z</time>
      </trkpt>
      <trkpt lat="45.1252" lon="6.83441">
        <ele>2775.84</ele>
        <time>2017-01-03T18:02:19Z</time>
      </trkpt>
      <trkpt lat="45.12522" lon="6.83465">
        <ele>2773.18</ele>
        <time>2017-01-03T18:02:20Z</time>
      </trkpt>
      <trkpt lat="45.12503" lon="6.83366">
        <ele>2762.78</ele>
        <time>2017-01-03T18:02:24Z</time>
      </trkpt>
      <trkpt lat="45.12507" lon="6.83228">
        <ele>2749.57</ele>
        <time>2017-01-03T18:02:29Z</time>
      </trkpt>
      <trkpt lat="45.12507" lon="6.8321">
        <ele>2748.05</ele>
        <time>2017-01-03T18:02:30Z</time>
      </trkpt>
      <trkpt lat="45.1246" lon="6.83413">
        <ele>2743.34</ele>
        <time>2017-01-03T18:02:39Z</time>
      </trkpt>
      <trkpt lat="45.12464" lon="6.83495">
        <ele>2737.48</ele>
        <time>2017-01-03T18:02:42Z</time>
      </trkpt>
      <trkpt lat="45.12455" lon="6.83502">
        <ele>2732.82</ele>
        <time>2017-01-03T18:02:42Z</time>
      </trkpt>
      <trkpt lat="45.12441" lon="6.83302">
        <ele>2720.22</ele>
        <time>2017-01-03T18:02:50Z</time>
      </trkpt>
      <trkpt lat="45.12444" lon="6.83159">
        <ele>2707.93</ele>
        <time>2017-01-03T18:02:56Z</time>
      </trkpt>
      <trkpt lat="45.12435" lon="6.83008">
        <ele>2702.19</ele>
        <time>2017-01-03T18:03:02Z</time>
      </trkpt>
      <trkpt lat="45.12436" lon="6.82986">
        <ele>2700.03</ele>
        <time>2017-01-03T18:03:02Z</time>
      </trkpt>
      <trkpt lat="45.12422" lon="6.83107">
        <ele>2694.84</ele>
        <time>2017-01-03T18:03:07Z</time>
      </trkpt>
      <trkpt lat="45.12397" lon="6.83237">
        <ele>2695.28</ele>
        <time>2017-01-03T18:03:12Z</time>
      </trkpt>
      <trkpt lat="45.12346" lon="6.83345">
        <ele>2685.96</ele>
        <time>2017-01-03T18:03:17Z</time>
      </trkpt>
      <trkpt lat="45.12338" lon="6.83357">
        <ele>2683.03</ele>
        <time>2017-01-03T18:03:18Z</time>
      </trkpt>
      <trkpt lat="45.12337" lon="6.83342">
        <ele>2681.38</ele>
        <time>2017-01-03T18:03:19Z</time>
      </trkpt>
      <trkpt lat="45.12356" lon="6.83248">
        <ele>2677.87</ele>
        <time>2017-01-03T18:03:22Z</time>
      </trkpt>
      <trkpt lat="45.12371" lon="6.83155">
        <ele>2671.52</ele>
        <time>2017-01-03T18:03:26Z</time>
      </trkpt>
      <trkpt lat="45.12366" lon="6.83039">
        <ele>2665.71</ele>
        <time>2017-01-03T18:03:31Z</time>
      </trkpt>
      <trkpt lat="45.12375" lon="6.82907">
        <ele>2655.11</ele>
        <time>2017-01-03T18:03:36Z</time>
      </trkpt>
      <trkpt lat="45.12335" lon="6.83018">
        <ele>2648.8</ele>
        <time>2017-01-03T18:03:41Z</time>
      </trkpt>
      <trkpt lat="45.12299" lon="6.8308">
        <ele>2644.11</ele>
        <time>2017-01-03T18:03:44Z</time>
      </trkpt>
      <trkpt lat="45.12262" lon="6.83125">
        <ele>2638.88</ele>
        <time>2017-01-03T18:03:47Z</time>
      </trkpt>
      <trkpt lat="45.12247" lon="6.83138">
        <ele>2638.41</ele>
        <time>2017-01-03T18:03:48Z</time>
      </trkpt>
      <trkpt lat="45.12245" lon="6.8312">
        <ele>2635</ele>
        <time>2017-01-03T18:03:49Z</time>
      </trkpt>
      <trkpt lat="45.12257" lon="6.83019">
        <ele>2628.82</ele>
        <time>2017-01-03T18:03:53Z</time>
      </trkpt>
      <trkpt lat="45.12285" lon="6.82933">
        <ele>2624.02</ele>
        <time>2017-01-03T18:03:56Z</time>
      </trkpt>
      <trkpt lat="45.12294" lon="6.82892">
        <ele>2621.9</ele>
        <time>2017-01-03T18:03:58Z</time>
      </trkpt>
      <trkpt lat="45.12252" lon="6.82938">
        <ele>2615.63</ele>
        <time>2017-01-03T18:04:01Z</time>
      </trkpt>
      <trkpt lat="45.1223" lon="6.82945">
        <ele>2612.49</ele>
        <time>2017-01-03T18:04:02Z</time>
      </trkpt>
      <trkpt lat="45.12183" lon="6.82917">
        <ele>2609.56</ele>
        <time>2017-01-03T18:04:05Z</time>
      </trkpt>
      <trkpt lat="45.1218" lon="6.82898">
        <ele>2608.49</ele>
        <time>2017-01-03T18:04:06Z</time>
      </trkpt>
      <trkpt lat="45.12214" lon="6.82874">
        <ele>2608.07</ele>
        <time>2017-01-03T18:04:08Z</time>
      </trkpt>
      <trkpt lat="45.12234" lon="6.82851">
        <ele>2609.49</ele>
        <time>2017-01-03T18:04:09Z</time>
      </trkpt>
      <trkpt lat="45.12236" lon="6.82786">
        <ele>2604.23</ele>
        <time>2017-01-03T18:04:12Z</time>
      </trkpt>
      <trkpt lat="45.12245" lon="6.82664">
        <ele>2595.75</ele>
        <time>2017-01-03T18:04:16Z</time>
      </trkpt>
      <trkpt lat="45.12236" lon="6.82534">
        <ele>2579.56</ele>
        <time>2017-01-03T18:04:22Z</time>
      </trkpt>
      <trkpt lat="45.12255" lon="6.82462">
        <ele>2578.75</ele>
        <time>2017-01-03T18:04:24Z</time>
      </trkpt>
      <trkpt lat="45.12253" lon="6.81972">
        <ele>2571.54</ele>
        <time>2017-01-03T18:04:43Z</time>
      </trkpt>
      <trkpt lat="45.12205" lon="6.81781">
        <ele>2573.46</ele>
        <time>2017-01-03T18:04:51Z</time>
      </trkpt>
      <trkpt lat="45.12224" lon="6.81711">
        <ele>2568.67</ele>
        <time>2017-01-03T18:04:54Z</time>
      </trkpt>
      <trkpt lat="45.12214" lon="6.81705">
        <ele>2572.19</ele>
        <time>2017-01-03T18:04:55Z</time>
      </trkpt>
      <trkpt lat="45.12194" lon="6.8175">
        <ele>2575.13</ele>
        <time>2017-01-03T18:04:57Z</time>
      </trkpt>
      <trkpt lat="45.12171" lon="6.81771">
        <ele>2582.51</ele>
        <time>2017-01-03T18:04:58Z</time>
      </trkpt>
      <trkpt lat="45.12133" lon="6.81769">
        <ele>2586.28</ele>
        <time>2017-01-03T18:05:00Z</time>
      </trkpt>
      <trkpt lat="45.12081" lon="6.81774">
        <ele>2580.27</ele>
        <time>2017-01-03T18:05:03Z</time>
      </trkpt>
      <trkpt lat="45.11996" lon="6.81806">
        <ele>2565.71</ele>
        <time>2017-01-03T18:05:08Z</time>
      </trkpt>
      <trkpt lat="45.11919" lon="6.81846">
        <ele>2567.82</ele>
        <time>2017-01-03T18:05:13Z</time>
      </trkpt>
      <trkpt lat="45.11973" lon="6.81764">
        <ele>2552.14</ele>
        <time>2017-01-03T18:05:17Z</time>
      </trkpt>
      <trkpt lat="45.12" lon="6.81716">
        <ele>2550.55</ele>
        <time>2017-01-03T18:05:19Z</time>
      </trkpt>
      <trkpt lat="45.11999" lon="6.81586">
        <ele>2538.98</ele>
        <time>2017-01-03T18:05:24Z</time>
      </trkpt>
      <trkpt lat="45.12017" lon="6.81528">
        <ele>2533.28</ele>
        <time>2017-01-03T18:05:27Z</time>
      </trkpt>
      <trkpt lat="45.12056" lon="6.81489">
        <ele>2520.83</ele>
        <time>2017-01-03T18:05:29Z</time>
      </trkpt>
      <trkpt lat="45.1213" lon="6.81463">
        <ele>2515.17</ele>
        <time>2017-01-03T18:05:34Z</time>
      </trkpt>
      <trkpt lat="45.12191" lon="6.81409">
        <ele>2508.92</ele>
        <time>2017-01-03T18:05:38Z</time>
      </trkpt>
      <trkpt lat="45.12134" lon="6.81424">
        <ele>2505.48</ele>
        <time>2017-01-03T18:05:41Z</time>
      </trkpt>
      <trkpt lat="45.12099" lon="6.81421">
        <ele>2499.71</ele>
        <time>2017-01-03T18:05:43Z</time>
      </trkpt>
      <trkpt lat="45.12108" lon="6.81397">
        <ele>2497.9</ele>
        <time>2017-01-03T18:05:44Z</time>
      </trkpt>
      <trkpt lat="45.12175" lon="6.81356">
        <ele>2498.58</ele>
        <time>2017-01-03T18:05:48Z</time>
      </trkpt>
      <trkpt lat="45.12176" lon="6.81335">
        <ele>2494.03</ele>
        <time>2017-01-03T18:05:48Z</time>
      </trkpt>
      <trkpt lat="45.12151" lon="6.81296">
        <ele>2486.67</ele>
        <time>2017-01-03T18:05:51Z</time>
      </trkpt>
      <trkpt lat="45.12141" lon="6.81184">
        <ele>2478.63</ele>
        <time>2017-01-03T18:05:55Z</time>
      </trkpt>
      <trkpt lat="45.12146" lon="6.81032">
        <ele>2472.46</ele>
        <time>2017-01-03T18:06:01Z</time>
      </trkpt>
      <trkpt lat="45.12205" lon="6.80866">
        <ele>2456.04</ele>
        <time>2017-01-03T18:06:08Z</time>
      </trkpt>
      <trkpt lat="45.12265" lon="6.80779">
        <ele>2452.3</ele>
        <time>2017-01-03T18:06:13Z</time>
      </trkpt>
      <trkpt lat="45.12336" lon="6.80743">
        <ele>2450.11</ele>
        <time>2017-01-03T18:06:17Z</time>
      </trkpt>
      <trkpt lat="45.1239" lon="6.80768">
        <ele>2440.96</ele>
        <time>2017-01-03T18:06:20Z</time>
      </trkpt>
      <trkpt lat="45.12421" lon="6.80724">
        <ele>2442.34</ele>
        <time>2017-01-03T18:06:22Z</time>
      </trkpt>
      <trkpt lat="45.12478" lon="6.80686">
        <ele>2424.21</ele>
        <time>2017-01-03T18:06:26Z</time>
      </trkpt>
      <trkpt lat="45.12494" lon="6.80655">
        <ele>2421.33</ele>
        <time>2017-01-03T18:06:27Z</time>
      </trkpt>
      <trkpt lat="45.12523" lon="6.80603">
        <ele>2417.8</ele>
        <time>2017-01-03T18:06:30Z</time>
      </trkpt>
      <trkpt lat="45.12525" lon="6.80568">
        <ele>2422.14</ele>
        <time>2017-01-03T18:06:31Z</time>
      </trkpt>
      <trkpt lat="45.12562" lon="6.8052">
        <ele>2410.82</ele>
        <time>2017-01-03T18:06:34Z</time>
      </trkpt>
      <trkpt lat="45.12584" lon="6.8047">
        <ele>2407.73</ele>
        <time>2017-01-03T18:06:36Z</time>
      </trkpt>
      <trkpt lat="45.12648" lon="6.80388">
        <ele>2389.31</ele>
        <time>2017-01-03T18:06:41Z</time>
      </trkpt>
      <trkpt lat="45.12613" lon="6.80502">
        <ele>2395.91</ele>
        <time>2017-01-03T18:06:46Z</time>
      </trkpt>
      <trkpt lat="45.12629" lon="6.80509">
        <ele>2389.45</ele>
        <time>2017-01-03T18:06:47Z</time>
      </trkpt>
      <trkpt lat="45.12675" lon="6.80432">
        <ele>2380.79</ele>
        <time>2017-01-03T18:06:51Z</time>
      </trkpt>
      <trkpt lat="45.12706" lon="6.80354">
        <ele>2365.65</ele>
        <time>2017-01-03T18:06:54Z</time>
      </trkpt>
      <trkpt lat="45.12706" lon="6.80331">
        <ele>2362.06</ele>
        <time>2017-01-03T18:06:55Z</time>
      </trkpt>
      <trkpt lat="45.12717" lon="6.80375">
        <ele>2365.22</ele>
        <time>2017-01-03T18:06:57Z</time>
      </trkpt>
      <trkpt lat="45.12764" lon="6.80495">
        <ele>2365.69</ele>
        <time>2017-01-03T18:07:02Z</time>
      </trkpt>
      <trkpt lat="45.12769" lon="6.80475">
        <ele>2362.35</ele>
        <time>2017-01-03T18:07:03Z</time>
      </trkpt>
      <trkpt lat="45.12748" lon="6.80399">
        <ele>2361.05</ele>
        <time>2017-01-03T18:07:06Z</time>
      </trkpt>
      <trkpt lat="45.12814" lon="6.80475">
        <ele>2344.71</ele>
        <time>2017-01-03T18:07:11Z</time>
      </trkpt>
      <trkpt lat="45.12769" lon="6.80363">
        <ele>2341.58</ele>
        <time>2017-01-03T18:07:16Z</time>
      </trkpt>
      <trkpt lat="45.12822" lon="6.80423">
        <ele>2326.32</ele>
        <time>2017-01-03T18:07:20Z</time>
      </trkpt>
      <trkpt lat="45.12854" lon="6.8044">
        <ele>2319.19</ele>
        <time>2017-01-03T18:07:22Z</time>
      </trkpt>
      <trkpt lat="45.12817" lon="6.80377">
        <ele>2313.3</ele>
        <time>2017-01-03T18:07:25Z</time>
      </trkpt>
      <trkpt lat="45.1279" lon="6.80322">
        <ele>2323.42</ele>
        <time>2017-01-03T18:07:27Z</time>
      </trkpt>
      <trkpt lat="45.12861" lon="6.80396">
        <ele>2306.83</ele>
        <time>2017-01-03T18:07:32Z</time>
      </trkpt>
      <trkpt lat="45.12806" lon="6.80298">
        <ele>2291.38</ele>
        <time>2017-01-03T18:07:37Z</time>
      </trkpt>
      <trkpt lat="45.12859" lon="6.80336">
        <ele>2280.11</ele>
        <time>2017-01-03T18:07:41Z</time>
      </trkpt>
      <trkpt lat="45.12895" lon="6.80349">
        <ele>2280.08</ele>
        <time>2017-01-03T18:07:43Z</time>
      </trkpt>
      <trkpt lat="45.12869" lon="6.80321">
        <ele>2272.58</ele>
        <time>2017-01-03T18:07:44Z</time>
      </trkpt>
      <trkpt lat="45.12817" lon="6.80227">
        <ele>2282.04</ele>
        <time>2017-01-03T18:07:49Z</time>
      </trkpt>
      <trkpt lat="45.1286" lon="6.80181">
        <ele>2257.52</ele>
        <time>2017-01-03T18:07:52Z</time>
      </trkpt>
      <trkpt lat="45.12864" lon="6.80115">
        <ele>2263.64</ele>
        <time>2017-01-03T18:07:55Z</time>
      </trkpt>
      <trkpt lat="45.12933" lon="6.79985">
        <ele>2249.05</ele>
        <time>2017-01-03T18:08:01Z</time>
      </trkpt>
      <trkpt lat="45.1292" lon="6.80131">
        <ele>2236.62</ele>
        <time>2017-01-03T18:08:06Z</time>
      </trkpt>
      <trkpt lat="45.12981" lon="6.79929">
        <ele>2224.64</ele>
        <time>2017-01-03T18:08:15Z</time>
      </trkpt>
      <trkpt lat="45.12986" lon="6.80055">
        <ele>2210.52</ele>
        <time>2017-01-03T18:08:20Z</time>
      </trkpt>
      <trkpt lat="45.13004" lon="6.80166">
        <ele>2202.57</ele>
        <time>2017-01-03T18:08:24Z</time>
      </trkpt>
      <trkpt lat="45.13" lon="6.80217">
        <ele>2202.19</ele>
        <time>2017-01-03T18:08:26Z</time>
      </trkpt>
      <trkpt lat="45.13029" lon="6.80159">
        <ele>2194.82</ele>
        <time>2017-01-03T18:08:29Z</time>
      </trkpt>
      <trkpt lat="45.13043" lon="6.80053">
        <ele>2190.42</ele>
        <time>2017-01-03T18:08:33Z</time>
      </trkpt>
      <trkpt lat="45.13042" lon="6.80002">
        <ele>2189.05</ele>
        <time>2017-01-03T18:08:35Z</time>
      </trkpt>
      <trkpt lat="45.13084" lon="6.79889">
        <ele>2178.83</ele>
        <time>2017-01-03T18:08:40Z</time>
      </trkpt>
      <trkpt lat="45.13151" lon="6.79761">
        <ele>2169.89</ele>
        <time>2017-01-03T18:08:46Z</time>
      </trkpt>
      <trkpt lat="45.13186" lon="6.79737">
        <ele>2164.28</ele>
        <time>2017-01-03T18:08:48Z</time>
      </trkpt>
      <trkpt lat="45.13256" lon="6.79665">
        <ele>2156.44</ele>
        <time>2017-01-03T18:08:53Z</time>
      </trkpt>
      <trkpt lat="45.13321" lon="6.79603">
        <ele>2154.36</ele>
        <time>2017-01-03T18:08:57Z</time>
      </trkpt>
      <trkpt lat="45.13355" lon="6.79559">
        <ele>2145.72</ele>
        <time>2017-01-03T18:09:00Z</time>
      </trkpt>
      <trkpt lat="45.13396" lon="6.79455">
        <ele>2141.11</ele>
        <time>2017-01-03T18:09:05Z</time>
      </trkpt>
      <trkpt lat="45.13429" lon="6.79332">
        <ele>2131.44</ele>
        <time>2017-01-03T18:09:10Z</time>
      </trkpt>
      <trkpt lat="45.13451" lon="6.79289">
        <ele>2127.96</ele>
        <time>2017-01-03T18:09:12Z</time>
      </trkpt>
      <trkpt lat="45.13467" lon="6.79208">
        <ele>2127.86</ele>
        <time>2017-01-03T18:09:15Z</time>
      </trkpt>
      <trkpt lat="45.13531" lon="6.79101">
        <ele>2128.4</ele>
        <time>2017-01-03T18:09:20Z</time>
      </trkpt>
      <trkpt lat="45.1357" lon="6.79026">
        <ele>2118.25</ele>
        <time>2017-01-03T18:09:24Z</time>
      </trkpt>
      <trkpt lat="45.13694" lon="6.78831">
        <ele>2110.86</ele>
        <time>2017-01-03T18:09:34Z</time>
      </trkpt>
      <trkpt lat="45.13775" lon="6.78668">
        <ele>2098.7</ele>
        <time>2017-01-03T18:09:42Z</time>
      </trkpt>
      <trkpt lat="45.13793" lon="6.78568">
        <ele>2087.82</ele>
        <time>2017-01-03T18:09:46Z</time>
      </trkpt>
      <trkpt lat="45.13806" lon="6.78478">
        <ele>2072.7</ele>
        <time>2017-01-03T18:09:49Z</time>
      </trkpt>
      <trkpt lat="45.13832" lon="6.78434">
        <ele>2075.68</ele>
        <time>2017-01-03T18:09:52Z</time>
      </trkpt>
      <trkpt lat="45.13866" lon="6.7841">
        <ele>2079.8</ele>
        <time>2017-01-03T18:09:54Z</time>
      </trkpt>
      <trkpt lat="45.13861" lon="6.78357">
        <ele>2065.94</ele>
        <time>2017-01-03T18:09:56Z</time>
      </trkpt>
      <trkpt lat="45.13902" lon="6.78262">
        <ele>2067.16</ele>
        <time>2017-01-03T18:10:00Z</time>
      </trkpt>
      <trkpt lat="45.13916" lon="6.78069">
        <ele>2047.54</ele>
        <time>2017-01-03T18:10:08Z</time>
      </trkpt>
      <trkpt lat="45.13888" lon="6.7813">
        <ele>2041.76</ele>
        <time>2017-01-03T18:10:10Z</time>
      </trkpt>
      <trkpt lat="45.13864" lon="6.78174">
        <ele>2042.99</ele>
        <time>2017-01-03T18:10:13Z</time>
      </trkpt>
      <trkpt lat="45.13803" lon="6.78189">
        <ele>2028.31</ele>
        <time>2017-01-03T18:10:16Z</time>
      </trkpt>
      <trkpt lat="45.13793" lon="6.78183">
        <ele>2026.63</ele>
        <time>2017-01-03T18:10:16Z</time>
      </trkpt>
      <trkpt lat="45.13822" lon="6.78133">
        <ele>2025.67</ele>
        <time>2017-01-03T18:10:19Z</time>
      </trkpt>
      <trkpt lat="45.13854" lon="6.78091">
        <ele>2024.08</ele>
        <time>2017-01-03T18:10:21Z</time>
      </trkpt>
      <trkpt lat="45.13862" lon="6.78046">
        <ele>2019.22</ele>
        <time>2017-01-03T18:10:23Z</time>
      </trkpt>
      <trkpt lat="45.13891" lon="6.77899">
        <ele>2008.4</ele>
        <time>2017-01-03T18:10:29Z</time>
      </trkpt>
      <trkpt lat="45.13875" lon="6.77766">
        <ele>2002.36</ele>
        <time>2017-01-03T18:10:34Z</time>
      </trkpt>
      <trkpt lat="45.13837" lon="6.77721">
        <ele>2000.85</ele>
        <time>2017-01-03T18:10:37Z</time>
      </trkpt>
      <trkpt lat="45.13846" lon="6.77466">
        <ele>2005.71</ele>
        <time>2017-01-03T18:10:47Z</time>
      </trkpt>
      <trkpt lat="45.13835" lon="6.77245">
        <ele>2012.38</ele>
        <time>2017-01-03T18:10:55Z</time>
      </trkpt>
      <trkpt lat="45.13841" lon="6.77091">
        <ele>2003.1</ele>
        <time>2017-01-03T18:11:01Z</time>
      </trkpt>
      <trkpt lat="45.13821" lon="6.76971">
        <ele>1997.92</ele>
        <time>2017-01-03T18:11:06Z</time>
      </trkpt>
      <trkpt lat="45.13671" lon="6.76734">
        <ele>1994.87</ele>
        <time>2017-01-03T18:11:18Z</time>
      </trkpt>
      <trkpt lat="45.13619" lon="6.7669">
        <ele>1999.81</ele>
        <time>2017-01-03T18:11:22Z</time>
      </trkpt>
      <trkpt lat="45.13579" lon="6.76662">
        <ele>2001.71</ele>
        <time>2017-01-03T18:11:24Z</time>
      </trkpt>
      <trkpt lat="45.13557" lon="6.7663">
        <ele>1996.86</ele>
        <time>2017-01-03T18:11:26Z</time>
      </trkpt>
      <trkpt lat="45.13528" lon="6.76617">
        <ele>1996.11</ele>
        <time>2017-01-03T18:11:28Z</time>
      </trkpt>
      <trkpt lat="45.1339" lon="6.76592">
        <ele>1998.18</ele>
        <time>2017-01-03T18:11:35Z</time>
      </trkpt>
      <trkpt lat="45.1332" lon="6.76599">
        <ele>1987.51</ele>
        <time>2017-01-03T18:11:39Z</time>
      </trkpt>
      <trkpt lat="45.13272" lon="6.7664">
        <ele>2003.4</ele>
        <time>2017-01-03T18:11:42Z</time>
      </trkpt>
      <trkpt lat="45.13202" lon="6.76643">
        <ele>2000.81</ele>
        <time>2017-01-03T18:11:46Z</time>
      </trkpt>
      <trkpt lat="45.13124" lon="6.76633">
        <ele>2001.12</ele>
        <time>2017-01-03T18:11:50Z</time>
      </trkpt>
      <trkpt lat="45.13044" lon="6.76665">
        <ele>2004.29</ele>
        <time>2017-01-03T18:11:55Z</time>
      </trkpt>
      <trkpt lat="45.12992" lon="6.76691">
        <ele>2001.81</ele>
        <time>2017-01-03T18:11:58Z</time>
      </trkpt>
      <trkpt lat="45.12889" lon="6.76711">
        <ele>1997.55</ele>
        <time>2017-01-03T18:12:04Z</time>
      </trkpt>
      <trkpt lat="45.12814" lon="6.76718">
        <ele>1987.8</ele>
        <time>2017-01-03T18:12:08Z</time>
      </trkpt>
      <trkpt lat="45.12743" lon="6.76791">
        <ele>1998.56</ele>
        <time>2017-01-03T18:12:13Z</time>
      </trkpt>
      <trkpt lat="45.12673" lon="6.76822">
        <ele>1993.32</ele>
        <time>2017-01-03T18:12:17Z</time>
      </trkpt>
      <trkpt lat="45.12583" lon="6.76904">
        <ele>1989.74</ele>
        <time>2017-01-03T18:12:22Z</time>
      </trkpt>
      <trkpt lat="45.12524" lon="6.77017">
        <ele>2000.07</ele>
        <time>2017-01-03T18:12:28Z</time>
      </trkpt>
      <trkpt lat="45.12483" lon="6.77054">
        <ele>1997.34</ele>
        <time>2017-01-03T18:12:31Z</time>
      </trkpt>
      <trkpt lat="45.12458" lon="6.77059">
        <ele>1995.42</ele>
        <time>2017-01-03T18:12:32Z</time>
      </trkpt>
      <trkpt lat="45.1243" lon="6.77044">
        <ele>1987.76</ele>
        <time>2017-01-03T18:12:34Z</time>
      </trkpt>
      <trkpt lat="45.12389" lon="6.77044">
        <ele>1982.85</ele>
        <time>2017-01-03T18:12:36Z</time>
      </trkpt>
      <trkpt lat="45.12332" lon="6.77077">
        <ele>1994.81</ele>
        <time>2017-01-03T18:12:39Z</time>
      </trkpt>
      <trkpt lat="45.12299" lon="6.77086">
        <ele>1997.69</ele>
        <time>2017-01-03T18:12:41Z</time>
      </trkpt>
      <trkpt lat="45.12299" lon="6.7705">
        <ele>1998.53</ele>
        <time>2017-01-03T18:12:42Z</time>
      </trkpt>
      <trkpt lat="45.1236" lon="6.76945">
        <ele>1983.56</ele>
        <time>2017-01-03T18:12:48Z</time>
      </trkpt>
      <trkpt lat="45.12406" lon="6.76796">
        <ele>1980.12</ele>
        <time>2017-01-03T18:12:54Z</time>
      </trkpt>
      <trkpt lat="45.12401" lon="6.76675">
        <ele>1968.61</ele>
        <time>2017-01-03T18:12:59Z</time>
      </trkpt>
      <trkpt lat="45.12379" lon="6.76645">
        <ele>1968.89</ele>
        <time>2017-01-03T18:13:00Z</time>
      </trkpt>
      <trkpt lat="45.1231" lon="6.76507">
        <ele>1954.67</ele>
        <time>2017-01-03T18:13:07Z</time>
      </trkpt>
      <trkpt lat="45.12258" lon="6.76393">
        <ele>1942.34</ele>
        <time>2017-01-03T18:13:12Z</time>
      </trkpt>
      <trkpt lat="45.1222" lon="6.76333">
        <ele>1936.32</ele>
        <time>2017-01-03T18:13:15Z</time>
      </trkpt>
      <trkpt lat="45.12058" lon="6.76199">
        <ele>1910.7</ele>
        <time>2017-01-03T18:13:26Z</time>
      </trkpt>
      <trkpt lat="45.12003" lon="6.76195">
        <ele>1911.02</ele>
        <time>2017-01-03T18:13:29Z</time>
      </trkpt>
      <trkpt lat="45.11948" lon="6.76171">
        <ele>1908.88</ele>
        <time>2017-01-03T18:13:32Z</time>
      </trkpt>
      <trkpt lat="45.11927" lon="6.76126">
        <ele>1900.73</ele>
        <time>2017-01-03T18:13:34Z</time>
      </trkpt>
      <trkpt lat="45.11875" lon="6.76072">
        <ele>1890.53</ele>
        <time>2017-01-03T18:13:37Z</time>
      </trkpt>
      <trkpt lat="45.11821" lon="6.76078">
        <ele>1889.32</ele>
        <time>2017-01-03T18:13:40Z</time>
      </trkpt>
      <trkpt lat="45.11802" lon="6.76056">
        <ele>1884.01</ele>
        <time>2017-01-03T18:13:42Z</time>
      </trkpt>
      <trkpt lat="45.11786" lon="6.75927">
        <ele>1873.68</ele>
        <time>2017-01-03T18:13:47Z</time>
      </trkpt>
      <trkpt lat="45.11744" lon="6.75856">
        <ele>1868.12</ele>
        <time>2017-01-03T18:13:50Z</time>
      </trkpt>
      <trkpt lat="45.1172" lon="6.75837">
        <ele>1865.63</ele>
        <time>2017-01-03T18:13:52Z</time>
      </trkpt>
      <trkpt lat="45.11756" lon="6.75801">
        <ele>1858.61</ele>
        <time>2017-01-03T18:13:54Z</time>
      </trkpt>
      <trkpt lat="45.11821" lon="6.75821">
        <ele>1860.49</ele>
        <time>2017-01-03T18:13:58Z</time>
      </trkpt>
      <trkpt lat="45.11827" lon="6.75802">
        <ele>1857.02</ele>
        <time>2017-01-03T18:13:59Z</time>
      </trkpt>
      <trkpt lat="45.11762" lon="6.75743">
        <ele>1848.1</ele>
        <time>2017-01-03T18:14:03Z</time>
      </trkpt>
      <trkpt lat="45.11734" lon="6.75744">
        <ele>1845.88</ele>
        <time>2017-01-03T18:14:04Z</time>
      </trkpt>
      <trkpt lat="45.11706" lon="6.75753">
        <ele>1844.98</ele>
        <time>2017-01-03T18:14:06Z</time>
      </trkpt>
      <trkpt lat="45.11673" lon="6.75724">
        <ele>1835.12</ele>
        <time>2017-01-03T18:14:08Z</time>
      </trkpt>
      <trkpt lat="45.11645" lon="6.75641">
        <ele>1825.27</ele>
        <time>2017-01-03T18:14:12Z</time>
      </trkpt>
      <trkpt lat="45.11616" lon="6.75603">
        <ele>1820.85</ele>
        <time>2017-01-03T18:14:14Z</time>
      </trkpt>
      <trkpt lat="45.11473" lon="6.7552">
        <ele>1805.3</ele>
        <time>2017-01-03T18:14:22Z</time>
      </trkpt>
      <trkpt lat="45.11461" lon="6.75507">
        <ele>1802.71</ele>
        <time>2017-01-03T18:14:23Z</time>
      </trkpt>
      <trkpt lat="45.11479" lon="6.75491">
        <ele>1798.24</ele>
        <time>2017-01-03T18:14:24Z</time>
      </trkpt>
      <trkpt lat="45.11522" lon="6.75478">
        <ele>1796.88</ele>
        <time>2017-01-03T18:14:27Z</time>
      </trkpt>
      <trkpt lat="45.11576" lon="6.7544">
        <ele>1786.09</ele>
        <time>2017-01-03T18:14:30Z</time>
      </trkpt>
      <trkpt lat="45.11631" lon="6.75457">
        <ele>1788.98</ele>
        <time>2017-01-03T18:14:33Z</time>
      </trkpt>
      <trkpt lat="45.11734" lon="6.75483">
        <ele>1776.24</ele>
        <time>2017-01-03T18:14:39Z</time>
      </trkpt>
      <trkpt lat="45.11723" lon="6.75453">
        <ele>1766.68</ele>
        <time>2017-01-03T18:14:40Z</time>
      </trkpt>
      <trkpt lat="45.1167" lon="6.75409">
        <ele>1766.84</ele>
        <time>2017-01-03T18:14:44Z</time>
      </trkpt>
      <trkpt lat="45.11634" lon="6.75387">
        <ele>1764.12</ele>
        <time>2017-01-03T18:14:46Z</time>
      </trkpt>
      <trkpt lat="45.11583" lon="6.75332">
        <ele>1751.3</ele>
        <time>2017-01-03T18:14:49Z</time>
      </trkpt>
      <trkpt lat="45.11546" lon="6.7532">
        <ele>1742.91</ele>
        <time>2017-01-03T18:14:51Z</time>
      </trkpt>
      <trkpt lat="45.11439" lon="6.75278">
        <ele>1729.49</ele>
        <time>2017-01-03T18:14:57Z</time>
      </trkpt>
      <trkpt lat="45.11425" lon="6.75267">
        <ele>1724.52</ele>
        <time>2017-01-03T18:14:58Z</time>
      </trkpt>
      <trkpt lat="45.11493" lon="6.75264">
        <ele>1723.68</ele>
        <time>2017-01-03T18:15:02Z</time>
      </trkpt>
      <trkpt lat="45.11666" lon="6.75286">
        <ele>1706.78</ele>
        <time>2017-01-03T18:15:11Z</time>
      </trkpt>
      <trkpt lat="45.11702" lon="6.75292">
        <ele>1697.02</ele>
        <time>2017-01-03T18:15:13Z</time>
      </trkpt>
      <trkpt lat="45.11576" lon="6.75195">
        <ele>1682.29</ele>
        <time>2017-01-03T18:15:22Z</time>
      </trkpt>
      <trkpt lat="45.11569" lon="6.75181">
        <ele>1677.22</ele>
        <time>2017-01-03T18:15:22Z</time>
      </trkpt>
      <trkpt lat="45.11589" lon="6.75188">
        <ele>1677.39</ele>
        <time>2017-01-03T18:15:24Z</time>
      </trkpt>
      <trkpt lat="45.11663" lon="6.75207">
        <ele>1677.6</ele>
        <time>2017-01-03T18:15:28Z</time>
      </trkpt>
      <trkpt lat="45.11566" lon="6.75125">
        <ele>1660.62</ele>
        <time>2017-01-03T18:15:34Z</time>
      </trkpt>
      <trkpt lat="45.11531" lon="6.75102">
        <ele>1654.82</ele>
        <time>2017-01-03T18:15:36Z</time>
      </trkpt>
      <trkpt lat="45.11487" lon="6.75095">
        <ele>1649.17</ele>
        <time>2017-01-03T18:15:39Z</time>
      </trkpt>
      <trkpt lat="45.11357" lon="6.75059">
        <ele>1633.58</ele>
        <time>2017-01-03T18:15:46Z</time>
      </trkpt>
      <trkpt lat="45.11329" lon="6.75073">
        <ele>1635.2</ele>
        <time>2017-01-03T18:15:47Z</time>
      </trkpt>
      <trkpt lat="45.11307" lon="6.75064">
        <ele>1634.18</ele>
        <time>2017-01-03T18:15:49Z</time>
      </trkpt>
      <trkpt lat="45.1128" lon="6.75035">
        <ele>1636.12</ele>
        <time>2017-01-03T18:15:51Z</time>
      </trkpt>
      <trkpt lat="45.11249" lon="6.74937">
        <ele>1630.66</ele>
        <time>2017-01-03T18:15:55Z</time>
      </trkpt>
      <trkpt lat="45.11194" lon="6.74698">
        <ele>1616.7</ele>
        <time>2017-01-03T18:16:04Z</time>
      </trkpt>
      <trkpt lat="45.11152" lon="6.74446">
        <ele>1597.76</ele>
        <time>2017-01-03T18:16:14Z</time>
      </trkpt>
      <trkpt lat="45.11135" lon="6.74419">
        <ele>1597.66</ele>
        <time>2017-01-03T18:16:16Z</time>
      </trkpt>
      <trkpt lat="45.1106" lon="6.74285">
        <ele>1589.62</ele>
        <time>2017-01-03T18:16:22Z</time>
      </trkpt>
      <trkpt lat="45.11022" lon="6.74221">
        <ele>1585.71</ele>
        <time>2017-01-03T18:16:26Z</time>
      </trkpt>
      <trkpt lat="45.10939" lon="6.74065">
        <ele>1563.59</ele>
        <time>2017-01-03T18:16:33Z</time>
      </trkpt>
      <trkpt lat="45.10831" lon="6.73993">
        <ele>1560.73</ele>
        <time>2017-01-03T18:16:40Z</time>
      </trkpt>
      <trkpt lat="45.10798" lon="6.73954">
        <ele>1558.95</ele>
        <time>2017-01-03T18:16:42Z</time>
      </trkpt>
      <trkpt lat="45.10744" lon="6.73909">
        <ele>1552.62</ele>
        <time>2017-01-03T18:16:46Z</time>
      </trkpt>
      <trkpt lat="45.10725" lon="6.7387">
        <ele>1551.94</ele>
        <time>2017-01-03T18:16:47Z</time>
      </trkpt>
      <trkpt lat="45.10716" lon="6.73847">
        <ele>1550.02</ele>
        <time>2017-01-03T18:16:48Z</time>
      </trkpt>
      <trkpt lat="45.10672" lon="6.73816">
        <ele>1553.73</ele>
        <time>2017-01-03T18:16:51Z</time>
      </trkpt>
      <trkpt lat="45.10639" lon="6.73783">
        <ele>1554.29</ele>
        <time>2017-01-03T18:16:53Z</time>
      </trkpt>
      <trkpt lat="45.10567" lon="6.73649">
        <ele>1547</ele>
        <time>2017-01-03T18:17:00Z</time>
      </trkpt>
      <trkpt lat="45.10511" lon="6.73564">
        <ele>1538.99</ele>
        <time>2017-01-03T18:17:04Z</time>
      </trkpt>
      <trkpt lat="45.10432" lon="6.73516">
        <ele>1539.16</ele>
        <time>2017-01-03T18:17:09Z</time>
      </trkpt>
      <trkpt lat="45.10324" lon="6.73348">
        <ele>1521.88</ele>
        <time>2017-01-03T18:17:18Z</time>
      </trkpt>
      <trkpt lat="45.10165" lon="6.73261">
        <ele>1511.96</ele>
        <time>2017-01-03T18:17:27Z</time>
      </trkpt>
      <trkpt lat="45.10093" lon="6.73248">
        <ele>1499.19</ele>
        <time>2017-01-03T18:17:31Z</time>
      </trkpt>
      <trkpt lat="45.1005" lon="6.73304">
        <ele>1512.96</ele>
        <time>2017-01-03T18:17:34Z</time>
      </trkpt>
      <trkpt lat="45.09988" lon="6.7326">
        <ele>1503.38</ele>
        <time>2017-01-03T18:17:38Z</time>
      </trkpt>
      <trkpt lat="45.09948" lon="6.73214">
        <ele>1493.48</ele>
        <time>2017-01-03T18:17:41Z</time>
      </trkpt>
      <trkpt lat="45.09915" lon="6.73193">
        <ele>1494.95</ele>
        <time>2017-01-03T18:17:43Z</time>
      </trkpt>
      <trkpt lat="45.09891" lon="6.7317">
        <ele>1493.55</ele>
        <time>2017-01-03T18:17:45Z</time>
      </trkpt>
      <trkpt lat="45.09871" lon="6.7315">
        <ele>1495.2</ele>
        <time>2017-01-03T18:17:46Z</time>
      </trkpt>
      <trkpt lat="45.09869" lon="6.73116">
        <ele>1487.91</ele>
        <time>2017-01-03T18:17:47Z</time>
      </trkpt>
      <trkpt lat="45.09868" lon="6.7309">
        <ele>1479.79</ele>
        <time>2017-01-03T18:17:48Z</time>
      </trkpt>
      <trkpt lat="45.09851" lon="6.73077">
        <ele>1482.14</ele>
        <time>2017-01-03T18:17:49Z</time>
      </trkpt>
      <trkpt lat="45.09827" lon="6.73065">
        <ele>1490.57</ele>
        <time>2017-01-03T18:17:51Z</time>
      </trkpt>
      <trkpt lat="45.09819" lon="6.73034">
        <ele>1490.81</ele>
        <time>2017-01-03T18:17:52Z</time>
      </trkpt>
      <trkpt lat="45.09829" lon="6.72939">
        <ele>1479.79</ele>
        <time>2017-01-03T18:17:56Z</time>
      </trkpt>
      <trkpt lat="45.09818" lon="6.72839">
        <ele>1469.14</ele>
        <time>2017-01-03T18:18:00Z</time>
      </trkpt>
      <trkpt lat="45.09771" lon="6.7276">
        <ele>1459.85</ele>
        <time>2017-01-03T18:18:04Z</time>
      </trkpt>
      <trkpt lat="45.09741" lon="6.72766">
        <ele>1466.01</ele>
        <time>2017-01-03T18:18:05Z</time>
      </trkpt>
      <trkpt lat="45.09726" lon="6.72761">
        <ele>1466.6</ele>
        <time>2017-01-03T18:18:06Z</time>
      </trkpt>
      <trkpt lat="45.09714" lon="6.72677">
        <ele>1451.45</ele>
        <time>2017-01-03T18:18:09Z</time>
      </trkpt>
      <trkpt lat="45.09598" lon="6.7259">
        <ele>1447.18</ele>
        <time>2017-01-03T18:18:17Z</time>
      </trkpt>
      <trkpt lat="45.09514" lon="6.72511">
        <ele>1433.56</ele>
        <time>2017-01-03T18:18:22Z</time>
      </trkpt>
      <trkpt lat="45.09396" lon="6.72441">
        <ele>1441.42</ele>
        <time>2017-01-03T18:18:29Z</time>
      </trkpt>
      <trkpt lat="45.09349" lon="6.72372">
        <ele>1430.98</ele>
        <time>2017-01-03T18:18:33Z</time>
      </trkpt>
      <trkpt lat="45.09324" lon="6.72368">
        <ele>1433.66</ele>
        <time>2017-01-03T18:18:34Z</time>
      </trkpt>
      <trkpt lat="45.09301" lon="6.72353">
        <ele>1433.45</ele>
        <time>2017-01-03T18:18:36Z</time>
      </trkpt>
      <trkpt lat="45.09263" lon="6.72302">
        <ele>1428.32</ele>
        <time>2017-01-03T18:18:38Z</time>
      </trkpt>
      <trkpt lat="45.09232" lon="6.72268">
        <ele>1422.44</ele>
        <time>2017-01-03T18:18:41Z</time>
      </trkpt>
      <trkpt lat="45.09201" lon="6.7224">
        <ele>1424.29</ele>
        <time>2017-01-03T18:18:43Z</time>
      </trkpt>
      <trkpt lat="45.09139" lon="6.71968">
        <ele>1385.44</ele>
        <time>2017-01-03T18:18:54Z</time>
      </trkpt>
      <trkpt lat="45.09092" lon="6.71951">
        <ele>1381.6</ele>
        <time>2017-01-03T18:18:56Z</time>
      </trkpt>
      <trkpt lat="45.09039" lon="6.71939">
        <ele>1383.63</ele>
        <time>2017-01-03T18:18:59Z</time>
      </trkpt>
      <trkpt lat="45.09027" lon="6.71918">
        <ele>1373.27</ele>
        <time>2017-01-03T18:19:00Z</time>
      </trkpt>
      <trkpt lat="45.0905" lon="6.71934">
        <ele>1377.36</ele>
        <time>2017-01-03T18:19:02Z</time>
      </trkpt>
      <trkpt lat="45.09077" lon="6.71928">
        <ele>1373</ele>
        <time>2017-01-03T18:19:03Z</time>
      </trkpt>
      <trkpt lat="45.09124" lon="6.71896">
        <ele>1360.82</ele>
        <time>2017-01-03T18:19:06Z</time>
      </trkpt>
      <trkpt lat="45.09145" lon="6.71866">
        <ele>1348.63</ele>
        <time>2017-01-03T18:19:08Z</time>
      </trkpt>
      <trkpt lat="45.09117" lon="6.71877">
        <ele>1355.39</ele>
        <time>2017-01-03T18:19:09Z</time>
      </trkpt>
      <trkpt lat="45.09056" lon="6.71885">
        <ele>1350.84</ele>
        <time>2017-01-03T18:19:13Z</time>
      </trkpt>
      <trkpt lat="45.09012" lon="6.71848">
        <ele>1345.55</ele>
        <time>2017-01-03T18:19:16Z</time>
      </trkpt>
      <trkpt lat="45.08991" lon="6.71785">
        <ele>1335.85</ele>
        <time>2017-01-03T18:19:18Z</time>
      </trkpt>
      <trkpt lat="45.0888" lon="6.71664">
        <ele>1332.92</ele>
        <time>2017-01-03T18:19:26Z</time>
      </trkpt>
      <trkpt lat="45.08779" lon="6.71563">
        <ele>1311.94</ele>
        <time>2017-01-03T18:19:33Z</time>
      </trkpt>
      <trkpt lat="45.08725" lon="6.71547">
        <ele>1307.43</ele>
        <time>2017-01-03T18:19:36Z</time>
      </trkpt>
      <trkpt lat="45.08632" lon="6.71459">
        <ele>1305.43</ele>
        <time>2017-01-03T18:19:42Z</time>
      </trkpt>
      <trkpt lat="45.08581" lon="6.71314">
        <ele>1295.78</ele>
        <time>2017-01-03T18:19:48Z</time>
      </trkpt>
      <trkpt lat="45.08557" lon="6.71241">
        <ele>1296.05</ele>
        <time>2017-01-03T18:19:51Z</time>
      </trkpt>
      <trkpt lat="45.08511" lon="6.71183">
        <ele>1297.27</ele>
        <time>2017-01-03T18:19:55Z</time>
      </trkpt>
      <trkpt lat="45.08284" lon="6.71036">
        <ele>1288.82</ele>
        <time>2017-01-03T18:20:08Z</time>
      </trkpt>
      <trkpt lat="45.08205" lon="6.71018">
        <ele>1286.74</ele>
        <time>2017-01-03T18:20:13Z</time>
      </trkpt>
      <trkpt lat="45.08085" lon="6.71026">
        <ele>1280.97</ele>
        <time>2017-01-03T18:20:19Z</time>
      </trkpt>
      <trkpt lat="45.08082" lon="6.71059">
        <ele>1287.94</ele>
        <time>2017-01-03T18:20:21Z</time>
      </trkpt>
      <trkpt lat="45.08068" lon="6.71055">
        <ele>1286.31</ele>
        <time>2017-01-03T18:20:21Z</time>
      </trkpt>
      <trkpt lat="45.08065" lon="6.71039">
        <ele>1281.98</ele>
        <time>2017-01-03T18:20:22Z</time>
      </trkpt>
      <trkpt lat="45.08023" lon="6.71043">
        <ele>1277.32</ele>
        <time>2017-01-03T18:20:24Z</time>
      </trkpt>
      <trkpt lat="45.07982" lon="6.7107">
        <ele>1272.5</ele>
        <time>2017-01-03T18:20:27Z</time>
      </trkpt>
      <trkpt lat="45.07905" lon="6.71103">
        <ele>1269.86</ele>
        <time>2017-01-03T18:20:31Z</time>
      </trkpt>
      <trkpt lat="45.07835" lon="6.71114">
        <ele>1261.3</ele>
        <time>2017-01-03T18:20:35Z</time>
      </trkpt>
      <trkpt lat="45.07825" lon="6.71117">
        <ele>1261</ele>
        <time>2017-01-04T07:00:00Z</time>
      </trkpt>
      <trkpt lat="45.07815" lon="6.71125">
        <ele>1261</ele>
        <time>2017-01-04T07:00:04Z</time>
      </trkpt>
      <trkpt lat="45.07799" lon="6.71145">
        <ele>1261</ele>
        <time>2017-01-04T07:00:13Z</time>
      </trkpt>
      <trkpt lat="45.07772" lon="6.71194">
        <ele>1261</ele>
        <time>2017-01-04T07:00:30Z</time>
      </trkpt>
      <trkpt lat="45.07744" lon="6.71232">
        <ele>1263</ele>
        <time>2017-01-04T07:00:46Z</time>
      </trkpt>
      <trkpt lat="45.0768" lon="6.71302">
        <ele>1261</ele>
        <time>2017-01-04T07:01:18Z</time>
      </trkpt>
      <trkpt lat="45.07661" lon="6.71319">
        <ele>1259</ele>
        <time>2017-01-04T07:01:27Z</time>
      </trkpt>
      <trkpt lat="45.07616" lon="6.71351">
        <ele>1251</ele>
        <time>2017-01-04T07:01:47Z</time>
      </trkpt>
      <trkpt lat="45.07537" lon="6.71394">
        <ele>1248</ele>
        <time>2017-01-04T07:02:21Z</time>
      </trkpt>
      <trkpt lat="45.07244" lon="6.71548">
        <ele>1243</ele>
        <time>2017-01-04T07:04:26Z</time>
      </trkpt>
      <trkpt lat="45.07196" lon="6.71572">
        <ele>1240</ele>
        <time>2017-01-04T07:04:47Z</time>
      </trkpt>
      <trkpt lat="45.0716" lon="6.71584">
        <ele>1239</ele>
        <time>2017-01-04T07:05:01Z</time>
      </trkpt>
      <trkpt lat="45.07149" lon="6.71593">
        <ele>1238</ele>
        <time>2017-01-04T07:05:07Z</time>
      </trkpt>
      <trkpt lat="45.07133" lon="6.71611">
        <ele>1236</ele>
        <time>2017-01-04T07:05:15Z</time>
      </trkpt>
      <trkpt lat="45.07084" lon="6.71676">
        <ele>1234</ele>
        <time>2017-01-04T07:05:42Z</time>
      </trkpt>
      <trkpt lat="45.07044" lon="6.71722">
        <ele>1240</ele>
        <time>2017-01-04T07:06:02Z</time>
      </trkpt>
      <trkpt lat="45.07033" lon="6.7174">
        <ele>1241</ele>
        <time>2017-01-04T07:06:09Z</time>
      </trkpt>
      <trkpt lat="45.0701" lon="6.7179">
        <ele>1243</ele>
        <time>2017-01-04T07:06:26Z</time>
      </trkpt>
      <trkpt lat="45.06992" lon="6.71822">
        <ele>1244</ele>
        <time>2017-01-04T07:06:37Z</time>
      </trkpt>
      <trkpt lat="45.06975" lon="6.71847">
        <ele>1243</ele>
        <time>2017-01-04T07:06:47Z</time>
      </trkpt>
      <trkpt lat="45.06959" lon="6.71868">
        <ele>1243</ele>
        <time>2017-01-04T07:06:56Z</time>
      </trkpt>
      <trkpt lat="45.06901" lon="6.71925">
        <ele>1241</ele>
        <time>2017-01-04T07:07:24Z</time>
      </trkpt>
      <trkpt lat="45.06881" lon="6.71951">
        <ele>1239</ele>
        <time>2017-01-04T07:07:35Z</time>
      </trkpt>
      <trkpt lat="45.0682" lon="6.72043">
        <ele>1237</ele>
        <time>2017-01-04T07:08:11Z</time>
      </trkpt>
      <trkpt lat="45.0681" lon="6.72061">
        <ele>1237</ele>
        <time>2017-01-04T07:08:17Z</time>
      </trkpt>
      <trkpt lat="45.06801" lon="6.72083">
        <ele>1238</ele>
        <time>2017-01-04T07:08:24Z</time>
      </trkpt>
      <trkpt lat="45.06783" lon="6.72138">
        <ele>1240</ele>
        <time>2017-01-04T07:08:42Z</time>
      </trkpt>
      <trkpt lat="45.06768" lon="6.72163">
        <ele>1242</ele>
        <time>2017-01-04T07:08:51Z</time>
      </trkpt>
      <trkpt lat="45.06757" lon="6.72178">
        <ele>1245</ele>
        <time>2017-01-04T07:08:57Z</time>
      </trkpt>
      <trkpt lat="45.06735" lon="6.722">
        <ele>1244</ele>
        <time>2017-01-04T07:09:08Z</time>
      </trkpt>
      <trkpt lat="45.06717" lon="6.72208">
        <ele>1237</ele>
        <time>2017-01-04T07:09:15Z</time>
      </trkpt>
      <trkpt lat="45.06637" lon="6.72233">
        <ele>1231</ele>
        <time>2017-01-04T07:09:48Z</time>
      </trkpt>
      <trkpt lat="45.06622" lon="6.7224">
        <ele>1230</ele>
        <time>2017-01-04T07:09:54Z</time>
      </trkpt>
      <trkpt lat="45.06592" lon="6.72265">
        <ele>1229</ele>
        <time>2017-01-04T07:10:08Z</time>
      </trkpt>
      <trkpt lat="45.06566" lon="6.72297">
        <ele>1228</ele>
        <time>2017-01-04T07:10:22Z</time>
      </trkpt>
      <trkpt lat="45.06464" lon="6.72454">
        <ele>1222</ele>
        <time>2017-01-04T07:11:22Z</time>
      </trkpt>
      <trkpt lat="45.0634" lon="6.72631">
        <ele>1220</ele>
        <time>2017-01-04T07:12:33Z</time>
      </trkpt>
      <trkpt lat="45.06275" lon="6.72716">
        <ele>1220</ele>
        <time>2017-01-04T07:13:08Z</time>
      </trkpt>
      <trkpt lat="45.06216" lon="6.72786">
        <ele>1214</ele>
        <time>2017-01-04T07:13:39Z</time>
      </trkpt>
      <trkpt lat="45.05938" lon="6.7307">
        <ele>1204</ele>
        <time>2017-01-04T07:15:56Z</time>
      </trkpt>
      <trkpt lat="45.05928" lon="6.73075">
        <ele>1205</ele>
        <time>2017-01-04T07:16:01Z</time>
      </trkpt>
      <trkpt lat="45.05896" lon="6.73078">
        <ele>1206</ele>
        <time>2017-01-04T07:16:13Z</time>
      </trkpt>
      <trkpt lat="45.05882" lon="6.73084">
        <ele>1207</ele>
        <time>2017-01-04T07:16:19Z</time>
      </trkpt>
      <trkpt lat="45.05869" lon="6.73093">
        <ele>1207</ele>
        <time>2017-01-04T07:16:25Z</time>
      </trkpt>
      <trkpt lat="45.05856" lon="6.73104">
        <ele>1208</ele>
        <time>2017-01-04T07:16:31Z</time>
      </trkpt>
      <trkpt lat="45.05845" lon="6.73118">
        <ele>1207</ele>
        <time>2017-01-04T07:16:37Z</time>
      </trkpt>
      <trkpt lat="45.05829" lon="6.7315">
        <ele>1204</ele>
        <time>2017-01-04T07:16:48Z</time>
      </trkpt>
      <trkpt lat="45.05785" lon="6.73277">
        <ele>1207</ele>
        <time>2017-01-04T07:17:28Z</time>
      </trkpt>
      <trkpt lat="45.05768" lon="6.73307">
        <ele>1206</ele>
        <time>2017-01-04T07:17:39Z</time>
      </trkpt>
      <trkpt lat="45.05715" lon="6.73389">
        <ele>1196</ele>
        <time>2017-01-04T07:18:11Z</time>
      </trkpt>
      <trkpt lat="45.05709" lon="6.73404">
        <ele>1195</ele>
        <time>2017-01-04T07:18:15Z</time>
      </trkpt>
      <trkpt lat="45.05687" lon="6.7349">
        <ele>1192</ele>
        <time>2017-01-04T07:18:41Z</time>
      </trkpt>
      <trkpt lat="45.05659" lon="6.73581">
        <ele>1190</ele>
        <time>2017-01-04T07:19:09Z</time>
      </trkpt>
      <trkpt lat="45.05615" lon="6.73687">
        <ele>1183</ele>
        <time>2017-01-04T07:19:44Z</time>
      </trkpt>
      <trkpt lat="45.05464" lon="6.74034">
        <ele>1182</ele>
        <time>2017-01-04T07:21:39Z</time>
      </trkpt>
      <trkpt lat="45.05419" lon="6.74133">
        <ele>1175</ele>
        <time>2017-01-04T07:22:13Z</time>
      </trkpt>
      <trkpt lat="45.05397" lon="6.74173">
        <ele>1178</ele>
        <time>2017-01-04T07:22:27Z</time>
      </trkpt>
      <trkpt lat="45.05371" lon="6.74212">
        <ele>1179</ele>
        <time>2017-01-04T07:22:42Z</time>
      </trkpt>
      <trkpt lat="45.05342" lon="6.74249">
        <ele>1177</ele>
        <time>2017-01-04T07:22:58Z</time>
      </trkpt>
      <trkpt lat="45.05309" lon="6.74283">
        <ele>1178</ele>
        <time>2017-01-04T07:23:14Z</time>
      </trkpt>
      <trkpt lat="45.05221" lon="6.74357">
        <ele>1174</ele>
        <time>2017-01-04T07:23:55Z</time>
      </trkpt>
      <trkpt lat="45.05207" lon="6.74371">
        <ele>1173</ele>
        <time>2017-01-04T07:24:02Z</time>
      </trkpt>
      <trkpt lat="45.05199" lon="6.74389">
        <ele>1173</ele>
        <time>2017-01-04T07:24:08Z</time>
      </trkpt>
      <trkpt lat="45.05178" lon="6.7445">
        <ele>1181</ele>
        <time>2017-01-04T07:24:27Z</time>
      </trkpt>
      <trkpt lat="45.05154" lon="6.745">
        <ele>1180</ele>
        <time>2017-01-04T07:24:44Z</time>
      </trkpt>
      <trkpt lat="45.05128" lon="6.74549">
        <ele>1179</ele>
        <time>2017-01-04T07:25:02Z</time>
      </trkpt>
      <trkpt lat="45.0511" lon="6.74577">
        <ele>1177</ele>
        <time>2017-01-04T07:25:12Z</time>
      </trkpt>
      <trkpt lat="45.05074" lon="6.74615">
        <ele>1173</ele>
        <time>2017-01-04T07:25:30Z</time>
      </trkpt>
      <trkpt lat="45.0506" lon="6.7464">
        <ele>1171</ele>
        <time>2017-01-04T07:25:39Z</time>
      </trkpt>
      <trkpt lat="45.05052" lon="6.7466">
        <ele>1171</ele>
        <time>2017-01-04T07:25:46Z</time>
      </trkpt>
      <trkpt lat="45.05043" lon="6.74693">
        <ele>1169</ele>
        <time>2017-01-04T07:25:56Z</time>
      </trkpt>
      <trkpt lat="45.0501" lon="6.74843">
        <ele>1163</ele>
        <time>2017-01-04T07:26:40Z</time>
      </trkpt>
      <trkpt lat="45.05001" lon="6.74875">
        <ele>1163</ele>
        <time>2017-01-04T07:26:50Z</time>
      </trkpt>
      <trkpt lat="45.0499" lon="6.74911">
        <ele>1166</ele>
        <time>2017-01-04T07:27:01Z</time>
      </trkpt>
      <trkpt lat="45.04881" lon="6.75147">
        <ele>1162</ele>
        <time>2017-01-04T07:28:21Z</time>
      </trkpt>
      <trkpt lat="45.04852" lon="6.75218">
        <ele>1162</ele>
        <time>2017-01-04T07:28:44Z</time>
      </trkpt>
      <trkpt lat="45.04825" lon="6.75301">
        <ele>1163</ele>
        <time>2017-01-04T07:29:10Z</time>
      </trkpt>
      <trkpt lat="45.04808" lon="6.7537">
        <ele>1161</ele>
        <time>2017-01-04T07:29:30Z</time>
      </trkpt>
      <trkpt lat="45.04709" lon="6.75798">
        <ele>1152</ele>
        <time>2017-01-04T07:31:38Z</time>
      </trkpt>
      <trkpt lat="45.04688" lon="6.75895">
        <ele>1155</ele>
        <time>2017-01-04T07:32:07Z</time>
      </trkpt>
      <trkpt lat="45.04668" lon="6.75999">
        <ele>1160</ele>
        <time>2017-01-04T07:32:37Z</time>
      </trkpt>
      <trkpt lat="45.04643" lon="6.76075">
        <ele>1158</ele>
        <time>2017-01-04T07:33:01Z</time>
      </trkpt>
      <trkpt lat="45.04592" lon="6.76265">
        <ele>1147</ele>
        <time>2017-01-04T07:33:58Z</time>
      </trkpt>
      <trkpt lat="45.04532" lon="6.765">
        <ele>1140</ele>
        <time>2017-01-04T07:35:09Z</time>
      </trkpt>
      <trkpt lat="45.04518" lon="6.76564">
        <ele>1136</ele>
        <time>2017-01-04T07:35:28Z</time>
      </trkpt>
      <trkpt lat="45.04512" lon="6.76603">
        <ele>1136</ele>
        <time>2017-01-04T07:35:39Z</time>
      </trkpt>
      <trkpt lat="45.04509" lon="6.76641">
        <ele>1136</ele>
        <time>2017-01-04T07:35:50Z</time>
      </trkpt>
      <trkpt lat="45.04503" lon="6.76758">
        <ele>1132</ele>
        <time>2017-01-04T07:36:23Z</time>
      </trkpt>
      <trkpt lat="45.04486" lon="6.77241">
        <ele>1128</ele>
        <time>2017-01-04T07:38:40Z</time>
      </trkpt>
      <trkpt lat="45.04479" lon="6.77324">
        <ele>1124</ele>
        <time>2017-01-04T07:39:04Z</time>
      </trkpt>
      <trkpt lat="45.04467" lon="6.77399">
        <ele>1127</ele>
        <time>2017-01-04T07:39:25Z</time>
      </trkpt>
      <trkpt lat="45.04415" lon="6.77629">
        <ele>1124</ele>
        <time>2017-01-04T07:40:34Z</time>
      </trkpt>
      <trkpt lat="45.04399" lon="6.77684">
        <ele>1125</ele>
        <time>2017-01-04T07:40:50Z</time>
      </trkpt>
      <trkpt lat="45.04381" lon="6.77738">
        <ele>1125</ele>
        <time>2017-01-04T07:41:07Z</time>
      </trkpt>
      <trkpt lat="45.04299" lon="6.77949">
        <ele>1121</ele>
        <time>2017-01-04T07:42:15Z</time>
      </trkpt>
      <trkpt lat="45.04221" lon="6.78155">
        <ele>1121</ele>
        <time>2017-01-04T07:43:22Z</time>
      </trkpt>
      <trkpt lat="45.04211" lon="6.78191">
        <ele>1120</ele>
        <time>2017-01-04T07:43:32Z</time>
      </trkpt>
      <trkpt lat="45.042" lon="6.78233">
        <ele>1120</ele>
        <time>2017-01-04T07:43:45Z</time>
      </trkpt>
      <trkpt lat="45.04184" lon="6.7832">
        <ele>1118</ele>
        <time>2017-01-04T07:44:11Z</time>
      </trkpt>
      <trkpt lat="45.0418" lon="6.78352">
        <ele>1116</ele>
        <time>2017-01-04T07:44:20Z</time>
      </trkpt>
      <trkpt lat="45.04178" lon="6.78381">
        <ele>1114</ele>
        <time>2017-01-04T07:44:28Z</time>
      </trkpt>
      <trkpt lat="45.04179" lon="6.78461">
        <ele>1115</ele>
        <time>2017-01-04T07:44:51Z</time>
      </trkpt>
      <trkpt lat="45.04182" lon="6.78483">
        <ele>1115</ele>
        <time>2017-01-04T07:44:57Z</time>
      </trkpt>
      <trkpt lat="45.04194" lon="6.78523">
        <ele>1115</ele>
        <time>2017-01-04T07:45:09Z</time>
      </trkpt>
      <trkpt lat="45.04208" lon="6.78565">
        <ele>1114</ele>
        <time>2017-01-04T07:45:22Z</time>
      </trkpt>
      <trkpt lat="45.04222" lon="6.78591">
        <ele>1114</ele>
        <time>2017-01-04T07:45:32Z</time>
      </trkpt>
      <trkpt lat="45.04239" lon="6.78614">
        <ele>1115</ele>
        <time>2017-01-04T07:45:41Z</time>
      </trkpt>
      <trkpt lat="45.04288" lon="6.78661">
        <ele>1118</ele>
        <time>2017-01-04T07:46:05Z</time>
      </trkpt>
      <trkpt lat="45.04325" lon="6.7871">
        <ele>1117</ele>
        <time>2017-01-04T07:46:25Z</time>
      </trkpt>
      <trkpt lat="45.04331" lon="6.78696">
        <ele>1116.96</ele>
        <time>2017-01-05T07:22:17Z</time>
      </trkpt>
      <trkpt lat="45.04326" lon="6.78683">
        <ele>1117.43</ele>
        <time>2017-01-05T07:22:19Z</time>
      </trkpt>
      <trkpt lat="45.04317" lon="6.7867">
        <ele>1117.9</ele>
        <time>2017-01-05T07:22:21Z</time>
      </trkpt>
      <trkpt lat="45.043" lon="6.78645">
        <ele>1119.07</ele>
        <time>2017-01-05T07:22:24Z</time>
      </trkpt>
      <trkpt lat="45.04292" lon="6.78631">
        <ele>1118.65</ele>
        <time>2017-01-05T07:22:26Z</time>
      </trkpt>
      <trkpt lat="45.04284" lon="6.78617">
        <ele>1118.3</ele>
        <time>2017-01-05T07:22:28Z</time>
      </trkpt>
      <trkpt lat="45.04286" lon="6.78598">
        <ele>1118.27</ele>
        <time>2017-01-05T07:22:39Z</time>
      </trkpt>
      <trkpt lat="45.04297" lon="6.78592">
        <ele>1119.13</ele>
        <time>2017-01-05T07:22:42Z</time>
      </trkpt>
      <trkpt lat="45.0431" lon="6.7859">
        <ele>1120.49</ele>
        <time>2017-01-05T07:22:44Z</time>
      </trkpt>
      <trkpt lat="45.0432" lon="6.78589">
        <ele>1121.56</ele>
        <time>2017-01-05T07:22:46Z</time>
      </trkpt>
      <trkpt lat="45.0433" lon="6.78584">
        <ele>1122.62</ele>
        <time>2017-01-05T07:22:48Z</time>
      </trkpt>
      <trkpt lat="45.0435" lon="6.78584">
        <ele>1124.22</ele>
        <time>2017-01-05T07:22:50Z</time>
      </trkpt>
      <trkpt lat="45.04361" lon="6.7858">
        <ele>1125.25</ele>
        <time>2017-01-05T07:22:51Z</time>
      </trkpt>
      <trkpt lat="45.0438" lon="6.78575">
        <ele>1127.01</ele>
        <time>2017-01-05T07:22:53Z</time>
      </trkpt>
      <trkpt lat="45.04399" lon="6.7857">
        <ele>1128.91</ele>
        <time>2017-01-05T07:22:55Z</time>
      </trkpt>
      <trkpt lat="45.04409" lon="6.78565">
        <ele>1130.24</ele>
        <time>2017-01-05T07:22:56Z</time>
      </trkpt>
      <trkpt lat="45.04427" lon="6.7856">
        <ele>1132.31</ele>
        <time>2017-01-05T07:22:58Z</time>
      </trkpt>
      <trkpt lat="45.04437" lon="6.78558">
        <ele>1133.24</ele>
        <time>2017-01-05T07:22:59Z</time>
      </trkpt>
      <trkpt lat="45.04454" lon="6.78552">
        <ele>1134.59</ele>
        <time>2017-01-05T07:23:01Z</time>
      </trkpt>
      <trkpt lat="45.04472" lon="6.78546">
        <ele>1135.7</ele>
        <time>2017-01-05T07:23:03Z</time>
      </trkpt>
      <trkpt lat="45.0449" lon="6.7854">
        <ele>1138.29</ele>
        <time>2017-01-05T07:23:05Z</time>
      </trkpt>
      <trkpt lat="45.04515" lon="6.78532">
        <ele>1142.36</ele>
        <time>2017-01-05T07:23:08Z</time>
      </trkpt>
      <trkpt lat="45.0453" lon="6.78528">
        <ele>1145.35</ele>
        <time>2017-01-05T07:23:10Z</time>
      </trkpt>
      <trkpt lat="45.04544" lon="6.78525">
        <ele>1147.35</ele>
        <time>2017-01-05T07:23:12Z</time>
      </trkpt>
      <trkpt lat="45.04558" lon="6.78524">
        <ele>1149.51</ele>
        <time>2017-01-05T07:23:15Z</time>
      </trkpt>
      <trkpt lat="45.04572" lon="6.78526">
        <ele>1151.36</ele>
        <time>2017-01-05T07:23:17Z</time>
      </trkpt>
      <trkpt lat="45.04583" lon="6.78531">
        <ele>1152.75</ele>
        <time>2017-01-05T07:23:19Z</time>
      </trkpt>
      <trkpt lat="45.04595" lon="6.78537">
        <ele>1153.8</ele>
        <time>2017-01-05T07:23:21Z</time>
      </trkpt>
      <trkpt lat="45.04608" lon="6.78542">
        <ele>1155.03</ele>
        <time>2017-01-05T07:23:23Z</time>
      </trkpt>
      <trkpt lat="45.0462" lon="6.78548">
        <ele>1157.02</ele>
        <time>2017-01-05T07:23:25Z</time>
      </trkpt>
      <trkpt lat="45.04632" lon="6.78554">
        <ele>1159.48</ele>
        <time>2017-01-05T07:23:27Z</time>
      </trkpt>
      <trkpt lat="45.04645" lon="6.78563">
        <ele>1163.07</ele>
        <time>2017-01-05T07:23:29Z</time>
      </trkpt>
      <trkpt lat="45.04658" lon="6.78566">
        <ele>1166.63</ele>
        <time>2017-01-05T07:23:31Z</time>
      </trkpt>
      <trkpt lat="45.04672" lon="6.78567">
        <ele>1169.63</ele>
        <time>2017-01-05T07:23:34Z</time>
      </trkpt>
      <trkpt lat="45.04685" lon="6.78565">
        <ele>1171.69</ele>
        <time>2017-01-05T07:23:36Z</time>
      </trkpt>
      <trkpt lat="45.04696" lon="6.78554">
        <ele>1173.13</ele>
        <time>2017-01-05T07:23:38Z</time>
      </trkpt>
      <trkpt lat="45.04706" lon="6.78543">
        <ele>1173.95</ele>
        <time>2017-01-05T07:23:40Z</time>
      </trkpt>
      <trkpt lat="45.04714" lon="6.78535">
        <ele>1174.84</ele>
        <time>2017-01-05T07:23:42Z</time>
      </trkpt>
      <trkpt lat="45.04731" lon="6.78522">
        <ele>1179.1</ele>
        <time>2017-01-05T07:24:02Z</time>
      </trkpt>
      <trkpt lat="45.0474" lon="6.78513">
        <ele>1181.61</ele>
        <time>2017-01-05T07:24:05Z</time>
      </trkpt>
      <trkpt lat="45.04756" lon="6.78492">
        <ele>1187.34</ele>
        <time>2017-01-05T07:24:10Z</time>
      </trkpt>
      <trkpt lat="45.04764" lon="6.78479">
        <ele>1191.54</ele>
        <time>2017-01-05T07:24:12Z</time>
      </trkpt>
      <trkpt lat="45.04783" lon="6.78485">
        <ele>1194.78</ele>
        <time>2017-01-05T07:24:15Z</time>
      </trkpt>
      <trkpt lat="45.04787" lon="6.78502">
        <ele>1195.55</ele>
        <time>2017-01-05T07:24:18Z</time>
      </trkpt>
      <trkpt lat="45.04785" lon="6.78517">
        <ele>1196.51</ele>
        <time>2017-01-05T07:24:21Z</time>
      </trkpt>
      <trkpt lat="45.04782" lon="6.7853">
        <ele>1197.02</ele>
        <time>2017-01-05T07:24:24Z</time>
      </trkpt>
      <trkpt lat="45.04782" lon="6.78558">
        <ele>1200.3</ele>
        <time>2017-01-05T07:24:28Z</time>
      </trkpt>
      <trkpt lat="45.04783" lon="6.78573">
        <ele>1201.34</ele>
        <time>2017-01-05T07:24:30Z</time>
      </trkpt>
      <trkpt lat="45.04785" lon="6.78588">
        <ele>1202.45</ele>
        <time>2017-01-05T07:24:32Z</time>
      </trkpt>
      <trkpt lat="45.04793" lon="6.78599">
        <ele>1205.63</ele>
        <time>2017-01-05T07:24:34Z</time>
      </trkpt>
      <trkpt lat="45.04797" lon="6.78613">
        <ele>1207.74</ele>
        <time>2017-01-05T07:24:36Z</time>
      </trkpt>
      <trkpt lat="45.04793" lon="6.78642">
        <ele>1205.48</ele>
        <time>2017-01-05T07:24:40Z</time>
      </trkpt>
      <trkpt lat="45.04793" lon="6.78659">
        <ele>1204.95</ele>
        <time>2017-01-05T07:24:42Z</time>
      </trkpt>
      <trkpt lat="45.04797" lon="6.78673">
        <ele>1206.01</ele>
        <time>2017-01-05T07:24:44Z</time>
      </trkpt>
      <trkpt lat="45.04803" lon="6.78685">
        <ele>1208.2</ele>
        <time>2017-01-05T07:24:46Z</time>
      </trkpt>
      <trkpt lat="45.04808" lon="6.78698">
        <ele>1208.78</ele>
        <time>2017-01-05T07:24:48Z</time>
      </trkpt>
      <trkpt lat="45.04812" lon="6.78712">
        <ele>1209.7</ele>
        <time>2017-01-05T07:24:50Z</time>
      </trkpt>
      <trkpt lat="45.04816" lon="6.78725">
        <ele>1210.94</ele>
        <time>2017-01-05T07:24:52Z</time>
      </trkpt>
      <trkpt lat="45.04833" lon="6.78743">
        <ele>1219.34</ele>
        <time>2017-01-05T07:24:57Z</time>
      </trkpt>
      <trkpt lat="45.04842" lon="6.78752">
        <ele>1222.86</ele>
        <time>2017-01-05T07:25:00Z</time>
      </trkpt>
      <trkpt lat="45.04846" lon="6.78778">
        <ele>1224.34</ele>
        <time>2017-01-05T07:25:04Z</time>
      </trkpt>
      <trkpt lat="45.0485" lon="6.78806">
        <ele>1227.54</ele>
        <time>2017-01-05T07:25:08Z</time>
      </trkpt>
      <trkpt lat="45.04851" lon="6.7882">
        <ele>1228.12</ele>
        <time>2017-01-05T07:25:11Z</time>
      </trkpt>
      <trkpt lat="45.04855" lon="6.78834">
        <ele>1230.19</ele>
        <time>2017-01-05T07:25:13Z</time>
      </trkpt>
      <trkpt lat="45.04861" lon="6.78849">
        <ele>1232.98</ele>
        <time>2017-01-05T07:25:16Z</time>
      </trkpt>
      <trkpt lat="45.0487" lon="6.78863">
        <ele>1237.24</ele>
        <time>2017-01-05T07:25:19Z</time>
      </trkpt>
      <trkpt lat="45.04875" lon="6.7888">
        <ele>1238.98</ele>
        <time>2017-01-05T07:25:22Z</time>
      </trkpt>
      <trkpt lat="45.04877" lon="6.78894">
        <ele>1239.34</ele>
        <time>2017-01-05T07:25:24Z</time>
      </trkpt>
      <trkpt lat="45.04875" lon="6.78909">
        <ele>1236.4</ele>
        <time>2017-01-05T07:25:26Z</time>
      </trkpt>
      <trkpt lat="45.04875" lon="6.78924">
        <ele>1235.48</ele>
        <time>2017-01-05T07:25:28Z</time>
      </trkpt>
      <trkpt lat="45.04869" lon="6.78957">
        <ele>1232.81</ele>
        <time>2017-01-05T07:25:33Z</time>
      </trkpt>
      <trkpt lat="45.04867" lon="6.78973">
        <ele>1232.13</ele>
        <time>2017-01-05T07:25:36Z</time>
      </trkpt>
      <trkpt lat="45.04877" lon="6.78978">
        <ele>1233.38</ele>
        <time>2017-01-05T07:25:39Z</time>
      </trkpt>
      <trkpt lat="45.0488" lon="6.78951">
        <ele>1236.37</ele>
        <time>2017-01-05T07:25:44Z</time>
      </trkpt>
      <trkpt lat="45.04886" lon="6.78934">
        <ele>1240.25</ele>
        <time>2017-01-05T07:25:47Z</time>
      </trkpt>
      <trkpt lat="45.04896" lon="6.78909">
        <ele>1248.15</ele>
        <time>2017-01-05T07:25:51Z</time>
      </trkpt>
      <trkpt lat="45.04898" lon="6.78896">
        <ele>1250.8</ele>
        <time>2017-01-05T07:25:53Z</time>
      </trkpt>
      <trkpt lat="45.04901" lon="6.78866">
        <ele>1253.69</ele>
        <time>2017-01-05T07:25:57Z</time>
      </trkpt>
      <trkpt lat="45.049" lon="6.78847">
        <ele>1253.04</ele>
        <time>2017-01-05T07:25:59Z</time>
      </trkpt>
      <trkpt lat="45.04901" lon="6.78831">
        <ele>1253.16</ele>
        <time>2017-01-05T07:26:01Z</time>
      </trkpt>
      <trkpt lat="45.04905" lon="6.78811">
        <ele>1254.86</ele>
        <time>2017-01-05T07:26:03Z</time>
      </trkpt>
      <trkpt lat="45.04905" lon="6.78796">
        <ele>1254.98</ele>
        <time>2017-01-05T07:26:06Z</time>
      </trkpt>
      <trkpt lat="45.0491" lon="6.78778">
        <ele>1258.87</ele>
        <time>2017-01-05T07:26:09Z</time>
      </trkpt>
      <trkpt lat="45.04914" lon="6.78763">
        <ele>1261.91</ele>
        <time>2017-01-05T07:26:11Z</time>
      </trkpt>
      <trkpt lat="45.04917" lon="6.78749">
        <ele>1264.15</ele>
        <time>2017-01-05T07:26:13Z</time>
      </trkpt>
      <trkpt lat="45.04924" lon="6.78735">
        <ele>1268.3</ele>
        <time>2017-01-05T07:26:16Z</time>
      </trkpt>
      <trkpt lat="45.04913" lon="6.78708">
        <ele>1263.81</ele>
        <time>2017-01-05T07:26:23Z</time>
      </trkpt>
      <trkpt lat="45.04911" lon="6.78694">
        <ele>1263.15</ele>
        <time>2017-01-05T07:26:25Z</time>
      </trkpt>
      <trkpt lat="45.04913" lon="6.7868">
        <ele>1264.62</ele>
        <time>2017-01-05T07:26:27Z</time>
      </trkpt>
      <trkpt lat="45.04913" lon="6.78662">
        <ele>1264.91</ele>
        <time>2017-01-05T07:26:29Z</time>
      </trkpt>
      <trkpt lat="45.04916" lon="6.78648">
        <ele>1265.85</ele>
        <time>2017-01-05T07:26:31Z</time>
      </trkpt>
      <trkpt lat="45.04921" lon="6.78633">
        <ele>1267.23</ele>
        <time>2017-01-05T07:26:33Z</time>
      </trkpt>
      <trkpt lat="45.04928" lon="6.78622">
        <ele>1269.39</ele>
        <time>2017-01-05T07:26:35Z</time>
      </trkpt>
      <trkpt lat="45.04935" lon="6.78608">
        <ele>1270.84</ele>
        <time>2017-01-05T07:26:37Z</time>
      </trkpt>
      <trkpt lat="45.04943" lon="6.78583">
        <ele>1272.51</ele>
        <time>2017-01-05T07:26:40Z</time>
      </trkpt>
      <trkpt lat="45.04956" lon="6.78565">
        <ele>1275.75</ele>
        <time>2017-01-05T07:26:46Z</time>
      </trkpt>
      <trkpt lat="45.04973" lon="6.78554">
        <ele>1283.33</ele>
        <time>2017-01-05T07:26:50Z</time>
      </trkpt>
      <trkpt lat="45.04974" lon="6.78536">
        <ele>1281.79</ele>
        <time>2017-01-05T07:26:53Z</time>
      </trkpt>
      <trkpt lat="45.04972" lon="6.78509">
        <ele>1281.62</ele>
        <time>2017-01-05T07:26:57Z</time>
      </trkpt>
      <trkpt lat="45.04972" lon="6.78482">
        <ele>1285.53</ele>
        <time>2017-01-05T07:27:01Z</time>
      </trkpt>
      <trkpt lat="45.04967" lon="6.78465">
        <ele>1284.31</ele>
        <time>2017-01-05T07:27:03Z</time>
      </trkpt>
      <trkpt lat="45.04958" lon="6.78452">
        <ele>1279.63</ele>
        <time>2017-01-05T07:27:05Z</time>
      </trkpt>
      <trkpt lat="45.04956" lon="6.78425">
        <ele>1280.47</ele>
        <time>2017-01-05T07:27:09Z</time>
      </trkpt>
      <trkpt lat="45.04961" lon="6.78399">
        <ele>1284.72</ele>
        <time>2017-01-05T07:27:12Z</time>
      </trkpt>
      <trkpt lat="45.04973" lon="6.78402">
        <ele>1291.65</ele>
        <time>2017-01-05T07:27:18Z</time>
      </trkpt>
      <trkpt lat="45.04973" lon="6.78418">
        <ele>1292.1</ele>
        <time>2017-01-05T07:27:21Z</time>
      </trkpt>
      <trkpt lat="45.0498" lon="6.78443">
        <ele>1292.81</ele>
        <time>2017-01-05T07:27:26Z</time>
      </trkpt>
      <trkpt lat="45.04997" lon="6.78453">
        <ele>1301.61</ele>
        <time>2017-01-05T07:27:31Z</time>
      </trkpt>
      <trkpt lat="45.05004" lon="6.78464">
        <ele>1304.34</ele>
        <time>2017-01-05T07:27:33Z</time>
      </trkpt>
      <trkpt lat="45.05004" lon="6.78484">
        <ele>1302.42</ele>
        <time>2017-01-05T07:27:36Z</time>
      </trkpt>
      <trkpt lat="45.05" lon="6.78498">
        <ele>1299.29</ele>
        <time>2017-01-05T07:27:38Z</time>
      </trkpt>
      <trkpt lat="45.05003" lon="6.78525">
        <ele>1298.6</ele>
        <time>2017-01-05T07:27:42Z</time>
      </trkpt>
      <trkpt lat="45.05009" lon="6.78541">
        <ele>1300.72</ele>
        <time>2017-01-05T07:27:45Z</time>
      </trkpt>
      <trkpt lat="45.05023" lon="6.78563">
        <ele>1306.54</ele>
        <time>2017-01-05T07:27:49Z</time>
      </trkpt>
      <trkpt lat="45.05031" lon="6.78574">
        <ele>1310.31</ele>
        <time>2017-01-05T07:27:51Z</time>
      </trkpt>
      <trkpt lat="45.05024" lon="6.78587">
        <ele>1307.57</ele>
        <time>2017-01-05T07:27:54Z</time>
      </trkpt>
      <trkpt lat="45.05007" lon="6.786">
        <ele>1301.08</ele>
        <time>2017-01-05T07:27:58Z</time>
      </trkpt>
      <trkpt lat="45.04994" lon="6.78618">
        <ele>1297.11</ele>
        <time>2017-01-05T07:28:02Z</time>
      </trkpt>
      <trkpt lat="45.04989" lon="6.78631">
        <ele>1296.16</ele>
        <time>2017-01-05T07:28:04Z</time>
      </trkpt>
      <trkpt lat="45.04983" lon="6.78646">
        <ele>1295.68</ele>
        <time>2017-01-05T07:28:07Z</time>
      </trkpt>
      <trkpt lat="45.04987" lon="6.78679">
        <ele>1301.6</ele>
        <time>2017-01-05T07:28:12Z</time>
      </trkpt>
      <trkpt lat="45.04991" lon="6.78697">
        <ele>1304.11</ele>
        <time>2017-01-05T07:28:15Z</time>
      </trkpt>
      <trkpt lat="45.05005" lon="6.78722">
        <ele>1310.07</ele>
        <time>2017-01-05T07:28:21Z</time>
      </trkpt>
      <trkpt lat="45.0501" lon="6.78736">
        <ele>1312.35</ele>
        <time>2017-01-05T07:28:24Z</time>
      </trkpt>
      <trkpt lat="45.05007" lon="6.78763">
        <ele>1308.38</ele>
        <time>2017-01-05T07:28:29Z</time>
      </trkpt>
      <trkpt lat="45.05017" lon="6.78765">
        <ele>1314.07</ele>
        <time>2017-01-05T07:28:32Z</time>
      </trkpt>
      <trkpt lat="45.0502" lon="6.78752">
        <ele>1317.14</ele>
        <time>2017-01-05T07:28:35Z</time>
      </trkpt>
      <trkpt lat="45.05024" lon="6.78736">
        <ele>1320.87</ele>
        <time>2017-01-05T07:28:38Z</time>
      </trkpt>
      <trkpt lat="45.05021" lon="6.78704">
        <ele>1319.72</ele>
        <time>2017-01-05T07:28:44Z</time>
      </trkpt>
      <trkpt lat="45.05021" lon="6.78687">
        <ele>1319.18</ele>
        <time>2017-01-05T07:28:47Z</time>
      </trkpt>
      <trkpt lat="45.05021" lon="6.78673">
        <ele>1318.27</ele>
        <time>2017-01-05T07:28:49Z</time>
      </trkpt>
      <trkpt lat="45.05035" lon="6.78649">
        <ele>1321.21</ele>
        <time>2017-01-05T07:28:53Z</time>
      </trkpt>
      <trkpt lat="45.05042" lon="6.78637">
        <ele>1322.56</ele>
        <time>2017-01-05T07:28:55Z</time>
      </trkpt>
      <trkpt lat="45.0505" lon="6.78627">
        <ele>1324.96</ele>
        <time>2017-01-05T07:28:57Z</time>
      </trkpt>
      <trkpt lat="45.05063" lon="6.78621">
        <ele>1330.86</ele>
        <time>2017-01-05T07:28:59Z</time>
      </trkpt>
      <trkpt lat="45.05071" lon="6.78613">
        <ele>1334.46</ele>
        <time>2017-01-05T07:29:01Z</time>
      </trkpt>
      <trkpt lat="45.05076" lon="6.78602">
        <ele>1336.59</ele>
        <time>2017-01-05T07:29:03Z</time>
      </trkpt>
      <trkpt lat="45.05082" lon="6.78589">
        <ele>1339.51</ele>
        <time>2017-01-05T07:29:05Z</time>
      </trkpt>
      <trkpt lat="45.05087" lon="6.78575">
        <ele>1341.49</ele>
        <time>2017-01-05T07:29:07Z</time>
      </trkpt>
      <trkpt lat="45.05086" lon="6.78561">
        <ele>1339.83</ele>
        <time>2017-01-05T07:29:09Z</time>
      </trkpt>
      <trkpt lat="45.05079" lon="6.78548">
        <ele>1336.83</ele>
        <time>2017-01-05T07:29:11Z</time>
      </trkpt>
      <trkpt lat="45.05074" lon="6.78534">
        <ele>1336.3</ele>
        <time>2017-01-05T07:29:13Z</time>
      </trkpt>
      <trkpt lat="45.05073" lon="6.78517">
        <ele>1337.19</ele>
        <time>2017-01-05T07:29:15Z</time>
      </trkpt>
      <trkpt lat="45.05087" lon="6.78502">
        <ele>1346.14</ele>
        <time>2017-01-05T07:29:19Z</time>
      </trkpt>
      <trkpt lat="45.05089" lon="6.78485">
        <ele>1347.42</ele>
        <time>2017-01-05T07:29:21Z</time>
      </trkpt>
      <trkpt lat="45.05081" lon="6.78462">
        <ele>1343.89</ele>
        <time>2017-01-05T07:29:24Z</time>
      </trkpt>
      <trkpt lat="45.05083" lon="6.78444">
        <ele>1346.67</ele>
        <time>2017-01-05T07:29:27Z</time>
      </trkpt>
      <trkpt lat="45.05082" lon="6.78429">
        <ele>1347.3</ele>
        <time>2017-01-05T07:29:29Z</time>
      </trkpt>
      <trkpt lat="45.05079" lon="6.78413">
        <ele>1345.56</ele>
        <time>2017-01-05T07:29:31Z</time>
      </trkpt>
      <trkpt lat="45.05074" lon="6.78395">
        <ele>1341.46</ele>
        <time>2017-01-05T07:29:33Z</time>
      </trkpt>
      <trkpt lat="45.05075" lon="6.7838">
        <ele>1342</ele>
        <time>2017-01-05T07:29:35Z</time>
      </trkpt>
      <trkpt lat="45.05077" lon="6.78367">
        <ele>1343.7</ele>
        <time>2017-01-05T07:29:37Z</time>
      </trkpt>
      <trkpt lat="45.05079" lon="6.78352">
        <ele>1345.02</ele>
        <time>2017-01-05T07:29:39Z</time>
      </trkpt>
      <trkpt lat="45.05093" lon="6.78332">
        <ele>1351.16</ele>
        <time>2017-01-05T07:29:43Z</time>
      </trkpt>
      <trkpt lat="45.05108" lon="6.78318">
        <ele>1357.2</ele>
        <time>2017-01-05T07:29:47Z</time>
      </trkpt>
      <trkpt lat="45.05119" lon="6.78314">
        <ele>1361.24</ele>
        <time>2017-01-05T07:29:49Z</time>
      </trkpt>
      <trkpt lat="45.05125" lon="6.78302">
        <ele>1363.89</ele>
        <time>2017-01-05T07:29:52Z</time>
      </trkpt>
      <trkpt lat="45.05119" lon="6.78274">
        <ele>1363.64</ele>
        <time>2017-01-05T07:29:57Z</time>
      </trkpt>
      <trkpt lat="45.05113" lon="6.78262">
        <ele>1362.45</ele>
        <time>2017-01-05T07:29:59Z</time>
      </trkpt>
      <trkpt lat="45.05109" lon="6.78245">
        <ele>1363.14</ele>
        <time>2017-01-05T07:30:02Z</time>
      </trkpt>
      <trkpt lat="45.05103" lon="6.78232">
        <ele>1360.85</ele>
        <time>2017-01-05T07:30:05Z</time>
      </trkpt>
      <trkpt lat="45.05113" lon="6.78224">
        <ele>1365.64</ele>
        <time>2017-01-05T07:30:12Z</time>
      </trkpt>
      <trkpt lat="45.05119" lon="6.78252">
        <ele>1366.85</ele>
        <time>2017-01-05T07:30:16Z</time>
      </trkpt>
      <trkpt lat="45.05129" lon="6.78259">
        <ele>1369.98</ele>
        <time>2017-01-05T07:30:18Z</time>
      </trkpt>
      <trkpt lat="45.05137" lon="6.7827">
        <ele>1372.45</ele>
        <time>2017-01-05T07:30:20Z</time>
      </trkpt>
      <trkpt lat="45.05147" lon="6.78273">
        <ele>1376.49</ele>
        <time>2017-01-05T07:30:22Z</time>
      </trkpt>
      <trkpt lat="45.05159" lon="6.78278">
        <ele>1380.84</ele>
        <time>2017-01-05T07:30:24Z</time>
      </trkpt>
      <trkpt lat="45.05171" lon="6.7828">
        <ele>1385.98</ele>
        <time>2017-01-05T07:30:26Z</time>
      </trkpt>
      <trkpt lat="45.05174" lon="6.78298">
        <ele>1387.86</ele>
        <time>2017-01-05T07:30:29Z</time>
      </trkpt>
      <trkpt lat="45.05167" lon="6.78317">
        <ele>1384.79</ele>
        <time>2017-01-05T07:30:32Z</time>
      </trkpt>
      <trkpt lat="45.05167" lon="6.7835">
        <ele>1385.08</ele>
        <time>2017-01-05T07:30:37Z</time>
      </trkpt>
      <trkpt lat="45.05159" lon="6.78373">
        <ele>1383.66</ele>
        <time>2017-01-05T07:30:41Z</time>
      </trkpt>
      <trkpt lat="45.05155" lon="6.78392">
        <ele>1383.15</ele>
        <time>2017-01-05T07:30:44Z</time>
      </trkpt>
      <trkpt lat="45.05159" lon="6.78407">
        <ele>1384.89</ele>
        <time>2017-01-05T07:30:47Z</time>
      </trkpt>
      <trkpt lat="45.05163" lon="6.78425">
        <ele>1385.89</ele>
        <time>2017-01-05T07:30:50Z</time>
      </trkpt>
      <trkpt lat="45.05163" lon="6.78439">
        <ele>1384.48</ele>
        <time>2017-01-05T07:30:52Z</time>
      </trkpt>
      <trkpt lat="45.05171" lon="6.78453">
        <ele>1387.79</ele>
        <time>2017-01-05T07:30:54Z</time>
      </trkpt>
      <trkpt lat="45.05177" lon="6.78468">
        <ele>1390.12</ele>
        <time>2017-01-05T07:30:57Z</time>
      </trkpt>
      <trkpt lat="45.05181" lon="6.78482">
        <ele>1390.81</ele>
        <time>2017-01-05T07:30:59Z</time>
      </trkpt>
      <trkpt lat="45.05181" lon="6.78503">
        <ele>1390.06</ele>
        <time>2017-01-05T07:31:01Z</time>
      </trkpt>
      <trkpt lat="45.05184" lon="6.78517">
        <ele>1390.36</ele>
        <time>2017-01-05T07:31:03Z</time>
      </trkpt>
      <trkpt lat="45.05192" lon="6.78531">
        <ele>1393.08</ele>
        <time>2017-01-05T07:31:05Z</time>
      </trkpt>
      <trkpt lat="45.05199" lon="6.78544">
        <ele>1395.31</ele>
        <time>2017-01-05T07:31:07Z</time>
      </trkpt>
      <trkpt lat="45.05215" lon="6.78563">
        <ele>1401.35</ele>
        <time>2017-01-05T07:31:12Z</time>
      </trkpt>
      <trkpt lat="45.05215" lon="6.78583">
        <ele>1400.04</ele>
        <time>2017-01-05T07:31:16Z</time>
      </trkpt>
      <trkpt lat="45.05218" lon="6.78598">
        <ele>1401.03</ele>
        <time>2017-01-05T07:31:19Z</time>
      </trkpt>
      <trkpt lat="45.05224" lon="6.78611">
        <ele>1402.46</ele>
        <time>2017-01-05T07:31:21Z</time>
      </trkpt>
      <trkpt lat="45.05228" lon="6.78628">
        <ele>1403.38</ele>
        <time>2017-01-05T07:31:23Z</time>
      </trkpt>
      <trkpt lat="45.05229" lon="6.78643">
        <ele>1403.52</ele>
        <time>2017-01-05T07:31:24Z</time>
      </trkpt>
      <trkpt lat="45.05234" lon="6.78658">
        <ele>1405.68</ele>
        <time>2017-01-05T07:31:26Z</time>
      </trkpt>
      <trkpt lat="45.05251" lon="6.78674">
        <ele>1410.62</ele>
        <time>2017-01-05T07:31:30Z</time>
      </trkpt>
      <trkpt lat="45.05257" lon="6.78694">
        <ele>1412.83</ele>
        <time>2017-01-05T07:31:33Z</time>
      </trkpt>
      <trkpt lat="45.05261" lon="6.78712">
        <ele>1414.92</ele>
        <time>2017-01-05T07:31:36Z</time>
      </trkpt>
      <trkpt lat="45.05264" lon="6.78729">
        <ele>1416.88</ele>
        <time>2017-01-05T07:31:39Z</time>
      </trkpt>
      <trkpt lat="45.05263" lon="6.78761">
        <ele>1418.16</ele>
        <time>2017-01-05T07:31:43Z</time>
      </trkpt>
      <trkpt lat="45.05263" lon="6.7878">
        <ele>1419.66</ele>
        <time>2017-01-05T07:31:45Z</time>
      </trkpt>
      <trkpt lat="45.05265" lon="6.78795">
        <ele>1421.61</ele>
        <time>2017-01-05T07:31:47Z</time>
      </trkpt>
      <trkpt lat="45.05265" lon="6.78815">
        <ele>1422.01</ele>
        <time>2017-01-05T07:31:50Z</time>
      </trkpt>
      <trkpt lat="45.05273" lon="6.78827">
        <ele>1425.46</ele>
        <time>2017-01-05T07:31:53Z</time>
      </trkpt>
      <trkpt lat="45.05277" lon="6.78813">
        <ele>1428.53</ele>
        <time>2017-01-05T07:31:56Z</time>
      </trkpt>
      <trkpt lat="45.05278" lon="6.78796">
        <ele>1427.95</ele>
        <time>2017-01-05T07:31:59Z</time>
      </trkpt>
      <trkpt lat="45.05283" lon="6.78783">
        <ele>1428.66</ele>
        <time>2017-01-05T07:32:01Z</time>
      </trkpt>
      <trkpt lat="45.05288" lon="6.78769">
        <ele>1428.89</ele>
        <time>2017-01-05T07:32:03Z</time>
      </trkpt>
      <trkpt lat="45.05291" lon="6.78754">
        <ele>1428.68</ele>
        <time>2017-01-05T07:32:05Z</time>
      </trkpt>
      <trkpt lat="45.05295" lon="6.78736">
        <ele>1429.94</ele>
        <time>2017-01-05T07:32:07Z</time>
      </trkpt>
      <trkpt lat="45.05299" lon="6.78714">
        <ele>1432.53</ele>
        <time>2017-01-05T07:32:09Z</time>
      </trkpt>
      <trkpt lat="45.05303" lon="6.78693">
        <ele>1436.64</ele>
        <time>2017-01-05T07:32:11Z</time>
      </trkpt>
      <trkpt lat="45.05307" lon="6.78675">
        <ele>1440.15</ele>
        <time>2017-01-05T07:32:14Z</time>
      </trkpt>
      <trkpt lat="45.05312" lon="6.7866">
        <ele>1441.99</ele>
        <time>2017-01-05T07:32:16Z</time>
      </trkpt>
      <trkpt lat="45.05313" lon="6.78641">
        <ele>1440.82</ele>
        <time>2017-01-05T07:32:18Z</time>
      </trkpt>
      <trkpt lat="45.0532" lon="6.78617">
        <ele>1441.49</ele>
        <time>2017-01-05T07:32:22Z</time>
      </trkpt>
      <trkpt lat="45.05324" lon="6.78601">
        <ele>1443.05</ele>
        <time>2017-01-05T07:32:24Z</time>
      </trkpt>
      <trkpt lat="45.05324" lon="6.78585">
        <ele>1444.41</ele>
        <time>2017-01-05T07:32:26Z</time>
      </trkpt>
      <trkpt lat="45.05325" lon="6.7857">
        <ele>1444.95</ele>
        <time>2017-01-05T07:32:28Z</time>
      </trkpt>
      <trkpt lat="45.05325" lon="6.78542">
        <ele>1445.24</ele>
        <time>2017-01-05T07:32:32Z</time>
      </trkpt>
      <trkpt lat="45.05327" lon="6.78522">
        <ele>1447.29</ele>
        <time>2017-01-05T07:32:35Z</time>
      </trkpt>
      <trkpt lat="45.0533" lon="6.78507">
        <ele>1449.27</ele>
        <time>2017-01-05T07:32:37Z</time>
      </trkpt>
      <trkpt lat="45.05332" lon="6.78493">
        <ele>1450.87</ele>
        <time>2017-01-05T07:32:39Z</time>
      </trkpt>
      <trkpt lat="45.05335" lon="6.78477">
        <ele>1453.38</ele>
        <time>2017-01-05T07:32:42Z</time>
      </trkpt>
      <trkpt lat="45.05335" lon="6.78462">
        <ele>1453.99</ele>
        <time>2017-01-05T07:32:44Z</time>
      </trkpt>
      <trkpt lat="45.05335" lon="6.78429">
        <ele>1454.64</ele>
        <time>2017-01-05T07:32:49Z</time>
      </trkpt>
      <trkpt lat="45.05333" lon="6.78414">
        <ele>1453.8</ele>
        <time>2017-01-05T07:32:51Z</time>
      </trkpt>
      <trkpt lat="45.05341" lon="6.784">
        <ele>1456.43</ele>
        <time>2017-01-05T07:32:53Z</time>
      </trkpt>
      <trkpt lat="45.05344" lon="6.78386">
        <ele>1457.14</ele>
        <time>2017-01-05T07:32:55Z</time>
      </trkpt>
      <trkpt lat="45.05349" lon="6.78359">
        <ele>1457.25</ele>
        <time>2017-01-05T07:32:58Z</time>
      </trkpt>
      <trkpt lat="45.05353" lon="6.78342">
        <ele>1456.93</ele>
        <time>2017-01-05T07:33:00Z</time>
      </trkpt>
      <trkpt lat="45.05359" lon="6.78328">
        <ele>1457.86</ele>
        <time>2017-01-05T07:33:02Z</time>
      </trkpt>
      <trkpt lat="45.05365" lon="6.78315">
        <ele>1459.42</ele>
        <time>2017-01-05T07:33:04Z</time>
      </trkpt>
      <trkpt lat="45.05372" lon="6.78285">
        <ele>1459.99</ele>
        <time>2017-01-05T07:33:09Z</time>
      </trkpt>
      <trkpt lat="45.05376" lon="6.78272">
        <ele>1461.06</ele>
        <time>2017-01-05T07:33:11Z</time>
      </trkpt>
      <trkpt lat="45.05382" lon="6.78258">
        <ele>1462.55</ele>
        <time>2017-01-05T07:33:13Z</time>
      </trkpt>
      <trkpt lat="45.05391" lon="6.78246">
        <ele>1465.66</ele>
        <time>2017-01-05T07:33:16Z</time>
      </trkpt>
      <trkpt lat="45.05396" lon="6.78232">
        <ele>1466.15</ele>
        <time>2017-01-05T07:33:19Z</time>
      </trkpt>
      <trkpt lat="45.05406" lon="6.78224">
        <ele>1469.07</ele>
        <time>2017-01-05T07:33:23Z</time>
      </trkpt>
      <trkpt lat="45.05405" lon="6.78239">
        <ele>1470.88</ele>
        <time>2017-01-05T07:33:27Z</time>
      </trkpt>
      <trkpt lat="45.05402" lon="6.78253">
        <ele>1471.45</ele>
        <time>2017-01-05T07:33:29Z</time>
      </trkpt>
      <trkpt lat="45.054" lon="6.7827">
        <ele>1472.24</ele>
        <time>2017-01-05T07:33:31Z</time>
      </trkpt>
      <trkpt lat="45.05404" lon="6.78296">
        <ele>1476.41</ele>
        <time>2017-01-05T07:33:35Z</time>
      </trkpt>
      <trkpt lat="45.05407" lon="6.78312">
        <ele>1478.35</ele>
        <time>2017-01-05T07:33:37Z</time>
      </trkpt>
      <trkpt lat="45.05411" lon="6.78325">
        <ele>1480.15</ele>
        <time>2017-01-05T07:33:39Z</time>
      </trkpt>
      <trkpt lat="45.05414" lon="6.7834">
        <ele>1481.32</ele>
        <time>2017-01-05T07:33:41Z</time>
      </trkpt>
      <trkpt lat="45.05418" lon="6.78353">
        <ele>1483.39</ele>
        <time>2017-01-05T07:33:43Z</time>
      </trkpt>
      <trkpt lat="45.05422" lon="6.78372">
        <ele>1486.36</ele>
        <time>2017-01-05T07:33:46Z</time>
      </trkpt>
      <trkpt lat="45.05424" lon="6.78387">
        <ele>1488.26</ele>
        <time>2017-01-05T07:33:49Z</time>
      </trkpt>
      <trkpt lat="45.05423" lon="6.78402">
        <ele>1488.19</ele>
        <time>2017-01-05T07:33:51Z</time>
      </trkpt>
      <trkpt lat="45.05425" lon="6.78422">
        <ele>1489.48</ele>
        <time>2017-01-05T07:33:53Z</time>
      </trkpt>
      <trkpt lat="45.05426" lon="6.78437">
        <ele>1490.47</ele>
        <time>2017-01-05T07:33:55Z</time>
      </trkpt>
      <trkpt lat="45.05429" lon="6.78464">
        <ele>1494.42</ele>
        <time>2017-01-05T07:33:59Z</time>
      </trkpt>
      <trkpt lat="45.05428" lon="6.78479">
        <ele>1495.17</ele>
        <time>2017-01-05T07:34:01Z</time>
      </trkpt>
      <trkpt lat="45.05432" lon="6.78496">
        <ele>1499.18</ele>
        <time>2017-01-05T07:34:03Z</time>
      </trkpt>
      <trkpt lat="45.05429" lon="6.78513">
        <ele>1499.54</ele>
        <time>2017-01-05T07:34:05Z</time>
      </trkpt>
      <trkpt lat="45.05427" lon="6.78533">
        <ele>1500.16</ele>
        <time>2017-01-05T07:34:07Z</time>
      </trkpt>
      <trkpt lat="45.05428" lon="6.78551">
        <ele>1501.44</ele>
        <time>2017-01-05T07:34:10Z</time>
      </trkpt>
      <trkpt lat="45.0543" lon="6.78567">
        <ele>1503.5</ele>
        <time>2017-01-05T07:34:12Z</time>
      </trkpt>
      <trkpt lat="45.05431" lon="6.78586">
        <ele>1504.86</ele>
        <time>2017-01-05T07:34:15Z</time>
      </trkpt>
      <trkpt lat="45.05431" lon="6.78617">
        <ele>1504.91</ele>
        <time>2017-01-05T07:34:19Z</time>
      </trkpt>
      <trkpt lat="45.05434" lon="6.78636">
        <ele>1504.86</ele>
        <time>2017-01-05T07:34:21Z</time>
      </trkpt>
      <trkpt lat="45.05433" lon="6.78651">
        <ele>1503.13</ele>
        <time>2017-01-05T07:34:23Z</time>
      </trkpt>
      <trkpt lat="45.05438" lon="6.78669">
        <ele>1504.11</ele>
        <time>2017-01-05T07:34:25Z</time>
      </trkpt>
      <trkpt lat="45.05439" lon="6.78683">
        <ele>1504.6</ele>
        <time>2017-01-05T07:34:27Z</time>
      </trkpt>
      <trkpt lat="45.05438" lon="6.787">
        <ele>1504.22</ele>
        <time>2017-01-05T07:34:30Z</time>
      </trkpt>
      <trkpt lat="45.05444" lon="6.78733">
        <ele>1510.97</ele>
        <time>2017-01-05T07:34:34Z</time>
      </trkpt>
      <trkpt lat="45.05449" lon="6.7875">
        <ele>1513.81</ele>
        <time>2017-01-05T07:34:37Z</time>
      </trkpt>
      <trkpt lat="45.05453" lon="6.78768">
        <ele>1514.64</ele>
        <time>2017-01-05T07:34:40Z</time>
      </trkpt>
      <trkpt lat="45.05456" lon="6.78795">
        <ele>1513.39</ele>
        <time>2017-01-05T07:34:45Z</time>
      </trkpt>
      <trkpt lat="45.05459" lon="6.78809">
        <ele>1511.83</ele>
        <time>2017-01-05T07:34:50Z</time>
      </trkpt>
      <trkpt lat="45.05469" lon="6.78803">
        <ele>1516.57</ele>
        <time>2017-01-05T07:34:54Z</time>
      </trkpt>
      <trkpt lat="45.0547" lon="6.78774">
        <ele>1523.1</ele>
        <time>2017-01-05T07:34:58Z</time>
      </trkpt>
      <trkpt lat="45.05471" lon="6.78758">
        <ele>1525.34</ele>
        <time>2017-01-05T07:35:01Z</time>
      </trkpt>
      <trkpt lat="45.05474" lon="6.78742">
        <ele>1529.96</ele>
        <time>2017-01-05T07:35:04Z</time>
      </trkpt>
      <trkpt lat="45.05476" lon="6.78722">
        <ele>1534.63</ele>
        <time>2017-01-05T07:35:08Z</time>
      </trkpt>
      <trkpt lat="45.0548" lon="6.78703">
        <ele>1534.59</ele>
        <time>2017-01-05T07:35:11Z</time>
      </trkpt>
      <trkpt lat="45.0548" lon="6.78687">
        <ele>1532.97</ele>
        <time>2017-01-05T07:35:13Z</time>
      </trkpt>
      <trkpt lat="45.05485" lon="6.78661">
        <ele>1535.36</ele>
        <time>2017-01-05T07:35:17Z</time>
      </trkpt>
      <trkpt lat="45.05485" lon="6.78642">
        <ele>1536.06</ele>
        <time>2017-01-05T07:35:20Z</time>
      </trkpt>
      <trkpt lat="45.05486" lon="6.78627">
        <ele>1536.67</ele>
        <time>2017-01-05T07:35:22Z</time>
      </trkpt>
      <trkpt lat="45.05491" lon="6.78596">
        <ele>1539.75</ele>
        <time>2017-01-05T07:35:27Z</time>
      </trkpt>
      <trkpt lat="45.0549" lon="6.7858">
        <ele>1539.19</ele>
        <time>2017-01-05T07:35:29Z</time>
      </trkpt>
      <trkpt lat="45.05495" lon="6.78564">
        <ele>1539.36</ele>
        <time>2017-01-05T07:35:32Z</time>
      </trkpt>
      <trkpt lat="45.05495" lon="6.78549">
        <ele>1538.46</ele>
        <time>2017-01-05T07:35:34Z</time>
      </trkpt>
      <trkpt lat="45.05497" lon="6.78533">
        <ele>1538.07</ele>
        <time>2017-01-05T07:35:36Z</time>
      </trkpt>
      <trkpt lat="45.05501" lon="6.78515">
        <ele>1539.1</ele>
        <time>2017-01-05T07:35:39Z</time>
      </trkpt>
      <trkpt lat="45.05507" lon="6.78499">
        <ele>1542.51</ele>
        <time>2017-01-05T07:35:42Z</time>
      </trkpt>
      <trkpt lat="45.05515" lon="6.78484">
        <ele>1546</ele>
        <time>2017-01-05T07:35:45Z</time>
      </trkpt>
      <trkpt lat="45.05524" lon="6.78471">
        <ele>1550.76</ele>
        <time>2017-01-05T07:35:48Z</time>
      </trkpt>
      <trkpt lat="45.05531" lon="6.78447">
        <ele>1551.28</ele>
        <time>2017-01-05T07:35:54Z</time>
      </trkpt>
      <trkpt lat="45.05539" lon="6.78453">
        <ele>1557.23</ele>
        <time>2017-01-05T07:38:23Z</time>
      </trkpt>
      <trkpt lat="45.05534" lon="6.78471">
        <ele>1557.25</ele>
        <time>2017-01-05T07:38:26Z</time>
      </trkpt>
      <trkpt lat="45.05531" lon="6.78485">
        <ele>1557.15</ele>
        <time>2017-01-05T07:38:28Z</time>
      </trkpt>
      <trkpt lat="45.0553" lon="6.78503">
        <ele>1557.65</ele>
        <time>2017-01-05T07:38:30Z</time>
      </trkpt>
      <trkpt lat="45.05527" lon="6.78521">
        <ele>1557.45</ele>
        <time>2017-01-05T07:38:33Z</time>
      </trkpt>
      <trkpt lat="45.05526" lon="6.78539">
        <ele>1557.03</ele>
        <time>2017-01-05T07:38:35Z</time>
      </trkpt>
      <trkpt lat="45.05529" lon="6.78553">
        <ele>1557.82</ele>
        <time>2017-01-05T07:38:37Z</time>
      </trkpt>
      <trkpt lat="45.05528" lon="6.7857">
        <ele>1559.58</ele>
        <time>2017-01-05T07:38:39Z</time>
      </trkpt>
      <trkpt lat="45.05526" lon="6.78593">
        <ele>1561.08</ele>
        <time>2017-01-05T07:38:41Z</time>
      </trkpt>
      <trkpt lat="45.05528" lon="6.78608">
        <ele>1562.17</ele>
        <time>2017-01-05T07:38:43Z</time>
      </trkpt>
      <trkpt lat="45.05528" lon="6.78623">
        <ele>1562.88</ele>
        <time>2017-01-05T07:38:45Z</time>
      </trkpt>
      <trkpt lat="45.05533" lon="6.78637">
        <ele>1566.46</ele>
        <time>2017-01-05T07:38:47Z</time>
      </trkpt>
      <trkpt lat="45.05537" lon="6.7865">
        <ele>1568.45</ele>
        <time>2017-01-05T07:38:49Z</time>
      </trkpt>
      <trkpt lat="45.05539" lon="6.78667">
        <ele>1568.69</ele>
        <time>2017-01-05T07:38:51Z</time>
      </trkpt>
      <trkpt lat="45.05538" lon="6.78694">
        <ele>1565.79</ele>
        <time>2017-01-05T07:38:53Z</time>
      </trkpt>
      <trkpt lat="45.05545" lon="6.78707">
        <ele>1568.48</ele>
        <time>2017-01-05T07:39:02Z</time>
      </trkpt>
      <trkpt lat="45.05549" lon="6.78691">
        <ele>1571.18</ele>
        <time>2017-01-05T07:39:05Z</time>
      </trkpt>
      <trkpt lat="45.05555" lon="6.78678">
        <ele>1575.44</ele>
        <time>2017-01-05T07:39:08Z</time>
      </trkpt>
      <trkpt lat="45.05562" lon="6.78654">
        <ele>1582.79</ele>
        <time>2017-01-05T07:39:11Z</time>
      </trkpt>
      <trkpt lat="45.05564" lon="6.78639">
        <ele>1586.38</ele>
        <time>2017-01-05T07:39:13Z</time>
      </trkpt>
      <trkpt lat="45.05562" lon="6.78618">
        <ele>1586.46</ele>
        <time>2017-01-05T07:39:15Z</time>
      </trkpt>
      <trkpt lat="45.05568" lon="6.78601">
        <ele>1589.98</ele>
        <time>2017-01-05T07:39:18Z</time>
      </trkpt>
      <trkpt lat="45.05568" lon="6.78587">
        <ele>1589.07</ele>
        <time>2017-01-05T07:39:20Z</time>
      </trkpt>
      <trkpt lat="45.05567" lon="6.78571">
        <ele>1588.38</ele>
        <time>2017-01-05T07:39:22Z</time>
      </trkpt>
      <trkpt lat="45.05575" lon="6.78545">
        <ele>1590.15</ele>
        <time>2017-01-05T07:39:27Z</time>
      </trkpt>
      <trkpt lat="45.05577" lon="6.78526">
        <ele>1587.98</ele>
        <time>2017-01-05T07:39:29Z</time>
      </trkpt>
      <trkpt lat="45.05585" lon="6.78518">
        <ele>1591.31</ele>
        <time>2017-01-05T07:39:31Z</time>
      </trkpt>
      <trkpt lat="45.05594" lon="6.78504">
        <ele>1594.31</ele>
        <time>2017-01-05T07:39:34Z</time>
      </trkpt>
      <trkpt lat="45.05595" lon="6.78487">
        <ele>1593.31</ele>
        <time>2017-01-05T07:39:36Z</time>
      </trkpt>
      <trkpt lat="45.05606" lon="6.78474">
        <ele>1599.07</ele>
        <time>2017-01-05T07:39:39Z</time>
      </trkpt>
      <trkpt lat="45.05617" lon="6.78445">
        <ele>1600.21</ele>
        <time>2017-01-05T07:39:44Z</time>
      </trkpt>
      <trkpt lat="45.05619" lon="6.78413">
        <ele>1597.35</ele>
        <time>2017-01-05T07:39:49Z</time>
      </trkpt>
      <trkpt lat="45.05624" lon="6.784">
        <ele>1600.23</ele>
        <time>2017-01-05T07:39:51Z</time>
      </trkpt>
      <trkpt lat="45.05625" lon="6.78384">
        <ele>1599.39</ele>
        <time>2017-01-05T07:39:53Z</time>
      </trkpt>
      <trkpt lat="45.05631" lon="6.7837">
        <ele>1600.49</ele>
        <time>2017-01-05T07:39:55Z</time>
      </trkpt>
      <trkpt lat="45.05639" lon="6.78354">
        <ele>1602.9</ele>
        <time>2017-01-05T07:39:58Z</time>
      </trkpt>
      <trkpt lat="45.05647" lon="6.78329">
        <ele>1604.1</ele>
        <time>2017-01-05T07:40:04Z</time>
      </trkpt>
      <trkpt lat="45.05653" lon="6.78314">
        <ele>1606.14</ele>
        <time>2017-01-05T07:40:07Z</time>
      </trkpt>
      <trkpt lat="45.05662" lon="6.78304">
        <ele>1610.27</ele>
        <time>2017-01-05T07:40:10Z</time>
      </trkpt>
      <trkpt lat="45.0567" lon="6.78321">
        <ele>1616</ele>
        <time>2017-01-05T07:40:16Z</time>
      </trkpt>
      <trkpt lat="45.05664" lon="6.7834">
        <ele>1615.17</ele>
        <time>2017-01-05T07:40:19Z</time>
      </trkpt>
      <trkpt lat="45.05664" lon="6.78358">
        <ele>1617.81</ele>
        <time>2017-01-05T07:40:22Z</time>
      </trkpt>
      <trkpt lat="45.05658" lon="6.78374">
        <ele>1617.04</ele>
        <time>2017-01-05T07:40:25Z</time>
      </trkpt>
      <trkpt lat="45.05656" lon="6.7839">
        <ele>1618.17</ele>
        <time>2017-01-05T07:40:28Z</time>
      </trkpt>
      <trkpt lat="45.05651" lon="6.78415">
        <ele>1618.12</ele>
        <time>2017-01-05T07:40:32Z</time>
      </trkpt>
      <trkpt lat="45.05648" lon="6.78429">
        <ele>1618.28</ele>
        <time>2017-01-05T07:40:34Z</time>
      </trkpt>
      <trkpt lat="45.05646" lon="6.78444">
        <ele>1620.04</ele>
        <time>2017-01-05T07:40:36Z</time>
      </trkpt>
      <trkpt lat="45.05646" lon="6.78459">
        <ele>1622.01</ele>
        <time>2017-01-05T07:40:38Z</time>
      </trkpt>
      <trkpt lat="45.05646" lon="6.78475">
        <ele>1624.46</ele>
        <time>2017-01-05T07:40:40Z</time>
      </trkpt>
      <trkpt lat="45.05642" lon="6.78492">
        <ele>1623.03</ele>
        <time>2017-01-05T07:40:43Z</time>
      </trkpt>
      <trkpt lat="45.05644" lon="6.78506">
        <ele>1625.03</ele>
        <time>2017-01-05T07:40:45Z</time>
      </trkpt>
      <trkpt lat="45.05638" lon="6.78533">
        <ele>1623.11</ele>
        <time>2017-01-05T07:40:49Z</time>
      </trkpt>
      <trkpt lat="45.05636" lon="6.7855">
        <ele>1623.81</ele>
        <time>2017-01-05T07:40:51Z</time>
      </trkpt>
      <trkpt lat="45.05637" lon="6.78567">
        <ele>1626.99</ele>
        <time>2017-01-05T07:40:53Z</time>
      </trkpt>
      <trkpt lat="45.0564" lon="6.7858">
        <ele>1631.06</ele>
        <time>2017-01-05T07:40:54Z</time>
      </trkpt>
      <trkpt lat="45.05638" lon="6.78599">
        <ele>1632.64</ele>
        <time>2017-01-05T07:40:56Z</time>
      </trkpt>
      <trkpt lat="45.0564" lon="6.78614">
        <ele>1635.25</ele>
        <time>2017-01-05T07:40:58Z</time>
      </trkpt>
      <trkpt lat="45.05645" lon="6.78626">
        <ele>1636.46</ele>
        <time>2017-01-05T07:41:00Z</time>
      </trkpt>
      <trkpt lat="45.0565" lon="6.78643">
        <ele>1636.8</ele>
        <time>2017-01-05T07:41:02Z</time>
      </trkpt>
      <trkpt lat="45.05658" lon="6.78658">
        <ele>1636.6</ele>
        <time>2017-01-05T07:41:04Z</time>
      </trkpt>
      <trkpt lat="45.05664" lon="6.78672">
        <ele>1636.07</ele>
        <time>2017-01-05T07:41:07Z</time>
      </trkpt>
      <trkpt lat="45.05674" lon="6.78678">
        <ele>1638.25</ele>
        <time>2017-01-05T07:41:10Z</time>
      </trkpt>
      <trkpt lat="45.05675" lon="6.78652">
        <ele>1645.11</ele>
        <time>2017-01-05T07:41:15Z</time>
      </trkpt>
      <trkpt lat="45.05672" lon="6.78634">
        <ele>1648.6</ele>
        <time>2017-01-05T07:41:19Z</time>
      </trkpt>
      <trkpt lat="45.05664" lon="6.7861">
        <ele>1646.86</ele>
        <time>2017-01-05T07:41:21Z</time>
      </trkpt>
      <trkpt lat="45.05663" lon="6.78596">
        <ele>1644.98</ele>
        <time>2017-01-05T07:41:23Z</time>
      </trkpt>
      <trkpt lat="45.05662" lon="6.78579">
        <ele>1642.85</ele>
        <time>2017-01-05T07:41:25Z</time>
      </trkpt>
      <trkpt lat="45.0567" lon="6.78554">
        <ele>1644.48</ele>
        <time>2017-01-05T07:41:29Z</time>
      </trkpt>
      <trkpt lat="45.05676" lon="6.78536">
        <ele>1647.18</ele>
        <time>2017-01-05T07:41:32Z</time>
      </trkpt>
      <trkpt lat="45.05686" lon="6.78526">
        <ele>1654.02</ele>
        <time>2017-01-05T07:41:34Z</time>
      </trkpt>
      <trkpt lat="45.05688" lon="6.7851">
        <ele>1653.26</ele>
        <time>2017-01-05T07:41:36Z</time>
      </trkpt>
      <trkpt lat="45.05691" lon="6.78494">
        <ele>1653.25</ele>
        <time>2017-01-05T07:41:38Z</time>
      </trkpt>
      <trkpt lat="45.05698" lon="6.7848">
        <ele>1655.81</ele>
        <time>2017-01-05T07:41:40Z</time>
      </trkpt>
      <trkpt lat="45.05708" lon="6.78471">
        <ele>1659.79</ele>
        <time>2017-01-05T07:41:42Z</time>
      </trkpt>
      <trkpt lat="45.05717" lon="6.78456">
        <ele>1662.71</ele>
        <time>2017-01-05T07:41:45Z</time>
      </trkpt>
      <trkpt lat="45.05725" lon="6.78442">
        <ele>1664.9</ele>
        <time>2017-01-05T07:41:48Z</time>
      </trkpt>
      <trkpt lat="45.05733" lon="6.78429">
        <ele>1666.96</ele>
        <time>2017-01-05T07:41:50Z</time>
      </trkpt>
      <trkpt lat="45.05738" lon="6.78417">
        <ele>1667.16</ele>
        <time>2017-01-05T07:41:52Z</time>
      </trkpt>
      <trkpt lat="45.05745" lon="6.78403">
        <ele>1667.18</ele>
        <time>2017-01-05T07:41:54Z</time>
      </trkpt>
      <trkpt lat="45.05749" lon="6.7839">
        <ele>1665.74</ele>
        <time>2017-01-05T07:41:56Z</time>
      </trkpt>
      <trkpt lat="45.05754" lon="6.78375">
        <ele>1666.17</ele>
        <time>2017-01-05T07:41:58Z</time>
      </trkpt>
      <trkpt lat="45.05763" lon="6.78366">
        <ele>1671.28</ele>
        <time>2017-01-05T07:42:00Z</time>
      </trkpt>
      <trkpt lat="45.05775" lon="6.78358">
        <ele>1678.98</ele>
        <time>2017-01-05T07:42:02Z</time>
      </trkpt>
      <trkpt lat="45.05775" lon="6.78342">
        <ele>1677.15</ele>
        <time>2017-01-05T07:42:04Z</time>
      </trkpt>
      <trkpt lat="45.0578" lon="6.78322">
        <ele>1677.31</ele>
        <time>2017-01-05T07:42:06Z</time>
      </trkpt>
      <trkpt lat="45.05782" lon="6.78306">
        <ele>1675.47</ele>
        <time>2017-01-05T07:42:08Z</time>
      </trkpt>
      <trkpt lat="45.05789" lon="6.78288">
        <ele>1674.83</ele>
        <time>2017-01-05T07:42:11Z</time>
      </trkpt>
      <trkpt lat="45.05793" lon="6.78262">
        <ele>1673.25</ele>
        <time>2017-01-05T07:42:15Z</time>
      </trkpt>
      <trkpt lat="45.05802" lon="6.78249">
        <ele>1676.08</ele>
        <time>2017-01-05T07:42:18Z</time>
      </trkpt>
      <trkpt lat="45.0581" lon="6.78234">
        <ele>1676.72</ele>
        <time>2017-01-05T07:42:21Z</time>
      </trkpt>
      <trkpt lat="45.05817" lon="6.78221">
        <ele>1676.74</ele>
        <time>2017-01-05T07:42:24Z</time>
      </trkpt>
      <trkpt lat="45.05825" lon="6.78209">
        <ele>1676.03</ele>
        <time>2017-01-05T07:42:26Z</time>
      </trkpt>
      <trkpt lat="45.05838" lon="6.78201">
        <ele>1676.6</ele>
        <time>2017-01-05T07:42:29Z</time>
      </trkpt>
      <trkpt lat="45.0585" lon="6.78198">
        <ele>1678.68</ele>
        <time>2017-01-05T07:42:32Z</time>
      </trkpt>
      <trkpt lat="45.05861" lon="6.78196">
        <ele>1680.46</ele>
        <time>2017-01-05T07:42:34Z</time>
      </trkpt>
      <trkpt lat="45.05872" lon="6.782">
        <ele>1683.1</ele>
        <time>2017-01-05T07:42:36Z</time>
      </trkpt>
      <trkpt lat="45.05883" lon="6.78197">
        <ele>1683.9</ele>
        <time>2017-01-05T07:42:38Z</time>
      </trkpt>
      <trkpt lat="45.05893" lon="6.78191">
        <ele>1684.7</ele>
        <time>2017-01-05T07:42:40Z</time>
      </trkpt>
      <trkpt lat="45.05904" lon="6.78189">
        <ele>1687.48</ele>
        <time>2017-01-05T07:42:43Z</time>
      </trkpt>
      <trkpt lat="45.05914" lon="6.78187">
        <ele>1690.19</ele>
        <time>2017-01-05T07:42:44Z</time>
      </trkpt>
      <trkpt lat="45.05924" lon="6.78184">
        <ele>1692.26</ele>
        <time>2017-01-05T07:42:47Z</time>
      </trkpt>
      <trkpt lat="45.05934" lon="6.78181">
        <ele>1694.1</ele>
        <time>2017-01-05T07:42:49Z</time>
      </trkpt>
      <trkpt lat="45.05927" lon="6.78203">
        <ele>1696.52</ele>
        <time>2017-01-05T07:42:53Z</time>
      </trkpt>
      <trkpt lat="45.05915" lon="6.78208">
        <ele>1694.45</ele>
        <time>2017-01-05T07:42:55Z</time>
      </trkpt>
      <trkpt lat="45.05904" lon="6.7822">
        <ele>1694.61</ele>
        <time>2017-01-05T07:42:58Z</time>
      </trkpt>
      <trkpt lat="45.05894" lon="6.78229">
        <ele>1695.36</ele>
        <time>2017-01-05T07:43:01Z</time>
      </trkpt>
      <trkpt lat="45.05877" lon="6.78242">
        <ele>1696.34</ele>
        <time>2017-01-05T07:43:05Z</time>
      </trkpt>
      <trkpt lat="45.05868" lon="6.78252">
        <ele>1697.9</ele>
        <time>2017-01-05T07:43:09Z</time>
      </trkpt>
      <trkpt lat="45.05891" lon="6.78247">
        <ele>1700.8</ele>
        <time>2017-01-05T07:43:16Z</time>
      </trkpt>
      <trkpt lat="45.05901" lon="6.78249">
        <ele>1704.23</ele>
        <time>2017-01-05T07:43:18Z</time>
      </trkpt>
      <trkpt lat="45.05911" lon="6.78251">
        <ele>1707.89</ele>
        <time>2017-01-05T07:43:20Z</time>
      </trkpt>
      <trkpt lat="45.05925" lon="6.78249">
        <ele>1710.69</ele>
        <time>2017-01-05T07:43:22Z</time>
      </trkpt>
      <trkpt lat="45.05937" lon="6.78251">
        <ele>1714.49</ele>
        <time>2017-01-05T07:43:24Z</time>
      </trkpt>
      <trkpt lat="45.05952" lon="6.78253">
        <ele>1719.33</ele>
        <time>2017-01-05T07:43:26Z</time>
      </trkpt>
      <trkpt lat="45.05961" lon="6.78243">
        <ele>1718.47</ele>
        <time>2017-01-05T07:43:27Z</time>
      </trkpt>
      <trkpt lat="45.05971" lon="6.78231">
        <ele>1716.9</ele>
        <time>2017-01-05T07:43:29Z</time>
      </trkpt>
      <trkpt lat="45.05984" lon="6.78212">
        <ele>1716.46</ele>
        <time>2017-01-05T07:43:33Z</time>
      </trkpt>
      <trkpt lat="45.05996" lon="6.78201">
        <ele>1719.96</ele>
        <time>2017-01-05T07:43:36Z</time>
      </trkpt>
      <trkpt lat="45.06008" lon="6.78193">
        <ele>1724.16</ele>
        <time>2017-01-05T07:43:38Z</time>
      </trkpt>
      <trkpt lat="45.06009" lon="6.78174">
        <ele>1723.02</ele>
        <time>2017-01-05T07:43:41Z</time>
      </trkpt>
      <trkpt lat="45.06008" lon="6.78156">
        <ele>1721.24</ele>
        <time>2017-01-05T07:43:44Z</time>
      </trkpt>
      <trkpt lat="45.06009" lon="6.78138">
        <ele>1720.21</ele>
        <time>2017-01-05T07:43:47Z</time>
      </trkpt>
      <trkpt lat="45.06014" lon="6.78124">
        <ele>1720.55</ele>
        <time>2017-01-05T07:43:50Z</time>
      </trkpt>
      <trkpt lat="45.06026" lon="6.78122">
        <ele>1724.58</ele>
        <time>2017-01-05T07:43:54Z</time>
      </trkpt>
      <trkpt lat="45.06024" lon="6.78135">
        <ele>1725.12</ele>
        <time>2017-01-05T07:43:57Z</time>
      </trkpt>
      <trkpt lat="45.06025" lon="6.78163">
        <ele>1727.62</ele>
        <time>2017-01-05T07:44:01Z</time>
      </trkpt>
      <trkpt lat="45.06033" lon="6.7819">
        <ele>1734.06</ele>
        <time>2017-01-05T07:44:06Z</time>
      </trkpt>
      <trkpt lat="45.06032" lon="6.78204">
        <ele>1735.99</ele>
        <time>2017-01-05T07:44:09Z</time>
      </trkpt>
      <trkpt lat="45.06035" lon="6.78224">
        <ele>1740.35</ele>
        <time>2017-01-05T07:44:12Z</time>
      </trkpt>
      <trkpt lat="45.06023" lon="6.7825">
        <ele>1745.62</ele>
        <time>2017-01-05T07:44:16Z</time>
      </trkpt>
      <trkpt lat="45.06013" lon="6.78261">
        <ele>1744.36</ele>
        <time>2017-01-05T07:44:18Z</time>
      </trkpt>
      <trkpt lat="45.05999" lon="6.78273">
        <ele>1741.1</ele>
        <time>2017-01-05T07:44:21Z</time>
      </trkpt>
      <trkpt lat="45.05991" lon="6.78284">
        <ele>1741.43</ele>
        <time>2017-01-05T07:44:23Z</time>
      </trkpt>
      <trkpt lat="45.05984" lon="6.78294">
        <ele>1742.3</ele>
        <time>2017-01-05T07:44:25Z</time>
      </trkpt>
      <trkpt lat="45.05967" lon="6.78308">
        <ele>1741.29</ele>
        <time>2017-01-05T07:44:29Z</time>
      </trkpt>
      <trkpt lat="45.05958" lon="6.78314">
        <ele>1740.73</ele>
        <time>2017-01-05T07:44:31Z</time>
      </trkpt>
      <trkpt lat="45.05947" lon="6.78323">
        <ele>1740.48</ele>
        <time>2017-01-05T07:44:35Z</time>
      </trkpt>
      <trkpt lat="45.05956" lon="6.78329">
        <ele>1744.32</ele>
        <time>2017-01-05T07:44:39Z</time>
      </trkpt>
      <trkpt lat="45.05967" lon="6.78318">
        <ele>1743.93</ele>
        <time>2017-01-05T07:44:42Z</time>
      </trkpt>
      <trkpt lat="45.05981" lon="6.7832">
        <ele>1748.29</ele>
        <time>2017-01-05T07:44:44Z</time>
      </trkpt>
      <trkpt lat="45.05993" lon="6.78311">
        <ele>1749.87</ele>
        <time>2017-01-05T07:44:46Z</time>
      </trkpt>
      <trkpt lat="45.06001" lon="6.78299">
        <ele>1749.31</ele>
        <time>2017-01-05T07:44:48Z</time>
      </trkpt>
      <trkpt lat="45.06011" lon="6.78289">
        <ele>1750.95</ele>
        <time>2017-01-05T07:44:50Z</time>
      </trkpt>
      <trkpt lat="45.06021" lon="6.78278">
        <ele>1752.2</ele>
        <time>2017-01-05T07:44:52Z</time>
      </trkpt>
      <trkpt lat="45.06033" lon="6.78271">
        <ele>1755.04</ele>
        <time>2017-01-05T07:44:54Z</time>
      </trkpt>
      <trkpt lat="45.06044" lon="6.78269">
        <ele>1758.58</ele>
        <time>2017-01-05T07:44:57Z</time>
      </trkpt>
      <trkpt lat="45.06058" lon="6.78267">
        <ele>1762.41</ele>
        <time>2017-01-05T07:44:59Z</time>
      </trkpt>
      <trkpt lat="45.06069" lon="6.78264">
        <ele>1764.79</ele>
        <time>2017-01-05T07:45:01Z</time>
      </trkpt>
      <trkpt lat="45.06083" lon="6.78263">
        <ele>1769.1</ele>
        <time>2017-01-05T07:45:03Z</time>
      </trkpt>
      <trkpt lat="45.06096" lon="6.78257">
        <ele>1772.35</ele>
        <time>2017-01-05T07:45:05Z</time>
      </trkpt>
      <trkpt lat="45.06107" lon="6.78247">
        <ele>1774.15</ele>
        <time>2017-01-05T07:45:07Z</time>
      </trkpt>
      <trkpt lat="45.06118" lon="6.78237">
        <ele>1775.89</ele>
        <time>2017-01-05T07:45:09Z</time>
      </trkpt>
      <trkpt lat="45.06127" lon="6.78227">
        <ele>1776.35</ele>
        <time>2017-01-05T07:45:11Z</time>
      </trkpt>
      <trkpt lat="45.06131" lon="6.78206">
        <ele>1774.31</ele>
        <time>2017-01-05T07:45:13Z</time>
      </trkpt>
      <trkpt lat="45.06136" lon="6.7819">
        <ele>1772.99</ele>
        <time>2017-01-05T07:45:15Z</time>
      </trkpt>
      <trkpt lat="45.0614" lon="6.78173">
        <ele>1772.05</ele>
        <time>2017-01-05T07:45:17Z</time>
      </trkpt>
      <trkpt lat="45.06142" lon="6.78155">
        <ele>1770.03</ele>
        <time>2017-01-05T07:45:19Z</time>
      </trkpt>
      <trkpt lat="45.06148" lon="6.7814">
        <ele>1769.52</ele>
        <time>2017-01-05T07:45:21Z</time>
      </trkpt>
      <trkpt lat="45.06162" lon="6.78125">
        <ele>1769.42</ele>
        <time>2017-01-05T07:45:25Z</time>
      </trkpt>
      <trkpt lat="45.06174" lon="6.78123">
        <ele>1772.35</ele>
        <time>2017-01-05T07:45:27Z</time>
      </trkpt>
      <trkpt lat="45.06186" lon="6.78122">
        <ele>1776.56</ele>
        <time>2017-01-05T07:45:29Z</time>
      </trkpt>
      <trkpt lat="45.06199" lon="6.78124">
        <ele>1780.57</ele>
        <time>2017-01-05T07:45:31Z</time>
      </trkpt>
      <trkpt lat="45.06221" lon="6.78122">
        <ele>1785</ele>
        <time>2017-01-05T07:45:36Z</time>
      </trkpt>
      <trkpt lat="45.06232" lon="6.78117">
        <ele>1786.88</ele>
        <time>2017-01-05T07:45:41Z</time>
      </trkpt>
      <trkpt lat="45.06229" lon="6.78137">
        <ele>1790.36</ele>
        <time>2017-01-05T07:45:47Z</time>
      </trkpt>
      <trkpt lat="45.06224" lon="6.78153">
        <ele>1792.53</ele>
        <time>2017-01-05T07:45:50Z</time>
      </trkpt>
      <trkpt lat="45.06223" lon="6.78183">
        <ele>1797.7</ele>
        <time>2017-01-05T07:45:55Z</time>
      </trkpt>
      <trkpt lat="45.06221" lon="6.78198">
        <ele>1798.94</ele>
        <time>2017-01-05T07:45:57Z</time>
      </trkpt>
      <trkpt lat="45.0622" lon="6.78216">
        <ele>1801.23</ele>
        <time>2017-01-05T07:45:59Z</time>
      </trkpt>
      <trkpt lat="45.06222" lon="6.78235">
        <ele>1803.34</ele>
        <time>2017-01-05T07:46:01Z</time>
      </trkpt>
      <trkpt lat="45.06216" lon="6.78257">
        <ele>1803.57</ele>
        <time>2017-01-05T07:46:03Z</time>
      </trkpt>
      <trkpt lat="45.06214" lon="6.78272">
        <ele>1805.83</ele>
        <time>2017-01-05T07:46:05Z</time>
      </trkpt>
      <trkpt lat="45.06206" lon="6.78283">
        <ele>1805.85</ele>
        <time>2017-01-05T07:46:07Z</time>
      </trkpt>
      <trkpt lat="45.06198" lon="6.78294">
        <ele>1806.26</ele>
        <time>2017-01-05T07:46:09Z</time>
      </trkpt>
      <trkpt lat="45.06188" lon="6.78301">
        <ele>1805.79</ele>
        <time>2017-01-05T07:46:11Z</time>
      </trkpt>
      <trkpt lat="45.06171" lon="6.78309">
        <ele>1805.02</ele>
        <time>2017-01-05T07:46:13Z</time>
      </trkpt>
      <trkpt lat="45.06162" lon="6.78319">
        <ele>1806.2</ele>
        <time>2017-01-05T07:46:15Z</time>
      </trkpt>
      <trkpt lat="45.06144" lon="6.78332">
        <ele>1804.9</ele>
        <time>2017-01-05T07:46:19Z</time>
      </trkpt>
      <trkpt lat="45.06135" lon="6.78339">
        <ele>1804.32</ele>
        <time>2017-01-05T07:46:21Z</time>
      </trkpt>
      <trkpt lat="45.0613" lon="6.78352">
        <ele>1806.44</ele>
        <time>2017-01-05T07:46:23Z</time>
      </trkpt>
      <trkpt lat="45.06125" lon="6.78364">
        <ele>1808.06</ele>
        <time>2017-01-05T07:46:25Z</time>
      </trkpt>
      <trkpt lat="45.06124" lon="6.78379">
        <ele>1809.98</ele>
        <time>2017-01-05T07:46:27Z</time>
      </trkpt>
      <trkpt lat="45.06122" lon="6.78396">
        <ele>1811.49</ele>
        <time>2017-01-05T07:46:29Z</time>
      </trkpt>
      <trkpt lat="45.0612" lon="6.78424">
        <ele>1812.17</ele>
        <time>2017-01-05T07:46:33Z</time>
      </trkpt>
      <trkpt lat="45.06125" lon="6.78437">
        <ele>1813.32</ele>
        <time>2017-01-05T07:46:35Z</time>
      </trkpt>
      <trkpt lat="45.06129" lon="6.78453">
        <ele>1813.59</ele>
        <time>2017-01-05T07:46:38Z</time>
      </trkpt>
      <trkpt lat="45.06142" lon="6.78476">
        <ele>1815.33</ele>
        <time>2017-01-05T07:46:42Z</time>
      </trkpt>
      <trkpt lat="45.06155" lon="6.78497">
        <ele>1819.9</ele>
        <time>2017-01-05T07:46:46Z</time>
      </trkpt>
      <trkpt lat="45.06171" lon="6.78512">
        <ele>1824.42</ele>
        <time>2017-01-05T07:46:50Z</time>
      </trkpt>
      <trkpt lat="45.06184" lon="6.78515">
        <ele>1826.65</ele>
        <time>2017-01-05T07:46:54Z</time>
      </trkpt>
      <trkpt lat="45.06176" lon="6.78492">
        <ele>1824.36</ele>
        <time>2017-01-05T07:46:59Z</time>
      </trkpt>
      <trkpt lat="45.06177" lon="6.7846">
        <ele>1826.76</ele>
        <time>2017-01-05T07:47:04Z</time>
      </trkpt>
      <trkpt lat="45.06181" lon="6.78445">
        <ele>1829.56</ele>
        <time>2017-01-05T07:47:07Z</time>
      </trkpt>
      <trkpt lat="45.06185" lon="6.78431">
        <ele>1831.17</ele>
        <time>2017-01-05T07:47:09Z</time>
      </trkpt>
      <trkpt lat="45.06191" lon="6.78416">
        <ele>1832.9</ele>
        <time>2017-01-05T07:47:11Z</time>
      </trkpt>
      <trkpt lat="45.062" lon="6.78404">
        <ele>1833.02</ele>
        <time>2017-01-05T07:47:13Z</time>
      </trkpt>
      <trkpt lat="45.06206" lon="6.7839">
        <ele>1832.05</ele>
        <time>2017-01-05T07:47:15Z</time>
      </trkpt>
      <trkpt lat="45.06212" lon="6.78378">
        <ele>1831.04</ele>
        <time>2017-01-05T07:47:17Z</time>
      </trkpt>
      <trkpt lat="45.06228" lon="6.78357">
        <ele>1830.16</ele>
        <time>2017-01-05T07:47:21Z</time>
      </trkpt>
      <trkpt lat="45.06239" lon="6.7835">
        <ele>1832.64</ele>
        <time>2017-01-05T07:47:24Z</time>
      </trkpt>
      <trkpt lat="45.06251" lon="6.78349">
        <ele>1837.21</ele>
        <time>2017-01-05T07:47:26Z</time>
      </trkpt>
      <trkpt lat="45.06266" lon="6.78346">
        <ele>1842.94</ele>
        <time>2017-01-05T07:47:28Z</time>
      </trkpt>
      <trkpt lat="45.06278" lon="6.78344">
        <ele>1847.74</ele>
        <time>2017-01-05T07:47:30Z</time>
      </trkpt>
      <trkpt lat="45.06289" lon="6.7834">
        <ele>1850.61</ele>
        <time>2017-01-05T07:47:32Z</time>
      </trkpt>
      <trkpt lat="45.063" lon="6.78337">
        <ele>1853.96</ele>
        <time>2017-01-05T07:47:34Z</time>
      </trkpt>
      <trkpt lat="45.06309" lon="6.78329">
        <ele>1854.98</ele>
        <time>2017-01-05T07:47:36Z</time>
      </trkpt>
      <trkpt lat="45.06318" lon="6.78318">
        <ele>1854.85</ele>
        <time>2017-01-05T07:47:38Z</time>
      </trkpt>
      <trkpt lat="45.06325" lon="6.78306">
        <ele>1854.18</ele>
        <time>2017-01-05T07:47:40Z</time>
      </trkpt>
      <trkpt lat="45.06333" lon="6.7829">
        <ele>1852.33</ele>
        <time>2017-01-05T07:47:42Z</time>
      </trkpt>
      <trkpt lat="45.06342" lon="6.78279">
        <ele>1852.52</ele>
        <time>2017-01-05T07:47:44Z</time>
      </trkpt>
      <trkpt lat="45.06348" lon="6.78266">
        <ele>1851.59</ele>
        <time>2017-01-05T07:47:46Z</time>
      </trkpt>
      <trkpt lat="45.06354" lon="6.78254">
        <ele>1851.28</ele>
        <time>2017-01-05T07:47:48Z</time>
      </trkpt>
      <trkpt lat="45.06363" lon="6.78241">
        <ele>1851.64</ele>
        <time>2017-01-05T07:47:51Z</time>
      </trkpt>
      <trkpt lat="45.06373" lon="6.78235">
        <ele>1853.53</ele>
        <time>2017-01-05T07:47:54Z</time>
      </trkpt>
      <trkpt lat="45.06384" lon="6.78228">
        <ele>1855.79</ele>
        <time>2017-01-05T07:47:57Z</time>
      </trkpt>
      <trkpt lat="45.06395" lon="6.78224">
        <ele>1858.93</ele>
        <time>2017-01-05T07:47:59Z</time>
      </trkpt>
      <trkpt lat="45.06406" lon="6.78215">
        <ele>1860.88</ele>
        <time>2017-01-05T07:48:02Z</time>
      </trkpt>
      <trkpt lat="45.06415" lon="6.78205">
        <ele>1861.86</ele>
        <time>2017-01-05T07:48:11Z</time>
      </trkpt>
      <trkpt lat="45.06402" lon="6.78226">
        <ele>1861.3</ele>
        <time>2017-01-05T07:48:19Z</time>
      </trkpt>
      <trkpt lat="45.06394" lon="6.78233">
        <ele>1859.64</ele>
        <time>2017-01-05T07:48:21Z</time>
      </trkpt>
      <trkpt lat="45.06385" lon="6.78246">
        <ele>1858.51</ele>
        <time>2017-01-05T07:48:24Z</time>
      </trkpt>
      <trkpt lat="45.06378" lon="6.78276">
        <ele>1862.33</ele>
        <time>2017-01-05T07:48:28Z</time>
      </trkpt>
      <trkpt lat="45.06373" lon="6.78303">
        <ele>1867.52</ele>
        <time>2017-01-05T07:48:32Z</time>
      </trkpt>
      <trkpt lat="45.0637" lon="6.7832">
        <ele>1869.97</ele>
        <time>2017-01-05T07:48:34Z</time>
      </trkpt>
      <trkpt lat="45.06366" lon="6.78333">
        <ele>1871.84</ele>
        <time>2017-01-05T07:48:36Z</time>
      </trkpt>
      <trkpt lat="45.06363" lon="6.78349">
        <ele>1874.1</ele>
        <time>2017-01-05T07:48:38Z</time>
      </trkpt>
      <trkpt lat="45.06355" lon="6.78364">
        <ele>1874.85</ele>
        <time>2017-01-05T07:48:40Z</time>
      </trkpt>
      <trkpt lat="45.06348" lon="6.78378">
        <ele>1874.24</ele>
        <time>2017-01-05T07:48:42Z</time>
      </trkpt>
      <trkpt lat="45.06344" lon="6.78393">
        <ele>1873.96</ele>
        <time>2017-01-05T07:48:45Z</time>
      </trkpt>
      <trkpt lat="45.06346" lon="6.78407">
        <ele>1875.22</ele>
        <time>2017-01-05T07:48:47Z</time>
      </trkpt>
      <trkpt lat="45.06351" lon="6.78425">
        <ele>1877.18</ele>
        <time>2017-01-05T07:48:49Z</time>
      </trkpt>
      <trkpt lat="45.06354" lon="6.78441">
        <ele>1878.4</ele>
        <time>2017-01-05T07:48:51Z</time>
      </trkpt>
      <trkpt lat="45.06356" lon="6.7846">
        <ele>1879.85</ele>
        <time>2017-01-05T07:48:53Z</time>
      </trkpt>
      <trkpt lat="45.06365" lon="6.78468">
        <ele>1883.46</ele>
        <time>2017-01-05T07:48:55Z</time>
      </trkpt>
      <trkpt lat="45.06376" lon="6.78492">
        <ele>1885.73</ele>
        <time>2017-01-05T07:48:59Z</time>
      </trkpt>
      <trkpt lat="45.06379" lon="6.78507">
        <ele>1886.15</ele>
        <time>2017-01-05T07:49:01Z</time>
      </trkpt>
      <trkpt lat="45.06383" lon="6.78522">
        <ele>1887.03</ele>
        <time>2017-01-05T07:49:03Z</time>
      </trkpt>
      <trkpt lat="45.06389" lon="6.78535">
        <ele>1888.86</ele>
        <time>2017-01-05T07:49:05Z</time>
      </trkpt>
      <trkpt lat="45.06396" lon="6.78548">
        <ele>1890.9</ele>
        <time>2017-01-05T07:49:07Z</time>
      </trkpt>
      <trkpt lat="45.064" lon="6.78564">
        <ele>1890.97</ele>
        <time>2017-01-05T07:49:09Z</time>
      </trkpt>
      <trkpt lat="45.06406" lon="6.7858">
        <ele>1890.51</ele>
        <time>2017-01-05T07:49:11Z</time>
      </trkpt>
      <trkpt lat="45.06411" lon="6.78596">
        <ele>1890.83</ele>
        <time>2017-01-05T07:49:13Z</time>
      </trkpt>
      <trkpt lat="45.06416" lon="6.7861">
        <ele>1891.56</ele>
        <time>2017-01-05T07:49:15Z</time>
      </trkpt>
      <trkpt lat="45.0642" lon="6.78624">
        <ele>1892.88</ele>
        <time>2017-01-05T07:49:17Z</time>
      </trkpt>
      <trkpt lat="45.06425" lon="6.78638">
        <ele>1894.18</ele>
        <time>2017-01-05T07:49:19Z</time>
      </trkpt>
      <trkpt lat="45.06431" lon="6.78652">
        <ele>1895.19</ele>
        <time>2017-01-05T07:49:21Z</time>
      </trkpt>
      <trkpt lat="45.06434" lon="6.78667">
        <ele>1894.48</ele>
        <time>2017-01-05T07:49:23Z</time>
      </trkpt>
      <trkpt lat="45.06432" lon="6.78684">
        <ele>1891.35</ele>
        <time>2017-01-05T07:49:26Z</time>
      </trkpt>
      <trkpt lat="45.06433" lon="6.78716">
        <ele>1889.13</ele>
        <time>2017-01-05T07:49:31Z</time>
      </trkpt>
      <trkpt lat="45.06436" lon="6.78733">
        <ele>1889.28</ele>
        <time>2017-01-05T07:49:33Z</time>
      </trkpt>
      <trkpt lat="45.06442" lon="6.78764">
        <ele>1889.43</ele>
        <time>2017-01-05T07:49:38Z</time>
      </trkpt>
      <trkpt lat="45.06443" lon="6.7878">
        <ele>1888.66</ele>
        <time>2017-01-05T07:49:40Z</time>
      </trkpt>
      <trkpt lat="45.06444" lon="6.78797">
        <ele>1888.73</ele>
        <time>2017-01-05T07:49:42Z</time>
      </trkpt>
      <trkpt lat="45.06445" lon="6.78815">
        <ele>1889.53</ele>
        <time>2017-01-05T07:49:44Z</time>
      </trkpt>
      <trkpt lat="45.06447" lon="6.78833">
        <ele>1891.23</ele>
        <time>2017-01-05T07:49:46Z</time>
      </trkpt>
      <trkpt lat="45.06448" lon="6.7885">
        <ele>1894.47</ele>
        <time>2017-01-05T07:49:48Z</time>
      </trkpt>
      <trkpt lat="45.0645" lon="6.78869">
        <ele>1897.9</ele>
        <time>2017-01-05T07:49:50Z</time>
      </trkpt>
      <trkpt lat="45.0645" lon="6.78884">
        <ele>1900.23</ele>
        <time>2017-01-05T07:49:52Z</time>
      </trkpt>
      <trkpt lat="45.06453" lon="6.78898">
        <ele>1902.65</ele>
        <time>2017-01-05T07:49:55Z</time>
      </trkpt>
      <trkpt lat="45.06457" lon="6.78917">
        <ele>1904.97</ele>
        <time>2017-01-05T07:49:58Z</time>
      </trkpt>
      <trkpt lat="45.06462" lon="6.78935">
        <ele>1907.16</ele>
        <time>2017-01-05T07:50:01Z</time>
      </trkpt>
      <trkpt lat="45.06465" lon="6.78951">
        <ele>1908.77</ele>
        <time>2017-01-05T07:50:03Z</time>
      </trkpt>
      <trkpt lat="45.06466" lon="6.78981">
        <ele>1908.78</ele>
        <time>2017-01-05T07:50:08Z</time>
      </trkpt>
      <trkpt lat="45.0647" lon="6.78996">
        <ele>1909.31</ele>
        <time>2017-01-05T07:50:12Z</time>
      </trkpt>
      <trkpt lat="45.06484" lon="6.78974">
        <ele>1916.85</ele>
        <time>2017-01-05T07:50:20Z</time>
      </trkpt>
      <trkpt lat="45.06491" lon="6.78959">
        <ele>1919.98</ele>
        <time>2017-01-05T07:50:23Z</time>
      </trkpt>
      <trkpt lat="45.06494" lon="6.78932">
        <ele>1921.58</ele>
        <time>2017-01-05T07:50:28Z</time>
      </trkpt>
      <trkpt lat="45.06495" lon="6.78916">
        <ele>1922.61</ele>
        <time>2017-01-05T07:50:29Z</time>
      </trkpt>
      <trkpt lat="45.06498" lon="6.78898">
        <ele>1924.55</ele>
        <time>2017-01-05T07:50:31Z</time>
      </trkpt>
      <trkpt lat="45.06501" lon="6.78883">
        <ele>1926.21</ele>
        <time>2017-01-05T07:50:33Z</time>
      </trkpt>
      <trkpt lat="45.06503" lon="6.78866">
        <ele>1926.36</ele>
        <time>2017-01-05T07:50:35Z</time>
      </trkpt>
      <trkpt lat="45.06507" lon="6.7885">
        <ele>1926.73</ele>
        <time>2017-01-05T07:50:37Z</time>
      </trkpt>
      <trkpt lat="45.0651" lon="6.78836">
        <ele>1926.79</ele>
        <time>2017-01-05T07:50:39Z</time>
      </trkpt>
      <trkpt lat="45.06514" lon="6.7882">
        <ele>1925.97</ele>
        <time>2017-01-05T07:50:41Z</time>
      </trkpt>
      <trkpt lat="45.06515" lon="6.78803">
        <ele>1924.07</ele>
        <time>2017-01-05T07:50:43Z</time>
      </trkpt>
      <trkpt lat="45.06515" lon="6.78786">
        <ele>1922.31</ele>
        <time>2017-01-05T07:50:45Z</time>
      </trkpt>
      <trkpt lat="45.06518" lon="6.78771">
        <ele>1922.04</ele>
        <time>2017-01-05T07:50:47Z</time>
      </trkpt>
      <trkpt lat="45.06518" lon="6.78753">
        <ele>1921.67</ele>
        <time>2017-01-05T07:50:49Z</time>
      </trkpt>
      <trkpt lat="45.06517" lon="6.78734">
        <ele>1922.12</ele>
        <time>2017-01-05T07:50:51Z</time>
      </trkpt>
      <trkpt lat="45.06516" lon="6.7872">
        <ele>1923.23</ele>
        <time>2017-01-05T07:50:53Z</time>
      </trkpt>
      <trkpt lat="45.06516" lon="6.78704">
        <ele>1925.62</ele>
        <time>2017-01-05T07:50:55Z</time>
      </trkpt>
      <trkpt lat="45.06519" lon="6.78674">
        <ele>1931.35</ele>
        <time>2017-01-05T07:50:59Z</time>
      </trkpt>
      <trkpt lat="45.06519" lon="6.78654">
        <ele>1932.43</ele>
        <time>2017-01-05T07:51:01Z</time>
      </trkpt>
      <trkpt lat="45.06519" lon="6.78635">
        <ele>1932.95</ele>
        <time>2017-01-05T07:51:04Z</time>
      </trkpt>
      <trkpt lat="45.06516" lon="6.7862">
        <ele>1933.02</ele>
        <time>2017-01-05T07:51:06Z</time>
      </trkpt>
      <trkpt lat="45.06514" lon="6.78606">
        <ele>1932.98</ele>
        <time>2017-01-05T07:51:08Z</time>
      </trkpt>
      <trkpt lat="45.06515" lon="6.78592">
        <ele>1934.61</ele>
        <time>2017-01-05T07:51:10Z</time>
      </trkpt>
      <trkpt lat="45.06519" lon="6.78559">
        <ele>1940.31</ele>
        <time>2017-01-05T07:51:15Z</time>
      </trkpt>
      <trkpt lat="45.06521" lon="6.78544">
        <ele>1942.03</ele>
        <time>2017-01-05T07:51:17Z</time>
      </trkpt>
      <trkpt lat="45.06532" lon="6.78522">
        <ele>1947.84</ele>
        <time>2017-01-05T07:51:21Z</time>
      </trkpt>
      <trkpt lat="45.06537" lon="6.78509">
        <ele>1949.04</ele>
        <time>2017-01-05T07:51:23Z</time>
      </trkpt>
      <trkpt lat="45.06541" lon="6.78495">
        <ele>1950.09</ele>
        <time>2017-01-05T07:51:25Z</time>
      </trkpt>
      <trkpt lat="45.06548" lon="6.78482">
        <ele>1953.08</ele>
        <time>2017-01-05T07:51:27Z</time>
      </trkpt>
      <trkpt lat="45.06554" lon="6.78465">
        <ele>1955.94</ele>
        <time>2017-01-05T07:51:30Z</time>
      </trkpt>
      <trkpt lat="45.06559" lon="6.78445">
        <ele>1957.59</ele>
        <time>2017-01-05T07:51:33Z</time>
      </trkpt>
      <trkpt lat="45.06565" lon="6.78431">
        <ele>1959.77</ele>
        <time>2017-01-05T07:51:36Z</time>
      </trkpt>
      <trkpt lat="45.06571" lon="6.78417">
        <ele>1961.77</ele>
        <time>2017-01-05T07:51:39Z</time>
      </trkpt>
      <trkpt lat="45.06577" lon="6.78403">
        <ele>1963.4</ele>
        <time>2017-01-05T07:51:42Z</time>
      </trkpt>
      <trkpt lat="45.06585" lon="6.78391">
        <ele>1965.75</ele>
        <time>2017-01-05T07:51:45Z</time>
      </trkpt>
      <trkpt lat="45.06595" lon="6.7838">
        <ele>1966.9</ele>
        <time>2017-01-05T07:51:48Z</time>
      </trkpt>
      <trkpt lat="45.06605" lon="6.78369">
        <ele>1967.65</ele>
        <time>2017-01-05T07:51:51Z</time>
      </trkpt>
      <trkpt lat="45.06615" lon="6.78357">
        <ele>1968.44</ele>
        <time>2017-01-05T07:51:54Z</time>
      </trkpt>
      <trkpt lat="45.06624" lon="6.78343">
        <ele>1968.59</ele>
        <time>2017-01-05T07:51:57Z</time>
      </trkpt>
      <trkpt lat="45.06634" lon="6.78335">
        <ele>1969.35</ele>
        <time>2017-01-05T07:52:02Z</time>
      </trkpt>
      <trkpt lat="45.06641" lon="6.78347">
        <ele>1973.39</ele>
        <time>2017-01-05T07:52:07Z</time>
      </trkpt>
      <trkpt lat="45.06632" lon="6.78357">
        <ele>1973.15</ele>
        <time>2017-01-05T07:52:11Z</time>
      </trkpt>
      <trkpt lat="45.06618" lon="6.78379">
        <ele>1973.13</ele>
        <time>2017-01-05T07:52:17Z</time>
      </trkpt>
      <trkpt lat="45.06614" lon="6.78393">
        <ele>1974.21</ele>
        <time>2017-01-05T07:52:19Z</time>
      </trkpt>
      <trkpt lat="45.06611" lon="6.78408">
        <ele>1975.6</ele>
        <time>2017-01-05T07:52:22Z</time>
      </trkpt>
      <trkpt lat="45.06611" lon="6.78423">
        <ele>1977.26</ele>
        <time>2017-01-05T07:52:25Z</time>
      </trkpt>
      <trkpt lat="45.06613" lon="6.78442">
        <ele>1979.13</ele>
        <time>2017-01-05T07:52:28Z</time>
      </trkpt>
      <trkpt lat="45.06617" lon="6.78469">
        <ele>1979.46</ele>
        <time>2017-01-05T07:52:32Z</time>
      </trkpt>
      <trkpt lat="45.06618" lon="6.78487">
        <ele>1979.49</ele>
        <time>2017-01-05T07:52:34Z</time>
      </trkpt>
      <trkpt lat="45.06618" lon="6.78505">
        <ele>1979.22</ele>
        <time>2017-01-05T07:52:36Z</time>
      </trkpt>
      <trkpt lat="45.0662" lon="6.78523">
        <ele>1979.65</ele>
        <time>2017-01-05T07:52:39Z</time>
      </trkpt>
      <trkpt lat="45.06624" lon="6.7854">
        <ele>1981.86</ele>
        <time>2017-01-05T07:52:43Z</time>
      </trkpt>
      <trkpt lat="45.06628" lon="6.78553">
        <ele>1985.08</ele>
        <time>2017-01-05T07:52:46Z</time>
      </trkpt>
      <trkpt lat="45.06635" lon="6.78568">
        <ele>1989.06</ele>
        <time>2017-01-05T07:52:49Z</time>
      </trkpt>
      <trkpt lat="45.06648" lon="6.78604">
        <ele>1994.27</ele>
        <time>2017-01-05T07:52:54Z</time>
      </trkpt>
      <trkpt lat="45.06653" lon="6.7862">
        <ele>1996.3</ele>
        <time>2017-01-05T07:52:57Z</time>
      </trkpt>
      <trkpt lat="45.06658" lon="6.78635">
        <ele>1998.37</ele>
        <time>2017-01-05T07:53:00Z</time>
      </trkpt>
      <trkpt lat="45.06669" lon="6.78661">
        <ele>2001.32</ele>
        <time>2017-01-05T07:53:05Z</time>
      </trkpt>
      <trkpt lat="45.06675" lon="6.78676">
        <ele>2001.93</ele>
        <time>2017-01-05T07:53:08Z</time>
      </trkpt>
      <trkpt lat="45.0668" lon="6.78693">
        <ele>2001.81</ele>
        <time>2017-01-05T07:53:11Z</time>
      </trkpt>
      <trkpt lat="45.06682" lon="6.7871">
        <ele>2001.31</ele>
        <time>2017-01-05T07:53:14Z</time>
      </trkpt>
      <trkpt lat="45.06685" lon="6.78724">
        <ele>2001.86</ele>
        <time>2017-01-05T07:53:17Z</time>
      </trkpt>
      <trkpt lat="45.06689" lon="6.78739">
        <ele>2003.93</ele>
        <time>2017-01-05T07:53:20Z</time>
      </trkpt>
      <trkpt lat="45.06695" lon="6.78756">
        <ele>2006.16</ele>
        <time>2017-01-05T07:53:23Z</time>
      </trkpt>
      <trkpt lat="45.06703" lon="6.78784">
        <ele>2008.74</ele>
        <time>2017-01-05T07:53:30Z</time>
      </trkpt>
      <trkpt lat="45.0671" lon="6.78774">
        <ele>2012.33</ele>
        <time>2017-01-05T07:53:40Z</time>
      </trkpt>
      <trkpt lat="45.06709" lon="6.7874">
        <ele>2012.42</ele>
        <time>2017-01-05T07:53:45Z</time>
      </trkpt>
      <trkpt lat="45.06713" lon="6.78709">
        <ele>2013.18</ele>
        <time>2017-01-05T07:53:50Z</time>
      </trkpt>
      <trkpt lat="45.06724" lon="6.7868">
        <ele>2018.77</ele>
        <time>2017-01-05T07:53:55Z</time>
      </trkpt>
      <trkpt lat="45.0674" lon="6.78657">
        <ele>2026.01</ele>
        <time>2017-01-05T07:54:00Z</time>
      </trkpt>
      <trkpt lat="45.0675" lon="6.78646">
        <ele>2029.09</ele>
        <time>2017-01-05T07:54:03Z</time>
      </trkpt>
      <trkpt lat="45.06769" lon="6.7863">
        <ele>2032.26</ele>
        <time>2017-01-05T07:54:08Z</time>
      </trkpt>
      <trkpt lat="45.06779" lon="6.78621">
        <ele>2033.26</ele>
        <time>2017-01-05T07:54:11Z</time>
      </trkpt>
      <trkpt lat="45.06789" lon="6.78612">
        <ele>2034.04</ele>
        <time>2017-01-05T07:54:14Z</time>
      </trkpt>
      <trkpt lat="45.068" lon="6.78602">
        <ele>2036.6</ele>
        <time>2017-01-05T07:54:17Z</time>
      </trkpt>
      <trkpt lat="45.06805" lon="6.78587">
        <ele>2038.68</ele>
        <time>2017-01-05T07:54:20Z</time>
      </trkpt>
      <trkpt lat="45.068" lon="6.78574">
        <ele>2038.78</ele>
        <time>2017-01-05T07:54:22Z</time>
      </trkpt>
      <trkpt lat="45.06792" lon="6.78561">
        <ele>2038.42</ele>
        <time>2017-01-05T07:54:25Z</time>
      </trkpt>
      <trkpt lat="45.06791" lon="6.78546">
        <ele>2039.21</ele>
        <time>2017-01-05T07:54:28Z</time>
      </trkpt>
      <trkpt lat="45.06801" lon="6.78523">
        <ele>2041.83</ele>
        <time>2017-01-05T07:54:32Z</time>
      </trkpt>
      <trkpt lat="45.06804" lon="6.78505">
        <ele>2041.82</ele>
        <time>2017-01-05T07:54:35Z</time>
      </trkpt>
      <trkpt lat="45.0681" lon="6.7849">
        <ele>2043.41</ele>
        <time>2017-01-05T07:54:38Z</time>
      </trkpt>
      <trkpt lat="45.06819" lon="6.78465">
        <ele>2046.62</ele>
        <time>2017-01-05T07:54:43Z</time>
      </trkpt>
      <trkpt lat="45.06824" lon="6.7845">
        <ele>2048.22</ele>
        <time>2017-01-05T07:54:46Z</time>
      </trkpt>
      <trkpt lat="45.06834" lon="6.78429">
        <ele>2050.66</ele>
        <time>2017-01-05T07:54:51Z</time>
      </trkpt>
      <trkpt lat="45.06842" lon="6.78415">
        <ele>2051.87</ele>
        <time>2017-01-05T07:54:54Z</time>
      </trkpt>
      <trkpt lat="45.06849" lon="6.78404">
        <ele>2052.24</ele>
        <time>2017-01-05T07:54:56Z</time>
      </trkpt>
      <trkpt lat="45.06856" lon="6.7839">
        <ele>2053.04</ele>
        <time>2017-01-05T07:54:58Z</time>
      </trkpt>
      <trkpt lat="45.06859" lon="6.78374">
        <ele>2052.55</ele>
        <time>2017-01-05T07:55:00Z</time>
      </trkpt>
      <trkpt lat="45.06861" lon="6.78357">
        <ele>2051.56</ele>
        <time>2017-01-05T07:55:03Z</time>
      </trkpt>
      <trkpt lat="45.06868" lon="6.78347">
        <ele>2051.51</ele>
        <time>2017-01-05T07:55:06Z</time>
      </trkpt>
      <trkpt lat="45.06877" lon="6.7834">
        <ele>2052.37</ele>
        <time>2017-01-05T07:55:09Z</time>
      </trkpt>
      <trkpt lat="45.06888" lon="6.78336">
        <ele>2053.93</ele>
        <time>2017-01-05T07:55:12Z</time>
      </trkpt>
      <trkpt lat="45.06906" lon="6.78328">
        <ele>2055.59</ele>
        <time>2017-01-05T07:55:16Z</time>
      </trkpt>
      <trkpt lat="45.06921" lon="6.78327">
        <ele>2058.05</ele>
        <time>2017-01-05T07:55:18Z</time>
      </trkpt>
      <trkpt lat="45.06933" lon="6.78329">
        <ele>2060.77</ele>
        <time>2017-01-05T07:55:21Z</time>
      </trkpt>
      <trkpt lat="45.06943" lon="6.78333">
        <ele>2063.65</ele>
        <time>2017-01-05T07:55:23Z</time>
      </trkpt>
      <trkpt lat="45.06954" lon="6.78334">
        <ele>2067.24</ele>
        <time>2017-01-05T07:55:26Z</time>
      </trkpt>
      <trkpt lat="45.06967" lon="6.78338">
        <ele>2071.46</ele>
        <time>2017-01-05T07:55:29Z</time>
      </trkpt>
      <trkpt lat="45.06979" lon="6.78336">
        <ele>2075.35</ele>
        <time>2017-01-05T07:55:31Z</time>
      </trkpt>
      <trkpt lat="45.06992" lon="6.78335">
        <ele>2079.35</ele>
        <time>2017-01-05T07:55:33Z</time>
      </trkpt>
      <trkpt lat="45.07002" lon="6.78333">
        <ele>2082.26</ele>
        <time>2017-01-05T07:55:35Z</time>
      </trkpt>
      <trkpt lat="45.07014" lon="6.78332">
        <ele>2084.1</ele>
        <time>2017-01-05T07:55:37Z</time>
      </trkpt>
      <trkpt lat="45.07026" lon="6.78333">
        <ele>2086.52</ele>
        <time>2017-01-05T07:55:39Z</time>
      </trkpt>
      <trkpt lat="45.07045" lon="6.78338">
        <ele>2089.37</ele>
        <time>2017-01-05T07:55:43Z</time>
      </trkpt>
      <trkpt lat="45.0706" lon="6.78336">
        <ele>2091.41</ele>
        <time>2017-01-05T07:55:45Z</time>
      </trkpt>
      <trkpt lat="45.07073" lon="6.78335">
        <ele>2094.5</ele>
        <time>2017-01-05T07:55:47Z</time>
      </trkpt>
      <trkpt lat="45.07084" lon="6.78333">
        <ele>2097.23</ele>
        <time>2017-01-05T07:55:49Z</time>
      </trkpt>
      <trkpt lat="45.07097" lon="6.78335">
        <ele>2101.19</ele>
        <time>2017-01-05T07:55:51Z</time>
      </trkpt>
      <trkpt lat="45.07113" lon="6.78334">
        <ele>2105.64</ele>
        <time>2017-01-05T07:55:53Z</time>
      </trkpt>
      <trkpt lat="45.07125" lon="6.78336">
        <ele>2109.54</ele>
        <time>2017-01-05T07:55:55Z</time>
      </trkpt>
      <trkpt lat="45.07136" lon="6.7834">
        <ele>2113.24</ele>
        <time>2017-01-05T07:55:57Z</time>
      </trkpt>
      <trkpt lat="45.07146" lon="6.78343">
        <ele>2117.09</ele>
        <time>2017-01-05T07:56:00Z</time>
      </trkpt>
      <trkpt lat="45.07156" lon="6.78346">
        <ele>2121.55</ele>
        <time>2017-01-05T07:56:02Z</time>
      </trkpt>
      <trkpt lat="45.07168" lon="6.7835">
        <ele>2126.88</ele>
        <time>2017-01-05T07:56:04Z</time>
      </trkpt>
      <trkpt lat="45.07181" lon="6.78347">
        <ele>2131.01</ele>
        <time>2017-01-05T07:56:07Z</time>
      </trkpt>
      <trkpt lat="45.07196" lon="6.78327">
        <ele>2129.82</ele>
        <time>2017-01-05T07:56:12Z</time>
      </trkpt>
      <trkpt lat="45.07205" lon="6.78314">
        <ele>2128.56</ele>
        <time>2017-01-05T07:56:15Z</time>
      </trkpt>
      <trkpt lat="45.07212" lon="6.78304">
        <ele>2129.06</ele>
        <time>2017-01-05T07:56:17Z</time>
      </trkpt>
      <trkpt lat="45.07221" lon="6.78294">
        <ele>2130.23</ele>
        <time>2017-01-05T07:56:19Z</time>
      </trkpt>
      <trkpt lat="45.07229" lon="6.78286">
        <ele>2131.97</ele>
        <time>2017-01-05T07:56:21Z</time>
      </trkpt>
      <trkpt lat="45.07238" lon="6.78276">
        <ele>2134.3</ele>
        <time>2017-01-05T07:56:23Z</time>
      </trkpt>
      <trkpt lat="45.07257" lon="6.78263">
        <ele>2141.6</ele>
        <time>2017-01-05T07:56:28Z</time>
      </trkpt>
      <trkpt lat="45.07268" lon="6.7826">
        <ele>2145.98</ele>
        <time>2017-01-05T07:56:30Z</time>
      </trkpt>
      <trkpt lat="45.07278" lon="6.78258">
        <ele>2150.87</ele>
        <time>2017-01-05T07:56:33Z</time>
      </trkpt>
      <trkpt lat="45.07289" lon="6.78249">
        <ele>2154.47</ele>
        <time>2017-01-05T07:56:35Z</time>
      </trkpt>
      <trkpt lat="45.07302" lon="6.78228">
        <ele>2159.82</ele>
        <time>2017-01-05T07:56:39Z</time>
      </trkpt>
      <trkpt lat="45.07308" lon="6.7821">
        <ele>2160.1</ele>
        <time>2017-01-05T07:56:41Z</time>
      </trkpt>
      <trkpt lat="45.07314" lon="6.78196">
        <ele>2159.91</ele>
        <time>2017-01-05T07:56:43Z</time>
      </trkpt>
      <trkpt lat="45.0732" lon="6.78177">
        <ele>2157.49</ele>
        <time>2017-01-05T07:56:46Z</time>
      </trkpt>
      <trkpt lat="45.07326" lon="6.78165">
        <ele>2156.65</ele>
        <time>2017-01-05T07:56:48Z</time>
      </trkpt>
      <trkpt lat="45.07335" lon="6.78158">
        <ele>2158.54</ele>
        <time>2017-01-05T07:56:50Z</time>
      </trkpt>
      <trkpt lat="45.07346" lon="6.78148">
        <ele>2160.88</ele>
        <time>2017-01-05T07:56:53Z</time>
      </trkpt>
      <trkpt lat="45.0736" lon="6.78143">
        <ele>2166.21</ele>
        <time>2017-01-05T07:56:56Z</time>
      </trkpt>
      <trkpt lat="45.07367" lon="6.78134">
        <ele>2168.32</ele>
        <time>2017-01-05T07:56:58Z</time>
      </trkpt>
      <trkpt lat="45.07374" lon="6.7812">
        <ele>2169.06</ele>
        <time>2017-01-05T07:57:00Z</time>
      </trkpt>
      <trkpt lat="45.0738" lon="6.78107">
        <ele>2169.55</ele>
        <time>2017-01-05T07:57:02Z</time>
      </trkpt>
      <trkpt lat="45.07389" lon="6.78099">
        <ele>2172.36</ele>
        <time>2017-01-05T07:57:04Z</time>
      </trkpt>
      <trkpt lat="45.07396" lon="6.78089">
        <ele>2173.51</ele>
        <time>2017-01-05T07:57:06Z</time>
      </trkpt>
      <trkpt lat="45.07407" lon="6.78076">
        <ele>2175.68</ele>
        <time>2017-01-05T07:57:09Z</time>
      </trkpt>
      <trkpt lat="45.0741" lon="6.78063">
        <ele>2175.37</ele>
        <time>2017-01-05T07:57:11Z</time>
      </trkpt>
      <trkpt lat="45.07412" lon="6.78047">
        <ele>2175.39</ele>
        <time>2017-01-05T07:57:13Z</time>
      </trkpt>
      <trkpt lat="45.07414" lon="6.78032">
        <ele>2175.51</ele>
        <time>2017-01-05T07:57:15Z</time>
      </trkpt>
      <trkpt lat="45.07414" lon="6.78014">
        <ele>2175.57</ele>
        <time>2017-01-05T07:57:19Z</time>
      </trkpt>
      <trkpt lat="45.07412" lon="6.78">
        <ele>2174.56</ele>
        <time>2017-01-05T07:57:21Z</time>
      </trkpt>
      <trkpt lat="45.07414" lon="6.77984">
        <ele>2176.66</ele>
        <time>2017-01-05T07:57:23Z</time>
      </trkpt>
      <trkpt lat="45.07414" lon="6.77968">
        <ele>2177.99</ele>
        <time>2017-01-05T07:57:24Z</time>
      </trkpt>
      <trkpt lat="45.07407" lon="6.77956">
        <ele>2177.25</ele>
        <time>2017-01-05T07:57:26Z</time>
      </trkpt>
      <trkpt lat="45.07401" lon="6.77943">
        <ele>2176.85</ele>
        <time>2017-01-05T07:57:28Z</time>
      </trkpt>
      <trkpt lat="45.07395" lon="6.77931">
        <ele>2176.41</ele>
        <time>2017-01-05T07:57:30Z</time>
      </trkpt>
      <trkpt lat="45.07393" lon="6.77901">
        <ele>2179.98</ele>
        <time>2017-01-05T07:57:35Z</time>
      </trkpt>
      <trkpt lat="45.07398" lon="6.77886">
        <ele>2184.39</ele>
        <time>2017-01-05T07:57:37Z</time>
      </trkpt>
      <trkpt lat="45.07399" lon="6.7787">
        <ele>2185.71</ele>
        <time>2017-01-05T07:57:39Z</time>
      </trkpt>
      <trkpt lat="45.07402" lon="6.77856">
        <ele>2187.68</ele>
        <time>2017-01-05T07:57:41Z</time>
      </trkpt>
      <trkpt lat="45.07405" lon="6.77843">
        <ele>2189.82</ele>
        <time>2017-01-05T07:57:43Z</time>
      </trkpt>
      <trkpt lat="45.07405" lon="6.77827">
        <ele>2190.66</ele>
        <time>2017-01-05T07:57:45Z</time>
      </trkpt>
      <trkpt lat="45.07405" lon="6.77811">
        <ele>2191.76</ele>
        <time>2017-01-05T07:57:47Z</time>
      </trkpt>
      <trkpt lat="45.07402" lon="6.77792">
        <ele>2191.94</ele>
        <time>2017-01-05T07:57:50Z</time>
      </trkpt>
      <trkpt lat="45.07407" lon="6.77766">
        <ele>2194.83</ele>
        <time>2017-01-05T07:57:54Z</time>
      </trkpt>
      <trkpt lat="45.07414" lon="6.7775">
        <ele>2196.3</ele>
        <time>2017-01-05T07:57:57Z</time>
      </trkpt>
      <trkpt lat="45.07418" lon="6.77737">
        <ele>2196.92</ele>
        <time>2017-01-05T07:57:59Z</time>
      </trkpt>
      <trkpt lat="45.07424" lon="6.77724">
        <ele>2198.08</ele>
        <time>2017-01-05T07:58:01Z</time>
      </trkpt>
      <trkpt lat="45.07431" lon="6.7771">
        <ele>2200.64</ele>
        <time>2017-01-05T07:58:04Z</time>
      </trkpt>
      <trkpt lat="45.07441" lon="6.77683">
        <ele>2202.99</ele>
        <time>2017-01-05T07:58:09Z</time>
      </trkpt>
      <trkpt lat="45.07448" lon="6.77671">
        <ele>2204.15</ele>
        <time>2017-01-05T07:58:12Z</time>
      </trkpt>
      <trkpt lat="45.07458" lon="6.77664">
        <ele>2206.95</ele>
        <time>2017-01-05T07:58:15Z</time>
      </trkpt>
      <trkpt lat="45.07464" lon="6.77675">
        <ele>2208.45</ele>
        <time>2017-01-05T07:58:18Z</time>
      </trkpt>
      <trkpt lat="45.07462" lon="6.77691">
        <ele>2207.81</ele>
        <time>2017-01-05T07:58:21Z</time>
      </trkpt>
      <trkpt lat="45.07465" lon="6.77707">
        <ele>2208.53</ele>
        <time>2017-01-05T07:58:24Z</time>
      </trkpt>
      <trkpt lat="45.0748" lon="6.77732">
        <ele>2212.69</ele>
        <time>2017-01-05T07:58:29Z</time>
      </trkpt>
      <trkpt lat="45.07486" lon="6.77744">
        <ele>2215.01</ele>
        <time>2017-01-05T07:58:31Z</time>
      </trkpt>
      <trkpt lat="45.07496" lon="6.77765">
        <ele>2219.47</ele>
        <time>2017-01-05T07:58:34Z</time>
      </trkpt>
      <trkpt lat="45.07507" lon="6.77748">
        <ele>2221.72</ele>
        <time>2017-01-05T07:58:41Z</time>
      </trkpt>
      <trkpt lat="45.07506" lon="6.77732">
        <ele>2220.27</ele>
        <time>2017-01-05T07:58:45Z</time>
      </trkpt>
      <trkpt lat="45.07519" lon="6.77705">
        <ele>2225.49</ele>
        <time>2017-01-05T07:58:51Z</time>
      </trkpt>
      <trkpt lat="45.07528" lon="6.77674">
        <ele>2229.12</ele>
        <time>2017-01-05T07:58:56Z</time>
      </trkpt>
      <trkpt lat="45.07528" lon="6.77642">
        <ele>2227.38</ele>
        <time>2017-01-05T07:59:00Z</time>
      </trkpt>
      <trkpt lat="45.0753" lon="6.77625">
        <ele>2226.82</ele>
        <time>2017-01-05T07:59:02Z</time>
      </trkpt>
      <trkpt lat="45.07527" lon="6.77611">
        <ele>2223.72</ele>
        <time>2017-01-05T07:59:04Z</time>
      </trkpt>
      <trkpt lat="45.07528" lon="6.77593">
        <ele>2224.59</ele>
        <time>2017-01-05T07:59:06Z</time>
      </trkpt>
      <trkpt lat="45.07527" lon="6.77574">
        <ele>2226.19</ele>
        <time>2017-01-05T07:59:08Z</time>
      </trkpt>
      <trkpt lat="45.07525" lon="6.77556">
        <ele>2228.25</ele>
        <time>2017-01-05T07:59:10Z</time>
      </trkpt>
      <trkpt lat="45.07515" lon="6.77546">
        <ele>2226.82</ele>
        <time>2017-01-05T07:59:12Z</time>
      </trkpt>
      <trkpt lat="45.07508" lon="6.77531">
        <ele>2226.69</ele>
        <time>2017-01-05T07:59:14Z</time>
      </trkpt>
      <trkpt lat="45.07497" lon="6.7752">
        <ele>2225.4</ele>
        <time>2017-01-05T07:59:16Z</time>
      </trkpt>
      <trkpt lat="45.07486" lon="6.77515">
        <ele>2224.34</ele>
        <time>2017-01-05T07:59:18Z</time>
      </trkpt>
      <trkpt lat="45.07472" lon="6.77513">
        <ele>2222.64</ele>
        <time>2017-01-05T07:59:20Z</time>
      </trkpt>
      <trkpt lat="45.07463" lon="6.77506">
        <ele>2222.61</ele>
        <time>2017-01-05T07:59:22Z</time>
      </trkpt>
      <trkpt lat="45.07446" lon="6.77487">
        <ele>2225.35</ele>
        <time>2017-01-05T07:59:27Z</time>
      </trkpt>
      <trkpt lat="45.07439" lon="6.77477">
        <ele>2226.55</ele>
        <time>2017-01-05T07:59:29Z</time>
      </trkpt>
      <trkpt lat="45.0743" lon="6.77465">
        <ele>2225.22</ele>
        <time>2017-01-05T07:59:31Z</time>
      </trkpt>
      <trkpt lat="45.07422" lon="6.7745">
        <ele>2223.58</ele>
        <time>2017-01-05T07:59:33Z</time>
      </trkpt>
      <trkpt lat="45.07415" lon="6.77434">
        <ele>2221.64</ele>
        <time>2017-01-05T07:59:35Z</time>
      </trkpt>
      <trkpt lat="45.07413" lon="6.77419">
        <ele>2221.13</ele>
        <time>2017-01-05T07:59:37Z</time>
      </trkpt>
      <trkpt lat="45.07409" lon="6.77403">
        <ele>2220.85</ele>
        <time>2017-01-05T07:59:39Z</time>
      </trkpt>
      <trkpt lat="45.07407" lon="6.77385">
        <ele>2221.22</ele>
        <time>2017-01-05T07:59:41Z</time>
      </trkpt>
      <trkpt lat="45.07409" lon="6.77369">
        <ele>2222.66</ele>
        <time>2017-01-05T07:59:43Z</time>
      </trkpt>
      <trkpt lat="45.07407" lon="6.77353">
        <ele>2223.08</ele>
        <time>2017-01-05T07:59:45Z</time>
      </trkpt>
      <trkpt lat="45.07404" lon="6.77337">
        <ele>2223.15</ele>
        <time>2017-01-05T07:59:47Z</time>
      </trkpt>
      <trkpt lat="45.07401" lon="6.77319">
        <ele>2224.2</ele>
        <time>2017-01-05T07:59:50Z</time>
      </trkpt>
      <trkpt lat="45.07392" lon="6.77309">
        <ele>2223.29</ele>
        <time>2017-01-05T07:59:53Z</time>
      </trkpt>
      <trkpt lat="45.07383" lon="6.77297">
        <ele>2222.46</ele>
        <time>2017-01-05T07:59:55Z</time>
      </trkpt>
      <trkpt lat="45.07376" lon="6.77281">
        <ele>2222.8</ele>
        <time>2017-01-05T07:59:57Z</time>
      </trkpt>
      <trkpt lat="45.07367" lon="6.77268">
        <ele>2222.17</ele>
        <time>2017-01-05T07:59:59Z</time>
      </trkpt>
      <trkpt lat="45.07359" lon="6.77254">
        <ele>2221.28</ele>
        <time>2017-01-05T08:00:01Z</time>
      </trkpt>
      <trkpt lat="45.07352" lon="6.77241">
        <ele>2221.71</ele>
        <time>2017-01-05T08:00:03Z</time>
      </trkpt>
      <trkpt lat="45.07344" lon="6.77229">
        <ele>2222.07</ele>
        <time>2017-01-05T08:00:05Z</time>
      </trkpt>
      <trkpt lat="45.07336" lon="6.77217">
        <ele>2223.14</ele>
        <time>2017-01-05T08:00:07Z</time>
      </trkpt>
      <trkpt lat="45.07327" lon="6.77207">
        <ele>2223.06</ele>
        <time>2017-01-05T08:00:09Z</time>
      </trkpt>
      <trkpt lat="45.07321" lon="6.77189">
        <ele>2223.11</ele>
        <time>2017-01-05T08:00:10Z</time>
      </trkpt>
      <trkpt lat="45.07315" lon="6.77173">
        <ele>2220.28</ele>
        <time>2017-01-05T08:00:12Z</time>
      </trkpt>
      <trkpt lat="45.07312" lon="6.77152">
        <ele>2219.03</ele>
        <time>2017-01-05T08:00:14Z</time>
      </trkpt>
      <trkpt lat="45.07309" lon="6.77135">
        <ele>2218.74</ele>
        <time>2017-01-05T08:00:17Z</time>
      </trkpt>
      <trkpt lat="45.07314" lon="6.77121">
        <ele>2221.8</ele>
        <time>2017-01-05T08:00:19Z</time>
      </trkpt>
      <trkpt lat="45.07321" lon="6.77108">
        <ele>2224.74</ele>
        <time>2017-01-05T08:00:21Z</time>
      </trkpt>
      <trkpt lat="45.07322" lon="6.77089">
        <ele>2226.12</ele>
        <time>2017-01-05T08:00:23Z</time>
      </trkpt>
      <trkpt lat="45.07306" lon="6.77083">
        <ele>2223.18</ele>
        <time>2017-01-05T08:00:26Z</time>
      </trkpt>
      <trkpt lat="45.07292" lon="6.77089">
        <ele>2218.58</ele>
        <time>2017-01-05T08:00:28Z</time>
      </trkpt>
      <trkpt lat="45.07287" lon="6.77075">
        <ele>2218.29</ele>
        <time>2017-01-05T08:00:31Z</time>
      </trkpt>
      <trkpt lat="45.07281" lon="6.77057">
        <ele>2218.31</ele>
        <time>2017-01-05T08:00:33Z</time>
      </trkpt>
      <trkpt lat="45.07276" lon="6.77041">
        <ele>2218.66</ele>
        <time>2017-01-05T08:00:35Z</time>
      </trkpt>
      <trkpt lat="45.07273" lon="6.77009">
        <ele>2220.3</ele>
        <time>2017-01-05T08:00:39Z</time>
      </trkpt>
      <trkpt lat="45.07272" lon="6.76988">
        <ele>2222.51</ele>
        <time>2017-01-05T08:00:41Z</time>
      </trkpt>
      <trkpt lat="45.07269" lon="6.76973">
        <ele>2223.64</ele>
        <time>2017-01-05T08:00:43Z</time>
      </trkpt>
      <trkpt lat="45.07263" lon="6.7696">
        <ele>2223.85</ele>
        <time>2017-01-05T08:00:45Z</time>
      </trkpt>
      <trkpt lat="45.07253" lon="6.7695">
        <ele>2221.14</ele>
        <time>2017-01-05T08:00:47Z</time>
      </trkpt>
      <trkpt lat="45.07242" lon="6.7694">
        <ele>2218.49</ele>
        <time>2017-01-05T08:00:49Z</time>
      </trkpt>
      <trkpt lat="45.07226" lon="6.76921">
        <ele>2218.36</ele>
        <time>2017-01-05T08:00:53Z</time>
      </trkpt>
      <trkpt lat="45.07218" lon="6.7691">
        <ele>2217.96</ele>
        <time>2017-01-05T08:00:55Z</time>
      </trkpt>
      <trkpt lat="45.07206" lon="6.76888">
        <ele>2217.41</ele>
        <time>2017-01-05T08:00:59Z</time>
      </trkpt>
      <trkpt lat="45.07198" lon="6.76879">
        <ele>2216.78</ele>
        <time>2017-01-05T08:01:01Z</time>
      </trkpt>
      <trkpt lat="45.0719" lon="6.76869">
        <ele>2216.76</ele>
        <time>2017-01-05T08:01:03Z</time>
      </trkpt>
      <trkpt lat="45.0718" lon="6.76856">
        <ele>2218.6</ele>
        <time>2017-01-05T08:01:05Z</time>
      </trkpt>
      <trkpt lat="45.07172" lon="6.76842">
        <ele>2220.75</ele>
        <time>2017-01-05T08:01:07Z</time>
      </trkpt>
      <trkpt lat="45.07163" lon="6.76831">
        <ele>2221.79</ele>
        <time>2017-01-05T08:01:09Z</time>
      </trkpt>
      <trkpt lat="45.07156" lon="6.76821">
        <ele>2221.94</ele>
        <time>2017-01-05T08:01:11Z</time>
      </trkpt>
      <trkpt lat="45.07145" lon="6.76809">
        <ele>2221.37</ele>
        <time>2017-01-05T08:01:14Z</time>
      </trkpt>
      <trkpt lat="45.07136" lon="6.76785">
        <ele>2222.4</ele>
        <time>2017-01-05T08:01:18Z</time>
      </trkpt>
      <trkpt lat="45.07131" lon="6.76771">
        <ele>2222.43</ele>
        <time>2017-01-05T08:01:20Z</time>
      </trkpt>
      <trkpt lat="45.07127" lon="6.76757">
        <ele>2223.5</ele>
        <time>2017-01-05T08:01:22Z</time>
      </trkpt>
      <trkpt lat="45.07119" lon="6.76746">
        <ele>2222.42</ele>
        <time>2017-01-05T08:01:24Z</time>
      </trkpt>
      <trkpt lat="45.07109" lon="6.76731">
        <ele>2220.46</ele>
        <time>2017-01-05T08:01:27Z</time>
      </trkpt>
      <trkpt lat="45.0709" lon="6.76719">
        <ele>2215.13</ele>
        <time>2017-01-05T08:01:33Z</time>
      </trkpt>
      <trkpt lat="45.07079" lon="6.76699">
        <ele>2215.38</ele>
        <time>2017-01-05T08:01:37Z</time>
      </trkpt>
      <trkpt lat="45.07071" lon="6.76685">
        <ele>2217.56</ele>
        <time>2017-01-05T08:01:39Z</time>
      </trkpt>
      <trkpt lat="45.07059" lon="6.76683">
        <ele>2216.48</ele>
        <time>2017-01-05T08:01:42Z</time>
      </trkpt>
      <trkpt lat="45.07047" lon="6.76686">
        <ele>2214.07</ele>
        <time>2017-01-05T08:01:46Z</time>
      </trkpt>
      <trkpt lat="45.07036" lon="6.7669">
        <ele>2211.96</ele>
        <time>2017-01-05T08:01:49Z</time>
      </trkpt>
      <trkpt lat="45.07025" lon="6.76694">
        <ele>2209.92</ele>
        <time>2017-01-05T08:01:51Z</time>
      </trkpt>
      <trkpt lat="45.07007" lon="6.76682">
        <ele>2211.08</ele>
        <time>2017-01-05T08:01:56Z</time>
      </trkpt>
      <trkpt lat="45.06994" lon="6.76676">
        <ele>2210.86</ele>
        <time>2017-01-05T08:01:59Z</time>
      </trkpt>
      <trkpt lat="45.06979" lon="6.76673">
        <ele>2207.73</ele>
        <time>2017-01-05T08:02:01Z</time>
      </trkpt>
      <trkpt lat="45.06968" lon="6.7667">
        <ele>2205.19</ele>
        <time>2017-01-05T08:02:04Z</time>
      </trkpt>
      <trkpt lat="45.06959" lon="6.7666">
        <ele>2203.96</ele>
        <time>2017-01-05T08:02:06Z</time>
      </trkpt>
      <trkpt lat="45.06954" lon="6.76647">
        <ele>2204.14</ele>
        <time>2017-01-05T08:02:08Z</time>
      </trkpt>
      <trkpt lat="45.06946" lon="6.76631">
        <ele>2203.17</ele>
        <time>2017-01-05T08:02:10Z</time>
      </trkpt>
      <trkpt lat="45.06943" lon="6.76614">
        <ele>2204.64</ele>
        <time>2017-01-05T08:02:12Z</time>
      </trkpt>
      <trkpt lat="45.06938" lon="6.76601">
        <ele>2204.59</ele>
        <time>2017-01-05T08:02:13Z</time>
      </trkpt>
      <trkpt lat="45.06933" lon="6.76589">
        <ele>2203.67</ele>
        <time>2017-01-05T08:02:34Z</time>
      </trkpt>
      <trkpt lat="45.06924" lon="6.76565">
        <ele>2203.63</ele>
        <time>2017-01-05T08:03:01Z</time>
      </trkpt>
      <trkpt lat="45.06918" lon="6.76535">
        <ele>2206.21</ele>
        <time>2017-01-05T08:03:06Z</time>
      </trkpt>
      <trkpt lat="45.06917" lon="6.76518">
        <ele>2208.99</ele>
        <time>2017-01-05T08:03:08Z</time>
      </trkpt>
      <trkpt lat="45.06915" lon="6.76502">
        <ele>2210.93</ele>
        <time>2017-01-05T08:03:11Z</time>
      </trkpt>
      <trkpt lat="45.06911" lon="6.76487">
        <ele>2212.04</ele>
        <time>2017-01-05T08:03:14Z</time>
      </trkpt>
      <trkpt lat="45.06905" lon="6.76475">
        <ele>2211.72</ele>
        <time>2017-01-05T08:03:17Z</time>
      </trkpt>
      <trkpt lat="45.06897" lon="6.76463">
        <ele>2210.86</ele>
        <time>2017-01-05T08:03:20Z</time>
      </trkpt>
      <trkpt lat="45.06889" lon="6.76453">
        <ele>2210.26</ele>
        <time>2017-01-05T08:03:24Z</time>
      </trkpt>
      <trkpt lat="45.06882" lon="6.76444">
        <ele>2210.23</ele>
        <time>2017-01-05T08:03:27Z</time>
      </trkpt>
      <trkpt lat="45.06873" lon="6.76436">
        <ele>2208.14</ele>
        <time>2017-01-05T08:03:30Z</time>
      </trkpt>
      <trkpt lat="45.06863" lon="6.76429">
        <ele>2205.84</ele>
        <time>2017-01-05T08:03:34Z</time>
      </trkpt>
      <trkpt lat="45.06854" lon="6.76421">
        <ele>2204.62</ele>
        <time>2017-01-05T08:03:38Z</time>
      </trkpt>
      <trkpt lat="45.06846" lon="6.76411">
        <ele>2203.01</ele>
        <time>2017-01-05T08:03:42Z</time>
      </trkpt>
      <trkpt lat="45.06831" lon="6.76394">
        <ele>2201.06</ele>
        <time>2017-01-05T08:03:48Z</time>
      </trkpt>
      <trkpt lat="45.06822" lon="6.76385">
        <ele>2201.48</ele>
        <time>2017-01-05T08:03:53Z</time>
      </trkpt>
      <trkpt lat="45.06821" lon="6.76379">
        <ele>2202.03</ele>
        <time>2017-01-05T08:23:29Z</time>
      </trkpt>
      <trkpt lat="45.06827" lon="6.76354">
        <ele>2203.27</ele>
        <time>2017-01-05T08:23:34Z</time>
      </trkpt>
      <trkpt lat="45.06843" lon="6.76341">
        <ele>2204.03</ele>
        <time>2017-01-05T08:23:38Z</time>
      </trkpt>
      <trkpt lat="45.06852" lon="6.76332">
        <ele>2204.42</ele>
        <time>2017-01-05T08:23:40Z</time>
      </trkpt>
      <trkpt lat="45.06857" lon="6.7632">
        <ele>2203</ele>
        <time>2017-01-05T08:23:42Z</time>
      </trkpt>
      <trkpt lat="45.06867" lon="6.7631">
        <ele>2203.72</ele>
        <time>2017-01-05T08:23:44Z</time>
      </trkpt>
      <trkpt lat="45.06876" lon="6.76301">
        <ele>2204.94</ele>
        <time>2017-01-05T08:23:46Z</time>
      </trkpt>
      <trkpt lat="45.06884" lon="6.76281">
        <ele>2203.43</ele>
        <time>2017-01-05T08:23:48Z</time>
      </trkpt>
      <trkpt lat="45.06889" lon="6.76269">
        <ele>2203.82</ele>
        <time>2017-01-05T08:23:50Z</time>
      </trkpt>
      <trkpt lat="45.06896" lon="6.76258">
        <ele>2205.95</ele>
        <time>2017-01-05T08:23:53Z</time>
      </trkpt>
      <trkpt lat="45.06914" lon="6.76249">
        <ele>2213.09</ele>
        <time>2017-01-05T08:24:07Z</time>
      </trkpt>
      <trkpt lat="45.06922" lon="6.76224">
        <ele>2211.39</ele>
        <time>2017-01-05T08:24:20Z</time>
      </trkpt>
      <trkpt lat="45.06922" lon="6.76197">
        <ele>2206.99</ele>
        <time>2017-01-05T08:24:29Z</time>
      </trkpt>
      <trkpt lat="45.06925" lon="6.76179">
        <ele>2205.93</ele>
        <time>2017-01-05T08:24:32Z</time>
      </trkpt>
      <trkpt lat="45.06929" lon="6.76162">
        <ele>2205.21</ele>
        <time>2017-01-05T08:24:35Z</time>
      </trkpt>
      <trkpt lat="45.06933" lon="6.76145">
        <ele>2202.93</ele>
        <time>2017-01-05T08:24:38Z</time>
      </trkpt>
      <trkpt lat="45.06939" lon="6.76129">
        <ele>2201.49</ele>
        <time>2017-01-05T08:24:41Z</time>
      </trkpt>
      <trkpt lat="45.06947" lon="6.7612">
        <ele>2202.14</ele>
        <time>2017-01-05T08:24:44Z</time>
      </trkpt>
      <trkpt lat="45.06946" lon="6.76094">
        <ele>2194.6</ele>
        <time>2017-01-05T08:25:38Z</time>
      </trkpt>
      <trkpt lat="45.06955" lon="6.76086">
        <ele>2194.46</ele>
        <time>2017-01-05T08:25:41Z</time>
      </trkpt>
      <trkpt lat="45.06967" lon="6.76075">
        <ele>2194.36</ele>
        <time>2017-01-05T08:25:43Z</time>
      </trkpt>
      <trkpt lat="45.06978" lon="6.76071">
        <ele>2195.34</ele>
        <time>2017-01-05T08:25:46Z</time>
      </trkpt>
      <trkpt lat="45.06997" lon="6.76075">
        <ele>2198.11</ele>
        <time>2017-01-05T08:25:52Z</time>
      </trkpt>
      <trkpt lat="45.07009" lon="6.76077">
        <ele>2199.53</ele>
        <time>2017-01-05T08:25:56Z</time>
      </trkpt>
      <trkpt lat="45.0702" lon="6.76078">
        <ele>2200.52</ele>
        <time>2017-01-05T08:25:59Z</time>
      </trkpt>
      <trkpt lat="45.07032" lon="6.76078">
        <ele>2201.83</ele>
        <time>2017-01-05T08:26:02Z</time>
      </trkpt>
      <trkpt lat="45.07051" lon="6.76081">
        <ele>2207.04</ele>
        <time>2017-01-05T08:26:06Z</time>
      </trkpt>
      <trkpt lat="45.07061" lon="6.76082">
        <ele>2209.73</ele>
        <time>2017-01-05T08:26:08Z</time>
      </trkpt>
      <trkpt lat="45.07078" lon="6.76075">
        <ele>2210.38</ele>
        <time>2017-01-05T08:26:13Z</time>
      </trkpt>
      <trkpt lat="45.07098" lon="6.76065">
        <ele>2213.18</ele>
        <time>2017-01-05T08:26:19Z</time>
      </trkpt>
      <trkpt lat="45.07106" lon="6.76055">
        <ele>2213.3</ele>
        <time>2017-01-05T08:26:23Z</time>
      </trkpt>
      <trkpt lat="45.07109" lon="6.76041">
        <ele>2210.78</ele>
        <time>2017-01-05T08:26:26Z</time>
      </trkpt>
      <trkpt lat="45.07111" lon="6.76025">
        <ele>2207.05</ele>
        <time>2017-01-05T08:26:28Z</time>
      </trkpt>
      <trkpt lat="45.07115" lon="6.76009">
        <ele>2204.07</ele>
        <time>2017-01-05T08:26:30Z</time>
      </trkpt>
      <trkpt lat="45.07118" lon="6.75994">
        <ele>2200.82</ele>
        <time>2017-01-05T08:26:32Z</time>
      </trkpt>
      <trkpt lat="45.07121" lon="6.75978">
        <ele>2197.25</ele>
        <time>2017-01-05T08:26:34Z</time>
      </trkpt>
      <trkpt lat="45.07123" lon="6.75961">
        <ele>2193.56</ele>
        <time>2017-01-05T08:26:36Z</time>
      </trkpt>
      <trkpt lat="45.07129" lon="6.75932">
        <ele>2191.59</ele>
        <time>2017-01-05T08:26:40Z</time>
      </trkpt>
      <trkpt lat="45.07137" lon="6.75925">
        <ele>2196.69</ele>
        <time>2017-01-05T08:26:42Z</time>
      </trkpt>
      <trkpt lat="45.07139" lon="6.75911">
        <ele>2196.76</ele>
        <time>2017-01-05T08:26:44Z</time>
      </trkpt>
      <trkpt lat="45.07142" lon="6.75893">
        <ele>2196.45</ele>
        <time>2017-01-05T08:26:47Z</time>
      </trkpt>
      <trkpt lat="45.07136" lon="6.75879">
        <ele>2190.22</ele>
        <time>2017-01-05T08:26:49Z</time>
      </trkpt>
      <trkpt lat="45.07135" lon="6.75864">
        <ele>2186.47</ele>
        <time>2017-01-05T08:26:51Z</time>
      </trkpt>
      <trkpt lat="45.0714" lon="6.7585">
        <ele>2188.18</ele>
        <time>2017-01-05T08:26:53Z</time>
      </trkpt>
      <trkpt lat="45.07151" lon="6.75826">
        <ele>2189.79</ele>
        <time>2017-01-05T08:26:56Z</time>
      </trkpt>
      <trkpt lat="45.07166" lon="6.75801">
        <ele>2192.48</ele>
        <time>2017-01-05T08:27:01Z</time>
      </trkpt>
      <trkpt lat="45.07175" lon="6.75787">
        <ele>2197.49</ele>
        <time>2017-01-05T08:27:04Z</time>
      </trkpt>
      <trkpt lat="45.07179" lon="6.7577">
        <ele>2198.8</ele>
        <time>2017-01-05T08:27:06Z</time>
      </trkpt>
      <trkpt lat="45.07181" lon="6.75754">
        <ele>2199.82</ele>
        <time>2017-01-05T08:27:09Z</time>
      </trkpt>
      <trkpt lat="45.07182" lon="6.75738">
        <ele>2198.23</ele>
        <time>2017-01-05T08:27:12Z</time>
      </trkpt>
      <trkpt lat="45.07181" lon="6.75721">
        <ele>2194.86</ele>
        <time>2017-01-05T08:27:15Z</time>
      </trkpt>
      <trkpt lat="45.07183" lon="6.75704">
        <ele>2192.36</ele>
        <time>2017-01-05T08:27:20Z</time>
      </trkpt>
      <trkpt lat="45.07182" lon="6.75685">
        <ele>2186.39</ele>
        <time>2017-01-05T08:27:23Z</time>
      </trkpt>
      <trkpt lat="45.07178" lon="6.75654">
        <ele>2176.04</ele>
        <time>2017-01-05T08:27:27Z</time>
      </trkpt>
      <trkpt lat="45.07198" lon="6.75634">
        <ele>2184.16</ele>
        <time>2017-01-05T08:27:32Z</time>
      </trkpt>
      <trkpt lat="45.07208" lon="6.75624">
        <ele>2188.84</ele>
        <time>2017-01-05T08:27:35Z</time>
      </trkpt>
      <trkpt lat="45.0722" lon="6.75617">
        <ele>2194.52</ele>
        <time>2017-01-05T08:27:37Z</time>
      </trkpt>
      <trkpt lat="45.0723" lon="6.75611">
        <ele>2194.89</ele>
        <time>2017-01-05T08:27:39Z</time>
      </trkpt>
      <trkpt lat="45.07241" lon="6.75607">
        <ele>2194.78</ele>
        <time>2017-01-05T08:27:41Z</time>
      </trkpt>
      <trkpt lat="45.0725" lon="6.75596">
        <ele>2192.54</ele>
        <time>2017-01-05T08:27:43Z</time>
      </trkpt>
      <trkpt lat="45.07259" lon="6.75586">
        <ele>2190.24</ele>
        <time>2017-01-05T08:27:45Z</time>
      </trkpt>
      <trkpt lat="45.07267" lon="6.75576">
        <ele>2187.35</ele>
        <time>2017-01-05T08:27:47Z</time>
      </trkpt>
      <trkpt lat="45.07277" lon="6.7557">
        <ele>2186.08</ele>
        <time>2017-01-05T08:27:49Z</time>
      </trkpt>
      <trkpt lat="45.07289" lon="6.75565">
        <ele>2185.4</ele>
        <time>2017-01-05T08:27:52Z</time>
      </trkpt>
      <trkpt lat="45.07302" lon="6.7556">
        <ele>2184.47</ele>
        <time>2017-01-05T08:27:55Z</time>
      </trkpt>
      <trkpt lat="45.07313" lon="6.75562">
        <ele>2186.19</ele>
        <time>2017-01-05T08:27:58Z</time>
      </trkpt>
      <trkpt lat="45.07324" lon="6.75564">
        <ele>2188.34</ele>
        <time>2017-01-05T08:28:00Z</time>
      </trkpt>
      <trkpt lat="45.07336" lon="6.75567">
        <ele>2190.52</ele>
        <time>2017-01-05T08:28:02Z</time>
      </trkpt>
      <trkpt lat="45.07356" lon="6.75562">
        <ele>2189.95</ele>
        <time>2017-01-05T08:28:06Z</time>
      </trkpt>
      <trkpt lat="45.07367" lon="6.7556">
        <ele>2190.25</ele>
        <time>2017-01-05T08:28:08Z</time>
      </trkpt>
      <trkpt lat="45.07376" lon="6.75562">
        <ele>2192.8</ele>
        <time>2017-01-05T08:28:09Z</time>
      </trkpt>
      <trkpt lat="45.0739" lon="6.75561">
        <ele>2194.59</ele>
        <time>2017-01-05T08:28:11Z</time>
      </trkpt>
      <trkpt lat="45.074" lon="6.7556">
        <ele>2197.91</ele>
        <time>2017-01-05T08:28:13Z</time>
      </trkpt>
      <trkpt lat="45.07412" lon="6.7555">
        <ele>2198.77</ele>
        <time>2017-01-05T08:28:16Z</time>
      </trkpt>
      <trkpt lat="45.07421" lon="6.75542">
        <ele>2201.03</ele>
        <time>2017-01-05T08:28:19Z</time>
      </trkpt>
      <trkpt lat="45.07436" lon="6.75521">
        <ele>2203.25</ele>
        <time>2017-01-05T08:28:23Z</time>
      </trkpt>
      <trkpt lat="45.07442" lon="6.75505">
        <ele>2203.36</ele>
        <time>2017-01-05T08:28:25Z</time>
      </trkpt>
      <trkpt lat="45.07445" lon="6.75485">
        <ele>2200.97</ele>
        <time>2017-01-05T08:28:27Z</time>
      </trkpt>
      <trkpt lat="45.07449" lon="6.75467">
        <ele>2199.27</ele>
        <time>2017-01-05T08:28:29Z</time>
      </trkpt>
      <trkpt lat="45.07452" lon="6.7545">
        <ele>2198.41</ele>
        <time>2017-01-05T08:28:32Z</time>
      </trkpt>
      <trkpt lat="45.07458" lon="6.75437">
        <ele>2200.36</ele>
        <time>2017-01-05T08:28:35Z</time>
      </trkpt>
      <trkpt lat="45.07462" lon="6.75422">
        <ele>2200.78</ele>
        <time>2017-01-05T08:28:37Z</time>
      </trkpt>
      <trkpt lat="45.07463" lon="6.75406">
        <ele>2198.07</ele>
        <time>2017-01-05T08:28:39Z</time>
      </trkpt>
      <trkpt lat="45.07469" lon="6.75393">
        <ele>2198.36</ele>
        <time>2017-01-05T08:28:42Z</time>
      </trkpt>
      <trkpt lat="45.07472" lon="6.75378">
        <ele>2195.51</ele>
        <time>2017-01-05T08:28:44Z</time>
      </trkpt>
      <trkpt lat="45.07489" lon="6.75361">
        <ele>2198.16</ele>
        <time>2017-01-05T08:28:48Z</time>
      </trkpt>
      <trkpt lat="45.0749" lon="6.75338">
        <ele>2189.39</ele>
        <time>2017-01-05T08:28:50Z</time>
      </trkpt>
      <trkpt lat="45.07497" lon="6.75327">
        <ele>2188.1</ele>
        <time>2017-01-05T08:28:52Z</time>
      </trkpt>
      <trkpt lat="45.07505" lon="6.75314">
        <ele>2186.3</ele>
        <time>2017-01-05T08:28:55Z</time>
      </trkpt>
      <trkpt lat="45.07515" lon="6.75305">
        <ele>2186.07</ele>
        <time>2017-01-05T08:28:57Z</time>
      </trkpt>
      <trkpt lat="45.07525" lon="6.75294">
        <ele>2185.81</ele>
        <time>2017-01-05T08:29:00Z</time>
      </trkpt>
      <trkpt lat="45.07533" lon="6.75285">
        <ele>2185.2</ele>
        <time>2017-01-05T08:29:03Z</time>
      </trkpt>
      <trkpt lat="45.07551" lon="6.75273">
        <ele>2188.7</ele>
        <time>2017-01-05T08:29:10Z</time>
      </trkpt>
      <trkpt lat="45.07561" lon="6.75266">
        <ele>2191.12</ele>
        <time>2017-01-05T08:29:13Z</time>
      </trkpt>
      <trkpt lat="45.07569" lon="6.75257">
        <ele>2191.65</ele>
        <time>2017-01-05T08:29:16Z</time>
      </trkpt>
      <trkpt lat="45.07575" lon="6.75244">
        <ele>2191.13</ele>
        <time>2017-01-05T08:29:19Z</time>
      </trkpt>
      <trkpt lat="45.07595" lon="6.75221">
        <ele>2195.22</ele>
        <time>2017-01-05T08:29:23Z</time>
      </trkpt>
      <trkpt lat="45.07606" lon="6.75209">
        <ele>2199.56</ele>
        <time>2017-01-05T08:30:33Z</time>
      </trkpt>
      <trkpt lat="45.07609" lon="6.75206">
        <ele>2200.58</ele>
        <time>2017-01-05T08:31:48Z</time>
      </trkpt>
      <trkpt lat="45.07609" lon="6.75192">
        <ele>2199.5</ele>
        <time>2017-01-05T08:31:50Z</time>
      </trkpt>
      <trkpt lat="45.07612" lon="6.75165">
        <ele>2199.51</ele>
        <time>2017-01-05T08:31:54Z</time>
      </trkpt>
      <trkpt lat="45.07616" lon="6.75151">
        <ele>2200.49</ele>
        <time>2017-01-05T08:31:56Z</time>
      </trkpt>
      <trkpt lat="45.07616" lon="6.75132">
        <ele>2198.62</ele>
        <time>2017-01-05T08:31:58Z</time>
      </trkpt>
      <trkpt lat="45.07614" lon="6.75113">
        <ele>2194.66</ele>
        <time>2017-01-05T08:32:01Z</time>
      </trkpt>
      <trkpt lat="45.07624" lon="6.751">
        <ele>2197.92</ele>
        <time>2017-01-05T08:32:05Z</time>
      </trkpt>
      <trkpt lat="45.07636" lon="6.75079">
        <ele>2202.71</ele>
        <time>2017-01-05T08:32:09Z</time>
      </trkpt>
      <trkpt lat="45.07637" lon="6.75063">
        <ele>2198.24</ele>
        <time>2017-01-05T08:32:10Z</time>
      </trkpt>
      <trkpt lat="45.07645" lon="6.75033">
        <ele>2193.57</ele>
        <time>2017-01-05T08:32:13Z</time>
      </trkpt>
      <trkpt lat="45.0765" lon="6.75016">
        <ele>2191.93</ele>
        <time>2017-01-05T08:32:15Z</time>
      </trkpt>
      <trkpt lat="45.07654" lon="6.74998">
        <ele>2189.62</ele>
        <time>2017-01-05T08:32:17Z</time>
      </trkpt>
      <trkpt lat="45.0766" lon="6.74983">
        <ele>2191.32</ele>
        <time>2017-01-05T08:32:19Z</time>
      </trkpt>
      <trkpt lat="45.07665" lon="6.74966">
        <ele>2191.41</ele>
        <time>2017-01-05T08:32:21Z</time>
      </trkpt>
      <trkpt lat="45.07673" lon="6.74951">
        <ele>2195.85</ele>
        <time>2017-01-05T08:32:23Z</time>
      </trkpt>
      <trkpt lat="45.07671" lon="6.74922">
        <ele>2196.38</ele>
        <time>2017-01-05T08:32:26Z</time>
      </trkpt>
      <trkpt lat="45.07675" lon="6.74909">
        <ele>2200.66</ele>
        <time>2017-01-05T08:32:28Z</time>
      </trkpt>
      <trkpt lat="45.07674" lon="6.74895">
        <ele>2202.19</ele>
        <time>2017-01-05T08:32:30Z</time>
      </trkpt>
      <trkpt lat="45.07673" lon="6.74879">
        <ele>2202.29</ele>
        <time>2017-01-05T08:32:31Z</time>
      </trkpt>
      <trkpt lat="45.0767" lon="6.74852">
        <ele>2197.51</ele>
        <time>2017-01-05T08:32:36Z</time>
      </trkpt>
      <trkpt lat="45.07669" lon="6.74835">
        <ele>2192.93</ele>
        <time>2017-01-05T08:32:39Z</time>
      </trkpt>
      <trkpt lat="45.07677" lon="6.74806">
        <ele>2189.69</ele>
        <time>2017-01-05T08:32:43Z</time>
      </trkpt>
      <trkpt lat="45.07685" lon="6.74789">
        <ele>2191.69</ele>
        <time>2017-01-05T08:32:46Z</time>
      </trkpt>
      <trkpt lat="45.07684" lon="6.74767">
        <ele>2186.07</ele>
        <time>2017-01-05T08:32:48Z</time>
      </trkpt>
      <trkpt lat="45.07686" lon="6.74736">
        <ele>2180.56</ele>
        <time>2017-01-05T08:32:50Z</time>
      </trkpt>
      <trkpt lat="45.0769" lon="6.74723">
        <ele>2179.92</ele>
        <time>2017-01-05T08:32:52Z</time>
      </trkpt>
      <trkpt lat="45.07698" lon="6.74709">
        <ele>2180.96</ele>
        <time>2017-01-05T08:32:55Z</time>
      </trkpt>
      <trkpt lat="45.07698" lon="6.74693">
        <ele>2178.44</ele>
        <time>2017-01-05T08:32:58Z</time>
      </trkpt>
      <trkpt lat="45.07701" lon="6.7468">
        <ele>2177.72</ele>
        <time>2017-01-05T08:32:59Z</time>
      </trkpt>
      <trkpt lat="45.07704" lon="6.74659">
        <ele>2174.97</ele>
        <time>2017-01-05T08:33:03Z</time>
      </trkpt>
      <trkpt lat="45.07706" lon="6.74643">
        <ele>2171.64</ele>
        <time>2017-01-05T08:33:05Z</time>
      </trkpt>
      <trkpt lat="45.07708" lon="6.74623">
        <ele>2167.44</ele>
        <time>2017-01-05T08:33:07Z</time>
      </trkpt>
      <trkpt lat="45.07712" lon="6.74605">
        <ele>2164.4</ele>
        <time>2017-01-05T08:33:09Z</time>
      </trkpt>
      <trkpt lat="45.0772" lon="6.74593">
        <ele>2164.23</ele>
        <time>2017-01-05T08:33:11Z</time>
      </trkpt>
      <trkpt lat="45.07736" lon="6.74581">
        <ele>2169.73</ele>
        <time>2017-01-05T08:33:15Z</time>
      </trkpt>
      <trkpt lat="45.07743" lon="6.74554">
        <ele>2167.65</ele>
        <time>2017-01-05T08:33:19Z</time>
      </trkpt>
      <trkpt lat="45.07752" lon="6.74542">
        <ele>2169.48</ele>
        <time>2017-01-05T08:33:22Z</time>
      </trkpt>
      <trkpt lat="45.07762" lon="6.74534">
        <ele>2169.35</ele>
        <time>2017-01-05T08:33:24Z</time>
      </trkpt>
      <trkpt lat="45.07773" lon="6.74529">
        <ele>2169.59</ele>
        <time>2017-01-05T08:33:26Z</time>
      </trkpt>
      <trkpt lat="45.07785" lon="6.74523">
        <ele>2169.62</ele>
        <time>2017-01-05T08:33:28Z</time>
      </trkpt>
      <trkpt lat="45.07796" lon="6.74517">
        <ele>2168.81</ele>
        <time>2017-01-05T08:33:30Z</time>
      </trkpt>
      <trkpt lat="45.07812" lon="6.74496">
        <ele>2164.3</ele>
        <time>2017-01-05T08:33:35Z</time>
      </trkpt>
      <trkpt lat="45.07823" lon="6.7449">
        <ele>2164.53</ele>
        <time>2017-01-05T08:33:38Z</time>
      </trkpt>
      <trkpt lat="45.0783" lon="6.74478">
        <ele>2162.39</ele>
        <time>2017-01-05T08:33:40Z</time>
      </trkpt>
      <trkpt lat="45.07842" lon="6.7447">
        <ele>2162.12</ele>
        <time>2017-01-05T08:33:42Z</time>
      </trkpt>
      <trkpt lat="45.07849" lon="6.74459">
        <ele>2160.31</ele>
        <time>2017-01-05T08:33:44Z</time>
      </trkpt>
      <trkpt lat="45.07867" lon="6.74448">
        <ele>2158.78</ele>
        <time>2017-01-05T08:33:48Z</time>
      </trkpt>
      <trkpt lat="45.07881" lon="6.7444">
        <ele>2156.71</ele>
        <time>2017-01-05T08:33:50Z</time>
      </trkpt>
      <trkpt lat="45.07891" lon="6.74431">
        <ele>2154.68</ele>
        <time>2017-01-05T08:33:52Z</time>
      </trkpt>
      <trkpt lat="45.07899" lon="6.74436">
        <ele>2158.51</ele>
        <time>2017-01-05T08:35:41Z</time>
      </trkpt>
      <trkpt lat="45.07891" lon="6.74411">
        <ele>2147.77</ele>
        <time>2017-01-05T08:36:02Z</time>
      </trkpt>
      <trkpt lat="45.07876" lon="6.74381">
        <ele>2138.3</ele>
        <time>2017-01-05T08:36:08Z</time>
      </trkpt>
      <trkpt lat="45.0789" lon="6.74401">
        <ele>2144.67</ele>
        <time>2017-01-05T08:36:19Z</time>
      </trkpt>
      <trkpt lat="45.07896" lon="6.74413">
        <ele>2149.42</ele>
        <time>2017-01-05T08:37:46Z</time>
      </trkpt>
      <trkpt lat="45.07909" lon="6.74409">
        <ele>2150.78</ele>
        <time>2017-01-05T08:37:48Z</time>
      </trkpt>
      <trkpt lat="45.07923" lon="6.74391">
        <ele>2147.39</ele>
        <time>2017-01-05T08:37:52Z</time>
      </trkpt>
      <trkpt lat="45.07932" lon="6.7438">
        <ele>2144.57</ele>
        <time>2017-01-05T08:37:55Z</time>
      </trkpt>
      <trkpt lat="45.07943" lon="6.74372">
        <ele>2143.18</ele>
        <time>2017-01-05T08:37:58Z</time>
      </trkpt>
      <trkpt lat="45.07952" lon="6.74365">
        <ele>2142.57</ele>
        <time>2017-01-05T08:38:01Z</time>
      </trkpt>
      <trkpt lat="45.07958" lon="6.74353">
        <ele>2140.1</ele>
        <time>2017-01-05T08:38:03Z</time>
      </trkpt>
      <trkpt lat="45.07967" lon="6.74336">
        <ele>2137.19</ele>
        <time>2017-01-05T08:38:05Z</time>
      </trkpt>
      <trkpt lat="45.07975" lon="6.74325">
        <ele>2137.5</ele>
        <time>2017-01-05T08:38:07Z</time>
      </trkpt>
      <trkpt lat="45.07981" lon="6.7431">
        <ele>2136.79</ele>
        <time>2017-01-05T08:38:09Z</time>
      </trkpt>
      <trkpt lat="45.07988" lon="6.74299">
        <ele>2136.17</ele>
        <time>2017-01-05T08:38:11Z</time>
      </trkpt>
      <trkpt lat="45.07995" lon="6.74284">
        <ele>2134.82</ele>
        <time>2017-01-05T08:38:14Z</time>
      </trkpt>
      <trkpt lat="45.07999" lon="6.74268">
        <ele>2132.69</ele>
        <time>2017-01-05T08:38:16Z</time>
      </trkpt>
      <trkpt lat="45.08009" lon="6.74259">
        <ele>2132.71</ele>
        <time>2017-01-05T08:38:18Z</time>
      </trkpt>
      <trkpt lat="45.0802" lon="6.74253">
        <ele>2133.45</ele>
        <time>2017-01-05T08:38:20Z</time>
      </trkpt>
      <trkpt lat="45.08031" lon="6.74248">
        <ele>2134.23</ele>
        <time>2017-01-05T08:38:22Z</time>
      </trkpt>
      <trkpt lat="45.08039" lon="6.7424">
        <ele>2133.72</ele>
        <time>2017-01-05T08:38:24Z</time>
      </trkpt>
      <trkpt lat="45.08053" lon="6.74219">
        <ele>2130.94</ele>
        <time>2017-01-05T08:38:28Z</time>
      </trkpt>
      <trkpt lat="45.08062" lon="6.74196">
        <ele>2126.82</ele>
        <time>2017-01-05T08:38:32Z</time>
      </trkpt>
      <trkpt lat="45.08069" lon="6.74186">
        <ele>2124.6</ele>
        <time>2017-01-05T08:38:34Z</time>
      </trkpt>
      <trkpt lat="45.08072" lon="6.74172">
        <ele>2121.21</ele>
        <time>2017-01-05T08:38:36Z</time>
      </trkpt>
      <trkpt lat="45.08079" lon="6.74157">
        <ele>2119.41</ele>
        <time>2017-01-05T08:38:39Z</time>
      </trkpt>
      <trkpt lat="45.08082" lon="6.74144">
        <ele>2117.63</ele>
        <time>2017-01-05T08:38:41Z</time>
      </trkpt>
      <trkpt lat="45.0809" lon="6.7413">
        <ele>2118.66</ele>
        <time>2017-01-05T08:38:43Z</time>
      </trkpt>
      <trkpt lat="45.08105" lon="6.74109">
        <ele>2121.82</ele>
        <time>2017-01-05T08:38:48Z</time>
      </trkpt>
      <trkpt lat="45.08117" lon="6.741">
        <ele>2124.59</ele>
        <time>2017-01-05T08:38:51Z</time>
      </trkpt>
      <trkpt lat="45.08126" lon="6.7409">
        <ele>2126.06</ele>
        <time>2017-01-05T08:38:54Z</time>
      </trkpt>
      <trkpt lat="45.08128" lon="6.74063">
        <ele>2120.88</ele>
        <time>2017-01-05T08:38:58Z</time>
      </trkpt>
      <trkpt lat="45.08129" lon="6.74048">
        <ele>2117.98</ele>
        <time>2017-01-05T08:39:00Z</time>
      </trkpt>
      <trkpt lat="45.08133" lon="6.74019">
        <ele>2113.95</ele>
        <time>2017-01-05T08:39:04Z</time>
      </trkpt>
      <trkpt lat="45.08129" lon="6.74004">
        <ele>2110.91</ele>
        <time>2017-01-05T08:39:07Z</time>
      </trkpt>
      <trkpt lat="45.08114" lon="6.74016">
        <ele>2107.33</ele>
        <time>2017-01-05T08:39:12Z</time>
      </trkpt>
      <trkpt lat="45.0811" lon="6.7403">
        <ele>2108.17</ele>
        <time>2017-01-05T08:39:14Z</time>
      </trkpt>
      <trkpt lat="45.08101" lon="6.74043">
        <ele>2108.24</ele>
        <time>2017-01-05T08:39:17Z</time>
      </trkpt>
      <trkpt lat="45.08089" lon="6.74037">
        <ele>2104.04</ele>
        <time>2017-01-05T08:39:21Z</time>
      </trkpt>
      <trkpt lat="45.08088" lon="6.74023">
        <ele>2101.56</ele>
        <time>2017-01-05T08:39:23Z</time>
      </trkpt>
      <trkpt lat="45.08091" lon="6.74008">
        <ele>2099.95</ele>
        <time>2017-01-05T08:39:25Z</time>
      </trkpt>
      <trkpt lat="45.08096" lon="6.73989">
        <ele>2098.95</ele>
        <time>2017-01-05T08:39:28Z</time>
      </trkpt>
      <trkpt lat="45.08098" lon="6.73973">
        <ele>2098.18</ele>
        <time>2017-01-05T08:39:30Z</time>
      </trkpt>
      <trkpt lat="45.08097" lon="6.73946">
        <ele>2094.74</ele>
        <time>2017-01-05T08:39:34Z</time>
      </trkpt>
      <trkpt lat="45.08096" lon="6.73932">
        <ele>2092.21</ele>
        <time>2017-01-05T08:39:36Z</time>
      </trkpt>
      <trkpt lat="45.08097" lon="6.73915">
        <ele>2090.15</ele>
        <time>2017-01-05T08:39:38Z</time>
      </trkpt>
      <trkpt lat="45.08093" lon="6.73889">
        <ele>2088.1</ele>
        <time>2017-01-05T08:39:42Z</time>
      </trkpt>
      <trkpt lat="45.08088" lon="6.73874">
        <ele>2085.97</ele>
        <time>2017-01-05T08:39:44Z</time>
      </trkpt>
      <trkpt lat="45.08085" lon="6.7386">
        <ele>2084.44</ele>
        <time>2017-01-05T08:39:46Z</time>
      </trkpt>
      <trkpt lat="45.08082" lon="6.73846">
        <ele>2081.19</ele>
        <time>2017-01-05T08:39:48Z</time>
      </trkpt>
      <trkpt lat="45.08075" lon="6.7383">
        <ele>2075.84</ele>
        <time>2017-01-05T08:39:50Z</time>
      </trkpt>
      <trkpt lat="45.08066" lon="6.73807">
        <ele>2067.77</ele>
        <time>2017-01-05T08:39:54Z</time>
      </trkpt>
      <trkpt lat="45.08059" lon="6.73794">
        <ele>2063.64</ele>
        <time>2017-01-05T08:39:56Z</time>
      </trkpt>
      <trkpt lat="45.08058" lon="6.73767">
        <ele>2059.8</ele>
        <time>2017-01-05T08:40:00Z</time>
      </trkpt>
      <trkpt lat="45.08056" lon="6.7374">
        <ele>2058.07</ele>
        <time>2017-01-05T08:40:05Z</time>
      </trkpt>
      <trkpt lat="45.08052" lon="6.73726">
        <ele>2056.88</ele>
        <time>2017-01-05T08:40:08Z</time>
      </trkpt>
      <trkpt lat="45.08043" lon="6.73715">
        <ele>2053</ele>
        <time>2017-01-05T08:40:11Z</time>
      </trkpt>
      <trkpt lat="45.08027" lon="6.73702">
        <ele>2047.72</ele>
        <time>2017-01-05T08:40:13Z</time>
      </trkpt>
      <trkpt lat="45.08036" lon="6.73692">
        <ele>2049.45</ele>
        <time>2017-01-05T08:40:16Z</time>
      </trkpt>
      <trkpt lat="45.08058" lon="6.7369">
        <ele>2053.01</ele>
        <time>2017-01-05T08:40:21Z</time>
      </trkpt>
      <trkpt lat="45.08078" lon="6.73682">
        <ele>2050.9</ele>
        <time>2017-01-05T08:40:26Z</time>
      </trkpt>
      <trkpt lat="45.08074" lon="6.73666">
        <ele>2047.64</ele>
        <time>2017-01-05T08:40:29Z</time>
      </trkpt>
      <trkpt lat="45.08061" lon="6.73659">
        <ele>2045.59</ele>
        <time>2017-01-05T08:40:32Z</time>
      </trkpt>
      <trkpt lat="45.08048" lon="6.73657">
        <ele>2044.51</ele>
        <time>2017-01-05T08:40:35Z</time>
      </trkpt>
      <trkpt lat="45.08036" lon="6.73659">
        <ele>2043.98</ele>
        <time>2017-01-05T08:40:38Z</time>
      </trkpt>
      <trkpt lat="45.08017" lon="6.73667">
        <ele>2039.92</ele>
        <time>2017-01-05T08:40:42Z</time>
      </trkpt>
      <trkpt lat="45.08007" lon="6.73663">
        <ele>2034.94</ele>
        <time>2017-01-05T08:40:45Z</time>
      </trkpt>
      <trkpt lat="45.08008" lon="6.73647">
        <ele>2033.36</ele>
        <time>2017-01-05T08:40:48Z</time>
      </trkpt>
      <trkpt lat="45.08014" lon="6.7362">
        <ele>2029.97</ele>
        <time>2017-01-05T08:40:52Z</time>
      </trkpt>
      <trkpt lat="45.08024" lon="6.7361">
        <ele>2031.39</ele>
        <time>2017-01-05T08:40:55Z</time>
      </trkpt>
      <trkpt lat="45.08035" lon="6.73612">
        <ele>2032.59</ele>
        <time>2017-01-05T08:40:58Z</time>
      </trkpt>
      <trkpt lat="45.08048" lon="6.73618">
        <ele>2033.37</ele>
        <time>2017-01-05T08:41:02Z</time>
      </trkpt>
      <trkpt lat="45.08044" lon="6.73605">
        <ele>2030.46</ele>
        <time>2017-01-05T08:41:10Z</time>
      </trkpt>
      <trkpt lat="45.08035" lon="6.73596">
        <ele>2028.7</ele>
        <time>2017-01-05T08:41:12Z</time>
      </trkpt>
      <trkpt lat="45.08021" lon="6.73589">
        <ele>2025.33</ele>
        <time>2017-01-05T08:41:14Z</time>
      </trkpt>
      <trkpt lat="45.0801" lon="6.7359">
        <ele>2022.03</ele>
        <time>2017-01-05T08:41:17Z</time>
      </trkpt>
      <trkpt lat="45.07999" lon="6.73586">
        <ele>2018.01</ele>
        <time>2017-01-05T08:41:20Z</time>
      </trkpt>
      <trkpt lat="45.07992" lon="6.73573">
        <ele>2013.74</ele>
        <time>2017-01-05T08:41:23Z</time>
      </trkpt>
      <trkpt lat="45.07987" lon="6.7356">
        <ele>2010.42</ele>
        <time>2017-01-05T08:41:25Z</time>
      </trkpt>
      <trkpt lat="45.08005" lon="6.73548">
        <ele>2013.86</ele>
        <time>2017-01-05T08:41:31Z</time>
      </trkpt>
      <trkpt lat="45.08015" lon="6.73542">
        <ele>2013.74</ele>
        <time>2017-01-05T08:41:35Z</time>
      </trkpt>
      <trkpt lat="45.08027" lon="6.73543">
        <ele>2015.16</ele>
        <time>2017-01-05T08:41:38Z</time>
      </trkpt>
      <trkpt lat="45.08037" lon="6.73549">
        <ele>2016.42</ele>
        <time>2017-01-05T08:41:40Z</time>
      </trkpt>
      <trkpt lat="45.08043" lon="6.73533">
        <ele>2011.73</ele>
        <time>2017-01-05T08:41:43Z</time>
      </trkpt>
      <trkpt lat="45.08032" lon="6.73522">
        <ele>2009.65</ele>
        <time>2017-01-05T08:41:46Z</time>
      </trkpt>
      <trkpt lat="45.08021" lon="6.73516">
        <ele>2007.64</ele>
        <time>2017-01-05T08:41:49Z</time>
      </trkpt>
      <trkpt lat="45.0801" lon="6.7351">
        <ele>2005.12</ele>
        <time>2017-01-05T08:41:52Z</time>
      </trkpt>
      <trkpt lat="45.08" lon="6.73506">
        <ele>2002.81</ele>
        <time>2017-01-05T08:41:55Z</time>
      </trkpt>
      <trkpt lat="45.07989" lon="6.73517">
        <ele>2001.93</ele>
        <time>2017-01-05T08:41:58Z</time>
      </trkpt>
      <trkpt lat="45.07976" lon="6.73515">
        <ele>1997.19</ele>
        <time>2017-01-05T08:42:00Z</time>
      </trkpt>
      <trkpt lat="45.07964" lon="6.7351">
        <ele>1989.77</ele>
        <time>2017-01-05T08:42:02Z</time>
      </trkpt>
      <trkpt lat="45.07955" lon="6.73501">
        <ele>1982.69</ele>
        <time>2017-01-05T08:42:06Z</time>
      </trkpt>
      <trkpt lat="45.0796" lon="6.73489">
        <ele>1983.16</ele>
        <time>2017-01-05T08:42:09Z</time>
      </trkpt>
      <trkpt lat="45.07981" lon="6.73487">
        <ele>1991.27</ele>
        <time>2017-01-05T08:42:13Z</time>
      </trkpt>
      <trkpt lat="45.07988" lon="6.73477">
        <ele>1990.13</ele>
        <time>2017-01-05T08:42:15Z</time>
      </trkpt>
      <trkpt lat="45.07994" lon="6.73464">
        <ele>1987.81</ele>
        <time>2017-01-05T08:42:17Z</time>
      </trkpt>
      <trkpt lat="45.08005" lon="6.73454">
        <ele>1986.79</ele>
        <time>2017-01-05T08:42:20Z</time>
      </trkpt>
      <trkpt lat="45.08015" lon="6.73455">
        <ele>1987.96</ele>
        <time>2017-01-05T08:42:22Z</time>
      </trkpt>
      <trkpt lat="45.08028" lon="6.73451">
        <ele>1987.88</ele>
        <time>2017-01-05T08:42:25Z</time>
      </trkpt>
      <trkpt lat="45.08039" lon="6.73438">
        <ele>1983.24</ele>
        <time>2017-01-05T08:42:27Z</time>
      </trkpt>
      <trkpt lat="45.08058" lon="6.73432">
        <ele>1982.32</ele>
        <time>2017-01-05T08:42:31Z</time>
      </trkpt>
      <trkpt lat="45.08069" lon="6.73431">
        <ele>1982.06</ele>
        <time>2017-01-05T08:42:34Z</time>
      </trkpt>
      <trkpt lat="45.0808" lon="6.7343">
        <ele>1982.21</ele>
        <time>2017-01-05T08:42:36Z</time>
      </trkpt>
      <trkpt lat="45.0809" lon="6.73429">
        <ele>1981.24</ele>
        <time>2017-01-05T08:42:38Z</time>
      </trkpt>
      <trkpt lat="45.081" lon="6.73428">
        <ele>1980.08</ele>
        <time>2017-01-05T08:42:40Z</time>
      </trkpt>
      <trkpt lat="45.08115" lon="6.73426">
        <ele>1978.35</ele>
        <time>2017-01-05T08:42:42Z</time>
      </trkpt>
      <trkpt lat="45.08126" lon="6.73426">
        <ele>1977.03</ele>
        <time>2017-01-05T08:42:44Z</time>
      </trkpt>
      <trkpt lat="45.08137" lon="6.73429">
        <ele>1977.32</ele>
        <time>2017-01-05T08:42:47Z</time>
      </trkpt>
      <trkpt lat="45.0815" lon="6.73432">
        <ele>1978.46</ele>
        <time>2017-01-05T08:42:50Z</time>
      </trkpt>
      <trkpt lat="45.08161" lon="6.73426">
        <ele>1975.49</ele>
        <time>2017-01-05T08:42:53Z</time>
      </trkpt>
      <trkpt lat="45.08154" lon="6.73414">
        <ele>1970.73</ele>
        <time>2017-01-05T08:42:57Z</time>
      </trkpt>
      <trkpt lat="45.08142" lon="6.73406">
        <ele>1967.75</ele>
        <time>2017-01-05T08:43:00Z</time>
      </trkpt>
      <trkpt lat="45.08133" lon="6.73399">
        <ele>1966.18</ele>
        <time>2017-01-05T08:43:03Z</time>
      </trkpt>
      <trkpt lat="45.08116" lon="6.73385">
        <ele>1963.5</ele>
        <time>2017-01-05T08:43:09Z</time>
      </trkpt>
      <trkpt lat="45.08103" lon="6.73381">
        <ele>1962.55</ele>
        <time>2017-01-05T08:43:12Z</time>
      </trkpt>
      <trkpt lat="45.08093" lon="6.7338">
        <ele>1962.07</ele>
        <time>2017-01-05T08:43:14Z</time>
      </trkpt>
      <trkpt lat="45.08082" lon="6.73374">
        <ele>1960.08</ele>
        <time>2017-01-05T08:43:17Z</time>
      </trkpt>
      <trkpt lat="45.08061" lon="6.73366">
        <ele>1956.17</ele>
        <time>2017-01-05T08:43:21Z</time>
      </trkpt>
      <trkpt lat="45.08055" lon="6.73355">
        <ele>1952.46</ele>
        <time>2017-01-05T08:43:22Z</time>
      </trkpt>
      <trkpt lat="45.08046" lon="6.73346">
        <ele>1950.01</ele>
        <time>2017-01-05T08:43:24Z</time>
      </trkpt>
      <trkpt lat="45.08033" lon="6.73341">
        <ele>1948.6</ele>
        <time>2017-01-05T08:43:27Z</time>
      </trkpt>
      <trkpt lat="45.08021" lon="6.73341">
        <ele>1948.41</ele>
        <time>2017-01-05T08:43:31Z</time>
      </trkpt>
      <trkpt lat="45.08009" lon="6.73343">
        <ele>1948.16</ele>
        <time>2017-01-05T08:43:34Z</time>
      </trkpt>
      <trkpt lat="45.07999" lon="6.73352">
        <ele>1950.25</ele>
        <time>2017-01-05T08:43:37Z</time>
      </trkpt>
      <trkpt lat="45.0799" lon="6.73359">
        <ele>1950.77</ele>
        <time>2017-01-05T08:43:39Z</time>
      </trkpt>
      <trkpt lat="45.07981" lon="6.73365">
        <ele>1951.51</ele>
        <time>2017-01-05T08:43:41Z</time>
      </trkpt>
      <trkpt lat="45.07963" lon="6.73367">
        <ele>1948.75</ele>
        <time>2017-01-05T08:43:45Z</time>
      </trkpt>
      <trkpt lat="45.0795" lon="6.73364">
        <ele>1945.56</ele>
        <time>2017-01-05T08:43:47Z</time>
      </trkpt>
      <trkpt lat="45.07942" lon="6.73351">
        <ele>1939.39</ele>
        <time>2017-01-05T08:43:51Z</time>
      </trkpt>
      <trkpt lat="45.07945" lon="6.73336">
        <ele>1936</ele>
        <time>2017-01-05T08:43:54Z</time>
      </trkpt>
      <trkpt lat="45.07955" lon="6.73334">
        <ele>1937.43</ele>
        <time>2017-01-05T08:43:56Z</time>
      </trkpt>
      <trkpt lat="45.07965" lon="6.73336">
        <ele>1940.2</ele>
        <time>2017-01-05T08:43:58Z</time>
      </trkpt>
      <trkpt lat="45.07975" lon="6.73336">
        <ele>1942.07</ele>
        <time>2017-01-05T08:44:00Z</time>
      </trkpt>
      <trkpt lat="45.07986" lon="6.73333">
        <ele>1942.94</ele>
        <time>2017-01-05T08:44:02Z</time>
      </trkpt>
      <trkpt lat="45.07991" lon="6.73318">
        <ele>1939.12</ele>
        <time>2017-01-05T08:44:03Z</time>
      </trkpt>
      <trkpt lat="45.0799" lon="6.73299">
        <ele>1933.14</ele>
        <time>2017-01-05T08:44:06Z</time>
      </trkpt>
      <trkpt lat="45.07981" lon="6.73287">
        <ele>1928.55</ele>
        <time>2017-01-05T08:44:09Z</time>
      </trkpt>
      <trkpt lat="45.07971" lon="6.73285">
        <ele>1926.53</ele>
        <time>2017-01-05T08:44:12Z</time>
      </trkpt>
      <trkpt lat="45.07959" lon="6.73283">
        <ele>1924.87</ele>
        <time>2017-01-05T08:44:15Z</time>
      </trkpt>
      <trkpt lat="45.07948" lon="6.73285">
        <ele>1924.02</ele>
        <time>2017-01-05T08:44:18Z</time>
      </trkpt>
      <trkpt lat="45.07936" lon="6.73288">
        <ele>1921.13</ele>
        <time>2017-01-05T08:44:21Z</time>
      </trkpt>
      <trkpt lat="45.07926" lon="6.73294">
        <ele>1918.79</ele>
        <time>2017-01-05T08:44:24Z</time>
      </trkpt>
      <trkpt lat="45.07915" lon="6.73295">
        <ele>1914.84</ele>
        <time>2017-01-05T08:44:27Z</time>
      </trkpt>
      <trkpt lat="45.07908" lon="6.73285">
        <ele>1909.11</ele>
        <time>2017-01-05T08:44:30Z</time>
      </trkpt>
      <trkpt lat="45.07918" lon="6.73276">
        <ele>1911.92</ele>
        <time>2017-01-05T08:44:33Z</time>
      </trkpt>
      <trkpt lat="45.07926" lon="6.73248">
        <ele>1907.79</ele>
        <time>2017-01-05T08:44:37Z</time>
      </trkpt>
      <trkpt lat="45.07935" lon="6.73235">
        <ele>1906.61</ele>
        <time>2017-01-05T08:44:39Z</time>
      </trkpt>
      <trkpt lat="45.07947" lon="6.73232">
        <ele>1908.16</ele>
        <time>2017-01-05T08:44:41Z</time>
      </trkpt>
      <trkpt lat="45.07958" lon="6.73228">
        <ele>1908.14</ele>
        <time>2017-01-05T08:44:43Z</time>
      </trkpt>
      <trkpt lat="45.07968" lon="6.73229">
        <ele>1909.76</ele>
        <time>2017-01-05T08:44:45Z</time>
      </trkpt>
      <trkpt lat="45.07978" lon="6.73228">
        <ele>1910.4</ele>
        <time>2017-01-05T08:44:47Z</time>
      </trkpt>
      <trkpt lat="45.07985" lon="6.73217">
        <ele>1907.54</ele>
        <time>2017-01-05T08:44:49Z</time>
      </trkpt>
      <trkpt lat="45.08002" lon="6.73192">
        <ele>1902.52</ele>
        <time>2017-01-05T08:44:53Z</time>
      </trkpt>
      <trkpt lat="45.08013" lon="6.7317">
        <ele>1897.46</ele>
        <time>2017-01-05T08:44:56Z</time>
      </trkpt>
      <trkpt lat="45.08025" lon="6.73167">
        <ele>1896.83</ele>
        <time>2017-01-05T08:44:58Z</time>
      </trkpt>
      <trkpt lat="45.08034" lon="6.73159">
        <ele>1895.14</ele>
        <time>2017-01-05T08:45:00Z</time>
      </trkpt>
      <trkpt lat="45.08043" lon="6.73151">
        <ele>1893.42</ele>
        <time>2017-01-05T08:45:14Z</time>
      </trkpt>
      <trkpt lat="45.08061" lon="6.73148">
        <ele>1894.53</ele>
        <time>2017-01-05T08:45:19Z</time>
      </trkpt>
      <trkpt lat="45.08074" lon="6.73147">
        <ele>1896.18</ele>
        <time>2017-01-05T08:45:21Z</time>
      </trkpt>
      <trkpt lat="45.08087" lon="6.73148">
        <ele>1898.87</ele>
        <time>2017-01-05T08:45:23Z</time>
      </trkpt>
      <trkpt lat="45.08103" lon="6.73149">
        <ele>1900.71</ele>
        <time>2017-01-05T08:45:25Z</time>
      </trkpt>
      <trkpt lat="45.08116" lon="6.73153">
        <ele>1902.94</ele>
        <time>2017-01-05T08:45:27Z</time>
      </trkpt>
      <trkpt lat="45.0813" lon="6.73155">
        <ele>1903.84</ele>
        <time>2017-01-05T08:45:29Z</time>
      </trkpt>
      <trkpt lat="45.08148" lon="6.73166">
        <ele>1907.4</ele>
        <time>2017-01-05T08:45:33Z</time>
      </trkpt>
      <trkpt lat="45.08162" lon="6.73166">
        <ele>1906.9</ele>
        <time>2017-01-05T08:45:34Z</time>
      </trkpt>
      <trkpt lat="45.08183" lon="6.73157">
        <ele>1904.72</ele>
        <time>2017-01-05T08:45:49Z</time>
      </trkpt>
      <trkpt lat="45.08202" lon="6.7315">
        <ele>1905.15</ele>
        <time>2017-01-05T08:45:55Z</time>
      </trkpt>
      <trkpt lat="45.08198" lon="6.73174">
        <ele>1909.29</ele>
        <time>2017-01-05T08:46:02Z</time>
      </trkpt>
      <trkpt lat="45.08189" lon="6.73167">
        <ele>1907.01</ele>
        <time>2017-01-05T08:46:06Z</time>
      </trkpt>
      <trkpt lat="45.08169" lon="6.73168">
        <ele>1907.4</ele>
        <time>2017-01-05T08:46:09Z</time>
      </trkpt>
      <trkpt lat="45.08156" lon="6.73168">
        <ele>1907.89</ele>
        <time>2017-01-05T08:46:12Z</time>
      </trkpt>
      <trkpt lat="45.08145" lon="6.73165">
        <ele>1907.33</ele>
        <time>2017-01-05T08:46:15Z</time>
      </trkpt>
      <trkpt lat="45.08137" lon="6.73176">
        <ele>1911.6</ele>
        <time>2017-01-05T08:46:28Z</time>
      </trkpt>
      <trkpt lat="45.08148" lon="6.73202">
        <ele>1920.45</ele>
        <time>2017-01-05T08:46:32Z</time>
      </trkpt>
      <trkpt lat="45.0816" lon="6.7321">
        <ele>1921.94</ele>
        <time>2017-01-05T08:46:34Z</time>
      </trkpt>
      <trkpt lat="45.08174" lon="6.73213">
        <ele>1921.63</ele>
        <time>2017-01-05T08:46:36Z</time>
      </trkpt>
      <trkpt lat="45.08187" lon="6.73213">
        <ele>1920.66</ele>
        <time>2017-01-05T08:46:49Z</time>
      </trkpt>
      <trkpt lat="45.08207" lon="6.73216">
        <ele>1921.55</ele>
        <time>2017-01-05T08:47:02Z</time>
      </trkpt>
      <trkpt lat="45.08217" lon="6.73224">
        <ele>1924.65</ele>
        <time>2017-01-05T08:47:04Z</time>
      </trkpt>
      <trkpt lat="45.08226" lon="6.73233">
        <ele>1929</ele>
        <time>2017-01-05T08:47:06Z</time>
      </trkpt>
      <trkpt lat="45.08232" lon="6.73246">
        <ele>1935.4</ele>
        <time>2017-01-05T08:47:10Z</time>
      </trkpt>
      <trkpt lat="45.08245" lon="6.73247">
        <ele>1937.07</ele>
        <time>2017-01-05T08:47:12Z</time>
      </trkpt>
      <trkpt lat="45.08259" lon="6.73255">
        <ele>1938.59</ele>
        <time>2017-01-05T08:47:17Z</time>
      </trkpt>
      <trkpt lat="45.08271" lon="6.7326">
        <ele>1937.92</ele>
        <time>2017-01-05T08:47:19Z</time>
      </trkpt>
      <trkpt lat="45.08282" lon="6.73267">
        <ele>1937.17</ele>
        <time>2017-01-05T08:47:21Z</time>
      </trkpt>
      <trkpt lat="45.08295" lon="6.73274">
        <ele>1935.73</ele>
        <time>2017-01-05T08:47:23Z</time>
      </trkpt>
      <trkpt lat="45.0831" lon="6.73279">
        <ele>1934.02</ele>
        <time>2017-01-05T08:47:25Z</time>
      </trkpt>
      <trkpt lat="45.08325" lon="6.73286">
        <ele>1934.71</ele>
        <time>2017-01-05T08:47:27Z</time>
      </trkpt>
      <trkpt lat="45.08341" lon="6.73289">
        <ele>1935.64</ele>
        <time>2017-01-05T08:47:29Z</time>
      </trkpt>
      <trkpt lat="45.08355" lon="6.73295">
        <ele>1938.07</ele>
        <time>2017-01-05T08:47:31Z</time>
      </trkpt>
      <trkpt lat="45.08366" lon="6.73299">
        <ele>1939.09</ele>
        <time>2017-01-05T08:47:33Z</time>
      </trkpt>
      <trkpt lat="45.08384" lon="6.73304">
        <ele>1938.89</ele>
        <time>2017-01-05T08:47:35Z</time>
      </trkpt>
      <trkpt lat="45.08394" lon="6.73308">
        <ele>1938.92</ele>
        <time>2017-01-05T08:47:36Z</time>
      </trkpt>
      <trkpt lat="45.08408" lon="6.73325">
        <ele>1942.66</ele>
        <time>2017-01-05T08:47:38Z</time>
      </trkpt>
      <trkpt lat="45.08427" lon="6.7335">
        <ele>1946.99</ele>
        <time>2017-01-05T08:47:40Z</time>
      </trkpt>
      <trkpt lat="45.08438" lon="6.73357">
        <ele>1946.79</ele>
        <time>2017-01-05T08:47:42Z</time>
      </trkpt>
      <trkpt lat="45.08451" lon="6.73376">
        <ele>1948.04</ele>
        <time>2017-01-05T08:47:46Z</time>
      </trkpt>
      <trkpt lat="45.08455" lon="6.73389">
        <ele>1949.58</ele>
        <time>2017-01-05T08:47:50Z</time>
      </trkpt>
      <trkpt lat="45.08462" lon="6.734">
        <ele>1949.29</ele>
        <time>2017-01-05T08:49:08Z</time>
      </trkpt>
      <trkpt lat="45.08471" lon="6.73408">
        <ele>1948.62</ele>
        <time>2017-01-05T08:49:11Z</time>
      </trkpt>
      <trkpt lat="45.08478" lon="6.73418">
        <ele>1946.9</ele>
        <time>2017-01-05T08:49:13Z</time>
      </trkpt>
      <trkpt lat="45.08495" lon="6.73432">
        <ele>1940.13</ele>
        <time>2017-01-05T08:49:17Z</time>
      </trkpt>
      <trkpt lat="45.08504" lon="6.73443">
        <ele>1937.52</ele>
        <time>2017-01-05T08:49:19Z</time>
      </trkpt>
      <trkpt lat="45.08515" lon="6.73455">
        <ele>1935.85</ele>
        <time>2017-01-05T08:49:20Z</time>
      </trkpt>
      <trkpt lat="45.08534" lon="6.73468">
        <ele>1933.75</ele>
        <time>2017-01-05T08:49:25Z</time>
      </trkpt>
      <trkpt lat="45.08545" lon="6.7347">
        <ele>1933.34</ele>
        <time>2017-01-05T08:49:28Z</time>
      </trkpt>
      <trkpt lat="45.08559" lon="6.73467">
        <ele>1931.88</ele>
        <time>2017-01-05T08:49:31Z</time>
      </trkpt>
      <trkpt lat="45.08572" lon="6.7347">
        <ele>1931.92</ele>
        <time>2017-01-05T08:49:34Z</time>
      </trkpt>
      <trkpt lat="45.08586" lon="6.73487">
        <ele>1934.61</ele>
        <time>2017-01-05T08:49:39Z</time>
      </trkpt>
      <trkpt lat="45.08596" lon="6.73496">
        <ele>1936.52</ele>
        <time>2017-01-05T08:49:41Z</time>
      </trkpt>
      <trkpt lat="45.08608" lon="6.735">
        <ele>1938</ele>
        <time>2017-01-05T08:49:45Z</time>
      </trkpt>
      <trkpt lat="45.08618" lon="6.73505">
        <ele>1939.18</ele>
        <time>2017-01-05T08:49:47Z</time>
      </trkpt>
      <trkpt lat="45.08627" lon="6.73516">
        <ele>1941.93</ele>
        <time>2017-01-05T08:49:50Z</time>
      </trkpt>
      <trkpt lat="45.08642" lon="6.73517">
        <ele>1941.99</ele>
        <time>2017-01-05T08:49:52Z</time>
      </trkpt>
      <trkpt lat="45.08642" lon="6.73532">
        <ele>1945.69</ele>
        <time>2017-01-05T08:49:54Z</time>
      </trkpt>
      <trkpt lat="45.08656" lon="6.73554">
        <ele>1948.6</ele>
        <time>2017-01-05T08:49:56Z</time>
      </trkpt>
      <trkpt lat="45.08665" lon="6.73569">
        <ele>1950.36</ele>
        <time>2017-01-05T08:49:58Z</time>
      </trkpt>
      <trkpt lat="45.08677" lon="6.7359">
        <ele>1951.34</ele>
        <time>2017-01-05T08:50:02Z</time>
      </trkpt>
      <trkpt lat="45.08691" lon="6.73601">
        <ele>1950.73</ele>
        <time>2017-01-05T08:50:05Z</time>
      </trkpt>
      <trkpt lat="45.08696" lon="6.73618">
        <ele>1954.93</ele>
        <time>2017-01-05T08:50:08Z</time>
      </trkpt>
      <trkpt lat="45.08704" lon="6.7363">
        <ele>1956.41</ele>
        <time>2017-01-05T08:50:10Z</time>
      </trkpt>
      <trkpt lat="45.08714" lon="6.73657">
        <ele>1959.94</ele>
        <time>2017-01-05T08:50:15Z</time>
      </trkpt>
      <trkpt lat="45.08718" lon="6.73674">
        <ele>1962.26</ele>
        <time>2017-01-05T08:50:18Z</time>
      </trkpt>
      <trkpt lat="45.08724" lon="6.73692">
        <ele>1963.54</ele>
        <time>2017-01-05T08:50:21Z</time>
      </trkpt>
      <trkpt lat="45.08732" lon="6.73702">
        <ele>1965.05</ele>
        <time>2017-01-05T08:50:24Z</time>
      </trkpt>
      <trkpt lat="45.08744" lon="6.73704">
        <ele>1964.81</ele>
        <time>2017-01-05T08:50:28Z</time>
      </trkpt>
      <trkpt lat="45.08755" lon="6.73702">
        <ele>1964.31</ele>
        <time>2017-01-05T08:51:35Z</time>
      </trkpt>
      <trkpt lat="45.08744" lon="6.73702">
        <ele>1964.48</ele>
        <time>2017-01-05T09:06:42Z</time>
      </trkpt>
      <trkpt lat="45.08736" lon="6.73721">
        <ele>1968.25</ele>
        <time>2017-01-05T09:06:53Z</time>
      </trkpt>
      <trkpt lat="45.08742" lon="6.73734">
        <ele>1969.56</ele>
        <time>2017-01-05T09:06:57Z</time>
      </trkpt>
      <trkpt lat="45.08746" lon="6.73749">
        <ele>1971.22</ele>
        <time>2017-01-05T09:07:00Z</time>
      </trkpt>
      <trkpt lat="45.0875" lon="6.73763">
        <ele>1973.29</ele>
        <time>2017-01-05T09:07:03Z</time>
      </trkpt>
      <trkpt lat="45.08763" lon="6.73787">
        <ele>1979.3</ele>
        <time>2017-01-05T09:07:08Z</time>
      </trkpt>
      <trkpt lat="45.08772" lon="6.73799">
        <ele>1982.35</ele>
        <time>2017-01-05T09:07:11Z</time>
      </trkpt>
      <trkpt lat="45.0878" lon="6.73808">
        <ele>1984.42</ele>
        <time>2017-01-05T09:07:14Z</time>
      </trkpt>
      <trkpt lat="45.0879" lon="6.73821">
        <ele>1986.52</ele>
        <time>2017-01-05T09:07:17Z</time>
      </trkpt>
      <trkpt lat="45.08799" lon="6.73845">
        <ele>1990.58</ele>
        <time>2017-01-05T09:07:22Z</time>
      </trkpt>
      <trkpt lat="45.08808" lon="6.73861">
        <ele>1992.7</ele>
        <time>2017-01-05T09:07:25Z</time>
      </trkpt>
      <trkpt lat="45.08817" lon="6.73874">
        <ele>1994.08</ele>
        <time>2017-01-05T09:07:29Z</time>
      </trkpt>
      <trkpt lat="45.08825" lon="6.73883">
        <ele>1994.79</ele>
        <time>2017-01-05T09:07:31Z</time>
      </trkpt>
      <trkpt lat="45.0884" lon="6.73903">
        <ele>1997.78</ele>
        <time>2017-01-05T09:07:36Z</time>
      </trkpt>
      <trkpt lat="45.08847" lon="6.73916">
        <ele>2000.33</ele>
        <time>2017-01-05T09:07:38Z</time>
      </trkpt>
      <trkpt lat="45.08854" lon="6.73927">
        <ele>2001.69</ele>
        <time>2017-01-05T09:07:40Z</time>
      </trkpt>
      <trkpt lat="45.08861" lon="6.7394">
        <ele>2003.34</ele>
        <time>2017-01-05T09:07:42Z</time>
      </trkpt>
      <trkpt lat="45.08864" lon="6.73957">
        <ele>2005.08</ele>
        <time>2017-01-05T09:07:44Z</time>
      </trkpt>
      <trkpt lat="45.08865" lon="6.73976">
        <ele>2006.89</ele>
        <time>2017-01-05T09:07:46Z</time>
      </trkpt>
      <trkpt lat="45.08866" lon="6.7399">
        <ele>2008.19</ele>
        <time>2017-01-05T09:07:48Z</time>
      </trkpt>
      <trkpt lat="45.08868" lon="6.74004">
        <ele>2009.41</ele>
        <time>2017-01-05T09:07:50Z</time>
      </trkpt>
      <trkpt lat="45.08867" lon="6.7402">
        <ele>2011.83</ele>
        <time>2017-01-05T09:07:52Z</time>
      </trkpt>
      <trkpt lat="45.0887" lon="6.74039">
        <ele>2014.78</ele>
        <time>2017-01-05T09:07:55Z</time>
      </trkpt>
      <trkpt lat="45.08878" lon="6.7405">
        <ele>2015.32</ele>
        <time>2017-01-05T09:08:00Z</time>
      </trkpt>
      <trkpt lat="45.08886" lon="6.74076">
        <ele>2019.36</ele>
        <time>2017-01-05T09:08:07Z</time>
      </trkpt>
      <trkpt lat="45.08893" lon="6.74089">
        <ele>2020.48</ele>
        <time>2017-01-05T09:08:10Z</time>
      </trkpt>
      <trkpt lat="45.08903" lon="6.74097">
        <ele>2019.69</ele>
        <time>2017-01-05T09:08:13Z</time>
      </trkpt>
      <trkpt lat="45.08907" lon="6.74123">
        <ele>2024.31</ele>
        <time>2017-01-05T09:08:19Z</time>
      </trkpt>
      <trkpt lat="45.08906" lon="6.74141">
        <ele>2027.48</ele>
        <time>2017-01-05T09:08:22Z</time>
      </trkpt>
      <trkpt lat="45.08904" lon="6.74156">
        <ele>2028.65</ele>
        <time>2017-01-05T09:08:24Z</time>
      </trkpt>
      <trkpt lat="45.08901" lon="6.74171">
        <ele>2030.35</ele>
        <time>2017-01-05T09:08:26Z</time>
      </trkpt>
      <trkpt lat="45.08895" lon="6.74185">
        <ele>2033.43</ele>
        <time>2017-01-05T09:08:28Z</time>
      </trkpt>
      <trkpt lat="45.08892" lon="6.74199">
        <ele>2035.13</ele>
        <time>2017-01-05T09:08:30Z</time>
      </trkpt>
      <trkpt lat="45.08894" lon="6.74216">
        <ele>2033.66</ele>
        <time>2017-01-05T09:08:32Z</time>
      </trkpt>
      <trkpt lat="45.08891" lon="6.74231">
        <ele>2035.44</ele>
        <time>2017-01-05T09:08:34Z</time>
      </trkpt>
      <trkpt lat="45.08892" lon="6.74251">
        <ele>2035.52</ele>
        <time>2017-01-05T09:08:37Z</time>
      </trkpt>
      <trkpt lat="45.08891" lon="6.74268">
        <ele>2036.89</ele>
        <time>2017-01-05T09:08:40Z</time>
      </trkpt>
      <trkpt lat="45.08887" lon="6.74285">
        <ele>2039.69</ele>
        <time>2017-01-05T09:08:43Z</time>
      </trkpt>
      <trkpt lat="45.08884" lon="6.74304">
        <ele>2042.94</ele>
        <time>2017-01-05T09:08:47Z</time>
      </trkpt>
      <trkpt lat="45.08891" lon="6.74331">
        <ele>2043.1</ele>
        <time>2017-01-05T09:08:57Z</time>
      </trkpt>
      <trkpt lat="45.08899" lon="6.74343">
        <ele>2043.84</ele>
        <time>2017-01-05T09:09:01Z</time>
      </trkpt>
      <trkpt lat="45.08905" lon="6.74356">
        <ele>2045.15</ele>
        <time>2017-01-05T09:09:05Z</time>
      </trkpt>
      <trkpt lat="45.08919" lon="6.74378">
        <ele>2050.19</ele>
        <time>2017-01-05T09:09:12Z</time>
      </trkpt>
      <trkpt lat="45.08928" lon="6.74382">
        <ele>2051.57</ele>
        <time>2017-01-05T09:09:15Z</time>
      </trkpt>
      <trkpt lat="45.08938" lon="6.74386">
        <ele>2052.48</ele>
        <time>2017-01-05T09:09:20Z</time>
      </trkpt>
      <trkpt lat="45.08954" lon="6.74399">
        <ele>2055.77</ele>
        <time>2017-01-05T09:09:28Z</time>
      </trkpt>
      <trkpt lat="45.08959" lon="6.74413">
        <ele>2059.8</ele>
        <time>2017-01-05T09:09:33Z</time>
      </trkpt>
      <trkpt lat="45.08962" lon="6.74426">
        <ele>2063.88</ele>
        <time>2017-01-05T09:09:37Z</time>
      </trkpt>
      <trkpt lat="45.08963" lon="6.74455">
        <ele>2071.72</ele>
        <time>2017-01-05T09:09:49Z</time>
      </trkpt>
      <trkpt lat="45.08975" lon="6.74476">
        <ele>2075.2</ele>
        <time>2017-01-05T09:09:58Z</time>
      </trkpt>
      <trkpt lat="45.08981" lon="6.74487">
        <ele>2076.78</ele>
        <time>2017-01-05T09:10:03Z</time>
      </trkpt>
      <trkpt lat="45.08986" lon="6.745">
        <ele>2079.55</ele>
        <time>2017-01-05T09:10:06Z</time>
      </trkpt>
      <trkpt lat="45.08983" lon="6.74515">
        <ele>2082.73</ele>
        <time>2017-01-05T09:10:10Z</time>
      </trkpt>
      <trkpt lat="45.08975" lon="6.74523">
        <ele>2085.56</ele>
        <time>2017-01-05T09:10:13Z</time>
      </trkpt>
      <trkpt lat="45.08964" lon="6.74529">
        <ele>2087.55</ele>
        <time>2017-01-05T09:10:16Z</time>
      </trkpt>
      <trkpt lat="45.08955" lon="6.74541">
        <ele>2091.69</ele>
        <time>2017-01-05T09:10:20Z</time>
      </trkpt>
      <trkpt lat="45.08953" lon="6.74565">
        <ele>2099.33</ele>
        <time>2017-01-05T09:10:29Z</time>
      </trkpt>
      <trkpt lat="45.08963" lon="6.7457">
        <ele>2098.94</ele>
        <time>2017-01-05T09:10:32Z</time>
      </trkpt>
      <trkpt lat="45.08974" lon="6.74578">
        <ele>2099.41</ele>
        <time>2017-01-05T09:10:36Z</time>
      </trkpt>
      <trkpt lat="45.08983" lon="6.74585">
        <ele>2100.94</ele>
        <time>2017-01-05T09:10:40Z</time>
      </trkpt>
      <trkpt lat="45.08997" lon="6.74604">
        <ele>2107.27</ele>
        <time>2017-01-05T09:10:48Z</time>
      </trkpt>
      <trkpt lat="45.09006" lon="6.74611">
        <ele>2110.06</ele>
        <time>2017-01-05T09:10:53Z</time>
      </trkpt>
      <trkpt lat="45.09027" lon="6.74614">
        <ele>2111.84</ele>
        <time>2017-01-05T09:11:03Z</time>
      </trkpt>
      <trkpt lat="45.09025" lon="6.74635">
        <ele>2119.23</ele>
        <time>2017-01-05T09:11:15Z</time>
      </trkpt>
      <trkpt lat="45.09015" lon="6.7464">
        <ele>2119.82</ele>
        <time>2017-01-05T09:11:21Z</time>
      </trkpt>
      <trkpt lat="45.08999" lon="6.74653">
        <ele>2122.08</ele>
        <time>2017-01-05T09:11:31Z</time>
      </trkpt>
      <trkpt lat="45.08994" lon="6.74665">
        <ele>2126.26</ele>
        <time>2017-01-05T09:11:34Z</time>
      </trkpt>
      <trkpt lat="45.08999" lon="6.74677">
        <ele>2128.8</ele>
        <time>2017-01-05T09:11:38Z</time>
      </trkpt>
      <trkpt lat="45.09009" lon="6.74685">
        <ele>2131.5</ele>
        <time>2017-01-05T09:11:41Z</time>
      </trkpt>
      <trkpt lat="45.09021" lon="6.74692">
        <ele>2134.49</ele>
        <time>2017-01-05T09:11:44Z</time>
      </trkpt>
      <trkpt lat="45.09033" lon="6.74697">
        <ele>2137.29</ele>
        <time>2017-01-05T09:11:47Z</time>
      </trkpt>
      <trkpt lat="45.09043" lon="6.74699">
        <ele>2138.87</ele>
        <time>2017-01-05T09:11:50Z</time>
      </trkpt>
      <trkpt lat="45.0906" lon="6.74714">
        <ele>2144.57</ele>
        <time>2017-01-05T09:11:56Z</time>
      </trkpt>
      <trkpt lat="45.09075" lon="6.74728">
        <ele>2148.48</ele>
        <time>2017-01-05T09:12:03Z</time>
      </trkpt>
      <trkpt lat="45.09085" lon="6.74732">
        <ele>2149.57</ele>
        <time>2017-01-05T09:12:07Z</time>
      </trkpt>
      <trkpt lat="45.09093" lon="6.74741">
        <ele>2151.68</ele>
        <time>2017-01-05T09:12:11Z</time>
      </trkpt>
      <trkpt lat="45.09102" lon="6.74749">
        <ele>2153.67</ele>
        <time>2017-01-05T09:12:15Z</time>
      </trkpt>
      <trkpt lat="45.09118" lon="6.74765">
        <ele>2159.55</ele>
        <time>2017-01-05T09:12:24Z</time>
      </trkpt>
      <trkpt lat="45.09128" lon="6.74769">
        <ele>2161.95</ele>
        <time>2017-01-05T09:12:32Z</time>
      </trkpt>
      <trkpt lat="45.09139" lon="6.74771">
        <ele>2163.66</ele>
        <time>2017-01-05T09:12:37Z</time>
      </trkpt>
      <trkpt lat="45.0915" lon="6.74777">
        <ele>2166.57</ele>
        <time>2017-01-05T09:12:41Z</time>
      </trkpt>
      <trkpt lat="45.09156" lon="6.74789">
        <ele>2170.33</ele>
        <time>2017-01-05T09:12:44Z</time>
      </trkpt>
      <trkpt lat="45.09159" lon="6.74806">
        <ele>2175.1</ele>
        <time>2017-01-05T09:12:49Z</time>
      </trkpt>
      <trkpt lat="45.09146" lon="6.74826">
        <ele>2179.44</ele>
        <time>2017-01-05T09:12:58Z</time>
      </trkpt>
      <trkpt lat="45.09138" lon="6.74836">
        <ele>2181.43</ele>
        <time>2017-01-05T09:13:04Z</time>
      </trkpt>
      <trkpt lat="45.09136" lon="6.74861">
        <ele>2186.05</ele>
        <time>2017-01-05T09:13:15Z</time>
      </trkpt>
      <trkpt lat="45.09141" lon="6.74874">
        <ele>2188.41</ele>
        <time>2017-01-05T09:13:21Z</time>
      </trkpt>
      <trkpt lat="45.09147" lon="6.74887">
        <ele>2191.36</ele>
        <time>2017-01-05T09:13:26Z</time>
      </trkpt>
      <trkpt lat="45.09153" lon="6.74898">
        <ele>2194.56</ele>
        <time>2017-01-05T09:13:31Z</time>
      </trkpt>
      <trkpt lat="45.09158" lon="6.74912">
        <ele>2197.72</ele>
        <time>2017-01-05T09:14:56Z</time>
      </trkpt>
      <trkpt lat="45.0916" lon="6.74926">
        <ele>2200.68</ele>
        <time>2017-01-05T09:15:04Z</time>
      </trkpt>
      <trkpt lat="45.09161" lon="6.7494">
        <ele>2203.74</ele>
        <time>2017-01-05T09:15:09Z</time>
      </trkpt>
      <trkpt lat="45.09166" lon="6.74966">
        <ele>2208.74</ele>
        <time>2017-01-05T09:15:15Z</time>
      </trkpt>
      <trkpt lat="45.09171" lon="6.74981">
        <ele>2211.59</ele>
        <time>2017-01-05T09:15:19Z</time>
      </trkpt>
      <trkpt lat="45.09176" lon="6.74994">
        <ele>2214.14</ele>
        <time>2017-01-05T09:15:23Z</time>
      </trkpt>
      <trkpt lat="45.09181" lon="6.7501">
        <ele>2218.15</ele>
        <time>2017-01-05T09:19:56Z</time>
      </trkpt>
      <trkpt lat="45.09184" lon="6.75038">
        <ele>2226.54</ele>
        <time>2017-01-05T09:20:05Z</time>
      </trkpt>
      <trkpt lat="45.0918" lon="6.75051">
        <ele>2230.3</ele>
        <time>2017-01-05T09:20:08Z</time>
      </trkpt>
      <trkpt lat="45.09172" lon="6.75061">
        <ele>2231.99</ele>
        <time>2017-01-05T09:20:12Z</time>
      </trkpt>
      <trkpt lat="45.09155" lon="6.75076">
        <ele>2233.78</ele>
        <time>2017-01-05T09:20:23Z</time>
      </trkpt>
      <trkpt lat="45.09147" lon="6.75085">
        <ele>2235.23</ele>
        <time>2017-01-05T09:20:28Z</time>
      </trkpt>
      <trkpt lat="45.09131" lon="6.75102">
        <ele>2239.58</ele>
        <time>2017-01-05T09:20:38Z</time>
      </trkpt>
      <trkpt lat="45.09123" lon="6.75112">
        <ele>2242.46</ele>
        <time>2017-01-05T09:20:41Z</time>
      </trkpt>
      <trkpt lat="45.09116" lon="6.75123">
        <ele>2246.22</ele>
        <time>2017-01-05T09:20:44Z</time>
      </trkpt>
      <trkpt lat="45.09109" lon="6.75136">
        <ele>2250.65</ele>
        <time>2017-01-05T09:20:47Z</time>
      </trkpt>
      <trkpt lat="45.09103" lon="6.75149">
        <ele>2254.96</ele>
        <time>2017-01-05T09:20:50Z</time>
      </trkpt>
      <trkpt lat="45.09087" lon="6.75164">
        <ele>2257.88</ele>
        <time>2017-01-05T09:20:54Z</time>
      </trkpt>
      <trkpt lat="45.09078" lon="6.75176">
        <ele>2261.24</ele>
        <time>2017-01-05T09:21:03Z</time>
      </trkpt>
      <trkpt lat="45.09059" lon="6.75177">
        <ele>2262.75</ele>
        <time>2017-01-05T09:21:23Z</time>
      </trkpt>
      <trkpt lat="45.09049" lon="6.75175">
        <ele>2263.73</ele>
        <time>2017-01-05T09:21:30Z</time>
      </trkpt>
      <trkpt lat="45.09037" lon="6.75169">
        <ele>2264.76</ele>
        <time>2017-01-05T09:21:33Z</time>
      </trkpt>
      <trkpt lat="45.09027" lon="6.75166">
        <ele>2266.16</ele>
        <time>2017-01-05T09:21:35Z</time>
      </trkpt>
      <trkpt lat="45.09014" lon="6.75161">
        <ele>2268.03</ele>
        <time>2017-01-05T09:21:38Z</time>
      </trkpt>
      <trkpt lat="45.09005" lon="6.75158">
        <ele>2269.37</ele>
        <time>2017-01-05T09:21:41Z</time>
      </trkpt>
      <trkpt lat="45.08994" lon="6.75159">
        <ele>2270.57</ele>
        <time>2017-01-05T09:21:44Z</time>
      </trkpt>
      <trkpt lat="45.08983" lon="6.75159">
        <ele>2270.76</ele>
        <time>2017-01-05T09:21:47Z</time>
      </trkpt>
      <trkpt lat="45.08966" lon="6.7517">
        <ele>2273.53</ele>
        <time>2017-01-05T09:21:53Z</time>
      </trkpt>
      <trkpt lat="45.08954" lon="6.75191">
        <ele>2279.03</ele>
        <time>2017-01-05T09:22:00Z</time>
      </trkpt>
      <trkpt lat="45.08959" lon="6.75205">
        <ele>2282.73</ele>
        <time>2017-01-05T09:22:04Z</time>
      </trkpt>
      <trkpt lat="45.08978" lon="6.75215">
        <ele>2285.18</ele>
        <time>2017-01-05T09:22:11Z</time>
      </trkpt>
      <trkpt lat="45.08984" lon="6.75227">
        <ele>2288.04</ele>
        <time>2017-01-05T09:22:15Z</time>
      </trkpt>
      <trkpt lat="45.08988" lon="6.75241">
        <ele>2291.11</ele>
        <time>2017-01-05T09:22:19Z</time>
      </trkpt>
      <trkpt lat="45.08992" lon="6.75255">
        <ele>2294.02</ele>
        <time>2017-01-05T09:22:22Z</time>
      </trkpt>
      <trkpt lat="45.08999" lon="6.75269">
        <ele>2296.92</ele>
        <time>2017-01-05T09:22:25Z</time>
      </trkpt>
      <trkpt lat="45.09006" lon="6.75283">
        <ele>2299.45</ele>
        <time>2017-01-05T09:22:28Z</time>
      </trkpt>
      <trkpt lat="45.09015" lon="6.75295">
        <ele>2301.5</ele>
        <time>2017-01-05T09:22:31Z</time>
      </trkpt>
      <trkpt lat="45.09024" lon="6.75307">
        <ele>2304.44</ele>
        <time>2017-01-05T09:22:34Z</time>
      </trkpt>
      <trkpt lat="45.0903" lon="6.75323">
        <ele>2309.63</ele>
        <time>2017-01-05T09:22:38Z</time>
      </trkpt>
      <trkpt lat="45.09024" lon="6.75335">
        <ele>2313.36</ele>
        <time>2017-01-05T09:22:41Z</time>
      </trkpt>
      <trkpt lat="45.09013" lon="6.75339">
        <ele>2314.53</ele>
        <time>2017-01-05T09:22:44Z</time>
      </trkpt>
      <trkpt lat="45.09004" lon="6.75343">
        <ele>2315.98</ele>
        <time>2017-01-05T09:22:47Z</time>
      </trkpt>
      <trkpt lat="45.08986" lon="6.75352">
        <ele>2316.88</ele>
        <time>2017-01-05T09:22:52Z</time>
      </trkpt>
      <trkpt lat="45.08975" lon="6.75356">
        <ele>2316.23</ele>
        <time>2017-01-05T09:22:55Z</time>
      </trkpt>
      <trkpt lat="45.08964" lon="6.75365">
        <ele>2318.28</ele>
        <time>2017-01-05T09:22:58Z</time>
      </trkpt>
      <trkpt lat="45.08943" lon="6.75376">
        <ele>2321.25</ele>
        <time>2017-01-05T09:23:04Z</time>
      </trkpt>
      <trkpt lat="45.0893" lon="6.75381">
        <ele>2322.11</ele>
        <time>2017-01-05T09:23:07Z</time>
      </trkpt>
      <trkpt lat="45.08917" lon="6.75384">
        <ele>2322.5</ele>
        <time>2017-01-05T09:23:10Z</time>
      </trkpt>
      <trkpt lat="45.08907" lon="6.75391">
        <ele>2324.96</ele>
        <time>2017-01-05T09:23:13Z</time>
      </trkpt>
      <trkpt lat="45.08896" lon="6.75394">
        <ele>2326.77</ele>
        <time>2017-01-05T09:23:16Z</time>
      </trkpt>
      <trkpt lat="45.08886" lon="6.7539">
        <ele>2325.86</ele>
        <time>2017-01-05T09:23:19Z</time>
      </trkpt>
      <trkpt lat="45.08874" lon="6.75384">
        <ele>2326.96</ele>
        <time>2017-01-05T09:23:22Z</time>
      </trkpt>
      <trkpt lat="45.08863" lon="6.75385">
        <ele>2329.41</ele>
        <time>2017-01-05T09:23:25Z</time>
      </trkpt>
      <trkpt lat="45.08849" lon="6.7538">
        <ele>2329.84</ele>
        <time>2017-01-05T09:23:27Z</time>
      </trkpt>
      <trkpt lat="45.08828" lon="6.7539">
        <ele>2335.18</ele>
        <time>2017-01-05T09:23:32Z</time>
      </trkpt>
      <trkpt lat="45.08818" lon="6.75399">
        <ele>2337.91</ele>
        <time>2017-01-05T09:23:35Z</time>
      </trkpt>
      <trkpt lat="45.08809" lon="6.75407">
        <ele>2340.27</ele>
        <time>2017-01-05T09:23:38Z</time>
      </trkpt>
      <trkpt lat="45.08797" lon="6.75413">
        <ele>2341.49</ele>
        <time>2017-01-05T09:23:41Z</time>
      </trkpt>
      <trkpt lat="45.08785" lon="6.7542">
        <ele>2342.28</ele>
        <time>2017-01-05T09:23:44Z</time>
      </trkpt>
      <trkpt lat="45.08772" lon="6.75427">
        <ele>2343.7</ele>
        <time>2017-01-05T09:23:47Z</time>
      </trkpt>
      <trkpt lat="45.08762" lon="6.75431">
        <ele>2344.83</ele>
        <time>2017-01-05T09:23:50Z</time>
      </trkpt>
      <trkpt lat="45.08748" lon="6.75444">
        <ele>2349.42</ele>
        <time>2017-01-05T09:24:00Z</time>
      </trkpt>
      <trkpt lat="45.08758" lon="6.75447">
        <ele>2349.45</ele>
        <time>2017-01-05T09:24:04Z</time>
      </trkpt>
      <trkpt lat="45.08768" lon="6.75447">
        <ele>2349.13</ele>
        <time>2017-01-05T09:24:07Z</time>
      </trkpt>
      <trkpt lat="45.08788" lon="6.75447">
        <ele>2349.73</ele>
        <time>2017-01-05T09:24:13Z</time>
      </trkpt>
      <trkpt lat="45.08799" lon="6.75451">
        <ele>2351.66</ele>
        <time>2017-01-05T09:24:18Z</time>
      </trkpt>
      <trkpt lat="45.08809" lon="6.75453">
        <ele>2352.73</ele>
        <time>2017-01-05T09:24:22Z</time>
      </trkpt>
      <trkpt lat="45.08817" lon="6.75462">
        <ele>2354.85</ele>
        <time>2017-01-05T09:24:27Z</time>
      </trkpt>
      <trkpt lat="45.08822" lon="6.75476">
        <ele>2358.42</ele>
        <time>2017-01-05T09:24:32Z</time>
      </trkpt>
      <trkpt lat="45.08825" lon="6.7549">
        <ele>2363.06</ele>
        <time>2017-01-05T09:24:37Z</time>
      </trkpt>
      <trkpt lat="45.08839" lon="6.75504">
        <ele>2365.11</ele>
        <time>2017-01-05T09:24:55Z</time>
      </trkpt>
      <trkpt lat="45.08855" lon="6.75519">
        <ele>2364.74</ele>
        <time>2017-01-05T09:25:01Z</time>
      </trkpt>
      <trkpt lat="45.08859" lon="6.75534">
        <ele>2367.98</ele>
        <time>2017-01-05T09:25:04Z</time>
      </trkpt>
      <trkpt lat="45.08863" lon="6.7555">
        <ele>2372.6</ele>
        <time>2017-01-05T09:25:08Z</time>
      </trkpt>
      <trkpt lat="45.08865" lon="6.75576">
        <ele>2379.5</ele>
        <time>2017-01-05T09:25:16Z</time>
      </trkpt>
      <trkpt lat="45.08865" lon="6.75591">
        <ele>2383.26</ele>
        <time>2017-01-05T09:25:20Z</time>
      </trkpt>
      <trkpt lat="45.08868" lon="6.75606">
        <ele>2387.28</ele>
        <time>2017-01-05T09:25:24Z</time>
      </trkpt>
      <trkpt lat="45.08875" lon="6.75616">
        <ele>2390.55</ele>
        <time>2017-01-05T09:25:28Z</time>
      </trkpt>
      <trkpt lat="45.08885" lon="6.75617">
        <ele>2392.08</ele>
        <time>2017-01-05T09:25:32Z</time>
      </trkpt>
      <trkpt lat="45.08904" lon="6.75623">
        <ele>2395.9</ele>
        <time>2017-01-05T09:25:46Z</time>
      </trkpt>
      <trkpt lat="45.08916" lon="6.75623">
        <ele>2397.4</ele>
        <time>2017-01-05T09:25:49Z</time>
      </trkpt>
      <trkpt lat="45.08926" lon="6.75629">
        <ele>2399.1</ele>
        <time>2017-01-05T09:25:52Z</time>
      </trkpt>
      <trkpt lat="45.08944" lon="6.75637">
        <ele>2401.59</ele>
        <time>2017-01-05T09:25:58Z</time>
      </trkpt>
      <trkpt lat="45.08963" lon="6.75629">
        <ele>2398.1</ele>
        <time>2017-01-05T09:26:05Z</time>
      </trkpt>
      <trkpt lat="45.08974" lon="6.75633">
        <ele>2398.02</ele>
        <time>2017-01-05T09:26:09Z</time>
      </trkpt>
      <trkpt lat="45.08988" lon="6.75651">
        <ele>2402.89</ele>
        <time>2017-01-05T09:26:18Z</time>
      </trkpt>
      <trkpt lat="45.08973" lon="6.75669">
        <ele>2407.66</ele>
        <time>2017-01-05T09:26:26Z</time>
      </trkpt>
      <trkpt lat="45.08971" lon="6.75696">
        <ele>2414.65</ele>
        <time>2017-01-05T09:26:37Z</time>
      </trkpt>
      <trkpt lat="45.08974" lon="6.75722">
        <ele>2421.87</ele>
        <time>2017-01-05T09:26:45Z</time>
      </trkpt>
      <trkpt lat="45.08969" lon="6.75736">
        <ele>2426.34</ele>
        <time>2017-01-05T09:26:51Z</time>
      </trkpt>
      <trkpt lat="45.08964" lon="6.75762">
        <ele>2432.26</ele>
        <time>2017-01-05T09:26:58Z</time>
      </trkpt>
      <trkpt lat="45.08962" lon="6.75779">
        <ele>2434.46</ele>
        <time>2017-01-05T09:27:01Z</time>
      </trkpt>
      <trkpt lat="45.08961" lon="6.75797">
        <ele>2435.79</ele>
        <time>2017-01-05T09:27:04Z</time>
      </trkpt>
      <trkpt lat="45.08956" lon="6.75813">
        <ele>2437.44</ele>
        <time>2017-01-05T09:27:07Z</time>
      </trkpt>
      <trkpt lat="45.08952" lon="6.75828">
        <ele>2439.32</ele>
        <time>2017-01-05T09:27:10Z</time>
      </trkpt>
      <trkpt lat="45.08949" lon="6.75844">
        <ele>2442.09</ele>
        <time>2017-01-05T09:27:13Z</time>
      </trkpt>
      <trkpt lat="45.0895" lon="6.75872">
        <ele>2448.4</ele>
        <time>2017-01-05T09:27:20Z</time>
      </trkpt>
      <trkpt lat="45.08952" lon="6.75898">
        <ele>2454.32</ele>
        <time>2017-01-05T09:27:29Z</time>
      </trkpt>
      <trkpt lat="45.08946" lon="6.75925">
        <ele>2460.15</ele>
        <time>2017-01-05T09:27:35Z</time>
      </trkpt>
      <trkpt lat="45.08943" lon="6.75941">
        <ele>2462.45</ele>
        <time>2017-01-05T09:27:39Z</time>
      </trkpt>
      <trkpt lat="45.0894" lon="6.75955">
        <ele>2465.45</ele>
        <time>2017-01-05T09:27:42Z</time>
      </trkpt>
      <trkpt lat="45.08926" lon="6.7597">
        <ele>2471.79</ele>
        <time>2017-01-05T09:27:49Z</time>
      </trkpt>
      <trkpt lat="45.08917" lon="6.75957">
        <ele>2474.17</ele>
        <time>2017-01-05T09:27:52Z</time>
      </trkpt>
      <trkpt lat="45.08903" lon="6.75937">
        <ele>2477.23</ele>
        <time>2017-01-05T09:27:56Z</time>
      </trkpt>
      <trkpt lat="45.08891" lon="6.75917">
        <ele>2475.78</ele>
        <time>2017-01-05T09:28:00Z</time>
      </trkpt>
      <trkpt lat="45.08877" lon="6.75903">
        <ele>2469.48</ele>
        <time>2017-01-05T09:28:03Z</time>
      </trkpt>
      <trkpt lat="45.08867" lon="6.759">
        <ele>2468.91</ele>
        <time>2017-01-05T09:28:06Z</time>
      </trkpt>
      <trkpt lat="45.08857" lon="6.75899">
        <ele>2469.49</ele>
        <time>2017-01-05T09:28:09Z</time>
      </trkpt>
      <trkpt lat="45.08847" lon="6.75902">
        <ele>2471.19</ele>
        <time>2017-01-05T09:28:12Z</time>
      </trkpt>
      <trkpt lat="45.0884" lon="6.75912">
        <ele>2474.67</ele>
        <time>2017-01-05T09:28:17Z</time>
      </trkpt>
      <trkpt lat="45.08847" lon="6.75922">
        <ele>2477.22</ele>
        <time>2017-01-05T09:28:22Z</time>
      </trkpt>
      <trkpt lat="45.08856" lon="6.75928">
        <ele>2478.83</ele>
        <time>2017-01-05T09:28:27Z</time>
      </trkpt>
      <trkpt lat="45.08866" lon="6.75949">
        <ele>2484.06</ele>
        <time>2017-01-05T09:28:33Z</time>
      </trkpt>
      <trkpt lat="45.08861" lon="6.75975">
        <ele>2490.8</ele>
        <time>2017-01-05T09:28:41Z</time>
      </trkpt>
      <trkpt lat="45.08856" lon="6.75988">
        <ele>2494.18</ele>
        <time>2017-01-05T09:28:47Z</time>
      </trkpt>
      <trkpt lat="45.0885" lon="6.76013">
        <ele>2500.89</ele>
        <time>2017-01-05T09:28:56Z</time>
      </trkpt>
      <trkpt lat="45.08852" lon="6.7603">
        <ele>2504.35</ele>
        <time>2017-01-05T09:28:59Z</time>
      </trkpt>
      <trkpt lat="45.08855" lon="6.76046">
        <ele>2506.82</ele>
        <time>2017-01-05T09:29:03Z</time>
      </trkpt>
      <trkpt lat="45.08855" lon="6.7606">
        <ele>2509.04</ele>
        <time>2017-01-05T09:29:06Z</time>
      </trkpt>
      <trkpt lat="45.08855" lon="6.76075">
        <ele>2511.41</ele>
        <time>2017-01-05T09:29:09Z</time>
      </trkpt>
      <trkpt lat="45.08852" lon="6.76105">
        <ele>2515.61</ele>
        <time>2017-01-05T09:29:16Z</time>
      </trkpt>
      <trkpt lat="45.08846" lon="6.76121">
        <ele>2518.06</ele>
        <time>2017-01-05T09:29:19Z</time>
      </trkpt>
      <trkpt lat="45.08838" lon="6.76136">
        <ele>2520.53</ele>
        <time>2017-01-05T09:29:22Z</time>
      </trkpt>
      <trkpt lat="45.08826" lon="6.76125">
        <ele>2521.29</ele>
        <time>2017-01-05T09:29:40Z</time>
      </trkpt>
      <trkpt lat="45.08817" lon="6.76116">
        <ele>2522.96</ele>
        <time>2017-01-05T09:29:43Z</time>
      </trkpt>
      <trkpt lat="45.08807" lon="6.76108">
        <ele>2525.45</ele>
        <time>2017-01-05T09:29:46Z</time>
      </trkpt>
      <trkpt lat="45.08795" lon="6.76103">
        <ele>2527.41</ele>
        <time>2017-01-05T09:29:49Z</time>
      </trkpt>
      <trkpt lat="45.08783" lon="6.761">
        <ele>2529.17</ele>
        <time>2017-01-05T09:29:52Z</time>
      </trkpt>
      <trkpt lat="45.08771" lon="6.76098">
        <ele>2530.29</ele>
        <time>2017-01-05T09:29:55Z</time>
      </trkpt>
      <trkpt lat="45.0876" lon="6.76097">
        <ele>2531.38</ele>
        <time>2017-01-05T09:29:58Z</time>
      </trkpt>
      <trkpt lat="45.08747" lon="6.76099">
        <ele>2533.19</ele>
        <time>2017-01-05T09:30:01Z</time>
      </trkpt>
      <trkpt lat="45.08737" lon="6.76104">
        <ele>2535.27</ele>
        <time>2017-01-05T09:30:06Z</time>
      </trkpt>
      <trkpt lat="45.08727" lon="6.76111">
        <ele>2537.55</ele>
        <time>2017-01-05T09:30:11Z</time>
      </trkpt>
      <trkpt lat="45.08719" lon="6.76118">
        <ele>2539.99</ele>
        <time>2017-01-05T09:30:15Z</time>
      </trkpt>
      <trkpt lat="45.08709" lon="6.76123">
        <ele>2541.77</ele>
        <time>2017-01-05T09:30:21Z</time>
      </trkpt>
      <trkpt lat="45.08699" lon="6.76128">
        <ele>2543.45</ele>
        <time>2017-01-05T09:30:28Z</time>
      </trkpt>
      <trkpt lat="45.08689" lon="6.76133">
        <ele>2545.18</ele>
        <time>2017-01-05T09:30:36Z</time>
      </trkpt>
      <trkpt lat="45.08691" lon="6.76157">
        <ele>2552.1</ele>
        <time>2017-01-05T09:30:49Z</time>
      </trkpt>
      <trkpt lat="45.08697" lon="6.76169">
        <ele>2555.44</ele>
        <time>2017-01-05T09:30:53Z</time>
      </trkpt>
      <trkpt lat="45.08702" lon="6.76184">
        <ele>2559.28</ele>
        <time>2017-01-05T09:30:57Z</time>
      </trkpt>
      <trkpt lat="45.08711" lon="6.76194">
        <ele>2561.79</ele>
        <time>2017-01-05T09:31:01Z</time>
      </trkpt>
      <trkpt lat="45.08731" lon="6.762">
        <ele>2561.2</ele>
        <time>2017-01-05T09:31:11Z</time>
      </trkpt>
      <trkpt lat="45.08736" lon="6.76215">
        <ele>2563.83</ele>
        <time>2017-01-05T09:31:15Z</time>
      </trkpt>
      <trkpt lat="45.08741" lon="6.76228">
        <ele>2566.29</ele>
        <time>2017-01-05T09:31:19Z</time>
      </trkpt>
      <trkpt lat="45.08752" lon="6.76251">
        <ele>2571.96</ele>
        <time>2017-01-05T09:31:30Z</time>
      </trkpt>
      <trkpt lat="45.08756" lon="6.76265">
        <ele>2576.26</ele>
        <time>2017-01-05T09:31:35Z</time>
      </trkpt>
      <trkpt lat="45.08758" lon="6.76292">
        <ele>2586.01</ele>
        <time>2017-01-05T09:31:45Z</time>
      </trkpt>
      <trkpt lat="45.08763" lon="6.76306">
        <ele>2590.67</ele>
        <time>2017-01-05T09:31:51Z</time>
      </trkpt>
      <trkpt lat="45.08777" lon="6.76324">
        <ele>2595.39</ele>
        <time>2017-01-05T09:32:01Z</time>
      </trkpt>
      <trkpt lat="45.08789" lon="6.76344">
        <ele>2599.72</ele>
        <time>2017-01-05T09:32:12Z</time>
      </trkpt>
      <trkpt lat="45.08802" lon="6.76365">
        <ele>2604.16</ele>
        <time>2017-01-05T09:32:18Z</time>
      </trkpt>
      <trkpt lat="45.08811" lon="6.76378">
        <ele>2605.53</ele>
        <time>2017-01-05T09:32:21Z</time>
      </trkpt>
      <trkpt lat="45.08822" lon="6.76388">
        <ele>2605.36</ele>
        <time>2017-01-05T09:32:24Z</time>
      </trkpt>
      <trkpt lat="45.08831" lon="6.76399">
        <ele>2607.22</ele>
        <time>2017-01-05T09:32:27Z</time>
      </trkpt>
      <trkpt lat="45.08845" lon="6.76417">
        <ele>2614.74</ele>
        <time>2017-01-05T09:32:34Z</time>
      </trkpt>
      <trkpt lat="45.08856" lon="6.76439">
        <ele>2624.15</ele>
        <time>2017-01-05T09:32:47Z</time>
      </trkpt>
      <trkpt lat="45.08864" lon="6.76446">
        <ele>2626.29</ele>
        <time>2017-01-05T09:32:55Z</time>
      </trkpt>
      <trkpt lat="45.08872" lon="6.76457">
        <ele>2628.66</ele>
        <time>2017-01-05T09:33:05Z</time>
      </trkpt>
      <trkpt lat="45.08871" lon="6.76481">
        <ele>2634.74</ele>
        <time>2017-01-05T09:33:18Z</time>
      </trkpt>
      <trkpt lat="45.08853" lon="6.76474">
        <ele>2635.95</ele>
        <time>2017-01-05T09:33:31Z</time>
      </trkpt>
      <trkpt lat="45.08843" lon="6.76477">
        <ele>2638.37</ele>
        <time>2017-01-05T09:33:40Z</time>
      </trkpt>
      <trkpt lat="45.08844" lon="6.76492">
        <ele>2642.25</ele>
        <time>2017-01-05T09:33:45Z</time>
      </trkpt>
      <trkpt lat="45.08827" lon="6.76502">
        <ele>2648.24</ele>
        <time>2017-01-05T09:33:56Z</time>
      </trkpt>
      <trkpt lat="45.08817" lon="6.76502">
        <ele>2649.51</ele>
        <time>2017-01-05T09:34:01Z</time>
      </trkpt>
      <trkpt lat="45.088" lon="6.76515">
        <ele>2654.46</ele>
        <time>2017-01-05T09:34:13Z</time>
      </trkpt>
      <trkpt lat="45.0879" lon="6.76518">
        <ele>2655.19</ele>
        <time>2017-01-05T09:34:17Z</time>
      </trkpt>
      <trkpt lat="45.08774" lon="6.76536">
        <ele>2661.46</ele>
        <time>2017-01-05T09:34:25Z</time>
      </trkpt>
      <trkpt lat="45.08766" lon="6.76561">
        <ele>2671.25</ele>
        <time>2017-01-05T09:34:34Z</time>
      </trkpt>
      <trkpt lat="45.0877" lon="6.76587">
        <ele>2678.81</ele>
        <time>2017-01-05T09:36:56Z</time>
      </trkpt>
      <trkpt lat="45.08765" lon="6.76589">
        <ele>2680.17</ele>
        <time>2017-01-05T09:37:15Z</time>
      </trkpt>
      <trkpt lat="45.08771" lon="6.76616">
        <ele>2686.81</ele>
        <time>2017-01-05T09:37:22Z</time>
      </trkpt>
      <trkpt lat="45.08779" lon="6.76627">
        <ele>2687.78</ele>
        <time>2017-01-05T09:37:27Z</time>
      </trkpt>
      <trkpt lat="45.08793" lon="6.76644">
        <ele>2690.15</ele>
        <time>2017-01-05T09:37:35Z</time>
      </trkpt>
      <trkpt lat="45.0879" lon="6.7666">
        <ele>2694.5</ele>
        <time>2017-01-05T09:37:38Z</time>
      </trkpt>
      <trkpt lat="45.08778" lon="6.76666">
        <ele>2698.81</ele>
        <time>2017-01-05T09:37:41Z</time>
      </trkpt>
      <trkpt lat="45.08759" lon="6.76672">
        <ele>2702.12</ele>
        <time>2017-01-05T09:37:45Z</time>
      </trkpt>
      <trkpt lat="45.08747" lon="6.76674">
        <ele>2704.05</ele>
        <time>2017-01-05T09:37:48Z</time>
      </trkpt>
      <trkpt lat="45.08735" lon="6.76677">
        <ele>2706.86</ele>
        <time>2017-01-05T09:37:51Z</time>
      </trkpt>
      <trkpt lat="45.08725" lon="6.76681">
        <ele>2709.59</ele>
        <time>2017-01-05T09:37:53Z</time>
      </trkpt>
      <trkpt lat="45.08715" lon="6.76683">
        <ele>2711.34</ele>
        <time>2017-01-05T09:37:55Z</time>
      </trkpt>
      <trkpt lat="45.08703" lon="6.76685">
        <ele>2712.8</ele>
        <time>2017-01-05T09:38:43Z</time>
      </trkpt>
      <trkpt lat="45.08694" lon="6.76693">
        <ele>2715.69</ele>
        <time>2017-01-05T09:38:48Z</time>
      </trkpt>
      <trkpt lat="45.08673" lon="6.76703">
        <ele>2718.47</ele>
        <time>2017-01-05T09:38:54Z</time>
      </trkpt>
      <trkpt lat="45.08662" lon="6.76708">
        <ele>2720.75</ele>
        <time>2017-01-05T09:38:57Z</time>
      </trkpt>
      <trkpt lat="45.08651" lon="6.76712">
        <ele>2722.96</ele>
        <time>2017-01-05T09:39:00Z</time>
      </trkpt>
      <trkpt lat="45.08641" lon="6.76719">
        <ele>2725.78</ele>
        <time>2017-01-05T09:39:19Z</time>
      </trkpt>
      <trkpt lat="45.08651" lon="6.7674">
        <ele>2731.95</ele>
        <time>2017-01-05T09:39:26Z</time>
      </trkpt>
      <trkpt lat="45.08658" lon="6.76752">
        <ele>2734.79</ele>
        <time>2017-01-05T09:39:29Z</time>
      </trkpt>
      <trkpt lat="45.08664" lon="6.76767">
        <ele>2737.91</ele>
        <time>2017-01-05T09:39:31Z</time>
      </trkpt>
      <trkpt lat="45.08672" lon="6.76779">
        <ele>2740.47</ele>
        <time>2017-01-05T09:39:34Z</time>
      </trkpt>
      <trkpt lat="45.08683" lon="6.76781">
        <ele>2741.02</ele>
        <time>2017-01-05T09:39:37Z</time>
      </trkpt>
      <trkpt lat="45.08694" lon="6.76783">
        <ele>2741.4</ele>
        <time>2017-01-05T09:39:40Z</time>
      </trkpt>
      <trkpt lat="45.08706" lon="6.76788">
        <ele>2742.81</ele>
        <time>2017-01-05T09:39:43Z</time>
      </trkpt>
      <trkpt lat="45.08722" lon="6.76792">
        <ele>2744.6</ele>
        <time>2017-01-05T09:39:46Z</time>
      </trkpt>
      <trkpt lat="45.08734" lon="6.76789">
        <ele>2743.95</ele>
        <time>2017-01-05T09:39:49Z</time>
      </trkpt>
      <trkpt lat="45.08745" lon="6.76793">
        <ele>2745.53</ele>
        <time>2017-01-05T09:39:52Z</time>
      </trkpt>
      <trkpt lat="45.08753" lon="6.76806">
        <ele>2749.56</ele>
        <time>2017-01-05T09:39:55Z</time>
      </trkpt>
      <trkpt lat="45.0876" lon="6.76817">
        <ele>2751.74</ele>
        <time>2017-01-05T09:39:58Z</time>
      </trkpt>
      <trkpt lat="45.08768" lon="6.76827">
        <ele>2753.3</ele>
        <time>2017-01-05T09:40:01Z</time>
      </trkpt>
      <trkpt lat="45.08765" lon="6.76846">
        <ele>2758.56</ele>
        <time>2017-01-05T09:40:16Z</time>
      </trkpt>
      <trkpt lat="45.08747" lon="6.76853">
        <ele>2762.24</ele>
        <time>2017-01-05T09:40:24Z</time>
      </trkpt>
      <trkpt lat="45.08737" lon="6.76859">
        <ele>2763.55</ele>
        <time>2017-01-05T09:40:27Z</time>
      </trkpt>
      <trkpt lat="45.08725" lon="6.76856">
        <ele>2762.78</ele>
        <time>2017-01-05T09:40:30Z</time>
      </trkpt>
      <trkpt lat="45.08713" lon="6.76854">
        <ele>2763.13</ele>
        <time>2017-01-05T09:40:33Z</time>
      </trkpt>
      <trkpt lat="45.08701" lon="6.76852">
        <ele>2763.58</ele>
        <time>2017-01-05T09:40:36Z</time>
      </trkpt>
      <trkpt lat="45.08689" lon="6.76854">
        <ele>2764.92</ele>
        <time>2017-01-05T09:40:39Z</time>
      </trkpt>
      <trkpt lat="45.08678" lon="6.76857">
        <ele>2766.72</ele>
        <time>2017-01-05T09:40:42Z</time>
      </trkpt>
      <trkpt lat="45.08679" lon="6.76875">
        <ele>2771.61</ele>
        <time>2017-01-05T09:40:51Z</time>
      </trkpt>
      <trkpt lat="45.08697" lon="6.76887">
        <ele>2774.11</ele>
        <time>2017-01-05T09:41:00Z</time>
      </trkpt>
      <trkpt lat="45.08714" lon="6.769">
        <ele>2775.62</ele>
        <time>2017-01-05T09:41:07Z</time>
      </trkpt>
      <trkpt lat="45.08724" lon="6.7691">
        <ele>2777.28</ele>
        <time>2017-01-05T09:41:10Z</time>
      </trkpt>
      <trkpt lat="45.08733" lon="6.76917">
        <ele>2777.76</ele>
        <time>2017-01-05T09:41:13Z</time>
      </trkpt>
      <trkpt lat="45.08744" lon="6.7692">
        <ele>2776.53</ele>
        <time>2017-01-05T09:41:23Z</time>
      </trkpt>
      <trkpt lat="45.08725" lon="6.76925">
        <ele>2778.12</ele>
        <time>2017-01-05T09:41:30Z</time>
      </trkpt>
      <trkpt lat="45.08706" lon="6.76922">
        <ele>2777.89</ele>
        <time>2017-01-05T09:41:36Z</time>
      </trkpt>
      <trkpt lat="45.08694" lon="6.76921">
        <ele>2777.45</ele>
        <time>2017-01-05T09:41:40Z</time>
      </trkpt>
      <trkpt lat="45.08681" lon="6.76923">
        <ele>2776.85</ele>
        <time>2017-01-05T09:46:04Z</time>
      </trkpt>
      <trkpt lat="45.0867" lon="6.7692">
        <ele>2776.81</ele>
        <time>2017-01-05T09:46:08Z</time>
      </trkpt>
      <trkpt lat="45.08651" lon="6.76917">
        <ele>2776.42</ele>
        <time>2017-01-05T09:46:16Z</time>
      </trkpt>
      <trkpt lat="45.0864" lon="6.76922">
        <ele>2775.68</ele>
        <time>2017-01-05T09:46:21Z</time>
      </trkpt>
      <trkpt lat="45.0863" lon="6.76926">
        <ele>2775.04</ele>
        <time>2017-01-05T09:46:25Z</time>
      </trkpt>
      <trkpt lat="45.08611" lon="6.76933">
        <ele>2773.1</ele>
        <time>2017-01-05T09:46:31Z</time>
      </trkpt>
      <trkpt lat="45.0859" lon="6.76939">
        <ele>2773.98</ele>
        <time>2017-01-05T09:46:38Z</time>
      </trkpt>
      <trkpt lat="45.08575" lon="6.76924">
        <ele>2779.71</ele>
        <time>2017-01-05T09:46:44Z</time>
      </trkpt>
      <trkpt lat="45.08565" lon="6.76917">
        <ele>2781.95</ele>
        <time>2017-01-05T09:46:47Z</time>
      </trkpt>
      <trkpt lat="45.08546" lon="6.76906">
        <ele>2783.37</ele>
        <time>2017-01-05T09:46:53Z</time>
      </trkpt>
      <trkpt lat="45.08533" lon="6.76902">
        <ele>2782.58</ele>
        <time>2017-01-05T09:48:15Z</time>
      </trkpt>
      <trkpt lat="45.08457" lon="6.76827">
        <ele>2795.57</ele>
        <time>2017-01-05T09:59:27Z</time>
      </trkpt>
      <trkpt lat="45.08525" lon="6.76902">
        <ele>2781.52</ele>
        <time>2017-01-05T10:19:24Z</time>
      </trkpt>
      <trkpt lat="45.08505" lon="6.76897">
        <ele>2782.06</ele>
        <time>2017-01-05T10:19:30Z</time>
      </trkpt>
      <trkpt lat="45.08494" lon="6.76896">
        <ele>2781.03</ele>
        <time>2017-01-05T10:19:32Z</time>
      </trkpt>
      <trkpt lat="45.08482" lon="6.76895">
        <ele>2779.56</ele>
        <time>2017-01-05T10:19:35Z</time>
      </trkpt>
      <trkpt lat="45.08472" lon="6.76893">
        <ele>2778.67</ele>
        <time>2017-01-05T10:19:38Z</time>
      </trkpt>
      <trkpt lat="45.08453" lon="6.76889">
        <ele>2778.01</ele>
        <time>2017-01-05T10:19:42Z</time>
      </trkpt>
      <trkpt lat="45.0844" lon="6.7689">
        <ele>2776.49</ele>
        <time>2017-01-05T10:19:45Z</time>
      </trkpt>
      <trkpt lat="45.08429" lon="6.76889">
        <ele>2775.76</ele>
        <time>2017-01-05T10:19:48Z</time>
      </trkpt>
      <trkpt lat="45.08418" lon="6.76886">
        <ele>2775.98</ele>
        <time>2017-01-05T10:19:51Z</time>
      </trkpt>
      <trkpt lat="45.08406" lon="6.76883">
        <ele>2775.93</ele>
        <time>2017-01-05T10:19:54Z</time>
      </trkpt>
      <trkpt lat="45.08395" lon="6.76878">
        <ele>2776.76</ele>
        <time>2017-01-05T10:19:58Z</time>
      </trkpt>
      <trkpt lat="45.08386" lon="6.7688">
        <ele>2774.61</ele>
        <time>2017-01-05T10:20:01Z</time>
      </trkpt>
      <trkpt lat="45.08375" lon="6.76877">
        <ele>2774.43</ele>
        <time>2017-01-05T10:20:04Z</time>
      </trkpt>
      <trkpt lat="45.08351" lon="6.7687">
        <ele>2774.37</ele>
        <time>2017-01-05T10:20:08Z</time>
      </trkpt>
      <trkpt lat="45.08342" lon="6.76863">
        <ele>2775.51</ele>
        <time>2017-01-05T10:20:10Z</time>
      </trkpt>
      <trkpt lat="45.08332" lon="6.76857">
        <ele>2775.92</ele>
        <time>2017-01-05T10:20:12Z</time>
      </trkpt>
      <trkpt lat="45.08322" lon="6.76851">
        <ele>2776.02</ele>
        <time>2017-01-05T10:20:14Z</time>
      </trkpt>
      <trkpt lat="45.0831" lon="6.76845">
        <ele>2775.4</ele>
        <time>2017-01-05T10:20:17Z</time>
      </trkpt>
      <trkpt lat="45.083" lon="6.7684">
        <ele>2774.26</ele>
        <time>2017-01-05T10:20:19Z</time>
      </trkpt>
      <trkpt lat="45.08291" lon="6.76836">
        <ele>2772.62</ele>
        <time>2017-01-05T10:20:22Z</time>
      </trkpt>
      <trkpt lat="45.08281" lon="6.76831">
        <ele>2771.68</ele>
        <time>2017-01-05T10:20:24Z</time>
      </trkpt>
      <trkpt lat="45.08271" lon="6.76825">
        <ele>2771.78</ele>
        <time>2017-01-05T10:20:28Z</time>
      </trkpt>
      <trkpt lat="45.08277" lon="6.76837">
        <ele>2769.16</ele>
        <time>2017-01-05T10:20:33Z</time>
      </trkpt>
      <trkpt lat="45.08289" lon="6.76846">
        <ele>2770.19</ele>
        <time>2017-01-05T10:20:36Z</time>
      </trkpt>
      <trkpt lat="45.083" lon="6.76858">
        <ele>2770.19</ele>
        <time>2017-01-05T10:20:39Z</time>
      </trkpt>
      <trkpt lat="45.08318" lon="6.76873">
        <ele>2769.25</ele>
        <time>2017-01-05T10:20:44Z</time>
      </trkpt>
      <trkpt lat="45.08334" lon="6.76896">
        <ele>2764.84</ele>
        <time>2017-01-05T10:20:49Z</time>
      </trkpt>
      <trkpt lat="45.08343" lon="6.76904">
        <ele>2762.57</ele>
        <time>2017-01-05T10:20:51Z</time>
      </trkpt>
      <trkpt lat="45.08354" lon="6.7691">
        <ele>2760.79</ele>
        <time>2017-01-05T10:20:53Z</time>
      </trkpt>
      <trkpt lat="45.08365" lon="6.76918">
        <ele>2758.79</ele>
        <time>2017-01-05T10:20:55Z</time>
      </trkpt>
      <trkpt lat="45.08378" lon="6.76921">
        <ele>2758.75</ele>
        <time>2017-01-05T10:20:57Z</time>
      </trkpt>
      <trkpt lat="45.0839" lon="6.76931">
        <ele>2756.42</ele>
        <time>2017-01-05T10:21:00Z</time>
      </trkpt>
      <trkpt lat="45.08399" lon="6.76937">
        <ele>2756.1</ele>
        <time>2017-01-05T10:21:02Z</time>
      </trkpt>
      <trkpt lat="45.08411" lon="6.76943">
        <ele>2755.61</ele>
        <time>2017-01-05T10:21:04Z</time>
      </trkpt>
      <trkpt lat="45.08422" lon="6.76946">
        <ele>2755.27</ele>
        <time>2017-01-05T10:21:06Z</time>
      </trkpt>
      <trkpt lat="45.08433" lon="6.76946">
        <ele>2754.82</ele>
        <time>2017-01-05T10:21:08Z</time>
      </trkpt>
      <trkpt lat="45.08443" lon="6.76948">
        <ele>2753.47</ele>
        <time>2017-01-05T10:21:11Z</time>
      </trkpt>
      <trkpt lat="45.08428" lon="6.76959">
        <ele>2749.84</ele>
        <time>2017-01-05T10:21:18Z</time>
      </trkpt>
      <trkpt lat="45.0841" lon="6.76957">
        <ele>2750.07</ele>
        <time>2017-01-05T10:21:22Z</time>
      </trkpt>
      <trkpt lat="45.08398" lon="6.7696">
        <ele>2747.6</ele>
        <time>2017-01-05T10:21:25Z</time>
      </trkpt>
      <trkpt lat="45.08379" lon="6.76961">
        <ele>2745.14</ele>
        <time>2017-01-05T10:21:29Z</time>
      </trkpt>
      <trkpt lat="45.08358" lon="6.76962">
        <ele>2742.87</ele>
        <time>2017-01-05T10:21:34Z</time>
      </trkpt>
      <trkpt lat="45.08335" lon="6.76961">
        <ele>2741.18</ele>
        <time>2017-01-05T10:21:39Z</time>
      </trkpt>
      <trkpt lat="45.08316" lon="6.76959">
        <ele>2738.88</ele>
        <time>2017-01-05T10:21:43Z</time>
      </trkpt>
      <trkpt lat="45.08306" lon="6.76957">
        <ele>2738.01</ele>
        <time>2017-01-05T10:21:45Z</time>
      </trkpt>
      <trkpt lat="45.08287" lon="6.76953">
        <ele>2734.81</ele>
        <time>2017-01-05T10:21:49Z</time>
      </trkpt>
      <trkpt lat="45.08274" lon="6.76948">
        <ele>2733.07</ele>
        <time>2017-01-05T10:21:52Z</time>
      </trkpt>
      <trkpt lat="45.08262" lon="6.76947">
        <ele>2731.02</ele>
        <time>2017-01-05T10:21:55Z</time>
      </trkpt>
      <trkpt lat="45.0825" lon="6.76948">
        <ele>2728.55</ele>
        <time>2017-01-05T10:21:58Z</time>
      </trkpt>
      <trkpt lat="45.08238" lon="6.7695">
        <ele>2725.55</ele>
        <time>2017-01-05T10:22:02Z</time>
      </trkpt>
      <trkpt lat="45.08226" lon="6.76949">
        <ele>2723.09</ele>
        <time>2017-01-05T10:22:05Z</time>
      </trkpt>
      <trkpt lat="45.08215" lon="6.7695">
        <ele>2722.08</ele>
        <time>2017-01-05T10:22:06Z</time>
      </trkpt>
      <trkpt lat="45.08203" lon="6.76951">
        <ele>2721.73</ele>
        <time>2017-01-05T10:22:09Z</time>
      </trkpt>
      <trkpt lat="45.08183" lon="6.76949">
        <ele>2720.41</ele>
        <time>2017-01-05T10:22:13Z</time>
      </trkpt>
      <trkpt lat="45.08173" lon="6.76951">
        <ele>2718.36</ele>
        <time>2017-01-05T10:22:15Z</time>
      </trkpt>
      <trkpt lat="45.08154" lon="6.76949">
        <ele>2715.15</ele>
        <time>2017-01-05T10:22:20Z</time>
      </trkpt>
      <trkpt lat="45.08144" lon="6.76943">
        <ele>2714.28</ele>
        <time>2017-01-05T10:22:59Z</time>
      </trkpt>
      <trkpt lat="45.08134" lon="6.7695">
        <ele>2710.73</ele>
        <time>2017-01-05T10:23:02Z</time>
      </trkpt>
      <trkpt lat="45.0814" lon="6.76961">
        <ele>2709.76</ele>
        <time>2017-01-05T10:23:05Z</time>
      </trkpt>
      <trkpt lat="45.08149" lon="6.76968">
        <ele>2709.89</ele>
        <time>2017-01-05T10:23:08Z</time>
      </trkpt>
      <trkpt lat="45.08158" lon="6.76977">
        <ele>2709.1</ele>
        <time>2017-01-05T10:23:11Z</time>
      </trkpt>
      <trkpt lat="45.08169" lon="6.76988">
        <ele>2708.31</ele>
        <time>2017-01-05T10:23:15Z</time>
      </trkpt>
      <trkpt lat="45.08177" lon="6.77">
        <ele>2706.22</ele>
        <time>2017-01-05T10:23:18Z</time>
      </trkpt>
      <trkpt lat="45.08188" lon="6.7701">
        <ele>2705.3</ele>
        <time>2017-01-05T10:23:21Z</time>
      </trkpt>
      <trkpt lat="45.08207" lon="6.77028">
        <ele>2704.77</ele>
        <time>2017-01-05T10:23:26Z</time>
      </trkpt>
      <trkpt lat="45.08218" lon="6.77037">
        <ele>2704.4</ele>
        <time>2017-01-05T10:23:29Z</time>
      </trkpt>
      <trkpt lat="45.08228" lon="6.77046">
        <ele>2703.94</ele>
        <time>2017-01-05T10:23:32Z</time>
      </trkpt>
      <trkpt lat="45.08239" lon="6.77057">
        <ele>2702.97</ele>
        <time>2017-01-05T10:23:35Z</time>
      </trkpt>
      <trkpt lat="45.08256" lon="6.7707">
        <ele>2701.28</ele>
        <time>2017-01-05T10:23:39Z</time>
      </trkpt>
      <trkpt lat="45.08267" lon="6.77078">
        <ele>2700.63</ele>
        <time>2017-01-05T10:23:42Z</time>
      </trkpt>
      <trkpt lat="45.08278" lon="6.77087">
        <ele>2699.94</ele>
        <time>2017-01-05T10:23:45Z</time>
      </trkpt>
      <trkpt lat="45.08288" lon="6.77097">
        <ele>2696.85</ele>
        <time>2017-01-05T10:23:48Z</time>
      </trkpt>
      <trkpt lat="45.08305" lon="6.77108">
        <ele>2694.77</ele>
        <time>2017-01-05T10:23:51Z</time>
      </trkpt>
      <trkpt lat="45.08318" lon="6.77116">
        <ele>2692.26</ele>
        <time>2017-01-05T10:23:54Z</time>
      </trkpt>
      <trkpt lat="45.08339" lon="6.77126">
        <ele>2687.18</ele>
        <time>2017-01-05T10:23:59Z</time>
      </trkpt>
      <trkpt lat="45.08357" lon="6.77136">
        <ele>2681.28</ele>
        <time>2017-01-05T10:24:03Z</time>
      </trkpt>
      <trkpt lat="45.08369" lon="6.7714">
        <ele>2678.64</ele>
        <time>2017-01-05T10:24:06Z</time>
      </trkpt>
      <trkpt lat="45.08381" lon="6.77135">
        <ele>2678.85</ele>
        <time>2017-01-05T10:24:08Z</time>
      </trkpt>
      <trkpt lat="45.08393" lon="6.77136">
        <ele>2677.57</ele>
        <time>2017-01-05T10:24:11Z</time>
      </trkpt>
      <trkpt lat="45.0839" lon="6.77152">
        <ele>2673.2</ele>
        <time>2017-01-05T10:24:15Z</time>
      </trkpt>
      <trkpt lat="45.08379" lon="6.77158">
        <ele>2672.18</ele>
        <time>2017-01-05T10:24:18Z</time>
      </trkpt>
      <trkpt lat="45.08367" lon="6.77161">
        <ele>2671.59</ele>
        <time>2017-01-05T10:24:21Z</time>
      </trkpt>
      <trkpt lat="45.08355" lon="6.77165">
        <ele>2670.71</ele>
        <time>2017-01-05T10:24:24Z</time>
      </trkpt>
      <trkpt lat="45.08336" lon="6.77175">
        <ele>2667.85</ele>
        <time>2017-01-05T10:24:28Z</time>
      </trkpt>
      <trkpt lat="45.08318" lon="6.77179">
        <ele>2666.66</ele>
        <time>2017-01-05T10:24:32Z</time>
      </trkpt>
      <trkpt lat="45.08308" lon="6.77177">
        <ele>2667.67</ele>
        <time>2017-01-05T10:24:34Z</time>
      </trkpt>
      <trkpt lat="45.08295" lon="6.77175">
        <ele>2669.44</ele>
        <time>2017-01-05T10:24:37Z</time>
      </trkpt>
      <trkpt lat="45.08282" lon="6.77174">
        <ele>2671.09</ele>
        <time>2017-01-05T10:24:40Z</time>
      </trkpt>
      <trkpt lat="45.0827" lon="6.77177">
        <ele>2670.72</ele>
        <time>2017-01-05T10:24:43Z</time>
      </trkpt>
      <trkpt lat="45.08258" lon="6.77181">
        <ele>2669.53</ele>
        <time>2017-01-05T10:24:46Z</time>
      </trkpt>
      <trkpt lat="45.08247" lon="6.77186">
        <ele>2667.9</ele>
        <time>2017-01-05T10:24:49Z</time>
      </trkpt>
      <trkpt lat="45.08236" lon="6.7719">
        <ele>2665.59</ele>
        <time>2017-01-05T10:24:52Z</time>
      </trkpt>
      <trkpt lat="45.08225" lon="6.77195">
        <ele>2663.19</ele>
        <time>2017-01-05T10:24:55Z</time>
      </trkpt>
      <trkpt lat="45.08215" lon="6.77201">
        <ele>2660.11</ele>
        <time>2017-01-05T10:24:58Z</time>
      </trkpt>
      <trkpt lat="45.08206" lon="6.77209">
        <ele>2657.32</ele>
        <time>2017-01-05T10:25:02Z</time>
      </trkpt>
      <trkpt lat="45.08197" lon="6.77217">
        <ele>2655.28</ele>
        <time>2017-01-05T10:25:05Z</time>
      </trkpt>
      <trkpt lat="45.08187" lon="6.77227">
        <ele>2654.27</ele>
        <time>2017-01-05T10:25:08Z</time>
      </trkpt>
      <trkpt lat="45.08178" lon="6.77239">
        <ele>2653.94</ele>
        <time>2017-01-05T10:25:12Z</time>
      </trkpt>
      <trkpt lat="45.08172" lon="6.7725">
        <ele>2653.47</ele>
        <time>2017-01-05T10:25:15Z</time>
      </trkpt>
      <trkpt lat="45.08168" lon="6.77265">
        <ele>2654.35</ele>
        <time>2017-01-05T10:25:18Z</time>
      </trkpt>
      <trkpt lat="45.08171" lon="6.77278">
        <ele>2654.39</ele>
        <time>2017-01-05T10:25:20Z</time>
      </trkpt>
      <trkpt lat="45.08178" lon="6.7729">
        <ele>2654.38</ele>
        <time>2017-01-05T10:25:24Z</time>
      </trkpt>
      <trkpt lat="45.08186" lon="6.77301">
        <ele>2653.69</ele>
        <time>2017-01-05T10:25:27Z</time>
      </trkpt>
      <trkpt lat="45.08195" lon="6.77311">
        <ele>2652.65</ele>
        <time>2017-01-05T10:25:30Z</time>
      </trkpt>
      <trkpt lat="45.08206" lon="6.77321">
        <ele>2651.16</ele>
        <time>2017-01-05T10:25:33Z</time>
      </trkpt>
      <trkpt lat="45.08217" lon="6.77331">
        <ele>2648.67</ele>
        <time>2017-01-05T10:25:36Z</time>
      </trkpt>
      <trkpt lat="45.08226" lon="6.7734">
        <ele>2647.29</ele>
        <time>2017-01-05T10:25:39Z</time>
      </trkpt>
      <trkpt lat="45.08242" lon="6.77353">
        <ele>2645.41</ele>
        <time>2017-01-05T10:25:47Z</time>
      </trkpt>
      <trkpt lat="45.08253" lon="6.77355">
        <ele>2643.86</ele>
        <time>2017-01-05T10:25:51Z</time>
      </trkpt>
      <trkpt lat="45.08271" lon="6.77356">
        <ele>2642.77</ele>
        <time>2017-01-05T10:25:59Z</time>
      </trkpt>
      <trkpt lat="45.08283" lon="6.77355">
        <ele>2641.79</ele>
        <time>2017-01-05T10:26:03Z</time>
      </trkpt>
      <trkpt lat="45.08292" lon="6.77359">
        <ele>2640.09</ele>
        <time>2017-01-05T10:26:38Z</time>
      </trkpt>
      <trkpt lat="45.08304" lon="6.77358">
        <ele>2638.6</ele>
        <time>2017-01-05T10:32:01Z</time>
      </trkpt>
      <trkpt lat="45.0831" lon="6.77351">
        <ele>2638.97</ele>
        <time>2017-01-05T10:33:27Z</time>
      </trkpt>
      <trkpt lat="45.08308" lon="6.77365">
        <ele>2637.91</ele>
        <time>2017-01-05T10:34:46Z</time>
      </trkpt>
      <trkpt lat="45.08292" lon="6.77354">
        <ele>2640.56</ele>
        <time>2017-01-05T10:35:26Z</time>
      </trkpt>
      <trkpt lat="45.08282" lon="6.77356">
        <ele>2641.74</ele>
        <time>2017-01-05T10:35:34Z</time>
      </trkpt>
      <trkpt lat="45.08272" lon="6.77356">
        <ele>2642.72</ele>
        <time>2017-01-05T10:35:48Z</time>
      </trkpt>
      <trkpt lat="45.08254" lon="6.77351">
        <ele>2643.83</ele>
        <time>2017-01-05T10:36:25Z</time>
      </trkpt>
      <trkpt lat="45.0826" lon="6.7735">
        <ele>2643.55</ele>
        <time>2017-01-05T10:37:46Z</time>
      </trkpt>
      <trkpt lat="45.08278" lon="6.77357">
        <ele>2642.24</ele>
        <time>2017-01-05T10:38:09Z</time>
      </trkpt>
      <trkpt lat="45.08287" lon="6.77365">
        <ele>2640.64</ele>
        <time>2017-01-05T10:38:47Z</time>
      </trkpt>
      <trkpt lat="45.08281" lon="6.77379">
        <ele>2641.01</ele>
        <time>2017-01-05T10:38:50Z</time>
      </trkpt>
      <trkpt lat="45.08275" lon="6.77395">
        <ele>2641.45</ele>
        <time>2017-01-05T10:38:53Z</time>
      </trkpt>
      <trkpt lat="45.08272" lon="6.7741">
        <ele>2641.69</ele>
        <time>2017-01-05T10:38:55Z</time>
      </trkpt>
      <trkpt lat="45.0827" lon="6.77425">
        <ele>2641.29</ele>
        <time>2017-01-05T10:38:57Z</time>
      </trkpt>
      <trkpt lat="45.08262" lon="6.77454">
        <ele>2640.62</ele>
        <time>2017-01-05T10:39:02Z</time>
      </trkpt>
      <trkpt lat="45.08251" lon="6.77478">
        <ele>2642.29</ele>
        <time>2017-01-05T10:39:37Z</time>
      </trkpt>
      <trkpt lat="45.08238" lon="6.775">
        <ele>2640.9</ele>
        <time>2017-01-05T10:39:41Z</time>
      </trkpt>
      <trkpt lat="45.08227" lon="6.77513">
        <ele>2637.45</ele>
        <time>2017-01-05T10:39:44Z</time>
      </trkpt>
      <trkpt lat="45.08217" lon="6.77524">
        <ele>2634.72</ele>
        <time>2017-01-05T10:39:47Z</time>
      </trkpt>
      <trkpt lat="45.08209" lon="6.77536">
        <ele>2632.49</ele>
        <time>2017-01-05T10:39:49Z</time>
      </trkpt>
      <trkpt lat="45.08201" lon="6.7755">
        <ele>2630.11</ele>
        <time>2017-01-05T10:39:53Z</time>
      </trkpt>
      <trkpt lat="45.08188" lon="6.77571">
        <ele>2628.75</ele>
        <time>2017-01-05T10:40:01Z</time>
      </trkpt>
      <trkpt lat="45.0818" lon="6.77582">
        <ele>2627.83</ele>
        <time>2017-01-05T10:40:05Z</time>
      </trkpt>
      <trkpt lat="45.08166" lon="6.77603">
        <ele>2627.88</ele>
        <time>2017-01-05T10:40:11Z</time>
      </trkpt>
      <trkpt lat="45.08161" lon="6.77616">
        <ele>2627.62</ele>
        <time>2017-01-05T10:40:14Z</time>
      </trkpt>
      <trkpt lat="45.0815" lon="6.77638">
        <ele>2628.2</ele>
        <time>2017-01-05T10:40:20Z</time>
      </trkpt>
      <trkpt lat="45.08146" lon="6.77652">
        <ele>2630.12</ele>
        <time>2017-01-05T10:40:23Z</time>
      </trkpt>
      <trkpt lat="45.08142" lon="6.77665">
        <ele>2632.3</ele>
        <time>2017-01-05T10:40:26Z</time>
      </trkpt>
      <trkpt lat="45.08138" lon="6.77678">
        <ele>2631.97</ele>
        <time>2017-01-05T10:40:29Z</time>
      </trkpt>
      <trkpt lat="45.08134" lon="6.77693">
        <ele>2629.87</ele>
        <time>2017-01-05T10:40:33Z</time>
      </trkpt>
      <trkpt lat="45.08131" lon="6.77719">
        <ele>2626.83</ele>
        <time>2017-01-05T10:42:42Z</time>
      </trkpt>
      <trkpt lat="45.08124" lon="6.77719">
        <ele>2625.54</ele>
        <time>2017-01-05T10:43:16Z</time>
      </trkpt>
      <trkpt lat="45.08132" lon="6.77745">
        <ele>2625.99</ele>
        <time>2017-01-05T10:43:22Z</time>
      </trkpt>
      <trkpt lat="45.08138" lon="6.77757">
        <ele>2626.97</ele>
        <time>2017-01-05T10:43:24Z</time>
      </trkpt>
      <trkpt lat="45.08148" lon="6.77781">
        <ele>2625.4</ele>
        <time>2017-01-05T10:43:27Z</time>
      </trkpt>
      <trkpt lat="45.08154" lon="6.77792">
        <ele>2626.4</ele>
        <time>2017-01-05T10:43:29Z</time>
      </trkpt>
      <trkpt lat="45.08161" lon="6.77806">
        <ele>2628.24</ele>
        <time>2017-01-05T10:43:31Z</time>
      </trkpt>
      <trkpt lat="45.08174" lon="6.77827">
        <ele>2631.49</ele>
        <time>2017-01-05T10:43:35Z</time>
      </trkpt>
      <trkpt lat="45.08184" lon="6.77839">
        <ele>2633.21</ele>
        <time>2017-01-05T10:43:37Z</time>
      </trkpt>
      <trkpt lat="45.08194" lon="6.77854">
        <ele>2635.93</ele>
        <time>2017-01-05T10:43:39Z</time>
      </trkpt>
      <trkpt lat="45.08203" lon="6.77863">
        <ele>2637.36</ele>
        <time>2017-01-05T10:43:41Z</time>
      </trkpt>
      <trkpt lat="45.0821" lon="6.77874">
        <ele>2640.09</ele>
        <time>2017-01-05T10:43:42Z</time>
      </trkpt>
      <trkpt lat="45.08224" lon="6.77903">
        <ele>2645.16</ele>
        <time>2017-01-05T10:43:46Z</time>
      </trkpt>
      <trkpt lat="45.08233" lon="6.77921">
        <ele>2643.45</ele>
        <time>2017-01-05T10:43:48Z</time>
      </trkpt>
      <trkpt lat="45.0824" lon="6.7794">
        <ele>2642.3</ele>
        <time>2017-01-05T10:43:50Z</time>
      </trkpt>
      <trkpt lat="45.08246" lon="6.77966">
        <ele>2639.02</ele>
        <time>2017-01-05T10:44:34Z</time>
      </trkpt>
      <trkpt lat="45.08252" lon="6.7798">
        <ele>2637.16</ele>
        <time>2017-01-05T10:44:38Z</time>
      </trkpt>
      <trkpt lat="45.08255" lon="6.77996">
        <ele>2637.2</ele>
        <time>2017-01-05T10:44:41Z</time>
      </trkpt>
      <trkpt lat="45.08251" lon="6.78012">
        <ele>2639.64</ele>
        <time>2017-01-05T10:44:44Z</time>
      </trkpt>
      <trkpt lat="45.08247" lon="6.78027">
        <ele>2642.05</ele>
        <time>2017-01-05T10:44:47Z</time>
      </trkpt>
      <trkpt lat="45.08247" lon="6.78042">
        <ele>2642.68</ele>
        <time>2017-01-05T10:44:49Z</time>
      </trkpt>
      <trkpt lat="45.08246" lon="6.78058">
        <ele>2643.54</ele>
        <time>2017-01-05T10:44:51Z</time>
      </trkpt>
      <trkpt lat="45.08242" lon="6.78074">
        <ele>2645.34</ele>
        <time>2017-01-05T10:44:53Z</time>
      </trkpt>
      <trkpt lat="45.08239" lon="6.78093">
        <ele>2645.62</ele>
        <time>2017-01-05T10:44:55Z</time>
      </trkpt>
      <trkpt lat="45.0823" lon="6.78119">
        <ele>2645.62</ele>
        <time>2017-01-05T10:44:59Z</time>
      </trkpt>
      <trkpt lat="45.0823" lon="6.78133">
        <ele>2643.55</ele>
        <time>2017-01-05T10:45:02Z</time>
      </trkpt>
      <trkpt lat="45.08223" lon="6.78145">
        <ele>2644.17</ele>
        <time>2017-01-05T10:45:05Z</time>
      </trkpt>
      <trkpt lat="45.08217" lon="6.78156">
        <ele>2641.93</ele>
        <time>2017-01-05T10:45:08Z</time>
      </trkpt>
      <trkpt lat="45.08208" lon="6.78181">
        <ele>2638.74</ele>
        <time>2017-01-05T10:45:12Z</time>
      </trkpt>
      <trkpt lat="45.08207" lon="6.7821">
        <ele>2638.75</ele>
        <time>2017-01-05T10:45:16Z</time>
      </trkpt>
      <trkpt lat="45.08205" lon="6.78226">
        <ele>2639.24</ele>
        <time>2017-01-05T10:45:18Z</time>
      </trkpt>
      <trkpt lat="45.08203" lon="6.78241">
        <ele>2640.4</ele>
        <time>2017-01-05T10:45:20Z</time>
      </trkpt>
      <trkpt lat="45.082" lon="6.78255">
        <ele>2641.24</ele>
        <time>2017-01-05T10:45:22Z</time>
      </trkpt>
      <trkpt lat="45.08196" lon="6.7827">
        <ele>2641.51</ele>
        <time>2017-01-05T10:45:24Z</time>
      </trkpt>
      <trkpt lat="45.08193" lon="6.78285">
        <ele>2640.18</ele>
        <time>2017-01-05T10:45:26Z</time>
      </trkpt>
      <trkpt lat="45.08185" lon="6.78311">
        <ele>2633.99</ele>
        <time>2017-01-05T10:45:30Z</time>
      </trkpt>
      <trkpt lat="45.08181" lon="6.78324">
        <ele>2631.17</ele>
        <time>2017-01-05T10:45:32Z</time>
      </trkpt>
      <trkpt lat="45.08175" lon="6.78337">
        <ele>2628.54</ele>
        <time>2017-01-05T10:45:34Z</time>
      </trkpt>
      <trkpt lat="45.08167" lon="6.78353">
        <ele>2626.15</ele>
        <time>2017-01-05T10:45:36Z</time>
      </trkpt>
      <trkpt lat="45.08161" lon="6.78366">
        <ele>2623.84</ele>
        <time>2017-01-05T10:45:38Z</time>
      </trkpt>
      <trkpt lat="45.08146" lon="6.78389">
        <ele>2622.43</ele>
        <time>2017-01-05T10:45:42Z</time>
      </trkpt>
      <trkpt lat="45.08139" lon="6.78403">
        <ele>2621.36</ele>
        <time>2017-01-05T10:45:44Z</time>
      </trkpt>
      <trkpt lat="45.08134" lon="6.78418">
        <ele>2620.22</ele>
        <time>2017-01-05T10:45:46Z</time>
      </trkpt>
      <trkpt lat="45.0813" lon="6.78435">
        <ele>2622.07</ele>
        <time>2017-01-05T10:45:48Z</time>
      </trkpt>
      <trkpt lat="45.08124" lon="6.78454">
        <ele>2623.74</ele>
        <time>2017-01-05T10:45:51Z</time>
      </trkpt>
      <trkpt lat="45.08117" lon="6.78469">
        <ele>2625.3</ele>
        <time>2017-01-05T10:45:54Z</time>
      </trkpt>
      <trkpt lat="45.08111" lon="6.78484">
        <ele>2627.24</ele>
        <time>2017-01-05T10:45:57Z</time>
      </trkpt>
      <trkpt lat="45.08117" lon="6.78508">
        <ele>2629.83</ele>
        <time>2017-01-05T10:46:01Z</time>
      </trkpt>
      <trkpt lat="45.08129" lon="6.7853">
        <ele>2632.29</ele>
        <time>2017-01-05T10:46:05Z</time>
      </trkpt>
      <trkpt lat="45.08132" lon="6.78545">
        <ele>2634.23</ele>
        <time>2017-01-05T10:46:07Z</time>
      </trkpt>
      <trkpt lat="45.08132" lon="6.78565">
        <ele>2635.11</ele>
        <time>2017-01-05T10:46:10Z</time>
      </trkpt>
      <trkpt lat="45.08127" lon="6.78579">
        <ele>2634.55</ele>
        <time>2017-01-05T10:46:13Z</time>
      </trkpt>
      <trkpt lat="45.08115" lon="6.78606">
        <ele>2634.03</ele>
        <time>2017-01-05T10:46:19Z</time>
      </trkpt>
      <trkpt lat="45.08115" lon="6.78621">
        <ele>2633.56</ele>
        <time>2017-01-05T10:46:21Z</time>
      </trkpt>
      <trkpt lat="45.08111" lon="6.78636">
        <ele>2633.1</ele>
        <time>2017-01-05T10:46:23Z</time>
      </trkpt>
      <trkpt lat="45.08108" lon="6.78651">
        <ele>2634.48</ele>
        <time>2017-01-05T10:46:25Z</time>
      </trkpt>
      <trkpt lat="45.08101" lon="6.7868">
        <ele>2639.22</ele>
        <time>2017-01-05T10:46:30Z</time>
      </trkpt>
      <trkpt lat="45.08098" lon="6.7871">
        <ele>2644.36</ele>
        <time>2017-01-05T10:46:34Z</time>
      </trkpt>
      <trkpt lat="45.08099" lon="6.78726">
        <ele>2647.04</ele>
        <time>2017-01-05T10:46:36Z</time>
      </trkpt>
      <trkpt lat="45.08103" lon="6.78741">
        <ele>2649.19</ele>
        <time>2017-01-05T10:46:38Z</time>
      </trkpt>
      <trkpt lat="45.08107" lon="6.78757">
        <ele>2651.41</ele>
        <time>2017-01-05T10:46:40Z</time>
      </trkpt>
      <trkpt lat="45.08113" lon="6.78771">
        <ele>2652.91</ele>
        <time>2017-01-05T10:46:41Z</time>
      </trkpt>
      <trkpt lat="45.08118" lon="6.78783">
        <ele>2652.29</ele>
        <time>2017-01-05T10:46:43Z</time>
      </trkpt>
      <trkpt lat="45.08124" lon="6.78797">
        <ele>2651.79</ele>
        <time>2017-01-05T10:46:45Z</time>
      </trkpt>
      <trkpt lat="45.08126" lon="6.78815">
        <ele>2652.24</ele>
        <time>2017-01-05T10:46:47Z</time>
      </trkpt>
      <trkpt lat="45.08129" lon="6.78829">
        <ele>2652.22</ele>
        <time>2017-01-05T10:46:49Z</time>
      </trkpt>
      <trkpt lat="45.08132" lon="6.78844">
        <ele>2650.37</ele>
        <time>2017-01-05T10:46:52Z</time>
      </trkpt>
      <trkpt lat="45.08134" lon="6.78859">
        <ele>2648.14</ele>
        <time>2017-01-05T10:46:54Z</time>
      </trkpt>
      <trkpt lat="45.08137" lon="6.78886">
        <ele>2645.33</ele>
        <time>2017-01-05T10:46:58Z</time>
      </trkpt>
      <trkpt lat="45.08137" lon="6.789">
        <ele>2644.45</ele>
        <time>2017-01-05T10:47:00Z</time>
      </trkpt>
      <trkpt lat="45.08139" lon="6.78931">
        <ele>2642.1</ele>
        <time>2017-01-05T10:47:05Z</time>
      </trkpt>
      <trkpt lat="45.08139" lon="6.78962">
        <ele>2640.77</ele>
        <time>2017-01-05T10:47:10Z</time>
      </trkpt>
      <trkpt lat="45.08134" lon="6.78988">
        <ele>2642.61</ele>
        <time>2017-01-05T10:47:14Z</time>
      </trkpt>
      <trkpt lat="45.08134" lon="6.79002">
        <ele>2641.61</ele>
        <time>2017-01-05T10:47:16Z</time>
      </trkpt>
      <trkpt lat="45.08133" lon="6.79016">
        <ele>2640.49</ele>
        <time>2017-01-05T10:47:18Z</time>
      </trkpt>
      <trkpt lat="45.08132" lon="6.79032">
        <ele>2639.53</ele>
        <time>2017-01-05T10:47:20Z</time>
      </trkpt>
      <trkpt lat="45.08132" lon="6.79061">
        <ele>2638.86</ele>
        <time>2017-01-05T10:47:24Z</time>
      </trkpt>
      <trkpt lat="45.08132" lon="6.79075">
        <ele>2638.48</ele>
        <time>2017-01-05T10:47:26Z</time>
      </trkpt>
      <trkpt lat="45.08131" lon="6.79093">
        <ele>2639.52</ele>
        <time>2017-01-05T10:47:29Z</time>
      </trkpt>
      <trkpt lat="45.08132" lon="6.7911">
        <ele>2640.46</ele>
        <time>2017-01-05T10:47:32Z</time>
      </trkpt>
      <trkpt lat="45.08132" lon="6.79125">
        <ele>2642.34</ele>
        <time>2017-01-05T10:47:34Z</time>
      </trkpt>
      <trkpt lat="45.08134" lon="6.79151">
        <ele>2645.46</ele>
        <time>2017-01-05T10:47:38Z</time>
      </trkpt>
      <trkpt lat="45.08136" lon="6.79166">
        <ele>2646.46</ele>
        <time>2017-01-05T10:47:40Z</time>
      </trkpt>
      <trkpt lat="45.08137" lon="6.7918">
        <ele>2647.13</ele>
        <time>2017-01-05T10:47:42Z</time>
      </trkpt>
      <trkpt lat="45.08139" lon="6.79195">
        <ele>2646.94</ele>
        <time>2017-01-05T10:47:44Z</time>
      </trkpt>
      <trkpt lat="45.0814" lon="6.79211">
        <ele>2647.01</ele>
        <time>2017-01-05T10:47:46Z</time>
      </trkpt>
      <trkpt lat="45.08141" lon="6.79226">
        <ele>2646.87</ele>
        <time>2017-01-05T10:47:48Z</time>
      </trkpt>
      <trkpt lat="45.08142" lon="6.79241">
        <ele>2646.65</ele>
        <time>2017-01-05T10:47:50Z</time>
      </trkpt>
      <trkpt lat="45.08146" lon="6.79268">
        <ele>2643.68</ele>
        <time>2017-01-05T10:47:54Z</time>
      </trkpt>
      <trkpt lat="45.0815" lon="6.79294">
        <ele>2643.73</ele>
        <time>2017-01-05T10:47:58Z</time>
      </trkpt>
      <trkpt lat="45.08157" lon="6.79318">
        <ele>2645.42</ele>
        <time>2017-01-05T10:48:02Z</time>
      </trkpt>
      <trkpt lat="45.08162" lon="6.79335">
        <ele>2646.86</ele>
        <time>2017-01-05T10:48:05Z</time>
      </trkpt>
      <trkpt lat="45.08172" lon="6.7936">
        <ele>2648.59</ele>
        <time>2017-01-05T10:48:09Z</time>
      </trkpt>
      <trkpt lat="45.0818" lon="6.79372">
        <ele>2647.76</ele>
        <time>2017-01-05T10:48:11Z</time>
      </trkpt>
      <trkpt lat="45.08188" lon="6.79381">
        <ele>2645.98</ele>
        <time>2017-01-05T10:48:13Z</time>
      </trkpt>
      <trkpt lat="45.08198" lon="6.79389">
        <ele>2642.4</ele>
        <time>2017-01-05T10:48:15Z</time>
      </trkpt>
      <trkpt lat="45.08207" lon="6.79396">
        <ele>2639.24</ele>
        <time>2017-01-05T10:48:17Z</time>
      </trkpt>
      <trkpt lat="45.08214" lon="6.79406">
        <ele>2638.4</ele>
        <time>2017-01-05T10:48:20Z</time>
      </trkpt>
      <trkpt lat="45.0822" lon="6.79433">
        <ele>2640.29</ele>
        <time>2017-01-05T10:48:24Z</time>
      </trkpt>
      <trkpt lat="45.08228" lon="6.79459">
        <ele>2638.7</ele>
        <time>2017-01-05T10:48:29Z</time>
      </trkpt>
      <trkpt lat="45.08229" lon="6.79476">
        <ele>2639.85</ele>
        <time>2017-01-05T10:48:32Z</time>
      </trkpt>
      <trkpt lat="45.08231" lon="6.79504">
        <ele>2642.46</ele>
        <time>2017-01-05T10:48:36Z</time>
      </trkpt>
      <trkpt lat="45.08233" lon="6.79519">
        <ele>2641.88</ele>
        <time>2017-01-05T10:48:38Z</time>
      </trkpt>
      <trkpt lat="45.08235" lon="6.79534">
        <ele>2641.1</ele>
        <time>2017-01-05T10:48:40Z</time>
      </trkpt>
      <trkpt lat="45.08239" lon="6.79552">
        <ele>2639.16</ele>
        <time>2017-01-05T10:48:42Z</time>
      </trkpt>
      <trkpt lat="45.08239" lon="6.79571">
        <ele>2638.39</ele>
        <time>2017-01-05T10:48:45Z</time>
      </trkpt>
      <trkpt lat="45.08239" lon="6.79587">
        <ele>2637.98</ele>
        <time>2017-01-05T10:48:47Z</time>
      </trkpt>
      <trkpt lat="45.08239" lon="6.79602">
        <ele>2637.32</ele>
        <time>2017-01-05T10:48:49Z</time>
      </trkpt>
      <trkpt lat="45.08235" lon="6.79629">
        <ele>2639.43</ele>
        <time>2017-01-05T10:48:54Z</time>
      </trkpt>
      <trkpt lat="45.08235" lon="6.79646">
        <ele>2639.69</ele>
        <time>2017-01-05T10:48:56Z</time>
      </trkpt>
      <trkpt lat="45.08235" lon="6.79661">
        <ele>2638.73</ele>
        <time>2017-01-05T10:48:58Z</time>
      </trkpt>
      <trkpt lat="45.08236" lon="6.79678">
        <ele>2639.18</ele>
        <time>2017-01-05T10:49:00Z</time>
      </trkpt>
      <trkpt lat="45.08235" lon="6.79694">
        <ele>2641.14</ele>
        <time>2017-01-05T10:49:02Z</time>
      </trkpt>
      <trkpt lat="45.08235" lon="6.79709">
        <ele>2640.26</ele>
        <time>2017-01-05T10:49:04Z</time>
      </trkpt>
      <trkpt lat="45.08233" lon="6.79727">
        <ele>2639.45</ele>
        <time>2017-01-05T10:49:06Z</time>
      </trkpt>
      <trkpt lat="45.08234" lon="6.79745">
        <ele>2637.82</ele>
        <time>2017-01-05T10:49:08Z</time>
      </trkpt>
      <trkpt lat="45.08234" lon="6.79763">
        <ele>2635.76</ele>
        <time>2017-01-05T10:49:10Z</time>
      </trkpt>
      <trkpt lat="45.08228" lon="6.79775">
        <ele>2637.44</ele>
        <time>2017-01-05T10:49:12Z</time>
      </trkpt>
      <trkpt lat="45.08228" lon="6.79802">
        <ele>2632.47</ele>
        <time>2017-01-05T10:49:17Z</time>
      </trkpt>
      <trkpt lat="45.08226" lon="6.79817">
        <ele>2631.7</ele>
        <time>2017-01-05T10:49:18Z</time>
      </trkpt>
      <trkpt lat="45.08229" lon="6.79833">
        <ele>2628.92</ele>
        <time>2017-01-05T10:49:21Z</time>
      </trkpt>
      <trkpt lat="45.08228" lon="6.79847">
        <ele>2628.08</ele>
        <time>2017-01-05T10:49:22Z</time>
      </trkpt>
      <trkpt lat="45.08226" lon="6.79862">
        <ele>2626.92</ele>
        <time>2017-01-05T10:49:24Z</time>
      </trkpt>
      <trkpt lat="45.08226" lon="6.79878">
        <ele>2625.2</ele>
        <time>2017-01-05T10:49:26Z</time>
      </trkpt>
      <trkpt lat="45.08223" lon="6.79893">
        <ele>2625.16</ele>
        <time>2017-01-05T10:49:45Z</time>
      </trkpt>
      <trkpt lat="45.08219" lon="6.7991">
        <ele>2625.66</ele>
        <time>2017-01-05T10:49:48Z</time>
      </trkpt>
      <trkpt lat="45.08216" lon="6.79929">
        <ele>2625.82</ele>
        <time>2017-01-05T10:49:51Z</time>
      </trkpt>
      <trkpt lat="45.08212" lon="6.79942">
        <ele>2626.58</ele>
        <time>2017-01-05T10:49:53Z</time>
      </trkpt>
      <trkpt lat="45.08201" lon="6.79964">
        <ele>2628.16</ele>
        <time>2017-01-05T10:49:57Z</time>
      </trkpt>
      <trkpt lat="45.08186" lon="6.79988">
        <ele>2628.57</ele>
        <time>2017-01-05T10:50:02Z</time>
      </trkpt>
      <trkpt lat="45.08178" lon="6.79999">
        <ele>2628.07</ele>
        <time>2017-01-05T10:50:05Z</time>
      </trkpt>
      <trkpt lat="45.08166" lon="6.80006">
        <ele>2628.86</ele>
        <time>2017-01-05T10:50:08Z</time>
      </trkpt>
      <trkpt lat="45.08157" lon="6.80015">
        <ele>2625.56</ele>
        <time>2017-01-05T10:50:10Z</time>
      </trkpt>
      <trkpt lat="45.0815" lon="6.80026">
        <ele>2622.07</ele>
        <time>2017-01-05T10:50:12Z</time>
      </trkpt>
      <trkpt lat="45.08144" lon="6.80039">
        <ele>2620.05</ele>
        <time>2017-01-05T10:50:14Z</time>
      </trkpt>
      <trkpt lat="45.08138" lon="6.80064">
        <ele>2616.61</ele>
        <time>2017-01-05T10:50:18Z</time>
      </trkpt>
      <trkpt lat="45.08133" lon="6.8008">
        <ele>2613.86</ele>
        <time>2017-01-05T10:50:21Z</time>
      </trkpt>
      <trkpt lat="45.08131" lon="6.801">
        <ele>2609.96</ele>
        <time>2017-01-05T10:50:24Z</time>
      </trkpt>
      <trkpt lat="45.08138" lon="6.80125">
        <ele>2606.01</ele>
        <time>2017-01-05T10:50:28Z</time>
      </trkpt>
      <trkpt lat="45.08137" lon="6.8014">
        <ele>2604.08</ele>
        <time>2017-01-05T10:50:30Z</time>
      </trkpt>
      <trkpt lat="45.08128" lon="6.80168">
        <ele>2603.58</ele>
        <time>2017-01-05T10:50:34Z</time>
      </trkpt>
      <trkpt lat="45.08125" lon="6.80191">
        <ele>2602.67</ele>
        <time>2017-01-05T10:50:37Z</time>
      </trkpt>
      <trkpt lat="45.08122" lon="6.80206">
        <ele>2602.19</ele>
        <time>2017-01-05T10:50:39Z</time>
      </trkpt>
      <trkpt lat="45.08123" lon="6.80224">
        <ele>2602.11</ele>
        <time>2017-01-05T10:50:41Z</time>
      </trkpt>
      <trkpt lat="45.0812" lon="6.80255">
        <ele>2600.2</ele>
        <time>2017-01-05T10:51:52Z</time>
      </trkpt>
      <trkpt lat="45.0811" lon="6.80233">
        <ele>2600.4</ele>
        <time>2017-01-05T10:51:57Z</time>
      </trkpt>
      <trkpt lat="45.08101" lon="6.80209">
        <ele>2598.15</ele>
        <time>2017-01-05T10:52:02Z</time>
      </trkpt>
      <trkpt lat="45.08092" lon="6.80185">
        <ele>2595.81</ele>
        <time>2017-01-05T10:52:06Z</time>
      </trkpt>
      <trkpt lat="45.08089" lon="6.80172">
        <ele>2594.83</ele>
        <time>2017-01-05T10:52:08Z</time>
      </trkpt>
      <trkpt lat="45.08086" lon="6.80154">
        <ele>2594.44</ele>
        <time>2017-01-05T10:52:11Z</time>
      </trkpt>
      <trkpt lat="45.08083" lon="6.80137">
        <ele>2594.09</ele>
        <time>2017-01-05T10:52:14Z</time>
      </trkpt>
      <trkpt lat="45.08081" lon="6.80115">
        <ele>2594.19</ele>
        <time>2017-01-05T10:52:17Z</time>
      </trkpt>
      <trkpt lat="45.08076" lon="6.80099">
        <ele>2593.17</ele>
        <time>2017-01-05T10:52:20Z</time>
      </trkpt>
      <trkpt lat="45.08073" lon="6.80083">
        <ele>2592.64</ele>
        <time>2017-01-05T10:52:23Z</time>
      </trkpt>
      <trkpt lat="45.08066" lon="6.80071">
        <ele>2590.3</ele>
        <time>2017-01-05T10:52:26Z</time>
      </trkpt>
      <trkpt lat="45.08057" lon="6.80058">
        <ele>2586.71</ele>
        <time>2017-01-05T10:52:29Z</time>
      </trkpt>
      <trkpt lat="45.08048" lon="6.80043">
        <ele>2583.71</ele>
        <time>2017-01-05T10:52:32Z</time>
      </trkpt>
      <trkpt lat="45.0804" lon="6.80018">
        <ele>2581.8</ele>
        <time>2017-01-05T10:52:36Z</time>
      </trkpt>
      <trkpt lat="45.08033" lon="6.80002">
        <ele>2580.42</ele>
        <time>2017-01-05T10:52:39Z</time>
      </trkpt>
      <trkpt lat="45.08022" lon="6.79975">
        <ele>2578.22</ele>
        <time>2017-01-05T10:52:44Z</time>
      </trkpt>
      <trkpt lat="45.08012" lon="6.79962">
        <ele>2576.24</ele>
        <time>2017-01-05T10:52:47Z</time>
      </trkpt>
      <trkpt lat="45.08002" lon="6.79951">
        <ele>2573.88</ele>
        <time>2017-01-05T10:52:50Z</time>
      </trkpt>
      <trkpt lat="45.07994" lon="6.79944">
        <ele>2570.97</ele>
        <time>2017-01-05T10:52:52Z</time>
      </trkpt>
      <trkpt lat="45.07985" lon="6.79937">
        <ele>2568.28</ele>
        <time>2017-01-05T10:52:54Z</time>
      </trkpt>
      <trkpt lat="45.07977" lon="6.79924">
        <ele>2566.75</ele>
        <time>2017-01-05T10:52:57Z</time>
      </trkpt>
      <trkpt lat="45.07967" lon="6.79921">
        <ele>2561.98</ele>
        <time>2017-01-05T10:53:00Z</time>
      </trkpt>
      <trkpt lat="45.07966" lon="6.79936">
        <ele>2558.81</ele>
        <time>2017-01-05T10:53:03Z</time>
      </trkpt>
      <trkpt lat="45.0797" lon="6.79954">
        <ele>2558.63</ele>
        <time>2017-01-05T10:53:06Z</time>
      </trkpt>
      <trkpt lat="45.07985" lon="6.79971">
        <ele>2563.72</ele>
        <time>2017-01-05T10:53:10Z</time>
      </trkpt>
      <trkpt lat="45.07993" lon="6.79994">
        <ele>2563.43</ele>
        <time>2017-01-05T10:53:14Z</time>
      </trkpt>
      <trkpt lat="45.07995" lon="6.80008">
        <ele>2561.58</ele>
        <time>2017-01-05T10:53:16Z</time>
      </trkpt>
      <trkpt lat="45.07995" lon="6.80022">
        <ele>2559.04</ele>
        <time>2017-01-05T10:53:18Z</time>
      </trkpt>
      <trkpt lat="45.07999" lon="6.80048">
        <ele>2555.03</ele>
        <time>2017-01-05T10:53:22Z</time>
      </trkpt>
      <trkpt lat="45.08003" lon="6.80066">
        <ele>2555.1</ele>
        <time>2017-01-05T10:53:25Z</time>
      </trkpt>
      <trkpt lat="45.08007" lon="6.80097">
        <ele>2553.56</ele>
        <time>2017-01-05T10:53:30Z</time>
      </trkpt>
      <trkpt lat="45.08009" lon="6.80123">
        <ele>2553.37</ele>
        <time>2017-01-05T10:53:34Z</time>
      </trkpt>
      <trkpt lat="45.08007" lon="6.8014">
        <ele>2553.08</ele>
        <time>2017-01-05T10:53:38Z</time>
      </trkpt>
      <trkpt lat="45.08003" lon="6.80155">
        <ele>2551.49</ele>
        <time>2017-01-05T10:53:40Z</time>
      </trkpt>
      <trkpt lat="45.08001" lon="6.80181">
        <ele>2550.29</ele>
        <time>2017-01-05T10:53:44Z</time>
      </trkpt>
      <trkpt lat="45.07995" lon="6.80192">
        <ele>2548.05</ele>
        <time>2017-01-05T10:53:46Z</time>
      </trkpt>
      <trkpt lat="45.0799" lon="6.80205">
        <ele>2546.35</ele>
        <time>2017-01-05T10:53:48Z</time>
      </trkpt>
      <trkpt lat="45.07984" lon="6.80219">
        <ele>2544.78</ele>
        <time>2017-01-05T10:53:50Z</time>
      </trkpt>
      <trkpt lat="45.07982" lon="6.80233">
        <ele>2544.03</ele>
        <time>2017-01-05T10:53:52Z</time>
      </trkpt>
      <trkpt lat="45.07977" lon="6.80264">
        <ele>2541.97</ele>
        <time>2017-01-05T10:53:57Z</time>
      </trkpt>
      <trkpt lat="45.07974" lon="6.80282">
        <ele>2539.99</ele>
        <time>2017-01-05T10:54:00Z</time>
      </trkpt>
      <trkpt lat="45.07977" lon="6.80298">
        <ele>2539.14</ele>
        <time>2017-01-05T10:54:03Z</time>
      </trkpt>
      <trkpt lat="45.07984" lon="6.8031">
        <ele>2540.15</ele>
        <time>2017-01-05T10:54:05Z</time>
      </trkpt>
      <trkpt lat="45.07975" lon="6.80333">
        <ele>2536.75</ele>
        <time>2017-01-05T10:54:10Z</time>
      </trkpt>
      <trkpt lat="45.07959" lon="6.8035">
        <ele>2534.02</ele>
        <time>2017-01-05T10:54:14Z</time>
      </trkpt>
      <trkpt lat="45.07951" lon="6.80357">
        <ele>2531.75</ele>
        <time>2017-01-05T10:54:16Z</time>
      </trkpt>
      <trkpt lat="45.07941" lon="6.80362">
        <ele>2529.44</ele>
        <time>2017-01-05T10:54:18Z</time>
      </trkpt>
      <trkpt lat="45.07924" lon="6.80368">
        <ele>2527.4</ele>
        <time>2017-01-05T10:54:22Z</time>
      </trkpt>
      <trkpt lat="45.07906" lon="6.80375">
        <ele>2526.91</ele>
        <time>2017-01-05T10:54:26Z</time>
      </trkpt>
      <trkpt lat="45.07883" lon="6.80384">
        <ele>2526.58</ele>
        <time>2017-01-05T10:54:31Z</time>
      </trkpt>
      <trkpt lat="45.07871" lon="6.8039">
        <ele>2525.98</ele>
        <time>2017-01-05T10:54:35Z</time>
      </trkpt>
      <trkpt lat="45.0786" lon="6.80393">
        <ele>2524.76</ele>
        <time>2017-01-05T10:55:07Z</time>
      </trkpt>
      <trkpt lat="45.0785" lon="6.80393">
        <ele>2521.87</ele>
        <time>2017-01-05T10:55:10Z</time>
      </trkpt>
      <trkpt lat="45.0784" lon="6.80391">
        <ele>2518.46</ele>
        <time>2017-01-05T10:55:12Z</time>
      </trkpt>
      <trkpt lat="45.07816" lon="6.80397">
        <ele>2513.59</ele>
        <time>2017-01-05T10:55:17Z</time>
      </trkpt>
      <trkpt lat="45.07796" lon="6.80402">
        <ele>2510.93</ele>
        <time>2017-01-05T10:55:21Z</time>
      </trkpt>
      <trkpt lat="45.07783" lon="6.80399">
        <ele>2508.5</ele>
        <time>2017-01-05T10:55:24Z</time>
      </trkpt>
      <trkpt lat="45.07772" lon="6.80397">
        <ele>2505.55</ele>
        <time>2017-01-05T10:55:27Z</time>
      </trkpt>
      <trkpt lat="45.0776" lon="6.80395">
        <ele>2501</ele>
        <time>2017-01-05T10:55:33Z</time>
      </trkpt>
      <trkpt lat="45.07767" lon="6.80385">
        <ele>2501.16</ele>
        <time>2017-01-05T10:55:36Z</time>
      </trkpt>
      <trkpt lat="45.07788" lon="6.80374">
        <ele>2502.65</ele>
        <time>2017-01-05T10:55:41Z</time>
      </trkpt>
      <trkpt lat="45.07804" lon="6.80355">
        <ele>2501.65</ele>
        <time>2017-01-05T10:55:46Z</time>
      </trkpt>
      <trkpt lat="45.07815" lon="6.80333">
        <ele>2500.17</ele>
        <time>2017-01-05T10:55:50Z</time>
      </trkpt>
      <trkpt lat="45.0783" lon="6.80311">
        <ele>2496.84</ele>
        <time>2017-01-05T10:55:55Z</time>
      </trkpt>
      <trkpt lat="45.07835" lon="6.80295">
        <ele>2494.41</ele>
        <time>2017-01-05T10:55:58Z</time>
      </trkpt>
      <trkpt lat="45.07828" lon="6.80282">
        <ele>2490.4</ele>
        <time>2017-01-05T10:56:01Z</time>
      </trkpt>
      <trkpt lat="45.07816" lon="6.80282">
        <ele>2487.3</ele>
        <time>2017-01-05T10:56:04Z</time>
      </trkpt>
      <trkpt lat="45.07803" lon="6.80282">
        <ele>2484.46</ele>
        <time>2017-01-05T10:56:07Z</time>
      </trkpt>
      <trkpt lat="45.07791" lon="6.80284">
        <ele>2482.97</ele>
        <time>2017-01-05T10:56:10Z</time>
      </trkpt>
      <trkpt lat="45.07779" lon="6.80287">
        <ele>2481.45</ele>
        <time>2017-01-05T10:56:13Z</time>
      </trkpt>
      <trkpt lat="45.07767" lon="6.80285">
        <ele>2479.86</ele>
        <time>2017-01-05T10:56:16Z</time>
      </trkpt>
      <trkpt lat="45.07754" lon="6.80282">
        <ele>2478.08</ele>
        <time>2017-01-05T10:56:19Z</time>
      </trkpt>
      <trkpt lat="45.07743" lon="6.80283">
        <ele>2475.3</ele>
        <time>2017-01-05T10:56:22Z</time>
      </trkpt>
      <trkpt lat="45.07722" lon="6.80287">
        <ele>2468.86</ele>
        <time>2017-01-05T10:56:28Z</time>
      </trkpt>
      <trkpt lat="45.07711" lon="6.8029">
        <ele>2464.86</ele>
        <time>2017-01-05T10:56:31Z</time>
      </trkpt>
      <trkpt lat="45.07699" lon="6.80296">
        <ele>2461.23</ele>
        <time>2017-01-05T10:56:34Z</time>
      </trkpt>
      <trkpt lat="45.07692" lon="6.8032">
        <ele>2463.84</ele>
        <time>2017-01-05T10:56:38Z</time>
      </trkpt>
      <trkpt lat="45.07682" lon="6.80342">
        <ele>2465.29</ele>
        <time>2017-01-05T10:56:42Z</time>
      </trkpt>
      <trkpt lat="45.07666" lon="6.80363">
        <ele>2463.53</ele>
        <time>2017-01-05T10:56:48Z</time>
      </trkpt>
      <trkpt lat="45.07659" lon="6.80374">
        <ele>2460.72</ele>
        <time>2017-01-05T10:56:50Z</time>
      </trkpt>
      <trkpt lat="45.07655" lon="6.80387">
        <ele>2459.52</ele>
        <time>2017-01-05T10:56:52Z</time>
      </trkpt>
      <trkpt lat="45.07653" lon="6.80401">
        <ele>2458.06</ele>
        <time>2017-01-05T10:56:54Z</time>
      </trkpt>
      <trkpt lat="45.07648" lon="6.80413">
        <ele>2454.77</ele>
        <time>2017-01-05T10:56:56Z</time>
      </trkpt>
      <trkpt lat="45.07642" lon="6.80428">
        <ele>2451.98</ele>
        <time>2017-01-05T10:56:59Z</time>
      </trkpt>
      <trkpt lat="45.07637" lon="6.80456">
        <ele>2451.93</ele>
        <time>2017-01-05T10:57:03Z</time>
      </trkpt>
      <trkpt lat="45.07632" lon="6.80482">
        <ele>2452.75</ele>
        <time>2017-01-05T10:57:07Z</time>
      </trkpt>
      <trkpt lat="45.07624" lon="6.80496">
        <ele>2450.72</ele>
        <time>2017-01-05T10:57:10Z</time>
      </trkpt>
      <trkpt lat="45.07618" lon="6.80522">
        <ele>2448.06</ele>
        <time>2017-01-05T10:57:14Z</time>
      </trkpt>
      <trkpt lat="45.07618" lon="6.80536">
        <ele>2447.43</ele>
        <time>2017-01-05T10:57:16Z</time>
      </trkpt>
      <trkpt lat="45.0762" lon="6.80562">
        <ele>2446.31</ele>
        <time>2017-01-05T10:57:20Z</time>
      </trkpt>
      <trkpt lat="45.07619" lon="6.80581">
        <ele>2443.45</ele>
        <time>2017-01-05T10:57:23Z</time>
      </trkpt>
      <trkpt lat="45.07617" lon="6.806">
        <ele>2438.88</ele>
        <time>2017-01-05T10:57:25Z</time>
      </trkpt>
      <trkpt lat="45.07622" lon="6.80627">
        <ele>2437.12</ele>
        <time>2017-01-05T10:57:29Z</time>
      </trkpt>
      <trkpt lat="45.07621" lon="6.80644">
        <ele>2434.83</ele>
        <time>2017-01-05T10:57:32Z</time>
      </trkpt>
      <trkpt lat="45.07621" lon="6.80658">
        <ele>2434.98</ele>
        <time>2017-01-05T10:57:34Z</time>
      </trkpt>
      <trkpt lat="45.07621" lon="6.80686">
        <ele>2434.47</ele>
        <time>2017-01-05T10:57:38Z</time>
      </trkpt>
      <trkpt lat="45.07621" lon="6.80706">
        <ele>2432.84</ele>
        <time>2017-01-05T10:57:41Z</time>
      </trkpt>
      <trkpt lat="45.07623" lon="6.80724">
        <ele>2432.5</ele>
        <time>2017-01-05T10:57:44Z</time>
      </trkpt>
      <trkpt lat="45.07626" lon="6.80753">
        <ele>2431.58</ele>
        <time>2017-01-05T10:57:48Z</time>
      </trkpt>
      <trkpt lat="45.07623" lon="6.80766">
        <ele>2427.38</ele>
        <time>2017-01-05T10:57:50Z</time>
      </trkpt>
      <trkpt lat="45.07616" lon="6.80777">
        <ele>2421.51</ele>
        <time>2017-01-05T10:57:52Z</time>
      </trkpt>
      <trkpt lat="45.07612" lon="6.80789">
        <ele>2418.16</ele>
        <time>2017-01-05T10:57:54Z</time>
      </trkpt>
      <trkpt lat="45.07611" lon="6.80816">
        <ele>2416.3</ele>
        <time>2017-01-05T10:57:58Z</time>
      </trkpt>
      <trkpt lat="45.07607" lon="6.80848">
        <ele>2412.78</ele>
        <time>2017-01-05T10:58:03Z</time>
      </trkpt>
      <trkpt lat="45.07598" lon="6.80877">
        <ele>2404.74</ele>
        <time>2017-01-05T10:58:08Z</time>
      </trkpt>
      <trkpt lat="45.07602" lon="6.80893">
        <ele>2405</ele>
        <time>2017-01-05T10:58:11Z</time>
      </trkpt>
      <trkpt lat="45.076" lon="6.80921">
        <ele>2401.34</ele>
        <time>2017-01-05T10:58:16Z</time>
      </trkpt>
      <trkpt lat="45.07603" lon="6.80936">
        <ele>2402.06</ele>
        <time>2017-01-05T10:58:18Z</time>
      </trkpt>
      <trkpt lat="45.07607" lon="6.80954">
        <ele>2402.61</ele>
        <time>2017-01-05T10:58:20Z</time>
      </trkpt>
      <trkpt lat="45.07612" lon="6.8097">
        <ele>2403.77</ele>
        <time>2017-01-05T10:58:22Z</time>
      </trkpt>
      <trkpt lat="45.07618" lon="6.80984">
        <ele>2404.87</ele>
        <time>2017-01-05T10:58:24Z</time>
      </trkpt>
      <trkpt lat="45.0762" lon="6.81">
        <ele>2403.62</ele>
        <time>2017-01-05T10:58:26Z</time>
      </trkpt>
      <trkpt lat="45.07621" lon="6.8102">
        <ele>2401.2</ele>
        <time>2017-01-05T10:58:29Z</time>
      </trkpt>
      <trkpt lat="45.07623" lon="6.81036">
        <ele>2400.9</ele>
        <time>2017-01-05T10:58:32Z</time>
      </trkpt>
      <trkpt lat="45.07628" lon="6.81052">
        <ele>2403.64</ele>
        <time>2017-01-05T10:58:36Z</time>
      </trkpt>
      <trkpt lat="45.07628" lon="6.81069">
        <ele>2405.71</ele>
        <time>2017-01-05T10:58:39Z</time>
      </trkpt>
      <trkpt lat="45.07626" lon="6.81097">
        <ele>2409.38</ele>
        <time>2017-01-05T10:58:43Z</time>
      </trkpt>
      <trkpt lat="45.07624" lon="6.81111">
        <ele>2411.2</ele>
        <time>2017-01-05T10:58:45Z</time>
      </trkpt>
      <trkpt lat="45.07615" lon="6.81126">
        <ele>2407.76</ele>
        <time>2017-01-05T10:58:48Z</time>
      </trkpt>
      <trkpt lat="45.07606" lon="6.81135">
        <ele>2404.43</ele>
        <time>2017-01-05T10:58:50Z</time>
      </trkpt>
      <trkpt lat="45.0759" lon="6.81154">
        <ele>2402.09</ele>
        <time>2017-01-05T10:58:54Z</time>
      </trkpt>
      <trkpt lat="45.0758" lon="6.81161">
        <ele>2399.87</ele>
        <time>2017-01-05T10:58:57Z</time>
      </trkpt>
      <trkpt lat="45.0757" lon="6.81167">
        <ele>2396.36</ele>
        <time>2017-01-05T10:58:59Z</time>
      </trkpt>
      <trkpt lat="45.07548" lon="6.8117">
        <ele>2386.65</ele>
        <time>2017-01-05T10:59:02Z</time>
      </trkpt>
      <trkpt lat="45.07537" lon="6.81172">
        <ele>2382.22</ele>
        <time>2017-01-05T10:59:04Z</time>
      </trkpt>
      <trkpt lat="45.07526" lon="6.81176">
        <ele>2378.75</ele>
        <time>2017-01-05T10:59:06Z</time>
      </trkpt>
      <trkpt lat="45.07515" lon="6.81183">
        <ele>2378.22</ele>
        <time>2017-01-05T10:59:08Z</time>
      </trkpt>
      <trkpt lat="45.07504" lon="6.81191">
        <ele>2378.2</ele>
        <time>2017-01-05T10:59:10Z</time>
      </trkpt>
      <trkpt lat="45.07497" lon="6.81204">
        <ele>2379.34</ele>
        <time>2017-01-05T10:59:12Z</time>
      </trkpt>
      <trkpt lat="45.0749" lon="6.81217">
        <ele>2380.37</ele>
        <time>2017-01-05T10:59:14Z</time>
      </trkpt>
      <trkpt lat="45.07483" lon="6.81229">
        <ele>2380.88</ele>
        <time>2017-01-05T10:59:16Z</time>
      </trkpt>
      <trkpt lat="45.07477" lon="6.8124">
        <ele>2380.55</ele>
        <time>2017-01-05T10:59:18Z</time>
      </trkpt>
      <trkpt lat="45.07465" lon="6.81262">
        <ele>2378.61</ele>
        <time>2017-01-05T10:59:22Z</time>
      </trkpt>
      <trkpt lat="45.07458" lon="6.81277">
        <ele>2376.57</ele>
        <time>2017-01-05T10:59:25Z</time>
      </trkpt>
      <trkpt lat="45.07445" lon="6.81302">
        <ele>2373.95</ele>
        <time>2017-01-05T10:59:30Z</time>
      </trkpt>
      <trkpt lat="45.07441" lon="6.8132">
        <ele>2373.07</ele>
        <time>2017-01-05T10:59:33Z</time>
      </trkpt>
      <trkpt lat="45.07435" lon="6.81345">
        <ele>2369.54</ele>
        <time>2017-01-05T10:59:37Z</time>
      </trkpt>
      <trkpt lat="45.07432" lon="6.81362">
        <ele>2367.16</ele>
        <time>2017-01-05T10:59:40Z</time>
      </trkpt>
      <trkpt lat="45.07428" lon="6.81388">
        <ele>2363.65</ele>
        <time>2017-01-05T10:59:44Z</time>
      </trkpt>
      <trkpt lat="45.07423" lon="6.81418">
        <ele>2360.22</ele>
        <time>2017-01-05T10:59:49Z</time>
      </trkpt>
      <trkpt lat="45.07415" lon="6.81444">
        <ele>2356.21</ele>
        <time>2017-01-05T10:59:53Z</time>
      </trkpt>
      <trkpt lat="45.07412" lon="6.81458">
        <ele>2355.71</ele>
        <time>2017-01-05T10:59:55Z</time>
      </trkpt>
      <trkpt lat="45.07406" lon="6.81485">
        <ele>2354.64</ele>
        <time>2017-01-05T10:59:59Z</time>
      </trkpt>
      <trkpt lat="45.07401" lon="6.81511">
        <ele>2353.65</ele>
        <time>2017-01-05T11:00:03Z</time>
      </trkpt>
      <trkpt lat="45.0739" lon="6.81531">
        <ele>2350.28</ele>
        <time>2017-01-05T11:00:07Z</time>
      </trkpt>
      <trkpt lat="45.07385" lon="6.81549">
        <ele>2344.42</ele>
        <time>2017-01-05T11:00:10Z</time>
      </trkpt>
      <trkpt lat="45.07387" lon="6.81566">
        <ele>2340.08</ele>
        <time>2017-01-05T11:00:13Z</time>
      </trkpt>
      <trkpt lat="45.07401" lon="6.81582">
        <ele>2337.79</ele>
        <time>2017-01-05T11:00:17Z</time>
      </trkpt>
      <trkpt lat="45.07412" lon="6.8159">
        <ele>2337.88</ele>
        <time>2017-01-05T11:00:19Z</time>
      </trkpt>
      <trkpt lat="45.07426" lon="6.81606">
        <ele>2333.28</ele>
        <time>2017-01-05T11:00:32Z</time>
      </trkpt>
      <trkpt lat="45.07408" lon="6.81595">
        <ele>2335.91</ele>
        <time>2017-01-05T11:00:40Z</time>
      </trkpt>
      <trkpt lat="45.07397" lon="6.81588">
        <ele>2335.52</ele>
        <time>2017-01-05T11:00:43Z</time>
      </trkpt>
      <trkpt lat="45.07385" lon="6.81582">
        <ele>2335.15</ele>
        <time>2017-01-05T11:00:46Z</time>
      </trkpt>
      <trkpt lat="45.07374" lon="6.81581">
        <ele>2334.84</ele>
        <time>2017-01-05T11:00:50Z</time>
      </trkpt>
      <trkpt lat="45.07364" lon="6.81573">
        <ele>2335.08</ele>
        <time>2017-01-05T11:00:54Z</time>
      </trkpt>
      <trkpt lat="45.07362" lon="6.81555">
        <ele>2336.29</ele>
        <time>2017-01-05T11:00:57Z</time>
      </trkpt>
      <trkpt lat="45.07362" lon="6.81539">
        <ele>2337.36</ele>
        <time>2017-01-05T11:00:58Z</time>
      </trkpt>
      <trkpt lat="45.0736" lon="6.81521">
        <ele>2336.9</ele>
        <time>2017-01-05T11:01:01Z</time>
      </trkpt>
      <trkpt lat="45.0736" lon="6.81504">
        <ele>2335.85</ele>
        <time>2017-01-05T11:01:03Z</time>
      </trkpt>
      <trkpt lat="45.07358" lon="6.81489">
        <ele>2333.24</ele>
        <time>2017-01-05T11:01:05Z</time>
      </trkpt>
      <trkpt lat="45.07358" lon="6.81475">
        <ele>2332.47</ele>
        <time>2017-01-05T11:01:07Z</time>
      </trkpt>
      <trkpt lat="45.07365" lon="6.8146">
        <ele>2334.61</ele>
        <time>2017-01-05T11:01:09Z</time>
      </trkpt>
      <trkpt lat="45.07365" lon="6.81431">
        <ele>2332.91</ele>
        <time>2017-01-05T11:01:12Z</time>
      </trkpt>
      <trkpt lat="45.07361" lon="6.81414">
        <ele>2330.85</ele>
        <time>2017-01-05T11:01:14Z</time>
      </trkpt>
      <trkpt lat="45.07358" lon="6.81399">
        <ele>2328.97</ele>
        <time>2017-01-05T11:01:16Z</time>
      </trkpt>
      <trkpt lat="45.07358" lon="6.81383">
        <ele>2328.39</ele>
        <time>2017-01-05T11:01:18Z</time>
      </trkpt>
      <trkpt lat="45.07357" lon="6.81369">
        <ele>2327.14</ele>
        <time>2017-01-05T11:01:20Z</time>
      </trkpt>
      <trkpt lat="45.07354" lon="6.81352">
        <ele>2324.66</ele>
        <time>2017-01-05T11:01:22Z</time>
      </trkpt>
      <trkpt lat="45.07353" lon="6.81335">
        <ele>2323.66</ele>
        <time>2017-01-05T11:01:24Z</time>
      </trkpt>
      <trkpt lat="45.07353" lon="6.8132">
        <ele>2323.7</ele>
        <time>2017-01-05T11:01:26Z</time>
      </trkpt>
      <trkpt lat="45.07354" lon="6.813">
        <ele>2324.17</ele>
        <time>2017-01-05T11:01:29Z</time>
      </trkpt>
      <trkpt lat="45.07351" lon="6.81284">
        <ele>2320.95</ele>
        <time>2017-01-05T11:01:31Z</time>
      </trkpt>
      <trkpt lat="45.07359" lon="6.81253">
        <ele>2323.81</ele>
        <time>2017-01-05T11:01:36Z</time>
      </trkpt>
      <trkpt lat="45.0736" lon="6.81236">
        <ele>2323.12</ele>
        <time>2017-01-05T11:01:39Z</time>
      </trkpt>
      <trkpt lat="45.07363" lon="6.81218">
        <ele>2323.17</ele>
        <time>2017-01-05T11:01:42Z</time>
      </trkpt>
      <trkpt lat="45.07369" lon="6.81202">
        <ele>2323.5</ele>
        <time>2017-01-05T11:01:45Z</time>
      </trkpt>
      <trkpt lat="45.07376" lon="6.81192">
        <ele>2324.85</ele>
        <time>2017-01-05T11:01:47Z</time>
      </trkpt>
      <trkpt lat="45.07387" lon="6.81169">
        <ele>2324.74</ele>
        <time>2017-01-05T11:01:51Z</time>
      </trkpt>
      <trkpt lat="45.07394" lon="6.81158">
        <ele>2322.8</ele>
        <time>2017-01-05T11:01:53Z</time>
      </trkpt>
      <trkpt lat="45.07404" lon="6.81149">
        <ele>2322.16</ele>
        <time>2017-01-05T11:01:56Z</time>
      </trkpt>
      <trkpt lat="45.07418" lon="6.81127">
        <ele>2320.64</ele>
        <time>2017-01-05T11:02:01Z</time>
      </trkpt>
      <trkpt lat="45.07424" lon="6.811">
        <ele>2317.2</ele>
        <time>2017-01-05T11:02:05Z</time>
      </trkpt>
      <trkpt lat="45.07423" lon="6.81085">
        <ele>2313.77</ele>
        <time>2017-01-05T11:02:07Z</time>
      </trkpt>
      <trkpt lat="45.0742" lon="6.81054">
        <ele>2311.92</ele>
        <time>2017-01-05T11:02:12Z</time>
      </trkpt>
      <trkpt lat="45.07419" lon="6.81039">
        <ele>2312.06</ele>
        <time>2017-01-05T11:02:15Z</time>
      </trkpt>
      <trkpt lat="45.07424" lon="6.81023">
        <ele>2312.84</ele>
        <time>2017-01-05T11:02:18Z</time>
      </trkpt>
      <trkpt lat="45.07428" lon="6.81009">
        <ele>2311.97</ele>
        <time>2017-01-05T11:02:24Z</time>
      </trkpt>
      <trkpt lat="45.07418" lon="6.81004">
        <ele>2308.89</ele>
        <time>2017-01-05T11:02:28Z</time>
      </trkpt>
      <trkpt lat="45.07404" lon="6.81023">
        <ele>2306.92</ele>
        <time>2017-01-05T11:02:33Z</time>
      </trkpt>
      <trkpt lat="45.07402" lon="6.81037">
        <ele>2306.25</ele>
        <time>2017-01-05T11:02:35Z</time>
      </trkpt>
      <trkpt lat="45.07401" lon="6.81063">
        <ele>2305.13</ele>
        <time>2017-01-05T11:02:40Z</time>
      </trkpt>
      <trkpt lat="45.07395" lon="6.81075">
        <ele>2302.11</ele>
        <time>2017-01-05T11:02:43Z</time>
      </trkpt>
      <trkpt lat="45.07388" lon="6.81092">
        <ele>2299.87</ele>
        <time>2017-01-05T11:02:46Z</time>
      </trkpt>
      <trkpt lat="45.07379" lon="6.81115">
        <ele>2300.98</ele>
        <time>2017-01-05T11:02:50Z</time>
      </trkpt>
      <trkpt lat="45.07367" lon="6.81123">
        <ele>2298.72</ele>
        <time>2017-01-05T11:02:53Z</time>
      </trkpt>
      <trkpt lat="45.07356" lon="6.81124">
        <ele>2294.08</ele>
        <time>2017-01-05T11:02:55Z</time>
      </trkpt>
      <trkpt lat="45.07345" lon="6.81145">
        <ele>2293.88</ele>
        <time>2017-01-05T11:02:59Z</time>
      </trkpt>
      <trkpt lat="45.07336" lon="6.81152">
        <ele>2289.96</ele>
        <time>2017-01-05T11:03:01Z</time>
      </trkpt>
      <trkpt lat="45.07326" lon="6.81161">
        <ele>2286.01</ele>
        <time>2017-01-05T11:03:03Z</time>
      </trkpt>
      <trkpt lat="45.07313" lon="6.81164">
        <ele>2279.41</ele>
        <time>2017-01-05T11:03:05Z</time>
      </trkpt>
      <trkpt lat="45.07293" lon="6.81184">
        <ele>2272.62</ele>
        <time>2017-01-05T11:03:10Z</time>
      </trkpt>
      <trkpt lat="45.07283" lon="6.81191">
        <ele>2268.55</ele>
        <time>2017-01-05T11:03:12Z</time>
      </trkpt>
      <trkpt lat="45.0728" lon="6.81207">
        <ele>2267.92</ele>
        <time>2017-01-05T11:03:16Z</time>
      </trkpt>
      <trkpt lat="45.07276" lon="6.81223">
        <ele>2267.5</ele>
        <time>2017-01-05T11:03:20Z</time>
      </trkpt>
      <trkpt lat="45.0728" lon="6.8126">
        <ele>2275.95</ele>
        <time>2017-01-05T11:03:24Z</time>
      </trkpt>
      <trkpt lat="45.07286" lon="6.81272">
        <ele>2280.53</ele>
        <time>2017-01-05T11:03:25Z</time>
      </trkpt>
      <trkpt lat="45.07275" lon="6.8128">
        <ele>2276.64</ele>
        <time>2017-01-05T11:03:27Z</time>
      </trkpt>
      <trkpt lat="45.07269" lon="6.81294">
        <ele>2274.95</ele>
        <time>2017-01-05T11:03:29Z</time>
      </trkpt>
      <trkpt lat="45.07268" lon="6.8132">
        <ele>2275.21</ele>
        <time>2017-01-05T11:03:31Z</time>
      </trkpt>
      <trkpt lat="45.07268" lon="6.81351">
        <ele>2275.96</ele>
        <time>2017-01-05T11:03:36Z</time>
      </trkpt>
      <trkpt lat="45.07271" lon="6.81368">
        <ele>2278.35</ele>
        <time>2017-01-05T11:03:38Z</time>
      </trkpt>
      <trkpt lat="45.07265" lon="6.81379">
        <ele>2274.09</ele>
        <time>2017-01-05T11:03:40Z</time>
      </trkpt>
      <trkpt lat="45.07264" lon="6.81393">
        <ele>2273.49</ele>
        <time>2017-01-05T11:03:42Z</time>
      </trkpt>
      <trkpt lat="45.07261" lon="6.81411">
        <ele>2270.01</ele>
        <time>2017-01-05T11:03:43Z</time>
      </trkpt>
      <trkpt lat="45.07257" lon="6.81425">
        <ele>2267.08</ele>
        <time>2017-01-05T11:03:45Z</time>
      </trkpt>
      <trkpt lat="45.07251" lon="6.81441">
        <ele>2263.64</ele>
        <time>2017-01-05T11:03:47Z</time>
      </trkpt>
      <trkpt lat="45.0724" lon="6.81467">
        <ele>2263.61</ele>
        <time>2017-01-05T11:03:51Z</time>
      </trkpt>
      <trkpt lat="45.07238" lon="6.81481">
        <ele>2265.31</ele>
        <time>2017-01-05T11:03:53Z</time>
      </trkpt>
      <trkpt lat="45.07234" lon="6.815">
        <ele>2265.37</ele>
        <time>2017-01-05T11:03:56Z</time>
      </trkpt>
      <trkpt lat="45.07226" lon="6.81524">
        <ele>2264.53</ele>
        <time>2017-01-05T11:04:00Z</time>
      </trkpt>
      <trkpt lat="45.07214" lon="6.81539">
        <ele>2260.6</ele>
        <time>2017-01-05T11:04:03Z</time>
      </trkpt>
      <trkpt lat="45.07201" lon="6.81557">
        <ele>2257.78</ele>
        <time>2017-01-05T11:04:08Z</time>
      </trkpt>
      <trkpt lat="45.07195" lon="6.81573">
        <ele>2257.55</ele>
        <time>2017-01-05T11:04:10Z</time>
      </trkpt>
      <trkpt lat="45.07185" lon="6.81579">
        <ele>2252.88</ele>
        <time>2017-01-05T11:04:12Z</time>
      </trkpt>
      <trkpt lat="45.07175" lon="6.81606">
        <ele>2252</ele>
        <time>2017-01-05T11:04:16Z</time>
      </trkpt>
      <trkpt lat="45.07166" lon="6.81621">
        <ele>2248.8</ele>
        <time>2017-01-05T11:04:18Z</time>
      </trkpt>
      <trkpt lat="45.07156" lon="6.8164">
        <ele>2244.02</ele>
        <time>2017-01-05T11:04:21Z</time>
      </trkpt>
      <trkpt lat="45.07158" lon="6.81659">
        <ele>2248.92</ele>
        <time>2017-01-05T11:04:23Z</time>
      </trkpt>
      <trkpt lat="45.0715" lon="6.8167">
        <ele>2244.34</ele>
        <time>2017-01-05T11:04:25Z</time>
      </trkpt>
      <trkpt lat="45.07146" lon="6.81685">
        <ele>2243.17</ele>
        <time>2017-01-05T11:04:28Z</time>
      </trkpt>
      <trkpt lat="45.07145" lon="6.817">
        <ele>2244.54</ele>
        <time>2017-01-05T11:04:30Z</time>
      </trkpt>
      <trkpt lat="45.07134" lon="6.81726">
        <ele>2241.63</ele>
        <time>2017-01-05T11:04:34Z</time>
      </trkpt>
      <trkpt lat="45.07128" lon="6.81743">
        <ele>2242.5</ele>
        <time>2017-01-05T11:04:37Z</time>
      </trkpt>
      <trkpt lat="45.07121" lon="6.81756">
        <ele>2241.01</ele>
        <time>2017-01-05T11:04:39Z</time>
      </trkpt>
      <trkpt lat="45.07111" lon="6.81767">
        <ele>2238.5</ele>
        <time>2017-01-05T11:04:42Z</time>
      </trkpt>
      <trkpt lat="45.07094" lon="6.81774">
        <ele>2231.33</ele>
        <time>2017-01-05T11:04:45Z</time>
      </trkpt>
      <trkpt lat="45.07085" lon="6.81786">
        <ele>2228.14</ele>
        <time>2017-01-05T11:04:48Z</time>
      </trkpt>
      <trkpt lat="45.07076" lon="6.81798">
        <ele>2224.54</ele>
        <time>2017-01-05T11:04:51Z</time>
      </trkpt>
      <trkpt lat="45.07068" lon="6.8181">
        <ele>2222.93</ele>
        <time>2017-01-05T11:04:54Z</time>
      </trkpt>
      <trkpt lat="45.0706" lon="6.81818">
        <ele>2220.34</ele>
        <time>2017-01-05T11:04:56Z</time>
      </trkpt>
      <trkpt lat="45.07062" lon="6.81837">
        <ele>2220.25</ele>
        <time>2017-01-05T11:04:59Z</time>
      </trkpt>
      <trkpt lat="45.07074" lon="6.8184">
        <ele>2223.08</ele>
        <time>2017-01-05T11:05:02Z</time>
      </trkpt>
      <trkpt lat="45.07085" lon="6.81839">
        <ele>2226.87</ele>
        <time>2017-01-05T11:05:04Z</time>
      </trkpt>
      <trkpt lat="45.07094" lon="6.81846">
        <ele>2226.26</ele>
        <time>2017-01-05T11:05:06Z</time>
      </trkpt>
      <trkpt lat="45.07103" lon="6.81843">
        <ele>2229.4</ele>
        <time>2017-01-05T11:05:09Z</time>
      </trkpt>
      <trkpt lat="45.07116" lon="6.81841">
        <ele>2231.52</ele>
        <time>2017-01-05T11:05:12Z</time>
      </trkpt>
      <trkpt lat="45.07128" lon="6.81831">
        <ele>2235.23</ele>
        <time>2017-01-05T11:05:14Z</time>
      </trkpt>
      <trkpt lat="45.0715" lon="6.81828">
        <ele>2236.23</ele>
        <time>2017-01-05T11:05:18Z</time>
      </trkpt>
      <trkpt lat="45.07161" lon="6.8183">
        <ele>2234.32</ele>
        <time>2017-01-05T11:05:20Z</time>
      </trkpt>
      <trkpt lat="45.07172" lon="6.81825">
        <ele>2236.18</ele>
        <time>2017-01-05T11:05:23Z</time>
      </trkpt>
      <trkpt lat="45.07181" lon="6.81817">
        <ele>2241.88</ele>
        <time>2017-01-05T11:05:25Z</time>
      </trkpt>
      <trkpt lat="45.07192" lon="6.81811">
        <ele>2247.67</ele>
        <time>2017-01-05T11:05:27Z</time>
      </trkpt>
      <trkpt lat="45.07204" lon="6.81811">
        <ele>2246.58</ele>
        <time>2017-01-05T11:05:29Z</time>
      </trkpt>
      <trkpt lat="45.07223" lon="6.81805">
        <ele>2247.16</ele>
        <time>2017-01-05T11:05:33Z</time>
      </trkpt>
      <trkpt lat="45.07235" lon="6.81806">
        <ele>2241.16</ele>
        <time>2017-01-05T11:05:35Z</time>
      </trkpt>
      <trkpt lat="45.07248" lon="6.818">
        <ele>2241.87</ele>
        <time>2017-01-05T11:05:37Z</time>
      </trkpt>
      <trkpt lat="45.07258" lon="6.81791">
        <ele>2250.45</ele>
        <time>2017-01-05T11:05:39Z</time>
      </trkpt>
      <trkpt lat="45.07269" lon="6.81788">
        <ele>2250.33</ele>
        <time>2017-01-05T11:05:42Z</time>
      </trkpt>
      <trkpt lat="45.07279" lon="6.81781">
        <ele>2255.57</ele>
        <time>2017-01-05T11:05:45Z</time>
      </trkpt>
      <trkpt lat="45.07291" lon="6.81779">
        <ele>2255.12</ele>
        <time>2017-01-05T11:05:48Z</time>
      </trkpt>
      <trkpt lat="45.07302" lon="6.8178">
        <ele>2250.28</ele>
        <time>2017-01-05T11:05:52Z</time>
      </trkpt>
      <trkpt lat="45.07314" lon="6.81774">
        <ele>2253.24</ele>
        <time>2017-01-05T11:05:55Z</time>
      </trkpt>
      <trkpt lat="45.07326" lon="6.81773">
        <ele>2252.38</ele>
        <time>2017-01-05T11:05:57Z</time>
      </trkpt>
      <trkpt lat="45.0734" lon="6.81776">
        <ele>2249.55</ele>
        <time>2017-01-05T11:06:00Z</time>
      </trkpt>
      <trkpt lat="45.07352" lon="6.81779">
        <ele>2246.94</ele>
        <time>2017-01-05T11:06:04Z</time>
      </trkpt>
      <trkpt lat="45.07374" lon="6.81782">
        <ele>2245.77</ele>
        <time>2017-01-05T11:06:10Z</time>
      </trkpt>
      <trkpt lat="45.07386" lon="6.81784">
        <ele>2246.24</ele>
        <time>2017-01-05T11:06:12Z</time>
      </trkpt>
      <trkpt lat="45.07396" lon="6.81786">
        <ele>2245.14</ele>
        <time>2017-01-05T11:06:14Z</time>
      </trkpt>
      <trkpt lat="45.07418" lon="6.81777">
        <ele>2248.44</ele>
        <time>2017-01-05T11:06:20Z</time>
      </trkpt>
      <trkpt lat="45.07438" lon="6.81772">
        <ele>2251.69</ele>
        <time>2017-01-05T11:06:25Z</time>
      </trkpt>
      <trkpt lat="45.07463" lon="6.81781">
        <ele>2246.27</ele>
        <time>2017-01-05T11:06:29Z</time>
      </trkpt>
      <trkpt lat="45.07479" lon="6.8178">
        <ele>2246.53</ele>
        <time>2017-01-05T11:06:31Z</time>
      </trkpt>
      <trkpt lat="45.07493" lon="6.81785">
        <ele>2245.61</ele>
        <time>2017-01-05T11:06:34Z</time>
      </trkpt>
      <trkpt lat="45.07505" lon="6.81794">
        <ele>2242.99</ele>
        <time>2017-01-05T11:06:37Z</time>
      </trkpt>
      <trkpt lat="45.07525" lon="6.81803">
        <ele>2238.48</ele>
        <time>2017-01-05T11:06:40Z</time>
      </trkpt>
      <trkpt lat="45.07541" lon="6.81814">
        <ele>2232.49</ele>
        <time>2017-01-05T11:06:43Z</time>
      </trkpt>
      <trkpt lat="45.07551" lon="6.81816">
        <ele>2231.08</ele>
        <time>2017-01-05T11:06:45Z</time>
      </trkpt>
      <trkpt lat="45.07571" lon="6.81811">
        <ele>2235.64</ele>
        <time>2017-01-05T11:06:49Z</time>
      </trkpt>
      <trkpt lat="45.07589" lon="6.81799">
        <ele>2244.24</ele>
        <time>2017-01-05T11:06:53Z</time>
      </trkpt>
      <trkpt lat="45.07599" lon="6.81794">
        <ele>2248.13</ele>
        <time>2017-01-05T11:06:55Z</time>
      </trkpt>
      <trkpt lat="45.0761" lon="6.81791">
        <ele>2251.39</ele>
        <time>2017-01-05T11:06:57Z</time>
      </trkpt>
      <trkpt lat="45.0762" lon="6.81813">
        <ele>2244.64</ele>
        <time>2017-01-05T11:07:01Z</time>
      </trkpt>
      <trkpt lat="45.07622" lon="6.81829">
        <ele>2239.75</ele>
        <time>2017-01-05T11:07:04Z</time>
      </trkpt>
      <trkpt lat="45.0763" lon="6.81842">
        <ele>2238.93</ele>
        <time>2017-01-05T11:07:07Z</time>
      </trkpt>
      <trkpt lat="45.0764" lon="6.81852">
        <ele>2241.15</ele>
        <time>2017-01-05T11:07:09Z</time>
      </trkpt>
      <trkpt lat="45.07657" lon="6.81869">
        <ele>2243.22</ele>
        <time>2017-01-05T11:07:14Z</time>
      </trkpt>
      <trkpt lat="45.07663" lon="6.81881">
        <ele>2241.98</ele>
        <time>2017-01-05T11:07:17Z</time>
      </trkpt>
      <trkpt lat="45.07667" lon="6.81897">
        <ele>2237.58</ele>
        <time>2017-01-05T11:07:20Z</time>
      </trkpt>
      <trkpt lat="45.07665" lon="6.81925">
        <ele>2227.54</ele>
        <time>2017-01-05T11:07:25Z</time>
      </trkpt>
      <trkpt lat="45.07657" lon="6.81937">
        <ele>2224.17</ele>
        <time>2017-01-05T11:07:28Z</time>
      </trkpt>
      <trkpt lat="45.07647" lon="6.81945">
        <ele>2220.8</ele>
        <time>2017-01-05T11:07:31Z</time>
      </trkpt>
      <trkpt lat="45.0764" lon="6.81956">
        <ele>2218.85</ele>
        <time>2017-01-05T11:07:34Z</time>
      </trkpt>
      <trkpt lat="45.0764" lon="6.81971">
        <ele>2218.19</ele>
        <time>2017-01-05T11:07:37Z</time>
      </trkpt>
      <trkpt lat="45.07643" lon="6.81985">
        <ele>2218.86</ele>
        <time>2017-01-05T11:07:40Z</time>
      </trkpt>
      <trkpt lat="45.07649" lon="6.81998">
        <ele>2220.59</ele>
        <time>2017-01-05T11:07:43Z</time>
      </trkpt>
      <trkpt lat="45.07652" lon="6.82013">
        <ele>2221.31</ele>
        <time>2017-01-05T11:07:46Z</time>
      </trkpt>
      <trkpt lat="45.07649" lon="6.82028">
        <ele>2220.86</ele>
        <time>2017-01-05T11:07:49Z</time>
      </trkpt>
      <trkpt lat="45.07647" lon="6.82044">
        <ele>2218.59</ele>
        <time>2017-01-05T11:07:52Z</time>
      </trkpt>
      <trkpt lat="45.07649" lon="6.8206">
        <ele>2216.36</ele>
        <time>2017-01-05T11:07:55Z</time>
      </trkpt>
      <trkpt lat="45.07647" lon="6.82074">
        <ele>2213.11</ele>
        <time>2017-01-05T11:07:58Z</time>
      </trkpt>
      <trkpt lat="45.07639" lon="6.82083">
        <ele>2213.12</ele>
        <time>2017-01-05T11:08:02Z</time>
      </trkpt>
      <trkpt lat="45.0763" lon="6.82073">
        <ele>2214.17</ele>
        <time>2017-01-05T11:09:31Z</time>
      </trkpt>
      <trkpt lat="45.07612" lon="6.82071">
        <ele>2213.52</ele>
        <time>2017-01-05T12:32:43Z</time>
      </trkpt>
      <trkpt lat="45.07627" lon="6.82086">
        <ele>2211.8</ele>
        <time>2017-01-05T12:32:49Z</time>
      </trkpt>
      <trkpt lat="45.07644" lon="6.82074">
        <ele>2213.59</ele>
        <time>2017-01-05T12:32:56Z</time>
      </trkpt>
      <trkpt lat="45.07642" lon="6.82059">
        <ele>2216.43</ele>
        <time>2017-01-05T12:33:00Z</time>
      </trkpt>
      <trkpt lat="45.07647" lon="6.8203">
        <ele>2220.26</ele>
        <time>2017-01-05T12:33:05Z</time>
      </trkpt>
      <trkpt lat="45.07651" lon="6.82017">
        <ele>2221.17</ele>
        <time>2017-01-05T12:33:07Z</time>
      </trkpt>
      <trkpt lat="45.07648" lon="6.81998">
        <ele>2220.25</ele>
        <time>2017-01-05T12:33:10Z</time>
      </trkpt>
      <trkpt lat="45.07639" lon="6.81984">
        <ele>2218.05</ele>
        <time>2017-01-05T12:33:12Z</time>
      </trkpt>
      <trkpt lat="45.07638" lon="6.81966">
        <ele>2217.84</ele>
        <time>2017-01-05T12:33:15Z</time>
      </trkpt>
      <trkpt lat="45.07643" lon="6.81953">
        <ele>2219.64</ele>
        <time>2017-01-05T12:33:18Z</time>
      </trkpt>
      <trkpt lat="45.07652" lon="6.81945">
        <ele>2221.75</ele>
        <time>2017-01-05T12:33:21Z</time>
      </trkpt>
      <trkpt lat="45.07662" lon="6.81939">
        <ele>2224.74</ele>
        <time>2017-01-05T12:33:24Z</time>
      </trkpt>
      <trkpt lat="45.07666" lon="6.81925">
        <ele>2227.63</ele>
        <time>2017-01-05T12:33:28Z</time>
      </trkpt>
      <trkpt lat="45.07665" lon="6.81899">
        <ele>2236.07</ele>
        <time>2017-01-05T12:33:39Z</time>
      </trkpt>
      <trkpt lat="45.07663" lon="6.81881">
        <ele>2241.95</ele>
        <time>2017-01-05T12:33:42Z</time>
      </trkpt>
      <trkpt lat="45.07657" lon="6.81868">
        <ele>2243.61</ele>
        <time>2017-01-05T12:33:44Z</time>
      </trkpt>
      <trkpt lat="45.07649" lon="6.81853">
        <ele>2243.83</ele>
        <time>2017-01-05T12:33:46Z</time>
      </trkpt>
      <trkpt lat="45.07638" lon="6.81843">
        <ele>2241.06</ele>
        <time>2017-01-05T12:33:49Z</time>
      </trkpt>
      <trkpt lat="45.07629" lon="6.81834">
        <ele>2239.79</ele>
        <time>2017-01-05T12:33:52Z</time>
      </trkpt>
      <trkpt lat="45.07618" lon="6.8181">
        <ele>2245.09</ele>
        <time>2017-01-05T12:33:57Z</time>
      </trkpt>
      <trkpt lat="45.07603" lon="6.81791">
        <ele>2249.91</ele>
        <time>2017-01-05T12:34:03Z</time>
      </trkpt>
      <trkpt lat="45.07592" lon="6.8179">
        <ele>2249.06</ele>
        <time>2017-01-05T12:34:05Z</time>
      </trkpt>
      <trkpt lat="45.07582" lon="6.81794">
        <ele>2245.85</ele>
        <time>2017-01-05T12:34:08Z</time>
      </trkpt>
      <trkpt lat="45.07568" lon="6.81802">
        <ele>2240.07</ele>
        <time>2017-01-05T12:34:11Z</time>
      </trkpt>
      <trkpt lat="45.07558" lon="6.81804">
        <ele>2238.02</ele>
        <time>2017-01-05T12:34:13Z</time>
      </trkpt>
      <trkpt lat="45.07548" lon="6.81804">
        <ele>2237.93</ele>
        <time>2017-01-05T12:34:16Z</time>
      </trkpt>
      <trkpt lat="45.07537" lon="6.81803">
        <ele>2238.11</ele>
        <time>2017-01-05T12:39:18Z</time>
      </trkpt>
      <trkpt lat="45.07515" lon="6.81798">
        <ele>2241.44</ele>
        <time>2017-01-05T12:39:27Z</time>
      </trkpt>
      <trkpt lat="45.07506" lon="6.8179">
        <ele>2244.61</ele>
        <time>2017-01-05T12:39:28Z</time>
      </trkpt>
      <trkpt lat="45.07496" lon="6.81784">
        <ele>2246.54</ele>
        <time>2017-01-05T12:39:30Z</time>
      </trkpt>
      <trkpt lat="45.07486" lon="6.8178">
        <ele>2246.96</ele>
        <time>2017-01-05T12:39:32Z</time>
      </trkpt>
      <trkpt lat="45.07473" lon="6.81773">
        <ele>2248.98</ele>
        <time>2017-01-05T12:39:35Z</time>
      </trkpt>
      <trkpt lat="45.07451" lon="6.81764">
        <ele>2254.4</ele>
        <time>2017-01-05T12:39:40Z</time>
      </trkpt>
      <trkpt lat="45.07435" lon="6.81764">
        <ele>2254.63</ele>
        <time>2017-01-05T12:39:42Z</time>
      </trkpt>
      <trkpt lat="45.07425" lon="6.81772">
        <ele>2251.09</ele>
        <time>2017-01-05T12:39:44Z</time>
      </trkpt>
      <trkpt lat="45.07413" lon="6.81775">
        <ele>2249.7</ele>
        <time>2017-01-05T12:39:46Z</time>
      </trkpt>
      <trkpt lat="45.07401" lon="6.8178">
        <ele>2248.06</ele>
        <time>2017-01-05T12:39:48Z</time>
      </trkpt>
      <trkpt lat="45.07389" lon="6.81781">
        <ele>2248.4</ele>
        <time>2017-01-05T12:39:51Z</time>
      </trkpt>
      <trkpt lat="45.07373" lon="6.81781">
        <ele>2246.39</ele>
        <time>2017-01-05T12:39:53Z</time>
      </trkpt>
      <trkpt lat="45.07359" lon="6.81776">
        <ele>2247.9</ele>
        <time>2017-01-05T12:39:55Z</time>
      </trkpt>
      <trkpt lat="45.07346" lon="6.81777">
        <ele>2248.54</ele>
        <time>2017-01-05T12:39:57Z</time>
      </trkpt>
      <trkpt lat="45.07327" lon="6.81779">
        <ele>2247.97</ele>
        <time>2017-01-05T12:40:14Z</time>
      </trkpt>
      <trkpt lat="45.07316" lon="6.81782">
        <ele>2245.99</ele>
        <time>2017-01-05T12:40:18Z</time>
      </trkpt>
      <trkpt lat="45.07297" lon="6.81785">
        <ele>2246.21</ele>
        <time>2017-01-05T12:40:26Z</time>
      </trkpt>
      <trkpt lat="45.07285" lon="6.81786">
        <ele>2248.27</ele>
        <time>2017-01-05T12:40:29Z</time>
      </trkpt>
      <trkpt lat="45.07268" lon="6.81795">
        <ele>2242.62</ele>
        <time>2017-01-05T12:40:32Z</time>
      </trkpt>
      <trkpt lat="45.07246" lon="6.81804">
        <ele>2238.19</ele>
        <time>2017-01-05T12:40:37Z</time>
      </trkpt>
      <trkpt lat="45.07234" lon="6.8181">
        <ele>2238.39</ele>
        <time>2017-01-05T12:40:39Z</time>
      </trkpt>
      <trkpt lat="45.07222" lon="6.81814">
        <ele>2240.57</ele>
        <time>2017-01-05T12:40:41Z</time>
      </trkpt>
      <trkpt lat="45.07201" lon="6.81819">
        <ele>2239.88</ele>
        <time>2017-01-05T12:40:45Z</time>
      </trkpt>
      <trkpt lat="45.07189" lon="6.8182">
        <ele>2239.76</ele>
        <time>2017-01-05T12:40:48Z</time>
      </trkpt>
      <trkpt lat="45.07178" lon="6.81822">
        <ele>2238.09</ele>
        <time>2017-01-05T12:40:50Z</time>
      </trkpt>
      <trkpt lat="45.07167" lon="6.81823">
        <ele>2237.57</ele>
        <time>2017-01-05T12:40:52Z</time>
      </trkpt>
      <trkpt lat="45.07153" lon="6.81826">
        <ele>2237.01</ele>
        <time>2017-01-05T12:40:55Z</time>
      </trkpt>
      <trkpt lat="45.07144" lon="6.81834">
        <ele>2234.13</ele>
        <time>2017-01-05T12:40:56Z</time>
      </trkpt>
      <trkpt lat="45.07124" lon="6.81843">
        <ele>2231.04</ele>
        <time>2017-01-05T12:40:59Z</time>
      </trkpt>
      <trkpt lat="45.07112" lon="6.81847">
        <ele>2229.7</ele>
        <time>2017-01-05T12:41:02Z</time>
      </trkpt>
      <trkpt lat="45.07101" lon="6.81849">
        <ele>2226.91</ele>
        <time>2017-01-05T12:41:05Z</time>
      </trkpt>
      <trkpt lat="45.07088" lon="6.81849">
        <ele>2224.3</ele>
        <time>2017-01-05T12:41:08Z</time>
      </trkpt>
      <trkpt lat="45.07078" lon="6.81843">
        <ele>2223.54</ele>
        <time>2017-01-05T12:41:11Z</time>
      </trkpt>
      <trkpt lat="45.07068" lon="6.81841">
        <ele>2221.01</ele>
        <time>2017-01-05T12:41:14Z</time>
      </trkpt>
      <trkpt lat="45.07062" lon="6.81827">
        <ele>2221.18</ele>
        <time>2017-01-05T12:41:19Z</time>
      </trkpt>
      <trkpt lat="45.0707" lon="6.81812">
        <ele>2223.81</ele>
        <time>2017-01-05T12:41:22Z</time>
      </trkpt>
      <trkpt lat="45.07079" lon="6.81803">
        <ele>2226.4</ele>
        <time>2017-01-05T12:41:24Z</time>
      </trkpt>
      <trkpt lat="45.07085" lon="6.8179">
        <ele>2228.35</ele>
        <time>2017-01-05T12:41:26Z</time>
      </trkpt>
      <trkpt lat="45.07093" lon="6.8178">
        <ele>2231.55</ele>
        <time>2017-01-05T12:41:28Z</time>
      </trkpt>
      <trkpt lat="45.07104" lon="6.81766">
        <ele>2234.74</ele>
        <time>2017-01-05T12:41:31Z</time>
      </trkpt>
      <trkpt lat="45.07114" lon="6.81744">
        <ele>2236.31</ele>
        <time>2017-01-05T12:41:35Z</time>
      </trkpt>
      <trkpt lat="45.07127" lon="6.81722">
        <ele>2237.78</ele>
        <time>2017-01-05T12:41:39Z</time>
      </trkpt>
      <trkpt lat="45.07133" lon="6.81704">
        <ele>2237.72</ele>
        <time>2017-01-05T12:41:42Z</time>
      </trkpt>
      <trkpt lat="45.07137" lon="6.81687">
        <ele>2237.56</ele>
        <time>2017-01-05T12:41:45Z</time>
      </trkpt>
      <trkpt lat="45.07145" lon="6.81657">
        <ele>2238.83</ele>
        <time>2017-01-05T12:41:50Z</time>
      </trkpt>
      <trkpt lat="45.07153" lon="6.81647">
        <ele>2242.53</ele>
        <time>2017-01-05T12:41:52Z</time>
      </trkpt>
      <trkpt lat="45.07162" lon="6.81633">
        <ele>2247.55</ele>
        <time>2017-01-05T12:41:55Z</time>
      </trkpt>
      <trkpt lat="45.07166" lon="6.81608">
        <ele>2246.86</ele>
        <time>2017-01-05T12:41:57Z</time>
      </trkpt>
      <trkpt lat="45.07171" lon="6.81596">
        <ele>2248.07</ele>
        <time>2017-01-05T12:42:01Z</time>
      </trkpt>
      <trkpt lat="45.0718" lon="6.81586">
        <ele>2251.7</ele>
        <time>2017-01-05T12:42:04Z</time>
      </trkpt>
      <trkpt lat="45.07188" lon="6.81571">
        <ele>2253.38</ele>
        <time>2017-01-05T12:42:07Z</time>
      </trkpt>
      <trkpt lat="45.07194" lon="6.81556">
        <ele>2253.03</ele>
        <time>2017-01-05T12:42:10Z</time>
      </trkpt>
      <trkpt lat="45.072" lon="6.81543">
        <ele>2253.02</ele>
        <time>2017-01-05T12:42:12Z</time>
      </trkpt>
      <trkpt lat="45.07205" lon="6.81531">
        <ele>2252.72</ele>
        <time>2017-01-05T12:42:15Z</time>
      </trkpt>
      <trkpt lat="45.07211" lon="6.81518">
        <ele>2254.07</ele>
        <time>2017-01-05T12:42:18Z</time>
      </trkpt>
      <trkpt lat="45.07215" lon="6.81502">
        <ele>2254.13</ele>
        <time>2017-01-05T12:42:21Z</time>
      </trkpt>
      <trkpt lat="45.07226" lon="6.81486">
        <ele>2258.9</ele>
        <time>2017-01-05T12:42:25Z</time>
      </trkpt>
      <trkpt lat="45.07231" lon="6.8147">
        <ele>2259.74</ele>
        <time>2017-01-05T12:42:29Z</time>
      </trkpt>
      <trkpt lat="45.07236" lon="6.81457">
        <ele>2260.09</ele>
        <time>2017-01-05T12:42:31Z</time>
      </trkpt>
      <trkpt lat="45.07243" lon="6.8143">
        <ele>2259.3</ele>
        <time>2017-01-05T12:42:35Z</time>
      </trkpt>
      <trkpt lat="45.0725" lon="6.81406">
        <ele>2262.61</ele>
        <time>2017-01-05T12:42:39Z</time>
      </trkpt>
      <trkpt lat="45.07254" lon="6.8139">
        <ele>2266.95</ele>
        <time>2017-01-05T12:42:42Z</time>
      </trkpt>
      <trkpt lat="45.0726" lon="6.81376">
        <ele>2271.13</ele>
        <time>2017-01-05T12:42:45Z</time>
      </trkpt>
      <trkpt lat="45.07261" lon="6.81341">
        <ele>2272.3</ele>
        <time>2017-01-05T12:42:50Z</time>
      </trkpt>
      <trkpt lat="45.07267" lon="6.81311">
        <ele>2274.59</ele>
        <time>2017-01-05T12:42:55Z</time>
      </trkpt>
      <trkpt lat="45.07267" lon="6.81296">
        <ele>2273.95</ele>
        <time>2017-01-05T12:42:57Z</time>
      </trkpt>
      <trkpt lat="45.07272" lon="6.8128">
        <ele>2275</ele>
        <time>2017-01-05T12:43:00Z</time>
      </trkpt>
      <trkpt lat="45.07275" lon="6.81253">
        <ele>2272.18</ele>
        <time>2017-01-05T12:43:04Z</time>
      </trkpt>
      <trkpt lat="45.07282" lon="6.81238">
        <ele>2272.98</ele>
        <time>2017-01-05T12:43:07Z</time>
      </trkpt>
      <trkpt lat="45.07285" lon="6.81225">
        <ele>2271.79</ele>
        <time>2017-01-05T12:43:09Z</time>
      </trkpt>
      <trkpt lat="45.07291" lon="6.8121">
        <ele>2273.29</ele>
        <time>2017-01-05T12:43:12Z</time>
      </trkpt>
      <trkpt lat="45.07298" lon="6.81196">
        <ele>2275.55</ele>
        <time>2017-01-05T12:43:16Z</time>
      </trkpt>
      <trkpt lat="45.07306" lon="6.81185">
        <ele>2278.39</ele>
        <time>2017-01-05T12:43:20Z</time>
      </trkpt>
      <trkpt lat="45.07315" lon="6.81177">
        <ele>2282.29</ele>
        <time>2017-01-05T12:43:23Z</time>
      </trkpt>
      <trkpt lat="45.07324" lon="6.81167">
        <ele>2286.14</ele>
        <time>2017-01-05T12:43:26Z</time>
      </trkpt>
      <trkpt lat="45.07334" lon="6.81158">
        <ele>2289.92</ele>
        <time>2017-01-05T12:43:29Z</time>
      </trkpt>
      <trkpt lat="45.07345" lon="6.81149">
        <ele>2295.2</ele>
        <time>2017-01-05T12:43:32Z</time>
      </trkpt>
      <trkpt lat="45.07356" lon="6.81142">
        <ele>2299.13</ele>
        <time>2017-01-05T12:43:35Z</time>
      </trkpt>
      <trkpt lat="45.07365" lon="6.81134">
        <ele>2301.38</ele>
        <time>2017-01-05T12:43:38Z</time>
      </trkpt>
      <trkpt lat="45.07374" lon="6.81127">
        <ele>2302.71</ele>
        <time>2017-01-05T12:43:41Z</time>
      </trkpt>
      <trkpt lat="45.0738" lon="6.81115">
        <ele>2301.28</ele>
        <time>2017-01-05T12:43:43Z</time>
      </trkpt>
      <trkpt lat="45.07385" lon="6.81102">
        <ele>2300.27</ele>
        <time>2017-01-05T12:43:46Z</time>
      </trkpt>
      <trkpt lat="45.07394" lon="6.81092">
        <ele>2302.51</ele>
        <time>2017-01-05T12:43:49Z</time>
      </trkpt>
      <trkpt lat="45.07401" lon="6.81079">
        <ele>2304.24</ele>
        <time>2017-01-05T12:43:52Z</time>
      </trkpt>
      <trkpt lat="45.07397" lon="6.81063">
        <ele>2303.37</ele>
        <time>2017-01-05T12:43:55Z</time>
      </trkpt>
      <trkpt lat="45.07395" lon="6.81048">
        <ele>2303.53</ele>
        <time>2017-01-05T12:43:58Z</time>
      </trkpt>
      <trkpt lat="45.07401" lon="6.81034">
        <ele>2306.26</ele>
        <time>2017-01-05T12:44:01Z</time>
      </trkpt>
      <trkpt lat="45.07409" lon="6.81021">
        <ele>2308.57</ele>
        <time>2017-01-05T12:44:04Z</time>
      </trkpt>
      <trkpt lat="45.07417" lon="6.81009">
        <ele>2309.3</ele>
        <time>2017-01-05T12:44:07Z</time>
      </trkpt>
      <trkpt lat="45.07429" lon="6.81">
        <ele>2311.22</ele>
        <time>2017-01-05T12:44:12Z</time>
      </trkpt>
      <trkpt lat="45.07444" lon="6.80983">
        <ele>2314.73</ele>
        <time>2017-01-05T12:47:42Z</time>
      </trkpt>
      <trkpt lat="45.0745" lon="6.80968">
        <ele>2318.32</ele>
        <time>2017-01-05T12:47:45Z</time>
      </trkpt>
      <trkpt lat="45.07444" lon="6.80955">
        <ele>2315.92</ele>
        <time>2017-01-05T12:47:48Z</time>
      </trkpt>
      <trkpt lat="45.07434" lon="6.80945">
        <ele>2312.26</ele>
        <time>2017-01-05T12:47:51Z</time>
      </trkpt>
      <trkpt lat="45.07424" lon="6.80937">
        <ele>2307.68</ele>
        <time>2017-01-05T12:47:54Z</time>
      </trkpt>
      <trkpt lat="45.07416" lon="6.80923">
        <ele>2304.37</ele>
        <time>2017-01-05T12:47:57Z</time>
      </trkpt>
      <trkpt lat="45.07416" lon="6.80897">
        <ele>2308.31</ele>
        <time>2017-01-05T12:48:02Z</time>
      </trkpt>
      <trkpt lat="45.07414" lon="6.80883">
        <ele>2309.71</ele>
        <time>2017-01-05T12:48:04Z</time>
      </trkpt>
      <trkpt lat="45.07408" lon="6.8087">
        <ele>2308.88</ele>
        <time>2017-01-05T12:48:07Z</time>
      </trkpt>
      <trkpt lat="45.07388" lon="6.80851">
        <ele>2302.38</ele>
        <time>2017-01-05T12:48:13Z</time>
      </trkpt>
      <trkpt lat="45.07391" lon="6.80834">
        <ele>2306.7</ele>
        <time>2017-01-05T12:48:17Z</time>
      </trkpt>
      <trkpt lat="45.07386" lon="6.80821">
        <ele>2306.78</ele>
        <time>2017-01-05T12:48:20Z</time>
      </trkpt>
      <trkpt lat="45.07375" lon="6.80811">
        <ele>2303.68</ele>
        <time>2017-01-05T12:48:22Z</time>
      </trkpt>
      <trkpt lat="45.07366" lon="6.808">
        <ele>2301.9</ele>
        <time>2017-01-05T12:48:24Z</time>
      </trkpt>
      <trkpt lat="45.07359" lon="6.80775">
        <ele>2301.02</ele>
        <time>2017-01-05T12:48:28Z</time>
      </trkpt>
      <trkpt lat="45.07356" lon="6.80761">
        <ele>2299.9</ele>
        <time>2017-01-05T12:48:30Z</time>
      </trkpt>
      <trkpt lat="45.07351" lon="6.80747">
        <ele>2298.23</ele>
        <time>2017-01-05T12:48:32Z</time>
      </trkpt>
      <trkpt lat="45.07347" lon="6.80732">
        <ele>2296.26</ele>
        <time>2017-01-05T12:48:34Z</time>
      </trkpt>
      <trkpt lat="45.07346" lon="6.80716">
        <ele>2295.79</ele>
        <time>2017-01-05T12:48:36Z</time>
      </trkpt>
      <trkpt lat="45.07345" lon="6.80699">
        <ele>2296.2</ele>
        <time>2017-01-05T12:48:38Z</time>
      </trkpt>
      <trkpt lat="45.07342" lon="6.80681">
        <ele>2295.72</ele>
        <time>2017-01-05T12:48:40Z</time>
      </trkpt>
      <trkpt lat="45.07341" lon="6.80666">
        <ele>2295.88</ele>
        <time>2017-01-05T12:48:42Z</time>
      </trkpt>
      <trkpt lat="45.07342" lon="6.80649">
        <ele>2297.01</ele>
        <time>2017-01-05T12:48:44Z</time>
      </trkpt>
      <trkpt lat="45.07346" lon="6.80631">
        <ele>2299.68</ele>
        <time>2017-01-05T12:48:46Z</time>
      </trkpt>
      <trkpt lat="45.07348" lon="6.80612">
        <ele>2302.31</ele>
        <time>2017-01-05T12:48:48Z</time>
      </trkpt>
      <trkpt lat="45.07345" lon="6.80595">
        <ele>2302.2</ele>
        <time>2017-01-05T12:48:50Z</time>
      </trkpt>
      <trkpt lat="45.07342" lon="6.8058">
        <ele>2300.65</ele>
        <time>2017-01-05T12:48:52Z</time>
      </trkpt>
      <trkpt lat="45.07337" lon="6.80563">
        <ele>2296.99</ele>
        <time>2017-01-05T12:48:54Z</time>
      </trkpt>
      <trkpt lat="45.07328" lon="6.80547">
        <ele>2291.78</ele>
        <time>2017-01-05T12:48:56Z</time>
      </trkpt>
      <trkpt lat="45.07322" lon="6.80526">
        <ele>2290.19</ele>
        <time>2017-01-05T12:48:59Z</time>
      </trkpt>
      <trkpt lat="45.07317" lon="6.80512">
        <ele>2290.25</ele>
        <time>2017-01-05T12:49:01Z</time>
      </trkpt>
      <trkpt lat="45.07312" lon="6.80498">
        <ele>2290.41</ele>
        <time>2017-01-05T12:49:03Z</time>
      </trkpt>
      <trkpt lat="45.07309" lon="6.80482">
        <ele>2291.12</ele>
        <time>2017-01-05T12:49:05Z</time>
      </trkpt>
      <trkpt lat="45.07303" lon="6.80467">
        <ele>2290</ele>
        <time>2017-01-05T12:49:08Z</time>
      </trkpt>
      <trkpt lat="45.07292" lon="6.80457">
        <ele>2284.78</ele>
        <time>2017-01-05T12:49:11Z</time>
      </trkpt>
      <trkpt lat="45.07285" lon="6.80442">
        <ele>2282.34</ele>
        <time>2017-01-05T12:49:13Z</time>
      </trkpt>
      <trkpt lat="45.07279" lon="6.80427">
        <ele>2281.58</ele>
        <time>2017-01-05T12:49:15Z</time>
      </trkpt>
      <trkpt lat="45.07276" lon="6.80412">
        <ele>2283.23</ele>
        <time>2017-01-05T12:49:17Z</time>
      </trkpt>
      <trkpt lat="45.07275" lon="6.80395">
        <ele>2285.47</ele>
        <time>2017-01-05T12:49:19Z</time>
      </trkpt>
      <trkpt lat="45.07276" lon="6.8038">
        <ele>2287.62</ele>
        <time>2017-01-05T12:49:21Z</time>
      </trkpt>
      <trkpt lat="45.07275" lon="6.80363">
        <ele>2288.62</ele>
        <time>2017-01-05T12:49:23Z</time>
      </trkpt>
      <trkpt lat="45.07274" lon="6.80346">
        <ele>2288.36</ele>
        <time>2017-01-05T12:49:25Z</time>
      </trkpt>
      <trkpt lat="45.07269" lon="6.80332">
        <ele>2286.05</ele>
        <time>2017-01-05T12:49:27Z</time>
      </trkpt>
      <trkpt lat="45.07254" lon="6.80312">
        <ele>2282.05</ele>
        <time>2017-01-05T12:49:32Z</time>
      </trkpt>
      <trkpt lat="45.07251" lon="6.80297">
        <ele>2282.47</ele>
        <time>2017-01-05T12:49:35Z</time>
      </trkpt>
      <trkpt lat="45.07246" lon="6.80283">
        <ele>2282.45</ele>
        <time>2017-01-05T12:49:38Z</time>
      </trkpt>
      <trkpt lat="45.07242" lon="6.80264">
        <ele>2280.52</ele>
        <time>2017-01-05T12:49:40Z</time>
      </trkpt>
      <trkpt lat="45.07237" lon="6.80249">
        <ele>2278.47</ele>
        <time>2017-01-05T12:49:43Z</time>
      </trkpt>
      <trkpt lat="45.07238" lon="6.80232">
        <ele>2277.03</ele>
        <time>2017-01-05T12:49:46Z</time>
      </trkpt>
      <trkpt lat="45.07247" lon="6.80217">
        <ele>2278.05</ele>
        <time>2017-01-05T12:49:49Z</time>
      </trkpt>
      <trkpt lat="45.07254" lon="6.80205">
        <ele>2276.75</ele>
        <time>2017-01-05T12:49:51Z</time>
      </trkpt>
      <trkpt lat="45.07264" lon="6.80193">
        <ele>2276.54</ele>
        <time>2017-01-05T12:49:54Z</time>
      </trkpt>
      <trkpt lat="45.07283" lon="6.80184">
        <ele>2279.43</ele>
        <time>2017-01-05T12:49:59Z</time>
      </trkpt>
      <trkpt lat="45.07293" lon="6.80173">
        <ele>2279.38</ele>
        <time>2017-01-05T12:50:02Z</time>
      </trkpt>
      <trkpt lat="45.07304" lon="6.80163">
        <ele>2281.41</ele>
        <time>2017-01-05T12:50:05Z</time>
      </trkpt>
      <trkpt lat="45.07324" lon="6.80152">
        <ele>2285.22</ele>
        <time>2017-01-05T12:50:10Z</time>
      </trkpt>
      <trkpt lat="45.07332" lon="6.80142">
        <ele>2283.13</ele>
        <time>2017-01-05T12:50:14Z</time>
      </trkpt>
      <trkpt lat="45.07349" lon="6.80123">
        <ele>2280.16</ele>
        <time>2017-01-05T12:50:19Z</time>
      </trkpt>
      <trkpt lat="45.0736" lon="6.8011">
        <ele>2277</ele>
        <time>2017-01-05T12:50:21Z</time>
      </trkpt>
      <trkpt lat="45.07368" lon="6.80098">
        <ele>2275.45</ele>
        <time>2017-01-05T12:50:23Z</time>
      </trkpt>
      <trkpt lat="45.07379" lon="6.80087">
        <ele>2276.69</ele>
        <time>2017-01-05T12:50:25Z</time>
      </trkpt>
      <trkpt lat="45.07384" lon="6.80074">
        <ele>2274.41</ele>
        <time>2017-01-05T12:50:27Z</time>
      </trkpt>
      <trkpt lat="45.07393" lon="6.80063">
        <ele>2273.82</ele>
        <time>2017-01-05T12:50:30Z</time>
      </trkpt>
      <trkpt lat="45.07406" lon="6.80057">
        <ele>2276.98</ele>
        <time>2017-01-05T12:50:33Z</time>
      </trkpt>
      <trkpt lat="45.07414" lon="6.80049">
        <ele>2276.26</ele>
        <time>2017-01-05T12:50:35Z</time>
      </trkpt>
      <trkpt lat="45.07421" lon="6.80035">
        <ele>2271.63</ele>
        <time>2017-01-05T12:50:37Z</time>
      </trkpt>
      <trkpt lat="45.07426" lon="6.8002">
        <ele>2267.15</ele>
        <time>2017-01-05T12:50:39Z</time>
      </trkpt>
      <trkpt lat="45.07437" lon="6.80009">
        <ele>2267.41</ele>
        <time>2017-01-05T12:50:42Z</time>
      </trkpt>
      <trkpt lat="45.07456" lon="6.79999">
        <ele>2274.9</ele>
        <time>2017-01-05T12:50:46Z</time>
      </trkpt>
      <trkpt lat="45.07454" lon="6.79971">
        <ele>2267.62</ele>
        <time>2017-01-05T12:50:52Z</time>
      </trkpt>
      <trkpt lat="45.0745" lon="6.79956">
        <ele>2263.47</ele>
        <time>2017-01-05T12:50:54Z</time>
      </trkpt>
      <trkpt lat="45.07445" lon="6.7994">
        <ele>2259.83</ele>
        <time>2017-01-05T12:50:56Z</time>
      </trkpt>
      <trkpt lat="45.07437" lon="6.79927">
        <ele>2259.8</ele>
        <time>2017-01-05T12:50:58Z</time>
      </trkpt>
      <trkpt lat="45.07427" lon="6.79905">
        <ele>2258.4</ele>
        <time>2017-01-05T12:51:01Z</time>
      </trkpt>
      <trkpt lat="45.07424" lon="6.7989">
        <ele>2257.05</ele>
        <time>2017-01-05T12:51:04Z</time>
      </trkpt>
      <trkpt lat="45.0743" lon="6.79877">
        <ele>2259.11</ele>
        <time>2017-01-05T12:51:07Z</time>
      </trkpt>
      <trkpt lat="45.07438" lon="6.79867">
        <ele>2261.39</ele>
        <time>2017-01-05T12:51:10Z</time>
      </trkpt>
      <trkpt lat="45.07449" lon="6.7986">
        <ele>2266.37</ele>
        <time>2017-01-05T12:51:13Z</time>
      </trkpt>
      <trkpt lat="45.07456" lon="6.79838">
        <ele>2272.48</ele>
        <time>2017-01-05T12:51:17Z</time>
      </trkpt>
      <trkpt lat="45.0745" lon="6.79824">
        <ele>2270.9</ele>
        <time>2017-01-05T12:51:19Z</time>
      </trkpt>
      <trkpt lat="45.07436" lon="6.79802">
        <ele>2266.94</ele>
        <time>2017-01-05T12:51:23Z</time>
      </trkpt>
      <trkpt lat="45.07427" lon="6.79777">
        <ele>2267.76</ele>
        <time>2017-01-05T12:51:27Z</time>
      </trkpt>
      <trkpt lat="45.07419" lon="6.7976">
        <ele>2268.04</ele>
        <time>2017-01-05T12:51:29Z</time>
      </trkpt>
      <trkpt lat="45.07412" lon="6.79749">
        <ele>2267.32</ele>
        <time>2017-01-05T12:51:31Z</time>
      </trkpt>
      <trkpt lat="45.07402" lon="6.79736">
        <ele>2267.65</ele>
        <time>2017-01-05T12:51:33Z</time>
      </trkpt>
      <trkpt lat="45.07394" lon="6.79725">
        <ele>2267.77</ele>
        <time>2017-01-05T12:51:35Z</time>
      </trkpt>
      <trkpt lat="45.07387" lon="6.79713">
        <ele>2267.04</ele>
        <time>2017-01-05T12:51:37Z</time>
      </trkpt>
      <trkpt lat="45.07377" lon="6.79705">
        <ele>2262.3</ele>
        <time>2017-01-05T12:51:39Z</time>
      </trkpt>
      <trkpt lat="45.07362" lon="6.79686">
        <ele>2255.45</ele>
        <time>2017-01-05T12:51:43Z</time>
      </trkpt>
      <trkpt lat="45.07356" lon="6.79667">
        <ele>2257.48</ele>
        <time>2017-01-05T12:51:47Z</time>
      </trkpt>
      <trkpt lat="45.07351" lon="6.79645">
        <ele>2258.89</ele>
        <time>2017-01-05T12:51:49Z</time>
      </trkpt>
      <trkpt lat="45.07355" lon="6.79625">
        <ele>2261.98</ele>
        <time>2017-01-05T12:51:51Z</time>
      </trkpt>
      <trkpt lat="45.07361" lon="6.79598">
        <ele>2260.87</ele>
        <time>2017-01-05T12:51:55Z</time>
      </trkpt>
      <trkpt lat="45.07369" lon="6.79583">
        <ele>2260.82</ele>
        <time>2017-01-05T12:51:58Z</time>
      </trkpt>
      <trkpt lat="45.07378" lon="6.79576">
        <ele>2263.45</ele>
        <time>2017-01-05T12:52:00Z</time>
      </trkpt>
      <trkpt lat="45.07383" lon="6.79561">
        <ele>2261.5</ele>
        <time>2017-01-05T12:52:02Z</time>
      </trkpt>
      <trkpt lat="45.0739" lon="6.79548">
        <ele>2261.85</ele>
        <time>2017-01-05T12:52:04Z</time>
      </trkpt>
      <trkpt lat="45.074" lon="6.79537">
        <ele>2266.22</ele>
        <time>2017-01-05T12:52:07Z</time>
      </trkpt>
      <trkpt lat="45.07405" lon="6.79523">
        <ele>2267.46</ele>
        <time>2017-01-05T12:52:09Z</time>
      </trkpt>
      <trkpt lat="45.07404" lon="6.79509">
        <ele>2263.67</ele>
        <time>2017-01-05T12:52:11Z</time>
      </trkpt>
      <trkpt lat="45.07392" lon="6.79481">
        <ele>2253.59</ele>
        <time>2017-01-05T12:52:16Z</time>
      </trkpt>
      <trkpt lat="45.07391" lon="6.79466">
        <ele>2254.27</ele>
        <time>2017-01-05T12:52:18Z</time>
      </trkpt>
      <trkpt lat="45.07386" lon="6.79453">
        <ele>2252.97</ele>
        <time>2017-01-05T12:52:20Z</time>
      </trkpt>
      <trkpt lat="45.07382" lon="6.79438">
        <ele>2253.82</ele>
        <time>2017-01-05T12:52:22Z</time>
      </trkpt>
      <trkpt lat="45.0738" lon="6.79423">
        <ele>2255.69</ele>
        <time>2017-01-05T12:52:24Z</time>
      </trkpt>
      <trkpt lat="45.07376" lon="6.79404">
        <ele>2256.94</ele>
        <time>2017-01-05T12:52:26Z</time>
      </trkpt>
      <trkpt lat="45.07374" lon="6.79386">
        <ele>2257.36</ele>
        <time>2017-01-05T12:52:28Z</time>
      </trkpt>
      <trkpt lat="45.07372" lon="6.79372">
        <ele>2258.31</ele>
        <time>2017-01-05T12:52:30Z</time>
      </trkpt>
      <trkpt lat="45.0737" lon="6.79343">
        <ele>2260.67</ele>
        <time>2017-01-05T12:52:33Z</time>
      </trkpt>
      <trkpt lat="45.0737" lon="6.79328">
        <ele>2262.01</ele>
        <time>2017-01-05T12:52:35Z</time>
      </trkpt>
      <trkpt lat="45.07369" lon="6.79314">
        <ele>2262.91</ele>
        <time>2017-01-05T12:52:37Z</time>
      </trkpt>
      <trkpt lat="45.07367" lon="6.79298">
        <ele>2262.51</ele>
        <time>2017-01-05T12:52:39Z</time>
      </trkpt>
      <trkpt lat="45.07362" lon="6.79285">
        <ele>2259.81</ele>
        <time>2017-01-05T12:52:41Z</time>
      </trkpt>
      <trkpt lat="45.07359" lon="6.79271">
        <ele>2256.01</ele>
        <time>2017-01-05T12:52:43Z</time>
      </trkpt>
      <trkpt lat="45.07361" lon="6.79251">
        <ele>2255.29</ele>
        <time>2017-01-05T12:52:46Z</time>
      </trkpt>
      <trkpt lat="45.07362" lon="6.79234">
        <ele>2255.4</ele>
        <time>2017-01-05T12:52:48Z</time>
      </trkpt>
      <trkpt lat="45.07358" lon="6.79215">
        <ele>2253.76</ele>
        <time>2017-01-05T12:52:50Z</time>
      </trkpt>
      <trkpt lat="45.07358" lon="6.79194">
        <ele>2254.86</ele>
        <time>2017-01-05T12:52:52Z</time>
      </trkpt>
      <trkpt lat="45.07358" lon="6.79177">
        <ele>2256.16</ele>
        <time>2017-01-05T12:52:54Z</time>
      </trkpt>
      <trkpt lat="45.07351" lon="6.79161">
        <ele>2253.38</ele>
        <time>2017-01-05T12:52:56Z</time>
      </trkpt>
      <trkpt lat="45.07347" lon="6.79131">
        <ele>2254.74</ele>
        <time>2017-01-05T12:53:00Z</time>
      </trkpt>
      <trkpt lat="45.07344" lon="6.79114">
        <ele>2255.24</ele>
        <time>2017-01-05T12:53:02Z</time>
      </trkpt>
      <trkpt lat="45.07336" lon="6.79103">
        <ele>2252.7</ele>
        <time>2017-01-05T12:53:04Z</time>
      </trkpt>
      <trkpt lat="45.07331" lon="6.79091">
        <ele>2251.48</ele>
        <time>2017-01-05T12:53:06Z</time>
      </trkpt>
      <trkpt lat="45.07327" lon="6.79075">
        <ele>2250.27</ele>
        <time>2017-01-05T12:53:08Z</time>
      </trkpt>
      <trkpt lat="45.07326" lon="6.79057">
        <ele>2250.02</ele>
        <time>2017-01-05T12:53:10Z</time>
      </trkpt>
      <trkpt lat="45.07323" lon="6.79043">
        <ele>2249.4</ele>
        <time>2017-01-05T12:53:12Z</time>
      </trkpt>
      <trkpt lat="45.07318" lon="6.79027">
        <ele>2248.12</ele>
        <time>2017-01-05T12:53:14Z</time>
      </trkpt>
      <trkpt lat="45.07312" lon="6.79015">
        <ele>2247.36</ele>
        <time>2017-01-05T12:53:16Z</time>
      </trkpt>
      <trkpt lat="45.07309" lon="6.79">
        <ele>2249.29</ele>
        <time>2017-01-05T12:53:18Z</time>
      </trkpt>
      <trkpt lat="45.07304" lon="6.78985">
        <ele>2249.74</ele>
        <time>2017-01-05T12:53:20Z</time>
      </trkpt>
      <trkpt lat="45.07301" lon="6.7897">
        <ele>2251.07</ele>
        <time>2017-01-05T12:53:22Z</time>
      </trkpt>
      <trkpt lat="45.07297" lon="6.78953">
        <ele>2251.03</ele>
        <time>2017-01-05T12:53:24Z</time>
      </trkpt>
      <trkpt lat="45.07296" lon="6.78937">
        <ele>2250.93</ele>
        <time>2017-01-05T12:53:26Z</time>
      </trkpt>
      <trkpt lat="45.07295" lon="6.78922">
        <ele>2250.24</ele>
        <time>2017-01-05T12:53:28Z</time>
      </trkpt>
      <trkpt lat="45.07293" lon="6.78905">
        <ele>2249.44</ele>
        <time>2017-01-05T12:53:30Z</time>
      </trkpt>
      <trkpt lat="45.07292" lon="6.78887">
        <ele>2248.91</ele>
        <time>2017-01-05T12:53:32Z</time>
      </trkpt>
      <trkpt lat="45.0729" lon="6.7887">
        <ele>2248.13</ele>
        <time>2017-01-05T12:53:34Z</time>
      </trkpt>
      <trkpt lat="45.07291" lon="6.78853">
        <ele>2247.58</ele>
        <time>2017-01-05T12:53:36Z</time>
      </trkpt>
      <trkpt lat="45.07289" lon="6.78836">
        <ele>2245.6</ele>
        <time>2017-01-05T12:53:38Z</time>
      </trkpt>
      <trkpt lat="45.07288" lon="6.78821">
        <ele>2243.75</ele>
        <time>2017-01-05T12:53:40Z</time>
      </trkpt>
      <trkpt lat="45.07291" lon="6.78801">
        <ele>2243.81</ele>
        <time>2017-01-05T12:53:42Z</time>
      </trkpt>
      <trkpt lat="45.07291" lon="6.78785">
        <ele>2244.57</ele>
        <time>2017-01-05T12:53:44Z</time>
      </trkpt>
      <trkpt lat="45.07297" lon="6.78754">
        <ele>2248.39</ele>
        <time>2017-01-05T12:53:48Z</time>
      </trkpt>
      <trkpt lat="45.07299" lon="6.78737">
        <ele>2248.84</ele>
        <time>2017-01-05T12:53:50Z</time>
      </trkpt>
      <trkpt lat="45.073" lon="6.78722">
        <ele>2249.22</ele>
        <time>2017-01-05T12:53:52Z</time>
      </trkpt>
      <trkpt lat="45.07302" lon="6.78708">
        <ele>2247.72</ele>
        <time>2017-01-05T12:53:54Z</time>
      </trkpt>
      <trkpt lat="45.07304" lon="6.78692">
        <ele>2245.86</ele>
        <time>2017-01-05T12:53:56Z</time>
      </trkpt>
      <trkpt lat="45.07308" lon="6.78678">
        <ele>2244.81</ele>
        <time>2017-01-05T12:53:59Z</time>
      </trkpt>
      <trkpt lat="45.07309" lon="6.78662">
        <ele>2242.55</ele>
        <time>2017-01-05T12:54:01Z</time>
      </trkpt>
      <trkpt lat="45.07315" lon="6.78637">
        <ele>2243.45</ele>
        <time>2017-01-05T12:54:05Z</time>
      </trkpt>
      <trkpt lat="45.07319" lon="6.78619">
        <ele>2244.49</ele>
        <time>2017-01-05T12:54:07Z</time>
      </trkpt>
      <trkpt lat="45.07318" lon="6.78603">
        <ele>2241.93</ele>
        <time>2017-01-05T12:54:09Z</time>
      </trkpt>
      <trkpt lat="45.07323" lon="6.7859">
        <ele>2242.35</ele>
        <time>2017-01-05T12:54:11Z</time>
      </trkpt>
      <trkpt lat="45.07334" lon="6.78569">
        <ele>2243.69</ele>
        <time>2017-01-05T12:54:15Z</time>
      </trkpt>
      <trkpt lat="45.07334" lon="6.78548">
        <ele>2239.93</ele>
        <time>2017-01-05T12:54:17Z</time>
      </trkpt>
      <trkpt lat="45.07336" lon="6.78533">
        <ele>2237.85</ele>
        <time>2017-01-05T12:54:19Z</time>
      </trkpt>
      <trkpt lat="45.07341" lon="6.78506">
        <ele>2234.59</ele>
        <time>2017-01-05T12:54:24Z</time>
      </trkpt>
      <trkpt lat="45.07346" lon="6.78494">
        <ele>2234.47</ele>
        <time>2017-01-05T12:54:26Z</time>
      </trkpt>
      <trkpt lat="45.07355" lon="6.78481">
        <ele>2235.71</ele>
        <time>2017-01-05T12:54:28Z</time>
      </trkpt>
      <trkpt lat="45.07374" lon="6.78468">
        <ele>2241.39</ele>
        <time>2017-01-05T12:54:33Z</time>
      </trkpt>
      <trkpt lat="45.07385" lon="6.78459">
        <ele>2245.01</ele>
        <time>2017-01-05T12:54:36Z</time>
      </trkpt>
      <trkpt lat="45.07391" lon="6.78444">
        <ele>2245.76</ele>
        <time>2017-01-05T12:54:39Z</time>
      </trkpt>
      <trkpt lat="45.07395" lon="6.7843">
        <ele>2243.88</ele>
        <time>2017-01-05T12:54:41Z</time>
      </trkpt>
      <trkpt lat="45.07394" lon="6.78415">
        <ele>2240.28</ele>
        <time>2017-01-05T12:54:43Z</time>
      </trkpt>
      <trkpt lat="45.07398" lon="6.784">
        <ele>2238.46</ele>
        <time>2017-01-05T12:54:45Z</time>
      </trkpt>
      <trkpt lat="45.07405" lon="6.78387">
        <ele>2238.42</ele>
        <time>2017-01-05T12:54:49Z</time>
      </trkpt>
      <trkpt lat="45.07406" lon="6.7837">
        <ele>2235.49</ele>
        <time>2017-01-05T12:54:51Z</time>
      </trkpt>
      <trkpt lat="45.07411" lon="6.78352">
        <ele>2233.26</ele>
        <time>2017-01-05T12:54:54Z</time>
      </trkpt>
      <trkpt lat="45.07419" lon="6.7834">
        <ele>2233.32</ele>
        <time>2017-01-05T12:54:57Z</time>
      </trkpt>
      <trkpt lat="45.07437" lon="6.78325">
        <ele>2236.76</ele>
        <time>2017-01-05T12:55:01Z</time>
      </trkpt>
      <trkpt lat="45.07446" lon="6.78319">
        <ele>2239.3</ele>
        <time>2017-01-05T12:55:03Z</time>
      </trkpt>
      <trkpt lat="45.07456" lon="6.7831">
        <ele>2242.4</ele>
        <time>2017-01-05T12:55:05Z</time>
      </trkpt>
      <trkpt lat="45.0746" lon="6.78282">
        <ele>2238.59</ele>
        <time>2017-01-05T12:55:09Z</time>
      </trkpt>
      <trkpt lat="45.07462" lon="6.78261">
        <ele>2234.05</ele>
        <time>2017-01-05T12:55:11Z</time>
      </trkpt>
      <trkpt lat="45.07468" lon="6.78249">
        <ele>2233.48</ele>
        <time>2017-01-05T12:55:13Z</time>
      </trkpt>
      <trkpt lat="45.07475" lon="6.78239">
        <ele>2234.97</ele>
        <time>2017-01-05T12:55:15Z</time>
      </trkpt>
      <trkpt lat="45.07487" lon="6.7821">
        <ele>2236.18</ele>
        <time>2017-01-05T12:55:20Z</time>
      </trkpt>
      <trkpt lat="45.07503" lon="6.78188">
        <ele>2240.9</ele>
        <time>2017-01-05T12:55:25Z</time>
      </trkpt>
      <trkpt lat="45.07506" lon="6.78174">
        <ele>2239.55</ele>
        <time>2017-01-05T12:55:27Z</time>
      </trkpt>
      <trkpt lat="45.07511" lon="6.78148">
        <ele>2237.86</ele>
        <time>2017-01-05T12:55:31Z</time>
      </trkpt>
      <trkpt lat="45.07514" lon="6.78133">
        <ele>2237.12</ele>
        <time>2017-01-05T12:55:33Z</time>
      </trkpt>
      <trkpt lat="45.07515" lon="6.78119">
        <ele>2235.69</ele>
        <time>2017-01-05T12:55:35Z</time>
      </trkpt>
      <trkpt lat="45.07518" lon="6.78105">
        <ele>2235.88</ele>
        <time>2017-01-05T12:55:37Z</time>
      </trkpt>
      <trkpt lat="45.07523" lon="6.7809">
        <ele>2238.4</ele>
        <time>2017-01-05T12:55:41Z</time>
      </trkpt>
      <trkpt lat="45.07522" lon="6.78068">
        <ele>2235.27</ele>
        <time>2017-01-05T12:55:44Z</time>
      </trkpt>
      <trkpt lat="45.07522" lon="6.7805">
        <ele>2232.81</ele>
        <time>2017-01-05T12:55:46Z</time>
      </trkpt>
      <trkpt lat="45.07521" lon="6.78033">
        <ele>2230.49</ele>
        <time>2017-01-05T12:55:48Z</time>
      </trkpt>
      <trkpt lat="45.0752" lon="6.78018">
        <ele>2230.71</ele>
        <time>2017-01-05T12:55:50Z</time>
      </trkpt>
      <trkpt lat="45.0752" lon="6.77989">
        <ele>2233.82</ele>
        <time>2017-01-05T12:55:54Z</time>
      </trkpt>
      <trkpt lat="45.07523" lon="6.77963">
        <ele>2239.28</ele>
        <time>2017-01-05T12:55:58Z</time>
      </trkpt>
      <trkpt lat="45.07517" lon="6.77948">
        <ele>2239.91</ele>
        <time>2017-01-05T12:56:02Z</time>
      </trkpt>
      <trkpt lat="45.0751" lon="6.77937">
        <ele>2237.51</ele>
        <time>2017-01-05T12:56:04Z</time>
      </trkpt>
      <trkpt lat="45.07502" lon="6.77925">
        <ele>2234.47</ele>
        <time>2017-01-05T12:56:06Z</time>
      </trkpt>
      <trkpt lat="45.07498" lon="6.77912">
        <ele>2233.27</ele>
        <time>2017-01-05T12:56:08Z</time>
      </trkpt>
      <trkpt lat="45.07499" lon="6.77898">
        <ele>2233.99</ele>
        <time>2017-01-05T12:56:10Z</time>
      </trkpt>
      <trkpt lat="45.07498" lon="6.77883">
        <ele>2234.18</ele>
        <time>2017-01-05T12:56:12Z</time>
      </trkpt>
      <trkpt lat="45.07502" lon="6.77866">
        <ele>2236.56</ele>
        <time>2017-01-05T12:56:15Z</time>
      </trkpt>
      <trkpt lat="45.07512" lon="6.77838">
        <ele>2237.42</ele>
        <time>2017-01-05T12:56:19Z</time>
      </trkpt>
      <trkpt lat="45.07519" lon="6.77824">
        <ele>2237.44</ele>
        <time>2017-01-05T12:56:21Z</time>
      </trkpt>
      <trkpt lat="45.07526" lon="6.77808">
        <ele>2235.96</ele>
        <time>2017-01-05T12:56:23Z</time>
      </trkpt>
      <trkpt lat="45.07532" lon="6.77791">
        <ele>2235.4</ele>
        <time>2017-01-05T12:56:25Z</time>
      </trkpt>
      <trkpt lat="45.07533" lon="6.77773">
        <ele>2234.64</ele>
        <time>2017-01-05T12:56:27Z</time>
      </trkpt>
      <trkpt lat="45.07532" lon="6.77756">
        <ele>2233.54</ele>
        <time>2017-01-05T12:56:29Z</time>
      </trkpt>
      <trkpt lat="45.07529" lon="6.77736">
        <ele>2230.62</ele>
        <time>2017-01-05T12:56:31Z</time>
      </trkpt>
      <trkpt lat="45.07527" lon="6.77699">
        <ele>2228.65</ele>
        <time>2017-01-05T12:56:33Z</time>
      </trkpt>
      <trkpt lat="45.07524" lon="6.77685">
        <ele>2227.49</ele>
        <time>2017-01-05T12:57:48Z</time>
      </trkpt>
      <trkpt lat="45.07513" lon="6.77709">
        <ele>2222.71</ele>
        <time>2017-01-05T12:57:54Z</time>
      </trkpt>
      <trkpt lat="45.07508" lon="6.77733">
        <ele>2221.15</ele>
        <time>2017-01-05T12:57:59Z</time>
      </trkpt>
      <trkpt lat="45.0751" lon="6.77748">
        <ele>2223.26</ele>
        <time>2017-01-05T12:58:02Z</time>
      </trkpt>
      <trkpt lat="45.07503" lon="6.77758">
        <ele>2221.13</ele>
        <time>2017-01-05T12:58:04Z</time>
      </trkpt>
      <trkpt lat="45.07493" lon="6.77761">
        <ele>2218.21</ele>
        <time>2017-01-05T12:58:07Z</time>
      </trkpt>
      <trkpt lat="45.07487" lon="6.77747">
        <ele>2215.45</ele>
        <time>2017-01-05T12:58:10Z</time>
      </trkpt>
      <trkpt lat="45.07476" lon="6.77735">
        <ele>2211.97</ele>
        <time>2017-01-05T12:58:14Z</time>
      </trkpt>
      <trkpt lat="45.07464" lon="6.77713">
        <ele>2208.2</ele>
        <time>2017-01-05T12:58:18Z</time>
      </trkpt>
      <trkpt lat="45.07464" lon="6.77685">
        <ele>2208.35</ele>
        <time>2017-01-05T12:58:23Z</time>
      </trkpt>
      <trkpt lat="45.07465" lon="6.77668">
        <ele>2208.86</ele>
        <time>2017-01-05T12:58:27Z</time>
      </trkpt>
      <trkpt lat="45.0745" lon="6.77677">
        <ele>2204.73</ele>
        <time>2017-01-05T12:58:34Z</time>
      </trkpt>
      <trkpt lat="45.07444" lon="6.7769">
        <ele>2203.81</ele>
        <time>2017-01-05T12:58:37Z</time>
      </trkpt>
      <trkpt lat="45.07438" lon="6.77706">
        <ele>2202.59</ele>
        <time>2017-01-05T12:58:40Z</time>
      </trkpt>
      <trkpt lat="45.07432" lon="6.77719">
        <ele>2200.48</ele>
        <time>2017-01-05T12:58:43Z</time>
      </trkpt>
      <trkpt lat="45.07425" lon="6.77732">
        <ele>2198.73</ele>
        <time>2017-01-05T12:58:46Z</time>
      </trkpt>
      <trkpt lat="45.07419" lon="6.77747">
        <ele>2197.36</ele>
        <time>2017-01-05T12:58:49Z</time>
      </trkpt>
      <trkpt lat="45.07412" lon="6.7777">
        <ele>2196.79</ele>
        <time>2017-01-05T12:58:52Z</time>
      </trkpt>
      <trkpt lat="45.07408" lon="6.77787">
        <ele>2194.91</ele>
        <time>2017-01-05T12:58:55Z</time>
      </trkpt>
      <trkpt lat="45.07408" lon="6.77816">
        <ele>2192.84</ele>
        <time>2017-01-05T12:59:00Z</time>
      </trkpt>
      <trkpt lat="45.07406" lon="6.77834">
        <ele>2190.88</ele>
        <time>2017-01-05T12:59:03Z</time>
      </trkpt>
      <trkpt lat="45.074" lon="6.77865">
        <ele>2186.5</ele>
        <time>2017-01-05T12:59:08Z</time>
      </trkpt>
      <trkpt lat="45.07397" lon="6.77883">
        <ele>2184.34</ele>
        <time>2017-01-05T12:59:11Z</time>
      </trkpt>
      <trkpt lat="45.07394" lon="6.779">
        <ele>2180.91</ele>
        <time>2017-01-05T12:59:14Z</time>
      </trkpt>
      <trkpt lat="45.07394" lon="6.77917">
        <ele>2178.07</ele>
        <time>2017-01-05T12:59:17Z</time>
      </trkpt>
      <trkpt lat="45.07406" lon="6.7794">
        <ele>2180.24</ele>
        <time>2017-01-05T12:59:22Z</time>
      </trkpt>
      <trkpt lat="45.07414" lon="6.77957">
        <ele>2180.57</ele>
        <time>2017-01-05T12:59:25Z</time>
      </trkpt>
      <trkpt lat="45.07417" lon="6.7797">
        <ele>2179.31</ele>
        <time>2017-01-05T12:59:27Z</time>
      </trkpt>
      <trkpt lat="45.07417" lon="6.77984">
        <ele>2178.55</ele>
        <time>2017-01-05T12:59:29Z</time>
      </trkpt>
      <trkpt lat="45.07418" lon="6.78016">
        <ele>2177.91</ele>
        <time>2017-01-05T12:59:34Z</time>
      </trkpt>
      <trkpt lat="45.07414" lon="6.78041">
        <ele>2176.24</ele>
        <time>2017-01-05T12:59:38Z</time>
      </trkpt>
      <trkpt lat="45.07411" lon="6.78061">
        <ele>2175.78</ele>
        <time>2017-01-05T12:59:41Z</time>
      </trkpt>
      <trkpt lat="45.07399" lon="6.78086">
        <ele>2174.05</ele>
        <time>2017-01-05T12:59:46Z</time>
      </trkpt>
      <trkpt lat="45.07383" lon="6.78105">
        <ele>2170.59</ele>
        <time>2017-01-05T12:59:51Z</time>
      </trkpt>
      <trkpt lat="45.07377" lon="6.7812">
        <ele>2170.68</ele>
        <time>2017-01-05T12:59:54Z</time>
      </trkpt>
      <trkpt lat="45.07371" lon="6.78132">
        <ele>2169.7</ele>
        <time>2017-01-05T12:59:58Z</time>
      </trkpt>
      <trkpt lat="45.0736" lon="6.78137">
        <ele>2165.44</ele>
        <time>2017-01-05T13:00:01Z</time>
      </trkpt>
      <trkpt lat="45.07348" lon="6.78145">
        <ele>2160.95</ele>
        <time>2017-01-05T13:00:04Z</time>
      </trkpt>
      <trkpt lat="45.07328" lon="6.78163">
        <ele>2156.73</ele>
        <time>2017-01-05T13:00:09Z</time>
      </trkpt>
      <trkpt lat="45.0732" lon="6.78176">
        <ele>2157.05</ele>
        <time>2017-01-05T13:00:12Z</time>
      </trkpt>
      <trkpt lat="45.07316" lon="6.78189">
        <ele>2158.74</ele>
        <time>2017-01-05T13:00:15Z</time>
      </trkpt>
      <trkpt lat="45.0731" lon="6.78219">
        <ele>2162.11</ele>
        <time>2017-01-05T13:00:21Z</time>
      </trkpt>
      <trkpt lat="45.07304" lon="6.78245">
        <ele>2161.72</ele>
        <time>2017-01-05T13:00:26Z</time>
      </trkpt>
      <trkpt lat="45.07296" lon="6.78255">
        <ele>2158.7</ele>
        <time>2017-01-05T13:00:29Z</time>
      </trkpt>
      <trkpt lat="45.07285" lon="6.78261">
        <ele>2154.63</ele>
        <time>2017-01-05T13:00:32Z</time>
      </trkpt>
      <trkpt lat="45.07276" lon="6.78267">
        <ele>2151.54</ele>
        <time>2017-01-05T13:00:35Z</time>
      </trkpt>
      <trkpt lat="45.07264" lon="6.78269">
        <ele>2146.05</ele>
        <time>2017-01-05T13:00:39Z</time>
      </trkpt>
      <trkpt lat="45.07254" lon="6.78272">
        <ele>2141.68</ele>
        <time>2017-01-05T13:00:42Z</time>
      </trkpt>
      <trkpt lat="45.07242" lon="6.78282">
        <ele>2137.47</ele>
        <time>2017-01-05T13:00:45Z</time>
      </trkpt>
      <trkpt lat="45.07232" lon="6.78292">
        <ele>2134.97</ele>
        <time>2017-01-05T13:00:48Z</time>
      </trkpt>
      <trkpt lat="45.07223" lon="6.78304">
        <ele>2134.91</ele>
        <time>2017-01-05T13:00:50Z</time>
      </trkpt>
      <trkpt lat="45.07215" lon="6.78317">
        <ele>2133.85</ele>
        <time>2017-01-05T13:00:53Z</time>
      </trkpt>
      <trkpt lat="45.07206" lon="6.78328">
        <ele>2133.84</ele>
        <time>2017-01-05T13:00:56Z</time>
      </trkpt>
      <trkpt lat="45.07196" lon="6.78341">
        <ele>2134.8</ele>
        <time>2017-01-05T13:00:59Z</time>
      </trkpt>
      <trkpt lat="45.07189" lon="6.78354">
        <ele>2135.97</ele>
        <time>2017-01-05T13:01:02Z</time>
      </trkpt>
      <trkpt lat="45.07179" lon="6.78358">
        <ele>2133.46</ele>
        <time>2017-01-05T13:01:05Z</time>
      </trkpt>
      <trkpt lat="45.07167" lon="6.78357">
        <ele>2128.72</ele>
        <time>2017-01-05T13:01:08Z</time>
      </trkpt>
      <trkpt lat="45.07146" lon="6.78352">
        <ele>2119.09</ele>
        <time>2017-01-05T13:01:14Z</time>
      </trkpt>
      <trkpt lat="45.07134" lon="6.78344">
        <ele>2113.48</ele>
        <time>2017-01-05T13:01:17Z</time>
      </trkpt>
      <trkpt lat="45.07122" lon="6.78341">
        <ele>2109.44</ele>
        <time>2017-01-05T13:01:20Z</time>
      </trkpt>
      <trkpt lat="45.07111" lon="6.7834">
        <ele>2106.31</ele>
        <time>2017-01-05T13:01:23Z</time>
      </trkpt>
      <trkpt lat="45.07098" lon="6.7834">
        <ele>2102.23</ele>
        <time>2017-01-05T13:01:26Z</time>
      </trkpt>
      <trkpt lat="45.07077" lon="6.78336">
        <ele>2095.65</ele>
        <time>2017-01-05T13:01:30Z</time>
      </trkpt>
      <trkpt lat="45.07064" lon="6.78334">
        <ele>2092.18</ele>
        <time>2017-01-05T13:01:33Z</time>
      </trkpt>
      <trkpt lat="45.07049" lon="6.78328">
        <ele>2088.25</ele>
        <time>2017-01-05T13:01:36Z</time>
      </trkpt>
      <trkpt lat="45.07037" lon="6.78327">
        <ele>2086.97</ele>
        <time>2017-01-05T13:01:39Z</time>
      </trkpt>
      <trkpt lat="45.07027" lon="6.78323">
        <ele>2085.47</ele>
        <time>2017-01-05T13:01:42Z</time>
      </trkpt>
      <trkpt lat="45.07009" lon="6.78327">
        <ele>2082.3</ele>
        <time>2017-01-05T13:01:46Z</time>
      </trkpt>
      <trkpt lat="45.06995" lon="6.78327">
        <ele>2079.11</ele>
        <time>2017-01-05T13:01:49Z</time>
      </trkpt>
      <trkpt lat="45.06983" lon="6.78328">
        <ele>2075.35</ele>
        <time>2017-01-05T13:01:52Z</time>
      </trkpt>
      <trkpt lat="45.0697" lon="6.7833">
        <ele>2071.51</ele>
        <time>2017-01-05T13:01:55Z</time>
      </trkpt>
      <trkpt lat="45.06958" lon="6.7833">
        <ele>2067.64</ele>
        <time>2017-01-05T13:01:58Z</time>
      </trkpt>
      <trkpt lat="45.06948" lon="6.78328">
        <ele>2064.2</ele>
        <time>2017-01-05T13:02:00Z</time>
      </trkpt>
      <trkpt lat="45.06925" lon="6.78325">
        <ele>2058.56</ele>
        <time>2017-01-05T13:02:05Z</time>
      </trkpt>
      <trkpt lat="45.06911" lon="6.78325">
        <ele>2056</ele>
        <time>2017-01-05T13:02:08Z</time>
      </trkpt>
      <trkpt lat="45.06896" lon="6.78327">
        <ele>2054.01</ele>
        <time>2017-01-05T13:02:11Z</time>
      </trkpt>
      <trkpt lat="45.06878" lon="6.78334">
        <ele>2052.01</ele>
        <time>2017-01-05T13:02:15Z</time>
      </trkpt>
      <trkpt lat="45.06866" lon="6.78345">
        <ele>2051.01</ele>
        <time>2017-01-05T13:02:18Z</time>
      </trkpt>
      <trkpt lat="45.06862" lon="6.78357">
        <ele>2051.69</ele>
        <time>2017-01-05T13:02:20Z</time>
      </trkpt>
      <trkpt lat="45.06859" lon="6.78373">
        <ele>2052.43</ele>
        <time>2017-01-05T13:02:23Z</time>
      </trkpt>
      <trkpt lat="45.06855" lon="6.78386">
        <ele>2052.61</ele>
        <time>2017-01-05T13:02:25Z</time>
      </trkpt>
      <trkpt lat="45.06847" lon="6.78398">
        <ele>2051.78</ele>
        <time>2017-01-05T13:02:27Z</time>
      </trkpt>
      <trkpt lat="45.06841" lon="6.78414">
        <ele>2051.67</ele>
        <time>2017-01-05T13:02:29Z</time>
      </trkpt>
      <trkpt lat="45.06834" lon="6.78424">
        <ele>2050.82</ele>
        <time>2017-01-05T13:02:31Z</time>
      </trkpt>
      <trkpt lat="45.06828" lon="6.78438">
        <ele>2049.15</ele>
        <time>2017-01-05T13:02:33Z</time>
      </trkpt>
      <trkpt lat="45.06825" lon="6.78454">
        <ele>2048.38</ele>
        <time>2017-01-05T13:02:36Z</time>
      </trkpt>
      <trkpt lat="45.06819" lon="6.78467">
        <ele>2046.61</ele>
        <time>2017-01-05T13:02:38Z</time>
      </trkpt>
      <trkpt lat="45.06815" lon="6.7848">
        <ele>2044.96</ele>
        <time>2017-01-05T13:02:39Z</time>
      </trkpt>
      <trkpt lat="45.06807" lon="6.78491">
        <ele>2042.74</ele>
        <time>2017-01-05T13:02:41Z</time>
      </trkpt>
      <trkpt lat="45.06803" lon="6.78507">
        <ele>2041.64</ele>
        <time>2017-01-05T13:02:44Z</time>
      </trkpt>
      <trkpt lat="45.06799" lon="6.78523">
        <ele>2041.38</ele>
        <time>2017-01-05T13:02:47Z</time>
      </trkpt>
      <trkpt lat="45.06793" lon="6.78549">
        <ele>2039.45</ele>
        <time>2017-01-05T13:02:52Z</time>
      </trkpt>
      <trkpt lat="45.06796" lon="6.78564">
        <ele>2039.02</ele>
        <time>2017-01-05T13:02:55Z</time>
      </trkpt>
      <trkpt lat="45.06804" lon="6.78574">
        <ele>2039.67</ele>
        <time>2017-01-05T13:02:57Z</time>
      </trkpt>
      <trkpt lat="45.06806" lon="6.78591">
        <ele>2038.58</ele>
        <time>2017-01-05T13:03:00Z</time>
      </trkpt>
      <trkpt lat="45.068" lon="6.78604">
        <ele>2036.51</ele>
        <time>2017-01-05T13:03:03Z</time>
      </trkpt>
      <trkpt lat="45.06791" lon="6.78613">
        <ele>2034.51</ele>
        <time>2017-01-05T13:03:05Z</time>
      </trkpt>
      <trkpt lat="45.06781" lon="6.78622">
        <ele>2033.64</ele>
        <time>2017-01-05T13:03:09Z</time>
      </trkpt>
      <trkpt lat="45.06772" lon="6.78629">
        <ele>2032.78</ele>
        <time>2017-01-05T13:03:11Z</time>
      </trkpt>
      <trkpt lat="45.06756" lon="6.78642">
        <ele>2030.23</ele>
        <time>2017-01-05T13:03:15Z</time>
      </trkpt>
      <trkpt lat="45.06743" lon="6.78661">
        <ele>2026.66</ele>
        <time>2017-01-05T13:03:20Z</time>
      </trkpt>
      <trkpt lat="45.0673" lon="6.78685">
        <ele>2019.95</ele>
        <time>2017-01-05T13:03:25Z</time>
      </trkpt>
      <trkpt lat="45.06724" lon="6.78698">
        <ele>2016.87</ele>
        <time>2017-01-05T13:03:27Z</time>
      </trkpt>
      <trkpt lat="45.06722" lon="6.78713">
        <ele>2016.6</ele>
        <time>2017-01-05T13:03:30Z</time>
      </trkpt>
      <trkpt lat="45.06718" lon="6.78728">
        <ele>2015.62</ele>
        <time>2017-01-05T13:03:32Z</time>
      </trkpt>
      <trkpt lat="45.06716" lon="6.78744">
        <ele>2015.66</ele>
        <time>2017-01-05T13:03:35Z</time>
      </trkpt>
      <trkpt lat="45.06715" lon="6.78763">
        <ele>2014.96</ele>
        <time>2017-01-05T13:03:38Z</time>
      </trkpt>
      <trkpt lat="45.0672" lon="6.78784">
        <ele>2016.48</ele>
        <time>2017-01-05T13:03:41Z</time>
      </trkpt>
      <trkpt lat="45.06706" lon="6.78784">
        <ele>2010.34</ele>
        <time>2017-01-05T13:03:48Z</time>
      </trkpt>
      <trkpt lat="45.06706" lon="6.78767">
        <ele>2010.93</ele>
        <time>2017-01-05T13:03:51Z</time>
      </trkpt>
      <trkpt lat="45.06704" lon="6.7875">
        <ele>2010.32</ele>
        <time>2017-01-05T13:03:54Z</time>
      </trkpt>
      <trkpt lat="45.067" lon="6.78731">
        <ele>2008.28</ele>
        <time>2017-01-05T13:03:57Z</time>
      </trkpt>
      <trkpt lat="45.06695" lon="6.78713">
        <ele>2006.64</ele>
        <time>2017-01-05T13:04:00Z</time>
      </trkpt>
      <trkpt lat="45.06695" lon="6.78698">
        <ele>2006.98</ele>
        <time>2017-01-05T13:04:02Z</time>
      </trkpt>
      <trkpt lat="45.06685" lon="6.78675">
        <ele>2005.34</ele>
        <time>2017-01-05T13:04:06Z</time>
      </trkpt>
      <trkpt lat="45.06675" lon="6.78652">
        <ele>2004.18</ele>
        <time>2017-01-05T13:04:10Z</time>
      </trkpt>
      <trkpt lat="45.06666" lon="6.78628">
        <ele>2001.86</ele>
        <time>2017-01-05T13:04:14Z</time>
      </trkpt>
      <trkpt lat="45.06663" lon="6.78614">
        <ele>2001.14</ele>
        <time>2017-01-05T13:04:16Z</time>
      </trkpt>
      <trkpt lat="45.06652" lon="6.78591">
        <ele>1996.04</ele>
        <time>2017-01-05T13:04:20Z</time>
      </trkpt>
      <trkpt lat="45.06646" lon="6.78575">
        <ele>1994.05</ele>
        <time>2017-01-05T13:04:23Z</time>
      </trkpt>
      <trkpt lat="45.06635" lon="6.78563">
        <ele>1989.24</ele>
        <time>2017-01-05T13:04:25Z</time>
      </trkpt>
      <trkpt lat="45.06628" lon="6.7855">
        <ele>1984.69</ele>
        <time>2017-01-05T13:04:27Z</time>
      </trkpt>
      <trkpt lat="45.0662" lon="6.78536">
        <ele>1979.77</ele>
        <time>2017-01-05T13:04:30Z</time>
      </trkpt>
      <trkpt lat="45.06622" lon="6.78521">
        <ele>1980.24</ele>
        <time>2017-01-05T13:04:32Z</time>
      </trkpt>
      <trkpt lat="45.06623" lon="6.78503">
        <ele>1980.69</ele>
        <time>2017-01-05T13:04:34Z</time>
      </trkpt>
      <trkpt lat="45.06626" lon="6.78485">
        <ele>1981.15</ele>
        <time>2017-01-05T13:04:36Z</time>
      </trkpt>
      <trkpt lat="45.06621" lon="6.78468">
        <ele>1980.28</ele>
        <time>2017-01-05T13:04:38Z</time>
      </trkpt>
      <trkpt lat="45.06616" lon="6.7845">
        <ele>1979.69</ele>
        <time>2017-01-05T13:04:40Z</time>
      </trkpt>
      <trkpt lat="45.06614" lon="6.78432">
        <ele>1978.65</ele>
        <time>2017-01-05T13:04:42Z</time>
      </trkpt>
      <trkpt lat="45.06611" lon="6.78414">
        <ele>1976.5</ele>
        <time>2017-01-05T13:04:44Z</time>
      </trkpt>
      <trkpt lat="45.06619" lon="6.78389">
        <ele>1974.9</ele>
        <time>2017-01-05T13:04:48Z</time>
      </trkpt>
      <trkpt lat="45.06627" lon="6.78381">
        <ele>1975.75</ele>
        <time>2017-01-05T13:04:50Z</time>
      </trkpt>
      <trkpt lat="45.06637" lon="6.78358">
        <ele>1974.86</ele>
        <time>2017-01-05T13:04:54Z</time>
      </trkpt>
      <trkpt lat="45.06639" lon="6.78331">
        <ele>1969.2</ele>
        <time>2017-01-05T13:05:02Z</time>
      </trkpt>
      <trkpt lat="45.06629" lon="6.78343">
        <ele>1969.59</ele>
        <time>2017-01-05T13:05:04Z</time>
      </trkpt>
      <trkpt lat="45.06611" lon="6.78358">
        <ele>1967.51</ele>
        <time>2017-01-05T13:05:08Z</time>
      </trkpt>
      <trkpt lat="45.06602" lon="6.78367">
        <ele>1966.26</ele>
        <time>2017-01-05T13:05:10Z</time>
      </trkpt>
      <trkpt lat="45.06592" lon="6.78381">
        <ele>1966.03</ele>
        <time>2017-01-05T13:05:13Z</time>
      </trkpt>
      <trkpt lat="45.06585" lon="6.78392">
        <ele>1965.72</ele>
        <time>2017-01-05T13:05:16Z</time>
      </trkpt>
      <trkpt lat="45.06576" lon="6.78404">
        <ele>1963.03</ele>
        <time>2017-01-05T13:05:19Z</time>
      </trkpt>
      <trkpt lat="45.06569" lon="6.78415">
        <ele>1960.62</ele>
        <time>2017-01-05T13:05:21Z</time>
      </trkpt>
      <trkpt lat="45.0656" lon="6.78439">
        <ele>1957.62</ele>
        <time>2017-01-05T13:05:27Z</time>
      </trkpt>
      <trkpt lat="45.06555" lon="6.78452">
        <ele>1955.98</ele>
        <time>2017-01-05T13:05:29Z</time>
      </trkpt>
      <trkpt lat="45.06554" lon="6.78468">
        <ele>1955.95</ele>
        <time>2017-01-05T13:05:32Z</time>
      </trkpt>
      <trkpt lat="45.0655" lon="6.78481">
        <ele>1953.98</ele>
        <time>2017-01-05T13:05:34Z</time>
      </trkpt>
      <trkpt lat="45.06547" lon="6.785">
        <ele>1952.49</ele>
        <time>2017-01-05T13:05:36Z</time>
      </trkpt>
      <trkpt lat="45.06537" lon="6.78532">
        <ele>1949.69</ele>
        <time>2017-01-05T13:05:38Z</time>
      </trkpt>
      <trkpt lat="45.06536" lon="6.78549">
        <ele>1948.42</ele>
        <time>2017-01-05T13:06:45Z</time>
      </trkpt>
      <trkpt lat="45.06531" lon="6.78579">
        <ele>1943.74</ele>
        <time>2017-01-05T13:06:52Z</time>
      </trkpt>
      <trkpt lat="45.06524" lon="6.7859">
        <ele>1939.5</ele>
        <time>2017-01-05T13:06:54Z</time>
      </trkpt>
      <trkpt lat="45.06519" lon="6.78604">
        <ele>1935.49</ele>
        <time>2017-01-05T13:06:56Z</time>
      </trkpt>
      <trkpt lat="45.06525" lon="6.78617">
        <ele>1936.99</ele>
        <time>2017-01-05T13:06:58Z</time>
      </trkpt>
      <trkpt lat="45.06528" lon="6.78633">
        <ele>1936.78</ele>
        <time>2017-01-05T13:07:01Z</time>
      </trkpt>
      <trkpt lat="45.06528" lon="6.78653">
        <ele>1936.1</ele>
        <time>2017-01-05T13:07:04Z</time>
      </trkpt>
      <trkpt lat="45.06532" lon="6.78679">
        <ele>1936.22</ele>
        <time>2017-01-05T13:07:09Z</time>
      </trkpt>
      <trkpt lat="45.06527" lon="6.78695">
        <ele>1931.57</ele>
        <time>2017-01-05T13:07:11Z</time>
      </trkpt>
      <trkpt lat="45.06527" lon="6.7871">
        <ele>1928.85</ele>
        <time>2017-01-05T13:07:13Z</time>
      </trkpt>
      <trkpt lat="45.06525" lon="6.78725">
        <ele>1925.59</ele>
        <time>2017-01-05T13:07:15Z</time>
      </trkpt>
      <trkpt lat="45.06525" lon="6.78743">
        <ele>1924.63</ele>
        <time>2017-01-05T13:07:17Z</time>
      </trkpt>
      <trkpt lat="45.06523" lon="6.78775">
        <ele>1924.16</ele>
        <time>2017-01-05T13:07:20Z</time>
      </trkpt>
      <trkpt lat="45.06522" lon="6.78796">
        <ele>1926.13</ele>
        <time>2017-01-05T13:07:22Z</time>
      </trkpt>
      <trkpt lat="45.06518" lon="6.78814">
        <ele>1926.79</ele>
        <time>2017-01-05T13:07:25Z</time>
      </trkpt>
      <trkpt lat="45.06515" lon="6.78831">
        <ele>1928.01</ele>
        <time>2017-01-05T13:07:28Z</time>
      </trkpt>
      <trkpt lat="45.06511" lon="6.78859">
        <ele>1928.87</ele>
        <time>2017-01-05T13:07:32Z</time>
      </trkpt>
      <trkpt lat="45.06507" lon="6.78878">
        <ele>1928.23</ele>
        <time>2017-01-05T13:07:34Z</time>
      </trkpt>
      <trkpt lat="45.06503" lon="6.78895">
        <ele>1926.9</ele>
        <time>2017-01-05T13:07:36Z</time>
      </trkpt>
      <trkpt lat="45.06499" lon="6.78911">
        <ele>1924.68</ele>
        <time>2017-01-05T13:07:38Z</time>
      </trkpt>
      <trkpt lat="45.06497" lon="6.78926">
        <ele>1923.08</ele>
        <time>2017-01-05T13:07:40Z</time>
      </trkpt>
      <trkpt lat="45.06496" lon="6.78947">
        <ele>1922.23</ele>
        <time>2017-01-05T13:07:43Z</time>
      </trkpt>
      <trkpt lat="45.06489" lon="6.78976">
        <ele>1919.15</ele>
        <time>2017-01-05T13:07:48Z</time>
      </trkpt>
      <trkpt lat="45.06485" lon="6.78989">
        <ele>1916.77</ele>
        <time>2017-01-05T13:07:54Z</time>
      </trkpt>
      <trkpt lat="45.0647" lon="6.78984">
        <ele>1910.3</ele>
        <time>2017-01-05T13:08:01Z</time>
      </trkpt>
      <trkpt lat="45.06475" lon="6.78971">
        <ele>1913.03</ele>
        <time>2017-01-05T13:08:03Z</time>
      </trkpt>
      <trkpt lat="45.06469" lon="6.78957">
        <ele>1910.62</ele>
        <time>2017-01-05T13:08:05Z</time>
      </trkpt>
      <trkpt lat="45.06458" lon="6.7893">
        <ele>1905.56</ele>
        <time>2017-01-05T13:08:10Z</time>
      </trkpt>
      <trkpt lat="45.06453" lon="6.78913">
        <ele>1903.33</ele>
        <time>2017-01-05T13:08:13Z</time>
      </trkpt>
      <trkpt lat="45.06448" lon="6.78884">
        <ele>1898.82</ele>
        <time>2017-01-05T13:08:17Z</time>
      </trkpt>
      <trkpt lat="45.06445" lon="6.78863">
        <ele>1894.4</ele>
        <time>2017-01-05T13:08:21Z</time>
      </trkpt>
      <trkpt lat="45.0645" lon="6.78848">
        <ele>1895.56</ele>
        <time>2017-01-05T13:08:23Z</time>
      </trkpt>
      <trkpt lat="45.06448" lon="6.7883">
        <ele>1891.71</ele>
        <time>2017-01-05T13:08:25Z</time>
      </trkpt>
      <trkpt lat="45.06446" lon="6.78811">
        <ele>1890.23</ele>
        <time>2017-01-05T13:08:27Z</time>
      </trkpt>
      <trkpt lat="45.06445" lon="6.78796">
        <ele>1889.17</ele>
        <time>2017-01-05T13:08:29Z</time>
      </trkpt>
      <trkpt lat="45.06443" lon="6.78782">
        <ele>1888.59</ele>
        <time>2017-01-05T13:08:31Z</time>
      </trkpt>
      <trkpt lat="45.06441" lon="6.78764">
        <ele>1889.07</ele>
        <time>2017-01-05T13:08:34Z</time>
      </trkpt>
      <trkpt lat="45.06437" lon="6.78747">
        <ele>1888.92</ele>
        <time>2017-01-05T13:08:37Z</time>
      </trkpt>
      <trkpt lat="45.06434" lon="6.7873">
        <ele>1888.61</ele>
        <time>2017-01-05T13:08:40Z</time>
      </trkpt>
      <trkpt lat="45.06431" lon="6.78717">
        <ele>1888.52</ele>
        <time>2017-01-05T13:08:42Z</time>
      </trkpt>
      <trkpt lat="45.06435" lon="6.78702">
        <ele>1890.28</ele>
        <time>2017-01-05T13:08:44Z</time>
      </trkpt>
      <trkpt lat="45.06434" lon="6.78687">
        <ele>1891.44</ele>
        <time>2017-01-05T13:08:46Z</time>
      </trkpt>
      <trkpt lat="45.06424" lon="6.78655">
        <ele>1892.57</ele>
        <time>2017-01-05T13:08:51Z</time>
      </trkpt>
      <trkpt lat="45.06421" lon="6.78642">
        <ele>1892.34</ele>
        <time>2017-01-05T13:08:53Z</time>
      </trkpt>
      <trkpt lat="45.06419" lon="6.78615">
        <ele>1892.86</ele>
        <time>2017-01-05T13:09:44Z</time>
      </trkpt>
      <trkpt lat="45.06413" lon="6.78598">
        <ele>1891.56</ele>
        <time>2017-01-05T13:09:47Z</time>
      </trkpt>
      <trkpt lat="45.06405" lon="6.78568">
        <ele>1891.79</ele>
        <time>2017-01-05T13:09:52Z</time>
      </trkpt>
      <trkpt lat="45.06397" lon="6.78551">
        <ele>1891.28</ele>
        <time>2017-01-05T13:09:55Z</time>
      </trkpt>
      <trkpt lat="45.06392" lon="6.78537">
        <ele>1889.69</ele>
        <time>2017-01-05T13:09:57Z</time>
      </trkpt>
      <trkpt lat="45.06382" lon="6.7851">
        <ele>1886.81</ele>
        <time>2017-01-05T13:10:02Z</time>
      </trkpt>
      <trkpt lat="45.06377" lon="6.78493">
        <ele>1885.9</ele>
        <time>2017-01-05T13:10:05Z</time>
      </trkpt>
      <trkpt lat="45.0637" lon="6.78481">
        <ele>1884.51</ele>
        <time>2017-01-05T13:10:08Z</time>
      </trkpt>
      <trkpt lat="45.06361" lon="6.78474">
        <ele>1882.87</ele>
        <time>2017-01-05T13:10:11Z</time>
      </trkpt>
      <trkpt lat="45.06352" lon="6.78465">
        <ele>1878.87</ele>
        <time>2017-01-05T13:10:13Z</time>
      </trkpt>
      <trkpt lat="45.06349" lon="6.78451">
        <ele>1876.86</ele>
        <time>2017-01-05T13:10:15Z</time>
      </trkpt>
      <trkpt lat="45.0635" lon="6.78434">
        <ele>1877</ele>
        <time>2017-01-05T13:10:17Z</time>
      </trkpt>
      <trkpt lat="45.06351" lon="6.78418">
        <ele>1877.47</ele>
        <time>2017-01-05T13:10:21Z</time>
      </trkpt>
      <trkpt lat="45.06352" lon="6.78403">
        <ele>1877.19</ele>
        <time>2017-01-05T13:10:22Z</time>
      </trkpt>
      <trkpt lat="45.0635" lon="6.78388">
        <ele>1875.92</ele>
        <time>2017-01-05T13:10:25Z</time>
      </trkpt>
      <trkpt lat="45.06358" lon="6.78364">
        <ele>1875.52</ele>
        <time>2017-01-05T13:10:29Z</time>
      </trkpt>
      <trkpt lat="45.06362" lon="6.78351">
        <ele>1874.2</ele>
        <time>2017-01-05T13:10:31Z</time>
      </trkpt>
      <trkpt lat="45.06364" lon="6.78334">
        <ele>1871.63</ele>
        <time>2017-01-05T13:10:34Z</time>
      </trkpt>
      <trkpt lat="45.06372" lon="6.78322">
        <ele>1870.83</ele>
        <time>2017-01-05T13:10:37Z</time>
      </trkpt>
      <trkpt lat="45.06373" lon="6.78306">
        <ele>1867.93</ele>
        <time>2017-01-05T13:10:40Z</time>
      </trkpt>
      <trkpt lat="45.06376" lon="6.78279">
        <ele>1862.64</ele>
        <time>2017-01-05T13:10:44Z</time>
      </trkpt>
      <trkpt lat="45.0638" lon="6.78263">
        <ele>1860.22</ele>
        <time>2017-01-05T13:10:47Z</time>
      </trkpt>
      <trkpt lat="45.06382" lon="6.78246">
        <ele>1857.68</ele>
        <time>2017-01-05T13:10:49Z</time>
      </trkpt>
      <trkpt lat="45.064" lon="6.78236">
        <ele>1861.95</ele>
        <time>2017-01-05T13:10:53Z</time>
      </trkpt>
      <trkpt lat="45.06418" lon="6.7822">
        <ele>1864.89</ele>
        <time>2017-01-05T13:10:57Z</time>
      </trkpt>
      <trkpt lat="45.0641" lon="6.78209">
        <ele>1860.97</ele>
        <time>2017-01-05T13:11:03Z</time>
      </trkpt>
      <trkpt lat="45.06391" lon="6.78225">
        <ele>1858.04</ele>
        <time>2017-01-05T13:11:08Z</time>
      </trkpt>
      <trkpt lat="45.06382" lon="6.78229">
        <ele>1855.36</ele>
        <time>2017-01-05T13:11:11Z</time>
      </trkpt>
      <trkpt lat="45.06369" lon="6.78235">
        <ele>1852.2</ele>
        <time>2017-01-05T13:11:13Z</time>
      </trkpt>
      <trkpt lat="45.0636" lon="6.78244">
        <ele>1851.33</ele>
        <time>2017-01-05T13:11:15Z</time>
      </trkpt>
      <trkpt lat="45.06353" lon="6.78261">
        <ele>1852.59</ele>
        <time>2017-01-05T13:11:18Z</time>
      </trkpt>
      <trkpt lat="45.0635" lon="6.7828">
        <ele>1855.28</ele>
        <time>2017-01-05T13:11:20Z</time>
      </trkpt>
      <trkpt lat="45.06341" lon="6.78293">
        <ele>1855.86</ele>
        <time>2017-01-05T13:11:23Z</time>
      </trkpt>
      <trkpt lat="45.06336" lon="6.78307">
        <ele>1858.32</ele>
        <time>2017-01-05T13:11:25Z</time>
      </trkpt>
      <trkpt lat="45.06326" lon="6.78318">
        <ele>1857.7</ele>
        <time>2017-01-05T13:11:27Z</time>
      </trkpt>
      <trkpt lat="45.06316" lon="6.78323">
        <ele>1855.38</ele>
        <time>2017-01-05T13:11:29Z</time>
      </trkpt>
      <trkpt lat="45.06306" lon="6.78331">
        <ele>1854.42</ele>
        <time>2017-01-05T13:11:32Z</time>
      </trkpt>
      <trkpt lat="45.06291" lon="6.7834">
        <ele>1851.28</ele>
        <time>2017-01-05T13:11:35Z</time>
      </trkpt>
      <trkpt lat="45.06277" lon="6.78342">
        <ele>1846.77</ele>
        <time>2017-01-05T13:11:38Z</time>
      </trkpt>
      <trkpt lat="45.06263" lon="6.78344">
        <ele>1841.47</ele>
        <time>2017-01-05T13:11:41Z</time>
      </trkpt>
      <trkpt lat="45.06253" lon="6.78348">
        <ele>1837.96</ele>
        <time>2017-01-05T13:11:43Z</time>
      </trkpt>
      <trkpt lat="45.06242" lon="6.78351">
        <ele>1834.32</ele>
        <time>2017-01-05T13:11:45Z</time>
      </trkpt>
      <trkpt lat="45.06228" lon="6.78356">
        <ele>1830.07</ele>
        <time>2017-01-05T13:11:48Z</time>
      </trkpt>
      <trkpt lat="45.06218" lon="6.78368">
        <ele>1829.92</ele>
        <time>2017-01-05T13:11:51Z</time>
      </trkpt>
      <trkpt lat="45.06213" lon="6.78384">
        <ele>1832.33</ele>
        <time>2017-01-05T13:11:54Z</time>
      </trkpt>
      <trkpt lat="45.062" lon="6.78405">
        <ele>1833.21</ele>
        <time>2017-01-05T13:11:58Z</time>
      </trkpt>
      <trkpt lat="45.06194" lon="6.78416">
        <ele>1833.68</ele>
        <time>2017-01-05T13:12:00Z</time>
      </trkpt>
      <trkpt lat="45.06186" lon="6.78445">
        <ele>1831.54</ele>
        <time>2017-01-05T13:12:05Z</time>
      </trkpt>
      <trkpt lat="45.06183" lon="6.78463">
        <ele>1828.25</ele>
        <time>2017-01-05T13:12:08Z</time>
      </trkpt>
      <trkpt lat="45.06185" lon="6.78495">
        <ele>1825.52</ele>
        <time>2017-01-05T13:12:13Z</time>
      </trkpt>
      <trkpt lat="45.06179" lon="6.78515">
        <ele>1825.94</ele>
        <time>2017-01-05T13:12:18Z</time>
      </trkpt>
      <trkpt lat="45.06164" lon="6.785">
        <ele>1822.22</ele>
        <time>2017-01-05T13:12:24Z</time>
      </trkpt>
      <trkpt lat="45.06154" lon="6.78491">
        <ele>1819.43</ele>
        <time>2017-01-05T13:12:26Z</time>
      </trkpt>
      <trkpt lat="45.06139" lon="6.78471">
        <ele>1814.27</ele>
        <time>2017-01-05T13:12:30Z</time>
      </trkpt>
      <trkpt lat="45.06131" lon="6.78454">
        <ele>1813.93</ele>
        <time>2017-01-05T13:12:33Z</time>
      </trkpt>
      <trkpt lat="45.06126" lon="6.78441">
        <ele>1813.61</ele>
        <time>2017-01-05T13:12:35Z</time>
      </trkpt>
      <trkpt lat="45.06122" lon="6.78422">
        <ele>1812.54</ele>
        <time>2017-01-05T13:12:38Z</time>
      </trkpt>
      <trkpt lat="45.06125" lon="6.78408">
        <ele>1812.65</ele>
        <time>2017-01-05T13:12:41Z</time>
      </trkpt>
      <trkpt lat="45.06126" lon="6.78392">
        <ele>1812.35</ele>
        <time>2017-01-05T13:12:44Z</time>
      </trkpt>
      <trkpt lat="45.06125" lon="6.78375">
        <ele>1809.64</ele>
        <time>2017-01-05T13:12:46Z</time>
      </trkpt>
      <trkpt lat="45.06125" lon="6.78355">
        <ele>1805.69</ele>
        <time>2017-01-05T13:12:48Z</time>
      </trkpt>
      <trkpt lat="45.06134" lon="6.78342">
        <ele>1804.72</ele>
        <time>2017-01-05T13:12:50Z</time>
      </trkpt>
      <trkpt lat="45.06142" lon="6.78331">
        <ele>1804.24</ele>
        <time>2017-01-05T13:12:52Z</time>
      </trkpt>
      <trkpt lat="45.06154" lon="6.78314">
        <ele>1802.51</ele>
        <time>2017-01-05T13:12:54Z</time>
      </trkpt>
      <trkpt lat="45.06179" lon="6.78312">
        <ele>1807.1</ele>
        <time>2017-01-05T13:12:58Z</time>
      </trkpt>
      <trkpt lat="45.06191" lon="6.78307">
        <ele>1807.89</ele>
        <time>2017-01-05T13:13:01Z</time>
      </trkpt>
      <trkpt lat="45.0621" lon="6.78292">
        <ele>1809.02</ele>
        <time>2017-01-05T13:13:03Z</time>
      </trkpt>
      <trkpt lat="45.06217" lon="6.78264">
        <ele>1805.16</ele>
        <time>2017-01-05T13:13:08Z</time>
      </trkpt>
      <trkpt lat="45.06221" lon="6.78248">
        <ele>1803.54</ele>
        <time>2017-01-05T13:13:11Z</time>
      </trkpt>
      <trkpt lat="45.06224" lon="6.78232">
        <ele>1803.97</ele>
        <time>2017-01-05T13:13:14Z</time>
      </trkpt>
      <trkpt lat="45.06226" lon="6.78218">
        <ele>1803.49</ele>
        <time>2017-01-05T13:13:17Z</time>
      </trkpt>
      <trkpt lat="45.06225" lon="6.78203">
        <ele>1801.1</ele>
        <time>2017-01-05T13:13:20Z</time>
      </trkpt>
      <trkpt lat="45.06223" lon="6.78186">
        <ele>1797.92</ele>
        <time>2017-01-05T13:13:23Z</time>
      </trkpt>
      <trkpt lat="45.06224" lon="6.78155">
        <ele>1793.09</ele>
        <time>2017-01-05T13:13:29Z</time>
      </trkpt>
      <trkpt lat="45.06236" lon="6.78134">
        <ele>1791.4</ele>
        <time>2017-01-05T13:13:33Z</time>
      </trkpt>
      <trkpt lat="45.06236" lon="6.78118">
        <ele>1788.41</ele>
        <time>2017-01-05T13:13:36Z</time>
      </trkpt>
      <trkpt lat="45.06227" lon="6.78112">
        <ele>1784.65</ele>
        <time>2017-01-05T13:13:38Z</time>
      </trkpt>
      <trkpt lat="45.06207" lon="6.78118">
        <ele>1781.14</ele>
        <time>2017-01-05T13:13:42Z</time>
      </trkpt>
      <trkpt lat="45.06196" lon="6.78118">
        <ele>1778.74</ele>
        <time>2017-01-05T13:13:44Z</time>
      </trkpt>
      <trkpt lat="45.06183" lon="6.78118">
        <ele>1774.43</ele>
        <time>2017-01-05T13:13:46Z</time>
      </trkpt>
      <trkpt lat="45.06171" lon="6.78119">
        <ele>1770.51</ele>
        <time>2017-01-05T13:13:48Z</time>
      </trkpt>
      <trkpt lat="45.06157" lon="6.7812">
        <ele>1767.24</ele>
        <time>2017-01-05T13:13:50Z</time>
      </trkpt>
      <trkpt lat="45.06149" lon="6.78132">
        <ele>1768</ele>
        <time>2017-01-05T13:13:52Z</time>
      </trkpt>
      <trkpt lat="45.06144" lon="6.78145">
        <ele>1769.23</ele>
        <time>2017-01-05T13:13:54Z</time>
      </trkpt>
      <trkpt lat="45.06144" lon="6.78161">
        <ele>1771.32</ele>
        <time>2017-01-05T13:13:56Z</time>
      </trkpt>
      <trkpt lat="45.06145" lon="6.78185">
        <ele>1774.39</ele>
        <time>2017-01-05T13:13:58Z</time>
      </trkpt>
      <trkpt lat="45.06143" lon="6.78207">
        <ele>1776.63</ele>
        <time>2017-01-05T13:14:00Z</time>
      </trkpt>
      <trkpt lat="45.06138" lon="6.78223">
        <ele>1777.88</ele>
        <time>2017-01-05T13:14:02Z</time>
      </trkpt>
      <trkpt lat="45.06132" lon="6.78236">
        <ele>1778.67</ele>
        <time>2017-01-05T13:14:03Z</time>
      </trkpt>
      <trkpt lat="45.06128" lon="6.7825">
        <ele>1779.68</ele>
        <time>2017-01-05T13:14:04Z</time>
      </trkpt>
      <trkpt lat="45.06119" lon="6.78268">
        <ele>1781.2</ele>
        <time>2017-01-05T13:14:06Z</time>
      </trkpt>
      <trkpt lat="45.06107" lon="6.78266">
        <ele>1777.63</ele>
        <time>2017-01-05T13:14:08Z</time>
      </trkpt>
      <trkpt lat="45.06096" lon="6.78268">
        <ele>1774.32</ele>
        <time>2017-01-05T13:14:10Z</time>
      </trkpt>
      <trkpt lat="45.06084" lon="6.78271">
        <ele>1770.92</ele>
        <time>2017-01-05T13:14:13Z</time>
      </trkpt>
      <trkpt lat="45.0607" lon="6.78275">
        <ele>1768.47</ele>
        <time>2017-01-05T13:14:16Z</time>
      </trkpt>
      <trkpt lat="45.06061" lon="6.7828">
        <ele>1767.7</ele>
        <time>2017-01-05T13:14:18Z</time>
      </trkpt>
      <trkpt lat="45.06042" lon="6.78277">
        <ele>1760.39</ele>
        <time>2017-01-05T13:14:23Z</time>
      </trkpt>
      <trkpt lat="45.0603" lon="6.78287">
        <ele>1758.95</ele>
        <time>2017-01-05T13:14:26Z</time>
      </trkpt>
      <trkpt lat="45.06022" lon="6.78295">
        <ele>1757.79</ele>
        <time>2017-01-05T13:14:28Z</time>
      </trkpt>
      <trkpt lat="45.06012" lon="6.78304">
        <ele>1756.28</ele>
        <time>2017-01-05T13:14:30Z</time>
      </trkpt>
      <trkpt lat="45.06" lon="6.78312">
        <ele>1752.84</ele>
        <time>2017-01-05T13:14:33Z</time>
      </trkpt>
      <trkpt lat="45.05988" lon="6.78318">
        <ele>1750.12</ele>
        <time>2017-01-05T13:14:36Z</time>
      </trkpt>
      <trkpt lat="45.05967" lon="6.78325">
        <ele>1745.67</ele>
        <time>2017-01-05T13:14:41Z</time>
      </trkpt>
      <trkpt lat="45.05956" lon="6.78332">
        <ele>1745.11</ele>
        <time>2017-01-05T13:14:46Z</time>
      </trkpt>
      <trkpt lat="45.05964" lon="6.78311">
        <ele>1741.44</ele>
        <time>2017-01-05T13:14:52Z</time>
      </trkpt>
      <trkpt lat="45.05975" lon="6.78302">
        <ele>1741.69</ele>
        <time>2017-01-05T13:14:56Z</time>
      </trkpt>
      <trkpt lat="45.05987" lon="6.78299">
        <ele>1744.7</ele>
        <time>2017-01-05T13:14:58Z</time>
      </trkpt>
      <trkpt lat="45.05997" lon="6.78291">
        <ele>1745.72</ele>
        <time>2017-01-05T13:15:00Z</time>
      </trkpt>
      <trkpt lat="45.06016" lon="6.78276">
        <ele>1749.42</ele>
        <time>2017-01-05T13:15:04Z</time>
      </trkpt>
      <trkpt lat="45.06028" lon="6.78263">
        <ele>1751.2</ele>
        <time>2017-01-05T13:15:06Z</time>
      </trkpt>
      <trkpt lat="45.06034" lon="6.78247">
        <ele>1748.5</ele>
        <time>2017-01-05T13:15:09Z</time>
      </trkpt>
      <trkpt lat="45.06039" lon="6.78234">
        <ele>1745.52</ele>
        <time>2017-01-05T13:15:12Z</time>
      </trkpt>
      <trkpt lat="45.06038" lon="6.78213">
        <ele>1739.92</ele>
        <time>2017-01-05T13:15:44Z</time>
      </trkpt>
      <trkpt lat="45.06037" lon="6.78185">
        <ele>1735.09</ele>
        <time>2017-01-05T13:15:50Z</time>
      </trkpt>
      <trkpt lat="45.06031" lon="6.78173">
        <ele>1731.14</ele>
        <time>2017-01-05T13:15:53Z</time>
      </trkpt>
      <trkpt lat="45.06027" lon="6.78155">
        <ele>1727.87</ele>
        <time>2017-01-05T13:15:56Z</time>
      </trkpt>
      <trkpt lat="45.06024" lon="6.78128">
        <ele>1724.65</ele>
        <time>2017-01-05T13:16:01Z</time>
      </trkpt>
      <trkpt lat="45.06006" lon="6.78114">
        <ele>1716.6</ele>
        <time>2017-01-05T13:16:05Z</time>
      </trkpt>
      <trkpt lat="45.0601" lon="6.78143">
        <ele>1720.74</ele>
        <time>2017-01-05T13:16:08Z</time>
      </trkpt>
      <trkpt lat="45.06009" lon="6.78162">
        <ele>1722.03</ele>
        <time>2017-01-05T13:16:10Z</time>
      </trkpt>
      <trkpt lat="45.06013" lon="6.78178">
        <ele>1724.88</ele>
        <time>2017-01-05T13:16:12Z</time>
      </trkpt>
      <trkpt lat="45.06012" lon="6.78196">
        <ele>1726.27</ele>
        <time>2017-01-05T13:16:15Z</time>
      </trkpt>
      <trkpt lat="45.05993" lon="6.78204">
        <ele>1719.07</ele>
        <time>2017-01-05T13:16:19Z</time>
      </trkpt>
      <trkpt lat="45.05981" lon="6.78212">
        <ele>1715.21</ele>
        <time>2017-01-05T13:16:21Z</time>
      </trkpt>
      <trkpt lat="45.05971" lon="6.78222">
        <ele>1713.83</ele>
        <time>2017-01-05T13:16:23Z</time>
      </trkpt>
      <trkpt lat="45.05966" lon="6.78235">
        <ele>1716.86</ele>
        <time>2017-01-05T13:16:25Z</time>
      </trkpt>
      <trkpt lat="45.05953" lon="6.78248">
        <ele>1717.78</ele>
        <time>2017-01-05T13:16:28Z</time>
      </trkpt>
      <trkpt lat="45.05941" lon="6.78251">
        <ele>1715.37</ele>
        <time>2017-01-05T13:16:31Z</time>
      </trkpt>
      <trkpt lat="45.05929" lon="6.7825">
        <ele>1711.91</ele>
        <time>2017-01-05T13:16:34Z</time>
      </trkpt>
      <trkpt lat="45.05911" lon="6.78249">
        <ele>1706.86</ele>
        <time>2017-01-05T13:16:38Z</time>
      </trkpt>
      <trkpt lat="45.05899" lon="6.78246">
        <ele>1702.37</ele>
        <time>2017-01-05T13:16:41Z</time>
      </trkpt>
      <trkpt lat="45.05887" lon="6.78247">
        <ele>1699.73</ele>
        <time>2017-01-05T13:16:44Z</time>
      </trkpt>
      <trkpt lat="45.05877" lon="6.78253">
        <ele>1699.64</ele>
        <time>2017-01-05T13:16:47Z</time>
      </trkpt>
      <trkpt lat="45.05865" lon="6.78256">
        <ele>1698.31</ele>
        <time>2017-01-05T13:16:50Z</time>
      </trkpt>
      <trkpt lat="45.05874" lon="6.78246">
        <ele>1696.94</ele>
        <time>2017-01-05T13:16:54Z</time>
      </trkpt>
      <trkpt lat="45.05883" lon="6.78234">
        <ele>1695.04</ele>
        <time>2017-01-05T13:16:56Z</time>
      </trkpt>
      <trkpt lat="45.05895" lon="6.78222">
        <ele>1693.27</ele>
        <time>2017-01-05T13:16:58Z</time>
      </trkpt>
      <trkpt lat="45.05905" lon="6.78218">
        <ele>1694.51</ele>
        <time>2017-01-05T13:17:00Z</time>
      </trkpt>
      <trkpt lat="45.0592" lon="6.78208">
        <ele>1695.94</ele>
        <time>2017-01-05T13:17:02Z</time>
      </trkpt>
      <trkpt lat="45.05937" lon="6.78195">
        <ele>1697.35</ele>
        <time>2017-01-05T13:17:06Z</time>
      </trkpt>
      <trkpt lat="45.05933" lon="6.78179">
        <ele>1693.54</ele>
        <time>2017-01-05T13:17:10Z</time>
      </trkpt>
      <trkpt lat="45.05921" lon="6.78175">
        <ele>1690.28</ele>
        <time>2017-01-05T13:17:13Z</time>
      </trkpt>
      <trkpt lat="45.05903" lon="6.7819">
        <ele>1687.51</ele>
        <time>2017-01-05T13:17:17Z</time>
      </trkpt>
      <trkpt lat="45.05886" lon="6.78197">
        <ele>1684.39</ele>
        <time>2017-01-05T13:17:20Z</time>
      </trkpt>
      <trkpt lat="45.05875" lon="6.78201">
        <ele>1683.74</ele>
        <time>2017-01-05T13:17:24Z</time>
      </trkpt>
      <trkpt lat="45.05865" lon="6.78206">
        <ele>1683.85</ele>
        <time>2017-01-05T13:17:27Z</time>
      </trkpt>
      <trkpt lat="45.05846" lon="6.78209">
        <ele>1680.72</ele>
        <time>2017-01-05T13:17:31Z</time>
      </trkpt>
      <trkpt lat="45.05828" lon="6.78221">
        <ele>1679.39</ele>
        <time>2017-01-05T13:17:40Z</time>
      </trkpt>
      <trkpt lat="45.05812" lon="6.78244">
        <ele>1679.01</ele>
        <time>2017-01-05T13:17:46Z</time>
      </trkpt>
      <trkpt lat="45.05798" lon="6.78271">
        <ele>1675.66</ele>
        <time>2017-01-05T13:17:50Z</time>
      </trkpt>
      <trkpt lat="45.05787" lon="6.783">
        <ele>1676.23</ele>
        <time>2017-01-05T13:17:54Z</time>
      </trkpt>
      <trkpt lat="45.05787" lon="6.78331">
        <ele>1681.56</ele>
        <time>2017-01-05T13:17:59Z</time>
      </trkpt>
      <trkpt lat="45.05774" lon="6.78356">
        <ele>1678.2</ele>
        <time>2017-01-05T13:18:04Z</time>
      </trkpt>
      <trkpt lat="45.05759" lon="6.78377">
        <ele>1669.48</ele>
        <time>2017-01-05T13:18:08Z</time>
      </trkpt>
      <trkpt lat="45.0575" lon="6.78387">
        <ele>1665.53</ele>
        <time>2017-01-05T13:18:10Z</time>
      </trkpt>
      <trkpt lat="45.05746" lon="6.78402">
        <ele>1667.24</ele>
        <time>2017-01-05T13:18:12Z</time>
      </trkpt>
      <trkpt lat="45.05737" lon="6.78419">
        <ele>1666.95</ele>
        <time>2017-01-05T13:18:14Z</time>
      </trkpt>
      <trkpt lat="45.0573" lon="6.78432">
        <ele>1665.32</ele>
        <time>2017-01-05T13:18:16Z</time>
      </trkpt>
      <trkpt lat="45.05719" lon="6.78455">
        <ele>1663.68</ele>
        <time>2017-01-05T13:18:19Z</time>
      </trkpt>
      <trkpt lat="45.05711" lon="6.78468">
        <ele>1661.07</ele>
        <time>2017-01-05T13:18:23Z</time>
      </trkpt>
      <trkpt lat="45.05705" lon="6.78481">
        <ele>1659.02</ele>
        <time>2017-01-05T13:18:26Z</time>
      </trkpt>
      <trkpt lat="45.05697" lon="6.78495">
        <ele>1656.7</ele>
        <time>2017-01-05T13:18:29Z</time>
      </trkpt>
      <trkpt lat="45.05693" lon="6.7851">
        <ele>1656.53</ele>
        <time>2017-01-05T13:18:32Z</time>
      </trkpt>
      <trkpt lat="45.05688" lon="6.78523">
        <ele>1654.78</ele>
        <time>2017-01-05T13:18:35Z</time>
      </trkpt>
      <trkpt lat="45.05682" lon="6.78535">
        <ele>1651.95</ele>
        <time>2017-01-05T13:18:38Z</time>
      </trkpt>
      <trkpt lat="45.05675" lon="6.78549">
        <ele>1647.67</ele>
        <time>2017-01-05T13:18:41Z</time>
      </trkpt>
      <trkpt lat="45.05672" lon="6.78569">
        <ele>1647.24</ele>
        <time>2017-01-05T13:18:44Z</time>
      </trkpt>
      <trkpt lat="45.0567" lon="6.78597">
        <ele>1648.3</ele>
        <time>2017-01-05T13:18:49Z</time>
      </trkpt>
      <trkpt lat="45.05665" lon="6.78616">
        <ele>1647.18</ele>
        <time>2017-01-05T13:18:51Z</time>
      </trkpt>
      <trkpt lat="45.05666" lon="6.78634">
        <ele>1646.62</ele>
        <time>2017-01-05T13:18:53Z</time>
      </trkpt>
      <trkpt lat="45.05666" lon="6.78662">
        <ele>1639.06</ele>
        <time>2017-01-05T13:18:56Z</time>
      </trkpt>
      <trkpt lat="45.05669" lon="6.78681">
        <ele>1636.91</ele>
        <time>2017-01-05T13:18:59Z</time>
      </trkpt>
      <trkpt lat="45.05658" lon="6.78684">
        <ele>1632.41</ele>
        <time>2017-01-05T13:19:12Z</time>
      </trkpt>
      <trkpt lat="45.05662" lon="6.78669">
        <ele>1635.48</ele>
        <time>2017-01-05T13:19:14Z</time>
      </trkpt>
      <trkpt lat="45.05654" lon="6.7864">
        <ele>1639.64</ele>
        <time>2017-01-05T13:19:19Z</time>
      </trkpt>
      <trkpt lat="45.05654" lon="6.78625">
        <ele>1641</ele>
        <time>2017-01-05T13:19:21Z</time>
      </trkpt>
      <trkpt lat="45.05649" lon="6.78598">
        <ele>1638.1</ele>
        <time>2017-01-05T13:19:25Z</time>
      </trkpt>
      <trkpt lat="45.05647" lon="6.78576">
        <ele>1634.21</ele>
        <time>2017-01-05T13:19:27Z</time>
      </trkpt>
      <trkpt lat="45.05645" lon="6.7856">
        <ele>1630.06</ele>
        <time>2017-01-05T13:19:30Z</time>
      </trkpt>
      <trkpt lat="45.05643" lon="6.78543">
        <ele>1627.22</ele>
        <time>2017-01-05T13:19:33Z</time>
      </trkpt>
      <trkpt lat="45.05644" lon="6.78512">
        <ele>1625.6</ele>
        <time>2017-01-05T13:19:37Z</time>
      </trkpt>
      <trkpt lat="45.05649" lon="6.78496">
        <ele>1627.79</ele>
        <time>2017-01-05T13:19:40Z</time>
      </trkpt>
      <trkpt lat="45.05648" lon="6.7848">
        <ele>1626</ele>
        <time>2017-01-05T13:19:44Z</time>
      </trkpt>
      <trkpt lat="45.05653" lon="6.78462">
        <ele>1626.66</ele>
        <time>2017-01-05T13:19:46Z</time>
      </trkpt>
      <trkpt lat="45.05655" lon="6.78443">
        <ele>1625.67</ele>
        <time>2017-01-05T13:19:49Z</time>
      </trkpt>
      <trkpt lat="45.05656" lon="6.78425">
        <ele>1622.99</ele>
        <time>2017-01-05T13:19:52Z</time>
      </trkpt>
      <trkpt lat="45.05657" lon="6.78405">
        <ele>1620.51</ele>
        <time>2017-01-05T13:19:54Z</time>
      </trkpt>
      <trkpt lat="45.05657" lon="6.78387">
        <ele>1617.92</ele>
        <time>2017-01-05T13:19:57Z</time>
      </trkpt>
      <trkpt lat="45.0566" lon="6.7836">
        <ele>1616.06</ele>
        <time>2017-01-05T13:20:01Z</time>
      </trkpt>
      <trkpt lat="45.05664" lon="6.78344">
        <ele>1616</ele>
        <time>2017-01-05T13:20:04Z</time>
      </trkpt>
      <trkpt lat="45.05669" lon="6.78331">
        <ele>1616.65</ele>
        <time>2017-01-05T13:20:07Z</time>
      </trkpt>
      <trkpt lat="45.05666" lon="6.78315">
        <ele>1613.61</ele>
        <time>2017-01-05T13:20:11Z</time>
      </trkpt>
      <trkpt lat="45.05649" lon="6.78321">
        <ele>1604.19</ele>
        <time>2017-01-05T13:20:17Z</time>
      </trkpt>
      <trkpt lat="45.05643" lon="6.78333">
        <ele>1602.44</ele>
        <time>2017-01-05T13:20:20Z</time>
      </trkpt>
      <trkpt lat="45.05639" lon="6.78347">
        <ele>1602.02</ele>
        <time>2017-01-05T13:20:23Z</time>
      </trkpt>
      <trkpt lat="45.05636" lon="6.7836">
        <ele>1601.94</ele>
        <time>2017-01-05T13:20:26Z</time>
      </trkpt>
      <trkpt lat="45.05631" lon="6.78374">
        <ele>1600.84</ele>
        <time>2017-01-05T13:20:28Z</time>
      </trkpt>
      <trkpt lat="45.05624" lon="6.78387">
        <ele>1598.89</ele>
        <time>2017-01-05T13:20:30Z</time>
      </trkpt>
      <trkpt lat="45.0562" lon="6.78401">
        <ele>1597.92</ele>
        <time>2017-01-05T13:20:32Z</time>
      </trkpt>
      <trkpt lat="45.05617" lon="6.78427">
        <ele>1597.56</ele>
        <time>2017-01-05T13:20:36Z</time>
      </trkpt>
      <trkpt lat="45.05613" lon="6.78445">
        <ele>1597.68</ele>
        <time>2017-01-05T13:20:39Z</time>
      </trkpt>
      <trkpt lat="45.05607" lon="6.7846">
        <ele>1597.27</ele>
        <time>2017-01-05T13:20:42Z</time>
      </trkpt>
      <trkpt lat="45.05601" lon="6.78473">
        <ele>1595.61</ele>
        <time>2017-01-05T13:20:44Z</time>
      </trkpt>
      <trkpt lat="45.05596" lon="6.78485">
        <ele>1593.62</ele>
        <time>2017-01-05T13:20:46Z</time>
      </trkpt>
      <trkpt lat="45.05591" lon="6.78503">
        <ele>1592.7</ele>
        <time>2017-01-05T13:20:48Z</time>
      </trkpt>
      <trkpt lat="45.05587" lon="6.78518">
        <ele>1592.57</ele>
        <time>2017-01-05T13:20:50Z</time>
      </trkpt>
      <trkpt lat="45.05583" lon="6.78532">
        <ele>1592.7</ele>
        <time>2017-01-05T13:20:52Z</time>
      </trkpt>
      <trkpt lat="45.05577" lon="6.78549">
        <ele>1592.31</ele>
        <time>2017-01-05T13:20:54Z</time>
      </trkpt>
      <trkpt lat="45.0557" lon="6.78565">
        <ele>1589.65</ele>
        <time>2017-01-05T13:20:56Z</time>
      </trkpt>
      <trkpt lat="45.05566" lon="6.78585">
        <ele>1587.78</ele>
        <time>2017-01-05T13:20:59Z</time>
      </trkpt>
      <trkpt lat="45.05563" lon="6.78601">
        <ele>1586.91</ele>
        <time>2017-01-05T13:21:01Z</time>
      </trkpt>
      <trkpt lat="45.05563" lon="6.78616">
        <ele>1586.76</ele>
        <time>2017-01-05T13:21:04Z</time>
      </trkpt>
      <trkpt lat="45.05563" lon="6.78633">
        <ele>1586.34</ele>
        <time>2017-01-05T13:21:06Z</time>
      </trkpt>
      <trkpt lat="45.05562" lon="6.78648">
        <ele>1584.17</ele>
        <time>2017-01-05T13:21:08Z</time>
      </trkpt>
      <trkpt lat="45.05561" lon="6.78665">
        <ele>1580.64</ele>
        <time>2017-01-05T13:21:11Z</time>
      </trkpt>
      <trkpt lat="45.05558" lon="6.7868">
        <ele>1576.56</ele>
        <time>2017-01-05T13:21:15Z</time>
      </trkpt>
      <trkpt lat="45.05551" lon="6.78693">
        <ele>1572.02</ele>
        <time>2017-01-05T13:21:17Z</time>
      </trkpt>
      <trkpt lat="45.05546" lon="6.78712">
        <ele>1568.37</ele>
        <time>2017-01-05T13:21:23Z</time>
      </trkpt>
      <trkpt lat="45.05548" lon="6.78696">
        <ele>1570.25</ele>
        <time>2017-01-05T13:21:26Z</time>
      </trkpt>
      <trkpt lat="45.05549" lon="6.78669">
        <ele>1573.32</ele>
        <time>2017-01-05T13:21:30Z</time>
      </trkpt>
      <trkpt lat="45.05532" lon="6.78661">
        <ele>1565.17</ele>
        <time>2017-01-05T13:21:32Z</time>
      </trkpt>
      <trkpt lat="45.05529" lon="6.78645">
        <ele>1563.6</ele>
        <time>2017-01-05T13:21:34Z</time>
      </trkpt>
      <trkpt lat="45.05532" lon="6.78627">
        <ele>1565.51</ele>
        <time>2017-01-05T13:21:36Z</time>
      </trkpt>
      <trkpt lat="45.05532" lon="6.78609">
        <ele>1565.18</ele>
        <time>2017-01-05T13:21:38Z</time>
      </trkpt>
      <trkpt lat="45.05528" lon="6.78589">
        <ele>1562.23</ele>
        <time>2017-01-05T13:21:41Z</time>
      </trkpt>
      <trkpt lat="45.05528" lon="6.78562">
        <ele>1558.14</ele>
        <time>2017-01-05T13:21:45Z</time>
      </trkpt>
      <trkpt lat="45.05526" lon="6.78534">
        <ele>1557.01</ele>
        <time>2017-01-05T13:21:50Z</time>
      </trkpt>
      <trkpt lat="45.05528" lon="6.78518">
        <ele>1557.95</ele>
        <time>2017-01-05T13:21:52Z</time>
      </trkpt>
      <trkpt lat="45.05535" lon="6.78487">
        <ele>1559.68</ele>
        <time>2017-01-05T13:21:58Z</time>
      </trkpt>
      <trkpt lat="45.05536" lon="6.7847">
        <ele>1558.89</ele>
        <time>2017-01-05T13:22:01Z</time>
      </trkpt>
      <trkpt lat="45.05538" lon="6.78456">
        <ele>1557.25</ele>
        <time>2017-01-05T13:22:10Z</time>
      </trkpt>
      <trkpt lat="45.05526" lon="6.78466">
        <ele>1551.69</ele>
        <time>2017-01-05T13:22:12Z</time>
      </trkpt>
      <trkpt lat="45.05521" lon="6.78479">
        <ele>1549.8</ele>
        <time>2017-01-05T13:22:14Z</time>
      </trkpt>
      <trkpt lat="45.0552" lon="6.78493">
        <ele>1550.27</ele>
        <time>2017-01-05T13:22:17Z</time>
      </trkpt>
      <trkpt lat="45.05517" lon="6.78507">
        <ele>1549.32</ele>
        <time>2017-01-05T13:22:19Z</time>
      </trkpt>
      <trkpt lat="45.05506" lon="6.78521">
        <ele>1543.04</ele>
        <time>2017-01-05T13:22:21Z</time>
      </trkpt>
      <trkpt lat="45.05507" lon="6.78541">
        <ele>1544.3</ele>
        <time>2017-01-05T13:22:24Z</time>
      </trkpt>
      <trkpt lat="45.05502" lon="6.78555">
        <ele>1542.28</ele>
        <time>2017-01-05T13:22:26Z</time>
      </trkpt>
      <trkpt lat="45.05496" lon="6.78568">
        <ele>1540.27</ele>
        <time>2017-01-05T13:22:28Z</time>
      </trkpt>
      <trkpt lat="45.05493" lon="6.78588">
        <ele>1540.4</ele>
        <time>2017-01-05T13:22:30Z</time>
      </trkpt>
      <trkpt lat="45.0549" lon="6.78605">
        <ele>1538.81</ele>
        <time>2017-01-05T13:22:32Z</time>
      </trkpt>
      <trkpt lat="45.05489" lon="6.78625">
        <ele>1538.29</ele>
        <time>2017-01-05T13:22:34Z</time>
      </trkpt>
      <trkpt lat="45.05485" lon="6.78642">
        <ele>1535.97</ele>
        <time>2017-01-05T13:22:37Z</time>
      </trkpt>
      <trkpt lat="45.05484" lon="6.78661">
        <ele>1534.2</ele>
        <time>2017-01-05T13:22:40Z</time>
      </trkpt>
      <trkpt lat="45.05481" lon="6.78691">
        <ele>1534.2</ele>
        <time>2017-01-05T13:22:45Z</time>
      </trkpt>
      <trkpt lat="45.0548" lon="6.78708">
        <ele>1535.33</ele>
        <time>2017-01-05T13:22:48Z</time>
      </trkpt>
      <trkpt lat="45.05475" lon="6.78727">
        <ele>1533.34</ele>
        <time>2017-01-05T13:22:51Z</time>
      </trkpt>
      <trkpt lat="45.05474" lon="6.78758">
        <ele>1527.47</ele>
        <time>2017-01-05T13:22:56Z</time>
      </trkpt>
      <trkpt lat="45.05471" lon="6.78776">
        <ele>1523.72</ele>
        <time>2017-01-05T13:22:58Z</time>
      </trkpt>
      <trkpt lat="45.05477" lon="6.78789">
        <ele>1523.24</ele>
        <time>2017-01-05T13:23:02Z</time>
      </trkpt>
      <trkpt lat="45.05464" lon="6.78791">
        <ele>1516.94</ele>
        <time>2017-01-05T13:23:07Z</time>
      </trkpt>
      <trkpt lat="45.05459" lon="6.78767">
        <ele>1518.15</ele>
        <time>2017-01-05T13:23:11Z</time>
      </trkpt>
      <trkpt lat="45.05457" lon="6.7875">
        <ele>1518.33</ele>
        <time>2017-01-05T13:23:13Z</time>
      </trkpt>
      <trkpt lat="45.05453" lon="6.78733">
        <ele>1517.06</ele>
        <time>2017-01-05T13:23:15Z</time>
      </trkpt>
      <trkpt lat="45.05453" lon="6.78715">
        <ele>1516.2</ele>
        <time>2017-01-05T13:23:17Z</time>
      </trkpt>
      <trkpt lat="45.05452" lon="6.78695">
        <ele>1513.07</ele>
        <time>2017-01-05T13:23:19Z</time>
      </trkpt>
      <trkpt lat="45.05448" lon="6.78678">
        <ele>1509.91</ele>
        <time>2017-01-05T13:23:21Z</time>
      </trkpt>
      <trkpt lat="45.05445" lon="6.78663">
        <ele>1508.88</ele>
        <time>2017-01-05T13:23:23Z</time>
      </trkpt>
      <trkpt lat="45.05444" lon="6.78647">
        <ele>1509.72</ele>
        <time>2017-01-05T13:23:25Z</time>
      </trkpt>
      <trkpt lat="45.0544" lon="6.78626">
        <ele>1509.8</ele>
        <time>2017-01-05T13:23:27Z</time>
      </trkpt>
      <trkpt lat="45.05434" lon="6.78603">
        <ele>1507.37</ele>
        <time>2017-01-05T13:23:29Z</time>
      </trkpt>
      <trkpt lat="45.05428" lon="6.78585">
        <ele>1503.04</ele>
        <time>2017-01-05T13:23:31Z</time>
      </trkpt>
      <trkpt lat="45.05427" lon="6.78569">
        <ele>1501.55</ele>
        <time>2017-01-05T13:23:33Z</time>
      </trkpt>
      <trkpt lat="45.05427" lon="6.78555">
        <ele>1501.33</ele>
        <time>2017-01-05T13:23:35Z</time>
      </trkpt>
      <trkpt lat="45.0543" lon="6.7854">
        <ele>1502.49</ele>
        <time>2017-01-05T13:23:37Z</time>
      </trkpt>
      <trkpt lat="45.05427" lon="6.78525">
        <ele>1499.36</ele>
        <time>2017-01-05T13:23:39Z</time>
      </trkpt>
      <trkpt lat="45.0543" lon="6.78512">
        <ele>1499.78</ele>
        <time>2017-01-05T13:23:42Z</time>
      </trkpt>
      <trkpt lat="45.05428" lon="6.78497">
        <ele>1497.04</ele>
        <time>2017-01-05T13:23:44Z</time>
      </trkpt>
      <trkpt lat="45.05423" lon="6.78484">
        <ele>1492.85</ele>
        <time>2017-01-05T13:23:47Z</time>
      </trkpt>
      <trkpt lat="45.0542" lon="6.78464">
        <ele>1489.18</ele>
        <time>2017-01-05T13:23:50Z</time>
      </trkpt>
      <trkpt lat="45.05421" lon="6.78447">
        <ele>1488.28</ele>
        <time>2017-01-05T13:23:53Z</time>
      </trkpt>
      <trkpt lat="45.05423" lon="6.78432">
        <ele>1488.76</ele>
        <time>2017-01-05T13:23:56Z</time>
      </trkpt>
      <trkpt lat="45.05424" lon="6.78405">
        <ele>1488.68</ele>
        <time>2017-01-05T13:24:00Z</time>
      </trkpt>
      <trkpt lat="45.05425" lon="6.78387">
        <ele>1488.43</ele>
        <time>2017-01-05T13:24:03Z</time>
      </trkpt>
      <trkpt lat="45.0542" lon="6.78361">
        <ele>1484.39</ele>
        <time>2017-01-05T13:24:09Z</time>
      </trkpt>
      <trkpt lat="45.05415" lon="6.78345">
        <ele>1481.8</ele>
        <time>2017-01-05T13:24:12Z</time>
      </trkpt>
      <trkpt lat="45.0541" lon="6.78328">
        <ele>1479.69</ele>
        <time>2017-01-05T13:24:15Z</time>
      </trkpt>
      <trkpt lat="45.05409" lon="6.7831">
        <ele>1479.38</ele>
        <time>2017-01-05T13:24:18Z</time>
      </trkpt>
      <trkpt lat="45.05404" lon="6.7828">
        <ele>1475.25</ele>
        <time>2017-01-05T13:24:23Z</time>
      </trkpt>
      <trkpt lat="45.05407" lon="6.78253">
        <ele>1473.56</ele>
        <time>2017-01-05T13:24:29Z</time>
      </trkpt>
      <trkpt lat="45.05406" lon="6.78238">
        <ele>1471.2</ele>
        <time>2017-01-05T13:24:34Z</time>
      </trkpt>
      <trkpt lat="45.05397" lon="6.78251">
        <ele>1468.77</ele>
        <time>2017-01-05T13:24:37Z</time>
      </trkpt>
      <trkpt lat="45.05381" lon="6.78275">
        <ele>1463.82</ele>
        <time>2017-01-05T13:24:42Z</time>
      </trkpt>
      <trkpt lat="45.05375" lon="6.78302">
        <ele>1462.9</ele>
        <time>2017-01-05T13:24:49Z</time>
      </trkpt>
      <trkpt lat="45.0537" lon="6.78315">
        <ele>1461.89</ele>
        <time>2017-01-05T13:24:55Z</time>
      </trkpt>
      <trkpt lat="45.0536" lon="6.78344">
        <ele>1460.21</ele>
        <time>2017-01-05T13:25:00Z</time>
      </trkpt>
      <trkpt lat="45.05358" lon="6.78358">
        <ele>1461.23</ele>
        <time>2017-01-05T13:25:02Z</time>
      </trkpt>
      <trkpt lat="45.05353" lon="6.78373">
        <ele>1459.95</ele>
        <time>2017-01-05T13:25:05Z</time>
      </trkpt>
      <trkpt lat="45.05343" lon="6.78395">
        <ele>1457.16</ele>
        <time>2017-01-05T13:25:09Z</time>
      </trkpt>
      <trkpt lat="45.05337" lon="6.78413">
        <ele>1455.42</ele>
        <time>2017-01-05T13:25:11Z</time>
      </trkpt>
      <trkpt lat="45.05335" lon="6.78429">
        <ele>1454.71</ele>
        <time>2017-01-05T13:25:14Z</time>
      </trkpt>
      <trkpt lat="45.05332" lon="6.78446">
        <ele>1453.14</ele>
        <time>2017-01-05T13:25:17Z</time>
      </trkpt>
      <trkpt lat="45.05331" lon="6.7846">
        <ele>1452.09</ele>
        <time>2017-01-05T13:25:19Z</time>
      </trkpt>
      <trkpt lat="45.0533" lon="6.78478">
        <ele>1450.82</ele>
        <time>2017-01-05T13:25:21Z</time>
      </trkpt>
      <trkpt lat="45.05328" lon="6.78494">
        <ele>1449.17</ele>
        <time>2017-01-05T13:25:24Z</time>
      </trkpt>
      <trkpt lat="45.05324" lon="6.78514">
        <ele>1446.07</ele>
        <time>2017-01-05T13:25:28Z</time>
      </trkpt>
      <trkpt lat="45.05323" lon="6.78533">
        <ele>1444.9</ele>
        <time>2017-01-05T13:25:32Z</time>
      </trkpt>
      <trkpt lat="45.05326" lon="6.78549">
        <ele>1445.58</ele>
        <time>2017-01-05T13:25:34Z</time>
      </trkpt>
      <trkpt lat="45.05324" lon="6.78567">
        <ele>1444.15</ele>
        <time>2017-01-05T13:25:36Z</time>
      </trkpt>
      <trkpt lat="45.05322" lon="6.78591">
        <ele>1443.01</ele>
        <time>2017-01-05T13:25:39Z</time>
      </trkpt>
      <trkpt lat="45.0532" lon="6.78605">
        <ele>1441.09</ele>
        <time>2017-01-05T13:25:41Z</time>
      </trkpt>
      <trkpt lat="45.05318" lon="6.78621">
        <ele>1441.03</ele>
        <time>2017-01-05T13:25:42Z</time>
      </trkpt>
      <trkpt lat="45.05315" lon="6.78638">
        <ele>1441.32</ele>
        <time>2017-01-05T13:25:45Z</time>
      </trkpt>
      <trkpt lat="45.05316" lon="6.78653">
        <ele>1443.35</ele>
        <time>2017-01-05T13:25:47Z</time>
      </trkpt>
      <trkpt lat="45.05312" lon="6.7867">
        <ele>1442.47</ele>
        <time>2017-01-05T13:25:49Z</time>
      </trkpt>
      <trkpt lat="45.05309" lon="6.78686">
        <ele>1440.21</ele>
        <time>2017-01-05T13:25:51Z</time>
      </trkpt>
      <trkpt lat="45.05304" lon="6.787">
        <ele>1436.3</ele>
        <time>2017-01-05T13:25:53Z</time>
      </trkpt>
      <trkpt lat="45.05298" lon="6.78712">
        <ele>1432.06</ele>
        <time>2017-01-05T13:25:55Z</time>
      </trkpt>
      <trkpt lat="45.05292" lon="6.78725">
        <ele>1428.7</ele>
        <time>2017-01-05T13:25:57Z</time>
      </trkpt>
      <trkpt lat="45.05291" lon="6.78748">
        <ele>1428.19</ele>
        <time>2017-01-05T13:25:59Z</time>
      </trkpt>
      <trkpt lat="45.05288" lon="6.78764">
        <ele>1428.55</ele>
        <time>2017-01-05T13:26:01Z</time>
      </trkpt>
      <trkpt lat="45.05282" lon="6.78781">
        <ele>1428.16</ele>
        <time>2017-01-05T13:26:04Z</time>
      </trkpt>
      <trkpt lat="45.05275" lon="6.78805">
        <ele>1427.56</ele>
        <time>2017-01-05T13:26:08Z</time>
      </trkpt>
      <trkpt lat="45.05276" lon="6.78821">
        <ele>1427.51</ele>
        <time>2017-01-05T13:26:10Z</time>
      </trkpt>
      <trkpt lat="45.05268" lon="6.78826">
        <ele>1422.89</ele>
        <time>2017-01-05T13:26:18Z</time>
      </trkpt>
      <trkpt lat="45.05266" lon="6.7881">
        <ele>1422.76</ele>
        <time>2017-01-05T13:26:21Z</time>
      </trkpt>
      <trkpt lat="45.05267" lon="6.78792">
        <ele>1422.46</ele>
        <time>2017-01-05T13:26:24Z</time>
      </trkpt>
      <trkpt lat="45.05263" lon="6.78775">
        <ele>1419.43</ele>
        <time>2017-01-05T13:26:31Z</time>
      </trkpt>
      <trkpt lat="45.05257" lon="6.78764">
        <ele>1415.84</ele>
        <time>2017-01-05T13:26:42Z</time>
      </trkpt>
      <trkpt lat="45.05262" lon="6.7874">
        <ele>1416.27</ele>
        <time>2017-01-05T13:27:06Z</time>
      </trkpt>
      <trkpt lat="45.05261" lon="6.78724">
        <ele>1415.41</ele>
        <time>2017-01-05T13:27:09Z</time>
      </trkpt>
      <trkpt lat="45.05256" lon="6.78704">
        <ele>1412.69</ele>
        <time>2017-01-05T13:27:12Z</time>
      </trkpt>
      <trkpt lat="45.05252" lon="6.78673">
        <ele>1410.86</ele>
        <time>2017-01-05T13:27:17Z</time>
      </trkpt>
      <trkpt lat="45.05239" lon="6.78652">
        <ele>1407.1</ele>
        <time>2017-01-05T13:27:21Z</time>
      </trkpt>
      <trkpt lat="45.05232" lon="6.7864">
        <ele>1404.65</ele>
        <time>2017-01-05T13:27:23Z</time>
      </trkpt>
      <trkpt lat="45.05223" lon="6.78616">
        <ele>1402.04</ele>
        <time>2017-01-05T13:27:27Z</time>
      </trkpt>
      <trkpt lat="45.0522" lon="6.78601">
        <ele>1401.35</ele>
        <time>2017-01-05T13:27:29Z</time>
      </trkpt>
      <trkpt lat="45.05217" lon="6.78584">
        <ele>1400.86</ele>
        <time>2017-01-05T13:27:32Z</time>
      </trkpt>
      <trkpt lat="45.05218" lon="6.78567">
        <ele>1402.27</ele>
        <time>2017-01-05T13:27:35Z</time>
      </trkpt>
      <trkpt lat="45.05218" lon="6.7855">
        <ele>1403.34</ele>
        <time>2017-01-05T13:27:38Z</time>
      </trkpt>
      <trkpt lat="45.052" lon="6.78536">
        <ele>1396.13</ele>
        <time>2017-01-05T13:27:42Z</time>
      </trkpt>
      <trkpt lat="45.05192" lon="6.78525">
        <ele>1392.93</ele>
        <time>2017-01-05T13:27:44Z</time>
      </trkpt>
      <trkpt lat="45.05183" lon="6.78514">
        <ele>1390.19</ele>
        <time>2017-01-05T13:27:46Z</time>
      </trkpt>
      <trkpt lat="45.05178" lon="6.78489">
        <ele>1389.67</ele>
        <time>2017-01-05T13:27:50Z</time>
      </trkpt>
      <trkpt lat="45.05166" lon="6.78467">
        <ele>1386.68</ele>
        <time>2017-01-05T13:27:54Z</time>
      </trkpt>
      <trkpt lat="45.05157" lon="6.78444">
        <ele>1381.35</ele>
        <time>2017-01-05T13:27:58Z</time>
      </trkpt>
      <trkpt lat="45.0516" lon="6.78424">
        <ele>1384.46</ele>
        <time>2017-01-05T13:28:01Z</time>
      </trkpt>
      <trkpt lat="45.05157" lon="6.78406">
        <ele>1383.8</ele>
        <time>2017-01-05T13:28:03Z</time>
      </trkpt>
      <trkpt lat="45.05159" lon="6.78389">
        <ele>1384.88</ele>
        <time>2017-01-05T13:28:06Z</time>
      </trkpt>
      <trkpt lat="45.05162" lon="6.78374">
        <ele>1385.3</ele>
        <time>2017-01-05T13:28:08Z</time>
      </trkpt>
      <trkpt lat="45.05162" lon="6.7835">
        <ele>1383.16</ele>
        <time>2017-01-05T13:28:14Z</time>
      </trkpt>
      <trkpt lat="45.0516" lon="6.78333">
        <ele>1380.79</ele>
        <time>2017-01-05T13:28:17Z</time>
      </trkpt>
      <trkpt lat="45.05166" lon="6.78316">
        <ele>1384.49</ele>
        <time>2017-01-05T13:28:19Z</time>
      </trkpt>
      <trkpt lat="45.05174" lon="6.7829">
        <ele>1387.44</ele>
        <time>2017-01-05T13:28:24Z</time>
      </trkpt>
      <trkpt lat="45.05163" lon="6.78279">
        <ele>1382.68</ele>
        <time>2017-01-05T13:28:27Z</time>
      </trkpt>
      <trkpt lat="45.05151" lon="6.78271">
        <ele>1378.36</ele>
        <time>2017-01-05T13:28:30Z</time>
      </trkpt>
      <trkpt lat="45.05132" lon="6.78263">
        <ele>1371.13</ele>
        <time>2017-01-05T13:28:34Z</time>
      </trkpt>
      <trkpt lat="45.05119" lon="6.78241">
        <ele>1367.41</ele>
        <time>2017-01-05T13:28:38Z</time>
      </trkpt>
      <trkpt lat="45.05117" lon="6.78226">
        <ele>1367.34</ele>
        <time>2017-01-05T13:28:40Z</time>
      </trkpt>
      <trkpt lat="45.05107" lon="6.78232">
        <ele>1362.59</ele>
        <time>2017-01-05T13:28:46Z</time>
      </trkpt>
      <trkpt lat="45.05113" lon="6.78246">
        <ele>1364.73</ele>
        <time>2017-01-05T13:28:49Z</time>
      </trkpt>
      <trkpt lat="45.05121" lon="6.78273">
        <ele>1364.71</ele>
        <time>2017-01-05T13:28:53Z</time>
      </trkpt>
      <trkpt lat="45.05131" lon="6.78286">
        <ele>1368.32</ele>
        <time>2017-01-05T13:28:55Z</time>
      </trkpt>
      <trkpt lat="45.05129" lon="6.78303">
        <ele>1365.56</ele>
        <time>2017-01-05T13:28:57Z</time>
      </trkpt>
      <trkpt lat="45.05121" lon="6.78314">
        <ele>1362.3</ele>
        <time>2017-01-05T13:28:59Z</time>
      </trkpt>
      <trkpt lat="45.0511" lon="6.78321">
        <ele>1358.12</ele>
        <time>2017-01-05T13:29:01Z</time>
      </trkpt>
      <trkpt lat="45.05099" lon="6.78326">
        <ele>1353.74</ele>
        <time>2017-01-05T13:29:04Z</time>
      </trkpt>
      <trkpt lat="45.05089" lon="6.7834">
        <ele>1349.5</ele>
        <time>2017-01-05T13:29:06Z</time>
      </trkpt>
      <trkpt lat="45.05084" lon="6.78355">
        <ele>1347.12</ele>
        <time>2017-01-05T13:29:09Z</time>
      </trkpt>
      <trkpt lat="45.05084" lon="6.78372">
        <ele>1346.91</ele>
        <time>2017-01-05T13:29:11Z</time>
      </trkpt>
      <trkpt lat="45.05082" lon="6.78386">
        <ele>1345.35</ele>
        <time>2017-01-05T13:29:13Z</time>
      </trkpt>
      <trkpt lat="45.05084" lon="6.78418">
        <ele>1349.42</ele>
        <time>2017-01-05T13:29:17Z</time>
      </trkpt>
      <trkpt lat="45.05084" lon="6.78438">
        <ele>1347.68</ele>
        <time>2017-01-05T13:29:19Z</time>
      </trkpt>
      <trkpt lat="45.05081" lon="6.78453">
        <ele>1344.5</ele>
        <time>2017-01-05T13:29:22Z</time>
      </trkpt>
      <trkpt lat="45.05081" lon="6.78469">
        <ele>1342.99</ele>
        <time>2017-01-05T13:29:24Z</time>
      </trkpt>
      <trkpt lat="45.05083" lon="6.78484">
        <ele>1343.93</ele>
        <time>2017-01-05T13:29:26Z</time>
      </trkpt>
      <trkpt lat="45.05093" lon="6.78498">
        <ele>1349.81</ele>
        <time>2017-01-05T13:29:29Z</time>
      </trkpt>
      <trkpt lat="45.05082" lon="6.78506">
        <ele>1342.85</ele>
        <time>2017-01-05T13:29:32Z</time>
      </trkpt>
      <trkpt lat="45.05076" lon="6.78523">
        <ele>1338.67</ele>
        <time>2017-01-05T13:29:35Z</time>
      </trkpt>
      <trkpt lat="45.05076" lon="6.78539">
        <ele>1336.51</ele>
        <time>2017-01-05T13:29:37Z</time>
      </trkpt>
      <trkpt lat="45.05083" lon="6.78556">
        <ele>1337.57</ele>
        <time>2017-01-05T13:29:39Z</time>
      </trkpt>
      <trkpt lat="45.05089" lon="6.78569">
        <ele>1342.24</ele>
        <time>2017-01-05T13:29:41Z</time>
      </trkpt>
      <trkpt lat="45.05089" lon="6.78585">
        <ele>1342.9</ele>
        <time>2017-01-05T13:29:44Z</time>
      </trkpt>
      <trkpt lat="45.05084" lon="6.78601">
        <ele>1341.13</ele>
        <time>2017-01-05T13:29:47Z</time>
      </trkpt>
      <trkpt lat="45.05082" lon="6.78621">
        <ele>1341.2</ele>
        <time>2017-01-05T13:29:49Z</time>
      </trkpt>
      <trkpt lat="45.05072" lon="6.78627">
        <ele>1336.46</ele>
        <time>2017-01-05T13:29:51Z</time>
      </trkpt>
      <trkpt lat="45.0506" lon="6.78633">
        <ele>1330.79</ele>
        <time>2017-01-05T13:29:53Z</time>
      </trkpt>
      <trkpt lat="45.05049" lon="6.78639">
        <ele>1325.77</ele>
        <time>2017-01-05T13:29:55Z</time>
      </trkpt>
      <trkpt lat="45.05038" lon="6.7865">
        <ele>1322.69</ele>
        <time>2017-01-05T13:29:57Z</time>
      </trkpt>
      <trkpt lat="45.05031" lon="6.78668">
        <ele>1322.51</ele>
        <time>2017-01-05T13:30:00Z</time>
      </trkpt>
      <trkpt lat="45.05023" lon="6.78683">
        <ele>1320.04</ele>
        <time>2017-01-05T13:30:03Z</time>
      </trkpt>
      <trkpt lat="45.05024" lon="6.78701">
        <ele>1321.97</ele>
        <time>2017-01-05T13:30:05Z</time>
      </trkpt>
      <trkpt lat="45.05028" lon="6.78727">
        <ele>1323.53</ele>
        <time>2017-01-05T13:30:09Z</time>
      </trkpt>
      <trkpt lat="45.05026" lon="6.78745">
        <ele>1321.55</ele>
        <time>2017-01-05T13:30:12Z</time>
      </trkpt>
      <trkpt lat="45.0502" lon="6.78761">
        <ele>1316.49</ele>
        <time>2017-01-05T13:30:15Z</time>
      </trkpt>
      <trkpt lat="45.05011" lon="6.78771">
        <ele>1310.21</ele>
        <time>2017-01-05T13:30:19Z</time>
      </trkpt>
      <trkpt lat="45.05011" lon="6.78756">
        <ele>1311.4</ele>
        <time>2017-01-05T13:30:22Z</time>
      </trkpt>
      <trkpt lat="45.05009" lon="6.7874">
        <ele>1310.9</ele>
        <time>2017-01-05T13:30:26Z</time>
      </trkpt>
      <trkpt lat="45.04996" lon="6.78717">
        <ele>1305.3</ele>
        <time>2017-01-05T13:30:30Z</time>
      </trkpt>
      <trkpt lat="45.04984" lon="6.78706">
        <ele>1300.33</ele>
        <time>2017-01-05T13:30:32Z</time>
      </trkpt>
      <trkpt lat="45.04986" lon="6.78685">
        <ele>1301.45</ele>
        <time>2017-01-05T13:30:34Z</time>
      </trkpt>
      <trkpt lat="45.04984" lon="6.78667">
        <ele>1299.4</ele>
        <time>2017-01-05T13:30:36Z</time>
      </trkpt>
      <trkpt lat="45.04988" lon="6.7865">
        <ele>1298.59</ele>
        <time>2017-01-05T13:30:39Z</time>
      </trkpt>
      <trkpt lat="45.04992" lon="6.7862">
        <ele>1296.71</ele>
        <time>2017-01-05T13:30:43Z</time>
      </trkpt>
      <trkpt lat="45.0501" lon="6.78604">
        <ele>1302.11</ele>
        <time>2017-01-05T13:30:47Z</time>
      </trkpt>
      <trkpt lat="45.05021" lon="6.78599">
        <ele>1306.19</ele>
        <time>2017-01-05T13:30:49Z</time>
      </trkpt>
      <trkpt lat="45.05029" lon="6.78588">
        <ele>1309.7</ele>
        <time>2017-01-05T13:30:51Z</time>
      </trkpt>
      <trkpt lat="45.05024" lon="6.78575">
        <ele>1307.28</ele>
        <time>2017-01-05T13:30:53Z</time>
      </trkpt>
      <trkpt lat="45.05015" lon="6.78568">
        <ele>1302.79</ele>
        <time>2017-01-05T13:30:55Z</time>
      </trkpt>
      <trkpt lat="45.05005" lon="6.78557">
        <ele>1297.43</ele>
        <time>2017-01-05T13:30:59Z</time>
      </trkpt>
      <trkpt lat="45.04998" lon="6.78541">
        <ele>1295.15</ele>
        <time>2017-01-05T13:31:00Z</time>
      </trkpt>
      <trkpt lat="45.04998" lon="6.78524">
        <ele>1296.28</ele>
        <time>2017-01-05T13:31:02Z</time>
      </trkpt>
      <trkpt lat="45.04997" lon="6.78507">
        <ele>1296.83</ele>
        <time>2017-01-05T13:31:04Z</time>
      </trkpt>
      <trkpt lat="45.05002" lon="6.78481">
        <ele>1301.94</ele>
        <time>2017-01-05T13:31:08Z</time>
      </trkpt>
      <trkpt lat="45.05005" lon="6.78465">
        <ele>1304.56</ele>
        <time>2017-01-05T13:31:11Z</time>
      </trkpt>
      <trkpt lat="45.04997" lon="6.78454">
        <ele>1301.7</ele>
        <time>2017-01-05T13:31:14Z</time>
      </trkpt>
      <trkpt lat="45.04988" lon="6.78443">
        <ele>1297.35</ele>
        <time>2017-01-05T13:31:17Z</time>
      </trkpt>
      <trkpt lat="45.0498" lon="6.78433">
        <ele>1293.25</ele>
        <time>2017-01-05T13:31:20Z</time>
      </trkpt>
      <trkpt lat="45.04976" lon="6.78412">
        <ele>1293.19</ele>
        <time>2017-01-05T13:31:23Z</time>
      </trkpt>
      <trkpt lat="45.04974" lon="6.78397">
        <ele>1292.06</ele>
        <time>2017-01-05T13:31:27Z</time>
      </trkpt>
      <trkpt lat="45.04961" lon="6.78412">
        <ele>1284.64</ele>
        <time>2017-01-05T13:31:34Z</time>
      </trkpt>
      <trkpt lat="45.04956" lon="6.78427">
        <ele>1280.18</ele>
        <time>2017-01-05T13:31:36Z</time>
      </trkpt>
      <trkpt lat="45.04959" lon="6.78443">
        <ele>1280.33</ele>
        <time>2017-01-05T13:31:38Z</time>
      </trkpt>
      <trkpt lat="45.04964" lon="6.78464">
        <ele>1282.55</ele>
        <time>2017-01-05T13:31:40Z</time>
      </trkpt>
      <trkpt lat="45.04972" lon="6.78482">
        <ele>1285.12</ele>
        <time>2017-01-05T13:31:42Z</time>
      </trkpt>
      <trkpt lat="45.04967" lon="6.78498">
        <ele>1279.89</ele>
        <time>2017-01-05T13:31:44Z</time>
      </trkpt>
      <trkpt lat="45.04964" lon="6.78514">
        <ele>1277.16</ele>
        <time>2017-01-05T13:31:46Z</time>
      </trkpt>
      <trkpt lat="45.04967" lon="6.78529">
        <ele>1277.63</ele>
        <time>2017-01-05T13:31:48Z</time>
      </trkpt>
      <trkpt lat="45.04969" lon="6.78551">
        <ele>1280.87</ele>
        <time>2017-01-05T13:31:50Z</time>
      </trkpt>
      <trkpt lat="45.04962" lon="6.78562">
        <ele>1278.65</ele>
        <time>2017-01-05T13:31:53Z</time>
      </trkpt>
      <trkpt lat="45.04951" lon="6.78559">
        <ele>1272.68</ele>
        <time>2017-01-05T13:37:11Z</time>
      </trkpt>
      <trkpt lat="45.04951" lon="6.78587">
        <ele>1275.97</ele>
        <time>2017-01-05T13:37:18Z</time>
      </trkpt>
      <trkpt lat="45.04939" lon="6.78606">
        <ele>1272.5</ele>
        <time>2017-01-05T13:37:21Z</time>
      </trkpt>
      <trkpt lat="45.04932" lon="6.78617">
        <ele>1270.55</ele>
        <time>2017-01-05T13:37:23Z</time>
      </trkpt>
      <trkpt lat="45.04922" lon="6.7863">
        <ele>1267.47</ele>
        <time>2017-01-05T13:37:27Z</time>
      </trkpt>
      <trkpt lat="45.04914" lon="6.78644">
        <ele>1265.17</ele>
        <time>2017-01-05T13:37:28Z</time>
      </trkpt>
      <trkpt lat="45.04912" lon="6.78661">
        <ele>1264.54</ele>
        <time>2017-01-05T13:37:31Z</time>
      </trkpt>
      <trkpt lat="45.04914" lon="6.78681">
        <ele>1265.28</ele>
        <time>2017-01-05T13:37:34Z</time>
      </trkpt>
      <trkpt lat="45.04919" lon="6.78698">
        <ele>1267.02</ele>
        <time>2017-01-05T13:37:36Z</time>
      </trkpt>
      <trkpt lat="45.04923" lon="6.78713">
        <ele>1269.01</ele>
        <time>2017-01-05T13:37:38Z</time>
      </trkpt>
      <trkpt lat="45.04928" lon="6.78727">
        <ele>1271.43</ele>
        <time>2017-01-05T13:37:41Z</time>
      </trkpt>
      <trkpt lat="45.04927" lon="6.78752">
        <ele>1268.92</ele>
        <time>2017-01-05T13:37:46Z</time>
      </trkpt>
      <trkpt lat="45.04923" lon="6.78769">
        <ele>1266.25</ele>
        <time>2017-01-05T13:37:48Z</time>
      </trkpt>
      <trkpt lat="45.04916" lon="6.78785">
        <ele>1262.05</ele>
        <time>2017-01-05T13:37:50Z</time>
      </trkpt>
      <trkpt lat="45.04913" lon="6.78799">
        <ele>1259.38</ele>
        <time>2017-01-05T13:37:52Z</time>
      </trkpt>
      <trkpt lat="45.04913" lon="6.78813">
        <ele>1258.81</ele>
        <time>2017-01-05T13:37:54Z</time>
      </trkpt>
      <trkpt lat="45.04907" lon="6.78826">
        <ele>1255.72</ele>
        <time>2017-01-05T13:37:56Z</time>
      </trkpt>
      <trkpt lat="45.04901" lon="6.78843">
        <ele>1253.56</ele>
        <time>2017-01-05T13:37:59Z</time>
      </trkpt>
      <trkpt lat="45.04903" lon="6.78873">
        <ele>1254.36</ele>
        <time>2017-01-05T13:38:01Z</time>
      </trkpt>
      <trkpt lat="45.04906" lon="6.78889">
        <ele>1254.56</ele>
        <time>2017-01-05T13:38:04Z</time>
      </trkpt>
      <trkpt lat="45.04903" lon="6.78906">
        <ele>1251.84</ele>
        <time>2017-01-05T13:38:06Z</time>
      </trkpt>
      <trkpt lat="45.04897" lon="6.78931">
        <ele>1245.29</ele>
        <time>2017-01-05T13:38:12Z</time>
      </trkpt>
      <trkpt lat="45.0489" lon="6.78945">
        <ele>1240.14</ele>
        <time>2017-01-05T13:38:15Z</time>
      </trkpt>
      <trkpt lat="45.04886" lon="6.78966">
        <ele>1237.1</ele>
        <time>2017-01-05T13:38:18Z</time>
      </trkpt>
      <trkpt lat="45.0488" lon="6.78984">
        <ele>1232.73</ele>
        <time>2017-01-05T13:38:21Z</time>
      </trkpt>
      <trkpt lat="45.04873" lon="6.78967">
        <ele>1233.75</ele>
        <time>2017-01-05T13:38:24Z</time>
      </trkpt>
      <trkpt lat="45.04878" lon="6.78952">
        <ele>1235.75</ele>
        <time>2017-01-05T13:38:26Z</time>
      </trkpt>
      <trkpt lat="45.04879" lon="6.78936">
        <ele>1236.92</ele>
        <time>2017-01-05T13:38:29Z</time>
      </trkpt>
      <trkpt lat="45.04881" lon="6.78907">
        <ele>1240.64</ele>
        <time>2017-01-05T13:38:33Z</time>
      </trkpt>
      <trkpt lat="45.04889" lon="6.7889">
        <ele>1247.64</ele>
        <time>2017-01-05T13:38:34Z</time>
      </trkpt>
      <trkpt lat="45.0488" lon="6.78869">
        <ele>1242.38</ele>
        <time>2017-01-05T13:38:38Z</time>
      </trkpt>
      <trkpt lat="45.0487" lon="6.78849">
        <ele>1237.83</ele>
        <time>2017-01-05T13:38:41Z</time>
      </trkpt>
      <trkpt lat="45.04871" lon="6.78833">
        <ele>1238.93</ele>
        <time>2017-01-05T13:38:44Z</time>
      </trkpt>
      <trkpt lat="45.0486" lon="6.78825">
        <ele>1233.3</ele>
        <time>2017-01-05T13:38:47Z</time>
      </trkpt>
      <trkpt lat="45.04856" lon="6.78809">
        <ele>1231.11</ele>
        <time>2017-01-05T13:38:49Z</time>
      </trkpt>
      <trkpt lat="45.04853" lon="6.78773">
        <ele>1228.06</ele>
        <time>2017-01-05T13:38:54Z</time>
      </trkpt>
      <trkpt lat="45.04852" lon="6.78758">
        <ele>1227.83</ele>
        <time>2017-01-05T13:38:57Z</time>
      </trkpt>
      <trkpt lat="45.04841" lon="6.78745">
        <ele>1222.81</ele>
        <time>2017-01-05T13:39:01Z</time>
      </trkpt>
      <trkpt lat="45.04826" lon="6.78739">
        <ele>1215.64</ele>
        <time>2017-01-05T13:39:04Z</time>
      </trkpt>
      <trkpt lat="45.04818" lon="6.7873">
        <ele>1211.63</ele>
        <time>2017-01-05T13:39:06Z</time>
      </trkpt>
      <trkpt lat="45.04811" lon="6.78716">
        <ele>1208.67</ele>
        <time>2017-01-05T13:39:08Z</time>
      </trkpt>
      <trkpt lat="45.04809" lon="6.78699">
        <ele>1209.57</ele>
        <time>2017-01-05T13:39:10Z</time>
      </trkpt>
      <trkpt lat="45.04792" lon="6.78676">
        <ele>1203.12</ele>
        <time>2017-01-05T13:39:14Z</time>
      </trkpt>
      <trkpt lat="45.04793" lon="6.78656">
        <ele>1205.28</ele>
        <time>2017-01-05T13:39:17Z</time>
      </trkpt>
      <trkpt lat="45.04799" lon="6.78638">
        <ele>1208.65</ele>
        <time>2017-01-05T13:39:20Z</time>
      </trkpt>
      <trkpt lat="45.04808" lon="6.78625">
        <ele>1212.89</ele>
        <time>2017-01-05T13:39:23Z</time>
      </trkpt>
      <trkpt lat="45.04794" lon="6.78608">
        <ele>1206.43</ele>
        <time>2017-01-05T13:39:25Z</time>
      </trkpt>
      <trkpt lat="45.04785" lon="6.786">
        <ele>1202.2</ele>
        <time>2017-01-05T13:39:27Z</time>
      </trkpt>
      <trkpt lat="45.04777" lon="6.78579">
        <ele>1199.49</ele>
        <time>2017-01-05T13:39:31Z</time>
      </trkpt>
      <trkpt lat="45.04778" lon="6.7856">
        <ele>1199.34</ele>
        <time>2017-01-05T13:39:34Z</time>
      </trkpt>
      <trkpt lat="45.0478" lon="6.78533">
        <ele>1196.59</ele>
        <time>2017-01-05T13:39:39Z</time>
      </trkpt>
      <trkpt lat="45.04785" lon="6.78519">
        <ele>1196.79</ele>
        <time>2017-01-05T13:39:43Z</time>
      </trkpt>
      <trkpt lat="45.04783" lon="6.78505">
        <ele>1194.32</ele>
        <time>2017-01-05T13:39:45Z</time>
      </trkpt>
      <trkpt lat="45.04771" lon="6.78497">
        <ele>1190.27</ele>
        <time>2017-01-05T13:39:48Z</time>
      </trkpt>
      <trkpt lat="45.04753" lon="6.78506">
        <ele>1185.03</ele>
        <time>2017-01-05T13:39:53Z</time>
      </trkpt>
      <trkpt lat="45.04744" lon="6.78512">
        <ele>1182.68</ele>
        <time>2017-01-05T13:39:55Z</time>
      </trkpt>
      <trkpt lat="45.04733" lon="6.78517">
        <ele>1179.67</ele>
        <time>2017-01-05T13:39:58Z</time>
      </trkpt>
      <trkpt lat="45.04727" lon="6.7853">
        <ele>1177.46</ele>
        <time>2017-01-05T13:40:48Z</time>
      </trkpt>
      <trkpt lat="45.04717" lon="6.78549">
        <ele>1175.94</ele>
        <time>2017-01-05T13:41:07Z</time>
      </trkpt>
      <trkpt lat="45.04708" lon="6.78542">
        <ele>1174.25</ele>
        <time>2017-01-05T13:41:17Z</time>
      </trkpt>
      <trkpt lat="45.04695" lon="6.78547">
        <ele>1172.47</ele>
        <time>2017-01-05T13:41:19Z</time>
      </trkpt>
      <trkpt lat="45.0468" lon="6.78558">
        <ele>1170.53</ele>
        <time>2017-01-05T13:41:21Z</time>
      </trkpt>
      <trkpt lat="45.04669" lon="6.78558">
        <ele>1168.61</ele>
        <time>2017-01-05T13:41:23Z</time>
      </trkpt>
      <trkpt lat="45.04656" lon="6.78556">
        <ele>1165.4</ele>
        <time>2017-01-05T13:41:25Z</time>
      </trkpt>
      <trkpt lat="45.04643" lon="6.7855">
        <ele>1161.9</ele>
        <time>2017-01-05T13:41:27Z</time>
      </trkpt>
      <trkpt lat="45.04631" lon="6.78544">
        <ele>1159.47</ele>
        <time>2017-01-05T13:41:29Z</time>
      </trkpt>
      <trkpt lat="45.04619" lon="6.78539">
        <ele>1157.05</ele>
        <time>2017-01-05T13:41:31Z</time>
      </trkpt>
      <trkpt lat="45.04605" lon="6.78535">
        <ele>1155.07</ele>
        <time>2017-01-05T13:41:33Z</time>
      </trkpt>
      <trkpt lat="45.04594" lon="6.7853">
        <ele>1154</ele>
        <time>2017-01-05T13:41:35Z</time>
      </trkpt>
      <trkpt lat="45.04582" lon="6.78525">
        <ele>1152.89</ele>
        <time>2017-01-05T13:41:37Z</time>
      </trkpt>
      <trkpt lat="45.04569" lon="6.78523">
        <ele>1151.14</ele>
        <time>2017-01-05T13:41:39Z</time>
      </trkpt>
      <trkpt lat="45.04559" lon="6.78521">
        <ele>1149.78</ele>
        <time>2017-01-05T13:41:42Z</time>
      </trkpt>
      <trkpt lat="45.0454" lon="6.78522">
        <ele>1146.67</ele>
        <time>2017-01-05T13:41:46Z</time>
      </trkpt>
      <trkpt lat="45.04514" lon="6.7853">
        <ele>1142.18</ele>
        <time>2017-01-05T13:41:49Z</time>
      </trkpt>
      <trkpt lat="45.04497" lon="6.78532">
        <ele>1138.88</ele>
        <time>2017-01-05T13:41:52Z</time>
      </trkpt>
      <trkpt lat="45.04482" lon="6.78537">
        <ele>1137.4</ele>
        <time>2017-01-05T13:41:54Z</time>
      </trkpt>
      <trkpt lat="45.0447" lon="6.78541">
        <ele>1135.96</ele>
        <time>2017-01-05T13:41:57Z</time>
      </trkpt>
      <trkpt lat="45.04459" lon="6.78549">
        <ele>1135.02</ele>
        <time>2017-01-05T13:42:01Z</time>
      </trkpt>
      <trkpt lat="45.04451" lon="6.78557">
        <ele>1134.08</ele>
        <time>2017-01-05T13:42:04Z</time>
      </trkpt>
      <trkpt lat="45.04455" lon="6.7857">
        <ele>1132.81</ele>
        <time>2017-01-05T13:42:08Z</time>
      </trkpt>
      <trkpt lat="45.04459" lon="6.78589">
        <ele>1131.21</ele>
        <time>2017-01-05T13:42:11Z</time>
      </trkpt>
      <trkpt lat="45.04462" lon="6.78602">
        <ele>1130.72</ele>
        <time>2017-01-05T13:42:13Z</time>
      </trkpt>
      <trkpt lat="45.04462" lon="6.78621">
        <ele>1130.26</ele>
        <time>2017-01-05T13:42:16Z</time>
      </trkpt>
      <trkpt lat="45.04464" lon="6.78634">
        <ele>1130.41</ele>
        <time>2017-01-05T13:42:18Z</time>
      </trkpt>
      <trkpt lat="45.04457" lon="6.78648">
        <ele>1129.88</ele>
        <time>2017-01-05T13:42:21Z</time>
      </trkpt>
      <trkpt lat="45.0445" lon="6.78663">
        <ele>1128.93</ele>
        <time>2017-01-05T13:42:24Z</time>
      </trkpt>
      <trkpt lat="45.04438" lon="6.78685">
        <ele>1126.13</ele>
        <time>2017-01-05T13:42:28Z</time>
      </trkpt>
      <trkpt lat="45.04432" lon="6.78698">
        <ele>1124.46</ele>
        <time>2017-01-05T13:42:30Z</time>
      </trkpt>
      <trkpt lat="45.04424" lon="6.78708">
        <ele>1122.27</ele>
        <time>2017-01-05T13:42:32Z</time>
      </trkpt>
      <trkpt lat="45.04416" lon="6.7872">
        <ele>1120.02</ele>
        <time>2017-01-05T13:42:34Z</time>
      </trkpt>
      <trkpt lat="45.04401" lon="6.78742">
        <ele>1116.38</ele>
        <time>2017-01-05T13:42:39Z</time>
      </trkpt>
      <trkpt lat="45.04393" lon="6.78754">
        <ele>1115.13</ele>
        <time>2017-01-05T13:42:42Z</time>
      </trkpt>
      <trkpt lat="45.04385" lon="6.78766">
        <ele>1114.42</ele>
        <time>2017-01-05T13:42:45Z</time>
      </trkpt>
      <trkpt lat="45.04381" lon="6.78779">
        <ele>1113.9</ele>
        <time>2017-01-05T13:43:30Z</time>
      </trkpt>
      <trkpt lat="45.0439" lon="6.78801">
        <ele>1112.39</ele>
        <time>2017-01-05T13:43:35Z</time>
      </trkpt>
      <trkpt lat="45.04396" lon="6.78817">
        <ele>1111.8</ele>
        <time>2017-01-05T13:43:37Z</time>
      </trkpt>
      <trkpt lat="45.04401" lon="6.78833">
        <ele>1111.32</ele>
        <time>2017-01-05T13:43:40Z</time>
      </trkpt>
      <trkpt lat="45.04408" lon="6.78853">
        <ele>1111.4</ele>
        <time>2017-01-05T13:43:41Z</time>
      </trkpt>
      <trkpt lat="45.04421" lon="6.78865">
        <ele>1112.02</ele>
        <time>2017-01-05T13:43:43Z</time>
      </trkpt>
      <trkpt lat="45.04432" lon="6.78883">
        <ele>1111.07</ele>
        <time>2017-01-05T13:43:45Z</time>
      </trkpt>
      <trkpt lat="45.04439" lon="6.789">
        <ele>1109.98</ele>
        <time>2017-01-05T13:43:47Z</time>
      </trkpt>
      <trkpt lat="45.04443" lon="6.78916">
        <ele>1109.03</ele>
        <time>2017-01-05T13:43:49Z</time>
      </trkpt>
      <trkpt lat="45.04448" lon="6.78933">
        <ele>1108.78</ele>
        <time>2017-01-05T13:43:51Z</time>
      </trkpt>
      <trkpt lat="45.04456" lon="6.78957">
        <ele>1108.83</ele>
        <time>2017-01-05T13:43:55Z</time>
      </trkpt>
      <trkpt lat="45.0446" lon="6.78976">
        <ele>1109.11</ele>
        <time>2017-01-05T13:43:57Z</time>
      </trkpt>
      <trkpt lat="45.04471" lon="6.79005">
        <ele>1110.07</ele>
        <time>2017-01-05T13:44:00Z</time>
      </trkpt>
      <trkpt lat="45.04474" lon="6.79039">
        <ele>1111.56</ele>
        <time>2017-01-05T13:44:03Z</time>
      </trkpt>
      <trkpt lat="45.04478" lon="6.79075">
        <ele>1112.27</ele>
        <time>2017-01-05T13:44:06Z</time>
      </trkpt>
      <trkpt lat="45.04483" lon="6.79096">
        <ele>1112.98</ele>
        <time>2017-01-05T13:44:08Z</time>
      </trkpt>
      <trkpt lat="45.04491" lon="6.79114">
        <ele>1114.41</ele>
        <time>2017-01-05T13:44:10Z</time>
      </trkpt>
      <trkpt lat="45.0449" lon="6.7913">
        <ele>1114.74</ele>
        <time>2017-01-05T13:44:11Z</time>
      </trkpt>
      <trkpt lat="45.04491" lon="6.79144">
        <ele>1114.95</ele>
        <time>2017-01-05T13:44:12Z</time>
      </trkpt>
      <trkpt lat="45.04499" lon="6.79161">
        <ele>1115.15</ele>
        <time>2017-01-05T13:44:14Z</time>
      </trkpt>
      <trkpt lat="45.04506" lon="6.79179">
        <ele>1115.76</ele>
        <time>2017-01-05T13:44:16Z</time>
      </trkpt>
      <trkpt lat="45.04507" lon="6.79199">
        <ele>1115.75</ele>
        <time>2017-01-05T13:44:18Z</time>
      </trkpt>
      <trkpt lat="45.04502" lon="6.79217">
        <ele>1115.21</ele>
        <time>2017-01-05T13:44:20Z</time>
      </trkpt>
      <trkpt lat="45.04501" lon="6.79242">
        <ele>1115.78</ele>
        <time>2017-01-05T13:44:22Z</time>
      </trkpt>
      <trkpt lat="45.04498" lon="6.79277">
        <ele>1116.65</ele>
        <time>2017-01-05T13:44:25Z</time>
      </trkpt>
      <trkpt lat="45.04493" lon="6.79309">
        <ele>1115.18</ele>
        <time>2017-01-05T13:45:38Z</time>
      </trkpt>
      <trkpt lat="45.04491" lon="6.79335">
        <ele>1115.67</ele>
        <time>2017-01-05T13:45:47Z</time>
      </trkpt>
      <trkpt lat="45.04483" lon="6.79346">
        <ele>1115.13</ele>
        <time>2017-01-05T13:45:48Z</time>
      </trkpt>
      <trkpt lat="45.04479" lon="6.79367">
        <ele>1115.46</ele>
        <time>2017-01-05T13:45:50Z</time>
      </trkpt>
      <trkpt lat="45.04479" lon="6.79384">
        <ele>1115.29</ele>
        <time>2017-01-05T13:45:52Z</time>
      </trkpt>
      <trkpt lat="45.04479" lon="6.79403">
        <ele>1114.51</ele>
        <time>2017-01-05T13:45:54Z</time>
      </trkpt>
      <trkpt lat="45.04481" lon="6.79419">
        <ele>1113.86</ele>
        <time>2017-01-05T13:45:56Z</time>
      </trkpt>
      <trkpt lat="45.04483" lon="6.79437">
        <ele>1113.73</ele>
        <time>2017-01-05T13:45:58Z</time>
      </trkpt>
      <trkpt lat="45.04476" lon="6.79448">
        <ele>1112.52</ele>
        <time>2017-01-05T13:46:00Z</time>
      </trkpt>
      <trkpt lat="45.04476" lon="6.79469">
        <ele>1112.66</ele>
        <time>2017-01-05T13:46:02Z</time>
      </trkpt>
      <trkpt lat="45.04472" lon="6.79484">
        <ele>1111.55</ele>
        <time>2017-01-05T13:46:04Z</time>
      </trkpt>
      <trkpt lat="45.04471" lon="6.79498">
        <ele>1110.94</ele>
        <time>2017-01-05T13:46:06Z</time>
      </trkpt>
      <trkpt lat="45.04471" lon="6.7952">
        <ele>1110.11</ele>
        <time>2017-01-05T13:46:07Z</time>
      </trkpt>
      <trkpt lat="45.04462" lon="6.79547">
        <ele>1108.08</ele>
        <time>2017-01-05T13:46:11Z</time>
      </trkpt>
      <trkpt lat="45.04458" lon="6.79563">
        <ele>1107.47</ele>
        <time>2017-01-05T13:46:13Z</time>
      </trkpt>
      <trkpt lat="45.04509" lon="6.79703">
        <ele>1106.15</ele>
        <time>2017-01-06T04:40:31Z</time>
      </trkpt>
      <trkpt lat="45.04524" lon="6.79788">
        <ele>1101.27</ele>
        <time>2017-01-06T04:40:34Z</time>
      </trkpt>
      <trkpt lat="45.04525" lon="6.79866">
        <ele>1102.82</ele>
        <time>2017-01-06T04:40:37Z</time>
      </trkpt>
      <trkpt lat="45.04464" lon="6.80283">
        <ele>1113.39</ele>
        <time>2017-01-06T04:40:53Z</time>
      </trkpt>
      <trkpt lat="45.04428" lon="6.80409">
        <ele>1108.52</ele>
        <time>2017-01-06T04:40:59Z</time>
      </trkpt>
      <trkpt lat="45.04375" lon="6.80526">
        <ele>1105.9</ele>
        <time>2017-01-06T04:41:04Z</time>
      </trkpt>
      <trkpt lat="45.04252" lon="6.80742">
        <ele>1104.23</ele>
        <time>2017-01-06T04:41:15Z</time>
      </trkpt>
      <trkpt lat="45.04214" lon="6.80825">
        <ele>1096.7</ele>
        <time>2017-01-06T04:41:19Z</time>
      </trkpt>
      <trkpt lat="45.04197" lon="6.80909">
        <ele>1098.12</ele>
        <time>2017-01-06T04:41:22Z</time>
      </trkpt>
      <trkpt lat="45.0418" lon="6.81058">
        <ele>1092.31</ele>
        <time>2017-01-06T04:41:28Z</time>
      </trkpt>
      <trkpt lat="45.0419" lon="6.81117">
        <ele>1087.56</ele>
        <time>2017-01-06T04:41:30Z</time>
      </trkpt>
      <trkpt lat="45.04209" lon="6.81162">
        <ele>1083.25</ele>
        <time>2017-01-06T04:41:32Z</time>
      </trkpt>
      <trkpt lat="45.04268" lon="6.81277">
        <ele>1077.41</ele>
        <time>2017-01-06T04:41:38Z</time>
      </trkpt>
      <trkpt lat="45.0428" lon="6.81342">
        <ele>1079.94</ele>
        <time>2017-01-06T04:41:40Z</time>
      </trkpt>
      <trkpt lat="45.04279" lon="6.81401">
        <ele>1085.84</ele>
        <time>2017-01-06T04:41:43Z</time>
      </trkpt>
      <trkpt lat="45.0425" lon="6.81594">
        <ele>1089.15</ele>
        <time>2017-01-06T04:41:50Z</time>
      </trkpt>
      <trkpt lat="45.04198" lon="6.81882">
        <ele>1080.86</ele>
        <time>2017-01-06T04:42:02Z</time>
      </trkpt>
      <trkpt lat="45.04134" lon="6.8207">
        <ele>1079.82</ele>
        <time>2017-01-06T04:42:10Z</time>
      </trkpt>
      <trkpt lat="45.04133" lon="6.82132">
        <ele>1078.24</ele>
        <time>2017-01-06T04:42:12Z</time>
      </trkpt>
      <trkpt lat="45.04155" lon="6.82217">
        <ele>1079.65</ele>
        <time>2017-01-06T04:42:16Z</time>
      </trkpt>
      <trkpt lat="45.04165" lon="6.82289">
        <ele>1082.18</ele>
        <time>2017-01-06T04:42:19Z</time>
      </trkpt>
      <trkpt lat="45.04167" lon="6.82378">
        <ele>1076.36</ele>
        <time>2017-01-06T04:42:22Z</time>
      </trkpt>
      <trkpt lat="45.04167" lon="6.8245">
        <ele>1079.9</ele>
        <time>2017-01-06T04:42:25Z</time>
      </trkpt>
      <trkpt lat="45.04174" lon="6.82518">
        <ele>1078.87</ele>
        <time>2017-01-06T04:42:28Z</time>
      </trkpt>
      <trkpt lat="45.04234" lon="6.82693">
        <ele>1079.53</ele>
        <time>2017-01-06T04:42:35Z</time>
      </trkpt>
      <trkpt lat="45.04251" lon="6.82855">
        <ele>1072.3</ele>
        <time>2017-01-06T04:42:41Z</time>
      </trkpt>
      <trkpt lat="45.04282" lon="6.82927">
        <ele>1069.72</ele>
        <time>2017-01-06T04:42:45Z</time>
      </trkpt>
      <trkpt lat="45.04625" lon="6.8366">
        <ele>1056.84</ele>
        <time>2017-01-06T04:43:19Z</time>
      </trkpt>
      <trkpt lat="45.04761" lon="6.83963">
        <ele>1072.39</ele>
        <time>2017-01-06T04:43:33Z</time>
      </trkpt>
      <trkpt lat="45.04778" lon="6.84034">
        <ele>1073.45</ele>
        <time>2017-01-06T04:43:36Z</time>
      </trkpt>
      <trkpt lat="45.04779" lon="6.84164">
        <ele>1060.5</ele>
        <time>2017-01-06T04:43:41Z</time>
      </trkpt>
      <trkpt lat="45.04774" lon="6.84232">
        <ele>1063.51</ele>
        <time>2017-01-06T04:43:43Z</time>
      </trkpt>
      <trkpt lat="45.04787" lon="6.84445">
        <ele>1062.63</ele>
        <time>2017-01-06T04:43:51Z</time>
      </trkpt>
      <trkpt lat="45.04803" lon="6.84507">
        <ele>1056.04</ele>
        <time>2017-01-06T04:43:54Z</time>
      </trkpt>
      <trkpt lat="45.0492" lon="6.84775">
        <ele>1051.42</ele>
        <time>2017-01-06T04:44:06Z</time>
      </trkpt>
      <trkpt lat="45.04932" lon="6.848">
        <ele>1056.7</ele>
        <time>2017-01-06T04:44:07Z</time>
      </trkpt>
      <trkpt lat="45.05004" lon="6.84875">
        <ele>1060.02</ele>
        <time>2017-01-06T04:44:12Z</time>
      </trkpt>
      <trkpt lat="45.05021" lon="6.8493">
        <ele>1060.44</ele>
        <time>2017-01-06T04:44:15Z</time>
      </trkpt>
      <trkpt lat="45.05062" lon="6.85009">
        <ele>1067.26</ele>
        <time>2017-01-06T04:44:18Z</time>
      </trkpt>
      <trkpt lat="45.0507" lon="6.85061">
        <ele>1070.45</ele>
        <time>2017-01-06T04:44:20Z</time>
      </trkpt>
      <trkpt lat="45.05058" lon="6.85135">
        <ele>1065.69</ele>
        <time>2017-01-06T04:44:23Z</time>
      </trkpt>
      <trkpt lat="45.05052" lon="6.85185">
        <ele>1060.48</ele>
        <time>2017-01-06T04:44:25Z</time>
      </trkpt>
      <trkpt lat="45.0506" lon="6.8523">
        <ele>1056.68</ele>
        <time>2017-01-06T04:44:27Z</time>
      </trkpt>
      <trkpt lat="45.05145" lon="6.85333">
        <ele>1086.14</ele>
        <time>2017-01-06T04:44:33Z</time>
      </trkpt>
      <trkpt lat="45.0529" lon="6.85499">
        <ele>1047.35</ele>
        <time>2017-01-06T04:44:44Z</time>
      </trkpt>
      <trkpt lat="45.05343" lon="6.85571">
        <ele>1049.32</ele>
        <time>2017-01-06T04:44:48Z</time>
      </trkpt>
      <trkpt lat="45.05389" lon="6.85651">
        <ele>1050.99</ele>
        <time>2017-01-06T04:44:52Z</time>
      </trkpt>
      <trkpt lat="45.0545" lon="6.85778">
        <ele>1044.98</ele>
        <time>2017-01-06T04:44:58Z</time>
      </trkpt>
      <trkpt lat="45.05558" lon="6.86004">
        <ele>1039.96</ele>
        <time>2017-01-06T04:45:08Z</time>
      </trkpt>
      <trkpt lat="45.05664" lon="6.86173">
        <ele>1030.1</ele>
        <time>2017-01-06T04:45:17Z</time>
      </trkpt>
      <trkpt lat="45.05774" lon="6.86337">
        <ele>1028.25</ele>
        <time>2017-01-06T04:45:26Z</time>
      </trkpt>
      <trkpt lat="45.05844" lon="6.86468">
        <ele>1031.21</ele>
        <time>2017-01-06T04:45:32Z</time>
      </trkpt>
      <trkpt lat="45.05977" lon="6.86642">
        <ele>1028.07</ele>
        <time>2017-01-06T04:45:42Z</time>
      </trkpt>
      <trkpt lat="45.06116" lon="6.86768">
        <ele>1023.82</ele>
        <time>2017-01-06T04:45:51Z</time>
      </trkpt>
      <trkpt lat="45.06281" lon="6.86931">
        <ele>1023.88</ele>
        <time>2017-01-06T04:46:02Z</time>
      </trkpt>
      <trkpt lat="45.06321" lon="6.86976">
        <ele>1023.69</ele>
        <time>2017-01-06T04:46:05Z</time>
      </trkpt>
      <trkpt lat="45.06356" lon="6.87037">
        <ele>1026</ele>
        <time>2017-01-06T04:46:08Z</time>
      </trkpt>
      <trkpt lat="45.06411" lon="6.87194">
        <ele>1023.2</ele>
        <time>2017-01-06T04:46:15Z</time>
      </trkpt>
      <trkpt lat="45.065" lon="6.87358">
        <ele>1029.22</ele>
        <time>2017-01-06T04:46:23Z</time>
      </trkpt>
      <trkpt lat="45.06595" lon="6.87488">
        <ele>1027.43</ele>
        <time>2017-01-06T04:46:30Z</time>
      </trkpt>
      <trkpt lat="45.06751" lon="6.87686">
        <ele>1033.33</ele>
        <time>2017-01-06T04:46:41Z</time>
      </trkpt>
      <trkpt lat="45.06885" lon="6.8785">
        <ele>1036.26</ele>
        <time>2017-01-06T04:46:51Z</time>
      </trkpt>
      <trkpt lat="45.06903" lon="6.87891">
        <ele>1036.45</ele>
        <time>2017-01-06T04:46:53Z</time>
      </trkpt>
      <trkpt lat="45.06937" lon="6.88016">
        <ele>1038.77</ele>
        <time>2017-01-06T04:46:58Z</time>
      </trkpt>
      <trkpt lat="45.0698" lon="6.88185">
        <ele>1037.8</ele>
        <time>2017-01-06T04:47:05Z</time>
      </trkpt>
      <trkpt lat="45.07075" lon="6.88386">
        <ele>1027.85</ele>
        <time>2017-01-06T04:47:14Z</time>
      </trkpt>
      <trkpt lat="45.07115" lon="6.88422">
        <ele>1027.7</ele>
        <time>2017-01-06T04:47:17Z</time>
      </trkpt>
      <trkpt lat="45.07172" lon="6.88446">
        <ele>1025.73</ele>
        <time>2017-01-06T04:47:20Z</time>
      </trkpt>
      <trkpt lat="45.07372" lon="6.88515">
        <ele>1028.39</ele>
        <time>2017-01-06T04:47:32Z</time>
      </trkpt>
      <trkpt lat="45.07412" lon="6.88549">
        <ele>1030.31</ele>
        <time>2017-01-06T04:47:34Z</time>
      </trkpt>
      <trkpt lat="45.07449" lon="6.88603">
        <ele>1025.81</ele>
        <time>2017-01-06T04:47:37Z</time>
      </trkpt>
      <trkpt lat="45.07507" lon="6.88707">
        <ele>1026.83</ele>
        <time>2017-01-06T04:47:42Z</time>
      </trkpt>
      <trkpt lat="45.07544" lon="6.88747">
        <ele>1030.43</ele>
        <time>2017-01-06T04:47:45Z</time>
      </trkpt>
      <trkpt lat="45.07571" lon="6.88795">
        <ele>1022.85</ele>
        <time>2017-01-06T04:47:47Z</time>
      </trkpt>
      <trkpt lat="45.07585" lon="6.8883">
        <ele>1018.45</ele>
        <time>2017-01-06T04:47:49Z</time>
      </trkpt>
      <trkpt lat="45.07614" lon="6.8888">
        <ele>1022.2</ele>
        <time>2017-01-06T04:47:51Z</time>
      </trkpt>
      <trkpt lat="45.07662" lon="6.88956">
        <ele>1026.87</ele>
        <time>2017-01-06T04:47:55Z</time>
      </trkpt>
      <trkpt lat="45.07705" lon="6.89047">
        <ele>1020.69</ele>
        <time>2017-01-06T04:47:59Z</time>
      </trkpt>
      <trkpt lat="45.07783" lon="6.89188">
        <ele>1028.66</ele>
        <time>2017-01-06T04:48:06Z</time>
      </trkpt>
      <trkpt lat="45.07849" lon="6.89327">
        <ele>1037.85</ele>
        <time>2017-01-06T04:48:13Z</time>
      </trkpt>
      <trkpt lat="45.07927" lon="6.89502">
        <ele>1036.26</ele>
        <time>2017-01-06T04:48:21Z</time>
      </trkpt>
      <trkpt lat="45.07933" lon="6.8954">
        <ele>1040.64</ele>
        <time>2017-01-06T04:48:22Z</time>
      </trkpt>
      <trkpt lat="45.07928" lon="6.89592">
        <ele>1037.87</ele>
        <time>2017-01-06T04:48:24Z</time>
      </trkpt>
      <trkpt lat="45.07921" lon="6.89655">
        <ele>1025.83</ele>
        <time>2017-01-06T04:48:27Z</time>
      </trkpt>
      <trkpt lat="45.07923" lon="6.89723">
        <ele>1030.31</ele>
        <time>2017-01-06T04:48:29Z</time>
      </trkpt>
      <trkpt lat="45.07943" lon="6.89798">
        <ele>1035</ele>
        <time>2017-01-06T04:48:32Z</time>
      </trkpt>
      <trkpt lat="45.07948" lon="6.89841">
        <ele>1036.37</ele>
        <time>2017-01-06T04:48:34Z</time>
      </trkpt>
      <trkpt lat="45.07904" lon="6.89967">
        <ele>1032.22</ele>
        <time>2017-01-06T04:48:40Z</time>
      </trkpt>
      <trkpt lat="45.07875" lon="6.90034">
        <ele>1031</ele>
        <time>2017-01-06T04:48:43Z</time>
      </trkpt>
      <trkpt lat="45.07868" lon="6.90084">
        <ele>1027.75</ele>
        <time>2017-01-06T04:48:45Z</time>
      </trkpt>
      <trkpt lat="45.07874" lon="6.90184">
        <ele>1028.32</ele>
        <time>2017-01-06T04:48:49Z</time>
      </trkpt>
      <trkpt lat="45.07885" lon="6.90228">
        <ele>1029.29</ele>
        <time>2017-01-06T04:48:50Z</time>
      </trkpt>
      <trkpt lat="45.07941" lon="6.90284">
        <ele>1035.06</ele>
        <time>2017-01-06T04:48:54Z</time>
      </trkpt>
      <trkpt lat="45.07999" lon="6.90376">
        <ele>1035.21</ele>
        <time>2017-01-06T04:48:59Z</time>
      </trkpt>
      <trkpt lat="45.08009" lon="6.9038">
        <ele>1037.23</ele>
        <time>2017-01-06T04:48:59Z</time>
      </trkpt>
      <trkpt lat="45.08019" lon="6.90369">
        <ele>1040.94</ele>
        <time>2017-01-06T04:49:00Z</time>
      </trkpt>
      <trkpt lat="45.08021" lon="6.90348">
        <ele>1043.82</ele>
        <time>2017-01-06T04:49:01Z</time>
      </trkpt>
      <trkpt lat="45.08001" lon="6.90307">
        <ele>1045.01</ele>
        <time>2017-01-06T04:49:03Z</time>
      </trkpt>
      <trkpt lat="45.07938" lon="6.90204">
        <ele>1048.73</ele>
        <time>2017-01-06T04:49:08Z</time>
      </trkpt>
      <trkpt lat="45.07921" lon="6.90164">
        <ele>1047.15</ele>
        <time>2017-01-06T04:49:10Z</time>
      </trkpt>
      <trkpt lat="45.07923" lon="6.90128">
        <ele>1050.51</ele>
        <time>2017-01-06T04:49:11Z</time>
      </trkpt>
      <trkpt lat="45.07934" lon="6.90113">
        <ele>1054.86</ele>
        <time>2017-01-06T04:49:12Z</time>
      </trkpt>
      <trkpt lat="45.07946" lon="6.90113">
        <ele>1059.5</ele>
        <time>2017-01-06T04:49:13Z</time>
      </trkpt>
      <trkpt lat="45.07971" lon="6.90192">
        <ele>1062.74</ele>
        <time>2017-01-06T04:49:16Z</time>
      </trkpt>
      <trkpt lat="45.08012" lon="6.90234">
        <ele>1062.95</ele>
        <time>2017-01-06T04:49:19Z</time>
      </trkpt>
      <trkpt lat="45.08075" lon="6.90284">
        <ele>1072.4</ele>
        <time>2017-01-06T04:49:23Z</time>
      </trkpt>
      <trkpt lat="45.08124" lon="6.90355">
        <ele>1076.91</ele>
        <time>2017-01-06T04:49:27Z</time>
      </trkpt>
      <trkpt lat="45.08154" lon="6.90384">
        <ele>1076.04</ele>
        <time>2017-01-06T04:49:29Z</time>
      </trkpt>
      <trkpt lat="45.08189" lon="6.90373">
        <ele>1091.45</ele>
        <time>2017-01-06T04:49:31Z</time>
      </trkpt>
      <trkpt lat="45.08235" lon="6.90367">
        <ele>1104.18</ele>
        <time>2017-01-06T04:49:33Z</time>
      </trkpt>
      <trkpt lat="45.08279" lon="6.90396">
        <ele>1095.86</ele>
        <time>2017-01-06T04:49:36Z</time>
      </trkpt>
      <trkpt lat="45.08345" lon="6.90417">
        <ele>1099.45</ele>
        <time>2017-01-06T04:49:40Z</time>
      </trkpt>
      <trkpt lat="45.08361" lon="6.90426">
        <ele>1101.29</ele>
        <time>2017-01-06T04:49:41Z</time>
      </trkpt>
      <trkpt lat="45.08383" lon="6.90456">
        <ele>1102.64</ele>
        <time>2017-01-06T04:49:42Z</time>
      </trkpt>
      <trkpt lat="45.08426" lon="6.9054">
        <ele>1105.18</ele>
        <time>2017-01-06T04:49:46Z</time>
      </trkpt>
      <trkpt lat="45.08435" lon="6.90524">
        <ele>1109.21</ele>
        <time>2017-01-06T04:49:47Z</time>
      </trkpt>
      <trkpt lat="45.08413" lon="6.90476">
        <ele>1109.29</ele>
        <time>2017-01-06T04:49:50Z</time>
      </trkpt>
      <trkpt lat="45.08402" lon="6.90401">
        <ele>1118.69</ele>
        <time>2017-01-06T04:49:53Z</time>
      </trkpt>
      <trkpt lat="45.08382" lon="6.9036">
        <ele>1130.05</ele>
        <time>2017-01-06T04:49:54Z</time>
      </trkpt>
      <trkpt lat="45.0839" lon="6.90348">
        <ele>1138.49</ele>
        <time>2017-01-06T04:49:55Z</time>
      </trkpt>
      <trkpt lat="45.08465" lon="6.90442">
        <ele>1135.41</ele>
        <time>2017-01-06T04:50:01Z</time>
      </trkpt>
      <trkpt lat="45.08505" lon="6.90479">
        <ele>1140.75</ele>
        <time>2017-01-06T04:50:03Z</time>
      </trkpt>
      <trkpt lat="45.08537" lon="6.9049">
        <ele>1146.72</ele>
        <time>2017-01-06T04:50:05Z</time>
      </trkpt>
      <trkpt lat="45.08531" lon="6.90443">
        <ele>1152.02</ele>
        <time>2017-01-06T04:50:07Z</time>
      </trkpt>
      <trkpt lat="45.08479" lon="6.90333">
        <ele>1167.83</ele>
        <time>2017-01-06T04:50:12Z</time>
      </trkpt>
      <trkpt lat="45.08454" lon="6.90311">
        <ele>1170.68</ele>
        <time>2017-01-06T04:50:14Z</time>
      </trkpt>
      <trkpt lat="45.08408" lon="6.90287">
        <ele>1168.6</ele>
        <time>2017-01-06T04:50:17Z</time>
      </trkpt>
      <trkpt lat="45.08368" lon="6.90251">
        <ele>1167.28</ele>
        <time>2017-01-06T04:50:19Z</time>
      </trkpt>
      <trkpt lat="45.08356" lon="6.90225">
        <ele>1166.81</ele>
        <time>2017-01-06T04:50:20Z</time>
      </trkpt>
      <trkpt lat="45.08351" lon="6.9021">
        <ele>1166.94</ele>
        <time>2017-01-06T04:50:21Z</time>
      </trkpt>
      <trkpt lat="45.08349" lon="6.9019">
        <ele>1167.76</ele>
        <time>2017-01-06T04:50:22Z</time>
      </trkpt>
      <trkpt lat="45.08357" lon="6.90169">
        <ele>1168.69</ele>
        <time>2017-01-06T04:50:23Z</time>
      </trkpt>
      <trkpt lat="45.08389" lon="6.90155">
        <ele>1171.43</ele>
        <time>2017-01-06T04:50:25Z</time>
      </trkpt>
      <trkpt lat="45.08403" lon="6.90147">
        <ele>1173.08</ele>
        <time>2017-01-06T04:50:25Z</time>
      </trkpt>
      <trkpt lat="45.08408" lon="6.90124">
        <ele>1176.04</ele>
        <time>2017-01-06T04:50:26Z</time>
      </trkpt>
      <trkpt lat="45.08404" lon="6.90106">
        <ele>1177.81</ele>
        <time>2017-01-06T04:50:27Z</time>
      </trkpt>
      <trkpt lat="45.08353" lon="6.90038">
        <ele>1176.89</ele>
        <time>2017-01-06T04:50:31Z</time>
      </trkpt>
      <trkpt lat="45.08335" lon="6.89995">
        <ele>1177.6</ele>
        <time>2017-01-06T04:50:33Z</time>
      </trkpt>
      <trkpt lat="45.08326" lon="6.89923">
        <ele>1187.51</ele>
        <time>2017-01-06T04:50:36Z</time>
      </trkpt>
      <trkpt lat="45.08295" lon="6.89872">
        <ele>1187.24</ele>
        <time>2017-01-06T04:50:38Z</time>
      </trkpt>
      <trkpt lat="45.08294" lon="6.89813">
        <ele>1192.81</ele>
        <time>2017-01-06T04:50:41Z</time>
      </trkpt>
      <trkpt lat="45.08289" lon="6.8979">
        <ele>1196.64</ele>
        <time>2017-01-06T04:50:42Z</time>
      </trkpt>
      <trkpt lat="45.08268" lon="6.89754">
        <ele>1202.4</ele>
        <time>2017-01-06T04:50:43Z</time>
      </trkpt>
      <trkpt lat="45.08191" lon="6.89661">
        <ele>1206.03</ele>
        <time>2017-01-06T04:50:49Z</time>
      </trkpt>
      <trkpt lat="45.08183" lon="6.89639">
        <ele>1201.75</ele>
        <time>2017-01-06T04:50:50Z</time>
      </trkpt>
      <trkpt lat="45.08196" lon="6.89609">
        <ele>1212.9</ele>
        <time>2017-01-06T04:50:51Z</time>
      </trkpt>
      <trkpt lat="45.08218" lon="6.89572">
        <ele>1222.71</ele>
        <time>2017-01-06T04:50:53Z</time>
      </trkpt>
      <trkpt lat="45.08225" lon="6.89456">
        <ele>1230.83</ele>
        <time>2017-01-06T04:50:58Z</time>
      </trkpt>
      <trkpt lat="45.08198" lon="6.89349">
        <ele>1241.17</ele>
        <time>2017-01-06T04:51:02Z</time>
      </trkpt>
      <trkpt lat="45.08161" lon="6.89274">
        <ele>1241.02</ele>
        <time>2017-01-06T04:51:05Z</time>
      </trkpt>
      <trkpt lat="45.08158" lon="6.89201">
        <ele>1257.13</ele>
        <time>2017-01-06T04:51:08Z</time>
      </trkpt>
      <trkpt lat="45.08168" lon="6.89238">
        <ele>1255.24</ele>
        <time>2017-01-06T04:51:10Z</time>
      </trkpt>
      <trkpt lat="45.0817" lon="6.8926">
        <ele>1250.11</ele>
        <time>2017-01-06T04:51:11Z</time>
      </trkpt>
      <trkpt lat="45.08184" lon="6.89285">
        <ele>1253.11</ele>
        <time>2017-01-06T04:51:12Z</time>
      </trkpt>
      <trkpt lat="45.08241" lon="6.89367">
        <ele>1256.96</ele>
        <time>2017-01-06T04:51:16Z</time>
      </trkpt>
      <trkpt lat="45.08267" lon="6.89393">
        <ele>1263.33</ele>
        <time>2017-01-06T04:51:18Z</time>
      </trkpt>
      <trkpt lat="45.08294" lon="6.89443">
        <ele>1262.56</ele>
        <time>2017-01-06T04:51:21Z</time>
      </trkpt>
      <trkpt lat="45.08312" lon="6.89452">
        <ele>1266.83</ele>
        <time>2017-01-06T04:51:22Z</time>
      </trkpt>
      <trkpt lat="45.08332" lon="6.89484">
        <ele>1269.68</ele>
        <time>2017-01-06T04:51:23Z</time>
      </trkpt>
      <trkpt lat="45.08362" lon="6.89504">
        <ele>1276.5</ele>
        <time>2017-01-06T04:51:25Z</time>
      </trkpt>
      <trkpt lat="45.08409" lon="6.89542">
        <ele>1278.36</ele>
        <time>2017-01-06T04:51:28Z</time>
      </trkpt>
      <trkpt lat="45.08432" lon="6.89496">
        <ele>1289.28</ele>
        <time>2017-01-06T04:51:30Z</time>
      </trkpt>
      <trkpt lat="45.08457" lon="6.89517">
        <ele>1291.49</ele>
        <time>2017-01-06T04:51:32Z</time>
      </trkpt>
      <trkpt lat="45.08473" lon="6.89544">
        <ele>1289.7</ele>
        <time>2017-01-06T04:51:33Z</time>
      </trkpt>
      <trkpt lat="45.08515" lon="6.89555">
        <ele>1297.92</ele>
        <time>2017-01-06T04:51:36Z</time>
      </trkpt>
      <trkpt lat="45.08536" lon="6.89568">
        <ele>1301.41</ele>
        <time>2017-01-06T04:51:37Z</time>
      </trkpt>
      <trkpt lat="45.08542" lon="6.89583">
        <ele>1301.14</ele>
        <time>2017-01-06T04:51:37Z</time>
      </trkpt>
      <trkpt lat="45.08555" lon="6.89632">
        <ele>1298.34</ele>
        <time>2017-01-06T04:51:40Z</time>
      </trkpt>
      <trkpt lat="45.08591" lon="6.89653">
        <ele>1303.07</ele>
        <time>2017-01-06T04:51:42Z</time>
      </trkpt>
      <trkpt lat="45.08626" lon="6.89639">
        <ele>1311.12</ele>
        <time>2017-01-06T04:51:44Z</time>
      </trkpt>
      <trkpt lat="45.08681" lon="6.89645">
        <ele>1315.01</ele>
        <time>2017-01-06T04:51:47Z</time>
      </trkpt>
      <trkpt lat="45.08696" lon="6.89652">
        <ele>1315.17</ele>
        <time>2017-01-06T04:51:48Z</time>
      </trkpt>
      <trkpt lat="45.08635" lon="6.896">
        <ele>1322.78</ele>
        <time>2017-01-06T04:51:52Z</time>
      </trkpt>
      <trkpt lat="45.08615" lon="6.89572">
        <ele>1324.1</ele>
        <time>2017-01-06T04:51:54Z</time>
      </trkpt>
      <trkpt lat="45.08613" lon="6.89508">
        <ele>1334.42</ele>
        <time>2017-01-06T04:51:56Z</time>
      </trkpt>
      <trkpt lat="45.08596" lon="6.89476">
        <ele>1337.47</ele>
        <time>2017-01-06T04:51:58Z</time>
      </trkpt>
      <trkpt lat="45.08548" lon="6.89425">
        <ele>1338.7</ele>
        <time>2017-01-06T04:52:01Z</time>
      </trkpt>
      <trkpt lat="45.08531" lon="6.89417">
        <ele>1336.72</ele>
        <time>2017-01-06T04:52:02Z</time>
      </trkpt>
      <trkpt lat="45.08537" lon="6.89401">
        <ele>1343.4</ele>
        <time>2017-01-06T04:52:03Z</time>
      </trkpt>
      <trkpt lat="45.08557" lon="6.89398">
        <ele>1350.74</ele>
        <time>2017-01-06T04:52:04Z</time>
      </trkpt>
      <trkpt lat="45.08619" lon="6.89416">
        <ele>1358.58</ele>
        <time>2017-01-06T04:52:07Z</time>
      </trkpt>
      <trkpt lat="45.08673" lon="6.89449">
        <ele>1363.68</ele>
        <time>2017-01-06T04:52:10Z</time>
      </trkpt>
      <trkpt lat="45.08664" lon="6.89423">
        <ele>1366.78</ele>
        <time>2017-01-06T04:52:11Z</time>
      </trkpt>
      <trkpt lat="45.08595" lon="6.89325">
        <ele>1376.57</ele>
        <time>2017-01-06T04:52:17Z</time>
      </trkpt>
      <trkpt lat="45.08607" lon="6.89312">
        <ele>1382.46</ele>
        <time>2017-01-06T04:52:18Z</time>
      </trkpt>
      <trkpt lat="45.08657" lon="6.89327">
        <ele>1387.35</ele>
        <time>2017-01-06T04:52:21Z</time>
      </trkpt>
      <trkpt lat="45.08689" lon="6.89345">
        <ele>1390.36</ele>
        <time>2017-01-06T04:52:23Z</time>
      </trkpt>
      <trkpt lat="45.08732" lon="6.89382">
        <ele>1394.9</ele>
        <time>2017-01-06T04:52:25Z</time>
      </trkpt>
      <trkpt lat="45.08762" lon="6.89419">
        <ele>1397.48</ele>
        <time>2017-01-06T04:52:28Z</time>
      </trkpt>
      <trkpt lat="45.08852" lon="6.89423">
        <ele>1409.71</ele>
        <time>2017-01-06T04:52:32Z</time>
      </trkpt>
      <trkpt lat="45.0897" lon="6.89397">
        <ele>1420.33</ele>
        <time>2017-01-06T04:52:39Z</time>
      </trkpt>
      <trkpt lat="45.0899" lon="6.89386">
        <ele>1423.98</ele>
        <time>2017-01-06T04:52:40Z</time>
      </trkpt>
      <trkpt lat="45.09006" lon="6.89325">
        <ele>1437.75</ele>
        <time>2017-01-06T04:52:43Z</time>
      </trkpt>
      <trkpt lat="45.09017" lon="6.89301">
        <ele>1442.05</ele>
        <time>2017-01-06T04:52:44Z</time>
      </trkpt>
      <trkpt lat="45.09032" lon="6.89303">
        <ele>1441.04</ele>
        <time>2017-01-06T04:52:45Z</time>
      </trkpt>
      <trkpt lat="45.09052" lon="6.89362">
        <ele>1439.88</ele>
        <time>2017-01-06T04:52:47Z</time>
      </trkpt>
      <trkpt lat="45.09094" lon="6.89435">
        <ele>1447.69</ele>
        <time>2017-01-06T04:52:51Z</time>
      </trkpt>
      <trkpt lat="45.09099" lon="6.8946">
        <ele>1449.13</ele>
        <time>2017-01-06T04:52:52Z</time>
      </trkpt>
      <trkpt lat="45.09106" lon="6.89471">
        <ele>1451.37</ele>
        <time>2017-01-06T04:52:52Z</time>
      </trkpt>
      <trkpt lat="45.09117" lon="6.89473">
        <ele>1454.4</ele>
        <time>2017-01-06T04:52:53Z</time>
      </trkpt>
      <trkpt lat="45.09148" lon="6.89468">
        <ele>1461.79</ele>
        <time>2017-01-06T04:52:55Z</time>
      </trkpt>
      <trkpt lat="45.09183" lon="6.89492">
        <ele>1467.27</ele>
        <time>2017-01-06T04:52:57Z</time>
      </trkpt>
      <trkpt lat="45.09201" lon="6.895">
        <ele>1468.47</ele>
        <time>2017-01-06T04:52:58Z</time>
      </trkpt>
      <trkpt lat="45.09218" lon="6.89498">
        <ele>1469.97</ele>
        <time>2017-01-06T04:52:59Z</time>
      </trkpt>
      <trkpt lat="45.09249" lon="6.89475">
        <ele>1473.6</ele>
        <time>2017-01-06T04:53:01Z</time>
      </trkpt>
      <trkpt lat="45.09261" lon="6.89516">
        <ele>1471.06</ele>
        <time>2017-01-06T04:53:03Z</time>
      </trkpt>
      <trkpt lat="45.0926" lon="6.89591">
        <ele>1464.51</ele>
        <time>2017-01-06T04:53:05Z</time>
      </trkpt>
      <trkpt lat="45.09283" lon="6.89652">
        <ele>1476.05</ele>
        <time>2017-01-06T04:53:08Z</time>
      </trkpt>
      <trkpt lat="45.0929" lon="6.8972">
        <ele>1486.78</ele>
        <time>2017-01-06T04:53:11Z</time>
      </trkpt>
      <trkpt lat="45.09275" lon="6.89803">
        <ele>1476.96</ele>
        <time>2017-01-06T04:53:14Z</time>
      </trkpt>
      <trkpt lat="45.09279" lon="6.89818">
        <ele>1473.15</ele>
        <time>2017-01-06T04:53:15Z</time>
      </trkpt>
      <trkpt lat="45.09293" lon="6.89828">
        <ele>1475.22</ele>
        <time>2017-01-06T04:53:16Z</time>
      </trkpt>
      <trkpt lat="45.09318" lon="6.89828">
        <ele>1482.26</ele>
        <time>2017-01-06T04:53:17Z</time>
      </trkpt>
      <trkpt lat="45.09398" lon="6.89779">
        <ele>1497.95</ele>
        <time>2017-01-06T04:53:22Z</time>
      </trkpt>
      <trkpt lat="45.09463" lon="6.8972">
        <ele>1518.56</ele>
        <time>2017-01-06T04:53:26Z</time>
      </trkpt>
      <trkpt lat="45.09475" lon="6.89719">
        <ele>1517.99</ele>
        <time>2017-01-06T04:53:27Z</time>
      </trkpt>
      <trkpt lat="45.09486" lon="6.89734">
        <ele>1515.16</ele>
        <time>2017-01-06T04:53:27Z</time>
      </trkpt>
      <trkpt lat="45.09493" lon="6.89751">
        <ele>1512.87</ele>
        <time>2017-01-06T04:53:28Z</time>
      </trkpt>
      <trkpt lat="45.09492" lon="6.89719">
        <ele>1518.39</ele>
        <time>2017-01-06T04:53:30Z</time>
      </trkpt>
      <trkpt lat="45.09469" lon="6.89681">
        <ele>1529.73</ele>
        <time>2017-01-06T04:53:32Z</time>
      </trkpt>
      <trkpt lat="45.09435" lon="6.89684">
        <ele>1528.01</ele>
        <time>2017-01-06T04:53:34Z</time>
      </trkpt>
      <trkpt lat="45.09397" lon="6.897">
        <ele>1522.81</ele>
        <time>2017-01-06T04:53:36Z</time>
      </trkpt>
      <trkpt lat="45.09374" lon="6.89701">
        <ele>1519.53</ele>
        <time>2017-01-06T04:53:37Z</time>
      </trkpt>
      <trkpt lat="45.09363" lon="6.89685">
        <ele>1520.45</ele>
        <time>2017-01-06T04:53:38Z</time>
      </trkpt>
      <trkpt lat="45.09365" lon="6.89668">
        <ele>1524.55</ele>
        <time>2017-01-06T04:53:39Z</time>
      </trkpt>
      <trkpt lat="45.0938" lon="6.89658">
        <ele>1528.82</ele>
        <time>2017-01-06T04:53:40Z</time>
      </trkpt>
      <trkpt lat="45.09408" lon="6.89653">
        <ele>1535.23</ele>
        <time>2017-01-06T04:53:41Z</time>
      </trkpt>
      <trkpt lat="45.09451" lon="6.89623">
        <ele>1549.56</ele>
        <time>2017-01-06T04:53:44Z</time>
      </trkpt>
      <trkpt lat="45.09479" lon="6.89623">
        <ele>1552.78</ele>
        <time>2017-01-06T04:53:45Z</time>
      </trkpt>
      <trkpt lat="45.09548" lon="6.89621">
        <ele>1565.7</ele>
        <time>2017-01-06T04:53:49Z</time>
      </trkpt>
      <trkpt lat="45.09563" lon="6.89636">
        <ele>1568.37</ele>
        <time>2017-01-06T04:53:50Z</time>
      </trkpt>
      <trkpt lat="45.09571" lon="6.8966">
        <ele>1565.01</ele>
        <time>2017-01-06T04:53:51Z</time>
      </trkpt>
      <trkpt lat="45.09595" lon="6.89724">
        <ele>1576.83</ele>
        <time>2017-01-06T04:53:54Z</time>
      </trkpt>
      <trkpt lat="45.09587" lon="6.89795">
        <ele>1577.93</ele>
        <time>2017-01-06T04:53:57Z</time>
      </trkpt>
      <trkpt lat="45.09598" lon="6.89897">
        <ele>1591.1</ele>
        <time>2017-01-06T04:54:01Z</time>
      </trkpt>
      <trkpt lat="45.09581" lon="6.89943">
        <ele>1579.42</ele>
        <time>2017-01-06T04:54:03Z</time>
      </trkpt>
      <trkpt lat="45.09572" lon="6.89963">
        <ele>1578.31</ele>
        <time>2017-01-06T04:54:04Z</time>
      </trkpt>
      <trkpt lat="45.09566" lon="6.90003">
        <ele>1582.26</ele>
        <time>2017-01-06T04:54:05Z</time>
      </trkpt>
      <trkpt lat="45.09556" lon="6.90032">
        <ele>1584.43</ele>
        <time>2017-01-06T04:54:06Z</time>
      </trkpt>
      <trkpt lat="45.09557" lon="6.90051">
        <ele>1585.81</ele>
        <time>2017-01-06T04:54:07Z</time>
      </trkpt>
      <trkpt lat="45.09584" lon="6.90078">
        <ele>1598.58</ele>
        <time>2017-01-06T04:54:09Z</time>
      </trkpt>
      <trkpt lat="45.09681" lon="6.90123">
        <ele>1614.19</ele>
        <time>2017-01-06T04:54:15Z</time>
      </trkpt>
      <trkpt lat="45.09757" lon="6.90187">
        <ele>1626.14</ele>
        <time>2017-01-06T04:54:19Z</time>
      </trkpt>
      <trkpt lat="45.09776" lon="6.90208">
        <ele>1626.46</ele>
        <time>2017-01-06T04:54:21Z</time>
      </trkpt>
      <trkpt lat="45.09795" lon="6.90219">
        <ele>1626.55</ele>
        <time>2017-01-06T04:54:22Z</time>
      </trkpt>
      <trkpt lat="45.09811" lon="6.90224">
        <ele>1628.04</ele>
        <time>2017-01-06T04:54:23Z</time>
      </trkpt>
      <trkpt lat="45.09831" lon="6.90234">
        <ele>1630.9</ele>
        <time>2017-01-06T04:54:24Z</time>
      </trkpt>
      <trkpt lat="45.09851" lon="6.90254">
        <ele>1632.47</ele>
        <time>2017-01-06T04:54:25Z</time>
      </trkpt>
      <trkpt lat="45.09867" lon="6.90261">
        <ele>1635.55</ele>
        <time>2017-01-06T04:54:26Z</time>
      </trkpt>
      <trkpt lat="45.09872" lon="6.90242">
        <ele>1640.98</ele>
        <time>2017-01-06T04:54:27Z</time>
      </trkpt>
      <trkpt lat="45.09865" lon="6.90226">
        <ele>1642.43</ele>
        <time>2017-01-06T04:54:28Z</time>
      </trkpt>
      <trkpt lat="45.09842" lon="6.90186">
        <ele>1649.15</ele>
        <time>2017-01-06T04:54:30Z</time>
      </trkpt>
      <trkpt lat="45.09826" lon="6.90169">
        <ele>1650.53</ele>
        <time>2017-01-06T04:54:31Z</time>
      </trkpt>
      <trkpt lat="45.09819" lon="6.90159">
        <ele>1650.5</ele>
        <time>2017-01-06T04:54:32Z</time>
      </trkpt>
      <trkpt lat="45.09851" lon="6.90159">
        <ele>1661.91</ele>
        <time>2017-01-06T04:54:34Z</time>
      </trkpt>
      <trkpt lat="45.09942" lon="6.90192">
        <ele>1677.92</ele>
        <time>2017-01-06T04:54:39Z</time>
      </trkpt>
      <trkpt lat="45.09965" lon="6.90197">
        <ele>1679.62</ele>
        <time>2017-01-06T04:54:40Z</time>
      </trkpt>
      <trkpt lat="45.09997" lon="6.90212">
        <ele>1681.1</ele>
        <time>2017-01-06T04:54:42Z</time>
      </trkpt>
      <trkpt lat="45.10014" lon="6.90212">
        <ele>1685.53</ele>
        <time>2017-01-06T04:54:43Z</time>
      </trkpt>
      <trkpt lat="45.10064" lon="6.90201">
        <ele>1699.08</ele>
        <time>2017-01-06T04:54:46Z</time>
      </trkpt>
      <trkpt lat="45.10093" lon="6.90197">
        <ele>1705.36</ele>
        <time>2017-01-06T04:54:47Z</time>
      </trkpt>
      <trkpt lat="45.10106" lon="6.90197">
        <ele>1708.68</ele>
        <time>2017-01-06T04:54:48Z</time>
      </trkpt>
      <trkpt lat="45.10118" lon="6.90202">
        <ele>1709.95</ele>
        <time>2017-01-06T04:54:49Z</time>
      </trkpt>
      <trkpt lat="45.10138" lon="6.90224">
        <ele>1709.1</ele>
        <time>2017-01-06T04:54:50Z</time>
      </trkpt>
      <trkpt lat="45.10154" lon="6.90242">
        <ele>1709.19</ele>
        <time>2017-01-06T04:54:51Z</time>
      </trkpt>
      <trkpt lat="45.10176" lon="6.90257">
        <ele>1710.75</ele>
        <time>2017-01-06T04:54:53Z</time>
      </trkpt>
      <trkpt lat="45.10193" lon="6.90263">
        <ele>1713.45</ele>
        <time>2017-01-06T04:54:54Z</time>
      </trkpt>
      <trkpt lat="45.10207" lon="6.90266">
        <ele>1716.01</ele>
        <time>2017-01-06T04:54:54Z</time>
      </trkpt>
      <trkpt lat="45.10228" lon="6.90267">
        <ele>1720.79</ele>
        <time>2017-01-06T04:54:56Z</time>
      </trkpt>
      <trkpt lat="45.10265" lon="6.90266">
        <ele>1724.43</ele>
        <time>2017-01-06T04:54:58Z</time>
      </trkpt>
      <trkpt lat="45.10319" lon="6.90248">
        <ele>1735.54</ele>
        <time>2017-01-06T04:55:01Z</time>
      </trkpt>
      <trkpt lat="45.10357" lon="6.90246">
        <ele>1740.01</ele>
        <time>2017-01-06T04:55:03Z</time>
      </trkpt>
      <trkpt lat="45.10379" lon="6.90252">
        <ele>1739.09</ele>
        <time>2017-01-06T04:55:04Z</time>
      </trkpt>
      <trkpt lat="45.10393" lon="6.90261">
        <ele>1737.41</ele>
        <time>2017-01-06T04:55:05Z</time>
      </trkpt>
      <trkpt lat="45.1041" lon="6.90273">
        <ele>1736.82</ele>
        <time>2017-01-06T04:55:06Z</time>
      </trkpt>
      <trkpt lat="45.10424" lon="6.90277">
        <ele>1738.8</ele>
        <time>2017-01-06T04:55:07Z</time>
      </trkpt>
      <trkpt lat="45.10449" lon="6.90274">
        <ele>1744.35</ele>
        <time>2017-01-06T04:55:08Z</time>
      </trkpt>
      <trkpt lat="45.10468" lon="6.90265">
        <ele>1749.09</ele>
        <time>2017-01-06T04:55:09Z</time>
      </trkpt>
      <trkpt lat="45.1048" lon="6.90263">
        <ele>1751.31</ele>
        <time>2017-01-06T04:55:10Z</time>
      </trkpt>
      <trkpt lat="45.10505" lon="6.90252">
        <ele>1758.56</ele>
        <time>2017-01-06T04:55:11Z</time>
      </trkpt>
      <trkpt lat="45.10531" lon="6.9025">
        <ele>1761.46</ele>
        <time>2017-01-06T04:55:13Z</time>
      </trkpt>
      <trkpt lat="45.10551" lon="6.9025">
        <ele>1764.34</ele>
        <time>2017-01-06T04:55:14Z</time>
      </trkpt>
      <trkpt lat="45.10566" lon="6.90244">
        <ele>1769.77</ele>
        <time>2017-01-06T04:55:15Z</time>
      </trkpt>
      <trkpt lat="45.10577" lon="6.90239">
        <ele>1774.31</ele>
        <time>2017-01-06T04:55:15Z</time>
      </trkpt>
      <trkpt lat="45.10595" lon="6.90239">
        <ele>1776.46</ele>
        <time>2017-01-06T04:55:16Z</time>
      </trkpt>
      <trkpt lat="45.10618" lon="6.90244">
        <ele>1776.35</ele>
        <time>2017-01-06T04:55:17Z</time>
      </trkpt>
      <trkpt lat="45.10633" lon="6.90256">
        <ele>1772.6</ele>
        <time>2017-01-06T04:55:18Z</time>
      </trkpt>
      <trkpt lat="45.10648" lon="6.90272">
        <ele>1764.46</ele>
        <time>2017-01-06T04:55:19Z</time>
      </trkpt>
      <trkpt lat="45.10709" lon="6.90265">
        <ele>1773.36</ele>
        <time>2017-01-06T04:55:23Z</time>
      </trkpt>
      <trkpt lat="45.10728" lon="6.90263">
        <ele>1773.47</ele>
        <time>2017-01-06T04:55:24Z</time>
      </trkpt>
      <trkpt lat="45.10744" lon="6.90255">
        <ele>1775.2</ele>
        <time>2017-01-06T04:55:25Z</time>
      </trkpt>
      <trkpt lat="45.10756" lon="6.9024">
        <ele>1779.74</ele>
        <time>2017-01-06T04:55:26Z</time>
      </trkpt>
      <trkpt lat="45.10765" lon="6.9022">
        <ele>1786.61</ele>
        <time>2017-01-06T04:55:27Z</time>
      </trkpt>
      <trkpt lat="45.10787" lon="6.90203">
        <ele>1786.88</ele>
        <time>2017-01-06T04:55:28Z</time>
      </trkpt>
      <trkpt lat="45.10814" lon="6.90181">
        <ele>1789.85</ele>
        <time>2017-01-06T04:55:30Z</time>
      </trkpt>
      <trkpt lat="45.10833" lon="6.9016">
        <ele>1795.68</ele>
        <time>2017-01-06T04:55:31Z</time>
      </trkpt>
      <trkpt lat="45.10857" lon="6.90143">
        <ele>1797.46</ele>
        <time>2017-01-06T04:55:32Z</time>
      </trkpt>
      <trkpt lat="45.10884" lon="6.90128">
        <ele>1794.54</ele>
        <time>2017-01-06T04:55:34Z</time>
      </trkpt>
      <trkpt lat="45.10918" lon="6.90104">
        <ele>1792.07</ele>
        <time>2017-01-06T04:55:36Z</time>
      </trkpt>
      <trkpt lat="45.10935" lon="6.90095">
        <ele>1792.79</ele>
        <time>2017-01-06T04:55:37Z</time>
      </trkpt>
      <trkpt lat="45.10995" lon="6.90084">
        <ele>1788.91</ele>
        <time>2017-01-06T04:55:40Z</time>
      </trkpt>
      <trkpt lat="45.11031" lon="6.90081">
        <ele>1785.49</ele>
        <time>2017-01-06T04:55:42Z</time>
      </trkpt>
      <trkpt lat="45.1105" lon="6.90081">
        <ele>1785.44</ele>
        <time>2017-01-06T04:55:43Z</time>
      </trkpt>
      <trkpt lat="45.11065" lon="6.90083">
        <ele>1784.04</ele>
        <time>2017-01-06T04:55:44Z</time>
      </trkpt>
      <trkpt lat="45.11079" lon="6.90086">
        <ele>1782.04</ele>
        <time>2017-01-06T04:55:45Z</time>
      </trkpt>
      <trkpt lat="45.11115" lon="6.9007">
        <ele>1784.33</ele>
        <time>2017-01-06T04:55:47Z</time>
      </trkpt>
      <trkpt lat="45.11145" lon="6.90053">
        <ele>1787.98</ele>
        <time>2017-01-06T04:55:49Z</time>
      </trkpt>
      <trkpt lat="45.11165" lon="6.90061">
        <ele>1788.99</ele>
        <time>2017-01-06T04:55:50Z</time>
      </trkpt>
      <trkpt lat="45.11166" lon="6.9008">
        <ele>1789.68</ele>
        <time>2017-01-06T04:55:52Z</time>
      </trkpt>
      <trkpt lat="45.11152" lon="6.90111">
        <ele>1786.66</ele>
        <time>2017-01-06T04:55:53Z</time>
      </trkpt>
      <trkpt lat="45.11138" lon="6.90137">
        <ele>1784.45</ele>
        <time>2017-01-06T04:55:54Z</time>
      </trkpt>
      <trkpt lat="45.1112" lon="6.90164">
        <ele>1780.98</ele>
        <time>2017-01-06T04:55:56Z</time>
      </trkpt>
      <trkpt lat="45.11109" lon="6.90183">
        <ele>1777.29</ele>
        <time>2017-01-06T04:55:57Z</time>
      </trkpt>
      <trkpt lat="45.11106" lon="6.90197">
        <ele>1775.53</ele>
        <time>2017-01-06T04:55:57Z</time>
      </trkpt>
      <trkpt lat="45.11089" lon="6.90229">
        <ele>1763.72</ele>
        <time>2017-01-06T04:55:59Z</time>
      </trkpt>
      <trkpt lat="45.11105" lon="6.90267">
        <ele>1760.7</ele>
        <time>2017-01-06T04:56:01Z</time>
      </trkpt>
      <trkpt lat="45.11109" lon="6.90281">
        <ele>1758.77</ele>
        <time>2017-01-06T04:56:01Z</time>
      </trkpt>
      <trkpt lat="45.11105" lon="6.90304">
        <ele>1752.8</ele>
        <time>2017-01-06T04:56:02Z</time>
      </trkpt>
      <trkpt lat="45.11112" lon="6.90333">
        <ele>1749.25</ele>
        <time>2017-01-06T04:56:03Z</time>
      </trkpt>
      <trkpt lat="45.11137" lon="6.90378">
        <ele>1742.66</ele>
        <time>2017-01-06T04:56:06Z</time>
      </trkpt>
      <trkpt lat="45.11161" lon="6.90394">
        <ele>1741.47</ele>
        <time>2017-01-06T04:56:07Z</time>
      </trkpt>
      <trkpt lat="45.11178" lon="6.90417">
        <ele>1740.45</ele>
        <time>2017-01-06T04:56:08Z</time>
      </trkpt>
      <trkpt lat="45.11181" lon="6.90435">
        <ele>1739.72</ele>
        <time>2017-01-06T04:56:09Z</time>
      </trkpt>
      <trkpt lat="45.11183" lon="6.90491">
        <ele>1738.94</ele>
        <time>2017-01-06T04:56:11Z</time>
      </trkpt>
      <trkpt lat="45.11184" lon="6.90516">
        <ele>1741.34</ele>
        <time>2017-01-06T04:56:12Z</time>
      </trkpt>
      <trkpt lat="45.11169" lon="6.9055">
        <ele>1737.29</ele>
        <time>2017-01-06T04:56:14Z</time>
      </trkpt>
      <trkpt lat="45.11142" lon="6.90594">
        <ele>1716.71</ele>
        <time>2017-01-06T04:56:16Z</time>
      </trkpt>
      <trkpt lat="45.11134" lon="6.90612">
        <ele>1711.02</ele>
        <time>2017-01-06T04:56:17Z</time>
      </trkpt>
      <trkpt lat="45.11143" lon="6.90629">
        <ele>1713.6</ele>
        <time>2017-01-06T04:56:18Z</time>
      </trkpt>
      <trkpt lat="45.11121" lon="6.90629">
        <ele>1705.87</ele>
        <time>2017-01-06T04:56:20Z</time>
      </trkpt>
      <trkpt lat="45.11125" lon="6.90591">
        <ele>1708.59</ele>
        <time>2017-01-06T04:56:21Z</time>
      </trkpt>
      <trkpt lat="45.11129" lon="6.90565">
        <ele>1710.78</ele>
        <time>2017-01-06T04:56:22Z</time>
      </trkpt>
      <trkpt lat="45.1113" lon="6.90541">
        <ele>1711.03</ele>
        <time>2017-01-06T04:56:23Z</time>
      </trkpt>
      <trkpt lat="45.11127" lon="6.90518">
        <ele>1710.16</ele>
        <time>2017-01-06T04:56:24Z</time>
      </trkpt>
      <trkpt lat="45.11115" lon="6.90558">
        <ele>1703.18</ele>
        <time>2017-01-06T04:56:26Z</time>
      </trkpt>
      <trkpt lat="45.11097" lon="6.90601">
        <ele>1696.73</ele>
        <time>2017-01-06T04:56:28Z</time>
      </trkpt>
      <trkpt lat="45.11085" lon="6.90622">
        <ele>1692.62</ele>
        <time>2017-01-06T04:56:29Z</time>
      </trkpt>
      <trkpt lat="45.11047" lon="6.90667">
        <ele>1679.27</ele>
        <time>2017-01-06T04:56:32Z</time>
      </trkpt>
      <trkpt lat="45.11036" lon="6.90684">
        <ele>1673.81</ele>
        <time>2017-01-06T04:56:33Z</time>
      </trkpt>
      <trkpt lat="45.11057" lon="6.90699">
        <ele>1678.16</ele>
        <time>2017-01-06T04:56:34Z</time>
      </trkpt>
      <trkpt lat="45.11067" lon="6.90709">
        <ele>1678.52</ele>
        <time>2017-01-06T04:56:35Z</time>
      </trkpt>
      <trkpt lat="45.11076" lon="6.90722">
        <ele>1677.69</ele>
        <time>2017-01-06T04:56:36Z</time>
      </trkpt>
      <trkpt lat="45.11089" lon="6.90727">
        <ele>1681.45</ele>
        <time>2017-01-06T04:56:36Z</time>
      </trkpt>
      <trkpt lat="45.11094" lon="6.90748">
        <ele>1679.4</ele>
        <time>2017-01-06T04:56:37Z</time>
      </trkpt>
      <trkpt lat="45.11085" lon="6.90778">
        <ele>1670.04</ele>
        <time>2017-01-06T04:56:39Z</time>
      </trkpt>
      <trkpt lat="45.11083" lon="6.90802">
        <ele>1670.56</ele>
        <time>2017-01-06T04:56:40Z</time>
      </trkpt>
      <trkpt lat="45.11069" lon="6.90829">
        <ele>1664.41</ele>
        <time>2017-01-06T04:56:41Z</time>
      </trkpt>
      <trkpt lat="45.11055" lon="6.90858">
        <ele>1656.48</ele>
        <time>2017-01-06T04:56:42Z</time>
      </trkpt>
      <trkpt lat="45.1105" lon="6.90877">
        <ele>1652.91</ele>
        <time>2017-01-06T04:56:43Z</time>
      </trkpt>
      <trkpt lat="45.11045" lon="6.9091">
        <ele>1651.39</ele>
        <time>2017-01-06T04:56:44Z</time>
      </trkpt>
      <trkpt lat="45.11044" lon="6.9094">
        <ele>1653.09</ele>
        <time>2017-01-06T04:56:45Z</time>
      </trkpt>
      <trkpt lat="45.11029" lon="6.91028">
        <ele>1647.65</ele>
        <time>2017-01-06T04:56:49Z</time>
      </trkpt>
      <trkpt lat="45.11028" lon="6.91045">
        <ele>1646.5</ele>
        <time>2017-01-06T04:56:50Z</time>
      </trkpt>
      <trkpt lat="45.1103" lon="6.91064">
        <ele>1646.64</ele>
        <time>2017-01-06T04:56:50Z</time>
      </trkpt>
      <trkpt lat="45.11034" lon="6.91089">
        <ele>1647.65</ele>
        <time>2017-01-06T04:56:51Z</time>
      </trkpt>
      <trkpt lat="45.1103" lon="6.9111">
        <ele>1644.48</ele>
        <time>2017-01-06T04:56:52Z</time>
      </trkpt>
      <trkpt lat="45.11022" lon="6.91124">
        <ele>1642.28</ele>
        <time>2017-01-06T04:56:53Z</time>
      </trkpt>
      <trkpt lat="45.11009" lon="6.91125">
        <ele>1635.7</ele>
        <time>2017-01-06T04:56:54Z</time>
      </trkpt>
      <trkpt lat="45.10989" lon="6.91137">
        <ele>1629.76</ele>
        <time>2017-01-06T04:56:55Z</time>
      </trkpt>
      <trkpt lat="45.10972" lon="6.91159">
        <ele>1625.03</ele>
        <time>2017-01-06T04:56:56Z</time>
      </trkpt>
      <trkpt lat="45.10956" lon="6.91186">
        <ele>1617.63</ele>
        <time>2017-01-06T04:56:57Z</time>
      </trkpt>
      <trkpt lat="45.10943" lon="6.91215">
        <ele>1607.34</ele>
        <time>2017-01-06T04:56:59Z</time>
      </trkpt>
      <trkpt lat="45.10945" lon="6.91178">
        <ele>1608.81</ele>
        <time>2017-01-06T04:57:00Z</time>
      </trkpt>
      <trkpt lat="45.1095" lon="6.91164">
        <ele>1611.39</ele>
        <time>2017-01-06T04:57:01Z</time>
      </trkpt>
      <trkpt lat="45.1096" lon="6.91142">
        <ele>1615.81</ele>
        <time>2017-01-06T04:57:02Z</time>
      </trkpt>
      <trkpt lat="45.10976" lon="6.91116">
        <ele>1619.46</ele>
        <time>2017-01-06T04:57:03Z</time>
      </trkpt>
      <trkpt lat="45.10962" lon="6.91122">
        <ele>1612.2</ele>
        <time>2017-01-06T04:57:05Z</time>
      </trkpt>
      <trkpt lat="45.10946" lon="6.91138">
        <ele>1606.64</ele>
        <time>2017-01-06T04:57:06Z</time>
      </trkpt>
      <trkpt lat="45.10936" lon="6.91152">
        <ele>1600.56</ele>
        <time>2017-01-06T04:57:06Z</time>
      </trkpt>
      <trkpt lat="45.10919" lon="6.91185">
        <ele>1590.03</ele>
        <time>2017-01-06T04:57:08Z</time>
      </trkpt>
      <trkpt lat="45.10915" lon="6.91204">
        <ele>1588.85</ele>
        <time>2017-01-06T04:57:09Z</time>
      </trkpt>
      <trkpt lat="45.10912" lon="6.91172">
        <ele>1584.76</ele>
        <time>2017-01-06T04:57:11Z</time>
      </trkpt>
      <trkpt lat="45.10921" lon="6.91136">
        <ele>1587.41</ele>
        <time>2017-01-06T04:57:12Z</time>
      </trkpt>
      <trkpt lat="45.10943" lon="6.91089">
        <ele>1590.03</ele>
        <time>2017-01-06T04:57:14Z</time>
      </trkpt>
      <trkpt lat="45.10903" lon="6.9113">
        <ele>1573.09</ele>
        <time>2017-01-06T04:57:18Z</time>
      </trkpt>
      <trkpt lat="45.10897" lon="6.91143">
        <ele>1572.16</ele>
        <time>2017-01-06T04:57:18Z</time>
      </trkpt>
      <trkpt lat="45.10886" lon="6.91172">
        <ele>1569.98</ele>
        <time>2017-01-06T04:57:19Z</time>
      </trkpt>
      <trkpt lat="45.10878" lon="6.91211">
        <ele>1568.2</ele>
        <time>2017-01-06T04:57:21Z</time>
      </trkpt>
      <trkpt lat="45.10878" lon="6.91151">
        <ele>1561.74</ele>
        <time>2017-01-06T04:57:24Z</time>
      </trkpt>
      <trkpt lat="45.10888" lon="6.91107">
        <ele>1557.17</ele>
        <time>2017-01-06T04:57:25Z</time>
      </trkpt>
      <trkpt lat="45.10894" lon="6.91095">
        <ele>1558.9</ele>
        <time>2017-01-06T04:57:26Z</time>
      </trkpt>
      <trkpt lat="45.10881" lon="6.91101">
        <ele>1553.06</ele>
        <time>2017-01-06T04:57:27Z</time>
      </trkpt>
      <trkpt lat="45.1087" lon="6.91125">
        <ele>1552.82</ele>
        <time>2017-01-06T04:57:28Z</time>
      </trkpt>
      <trkpt lat="45.10851" lon="6.91193">
        <ele>1550.39</ele>
        <time>2017-01-06T04:57:31Z</time>
      </trkpt>
      <trkpt lat="45.10846" lon="6.91213">
        <ele>1545.51</ele>
        <time>2017-01-06T04:57:32Z</time>
      </trkpt>
      <trkpt lat="45.10842" lon="6.91186">
        <ele>1544.75</ele>
        <time>2017-01-06T04:57:33Z</time>
      </trkpt>
      <trkpt lat="45.10842" lon="6.91139">
        <ele>1543.13</ele>
        <time>2017-01-06T04:57:35Z</time>
      </trkpt>
      <trkpt lat="45.10843" lon="6.91121">
        <ele>1540.71</ele>
        <time>2017-01-06T04:57:36Z</time>
      </trkpt>
      <trkpt lat="45.10847" lon="6.91104">
        <ele>1538.34</ele>
        <time>2017-01-06T04:57:37Z</time>
      </trkpt>
      <trkpt lat="45.10806" lon="6.91181">
        <ele>1523.75</ele>
        <time>2017-01-06T04:57:41Z</time>
      </trkpt>
      <trkpt lat="45.10794" lon="6.91206">
        <ele>1513.88</ele>
        <time>2017-01-06T04:57:42Z</time>
      </trkpt>
      <trkpt lat="45.10806" lon="6.9124">
        <ele>1517.96</ele>
        <time>2017-01-06T04:57:44Z</time>
      </trkpt>
      <trkpt lat="45.10821" lon="6.91263">
        <ele>1524.11</ele>
        <time>2017-01-06T04:57:45Z</time>
      </trkpt>
      <trkpt lat="45.10816" lon="6.91285">
        <ele>1520.96</ele>
        <time>2017-01-06T04:57:46Z</time>
      </trkpt>
      <trkpt lat="45.10807" lon="6.91291">
        <ele>1516.68</ele>
        <time>2017-01-06T04:57:47Z</time>
      </trkpt>
      <trkpt lat="45.10773" lon="6.91294">
        <ele>1505.68</ele>
        <time>2017-01-06T04:57:48Z</time>
      </trkpt>
      <trkpt lat="45.10745" lon="6.91304">
        <ele>1502.73</ele>
        <time>2017-01-06T04:57:50Z</time>
      </trkpt>
      <trkpt lat="45.10735" lon="6.91321">
        <ele>1501.49</ele>
        <time>2017-01-06T04:57:51Z</time>
      </trkpt>
      <trkpt lat="45.10727" lon="6.91342">
        <ele>1500.67</ele>
        <time>2017-01-06T04:57:52Z</time>
      </trkpt>
      <trkpt lat="45.10723" lon="6.91359">
        <ele>1500.32</ele>
        <time>2017-01-06T04:57:52Z</time>
      </trkpt>
      <trkpt lat="45.10715" lon="6.91329">
        <ele>1493.53</ele>
        <time>2017-01-06T04:57:54Z</time>
      </trkpt>
      <trkpt lat="45.1071" lon="6.9129">
        <ele>1489.23</ele>
        <time>2017-01-06T04:57:56Z</time>
      </trkpt>
      <trkpt lat="45.10681" lon="6.91264">
        <ele>1476.86</ele>
        <time>2017-01-06T04:57:58Z</time>
      </trkpt>
      <trkpt lat="45.1067" lon="6.91289">
        <ele>1478.17</ele>
        <time>2017-01-06T04:57:59Z</time>
      </trkpt>
      <trkpt lat="45.10669" lon="6.91339">
        <ele>1476.04</ele>
        <time>2017-01-06T04:58:01Z</time>
      </trkpt>
      <trkpt lat="45.10666" lon="6.91374">
        <ele>1477.17</ele>
        <time>2017-01-06T04:58:02Z</time>
      </trkpt>
      <trkpt lat="45.10662" lon="6.91398">
        <ele>1477.92</ele>
        <time>2017-01-06T04:58:03Z</time>
      </trkpt>
      <trkpt lat="45.10651" lon="6.91436">
        <ele>1474.63</ele>
        <time>2017-01-06T04:58:05Z</time>
      </trkpt>
      <trkpt lat="45.1063" lon="6.91487">
        <ele>1468.29</ele>
        <time>2017-01-06T04:58:07Z</time>
      </trkpt>
      <trkpt lat="45.10629" lon="6.9151">
        <ele>1470.22</ele>
        <time>2017-01-06T04:58:08Z</time>
      </trkpt>
      <trkpt lat="45.10615" lon="6.91527">
        <ele>1465.6</ele>
        <time>2017-01-06T04:58:09Z</time>
      </trkpt>
      <trkpt lat="45.10592" lon="6.91584">
        <ele>1456.05</ele>
        <time>2017-01-06T04:58:12Z</time>
      </trkpt>
      <trkpt lat="45.10578" lon="6.91634">
        <ele>1452.15</ele>
        <time>2017-01-06T04:58:14Z</time>
      </trkpt>
      <trkpt lat="45.10557" lon="6.91726">
        <ele>1443.51</ele>
        <time>2017-01-06T04:58:18Z</time>
      </trkpt>
      <trkpt lat="45.10541" lon="6.91726">
        <ele>1438.88</ele>
        <time>2017-01-06T04:58:19Z</time>
      </trkpt>
      <trkpt lat="45.10529" lon="6.91702">
        <ele>1434.69</ele>
        <time>2017-01-06T04:58:20Z</time>
      </trkpt>
      <trkpt lat="45.10523" lon="6.91676">
        <ele>1434.12</ele>
        <time>2017-01-06T04:58:21Z</time>
      </trkpt>
      <trkpt lat="45.10513" lon="6.91646">
        <ele>1433.76</ele>
        <time>2017-01-06T04:58:22Z</time>
      </trkpt>
      <trkpt lat="45.10509" lon="6.91631">
        <ele>1433.17</ele>
        <time>2017-01-06T04:58:23Z</time>
      </trkpt>
      <trkpt lat="45.10517" lon="6.91577">
        <ele>1433.47</ele>
        <time>2017-01-06T04:58:25Z</time>
      </trkpt>
      <trkpt lat="45.10521" lon="6.91537">
        <ele>1428.79</ele>
        <time>2017-01-06T04:58:26Z</time>
      </trkpt>
      <trkpt lat="45.10519" lon="6.91522">
        <ele>1426.09</ele>
        <time>2017-01-06T04:58:27Z</time>
      </trkpt>
      <trkpt lat="45.10504" lon="6.91465">
        <ele>1418.76</ele>
        <time>2017-01-06T04:58:29Z</time>
      </trkpt>
      <trkpt lat="45.10492" lon="6.91424">
        <ele>1415.2</ele>
        <time>2017-01-06T04:58:31Z</time>
      </trkpt>
      <trkpt lat="45.1048" lon="6.91433">
        <ele>1411.22</ele>
        <time>2017-01-06T04:58:32Z</time>
      </trkpt>
      <trkpt lat="45.1047" lon="6.91481">
        <ele>1412.02</ele>
        <time>2017-01-06T04:58:34Z</time>
      </trkpt>
      <trkpt lat="45.10461" lon="6.91537">
        <ele>1409.83</ele>
        <time>2017-01-06T04:58:36Z</time>
      </trkpt>
      <trkpt lat="45.10458" lon="6.91553">
        <ele>1408.88</ele>
        <time>2017-01-06T04:58:37Z</time>
      </trkpt>
      <trkpt lat="45.10443" lon="6.91582">
        <ele>1403.43</ele>
        <time>2017-01-06T04:58:38Z</time>
      </trkpt>
      <trkpt lat="45.10427" lon="6.91608">
        <ele>1399.76</ele>
        <time>2017-01-06T04:58:40Z</time>
      </trkpt>
      <trkpt lat="45.1041" lon="6.91631">
        <ele>1396.84</ele>
        <time>2017-01-06T04:58:41Z</time>
      </trkpt>
      <trkpt lat="45.10396" lon="6.91659">
        <ele>1395.15</ele>
        <time>2017-01-06T04:58:42Z</time>
      </trkpt>
      <trkpt lat="45.10341" lon="6.91773">
        <ele>1383.47</ele>
        <time>2017-01-06T04:58:47Z</time>
      </trkpt>
      <trkpt lat="45.10338" lon="6.918">
        <ele>1384.58</ele>
        <time>2017-01-06T04:58:49Z</time>
      </trkpt>
      <trkpt lat="45.10335" lon="6.91864">
        <ele>1386.13</ele>
        <time>2017-01-06T04:58:51Z</time>
      </trkpt>
      <trkpt lat="45.10337" lon="6.91913">
        <ele>1382.78</ele>
        <time>2017-01-06T04:58:53Z</time>
      </trkpt>
      <trkpt lat="45.10343" lon="6.91936">
        <ele>1381.06</ele>
        <time>2017-01-06T04:58:54Z</time>
      </trkpt>
      <trkpt lat="45.10351" lon="6.91957">
        <ele>1379.39</ele>
        <time>2017-01-06T04:58:55Z</time>
      </trkpt>
      <trkpt lat="45.10365" lon="6.91993">
        <ele>1378.42</ele>
        <time>2017-01-06T04:58:56Z</time>
      </trkpt>
      <trkpt lat="45.10368" lon="6.92018">
        <ele>1376.54</ele>
        <time>2017-01-06T04:58:57Z</time>
      </trkpt>
      <trkpt lat="45.10369" lon="6.92052">
        <ele>1373.96</ele>
        <time>2017-01-06T04:58:59Z</time>
      </trkpt>
      <trkpt lat="45.10373" lon="6.92072">
        <ele>1372.45</ele>
        <time>2017-01-06T04:59:00Z</time>
      </trkpt>
      <trkpt lat="45.10384" lon="6.92135">
        <ele>1367.83</ele>
        <time>2017-01-06T04:59:02Z</time>
      </trkpt>
      <trkpt lat="45.10389" lon="6.92162">
        <ele>1364.05</ele>
        <time>2017-01-06T04:59:03Z</time>
      </trkpt>
      <trkpt lat="45.10389" lon="6.92184">
        <ele>1359.3</ele>
        <time>2017-01-06T04:59:04Z</time>
      </trkpt>
      <trkpt lat="45.10389" lon="6.9221">
        <ele>1354.25</ele>
        <time>2017-01-06T04:59:05Z</time>
      </trkpt>
      <trkpt lat="45.10392" lon="6.92228">
        <ele>1352.23</ele>
        <time>2017-01-06T04:59:06Z</time>
      </trkpt>
      <trkpt lat="45.10395" lon="6.92244">
        <ele>1350.33</ele>
        <time>2017-01-06T04:59:06Z</time>
      </trkpt>
      <trkpt lat="45.10362" lon="6.92223">
        <ele>1343.12</ele>
        <time>2017-01-06T04:59:09Z</time>
      </trkpt>
      <trkpt lat="45.10336" lon="6.922">
        <ele>1340.13</ele>
        <time>2017-01-06T04:59:11Z</time>
      </trkpt>
      <trkpt lat="45.10312" lon="6.9218">
        <ele>1337.09</ele>
        <time>2017-01-06T04:59:13Z</time>
      </trkpt>
      <trkpt lat="45.10272" lon="6.9213">
        <ele>1333.64</ele>
        <time>2017-01-06T04:59:16Z</time>
      </trkpt>
      <trkpt lat="45.10261" lon="6.92118">
        <ele>1330.61</ele>
        <time>2017-01-06T04:59:16Z</time>
      </trkpt>
      <trkpt lat="45.1025" lon="6.92101">
        <ele>1328.82</ele>
        <time>2017-01-06T04:59:17Z</time>
      </trkpt>
      <trkpt lat="45.10228" lon="6.92076">
        <ele>1324.34</ele>
        <time>2017-01-06T04:59:19Z</time>
      </trkpt>
      <trkpt lat="45.10215" lon="6.92061">
        <ele>1322.72</ele>
        <time>2017-01-06T04:59:20Z</time>
      </trkpt>
      <trkpt lat="45.102" lon="6.92035">
        <ele>1324.12</ele>
        <time>2017-01-06T04:59:21Z</time>
      </trkpt>
      <trkpt lat="45.10187" lon="6.91987">
        <ele>1326.87</ele>
        <time>2017-01-06T04:59:23Z</time>
      </trkpt>
      <trkpt lat="45.10179" lon="6.91954">
        <ele>1324.1</ele>
        <time>2017-01-06T04:59:24Z</time>
      </trkpt>
      <trkpt lat="45.10172" lon="6.91929">
        <ele>1321.08</ele>
        <time>2017-01-06T04:59:25Z</time>
      </trkpt>
      <trkpt lat="45.10163" lon="6.91883">
        <ele>1318.76</ele>
        <time>2017-01-06T04:59:27Z</time>
      </trkpt>
      <trkpt lat="45.1016" lon="6.91865">
        <ele>1316.92</ele>
        <time>2017-01-06T04:59:28Z</time>
      </trkpt>
      <trkpt lat="45.10172" lon="6.91819">
        <ele>1319.1</ele>
        <time>2017-01-06T04:59:30Z</time>
      </trkpt>
      <trkpt lat="45.10182" lon="6.91769">
        <ele>1318.74</ele>
        <time>2017-01-06T04:59:32Z</time>
      </trkpt>
      <trkpt lat="45.10192" lon="6.91706">
        <ele>1313.04</ele>
        <time>2017-01-06T04:59:35Z</time>
      </trkpt>
      <trkpt lat="45.10192" lon="6.91667">
        <ele>1310.23</ele>
        <time>2017-01-06T04:59:36Z</time>
      </trkpt>
      <trkpt lat="45.10192" lon="6.9164">
        <ele>1307.24</ele>
        <time>2017-01-06T04:59:37Z</time>
      </trkpt>
      <trkpt lat="45.1018" lon="6.91628">
        <ele>1301.59</ele>
        <time>2017-01-06T04:59:38Z</time>
      </trkpt>
      <trkpt lat="45.10179" lon="6.91607">
        <ele>1298.38</ele>
        <time>2017-01-06T04:59:39Z</time>
      </trkpt>
      <trkpt lat="45.1018" lon="6.91583">
        <ele>1294.06</ele>
        <time>2017-01-06T04:59:40Z</time>
      </trkpt>
      <trkpt lat="45.10192" lon="6.91512">
        <ele>1287.84</ele>
        <time>2017-01-06T04:59:43Z</time>
      </trkpt>
      <trkpt lat="45.10194" lon="6.9149">
        <ele>1284.58</ele>
        <time>2017-01-06T04:59:44Z</time>
      </trkpt>
      <trkpt lat="45.10235" lon="6.9139">
        <ele>1284.32</ele>
        <time>2017-01-06T04:59:48Z</time>
      </trkpt>
      <trkpt lat="45.10243" lon="6.91361">
        <ele>1290.46</ele>
        <time>2017-01-06T04:59:49Z</time>
      </trkpt>
      <trkpt lat="45.10248" lon="6.9133">
        <ele>1292.67</ele>
        <time>2017-01-06T04:59:51Z</time>
      </trkpt>
      <trkpt lat="45.10249" lon="6.91309">
        <ele>1292.54</ele>
        <time>2017-01-06T04:59:52Z</time>
      </trkpt>
      <trkpt lat="45.10248" lon="6.91294">
        <ele>1291.17</ele>
        <time>2017-01-06T04:59:52Z</time>
      </trkpt>
      <trkpt lat="45.10241" lon="6.91279">
        <ele>1287.45</ele>
        <time>2017-01-06T04:59:53Z</time>
      </trkpt>
      <trkpt lat="45.1023" lon="6.91266">
        <ele>1286.18</ele>
        <time>2017-01-06T04:59:54Z</time>
      </trkpt>
      <trkpt lat="45.1022" lon="6.91264">
        <ele>1284.1</ele>
        <time>2017-01-06T04:59:54Z</time>
      </trkpt>
      <trkpt lat="45.10208" lon="6.91266">
        <ele>1281.16</ele>
        <time>2017-01-06T04:59:55Z</time>
      </trkpt>
      <trkpt lat="45.10192" lon="6.91278">
        <ele>1271.78</ele>
        <time>2017-01-06T04:59:56Z</time>
      </trkpt>
      <trkpt lat="45.10159" lon="6.91301">
        <ele>1268.14</ele>
        <time>2017-01-06T04:59:58Z</time>
      </trkpt>
      <trkpt lat="45.10124" lon="6.9133">
        <ele>1271</ele>
        <time>2017-01-06T05:00:00Z</time>
      </trkpt>
      <trkpt lat="45.10088" lon="6.91354">
        <ele>1265.25</ele>
        <time>2017-01-06T05:00:02Z</time>
      </trkpt>
      <trkpt lat="45.10077" lon="6.91362">
        <ele>1259.91</ele>
        <time>2017-01-06T05:00:03Z</time>
      </trkpt>
      <trkpt lat="45.10053" lon="6.91366">
        <ele>1251.87</ele>
        <time>2017-01-06T05:00:04Z</time>
      </trkpt>
      <trkpt lat="45.10042" lon="6.91364">
        <ele>1249.84</ele>
        <time>2017-01-06T05:00:05Z</time>
      </trkpt>
      <trkpt lat="45.10025" lon="6.91361">
        <ele>1246.86</ele>
        <time>2017-01-06T05:00:06Z</time>
      </trkpt>
      <trkpt lat="45.09974" lon="6.91342">
        <ele>1247.92</ele>
        <time>2017-01-06T05:00:09Z</time>
      </trkpt>
      <trkpt lat="45.09941" lon="6.91331">
        <ele>1248.84</ele>
        <time>2017-01-06T05:00:11Z</time>
      </trkpt>
      <trkpt lat="45.09916" lon="6.91331">
        <ele>1248.84</ele>
        <time>2017-01-06T05:00:12Z</time>
      </trkpt>
      <trkpt lat="45.09863" lon="6.91352">
        <ele>1241.23</ele>
        <time>2017-01-06T05:00:15Z</time>
      </trkpt>
      <trkpt lat="45.09831" lon="6.91362">
        <ele>1239.73</ele>
        <time>2017-01-06T05:00:17Z</time>
      </trkpt>
      <trkpt lat="45.09793" lon="6.91367">
        <ele>1240.07</ele>
        <time>2017-01-06T05:00:19Z</time>
      </trkpt>
      <trkpt lat="45.09774" lon="6.91401">
        <ele>1233.16</ele>
        <time>2017-01-06T05:00:21Z</time>
      </trkpt>
      <trkpt lat="45.09767" lon="6.91416">
        <ele>1230.87</ele>
        <time>2017-01-06T05:00:21Z</time>
      </trkpt>
      <trkpt lat="45.09748" lon="6.91442">
        <ele>1229.59</ele>
        <time>2017-01-06T05:00:23Z</time>
      </trkpt>
      <trkpt lat="45.09727" lon="6.91453">
        <ele>1226.8</ele>
        <time>2017-01-06T05:00:24Z</time>
      </trkpt>
      <trkpt lat="45.09702" lon="6.91474">
        <ele>1222.34</ele>
        <time>2017-01-06T05:00:25Z</time>
      </trkpt>
      <trkpt lat="45.09663" lon="6.91531">
        <ele>1214.67</ele>
        <time>2017-01-06T05:00:29Z</time>
      </trkpt>
      <trkpt lat="45.09636" lon="6.91545">
        <ele>1212.25</ele>
        <time>2017-01-06T05:00:30Z</time>
      </trkpt>
      <trkpt lat="45.09625" lon="6.91542">
        <ele>1210.92</ele>
        <time>2017-01-06T05:00:31Z</time>
      </trkpt>
      <trkpt lat="45.0961" lon="6.91532">
        <ele>1208.98</ele>
        <time>2017-01-06T05:00:32Z</time>
      </trkpt>
      <trkpt lat="45.09591" lon="6.91522">
        <ele>1203.02</ele>
        <time>2017-01-06T05:00:33Z</time>
      </trkpt>
      <trkpt lat="45.09574" lon="6.91508">
        <ele>1199.92</ele>
        <time>2017-01-06T05:00:34Z</time>
      </trkpt>
      <trkpt lat="45.09552" lon="6.91474">
        <ele>1198.44</ele>
        <time>2017-01-06T05:00:36Z</time>
      </trkpt>
      <trkpt lat="45.09524" lon="6.91434">
        <ele>1192.07</ele>
        <time>2017-01-06T05:00:38Z</time>
      </trkpt>
      <trkpt lat="45.09507" lon="6.91411">
        <ele>1187.78</ele>
        <time>2017-01-06T05:00:39Z</time>
      </trkpt>
      <trkpt lat="45.095" lon="6.91396">
        <ele>1186.49</ele>
        <time>2017-01-06T05:00:40Z</time>
      </trkpt>
      <trkpt lat="45.09474" lon="6.9133">
        <ele>1188.19</ele>
        <time>2017-01-06T05:00:43Z</time>
      </trkpt>
      <trkpt lat="45.09467" lon="6.91318">
        <ele>1186.87</ele>
        <time>2017-01-06T05:00:43Z</time>
      </trkpt>
      <trkpt lat="45.09433" lon="6.91277">
        <ele>1180.48</ele>
        <time>2017-01-06T05:00:46Z</time>
      </trkpt>
      <trkpt lat="45.09409" lon="6.91244">
        <ele>1179.45</ele>
        <time>2017-01-06T05:00:48Z</time>
      </trkpt>
      <trkpt lat="45.09433" lon="6.91321">
        <ele>1169.81</ele>
        <time>2017-01-06T05:00:51Z</time>
      </trkpt>
      <trkpt lat="45.09427" lon="6.91335">
        <ele>1163.73</ele>
        <time>2017-01-06T05:00:52Z</time>
      </trkpt>
      <trkpt lat="45.09416" lon="6.9133">
        <ele>1158.47</ele>
        <time>2017-01-06T05:00:53Z</time>
      </trkpt>
      <trkpt lat="45.0937" lon="6.91261">
        <ele>1155.55</ele>
        <time>2017-01-06T05:00:56Z</time>
      </trkpt>
      <trkpt lat="45.09353" lon="6.91242">
        <ele>1154.46</ele>
        <time>2017-01-06T05:00:58Z</time>
      </trkpt>
      <trkpt lat="45.09332" lon="6.91227">
        <ele>1151.72</ele>
        <time>2017-01-06T05:00:59Z</time>
      </trkpt>
      <trkpt lat="45.093" lon="6.91206">
        <ele>1142.59</ele>
        <time>2017-01-06T05:01:01Z</time>
      </trkpt>
      <trkpt lat="45.09284" lon="6.91187">
        <ele>1138.12</ele>
        <time>2017-01-06T05:01:02Z</time>
      </trkpt>
      <trkpt lat="45.0927" lon="6.91152">
        <ele>1138.69</ele>
        <time>2017-01-06T05:01:04Z</time>
      </trkpt>
      <trkpt lat="45.09246" lon="6.91134">
        <ele>1127.4</ele>
        <time>2017-01-06T05:01:05Z</time>
      </trkpt>
      <trkpt lat="45.09237" lon="6.91126">
        <ele>1121.8</ele>
        <time>2017-01-06T05:01:06Z</time>
      </trkpt>
      <trkpt lat="45.09231" lon="6.91109">
        <ele>1118.33</ele>
        <time>2017-01-06T05:01:06Z</time>
      </trkpt>
      <trkpt lat="45.09214" lon="6.91038">
        <ele>1121.2</ele>
        <time>2017-01-06T05:01:09Z</time>
      </trkpt>
      <trkpt lat="45.09203" lon="6.91004">
        <ele>1122.01</ele>
        <time>2017-01-06T05:01:11Z</time>
      </trkpt>
      <trkpt lat="45.0919" lon="6.90986">
        <ele>1119.21</ele>
        <time>2017-01-06T05:01:12Z</time>
      </trkpt>
      <trkpt lat="45.09172" lon="6.90971">
        <ele>1114.72</ele>
        <time>2017-01-06T05:01:13Z</time>
      </trkpt>
      <trkpt lat="45.09153" lon="6.9095">
        <ele>1110</ele>
        <time>2017-01-06T05:01:14Z</time>
      </trkpt>
      <trkpt lat="45.09141" lon="6.90929">
        <ele>1109.76</ele>
        <time>2017-01-06T05:01:15Z</time>
      </trkpt>
      <trkpt lat="45.09157" lon="6.9098">
        <ele>1104.68</ele>
        <time>2017-01-06T05:01:18Z</time>
      </trkpt>
      <trkpt lat="45.09169" lon="6.91016">
        <ele>1099.31</ele>
        <time>2017-01-06T05:01:20Z</time>
      </trkpt>
      <trkpt lat="45.09168" lon="6.91069">
        <ele>1094.43</ele>
        <time>2017-01-06T05:01:22Z</time>
      </trkpt>
      <trkpt lat="45.09164" lon="6.91088">
        <ele>1093.86</ele>
        <time>2017-01-06T05:01:22Z</time>
      </trkpt>
      <trkpt lat="45.09136" lon="6.91127">
        <ele>1082.08</ele>
        <time>2017-01-06T05:01:25Z</time>
      </trkpt>
      <trkpt lat="45.09127" lon="6.91136">
        <ele>1077.54</ele>
        <time>2017-01-06T05:01:25Z</time>
      </trkpt>
      <trkpt lat="45.09129" lon="6.91162">
        <ele>1073.14</ele>
        <time>2017-01-06T05:01:26Z</time>
      </trkpt>
      <trkpt lat="45.09138" lon="6.91177">
        <ele>1072.68</ele>
        <time>2017-01-06T05:01:27Z</time>
      </trkpt>
      <trkpt lat="45.09165" lon="6.9121">
        <ele>1078.56</ele>
        <time>2017-01-06T05:01:29Z</time>
      </trkpt>
      <trkpt lat="45.09181" lon="6.91229">
        <ele>1081</ele>
        <time>2017-01-06T05:01:30Z</time>
      </trkpt>
      <trkpt lat="45.09171" lon="6.91239">
        <ele>1073.8</ele>
        <time>2017-01-06T05:01:31Z</time>
      </trkpt>
      <trkpt lat="45.09159" lon="6.91228">
        <ele>1070.24</ele>
        <time>2017-01-06T05:01:32Z</time>
      </trkpt>
      <trkpt lat="45.09123" lon="6.91212">
        <ele>1057.59</ele>
        <time>2017-01-06T05:01:34Z</time>
      </trkpt>
      <trkpt lat="45.09101" lon="6.91192">
        <ele>1055.28</ele>
        <time>2017-01-06T05:01:36Z</time>
      </trkpt>
      <trkpt lat="45.09089" lon="6.91175">
        <ele>1054.62</ele>
        <time>2017-01-06T05:01:37Z</time>
      </trkpt>
      <trkpt lat="45.09067" lon="6.91141">
        <ele>1051.36</ele>
        <time>2017-01-06T05:01:38Z</time>
      </trkpt>
      <trkpt lat="45.09057" lon="6.91123">
        <ele>1050.04</ele>
        <time>2017-01-06T05:01:39Z</time>
      </trkpt>
      <trkpt lat="45.09051" lon="6.91102">
        <ele>1050.74</ele>
        <time>2017-01-06T05:01:40Z</time>
      </trkpt>
      <trkpt lat="45.09042" lon="6.9107">
        <ele>1049.35</ele>
        <time>2017-01-06T05:01:41Z</time>
      </trkpt>
      <trkpt lat="45.09007" lon="6.91045">
        <ele>1040.27</ele>
        <time>2017-01-06T05:01:44Z</time>
      </trkpt>
      <trkpt lat="45.08993" lon="6.91036">
        <ele>1037.83</ele>
        <time>2017-01-06T05:01:44Z</time>
      </trkpt>
      <trkpt lat="45.08983" lon="6.9102">
        <ele>1038.18</ele>
        <time>2017-01-06T05:01:45Z</time>
      </trkpt>
      <trkpt lat="45.08997" lon="6.91059">
        <ele>1033.64</ele>
        <time>2017-01-06T05:01:48Z</time>
      </trkpt>
      <trkpt lat="45.09003" lon="6.91071">
        <ele>1034.47</ele>
        <time>2017-01-06T05:01:48Z</time>
      </trkpt>
      <trkpt lat="45.09001" lon="6.91085">
        <ele>1032.33</ele>
        <time>2017-01-06T05:01:49Z</time>
      </trkpt>
      <trkpt lat="45.08988" lon="6.9109">
        <ele>1027.34</ele>
        <time>2017-01-06T05:01:50Z</time>
      </trkpt>
      <trkpt lat="45.08971" lon="6.91079">
        <ele>1022.22</ele>
        <time>2017-01-06T05:01:51Z</time>
      </trkpt>
      <trkpt lat="45.0893" lon="6.91026">
        <ele>1014.54</ele>
        <time>2017-01-06T05:01:54Z</time>
      </trkpt>
      <trkpt lat="45.08904" lon="6.90996">
        <ele>1010.4</ele>
        <time>2017-01-06T05:01:56Z</time>
      </trkpt>
      <trkpt lat="45.08893" lon="6.90981">
        <ele>1009.29</ele>
        <time>2017-01-06T05:01:57Z</time>
      </trkpt>
      <trkpt lat="45.08883" lon="6.90984">
        <ele>1005.91</ele>
        <time>2017-01-06T05:01:57Z</time>
      </trkpt>
      <trkpt lat="45.08882" lon="6.91005">
        <ele>1003.52</ele>
        <time>2017-01-06T05:01:58Z</time>
      </trkpt>
      <trkpt lat="45.08884" lon="6.9103">
        <ele>1001.67</ele>
        <time>2017-01-06T05:01:59Z</time>
      </trkpt>
      <trkpt lat="45.08869" lon="6.90991">
        <ele>1001.01</ele>
        <time>2017-01-06T05:02:01Z</time>
      </trkpt>
      <trkpt lat="45.08857" lon="6.90965">
        <ele>999.41</ele>
        <time>2017-01-06T05:02:03Z</time>
      </trkpt>
      <trkpt lat="45.0886" lon="6.90998">
        <ele>997.86</ele>
        <time>2017-01-06T05:02:04Z</time>
      </trkpt>
      <trkpt lat="45.08859" lon="6.91031">
        <ele>995.31</ele>
        <time>2017-01-06T05:02:05Z</time>
      </trkpt>
      <trkpt lat="45.08859" lon="6.91095">
        <ele>988.84</ele>
        <time>2017-01-06T05:02:08Z</time>
      </trkpt>
      <trkpt lat="45.08863" lon="6.91116">
        <ele>985.04</ele>
        <time>2017-01-06T05:02:08Z</time>
      </trkpt>
      <trkpt lat="45.08873" lon="6.91139">
        <ele>981.26</ele>
        <time>2017-01-06T05:02:09Z</time>
      </trkpt>
      <trkpt lat="45.0892" lon="6.91194">
        <ele>986.67</ele>
        <time>2017-01-06T05:02:13Z</time>
      </trkpt>
      <trkpt lat="45.08935" lon="6.91221">
        <ele>985.28</ele>
        <time>2017-01-06T05:02:14Z</time>
      </trkpt>
      <trkpt lat="45.08945" lon="6.91246">
        <ele>984.23</ele>
        <time>2017-01-06T05:02:15Z</time>
      </trkpt>
      <trkpt lat="45.08982" lon="6.91352">
        <ele>977.32</ele>
        <time>2017-01-06T05:02:20Z</time>
      </trkpt>
      <trkpt lat="45.09008" lon="6.91423">
        <ele>968.41</ele>
        <time>2017-01-06T05:02:23Z</time>
      </trkpt>
      <trkpt lat="45.09043" lon="6.91512">
        <ele>964.75</ele>
        <time>2017-01-06T05:02:27Z</time>
      </trkpt>
      <trkpt lat="45.09055" lon="6.91538">
        <ele>962.87</ele>
        <time>2017-01-06T05:02:28Z</time>
      </trkpt>
      <trkpt lat="45.09093" lon="6.91597">
        <ele>958.12</ele>
        <time>2017-01-06T05:02:31Z</time>
      </trkpt>
      <trkpt lat="45.09161" lon="6.91712">
        <ele>955.31</ele>
        <time>2017-01-06T05:02:37Z</time>
      </trkpt>
      <trkpt lat="45.09256" lon="6.91877">
        <ele>939.38</ele>
        <time>2017-01-06T05:02:45Z</time>
      </trkpt>
      <trkpt lat="45.09303" lon="6.91963">
        <ele>938.03</ele>
        <time>2017-01-06T05:02:49Z</time>
      </trkpt>
      <trkpt lat="45.09332" lon="6.92029">
        <ele>929.97</ele>
        <time>2017-01-06T05:02:52Z</time>
      </trkpt>
      <trkpt lat="45.09354" lon="6.92094">
        <ele>933.12</ele>
        <time>2017-01-06T05:02:55Z</time>
      </trkpt>
      <trkpt lat="45.09369" lon="6.92147">
        <ele>926.78</ele>
        <time>2017-01-06T05:02:57Z</time>
      </trkpt>
      <trkpt lat="45.09377" lon="6.92182">
        <ele>922.75</ele>
        <time>2017-01-06T05:02:59Z</time>
      </trkpt>
      <trkpt lat="45.09386" lon="6.92241">
        <ele>916.49</ele>
        <time>2017-01-06T05:03:01Z</time>
      </trkpt>
      <trkpt lat="45.09392" lon="6.92283">
        <ele>916.05</ele>
        <time>2017-01-06T05:03:03Z</time>
      </trkpt>
      <trkpt lat="45.09399" lon="6.9231">
        <ele>918.28</ele>
        <time>2017-01-06T05:03:04Z</time>
      </trkpt>
      <trkpt lat="45.09417" lon="6.92356">
        <ele>919.88</ele>
        <time>2017-01-06T05:03:06Z</time>
      </trkpt>
      <trkpt lat="45.09437" lon="6.92399">
        <ele>918.54</ele>
        <time>2017-01-06T05:03:08Z</time>
      </trkpt>
      <trkpt lat="45.09484" lon="6.92488">
        <ele>912.83</ele>
        <time>2017-01-06T05:03:12Z</time>
      </trkpt>
      <trkpt lat="45.09517" lon="6.9254">
        <ele>906.76</ele>
        <time>2017-01-06T05:03:15Z</time>
      </trkpt>
      <trkpt lat="45.09535" lon="6.92562">
        <ele>906.86</ele>
        <time>2017-01-06T05:03:16Z</time>
      </trkpt>
      <trkpt lat="45.09577" lon="6.92603">
        <ele>906.04</ele>
        <time>2017-01-06T05:03:19Z</time>
      </trkpt>
      <trkpt lat="45.09637" lon="6.92648">
        <ele>894.43</ele>
        <time>2017-01-06T05:03:23Z</time>
      </trkpt>
      <trkpt lat="45.09655" lon="6.92658">
        <ele>894.59</ele>
        <time>2017-01-06T05:03:24Z</time>
      </trkpt>
      <trkpt lat="45.09676" lon="6.92663">
        <ele>896.48</ele>
        <time>2017-01-06T05:03:25Z</time>
      </trkpt>
      <trkpt lat="45.09701" lon="6.92665">
        <ele>900.18</ele>
        <time>2017-01-06T05:03:26Z</time>
      </trkpt>
      <trkpt lat="45.09715" lon="6.92668">
        <ele>901.93</ele>
        <time>2017-01-06T05:03:27Z</time>
      </trkpt>
      <trkpt lat="45.09728" lon="6.92674">
        <ele>904.33</ele>
        <time>2017-01-06T05:03:28Z</time>
      </trkpt>
      <trkpt lat="45.0974" lon="6.92681">
        <ele>908.13</ele>
        <time>2017-01-06T05:03:29Z</time>
      </trkpt>
      <trkpt lat="45.09751" lon="6.92696">
        <ele>909.35</ele>
        <time>2017-01-06T05:03:29Z</time>
      </trkpt>
      <trkpt lat="45.0976" lon="6.92712">
        <ele>911.27</ele>
        <time>2017-01-06T05:03:30Z</time>
      </trkpt>
      <trkpt lat="45.09805" lon="6.92832">
        <ele>897.27</ele>
        <time>2017-01-06T05:03:35Z</time>
      </trkpt>
      <trkpt lat="45.09862" lon="6.92982">
        <ele>892.18</ele>
        <time>2017-01-06T05:03:42Z</time>
      </trkpt>
      <trkpt lat="45.09882" lon="6.93031">
        <ele>888.63</ele>
        <time>2017-01-06T05:03:44Z</time>
      </trkpt>
      <trkpt lat="45.09909" lon="6.9308">
        <ele>886.86</ele>
        <time>2017-01-06T05:03:47Z</time>
      </trkpt>
      <trkpt lat="45.09933" lon="6.93117">
        <ele>887.64</ele>
        <time>2017-01-06T05:03:49Z</time>
      </trkpt>
      <trkpt lat="45.09957" lon="6.9315">
        <ele>890.94</ele>
        <time>2017-01-06T05:03:50Z</time>
      </trkpt>
      <trkpt lat="45.09978" lon="6.93176">
        <ele>888.39</ele>
        <time>2017-01-06T05:03:52Z</time>
      </trkpt>
      <trkpt lat="45.09997" lon="6.93196">
        <ele>887.03</ele>
        <time>2017-01-06T05:03:53Z</time>
      </trkpt>
      <trkpt lat="45.10041" lon="6.93234">
        <ele>891.6</ele>
        <time>2017-01-06T05:03:56Z</time>
      </trkpt>
      <trkpt lat="45.10057" lon="6.93262">
        <ele>883.92</ele>
        <time>2017-01-06T05:03:58Z</time>
      </trkpt>
      <trkpt lat="45.10068" lon="6.93296">
        <ele>877.8</ele>
        <time>2017-01-06T05:03:59Z</time>
      </trkpt>
      <trkpt lat="45.10084" lon="6.9339">
        <ele>863.1</ele>
        <time>2017-01-06T05:04:03Z</time>
      </trkpt>
      <trkpt lat="45.10092" lon="6.93417">
        <ele>863.13</ele>
        <time>2017-01-06T05:04:04Z</time>
      </trkpt>
      <trkpt lat="45.101" lon="6.93437">
        <ele>865.12</ele>
        <time>2017-01-06T05:04:05Z</time>
      </trkpt>
      <trkpt lat="45.1015" lon="6.93526">
        <ele>860.39</ele>
        <time>2017-01-06T05:04:09Z</time>
      </trkpt>
      <trkpt lat="45.10161" lon="6.9355">
        <ele>859.46</ele>
        <time>2017-01-06T05:04:10Z</time>
      </trkpt>
      <trkpt lat="45.10178" lon="6.93604">
        <ele>858.35</ele>
        <time>2017-01-06T05:04:13Z</time>
      </trkpt>
      <trkpt lat="45.10187" lon="6.93657">
        <ele>857.45</ele>
        <time>2017-01-06T05:04:15Z</time>
      </trkpt>
      <trkpt lat="45.10192" lon="6.93718">
        <ele>859.46</ele>
        <time>2017-01-06T05:04:17Z</time>
      </trkpt>
      <trkpt lat="45.10188" lon="6.93771">
        <ele>855.45</ele>
        <time>2017-01-06T05:04:19Z</time>
      </trkpt>
      <trkpt lat="45.10184" lon="6.9381">
        <ele>852.89</ele>
        <time>2017-01-06T05:04:21Z</time>
      </trkpt>
      <trkpt lat="45.10184" lon="6.9383">
        <ele>852.44</ele>
        <time>2017-01-06T05:04:21Z</time>
      </trkpt>
      <trkpt lat="45.10188" lon="6.9385">
        <ele>852.78</ele>
        <time>2017-01-06T05:04:22Z</time>
      </trkpt>
      <trkpt lat="45.10194" lon="6.93866">
        <ele>853.54</ele>
        <time>2017-01-06T05:04:23Z</time>
      </trkpt>
      <trkpt lat="45.10214" lon="6.93905">
        <ele>861.7</ele>
        <time>2017-01-06T05:04:25Z</time>
      </trkpt>
      <trkpt lat="45.10225" lon="6.93937">
        <ele>862.41</ele>
        <time>2017-01-06T05:04:26Z</time>
      </trkpt>
      <trkpt lat="45.10243" lon="6.94035">
        <ele>849.43</ele>
        <time>2017-01-06T05:04:30Z</time>
      </trkpt>
      <trkpt lat="45.10247" lon="6.94079">
        <ele>846.14</ele>
        <time>2017-01-06T05:04:32Z</time>
      </trkpt>
      <trkpt lat="45.10255" lon="6.94114">
        <ele>844.24</ele>
        <time>2017-01-06T05:04:33Z</time>
      </trkpt>
      <trkpt lat="45.1026" lon="6.94135">
        <ele>842.24</ele>
        <time>2017-01-06T05:04:34Z</time>
      </trkpt>
      <trkpt lat="45.10262" lon="6.94161">
        <ele>837.13</ele>
        <time>2017-01-06T05:04:35Z</time>
      </trkpt>
      <trkpt lat="45.10265" lon="6.94215">
        <ele>827.36</ele>
        <time>2017-01-06T05:04:37Z</time>
      </trkpt>
      <trkpt lat="45.10268" lon="6.94234">
        <ele>825.81</ele>
        <time>2017-01-06T05:04:38Z</time>
      </trkpt>
      <trkpt lat="45.10273" lon="6.9425">
        <ele>824.8</ele>
        <time>2017-01-06T05:04:39Z</time>
      </trkpt>
      <trkpt lat="45.10285" lon="6.94269">
        <ele>827.66</ele>
        <time>2017-01-06T05:04:40Z</time>
      </trkpt>
      <trkpt lat="45.10301" lon="6.9429">
        <ele>828.88</ele>
        <time>2017-01-06T05:04:41Z</time>
      </trkpt>
      <trkpt lat="45.10311" lon="6.94309">
        <ele>826.34</ele>
        <time>2017-01-06T05:04:42Z</time>
      </trkpt>
      <trkpt lat="45.10351" lon="6.94409">
        <ele>821.73</ele>
        <time>2017-01-06T05:04:46Z</time>
      </trkpt>
      <trkpt lat="45.10364" lon="6.9443">
        <ele>821.46</ele>
        <time>2017-01-06T05:04:47Z</time>
      </trkpt>
      <trkpt lat="45.10376" lon="6.94445">
        <ele>822.96</ele>
        <time>2017-01-06T05:04:48Z</time>
      </trkpt>
      <trkpt lat="45.10403" lon="6.94493">
        <ele>814.44</ele>
        <time>2017-01-06T05:04:50Z</time>
      </trkpt>
      <trkpt lat="45.10421" lon="6.94526">
        <ele>808.36</ele>
        <time>2017-01-06T05:04:52Z</time>
      </trkpt>
      <trkpt lat="45.10429" lon="6.94547">
        <ele>804.41</ele>
        <time>2017-01-06T05:04:53Z</time>
      </trkpt>
      <trkpt lat="45.10441" lon="6.94564">
        <ele>804.16</ele>
        <time>2017-01-06T05:04:54Z</time>
      </trkpt>
      <trkpt lat="45.10453" lon="6.94579">
        <ele>802.83</ele>
        <time>2017-01-06T05:04:55Z</time>
      </trkpt>
      <trkpt lat="45.10476" lon="6.94599">
        <ele>805.98</ele>
        <time>2017-01-06T05:04:56Z</time>
      </trkpt>
      <trkpt lat="45.10506" lon="6.9462">
        <ele>816.19</ele>
        <time>2017-01-06T05:04:58Z</time>
      </trkpt>
      <trkpt lat="45.10528" lon="6.94646">
        <ele>815.3</ele>
        <time>2017-01-06T05:05:00Z</time>
      </trkpt>
      <trkpt lat="45.10546" lon="6.94679">
        <ele>811.22</ele>
        <time>2017-01-06T05:05:01Z</time>
      </trkpt>
      <trkpt lat="45.10576" lon="6.94744">
        <ele>805.44</ele>
        <time>2017-01-06T05:05:04Z</time>
      </trkpt>
      <trkpt lat="45.10589" lon="6.94776">
        <ele>808.66</ele>
        <time>2017-01-06T05:05:06Z</time>
      </trkpt>
      <trkpt lat="45.10594" lon="6.94795">
        <ele>807.81</ele>
        <time>2017-01-06T05:05:06Z</time>
      </trkpt>
      <trkpt lat="45.10593" lon="6.94824">
        <ele>800.93</ele>
        <time>2017-01-06T05:05:08Z</time>
      </trkpt>
      <trkpt lat="45.10598" lon="6.94862">
        <ele>793.74</ele>
        <time>2017-01-06T05:05:09Z</time>
      </trkpt>
      <trkpt lat="45.10612" lon="6.94918">
        <ele>787.63</ele>
        <time>2017-01-06T05:05:11Z</time>
      </trkpt>
      <trkpt lat="45.10623" lon="6.94941">
        <ele>793.97</ele>
        <time>2017-01-06T05:05:12Z</time>
      </trkpt>
      <trkpt lat="45.10638" lon="6.94963">
        <ele>800.33</ele>
        <time>2017-01-06T05:05:14Z</time>
      </trkpt>
      <trkpt lat="45.10649" lon="6.94989">
        <ele>801.29</ele>
        <time>2017-01-06T05:05:15Z</time>
      </trkpt>
      <trkpt lat="45.10659" lon="6.95047">
        <ele>794.25</ele>
        <time>2017-01-06T05:05:17Z</time>
      </trkpt>
      <trkpt lat="45.10664" lon="6.95077">
        <ele>787.65</ele>
        <time>2017-01-06T05:05:18Z</time>
      </trkpt>
      <trkpt lat="45.10676" lon="6.95117">
        <ele>784.35</ele>
        <time>2017-01-06T05:05:20Z</time>
      </trkpt>
      <trkpt lat="45.10692" lon="6.95153">
        <ele>785.94</ele>
        <time>2017-01-06T05:05:22Z</time>
      </trkpt>
      <trkpt lat="45.10701" lon="6.9518">
        <ele>787.34</ele>
        <time>2017-01-06T05:05:23Z</time>
      </trkpt>
      <trkpt lat="45.10716" lon="6.95234">
        <ele>784.09</ele>
        <time>2017-01-06T05:05:25Z</time>
      </trkpt>
      <trkpt lat="45.10748" lon="6.95377">
        <ele>764.73</ele>
        <time>2017-01-06T05:05:31Z</time>
      </trkpt>
      <trkpt lat="45.10811" lon="6.95608">
        <ele>753.97</ele>
        <time>2017-01-06T05:05:40Z</time>
      </trkpt>
      <trkpt lat="45.10856" lon="6.95747">
        <ele>772.1</ele>
        <time>2017-01-06T05:05:46Z</time>
      </trkpt>
      <trkpt lat="45.10863" lon="6.95788">
        <ele>772.86</ele>
        <time>2017-01-06T05:05:48Z</time>
      </trkpt>
      <trkpt lat="45.10863" lon="6.95812">
        <ele>775.48</ele>
        <time>2017-01-06T05:05:49Z</time>
      </trkpt>
      <trkpt lat="45.10869" lon="6.95969">
        <ele>776.88</ele>
        <time>2017-01-06T05:05:55Z</time>
      </trkpt>
      <trkpt lat="45.10886" lon="6.96036">
        <ele>784.53</ele>
        <time>2017-01-06T05:05:58Z</time>
      </trkpt>
      <trkpt lat="45.10925" lon="6.96136">
        <ele>789.72</ele>
        <time>2017-01-06T05:06:02Z</time>
      </trkpt>
      <trkpt lat="45.10955" lon="6.96205">
        <ele>788.82</ele>
        <time>2017-01-06T05:06:05Z</time>
      </trkpt>
      <trkpt lat="45.11047" lon="6.96353">
        <ele>771.77</ele>
        <time>2017-01-06T05:06:13Z</time>
      </trkpt>
      <trkpt lat="45.11068" lon="6.96426">
        <ele>781.19</ele>
        <time>2017-01-06T05:06:16Z</time>
      </trkpt>
      <trkpt lat="45.11188" lon="6.96617">
        <ele>780.08</ele>
        <time>2017-01-06T05:06:26Z</time>
      </trkpt>
      <trkpt lat="45.11199" lon="6.9671">
        <ele>780.48</ele>
        <time>2017-01-06T05:06:30Z</time>
      </trkpt>
      <trkpt lat="45.11196" lon="6.96911">
        <ele>780.68</ele>
        <time>2017-01-06T05:06:37Z</time>
      </trkpt>
      <trkpt lat="45.1121" lon="6.96964">
        <ele>783.73</ele>
        <time>2017-01-06T05:06:40Z</time>
      </trkpt>
      <trkpt lat="45.11342" lon="6.97079">
        <ele>774.55</ele>
        <time>2017-01-06T05:06:48Z</time>
      </trkpt>
      <trkpt lat="45.11348" lon="6.97109">
        <ele>777.58</ele>
        <time>2017-01-06T05:06:49Z</time>
      </trkpt>
      <trkpt lat="45.11372" lon="6.97149">
        <ele>779.16</ele>
        <time>2017-01-06T05:06:51Z</time>
      </trkpt>
      <trkpt lat="45.11402" lon="6.9723">
        <ele>777.8</ele>
        <time>2017-01-06T05:06:55Z</time>
      </trkpt>
      <trkpt lat="45.11581" lon="6.97513">
        <ele>778.72</ele>
        <time>2017-01-06T05:07:09Z</time>
      </trkpt>
      <trkpt lat="45.11544" lon="6.97474">
        <ele>775.8</ele>
        <time>2017-01-06T05:07:12Z</time>
      </trkpt>
      <trkpt lat="45.11521" lon="6.97467">
        <ele>775.74</ele>
        <time>2017-01-06T05:07:14Z</time>
      </trkpt>
      <trkpt lat="45.1148" lon="6.97501">
        <ele>788</ele>
        <time>2017-01-06T05:07:16Z</time>
      </trkpt>
      <trkpt lat="45.11427" lon="6.97506">
        <ele>795.85</ele>
        <time>2017-01-06T05:07:19Z</time>
      </trkpt>
      <trkpt lat="45.11417" lon="6.97514">
        <ele>797.93</ele>
        <time>2017-01-06T05:07:20Z</time>
      </trkpt>
      <trkpt lat="45.11406" lon="6.9747">
        <ele>799.81</ele>
        <time>2017-01-06T05:07:21Z</time>
      </trkpt>
      <trkpt lat="45.11386" lon="6.97437">
        <ele>800.72</ele>
        <time>2017-01-06T05:07:23Z</time>
      </trkpt>
      <trkpt lat="45.11336" lon="6.97418">
        <ele>811.32</ele>
        <time>2017-01-06T05:07:26Z</time>
      </trkpt>
      <trkpt lat="45.11314" lon="6.97377">
        <ele>819.58</ele>
        <time>2017-01-06T05:07:28Z</time>
      </trkpt>
      <trkpt lat="45.11293" lon="6.97274">
        <ele>823.13</ele>
        <time>2017-01-06T05:07:32Z</time>
      </trkpt>
      <trkpt lat="45.11282" lon="6.97265">
        <ele>828.02</ele>
        <time>2017-01-06T05:07:33Z</time>
      </trkpt>
      <trkpt lat="45.11263" lon="6.97218">
        <ele>831.16</ele>
        <time>2017-01-06T05:07:35Z</time>
      </trkpt>
      <trkpt lat="45.11252" lon="6.97217">
        <ele>835.28</ele>
        <time>2017-01-06T05:07:36Z</time>
      </trkpt>
      <trkpt lat="45.11256" lon="6.97296">
        <ele>842.36</ele>
        <time>2017-01-06T05:07:39Z</time>
      </trkpt>
      <trkpt lat="45.11246" lon="6.97411">
        <ele>856.23</ele>
        <time>2017-01-06T05:07:43Z</time>
      </trkpt>
      <trkpt lat="45.11284" lon="6.97612">
        <ele>860.01</ele>
        <time>2017-01-06T05:07:51Z</time>
      </trkpt>
      <trkpt lat="45.11279" lon="6.9763">
        <ele>865.16</ele>
        <time>2017-01-06T05:07:52Z</time>
      </trkpt>
      <trkpt lat="45.11261" lon="6.97566">
        <ele>869.06</ele>
        <time>2017-01-06T05:07:55Z</time>
      </trkpt>
      <trkpt lat="45.11184" lon="6.97434">
        <ele>885.02</ele>
        <time>2017-01-06T05:08:01Z</time>
      </trkpt>
      <trkpt lat="45.11173" lon="6.97379">
        <ele>883.9</ele>
        <time>2017-01-06T05:08:03Z</time>
      </trkpt>
      <trkpt lat="45.11156" lon="6.9741">
        <ele>894.72</ele>
        <time>2017-01-06T05:08:05Z</time>
      </trkpt>
      <trkpt lat="45.11163" lon="6.97486">
        <ele>905.48</ele>
        <time>2017-01-06T05:08:08Z</time>
      </trkpt>
      <trkpt lat="45.11187" lon="6.97574">
        <ele>911.73</ele>
        <time>2017-01-06T05:08:12Z</time>
      </trkpt>
      <trkpt lat="45.11193" lon="6.97632">
        <ele>915.01</ele>
        <time>2017-01-06T05:08:14Z</time>
      </trkpt>
      <trkpt lat="45.11186" lon="6.97754">
        <ele>922.44</ele>
        <time>2017-01-06T05:08:19Z</time>
      </trkpt>
      <trkpt lat="45.11206" lon="6.97765">
        <ele>917.06</ele>
        <time>2017-01-06T05:08:20Z</time>
      </trkpt>
      <trkpt lat="45.11235" lon="6.97812">
        <ele>917.25</ele>
        <time>2017-01-06T05:08:23Z</time>
      </trkpt>
      <trkpt lat="45.11281" lon="6.97836">
        <ele>909.31</ele>
        <time>2017-01-06T05:08:25Z</time>
      </trkpt>
      <trkpt lat="45.11305" lon="6.97873">
        <ele>911.4</ele>
        <time>2017-01-06T05:08:27Z</time>
      </trkpt>
      <trkpt lat="45.11317" lon="6.97994">
        <ele>919.87</ele>
        <time>2017-01-06T05:08:32Z</time>
      </trkpt>
      <trkpt lat="45.11331" lon="6.9804">
        <ele>920.08</ele>
        <time>2017-01-06T05:08:34Z</time>
      </trkpt>
      <trkpt lat="45.11247" lon="6.97919">
        <ele>940.04</ele>
        <time>2017-01-06T05:08:40Z</time>
      </trkpt>
      <trkpt lat="45.11182" lon="6.97867">
        <ele>951.38</ele>
        <time>2017-01-06T05:08:45Z</time>
      </trkpt>
      <trkpt lat="45.1115" lon="6.97819">
        <ele>948.48</ele>
        <time>2017-01-06T05:08:47Z</time>
      </trkpt>
      <trkpt lat="45.11116" lon="6.97802">
        <ele>953.82</ele>
        <time>2017-01-06T05:08:49Z</time>
      </trkpt>
      <trkpt lat="45.11099" lon="6.97677">
        <ele>954.28</ele>
        <time>2017-01-06T05:08:54Z</time>
      </trkpt>
      <trkpt lat="45.11073" lon="6.97588">
        <ele>959.25</ele>
        <time>2017-01-06T05:08:58Z</time>
      </trkpt>
      <trkpt lat="45.11036" lon="6.97536">
        <ele>962.03</ele>
        <time>2017-01-06T05:09:01Z</time>
      </trkpt>
      <trkpt lat="45.11019" lon="6.9753">
        <ele>963.69</ele>
        <time>2017-01-06T05:09:02Z</time>
      </trkpt>
      <trkpt lat="45.10999" lon="6.97527">
        <ele>966.03</ele>
        <time>2017-01-06T05:09:03Z</time>
      </trkpt>
      <trkpt lat="45.10975" lon="6.97502">
        <ele>965.89</ele>
        <time>2017-01-06T05:09:05Z</time>
      </trkpt>
      <trkpt lat="45.10891" lon="6.97368">
        <ele>963.37</ele>
        <time>2017-01-06T05:09:12Z</time>
      </trkpt>
      <trkpt lat="45.10866" lon="6.97377">
        <ele>964.02</ele>
        <time>2017-01-06T05:09:13Z</time>
      </trkpt>
      <trkpt lat="45.10839" lon="6.97416">
        <ele>977.9</ele>
        <time>2017-01-06T05:09:15Z</time>
      </trkpt>
      <trkpt lat="45.108" lon="6.9744">
        <ele>983.2</ele>
        <time>2017-01-06T05:09:18Z</time>
      </trkpt>
      <trkpt lat="45.10759" lon="6.97446">
        <ele>978.34</ele>
        <time>2017-01-06T05:09:20Z</time>
      </trkpt>
      <trkpt lat="45.10704" lon="6.9744">
        <ele>976.06</ele>
        <time>2017-01-06T05:09:23Z</time>
      </trkpt>
      <trkpt lat="45.10677" lon="6.97459">
        <ele>985.62</ele>
        <time>2017-01-06T05:09:25Z</time>
      </trkpt>
      <trkpt lat="45.10672" lon="6.97421">
        <ele>984.67</ele>
        <time>2017-01-06T05:09:26Z</time>
      </trkpt>
      <trkpt lat="45.10706" lon="6.97338">
        <ele>984.85</ele>
        <time>2017-01-06T05:09:30Z</time>
      </trkpt>
      <trkpt lat="45.10758" lon="6.97163">
        <ele>988.96</ele>
        <time>2017-01-06T05:09:37Z</time>
      </trkpt>
      <trkpt lat="45.10744" lon="6.97129">
        <ele>999.83</ele>
        <time>2017-01-06T05:09:39Z</time>
      </trkpt>
      <trkpt lat="45.10739" lon="6.97066">
        <ele>1004.32</ele>
        <time>2017-01-06T05:09:41Z</time>
      </trkpt>
      <trkpt lat="45.10763" lon="6.96898">
        <ele>1012.64</ele>
        <time>2017-01-06T05:09:48Z</time>
      </trkpt>
      <trkpt lat="45.1075" lon="6.96803">
        <ele>1020.63</ele>
        <time>2017-01-06T05:09:51Z</time>
      </trkpt>
      <trkpt lat="45.10733" lon="6.96781">
        <ele>1025.82</ele>
        <time>2017-01-06T05:09:53Z</time>
      </trkpt>
      <trkpt lat="45.10734" lon="6.96834">
        <ele>1027.91</ele>
        <time>2017-01-06T05:09:55Z</time>
      </trkpt>
      <trkpt lat="45.10718" lon="6.96934">
        <ele>1034.6</ele>
        <time>2017-01-06T05:09:59Z</time>
      </trkpt>
      <trkpt lat="45.10691" lon="6.96852">
        <ele>1047.24</ele>
        <time>2017-01-06T05:10:02Z</time>
      </trkpt>
      <trkpt lat="45.10685" lon="6.96785">
        <ele>1048.02</ele>
        <time>2017-01-06T05:10:05Z</time>
      </trkpt>
      <trkpt lat="45.10673" lon="6.96749">
        <ele>1052.73</ele>
        <time>2017-01-06T05:10:07Z</time>
      </trkpt>
      <trkpt lat="45.10665" lon="6.96819">
        <ele>1060.02</ele>
        <time>2017-01-06T05:10:09Z</time>
      </trkpt>
      <trkpt lat="45.10669" lon="6.96927">
        <ele>1064.04</ele>
        <time>2017-01-06T05:10:13Z</time>
      </trkpt>
      <trkpt lat="45.10651" lon="6.97066">
        <ele>1075.18</ele>
        <time>2017-01-06T05:10:19Z</time>
      </trkpt>
      <trkpt lat="45.10634" lon="6.97135">
        <ele>1077.45</ele>
        <time>2017-01-06T05:10:22Z</time>
      </trkpt>
      <trkpt lat="45.10604" lon="6.97206">
        <ele>1083.83</ele>
        <time>2017-01-06T05:10:25Z</time>
      </trkpt>
      <trkpt lat="45.10597" lon="6.97177">
        <ele>1091.75</ele>
        <time>2017-01-06T05:10:26Z</time>
      </trkpt>
      <trkpt lat="45.10606" lon="6.97036">
        <ele>1098.25</ele>
        <time>2017-01-06T05:10:32Z</time>
      </trkpt>
      <trkpt lat="45.10589" lon="6.96949">
        <ele>1106.95</ele>
        <time>2017-01-06T05:10:35Z</time>
      </trkpt>
      <trkpt lat="45.10577" lon="6.96784">
        <ele>1119.21</ele>
        <time>2017-01-06T05:10:41Z</time>
      </trkpt>
      <trkpt lat="45.10525" lon="6.9658">
        <ele>1135.26</ele>
        <time>2017-01-06T05:10:50Z</time>
      </trkpt>
      <trkpt lat="45.10482" lon="6.96498">
        <ele>1141.45</ele>
        <time>2017-01-06T05:10:54Z</time>
      </trkpt>
      <trkpt lat="45.10474" lon="6.96489">
        <ele>1142.42</ele>
        <time>2017-01-06T05:10:54Z</time>
      </trkpt>
      <trkpt lat="45.10463" lon="6.96498">
        <ele>1147.65</ele>
        <time>2017-01-06T05:10:55Z</time>
      </trkpt>
      <trkpt lat="45.10464" lon="6.96519">
        <ele>1149.72</ele>
        <time>2017-01-06T05:10:56Z</time>
      </trkpt>
      <trkpt lat="45.10499" lon="6.96608">
        <ele>1151.02</ele>
        <time>2017-01-06T05:11:00Z</time>
      </trkpt>
      <trkpt lat="45.10499" lon="6.96785">
        <ele>1163.69</ele>
        <time>2017-01-06T05:11:07Z</time>
      </trkpt>
      <trkpt lat="45.10494" lon="6.96808">
        <ele>1166.04</ele>
        <time>2017-01-06T05:11:08Z</time>
      </trkpt>
      <trkpt lat="45.10458" lon="6.96659">
        <ele>1170.2</ele>
        <time>2017-01-06T05:11:14Z</time>
      </trkpt>
      <trkpt lat="45.10399" lon="6.96584">
        <ele>1178.32</ele>
        <time>2017-01-06T05:11:18Z</time>
      </trkpt>
      <trkpt lat="45.10358" lon="6.96515">
        <ele>1182.75</ele>
        <time>2017-01-06T05:11:22Z</time>
      </trkpt>
      <trkpt lat="45.10318" lon="6.9643">
        <ele>1184.57</ele>
        <time>2017-01-06T05:11:26Z</time>
      </trkpt>
      <trkpt lat="45.1023" lon="6.96282">
        <ele>1208.52</ele>
        <time>2017-01-06T05:11:33Z</time>
      </trkpt>
      <trkpt lat="45.10195" lon="6.96193">
        <ele>1210.59</ele>
        <time>2017-01-06T05:11:37Z</time>
      </trkpt>
      <trkpt lat="45.10198" lon="6.96264">
        <ele>1219.3</ele>
        <time>2017-01-06T05:11:40Z</time>
      </trkpt>
      <trkpt lat="45.10209" lon="6.96288">
        <ele>1218.9</ele>
        <time>2017-01-06T05:11:41Z</time>
      </trkpt>
      <trkpt lat="45.10178" lon="6.96259">
        <ele>1226.32</ele>
        <time>2017-01-06T05:11:44Z</time>
      </trkpt>
      <trkpt lat="45.10127" lon="6.96124">
        <ele>1229.14</ele>
        <time>2017-01-06T05:11:50Z</time>
      </trkpt>
      <trkpt lat="45.10103" lon="6.96091">
        <ele>1235.49</ele>
        <time>2017-01-06T05:11:52Z</time>
      </trkpt>
      <trkpt lat="45.10062" lon="6.96062">
        <ele>1245.66</ele>
        <time>2017-01-06T05:11:54Z</time>
      </trkpt>
      <trkpt lat="45.09998" lon="6.9604">
        <ele>1257.63</ele>
        <time>2017-01-06T05:11:58Z</time>
      </trkpt>
      <trkpt lat="45.1004" lon="6.96125">
        <ele>1264.48</ele>
        <time>2017-01-06T05:12:02Z</time>
      </trkpt>
      <trkpt lat="45.10056" lon="6.96174">
        <ele>1265.92</ele>
        <time>2017-01-06T05:12:04Z</time>
      </trkpt>
      <trkpt lat="45.10056" lon="6.96315">
        <ele>1293.2</ele>
        <time>2017-01-06T05:12:10Z</time>
      </trkpt>
      <trkpt lat="45.10078" lon="6.9639">
        <ele>1303.17</ele>
        <time>2017-01-06T05:12:13Z</time>
      </trkpt>
      <trkpt lat="45.10109" lon="6.96444">
        <ele>1301.76</ele>
        <time>2017-01-06T05:12:16Z</time>
      </trkpt>
      <trkpt lat="45.1014" lon="6.9647">
        <ele>1299.16</ele>
        <time>2017-01-06T05:12:18Z</time>
      </trkpt>
      <trkpt lat="45.10162" lon="6.96557">
        <ele>1309.25</ele>
        <time>2017-01-06T05:12:21Z</time>
      </trkpt>
      <trkpt lat="45.10171" lon="6.9672">
        <ele>1316.6</ele>
        <time>2017-01-06T05:12:27Z</time>
      </trkpt>
      <trkpt lat="45.10144" lon="6.96937">
        <ele>1333.28</ele>
        <time>2017-01-06T05:12:36Z</time>
      </trkpt>
      <trkpt lat="45.10135" lon="6.96911">
        <ele>1339.3</ele>
        <time>2017-01-06T05:12:37Z</time>
      </trkpt>
      <trkpt lat="45.10129" lon="6.96755">
        <ele>1342.23</ele>
        <time>2017-01-06T05:12:43Z</time>
      </trkpt>
      <trkpt lat="45.10106" lon="6.96698">
        <ele>1349.78</ele>
        <time>2017-01-06T05:12:46Z</time>
      </trkpt>
      <trkpt lat="45.10105" lon="6.96673">
        <ele>1346.94</ele>
        <time>2017-01-06T05:12:47Z</time>
      </trkpt>
      <trkpt lat="45.10089" lon="6.96632">
        <ele>1347.81</ele>
        <time>2017-01-06T05:12:48Z</time>
      </trkpt>
      <trkpt lat="45.10016" lon="6.96531">
        <ele>1359.37</ele>
        <time>2017-01-06T05:12:54Z</time>
      </trkpt>
      <trkpt lat="45.1" lon="6.96484">
        <ele>1356.12</ele>
        <time>2017-01-06T05:12:56Z</time>
      </trkpt>
      <trkpt lat="45.0995" lon="6.96455">
        <ele>1367.28</ele>
        <time>2017-01-06T05:12:59Z</time>
      </trkpt>
      <trkpt lat="45.09934" lon="6.9649">
        <ele>1386.38</ele>
        <time>2017-01-06T05:13:01Z</time>
      </trkpt>
      <trkpt lat="45.09951" lon="6.96509">
        <ele>1383.12</ele>
        <time>2017-01-06T05:13:02Z</time>
      </trkpt>
      <trkpt lat="45.09914" lon="6.96459">
        <ele>1386.39</ele>
        <time>2017-01-06T05:13:05Z</time>
      </trkpt>
      <trkpt lat="45.09943" lon="6.96597">
        <ele>1400.63</ele>
        <time>2017-01-06T05:13:10Z</time>
      </trkpt>
      <trkpt lat="45.09973" lon="6.9665">
        <ele>1395.05</ele>
        <time>2017-01-06T05:13:13Z</time>
      </trkpt>
      <trkpt lat="45.09979" lon="6.96679">
        <ele>1397.54</ele>
        <time>2017-01-06T05:13:14Z</time>
      </trkpt>
      <trkpt lat="45.0997" lon="6.96691">
        <ele>1402.12</ele>
        <time>2017-01-06T05:13:15Z</time>
      </trkpt>
      <trkpt lat="45.09887" lon="6.96584">
        <ele>1425.11</ele>
        <time>2017-01-06T05:13:21Z</time>
      </trkpt>
      <trkpt lat="45.09856" lon="6.96514">
        <ele>1431.34</ele>
        <time>2017-01-06T05:13:24Z</time>
      </trkpt>
      <trkpt lat="45.09844" lon="6.96517">
        <ele>1439.76</ele>
        <time>2017-01-06T05:13:25Z</time>
      </trkpt>
      <trkpt lat="45.09911" lon="6.96807">
        <ele>1441.62</ele>
        <time>2017-01-06T05:13:37Z</time>
      </trkpt>
      <trkpt lat="45.09907" lon="6.96885">
        <ele>1452.67</ele>
        <time>2017-01-06T05:13:40Z</time>
      </trkpt>
      <trkpt lat="45.09918" lon="6.96992">
        <ele>1460.53</ele>
        <time>2017-01-06T05:13:44Z</time>
      </trkpt>
      <trkpt lat="45.09907" lon="6.97033">
        <ele>1464.32</ele>
        <time>2017-01-06T05:13:45Z</time>
      </trkpt>
      <trkpt lat="45.09903" lon="6.97164">
        <ele>1471.98</ele>
        <time>2017-01-06T05:13:50Z</time>
      </trkpt>
      <trkpt lat="45.09887" lon="6.97161">
        <ele>1476.68</ele>
        <time>2017-01-06T05:13:52Z</time>
      </trkpt>
      <trkpt lat="45.09863" lon="6.97091">
        <ele>1485.57</ele>
        <time>2017-01-06T05:13:55Z</time>
      </trkpt>
      <trkpt lat="45.09852" lon="6.96993">
        <ele>1488.82</ele>
        <time>2017-01-06T05:13:58Z</time>
      </trkpt>
      <trkpt lat="45.09839" lon="6.9698">
        <ele>1496.76</ele>
        <time>2017-01-06T05:13:59Z</time>
      </trkpt>
      <trkpt lat="45.09834" lon="6.97042">
        <ele>1501.13</ele>
        <time>2017-01-06T05:14:02Z</time>
      </trkpt>
      <trkpt lat="45.09811" lon="6.97129">
        <ele>1509.36</ele>
        <time>2017-01-06T05:14:05Z</time>
      </trkpt>
      <trkpt lat="45.09804" lon="6.97212">
        <ele>1511.23</ele>
        <time>2017-01-06T05:14:09Z</time>
      </trkpt>
      <trkpt lat="45.09811" lon="6.97293">
        <ele>1504.12</ele>
        <time>2017-01-06T05:14:12Z</time>
      </trkpt>
      <trkpt lat="45.09711" lon="6.97362">
        <ele>1528.66</ele>
        <time>2017-01-06T05:14:18Z</time>
      </trkpt>
      <trkpt lat="45.09689" lon="6.97403">
        <ele>1542.35</ele>
        <time>2017-01-06T05:14:20Z</time>
      </trkpt>
      <trkpt lat="45.09702" lon="6.97426">
        <ele>1535.2</ele>
        <time>2017-01-06T05:14:21Z</time>
      </trkpt>
      <trkpt lat="45.09719" lon="6.97549">
        <ele>1527.76</ele>
        <time>2017-01-06T05:14:26Z</time>
      </trkpt>
      <trkpt lat="45.09681" lon="6.97598">
        <ele>1539.1</ele>
        <time>2017-01-06T05:14:29Z</time>
      </trkpt>
      <trkpt lat="45.09664" lon="6.97634">
        <ele>1541.13</ele>
        <time>2017-01-06T05:14:30Z</time>
      </trkpt>
      <trkpt lat="45.09657" lon="6.97705">
        <ele>1542.84</ele>
        <time>2017-01-06T05:14:33Z</time>
      </trkpt>
      <trkpt lat="45.09635" lon="6.97764">
        <ele>1549.31</ele>
        <time>2017-01-06T05:14:36Z</time>
      </trkpt>
      <trkpt lat="45.09649" lon="6.97801">
        <ele>1541.75</ele>
        <time>2017-01-06T05:14:37Z</time>
      </trkpt>
      <trkpt lat="45.09651" lon="6.97835">
        <ele>1541.22</ele>
        <time>2017-01-06T05:14:39Z</time>
      </trkpt>
      <trkpt lat="45.09621" lon="6.97905">
        <ele>1555.83</ele>
        <time>2017-01-06T05:14:42Z</time>
      </trkpt>
      <trkpt lat="45.09625" lon="6.97922">
        <ele>1551.42</ele>
        <time>2017-01-06T05:14:43Z</time>
      </trkpt>
      <trkpt lat="45.09617" lon="6.97965">
        <ele>1549.97</ele>
        <time>2017-01-06T05:14:44Z</time>
      </trkpt>
      <trkpt lat="45.09608" lon="6.97974">
        <ele>1551.51</ele>
        <time>2017-01-06T05:14:45Z</time>
      </trkpt>
      <trkpt lat="45.0961" lon="6.98007">
        <ele>1546.18</ele>
        <time>2017-01-06T05:14:46Z</time>
      </trkpt>
      <trkpt lat="45.09511" lon="6.9813">
        <ele>1550.7</ele>
        <time>2017-01-06T05:14:54Z</time>
      </trkpt>
      <trkpt lat="45.09517" lon="6.98172">
        <ele>1544.75</ele>
        <time>2017-01-06T05:14:55Z</time>
      </trkpt>
      <trkpt lat="45.09567" lon="6.98263">
        <ele>1541.82</ele>
        <time>2017-01-06T05:15:00Z</time>
      </trkpt>
      <trkpt lat="45.0964" lon="6.98332">
        <ele>1538.96</ele>
        <time>2017-01-06T05:15:04Z</time>
      </trkpt>
      <trkpt lat="45.09633" lon="6.98386">
        <ele>1540.83</ele>
        <time>2017-01-06T05:15:07Z</time>
      </trkpt>
      <trkpt lat="45.0964" lon="6.98416">
        <ele>1543.75</ele>
        <time>2017-01-06T05:15:08Z</time>
      </trkpt>
      <trkpt lat="45.0965" lon="6.98428">
        <ele>1545.01</ele>
        <time>2017-01-06T05:15:08Z</time>
      </trkpt>
      <trkpt lat="45.09702" lon="6.98444">
        <ele>1541.95</ele>
        <time>2017-01-06T05:15:11Z</time>
      </trkpt>
      <trkpt lat="45.09723" lon="6.98461">
        <ele>1543.78</ele>
        <time>2017-01-06T05:15:13Z</time>
      </trkpt>
      <trkpt lat="45.09712" lon="6.98495">
        <ele>1550.51</ele>
        <time>2017-01-06T05:15:15Z</time>
      </trkpt>
      <trkpt lat="45.09692" lon="6.98508">
        <ele>1555.39</ele>
        <time>2017-01-06T05:15:16Z</time>
      </trkpt>
      <trkpt lat="45.09684" lon="6.98539">
        <ele>1559.56</ele>
        <time>2017-01-06T05:15:17Z</time>
      </trkpt>
      <trkpt lat="45.09695" lon="6.9855">
        <ele>1556.88</ele>
        <time>2017-01-06T05:15:18Z</time>
      </trkpt>
      <trkpt lat="45.09705" lon="6.98556">
        <ele>1554.74</ele>
        <time>2017-01-06T05:15:19Z</time>
      </trkpt>
      <trkpt lat="45.09712" lon="6.98566">
        <ele>1553.48</ele>
        <time>2017-01-06T05:15:19Z</time>
      </trkpt>
      <trkpt lat="45.09722" lon="6.98615">
        <ele>1551.51</ele>
        <time>2017-01-06T05:15:21Z</time>
      </trkpt>
      <trkpt lat="45.09734" lon="6.98642">
        <ele>1548.49</ele>
        <time>2017-01-06T05:15:22Z</time>
      </trkpt>
      <trkpt lat="45.09753" lon="6.98668">
        <ele>1544.14</ele>
        <time>2017-01-06T05:15:24Z</time>
      </trkpt>
      <trkpt lat="45.09784" lon="6.98694">
        <ele>1537.44</ele>
        <time>2017-01-06T05:15:26Z</time>
      </trkpt>
      <trkpt lat="45.09793" lon="6.98705">
        <ele>1536.42</ele>
        <time>2017-01-06T05:15:26Z</time>
      </trkpt>
      <trkpt lat="45.09802" lon="6.98717">
        <ele>1535.38</ele>
        <time>2017-01-06T05:15:27Z</time>
      </trkpt>
      <trkpt lat="45.09813" lon="6.98743">
        <ele>1534.04</ele>
        <time>2017-01-06T05:15:28Z</time>
      </trkpt>
      <trkpt lat="45.09817" lon="6.98768">
        <ele>1535.53</ele>
        <time>2017-01-06T05:15:29Z</time>
      </trkpt>
      <trkpt lat="45.09824" lon="6.98783">
        <ele>1533.78</ele>
        <time>2017-01-06T05:15:30Z</time>
      </trkpt>
      <trkpt lat="45.09835" lon="6.98794">
        <ele>1529.81</ele>
        <time>2017-01-06T05:15:31Z</time>
      </trkpt>
      <trkpt lat="45.0988" lon="6.98825">
        <ele>1522.95</ele>
        <time>2017-01-06T05:15:33Z</time>
      </trkpt>
      <trkpt lat="45.09895" lon="6.98831">
        <ele>1520.65</ele>
        <time>2017-01-06T05:15:34Z</time>
      </trkpt>
      <trkpt lat="45.09908" lon="6.98841">
        <ele>1519.6</ele>
        <time>2017-01-06T05:15:35Z</time>
      </trkpt>
      <trkpt lat="45.09926" lon="6.98869">
        <ele>1520.91</ele>
        <time>2017-01-06T05:15:37Z</time>
      </trkpt>
      <trkpt lat="45.09941" lon="6.98895">
        <ele>1520.91</ele>
        <time>2017-01-06T05:15:38Z</time>
      </trkpt>
      <trkpt lat="45.09949" lon="6.98907">
        <ele>1520.12</ele>
        <time>2017-01-06T05:15:38Z</time>
      </trkpt>
      <trkpt lat="45.09956" lon="6.9893">
        <ele>1520.93</ele>
        <time>2017-01-06T05:15:39Z</time>
      </trkpt>
      <trkpt lat="45.09965" lon="6.98973">
        <ele>1521.44</ele>
        <time>2017-01-06T05:15:41Z</time>
      </trkpt>
      <trkpt lat="45.09974" lon="6.99013">
        <ele>1520.86</ele>
        <time>2017-01-06T05:15:43Z</time>
      </trkpt>
      <trkpt lat="45.09981" lon="6.99035">
        <ele>1520.16</ele>
        <time>2017-01-06T05:15:44Z</time>
      </trkpt>
      <trkpt lat="45.09996" lon="6.99057">
        <ele>1515.3</ele>
        <time>2017-01-06T05:15:45Z</time>
      </trkpt>
      <trkpt lat="45.10012" lon="6.99076">
        <ele>1511.95</ele>
        <time>2017-01-06T05:15:46Z</time>
      </trkpt>
      <trkpt lat="45.10032" lon="6.99108">
        <ele>1508.83</ele>
        <time>2017-01-06T05:15:48Z</time>
      </trkpt>
      <trkpt lat="45.1007" lon="6.99144">
        <ele>1509.09</ele>
        <time>2017-01-06T05:15:50Z</time>
      </trkpt>
      <trkpt lat="45.10083" lon="6.99155">
        <ele>1509.01</ele>
        <time>2017-01-06T05:15:51Z</time>
      </trkpt>
      <trkpt lat="45.1009" lon="6.99165">
        <ele>1508.77</ele>
        <time>2017-01-06T05:15:52Z</time>
      </trkpt>
      <trkpt lat="45.101" lon="6.99176">
        <ele>1508.4</ele>
        <time>2017-01-06T05:15:52Z</time>
      </trkpt>
      <trkpt lat="45.10107" lon="6.9919">
        <ele>1508.15</ele>
        <time>2017-01-06T05:15:53Z</time>
      </trkpt>
      <trkpt lat="45.10113" lon="6.99215">
        <ele>1506.45</ele>
        <time>2017-01-06T05:15:54Z</time>
      </trkpt>
      <trkpt lat="45.1011" lon="6.99235">
        <ele>1504.78</ele>
        <time>2017-01-06T05:15:55Z</time>
      </trkpt>
      <trkpt lat="45.101" lon="6.99259">
        <ele>1503.83</ele>
        <time>2017-01-06T05:15:56Z</time>
      </trkpt>
      <trkpt lat="45.10098" lon="6.99275">
        <ele>1502.18</ele>
        <time>2017-01-06T05:15:56Z</time>
      </trkpt>
      <trkpt lat="45.10109" lon="6.99288">
        <ele>1499.03</ele>
        <time>2017-01-06T05:15:57Z</time>
      </trkpt>
      <trkpt lat="45.10122" lon="6.99297">
        <ele>1497.13</ele>
        <time>2017-01-06T05:15:58Z</time>
      </trkpt>
      <trkpt lat="45.10143" lon="6.99322">
        <ele>1495.71</ele>
        <time>2017-01-06T05:16:00Z</time>
      </trkpt>
      <trkpt lat="45.10171" lon="6.99364">
        <ele>1492.7</ele>
        <time>2017-01-06T05:16:02Z</time>
      </trkpt>
      <trkpt lat="45.10192" lon="6.99389">
        <ele>1492.1</ele>
        <time>2017-01-06T05:16:03Z</time>
      </trkpt>
      <trkpt lat="45.10227" lon="6.99382">
        <ele>1491.59</ele>
        <time>2017-01-06T05:16:05Z</time>
      </trkpt>
      <trkpt lat="45.10268" lon="6.99368">
        <ele>1491.51</ele>
        <time>2017-01-06T05:16:08Z</time>
      </trkpt>
      <trkpt lat="45.10278" lon="6.99368">
        <ele>1491.24</ele>
        <time>2017-01-06T05:16:08Z</time>
      </trkpt>
      <trkpt lat="45.10293" lon="6.99373">
        <ele>1490.65</ele>
        <time>2017-01-06T05:16:09Z</time>
      </trkpt>
      <trkpt lat="45.10321" lon="6.99385">
        <ele>1488.89</ele>
        <time>2017-01-06T05:16:11Z</time>
      </trkpt>
      <trkpt lat="45.10332" lon="6.99392">
        <ele>1487.77</ele>
        <time>2017-01-06T05:16:11Z</time>
      </trkpt>
      <trkpt lat="45.10347" lon="6.99395">
        <ele>1485.37</ele>
        <time>2017-01-06T05:16:12Z</time>
      </trkpt>
      <trkpt lat="45.10359" lon="6.99394">
        <ele>1483.75</ele>
        <time>2017-01-06T05:16:13Z</time>
      </trkpt>
      <trkpt lat="45.10394" lon="6.99384">
        <ele>1480.81</ele>
        <time>2017-01-06T05:16:15Z</time>
      </trkpt>
      <trkpt lat="45.10406" lon="6.99388">
        <ele>1479.8</ele>
        <time>2017-01-06T05:16:15Z</time>
      </trkpt>
      <trkpt lat="45.10416" lon="6.99395">
        <ele>1478.61</ele>
        <time>2017-01-06T05:16:16Z</time>
      </trkpt>
      <trkpt lat="45.1043" lon="6.99404">
        <ele>1476.47</ele>
        <time>2017-01-06T05:16:17Z</time>
      </trkpt>
      <trkpt lat="45.10448" lon="6.99411">
        <ele>1473.61</ele>
        <time>2017-01-06T05:16:18Z</time>
      </trkpt>
      <trkpt lat="45.10468" lon="6.99421">
        <ele>1468.73</ele>
        <time>2017-01-06T05:16:19Z</time>
      </trkpt>
      <trkpt lat="45.10484" lon="6.99431">
        <ele>1464.11</ele>
        <time>2017-01-06T05:16:20Z</time>
      </trkpt>
      <trkpt lat="45.10499" lon="6.99444">
        <ele>1460.24</ele>
        <time>2017-01-06T05:16:21Z</time>
      </trkpt>
      <trkpt lat="45.10499" lon="6.99465">
        <ele>1460.96</ele>
        <time>2017-01-06T05:16:22Z</time>
      </trkpt>
      <trkpt lat="45.10487" lon="6.99529">
        <ele>1463.3</ele>
        <time>2017-01-06T05:16:24Z</time>
      </trkpt>
      <trkpt lat="45.10483" lon="6.99556">
        <ele>1462.82</ele>
        <time>2017-01-06T05:16:25Z</time>
      </trkpt>
      <trkpt lat="45.10481" lon="6.99605">
        <ele>1460.98</ele>
        <time>2017-01-06T05:16:27Z</time>
      </trkpt>
      <trkpt lat="45.1047" lon="6.99635">
        <ele>1459.36</ele>
        <time>2017-01-06T05:16:29Z</time>
      </trkpt>
      <trkpt lat="45.10446" lon="6.9967">
        <ele>1457.75</ele>
        <time>2017-01-06T05:16:31Z</time>
      </trkpt>
      <trkpt lat="45.10439" lon="6.99685">
        <ele>1457.86</ele>
        <time>2017-01-06T05:16:31Z</time>
      </trkpt>
      <trkpt lat="45.10432" lon="6.99707">
        <ele>1458.75</ele>
        <time>2017-01-06T05:16:32Z</time>
      </trkpt>
      <trkpt lat="45.1043" lon="6.99739">
        <ele>1461.73</ele>
        <time>2017-01-06T05:16:33Z</time>
      </trkpt>
      <trkpt lat="45.10434" lon="6.99772">
        <ele>1464.93</ele>
        <time>2017-01-06T05:16:35Z</time>
      </trkpt>
      <trkpt lat="45.10453" lon="6.99856">
        <ele>1466.12</ele>
        <time>2017-01-06T05:16:38Z</time>
      </trkpt>
      <trkpt lat="45.10455" lon="6.99902">
        <ele>1467.01</ele>
        <time>2017-01-06T05:16:40Z</time>
      </trkpt>
      <trkpt lat="45.10454" lon="6.99951">
        <ele>1468.82</ele>
        <time>2017-01-06T05:16:42Z</time>
      </trkpt>
      <trkpt lat="45.10449" lon="6.99989">
        <ele>1470.43</ele>
        <time>2017-01-06T05:16:43Z</time>
      </trkpt>
      <trkpt lat="45.10434" lon="7.00049">
        <ele>1474.93</ele>
        <time>2017-01-06T05:16:46Z</time>
      </trkpt>
      <trkpt lat="45.10423" lon="7.00118">
        <ele>1472.73</ele>
        <time>2017-01-06T05:16:49Z</time>
      </trkpt>
      <trkpt lat="45.1041" lon="7.00161">
        <ele>1470.34</ele>
        <time>2017-01-06T05:16:50Z</time>
      </trkpt>
      <trkpt lat="45.10395" lon="7.00189">
        <ele>1470.87</ele>
        <time>2017-01-06T05:16:52Z</time>
      </trkpt>
      <trkpt lat="45.10363" lon="7.00225">
        <ele>1475.4</ele>
        <time>2017-01-06T05:16:54Z</time>
      </trkpt>
      <trkpt lat="45.10298" lon="7.00309">
        <ele>1481.21</ele>
        <time>2017-01-06T05:16:59Z</time>
      </trkpt>
      <trkpt lat="45.10276" lon="7.00341">
        <ele>1485.16</ele>
        <time>2017-01-06T05:17:00Z</time>
      </trkpt>
      <trkpt lat="45.10267" lon="7.00374">
        <ele>1482.45</ele>
        <time>2017-01-06T05:17:02Z</time>
      </trkpt>
      <trkpt lat="45.10264" lon="7.00401">
        <ele>1478.92</ele>
        <time>2017-01-06T05:17:03Z</time>
      </trkpt>
      <trkpt lat="45.10266" lon="7.00417">
        <ele>1475.91</ele>
        <time>2017-01-06T05:17:04Z</time>
      </trkpt>
      <trkpt lat="45.1028" lon="7.0048">
        <ele>1468.38</ele>
        <time>2017-01-06T05:17:06Z</time>
      </trkpt>
      <trkpt lat="45.10285" lon="7.00522">
        <ele>1469.14</ele>
        <time>2017-01-06T05:17:08Z</time>
      </trkpt>
      <trkpt lat="45.10311" lon="7.00604">
        <ele>1473.52</ele>
        <time>2017-01-06T05:17:11Z</time>
      </trkpt>
      <trkpt lat="45.10316" lon="7.00627">
        <ele>1473.06</ele>
        <time>2017-01-06T05:17:12Z</time>
      </trkpt>
      <trkpt lat="45.10323" lon="7.00674">
        <ele>1473.78</ele>
        <time>2017-01-06T05:17:14Z</time>
      </trkpt>
      <trkpt lat="45.10328" lon="7.00693">
        <ele>1475.04</ele>
        <time>2017-01-06T05:17:15Z</time>
      </trkpt>
      <trkpt lat="45.10356" lon="7.00759">
        <ele>1473.55</ele>
        <time>2017-01-06T05:17:18Z</time>
      </trkpt>
      <trkpt lat="45.10377" lon="7.00795">
        <ele>1468.62</ele>
        <time>2017-01-06T05:17:20Z</time>
      </trkpt>
      <trkpt lat="45.10396" lon="7.00826">
        <ele>1466.08</ele>
        <time>2017-01-06T05:17:21Z</time>
      </trkpt>
      <trkpt lat="45.10409" lon="7.00855">
        <ele>1467.83</ele>
        <time>2017-01-06T05:17:22Z</time>
      </trkpt>
      <trkpt lat="45.10435" lon="7.00928">
        <ele>1468.38</ele>
        <time>2017-01-06T05:17:26Z</time>
      </trkpt>
      <trkpt lat="45.10444" lon="7.0098">
        <ele>1467.51</ele>
        <time>2017-01-06T05:17:28Z</time>
      </trkpt>
      <trkpt lat="45.10448" lon="7.01011">
        <ele>1466.36</ele>
        <time>2017-01-06T05:17:29Z</time>
      </trkpt>
      <trkpt lat="45.10451" lon="7.01083">
        <ele>1469.16</ele>
        <time>2017-01-06T05:17:32Z</time>
      </trkpt>
      <trkpt lat="45.10463" lon="7.01136">
        <ele>1464.21</ele>
        <time>2017-01-06T05:17:34Z</time>
      </trkpt>
      <trkpt lat="45.10486" lon="7.01178">
        <ele>1458.06</ele>
        <time>2017-01-06T05:17:36Z</time>
      </trkpt>
      <trkpt lat="45.10533" lon="7.01238">
        <ele>1447.2</ele>
        <time>2017-01-06T05:17:39Z</time>
      </trkpt>
      <trkpt lat="45.10548" lon="7.01283">
        <ele>1446.88</ele>
        <time>2017-01-06T05:17:41Z</time>
      </trkpt>
      <trkpt lat="45.10557" lon="7.01315">
        <ele>1445.23</ele>
        <time>2017-01-06T05:17:43Z</time>
      </trkpt>
      <trkpt lat="45.10529" lon="7.01431">
        <ele>1453.31</ele>
        <time>2017-01-06T05:17:48Z</time>
      </trkpt>
      <trkpt lat="45.1051" lon="7.01494">
        <ele>1459.59</ele>
        <time>2017-01-06T05:17:51Z</time>
      </trkpt>
      <trkpt lat="45.10476" lon="7.01593">
        <ele>1462.15</ele>
        <time>2017-01-06T05:17:55Z</time>
      </trkpt>
      <trkpt lat="45.1047" lon="7.01609">
        <ele>1462.43</ele>
        <time>2017-01-06T05:17:55Z</time>
      </trkpt>
      <trkpt lat="45.10444" lon="7.0164">
        <ele>1469.97</ele>
        <time>2017-01-06T05:17:57Z</time>
      </trkpt>
      <trkpt lat="45.10437" lon="7.0166">
        <ele>1468.94</ele>
        <time>2017-01-06T05:17:58Z</time>
      </trkpt>
      <trkpt lat="45.10429" lon="7.01705">
        <ele>1465.25</ele>
        <time>2017-01-06T05:18:00Z</time>
      </trkpt>
      <trkpt lat="45.10417" lon="7.01719">
        <ele>1468.22</ele>
        <time>2017-01-06T05:18:01Z</time>
      </trkpt>
      <trkpt lat="45.10394" lon="7.01738">
        <ele>1471.58</ele>
        <time>2017-01-06T05:18:02Z</time>
      </trkpt>
      <trkpt lat="45.10367" lon="7.01753">
        <ele>1476.06</ele>
        <time>2017-01-06T05:18:04Z</time>
      </trkpt>
      <trkpt lat="45.10348" lon="7.01781">
        <ele>1476.96</ele>
        <time>2017-01-06T05:18:05Z</time>
      </trkpt>
      <trkpt lat="45.10331" lon="7.01811">
        <ele>1477.42</ele>
        <time>2017-01-06T05:18:07Z</time>
      </trkpt>
      <trkpt lat="45.10323" lon="7.0182">
        <ele>1477.07</ele>
        <time>2017-01-06T05:18:07Z</time>
      </trkpt>
      <trkpt lat="45.10295" lon="7.01837">
        <ele>1479.02</ele>
        <time>2017-01-06T05:18:09Z</time>
      </trkpt>
      <trkpt lat="45.10287" lon="7.01846">
        <ele>1479.85</ele>
        <time>2017-01-06T05:18:10Z</time>
      </trkpt>
      <trkpt lat="45.10282" lon="7.01861">
        <ele>1479.49</ele>
        <time>2017-01-06T05:18:10Z</time>
      </trkpt>
      <trkpt lat="45.10284" lon="7.01889">
        <ele>1474.98</ele>
        <time>2017-01-06T05:18:11Z</time>
      </trkpt>
      <trkpt lat="45.10281" lon="7.01917">
        <ele>1473.91</ele>
        <time>2017-01-06T05:18:13Z</time>
      </trkpt>
      <trkpt lat="45.10273" lon="7.01937">
        <ele>1473.28</ele>
        <time>2017-01-06T05:18:13Z</time>
      </trkpt>
      <trkpt lat="45.10263" lon="7.01956">
        <ele>1473.7</ele>
        <time>2017-01-06T05:18:14Z</time>
      </trkpt>
      <trkpt lat="45.10252" lon="7.01977">
        <ele>1475.09</ele>
        <time>2017-01-06T05:18:15Z</time>
      </trkpt>
      <trkpt lat="45.10239" lon="7.02011">
        <ele>1476.62</ele>
        <time>2017-01-06T05:18:17Z</time>
      </trkpt>
      <trkpt lat="45.10213" lon="7.021">
        <ele>1478.46</ele>
        <time>2017-01-06T05:18:21Z</time>
      </trkpt>
      <trkpt lat="45.10199" lon="7.02144">
        <ele>1480.61</ele>
        <time>2017-01-06T05:18:22Z</time>
      </trkpt>
      <trkpt lat="45.10181" lon="7.02161">
        <ele>1481.97</ele>
        <time>2017-01-06T05:18:24Z</time>
      </trkpt>
      <trkpt lat="45.10168" lon="7.02174">
        <ele>1483.14</ele>
        <time>2017-01-06T05:18:24Z</time>
      </trkpt>
      <trkpt lat="45.1016" lon="7.02191">
        <ele>1485.35</ele>
        <time>2017-01-06T05:18:25Z</time>
      </trkpt>
      <trkpt lat="45.10157" lon="7.02213">
        <ele>1487.42</ele>
        <time>2017-01-06T05:18:26Z</time>
      </trkpt>
      <trkpt lat="45.10155" lon="7.02246">
        <ele>1489.74</ele>
        <time>2017-01-06T05:18:27Z</time>
      </trkpt>
      <trkpt lat="45.10144" lon="7.0226">
        <ele>1493.73</ele>
        <time>2017-01-06T05:18:28Z</time>
      </trkpt>
      <trkpt lat="45.10142" lon="7.02235">
        <ele>1492.2</ele>
        <time>2017-01-06T05:18:29Z</time>
      </trkpt>
      <trkpt lat="45.10141" lon="7.0222">
        <ele>1491.38</ele>
        <time>2017-01-06T05:18:30Z</time>
      </trkpt>
      <trkpt lat="45.10133" lon="7.02203">
        <ele>1493.16</ele>
        <time>2017-01-06T05:18:31Z</time>
      </trkpt>
      <trkpt lat="45.10088" lon="7.02157">
        <ele>1505.7</ele>
        <time>2017-01-06T05:18:34Z</time>
      </trkpt>
      <trkpt lat="45.10073" lon="7.0216">
        <ele>1510.49</ele>
        <time>2017-01-06T05:18:35Z</time>
      </trkpt>
      <trkpt lat="45.10092" lon="7.02189">
        <ele>1508.29</ele>
        <time>2017-01-06T05:18:37Z</time>
      </trkpt>
      <trkpt lat="45.10098" lon="7.02201">
        <ele>1507.08</ele>
        <time>2017-01-06T05:18:37Z</time>
      </trkpt>
      <trkpt lat="45.10077" lon="7.02234">
        <ele>1514.69</ele>
        <time>2017-01-06T05:18:39Z</time>
      </trkpt>
      <trkpt lat="45.10048" lon="7.02252">
        <ele>1520.68</ele>
        <time>2017-01-06T05:18:41Z</time>
      </trkpt>
      <trkpt lat="45.10042" lon="7.02264">
        <ele>1522.19</ele>
        <time>2017-01-06T05:18:41Z</time>
      </trkpt>
      <trkpt lat="45.10035" lon="7.02309">
        <ele>1523.13</ele>
        <time>2017-01-06T05:18:43Z</time>
      </trkpt>
      <trkpt lat="45.1004" lon="7.02329">
        <ele>1522.21</ele>
        <time>2017-01-06T05:18:44Z</time>
      </trkpt>
      <trkpt lat="45.10056" lon="7.02357">
        <ele>1521.85</ele>
        <time>2017-01-06T05:18:45Z</time>
      </trkpt>
      <trkpt lat="45.10064" lon="7.02374">
        <ele>1522.61</ele>
        <time>2017-01-06T05:18:46Z</time>
      </trkpt>
      <trkpt lat="45.10065" lon="7.02394">
        <ele>1523.09</ele>
        <time>2017-01-06T05:18:47Z</time>
      </trkpt>
      <trkpt lat="45.1006" lon="7.02414">
        <ele>1522.11</ele>
        <time>2017-01-06T05:18:48Z</time>
      </trkpt>
      <trkpt lat="45.10049" lon="7.02431">
        <ele>1521.91</ele>
        <time>2017-01-06T05:18:49Z</time>
      </trkpt>
      <trkpt lat="45.10032" lon="7.02445">
        <ele>1523.35</ele>
        <time>2017-01-06T05:18:50Z</time>
      </trkpt>
      <trkpt lat="45.10022" lon="7.02446">
        <ele>1524.93</ele>
        <time>2017-01-06T05:18:50Z</time>
      </trkpt>
      <trkpt lat="45.10012" lon="7.02444">
        <ele>1526.85</ele>
        <time>2017-01-06T05:18:51Z</time>
      </trkpt>
      <trkpt lat="45.09994" lon="7.02437">
        <ele>1529.55</ele>
        <time>2017-01-06T05:18:52Z</time>
      </trkpt>
      <trkpt lat="45.09961" lon="7.02417">
        <ele>1533.78</ele>
        <time>2017-01-06T05:18:54Z</time>
      </trkpt>
      <trkpt lat="45.09947" lon="7.02413">
        <ele>1535.2</ele>
        <time>2017-01-06T05:18:55Z</time>
      </trkpt>
      <trkpt lat="45.09925" lon="7.02414">
        <ele>1536.12</ele>
        <time>2017-01-06T05:18:56Z</time>
      </trkpt>
      <trkpt lat="45.09915" lon="7.02417">
        <ele>1536.16</ele>
        <time>2017-01-06T05:18:56Z</time>
      </trkpt>
      <trkpt lat="45.09906" lon="7.02423">
        <ele>1536.61</ele>
        <time>2017-01-06T05:18:57Z</time>
      </trkpt>
      <trkpt lat="45.09898" lon="7.02463">
        <ele>1536.01</ele>
        <time>2017-01-06T05:18:59Z</time>
      </trkpt>
      <trkpt lat="45.09894" lon="7.02477">
        <ele>1536.77</ele>
        <time>2017-01-06T05:18:59Z</time>
      </trkpt>
      <trkpt lat="45.09879" lon="7.02496">
        <ele>1538.62</ele>
        <time>2017-01-06T05:19:00Z</time>
      </trkpt>
      <trkpt lat="45.09816" lon="7.02505">
        <ele>1536.1</ele>
        <time>2017-01-06T05:19:04Z</time>
      </trkpt>
      <trkpt lat="45.09798" lon="7.02508">
        <ele>1535.86</ele>
        <time>2017-01-06T05:19:05Z</time>
      </trkpt>
      <trkpt lat="45.09788" lon="7.02513">
        <ele>1536.36</ele>
        <time>2017-01-06T05:19:05Z</time>
      </trkpt>
      <trkpt lat="45.09776" lon="7.02521">
        <ele>1536.57</ele>
        <time>2017-01-06T05:19:06Z</time>
      </trkpt>
      <trkpt lat="45.09759" lon="7.02552">
        <ele>1537.6</ele>
        <time>2017-01-06T05:19:08Z</time>
      </trkpt>
      <trkpt lat="45.09749" lon="7.02573">
        <ele>1537.89</ele>
        <time>2017-01-06T05:19:09Z</time>
      </trkpt>
      <trkpt lat="45.09746" lon="7.02588">
        <ele>1537.58</ele>
        <time>2017-01-06T05:19:09Z</time>
      </trkpt>
      <trkpt lat="45.09741" lon="7.02625">
        <ele>1538.3</ele>
        <time>2017-01-06T05:19:11Z</time>
      </trkpt>
      <trkpt lat="45.09745" lon="7.02655">
        <ele>1538.03</ele>
        <time>2017-01-06T05:19:12Z</time>
      </trkpt>
      <trkpt lat="45.09767" lon="7.02688">
        <ele>1536.84</ele>
        <time>2017-01-06T05:19:14Z</time>
      </trkpt>
      <trkpt lat="45.09781" lon="7.02697">
        <ele>1536.28</ele>
        <time>2017-01-06T05:19:14Z</time>
      </trkpt>
      <trkpt lat="45.09796" lon="7.02701">
        <ele>1536.71</ele>
        <time>2017-01-06T05:19:15Z</time>
      </trkpt>
      <trkpt lat="45.09822" lon="7.02686">
        <ele>1535.5</ele>
        <time>2017-01-06T05:19:17Z</time>
      </trkpt>
      <trkpt lat="45.09896" lon="7.02648">
        <ele>1531.16</ele>
        <time>2017-01-06T05:19:21Z</time>
      </trkpt>
      <trkpt lat="45.09912" lon="7.02651">
        <ele>1531.78</ele>
        <time>2017-01-06T05:19:22Z</time>
      </trkpt>
      <trkpt lat="45.09922" lon="7.02667">
        <ele>1532.82</ele>
        <time>2017-01-06T05:19:23Z</time>
      </trkpt>
      <trkpt lat="45.09949" lon="7.02727">
        <ele>1534.97</ele>
        <time>2017-01-06T05:19:26Z</time>
      </trkpt>
      <trkpt lat="45.09953" lon="7.02743">
        <ele>1534.77</ele>
        <time>2017-01-06T05:19:26Z</time>
      </trkpt>
      <trkpt lat="45.09957" lon="7.02766">
        <ele>1534.29</ele>
        <time>2017-01-06T05:19:27Z</time>
      </trkpt>
      <trkpt lat="45.09973" lon="7.02806">
        <ele>1533</ele>
        <time>2017-01-06T05:19:29Z</time>
      </trkpt>
      <trkpt lat="45.09998" lon="7.02828">
        <ele>1532.19</ele>
        <time>2017-01-06T05:19:31Z</time>
      </trkpt>
      <trkpt lat="45.10036" lon="7.02855">
        <ele>1532.08</ele>
        <time>2017-01-06T05:19:33Z</time>
      </trkpt>
      <trkpt lat="45.10047" lon="7.02876">
        <ele>1532.69</ele>
        <time>2017-01-06T05:19:34Z</time>
      </trkpt>
      <trkpt lat="45.1005" lon="7.0289">
        <ele>1532.82</ele>
        <time>2017-01-06T05:19:34Z</time>
      </trkpt>
      <trkpt lat="45.10033" lon="7.02913">
        <ele>1533.6</ele>
        <time>2017-01-06T05:19:36Z</time>
      </trkpt>
      <trkpt lat="45.0999" lon="7.02937">
        <ele>1537.37</ele>
        <time>2017-01-06T05:19:38Z</time>
      </trkpt>
      <trkpt lat="45.09985" lon="7.02951">
        <ele>1539.33</ele>
        <time>2017-01-06T05:19:39Z</time>
      </trkpt>
      <trkpt lat="45.1003" lon="7.03031">
        <ele>1544.12</ele>
        <time>2017-01-06T05:19:43Z</time>
      </trkpt>
      <trkpt lat="45.10059" lon="7.03186">
        <ele>1560.36</ele>
        <time>2017-01-06T05:19:49Z</time>
      </trkpt>
      <trkpt lat="45.10059" lon="7.03236">
        <ele>1563.44</ele>
        <time>2017-01-06T05:19:51Z</time>
      </trkpt>
      <trkpt lat="45.10051" lon="7.03247">
        <ele>1565.71</ele>
        <time>2017-01-06T05:19:52Z</time>
      </trkpt>
      <trkpt lat="45.10033" lon="7.03253">
        <ele>1569.06</ele>
        <time>2017-01-06T05:19:53Z</time>
      </trkpt>
      <trkpt lat="45.10018" lon="7.03255">
        <ele>1570.58</ele>
        <time>2017-01-06T05:19:54Z</time>
      </trkpt>
      <trkpt lat="45.10008" lon="7.03259">
        <ele>1570.96</ele>
        <time>2017-01-06T05:19:54Z</time>
      </trkpt>
      <trkpt lat="45.09993" lon="7.03279">
        <ele>1571.42</ele>
        <time>2017-01-06T05:19:55Z</time>
      </trkpt>
      <trkpt lat="45.09988" lon="7.03311">
        <ele>1570.79</ele>
        <time>2017-01-06T05:19:57Z</time>
      </trkpt>
      <trkpt lat="45.0998" lon="7.03457">
        <ele>1570.7</ele>
        <time>2017-01-06T05:20:02Z</time>
      </trkpt>
      <trkpt lat="45.0998" lon="7.0349">
        <ele>1570.24</ele>
        <time>2017-01-06T05:20:04Z</time>
      </trkpt>
      <trkpt lat="45.09986" lon="7.03508">
        <ele>1570.38</ele>
        <time>2017-01-06T05:20:04Z</time>
      </trkpt>
      <trkpt lat="45.1" lon="7.03538">
        <ele>1572.21</ele>
        <time>2017-01-06T05:20:06Z</time>
      </trkpt>
      <trkpt lat="45.10019" lon="7.03565">
        <ele>1573.15</ele>
        <time>2017-01-06T05:20:07Z</time>
      </trkpt>
      <trkpt lat="45.1003" lon="7.03578">
        <ele>1573.39</ele>
        <time>2017-01-06T05:20:08Z</time>
      </trkpt>
      <trkpt lat="45.10047" lon="7.03594">
        <ele>1576.03</ele>
        <time>2017-01-06T05:20:09Z</time>
      </trkpt>
      <trkpt lat="45.10132" lon="7.03649">
        <ele>1577.76</ele>
        <time>2017-01-06T05:20:14Z</time>
      </trkpt>
      <trkpt lat="45.10164" lon="7.03665">
        <ele>1574.25</ele>
        <time>2017-01-06T05:20:16Z</time>
      </trkpt>
      <trkpt lat="45.1019" lon="7.03681">
        <ele>1574.2</ele>
        <time>2017-01-06T05:20:18Z</time>
      </trkpt>
      <trkpt lat="45.10222" lon="7.0369">
        <ele>1573.74</ele>
        <time>2017-01-06T05:20:19Z</time>
      </trkpt>
      <trkpt lat="45.10478" lon="7.03717">
        <ele>1570.76</ele>
        <time>2017-01-06T05:20:34Z</time>
      </trkpt>
      <trkpt lat="45.10498" lon="7.03718">
        <ele>1567.04</ele>
        <time>2017-01-06T05:20:35Z</time>
      </trkpt>
      <trkpt lat="45.10613" lon="7.03823">
        <ele>1561.79</ele>
        <time>2017-01-06T05:20:42Z</time>
      </trkpt>
      <trkpt lat="45.10624" lon="7.0383">
        <ele>1561.2</ele>
        <time>2017-01-06T05:20:43Z</time>
      </trkpt>
      <trkpt lat="45.10617" lon="7.03801">
        <ele>1553.16</ele>
        <time>2017-01-06T05:20:45Z</time>
      </trkpt>
      <trkpt lat="45.10541" lon="7.03698">
        <ele>1549.92</ele>
        <time>2017-01-06T05:20:50Z</time>
      </trkpt>
      <trkpt lat="45.10526" lon="7.03682">
        <ele>1550.29</ele>
        <time>2017-01-06T05:20:51Z</time>
      </trkpt>
      <trkpt lat="45.10499" lon="7.03661">
        <ele>1548.27</ele>
        <time>2017-01-06T05:20:53Z</time>
      </trkpt>
      <trkpt lat="45.1047" lon="7.03651">
        <ele>1548.23</ele>
        <time>2017-01-06T05:20:55Z</time>
      </trkpt>
      <trkpt lat="45.10451" lon="7.03642">
        <ele>1547.47</ele>
        <time>2017-01-06T05:20:56Z</time>
      </trkpt>
      <trkpt lat="45.10443" lon="7.03632">
        <ele>1544.35</ele>
        <time>2017-01-06T05:20:56Z</time>
      </trkpt>
      <trkpt lat="45.10456" lon="7.03615">
        <ele>1536.15</ele>
        <time>2017-01-06T05:20:58Z</time>
      </trkpt>
      <trkpt lat="45.10469" lon="7.03616">
        <ele>1535.92</ele>
        <time>2017-01-06T05:20:58Z</time>
      </trkpt>
      <trkpt lat="45.10499" lon="7.03623">
        <ele>1536.49</ele>
        <time>2017-01-06T05:21:00Z</time>
      </trkpt>
      <trkpt lat="45.10548" lon="7.03657">
        <ele>1536.08</ele>
        <time>2017-01-06T05:21:03Z</time>
      </trkpt>
      <trkpt lat="45.10624" lon="7.03716">
        <ele>1530.1</ele>
        <time>2017-01-06T05:21:08Z</time>
      </trkpt>
      <trkpt lat="45.10645" lon="7.03729">
        <ele>1528.8</ele>
        <time>2017-01-06T05:21:09Z</time>
      </trkpt>
      <trkpt lat="45.10659" lon="7.03727">
        <ele>1526.86</ele>
        <time>2017-01-06T05:21:10Z</time>
      </trkpt>
      <trkpt lat="45.10634" lon="7.03702">
        <ele>1525.42</ele>
        <time>2017-01-06T05:21:12Z</time>
      </trkpt>
      <trkpt lat="45.10614" lon="7.03676">
        <ele>1525.79</ele>
        <time>2017-01-06T05:21:13Z</time>
      </trkpt>
      <trkpt lat="45.10602" lon="7.03656">
        <ele>1524.78</ele>
        <time>2017-01-06T05:21:14Z</time>
      </trkpt>
      <trkpt lat="45.10621" lon="7.03642">
        <ele>1519.67</ele>
        <time>2017-01-06T05:21:16Z</time>
      </trkpt>
      <trkpt lat="45.10648" lon="7.03648">
        <ele>1515.78</ele>
        <time>2017-01-06T05:21:17Z</time>
      </trkpt>
      <trkpt lat="45.10681" lon="7.03656">
        <ele>1513.37</ele>
        <time>2017-01-06T05:21:19Z</time>
      </trkpt>
      <trkpt lat="45.10698" lon="7.03654">
        <ele>1512.01</ele>
        <time>2017-01-06T05:21:20Z</time>
      </trkpt>
      <trkpt lat="45.10701" lon="7.03625">
        <ele>1505.03</ele>
        <time>2017-01-06T05:21:21Z</time>
      </trkpt>
      <trkpt lat="45.10652" lon="7.0357">
        <ele>1502.52</ele>
        <time>2017-01-06T05:21:25Z</time>
      </trkpt>
      <trkpt lat="45.10626" lon="7.03547">
        <ele>1502.15</ele>
        <time>2017-01-06T05:21:26Z</time>
      </trkpt>
      <trkpt lat="45.10616" lon="7.03537">
        <ele>1501.84</ele>
        <time>2017-01-06T05:21:27Z</time>
      </trkpt>
      <trkpt lat="45.10604" lon="7.03531">
        <ele>1501.87</ele>
        <time>2017-01-06T05:21:28Z</time>
      </trkpt>
      <trkpt lat="45.1058" lon="7.03514">
        <ele>1499.03</ele>
        <time>2017-01-06T05:21:29Z</time>
      </trkpt>
      <trkpt lat="45.10584" lon="7.035">
        <ele>1495.95</ele>
        <time>2017-01-06T05:21:30Z</time>
      </trkpt>
      <trkpt lat="45.10599" lon="7.03498">
        <ele>1494.3</ele>
        <time>2017-01-06T05:21:31Z</time>
      </trkpt>
      <trkpt lat="45.10622" lon="7.03507">
        <ele>1494.1</ele>
        <time>2017-01-06T05:21:32Z</time>
      </trkpt>
      <trkpt lat="45.10673" lon="7.03526">
        <ele>1489.26</ele>
        <time>2017-01-06T05:21:35Z</time>
      </trkpt>
      <trkpt lat="45.10747" lon="7.03546">
        <ele>1482.27</ele>
        <time>2017-01-06T05:21:39Z</time>
      </trkpt>
      <trkpt lat="45.10807" lon="7.03554">
        <ele>1474.45</ele>
        <time>2017-01-06T05:21:42Z</time>
      </trkpt>
      <trkpt lat="45.10831" lon="7.03563">
        <ele>1473.62</ele>
        <time>2017-01-06T05:21:44Z</time>
      </trkpt>
      <trkpt lat="45.1085" lon="7.03581">
        <ele>1473.58</ele>
        <time>2017-01-06T05:21:45Z</time>
      </trkpt>
      <trkpt lat="45.10861" lon="7.03593">
        <ele>1473.42</ele>
        <time>2017-01-06T05:21:46Z</time>
      </trkpt>
      <trkpt lat="45.10866" lon="7.03577">
        <ele>1469.49</ele>
        <time>2017-01-06T05:21:46Z</time>
      </trkpt>
      <trkpt lat="45.10845" lon="7.03547">
        <ele>1467.74</ele>
        <time>2017-01-06T05:21:48Z</time>
      </trkpt>
      <trkpt lat="45.10822" lon="7.03527">
        <ele>1465.98</ele>
        <time>2017-01-06T05:21:50Z</time>
      </trkpt>
      <trkpt lat="45.10808" lon="7.0352">
        <ele>1465.47</ele>
        <time>2017-01-06T05:21:50Z</time>
      </trkpt>
      <trkpt lat="45.10789" lon="7.03514">
        <ele>1466.12</ele>
        <time>2017-01-06T05:21:51Z</time>
      </trkpt>
      <trkpt lat="45.1082" lon="7.03501">
        <ele>1458.23</ele>
        <time>2017-01-06T05:21:54Z</time>
      </trkpt>
      <trkpt lat="45.10847" lon="7.03503">
        <ele>1454.51</ele>
        <time>2017-01-06T05:21:56Z</time>
      </trkpt>
      <trkpt lat="45.1084" lon="7.0349">
        <ele>1451.29</ele>
        <time>2017-01-06T05:21:56Z</time>
      </trkpt>
      <trkpt lat="45.10826" lon="7.03482">
        <ele>1450.58</ele>
        <time>2017-01-06T05:21:57Z</time>
      </trkpt>
      <trkpt lat="45.10785" lon="7.03475">
        <ele>1453.22</ele>
        <time>2017-01-06T05:21:59Z</time>
      </trkpt>
      <trkpt lat="45.10761" lon="7.0347">
        <ele>1455.28</ele>
        <time>2017-01-06T05:22:01Z</time>
      </trkpt>
      <trkpt lat="45.10777" lon="7.03452">
        <ele>1447.28</ele>
        <time>2017-01-06T05:22:02Z</time>
      </trkpt>
      <trkpt lat="45.10827" lon="7.03452">
        <ele>1439.63</ele>
        <time>2017-01-06T05:22:05Z</time>
      </trkpt>
      <trkpt lat="45.10838" lon="7.03448">
        <ele>1436.46</ele>
        <time>2017-01-06T05:22:06Z</time>
      </trkpt>
      <trkpt lat="45.1083" lon="7.03436">
        <ele>1433.48</ele>
        <time>2017-01-06T05:22:06Z</time>
      </trkpt>
      <trkpt lat="45.10798" lon="7.0343">
        <ele>1436.68</ele>
        <time>2017-01-06T05:22:08Z</time>
      </trkpt>
      <trkpt lat="45.10803" lon="7.03417">
        <ele>1431.57</ele>
        <time>2017-01-06T05:22:09Z</time>
      </trkpt>
      <trkpt lat="45.10855" lon="7.0342">
        <ele>1421.93</ele>
        <time>2017-01-06T05:22:12Z</time>
      </trkpt>
      <trkpt lat="45.10887" lon="7.03436">
        <ele>1420.46</ele>
        <time>2017-01-06T05:22:14Z</time>
      </trkpt>
      <trkpt lat="45.10904" lon="7.0346">
        <ele>1425.8</ele>
        <time>2017-01-06T05:22:15Z</time>
      </trkpt>
      <trkpt lat="45.10905" lon="7.03433">
        <ele>1415.64</ele>
        <time>2017-01-06T05:22:16Z</time>
      </trkpt>
      <trkpt lat="45.10877" lon="7.03407">
        <ele>1411.94</ele>
        <time>2017-01-06T05:22:18Z</time>
      </trkpt>
      <trkpt lat="45.10854" lon="7.03392">
        <ele>1411.02</ele>
        <time>2017-01-06T05:22:19Z</time>
      </trkpt>
      <trkpt lat="45.10895" lon="7.03392">
        <ele>1403.21</ele>
        <time>2017-01-06T05:22:22Z</time>
      </trkpt>
      <trkpt lat="45.10889" lon="7.03374">
        <ele>1398.7</ele>
        <time>2017-01-06T05:22:23Z</time>
      </trkpt>
      <trkpt lat="45.10852" lon="7.03359">
        <ele>1399.91</ele>
        <time>2017-01-06T05:22:25Z</time>
      </trkpt>
      <trkpt lat="45.1086" lon="7.03346">
        <ele>1394.26</ele>
        <time>2017-01-06T05:22:26Z</time>
      </trkpt>
      <trkpt lat="45.10893" lon="7.03353">
        <ele>1392.43</ele>
        <time>2017-01-06T05:22:28Z</time>
      </trkpt>
      <trkpt lat="45.10914" lon="7.03368">
        <ele>1394.05</ele>
        <time>2017-01-06T05:22:29Z</time>
      </trkpt>
      <trkpt lat="45.10927" lon="7.03381">
        <ele>1394.89</ele>
        <time>2017-01-06T05:22:30Z</time>
      </trkpt>
      <trkpt lat="45.10922" lon="7.03363">
        <ele>1391.5</ele>
        <time>2017-01-06T05:22:31Z</time>
      </trkpt>
      <trkpt lat="45.10898" lon="7.03337">
        <ele>1387.37</ele>
        <time>2017-01-06T05:22:32Z</time>
      </trkpt>
      <trkpt lat="45.10826" lon="7.0331">
        <ele>1383.36</ele>
        <time>2017-01-06T05:22:36Z</time>
      </trkpt>
      <trkpt lat="45.10803" lon="7.03299">
        <ele>1381.62</ele>
        <time>2017-01-06T05:22:38Z</time>
      </trkpt>
      <trkpt lat="45.10888" lon="7.03297">
        <ele>1375.94</ele>
        <time>2017-01-06T05:22:43Z</time>
      </trkpt>
      <trkpt lat="45.10933" lon="7.03308">
        <ele>1373.73</ele>
        <time>2017-01-06T05:22:45Z</time>
      </trkpt>
      <trkpt lat="45.10954" lon="7.03322">
        <ele>1372.98</ele>
        <time>2017-01-06T05:22:47Z</time>
      </trkpt>
      <trkpt lat="45.10956" lon="7.03303">
        <ele>1367.03</ele>
        <time>2017-01-06T05:22:47Z</time>
      </trkpt>
      <trkpt lat="45.1086" lon="7.03221">
        <ele>1351.98</ele>
        <time>2017-01-06T05:22:54Z</time>
      </trkpt>
      <trkpt lat="45.10842" lon="7.03196">
        <ele>1349.68</ele>
        <time>2017-01-06T05:22:55Z</time>
      </trkpt>
      <trkpt lat="45.1085" lon="7.03183">
        <ele>1347.15</ele>
        <time>2017-01-06T05:22:56Z</time>
      </trkpt>
      <trkpt lat="45.10868" lon="7.03178">
        <ele>1345.14</ele>
        <time>2017-01-06T05:22:57Z</time>
      </trkpt>
      <trkpt lat="45.10893" lon="7.03181">
        <ele>1343.77</ele>
        <time>2017-01-06T05:22:58Z</time>
      </trkpt>
      <trkpt lat="45.10911" lon="7.03188">
        <ele>1343.48</ele>
        <time>2017-01-06T05:22:59Z</time>
      </trkpt>
      <trkpt lat="45.10924" lon="7.0319">
        <ele>1342.08</ele>
        <time>2017-01-06T05:23:00Z</time>
      </trkpt>
      <trkpt lat="45.10928" lon="7.03177">
        <ele>1339.7</ele>
        <time>2017-01-06T05:23:00Z</time>
      </trkpt>
      <trkpt lat="45.10915" lon="7.03167">
        <ele>1340.17</ele>
        <time>2017-01-06T05:23:01Z</time>
      </trkpt>
      <trkpt lat="45.10872" lon="7.03146">
        <ele>1340.24</ele>
        <time>2017-01-06T05:23:04Z</time>
      </trkpt>
      <trkpt lat="45.10854" lon="7.03124">
        <ele>1337.44</ele>
        <time>2017-01-06T05:23:05Z</time>
      </trkpt>
      <trkpt lat="45.10858" lon="7.03111">
        <ele>1334.98</ele>
        <time>2017-01-06T05:23:06Z</time>
      </trkpt>
      <trkpt lat="45.10913" lon="7.03061">
        <ele>1321.55</ele>
        <time>2017-01-06T05:23:09Z</time>
      </trkpt>
      <trkpt lat="45.10964" lon="7.03007">
        <ele>1309.38</ele>
        <time>2017-01-06T05:23:13Z</time>
      </trkpt>
      <trkpt lat="45.10973" lon="7.02987">
        <ele>1305.12</ele>
        <time>2017-01-06T05:23:14Z</time>
      </trkpt>
      <trkpt lat="45.10996" lon="7.03004">
        <ele>1305.76</ele>
        <time>2017-01-06T05:23:15Z</time>
      </trkpt>
      <trkpt lat="45.11012" lon="7.03058">
        <ele>1303.42</ele>
        <time>2017-01-06T05:23:17Z</time>
      </trkpt>
      <trkpt lat="45.11027" lon="7.03113">
        <ele>1302.62</ele>
        <time>2017-01-06T05:23:20Z</time>
      </trkpt>
      <trkpt lat="45.11045" lon="7.03135">
        <ele>1300.19</ele>
        <time>2017-01-06T05:23:21Z</time>
      </trkpt>
      <trkpt lat="45.11061" lon="7.03143">
        <ele>1295.54</ele>
        <time>2017-01-06T05:23:22Z</time>
      </trkpt>
      <trkpt lat="45.11081" lon="7.03177">
        <ele>1294.27</ele>
        <time>2017-01-06T05:23:24Z</time>
      </trkpt>
      <trkpt lat="45.11116" lon="7.03226">
        <ele>1285.66</ele>
        <time>2017-01-06T05:23:26Z</time>
      </trkpt>
      <trkpt lat="45.11204" lon="7.03303">
        <ele>1271.66</ele>
        <time>2017-01-06T05:23:32Z</time>
      </trkpt>
      <trkpt lat="45.11244" lon="7.03327">
        <ele>1264.23</ele>
        <time>2017-01-06T05:23:34Z</time>
      </trkpt>
      <trkpt lat="45.11274" lon="7.03335">
        <ele>1258.88</ele>
        <time>2017-01-06T05:23:36Z</time>
      </trkpt>
      <trkpt lat="45.11289" lon="7.03358">
        <ele>1255.66</ele>
        <time>2017-01-06T05:23:37Z</time>
      </trkpt>
      <trkpt lat="45.11283" lon="7.03403">
        <ele>1255.2</ele>
        <time>2017-01-06T05:23:39Z</time>
      </trkpt>
      <trkpt lat="45.11278" lon="7.0344">
        <ele>1252.58</ele>
        <time>2017-01-06T05:23:40Z</time>
      </trkpt>
      <trkpt lat="45.11293" lon="7.03478">
        <ele>1247.17</ele>
        <time>2017-01-06T05:23:42Z</time>
      </trkpt>
      <trkpt lat="45.11314" lon="7.03508">
        <ele>1242.31</ele>
        <time>2017-01-06T05:23:44Z</time>
      </trkpt>
      <trkpt lat="45.11313" lon="7.03523">
        <ele>1240.91</ele>
        <time>2017-01-06T05:23:44Z</time>
      </trkpt>
      <trkpt lat="45.11285" lon="7.03543">
        <ele>1245.46</ele>
        <time>2017-01-06T05:23:46Z</time>
      </trkpt>
      <trkpt lat="45.11279" lon="7.03576">
        <ele>1244.33</ele>
        <time>2017-01-06T05:23:47Z</time>
      </trkpt>
      <trkpt lat="45.11283" lon="7.03614">
        <ele>1240.83</ele>
        <time>2017-01-06T05:23:49Z</time>
      </trkpt>
      <trkpt lat="45.11298" lon="7.03654">
        <ele>1235.08</ele>
        <time>2017-01-06T05:23:51Z</time>
      </trkpt>
      <trkpt lat="45.11324" lon="7.0377">
        <ele>1223.4</ele>
        <time>2017-01-06T05:23:55Z</time>
      </trkpt>
      <trkpt lat="45.11316" lon="7.03795">
        <ele>1223.37</ele>
        <time>2017-01-06T05:23:56Z</time>
      </trkpt>
      <trkpt lat="45.11308" lon="7.03829">
        <ele>1223.3</ele>
        <time>2017-01-06T05:23:58Z</time>
      </trkpt>
      <trkpt lat="45.11308" lon="7.03851">
        <ele>1224.17</ele>
        <time>2017-01-06T05:23:59Z</time>
      </trkpt>
      <trkpt lat="45.11321" lon="7.03882">
        <ele>1219.64</ele>
        <time>2017-01-06T05:24:00Z</time>
      </trkpt>
      <trkpt lat="45.11335" lon="7.03922">
        <ele>1214.56</ele>
        <time>2017-01-06T05:24:02Z</time>
      </trkpt>
      <trkpt lat="45.11336" lon="7.03962">
        <ele>1215.74</ele>
        <time>2017-01-06T05:24:03Z</time>
      </trkpt>
      <trkpt lat="45.11354" lon="7.04029">
        <ele>1208.25</ele>
        <time>2017-01-06T05:24:06Z</time>
      </trkpt>
      <trkpt lat="45.1136" lon="7.03955">
        <ele>1201.3</ele>
        <time>2017-01-06T05:24:10Z</time>
      </trkpt>
      <trkpt lat="45.11368" lon="7.03904">
        <ele>1195.05</ele>
        <time>2017-01-06T05:24:12Z</time>
      </trkpt>
      <trkpt lat="45.11367" lon="7.03864">
        <ele>1197.04</ele>
        <time>2017-01-06T05:24:13Z</time>
      </trkpt>
      <trkpt lat="45.11417" lon="7.03795">
        <ele>1181.51</ele>
        <time>2017-01-06T05:24:17Z</time>
      </trkpt>
      <trkpt lat="45.11429" lon="7.03775">
        <ele>1179.9</ele>
        <time>2017-01-06T05:24:18Z</time>
      </trkpt>
      <trkpt lat="45.11437" lon="7.03766">
        <ele>1177.25</ele>
        <time>2017-01-06T05:24:18Z</time>
      </trkpt>
      <trkpt lat="45.11444" lon="7.03778">
        <ele>1171.21</ele>
        <time>2017-01-06T05:24:19Z</time>
      </trkpt>
      <trkpt lat="45.1143" lon="7.03802">
        <ele>1174.37</ele>
        <time>2017-01-06T05:24:20Z</time>
      </trkpt>
      <trkpt lat="45.11418" lon="7.03818">
        <ele>1176.7</ele>
        <time>2017-01-06T05:24:21Z</time>
      </trkpt>
      <trkpt lat="45.11414" lon="7.03835">
        <ele>1176.28</ele>
        <time>2017-01-06T05:24:22Z</time>
      </trkpt>
      <trkpt lat="45.11428" lon="7.03863">
        <ele>1169.89</ele>
        <time>2017-01-06T05:24:23Z</time>
      </trkpt>
      <trkpt lat="45.11455" lon="7.03889">
        <ele>1158.81</ele>
        <time>2017-01-06T05:24:25Z</time>
      </trkpt>
      <trkpt lat="45.11469" lon="7.03988">
        <ele>1148.57</ele>
        <time>2017-01-06T05:24:29Z</time>
      </trkpt>
      <trkpt lat="45.11463" lon="7.04025">
        <ele>1150.45</ele>
        <time>2017-01-06T05:24:30Z</time>
      </trkpt>
      <trkpt lat="45.11458" lon="7.04041">
        <ele>1151</ele>
        <time>2017-01-06T05:24:31Z</time>
      </trkpt>
      <trkpt lat="45.11495" lon="7.04026">
        <ele>1134.69</ele>
        <time>2017-01-06T05:24:33Z</time>
      </trkpt>
      <trkpt lat="45.11498" lon="7.04003">
        <ele>1135.56</ele>
        <time>2017-01-06T05:24:34Z</time>
      </trkpt>
      <trkpt lat="45.11495" lon="7.03971">
        <ele>1139.63</ele>
        <time>2017-01-06T05:24:36Z</time>
      </trkpt>
      <trkpt lat="45.11513" lon="7.03906">
        <ele>1133.4</ele>
        <time>2017-01-06T05:24:38Z</time>
      </trkpt>
      <trkpt lat="45.11528" lon="7.03859">
        <ele>1129.9</ele>
        <time>2017-01-06T05:24:40Z</time>
      </trkpt>
      <trkpt lat="45.11533" lon="7.0382">
        <ele>1126.69</ele>
        <time>2017-01-06T05:24:42Z</time>
      </trkpt>
      <trkpt lat="45.11534" lon="7.03785">
        <ele>1125.31</ele>
        <time>2017-01-06T05:24:43Z</time>
      </trkpt>
      <trkpt lat="45.11563" lon="7.03742">
        <ele>1116.36</ele>
        <time>2017-01-06T05:24:45Z</time>
      </trkpt>
      <trkpt lat="45.11574" lon="7.03708">
        <ele>1114.2</ele>
        <time>2017-01-06T05:24:47Z</time>
      </trkpt>
      <trkpt lat="45.11578" lon="7.03664">
        <ele>1112.42</ele>
        <time>2017-01-06T05:24:49Z</time>
      </trkpt>
      <trkpt lat="45.11572" lon="7.03564">
        <ele>1118.12</ele>
        <time>2017-01-06T05:24:52Z</time>
      </trkpt>
      <trkpt lat="45.11588" lon="7.03418">
        <ele>1104.47</ele>
        <time>2017-01-06T05:24:58Z</time>
      </trkpt>
      <trkpt lat="45.11596" lon="7.03391">
        <ele>1099.69</ele>
        <time>2017-01-06T05:24:59Z</time>
      </trkpt>
      <trkpt lat="45.11617" lon="7.0336">
        <ele>1090.88</ele>
        <time>2017-01-06T05:25:01Z</time>
      </trkpt>
      <trkpt lat="45.11638" lon="7.03336">
        <ele>1087.75</ele>
        <time>2017-01-06T05:25:02Z</time>
      </trkpt>
      <trkpt lat="45.11651" lon="7.03331">
        <ele>1085.1</ele>
        <time>2017-01-06T05:25:03Z</time>
      </trkpt>
      <trkpt lat="45.11652" lon="7.03348">
        <ele>1080.81</ele>
        <time>2017-01-06T05:25:04Z</time>
      </trkpt>
      <trkpt lat="45.11628" lon="7.03424">
        <ele>1078.45</ele>
        <time>2017-01-06T05:25:07Z</time>
      </trkpt>
      <trkpt lat="45.11646" lon="7.03586">
        <ele>1065.01</ele>
        <time>2017-01-06T05:25:13Z</time>
      </trkpt>
      <trkpt lat="45.11656" lon="7.0362">
        <ele>1066.14</ele>
        <time>2017-01-06T05:25:15Z</time>
      </trkpt>
      <trkpt lat="45.11699" lon="7.03683">
        <ele>1054.91</ele>
        <time>2017-01-06T05:25:18Z</time>
      </trkpt>
      <trkpt lat="45.11762" lon="7.03709">
        <ele>1030.86</ele>
        <time>2017-01-06T05:25:22Z</time>
      </trkpt>
      <trkpt lat="45.11774" lon="7.03706">
        <ele>1027</ele>
        <time>2017-01-06T05:25:22Z</time>
      </trkpt>
      <trkpt lat="45.11771" lon="7.03686">
        <ele>1026.05</ele>
        <time>2017-01-06T05:25:23Z</time>
      </trkpt>
      <trkpt lat="45.1173" lon="7.03644">
        <ele>1034.71</ele>
        <time>2017-01-06T05:25:26Z</time>
      </trkpt>
      <trkpt lat="45.11698" lon="7.03588">
        <ele>1040</ele>
        <time>2017-01-06T05:25:29Z</time>
      </trkpt>
      <trkpt lat="45.11696" lon="7.03558">
        <ele>1033.77</ele>
        <time>2017-01-06T05:25:30Z</time>
      </trkpt>
      <trkpt lat="45.11703" lon="7.03515">
        <ele>1029.03</ele>
        <time>2017-01-06T05:25:32Z</time>
      </trkpt>
      <trkpt lat="45.11725" lon="7.03375">
        <ele>1024.25</ele>
        <time>2017-01-06T05:25:37Z</time>
      </trkpt>
      <trkpt lat="45.11732" lon="7.03385">
        <ele>1016.91</ele>
        <time>2017-01-06T05:25:38Z</time>
      </trkpt>
      <trkpt lat="45.1173" lon="7.03425">
        <ele>1015.39</ele>
        <time>2017-01-06T05:25:40Z</time>
      </trkpt>
      <trkpt lat="45.11736" lon="7.03501">
        <ele>1008.6</ele>
        <time>2017-01-06T05:25:43Z</time>
      </trkpt>
      <trkpt lat="45.11747" lon="7.03531">
        <ele>1004.06</ele>
        <time>2017-01-06T05:25:44Z</time>
      </trkpt>
      <trkpt lat="45.11771" lon="7.03558">
        <ele>995.19</ele>
        <time>2017-01-06T05:25:46Z</time>
      </trkpt>
      <trkpt lat="45.11789" lon="7.03576">
        <ele>989.84</ele>
        <time>2017-01-06T05:25:47Z</time>
      </trkpt>
      <trkpt lat="45.11813" lon="7.03614">
        <ele>987.91</ele>
        <time>2017-01-06T05:25:49Z</time>
      </trkpt>
      <trkpt lat="45.11823" lon="7.03626">
        <ele>985.59</ele>
        <time>2017-01-06T05:25:50Z</time>
      </trkpt>
      <trkpt lat="45.11806" lon="7.03559">
        <ele>975.91</ele>
        <time>2017-01-06T05:25:52Z</time>
      </trkpt>
      <trkpt lat="45.1179" lon="7.03532">
        <ele>978.13</ele>
        <time>2017-01-06T05:25:54Z</time>
      </trkpt>
      <trkpt lat="45.11781" lon="7.03518">
        <ele>981.38</ele>
        <time>2017-01-06T05:25:55Z</time>
      </trkpt>
      <trkpt lat="45.11779" lon="7.03498">
        <ele>979.93</ele>
        <time>2017-01-06T05:25:55Z</time>
      </trkpt>
      <trkpt lat="45.11788" lon="7.0339">
        <ele>975.17</ele>
        <time>2017-01-06T05:26:00Z</time>
      </trkpt>
      <trkpt lat="45.11797" lon="7.03436">
        <ele>962.61</ele>
        <time>2017-01-06T05:26:02Z</time>
      </trkpt>
      <trkpt lat="45.11811" lon="7.03502">
        <ele>958.33</ele>
        <time>2017-01-06T05:26:05Z</time>
      </trkpt>
      <trkpt lat="45.11855" lon="7.03529">
        <ele>946.69</ele>
        <time>2017-01-06T05:26:07Z</time>
      </trkpt>
      <trkpt lat="45.11905" lon="7.0361">
        <ele>933.23</ele>
        <time>2017-01-06T05:26:12Z</time>
      </trkpt>
      <trkpt lat="45.1191" lon="7.03634">
        <ele>932.45</ele>
        <time>2017-01-06T05:26:13Z</time>
      </trkpt>
      <trkpt lat="45.11908" lon="7.0366">
        <ele>934.99</ele>
        <time>2017-01-06T05:26:14Z</time>
      </trkpt>
      <trkpt lat="45.11908" lon="7.03678">
        <ele>935.43</ele>
        <time>2017-01-06T05:26:14Z</time>
      </trkpt>
      <trkpt lat="45.1192" lon="7.03706">
        <ele>927.36</ele>
        <time>2017-01-06T05:26:16Z</time>
      </trkpt>
      <trkpt lat="45.11927" lon="7.03734">
        <ele>918.66</ele>
        <time>2017-01-06T05:26:17Z</time>
      </trkpt>
      <trkpt lat="45.11916" lon="7.03764">
        <ele>922.28</ele>
        <time>2017-01-06T05:26:18Z</time>
      </trkpt>
      <trkpt lat="45.11875" lon="7.03808">
        <ele>930.03</ele>
        <time>2017-01-06T05:26:21Z</time>
      </trkpt>
      <trkpt lat="45.11858" lon="7.03836">
        <ele>927.29</ele>
        <time>2017-01-06T05:26:22Z</time>
      </trkpt>
      <trkpt lat="45.11827" lon="7.03939">
        <ele>919.25</ele>
        <time>2017-01-06T05:26:27Z</time>
      </trkpt>
      <trkpt lat="45.11829" lon="7.03979">
        <ele>908.57</ele>
        <time>2017-01-06T05:26:28Z</time>
      </trkpt>
      <trkpt lat="45.11875" lon="7.04059">
        <ele>889.31</ele>
        <time>2017-01-06T05:26:32Z</time>
      </trkpt>
      <trkpt lat="45.11888" lon="7.04086">
        <ele>884.63</ele>
        <time>2017-01-06T05:26:33Z</time>
      </trkpt>
      <trkpt lat="45.11887" lon="7.04104">
        <ele>881.1</ele>
        <time>2017-01-06T05:26:34Z</time>
      </trkpt>
      <trkpt lat="45.11869" lon="7.04141">
        <ele>876.91</ele>
        <time>2017-01-06T05:26:36Z</time>
      </trkpt>
      <trkpt lat="45.11852" lon="7.04154">
        <ele>876.68</ele>
        <time>2017-01-06T05:26:37Z</time>
      </trkpt>
      <trkpt lat="45.11826" lon="7.04155">
        <ele>881.52</ele>
        <time>2017-01-06T05:26:38Z</time>
      </trkpt>
      <trkpt lat="45.11793" lon="7.04173">
        <ele>886.8</ele>
        <time>2017-01-06T05:26:40Z</time>
      </trkpt>
      <trkpt lat="45.11785" lon="7.04186">
        <ele>886.69</ele>
        <time>2017-01-06T05:26:41Z</time>
      </trkpt>
      <trkpt lat="45.11775" lon="7.04235">
        <ele>875.12</ele>
        <time>2017-01-06T05:26:43Z</time>
      </trkpt>
      <trkpt lat="45.11755" lon="7.04284">
        <ele>872.45</ele>
        <time>2017-01-06T05:26:45Z</time>
      </trkpt>
      <trkpt lat="45.11732" lon="7.04329">
        <ele>873.95</ele>
        <time>2017-01-06T05:26:47Z</time>
      </trkpt>
      <trkpt lat="45.11733" lon="7.04347">
        <ele>869.86</ele>
        <time>2017-01-06T05:26:48Z</time>
      </trkpt>
      <trkpt lat="45.11749" lon="7.04369">
        <ele>854.86</ele>
        <time>2017-01-06T05:26:49Z</time>
      </trkpt>
      <trkpt lat="45.11748" lon="7.04385">
        <ele>853.8</ele>
        <time>2017-01-06T05:26:50Z</time>
      </trkpt>
      <trkpt lat="45.11736" lon="7.04478">
        <ele>855.78</ele>
        <time>2017-01-06T05:26:53Z</time>
      </trkpt>
      <trkpt lat="45.11738" lon="7.04511">
        <ele>856.53</ele>
        <time>2017-01-06T05:26:55Z</time>
      </trkpt>
      <trkpt lat="45.1175" lon="7.0453">
        <ele>851.88</ele>
        <time>2017-01-06T05:26:56Z</time>
      </trkpt>
      <trkpt lat="45.11794" lon="7.0455">
        <ele>841.86</ele>
        <time>2017-01-06T05:26:58Z</time>
      </trkpt>
      <trkpt lat="45.11832" lon="7.04572">
        <ele>837.32</ele>
        <time>2017-01-06T05:27:01Z</time>
      </trkpt>
      <trkpt lat="45.11869" lon="7.0455">
        <ele>824.84</ele>
        <time>2017-01-06T05:27:03Z</time>
      </trkpt>
      <trkpt lat="45.11884" lon="7.04554">
        <ele>823.42</ele>
        <time>2017-01-06T05:27:04Z</time>
      </trkpt>
      <trkpt lat="45.11903" lon="7.04581">
        <ele>825.66</ele>
        <time>2017-01-06T05:27:05Z</time>
      </trkpt>
      <trkpt lat="45.1196" lon="7.0464">
        <ele>812.36</ele>
        <time>2017-01-06T05:27:09Z</time>
      </trkpt>
      <trkpt lat="45.11981" lon="7.04661">
        <ele>806.53</ele>
        <time>2017-01-06T05:27:10Z</time>
      </trkpt>
      <trkpt lat="45.11986" lon="7.04677">
        <ele>807.68</ele>
        <time>2017-01-06T05:27:11Z</time>
      </trkpt>
      <trkpt lat="45.11996" lon="7.04668">
        <ele>798.93</ele>
        <time>2017-01-06T05:27:13Z</time>
      </trkpt>
      <trkpt lat="45.11988" lon="7.04641">
        <ele>796.63</ele>
        <time>2017-01-06T05:27:14Z</time>
      </trkpt>
      <trkpt lat="45.11955" lon="7.04597">
        <ele>801.97</ele>
        <time>2017-01-06T05:27:16Z</time>
      </trkpt>
      <trkpt lat="45.11946" lon="7.04567">
        <ele>797.76</ele>
        <time>2017-01-06T05:27:18Z</time>
      </trkpt>
      <trkpt lat="45.11923" lon="7.04527">
        <ele>798.91</ele>
        <time>2017-01-06T05:27:20Z</time>
      </trkpt>
      <trkpt lat="45.11916" lon="7.04493">
        <ele>793.79</ele>
        <time>2017-01-06T05:27:21Z</time>
      </trkpt>
      <trkpt lat="45.11926" lon="7.04506">
        <ele>791.28</ele>
        <time>2017-01-06T05:27:22Z</time>
      </trkpt>
      <trkpt lat="45.11935" lon="7.04526">
        <ele>791.31</ele>
        <time>2017-01-06T05:27:23Z</time>
      </trkpt>
      <trkpt lat="45.11963" lon="7.04549">
        <ele>781.84</ele>
        <time>2017-01-06T05:27:25Z</time>
      </trkpt>
      <trkpt lat="45.11977" lon="7.04582">
        <ele>783.82</ele>
        <time>2017-01-06T05:27:26Z</time>
      </trkpt>
      <trkpt lat="45.11987" lon="7.04597">
        <ele>782.92</ele>
        <time>2017-01-06T05:27:27Z</time>
      </trkpt>
      <trkpt lat="45.12016" lon="7.04608">
        <ele>772.08</ele>
        <time>2017-01-06T05:27:29Z</time>
      </trkpt>
      <trkpt lat="45.12033" lon="7.04618">
        <ele>767.78</ele>
        <time>2017-01-06T05:27:30Z</time>
      </trkpt>
      <trkpt lat="45.12047" lon="7.04643">
        <ele>767.14</ele>
        <time>2017-01-06T05:27:31Z</time>
      </trkpt>
      <trkpt lat="45.12062" lon="7.04685">
        <ele>768.6</ele>
        <time>2017-01-06T05:27:33Z</time>
      </trkpt>
      <trkpt lat="45.12073" lon="7.04691">
        <ele>764.97</ele>
        <time>2017-01-06T05:27:33Z</time>
      </trkpt>
      <trkpt lat="45.12101" lon="7.04737">
        <ele>761.48</ele>
        <time>2017-01-06T05:27:36Z</time>
      </trkpt>
      <trkpt lat="45.12138" lon="7.04766">
        <ele>745.26</ele>
        <time>2017-01-06T05:27:38Z</time>
      </trkpt>
      <trkpt lat="45.12155" lon="7.04809">
        <ele>739.45</ele>
        <time>2017-01-06T05:27:40Z</time>
      </trkpt>
      <trkpt lat="45.12136" lon="7.04844">
        <ele>749.3</ele>
        <time>2017-01-06T05:27:41Z</time>
      </trkpt>
      <trkpt lat="45.12128" lon="7.04939">
        <ele>741.27</ele>
        <time>2017-01-06T05:27:45Z</time>
      </trkpt>
      <trkpt lat="45.12118" lon="7.04983">
        <ele>735.65</ele>
        <time>2017-01-06T05:27:47Z</time>
      </trkpt>
      <trkpt lat="45.12101" lon="7.05017">
        <ele>733.19</ele>
        <time>2017-01-06T05:27:49Z</time>
      </trkpt>
      <trkpt lat="45.12039" lon="7.05069">
        <ele>741.74</ele>
        <time>2017-01-06T05:27:53Z</time>
      </trkpt>
      <trkpt lat="45.12033" lon="7.05096">
        <ele>735.84</ele>
        <time>2017-01-06T05:27:54Z</time>
      </trkpt>
      <trkpt lat="45.12034" lon="7.05118">
        <ele>733.9</ele>
        <time>2017-01-06T05:27:54Z</time>
      </trkpt>
      <trkpt lat="45.12046" lon="7.05131">
        <ele>731.78</ele>
        <time>2017-01-06T05:27:55Z</time>
      </trkpt>
      <trkpt lat="45.12076" lon="7.0514">
        <ele>727.14</ele>
        <time>2017-01-06T05:27:57Z</time>
      </trkpt>
      <trkpt lat="45.12094" lon="7.05164">
        <ele>726.24</ele>
        <time>2017-01-06T05:27:58Z</time>
      </trkpt>
      <trkpt lat="45.12098" lon="7.0519">
        <ele>726.28</ele>
        <time>2017-01-06T05:27:59Z</time>
      </trkpt>
      <trkpt lat="45.12083" lon="7.05334">
        <ele>725.04</ele>
        <time>2017-01-06T05:28:05Z</time>
      </trkpt>
      <trkpt lat="45.12074" lon="7.05364">
        <ele>724.67</ele>
        <time>2017-01-06T05:28:06Z</time>
      </trkpt>
      <trkpt lat="45.12026" lon="7.05466">
        <ele>720.9</ele>
        <time>2017-01-06T05:28:11Z</time>
      </trkpt>
      <trkpt lat="45.12025" lon="7.05524">
        <ele>718.25</ele>
        <time>2017-01-06T05:28:13Z</time>
      </trkpt>
      <trkpt lat="45.12039" lon="7.05569">
        <ele>715.87</ele>
        <time>2017-01-06T05:28:15Z</time>
      </trkpt>
      <trkpt lat="45.12055" lon="7.05585">
        <ele>714.2</ele>
        <time>2017-01-06T05:28:16Z</time>
      </trkpt>
      <trkpt lat="45.12075" lon="7.05592">
        <ele>709.99</ele>
        <time>2017-01-06T05:28:17Z</time>
      </trkpt>
      <trkpt lat="45.12084" lon="7.05603">
        <ele>707.79</ele>
        <time>2017-01-06T05:28:18Z</time>
      </trkpt>
      <trkpt lat="45.12123" lon="7.05713">
        <ele>699.96</ele>
        <time>2017-01-06T05:28:23Z</time>
      </trkpt>
      <trkpt lat="45.12128" lon="7.0579">
        <ele>701</ele>
        <time>2017-01-06T05:28:26Z</time>
      </trkpt>
      <trkpt lat="45.12133" lon="7.05837">
        <ele>697.65</ele>
        <time>2017-01-06T05:28:28Z</time>
      </trkpt>
      <trkpt lat="45.12096" lon="7.06003">
        <ele>693.52</ele>
        <time>2017-01-06T05:28:34Z</time>
      </trkpt>
      <trkpt lat="45.12094" lon="7.0602">
        <ele>692.11</ele>
        <time>2017-01-06T05:28:35Z</time>
      </trkpt>
      <trkpt lat="45.12079" lon="7.06046">
        <ele>693.41</ele>
        <time>2017-01-06T05:28:36Z</time>
      </trkpt>
      <trkpt lat="45.1205" lon="7.06063">
        <ele>698.18</ele>
        <time>2017-01-06T05:28:38Z</time>
      </trkpt>
      <trkpt lat="45.1203" lon="7.06084">
        <ele>700.39</ele>
        <time>2017-01-06T05:28:39Z</time>
      </trkpt>
      <trkpt lat="45.12013" lon="7.0609">
        <ele>702.65</ele>
        <time>2017-01-06T05:28:40Z</time>
      </trkpt>
      <trkpt lat="45.11968" lon="7.06088">
        <ele>708.14</ele>
        <time>2017-01-06T05:28:43Z</time>
      </trkpt>
      <trkpt lat="45.11936" lon="7.0607">
        <ele>711.57</ele>
        <time>2017-01-06T05:28:45Z</time>
      </trkpt>
      <trkpt lat="45.11919" lon="7.06064">
        <ele>713.22</ele>
        <time>2017-01-06T05:28:46Z</time>
      </trkpt>
      <trkpt lat="45.11888" lon="7.06105">
        <ele>714.21</ele>
        <time>2017-01-06T05:28:48Z</time>
      </trkpt>
      <trkpt lat="45.11882" lon="7.06129">
        <ele>716.62</ele>
        <time>2017-01-06T05:28:49Z</time>
      </trkpt>
      <trkpt lat="45.11922" lon="7.06149">
        <ele>711.91</ele>
        <time>2017-01-06T05:28:51Z</time>
      </trkpt>
      <trkpt lat="45.11932" lon="7.0616">
        <ele>711.24</ele>
        <time>2017-01-06T05:28:52Z</time>
      </trkpt>
      <trkpt lat="45.11954" lon="7.06243">
        <ele>710.06</ele>
        <time>2017-01-06T05:28:56Z</time>
      </trkpt>
      <trkpt lat="45.1195" lon="7.06304">
        <ele>710.22</ele>
        <time>2017-01-06T05:28:58Z</time>
      </trkpt>
      <trkpt lat="45.11958" lon="7.06383">
        <ele>706.8</ele>
        <time>2017-01-06T05:29:01Z</time>
      </trkpt>
      <trkpt lat="45.11953" lon="7.06484">
        <ele>705.19</ele>
        <time>2017-01-06T05:29:05Z</time>
      </trkpt>
      <trkpt lat="45.11984" lon="7.06518">
        <ele>701.8</ele>
        <time>2017-01-06T05:29:07Z</time>
      </trkpt>
      <trkpt lat="45.11946" lon="7.06496">
        <ele>706.6</ele>
        <time>2017-01-06T05:29:09Z</time>
      </trkpt>
      <trkpt lat="45.12099" lon="7.067">
        <ele>682.83</ele>
        <time>2017-01-06T05:29:21Z</time>
      </trkpt>
      <trkpt lat="45.12148" lon="7.06953">
        <ele>670.54</ele>
        <time>2017-01-06T05:29:31Z</time>
      </trkpt>
      <trkpt lat="45.12414" lon="7.06653">
        <ele>643.85</ele>
        <time>2017-01-06T05:29:50Z</time>
      </trkpt>
      <trkpt lat="45.12401" lon="7.06189">
        <ele>596.91</ele>
        <time>2017-01-06T05:30:08Z</time>
      </trkpt>
      <trkpt lat="45.12747" lon="7.06191">
        <ele>547.43</ele>
        <time>2017-01-06T05:30:27Z</time>
      </trkpt>
      <trkpt lat="45.13038" lon="7.06539">
        <ele>505.28</ele>
        <time>2017-01-06T05:30:47Z</time>
      </trkpt>
      <trkpt lat="45.13185" lon="7.06513">
        <ele>489.76</ele>
        <time>2017-01-06T05:30:56Z</time>
      </trkpt>
      <trkpt lat="45.13439" lon="7.0599">
        <ele>488.3</ele>
        <time>2017-01-06T05:31:20Z</time>
      </trkpt>
      <trkpt lat="45.1369" lon="7.06095">
        <ele>489.5</ele>
        <time>2017-01-06T05:31:34Z</time>
      </trkpt>
      <trkpt lat="45.1364" lon="7.0664">
        <ele>483.1</ele>
        <time>2017-01-06T05:31:56Z</time>
      </trkpt>
      <trkpt lat="45.13778" lon="7.07483">
        <ele>475.6</ele>
        <time>2017-01-06T05:32:29Z</time>
      </trkpt>
      <trkpt lat="45.13799" lon="7.07551">
        <ele>476</ele>
        <time>2017-01-06T07:00:00Z</time>
      </trkpt>
      <trkpt lat="45.13797" lon="7.07577">
        <ele>477</ele>
        <time>2017-01-06T07:00:09Z</time>
      </trkpt>
      <trkpt lat="45.13794" lon="7.0774">
        <ele>475</ele>
        <time>2017-01-06T07:00:55Z</time>
      </trkpt>
      <trkpt lat="45.13795" lon="7.07788">
        <ele>476</ele>
        <time>2017-01-06T07:01:09Z</time>
      </trkpt>
      <trkpt lat="45.13819" lon="7.07984">
        <ele>470</ele>
        <time>2017-01-06T07:02:05Z</time>
      </trkpt>
      <trkpt lat="45.13858" lon="7.08265">
        <ele>472</ele>
        <time>2017-01-06T07:03:26Z</time>
      </trkpt>
      <trkpt lat="45.13866" lon="7.08333">
        <ele>472</ele>
        <time>2017-01-06T07:03:45Z</time>
      </trkpt>
      <trkpt lat="45.13868" lon="7.08385">
        <ele>470</ele>
        <time>2017-01-06T07:04:00Z</time>
      </trkpt>
      <trkpt lat="45.13867" lon="7.08447">
        <ele>470</ele>
        <time>2017-01-06T07:04:17Z</time>
      </trkpt>
      <trkpt lat="45.13655" lon="7.11351">
        <ele>461</ele>
        <time>2017-01-06T07:18:02Z</time>
      </trkpt>
      <trkpt lat="45.136" lon="7.12057">
        <ele>455</ele>
        <time>2017-01-06T07:21:22Z</time>
      </trkpt>
      <trkpt lat="45.13602" lon="7.1209">
        <ele>454</ele>
        <time>2017-01-06T07:21:32Z</time>
      </trkpt>
      <trkpt lat="45.13612" lon="7.12126">
        <ele>453</ele>
        <time>2017-01-06T07:21:43Z</time>
      </trkpt>
      <trkpt lat="45.13619" lon="7.12142">
        <ele>453</ele>
        <time>2017-01-06T07:21:48Z</time>
      </trkpt>
      <trkpt lat="45.13629" lon="7.12162">
        <ele>453</ele>
        <time>2017-01-06T07:21:55Z</time>
      </trkpt>
      <trkpt lat="45.13644" lon="7.12185">
        <ele>453</ele>
        <time>2017-01-06T07:22:04Z</time>
      </trkpt>
      <trkpt lat="45.13706" lon="7.12264">
        <ele>453</ele>
        <time>2017-01-06T07:22:37Z</time>
      </trkpt>
      <trkpt lat="45.1374" lon="7.12315">
        <ele>452</ele>
        <time>2017-01-06T07:22:57Z</time>
      </trkpt>
      <trkpt lat="45.13752" lon="7.12336">
        <ele>451</ele>
        <time>2017-01-06T07:23:05Z</time>
      </trkpt>
      <trkpt lat="45.13765" lon="7.12368">
        <ele>449</ele>
        <time>2017-01-06T07:23:15Z</time>
      </trkpt>
      <trkpt lat="45.1377" lon="7.12385">
        <ele>449</ele>
        <time>2017-01-06T07:23:20Z</time>
      </trkpt>
      <trkpt lat="45.13775" lon="7.12425">
        <ele>447</ele>
        <time>2017-01-06T07:23:32Z</time>
      </trkpt>
      <trkpt lat="45.13813" lon="7.12933">
        <ele>446</ele>
        <time>2017-01-06T07:25:56Z</time>
      </trkpt>
      <trkpt lat="45.13815" lon="7.1298">
        <ele>445</ele>
        <time>2017-01-06T07:26:09Z</time>
      </trkpt>
      <trkpt lat="45.13815" lon="7.13166">
        <ele>442</ele>
        <time>2017-01-06T07:27:02Z</time>
      </trkpt>
      <trkpt lat="45.13802" lon="7.1323">
        <ele>444</ele>
        <time>2017-01-06T07:27:21Z</time>
      </trkpt>
      <trkpt lat="45.13801" lon="7.13246">
        <ele>444</ele>
        <time>2017-01-06T07:27:25Z</time>
      </trkpt>
      <trkpt lat="45.1384" lon="7.13393">
        <ele>443</ele>
        <time>2017-01-06T07:28:10Z</time>
      </trkpt>
      <trkpt lat="45.13829" lon="7.13429">
        <ele>443</ele>
        <time>2017-01-06T07:28:21Z</time>
      </trkpt>
      <trkpt lat="45.13819" lon="7.13439">
        <ele>443</ele>
        <time>2017-01-06T07:28:26Z</time>
      </trkpt>
      <trkpt lat="45.13803" lon="7.1345">
        <ele>443</ele>
        <time>2017-01-06T07:28:33Z</time>
      </trkpt>
      <trkpt lat="45.13783" lon="7.13457">
        <ele>443</ele>
        <time>2017-01-06T07:28:41Z</time>
      </trkpt>
      <trkpt lat="45.13799" lon="7.13639">
        <ele>441</ele>
        <time>2017-01-06T07:29:33Z</time>
      </trkpt>
      <trkpt lat="45.13802" lon="7.1368">
        <ele>441</ele>
        <time>2017-01-06T07:29:44Z</time>
      </trkpt>
      <trkpt lat="45.13803" lon="7.13732">
        <ele>441</ele>
        <time>2017-01-06T07:29:59Z</time>
      </trkpt>
      <trkpt lat="45.13813" lon="7.13873">
        <ele>440</ele>
        <time>2017-01-06T07:30:39Z</time>
      </trkpt>
      <trkpt lat="45.13823" lon="7.13881">
        <ele>440</ele>
        <time>2017-01-06T07:30:44Z</time>
      </trkpt>
      <trkpt lat="45.13849" lon="7.13885">
        <ele>441</ele>
        <time>2017-01-06T07:30:54Z</time>
      </trkpt>
      <trkpt lat="45.1385" lon="7.1395">
        <ele>441</ele>
        <time>2017-01-06T07:31:13Z</time>
      </trkpt>
      <trkpt lat="45.13887" lon="7.14331">
        <ele>444</ele>
        <time>2017-01-06T07:33:01Z</time>
      </trkpt>
      <trkpt lat="45.13919" lon="7.14527">
        <ele>440</ele>
        <time>2017-01-06T07:33:58Z</time>
      </trkpt>
      <trkpt lat="45.13921" lon="7.14551">
        <ele>440</ele>
        <time>2017-01-06T07:34:05Z</time>
      </trkpt>
      <trkpt lat="45.13869" lon="7.15036">
        <ele>436</ele>
        <time>2017-01-06T07:36:24Z</time>
      </trkpt>
      <trkpt lat="45.13851" lon="7.15197">
        <ele>434.3</ele>
      </trkpt>
      <trkpt lat="45.13838" lon="7.15302">
        <ele>433.5</ele>
      </trkpt>
      <trkpt lat="45.13821" lon="7.15452">
        <ele>433.4</ele>
      </trkpt>
      <trkpt lat="45.13763" lon="7.15963">
        <ele>430.5</ele>
      </trkpt>
      <trkpt lat="45.13754" lon="7.16023">
        <ele>431</ele>
      </trkpt>
      <trkpt lat="45.13737" lon="7.16171">
        <ele>432.6</ele>
      </trkpt>
      <trkpt lat="45.1372" lon="7.16328">
        <ele>434.2</ele>
      </trkpt>
      <trkpt lat="45.13712" lon="7.16409">
        <ele>434.9</ele>
      </trkpt>
      <trkpt lat="45.13709" lon="7.16425">
        <ele>435.3</ele>
      </trkpt>
      <trkpt lat="45.13703" lon="7.16474">
        <ele>435.5</ele>
      </trkpt>
      <trkpt lat="45.13666" lon="7.16791">
        <ele>434.1</ele>
      </trkpt>
      <trkpt lat="45.13651" lon="7.16931">
        <ele>433.4</ele>
      </trkpt>
      <trkpt lat="45.13643" lon="7.16995">
        <ele>433.3</ele>
      </trkpt>
      <trkpt lat="45.1363" lon="7.17115">
        <ele>432.1</ele>
      </trkpt>
      <trkpt lat="45.13602" lon="7.17364">
        <ele>428.8</ele>
      </trkpt>
      <trkpt lat="45.13596" lon="7.17418">
        <ele>427.8</ele>
      </trkpt>
      <trkpt lat="45.13593" lon="7.17435">
        <ele>428.1</ele>
      </trkpt>
      <trkpt lat="45.13585" lon="7.17454">
        <ele>428.2</ele>
      </trkpt>
      <trkpt lat="45.13576" lon="7.17465">
        <ele>426.2</ele>
      </trkpt>
      <trkpt lat="45.13566" lon="7.17474">
        <ele>426.1</ele>
      </trkpt>
      <trkpt lat="45.13553" lon="7.17485">
        <ele>425.8</ele>
      </trkpt>
      <trkpt lat="45.13548" lon="7.175">
        <ele>425.7</ele>
      </trkpt>
      <trkpt lat="45.13553" lon="7.17517">
        <ele>425</ele>
      </trkpt>
      <trkpt lat="45.13557" lon="7.1754">
        <ele>425</ele>
      </trkpt>
      <trkpt lat="45.13561" lon="7.17566">
        <ele>425.5</ele>
      </trkpt>
      <trkpt lat="45.13563" lon="7.17592">
        <ele>425.5</ele>
      </trkpt>
      <trkpt lat="45.13559" lon="7.17736">
        <ele>423.2</ele>
      </trkpt>
      <trkpt lat="45.13553" lon="7.17794">
        <ele>422.2</ele>
      </trkpt>
      <trkpt lat="45.13542" lon="7.17879">
        <ele>422.3</ele>
      </trkpt>
      <trkpt lat="45.13527" lon="7.17959">
        <ele>423</ele>
      </trkpt>
      <trkpt lat="45.1351" lon="7.18032">
        <ele>423</ele>
      </trkpt>
      <trkpt lat="45.13503" lon="7.18064">
        <ele>422.4</ele>
      </trkpt>
      <trkpt lat="45.1346" lon="7.18248">
        <ele>419.8</ele>
      </trkpt>
      <trkpt lat="45.13452" lon="7.18289">
        <ele>420</ele>
      </trkpt>
      <trkpt lat="45.13392" lon="7.18562">
        <ele>417.7</ele>
      </trkpt>
      <trkpt lat="45.13377" lon="7.18635">
        <ele>417.2</ele>
      </trkpt>
      <trkpt lat="45.13366" lon="7.18682">
        <ele>416.3</ele>
      </trkpt>
      <trkpt lat="45.13349" lon="7.18753">
        <ele>415.7</ele>
      </trkpt>
      <trkpt lat="45.1334" lon="7.18798">
        <ele>415.1</ele>
      </trkpt>
      <trkpt lat="45.13261" lon="7.19154">
        <ele>413.6</ele>
      </trkpt>
      <trkpt lat="45.13227" lon="7.19313">
        <ele>413.3</ele>
      </trkpt>
      <trkpt lat="45.13194" lon="7.19456">
        <ele>410.7</ele>
      </trkpt>
      <trkpt lat="45.13143" lon="7.1968">
        <ele>411.7</ele>
      </trkpt>
      <trkpt lat="45.13074" lon="7.19989">
        <ele>410.6</ele>
      </trkpt>
      <trkpt lat="45.13063" lon="7.20036">
        <ele>411</ele>
      </trkpt>
      <trkpt lat="45.13018" lon="7.2024">
        <ele>410.6</ele>
      </trkpt>
      <trkpt lat="45.12982" lon="7.20401">
        <ele>409.6</ele>
      </trkpt>
      <trkpt lat="45.12896" lon="7.20783">
        <ele>406.2</ele>
      </trkpt>
      <trkpt lat="45.12877" lon="7.20873">
        <ele>406.8</ele>
      </trkpt>
      <trkpt lat="45.12851" lon="7.20991">
        <ele>406.4</ele>
      </trkpt>
      <trkpt lat="45.12827" lon="7.21092">
        <ele>406.7</ele>
      </trkpt>
      <trkpt lat="45.12774" lon="7.21336">
        <ele>404.5</ele>
      </trkpt>
      <trkpt lat="45.1272" lon="7.21574">
        <ele>404</ele>
      </trkpt>
      <trkpt lat="45.12707" lon="7.21634">
        <ele>403.4</ele>
      </trkpt>
      <trkpt lat="45.12667" lon="7.2181">
        <ele>400.5</ele>
      </trkpt>
      <trkpt lat="45.12626" lon="7.21991">
        <ele>399.8</ele>
      </trkpt>
      <trkpt lat="45.12615" lon="7.22036">
        <ele>399.4</ele>
      </trkpt>
      <trkpt lat="45.12594" lon="7.22143">
        <ele>399.6</ele>
      </trkpt>
      <trkpt lat="45.12572" lon="7.22235">
        <ele>401.7</ele>
      </trkpt>
      <trkpt lat="45.12495" lon="7.22585">
        <ele>399</ele>
      </trkpt>
      <trkpt lat="45.12471" lon="7.22692">
        <ele>398.4</ele>
      </trkpt>
      <trkpt lat="45.12458" lon="7.22716">
        <ele>398.2</ele>
      </trkpt>
      <trkpt lat="45.12448" lon="7.22729">
        <ele>398.2</ele>
      </trkpt>
      <trkpt lat="45.12452" lon="7.22763">
        <ele>398</ele>
      </trkpt>
      <trkpt lat="45.1245" lon="7.2278">
        <ele>398</ele>
      </trkpt>
      <trkpt lat="45.12379" lon="7.23104">
        <ele>397.8</ele>
      </trkpt>
      <trkpt lat="45.12355" lon="7.23212">
        <ele>396.9</ele>
      </trkpt>
      <trkpt lat="45.12276" lon="7.23568">
        <ele>398.4</ele>
      </trkpt>
      <trkpt lat="45.12255" lon="7.23639">
        <ele>398.9</ele>
      </trkpt>
      <trkpt lat="45.12229" lon="7.2372">
        <ele>398.2</ele>
      </trkpt>
      <trkpt lat="45.12214" lon="7.23757">
        <ele>398.6</ele>
      </trkpt>
      <trkpt lat="45.12186" lon="7.23823">
        <ele>397.9</ele>
      </trkpt>
      <trkpt lat="45.12158" lon="7.23879">
        <ele>396.5</ele>
      </trkpt>
      <trkpt lat="45.12152" lon="7.2389">
        <ele>396.6</ele>
      </trkpt>
      <trkpt lat="45.12143" lon="7.23907">
        <ele>396.7</ele>
      </trkpt>
      <trkpt lat="45.12128" lon="7.23928">
        <ele>396.6</ele>
      </trkpt>
      <trkpt lat="45.12117" lon="7.23941">
        <ele>396.4</ele>
      </trkpt>
      <trkpt lat="45.12089" lon="7.23969">
        <ele>396.5</ele>
      </trkpt>
      <trkpt lat="45.12076" lon="7.23978">
        <ele>396.2</ele>
      </trkpt>
      <trkpt lat="45.12042" lon="7.23995">
        <ele>396</ele>
      </trkpt>
      <trkpt lat="45.12021" lon="7.24001">
        <ele>395.9</ele>
      </trkpt>
      <trkpt lat="45.11988" lon="7.24006">
        <ele>395.4</ele>
      </trkpt>
      <trkpt lat="45.11978" lon="7.23995">
        <ele>395.2</ele>
      </trkpt>
      <trkpt lat="45.11967" lon="7.23997">
        <ele>395</ele>
      </trkpt>
      <trkpt lat="45.11954" lon="7.24016">
        <ele>394.6</ele>
      </trkpt>
      <trkpt lat="45.11956" lon="7.24033">
        <ele>394.5</ele>
      </trkpt>
      <trkpt lat="45.11961" lon="7.24055">
        <ele>394.4</ele>
      </trkpt>
      <trkpt lat="45.11926" lon="7.24117">
        <ele>393.6</ele>
      </trkpt>
      <trkpt lat="45.11905" lon="7.24158">
        <ele>393.3</ele>
      </trkpt>
      <trkpt lat="45.11896" lon="7.24179">
        <ele>393.2</ele>
      </trkpt>
      <trkpt lat="45.11888" lon="7.24205">
        <ele>393.2</ele>
      </trkpt>
      <trkpt lat="45.11881" lon="7.24229">
        <ele>393.1</ele>
      </trkpt>
      <trkpt lat="45.11877" lon="7.24248">
        <ele>393.1</ele>
      </trkpt>
      <trkpt lat="45.1187" lon="7.2431">
        <ele>392.7</ele>
      </trkpt>
      <trkpt lat="45.11873" lon="7.24353">
        <ele>392.3</ele>
      </trkpt>
      <trkpt lat="45.11903" lon="7.24536">
        <ele>393.2</ele>
      </trkpt>
      <trkpt lat="45.11948" lon="7.24814">
        <ele>391.2</ele>
      </trkpt>
      <trkpt lat="45.11954" lon="7.24847">
        <ele>390.6</ele>
      </trkpt>
      <trkpt lat="45.11958" lon="7.2489">
        <ele>390.4</ele>
      </trkpt>
      <trkpt lat="45.11958" lon="7.24926">
        <ele>390.2</ele>
      </trkpt>
      <trkpt lat="45.11956" lon="7.24954">
        <ele>390.2</ele>
      </trkpt>
      <trkpt lat="45.11954" lon="7.24973">
        <ele>390.3</ele>
      </trkpt>
      <trkpt lat="45.11943" lon="7.25014">
        <ele>391.1</ele>
      </trkpt>
      <trkpt lat="45.11924" lon="7.25066">
        <ele>391.2</ele>
      </trkpt>
      <trkpt lat="45.11913" lon="7.25083">
        <ele>390.9</ele>
      </trkpt>
      <trkpt lat="45.1181" lon="7.25216">
        <ele>389.7</ele>
      </trkpt>
      <trkpt lat="45.11746" lon="7.25299">
        <ele>388.7</ele>
      </trkpt>
      <trkpt lat="45.11525" lon="7.25585">
        <ele>393.9</ele>
      </trkpt>
      <trkpt lat="45.11506" lon="7.25611">
        <ele>394.1</ele>
      </trkpt>
      <trkpt lat="45.11486" lon="7.25641">
        <ele>389.4</ele>
      </trkpt>
      <trkpt lat="45.11467" lon="7.25677">
        <ele>392.5</ele>
      </trkpt>
      <trkpt lat="45.11452" lon="7.25711">
        <ele>392.8</ele>
      </trkpt>
      <trkpt lat="45.11446" lon="7.25729">
        <ele>392.6</ele>
      </trkpt>
      <trkpt lat="45.11343" lon="7.26055">
        <ele>401.5</ele>
      </trkpt>
      <trkpt lat="45.11323" lon="7.26121">
        <ele>391.6</ele>
      </trkpt>
      <trkpt lat="45.11319" lon="7.26149">
        <ele>392.3</ele>
      </trkpt>
      <trkpt lat="45.11317" lon="7.26173">
        <ele>391.7</ele>
      </trkpt>
      <trkpt lat="45.11313" lon="7.26205">
        <ele>389.1</ele>
      </trkpt>
      <trkpt lat="45.11313" lon="7.26282">
        <ele>386.4</ele>
      </trkpt>
      <trkpt lat="45.11315" lon="7.26398">
        <ele>381.5</ele>
      </trkpt>
      <trkpt lat="45.11319" lon="7.2645">
        <ele>380.6</ele>
      </trkpt>
      <trkpt lat="45.11323" lon="7.2648">
        <ele>381.3</ele>
      </trkpt>
      <trkpt lat="45.1133" lon="7.26503">
        <ele>382</ele>
      </trkpt>
      <trkpt lat="45.11334" lon="7.26522">
        <ele>381.5</ele>
      </trkpt>
      <trkpt lat="45.11353" lon="7.26583">
        <ele>382</ele>
      </trkpt>
      <trkpt lat="45.11413" lon="7.26761">
        <ele>382.1</ele>
      </trkpt>
      <trkpt lat="45.11407" lon="7.26771">
        <ele>382.1</ele>
      </trkpt>
      <trkpt lat="45.11546" lon="7.27145">
        <ele>381.9</ele>
      </trkpt>
      <trkpt lat="45.11553" lon="7.27168">
        <ele>382.2</ele>
      </trkpt>
      <trkpt lat="45.11602" lon="7.27308">
        <ele>382.3</ele>
      </trkpt>
      <trkpt lat="45.11613" lon="7.2734">
        <ele>380.3</ele>
      </trkpt>
      <trkpt lat="45.11624" lon="7.27374">
        <ele>380</ele>
      </trkpt>
      <trkpt lat="45.1163" lon="7.27402">
        <ele>379.7</ele>
      </trkpt>
      <trkpt lat="45.11639" lon="7.27452">
        <ele>379.3</ele>
      </trkpt>
      <trkpt lat="45.11645" lon="7.27516">
        <ele>380.8</ele>
      </trkpt>
      <trkpt lat="45.11645" lon="7.27574">
        <ele>381.6</ele>
      </trkpt>
      <trkpt lat="45.11637" lon="7.27765">
        <ele>377.9</ele>
      </trkpt>
      <trkpt lat="45.1163" lon="7.27917">
        <ele>378.8</ele>
      </trkpt>
      <trkpt lat="45.11628" lon="7.27969">
        <ele>378.8</ele>
      </trkpt>
      <trkpt lat="45.11615" lon="7.28211">
        <ele>378.6</ele>
      </trkpt>
      <trkpt lat="45.11591" lon="7.28705">
        <ele>377.2</ele>
      </trkpt>
      <trkpt lat="45.11589" lon="7.28741">
        <ele>376.5</ele>
      </trkpt>
      <trkpt lat="45.11579" lon="7.28973">
        <ele>376.9</ele>
      </trkpt>
      <trkpt lat="45.11576" lon="7.2905">
        <ele>376.4</ele>
      </trkpt>
      <trkpt lat="45.11576" lon="7.2914">
        <ele>375.9</ele>
      </trkpt>
      <trkpt lat="45.11583" lon="7.29329">
        <ele>378.7</ele>
      </trkpt>
      <trkpt lat="45.11585" lon="7.29441">
        <ele>383.7</ele>
      </trkpt>
      <trkpt lat="45.11583" lon="7.29492">
        <ele>383.1</ele>
      </trkpt>
      <trkpt lat="45.11583" lon="7.29516">
        <ele>383.7</ele>
      </trkpt>
      <trkpt lat="45.11576" lon="7.29587">
        <ele>387.1</ele>
      </trkpt>
      <trkpt lat="45.11568" lon="7.29655">
        <ele>385.8</ele>
      </trkpt>
      <trkpt lat="45.11546" lon="7.2978">
        <ele>386.5</ele>
      </trkpt>
      <trkpt lat="45.11534" lon="7.2987">
        <ele>388.4</ele>
      </trkpt>
      <trkpt lat="45.11516" lon="7.29969">
        <ele>390.3</ele>
      </trkpt>
      <trkpt lat="45.11516" lon="7.29999">
        <ele>390.3</ele>
      </trkpt>
      <trkpt lat="45.11514" lon="7.3002">
        <ele>390.1</ele>
      </trkpt>
      <trkpt lat="45.1151" lon="7.30033">
        <ele>389.9</ele>
      </trkpt>
      <trkpt lat="45.11512" lon="7.30048">
        <ele>389.5</ele>
      </trkpt>
      <trkpt lat="45.11529" lon="7.30057">
        <ele>389.7</ele>
      </trkpt>
      <trkpt lat="45.11542" lon="7.30048">
        <ele>390.2</ele>
      </trkpt>
      <trkpt lat="45.11607" lon="7.30048">
        <ele>393.5</ele>
      </trkpt>
      <trkpt lat="45.1163" lon="7.30048">
        <ele>394.1</ele>
      </trkpt>
      <trkpt lat="45.1198" lon="7.30059">
        <ele>431.7</ele>
      </trkpt>
      <trkpt lat="45.12003" lon="7.30065">
        <ele>438.1</ele>
      </trkpt>
      <trkpt lat="45.12016" lon="7.30072">
        <ele>438.6</ele>
      </trkpt>
      <trkpt lat="45.12034" lon="7.30091">
        <ele>440.2</ele>
      </trkpt>
      <trkpt lat="45.12038" lon="7.30108">
        <ele>440.7</ele>
      </trkpt>
      <trkpt lat="45.12049" lon="7.30127">
        <ele>441.4</ele>
      </trkpt>
      <trkpt lat="45.12053" lon="7.30168">
        <ele>441.5</ele>
      </trkpt>
      <trkpt lat="45.12061" lon="7.30183">
        <ele>441.9</ele>
      </trkpt>
      <trkpt lat="45.12074" lon="7.30194">
        <ele>442.2</ele>
      </trkpt>
      <trkpt lat="45.12119" lon="7.30205">
        <ele>453.3</ele>
      </trkpt>
      <trkpt lat="45.12134" lon="7.30218">
        <ele>455.4</ele>
      </trkpt>
      <trkpt lat="45.12141" lon="7.30235">
        <ele>457.5</ele>
      </trkpt>
      <trkpt lat="45.12143" lon="7.3026">
        <ele>462.1</ele>
      </trkpt>
      <trkpt lat="45.12141" lon="7.30275">
        <ele>461.8</ele>
      </trkpt>
      <trkpt lat="45.12124" lon="7.30308">
        <ele>460.1</ele>
      </trkpt>
      <trkpt lat="45.12109" lon="7.30342">
        <ele>458.7</ele>
      </trkpt>
      <trkpt lat="45.12102" lon="7.30378">
        <ele>459.4</ele>
      </trkpt>
      <trkpt lat="45.12102" lon="7.304">
        <ele>457.7</ele>
      </trkpt>
      <trkpt lat="45.12117" lon="7.30439">
        <ele>461.3</ele>
      </trkpt>
      <trkpt lat="45.12121" lon="7.3046">
        <ele>462.2</ele>
      </trkpt>
      <trkpt lat="45.12121" lon="7.30488">
        <ele>461.6</ele>
      </trkpt>
      <trkpt lat="45.12115" lon="7.30514">
        <ele>458.5</ele>
      </trkpt>
      <trkpt lat="45.12113" lon="7.30537">
        <ele>458.7</ele>
      </trkpt>
      <trkpt lat="45.12117" lon="7.30552">
        <ele>459.3</ele>
      </trkpt>
      <trkpt lat="45.12137" lon="7.30559">
        <ele>462.7</ele>
      </trkpt>
      <trkpt lat="45.12158" lon="7.30546">
        <ele>465.5</ele>
      </trkpt>
      <trkpt lat="45.12175" lon="7.30554">
        <ele>479.7</ele>
      </trkpt>
      <trkpt lat="45.12182" lon="7.30591">
        <ele>476.3</ele>
      </trkpt>
      <trkpt lat="45.12179" lon="7.30629">
        <ele>476.7</ele>
      </trkpt>
      <trkpt lat="45.12179" lon="7.30657">
        <ele>474</ele>
      </trkpt>
      <trkpt lat="45.1219" lon="7.30679">
        <ele>477.8</ele>
      </trkpt>
      <trkpt lat="45.12229" lon="7.30687">
        <ele>483.8</ele>
      </trkpt>
      <trkpt lat="45.12246" lon="7.30694">
        <ele>485.1</ele>
      </trkpt>
      <trkpt lat="45.12255" lon="7.3072">
        <ele>499.4</ele>
      </trkpt>
      <trkpt lat="45.12248" lon="7.30732">
        <ele>490.3</ele>
      </trkpt>
      <trkpt lat="45.12233" lon="7.30748">
        <ele>490</ele>
      </trkpt>
      <trkpt lat="45.12203" lon="7.30765">
        <ele>493</ele>
      </trkpt>
      <trkpt lat="45.12192" lon="7.30773">
        <ele>491.9</ele>
      </trkpt>
      <trkpt lat="45.12175" lon="7.30795">
        <ele>493.2</ele>
      </trkpt>
      <trkpt lat="45.12145" lon="7.30838">
        <ele>487.7</ele>
      </trkpt>
      <trkpt lat="45.12119" lon="7.30893">
        <ele>484.8</ele>
      </trkpt>
      <trkpt lat="45.12132" lon="7.30906">
        <ele>488</ele>
      </trkpt>
      <trkpt lat="45.12145" lon="7.30878">
        <ele>488.2</ele>
      </trkpt>
      <trkpt lat="45.12152" lon="7.30866">
        <ele>488.2</ele>
      </trkpt>
      <trkpt lat="45.12164" lon="7.30857">
        <ele>489.3</ele>
      </trkpt>
      <trkpt lat="45.12188" lon="7.30846">
        <ele>506.3</ele>
      </trkpt>
      <trkpt lat="45.12207" lon="7.30831">
        <ele>501</ele>
      </trkpt>
      <trkpt lat="45.12259" lon="7.30782">
        <ele>516.5</ele>
      </trkpt>
      <trkpt lat="45.12297" lon="7.30748">
        <ele>505.5</ele>
      </trkpt>
      <trkpt lat="45.12332" lon="7.3075">
        <ele>517.9</ele>
      </trkpt>
      <trkpt lat="45.12351" lon="7.30743">
        <ele>523.9</ele>
      </trkpt>
      <trkpt lat="45.12383" lon="7.30717">
        <ele>529.6</ele>
      </trkpt>
      <trkpt lat="45.12394" lon="7.30694">
        <ele>529.8</ele>
      </trkpt>
      <trkpt lat="45.12396" lon="7.30672">
        <ele>530.5</ele>
      </trkpt>
      <trkpt lat="45.12385" lon="7.30634">
        <ele>522.1</ele>
      </trkpt>
      <trkpt lat="45.12388" lon="7.30595">
        <ele>522.9</ele>
      </trkpt>
      <trkpt lat="45.12388" lon="7.30563">
        <ele>524.2</ele>
      </trkpt>
      <trkpt lat="45.12409" lon="7.30507">
        <ele>533.3</ele>
      </trkpt>
      <trkpt lat="45.12407" lon="7.30469">
        <ele>535.7</ele>
      </trkpt>
      <trkpt lat="45.12407" lon="7.30449">
        <ele>538</ele>
      </trkpt>
      <trkpt lat="45.12411" lon="7.30426">
        <ele>545.8</ele>
      </trkpt>
      <trkpt lat="45.124" lon="7.30408">
        <ele>549</ele>
      </trkpt>
      <trkpt lat="45.12388" lon="7.304">
        <ele>546.7</ele>
      </trkpt>
      <trkpt lat="45.12368" lon="7.30393">
        <ele>543.4</ele>
      </trkpt>
      <trkpt lat="45.12349" lon="7.30376">
        <ele>542.6</ele>
      </trkpt>
      <trkpt lat="45.12338" lon="7.30342">
        <ele>543.9</ele>
      </trkpt>
      <trkpt lat="45.12325" lon="7.30301">
        <ele>532.9</ele>
      </trkpt>
      <trkpt lat="45.12323" lon="7.30284">
        <ele>532.3</ele>
      </trkpt>
      <trkpt lat="45.12334" lon="7.30263">
        <ele>545</ele>
      </trkpt>
      <trkpt lat="45.1242" lon="7.30198">
        <ele>558.6</ele>
      </trkpt>
      <trkpt lat="45.12469" lon="7.30153">
        <ele>550.2</ele>
      </trkpt>
      <trkpt lat="45.12495" lon="7.30132">
        <ele>549.9</ele>
      </trkpt>
      <trkpt lat="45.12516" lon="7.30121">
        <ele>564.9</ele>
      </trkpt>
      <trkpt lat="45.12529" lon="7.30095">
        <ele>562.7</ele>
      </trkpt>
      <trkpt lat="45.12538" lon="7.30087">
        <ele>564.5</ele>
      </trkpt>
      <trkpt lat="45.12583" lon="7.30069">
        <ele>563.3</ele>
      </trkpt>
      <trkpt lat="45.12594" lon="7.30059">
        <ele>576.4</ele>
      </trkpt>
      <trkpt lat="45.12604" lon="7.30044">
        <ele>576.6</ele>
      </trkpt>
      <trkpt lat="45.12617" lon="7.29994">
        <ele>562.3</ele>
      </trkpt>
      <trkpt lat="45.1263" lon="7.29996">
        <ele>566.1</ele>
      </trkpt>
      <trkpt lat="45.12624" lon="7.30029">
        <ele>578.5</ele>
      </trkpt>
      <trkpt lat="45.12611" lon="7.3005">
        <ele>578.2</ele>
      </trkpt>
      <trkpt lat="45.12602" lon="7.30099">
        <ele>588.1</ele>
      </trkpt>
      <trkpt lat="45.12585" lon="7.30115">
        <ele>589.2</ele>
      </trkpt>
      <trkpt lat="45.12574" lon="7.30125">
        <ele>573.7</ele>
      </trkpt>
      <trkpt lat="45.12559" lon="7.30151">
        <ele>576.3</ele>
      </trkpt>
      <trkpt lat="45.12553" lon="7.30164">
        <ele>575.9</ele>
      </trkpt>
      <trkpt lat="45.12523" lon="7.302">
        <ele>583.5</ele>
      </trkpt>
      <trkpt lat="45.12512" lon="7.30222">
        <ele>584.5</ele>
      </trkpt>
      <trkpt lat="45.1251" lon="7.30239">
        <ele>584.3</ele>
      </trkpt>
      <trkpt lat="45.12516" lon="7.30269">
        <ele>591.7</ele>
      </trkpt>
      <trkpt lat="45.12529" lon="7.30368">
        <ele>598.4</ele>
      </trkpt>
      <trkpt lat="45.1254" lon="7.30402">
        <ele>600.5</ele>
      </trkpt>
      <trkpt lat="45.12559" lon="7.30426">
        <ele>606.3</ele>
      </trkpt>
      <trkpt lat="45.12566" lon="7.30445">
        <ele>606</ele>
      </trkpt>
      <trkpt lat="45.12566" lon="7.30505">
        <ele>606.9</ele>
      </trkpt>
      <trkpt lat="45.12576" lon="7.30554">
        <ele>601.6</ele>
      </trkpt>
      <trkpt lat="45.12581" lon="7.30602">
        <ele>599.4</ele>
      </trkpt>
      <trkpt lat="45.12591" lon="7.30619">
        <ele>619</ele>
      </trkpt>
      <trkpt lat="45.12598" lon="7.30608">
        <ele>619.6</ele>
      </trkpt>
      <trkpt lat="45.12589" lon="7.30548">
        <ele>626.4</ele>
      </trkpt>
      <trkpt lat="45.12587" lon="7.30507">
        <ele>624.3</ele>
      </trkpt>
      <trkpt lat="45.12591" lon="7.30473">
        <ele>630.2</ele>
      </trkpt>
      <trkpt lat="45.1263" lon="7.30351">
        <ele>630.4</ele>
      </trkpt>
      <trkpt lat="45.12649" lon="7.30318">
        <ele>629.8</ele>
      </trkpt>
      <trkpt lat="45.12656" lon="7.30297">
        <ele>628.1</ele>
      </trkpt>
      <trkpt lat="45.12649" lon="7.3026">
        <ele>628</ele>
      </trkpt>
      <trkpt lat="45.12654" lon="7.30243">
        <ele>624.8</ele>
      </trkpt>
      <trkpt lat="45.12677" lon="7.30224">
        <ele>633.6</ele>
      </trkpt>
      <trkpt lat="45.12688" lon="7.30213">
        <ele>633.3</ele>
      </trkpt>
      <trkpt lat="45.12703" lon="7.30196">
        <ele>633.2</ele>
      </trkpt>
      <trkpt lat="45.12716" lon="7.30187">
        <ele>634.1</ele>
      </trkpt>
      <trkpt lat="45.12774" lon="7.3016">
        <ele>642.3</ele>
      </trkpt>
      <trkpt lat="45.12785" lon="7.30166">
        <ele>644.4</ele>
      </trkpt>
      <trkpt lat="45.12785" lon="7.30181">
        <ele>652</ele>
      </trkpt>
      <trkpt lat="45.12757" lon="7.3026">
        <ele>656.1</ele>
      </trkpt>
      <trkpt lat="45.12727" lon="7.30278">
        <ele>646.9</ele>
      </trkpt>
      <trkpt lat="45.12722" lon="7.30295">
        <ele>647.5</ele>
      </trkpt>
      <trkpt lat="45.12718" lon="7.30393">
        <ele>658.6</ele>
      </trkpt>
      <trkpt lat="45.12694" lon="7.30447">
        <ele>661.2</ele>
      </trkpt>
      <trkpt lat="45.12705" lon="7.30501">
        <ele>663.9</ele>
      </trkpt>
      <trkpt lat="45.12746" lon="7.30529">
        <ele>669.1</ele>
      </trkpt>
      <trkpt lat="45.12757" lon="7.30567">
        <ele>684.1</ele>
      </trkpt>
      <trkpt lat="45.12765" lon="7.30619">
        <ele>692.9</ele>
      </trkpt>
      <trkpt lat="45.12759" lon="7.30655">
        <ele>689.9</ele>
      </trkpt>
      <trkpt lat="45.12746" lon="7.30681">
        <ele>677.1</ele>
      </trkpt>
      <trkpt lat="45.12729" lon="7.307">
        <ele>672.7</ele>
      </trkpt>
      <trkpt lat="45.12724" lon="7.3073">
        <ele>675.3</ele>
      </trkpt>
      <trkpt lat="45.12716" lon="7.3075">
        <ele>673.8</ele>
      </trkpt>
      <trkpt lat="45.12714" lon="7.30775">
        <ele>681.4</ele>
      </trkpt>
      <trkpt lat="45.12724" lon="7.30786">
        <ele>684.8</ele>
      </trkpt>
      <trkpt lat="45.12731" lon="7.30739">
        <ele>679.7</ele>
      </trkpt>
      <trkpt lat="45.12739" lon="7.30709">
        <ele>675.3</ele>
      </trkpt>
      <trkpt lat="45.12763" lon="7.30681">
        <ele>698.3</ele>
      </trkpt>
      <trkpt lat="45.12782" lon="7.30666">
        <ele>697.3</ele>
      </trkpt>
      <trkpt lat="45.12789" lon="7.30634">
        <ele>698.6</ele>
      </trkpt>
      <trkpt lat="45.12806" lon="7.30608">
        <ele>701</ele>
      </trkpt>
      <trkpt lat="45.12812" lon="7.30593">
        <ele>702.7</ele>
      </trkpt>
      <trkpt lat="45.12815" lon="7.30554">
        <ele>696.5</ele>
      </trkpt>
      <trkpt lat="45.12845" lon="7.30514">
        <ele>712.8</ele>
      </trkpt>
      <trkpt lat="45.12864" lon="7.30451">
        <ele>713.2</ele>
      </trkpt>
      <trkpt lat="45.12862" lon="7.30426">
        <ele>711.4</ele>
      </trkpt>
      <trkpt lat="45.12868" lon="7.30404">
        <ele>706.8</ele>
      </trkpt>
      <trkpt lat="45.1293" lon="7.30325">
        <ele>718.6</ele>
      </trkpt>
      <trkpt lat="45.12941" lon="7.30314">
        <ele>721.6</ele>
      </trkpt>
      <trkpt lat="45.12956" lon="7.30303">
        <ele>724.4</ele>
      </trkpt>
      <trkpt lat="45.12965" lon="7.30295">
        <ele>725.7</ele>
      </trkpt>
      <trkpt lat="45.12973" lon="7.30269">
        <ele>727.3</ele>
      </trkpt>
      <trkpt lat="45.12982" lon="7.30233">
        <ele>728.6</ele>
      </trkpt>
      <trkpt lat="45.12984" lon="7.30181">
        <ele>732.6</ele>
      </trkpt>
      <trkpt lat="45.12973" lon="7.30142">
        <ele>728.6</ele>
      </trkpt>
      <trkpt lat="45.12956" lon="7.3011">
        <ele>723.1</ele>
      </trkpt>
      <trkpt lat="45.12952" lon="7.30072">
        <ele>716.5</ele>
      </trkpt>
      <trkpt lat="45.1296" lon="7.30046">
        <ele>717.7</ele>
      </trkpt>
      <trkpt lat="45.12988" lon="7.30012">
        <ele>723.3</ele>
      </trkpt>
      <trkpt lat="45.13018" lon="7.29988">
        <ele>732.8</ele>
      </trkpt>
      <trkpt lat="45.13048" lon="7.2996">
        <ele>736.6</ele>
      </trkpt>
      <trkpt lat="45.13068" lon="7.29936">
        <ele>738.1</ele>
      </trkpt>
      <trkpt lat="45.13074" lon="7.29915">
        <ele>731.8</ele>
      </trkpt>
      <trkpt lat="45.13139" lon="7.29855">
        <ele>746.5</ele>
      </trkpt>
      <trkpt lat="45.13154" lon="7.29846">
        <ele>748.3</ele>
      </trkpt>
      <trkpt lat="45.13169" lon="7.29842">
        <ele>759.3</ele>
      </trkpt>
      <trkpt lat="45.13186" lon="7.29833">
        <ele>766.6</ele>
      </trkpt>
      <trkpt lat="45.13197" lon="7.29821">
        <ele>754.6</ele>
      </trkpt>
      <trkpt lat="45.13216" lon="7.29803">
        <ele>757.1</ele>
      </trkpt>
      <trkpt lat="45.13246" lon="7.29758">
        <ele>757.4</ele>
      </trkpt>
      <trkpt lat="45.13261" lon="7.29743">
        <ele>762.1</ele>
      </trkpt>
      <trkpt lat="45.13278" lon="7.29707">
        <ele>763.6</ele>
      </trkpt>
      <trkpt lat="45.13321" lon="7.2967">
        <ele>770</ele>
      </trkpt>
      <trkpt lat="45.13334" lon="7.29642">
        <ele>773.2</ele>
      </trkpt>
      <trkpt lat="45.13368" lon="7.2964">
        <ele>775.5</ele>
      </trkpt>
      <trkpt lat="45.13387" lon="7.29625">
        <ele>776.3</ele>
      </trkpt>
      <trkpt lat="45.13411" lon="7.29621">
        <ele>777.6</ele>
      </trkpt>
      <trkpt lat="45.13473" lon="7.29632">
        <ele>791.5</ele>
      </trkpt>
      <trkpt lat="45.13484" lon="7.29617">
        <ele>791.1</ele>
      </trkpt>
      <trkpt lat="45.13486" lon="7.29602">
        <ele>790.8</ele>
      </trkpt>
      <trkpt lat="45.13482" lon="7.29587">
        <ele>790.4</ele>
      </trkpt>
      <trkpt lat="45.1348" lon="7.29559">
        <ele>783.9</ele>
      </trkpt>
      <trkpt lat="45.13488" lon="7.29527">
        <ele>783.3</ele>
      </trkpt>
      <trkpt lat="45.13497" lon="7.29507">
        <ele>785.3</ele>
      </trkpt>
      <trkpt lat="45.13506" lon="7.29497">
        <ele>787.6</ele>
      </trkpt>
      <trkpt lat="45.13514" lon="7.29482">
        <ele>788.3</ele>
      </trkpt>
      <trkpt lat="45.13527" lon="7.29469">
        <ele>788.9</ele>
      </trkpt>
      <trkpt lat="45.13542" lon="7.29434">
        <ele>789.1</ele>
      </trkpt>
      <trkpt lat="45.13572" lon="7.2937">
        <ele>789.7</ele>
      </trkpt>
      <trkpt lat="45.13604" lon="7.29331">
        <ele>802.6</ele>
      </trkpt>
      <trkpt lat="45.13632" lon="7.29273">
        <ele>807.2</ele>
      </trkpt>
      <trkpt lat="45.13641" lon="7.29245">
        <ele>807.3</ele>
      </trkpt>
      <trkpt lat="45.13658" lon="7.2913">
        <ele>807.4</ele>
      </trkpt>
      <trkpt lat="45.1366" lon="7.29074">
        <ele>811.8</ele>
      </trkpt>
      <trkpt lat="45.13666" lon="7.29003">
        <ele>815.2</ele>
      </trkpt>
      <trkpt lat="45.13666" lon="7.28975">
        <ele>804</ele>
      </trkpt>
      <trkpt lat="45.13673" lon="7.28964">
        <ele>819.4</ele>
      </trkpt>
      <trkpt lat="45.13684" lon="7.28967">
        <ele>820.6</ele>
      </trkpt>
      <trkpt lat="45.13681" lon="7.29016">
        <ele>826.5</ele>
      </trkpt>
      <trkpt lat="45.13684" lon="7.2908">
        <ele>826.4</ele>
      </trkpt>
      <trkpt lat="45.13699" lon="7.29226">
        <ele>837.4</ele>
      </trkpt>
      <trkpt lat="45.13707" lon="7.29327">
        <ele>839.4</ele>
      </trkpt>
      <trkpt lat="45.13705" lon="7.29359">
        <ele>838.5</ele>
      </trkpt>
      <trkpt lat="45.13709" lon="7.29372">
        <ele>839.5</ele>
      </trkpt>
      <trkpt lat="45.13724" lon="7.29366">
        <ele>842.6</ele>
      </trkpt>
      <trkpt lat="45.13722" lon="7.29308">
        <ele>843.6</ele>
      </trkpt>
      <trkpt lat="45.13731" lon="7.29183">
        <ele>849</ele>
      </trkpt>
      <trkpt lat="45.13733" lon="7.29153">
        <ele>848.7</ele>
      </trkpt>
      <trkpt lat="45.13742" lon="7.2913">
        <ele>845.9</ele>
      </trkpt>
      <trkpt lat="45.13757" lon="7.29097">
        <ele>866.2</ele>
      </trkpt>
      <trkpt lat="45.1378" lon="7.29065">
        <ele>863.9</ele>
      </trkpt>
      <trkpt lat="45.1381" lon="7.29035">
        <ele>867</ele>
      </trkpt>
      <trkpt lat="45.13905" lon="7.2896">
        <ele>877.2</ele>
      </trkpt>
      <trkpt lat="45.13922" lon="7.28936">
        <ele>893.4</ele>
      </trkpt>
      <trkpt lat="45.1396" lon="7.28849">
        <ele>887.8</ele>
      </trkpt>
      <trkpt lat="45.13978" lon="7.28799">
        <ele>883</ele>
      </trkpt>
      <trkpt lat="45.13997" lon="7.28752">
        <ele>888.5</ele>
      </trkpt>
      <trkpt lat="45.14051" lon="7.28685">
        <ele>903.5</ele>
      </trkpt>
      <trkpt lat="45.14066" lon="7.28653">
        <ele>906</ele>
      </trkpt>
      <trkpt lat="45.14076" lon="7.28625">
        <ele>905.1</ele>
      </trkpt>
      <trkpt lat="45.14078" lon="7.28608">
        <ele>905.3</ele>
      </trkpt>
      <trkpt lat="45.14076" lon="7.28593">
        <ele>906.2</ele>
      </trkpt>
      <trkpt lat="45.14066" lon="7.2858">
        <ele>916.7</ele>
      </trkpt>
      <trkpt lat="45.14053" lon="7.2858">
        <ele>918.6</ele>
      </trkpt>
      <trkpt lat="45.1401" lon="7.28593">
        <ele>901.7</ele>
      </trkpt>
      <trkpt lat="45.13963" lon="7.28582">
        <ele>906.6</ele>
      </trkpt>
      <trkpt lat="45.13889" lon="7.28533">
        <ele>894.9</ele>
        <time>2017-01-07T07:11:13Z</time>
      </trkpt>
      <trkpt lat="45.13991" lon="7.28278">
        <ele>973.78</ele>
        <time>2017-01-07T07:11:24Z</time>
      </trkpt>
      <trkpt lat="45.14203" lon="7.28185">
        <ele>1015.44</ele>
        <time>2017-01-07T07:11:36Z</time>
      </trkpt>
      <trkpt lat="45.14396" lon="7.27876">
        <ele>1091.05</ele>
        <time>2017-01-07T07:11:52Z</time>
      </trkpt>
      <trkpt lat="45.14464" lon="7.27604">
        <ele>1158.94</ele>
        <time>2017-01-07T07:12:03Z</time>
      </trkpt>
      <trkpt lat="45.14589" lon="7.28102">
        <ele>1168.51</ele>
        <time>2017-01-07T07:12:24Z</time>
      </trkpt>
      <trkpt lat="45.14645" lon="7.28113">
        <ele>1178.79</ele>
        <time>2017-01-07T07:12:27Z</time>
      </trkpt>
      <trkpt lat="45.14716" lon="7.2799">
        <ele>1207.74</ele>
        <time>2017-01-07T07:12:33Z</time>
      </trkpt>
      <trkpt lat="45.1466" lon="7.27997">
        <ele>1204.62</ele>
        <time>2017-01-07T07:12:36Z</time>
      </trkpt>
      <trkpt lat="45.14645" lon="7.27873">
        <ele>1212.46</ele>
        <time>2017-01-07T07:12:41Z</time>
      </trkpt>
      <trkpt lat="45.14606" lon="7.27786">
        <ele>1209.51</ele>
        <time>2017-01-07T07:12:45Z</time>
      </trkpt>
      <trkpt lat="45.1467" lon="7.27834">
        <ele>1219.21</ele>
        <time>2017-01-07T07:12:49Z</time>
      </trkpt>
      <trkpt lat="45.14675" lon="7.27765">
        <ele>1227.03</ele>
        <time>2017-01-07T07:12:52Z</time>
      </trkpt>
      <trkpt lat="45.14717" lon="7.27729">
        <ele>1236.36</ele>
        <time>2017-01-07T07:12:54Z</time>
      </trkpt>
      <trkpt lat="45.14815" lon="7.27728">
        <ele>1250.46</ele>
        <time>2017-01-07T07:13:00Z</time>
      </trkpt>
      <trkpt lat="45.14869" lon="7.27766">
        <ele>1253.46</ele>
        <time>2017-01-07T07:13:03Z</time>
      </trkpt>
      <trkpt lat="45.14914" lon="7.27717">
        <ele>1268.35</ele>
        <time>2017-01-07T07:13:06Z</time>
      </trkpt>
      <trkpt lat="45.14969" lon="7.27702">
        <ele>1278.3</ele>
        <time>2017-01-07T07:13:09Z</time>
      </trkpt>
      <trkpt lat="45.14849" lon="7.27547">
        <ele>1297.3</ele>
        <time>2017-01-07T07:13:18Z</time>
      </trkpt>
      <trkpt lat="45.14799" lon="7.27535">
        <ele>1297.85</ele>
        <time>2017-01-07T07:13:21Z</time>
      </trkpt>
      <trkpt lat="45.14846" lon="7.27497">
        <ele>1311.99</ele>
        <time>2017-01-07T07:13:24Z</time>
      </trkpt>
      <trkpt lat="45.14814" lon="7.27436">
        <ele>1323.23</ele>
        <time>2017-01-07T07:13:27Z</time>
      </trkpt>
      <trkpt lat="45.1477" lon="7.27401">
        <ele>1321.91</ele>
        <time>2017-01-07T07:13:29Z</time>
      </trkpt>
      <trkpt lat="45.14844" lon="7.27309">
        <ele>1324.99</ele>
        <time>2017-01-07T07:13:35Z</time>
      </trkpt>
      <trkpt lat="45.15122" lon="7.27263">
        <ele>1366.09</ele>
        <time>2017-01-07T07:13:50Z</time>
      </trkpt>
      <trkpt lat="45.15252" lon="7.27138">
        <ele>1373.12</ele>
        <time>2017-01-07T07:13:59Z</time>
      </trkpt>
      <trkpt lat="45.15268" lon="7.27056">
        <ele>1367.19</ele>
        <time>2017-01-07T07:14:02Z</time>
      </trkpt>
      <trkpt lat="45.155" lon="7.2676">
        <ele>1396.69</ele>
        <time>2017-01-07T07:14:19Z</time>
      </trkpt>
      <trkpt lat="45.15509" lon="7.26696">
        <ele>1397.47</ele>
        <time>2017-01-07T07:14:22Z</time>
      </trkpt>
      <trkpt lat="45.15494" lon="7.26567">
        <ele>1413.56</ele>
        <time>2017-01-07T07:14:27Z</time>
      </trkpt>
      <trkpt lat="45.15516" lon="7.26488">
        <ele>1426.5</ele>
        <time>2017-01-07T07:14:30Z</time>
      </trkpt>
      <trkpt lat="45.1549" lon="7.26338">
        <ele>1440.96</ele>
        <time>2017-01-07T07:14:36Z</time>
      </trkpt>
      <trkpt lat="45.15504" lon="7.26277">
        <ele>1442.35</ele>
        <time>2017-01-07T07:14:39Z</time>
      </trkpt>
      <trkpt lat="45.15606" lon="7.26253">
        <ele>1453.44</ele>
        <time>2017-01-07T07:14:44Z</time>
      </trkpt>
      <trkpt lat="45.15654" lon="7.26289">
        <ele>1466.43</ele>
        <time>2017-01-07T07:14:47Z</time>
      </trkpt>
      <trkpt lat="45.15702" lon="7.26295">
        <ele>1477.75</ele>
        <time>2017-01-07T07:14:50Z</time>
      </trkpt>
      <trkpt lat="45.15939" lon="7.26138">
        <ele>1497.26</ele>
        <time>2017-01-07T07:15:04Z</time>
      </trkpt>
      <trkpt lat="45.15781" lon="7.264">
        <ele>1519.34</ele>
        <time>2017-01-07T07:15:17Z</time>
      </trkpt>
      <trkpt lat="45.15828" lon="7.26601">
        <ele>1535.63</ele>
        <time>2017-01-07T07:15:26Z</time>
      </trkpt>
      <trkpt lat="45.15847" lon="7.26453">
        <ele>1546.61</ele>
        <time>2017-01-07T07:15:31Z</time>
      </trkpt>
      <trkpt lat="45.15892" lon="7.26412">
        <ele>1547.69</ele>
        <time>2017-01-07T07:15:34Z</time>
      </trkpt>
      <trkpt lat="45.1594" lon="7.26439">
        <ele>1560.19</ele>
        <time>2017-01-07T07:15:37Z</time>
      </trkpt>
      <trkpt lat="45.16009" lon="7.27413">
        <ele>1615.41</ele>
        <time>2017-01-07T07:16:15Z</time>
      </trkpt>
      <trkpt lat="45.16071" lon="7.27538">
        <ele>1637.63</ele>
        <time>2017-01-07T07:16:21Z</time>
      </trkpt>
      <trkpt lat="45.16169" lon="7.27526">
        <ele>1655.38</ele>
        <time>2017-01-07T07:16:26Z</time>
      </trkpt>
      <trkpt lat="45.16264" lon="7.27673">
        <ele>1668.57</ele>
        <time>2017-01-07T07:16:34Z</time>
      </trkpt>
      <trkpt lat="45.1628" lon="7.27604">
        <ele>1678.2</ele>
        <time>2017-01-07T07:16:37Z</time>
      </trkpt>
      <trkpt lat="45.16355" lon="7.27687">
        <ele>1691.42</ele>
        <time>2017-01-07T07:16:42Z</time>
      </trkpt>
      <trkpt lat="45.16407" lon="7.27542">
        <ele>1718.98</ele>
        <time>2017-01-07T07:16:48Z</time>
      </trkpt>
      <trkpt lat="45.16427" lon="7.27633">
        <ele>1721.17</ele>
        <time>2017-01-07T07:16:52Z</time>
      </trkpt>
      <trkpt lat="45.16459" lon="7.27434">
        <ele>1747.96</ele>
        <time>2017-01-07T07:17:00Z</time>
      </trkpt>
      <trkpt lat="45.16441" lon="7.27367">
        <ele>1752.89</ele>
        <time>2017-01-07T07:17:03Z</time>
      </trkpt>
      <trkpt lat="45.164" lon="7.27311">
        <ele>1759.64</ele>
        <time>2017-01-07T07:17:06Z</time>
      </trkpt>
      <trkpt lat="45.16356" lon="7.27297">
        <ele>1760.23</ele>
        <time>2017-01-07T07:17:08Z</time>
      </trkpt>
      <trkpt lat="45.1631" lon="7.27304">
        <ele>1753.34</ele>
        <time>2017-01-07T07:17:11Z</time>
      </trkpt>
      <trkpt lat="45.16303" lon="7.2724">
        <ele>1766.42</ele>
        <time>2017-01-07T07:17:13Z</time>
      </trkpt>
      <trkpt lat="45.16444" lon="7.27212">
        <ele>1800.4</ele>
        <time>2017-01-07T07:17:21Z</time>
      </trkpt>
      <trkpt lat="45.16497" lon="7.2723">
        <ele>1805.05</ele>
        <time>2017-01-07T07:17:24Z</time>
      </trkpt>
      <trkpt lat="45.16504" lon="7.27156">
        <ele>1807.79</ele>
        <time>2017-01-07T07:17:27Z</time>
      </trkpt>
      <trkpt lat="45.1647" lon="7.27109">
        <ele>1807.07</ele>
        <time>2017-01-07T07:17:30Z</time>
      </trkpt>
      <trkpt lat="45.16518" lon="7.27111">
        <ele>1811.3</ele>
        <time>2017-01-07T07:17:32Z</time>
      </trkpt>
      <trkpt lat="45.16557" lon="7.27158">
        <ele>1819.82</ele>
        <time>2017-01-07T07:17:35Z</time>
      </trkpt>
      <trkpt lat="45.16577" lon="7.27226">
        <ele>1831.17</ele>
        <time>2017-01-07T07:17:38Z</time>
      </trkpt>
      <trkpt lat="45.16688" lon="7.27381">
        <ele>1853.22</ele>
        <time>2017-01-07T07:17:47Z</time>
      </trkpt>
      <trkpt lat="45.16772" lon="7.27433">
        <ele>1868.67</ele>
        <time>2017-01-07T07:17:52Z</time>
      </trkpt>
      <trkpt lat="45.16835" lon="7.2744">
        <ele>1880.86</ele>
        <time>2017-01-07T07:17:55Z</time>
      </trkpt>
      <trkpt lat="45.16869" lon="7.27481">
        <ele>1890.8</ele>
        <time>2017-01-07T07:17:57Z</time>
      </trkpt>
      <trkpt lat="45.16881" lon="7.27569">
        <ele>1896.26</ele>
        <time>2017-01-07T07:18:01Z</time>
      </trkpt>
      <trkpt lat="45.1691" lon="7.27629">
        <ele>1905.5</ele>
        <time>2017-01-07T07:18:04Z</time>
      </trkpt>
      <trkpt lat="45.16955" lon="7.27675">
        <ele>1909.85</ele>
        <time>2017-01-07T07:18:07Z</time>
      </trkpt>
      <trkpt lat="45.17056" lon="7.27927">
        <ele>1924.56</ele>
        <time>2017-01-07T07:18:18Z</time>
      </trkpt>
      <trkpt lat="45.17057" lon="7.27996">
        <ele>1928.96</ele>
        <time>2017-01-07T07:18:21Z</time>
      </trkpt>
      <trkpt lat="45.17088" lon="7.27864">
        <ele>1934.89</ele>
        <time>2017-01-07T07:18:26Z</time>
      </trkpt>
      <trkpt lat="45.17087" lon="7.278">
        <ele>1945.31</ele>
        <time>2017-01-07T07:18:29Z</time>
      </trkpt>
      <trkpt lat="45.17306" lon="7.282">
        <ele>1991.04</ele>
        <time>2017-01-07T07:18:48Z</time>
      </trkpt>
      <trkpt lat="45.17273" lon="7.27806">
        <ele>2024.15</ele>
        <time>2017-01-07T07:19:03Z</time>
      </trkpt>
      <trkpt lat="45.17647" lon="7.28344">
        <ele>2051.35</ele>
        <time>2017-01-07T07:19:33Z</time>
      </trkpt>
      <trkpt lat="45.17962" lon="7.28392">
        <ele>2081.74</ele>
        <time>2017-01-07T07:19:50Z</time>
      </trkpt>
      <trkpt lat="45.18073" lon="7.28135">
        <ele>2096.17</ele>
        <time>2017-01-07T07:20:02Z</time>
      </trkpt>
      <trkpt lat="45.18116" lon="7.28109">
        <ele>2095.92</ele>
        <time>2017-01-07T07:20:04Z</time>
      </trkpt>
      <trkpt lat="45.1816" lon="7.28153">
        <ele>2078.99</ele>
        <time>2017-01-07T07:20:07Z</time>
      </trkpt>
      <trkpt lat="45.18284" lon="7.28092">
        <ele>2098.79</ele>
        <time>2017-01-07T07:20:14Z</time>
      </trkpt>
      <trkpt lat="45.18333" lon="7.28097">
        <ele>2094.57</ele>
        <time>2017-01-07T07:20:17Z</time>
      </trkpt>
      <trkpt lat="45.18364" lon="7.28173">
        <ele>2061.74</ele>
        <time>2017-01-07T07:20:20Z</time>
      </trkpt>
      <trkpt lat="45.18458" lon="7.28219">
        <ele>2056.4</ele>
        <time>2017-01-07T07:20:26Z</time>
      </trkpt>
      <trkpt lat="45.18534" lon="7.28364">
        <ele>2030.81</ele>
        <time>2017-01-07T07:20:33Z</time>
      </trkpt>
      <trkpt lat="45.18538" lon="7.28436">
        <ele>2021.51</ele>
        <time>2017-01-07T07:20:36Z</time>
      </trkpt>
      <trkpt lat="45.18493" lon="7.28647">
        <ele>2002.47</ele>
        <time>2017-01-07T07:20:44Z</time>
      </trkpt>
      <trkpt lat="45.18774" lon="7.28971">
        <ele>1977.43</ele>
        <time>2017-01-07T07:21:04Z</time>
      </trkpt>
      <trkpt lat="45.18788" lon="7.29033">
        <ele>1973.77</ele>
        <time>2017-01-07T07:21:06Z</time>
      </trkpt>
      <trkpt lat="45.18707" lon="7.29116">
        <ele>1999.69</ele>
        <time>2017-01-07T07:21:12Z</time>
      </trkpt>
      <trkpt lat="45.18687" lon="7.29177">
        <ele>1994.96</ele>
        <time>2017-01-07T07:21:15Z</time>
      </trkpt>
      <trkpt lat="45.18771" lon="7.2971">
        <ele>1949.94</ele>
        <time>2017-01-07T07:21:36Z</time>
      </trkpt>
      <trkpt lat="45.18748" lon="7.29772">
        <ele>1947.3</ele>
        <time>2017-01-07T07:21:38Z</time>
      </trkpt>
      <trkpt lat="45.18905" lon="7.29881">
        <ele>1930.08</ele>
        <time>2017-01-07T07:21:48Z</time>
      </trkpt>
      <trkpt lat="45.18916" lon="7.29954">
        <ele>1926.86</ele>
        <time>2017-01-07T07:21:51Z</time>
      </trkpt>
      <trkpt lat="45.18963" lon="7.29942">
        <ele>1916.32</ele>
        <time>2017-01-07T07:21:53Z</time>
      </trkpt>
      <trkpt lat="45.19033" lon="7.30242">
        <ele>1905.58</ele>
        <time>2017-01-07T07:22:06Z</time>
      </trkpt>
      <trkpt lat="45.18963" lon="7.30413">
        <ele>1901.8</ele>
        <time>2017-01-07T07:22:13Z</time>
      </trkpt>
      <trkpt lat="45.18949" lon="7.30474">
        <ele>1900.41</ele>
        <time>2017-01-07T07:22:16Z</time>
      </trkpt>
      <trkpt lat="45.18934" lon="7.30604">
        <ele>1906.77</ele>
        <time>2017-01-07T07:22:21Z</time>
      </trkpt>
      <trkpt lat="45.18891" lon="7.30691">
        <ele>1897.19</ele>
        <time>2017-01-07T07:22:25Z</time>
      </trkpt>
      <trkpt lat="45.18909" lon="7.30843">
        <ele>1901.36</ele>
        <time>2017-01-07T07:22:31Z</time>
      </trkpt>
      <trkpt lat="45.1895" lon="7.30897">
        <ele>1890.36</ele>
        <time>2017-01-07T07:22:34Z</time>
      </trkpt>
      <trkpt lat="45.18928" lon="7.30964">
        <ele>1890.12</ele>
        <time>2017-01-07T07:22:37Z</time>
      </trkpt>
      <trkpt lat="45.18839" lon="7.31051">
        <ele>1883.43</ele>
        <time>2017-01-07T07:22:43Z</time>
      </trkpt>
      <trkpt lat="45.18867" lon="7.31117">
        <ele>1878.58</ele>
        <time>2017-01-07T07:22:46Z</time>
      </trkpt>
      <trkpt lat="45.18922" lon="7.31145">
        <ele>1872.35</ele>
        <time>2017-01-07T07:22:49Z</time>
      </trkpt>
      <trkpt lat="45.19038" lon="7.31319">
        <ele>1848.64</ele>
        <time>2017-01-07T07:22:58Z</time>
      </trkpt>
      <trkpt lat="45.1914" lon="7.31096">
        <ele>1830.56</ele>
        <time>2017-01-07T07:23:09Z</time>
      </trkpt>
      <trkpt lat="45.19187" lon="7.31087">
        <ele>1823.48</ele>
        <time>2017-01-07T07:23:11Z</time>
      </trkpt>
      <trkpt lat="45.19399" lon="7.31239">
        <ele>1781.93</ele>
        <time>2017-01-07T07:23:24Z</time>
      </trkpt>
      <trkpt lat="45.19401" lon="7.31309">
        <ele>1783.09</ele>
        <time>2017-01-07T07:23:27Z</time>
      </trkpt>
      <trkpt lat="45.19295" lon="7.31553">
        <ele>1762.18</ele>
        <time>2017-01-07T07:23:38Z</time>
      </trkpt>
      <trkpt lat="45.19504" lon="7.31338">
        <ele>1713.52</ele>
        <time>2017-01-07T07:23:52Z</time>
      </trkpt>
      <trkpt lat="45.19486" lon="7.31465">
        <ele>1692.12</ele>
        <time>2017-01-07T07:23:57Z</time>
      </trkpt>
      <trkpt lat="45.19521" lon="7.31411">
        <ele>1689.08</ele>
        <time>2017-01-07T07:24:00Z</time>
      </trkpt>
      <trkpt lat="45.19774" lon="7.31336">
        <ele>1639.32</ele>
        <time>2017-01-07T07:24:14Z</time>
      </trkpt>
      <trkpt lat="45.19747" lon="7.31283">
        <ele>1639.78</ele>
        <time>2017-01-07T07:24:17Z</time>
      </trkpt>
      <trkpt lat="45.19704" lon="7.3125">
        <ele>1639.54</ele>
        <time>2017-01-07T07:24:19Z</time>
      </trkpt>
      <trkpt lat="45.19679" lon="7.31186">
        <ele>1625.75</ele>
        <time>2017-01-07T07:24:22Z</time>
      </trkpt>
      <trkpt lat="45.19776" lon="7.31203">
        <ele>1608.29</ele>
        <time>2017-01-07T07:24:28Z</time>
      </trkpt>
      <trkpt lat="45.19835" lon="7.31161">
        <ele>1588.24</ele>
        <time>2017-01-07T07:24:31Z</time>
      </trkpt>
      <trkpt lat="45.19743" lon="7.31084">
        <ele>1567.17</ele>
        <time>2017-01-07T07:24:37Z</time>
      </trkpt>
      <trkpt lat="45.1985" lon="7.31069">
        <ele>1548.43</ele>
        <time>2017-01-07T07:24:43Z</time>
      </trkpt>
      <trkpt lat="45.1991" lon="7.31009">
        <ele>1525.57</ele>
        <time>2017-01-07T07:24:47Z</time>
      </trkpt>
      <trkpt lat="45.19954" lon="7.31044">
        <ele>1521.72</ele>
        <time>2017-01-07T07:24:50Z</time>
      </trkpt>
      <trkpt lat="45.2013" lon="7.31275">
        <ele>1483.56</ele>
        <time>2017-01-07T07:25:03Z</time>
      </trkpt>
      <trkpt lat="45.20171" lon="7.31418">
        <ele>1468.73</ele>
        <time>2017-01-07T07:25:09Z</time>
      </trkpt>
      <trkpt lat="45.20156" lon="7.31483">
        <ele>1465.13</ele>
        <time>2017-01-07T07:25:11Z</time>
      </trkpt>
      <trkpt lat="45.20117" lon="7.3154">
        <ele>1462.47</ele>
        <time>2017-01-07T07:25:14Z</time>
      </trkpt>
      <trkpt lat="45.20165" lon="7.31528">
        <ele>1446.58</ele>
        <time>2017-01-07T07:25:17Z</time>
      </trkpt>
      <trkpt lat="45.20261" lon="7.31425">
        <ele>1419.02</ele>
        <time>2017-01-07T07:25:24Z</time>
      </trkpt>
      <trkpt lat="45.2021" lon="7.3095">
        <ele>1375.67</ele>
        <time>2017-01-07T07:25:42Z</time>
      </trkpt>
      <trkpt lat="45.20116" lon="7.30721">
        <ele>1366.36</ele>
        <time>2017-01-07T07:25:52Z</time>
      </trkpt>
      <trkpt lat="45.20145" lon="7.30666">
        <ele>1354.59</ele>
        <time>2017-01-07T07:25:55Z</time>
      </trkpt>
      <trkpt lat="45.20236" lon="7.3072">
        <ele>1335.43</ele>
        <time>2017-01-07T07:26:01Z</time>
      </trkpt>
      <trkpt lat="45.20243" lon="7.30654">
        <ele>1329.08</ele>
        <time>2017-01-07T07:26:03Z</time>
      </trkpt>
      <trkpt lat="45.20156" lon="7.30477">
        <ele>1319.79</ele>
        <time>2017-01-07T07:26:11Z</time>
      </trkpt>
      <trkpt lat="45.20199" lon="7.30453">
        <ele>1320.76</ele>
        <time>2017-01-07T07:26:14Z</time>
      </trkpt>
      <trkpt lat="45.20355" lon="7.30495">
        <ele>1294.05</ele>
        <time>2017-01-07T07:26:23Z</time>
      </trkpt>
      <trkpt lat="45.20374" lon="7.30432">
        <ele>1301.81</ele>
        <time>2017-01-07T07:26:25Z</time>
      </trkpt>
      <trkpt lat="45.20416" lon="7.30492">
        <ele>1287.08</ele>
        <time>2017-01-07T07:26:29Z</time>
      </trkpt>
      <trkpt lat="45.20518" lon="7.30548">
        <ele>1273.65</ele>
        <time>2017-01-07T07:26:35Z</time>
      </trkpt>
      <trkpt lat="45.20626" lon="7.30522">
        <ele>1264.17</ele>
        <time>2017-01-07T07:26:41Z</time>
      </trkpt>
      <trkpt lat="45.20666" lon="7.30476">
        <ele>1265.1</ele>
        <time>2017-01-07T07:26:43Z</time>
      </trkpt>
      <trkpt lat="45.20807" lon="7.30551">
        <ele>1246.29</ele>
        <time>2017-01-07T07:26:52Z</time>
      </trkpt>
      <trkpt lat="45.2078" lon="7.30641">
        <ele>1229.61</ele>
        <time>2017-01-07T07:26:55Z</time>
      </trkpt>
      <trkpt lat="45.20793" lon="7.30706">
        <ele>1221.25</ele>
        <time>2017-01-07T07:26:58Z</time>
      </trkpt>
      <trkpt lat="45.20896" lon="7.30724">
        <ele>1221.01</ele>
        <time>2017-01-07T07:27:04Z</time>
      </trkpt>
      <trkpt lat="45.2097" lon="7.30918">
        <ele>1197.4</ele>
        <time>2017-01-07T07:27:12Z</time>
      </trkpt>
      <trkpt lat="45.21075" lon="7.30996">
        <ele>1186.41</ele>
        <time>2017-01-07T07:27:19Z</time>
      </trkpt>
      <trkpt lat="45.2118" lon="7.30931">
        <ele>1177.73</ele>
        <time>2017-01-07T07:27:25Z</time>
      </trkpt>
      <trkpt lat="45.2123" lon="7.30947">
        <ele>1174.3</ele>
        <time>2017-01-07T07:27:28Z</time>
      </trkpt>
      <trkpt lat="45.21261" lon="7.30977">
        <ele>1171.52</ele>
        <time>2017-01-07T07:27:30Z</time>
      </trkpt>
      <trkpt lat="45.21282" lon="7.31036">
        <ele>1170.2</ele>
        <time>2017-01-07T07:27:32Z</time>
      </trkpt>
      <trkpt lat="45.21292" lon="7.31129">
        <ele>1170.24</ele>
        <time>2017-01-07T07:27:36Z</time>
      </trkpt>
      <trkpt lat="45.21266" lon="7.3119">
        <ele>1165.33</ele>
        <time>2017-01-07T07:27:39Z</time>
      </trkpt>
      <trkpt lat="45.2131" lon="7.31209">
        <ele>1166.64</ele>
        <time>2017-01-07T07:27:41Z</time>
      </trkpt>
      <trkpt lat="45.21425" lon="7.31173">
        <ele>1167.63</ele>
        <time>2017-01-07T07:27:48Z</time>
      </trkpt>
      <trkpt lat="45.21476" lon="7.31213">
        <ele>1158.25</ele>
        <time>2017-01-07T07:27:51Z</time>
      </trkpt>
      <trkpt lat="45.21529" lon="7.31296">
        <ele>1148.94</ele>
        <time>2017-01-07T07:27:55Z</time>
      </trkpt>
      <trkpt lat="45.21637" lon="7.31293">
        <ele>1147.33</ele>
        <time>2017-01-07T07:28:01Z</time>
      </trkpt>
      <trkpt lat="45.21709" lon="7.31346">
        <ele>1120.88</ele>
        <time>2017-01-07T07:28:06Z</time>
      </trkpt>
      <trkpt lat="45.21785" lon="7.31263">
        <ele>1100.91</ele>
        <time>2017-01-07T07:28:11Z</time>
      </trkpt>
      <trkpt lat="45.21802" lon="7.31079">
        <ele>1077.07</ele>
        <time>2017-01-07T07:28:18Z</time>
      </trkpt>
      <trkpt lat="45.21891" lon="7.31305">
        <ele>1030.87</ele>
        <time>2017-01-07T07:28:28Z</time>
      </trkpt>
      <trkpt lat="45.21876" lon="7.31452">
        <ele>1034.68</ele>
        <time>2017-01-07T07:28:34Z</time>
      </trkpt>
      <trkpt lat="45.21846" lon="7.31504">
        <ele>1023.86</ele>
        <time>2017-01-07T07:28:37Z</time>
      </trkpt>
      <trkpt lat="45.21931" lon="7.31531">
        <ele>1009.07</ele>
        <time>2017-01-07T07:28:41Z</time>
      </trkpt>
      <trkpt lat="45.21955" lon="7.31461">
        <ele>1011.07</ele>
        <time>2017-01-07T07:28:44Z</time>
      </trkpt>
      <trkpt lat="45.21956" lon="7.31169">
        <ele>993.07</ele>
        <time>2017-01-07T07:28:56Z</time>
      </trkpt>
      <trkpt lat="45.2205" lon="7.31007">
        <ele>944.13</ele>
        <time>2017-01-07T07:29:04Z</time>
      </trkpt>
      <trkpt lat="45.22054" lon="7.30868">
        <ele>948.4</ele>
        <time>2017-01-07T07:29:09Z</time>
      </trkpt>
      <trkpt lat="45.22081" lon="7.3081">
        <ele>946.3</ele>
        <time>2017-01-07T07:29:12Z</time>
      </trkpt>
      <trkpt lat="45.22182" lon="7.30785">
        <ele>900.66</ele>
        <time>2017-01-07T07:29:17Z</time>
      </trkpt>
      <trkpt lat="45.22204" lon="7.30851">
        <ele>891.76</ele>
        <time>2017-01-07T07:29:20Z</time>
      </trkpt>
      <trkpt lat="45.2223" lon="7.30784">
        <ele>886</ele>
        <time>2017-01-07T07:29:23Z</time>
      </trkpt>
      <trkpt lat="45.22278" lon="7.30799">
        <ele>875.19</ele>
        <time>2017-01-07T07:29:26Z</time>
      </trkpt>
      <trkpt lat="45.22279" lon="7.31976">
        <ele>836.84</ele>
        <time>2017-01-07T07:30:11Z</time>
      </trkpt>
      <trkpt lat="45.22379" lon="7.3213">
        <ele>837.27</ele>
        <time>2017-01-07T07:30:19Z</time>
      </trkpt>
      <trkpt lat="45.22381" lon="7.32196">
        <ele>836.73</ele>
        <time>2017-01-07T07:30:22Z</time>
      </trkpt>
      <trkpt lat="45.22366" lon="7.32262">
        <ele>832.85</ele>
        <time>2017-01-07T07:30:25Z</time>
      </trkpt>
      <trkpt lat="45.22487" lon="7.32963">
        <ele>810.05</ele>
        <time>2017-01-07T07:30:53Z</time>
      </trkpt>
      <trkpt lat="45.22589" lon="7.33148">
        <ele>811.67</ele>
        <time>2017-01-07T07:31:02Z</time>
      </trkpt>
      <trkpt lat="45.22657" lon="7.33742">
        <ele>790.09</ele>
        <time>2017-01-07T07:31:25Z</time>
      </trkpt>
      <trkpt lat="45.22795" lon="7.33968">
        <ele>799.24</ele>
        <time>2017-01-07T07:31:36Z</time>
      </trkpt>
      <trkpt lat="45.23376" lon="7.35997">
        <ele>744.71</ele>
        <time>2017-01-07T07:33:01Z</time>
      </trkpt>
      <trkpt lat="45.23232" lon="7.36689">
        <ele>719.61</ele>
        <time>2017-01-07T07:33:29Z</time>
      </trkpt>
      <trkpt lat="45.23254" lon="7.3675">
        <ele>720.17</ele>
        <time>2017-01-07T07:33:31Z</time>
      </trkpt>
      <trkpt lat="45.23471" lon="7.36861">
        <ele>742.86</ele>
        <time>2017-01-07T07:33:44Z</time>
      </trkpt>
      <trkpt lat="45.23491" lon="7.36921">
        <ele>748.75</ele>
        <time>2017-01-07T07:33:47Z</time>
      </trkpt>
      <trkpt lat="45.23477" lon="7.36927">
        <ele>750.45</ele>
        <time>2017-01-07T07:33:47Z</time>
      </trkpt>
      <trkpt lat="45.23429" lon="7.36934">
        <ele>751.42</ele>
        <time>2017-01-07T07:33:50Z</time>
      </trkpt>
      <trkpt lat="45.23375" lon="7.36933">
        <ele>749.55</ele>
        <time>2017-01-07T07:33:53Z</time>
      </trkpt>
      <trkpt lat="45.23276" lon="7.36877">
        <ele>739.29</ele>
        <time>2017-01-07T07:33:59Z</time>
      </trkpt>
      <trkpt lat="45.23281" lon="7.37032">
        <ele>752.21</ele>
        <time>2017-01-07T07:34:05Z</time>
      </trkpt>
      <trkpt lat="45.23355" lon="7.37194">
        <ele>761.9</ele>
        <time>2017-01-07T07:34:12Z</time>
      </trkpt>
      <trkpt lat="45.23666" lon="7.37098">
        <ele>779.37</ele>
        <time>2017-01-07T07:34:30Z</time>
      </trkpt>
      <trkpt lat="45.23781" lon="7.37137">
        <ele>794.4</ele>
        <time>2017-01-07T07:34:36Z</time>
      </trkpt>
      <trkpt lat="45.23771" lon="7.37135">
        <ele>794.2</ele>
      </trkpt>
      <trkpt lat="45.23737" lon="7.37071">
        <ele>797.5</ele>
      </trkpt>
      <trkpt lat="45.23702" lon="7.37037">
        <ele>802.7</ele>
      </trkpt>
      <trkpt lat="45.23698" lon="7.3702">
        <ele>805.3</ele>
      </trkpt>
      <trkpt lat="45.23745" lon="7.37028">
        <ele>805.3</ele>
      </trkpt>
      <trkpt lat="45.23788" lon="7.37002">
        <ele>809.6</ele>
      </trkpt>
      <trkpt lat="45.23801" lon="7.37002">
        <ele>809.8</ele>
      </trkpt>
      <trkpt lat="45.23818" lon="7.3702">
        <ele>809.9</ele>
      </trkpt>
      <trkpt lat="45.23835" lon="7.37071">
        <ele>812.9</ele>
      </trkpt>
      <trkpt lat="45.23861" lon="7.37118">
        <ele>810.4</ele>
      </trkpt>
      <trkpt lat="45.23874" lon="7.37127">
        <ele>811.2</ele>
      </trkpt>
      <trkpt lat="45.23908" lon="7.3714">
        <ele>813</ele>
      </trkpt>
      <trkpt lat="45.2393" lon="7.3714">
        <ele>823.4</ele>
      </trkpt>
      <trkpt lat="45.24011" lon="7.37118">
        <ele>842</ele>
      </trkpt>
      <trkpt lat="45.24056" lon="7.37081">
        <ele>857.6</ele>
      </trkpt>
      <trkpt lat="45.24071" lon="7.3708">
        <ele>857.5</ele>
      </trkpt>
      <trkpt lat="45.24076" lon="7.37093">
        <ele>851.7</ele>
      </trkpt>
      <trkpt lat="45.24058" lon="7.37191">
        <ele>839.6</ele>
      </trkpt>
      <trkpt lat="45.24088" lon="7.37208">
        <ele>859.8</ele>
      </trkpt>
      <trkpt lat="45.24093" lon="7.3723">
        <ele>858.2</ele>
      </trkpt>
      <trkpt lat="45.24058" lon="7.37268">
        <ele>841.8</ele>
      </trkpt>
      <trkpt lat="45.24054" lon="7.37406">
        <ele>849.1</ele>
      </trkpt>
      <trkpt lat="45.24067" lon="7.37423">
        <ele>850.9</ele>
      </trkpt>
      <trkpt lat="45.24102" lon="7.37464">
        <ele>860.5</ele>
      </trkpt>
      <trkpt lat="45.24123" lon="7.37487">
        <ele>860.9</ele>
      </trkpt>
      <trkpt lat="45.2414" lon="7.37492">
        <ele>862.6</ele>
      </trkpt>
      <trkpt lat="45.2414" lon="7.37466">
        <ele>864.4</ele>
      </trkpt>
      <trkpt lat="45.24118" lon="7.3744">
        <ele>864</ele>
      </trkpt>
      <trkpt lat="45.2411" lon="7.3741">
        <ele>867.9</ele>
      </trkpt>
      <trkpt lat="45.24106" lon="7.37359">
        <ele>868.3</ele>
      </trkpt>
      <trkpt lat="45.2411" lon="7.3732">
        <ele>866.8</ele>
      </trkpt>
      <trkpt lat="45.24136" lon="7.37286">
        <ele>871.4</ele>
      </trkpt>
      <trkpt lat="45.24183" lon="7.37221">
        <ele>892.3</ele>
      </trkpt>
      <trkpt lat="45.24204" lon="7.37166">
        <ele>893.1</ele>
      </trkpt>
      <trkpt lat="45.24204" lon="7.37131">
        <ele>894.1</ele>
      </trkpt>
      <trkpt lat="45.24166" lon="7.37118">
        <ele>871.9</ele>
      </trkpt>
      <trkpt lat="45.24187" lon="7.37041">
        <ele>893</ele>
      </trkpt>
      <trkpt lat="45.24234" lon="7.37011">
        <ele>901.7</ele>
      </trkpt>
      <trkpt lat="45.24252" lon="7.3699">
        <ele>915.9</ele>
      </trkpt>
      <trkpt lat="45.24269" lon="7.36921">
        <ele>923.6</ele>
      </trkpt>
      <trkpt lat="45.24256" lon="7.36895">
        <ele>928.3</ele>
      </trkpt>
      <trkpt lat="45.24196" lon="7.36891">
        <ele>915.5</ele>
      </trkpt>
      <trkpt lat="45.24179" lon="7.36865">
        <ele>918.6</ele>
      </trkpt>
      <trkpt lat="45.2417" lon="7.36857">
        <ele>919.9</ele>
      </trkpt>
      <trkpt lat="45.24144" lon="7.36857">
        <ele>910.7</ele>
      </trkpt>
      <trkpt lat="45.2414" lon="7.36844">
        <ele>911.7</ele>
      </trkpt>
      <trkpt lat="45.24144" lon="7.36796">
        <ele>926.2</ele>
      </trkpt>
      <trkpt lat="45.2411" lon="7.36758">
        <ele>925.2</ele>
      </trkpt>
      <trkpt lat="45.24067" lon="7.36688">
        <ele>926.8</ele>
      </trkpt>
      <trkpt lat="45.24054" lon="7.36668">
        <ele>926.4</ele>
      </trkpt>
      <trkpt lat="45.24071" lon="7.36659">
        <ele>931.8</ele>
      </trkpt>
      <trkpt lat="45.24101" lon="7.36711">
        <ele>939</ele>
      </trkpt>
      <trkpt lat="45.24127" lon="7.36732">
        <ele>941</ele>
      </trkpt>
      <trkpt lat="45.24157" lon="7.36736">
        <ele>945.2</ele>
      </trkpt>
      <trkpt lat="45.24196" lon="7.36728">
        <ele>961.3</ele>
      </trkpt>
      <trkpt lat="45.24209" lon="7.36736">
        <ele>962.1</ele>
      </trkpt>
      <trkpt lat="45.24217" lon="7.36792">
        <ele>942.9</ele>
      </trkpt>
      <trkpt lat="45.24269" lon="7.36775">
        <ele>957.8</ele>
      </trkpt>
      <trkpt lat="45.24286" lon="7.36775">
        <ele>958.9</ele>
      </trkpt>
      <trkpt lat="45.24372" lon="7.36805">
        <ele>976</ele>
      </trkpt>
      <trkpt lat="45.24393" lon="7.36826">
        <ele>977.1</ele>
      </trkpt>
      <trkpt lat="45.24413" lon="7.36853">
        <ele>970.7</ele>
      </trkpt>
      <trkpt lat="45.24423" lon="7.36874">
        <ele>987.1</ele>
      </trkpt>
      <trkpt lat="45.24406" lon="7.36908">
        <ele>971</ele>
      </trkpt>
      <trkpt lat="45.24367" lon="7.36968">
        <ele>968.7</ele>
      </trkpt>
      <trkpt lat="45.24355" lon="7.37011">
        <ele>972.1</ele>
      </trkpt>
      <trkpt lat="45.2435" lon="7.37054">
        <ele>974.4</ele>
      </trkpt>
      <trkpt lat="45.2435" lon="7.37084">
        <ele>968.8</ele>
      </trkpt>
      <trkpt lat="45.24346" lon="7.37101">
        <ele>969.2</ele>
      </trkpt>
      <trkpt lat="45.24359" lon="7.3714">
        <ele>970.8</ele>
      </trkpt>
      <trkpt lat="45.24367" lon="7.37204">
        <ele>962.5</ele>
      </trkpt>
      <trkpt lat="45.24423" lon="7.37299">
        <ele>960</ele>
      </trkpt>
      <trkpt lat="45.2444" lon="7.37303">
        <ele>959.7</ele>
      </trkpt>
      <trkpt lat="45.24445" lon="7.3726">
        <ele>964.2</ele>
      </trkpt>
      <trkpt lat="45.24466" lon="7.37238">
        <ele>976.9</ele>
      </trkpt>
      <trkpt lat="45.24475" lon="7.37217">
        <ele>979.3</ele>
      </trkpt>
      <trkpt lat="45.24488" lon="7.37191">
        <ele>984.4</ele>
      </trkpt>
      <trkpt lat="45.24505" lon="7.37183">
        <ele>988.6</ele>
      </trkpt>
      <trkpt lat="45.24569" lon="7.37166">
        <ele>1000.7</ele>
      </trkpt>
      <trkpt lat="45.24663" lon="7.37161">
        <ele>1008</ele>
      </trkpt>
      <trkpt lat="45.24672" lon="7.37153">
        <ele>1016.4</ele>
      </trkpt>
      <trkpt lat="45.24659" lon="7.37131">
        <ele>1015.2</ele>
      </trkpt>
      <trkpt lat="45.24616" lon="7.37144">
        <ele>1011</ele>
      </trkpt>
      <trkpt lat="45.24526" lon="7.37088">
        <ele>1011.9</ele>
      </trkpt>
      <trkpt lat="45.24449" lon="7.37097">
        <ele>1003.3</ele>
      </trkpt>
      <trkpt lat="45.24436" lon="7.37093">
        <ele>1003.5</ele>
      </trkpt>
      <trkpt lat="45.24427" lon="7.3708">
        <ele>1007.8</ele>
      </trkpt>
      <trkpt lat="45.24427" lon="7.37045">
        <ele>1008.7</ele>
      </trkpt>
      <trkpt lat="45.2444" lon="7.37032">
        <ele>1009.2</ele>
      </trkpt>
      <trkpt lat="45.24479" lon="7.37002">
        <ele>1015.3</ele>
      </trkpt>
      <trkpt lat="45.24543" lon="7.36952">
        <ele>1022.3</ele>
      </trkpt>
      <trkpt lat="45.24561" lon="7.36938">
        <ele>1024.3</ele>
      </trkpt>
      <trkpt lat="45.24603" lon="7.36917">
        <ele>1038</ele>
      </trkpt>
      <trkpt lat="45.24616" lon="7.36912">
        <ele>1040.9</ele>
      </trkpt>
      <trkpt lat="45.24633" lon="7.36895">
        <ele>1044.1</ele>
      </trkpt>
      <trkpt lat="45.24638" lon="7.36852">
        <ele>1045.8</ele>
      </trkpt>
      <trkpt lat="45.24595" lon="7.36788">
        <ele>1051.2</ele>
      </trkpt>
      <trkpt lat="45.24586" lon="7.36754">
        <ele>1052.4</ele>
      </trkpt>
      <trkpt lat="45.24569" lon="7.36732">
        <ele>1053.5</ele>
      </trkpt>
      <trkpt lat="45.24539" lon="7.36719">
        <ele>1052</ele>
      </trkpt>
      <trkpt lat="45.24526" lon="7.36706">
        <ele>1052.4</ele>
      </trkpt>
      <trkpt lat="45.24496" lon="7.36655">
        <ele>1053.9</ele>
      </trkpt>
      <trkpt lat="45.24458" lon="7.36569">
        <ele>1054.1</ele>
      </trkpt>
      <trkpt lat="45.2447" lon="7.36552">
        <ele>1054.9</ele>
      </trkpt>
      <trkpt lat="45.24634" lon="7.36514">
        <ele>1083.6</ele>
      </trkpt>
      <trkpt lat="45.24844" lon="7.36466">
        <ele>1102.5</ele>
      </trkpt>
      <trkpt lat="45.24912" lon="7.36436">
        <ele>1096.7</ele>
      </trkpt>
      <trkpt lat="45.24951" lon="7.36436">
        <ele>1115.2</ele>
      </trkpt>
      <trkpt lat="45.24968" lon="7.36432">
        <ele>1118.5</ele>
      </trkpt>
      <trkpt lat="45.24985" lon="7.36393">
        <ele>1104</ele>
      </trkpt>
      <trkpt lat="45.25011" lon="7.36303">
        <ele>1112.8</ele>
      </trkpt>
      <trkpt lat="45.25033" lon="7.36264">
        <ele>1111</ele>
      </trkpt>
      <trkpt lat="45.25058" lon="7.36247">
        <ele>1099.9</ele>
      </trkpt>
      <trkpt lat="45.25088" lon="7.36239">
        <ele>1116.8</ele>
      </trkpt>
      <trkpt lat="45.2511" lon="7.36213">
        <ele>1112.7</ele>
      </trkpt>
      <trkpt lat="45.25191" lon="7.36187">
        <ele>1125.4</ele>
      </trkpt>
      <trkpt lat="45.25234" lon="7.36166">
        <ele>1120.2</ele>
      </trkpt>
      <trkpt lat="45.25247" lon="7.36148">
        <ele>1120.5</ele>
      </trkpt>
      <trkpt lat="45.25256" lon="7.36105">
        <ele>1140.5</ele>
      </trkpt>
      <trkpt lat="45.25247" lon="7.36084">
        <ele>1129.1</ele>
      </trkpt>
      <trkpt lat="45.25221" lon="7.36054">
        <ele>1133.9</ele>
      </trkpt>
      <trkpt lat="45.25174" lon="7.36041">
        <ele>1129</ele>
      </trkpt>
      <trkpt lat="45.25157" lon="7.36024">
        <ele>1115.8</ele>
      </trkpt>
      <trkpt lat="45.2514" lon="7.3599">
        <ele>1132.9</ele>
      </trkpt>
      <trkpt lat="45.25136" lon="7.35955">
        <ele>1136.1</ele>
      </trkpt>
      <trkpt lat="45.25131" lon="7.35942">
        <ele>1137.3</ele>
      </trkpt>
      <trkpt lat="45.25101" lon="7.35912">
        <ele>1143.8</ele>
      </trkpt>
      <trkpt lat="45.25084" lon="7.35904">
        <ele>1140.8</ele>
      </trkpt>
      <trkpt lat="45.25054" lon="7.35904">
        <ele>1132.5</ele>
      </trkpt>
      <trkpt lat="45.25037" lon="7.35835">
        <ele>1137.6</ele>
      </trkpt>
      <trkpt lat="45.25028" lon="7.35809">
        <ele>1137.6</ele>
      </trkpt>
      <trkpt lat="45.25033" lon="7.35775">
        <ele>1135.3</ele>
      </trkpt>
      <trkpt lat="45.25058" lon="7.35728">
        <ele>1123.4</ele>
      </trkpt>
      <trkpt lat="45.25106" lon="7.35702">
        <ele>1136.3</ele>
      </trkpt>
      <trkpt lat="45.25136" lon="7.35719">
        <ele>1142</ele>
      </trkpt>
      <trkpt lat="45.25169" lon="7.35708">
        <ele>1159</ele>
      </trkpt>
      <trkpt lat="45.252" lon="7.35672">
        <ele>1158.5</ele>
      </trkpt>
      <trkpt lat="45.25196" lon="7.35655">
        <ele>1140.6</ele>
      </trkpt>
      <trkpt lat="45.25239" lon="7.35616">
        <ele>1143.2</ele>
      </trkpt>
      <trkpt lat="45.25277" lon="7.35603">
        <ele>1166.4</ele>
      </trkpt>
      <trkpt lat="45.25299" lon="7.35586">
        <ele>1171.4</ele>
      </trkpt>
      <trkpt lat="45.25329" lon="7.35539">
        <ele>1163.2</ele>
      </trkpt>
      <trkpt lat="45.25337" lon="7.35492">
        <ele>1178.9</ele>
      </trkpt>
      <trkpt lat="45.25337" lon="7.35449">
        <ele>1175</ele>
      </trkpt>
      <trkpt lat="45.25397" lon="7.35393">
        <ele>1171.8</ele>
      </trkpt>
      <trkpt lat="45.25432" lon="7.3538">
        <ele>1196.8</ele>
      </trkpt>
      <trkpt lat="45.25445" lon="7.3538">
        <ele>1198.7</ele>
      </trkpt>
      <trkpt lat="45.25389" lon="7.35453">
        <ele>1189.2</ele>
      </trkpt>
      <trkpt lat="45.25372" lon="7.35483">
        <ele>1188.4</ele>
      </trkpt>
      <trkpt lat="45.2538" lon="7.35539">
        <ele>1204.4</ele>
      </trkpt>
      <trkpt lat="45.25376" lon="7.35633">
        <ele>1217.1</ele>
      </trkpt>
      <trkpt lat="45.25384" lon="7.35642">
        <ele>1220.7</ele>
      </trkpt>
      <trkpt lat="45.25397" lon="7.35621">
        <ele>1221.7</ele>
      </trkpt>
      <trkpt lat="45.2541" lon="7.355">
        <ele>1216.9</ele>
      </trkpt>
      <trkpt lat="45.25436" lon="7.35488">
        <ele>1224.4</ele>
      </trkpt>
      <trkpt lat="45.25526" lon="7.3547">
        <ele>1248.5</ele>
      </trkpt>
      <trkpt lat="45.25569" lon="7.35453">
        <ele>1248.8</ele>
      </trkpt>
      <trkpt lat="45.25599" lon="7.35423">
        <ele>1254.6</ele>
      </trkpt>
      <trkpt lat="45.25637" lon="7.35371">
        <ele>1254.6</ele>
      </trkpt>
      <trkpt lat="45.25642" lon="7.35342">
        <ele>1255.9</ele>
      </trkpt>
      <trkpt lat="45.25633" lon="7.35307">
        <ele>1254.2</ele>
      </trkpt>
      <trkpt lat="45.25595" lon="7.35217">
        <ele>1254.8</ele>
      </trkpt>
      <trkpt lat="45.25586" lon="7.3514">
        <ele>1257.6</ele>
      </trkpt>
      <trkpt lat="45.25608" lon="7.3508">
        <ele>1258.3</ele>
      </trkpt>
      <trkpt lat="45.25651" lon="7.35033">
        <ele>1262.9</ele>
      </trkpt>
      <trkpt lat="45.25663" lon="7.35028">
        <ele>1263.9</ele>
      </trkpt>
      <trkpt lat="45.25702" lon="7.35024">
        <ele>1273.6</ele>
      </trkpt>
      <trkpt lat="45.25766" lon="7.35024">
        <ele>1279.2</ele>
      </trkpt>
      <trkpt lat="45.25792" lon="7.35054">
        <ele>1280.9</ele>
      </trkpt>
      <trkpt lat="45.25801" lon="7.3508">
        <ele>1281.8</ele>
      </trkpt>
      <trkpt lat="45.25796" lon="7.35093">
        <ele>1285.6</ele>
      </trkpt>
      <trkpt lat="45.25766" lon="7.35157">
        <ele>1286.1</ele>
      </trkpt>
      <trkpt lat="45.25745" lon="7.3523">
        <ele>1286.1</ele>
      </trkpt>
      <trkpt lat="45.25749" lon="7.35243">
        <ele>1289.8</ele>
      </trkpt>
      <trkpt lat="45.25792" lon="7.3523">
        <ele>1295.1</ele>
      </trkpt>
      <trkpt lat="45.25796" lon="7.35247">
        <ele>1296.1</ele>
      </trkpt>
      <trkpt lat="45.25784" lon="7.35264">
        <ele>1302.3</ele>
      </trkpt>
      <trkpt lat="45.25779" lon="7.35282">
        <ele>1303.1</ele>
      </trkpt>
      <trkpt lat="45.25788" lon="7.35294">
        <ele>1305</ele>
      </trkpt>
      <trkpt lat="45.25835" lon="7.35282">
        <ele>1318.6</ele>
      </trkpt>
      <trkpt lat="45.25925" lon="7.35277">
        <ele>1338.9</ele>
      </trkpt>
      <trkpt lat="45.25972" lon="7.35264">
        <ele>1344.8</ele>
      </trkpt>
      <trkpt lat="45.25925" lon="7.35337">
        <ele>1360.3</ele>
      </trkpt>
      <trkpt lat="45.25887" lon="7.35406">
        <ele>1359.2</ele>
      </trkpt>
      <trkpt lat="45.25857" lon="7.35479">
        <ele>1375</ele>
      </trkpt>
      <trkpt lat="45.2582" lon="7.35548">
        <ele>1370.4</ele>
      </trkpt>
      <trkpt lat="45.25766" lon="7.35651">
        <ele>1391.3</ele>
      </trkpt>
      <trkpt lat="45.25741" lon="7.35685">
        <ele>1384.9</ele>
      </trkpt>
      <trkpt lat="45.25711" lon="7.35706">
        <ele>1380.6</ele>
      </trkpt>
      <trkpt lat="45.25711" lon="7.35724">
        <ele>1381.4</ele>
      </trkpt>
      <trkpt lat="45.25741" lon="7.35736">
        <ele>1391.8</ele>
      </trkpt>
      <trkpt lat="45.25758" lon="7.35775">
        <ele>1410.3</ele>
      </trkpt>
      <trkpt lat="45.25775" lon="7.35805">
        <ele>1411.1</ele>
      </trkpt>
      <trkpt lat="45.25814" lon="7.35835">
        <ele>1415.8</ele>
      </trkpt>
      <trkpt lat="45.25822" lon="7.35857">
        <ele>1413.9</ele>
      </trkpt>
      <trkpt lat="45.25827" lon="7.35895">
        <ele>1410.8</ele>
      </trkpt>
      <trkpt lat="45.25865" lon="7.35981">
        <ele>1436.9</ele>
      </trkpt>
      <trkpt lat="45.25869" lon="7.36011">
        <ele>1436.4</ele>
      </trkpt>
      <trkpt lat="45.25865" lon="7.36028">
        <ele>1436.5</ele>
      </trkpt>
      <trkpt lat="45.25818" lon="7.36088">
        <ele>1418.5</ele>
      </trkpt>
      <trkpt lat="45.25822" lon="7.36105">
        <ele>1416.6</ele>
      </trkpt>
      <trkpt lat="45.25831" lon="7.36123">
        <ele>1415.9</ele>
      </trkpt>
      <trkpt lat="45.25861" lon="7.36153">
        <ele>1442.6</ele>
      </trkpt>
      <trkpt lat="45.25872" lon="7.36173">
        <ele>1444.1</ele>
      </trkpt>
      <trkpt lat="45.25882" lon="7.36191">
        <ele>1445.8</ele>
      </trkpt>
      <trkpt lat="45.25925" lon="7.362">
        <ele>1459.1</ele>
      </trkpt>
      <trkpt lat="45.25955" lon="7.36226">
        <ele>1456.7</ele>
      </trkpt>
      <trkpt lat="45.25972" lon="7.36226">
        <ele>1457</ele>
      </trkpt>
      <trkpt lat="45.26007" lon="7.36247">
        <ele>1453.4</ele>
      </trkpt>
      <trkpt lat="45.2602" lon="7.36247">
        <ele>1455.7</ele>
      </trkpt>
      <trkpt lat="45.26208" lon="7.36234">
        <ele>1434</ele>
      </trkpt>
      <trkpt lat="45.26238" lon="7.36221">
        <ele>1432.9</ele>
      </trkpt>
      <trkpt lat="45.26269" lon="7.36191">
        <ele>1425.1</ele>
      </trkpt>
      <trkpt lat="45.26316" lon="7.36136">
        <ele>1438.7</ele>
      </trkpt>
      <trkpt lat="45.26372" lon="7.36101">
        <ele>1430.7</ele>
      </trkpt>
      <trkpt lat="45.26406" lon="7.36097">
        <ele>1430.3</ele>
      </trkpt>
      <trkpt lat="45.26457" lon="7.36114">
        <ele>1426.3</ele>
      </trkpt>
      <trkpt lat="45.26475" lon="7.36127">
        <ele>1424.9</ele>
      </trkpt>
      <trkpt lat="45.26539" lon="7.36157">
        <ele>1430.2</ele>
      </trkpt>
      <trkpt lat="45.26565" lon="7.36174">
        <ele>1413.9</ele>
      </trkpt>
      <trkpt lat="45.26629" lon="7.36196">
        <ele>1418.8</ele>
      </trkpt>
      <trkpt lat="45.26678" lon="7.36239">
        <ele>1413</ele>
      </trkpt>
      <trkpt lat="45.26698" lon="7.36256">
        <ele>1393.8</ele>
      </trkpt>
      <trkpt lat="45.26732" lon="7.36273">
        <ele>1393.2</ele>
      </trkpt>
      <trkpt lat="45.26784" lon="7.36273">
        <ele>1389.2</ele>
      </trkpt>
      <trkpt lat="45.26869" lon="7.36247">
        <ele>1392.7</ele>
      </trkpt>
      <trkpt lat="45.26947" lon="7.36239">
        <ele>1379.3</ele>
      </trkpt>
      <trkpt lat="45.26981" lon="7.36243">
        <ele>1374.9</ele>
      </trkpt>
      <trkpt lat="45.27037" lon="7.3623">
        <ele>1373.6</ele>
      </trkpt>
      <trkpt lat="45.27058" lon="7.3623">
        <ele>1372.1</ele>
      </trkpt>
      <trkpt lat="45.27075" lon="7.36243">
        <ele>1365.3</ele>
      </trkpt>
      <trkpt lat="45.27157" lon="7.36342">
        <ele>1336.6</ele>
      </trkpt>
      <trkpt lat="45.27178" lon="7.36359">
        <ele>1330.9</ele>
      </trkpt>
      <trkpt lat="45.272" lon="7.36307">
        <ele>1335.2</ele>
      </trkpt>
      <trkpt lat="45.27234" lon="7.36376">
        <ele>1323</ele>
      </trkpt>
      <trkpt lat="45.27253" lon="7.3643">
        <ele>1310.4</ele>
      </trkpt>
      <trkpt lat="45.27299" lon="7.36565">
        <ele>1297.9</ele>
      </trkpt>
      <trkpt lat="45.27337" lon="7.36642">
        <ele>1292.3</ele>
      </trkpt>
      <trkpt lat="45.27354" lon="7.36646">
        <ele>1291.1</ele>
      </trkpt>
      <trkpt lat="45.27359" lon="7.36633">
        <ele>1290.3</ele>
      </trkpt>
      <trkpt lat="45.27359" lon="7.36608">
        <ele>1290.6</ele>
      </trkpt>
      <trkpt lat="45.27354" lon="7.36595">
        <ele>1291.9</ele>
      </trkpt>
      <trkpt lat="45.27324" lon="7.3656">
        <ele>1297.3</ele>
      </trkpt>
      <trkpt lat="45.27311" lon="7.36535">
        <ele>1296.7</ele>
      </trkpt>
      <trkpt lat="45.27341" lon="7.36539">
        <ele>1283.6</ele>
      </trkpt>
      <trkpt lat="45.27419" lon="7.3656">
        <ele>1261.9</ele>
      </trkpt>
      <trkpt lat="45.27432" lon="7.36573">
        <ele>1263.8</ele>
      </trkpt>
      <trkpt lat="45.27449" lon="7.36612">
        <ele>1263</ele>
      </trkpt>
      <trkpt lat="45.27449" lon="7.36633">
        <ele>1263</ele>
      </trkpt>
      <trkpt lat="45.27432" lon="7.36676">
        <ele>1267</ele>
      </trkpt>
      <trkpt lat="45.27423" lon="7.36762">
        <ele>1255.6</ele>
      </trkpt>
      <trkpt lat="45.27406" lon="7.36814">
        <ele>1258.1</ele>
      </trkpt>
      <trkpt lat="45.27406" lon="7.36831">
        <ele>1255.1</ele>
      </trkpt>
      <trkpt lat="45.27444" lon="7.36771">
        <ele>1246.3</ele>
      </trkpt>
      <trkpt lat="45.27462" lon="7.36869">
        <ele>1228.8</ele>
      </trkpt>
      <trkpt lat="45.27462" lon="7.36929">
        <ele>1219.6</ele>
      </trkpt>
      <trkpt lat="45.27457" lon="7.36981">
        <ele>1217.2</ele>
      </trkpt>
      <trkpt lat="45.27457" lon="7.37032">
        <ele>1208.8</ele>
      </trkpt>
      <trkpt lat="45.27474" lon="7.37058">
        <ele>1206.7</ele>
      </trkpt>
      <trkpt lat="45.27474" lon="7.37088">
        <ele>1198.5</ele>
      </trkpt>
      <trkpt lat="45.27466" lon="7.37105">
        <ele>1197.2</ele>
      </trkpt>
      <trkpt lat="45.27449" lon="7.37101">
        <ele>1197.9</ele>
      </trkpt>
      <trkpt lat="45.27341" lon="7.37007">
        <ele>1208.8</ele>
      </trkpt>
      <trkpt lat="45.27303" lon="7.37002">
        <ele>1193.5</ele>
      </trkpt>
      <trkpt lat="45.27281" lon="7.36994">
        <ele>1200.2</ele>
      </trkpt>
      <trkpt lat="45.27264" lon="7.36977">
        <ele>1198.3</ele>
      </trkpt>
      <trkpt lat="45.27247" lon="7.36942">
        <ele>1185.4</ele>
      </trkpt>
      <trkpt lat="45.2723" lon="7.36942">
        <ele>1182.2</ele>
      </trkpt>
      <trkpt lat="45.27226" lon="7.36968">
        <ele>1177.8</ele>
      </trkpt>
      <trkpt lat="45.27286" lon="7.37097">
        <ele>1167.8</ele>
      </trkpt>
      <trkpt lat="45.27354" lon="7.37178">
        <ele>1162.9</ele>
      </trkpt>
      <trkpt lat="45.27389" lon="7.372">
        <ele>1166.2</ele>
      </trkpt>
      <trkpt lat="45.27401" lon="7.3723">
        <ele>1163</ele>
      </trkpt>
      <trkpt lat="45.27406" lon="7.37256">
        <ele>1155.3</ele>
      </trkpt>
      <trkpt lat="45.2741" lon="7.37316">
        <ele>1148.4</ele>
      </trkpt>
      <trkpt lat="45.27401" lon="7.37341">
        <ele>1143.4</ele>
      </trkpt>
      <trkpt lat="45.27371" lon="7.37384">
        <ele>1134.4</ele>
      </trkpt>
      <trkpt lat="45.27367" lon="7.3741">
        <ele>1132.6</ele>
      </trkpt>
      <trkpt lat="45.27393" lon="7.37457">
        <ele>1127.6</ele>
      </trkpt>
      <trkpt lat="45.27427" lon="7.37483">
        <ele>1135.6</ele>
      </trkpt>
      <trkpt lat="45.27449" lon="7.37535">
        <ele>1128</ele>
      </trkpt>
      <trkpt lat="45.27462" lon="7.37599">
        <ele>1117.1</ele>
      </trkpt>
      <trkpt lat="45.27492" lon="7.37638">
        <ele>1116.4</ele>
      </trkpt>
      <trkpt lat="45.27504" lon="7.3768">
        <ele>1115.3</ele>
      </trkpt>
      <trkpt lat="45.27517" lon="7.37702">
        <ele>1112.7</ele>
      </trkpt>
      <trkpt lat="45.27577" lon="7.37766">
        <ele>1100.3</ele>
      </trkpt>
      <trkpt lat="45.2762" lon="7.37792">
        <ele>1092.6</ele>
      </trkpt>
      <trkpt lat="45.2759" lon="7.37852">
        <ele>1083.4</ele>
      </trkpt>
      <trkpt lat="45.27577" lon="7.37865">
        <ele>1080.9</ele>
      </trkpt>
      <trkpt lat="45.2756" lon="7.37861">
        <ele>1080.3</ele>
      </trkpt>
      <trkpt lat="45.2753" lon="7.37826">
        <ele>1089.2</ele>
      </trkpt>
      <trkpt lat="45.27509" lon="7.37788">
        <ele>1092</ele>
      </trkpt>
      <trkpt lat="45.27496" lon="7.37779">
        <ele>1085.2</ele>
      </trkpt>
      <trkpt lat="45.2747" lon="7.37788">
        <ele>1081.9</ele>
      </trkpt>
      <trkpt lat="45.27453" lon="7.37818">
        <ele>1078.1</ele>
      </trkpt>
      <trkpt lat="45.27432" lon="7.37818">
        <ele>1075.5</ele>
      </trkpt>
      <trkpt lat="45.27414" lon="7.37771">
        <ele>1070.7</ele>
      </trkpt>
      <trkpt lat="45.2741" lon="7.37736">
        <ele>1078.9</ele>
      </trkpt>
      <trkpt lat="45.27397" lon="7.37719">
        <ele>1080</ele>
      </trkpt>
      <trkpt lat="45.27376" lon="7.37715">
        <ele>1078.6</ele>
      </trkpt>
      <trkpt lat="45.27359" lon="7.37715">
        <ele>1076.9</ele>
      </trkpt>
      <trkpt lat="45.27337" lon="7.37715">
        <ele>1075.2</ele>
      </trkpt>
      <trkpt lat="45.27303" lon="7.37706">
        <ele>1069.1</ele>
      </trkpt>
      <trkpt lat="45.27178" lon="7.37852">
        <ele>1037.8</ele>
      </trkpt>
      <trkpt lat="45.2717" lon="7.37869">
        <ele>1037.8</ele>
      </trkpt>
      <trkpt lat="45.27174" lon="7.37891">
        <ele>1037.5</ele>
      </trkpt>
      <trkpt lat="45.27187" lon="7.37899">
        <ele>1037.5</ele>
      </trkpt>
      <trkpt lat="45.27226" lon="7.37899">
        <ele>1038.1</ele>
      </trkpt>
      <trkpt lat="45.27238" lon="7.37895">
        <ele>1038.2</ele>
      </trkpt>
      <trkpt lat="45.27251" lon="7.37865">
        <ele>1043.1</ele>
      </trkpt>
      <trkpt lat="45.27264" lon="7.37831">
        <ele>1049.3</ele>
      </trkpt>
      <trkpt lat="45.27277" lon="7.37814">
        <ele>1051.2</ele>
      </trkpt>
      <trkpt lat="45.27294" lon="7.37814">
        <ele>1051.6</ele>
      </trkpt>
      <trkpt lat="45.27316" lon="7.37835">
        <ele>1045</ele>
      </trkpt>
      <trkpt lat="45.27333" lon="7.37869">
        <ele>1043.3</ele>
      </trkpt>
      <trkpt lat="45.27329" lon="7.37985">
        <ele>1031.8</ele>
      </trkpt>
      <trkpt lat="45.27337" lon="7.3802">
        <ele>1033.4</ele>
      </trkpt>
      <trkpt lat="45.27367" lon="7.3808">
        <ele>1029.1</ele>
      </trkpt>
      <trkpt lat="45.27393" lon="7.3811">
        <ele>1012.4</ele>
      </trkpt>
      <trkpt lat="45.27449" lon="7.38131">
        <ele>1022.1</ele>
      </trkpt>
      <trkpt lat="45.27483" lon="7.38161">
        <ele>1021.4</ele>
      </trkpt>
      <trkpt lat="45.27513" lon="7.38273">
        <ele>994.7</ele>
      </trkpt>
      <trkpt lat="45.27522" lon="7.38286">
        <ele>991.9</ele>
      </trkpt>
      <trkpt lat="45.27552" lon="7.38298">
        <ele>989.7</ele>
      </trkpt>
      <trkpt lat="45.2759" lon="7.38256">
        <ele>993.9</ele>
      </trkpt>
      <trkpt lat="45.2762" lon="7.38234">
        <ele>996.3</ele>
      </trkpt>
      <trkpt lat="45.27668" lon="7.38174">
        <ele>994.7</ele>
      </trkpt>
      <trkpt lat="45.2768" lon="7.38165">
        <ele>1002.9</ele>
      </trkpt>
      <trkpt lat="45.27715" lon="7.38157">
        <ele>1004.2</ele>
      </trkpt>
      <trkpt lat="45.27736" lon="7.38157">
        <ele>1000.1</ele>
      </trkpt>
      <trkpt lat="45.27796" lon="7.38174">
        <ele>975.7</ele>
      </trkpt>
      <trkpt lat="45.27835" lon="7.38195">
        <ele>963.9</ele>
      </trkpt>
      <trkpt lat="45.27852" lon="7.38213">
        <ele>959.9</ele>
      </trkpt>
      <trkpt lat="45.27899" lon="7.38281">
        <ele>952.9</ele>
      </trkpt>
      <trkpt lat="45.27938" lon="7.38311">
        <ele>941.5</ele>
      </trkpt>
      <trkpt lat="45.27951" lon="7.38341">
        <ele>941.5</ele>
      </trkpt>
      <trkpt lat="45.27947" lon="7.38359">
        <ele>941.3</ele>
      </trkpt>
      <trkpt lat="45.27925" lon="7.38367">
        <ele>943.5</ele>
      </trkpt>
      <trkpt lat="45.27899" lon="7.38354">
        <ele>946.5</ele>
      </trkpt>
      <trkpt lat="45.27886" lon="7.38341">
        <ele>945.8</ele>
      </trkpt>
      <trkpt lat="45.27839" lon="7.38264">
        <ele>956.3</ele>
      </trkpt>
      <trkpt lat="45.27792" lon="7.38234">
        <ele>968.6</ele>
      </trkpt>
      <trkpt lat="45.27758" lon="7.38256">
        <ele>956.9</ele>
      </trkpt>
      <trkpt lat="45.27719" lon="7.3826">
        <ele>959.2</ele>
      </trkpt>
      <trkpt lat="45.27702" lon="7.38286">
        <ele>958</ele>
      </trkpt>
      <trkpt lat="45.27693" lon="7.38359">
        <ele>939</ele>
      </trkpt>
      <trkpt lat="45.27685" lon="7.38389">
        <ele>936.5</ele>
      </trkpt>
      <trkpt lat="45.27638" lon="7.38427">
        <ele>926.9</ele>
      </trkpt>
      <trkpt lat="45.27582" lon="7.38419">
        <ele>944.6</ele>
      </trkpt>
      <trkpt lat="45.2756" lon="7.38427">
        <ele>931.9</ele>
      </trkpt>
      <trkpt lat="45.2753" lon="7.38449">
        <ele>925.1</ele>
      </trkpt>
      <trkpt lat="45.27483" lon="7.38449">
        <ele>917.7</ele>
      </trkpt>
      <trkpt lat="45.27462" lon="7.38427">
        <ele>917.7</ele>
      </trkpt>
      <trkpt lat="45.27432" lon="7.38371">
        <ele>939.3</ele>
      </trkpt>
      <trkpt lat="45.2741" lon="7.38367">
        <ele>918.5</ele>
      </trkpt>
      <trkpt lat="45.2741" lon="7.38384">
        <ele>914.9</ele>
      </trkpt>
      <trkpt lat="45.27453" lon="7.38457">
        <ele>911.8</ele>
      </trkpt>
      <trkpt lat="45.27474" lon="7.38483">
        <ele>910</ele>
      </trkpt>
      <trkpt lat="45.27496" lon="7.38496">
        <ele>908.2</ele>
      </trkpt>
      <trkpt lat="45.27517" lon="7.38496">
        <ele>913.9</ele>
      </trkpt>
      <trkpt lat="45.27599" lon="7.38479">
        <ele>912.8</ele>
      </trkpt>
      <trkpt lat="45.27638" lon="7.38492">
        <ele>910.5</ele>
      </trkpt>
      <trkpt lat="45.27689" lon="7.38487">
        <ele>902.9</ele>
      </trkpt>
      <trkpt lat="45.27728" lon="7.38509">
        <ele>877.3</ele>
      </trkpt>
      <trkpt lat="45.27745" lon="7.38496">
        <ele>890.3</ele>
      </trkpt>
      <trkpt lat="45.27753" lon="7.3847">
        <ele>896</ele>
      </trkpt>
      <trkpt lat="45.27771" lon="7.38457">
        <ele>899.4</ele>
      </trkpt>
      <trkpt lat="45.27783" lon="7.38432">
        <ele>903.8</ele>
      </trkpt>
      <trkpt lat="45.27801" lon="7.38423">
        <ele>905</ele>
      </trkpt>
      <trkpt lat="45.27844" lon="7.38504">
        <ele>879.4</ele>
      </trkpt>
      <trkpt lat="45.27878" lon="7.38543">
        <ele>875.5</ele>
      </trkpt>
      <trkpt lat="45.27916" lon="7.38577">
        <ele>868.2</ele>
      </trkpt>
      <trkpt lat="45.27981" lon="7.38603">
        <ele>861</ele>
      </trkpt>
      <trkpt lat="45.2805" lon="7.38637">
        <ele>863.4</ele>
      </trkpt>
      <trkpt lat="45.28058" lon="7.38655">
        <ele>862.6</ele>
      </trkpt>
      <trkpt lat="45.28075" lon="7.38723">
        <ele>838.4</ele>
      </trkpt>
      <trkpt lat="45.28088" lon="7.38736">
        <ele>844.5</ele>
      </trkpt>
      <trkpt lat="45.28122" lon="7.3874">
        <ele>850</ele>
      </trkpt>
      <trkpt lat="45.28157" lon="7.38771">
        <ele>839.7</ele>
      </trkpt>
      <trkpt lat="45.2817" lon="7.38801">
        <ele>835</ele>
      </trkpt>
      <trkpt lat="45.28191" lon="7.38822">
        <ele>832.5</ele>
      </trkpt>
      <trkpt lat="45.28204" lon="7.38852">
        <ele>821.3</ele>
      </trkpt>
      <trkpt lat="45.28243" lon="7.38869">
        <ele>821.6</ele>
      </trkpt>
      <trkpt lat="45.2826" lon="7.38882">
        <ele>825.9</ele>
      </trkpt>
      <trkpt lat="45.28316" lon="7.38972">
        <ele>816.7</ele>
      </trkpt>
      <trkpt lat="45.28341" lon="7.39045">
        <ele>815.8</ele>
      </trkpt>
      <trkpt lat="45.28384" lon="7.39101">
        <ele>806.7</ele>
      </trkpt>
      <trkpt lat="45.28401" lon="7.39148">
        <ele>803.7</ele>
      </trkpt>
      <trkpt lat="45.28406" lon="7.39174">
        <ele>797.6</ele>
      </trkpt>
      <trkpt lat="45.28406" lon="7.39221">
        <ele>790.1</ele>
      </trkpt>
      <trkpt lat="45.28397" lon="7.3926">
        <ele>780.4</ele>
      </trkpt>
      <trkpt lat="45.28406" lon="7.39277">
        <ele>778.7</ele>
      </trkpt>
      <trkpt lat="45.28431" lon="7.39286">
        <ele>788.5</ele>
      </trkpt>
      <trkpt lat="45.2844" lon="7.39307">
        <ele>786.9</ele>
      </trkpt>
      <trkpt lat="45.28436" lon="7.3938">
        <ele>777.9</ele>
      </trkpt>
      <trkpt lat="45.28483" lon="7.39509">
        <ele>761.8</ele>
      </trkpt>
      <trkpt lat="45.28492" lon="7.39534">
        <ele>757</ele>
      </trkpt>
      <trkpt lat="45.28509" lon="7.39556">
        <ele>757.7</ele>
      </trkpt>
      <trkpt lat="45.28556" lon="7.39552">
        <ele>755</ele>
      </trkpt>
      <trkpt lat="45.28569" lon="7.39526">
        <ele>756.6</ele>
      </trkpt>
      <trkpt lat="45.2859" lon="7.39466">
        <ele>743.7</ele>
      </trkpt>
      <trkpt lat="45.28582" lon="7.39298">
        <ele>772</ele>
      </trkpt>
      <trkpt lat="45.2859" lon="7.39255">
        <ele>754.6</ele>
      </trkpt>
      <trkpt lat="45.28603" lon="7.39217">
        <ele>747.5</ele>
      </trkpt>
      <trkpt lat="45.28659" lon="7.39101">
        <ele>749.2</ele>
      </trkpt>
      <trkpt lat="45.2868" lon="7.39049">
        <ele>729.3</ele>
      </trkpt>
      <trkpt lat="45.28745" lon="7.39002">
        <ele>705.4</ele>
      </trkpt>
      <trkpt lat="45.28753" lon="7.38972">
        <ele>696.9</ele>
      </trkpt>
      <trkpt lat="45.2874" lon="7.38951">
        <ele>716.9</ele>
      </trkpt>
      <trkpt lat="45.28698" lon="7.38895">
        <ele>721.6</ele>
      </trkpt>
      <trkpt lat="45.28616" lon="7.38783">
        <ele>733.7</ele>
      </trkpt>
      <trkpt lat="45.28603" lon="7.3874">
        <ele>736.1</ele>
      </trkpt>
      <trkpt lat="45.28625" lon="7.38715">
        <ele>739.3</ele>
      </trkpt>
      <trkpt lat="45.28732" lon="7.38796">
        <ele>722.1</ele>
      </trkpt>
      <trkpt lat="45.28779" lon="7.38848">
        <ele>704.7</ele>
      </trkpt>
      <trkpt lat="45.28801" lon="7.38861">
        <ele>703.6</ele>
      </trkpt>
      <trkpt lat="45.28822" lon="7.38865">
        <ele>703.3</ele>
      </trkpt>
      <trkpt lat="45.28839" lon="7.38852">
        <ele>709.9</ele>
      </trkpt>
      <trkpt lat="45.28852" lon="7.38831">
        <ele>720.8</ele>
      </trkpt>
      <trkpt lat="45.28865" lon="7.38835">
        <ele>712.4</ele>
      </trkpt>
      <trkpt lat="45.28878" lon="7.38848">
        <ele>713.4</ele>
      </trkpt>
      <trkpt lat="45.28895" lon="7.38895">
        <ele>710.6</ele>
      </trkpt>
      <trkpt lat="45.28891" lon="7.38929">
        <ele>702.4</ele>
      </trkpt>
      <trkpt lat="45.28869" lon="7.38985">
        <ele>697.2</ele>
      </trkpt>
      <trkpt lat="45.28912" lon="7.39045">
        <ele>694.7</ele>
      </trkpt>
      <trkpt lat="45.28921" lon="7.39092">
        <ele>703.5</ele>
      </trkpt>
      <trkpt lat="45.28912" lon="7.39178">
        <ele>694.8</ele>
      </trkpt>
      <trkpt lat="45.28895" lon="7.3926">
        <ele>690.6</ele>
      </trkpt>
      <trkpt lat="45.28908" lon="7.39316">
        <ele>689.2</ele>
      </trkpt>
      <trkpt lat="45.28925" lon="7.39354">
        <ele>696.5</ele>
      </trkpt>
      <trkpt lat="45.28942" lon="7.39427">
        <ele>681</ele>
      </trkpt>
      <trkpt lat="45.28994" lon="7.39564">
        <ele>666.1</ele>
      </trkpt>
      <trkpt lat="45.29015" lon="7.39582">
        <ele>672.4</ele>
      </trkpt>
      <trkpt lat="45.29028" lon="7.39586">
        <ele>662.3</ele>
      </trkpt>
      <trkpt lat="45.29041" lon="7.39582">
        <ele>673</ele>
      </trkpt>
      <trkpt lat="45.29075" lon="7.39522">
        <ele>678</ele>
      </trkpt>
      <trkpt lat="45.2911" lon="7.39517">
        <ele>670.9</ele>
      </trkpt>
      <trkpt lat="45.29127" lon="7.39513">
        <ele>668.9</ele>
      </trkpt>
      <trkpt lat="45.29161" lon="7.39453">
        <ele>683.3</ele>
      </trkpt>
      <trkpt lat="45.29182" lon="7.39466">
        <ele>670.3</ele>
      </trkpt>
      <trkpt lat="45.292" lon="7.39483">
        <ele>667.3</ele>
      </trkpt>
      <trkpt lat="45.29213" lon="7.39492">
        <ele>665</ele>
      </trkpt>
      <trkpt lat="45.29238" lon="7.39453">
        <ele>666.6</ele>
      </trkpt>
      <trkpt lat="45.29277" lon="7.39406">
        <ele>668.3</ele>
      </trkpt>
      <trkpt lat="45.29358" lon="7.39328">
        <ele>671.1</ele>
      </trkpt>
      <trkpt lat="45.29393" lon="7.39346">
        <ele>662.3</ele>
      </trkpt>
      <trkpt lat="45.29466" lon="7.39419">
        <ele>658.3</ele>
      </trkpt>
      <trkpt lat="45.29483" lon="7.39436">
        <ele>658.9</ele>
      </trkpt>
      <trkpt lat="45.29509" lon="7.39449">
        <ele>662.4</ele>
      </trkpt>
      <trkpt lat="45.29522" lon="7.39457">
        <ele>662.1</ele>
      </trkpt>
      <trkpt lat="45.29552" lon="7.39496">
        <ele>661.2</ele>
      </trkpt>
      <trkpt lat="45.29573" lon="7.39526">
        <ele>654.9</ele>
      </trkpt>
      <trkpt lat="45.29582" lon="7.39543">
        <ele>653.3</ele>
      </trkpt>
      <trkpt lat="45.29573" lon="7.39564">
        <ele>651.4</ele>
      </trkpt>
      <trkpt lat="45.29607" lon="7.39603">
        <ele>648.1</ele>
      </trkpt>
      <trkpt lat="45.29616" lon="7.39633">
        <ele>646.6</ele>
      </trkpt>
      <trkpt lat="45.29642" lon="7.39663">
        <ele>646</ele>
      </trkpt>
      <trkpt lat="45.29603" lon="7.39779">
        <ele>631.4</ele>
      </trkpt>
      <trkpt lat="45.2965" lon="7.39852">
        <ele>626.6</ele>
      </trkpt>
      <trkpt lat="45.29646" lon="7.39873">
        <ele>624.8</ele>
      </trkpt>
      <trkpt lat="45.29637" lon="7.39886">
        <ele>623.8</ele>
      </trkpt>
      <trkpt lat="45.29625" lon="7.39886">
        <ele>623</ele>
      </trkpt>
      <trkpt lat="45.29573" lon="7.39843">
        <ele>621.2</ele>
      </trkpt>
      <trkpt lat="45.2956" lon="7.39848">
        <ele>618.2</ele>
      </trkpt>
      <trkpt lat="45.2956" lon="7.39869">
        <ele>615.8</ele>
      </trkpt>
      <trkpt lat="45.2959" lon="7.39878">
        <ele>621.9</ele>
      </trkpt>
      <trkpt lat="45.29637" lon="7.39938">
        <ele>614.8</ele>
      </trkpt>
      <trkpt lat="45.29667" lon="7.39964">
        <ele>615.8</ele>
      </trkpt>
      <trkpt lat="45.2971" lon="7.39989">
        <ele>614</ele>
      </trkpt>
      <trkpt lat="45.29723" lon="7.39989">
        <ele>613.6</ele>
      </trkpt>
      <trkpt lat="45.2974" lon="7.39981">
        <ele>613.5</ele>
      </trkpt>
      <trkpt lat="45.29758" lon="7.39964">
        <ele>614.4</ele>
      </trkpt>
      <trkpt lat="45.29779" lon="7.39951">
        <ele>615.2</ele>
      </trkpt>
      <trkpt lat="45.29792" lon="7.39955">
        <ele>614</ele>
      </trkpt>
      <trkpt lat="45.29822" lon="7.40006">
        <ele>606.2</ele>
      </trkpt>
      <trkpt lat="45.29843" lon="7.40058">
        <ele>613.4</ele>
      </trkpt>
      <trkpt lat="45.29843" lon="7.40084">
        <ele>618.7</ele>
      </trkpt>
      <trkpt lat="45.29835" lon="7.40105">
        <ele>624.1</ele>
      </trkpt>
      <trkpt lat="45.29612" lon="7.40157">
        <ele>492.99</ele>
        <time>2017-01-07T07:44:44Z</time>
      </trkpt>
      <trkpt lat="45.29141" lon="7.40028">
        <ele>594.8</ele>
      </trkpt>
      <trkpt lat="45.29031" lon="7.4032">
        <ele>603</ele>
      </trkpt>
      <trkpt lat="45.28794" lon="7.40454">
        <ele>584.2</ele>
      </trkpt>
      <trkpt lat="45.28829" lon="7.40944">
        <ele>580.3</ele>
      </trkpt>
      <trkpt lat="45.28489" lon="7.41294">
        <ele>577.8</ele>
      </trkpt>
      <trkpt lat="45.2837" lon="7.41492">
        <ele>569</ele>
      </trkpt>
      <trkpt lat="45.28332" lon="7.41963">
        <ele>557.6</ele>
      </trkpt>
      <trkpt lat="45.27882" lon="7.42601">
        <ele>556.1</ele>
      </trkpt>
      <trkpt lat="45.2765" lon="7.42666">
        <ele>543.2</ele>
      </trkpt>
      <trkpt lat="45.27375" lon="7.42975">
        <ele>540.7</ele>
      </trkpt>
      <trkpt lat="45.27039" lon="7.44034">
        <ele>527.4</ele>
      </trkpt>
      <trkpt lat="45.27188" lon="7.44512">
        <ele>547.3</ele>
      </trkpt>
      <trkpt lat="45.27078" lon="7.44719">
        <ele>518</ele>
      </trkpt>
      <trkpt lat="45.27127" lon="7.45174">
        <ele>534.9</ele>
      </trkpt>
      <trkpt lat="45.2689" lon="7.45427">
        <ele>511.8</ele>
      </trkpt>
      <trkpt lat="45.26623" lon="7.45783">
        <ele>526.5</ele>
      </trkpt>
      <trkpt lat="45.26408" lon="7.45747">
        <ele>503.9</ele>
      </trkpt>
      <trkpt lat="45.26253" lon="7.459">
        <ele>516.5</ele>
      </trkpt>
      <trkpt lat="45.26098" lon="7.46035">
        <ele>490.69</ele>
        <time>2017-01-07T07:44:47Z</time>
      </trkpt>
      <trkpt lat="45.25858" lon="7.46195">
        <ele>480.03</ele>
        <time>2017-01-07T07:45:02Z</time>
      </trkpt>
      <trkpt lat="45.25751" lon="7.46375">
        <ele>482.03</ele>
        <time>2017-01-07T07:45:11Z</time>
      </trkpt>
      <trkpt lat="45.25712" lon="7.46569">
        <ele>480.22</ele>
        <time>2017-01-07T07:45:19Z</time>
      </trkpt>
      <trkpt lat="45.25733" lon="7.46776">
        <ele>476.05</ele>
        <time>2017-01-07T07:45:27Z</time>
      </trkpt>
      <trkpt lat="45.26735" lon="7.48572">
        <ele>508.31</ele>
        <time>2017-01-07T07:46:55Z</time>
      </trkpt>
      <trkpt lat="45.27178" lon="7.48527">
        <ele>466.39</ele>
        <time>2017-01-07T07:47:19Z</time>
      </trkpt>
      <trkpt lat="45.26891" lon="7.51113">
        <ele>436.94</ele>
        <time>2017-01-07T07:49:00Z</time>
      </trkpt>
      <trkpt lat="45.27664" lon="7.5127">
        <ele>450.9</ele>
        <time>2017-01-07T07:49:43Z</time>
      </trkpt>
      <trkpt lat="45.27807" lon="7.50632">
        <ele>483.95</ele>
        <time>2017-01-07T07:50:09Z</time>
      </trkpt>
      <trkpt lat="45.28191" lon="7.50366">
        <ele>519.94</ele>
        <time>2017-01-07T07:50:32Z</time>
      </trkpt>
      <trkpt lat="45.28846" lon="7.50428">
        <ele>575.9</ele>
        <time>2017-01-07T07:51:08Z</time>
      </trkpt>
      <trkpt lat="45.2951" lon="7.4904">
        <ele>662.33</ele>
        <time>2017-01-07T07:52:13Z</time>
      </trkpt>
      <trkpt lat="45.29693" lon="7.49117">
        <ele>671.07</ele>
        <time>2017-01-07T07:52:23Z</time>
      </trkpt>
      <trkpt lat="45.29543" lon="7.49106">
        <ele>668.36</ele>
        <time>2017-01-07T07:52:32Z</time>
      </trkpt>
      <trkpt lat="45.29509" lon="7.49158">
        <ele>670.6</ele>
        <time>2017-01-07T07:52:34Z</time>
      </trkpt>
      <trkpt lat="45.29574" lon="7.49261">
        <ele>676.43</ele>
        <time>2017-01-07T07:52:40Z</time>
      </trkpt>
      <trkpt lat="45.29726" lon="7.49265">
        <ele>698.95</ele>
        <time>2017-01-07T07:52:48Z</time>
      </trkpt>
      <trkpt lat="45.29826" lon="7.49168">
        <ele>715.68</ele>
        <time>2017-01-07T07:52:55Z</time>
      </trkpt>
      <trkpt lat="45.29812" lon="7.49439">
        <ele>726.34</ele>
        <time>2017-01-07T07:53:05Z</time>
      </trkpt>
      <trkpt lat="45.29848" lon="7.49488">
        <ele>737.74</ele>
        <time>2017-01-07T07:53:08Z</time>
      </trkpt>
      <trkpt lat="45.29983" lon="7.4922">
        <ele>756.09</ele>
        <time>2017-01-07T07:53:21Z</time>
      </trkpt>
      <trkpt lat="45.29996" lon="7.49531">
        <ele>772.08</ele>
        <time>2017-01-07T07:53:33Z</time>
      </trkpt>
      <trkpt lat="45.30041" lon="7.4961">
        <ele>774.47</ele>
        <time>2017-01-07T07:53:37Z</time>
      </trkpt>
      <trkpt lat="45.30064" lon="7.49713">
        <ele>780.69</ele>
        <time>2017-01-07T07:53:41Z</time>
      </trkpt>
      <trkpt lat="45.30102" lon="7.49537">
        <ele>792.21</ele>
        <time>2017-01-07T07:53:48Z</time>
      </trkpt>
      <trkpt lat="45.30112" lon="7.4992">
        <ele>792.22</ele>
        <time>2017-01-07T07:54:03Z</time>
      </trkpt>
      <trkpt lat="45.30247" lon="7.5018">
        <ele>812.48</ele>
        <time>2017-01-07T07:54:15Z</time>
      </trkpt>
      <trkpt lat="45.30423" lon="7.50351">
        <ele>815.13</ele>
        <time>2017-01-07T07:54:27Z</time>
      </trkpt>
      <trkpt lat="45.30523" lon="7.50312">
        <ele>832.66</ele>
        <time>2017-01-07T07:54:32Z</time>
      </trkpt>
      <trkpt lat="45.3057" lon="7.50443">
        <ele>844.24</ele>
        <time>2017-01-07T07:54:38Z</time>
      </trkpt>
      <trkpt lat="45.30724" lon="7.50522">
        <ele>876.39</ele>
        <time>2017-01-07T07:54:47Z</time>
      </trkpt>
      <trkpt lat="45.30739" lon="7.50621">
        <ele>866.62</ele>
        <time>2017-01-07T07:54:51Z</time>
      </trkpt>
      <trkpt lat="45.30858" lon="7.50769">
        <ele>895.76</ele>
        <time>2017-01-07T07:55:00Z</time>
      </trkpt>
      <trkpt lat="45.30932" lon="7.50797">
        <ele>917.81</ele>
        <time>2017-01-07T07:55:04Z</time>
      </trkpt>
      <trkpt lat="45.30911" lon="7.50906">
        <ele>904.6</ele>
        <time>2017-01-07T07:55:08Z</time>
      </trkpt>
      <trkpt lat="45.30943" lon="7.5099">
        <ele>902.94</ele>
        <time>2017-01-07T07:55:12Z</time>
      </trkpt>
      <trkpt lat="45.31006" lon="7.51001">
        <ele>915.99</ele>
        <time>2017-01-07T07:55:15Z</time>
      </trkpt>
      <trkpt lat="45.31121" lon="7.5152">
        <ele>856.09</ele>
        <time>2017-01-07T07:55:36Z</time>
      </trkpt>
      <trkpt lat="45.31094" lon="7.51535">
        <ele>848.83</ele>
        <time>2017-01-07T07:55:38Z</time>
      </trkpt>
      <trkpt lat="45.31117" lon="7.51574">
        <ele>843.49</ele>
        <time>2017-01-07T07:55:40Z</time>
      </trkpt>
      <trkpt lat="45.31149" lon="7.5158">
        <ele>844.43</ele>
        <time>2017-01-07T07:55:42Z</time>
      </trkpt>
      <trkpt lat="45.31175" lon="7.51617">
        <ele>833.89</ele>
        <time>2017-01-07T07:55:44Z</time>
      </trkpt>
      <trkpt lat="45.31226" lon="7.51621">
        <ele>836.8</ele>
        <time>2017-01-07T07:55:46Z</time>
      </trkpt>
      <trkpt lat="45.31187" lon="7.51666">
        <ele>817.75</ele>
        <time>2017-01-07T07:55:49Z</time>
      </trkpt>
      <trkpt lat="45.31365" lon="7.5172">
        <ele>801.44</ele>
        <time>2017-01-07T07:55:59Z</time>
      </trkpt>
      <trkpt lat="45.31458" lon="7.51695">
        <ele>789.39</ele>
        <time>2017-01-07T07:56:04Z</time>
      </trkpt>
      <trkpt lat="45.31407" lon="7.51734">
        <ele>791.05</ele>
        <time>2017-01-07T07:56:08Z</time>
      </trkpt>
      <trkpt lat="45.3154" lon="7.51769">
        <ele>766.74</ele>
        <time>2017-01-07T07:56:15Z</time>
      </trkpt>
      <trkpt lat="45.31669" lon="7.51896">
        <ele>752.33</ele>
        <time>2017-01-07T07:56:24Z</time>
      </trkpt>
      <trkpt lat="45.31759" lon="7.51866">
        <ele>742.7</ele>
        <time>2017-01-07T07:56:29Z</time>
      </trkpt>
      <trkpt lat="45.3178" lon="7.51998">
        <ele>723.72</ele>
        <time>2017-01-07T07:56:34Z</time>
      </trkpt>
      <trkpt lat="45.31691" lon="7.52143">
        <ele>713.06</ele>
        <time>2017-01-07T07:56:41Z</time>
      </trkpt>
      <trkpt lat="45.31602" lon="7.52289">
        <ele>695.08</ele>
        <time>2017-01-07T07:56:49Z</time>
      </trkpt>
      <trkpt lat="45.31302" lon="7.52984">
        <ele>634.29</ele>
        <time>2017-01-07T07:57:20Z</time>
      </trkpt>
      <trkpt lat="45.31335" lon="7.53085">
        <ele>632</ele>
        <time>2017-01-07T07:57:25Z</time>
      </trkpt>
      <trkpt lat="45.31456" lon="7.52997">
        <ele>638.4</ele>
        <time>2017-01-07T07:57:32Z</time>
      </trkpt>
      <trkpt lat="45.31628" lon="7.53016">
        <ele>638.66</ele>
        <time>2017-01-07T07:57:41Z</time>
      </trkpt>
      <trkpt lat="45.31686" lon="7.52905">
        <ele>647.45</ele>
        <time>2017-01-07T07:57:47Z</time>
      </trkpt>
      <trkpt lat="45.31917" lon="7.52952">
        <ele>637.31</ele>
        <time>2017-01-07T07:58:00Z</time>
      </trkpt>
      <trkpt lat="45.32281" lon="7.52512">
        <ele>632.83</ele>
        <time>2017-01-07T07:58:26Z</time>
      </trkpt>
      <trkpt lat="45.32038" lon="7.533">
        <ele>668.93</ele>
        <time>2017-01-07T07:58:59Z</time>
      </trkpt>
      <trkpt lat="45.32204" lon="7.52993">
        <ele>698.08</ele>
        <time>2017-01-07T07:59:14Z</time>
      </trkpt>
      <trkpt lat="45.32368" lon="7.52847">
        <ele>714.59</ele>
        <time>2017-01-07T07:59:24Z</time>
      </trkpt>
      <trkpt lat="45.32423" lon="7.52969">
        <ele>738.74</ele>
        <time>2017-01-07T07:59:30Z</time>
      </trkpt>
      <trkpt lat="45.32658" lon="7.52819">
        <ele>754.6</ele>
        <time>2017-01-07T07:59:44Z</time>
      </trkpt>
      <trkpt lat="45.32949" lon="7.52808">
        <ele>786.17</ele>
        <time>2017-01-07T08:00:00Z</time>
      </trkpt>
      <trkpt lat="45.33065" lon="7.52709">
        <ele>790.96</ele>
        <time>2017-01-07T08:00:08Z</time>
      </trkpt>
      <trkpt lat="45.33195" lon="7.52894">
        <ele>825.42</ele>
        <time>2017-01-07T08:00:18Z</time>
      </trkpt>
      <trkpt lat="45.33271" lon="7.52714">
        <ele>812.71</ele>
        <time>2017-01-07T08:00:26Z</time>
      </trkpt>
      <trkpt lat="45.33408" lon="7.52915">
        <ele>848.57</ele>
        <time>2017-01-07T08:00:36Z</time>
      </trkpt>
      <trkpt lat="45.33465" lon="7.52647">
        <ele>842.74</ele>
        <time>2017-01-07T08:00:47Z</time>
      </trkpt>
      <trkpt lat="45.33553" lon="7.52688">
        <ele>861.23</ele>
        <time>2017-01-07T08:00:52Z</time>
      </trkpt>
      <trkpt lat="45.33749" lon="7.52583">
        <ele>858.72</ele>
        <time>2017-01-07T08:01:04Z</time>
      </trkpt>
      <trkpt lat="45.33868" lon="7.52634">
        <ele>867.7</ele>
        <time>2017-01-07T08:01:11Z</time>
      </trkpt>
      <trkpt lat="45.34283" lon="7.52057">
        <ele>889.16</ele>
        <time>2017-01-07T08:01:43Z</time>
      </trkpt>
      <trkpt lat="45.34323" lon="7.5184">
        <ele>896.31</ele>
        <time>2017-01-07T08:01:52Z</time>
      </trkpt>
      <trkpt lat="45.34494" lon="7.51697">
        <ele>919.47</ele>
        <time>2017-01-07T08:02:03Z</time>
      </trkpt>
      <trkpt lat="45.34727" lon="7.51772">
        <ele>955.62</ele>
        <time>2017-01-07T08:02:16Z</time>
      </trkpt>
      <trkpt lat="45.34676" lon="7.51568">
        <ele>947.16</ele>
        <time>2017-01-07T08:02:24Z</time>
      </trkpt>
      <trkpt lat="45.34838" lon="7.51343">
        <ele>967.04</ele>
        <time>2017-01-07T08:02:36Z</time>
      </trkpt>
      <trkpt lat="45.35083" lon="7.51343">
        <ele>1004.62</ele>
        <time>2017-01-07T08:02:50Z</time>
      </trkpt>
      <trkpt lat="45.34842" lon="7.5163">
        <ele>1026.6</ele>
        <time>2017-01-07T08:03:07Z</time>
      </trkpt>
      <trkpt lat="45.35293" lon="7.51583">
        <ele>1096.69</ele>
        <time>2017-01-07T08:03:32Z</time>
      </trkpt>
      <trkpt lat="45.35319" lon="7.51903">
        <ele>1135.65</ele>
        <time>2017-01-07T08:03:44Z</time>
      </trkpt>
      <trkpt lat="45.35561" lon="7.51602">
        <ele>1196.27</ele>
        <time>2017-01-07T08:04:02Z</time>
      </trkpt>
      <trkpt lat="45.35512" lon="7.51926">
        <ele>1210.62</ele>
        <time>2017-01-07T08:04:15Z</time>
      </trkpt>
      <trkpt lat="45.35614" lon="7.52031">
        <ele>1242.34</ele>
        <time>2017-01-07T08:04:22Z</time>
      </trkpt>
      <trkpt lat="45.35575" lon="7.51913">
        <ele>1253.49</ele>
        <time>2017-01-07T08:04:27Z</time>
      </trkpt>
      <trkpt lat="45.35625" lon="7.5178">
        <ele>1263.03</ele>
        <time>2017-01-07T08:04:32Z</time>
      </trkpt>
      <trkpt lat="45.35635" lon="7.51913">
        <ele>1272.18</ele>
        <time>2017-01-07T08:04:38Z</time>
      </trkpt>
      <trkpt lat="45.3569" lon="7.5178">
        <ele>1294.62</ele>
        <time>2017-01-07T08:04:44Z</time>
      </trkpt>
      <trkpt lat="45.3572" lon="7.51907">
        <ele>1320.13</ele>
        <time>2017-01-07T08:04:49Z</time>
      </trkpt>
      <trkpt lat="45.35747" lon="7.51838">
        <ele>1340.41</ele>
        <time>2017-01-07T08:04:52Z</time>
      </trkpt>
      <trkpt lat="45.35839" lon="7.51946">
        <ele>1361.74</ele>
        <time>2017-01-07T08:04:58Z</time>
      </trkpt>
      <trkpt lat="45.35816" lon="7.518">
        <ele>1362.79</ele>
        <time>2017-01-07T08:05:04Z</time>
      </trkpt>
      <trkpt lat="45.35952" lon="7.51727">
        <ele>1397.86</ele>
        <time>2017-01-07T08:05:12Z</time>
      </trkpt>
      <trkpt lat="45.35968" lon="7.51877">
        <ele>1420.14</ele>
        <time>2017-01-07T08:05:18Z</time>
      </trkpt>
      <trkpt lat="45.36131" lon="7.52275">
        <ele>1458.47</ele>
        <time>2017-01-07T08:05:36Z</time>
      </trkpt>
      <trkpt lat="45.36168" lon="7.51757">
        <ele>1502.57</ele>
        <time>2017-01-07T08:05:56Z</time>
      </trkpt>
      <trkpt lat="45.36249" lon="7.51834">
        <ele>1525.58</ele>
        <time>2017-01-07T08:06:01Z</time>
      </trkpt>
      <trkpt lat="45.36279" lon="7.51737">
        <ele>1535.64</ele>
        <time>2017-01-07T08:06:05Z</time>
      </trkpt>
      <trkpt lat="45.36309" lon="7.51834">
        <ele>1553.42</ele>
        <time>2017-01-07T08:06:09Z</time>
      </trkpt>
      <trkpt lat="45.36356" lon="7.51722">
        <ele>1569.74</ele>
        <time>2017-01-07T08:06:14Z</time>
      </trkpt>
      <trkpt lat="45.36373" lon="7.5181">
        <ele>1580.8</ele>
        <time>2017-01-07T08:06:18Z</time>
      </trkpt>
      <trkpt lat="45.36461" lon="7.51637">
        <ele>1607.42</ele>
        <time>2017-01-07T08:06:26Z</time>
      </trkpt>
      <trkpt lat="45.36477" lon="7.51873">
        <ele>1643.51</ele>
        <time>2017-01-07T08:06:35Z</time>
      </trkpt>
      <trkpt lat="45.36622" lon="7.52198">
        <ele>1698.88</ele>
        <time>2017-01-07T08:06:50Z</time>
      </trkpt>
      <trkpt lat="45.36657" lon="7.52029">
        <ele>1716.58</ele>
        <time>2017-01-07T08:06:57Z</time>
      </trkpt>
      <trkpt lat="45.36665" lon="7.51903">
        <ele>1721.5</ele>
        <time>2017-01-07T08:07:02Z</time>
      </trkpt>
      <trkpt lat="45.36664" lon="7.51787">
        <ele>1709.35</ele>
        <time>2017-01-07T08:07:06Z</time>
      </trkpt>
      <trkpt lat="45.36653" lon="7.52025">
        <ele>1714.71</ele>
        <time>2017-01-07T08:07:15Z</time>
      </trkpt>
      <trkpt lat="45.36618" lon="7.52199">
        <ele>1697.62</ele>
        <time>2017-01-07T08:07:22Z</time>
      </trkpt>
      <trkpt lat="45.36474" lon="7.51883">
        <ele>1643.02</ele>
        <time>2017-01-07T08:07:37Z</time>
      </trkpt>
      <trkpt lat="45.36493" lon="7.5175">
        <ele>1635.55</ele>
        <time>2017-01-07T08:07:42Z</time>
      </trkpt>
      <trkpt lat="45.36463" lon="7.5163">
        <ele>1606.15</ele>
        <time>2017-01-07T08:07:47Z</time>
      </trkpt>
      <trkpt lat="45.3637" lon="7.51806">
        <ele>1578.59</ele>
        <time>2017-01-07T08:07:55Z</time>
      </trkpt>
      <trkpt lat="45.36357" lon="7.51725">
        <ele>1570.24</ele>
        <time>2017-01-07T08:07:59Z</time>
      </trkpt>
      <trkpt lat="45.36308" lon="7.5183">
        <ele>1552.7</ele>
        <time>2017-01-07T08:08:03Z</time>
      </trkpt>
      <trkpt lat="45.36275" lon="7.51729">
        <ele>1533.11</ele>
        <time>2017-01-07T08:08:08Z</time>
      </trkpt>
      <trkpt lat="45.36252" lon="7.51813">
        <ele>1527.55</ele>
        <time>2017-01-07T08:08:11Z</time>
      </trkpt>
      <trkpt lat="45.36164" lon="7.51759">
        <ele>1500.46</ele>
        <time>2017-01-07T08:08:16Z</time>
      </trkpt>
      <trkpt lat="45.36169" lon="7.51963">
        <ele>1493.3</ele>
        <time>2017-01-07T08:08:24Z</time>
      </trkpt>
      <trkpt lat="45.36127" lon="7.52274">
        <ele>1456.57</ele>
        <time>2017-01-07T08:08:36Z</time>
      </trkpt>
      <trkpt lat="45.36012" lon="7.51918">
        <ele>1432.7</ele>
        <time>2017-01-07T08:08:52Z</time>
      </trkpt>
      <trkpt lat="45.35914" lon="7.51825">
        <ele>1402.36</ele>
        <time>2017-01-07T08:08:58Z</time>
      </trkpt>
      <trkpt lat="45.35949" lon="7.51722">
        <ele>1396.79</ele>
        <time>2017-01-07T08:09:02Z</time>
      </trkpt>
      <trkpt lat="45.35815" lon="7.51795">
        <ele>1362.1</ele>
        <time>2017-01-07T08:09:10Z</time>
      </trkpt>
      <trkpt lat="45.3584" lon="7.51937">
        <ele>1364.48</ele>
        <time>2017-01-07T08:09:16Z</time>
      </trkpt>
      <trkpt lat="45.35751" lon="7.51834">
        <ele>1342.47</ele>
        <time>2017-01-07T08:09:22Z</time>
      </trkpt>
      <trkpt lat="45.3573" lon="7.51894">
        <ele>1327.52</ele>
        <time>2017-01-07T08:09:25Z</time>
      </trkpt>
      <trkpt lat="45.357" lon="7.5177">
        <ele>1301.27</ele>
        <time>2017-01-07T08:09:30Z</time>
      </trkpt>
      <trkpt lat="45.35632" lon="7.51918">
        <ele>1271.22</ele>
        <time>2017-01-07T08:09:37Z</time>
      </trkpt>
      <trkpt lat="45.35623" lon="7.51797">
        <ele>1263.51</ele>
        <time>2017-01-07T08:09:41Z</time>
      </trkpt>
      <trkpt lat="45.35572" lon="7.51905">
        <ele>1251.96</ele>
        <time>2017-01-07T08:09:46Z</time>
      </trkpt>
      <trkpt lat="45.3561" lon="7.5201">
        <ele>1247.07</ele>
        <time>2017-01-07T08:09:51Z</time>
      </trkpt>
      <trkpt lat="45.35503" lon="7.51928">
        <ele>1204.38</ele>
        <time>2017-01-07T08:09:58Z</time>
      </trkpt>
      <trkpt lat="45.35552" lon="7.51594">
        <ele>1191.16</ele>
        <time>2017-01-07T08:10:11Z</time>
      </trkpt>
      <trkpt lat="45.35304" lon="7.51892">
        <ele>1127.79</ele>
        <time>2017-01-07T08:10:29Z</time>
      </trkpt>
      <trkpt lat="45.35266" lon="7.51576">
        <ele>1088.23</ele>
        <time>2017-01-07T08:10:41Z</time>
      </trkpt>
      <trkpt lat="45.34842" lon="7.51626">
        <ele>1027.18</ele>
        <time>2017-01-07T08:11:04Z</time>
      </trkpt>
      <trkpt lat="45.35061" lon="7.51353">
        <ele>1003.43</ele>
        <time>2017-01-07T08:11:20Z</time>
      </trkpt>
      <trkpt lat="45.34839" lon="7.51343">
        <ele>967.54</ele>
        <time>2017-01-07T08:11:32Z</time>
      </trkpt>
      <trkpt lat="45.34681" lon="7.51561">
        <ele>951.14</ele>
        <time>2017-01-07T08:11:44Z</time>
      </trkpt>
      <trkpt lat="45.34726" lon="7.51744">
        <ele>951.63</ele>
        <time>2017-01-07T08:11:52Z</time>
      </trkpt>
      <trkpt lat="45.34494" lon="7.51671">
        <ele>912.24</ele>
        <time>2017-01-07T08:12:05Z</time>
      </trkpt>
      <trkpt lat="45.34311" lon="7.51847">
        <ele>891.65</ele>
        <time>2017-01-07T08:12:17Z</time>
      </trkpt>
      <trkpt lat="45.3428" lon="7.52066">
        <ele>887.46</ele>
        <time>2017-01-07T08:12:26Z</time>
      </trkpt>
      <trkpt lat="45.34157" lon="7.52374">
        <ele>874.58</ele>
        <time>2017-01-07T08:12:39Z</time>
      </trkpt>
      <trkpt lat="45.33994" lon="7.52447">
        <ele>847.54</ele>
        <time>2017-01-07T08:12:49Z</time>
      </trkpt>
      <trkpt lat="45.33942" lon="7.52538">
        <ele>863.34</ele>
        <time>2017-01-07T08:12:53Z</time>
      </trkpt>
      <trkpt lat="45.33837" lon="7.52655">
        <ele>874.74</ele>
        <time>2017-01-07T08:13:00Z</time>
      </trkpt>
      <trkpt lat="45.33547" lon="7.52684">
        <ele>859.68</ele>
        <time>2017-01-07T08:13:16Z</time>
      </trkpt>
      <trkpt lat="45.33474" lon="7.52632">
        <ele>842.03</ele>
        <time>2017-01-07T08:13:21Z</time>
      </trkpt>
      <trkpt lat="45.33398" lon="7.52924">
        <ele>851.11</ele>
        <time>2017-01-07T08:13:33Z</time>
      </trkpt>
      <trkpt lat="45.33269" lon="7.52705">
        <ele>810.92</ele>
        <time>2017-01-07T08:13:44Z</time>
      </trkpt>
      <trkpt lat="45.33204" lon="7.52874">
        <ele>818.13</ele>
        <time>2017-01-07T08:13:51Z</time>
      </trkpt>
      <trkpt lat="45.33065" lon="7.5272">
        <ele>794.4</ele>
        <time>2017-01-07T08:14:01Z</time>
      </trkpt>
      <trkpt lat="45.32947" lon="7.52812">
        <ele>786.37</ele>
        <time>2017-01-07T08:14:08Z</time>
      </trkpt>
      <trkpt lat="45.3266" lon="7.52832">
        <ele>758.77</ele>
        <time>2017-01-07T08:14:24Z</time>
      </trkpt>
      <trkpt lat="45.32425" lon="7.52968">
        <ele>738.29</ele>
        <time>2017-01-07T08:14:38Z</time>
      </trkpt>
      <trkpt lat="45.3237" lon="7.52861">
        <ele>717.01</ele>
        <time>2017-01-07T08:14:43Z</time>
      </trkpt>
      <trkpt lat="45.32029" lon="7.53328">
        <ele>666.49</ele>
        <time>2017-01-07T08:15:09Z</time>
      </trkpt>
      <trkpt lat="45.32055" lon="7.53416">
        <ele>683.57</ele>
        <time>2017-01-07T08:15:13Z</time>
      </trkpt>
      <trkpt lat="45.32029" lon="7.53512">
        <ele>684.14</ele>
        <time>2017-01-07T08:15:17Z</time>
      </trkpt>
      <trkpt lat="45.32098" lon="7.53601">
        <ele>690.76</ele>
        <time>2017-01-07T08:15:22Z</time>
      </trkpt>
      <trkpt lat="45.32172" lon="7.53676">
        <ele>704.79</ele>
        <time>2017-01-07T08:15:27Z</time>
      </trkpt>
      <trkpt lat="45.32154" lon="7.53796">
        <ele>695.2</ele>
        <time>2017-01-07T08:15:31Z</time>
      </trkpt>
      <trkpt lat="45.32241" lon="7.53859">
        <ele>711</ele>
        <time>2017-01-07T08:15:37Z</time>
      </trkpt>
      <trkpt lat="45.32282" lon="7.53833">
        <ele>721.81</ele>
        <time>2017-01-07T08:15:39Z</time>
      </trkpt>
      <trkpt lat="45.32401" lon="7.53926">
        <ele>731.55</ele>
        <time>2017-01-07T08:15:47Z</time>
      </trkpt>
      <trkpt lat="45.32365" lon="7.53981">
        <ele>721.39</ele>
        <time>2017-01-07T08:15:50Z</time>
      </trkpt>
      <trkpt lat="45.32382" lon="7.54059">
        <ele>735.76</ele>
        <time>2017-01-07T08:15:53Z</time>
      </trkpt>
      <trkpt lat="45.32258" lon="7.54166">
        <ele>739.64</ele>
        <time>2017-01-07T08:16:01Z</time>
      </trkpt>
      <trkpt lat="45.32374" lon="7.54351">
        <ele>773.57</ele>
        <time>2017-01-07T08:16:10Z</time>
      </trkpt>
      <trkpt lat="45.32206" lon="7.54538">
        <ele>779.88</ele>
        <time>2017-01-07T08:16:22Z</time>
      </trkpt>
      <trkpt lat="45.3209" lon="7.54561">
        <ele>781.36</ele>
        <time>2017-01-07T08:16:28Z</time>
      </trkpt>
      <trkpt lat="45.32082" lon="7.54634">
        <ele>782.39</ele>
        <time>2017-01-07T08:16:31Z</time>
      </trkpt>
      <trkpt lat="45.32103" lon="7.5467">
        <ele>788.96</ele>
        <time>2017-01-07T08:16:33Z</time>
      </trkpt>
      <trkpt lat="45.32147" lon="7.54723">
        <ele>797.15</ele>
        <time>2017-01-07T08:16:36Z</time>
      </trkpt>
      <trkpt lat="45.32393" lon="7.54808">
        <ele>832.27</ele>
        <time>2017-01-07T08:16:50Z</time>
      </trkpt>
      <trkpt lat="45.32458" lon="7.54865">
        <ele>836.48</ele>
        <time>2017-01-07T08:16:54Z</time>
      </trkpt>
      <trkpt lat="45.32384" lon="7.54702">
        <ele>843.57</ele>
        <time>2017-01-07T08:17:02Z</time>
      </trkpt>
      <trkpt lat="45.32444" lon="7.5459">
        <ele>847.85</ele>
        <time>2017-01-07T08:17:07Z</time>
      </trkpt>
      <trkpt lat="45.32565" lon="7.54496">
        <ele>873.27</ele>
        <time>2017-01-07T08:17:15Z</time>
      </trkpt>
      <trkpt lat="45.32599" lon="7.54416">
        <ele>879.55</ele>
        <time>2017-01-07T08:17:18Z</time>
      </trkpt>
      <trkpt lat="45.32581" lon="7.54572">
        <ele>893.11</ele>
        <time>2017-01-07T08:17:24Z</time>
      </trkpt>
      <trkpt lat="45.32544" lon="7.54704">
        <ele>890.07</ele>
        <time>2017-01-07T08:17:30Z</time>
      </trkpt>
      <trkpt lat="45.3258" lon="7.54668">
        <ele>905.5</ele>
        <time>2017-01-07T08:17:32Z</time>
      </trkpt>
      <trkpt lat="45.32614" lon="7.54605">
        <ele>912.44</ele>
        <time>2017-01-07T08:17:35Z</time>
      </trkpt>
      <trkpt lat="45.32604" lon="7.54704">
        <ele>914.28</ele>
        <time>2017-01-07T08:17:39Z</time>
      </trkpt>
      <trkpt lat="45.32724" lon="7.54717">
        <ele>934.74</ele>
        <time>2017-01-07T08:17:46Z</time>
      </trkpt>
      <trkpt lat="45.32694" lon="7.54644">
        <ele>941.01</ele>
        <time>2017-01-07T08:17:49Z</time>
      </trkpt>
      <trkpt lat="45.32755" lon="7.54465">
        <ele>953.62</ele>
        <time>2017-01-07T08:17:57Z</time>
      </trkpt>
      <trkpt lat="45.3279" lon="7.54496">
        <ele>965.94</ele>
        <time>2017-01-07T08:17:59Z</time>
      </trkpt>
      <trkpt lat="45.32766" lon="7.54611">
        <ele>966.38</ele>
        <time>2017-01-07T08:18:03Z</time>
      </trkpt>
      <trkpt lat="45.32864" lon="7.54839">
        <ele>979.67</ele>
        <time>2017-01-07T08:18:14Z</time>
      </trkpt>
      <trkpt lat="45.32911" lon="7.54894">
        <ele>983.43</ele>
        <time>2017-01-07T08:18:17Z</time>
      </trkpt>
      <trkpt lat="45.3297" lon="7.54863">
        <ele>988.53</ele>
        <time>2017-01-07T08:18:21Z</time>
      </trkpt>
      <trkpt lat="45.33106" lon="7.54808">
        <ele>986.05</ele>
        <time>2017-01-07T08:18:28Z</time>
      </trkpt>
      <trkpt lat="45.33198" lon="7.54819">
        <ele>1003.33</ele>
        <time>2017-01-07T08:18:33Z</time>
      </trkpt>
      <trkpt lat="45.33265" lon="7.55011">
        <ele>1007.55</ele>
        <time>2017-01-07T08:18:42Z</time>
      </trkpt>
      <trkpt lat="45.334" lon="7.55099">
        <ele>1033.02</ele>
        <time>2017-01-07T08:18:50Z</time>
      </trkpt>
      <trkpt lat="45.33477" lon="7.55042">
        <ele>1058.08</ele>
        <time>2017-01-07T08:18:55Z</time>
      </trkpt>
      <trkpt lat="45.33519" lon="7.55157">
        <ele>1049.02</ele>
        <time>2017-01-07T08:19:00Z</time>
      </trkpt>
      <trkpt lat="45.33493" lon="7.55323">
        <ele>1034.1</ele>
        <time>2017-01-07T08:19:06Z</time>
      </trkpt>
      <trkpt lat="45.33512" lon="7.55481">
        <ele>1027.43</ele>
        <time>2017-01-07T08:19:12Z</time>
      </trkpt>
      <trkpt lat="45.33505" lon="7.55653">
        <ele>1011.82</ele>
        <time>2017-01-07T08:19:19Z</time>
      </trkpt>
      <trkpt lat="45.33492" lon="7.55906">
        <ele>989.96</ele>
        <time>2017-01-07T08:19:29Z</time>
      </trkpt>
      <trkpt lat="45.33479" lon="7.55934">
        <ele>989.5</ele>
        <time>2017-01-08T07:05:25Z</time>
      </trkpt>
      <trkpt lat="45.33462" lon="7.55954">
        <ele>993.12</ele>
        <time>2017-01-08T07:05:26Z</time>
      </trkpt>
      <trkpt lat="45.33444" lon="7.55974">
        <ele>997.97</ele>
        <time>2017-01-08T07:05:27Z</time>
      </trkpt>
      <trkpt lat="45.33427" lon="7.5599">
        <ele>995.83</ele>
        <time>2017-01-08T07:05:28Z</time>
      </trkpt>
      <trkpt lat="45.33406" lon="7.56013">
        <ele>991.8</ele>
        <time>2017-01-08T07:05:30Z</time>
      </trkpt>
      <trkpt lat="45.33388" lon="7.56035">
        <ele>991.15</ele>
        <time>2017-01-08T07:05:31Z</time>
      </trkpt>
      <trkpt lat="45.33375" lon="7.56056">
        <ele>988.97</ele>
        <time>2017-01-08T07:05:32Z</time>
      </trkpt>
      <trkpt lat="45.33363" lon="7.56076">
        <ele>989.57</ele>
        <time>2017-01-08T07:05:33Z</time>
      </trkpt>
      <trkpt lat="45.3335" lon="7.56099">
        <ele>988.87</ele>
        <time>2017-01-08T07:05:34Z</time>
      </trkpt>
      <trkpt lat="45.33337" lon="7.56122">
        <ele>989.66</ele>
        <time>2017-01-08T07:05:35Z</time>
      </trkpt>
      <trkpt lat="45.33321" lon="7.5614">
        <ele>989.69</ele>
        <time>2017-01-08T07:05:36Z</time>
      </trkpt>
      <trkpt lat="45.33309" lon="7.56167">
        <ele>990.13</ele>
        <time>2017-01-08T07:05:38Z</time>
      </trkpt>
      <trkpt lat="45.33297" lon="7.56195">
        <ele>989.2</ele>
        <time>2017-01-08T07:05:39Z</time>
      </trkpt>
      <trkpt lat="45.33283" lon="7.56218">
        <ele>987.89</ele>
        <time>2017-01-08T07:05:40Z</time>
      </trkpt>
      <trkpt lat="45.33278" lon="7.56252">
        <ele>989.99</ele>
        <time>2017-01-08T07:05:41Z</time>
      </trkpt>
      <trkpt lat="45.3327" lon="7.56275">
        <ele>990.39</ele>
        <time>2017-01-08T07:05:42Z</time>
      </trkpt>
      <trkpt lat="45.3326" lon="7.56302">
        <ele>992.71</ele>
        <time>2017-01-08T07:05:44Z</time>
      </trkpt>
      <trkpt lat="45.33246" lon="7.56323">
        <ele>996.35</ele>
        <time>2017-01-08T07:05:45Z</time>
      </trkpt>
      <trkpt lat="45.33235" lon="7.56347">
        <ele>998.2</ele>
        <time>2017-01-08T07:05:46Z</time>
      </trkpt>
      <trkpt lat="45.33222" lon="7.56373">
        <ele>1000.57</ele>
        <time>2017-01-08T07:05:47Z</time>
      </trkpt>
      <trkpt lat="45.33215" lon="7.56399">
        <ele>1001.42</ele>
        <time>2017-01-08T07:05:48Z</time>
      </trkpt>
      <trkpt lat="45.33202" lon="7.56418">
        <ele>1005.04</ele>
        <time>2017-01-08T07:05:49Z</time>
      </trkpt>
      <trkpt lat="45.3319" lon="7.56437">
        <ele>1008.28</ele>
        <time>2017-01-08T07:05:50Z</time>
      </trkpt>
      <trkpt lat="45.33177" lon="7.56459">
        <ele>1009.73</ele>
        <time>2017-01-08T07:05:51Z</time>
      </trkpt>
      <trkpt lat="45.33161" lon="7.56481">
        <ele>1008.7</ele>
        <time>2017-01-08T07:05:52Z</time>
      </trkpt>
      <trkpt lat="45.33144" lon="7.56494">
        <ele>1008.25</ele>
        <time>2017-01-08T07:05:53Z</time>
      </trkpt>
      <trkpt lat="45.33128" lon="7.5651">
        <ele>1005.66</ele>
        <time>2017-01-08T07:05:55Z</time>
      </trkpt>
      <trkpt lat="45.33114" lon="7.56527">
        <ele>1003.89</ele>
        <time>2017-01-08T07:05:56Z</time>
      </trkpt>
      <trkpt lat="45.33095" lon="7.56535">
        <ele>1004.22</ele>
        <time>2017-01-08T07:05:57Z</time>
      </trkpt>
      <trkpt lat="45.33076" lon="7.56542">
        <ele>1002.82</ele>
        <time>2017-01-08T07:05:58Z</time>
      </trkpt>
      <trkpt lat="45.33058" lon="7.56548">
        <ele>998.49</ele>
        <time>2017-01-08T07:05:59Z</time>
      </trkpt>
      <trkpt lat="45.33058" lon="7.56577">
        <ele>995.43</ele>
        <time>2017-01-08T07:06:00Z</time>
      </trkpt>
      <trkpt lat="45.3307" lon="7.56603">
        <ele>994.21</ele>
        <time>2017-01-08T07:06:01Z</time>
      </trkpt>
      <trkpt lat="45.33074" lon="7.56631">
        <ele>991.85</ele>
        <time>2017-01-08T07:06:02Z</time>
      </trkpt>
      <trkpt lat="45.33064" lon="7.56657">
        <ele>990.16</ele>
        <time>2017-01-08T07:06:03Z</time>
      </trkpt>
      <trkpt lat="45.33053" lon="7.56677">
        <ele>989.39</ele>
        <time>2017-01-08T07:06:04Z</time>
      </trkpt>
      <trkpt lat="45.33042" lon="7.56701">
        <ele>988.38</ele>
        <time>2017-01-08T07:06:05Z</time>
      </trkpt>
      <trkpt lat="45.33031" lon="7.56723">
        <ele>987.21</ele>
        <time>2017-01-08T07:06:06Z</time>
      </trkpt>
      <trkpt lat="45.33017" lon="7.56739">
        <ele>983.79</ele>
        <time>2017-01-08T07:06:07Z</time>
      </trkpt>
      <trkpt lat="45.32998" lon="7.5675">
        <ele>980.55</ele>
        <time>2017-01-08T07:06:09Z</time>
      </trkpt>
      <trkpt lat="45.32985" lon="7.56773">
        <ele>978.32</ele>
        <time>2017-01-08T07:06:10Z</time>
      </trkpt>
      <trkpt lat="45.32971" lon="7.56796">
        <ele>977.11</ele>
        <time>2017-01-08T07:06:11Z</time>
      </trkpt>
      <trkpt lat="45.32955" lon="7.56809">
        <ele>974.77</ele>
        <time>2017-01-08T07:06:12Z</time>
      </trkpt>
      <trkpt lat="45.32943" lon="7.56833">
        <ele>971.23</ele>
        <time>2017-01-08T07:06:13Z</time>
      </trkpt>
      <trkpt lat="45.32932" lon="7.56858">
        <ele>964.83</ele>
        <time>2017-01-08T07:06:14Z</time>
      </trkpt>
      <trkpt lat="45.32923" lon="7.56887">
        <ele>957.05</ele>
        <time>2017-01-08T07:06:15Z</time>
      </trkpt>
      <trkpt lat="45.32911" lon="7.56909">
        <ele>952.52</ele>
        <time>2017-01-08T07:06:16Z</time>
      </trkpt>
      <trkpt lat="45.32899" lon="7.56931">
        <ele>949.11</ele>
        <time>2017-01-08T07:06:17Z</time>
      </trkpt>
      <trkpt lat="45.32884" lon="7.56953">
        <ele>943.7</ele>
        <time>2017-01-08T07:06:19Z</time>
      </trkpt>
      <trkpt lat="45.32871" lon="7.56979">
        <ele>933.43</ele>
        <time>2017-01-08T07:06:20Z</time>
      </trkpt>
      <trkpt lat="45.32867" lon="7.57009">
        <ele>929.88</ele>
        <time>2017-01-08T07:06:21Z</time>
      </trkpt>
      <trkpt lat="45.32879" lon="7.57036">
        <ele>931.19</ele>
        <time>2017-01-08T07:06:22Z</time>
      </trkpt>
      <trkpt lat="45.32895" lon="7.57049">
        <ele>931.86</ele>
        <time>2017-01-08T07:06:23Z</time>
      </trkpt>
      <trkpt lat="45.32908" lon="7.57066">
        <ele>929.73</ele>
        <time>2017-01-08T07:06:24Z</time>
      </trkpt>
      <trkpt lat="45.32923" lon="7.57088">
        <ele>925.05</ele>
        <time>2017-01-08T07:06:25Z</time>
      </trkpt>
      <trkpt lat="45.32936" lon="7.57109">
        <ele>920.79</ele>
        <time>2017-01-08T07:06:27Z</time>
      </trkpt>
      <trkpt lat="45.32953" lon="7.57131">
        <ele>917.24</ele>
        <time>2017-01-08T07:06:28Z</time>
      </trkpt>
      <trkpt lat="45.3297" lon="7.5715">
        <ele>914.53</ele>
        <time>2017-01-08T07:06:29Z</time>
      </trkpt>
      <trkpt lat="45.32985" lon="7.57167">
        <ele>909.55</ele>
        <time>2017-01-08T07:06:30Z</time>
      </trkpt>
      <trkpt lat="45.33005" lon="7.57179">
        <ele>904.8</ele>
        <time>2017-01-08T07:06:31Z</time>
      </trkpt>
      <trkpt lat="45.33021" lon="7.57198">
        <ele>898.01</ele>
        <time>2017-01-08T07:06:32Z</time>
      </trkpt>
      <trkpt lat="45.33013" lon="7.5723">
        <ele>894.72</ele>
        <time>2017-01-08T07:06:34Z</time>
      </trkpt>
      <trkpt lat="45.33" lon="7.57257">
        <ele>892.08</ele>
        <time>2017-01-08T07:06:35Z</time>
      </trkpt>
      <trkpt lat="45.32986" lon="7.57273">
        <ele>889.06</ele>
        <time>2017-01-08T07:06:36Z</time>
      </trkpt>
      <trkpt lat="45.32972" lon="7.57292">
        <ele>884.82</ele>
        <time>2017-01-08T07:06:37Z</time>
      </trkpt>
      <trkpt lat="45.32977" lon="7.57321">
        <ele>880.36</ele>
        <time>2017-01-08T07:06:38Z</time>
      </trkpt>
      <trkpt lat="45.33" lon="7.57328">
        <ele>879.09</ele>
        <time>2017-01-08T07:06:39Z</time>
      </trkpt>
      <trkpt lat="45.33027" lon="7.57325">
        <ele>880.8</ele>
        <time>2017-01-08T07:06:41Z</time>
      </trkpt>
      <trkpt lat="45.33051" lon="7.57328">
        <ele>878.67</ele>
        <time>2017-01-08T07:06:42Z</time>
      </trkpt>
      <trkpt lat="45.33074" lon="7.57332">
        <ele>873.99</ele>
        <time>2017-01-08T07:06:43Z</time>
      </trkpt>
      <trkpt lat="45.33093" lon="7.57332">
        <ele>869.19</ele>
        <time>2017-01-08T07:06:45Z</time>
      </trkpt>
      <trkpt lat="45.33114" lon="7.57329">
        <ele>863.51</ele>
        <time>2017-01-08T07:06:46Z</time>
      </trkpt>
      <trkpt lat="45.33124" lon="7.5735">
        <ele>855.91</ele>
        <time>2017-01-08T07:06:47Z</time>
      </trkpt>
      <trkpt lat="45.33109" lon="7.57372">
        <ele>855.52</ele>
        <time>2017-01-08T07:06:48Z</time>
      </trkpt>
      <trkpt lat="45.3309" lon="7.57389">
        <ele>857.64</ele>
        <time>2017-01-08T07:06:49Z</time>
      </trkpt>
      <trkpt lat="45.3308" lon="7.57412">
        <ele>852.33</ele>
        <time>2017-01-08T07:06:50Z</time>
      </trkpt>
      <trkpt lat="45.33077" lon="7.57442">
        <ele>841.88</ele>
        <time>2017-01-08T07:06:51Z</time>
      </trkpt>
      <trkpt lat="45.33076" lon="7.57473">
        <ele>836.05</ele>
        <time>2017-01-08T07:06:53Z</time>
      </trkpt>
      <trkpt lat="45.33062" lon="7.57496">
        <ele>832.08</ele>
        <time>2017-01-08T07:06:54Z</time>
      </trkpt>
      <trkpt lat="45.33082" lon="7.57498">
        <ele>831.26</ele>
        <time>2017-01-08T07:06:55Z</time>
      </trkpt>
      <trkpt lat="45.33099" lon="7.57512">
        <ele>826.49</ele>
        <time>2017-01-08T07:06:56Z</time>
      </trkpt>
      <trkpt lat="45.33102" lon="7.57539">
        <ele>819.49</ele>
        <time>2017-01-08T07:06:57Z</time>
      </trkpt>
      <trkpt lat="45.33114" lon="7.57559">
        <ele>812.95</ele>
        <time>2017-01-08T07:06:58Z</time>
      </trkpt>
      <trkpt lat="45.33133" lon="7.57565">
        <ele>808.25</ele>
        <time>2017-01-08T07:06:59Z</time>
      </trkpt>
      <trkpt lat="45.33147" lon="7.57584">
        <ele>802.33</ele>
        <time>2017-01-08T07:07:00Z</time>
      </trkpt>
      <trkpt lat="45.33159" lon="7.57607">
        <ele>795.78</ele>
        <time>2017-01-08T07:07:01Z</time>
      </trkpt>
      <trkpt lat="45.33172" lon="7.57632">
        <ele>790.21</ele>
        <time>2017-01-08T07:07:02Z</time>
      </trkpt>
      <trkpt lat="45.33181" lon="7.57656">
        <ele>786.45</ele>
        <time>2017-01-08T07:07:03Z</time>
      </trkpt>
      <trkpt lat="45.33199" lon="7.57654">
        <ele>783.97</ele>
        <time>2017-01-08T07:07:04Z</time>
      </trkpt>
      <trkpt lat="45.33199" lon="7.57624">
        <ele>786.54</ele>
        <time>2017-01-08T07:07:06Z</time>
      </trkpt>
      <trkpt lat="45.33199" lon="7.57594">
        <ele>789.92</ele>
        <time>2017-01-08T07:07:07Z</time>
      </trkpt>
      <trkpt lat="45.33216" lon="7.57599">
        <ele>785.13</ele>
        <time>2017-01-08T07:07:08Z</time>
      </trkpt>
      <trkpt lat="45.33232" lon="7.57621">
        <ele>778.9</ele>
        <time>2017-01-08T07:07:09Z</time>
      </trkpt>
      <trkpt lat="45.33245" lon="7.57646">
        <ele>773.07</ele>
        <time>2017-01-08T07:07:10Z</time>
      </trkpt>
      <trkpt lat="45.33231" lon="7.57622">
        <ele>779.09</ele>
        <time>2017-01-08T07:07:11Z</time>
      </trkpt>
      <trkpt lat="45.33243" lon="7.57643">
        <ele>773.92</ele>
        <time>2017-01-08T07:07:12Z</time>
      </trkpt>
      <trkpt lat="45.3326" lon="7.57654">
        <ele>768.16</ele>
        <time>2017-01-08T07:07:13Z</time>
      </trkpt>
      <trkpt lat="45.33276" lon="7.57673">
        <ele>763.94</ele>
        <time>2017-01-08T07:07:14Z</time>
      </trkpt>
      <trkpt lat="45.33289" lon="7.57694">
        <ele>763.76</ele>
        <time>2017-01-08T07:07:16Z</time>
      </trkpt>
      <trkpt lat="45.33295" lon="7.57722">
        <ele>762.8</ele>
        <time>2017-01-08T07:07:17Z</time>
      </trkpt>
      <trkpt lat="45.33303" lon="7.57749">
        <ele>758.32</ele>
        <time>2017-01-08T07:07:18Z</time>
      </trkpt>
      <trkpt lat="45.3331" lon="7.57776">
        <ele>751.39</ele>
        <time>2017-01-08T07:07:19Z</time>
      </trkpt>
      <trkpt lat="45.33323" lon="7.57801">
        <ele>746.27</ele>
        <time>2017-01-08T07:07:20Z</time>
      </trkpt>
      <trkpt lat="45.33343" lon="7.57819">
        <ele>742.87</ele>
        <time>2017-01-08T07:07:21Z</time>
      </trkpt>
      <trkpt lat="45.33362" lon="7.5784">
        <ele>738.73</ele>
        <time>2017-01-08T07:07:23Z</time>
      </trkpt>
      <trkpt lat="45.3338" lon="7.57853">
        <ele>736.56</ele>
        <time>2017-01-08T07:07:24Z</time>
      </trkpt>
      <trkpt lat="45.33396" lon="7.57865">
        <ele>734.87</ele>
        <time>2017-01-08T07:07:25Z</time>
      </trkpt>
      <trkpt lat="45.33416" lon="7.57881">
        <ele>732.7</ele>
        <time>2017-01-08T07:07:26Z</time>
      </trkpt>
      <trkpt lat="45.33433" lon="7.57896">
        <ele>729.62</ele>
        <time>2017-01-08T07:07:27Z</time>
      </trkpt>
      <trkpt lat="45.33449" lon="7.57912">
        <ele>728.34</ele>
        <time>2017-01-08T07:07:28Z</time>
      </trkpt>
      <trkpt lat="45.33438" lon="7.57937">
        <ele>725.77</ele>
        <time>2017-01-08T07:07:29Z</time>
      </trkpt>
      <trkpt lat="45.33454" lon="7.57975">
        <ele>722.7</ele>
        <time>2017-01-08T07:07:31Z</time>
      </trkpt>
      <trkpt lat="45.3347" lon="7.58007">
        <ele>720.45</ele>
        <time>2017-01-08T07:07:33Z</time>
      </trkpt>
      <trkpt lat="45.33484" lon="7.58033">
        <ele>714.45</ele>
        <time>2017-01-08T07:07:34Z</time>
      </trkpt>
      <trkpt lat="45.33496" lon="7.58054">
        <ele>708</ele>
        <time>2017-01-08T07:07:35Z</time>
      </trkpt>
      <trkpt lat="45.33519" lon="7.58068">
        <ele>704.41</ele>
        <time>2017-01-08T07:07:36Z</time>
      </trkpt>
      <trkpt lat="45.33537" lon="7.58061">
        <ele>704.72</ele>
        <time>2017-01-08T07:07:37Z</time>
      </trkpt>
      <trkpt lat="45.3356" lon="7.58044">
        <ele>704.51</ele>
        <time>2017-01-08T07:07:39Z</time>
      </trkpt>
      <trkpt lat="45.33577" lon="7.58024">
        <ele>702.96</ele>
        <time>2017-01-08T07:07:40Z</time>
      </trkpt>
      <trkpt lat="45.33574" lon="7.58053">
        <ele>697.73</ele>
        <time>2017-01-08T07:07:41Z</time>
      </trkpt>
      <trkpt lat="45.33567" lon="7.58077">
        <ele>693.89</ele>
        <time>2017-01-08T07:07:42Z</time>
      </trkpt>
      <trkpt lat="45.3357" lon="7.58106">
        <ele>687.72</ele>
        <time>2017-01-08T07:07:43Z</time>
      </trkpt>
      <trkpt lat="45.33573" lon="7.58134">
        <ele>683.66</ele>
        <time>2017-01-08T07:07:44Z</time>
      </trkpt>
      <trkpt lat="45.33565" lon="7.5816">
        <ele>678.96</ele>
        <time>2017-01-08T07:07:45Z</time>
      </trkpt>
      <trkpt lat="45.33545" lon="7.58166">
        <ele>675.48</ele>
        <time>2017-01-08T07:07:47Z</time>
      </trkpt>
      <trkpt lat="45.33549" lon="7.58191">
        <ele>672.37</ele>
        <time>2017-01-08T07:07:47Z</time>
      </trkpt>
      <trkpt lat="45.33565" lon="7.58212">
        <ele>669.84</ele>
        <time>2017-01-08T07:07:49Z</time>
      </trkpt>
      <trkpt lat="45.33584" lon="7.58212">
        <ele>668.33</ele>
        <time>2017-01-08T07:07:50Z</time>
      </trkpt>
      <trkpt lat="45.336" lon="7.58188">
        <ele>669.61</ele>
        <time>2017-01-08T07:07:51Z</time>
      </trkpt>
      <trkpt lat="45.33613" lon="7.5816">
        <ele>671.52</ele>
        <time>2017-01-08T07:07:52Z</time>
      </trkpt>
      <trkpt lat="45.33628" lon="7.58132">
        <ele>670.65</ele>
        <time>2017-01-08T07:07:54Z</time>
      </trkpt>
      <trkpt lat="45.33648" lon="7.58119">
        <ele>665.82</ele>
        <time>2017-01-08T07:07:55Z</time>
      </trkpt>
      <trkpt lat="45.33665" lon="7.58092">
        <ele>662</ele>
        <time>2017-01-08T07:07:56Z</time>
      </trkpt>
      <trkpt lat="45.33671" lon="7.58056">
        <ele>660.98</ele>
        <time>2017-01-08T07:07:58Z</time>
      </trkpt>
      <trkpt lat="45.3368" lon="7.58034">
        <ele>657.09</ele>
        <time>2017-01-08T07:07:59Z</time>
      </trkpt>
      <trkpt lat="45.3369" lon="7.58012">
        <ele>653.88</ele>
        <time>2017-01-08T07:08:00Z</time>
      </trkpt>
      <trkpt lat="45.33697" lon="7.57988">
        <ele>652.23</ele>
        <time>2017-01-08T07:08:01Z</time>
      </trkpt>
      <trkpt lat="45.33703" lon="7.57962">
        <ele>649.11</ele>
        <time>2017-01-08T07:08:02Z</time>
      </trkpt>
      <trkpt lat="45.33701" lon="7.57932">
        <ele>648.43</ele>
        <time>2017-01-08T07:08:03Z</time>
      </trkpt>
      <trkpt lat="45.33692" lon="7.57908">
        <ele>647.81</ele>
        <time>2017-01-08T07:08:04Z</time>
      </trkpt>
      <trkpt lat="45.337" lon="7.57884">
        <ele>642.95</ele>
        <time>2017-01-08T07:08:05Z</time>
      </trkpt>
      <trkpt lat="45.33722" lon="7.57901">
        <ele>640.8</ele>
        <time>2017-01-08T07:08:06Z</time>
      </trkpt>
      <trkpt lat="45.33741" lon="7.57914">
        <ele>636.78</ele>
        <time>2017-01-08T07:08:07Z</time>
      </trkpt>
      <trkpt lat="45.33766" lon="7.57927">
        <ele>628.46</ele>
        <time>2017-01-08T07:08:09Z</time>
      </trkpt>
      <trkpt lat="45.33786" lon="7.57935">
        <ele>622.43</ele>
        <time>2017-01-08T07:08:10Z</time>
      </trkpt>
      <trkpt lat="45.33806" lon="7.57937">
        <ele>617.5</ele>
        <time>2017-01-08T07:08:11Z</time>
      </trkpt>
      <trkpt lat="45.33829" lon="7.57929">
        <ele>613.42</ele>
        <time>2017-01-08T07:08:12Z</time>
      </trkpt>
      <trkpt lat="45.33848" lon="7.57913">
        <ele>610.79</ele>
        <time>2017-01-08T07:08:14Z</time>
      </trkpt>
      <trkpt lat="45.33867" lon="7.57924">
        <ele>610.29</ele>
        <time>2017-01-08T07:08:15Z</time>
      </trkpt>
      <trkpt lat="45.33862" lon="7.57956">
        <ele>610.93</ele>
        <time>2017-01-08T07:08:16Z</time>
      </trkpt>
      <trkpt lat="45.33851" lon="7.57978">
        <ele>610.78</ele>
        <time>2017-01-08T07:08:17Z</time>
      </trkpt>
      <trkpt lat="45.33877" lon="7.57985">
        <ele>605.05</ele>
        <time>2017-01-08T07:08:18Z</time>
      </trkpt>
      <trkpt lat="45.33895" lon="7.57979">
        <ele>600.44</ele>
        <time>2017-01-08T07:08:19Z</time>
      </trkpt>
      <trkpt lat="45.33915" lon="7.57962">
        <ele>593.06</ele>
        <time>2017-01-08T07:08:21Z</time>
      </trkpt>
      <trkpt lat="45.33922" lon="7.57936">
        <ele>591.46</ele>
        <time>2017-01-08T07:08:22Z</time>
      </trkpt>
      <trkpt lat="45.33923" lon="7.57909">
        <ele>590.92</ele>
        <time>2017-01-08T07:08:23Z</time>
      </trkpt>
      <trkpt lat="45.33943" lon="7.57902">
        <ele>580.81</ele>
        <time>2017-01-08T07:08:24Z</time>
      </trkpt>
      <trkpt lat="45.33959" lon="7.57932">
        <ele>574.9</ele>
        <time>2017-01-08T07:08:25Z</time>
      </trkpt>
      <trkpt lat="45.3396" lon="7.57964">
        <ele>573.53</ele>
        <time>2017-01-08T07:08:27Z</time>
      </trkpt>
      <trkpt lat="45.33952" lon="7.58001">
        <ele>575.73</ele>
        <time>2017-01-08T07:08:28Z</time>
      </trkpt>
      <trkpt lat="45.33948" lon="7.58035">
        <ele>574.06</ele>
        <time>2017-01-08T07:08:30Z</time>
      </trkpt>
      <trkpt lat="45.33945" lon="7.58065">
        <ele>571.51</ele>
        <time>2017-01-08T07:08:31Z</time>
      </trkpt>
      <trkpt lat="45.33951" lon="7.5809">
        <ele>569.83</ele>
        <time>2017-01-08T07:08:32Z</time>
      </trkpt>
      <trkpt lat="45.33964" lon="7.5812">
        <ele>567.82</ele>
        <time>2017-01-08T07:08:33Z</time>
      </trkpt>
      <trkpt lat="45.33967" lon="7.58148">
        <ele>566.74</ele>
        <time>2017-01-08T07:08:34Z</time>
      </trkpt>
      <trkpt lat="45.33976" lon="7.58172">
        <ele>564.96</ele>
        <time>2017-01-08T07:08:35Z</time>
      </trkpt>
      <trkpt lat="45.33969" lon="7.58206">
        <ele>562.4</ele>
        <time>2017-01-08T07:08:37Z</time>
      </trkpt>
      <trkpt lat="45.33963" lon="7.58231">
        <ele>558.1</ele>
        <time>2017-01-08T07:08:38Z</time>
      </trkpt>
      <trkpt lat="45.33965" lon="7.58265">
        <ele>556.7</ele>
        <time>2017-01-08T07:08:39Z</time>
      </trkpt>
      <trkpt lat="45.33964" lon="7.58295">
        <ele>557.62</ele>
        <time>2017-01-08T07:08:40Z</time>
      </trkpt>
      <trkpt lat="45.33959" lon="7.58321">
        <ele>558.74</ele>
        <time>2017-01-08T07:08:41Z</time>
      </trkpt>
      <trkpt lat="45.33949" lon="7.58356">
        <ele>561.84</ele>
        <time>2017-01-08T07:08:43Z</time>
      </trkpt>
      <trkpt lat="45.33938" lon="7.58389">
        <ele>563.23</ele>
        <time>2017-01-08T07:08:44Z</time>
      </trkpt>
      <trkpt lat="45.3393" lon="7.58417">
        <ele>564.43</ele>
        <time>2017-01-08T07:08:45Z</time>
      </trkpt>
      <trkpt lat="45.3392" lon="7.58445">
        <ele>565.87</ele>
        <time>2017-01-08T07:08:46Z</time>
      </trkpt>
      <trkpt lat="45.33905" lon="7.58476">
        <ele>567.65</ele>
        <time>2017-01-08T07:08:48Z</time>
      </trkpt>
      <trkpt lat="45.33887" lon="7.58493">
        <ele>566.22</ele>
        <time>2017-01-08T07:08:49Z</time>
      </trkpt>
      <trkpt lat="45.33874" lon="7.58517">
        <ele>566.93</ele>
        <time>2017-01-08T07:08:50Z</time>
      </trkpt>
      <trkpt lat="45.3387" lon="7.58545">
        <ele>568.09</ele>
        <time>2017-01-08T07:08:51Z</time>
      </trkpt>
      <trkpt lat="45.33862" lon="7.58568">
        <ele>568.02</ele>
        <time>2017-01-08T07:08:52Z</time>
      </trkpt>
      <trkpt lat="45.33847" lon="7.58588">
        <ele>566.09</ele>
        <time>2017-01-08T07:08:53Z</time>
      </trkpt>
      <trkpt lat="45.3385" lon="7.58615">
        <ele>564.45</ele>
        <time>2017-01-08T07:08:54Z</time>
      </trkpt>
      <trkpt lat="45.33859" lon="7.58638">
        <ele>563.05</ele>
        <time>2017-01-08T07:08:55Z</time>
      </trkpt>
      <trkpt lat="45.33876" lon="7.58646">
        <ele>563.16</ele>
        <time>2017-01-08T07:08:56Z</time>
      </trkpt>
      <trkpt lat="45.33892" lon="7.58671">
        <ele>563.06</ele>
        <time>2017-01-08T07:08:58Z</time>
      </trkpt>
      <trkpt lat="45.33903" lon="7.58692">
        <ele>563.54</ele>
        <time>2017-01-08T07:08:59Z</time>
      </trkpt>
      <trkpt lat="45.33925" lon="7.58708">
        <ele>565.42</ele>
        <time>2017-01-08T07:09:00Z</time>
      </trkpt>
      <trkpt lat="45.33943" lon="7.58715">
        <ele>567.14</ele>
        <time>2017-01-08T07:09:01Z</time>
      </trkpt>
      <trkpt lat="45.33965" lon="7.58722">
        <ele>568.48</ele>
        <time>2017-01-08T07:09:02Z</time>
      </trkpt>
      <trkpt lat="45.33987" lon="7.58724">
        <ele>568.93</ele>
        <time>2017-01-08T07:09:04Z</time>
      </trkpt>
      <trkpt lat="45.34001" lon="7.58707">
        <ele>570.05</ele>
        <time>2017-01-08T07:09:05Z</time>
      </trkpt>
      <trkpt lat="45.34014" lon="7.58687">
        <ele>570.53</ele>
        <time>2017-01-08T07:09:06Z</time>
      </trkpt>
      <trkpt lat="45.34034" lon="7.58663">
        <ele>570.44</ele>
        <time>2017-01-08T07:09:07Z</time>
      </trkpt>
      <trkpt lat="45.34057" lon="7.58633">
        <ele>570.29</ele>
        <time>2017-01-08T07:09:09Z</time>
      </trkpt>
      <trkpt lat="45.34078" lon="7.586">
        <ele>571.82</ele>
        <time>2017-01-08T07:09:10Z</time>
      </trkpt>
      <trkpt lat="45.341" lon="7.58566">
        <ele>574.05</ele>
        <time>2017-01-08T07:09:12Z</time>
      </trkpt>
      <trkpt lat="45.34122" lon="7.58534">
        <ele>574.88</ele>
        <time>2017-01-08T07:09:14Z</time>
      </trkpt>
      <trkpt lat="45.34142" lon="7.5851">
        <ele>578.56</ele>
        <time>2017-01-08T07:09:15Z</time>
      </trkpt>
      <trkpt lat="45.34162" lon="7.58492">
        <ele>580.89</ele>
        <time>2017-01-08T07:09:17Z</time>
      </trkpt>
      <trkpt lat="45.34184" lon="7.58478">
        <ele>581.06</ele>
        <time>2017-01-08T07:09:18Z</time>
      </trkpt>
      <trkpt lat="45.34204" lon="7.58462">
        <ele>581.57</ele>
        <time>2017-01-08T07:09:19Z</time>
      </trkpt>
      <trkpt lat="45.34223" lon="7.58435">
        <ele>584.32</ele>
        <time>2017-01-08T07:09:21Z</time>
      </trkpt>
      <trkpt lat="45.34241" lon="7.58417">
        <ele>586.24</ele>
        <time>2017-01-08T07:09:22Z</time>
      </trkpt>
      <trkpt lat="45.3426" lon="7.58395">
        <ele>590.02</ele>
        <time>2017-01-08T07:09:23Z</time>
      </trkpt>
      <trkpt lat="45.34281" lon="7.58369">
        <ele>592.45</ele>
        <time>2017-01-08T07:09:25Z</time>
      </trkpt>
      <trkpt lat="45.34304" lon="7.58345">
        <ele>593.45</ele>
        <time>2017-01-08T07:09:26Z</time>
      </trkpt>
      <trkpt lat="45.34324" lon="7.58322">
        <ele>593.98</ele>
        <time>2017-01-08T07:09:28Z</time>
      </trkpt>
      <trkpt lat="45.34343" lon="7.58299">
        <ele>595.45</ele>
        <time>2017-01-08T07:09:29Z</time>
      </trkpt>
      <trkpt lat="45.34363" lon="7.5828">
        <ele>597.59</ele>
        <time>2017-01-08T07:09:30Z</time>
      </trkpt>
      <trkpt lat="45.34385" lon="7.58266">
        <ele>599.56</ele>
        <time>2017-01-08T07:09:32Z</time>
      </trkpt>
      <trkpt lat="45.34407" lon="7.58257">
        <ele>601.73</ele>
        <time>2017-01-08T07:09:33Z</time>
      </trkpt>
      <trkpt lat="45.34428" lon="7.58243">
        <ele>605.13</ele>
        <time>2017-01-08T07:09:34Z</time>
      </trkpt>
      <trkpt lat="45.3445" lon="7.5823">
        <ele>607.56</ele>
        <time>2017-01-08T07:09:36Z</time>
      </trkpt>
      <trkpt lat="45.34471" lon="7.58216">
        <ele>609.18</ele>
        <time>2017-01-08T07:09:37Z</time>
      </trkpt>
      <trkpt lat="45.34488" lon="7.58197">
        <ele>610.16</ele>
        <time>2017-01-08T07:09:38Z</time>
      </trkpt>
      <trkpt lat="45.34503" lon="7.58176">
        <ele>611.95</ele>
        <time>2017-01-08T07:09:39Z</time>
      </trkpt>
      <trkpt lat="45.3452" lon="7.58151">
        <ele>612.82</ele>
        <time>2017-01-08T07:09:41Z</time>
      </trkpt>
      <trkpt lat="45.34521" lon="7.58117">
        <ele>615.66</ele>
        <time>2017-01-08T07:09:42Z</time>
      </trkpt>
      <trkpt lat="45.34518" lon="7.58083">
        <ele>618.38</ele>
        <time>2017-01-08T07:09:43Z</time>
      </trkpt>
      <trkpt lat="45.34521" lon="7.58047">
        <ele>620.63</ele>
        <time>2017-01-08T07:09:45Z</time>
      </trkpt>
      <trkpt lat="45.34524" lon="7.58015">
        <ele>624.02</ele>
        <time>2017-01-08T07:09:46Z</time>
      </trkpt>
      <trkpt lat="45.34534" lon="7.57985">
        <ele>627.8</ele>
        <time>2017-01-08T07:09:47Z</time>
      </trkpt>
      <trkpt lat="45.3455" lon="7.57957">
        <ele>631.3</ele>
        <time>2017-01-08T07:09:49Z</time>
      </trkpt>
      <trkpt lat="45.3457" lon="7.57935">
        <ele>633.74</ele>
        <time>2017-01-08T07:09:50Z</time>
      </trkpt>
      <trkpt lat="45.34592" lon="7.57919">
        <ele>635.67</ele>
        <time>2017-01-08T07:09:51Z</time>
      </trkpt>
      <trkpt lat="45.34613" lon="7.57907">
        <ele>637.39</ele>
        <time>2017-01-08T07:09:52Z</time>
      </trkpt>
      <trkpt lat="45.34633" lon="7.57893">
        <ele>639.48</ele>
        <time>2017-01-08T07:09:54Z</time>
      </trkpt>
      <trkpt lat="45.34653" lon="7.57874">
        <ele>641.31</ele>
        <time>2017-01-08T07:09:55Z</time>
      </trkpt>
      <trkpt lat="45.34667" lon="7.57854">
        <ele>642.27</ele>
        <time>2017-01-08T07:09:56Z</time>
      </trkpt>
      <trkpt lat="45.34666" lon="7.57814">
        <ele>643.08</ele>
        <time>2017-01-08T07:09:58Z</time>
      </trkpt>
      <trkpt lat="45.34658" lon="7.57783">
        <ele>643.09</ele>
        <time>2017-01-08T07:09:59Z</time>
      </trkpt>
      <trkpt lat="45.34648" lon="7.57758">
        <ele>644.8</ele>
        <time>2017-01-08T07:10:00Z</time>
      </trkpt>
      <trkpt lat="45.34643" lon="7.57733">
        <ele>646.79</ele>
        <time>2017-01-08T07:10:01Z</time>
      </trkpt>
      <trkpt lat="45.34641" lon="7.57705">
        <ele>649.56</ele>
        <time>2017-01-08T07:10:02Z</time>
      </trkpt>
      <trkpt lat="45.34642" lon="7.57675">
        <ele>650.73</ele>
        <time>2017-01-08T07:10:03Z</time>
      </trkpt>
      <trkpt lat="45.34646" lon="7.57644">
        <ele>651.52</ele>
        <time>2017-01-08T07:10:04Z</time>
      </trkpt>
      <trkpt lat="45.34652" lon="7.57597">
        <ele>654.25</ele>
        <time>2017-01-08T07:10:06Z</time>
      </trkpt>
      <trkpt lat="45.34657" lon="7.57565">
        <ele>656.18</ele>
        <time>2017-01-08T07:10:08Z</time>
      </trkpt>
      <trkpt lat="45.34662" lon="7.57535">
        <ele>658.33</ele>
        <time>2017-01-08T07:10:09Z</time>
      </trkpt>
      <trkpt lat="45.34667" lon="7.57501">
        <ele>659.96</ele>
        <time>2017-01-08T07:10:10Z</time>
      </trkpt>
      <trkpt lat="45.3467" lon="7.57471">
        <ele>659.49</ele>
        <time>2017-01-08T07:10:11Z</time>
      </trkpt>
      <trkpt lat="45.34661" lon="7.57441">
        <ele>657.11</ele>
        <time>2017-01-08T07:10:13Z</time>
      </trkpt>
      <trkpt lat="45.34643" lon="7.57422">
        <ele>657.67</ele>
        <time>2017-01-08T07:10:14Z</time>
      </trkpt>
      <trkpt lat="45.34629" lon="7.57406">
        <ele>657.64</ele>
        <time>2017-01-08T07:10:15Z</time>
      </trkpt>
      <trkpt lat="45.34611" lon="7.5738">
        <ele>658</ele>
        <time>2017-01-08T07:10:16Z</time>
      </trkpt>
      <trkpt lat="45.34605" lon="7.57355">
        <ele>656.49</ele>
        <time>2017-01-08T07:10:17Z</time>
      </trkpt>
      <trkpt lat="45.34605" lon="7.57329">
        <ele>654.76</ele>
        <time>2017-01-08T07:10:18Z</time>
      </trkpt>
      <trkpt lat="45.34612" lon="7.57301">
        <ele>652.92</ele>
        <time>2017-01-08T07:10:19Z</time>
      </trkpt>
      <trkpt lat="45.34623" lon="7.57276">
        <ele>652.75</ele>
        <time>2017-01-08T07:10:20Z</time>
      </trkpt>
      <trkpt lat="45.34643" lon="7.57252">
        <ele>653.86</ele>
        <time>2017-01-08T07:10:22Z</time>
      </trkpt>
      <trkpt lat="45.34665" lon="7.57242">
        <ele>654.9</ele>
        <time>2017-01-08T07:10:23Z</time>
      </trkpt>
      <trkpt lat="45.34691" lon="7.57231">
        <ele>655.5</ele>
        <time>2017-01-08T07:10:25Z</time>
      </trkpt>
      <trkpt lat="45.34712" lon="7.57223">
        <ele>657.25</ele>
        <time>2017-01-08T07:10:26Z</time>
      </trkpt>
      <trkpt lat="45.34729" lon="7.57214">
        <ele>657.18</ele>
        <time>2017-01-08T07:10:27Z</time>
      </trkpt>
      <trkpt lat="45.34752" lon="7.57195">
        <ele>652.57</ele>
        <time>2017-01-08T07:10:28Z</time>
      </trkpt>
      <trkpt lat="45.34756" lon="7.57166">
        <ele>652.9</ele>
        <time>2017-01-08T07:10:29Z</time>
      </trkpt>
      <trkpt lat="45.34762" lon="7.57132">
        <ele>653.8</ele>
        <time>2017-01-08T07:10:31Z</time>
      </trkpt>
      <trkpt lat="45.34769" lon="7.57098">
        <ele>654.52</ele>
        <time>2017-01-08T07:10:32Z</time>
      </trkpt>
      <trkpt lat="45.34775" lon="7.5707">
        <ele>655.35</ele>
        <time>2017-01-08T07:10:33Z</time>
      </trkpt>
      <trkpt lat="45.34784" lon="7.57046">
        <ele>657.31</ele>
        <time>2017-01-08T07:10:34Z</time>
      </trkpt>
      <trkpt lat="45.34803" lon="7.57051">
        <ele>659.04</ele>
        <time>2017-01-08T07:10:35Z</time>
      </trkpt>
      <trkpt lat="45.34819" lon="7.57068">
        <ele>659.76</ele>
        <time>2017-01-08T07:10:36Z</time>
      </trkpt>
      <trkpt lat="45.34835" lon="7.57084">
        <ele>661.14</ele>
        <time>2017-01-08T07:10:37Z</time>
      </trkpt>
      <trkpt lat="45.34855" lon="7.57091">
        <ele>663.85</ele>
        <time>2017-01-08T07:10:39Z</time>
      </trkpt>
      <trkpt lat="45.3488" lon="7.57086">
        <ele>666.84</ele>
        <time>2017-01-08T07:10:40Z</time>
      </trkpt>
      <trkpt lat="45.34903" lon="7.57069">
        <ele>669.55</ele>
        <time>2017-01-08T07:10:41Z</time>
      </trkpt>
      <trkpt lat="45.34923" lon="7.57051">
        <ele>672</ele>
        <time>2017-01-08T07:10:43Z</time>
      </trkpt>
      <trkpt lat="45.34939" lon="7.57021">
        <ele>677.42</ele>
        <time>2017-01-08T07:10:44Z</time>
      </trkpt>
      <trkpt lat="45.34955" lon="7.57004">
        <ele>680.79</ele>
        <time>2017-01-08T07:10:45Z</time>
      </trkpt>
      <trkpt lat="45.34973" lon="7.57019">
        <ele>677.51</ele>
        <time>2017-01-08T07:10:46Z</time>
      </trkpt>
      <trkpt lat="45.34983" lon="7.57044">
        <ele>673.53</ele>
        <time>2017-01-08T07:10:47Z</time>
      </trkpt>
      <trkpt lat="45.34996" lon="7.57082">
        <ele>669.81</ele>
        <time>2017-01-08T07:10:49Z</time>
      </trkpt>
      <trkpt lat="45.35001" lon="7.57115">
        <ele>667.15</ele>
        <time>2017-01-08T07:10:50Z</time>
      </trkpt>
      <trkpt lat="45.35009" lon="7.57155">
        <ele>666.83</ele>
        <time>2017-01-08T07:10:52Z</time>
      </trkpt>
      <trkpt lat="45.35016" lon="7.57186">
        <ele>666.43</ele>
        <time>2017-01-08T07:10:53Z</time>
      </trkpt>
      <trkpt lat="45.3503" lon="7.57208">
        <ele>667.32</ele>
        <time>2017-01-08T07:10:54Z</time>
      </trkpt>
      <trkpt lat="45.35047" lon="7.57216">
        <ele>669.79</ele>
        <time>2017-01-08T07:10:55Z</time>
      </trkpt>
      <trkpt lat="45.35065" lon="7.5722">
        <ele>673.8</ele>
        <time>2017-01-08T07:10:56Z</time>
      </trkpt>
      <trkpt lat="45.3508" lon="7.5724">
        <ele>678.59</ele>
        <time>2017-01-08T07:10:58Z</time>
      </trkpt>
      <trkpt lat="45.35064" lon="7.57266">
        <ele>672.54</ele>
        <time>2017-01-08T07:10:59Z</time>
      </trkpt>
      <trkpt lat="45.35053" lon="7.57294">
        <ele>666.49</ele>
        <time>2017-01-08T07:11:00Z</time>
      </trkpt>
      <trkpt lat="45.35048" lon="7.57326">
        <ele>662.88</ele>
        <time>2017-01-08T07:11:01Z</time>
      </trkpt>
      <trkpt lat="45.35047" lon="7.57359">
        <ele>662.09</ele>
        <time>2017-01-08T07:11:03Z</time>
      </trkpt>
      <trkpt lat="45.35046" lon="7.57394">
        <ele>663.29</ele>
        <time>2017-01-08T07:11:04Z</time>
      </trkpt>
      <trkpt lat="45.35044" lon="7.57426">
        <ele>664.43</ele>
        <time>2017-01-08T07:11:05Z</time>
      </trkpt>
      <trkpt lat="45.3504" lon="7.57456">
        <ele>663.61</ele>
        <time>2017-01-08T07:11:06Z</time>
      </trkpt>
      <trkpt lat="45.35036" lon="7.57482">
        <ele>661.32</ele>
        <time>2017-01-08T07:11:07Z</time>
      </trkpt>
      <trkpt lat="45.35037" lon="7.57518">
        <ele>660.64</ele>
        <time>2017-01-08T07:11:09Z</time>
      </trkpt>
      <trkpt lat="45.35033" lon="7.57551">
        <ele>656.57</ele>
        <time>2017-01-08T07:19:23Z</time>
      </trkpt>
      <trkpt lat="45.35039" lon="7.5758">
        <ele>656.16</ele>
        <time>2017-01-08T07:19:24Z</time>
      </trkpt>
      <trkpt lat="45.35043" lon="7.57616">
        <ele>651.87</ele>
        <time>2017-01-08T07:19:26Z</time>
      </trkpt>
      <trkpt lat="45.3505" lon="7.57639">
        <ele>649.51</ele>
        <time>2017-01-08T07:19:27Z</time>
      </trkpt>
      <trkpt lat="45.35062" lon="7.57661">
        <ele>647.34</ele>
        <time>2017-01-08T07:19:28Z</time>
      </trkpt>
      <trkpt lat="45.3507" lon="7.57685">
        <ele>645.62</ele>
        <time>2017-01-08T07:19:29Z</time>
      </trkpt>
      <trkpt lat="45.35072" lon="7.57717">
        <ele>642.97</ele>
        <time>2017-01-08T07:19:30Z</time>
      </trkpt>
      <trkpt lat="45.35071" lon="7.57756">
        <ele>642.41</ele>
        <time>2017-01-08T07:19:31Z</time>
      </trkpt>
      <trkpt lat="45.3507" lon="7.5779">
        <ele>641.74</ele>
        <time>2017-01-08T07:19:33Z</time>
      </trkpt>
      <trkpt lat="45.35064" lon="7.57819">
        <ele>638.24</ele>
        <time>2017-01-08T07:19:34Z</time>
      </trkpt>
      <trkpt lat="45.35052" lon="7.57847">
        <ele>633.28</ele>
        <time>2017-01-08T07:19:35Z</time>
      </trkpt>
      <trkpt lat="45.35035" lon="7.57874">
        <ele>627.84</ele>
        <time>2017-01-08T07:19:37Z</time>
      </trkpt>
      <trkpt lat="45.35022" lon="7.57903">
        <ele>625.46</ele>
        <time>2017-01-08T07:19:38Z</time>
      </trkpt>
      <trkpt lat="45.35011" lon="7.57935">
        <ele>623.54</ele>
        <time>2017-01-08T07:19:39Z</time>
      </trkpt>
      <trkpt lat="45.35002" lon="7.57968">
        <ele>620.65</ele>
        <time>2017-01-08T07:19:41Z</time>
      </trkpt>
      <trkpt lat="45.34988" lon="7.57996">
        <ele>617.83</ele>
        <time>2017-01-08T07:19:42Z</time>
      </trkpt>
      <trkpt lat="45.34971" lon="7.58022">
        <ele>614.97</ele>
        <time>2017-01-08T07:19:43Z</time>
      </trkpt>
      <trkpt lat="45.34954" lon="7.58046">
        <ele>612.61</ele>
        <time>2017-01-08T07:19:45Z</time>
      </trkpt>
      <trkpt lat="45.34942" lon="7.5807">
        <ele>610.93</ele>
        <time>2017-01-08T07:19:46Z</time>
      </trkpt>
      <trkpt lat="45.34932" lon="7.58092">
        <ele>609.59</ele>
        <time>2017-01-08T07:19:47Z</time>
      </trkpt>
      <trkpt lat="45.34938" lon="7.58128">
        <ele>607.42</ele>
        <time>2017-01-08T07:19:48Z</time>
      </trkpt>
      <trkpt lat="45.34964" lon="7.58143">
        <ele>605.34</ele>
        <time>2017-01-08T07:19:50Z</time>
      </trkpt>
      <trkpt lat="45.34986" lon="7.58152">
        <ele>605.91</ele>
        <time>2017-01-08T07:19:51Z</time>
      </trkpt>
      <trkpt lat="45.35002" lon="7.58174">
        <ele>606.26</ele>
        <time>2017-01-08T07:19:52Z</time>
      </trkpt>
      <trkpt lat="45.34993" lon="7.58202">
        <ele>604.31</ele>
        <time>2017-01-08T07:19:53Z</time>
      </trkpt>
      <trkpt lat="45.34975" lon="7.58227">
        <ele>599.11</ele>
        <time>2017-01-08T07:19:55Z</time>
      </trkpt>
      <trkpt lat="45.34952" lon="7.58249">
        <ele>597.02</ele>
        <time>2017-01-08T07:19:56Z</time>
      </trkpt>
      <trkpt lat="45.3493" lon="7.5827">
        <ele>594.72</ele>
        <time>2017-01-08T07:19:58Z</time>
      </trkpt>
      <trkpt lat="45.34912" lon="7.58292">
        <ele>592.95</ele>
        <time>2017-01-08T07:19:59Z</time>
      </trkpt>
      <trkpt lat="45.34897" lon="7.5831">
        <ele>590.97</ele>
        <time>2017-01-08T07:20:00Z</time>
      </trkpt>
      <trkpt lat="45.34885" lon="7.5834">
        <ele>588.65</ele>
        <time>2017-01-08T07:20:01Z</time>
      </trkpt>
      <trkpt lat="45.34878" lon="7.58375">
        <ele>588</ele>
        <time>2017-01-08T07:20:03Z</time>
      </trkpt>
      <trkpt lat="45.3488" lon="7.5841">
        <ele>588.78</ele>
        <time>2017-01-08T07:20:04Z</time>
      </trkpt>
      <trkpt lat="45.3489" lon="7.58437">
        <ele>590.2</ele>
        <time>2017-01-08T07:20:05Z</time>
      </trkpt>
      <trkpt lat="45.34911" lon="7.5846">
        <ele>592.71</ele>
        <time>2017-01-08T07:20:07Z</time>
      </trkpt>
      <trkpt lat="45.34928" lon="7.58473">
        <ele>594.53</ele>
        <time>2017-01-08T07:20:08Z</time>
      </trkpt>
      <trkpt lat="45.34946" lon="7.58477">
        <ele>596.46</ele>
        <time>2017-01-08T07:20:09Z</time>
      </trkpt>
      <trkpt lat="45.3497" lon="7.58477">
        <ele>596.51</ele>
        <time>2017-01-08T07:20:10Z</time>
      </trkpt>
      <trkpt lat="45.34987" lon="7.58466">
        <ele>595.37</ele>
        <time>2017-01-08T07:20:11Z</time>
      </trkpt>
      <trkpt lat="45.34997" lon="7.58444">
        <ele>596.36</ele>
        <time>2017-01-08T07:20:12Z</time>
      </trkpt>
      <trkpt lat="45.3498" lon="7.58462">
        <ele>596.76</ele>
        <time>2017-01-08T07:20:13Z</time>
      </trkpt>
      <trkpt lat="45.34957" lon="7.58472">
        <ele>597.03</ele>
        <time>2017-01-08T07:20:15Z</time>
      </trkpt>
      <trkpt lat="45.34935" lon="7.58471">
        <ele>595.67</ele>
        <time>2017-01-08T07:20:16Z</time>
      </trkpt>
      <trkpt lat="45.34912" lon="7.5846">
        <ele>592.89</ele>
        <time>2017-01-08T07:20:17Z</time>
      </trkpt>
      <trkpt lat="45.34896" lon="7.58442">
        <ele>590.95</ele>
        <time>2017-01-08T07:20:18Z</time>
      </trkpt>
      <trkpt lat="45.34877" lon="7.58444">
        <ele>588.29</ele>
        <time>2017-01-08T07:20:19Z</time>
      </trkpt>
      <trkpt lat="45.34866" lon="7.58465">
        <ele>586.67</ele>
        <time>2017-01-08T07:20:20Z</time>
      </trkpt>
      <trkpt lat="45.34852" lon="7.58493">
        <ele>585.6</ele>
        <time>2017-01-08T07:20:22Z</time>
      </trkpt>
      <trkpt lat="45.34857" lon="7.5852">
        <ele>585.17</ele>
        <time>2017-01-08T07:20:23Z</time>
      </trkpt>
      <trkpt lat="45.34867" lon="7.58544">
        <ele>584.34</ele>
        <time>2017-01-08T07:20:24Z</time>
      </trkpt>
      <trkpt lat="45.34874" lon="7.58575">
        <ele>582.96</ele>
        <time>2017-01-08T07:20:25Z</time>
      </trkpt>
      <trkpt lat="45.34873" lon="7.58605">
        <ele>580.87</ele>
        <time>2017-01-08T07:20:26Z</time>
      </trkpt>
      <trkpt lat="45.34868" lon="7.5863">
        <ele>579.4</ele>
        <time>2017-01-08T07:20:27Z</time>
      </trkpt>
      <trkpt lat="45.34857" lon="7.58656">
        <ele>578.92</ele>
        <time>2017-01-08T07:20:28Z</time>
      </trkpt>
      <trkpt lat="45.34846" lon="7.58684">
        <ele>577.24</ele>
        <time>2017-01-08T07:20:30Z</time>
      </trkpt>
      <trkpt lat="45.34837" lon="7.58708">
        <ele>574.62</ele>
        <time>2017-01-08T07:20:31Z</time>
      </trkpt>
      <trkpt lat="45.34823" lon="7.58729">
        <ele>572.19</ele>
        <time>2017-01-08T07:20:32Z</time>
      </trkpt>
      <trkpt lat="45.34843" lon="7.58735">
        <ele>572.27</ele>
        <time>2017-01-08T07:20:33Z</time>
      </trkpt>
      <trkpt lat="45.34869" lon="7.58726">
        <ele>573.4</ele>
        <time>2017-01-08T07:20:34Z</time>
      </trkpt>
      <trkpt lat="45.34891" lon="7.58716">
        <ele>573.59</ele>
        <time>2017-01-08T07:20:36Z</time>
      </trkpt>
      <trkpt lat="45.34913" lon="7.58707">
        <ele>572.89</ele>
        <time>2017-01-08T07:20:37Z</time>
      </trkpt>
      <trkpt lat="45.34936" lon="7.58701">
        <ele>572.25</ele>
        <time>2017-01-08T07:20:38Z</time>
      </trkpt>
      <trkpt lat="45.34958" lon="7.58698">
        <ele>571.89</ele>
        <time>2017-01-08T07:20:39Z</time>
      </trkpt>
      <trkpt lat="45.34981" lon="7.58698">
        <ele>571.55</ele>
        <time>2017-01-08T07:20:41Z</time>
      </trkpt>
      <trkpt lat="45.35008" lon="7.58695">
        <ele>571</ele>
        <time>2017-01-08T07:20:42Z</time>
      </trkpt>
      <trkpt lat="45.35039" lon="7.58686">
        <ele>572.25</ele>
        <time>2017-01-08T07:20:44Z</time>
      </trkpt>
      <trkpt lat="45.35066" lon="7.58677">
        <ele>573.15</ele>
        <time>2017-01-08T07:20:45Z</time>
      </trkpt>
      <trkpt lat="45.35091" lon="7.5867">
        <ele>572.83</ele>
        <time>2017-01-08T07:20:47Z</time>
      </trkpt>
      <trkpt lat="45.35117" lon="7.58667">
        <ele>570.75</ele>
        <time>2017-01-08T07:20:48Z</time>
      </trkpt>
      <trkpt lat="45.3514" lon="7.58673">
        <ele>569.62</ele>
        <time>2017-01-08T07:20:50Z</time>
      </trkpt>
      <trkpt lat="45.35162" lon="7.58684">
        <ele>569.85</ele>
        <time>2017-01-08T07:20:51Z</time>
      </trkpt>
      <trkpt lat="45.35183" lon="7.58699">
        <ele>570</ele>
        <time>2017-01-08T07:20:52Z</time>
      </trkpt>
      <trkpt lat="45.35207" lon="7.58717">
        <ele>569.91</ele>
        <time>2017-01-08T07:20:54Z</time>
      </trkpt>
      <trkpt lat="45.35226" lon="7.58737">
        <ele>569.23</ele>
        <time>2017-01-08T07:20:55Z</time>
      </trkpt>
      <trkpt lat="45.35241" lon="7.58764">
        <ele>568.02</ele>
        <time>2017-01-08T07:20:56Z</time>
      </trkpt>
      <trkpt lat="45.35248" lon="7.58799">
        <ele>568.53</ele>
        <time>2017-01-08T07:20:58Z</time>
      </trkpt>
      <trkpt lat="45.35246" lon="7.58834">
        <ele>568.56</ele>
        <time>2017-01-08T07:20:59Z</time>
      </trkpt>
      <trkpt lat="45.35242" lon="7.58869">
        <ele>567.7</ele>
        <time>2017-01-08T07:21:00Z</time>
      </trkpt>
      <trkpt lat="45.35243" lon="7.58901">
        <ele>569.23</ele>
        <time>2017-01-08T07:21:02Z</time>
      </trkpt>
      <trkpt lat="45.35254" lon="7.58931">
        <ele>572.17</ele>
        <time>2017-01-08T07:21:03Z</time>
      </trkpt>
      <trkpt lat="45.35271" lon="7.58954">
        <ele>575.6</ele>
        <time>2017-01-08T07:21:04Z</time>
      </trkpt>
      <trkpt lat="45.3529" lon="7.58981">
        <ele>577.54</ele>
        <time>2017-01-08T07:21:06Z</time>
      </trkpt>
      <trkpt lat="45.35289" lon="7.59007">
        <ele>576.11</ele>
        <time>2017-01-08T07:21:07Z</time>
      </trkpt>
      <trkpt lat="45.35286" lon="7.59034">
        <ele>576.05</ele>
        <time>2017-01-08T07:21:08Z</time>
      </trkpt>
      <trkpt lat="45.35274" lon="7.59069">
        <ele>579.02</ele>
        <time>2017-01-08T07:21:09Z</time>
      </trkpt>
      <trkpt lat="45.35272" lon="7.59109">
        <ele>584.02</ele>
        <time>2017-01-08T07:21:11Z</time>
      </trkpt>
      <trkpt lat="45.3527" lon="7.59147">
        <ele>588.26</ele>
        <time>2017-01-08T07:21:12Z</time>
      </trkpt>
      <trkpt lat="45.35269" lon="7.59186">
        <ele>587.75</ele>
        <time>2017-01-08T07:21:14Z</time>
      </trkpt>
      <trkpt lat="45.35271" lon="7.59226">
        <ele>591.42</ele>
        <time>2017-01-08T07:21:15Z</time>
      </trkpt>
      <trkpt lat="45.35275" lon="7.59266">
        <ele>594.11</ele>
        <time>2017-01-08T07:21:17Z</time>
      </trkpt>
      <trkpt lat="45.35274" lon="7.59305">
        <ele>594.84</ele>
        <time>2017-01-08T07:21:18Z</time>
      </trkpt>
      <trkpt lat="45.35274" lon="7.59341">
        <ele>596.67</ele>
        <time>2017-01-08T07:21:20Z</time>
      </trkpt>
      <trkpt lat="45.35275" lon="7.59373">
        <ele>600.12</ele>
        <time>2017-01-08T07:21:21Z</time>
      </trkpt>
      <trkpt lat="45.35276" lon="7.59404">
        <ele>603.13</ele>
        <time>2017-01-08T07:21:22Z</time>
      </trkpt>
      <trkpt lat="45.35276" lon="7.59436">
        <ele>605.91</ele>
        <time>2017-01-08T07:21:23Z</time>
      </trkpt>
      <trkpt lat="45.35277" lon="7.59473">
        <ele>606.7</ele>
        <time>2017-01-08T07:21:25Z</time>
      </trkpt>
      <trkpt lat="45.35278" lon="7.59503">
        <ele>608.55</ele>
        <time>2017-01-08T07:21:26Z</time>
      </trkpt>
      <trkpt lat="45.35265" lon="7.59535">
        <ele>609.2</ele>
        <time>2017-01-08T07:21:27Z</time>
      </trkpt>
      <trkpt lat="45.35245" lon="7.59545">
        <ele>607.4</ele>
        <time>2017-01-08T07:21:29Z</time>
      </trkpt>
      <trkpt lat="45.3522" lon="7.59547">
        <ele>604.98</ele>
        <time>2017-01-08T07:21:30Z</time>
      </trkpt>
      <trkpt lat="45.35199" lon="7.59556">
        <ele>605.42</ele>
        <time>2017-01-08T07:21:31Z</time>
      </trkpt>
      <trkpt lat="45.35177" lon="7.59577">
        <ele>607.24</ele>
        <time>2017-01-08T07:21:33Z</time>
      </trkpt>
      <trkpt lat="45.35153" lon="7.59597">
        <ele>607.2</ele>
        <time>2017-01-08T07:21:34Z</time>
      </trkpt>
      <trkpt lat="45.35133" lon="7.59615">
        <ele>607.06</ele>
        <time>2017-01-08T07:21:35Z</time>
      </trkpt>
      <trkpt lat="45.35116" lon="7.59637">
        <ele>607.89</ele>
        <time>2017-01-08T07:21:37Z</time>
      </trkpt>
      <trkpt lat="45.351" lon="7.59668">
        <ele>611.42</ele>
        <time>2017-01-08T07:21:38Z</time>
      </trkpt>
      <trkpt lat="45.35084" lon="7.59702">
        <ele>613.1</ele>
        <time>2017-01-08T07:21:40Z</time>
      </trkpt>
      <trkpt lat="45.35072" lon="7.59729">
        <ele>611.45</ele>
        <time>2017-01-08T07:21:41Z</time>
      </trkpt>
      <trkpt lat="45.3507" lon="7.59765">
        <ele>610.96</ele>
        <time>2017-01-08T07:21:42Z</time>
      </trkpt>
      <trkpt lat="45.35074" lon="7.59793">
        <ele>610.96</ele>
        <time>2017-01-08T07:21:43Z</time>
      </trkpt>
      <trkpt lat="45.3508" lon="7.59824">
        <ele>610.7</ele>
        <time>2017-01-08T07:21:45Z</time>
      </trkpt>
      <trkpt lat="45.35086" lon="7.5985">
        <ele>609.03</ele>
        <time>2017-01-08T07:21:46Z</time>
      </trkpt>
      <trkpt lat="45.351" lon="7.59866">
        <ele>604.79</ele>
        <time>2017-01-08T07:21:47Z</time>
      </trkpt>
      <trkpt lat="45.35118" lon="7.59841">
        <ele>608.12</ele>
        <time>2017-01-08T07:21:48Z</time>
      </trkpt>
      <trkpt lat="45.35135" lon="7.59814">
        <ele>611.74</ele>
        <time>2017-01-08T07:21:49Z</time>
      </trkpt>
      <trkpt lat="45.35154" lon="7.59787">
        <ele>612.98</ele>
        <time>2017-01-08T07:21:51Z</time>
      </trkpt>
      <trkpt lat="45.3517" lon="7.59756">
        <ele>616.6</ele>
        <time>2017-01-08T07:21:52Z</time>
      </trkpt>
      <trkpt lat="45.35188" lon="7.59732">
        <ele>617.85</ele>
        <time>2017-01-08T07:21:54Z</time>
      </trkpt>
      <trkpt lat="45.35203" lon="7.59712">
        <ele>618.86</ele>
        <time>2017-01-08T07:21:55Z</time>
      </trkpt>
      <trkpt lat="45.35223" lon="7.59689">
        <ele>619.13</ele>
        <time>2017-01-08T07:21:56Z</time>
      </trkpt>
      <trkpt lat="45.35246" lon="7.59672">
        <ele>617.82</ele>
        <time>2017-01-08T07:21:58Z</time>
      </trkpt>
      <trkpt lat="45.35261" lon="7.59658">
        <ele>616.51</ele>
        <time>2017-01-08T07:21:59Z</time>
      </trkpt>
      <trkpt lat="45.35281" lon="7.5964">
        <ele>615.39</ele>
        <time>2017-01-08T07:22:00Z</time>
      </trkpt>
      <trkpt lat="45.35298" lon="7.59625">
        <ele>614.4</ele>
        <time>2017-01-08T07:22:01Z</time>
      </trkpt>
      <trkpt lat="45.3528" lon="7.59603">
        <ele>616.64</ele>
        <time>2017-01-08T07:22:02Z</time>
      </trkpt>
      <trkpt lat="45.35258" lon="7.59586">
        <ele>616.13</ele>
        <time>2017-01-08T07:22:04Z</time>
      </trkpt>
      <trkpt lat="45.35259" lon="7.59555">
        <ele>612.16</ele>
        <time>2017-01-08T07:22:05Z</time>
      </trkpt>
      <trkpt lat="45.35271" lon="7.59536">
        <ele>611.04</ele>
        <time>2017-01-08T07:22:06Z</time>
      </trkpt>
      <trkpt lat="45.35275" lon="7.5951">
        <ele>608.69</ele>
        <time>2017-01-08T07:22:07Z</time>
      </trkpt>
      <trkpt lat="45.35259" lon="7.59538">
        <ele>608.25</ele>
        <time>2017-01-08T07:22:08Z</time>
      </trkpt>
      <trkpt lat="45.3524" lon="7.59543">
        <ele>606.16</ele>
        <time>2017-01-08T07:22:09Z</time>
      </trkpt>
      <trkpt lat="45.35217" lon="7.59545">
        <ele>604.39</ele>
        <time>2017-01-08T07:22:11Z</time>
      </trkpt>
      <trkpt lat="45.35194" lon="7.59558">
        <ele>605.5</ele>
        <time>2017-01-08T07:22:12Z</time>
      </trkpt>
      <trkpt lat="45.35168" lon="7.5958">
        <ele>606.48</ele>
        <time>2017-01-08T07:22:14Z</time>
      </trkpt>
      <trkpt lat="45.35141" lon="7.59601">
        <ele>605.9</ele>
        <time>2017-01-08T07:22:15Z</time>
      </trkpt>
      <trkpt lat="45.35119" lon="7.59625">
        <ele>605.64</ele>
        <time>2017-01-08T07:22:17Z</time>
      </trkpt>
      <trkpt lat="45.351" lon="7.59659">
        <ele>609.13</ele>
        <time>2017-01-08T07:22:19Z</time>
      </trkpt>
      <trkpt lat="45.35083" lon="7.59695">
        <ele>611.94</ele>
        <time>2017-01-08T07:22:20Z</time>
      </trkpt>
      <trkpt lat="45.3507" lon="7.59724">
        <ele>610.64</ele>
        <time>2017-01-08T07:22:22Z</time>
      </trkpt>
      <trkpt lat="45.35065" lon="7.59754">
        <ele>608.95</ele>
        <time>2017-01-08T07:22:23Z</time>
      </trkpt>
      <trkpt lat="45.3507" lon="7.59793">
        <ele>609.73</ele>
        <time>2017-01-08T07:22:24Z</time>
      </trkpt>
      <trkpt lat="45.35076" lon="7.59829">
        <ele>609.49</ele>
        <time>2017-01-08T07:22:26Z</time>
      </trkpt>
      <trkpt lat="45.35087" lon="7.5986">
        <ele>607.74</ele>
        <time>2017-01-08T07:22:27Z</time>
      </trkpt>
      <trkpt lat="45.35105" lon="7.59848">
        <ele>607.88</ele>
        <time>2017-01-08T07:22:28Z</time>
      </trkpt>
      <trkpt lat="45.35124" lon="7.59822">
        <ele>611.27</ele>
        <time>2017-01-08T07:22:30Z</time>
      </trkpt>
      <trkpt lat="45.35148" lon="7.59792">
        <ele>613.25</ele>
        <time>2017-01-08T07:22:31Z</time>
      </trkpt>
      <trkpt lat="45.35169" lon="7.59762">
        <ele>615.22</ele>
        <time>2017-01-08T07:22:33Z</time>
      </trkpt>
      <trkpt lat="45.35188" lon="7.59736">
        <ele>616.83</ele>
        <time>2017-01-08T07:22:34Z</time>
      </trkpt>
      <trkpt lat="45.35204" lon="7.59716">
        <ele>618.18</ele>
        <time>2017-01-08T07:22:35Z</time>
      </trkpt>
      <trkpt lat="45.3522" lon="7.59697">
        <ele>618.78</ele>
        <time>2017-01-08T07:22:37Z</time>
      </trkpt>
      <trkpt lat="45.35238" lon="7.59682">
        <ele>617.73</ele>
        <time>2017-01-08T07:22:38Z</time>
      </trkpt>
      <trkpt lat="45.35255" lon="7.5967">
        <ele>616.82</ele>
        <time>2017-01-08T07:22:39Z</time>
      </trkpt>
      <trkpt lat="45.35269" lon="7.59655">
        <ele>615.6</ele>
        <time>2017-01-08T07:22:40Z</time>
      </trkpt>
      <trkpt lat="45.35285" lon="7.59638">
        <ele>615.08</ele>
        <time>2017-01-08T07:22:41Z</time>
      </trkpt>
      <trkpt lat="45.35302" lon="7.59627">
        <ele>613.74</ele>
        <time>2017-01-08T07:22:42Z</time>
      </trkpt>
      <trkpt lat="45.35325" lon="7.59619">
        <ele>612.18</ele>
        <time>2017-01-08T07:22:43Z</time>
      </trkpt>
      <trkpt lat="45.35345" lon="7.59608">
        <ele>612.59</ele>
        <time>2017-01-08T07:22:44Z</time>
      </trkpt>
      <trkpt lat="45.35358" lon="7.59578">
        <ele>619.24</ele>
        <time>2017-01-08T07:22:46Z</time>
      </trkpt>
      <trkpt lat="45.35375" lon="7.59558">
        <ele>620.46</ele>
        <time>2017-01-08T07:22:47Z</time>
      </trkpt>
      <trkpt lat="45.3539" lon="7.59539">
        <ele>621.22</ele>
        <time>2017-01-08T07:22:48Z</time>
      </trkpt>
      <trkpt lat="45.35401" lon="7.59517">
        <ele>622.96</ele>
        <time>2017-01-08T07:22:49Z</time>
      </trkpt>
      <trkpt lat="45.35409" lon="7.59481">
        <ele>630.33</ele>
        <time>2017-01-08T07:22:51Z</time>
      </trkpt>
      <trkpt lat="45.35419" lon="7.59458">
        <ele>636.19</ele>
        <time>2017-01-08T07:22:52Z</time>
      </trkpt>
      <trkpt lat="45.35431" lon="7.59433">
        <ele>641.03</ele>
        <time>2017-01-08T07:22:53Z</time>
      </trkpt>
      <trkpt lat="45.35444" lon="7.59413">
        <ele>643.01</ele>
        <time>2017-01-08T07:22:54Z</time>
      </trkpt>
      <trkpt lat="45.35462" lon="7.59397">
        <ele>642.77</ele>
        <time>2017-01-08T07:22:55Z</time>
      </trkpt>
      <trkpt lat="45.35481" lon="7.59378">
        <ele>642.94</ele>
        <time>2017-01-08T07:22:56Z</time>
      </trkpt>
      <trkpt lat="45.35498" lon="7.59359">
        <ele>642.93</ele>
        <time>2017-01-08T07:22:57Z</time>
      </trkpt>
      <trkpt lat="45.35515" lon="7.59337">
        <ele>646.1</ele>
        <time>2017-01-08T07:22:59Z</time>
      </trkpt>
      <trkpt lat="45.35493" lon="7.59338">
        <ele>648.5</ele>
        <time>2017-01-08T07:23:00Z</time>
      </trkpt>
      <trkpt lat="45.35475" lon="7.59353">
        <ele>649.11</ele>
        <time>2017-01-08T07:23:01Z</time>
      </trkpt>
      <trkpt lat="45.35479" lon="7.59322">
        <ele>654.26</ele>
        <time>2017-01-08T07:23:02Z</time>
      </trkpt>
      <trkpt lat="45.35501" lon="7.59297">
        <ele>657.16</ele>
        <time>2017-01-08T07:23:04Z</time>
      </trkpt>
      <trkpt lat="45.3552" lon="7.59271">
        <ele>662.9</ele>
        <time>2017-01-08T07:23:05Z</time>
      </trkpt>
      <trkpt lat="45.35533" lon="7.5925">
        <ele>668.46</ele>
        <time>2017-01-08T07:23:06Z</time>
      </trkpt>
      <trkpt lat="45.35558" lon="7.59249">
        <ele>671.76</ele>
        <time>2017-01-08T07:23:08Z</time>
      </trkpt>
      <trkpt lat="45.35576" lon="7.59255">
        <ele>672.78</ele>
        <time>2017-01-08T07:23:09Z</time>
      </trkpt>
      <trkpt lat="45.35599" lon="7.59249">
        <ele>675.93</ele>
        <time>2017-01-08T07:23:10Z</time>
      </trkpt>
      <trkpt lat="45.35617" lon="7.59239">
        <ele>678.7</ele>
        <time>2017-01-08T07:23:11Z</time>
      </trkpt>
      <trkpt lat="45.35635" lon="7.5922">
        <ele>681.92</ele>
        <time>2017-01-08T07:23:12Z</time>
      </trkpt>
      <trkpt lat="45.35652" lon="7.59196">
        <ele>686.11</ele>
        <time>2017-01-08T07:23:14Z</time>
      </trkpt>
      <trkpt lat="45.35665" lon="7.59166">
        <ele>690.2</ele>
        <time>2017-01-08T07:23:15Z</time>
      </trkpt>
      <trkpt lat="45.35678" lon="7.59136">
        <ele>691.65</ele>
        <time>2017-01-08T07:23:16Z</time>
      </trkpt>
      <trkpt lat="45.35698" lon="7.59118">
        <ele>693.28</ele>
        <time>2017-01-08T07:23:18Z</time>
      </trkpt>
      <trkpt lat="45.35719" lon="7.59109">
        <ele>694.54</ele>
        <time>2017-01-08T07:23:19Z</time>
      </trkpt>
      <trkpt lat="45.35746" lon="7.59103">
        <ele>696.77</ele>
        <time>2017-01-08T07:23:20Z</time>
      </trkpt>
      <trkpt lat="45.35779" lon="7.59098">
        <ele>699.3</ele>
        <time>2017-01-08T07:23:22Z</time>
      </trkpt>
      <trkpt lat="45.35808" lon="7.5909">
        <ele>699.33</ele>
        <time>2017-01-08T07:23:24Z</time>
      </trkpt>
      <trkpt lat="45.35829" lon="7.59075">
        <ele>699.17</ele>
        <time>2017-01-08T07:23:25Z</time>
      </trkpt>
      <trkpt lat="45.35849" lon="7.59066">
        <ele>698.66</ele>
        <time>2017-01-08T07:23:26Z</time>
      </trkpt>
      <trkpt lat="45.35872" lon="7.59071">
        <ele>697.18</ele>
        <time>2017-01-08T07:23:27Z</time>
      </trkpt>
      <trkpt lat="45.35894" lon="7.59073">
        <ele>699.35</ele>
        <time>2017-01-08T07:23:29Z</time>
      </trkpt>
      <trkpt lat="45.35918" lon="7.59064">
        <ele>703.4</ele>
        <time>2017-01-08T07:23:30Z</time>
      </trkpt>
      <trkpt lat="45.35941" lon="7.59052">
        <ele>703.74</ele>
        <time>2017-01-08T07:23:31Z</time>
      </trkpt>
      <trkpt lat="45.3596" lon="7.59027">
        <ele>702.9</ele>
        <time>2017-01-08T07:23:33Z</time>
      </trkpt>
      <trkpt lat="45.35975" lon="7.58992">
        <ele>703.9</ele>
        <time>2017-01-08T07:23:34Z</time>
      </trkpt>
      <trkpt lat="45.35989" lon="7.58947">
        <ele>708.04</ele>
        <time>2017-01-08T07:23:36Z</time>
      </trkpt>
      <trkpt lat="45.36004" lon="7.58911">
        <ele>709.32</ele>
        <time>2017-01-08T07:23:38Z</time>
      </trkpt>
      <trkpt lat="45.36014" lon="7.58886">
        <ele>712.58</ele>
        <time>2017-01-08T07:23:39Z</time>
      </trkpt>
      <trkpt lat="45.36035" lon="7.58885">
        <ele>710.91</ele>
        <time>2017-01-08T07:23:40Z</time>
      </trkpt>
      <trkpt lat="45.36047" lon="7.58907">
        <ele>706.34</ele>
        <time>2017-01-08T07:23:41Z</time>
      </trkpt>
      <trkpt lat="45.36064" lon="7.58924">
        <ele>703.04</ele>
        <time>2017-01-08T07:23:42Z</time>
      </trkpt>
      <trkpt lat="45.36086" lon="7.58923">
        <ele>706.06</ele>
        <time>2017-01-08T07:23:43Z</time>
      </trkpt>
      <trkpt lat="45.36111" lon="7.58926">
        <ele>708.52</ele>
        <time>2017-01-08T07:23:45Z</time>
      </trkpt>
      <trkpt lat="45.36133" lon="7.58941">
        <ele>707.1</ele>
        <time>2017-01-08T07:23:46Z</time>
      </trkpt>
      <trkpt lat="45.36153" lon="7.58954">
        <ele>708.05</ele>
        <time>2017-01-08T07:23:47Z</time>
      </trkpt>
      <trkpt lat="45.36172" lon="7.58969">
        <ele>707.31</ele>
        <time>2017-01-08T07:23:49Z</time>
      </trkpt>
      <trkpt lat="45.36195" lon="7.58974">
        <ele>715.7</ele>
        <time>2017-01-08T07:23:50Z</time>
      </trkpt>
      <trkpt lat="45.36212" lon="7.5899">
        <ele>716.91</ele>
        <time>2017-01-08T07:23:51Z</time>
      </trkpt>
      <trkpt lat="45.36212" lon="7.5902">
        <ele>712.54</ele>
        <time>2017-01-08T07:23:52Z</time>
      </trkpt>
      <trkpt lat="45.36224" lon="7.59049">
        <ele>711.6</ele>
        <time>2017-01-08T07:23:53Z</time>
      </trkpt>
      <trkpt lat="45.36252" lon="7.59042">
        <ele>721.37</ele>
        <time>2017-01-08T07:23:55Z</time>
      </trkpt>
      <trkpt lat="45.36271" lon="7.59026">
        <ele>730.25</ele>
        <time>2017-01-08T07:23:56Z</time>
      </trkpt>
      <trkpt lat="45.36294" lon="7.59013">
        <ele>735.56</ele>
        <time>2017-01-08T07:23:57Z</time>
      </trkpt>
      <trkpt lat="45.36314" lon="7.59011">
        <ele>737.69</ele>
        <time>2017-01-08T07:23:59Z</time>
      </trkpt>
      <trkpt lat="45.36336" lon="7.59005">
        <ele>740.58</ele>
        <time>2017-01-08T07:24:00Z</time>
      </trkpt>
      <trkpt lat="45.36358" lon="7.58985">
        <ele>740.98</ele>
        <time>2017-01-08T07:24:01Z</time>
      </trkpt>
      <trkpt lat="45.36371" lon="7.58958">
        <ele>744.12</ele>
        <time>2017-01-08T07:24:03Z</time>
      </trkpt>
      <trkpt lat="45.36389" lon="7.58946">
        <ele>747.59</ele>
        <time>2017-01-08T07:24:04Z</time>
      </trkpt>
      <trkpt lat="45.36412" lon="7.58971">
        <ele>749.83</ele>
        <time>2017-01-08T07:24:05Z</time>
      </trkpt>
      <trkpt lat="45.3643" lon="7.58988">
        <ele>749.9</ele>
        <time>2017-01-08T07:24:06Z</time>
      </trkpt>
      <trkpt lat="45.36456" lon="7.58995">
        <ele>756.16</ele>
        <time>2017-01-08T07:24:08Z</time>
      </trkpt>
      <trkpt lat="45.36476" lon="7.59011">
        <ele>757.94</ele>
        <time>2017-01-08T07:24:09Z</time>
      </trkpt>
      <trkpt lat="45.36496" lon="7.59031">
        <ele>757.23</ele>
        <time>2017-01-08T07:24:10Z</time>
      </trkpt>
      <trkpt lat="45.36514" lon="7.59052">
        <ele>755.29</ele>
        <time>2017-01-08T07:24:12Z</time>
      </trkpt>
      <trkpt lat="45.36533" lon="7.59058">
        <ele>758.6</ele>
        <time>2017-01-08T07:24:13Z</time>
      </trkpt>
      <trkpt lat="45.36554" lon="7.59054">
        <ele>763.83</ele>
        <time>2017-01-08T07:24:14Z</time>
      </trkpt>
      <trkpt lat="45.36572" lon="7.59048">
        <ele>765.7</ele>
        <time>2017-01-08T07:24:15Z</time>
      </trkpt>
      <trkpt lat="45.36592" lon="7.59058">
        <ele>766.74</ele>
        <time>2017-01-08T07:24:16Z</time>
      </trkpt>
      <trkpt lat="45.366" lon="7.59093">
        <ele>768.98</ele>
        <time>2017-01-08T07:24:18Z</time>
      </trkpt>
      <trkpt lat="45.366" lon="7.59121">
        <ele>770.84</ele>
        <time>2017-01-08T07:24:19Z</time>
      </trkpt>
      <trkpt lat="45.36609" lon="7.59091">
        <ele>769.63</ele>
        <time>2017-01-08T07:24:20Z</time>
      </trkpt>
      <trkpt lat="45.3662" lon="7.59061">
        <ele>769.69</ele>
        <time>2017-01-08T07:24:21Z</time>
      </trkpt>
      <trkpt lat="45.36627" lon="7.59036">
        <ele>769.35</ele>
        <time>2017-01-08T07:24:22Z</time>
      </trkpt>
      <trkpt lat="45.36626" lon="7.59002">
        <ele>768.48</ele>
        <time>2017-01-08T07:24:24Z</time>
      </trkpt>
      <trkpt lat="45.3662" lon="7.58975">
        <ele>769.31</ele>
        <time>2017-01-08T07:24:25Z</time>
      </trkpt>
      <trkpt lat="45.36613" lon="7.58945">
        <ele>770.61</ele>
        <time>2017-01-08T07:24:26Z</time>
      </trkpt>
      <trkpt lat="45.36601" lon="7.5892">
        <ele>771.49</ele>
        <time>2017-01-08T07:24:27Z</time>
      </trkpt>
      <trkpt lat="45.36585" lon="7.58895">
        <ele>772.79</ele>
        <time>2017-01-08T07:24:28Z</time>
      </trkpt>
      <trkpt lat="45.36573" lon="7.5887">
        <ele>774.97</ele>
        <time>2017-01-08T07:24:29Z</time>
      </trkpt>
      <trkpt lat="45.3657" lon="7.58844">
        <ele>776.98</ele>
        <time>2017-01-08T07:24:31Z</time>
      </trkpt>
      <trkpt lat="45.36579" lon="7.58819">
        <ele>776.61</ele>
        <time>2017-01-08T07:24:32Z</time>
      </trkpt>
      <trkpt lat="45.36593" lon="7.58801">
        <ele>774.2</ele>
        <time>2017-01-08T07:24:33Z</time>
      </trkpt>
      <trkpt lat="45.36605" lon="7.58778">
        <ele>772.98</ele>
        <time>2017-01-08T07:24:34Z</time>
      </trkpt>
      <trkpt lat="45.36618" lon="7.58741">
        <ele>769.62</ele>
        <time>2017-01-08T07:24:35Z</time>
      </trkpt>
      <trkpt lat="45.36629" lon="7.58695">
        <ele>768.45</ele>
        <time>2017-01-08T07:24:37Z</time>
      </trkpt>
      <trkpt lat="45.36639" lon="7.58649">
        <ele>767.07</ele>
        <time>2017-01-08T07:24:39Z</time>
      </trkpt>
      <trkpt lat="45.36647" lon="7.58606">
        <ele>763.99</ele>
        <time>2017-01-08T07:24:41Z</time>
      </trkpt>
      <trkpt lat="45.36654" lon="7.58564">
        <ele>759.35</ele>
        <time>2017-01-08T07:24:42Z</time>
      </trkpt>
      <trkpt lat="45.36656" lon="7.58525">
        <ele>758.26</ele>
        <time>2017-01-08T07:24:44Z</time>
      </trkpt>
      <trkpt lat="45.36656" lon="7.58486">
        <ele>755.47</ele>
        <time>2017-01-08T07:24:45Z</time>
      </trkpt>
      <trkpt lat="45.36654" lon="7.58438">
        <ele>754.86</ele>
        <time>2017-01-08T07:24:47Z</time>
      </trkpt>
      <trkpt lat="45.36652" lon="7.58395">
        <ele>752.53</ele>
        <time>2017-01-08T07:24:49Z</time>
      </trkpt>
      <trkpt lat="45.3665" lon="7.58359">
        <ele>750.64</ele>
        <time>2017-01-08T07:24:50Z</time>
      </trkpt>
      <trkpt lat="45.36653" lon="7.58326">
        <ele>748.85</ele>
        <time>2017-01-08T07:24:52Z</time>
      </trkpt>
      <trkpt lat="45.36665" lon="7.58293">
        <ele>744.75</ele>
        <time>2017-01-08T07:24:53Z</time>
      </trkpt>
      <trkpt lat="45.36685" lon="7.58256">
        <ele>740.9</ele>
        <time>2017-01-08T07:24:55Z</time>
      </trkpt>
      <trkpt lat="45.36708" lon="7.58226">
        <ele>740.75</ele>
        <time>2017-01-08T07:24:57Z</time>
      </trkpt>
      <trkpt lat="45.36727" lon="7.58208">
        <ele>737.36</ele>
        <time>2017-01-08T07:24:58Z</time>
      </trkpt>
      <trkpt lat="45.36747" lon="7.58198">
        <ele>732.39</ele>
        <time>2017-01-08T07:24:59Z</time>
      </trkpt>
      <trkpt lat="45.3677" lon="7.58198">
        <ele>728.67</ele>
        <time>2017-01-08T07:25:00Z</time>
      </trkpt>
      <trkpt lat="45.36794" lon="7.58202">
        <ele>726.3</ele>
        <time>2017-01-08T07:25:02Z</time>
      </trkpt>
      <trkpt lat="45.36816" lon="7.58207">
        <ele>724.66</ele>
        <time>2017-01-08T07:25:03Z</time>
      </trkpt>
      <trkpt lat="45.36837" lon="7.58211">
        <ele>723.28</ele>
        <time>2017-01-08T07:25:04Z</time>
      </trkpt>
      <trkpt lat="45.36855" lon="7.58212">
        <ele>723.3</ele>
        <time>2017-01-08T07:25:05Z</time>
      </trkpt>
      <trkpt lat="45.36874" lon="7.58215">
        <ele>724.05</ele>
        <time>2017-01-08T07:25:06Z</time>
      </trkpt>
      <trkpt lat="45.36893" lon="7.58221">
        <ele>724.74</ele>
        <time>2017-01-08T07:25:07Z</time>
      </trkpt>
      <trkpt lat="45.36911" lon="7.58223">
        <ele>723.42</ele>
        <time>2017-01-08T07:25:08Z</time>
      </trkpt>
      <trkpt lat="45.36929" lon="7.58199">
        <ele>720.88</ele>
        <time>2017-01-08T07:25:09Z</time>
      </trkpt>
      <trkpt lat="45.36944" lon="7.58176">
        <ele>718.76</ele>
        <time>2017-01-08T07:25:11Z</time>
      </trkpt>
      <trkpt lat="45.36963" lon="7.5817">
        <ele>717.69</ele>
        <time>2017-01-08T07:25:12Z</time>
      </trkpt>
      <trkpt lat="45.36964" lon="7.58206">
        <ele>718.24</ele>
        <time>2017-01-08T07:25:13Z</time>
      </trkpt>
      <trkpt lat="45.36959" lon="7.58247">
        <ele>718.04</ele>
        <time>2017-01-08T07:25:15Z</time>
      </trkpt>
      <trkpt lat="45.36961" lon="7.58288">
        <ele>715.32</ele>
        <time>2017-01-08T07:25:16Z</time>
      </trkpt>
      <trkpt lat="45.36961" lon="7.58322">
        <ele>714.26</ele>
        <time>2017-01-08T07:25:18Z</time>
      </trkpt>
      <trkpt lat="45.36955" lon="7.58354">
        <ele>712.75</ele>
        <time>2017-01-08T07:25:19Z</time>
      </trkpt>
      <trkpt lat="45.36951" lon="7.58389">
        <ele>709.55</ele>
        <time>2017-01-08T07:25:20Z</time>
      </trkpt>
      <trkpt lat="45.36955" lon="7.58422">
        <ele>704.13</ele>
        <time>2017-01-08T07:25:21Z</time>
      </trkpt>
      <trkpt lat="45.3696" lon="7.58453">
        <ele>700.62</ele>
        <time>2017-01-08T07:25:23Z</time>
      </trkpt>
      <trkpt lat="45.36962" lon="7.58486">
        <ele>695.78</ele>
        <time>2017-01-08T07:25:24Z</time>
      </trkpt>
      <trkpt lat="45.36959" lon="7.58518">
        <ele>691.55</ele>
        <time>2017-01-08T07:25:25Z</time>
      </trkpt>
      <trkpt lat="45.36978" lon="7.58497">
        <ele>690.87</ele>
        <time>2017-01-08T07:25:26Z</time>
      </trkpt>
      <trkpt lat="45.36997" lon="7.58513">
        <ele>690.75</ele>
        <time>2017-01-08T07:25:28Z</time>
      </trkpt>
      <trkpt lat="45.36997" lon="7.58544">
        <ele>688.25</ele>
        <time>2017-01-08T07:25:29Z</time>
      </trkpt>
      <trkpt lat="45.36995" lon="7.58589">
        <ele>685.93</ele>
        <time>2017-01-08T07:25:31Z</time>
      </trkpt>
      <trkpt lat="45.36995" lon="7.58614">
        <ele>685.5</ele>
        <time>2017-01-08T07:25:32Z</time>
      </trkpt>
      <trkpt lat="45.36994" lon="7.58659">
        <ele>683.47</ele>
        <time>2017-01-08T07:25:33Z</time>
      </trkpt>
      <trkpt lat="45.36989" lon="7.58693">
        <ele>679.88</ele>
        <time>2017-01-08T07:25:35Z</time>
      </trkpt>
      <trkpt lat="45.36983" lon="7.58719">
        <ele>676.1</ele>
        <time>2017-01-08T07:25:36Z</time>
      </trkpt>
      <trkpt lat="45.36991" lon="7.58757">
        <ele>673.74</ele>
        <time>2017-01-08T07:25:37Z</time>
      </trkpt>
      <trkpt lat="45.37006" lon="7.5879">
        <ele>673.26</ele>
        <time>2017-01-08T07:25:39Z</time>
      </trkpt>
      <trkpt lat="45.37019" lon="7.58824">
        <ele>671.45</ele>
        <time>2017-01-08T07:25:40Z</time>
      </trkpt>
      <trkpt lat="45.37031" lon="7.5886">
        <ele>668.44</ele>
        <time>2017-01-08T07:25:42Z</time>
      </trkpt>
      <trkpt lat="45.37051" lon="7.58897">
        <ele>668.04</ele>
        <time>2017-01-08T07:25:44Z</time>
      </trkpt>
      <trkpt lat="45.3707" lon="7.58936">
        <ele>670.35</ele>
        <time>2017-01-08T07:25:45Z</time>
      </trkpt>
      <trkpt lat="45.37081" lon="7.5897">
        <ele>670.02</ele>
        <time>2017-01-08T07:25:47Z</time>
      </trkpt>
      <trkpt lat="45.37093" lon="7.58998">
        <ele>669.17</ele>
        <time>2017-01-08T07:25:48Z</time>
      </trkpt>
      <trkpt lat="45.37112" lon="7.59022">
        <ele>673.49</ele>
        <time>2017-01-08T07:25:49Z</time>
      </trkpt>
      <trkpt lat="45.3712" lon="7.5905">
        <ele>675.71</ele>
        <time>2017-01-08T07:25:51Z</time>
      </trkpt>
      <trkpt lat="45.37124" lon="7.59078">
        <ele>677.56</ele>
        <time>2017-01-08T07:25:52Z</time>
      </trkpt>
      <trkpt lat="45.37123" lon="7.59114">
        <ele>674.84</ele>
        <time>2017-01-08T07:25:53Z</time>
      </trkpt>
      <trkpt lat="45.37118" lon="7.59141">
        <ele>670.89</ele>
        <time>2017-01-08T07:25:54Z</time>
      </trkpt>
      <trkpt lat="45.37114" lon="7.59174">
        <ele>668.43</ele>
        <time>2017-01-08T07:25:56Z</time>
      </trkpt>
      <trkpt lat="45.37114" lon="7.59216">
        <ele>671.32</ele>
        <time>2017-01-08T07:25:57Z</time>
      </trkpt>
      <trkpt lat="45.37112" lon="7.59262">
        <ele>671.19</ele>
        <time>2017-01-08T07:25:59Z</time>
      </trkpt>
      <trkpt lat="45.37105" lon="7.59299">
        <ele>666.26</ele>
        <time>2017-01-08T07:26:00Z</time>
      </trkpt>
      <trkpt lat="45.37099" lon="7.59329">
        <ele>663.08</ele>
        <time>2017-01-08T07:26:02Z</time>
      </trkpt>
      <trkpt lat="45.37095" lon="7.59355">
        <ele>660.29</ele>
        <time>2017-01-08T07:26:03Z</time>
      </trkpt>
      <trkpt lat="45.37114" lon="7.59363">
        <ele>660.59</ele>
        <time>2017-01-08T07:26:04Z</time>
      </trkpt>
      <trkpt lat="45.37134" lon="7.59342">
        <ele>662.91</ele>
        <time>2017-01-08T07:26:05Z</time>
      </trkpt>
      <trkpt lat="45.37156" lon="7.59326">
        <ele>666.73</ele>
        <time>2017-01-08T07:26:06Z</time>
      </trkpt>
      <trkpt lat="45.37179" lon="7.59313">
        <ele>668.12</ele>
        <time>2017-01-08T07:26:08Z</time>
      </trkpt>
      <trkpt lat="45.37198" lon="7.59297">
        <ele>666.49</ele>
        <time>2017-01-08T07:26:09Z</time>
      </trkpt>
      <trkpt lat="45.37218" lon="7.59285">
        <ele>663.08</ele>
        <time>2017-01-08T07:26:10Z</time>
      </trkpt>
      <trkpt lat="45.37243" lon="7.59281">
        <ele>658.65</ele>
        <time>2017-01-08T07:26:12Z</time>
      </trkpt>
      <trkpt lat="45.37267" lon="7.59299">
        <ele>652.88</ele>
        <time>2017-01-08T07:26:13Z</time>
      </trkpt>
      <trkpt lat="45.37281" lon="7.59317">
        <ele>651.34</ele>
        <time>2017-01-08T07:26:14Z</time>
      </trkpt>
      <trkpt lat="45.37292" lon="7.59339">
        <ele>651.38</ele>
        <time>2017-01-08T07:26:15Z</time>
      </trkpt>
      <trkpt lat="45.37305" lon="7.5937">
        <ele>652.23</ele>
        <time>2017-01-08T07:26:16Z</time>
      </trkpt>
      <trkpt lat="45.37303" lon="7.59402">
        <ele>650.62</ele>
        <time>2017-01-08T07:26:18Z</time>
      </trkpt>
      <trkpt lat="45.3731" lon="7.59427">
        <ele>651.23</ele>
        <time>2017-01-08T07:26:19Z</time>
      </trkpt>
      <trkpt lat="45.37319" lon="7.59456">
        <ele>651.38</ele>
        <time>2017-01-08T07:26:20Z</time>
      </trkpt>
      <trkpt lat="45.37324" lon="7.59485">
        <ele>650.36</ele>
        <time>2017-01-08T07:26:21Z</time>
      </trkpt>
      <trkpt lat="45.37324" lon="7.59524">
        <ele>648.93</ele>
        <time>2017-01-08T07:26:23Z</time>
      </trkpt>
      <trkpt lat="45.37323" lon="7.59561">
        <ele>648.62</ele>
        <time>2017-01-08T07:26:24Z</time>
      </trkpt>
      <trkpt lat="45.37322" lon="7.59588">
        <ele>650.05</ele>
        <time>2017-01-08T07:26:25Z</time>
      </trkpt>
      <trkpt lat="45.37327" lon="7.59621">
        <ele>651.04</ele>
        <time>2017-01-08T07:26:26Z</time>
      </trkpt>
      <trkpt lat="45.37329" lon="7.59644">
        <ele>650.39</ele>
        <time>2017-01-08T07:35:29Z</time>
      </trkpt>
      <trkpt lat="45.37323" lon="7.59675">
        <ele>648.75</ele>
        <time>2017-01-08T07:35:30Z</time>
      </trkpt>
      <trkpt lat="45.37322" lon="7.59708">
        <ele>649.42</ele>
        <time>2017-01-08T07:35:32Z</time>
      </trkpt>
      <trkpt lat="45.37325" lon="7.59742">
        <ele>649.04</ele>
        <time>2017-01-08T07:35:33Z</time>
      </trkpt>
      <trkpt lat="45.37327" lon="7.59774">
        <ele>647.56</ele>
        <time>2017-01-08T07:35:34Z</time>
      </trkpt>
      <trkpt lat="45.37324" lon="7.59807">
        <ele>643.82</ele>
        <time>2017-01-08T07:35:35Z</time>
      </trkpt>
      <trkpt lat="45.37319" lon="7.5984">
        <ele>642.23</ele>
        <time>2017-01-08T07:35:37Z</time>
      </trkpt>
      <trkpt lat="45.37318" lon="7.59876">
        <ele>640.52</ele>
        <time>2017-01-08T07:35:38Z</time>
      </trkpt>
      <trkpt lat="45.37322" lon="7.59911">
        <ele>637.24</ele>
        <time>2017-01-08T07:35:39Z</time>
      </trkpt>
      <trkpt lat="45.37323" lon="7.59944">
        <ele>633.8</ele>
        <time>2017-01-08T07:35:41Z</time>
      </trkpt>
      <trkpt lat="45.37321" lon="7.59975">
        <ele>632.72</ele>
        <time>2017-01-08T07:35:42Z</time>
      </trkpt>
      <trkpt lat="45.3731" lon="7.60008">
        <ele>634.1</ele>
        <time>2017-01-08T07:35:43Z</time>
      </trkpt>
      <trkpt lat="45.37304" lon="7.60037">
        <ele>634.42</ele>
        <time>2017-01-08T07:35:45Z</time>
      </trkpt>
      <trkpt lat="45.37302" lon="7.60069">
        <ele>635.48</ele>
        <time>2017-01-08T07:35:46Z</time>
      </trkpt>
      <trkpt lat="45.373" lon="7.60096">
        <ele>634.64</ele>
        <time>2017-01-08T07:35:47Z</time>
      </trkpt>
      <trkpt lat="45.37296" lon="7.60137">
        <ele>629.63</ele>
        <time>2017-01-08T07:35:48Z</time>
      </trkpt>
      <trkpt lat="45.37289" lon="7.60183">
        <ele>625.41</ele>
        <time>2017-01-08T07:35:50Z</time>
      </trkpt>
      <trkpt lat="45.37286" lon="7.60228">
        <ele>623.26</ele>
        <time>2017-01-08T07:35:52Z</time>
      </trkpt>
      <trkpt lat="45.37289" lon="7.60277">
        <ele>619.84</ele>
        <time>2017-01-08T07:35:54Z</time>
      </trkpt>
      <trkpt lat="45.3729" lon="7.60326">
        <ele>617.95</ele>
        <time>2017-01-08T07:35:56Z</time>
      </trkpt>
      <trkpt lat="45.3729" lon="7.60374">
        <ele>615.86</ele>
        <time>2017-01-08T07:35:58Z</time>
      </trkpt>
      <trkpt lat="45.37293" lon="7.6042">
        <ele>612.13</ele>
        <time>2017-01-08T07:35:59Z</time>
      </trkpt>
      <trkpt lat="45.37299" lon="7.60464">
        <ele>607.81</ele>
        <time>2017-01-08T07:36:01Z</time>
      </trkpt>
      <trkpt lat="45.37305" lon="7.60501">
        <ele>608.08</ele>
        <time>2017-01-08T07:36:03Z</time>
      </trkpt>
      <trkpt lat="45.37312" lon="7.60533">
        <ele>608.63</ele>
        <time>2017-01-08T07:36:04Z</time>
      </trkpt>
      <trkpt lat="45.37319" lon="7.60559">
        <ele>607.93</ele>
        <time>2017-01-08T07:36:05Z</time>
      </trkpt>
      <trkpt lat="45.37322" lon="7.60586">
        <ele>606.01</ele>
        <time>2017-01-08T07:36:06Z</time>
      </trkpt>
      <trkpt lat="45.37324" lon="7.60617">
        <ele>603.16</ele>
        <time>2017-01-08T07:36:07Z</time>
      </trkpt>
      <trkpt lat="45.37323" lon="7.60646">
        <ele>600.56</ele>
        <time>2017-01-08T07:36:08Z</time>
      </trkpt>
      <trkpt lat="45.37325" lon="7.60672">
        <ele>597.56</ele>
        <time>2017-01-08T07:36:09Z</time>
      </trkpt>
      <trkpt lat="45.37333" lon="7.60697">
        <ele>595.9</ele>
        <time>2017-01-08T07:36:10Z</time>
      </trkpt>
      <trkpt lat="45.37343" lon="7.60731">
        <ele>593.95</ele>
        <time>2017-01-08T07:36:12Z</time>
      </trkpt>
      <trkpt lat="45.37344" lon="7.60757">
        <ele>594.4</ele>
        <time>2017-01-08T07:36:13Z</time>
      </trkpt>
      <trkpt lat="45.37347" lon="7.60788">
        <ele>593.65</ele>
        <time>2017-01-08T07:36:14Z</time>
      </trkpt>
      <trkpt lat="45.37362" lon="7.60812">
        <ele>593.62</ele>
        <time>2017-01-08T07:36:15Z</time>
      </trkpt>
      <trkpt lat="45.37377" lon="7.60834">
        <ele>590.18</ele>
        <time>2017-01-08T07:36:16Z</time>
      </trkpt>
      <trkpt lat="45.37389" lon="7.60856">
        <ele>588.02</ele>
        <time>2017-01-08T07:36:17Z</time>
      </trkpt>
      <trkpt lat="45.37404" lon="7.60881">
        <ele>585.29</ele>
        <time>2017-01-08T07:36:19Z</time>
      </trkpt>
      <trkpt lat="45.37424" lon="7.60894">
        <ele>583.17</ele>
        <time>2017-01-08T07:36:20Z</time>
      </trkpt>
      <trkpt lat="45.37441" lon="7.60909">
        <ele>582.43</ele>
        <time>2017-01-08T07:36:21Z</time>
      </trkpt>
      <trkpt lat="45.37457" lon="7.60927">
        <ele>579.96</ele>
        <time>2017-01-08T07:36:22Z</time>
      </trkpt>
      <trkpt lat="45.37472" lon="7.60946">
        <ele>575.9</ele>
        <time>2017-01-08T07:36:23Z</time>
      </trkpt>
      <trkpt lat="45.37487" lon="7.60968">
        <ele>571.6</ele>
        <time>2017-01-08T07:36:24Z</time>
      </trkpt>
      <trkpt lat="45.37501" lon="7.60995">
        <ele>568.88</ele>
        <time>2017-01-08T07:36:26Z</time>
      </trkpt>
      <trkpt lat="45.37512" lon="7.61021">
        <ele>567.56</ele>
        <time>2017-01-08T07:36:27Z</time>
      </trkpt>
      <trkpt lat="45.37519" lon="7.61046">
        <ele>567.11</ele>
        <time>2017-01-08T07:36:28Z</time>
      </trkpt>
      <trkpt lat="45.37534" lon="7.61029">
        <ele>564.85</ele>
        <time>2017-01-08T07:36:29Z</time>
      </trkpt>
      <trkpt lat="45.37533" lon="7.60997">
        <ele>564.02</ele>
        <time>2017-01-08T07:36:30Z</time>
      </trkpt>
      <trkpt lat="45.37534" lon="7.60969">
        <ele>563.99</ele>
        <time>2017-01-08T07:36:31Z</time>
      </trkpt>
      <trkpt lat="45.37549" lon="7.60947">
        <ele>562.75</ele>
        <time>2017-01-08T07:36:32Z</time>
      </trkpt>
      <trkpt lat="45.37575" lon="7.60956">
        <ele>559.06</ele>
        <time>2017-01-08T07:36:34Z</time>
      </trkpt>
      <trkpt lat="45.37593" lon="7.60983">
        <ele>556.61</ele>
        <time>2017-01-08T07:36:35Z</time>
      </trkpt>
      <trkpt lat="45.37599" lon="7.61008">
        <ele>555.69</ele>
        <time>2017-01-08T07:36:36Z</time>
      </trkpt>
      <trkpt lat="45.37607" lon="7.61036">
        <ele>553.77</ele>
        <time>2017-01-08T07:36:38Z</time>
      </trkpt>
      <trkpt lat="45.3762" lon="7.61058">
        <ele>552.26</ele>
        <time>2017-01-08T07:36:39Z</time>
      </trkpt>
      <trkpt lat="45.37642" lon="7.6106">
        <ele>552.61</ele>
        <time>2017-01-08T07:36:40Z</time>
      </trkpt>
      <trkpt lat="45.37661" lon="7.6107">
        <ele>552.4</ele>
        <time>2017-01-08T07:36:41Z</time>
      </trkpt>
      <trkpt lat="45.37679" lon="7.61091">
        <ele>554.6</ele>
        <time>2017-01-08T07:36:42Z</time>
      </trkpt>
      <trkpt lat="45.37691" lon="7.61113">
        <ele>556.62</ele>
        <time>2017-01-08T07:36:43Z</time>
      </trkpt>
      <trkpt lat="45.37703" lon="7.6114">
        <ele>559.17</ele>
        <time>2017-01-08T07:36:44Z</time>
      </trkpt>
      <trkpt lat="45.37707" lon="7.61169">
        <ele>558.27</ele>
        <time>2017-01-08T07:36:46Z</time>
      </trkpt>
      <trkpt lat="45.37709" lon="7.61199">
        <ele>556.77</ele>
        <time>2017-01-08T07:36:47Z</time>
      </trkpt>
      <trkpt lat="45.37708" lon="7.61225">
        <ele>554.81</ele>
        <time>2017-01-08T07:36:48Z</time>
      </trkpt>
      <trkpt lat="45.37709" lon="7.61254">
        <ele>553.56</ele>
        <time>2017-01-08T07:36:49Z</time>
      </trkpt>
      <trkpt lat="45.37715" lon="7.61284">
        <ele>551.28</ele>
        <time>2017-01-08T07:36:50Z</time>
      </trkpt>
      <trkpt lat="45.37733" lon="7.61315">
        <ele>549.39</ele>
        <time>2017-01-08T07:36:52Z</time>
      </trkpt>
      <trkpt lat="45.37752" lon="7.61338">
        <ele>547.6</ele>
        <time>2017-01-08T07:36:53Z</time>
      </trkpt>
      <trkpt lat="45.37771" lon="7.61347">
        <ele>548.07</ele>
        <time>2017-01-08T07:36:54Z</time>
      </trkpt>
      <trkpt lat="45.37794" lon="7.61363">
        <ele>548.66</ele>
        <time>2017-01-08T07:36:56Z</time>
      </trkpt>
      <trkpt lat="45.37803" lon="7.61401">
        <ele>550.05</ele>
        <time>2017-01-08T07:36:57Z</time>
      </trkpt>
      <trkpt lat="45.37788" lon="7.61439">
        <ele>548.45</ele>
        <time>2017-01-08T07:36:59Z</time>
      </trkpt>
      <trkpt lat="45.37784" lon="7.61474">
        <ele>547.93</ele>
        <time>2017-01-08T07:37:00Z</time>
      </trkpt>
      <trkpt lat="45.37783" lon="7.61512">
        <ele>545.33</ele>
        <time>2017-01-08T07:37:02Z</time>
      </trkpt>
      <trkpt lat="45.37789" lon="7.61541">
        <ele>544.99</ele>
        <time>2017-01-08T07:37:03Z</time>
      </trkpt>
      <trkpt lat="45.37807" lon="7.6157">
        <ele>545.28</ele>
        <time>2017-01-08T07:37:04Z</time>
      </trkpt>
      <trkpt lat="45.37829" lon="7.61602">
        <ele>544.39</ele>
        <time>2017-01-08T07:37:06Z</time>
      </trkpt>
      <trkpt lat="45.37847" lon="7.61635">
        <ele>541.95</ele>
        <time>2017-01-08T07:37:08Z</time>
      </trkpt>
      <trkpt lat="45.37863" lon="7.61674">
        <ele>540.51</ele>
        <time>2017-01-08T07:37:09Z</time>
      </trkpt>
      <trkpt lat="45.37878" lon="7.61699">
        <ele>540.83</ele>
        <time>2017-01-08T07:37:11Z</time>
      </trkpt>
      <trkpt lat="45.379" lon="7.61713">
        <ele>542.44</ele>
        <time>2017-01-08T07:37:12Z</time>
      </trkpt>
      <trkpt lat="45.37916" lon="7.6174">
        <ele>541.93</ele>
        <time>2017-01-08T07:37:13Z</time>
      </trkpt>
      <trkpt lat="45.37918" lon="7.61772">
        <ele>539.93</ele>
        <time>2017-01-08T07:37:15Z</time>
      </trkpt>
      <trkpt lat="45.37929" lon="7.61802">
        <ele>541.71</ele>
        <time>2017-01-08T07:37:16Z</time>
      </trkpt>
      <trkpt lat="45.37949" lon="7.61836">
        <ele>541.63</ele>
        <time>2017-01-08T07:37:18Z</time>
      </trkpt>
      <trkpt lat="45.37969" lon="7.61865">
        <ele>539.62</ele>
        <time>2017-01-08T07:37:19Z</time>
      </trkpt>
      <trkpt lat="45.37992" lon="7.61881">
        <ele>542.71</ele>
        <time>2017-01-08T07:37:21Z</time>
      </trkpt>
      <trkpt lat="45.3801" lon="7.61898">
        <ele>545.35</ele>
        <time>2017-01-08T07:37:22Z</time>
      </trkpt>
      <trkpt lat="45.38021" lon="7.61926">
        <ele>546.32</ele>
        <time>2017-01-08T07:37:23Z</time>
      </trkpt>
      <trkpt lat="45.3803" lon="7.61961">
        <ele>543.42</ele>
        <time>2017-01-08T07:37:24Z</time>
      </trkpt>
      <trkpt lat="45.38043" lon="7.61992">
        <ele>536.82</ele>
        <time>2017-01-08T07:37:26Z</time>
      </trkpt>
      <trkpt lat="45.38056" lon="7.62013">
        <ele>532.21</ele>
        <time>2017-01-08T07:37:27Z</time>
      </trkpt>
      <trkpt lat="45.38077" lon="7.62023">
        <ele>529.74</ele>
        <time>2017-01-08T07:37:28Z</time>
      </trkpt>
      <trkpt lat="45.38097" lon="7.62006">
        <ele>534.35</ele>
        <time>2017-01-08T07:37:29Z</time>
      </trkpt>
      <trkpt lat="45.38116" lon="7.61982">
        <ele>539.79</ele>
        <time>2017-01-08T07:37:31Z</time>
      </trkpt>
      <trkpt lat="45.38135" lon="7.61974">
        <ele>540.08</ele>
        <time>2017-01-08T07:37:32Z</time>
      </trkpt>
      <trkpt lat="45.38148" lon="7.62001">
        <ele>537.2</ele>
        <time>2017-01-08T07:37:33Z</time>
      </trkpt>
      <trkpt lat="45.38164" lon="7.62028">
        <ele>535.82</ele>
        <time>2017-01-08T07:37:34Z</time>
      </trkpt>
      <trkpt lat="45.38176" lon="7.62047">
        <ele>534.43</ele>
        <time>2017-01-08T07:37:35Z</time>
      </trkpt>
      <trkpt lat="45.38185" lon="7.62073">
        <ele>532.14</ele>
        <time>2017-01-08T07:37:37Z</time>
      </trkpt>
      <trkpt lat="45.38195" lon="7.62106">
        <ele>531.73</ele>
        <time>2017-01-08T07:37:38Z</time>
      </trkpt>
      <trkpt lat="45.38204" lon="7.62143">
        <ele>531.5</ele>
        <time>2017-01-08T07:37:39Z</time>
      </trkpt>
      <trkpt lat="45.3821" lon="7.62175">
        <ele>530.09</ele>
        <time>2017-01-08T07:37:41Z</time>
      </trkpt>
      <trkpt lat="45.3821" lon="7.62213">
        <ele>528.5</ele>
        <time>2017-01-08T07:37:42Z</time>
      </trkpt>
      <trkpt lat="45.38204" lon="7.62262">
        <ele>524.67</ele>
        <time>2017-01-08T07:37:44Z</time>
      </trkpt>
      <trkpt lat="45.38199" lon="7.62287">
        <ele>522.53</ele>
        <time>2017-01-08T07:37:45Z</time>
      </trkpt>
      <trkpt lat="45.38191" lon="7.62333">
        <ele>521.37</ele>
        <time>2017-01-08T07:37:47Z</time>
      </trkpt>
      <trkpt lat="45.38183" lon="7.62374">
        <ele>521.59</ele>
        <time>2017-01-08T07:37:49Z</time>
      </trkpt>
      <trkpt lat="45.38173" lon="7.62406">
        <ele>520.26</ele>
        <time>2017-01-08T07:37:50Z</time>
      </trkpt>
      <trkpt lat="45.38156" lon="7.62433">
        <ele>517.51</ele>
        <time>2017-01-08T07:37:51Z</time>
      </trkpt>
      <trkpt lat="45.38135" lon="7.62451">
        <ele>515.1</ele>
        <time>2017-01-08T07:37:53Z</time>
      </trkpt>
      <trkpt lat="45.38114" lon="7.62458">
        <ele>514.02</ele>
        <time>2017-01-08T07:37:54Z</time>
      </trkpt>
      <trkpt lat="45.38096" lon="7.62455">
        <ele>512.67</ele>
        <time>2017-01-08T07:37:55Z</time>
      </trkpt>
      <trkpt lat="45.38078" lon="7.62435">
        <ele>513.47</ele>
        <time>2017-01-08T07:37:56Z</time>
      </trkpt>
      <trkpt lat="45.38059" lon="7.62424">
        <ele>510.81</ele>
        <time>2017-01-08T07:37:57Z</time>
      </trkpt>
      <trkpt lat="45.38073" lon="7.62458">
        <ele>508.48</ele>
        <time>2017-01-08T07:37:59Z</time>
      </trkpt>
      <trkpt lat="45.3809" lon="7.62484">
        <ele>507.59</ele>
        <time>2017-01-08T07:38:00Z</time>
      </trkpt>
      <trkpt lat="45.38109" lon="7.62504">
        <ele>506.83</ele>
        <time>2017-01-08T07:38:01Z</time>
      </trkpt>
      <trkpt lat="45.38133" lon="7.62511">
        <ele>504.09</ele>
        <time>2017-01-08T07:38:03Z</time>
      </trkpt>
      <trkpt lat="45.38156" lon="7.62508">
        <ele>502.19</ele>
        <time>2017-01-08T07:38:04Z</time>
      </trkpt>
      <trkpt lat="45.38179" lon="7.62489">
        <ele>502.49</ele>
        <time>2017-01-08T07:38:05Z</time>
      </trkpt>
      <trkpt lat="45.38205" lon="7.6247">
        <ele>500.29</ele>
        <time>2017-01-08T07:38:07Z</time>
      </trkpt>
      <trkpt lat="45.38225" lon="7.62449">
        <ele>498.75</ele>
        <time>2017-01-08T07:38:08Z</time>
      </trkpt>
      <trkpt lat="45.38241" lon="7.62425">
        <ele>502.19</ele>
        <time>2017-01-08T07:38:10Z</time>
      </trkpt>
      <trkpt lat="45.38245" lon="7.62454">
        <ele>492.68</ele>
        <time>2017-01-08T07:38:11Z</time>
      </trkpt>
      <trkpt lat="45.38232" lon="7.62481">
        <ele>488.52</ele>
        <time>2017-01-08T07:38:12Z</time>
      </trkpt>
      <trkpt lat="45.38222" lon="7.62503">
        <ele>485.52</ele>
        <time>2017-01-08T07:38:13Z</time>
      </trkpt>
      <trkpt lat="45.38211" lon="7.62527">
        <ele>484.63</ele>
        <time>2017-01-08T07:38:14Z</time>
      </trkpt>
      <trkpt lat="45.38196" lon="7.62562">
        <ele>481.89</ele>
        <time>2017-01-08T07:38:16Z</time>
      </trkpt>
      <trkpt lat="45.38181" lon="7.62589">
        <ele>480.23</ele>
        <time>2017-01-08T07:38:17Z</time>
      </trkpt>
      <trkpt lat="45.38164" lon="7.62605">
        <ele>479.89</ele>
        <time>2017-01-08T07:38:18Z</time>
      </trkpt>
      <trkpt lat="45.38142" lon="7.6262">
        <ele>481.56</ele>
        <time>2017-01-08T07:38:19Z</time>
      </trkpt>
      <trkpt lat="45.38118" lon="7.62633">
        <ele>479.21</ele>
        <time>2017-01-08T07:38:21Z</time>
      </trkpt>
      <trkpt lat="45.38101" lon="7.62649">
        <ele>474.39</ele>
        <time>2017-01-08T07:38:22Z</time>
      </trkpt>
      <trkpt lat="45.3812" lon="7.62668">
        <ele>471.81</ele>
        <time>2017-01-08T07:38:23Z</time>
      </trkpt>
      <trkpt lat="45.38138" lon="7.62665">
        <ele>472.4</ele>
        <time>2017-01-08T07:38:24Z</time>
      </trkpt>
      <trkpt lat="45.38156" lon="7.62648">
        <ele>472.52</ele>
        <time>2017-01-08T07:38:25Z</time>
      </trkpt>
      <trkpt lat="45.38181" lon="7.62629">
        <ele>471.53</ele>
        <time>2017-01-08T07:38:27Z</time>
      </trkpt>
      <trkpt lat="45.38201" lon="7.6262">
        <ele>471.09</ele>
        <time>2017-01-08T07:38:28Z</time>
      </trkpt>
      <trkpt lat="45.38219" lon="7.62638">
        <ele>469.68</ele>
        <time>2017-01-08T07:38:29Z</time>
      </trkpt>
      <trkpt lat="45.38215" lon="7.62665">
        <ele>468.73</ele>
        <time>2017-01-08T07:38:30Z</time>
      </trkpt>
      <trkpt lat="45.3821" lon="7.62704">
        <ele>470.06</ele>
        <time>2017-01-08T07:38:32Z</time>
      </trkpt>
      <trkpt lat="45.38199" lon="7.62744">
        <ele>470.72</ele>
        <time>2017-01-08T07:38:34Z</time>
      </trkpt>
      <trkpt lat="45.38183" lon="7.62776">
        <ele>467.58</ele>
        <time>2017-01-08T07:38:35Z</time>
      </trkpt>
      <trkpt lat="45.38168" lon="7.62802">
        <ele>463.29</ele>
        <time>2017-01-08T07:38:36Z</time>
      </trkpt>
      <trkpt lat="45.38164" lon="7.6284">
        <ele>462.6</ele>
        <time>2017-01-08T07:38:38Z</time>
      </trkpt>
      <trkpt lat="45.38171" lon="7.62871">
        <ele>463.53</ele>
        <time>2017-01-08T07:38:39Z</time>
      </trkpt>
      <trkpt lat="45.3818" lon="7.6291">
        <ele>464.38</ele>
        <time>2017-01-08T07:38:41Z</time>
      </trkpt>
      <trkpt lat="45.38187" lon="7.62946">
        <ele>463.02</ele>
        <time>2017-01-08T07:38:42Z</time>
      </trkpt>
      <trkpt lat="45.38191" lon="7.62978">
        <ele>460.65</ele>
        <time>2017-01-08T07:38:43Z</time>
      </trkpt>
      <trkpt lat="45.38192" lon="7.63012">
        <ele>457.42</ele>
        <time>2017-01-08T07:38:45Z</time>
      </trkpt>
      <trkpt lat="45.38193" lon="7.63042">
        <ele>454.38</ele>
        <time>2017-01-08T07:38:46Z</time>
      </trkpt>
      <trkpt lat="45.38192" lon="7.63071">
        <ele>451.81</ele>
        <time>2017-01-08T07:38:47Z</time>
      </trkpt>
      <trkpt lat="45.382" lon="7.63102">
        <ele>449.88</ele>
        <time>2017-01-08T07:38:48Z</time>
      </trkpt>
      <trkpt lat="45.38215" lon="7.63126">
        <ele>449.19</ele>
        <time>2017-01-08T07:38:49Z</time>
      </trkpt>
      <trkpt lat="45.38232" lon="7.63157">
        <ele>448.47</ele>
        <time>2017-01-08T07:38:51Z</time>
      </trkpt>
      <trkpt lat="45.38248" lon="7.63198">
        <ele>446.82</ele>
        <time>2017-01-08T07:38:53Z</time>
      </trkpt>
      <trkpt lat="45.38267" lon="7.6324">
        <ele>445</ele>
        <time>2017-01-08T07:38:55Z</time>
      </trkpt>
      <trkpt lat="45.38285" lon="7.63278">
        <ele>444.73</ele>
        <time>2017-01-08T07:38:56Z</time>
      </trkpt>
      <trkpt lat="45.38299" lon="7.63317">
        <ele>442.92</ele>
        <time>2017-01-08T07:38:58Z</time>
      </trkpt>
      <trkpt lat="45.38308" lon="7.63363">
        <ele>441.02</ele>
        <time>2017-01-08T07:39:00Z</time>
      </trkpt>
      <trkpt lat="45.38315" lon="7.63405">
        <ele>440.67</ele>
        <time>2017-01-08T07:39:02Z</time>
      </trkpt>
      <trkpt lat="45.3833" lon="7.63437">
        <ele>439.88</ele>
        <time>2017-01-08T07:39:03Z</time>
      </trkpt>
      <trkpt lat="45.38348" lon="7.6346">
        <ele>438.37</ele>
        <time>2017-01-08T07:39:04Z</time>
      </trkpt>
      <trkpt lat="45.38373" lon="7.63474">
        <ele>436.83</ele>
        <time>2017-01-08T07:39:06Z</time>
      </trkpt>
      <trkpt lat="45.384" lon="7.6349">
        <ele>435.47</ele>
        <time>2017-01-08T07:39:08Z</time>
      </trkpt>
      <trkpt lat="45.38429" lon="7.63519">
        <ele>433.59</ele>
        <time>2017-01-08T07:39:09Z</time>
      </trkpt>
      <trkpt lat="45.38443" lon="7.63537">
        <ele>433.5</ele>
        <time>2017-01-08T07:39:10Z</time>
      </trkpt>
      <trkpt lat="45.38457" lon="7.63554">
        <ele>436.77</ele>
        <time>2017-01-08T07:39:12Z</time>
      </trkpt>
      <trkpt lat="45.38472" lon="7.63572">
        <ele>439.76</ele>
        <time>2017-01-08T07:39:13Z</time>
      </trkpt>
      <trkpt lat="45.38494" lon="7.63609">
        <ele>439.58</ele>
        <time>2017-01-08T07:39:14Z</time>
      </trkpt>
      <trkpt lat="45.38509" lon="7.63644">
        <ele>435.75</ele>
        <time>2017-01-08T07:39:16Z</time>
      </trkpt>
      <trkpt lat="45.38525" lon="7.63665">
        <ele>434.97</ele>
        <time>2017-01-08T07:39:17Z</time>
      </trkpt>
      <trkpt lat="45.38544" lon="7.63675">
        <ele>435.26</ele>
        <time>2017-01-08T07:39:18Z</time>
      </trkpt>
      <trkpt lat="45.38568" lon="7.63682">
        <ele>435.01</ele>
        <time>2017-01-08T07:39:20Z</time>
      </trkpt>
      <trkpt lat="45.38601" lon="7.63685">
        <ele>435</ele>
        <time>2017-01-08T07:39:21Z</time>
      </trkpt>
      <trkpt lat="45.38633" lon="7.63682">
        <ele>435.01</ele>
        <time>2017-01-08T07:39:23Z</time>
      </trkpt>
      <trkpt lat="45.38655" lon="7.63671">
        <ele>436.23</ele>
        <time>2017-01-08T07:39:24Z</time>
      </trkpt>
      <trkpt lat="45.38687" lon="7.63662">
        <ele>438.55</ele>
        <time>2017-01-08T07:39:26Z</time>
      </trkpt>
      <trkpt lat="45.38716" lon="7.63659">
        <ele>438.4</ele>
        <time>2017-01-08T07:39:28Z</time>
      </trkpt>
      <trkpt lat="45.3875" lon="7.63668">
        <ele>437.87</ele>
        <time>2017-01-08T07:39:30Z</time>
      </trkpt>
      <trkpt lat="45.38779" lon="7.63679">
        <ele>441.21</ele>
        <time>2017-01-08T07:39:31Z</time>
      </trkpt>
      <trkpt lat="45.38808" lon="7.63691">
        <ele>442.23</ele>
        <time>2017-01-08T07:39:33Z</time>
      </trkpt>
      <trkpt lat="45.38828" lon="7.63711">
        <ele>441.17</ele>
        <time>2017-01-08T07:39:34Z</time>
      </trkpt>
      <trkpt lat="45.38845" lon="7.63736">
        <ele>441.24</ele>
        <time>2017-01-08T07:39:36Z</time>
      </trkpt>
      <trkpt lat="45.38865" lon="7.63765">
        <ele>442.63</ele>
        <time>2017-01-08T07:39:37Z</time>
      </trkpt>
      <trkpt lat="45.38889" lon="7.63792">
        <ele>445.45</ele>
        <time>2017-01-08T07:39:39Z</time>
      </trkpt>
      <trkpt lat="45.38908" lon="7.63818">
        <ele>446.42</ele>
        <time>2017-01-08T07:39:40Z</time>
      </trkpt>
      <trkpt lat="45.38926" lon="7.63845">
        <ele>447.13</ele>
        <time>2017-01-08T07:39:42Z</time>
      </trkpt>
      <trkpt lat="45.38942" lon="7.63875">
        <ele>446.24</ele>
        <time>2017-01-08T07:39:43Z</time>
      </trkpt>
      <trkpt lat="45.38958" lon="7.63908">
        <ele>445.31</ele>
        <time>2017-01-08T07:39:45Z</time>
      </trkpt>
      <trkpt lat="45.38975" lon="7.63941">
        <ele>445.16</ele>
        <time>2017-01-08T07:39:46Z</time>
      </trkpt>
      <trkpt lat="45.38992" lon="7.63973">
        <ele>442.99</ele>
        <time>2017-01-08T07:39:48Z</time>
      </trkpt>
      <trkpt lat="45.39012" lon="7.63998">
        <ele>442.07</ele>
        <time>2017-01-08T07:39:49Z</time>
      </trkpt>
      <trkpt lat="45.39034" lon="7.6402">
        <ele>441.38</ele>
        <time>2017-01-08T07:39:51Z</time>
      </trkpt>
      <trkpt lat="45.39057" lon="7.6404">
        <ele>441.54</ele>
        <time>2017-01-08T07:39:52Z</time>
      </trkpt>
      <trkpt lat="45.39078" lon="7.64055">
        <ele>441.81</ele>
        <time>2017-01-08T07:39:54Z</time>
      </trkpt>
      <trkpt lat="45.39097" lon="7.6407">
        <ele>440.26</ele>
        <time>2017-01-08T07:39:55Z</time>
      </trkpt>
      <trkpt lat="45.39107" lon="7.641">
        <ele>437.83</ele>
        <time>2017-01-08T07:39:56Z</time>
      </trkpt>
      <trkpt lat="45.391" lon="7.64137">
        <ele>435.56</ele>
        <time>2017-01-08T07:39:58Z</time>
      </trkpt>
      <trkpt lat="45.39088" lon="7.64161">
        <ele>435.19</ele>
        <time>2017-01-08T07:39:59Z</time>
      </trkpt>
      <trkpt lat="45.39076" lon="7.64182">
        <ele>436.25</ele>
        <time>2017-01-08T07:40:00Z</time>
      </trkpt>
      <trkpt lat="45.39065" lon="7.64203">
        <ele>437.23</ele>
        <time>2017-01-08T07:40:01Z</time>
      </trkpt>
      <trkpt lat="45.39053" lon="7.64225">
        <ele>436.77</ele>
        <time>2017-01-08T07:40:02Z</time>
      </trkpt>
      <trkpt lat="45.39043" lon="7.64247">
        <ele>434.75</ele>
        <time>2017-01-08T07:40:03Z</time>
      </trkpt>
      <trkpt lat="45.3903" lon="7.64282">
        <ele>433.68</ele>
        <time>2017-01-08T07:40:04Z</time>
      </trkpt>
      <trkpt lat="45.39017" lon="7.64313">
        <ele>433.75</ele>
        <time>2017-01-08T07:40:06Z</time>
      </trkpt>
      <trkpt lat="45.39006" lon="7.64334">
        <ele>432.71</ele>
        <time>2017-01-08T07:40:07Z</time>
      </trkpt>
      <trkpt lat="45.38989" lon="7.64359">
        <ele>431.18</ele>
        <time>2017-01-08T07:40:08Z</time>
      </trkpt>
      <trkpt lat="45.38974" lon="7.64376">
        <ele>429.36</ele>
        <time>2017-01-08T07:40:09Z</time>
      </trkpt>
      <trkpt lat="45.38957" lon="7.64393">
        <ele>428.75</ele>
        <time>2017-01-08T07:40:10Z</time>
      </trkpt>
      <trkpt lat="45.38941" lon="7.64409">
        <ele>427.84</ele>
        <time>2017-01-08T07:40:11Z</time>
      </trkpt>
      <trkpt lat="45.38924" lon="7.64427">
        <ele>426.64</ele>
        <time>2017-01-08T07:40:13Z</time>
      </trkpt>
      <trkpt lat="45.38907" lon="7.64444">
        <ele>425.31</ele>
        <time>2017-01-08T07:40:14Z</time>
      </trkpt>
      <trkpt lat="45.38888" lon="7.64463">
        <ele>424.65</ele>
        <time>2017-01-08T07:40:15Z</time>
      </trkpt>
      <trkpt lat="45.3887" lon="7.64483">
        <ele>423.72</ele>
        <time>2017-01-08T07:40:16Z</time>
      </trkpt>
      <trkpt lat="45.38851" lon="7.64503">
        <ele>422.59</ele>
        <time>2017-01-08T07:40:18Z</time>
      </trkpt>
      <trkpt lat="45.38831" lon="7.64522">
        <ele>421.2</ele>
        <time>2017-01-08T07:40:19Z</time>
      </trkpt>
      <trkpt lat="45.38812" lon="7.64541">
        <ele>420.62</ele>
        <time>2017-01-08T07:40:20Z</time>
      </trkpt>
      <trkpt lat="45.38793" lon="7.6456">
        <ele>420.38</ele>
        <time>2017-01-08T07:40:21Z</time>
      </trkpt>
      <trkpt lat="45.38777" lon="7.64576">
        <ele>420.27</ele>
        <time>2017-01-08T07:40:22Z</time>
      </trkpt>
      <trkpt lat="45.38757" lon="7.64594">
        <ele>419.54</ele>
        <time>2017-01-08T07:40:24Z</time>
      </trkpt>
      <trkpt lat="45.3874" lon="7.64623">
        <ele>418.92</ele>
        <time>2017-01-08T07:40:25Z</time>
      </trkpt>
      <trkpt lat="45.3873" lon="7.64645">
        <ele>418.58</ele>
        <time>2017-01-08T07:40:26Z</time>
      </trkpt>
      <trkpt lat="45.38718" lon="7.64668">
        <ele>417.78</ele>
        <time>2017-01-08T07:40:27Z</time>
      </trkpt>
      <trkpt lat="45.38705" lon="7.64691">
        <ele>416.5</ele>
        <time>2017-01-08T07:40:28Z</time>
      </trkpt>
      <trkpt lat="45.38691" lon="7.64713">
        <ele>415.08</ele>
        <time>2017-01-08T07:40:30Z</time>
      </trkpt>
      <trkpt lat="45.38679" lon="7.64737">
        <ele>414.38</ele>
        <time>2017-01-08T07:40:31Z</time>
      </trkpt>
      <trkpt lat="45.38666" lon="7.64764">
        <ele>413.48</ele>
        <time>2017-01-08T07:40:32Z</time>
      </trkpt>
      <trkpt lat="45.38653" lon="7.64793">
        <ele>413.09</ele>
        <time>2017-01-08T07:40:33Z</time>
      </trkpt>
      <trkpt lat="45.38641" lon="7.64822">
        <ele>412.23</ele>
        <time>2017-01-08T07:40:35Z</time>
      </trkpt>
      <trkpt lat="45.38629" lon="7.6485">
        <ele>411.48</ele>
        <time>2017-01-08T07:40:36Z</time>
      </trkpt>
      <trkpt lat="45.38618" lon="7.64879">
        <ele>410.87</ele>
        <time>2017-01-08T07:40:37Z</time>
      </trkpt>
      <trkpt lat="45.38607" lon="7.64909">
        <ele>409.45</ele>
        <time>2017-01-08T07:40:38Z</time>
      </trkpt>
      <trkpt lat="45.38598" lon="7.64937">
        <ele>408.08</ele>
        <time>2017-01-08T07:40:40Z</time>
      </trkpt>
      <trkpt lat="45.3859" lon="7.64963">
        <ele>408</ele>
        <time>2017-01-08T07:40:41Z</time>
      </trkpt>
      <trkpt lat="45.38579" lon="7.64988">
        <ele>407.21</ele>
        <time>2017-01-08T07:40:42Z</time>
      </trkpt>
      <trkpt lat="45.38564" lon="7.65013">
        <ele>406.29</ele>
        <time>2017-01-08T07:40:43Z</time>
      </trkpt>
      <trkpt lat="45.38564" lon="7.6505">
        <ele>405.76</ele>
        <time>2017-01-08T07:40:45Z</time>
      </trkpt>
      <trkpt lat="45.38562" lon="7.65079">
        <ele>405.48</ele>
        <time>2017-01-08T07:40:46Z</time>
      </trkpt>
      <trkpt lat="45.38559" lon="7.65105">
        <ele>404.43</ele>
        <time>2017-01-08T07:40:47Z</time>
      </trkpt>
      <trkpt lat="45.38555" lon="7.65131">
        <ele>403.25</ele>
        <time>2017-01-08T07:40:48Z</time>
      </trkpt>
      <trkpt lat="45.38553" lon="7.65158">
        <ele>402.03</ele>
        <time>2017-01-08T07:40:49Z</time>
      </trkpt>
      <trkpt lat="45.3855" lon="7.65184">
        <ele>401.42</ele>
        <time>2017-01-08T07:40:50Z</time>
      </trkpt>
      <trkpt lat="45.38546" lon="7.65213">
        <ele>400.72</ele>
        <time>2017-01-08T07:40:51Z</time>
      </trkpt>
      <trkpt lat="45.38541" lon="7.65247">
        <ele>398.15</ele>
        <time>2017-01-08T07:40:52Z</time>
      </trkpt>
      <trkpt lat="45.38535" lon="7.65287">
        <ele>396.52</ele>
        <time>2017-01-08T07:40:54Z</time>
      </trkpt>
      <trkpt lat="45.38528" lon="7.65325">
        <ele>396.73</ele>
        <time>2017-01-08T07:40:55Z</time>
      </trkpt>
      <trkpt lat="45.38523" lon="7.65361">
        <ele>397.82</ele>
        <time>2017-01-08T07:40:57Z</time>
      </trkpt>
      <trkpt lat="45.38518" lon="7.65396">
        <ele>398.07</ele>
        <time>2017-01-08T07:40:58Z</time>
      </trkpt>
      <trkpt lat="45.38512" lon="7.65432">
        <ele>397.56</ele>
        <time>2017-01-08T07:41:00Z</time>
      </trkpt>
      <trkpt lat="45.38508" lon="7.65465">
        <ele>396.83</ele>
        <time>2017-01-08T07:41:01Z</time>
      </trkpt>
      <trkpt lat="45.38504" lon="7.65494">
        <ele>396.45</ele>
        <time>2017-01-08T07:41:02Z</time>
      </trkpt>
      <trkpt lat="45.38498" lon="7.65529">
        <ele>397.04</ele>
        <time>2017-01-08T07:41:03Z</time>
      </trkpt>
      <trkpt lat="45.38487" lon="7.65553">
        <ele>397.89</ele>
        <time>2017-01-08T07:41:04Z</time>
      </trkpt>
      <trkpt lat="45.38485" lon="7.65581">
        <ele>398.43</ele>
        <time>2017-01-08T07:41:06Z</time>
      </trkpt>
      <trkpt lat="45.38485" lon="7.65613">
        <ele>398.85</ele>
        <time>2017-01-08T07:41:07Z</time>
      </trkpt>
      <trkpt lat="45.38481" lon="7.6564">
        <ele>398.3</ele>
        <time>2017-01-08T07:41:08Z</time>
      </trkpt>
      <trkpt lat="45.38476" lon="7.65668">
        <ele>397.94</ele>
        <time>2017-01-08T07:41:09Z</time>
      </trkpt>
      <trkpt lat="45.38471" lon="7.65697">
        <ele>396.91</ele>
        <time>2017-01-08T07:41:10Z</time>
      </trkpt>
      <trkpt lat="45.38467" lon="7.65725">
        <ele>395.84</ele>
        <time>2017-01-08T07:41:11Z</time>
      </trkpt>
      <trkpt lat="45.38462" lon="7.65754">
        <ele>393.87</ele>
        <time>2017-01-08T07:41:12Z</time>
      </trkpt>
      <trkpt lat="45.38459" lon="7.65783">
        <ele>392.82</ele>
        <time>2017-01-08T07:41:13Z</time>
      </trkpt>
      <trkpt lat="45.38455" lon="7.65812">
        <ele>391.85</ele>
        <time>2017-01-08T07:41:15Z</time>
      </trkpt>
      <trkpt lat="45.38451" lon="7.65842">
        <ele>391.07</ele>
        <time>2017-01-08T07:41:16Z</time>
      </trkpt>
      <trkpt lat="45.38448" lon="7.65871">
        <ele>390.36</ele>
        <time>2017-01-08T07:41:17Z</time>
      </trkpt>
      <trkpt lat="45.38445" lon="7.65899">
        <ele>389.63</ele>
        <time>2017-01-08T07:41:18Z</time>
      </trkpt>
      <trkpt lat="45.38436" lon="7.65934">
        <ele>388.82</ele>
        <time>2017-01-08T07:41:19Z</time>
      </trkpt>
      <trkpt lat="45.38428" lon="7.6596">
        <ele>388.09</ele>
        <time>2017-01-08T07:41:21Z</time>
      </trkpt>
      <trkpt lat="45.38448" lon="7.65968">
        <ele>389.22</ele>
        <time>2017-01-08T07:41:22Z</time>
      </trkpt>
      <trkpt lat="45.3847" lon="7.65964">
        <ele>390.83</ele>
        <time>2017-01-08T07:41:23Z</time>
      </trkpt>
      <trkpt lat="45.38494" lon="7.65968">
        <ele>392.55</ele>
        <time>2017-01-08T07:41:24Z</time>
      </trkpt>
      <trkpt lat="45.38511" lon="7.65976">
        <ele>392.8</ele>
        <time>2017-01-08T07:41:25Z</time>
      </trkpt>
      <trkpt lat="45.38522" lon="7.65999">
        <ele>391.28</ele>
        <time>2017-01-08T07:41:26Z</time>
      </trkpt>
      <trkpt lat="45.38522" lon="7.66026">
        <ele>390.09</ele>
        <time>2017-01-08T07:41:27Z</time>
      </trkpt>
      <trkpt lat="45.38509" lon="7.66058">
        <ele>390.03</ele>
        <time>2017-01-08T07:41:29Z</time>
      </trkpt>
      <trkpt lat="45.38497" lon="7.66084">
        <ele>389.88</ele>
        <time>2017-01-08T07:41:30Z</time>
      </trkpt>
      <trkpt lat="45.38484" lon="7.66112">
        <ele>389.46</ele>
        <time>2017-01-08T07:41:31Z</time>
      </trkpt>
      <trkpt lat="45.38471" lon="7.6614">
        <ele>390</ele>
        <time>2017-01-08T07:41:32Z</time>
      </trkpt>
      <trkpt lat="45.38458" lon="7.66167">
        <ele>390</ele>
        <time>2017-01-08T07:41:34Z</time>
      </trkpt>
      <trkpt lat="45.38442" lon="7.66196">
        <ele>389.86</ele>
        <time>2017-01-08T07:41:35Z</time>
      </trkpt>
      <trkpt lat="45.38427" lon="7.66222">
        <ele>388.38</ele>
        <time>2017-01-08T07:41:36Z</time>
      </trkpt>
      <trkpt lat="45.3841" lon="7.66247">
        <ele>387.78</ele>
        <time>2017-01-08T07:41:38Z</time>
      </trkpt>
      <trkpt lat="45.38394" lon="7.6627">
        <ele>387.17</ele>
        <time>2017-01-08T07:41:39Z</time>
      </trkpt>
      <trkpt lat="45.38376" lon="7.66295">
        <ele>387.14</ele>
        <time>2017-01-08T07:41:40Z</time>
      </trkpt>
      <trkpt lat="45.38354" lon="7.66314">
        <ele>386.39</ele>
        <time>2017-01-08T07:41:42Z</time>
      </trkpt>
      <trkpt lat="45.38345" lon="7.66347">
        <ele>385.56</ele>
        <time>2017-01-08T07:41:43Z</time>
      </trkpt>
      <trkpt lat="45.38358" lon="7.66376">
        <ele>386.67</ele>
        <time>2017-01-08T07:41:45Z</time>
      </trkpt>
      <trkpt lat="45.38381" lon="7.6637">
        <ele>387.7</ele>
        <time>2017-01-08T07:41:46Z</time>
      </trkpt>
      <trkpt lat="45.3839" lon="7.66336">
        <ele>388</ele>
        <time>2017-01-08T07:41:47Z</time>
      </trkpt>
      <trkpt lat="45.38388" lon="7.66305">
        <ele>387.93</ele>
        <time>2017-01-08T07:41:48Z</time>
      </trkpt>
      <trkpt lat="45.38397" lon="7.66275">
        <ele>387.3</ele>
        <time>2017-01-08T07:41:50Z</time>
      </trkpt>
      <trkpt lat="45.38414" lon="7.66245">
        <ele>387.93</ele>
        <time>2017-01-08T07:41:51Z</time>
      </trkpt>
      <trkpt lat="45.3844" lon="7.66206">
        <ele>389.42</ele>
        <time>2017-01-08T07:41:53Z</time>
      </trkpt>
      <trkpt lat="45.38453" lon="7.66182">
        <ele>390</ele>
        <time>2017-01-08T07:41:54Z</time>
      </trkpt>
      <trkpt lat="45.38466" lon="7.66159">
        <ele>390</ele>
        <time>2017-01-08T07:41:55Z</time>
      </trkpt>
      <trkpt lat="45.38477" lon="7.66136">
        <ele>390.06</ele>
        <time>2017-01-08T07:41:57Z</time>
      </trkpt>
      <trkpt lat="45.38489" lon="7.66113">
        <ele>389.68</ele>
        <time>2017-01-08T07:41:58Z</time>
      </trkpt>
      <trkpt lat="45.385" lon="7.66091">
        <ele>390</ele>
        <time>2017-01-08T07:41:59Z</time>
      </trkpt>
      <trkpt lat="45.3851" lon="7.6607">
        <ele>390.18</ele>
        <time>2017-01-08T07:42:00Z</time>
      </trkpt>
      <trkpt lat="45.38527" lon="7.66032">
        <ele>390</ele>
        <time>2017-01-08T07:42:01Z</time>
      </trkpt>
      <trkpt lat="45.38543" lon="7.66002">
        <ele>390.92</ele>
        <time>2017-01-08T07:42:03Z</time>
      </trkpt>
      <trkpt lat="45.38559" lon="7.65978">
        <ele>392.34</ele>
        <time>2017-01-08T07:42:04Z</time>
      </trkpt>
      <trkpt lat="45.38578" lon="7.65952">
        <ele>392.86</ele>
        <time>2017-01-08T07:42:06Z</time>
      </trkpt>
      <trkpt lat="45.38596" lon="7.65926">
        <ele>392.12</ele>
        <time>2017-01-08T07:42:07Z</time>
      </trkpt>
      <trkpt lat="45.38613" lon="7.659">
        <ele>391.59</ele>
        <time>2017-01-08T07:42:08Z</time>
      </trkpt>
      <trkpt lat="45.38629" lon="7.65876">
        <ele>392</ele>
        <time>2017-01-08T07:42:10Z</time>
      </trkpt>
      <trkpt lat="45.38645" lon="7.65852">
        <ele>392.07</ele>
        <time>2017-01-08T07:42:11Z</time>
      </trkpt>
      <trkpt lat="45.3866" lon="7.65826">
        <ele>392.82</ele>
        <time>2017-01-08T07:42:12Z</time>
      </trkpt>
      <trkpt lat="45.38673" lon="7.65803">
        <ele>393.29</ele>
        <time>2017-01-08T07:42:13Z</time>
      </trkpt>
      <trkpt lat="45.38687" lon="7.65779">
        <ele>393.99</ele>
        <time>2017-01-08T07:42:15Z</time>
      </trkpt>
      <trkpt lat="45.38681" lon="7.6581">
        <ele>393.42</ele>
        <time>2017-01-08T07:42:16Z</time>
      </trkpt>
      <trkpt lat="45.3866" lon="7.65843">
        <ele>392.5</ele>
        <time>2017-01-08T07:42:17Z</time>
      </trkpt>
      <trkpt lat="45.38646" lon="7.65864">
        <ele>392</ele>
        <time>2017-01-08T07:42:19Z</time>
      </trkpt>
      <trkpt lat="45.38634" lon="7.65884">
        <ele>392</ele>
        <time>2017-01-08T07:42:20Z</time>
      </trkpt>
      <trkpt lat="45.38609" lon="7.6592">
        <ele>391.05</ele>
        <time>2017-01-08T07:42:22Z</time>
      </trkpt>
      <trkpt lat="45.38594" lon="7.65937">
        <ele>391.87</ele>
        <time>2017-01-08T07:42:23Z</time>
      </trkpt>
      <trkpt lat="45.38578" lon="7.65954">
        <ele>392.68</ele>
        <time>2017-01-08T07:42:24Z</time>
      </trkpt>
      <trkpt lat="45.38563" lon="7.65972">
        <ele>392.52</ele>
        <time>2017-01-08T07:42:25Z</time>
      </trkpt>
      <trkpt lat="45.38549" lon="7.65989">
        <ele>391.78</ele>
        <time>2017-01-08T07:42:26Z</time>
      </trkpt>
      <trkpt lat="45.38537" lon="7.66009">
        <ele>390.67</ele>
        <time>2017-01-08T07:42:27Z</time>
      </trkpt>
      <trkpt lat="45.38526" lon="7.66033">
        <ele>390</ele>
        <time>2017-01-08T07:42:28Z</time>
      </trkpt>
      <trkpt lat="45.38515" lon="7.66057">
        <ele>390.02</ele>
        <time>2017-01-08T07:42:29Z</time>
      </trkpt>
      <trkpt lat="45.38504" lon="7.66081">
        <ele>390.12</ele>
        <time>2017-01-08T07:42:30Z</time>
      </trkpt>
      <trkpt lat="45.38493" lon="7.66105">
        <ele>389.74</ele>
        <time>2017-01-08T07:42:31Z</time>
      </trkpt>
      <trkpt lat="45.38481" lon="7.66129">
        <ele>389.94</ele>
        <time>2017-01-08T07:42:32Z</time>
      </trkpt>
      <trkpt lat="45.38469" lon="7.66151">
        <ele>390</ele>
        <time>2017-01-08T07:42:33Z</time>
      </trkpt>
      <trkpt lat="45.38458" lon="7.66173">
        <ele>390</ele>
        <time>2017-01-08T07:42:34Z</time>
      </trkpt>
      <trkpt lat="45.38436" lon="7.66212">
        <ele>389.06</ele>
        <time>2017-01-08T07:42:36Z</time>
      </trkpt>
      <trkpt lat="45.38414" lon="7.66246">
        <ele>387.93</ele>
        <time>2017-01-08T07:42:38Z</time>
      </trkpt>
      <trkpt lat="45.38396" lon="7.66275">
        <ele>387.24</ele>
        <time>2017-01-08T07:42:40Z</time>
      </trkpt>
      <trkpt lat="45.3838" lon="7.66294">
        <ele>387.27</ele>
        <time>2017-01-08T07:42:41Z</time>
      </trkpt>
      <trkpt lat="45.38358" lon="7.66313">
        <ele>386.77</ele>
        <time>2017-01-08T07:42:42Z</time>
      </trkpt>
      <trkpt lat="45.38349" lon="7.66345">
        <ele>385.82</ele>
        <time>2017-01-08T07:42:44Z</time>
      </trkpt>
      <trkpt lat="45.38363" lon="7.66372">
        <ele>387.06</ele>
        <time>2017-01-08T07:42:45Z</time>
      </trkpt>
      <trkpt lat="45.38381" lon="7.6637">
        <ele>387.72</ele>
        <time>2017-01-08T07:42:46Z</time>
      </trkpt>
      <trkpt lat="45.38395" lon="7.66351">
        <ele>388</ele>
        <time>2017-01-08T07:42:47Z</time>
      </trkpt>
      <trkpt lat="45.38411" lon="7.6633">
        <ele>388.1</ele>
        <time>2017-01-08T07:42:48Z</time>
      </trkpt>
      <trkpt lat="45.38434" lon="7.66318">
        <ele>388.57</ele>
        <time>2017-01-08T07:42:49Z</time>
      </trkpt>
      <trkpt lat="45.38466" lon="7.66303">
        <ele>389.04</ele>
        <time>2017-01-08T07:42:51Z</time>
      </trkpt>
      <trkpt lat="45.38484" lon="7.66294">
        <ele>389.65</ele>
        <time>2017-01-08T07:42:52Z</time>
      </trkpt>
      <trkpt lat="45.38502" lon="7.66286">
        <ele>389.76</ele>
        <time>2017-01-08T07:42:53Z</time>
      </trkpt>
      <trkpt lat="45.38521" lon="7.66276">
        <ele>388.55</ele>
        <time>2017-01-08T07:42:54Z</time>
      </trkpt>
      <trkpt lat="45.38539" lon="7.66266">
        <ele>387.12</ele>
        <time>2017-01-08T07:42:56Z</time>
      </trkpt>
      <trkpt lat="45.38557" lon="7.66256">
        <ele>386.03</ele>
        <time>2017-01-08T07:42:57Z</time>
      </trkpt>
      <trkpt lat="45.38575" lon="7.66247">
        <ele>384.5</ele>
        <time>2017-01-08T07:42:58Z</time>
      </trkpt>
      <trkpt lat="45.38593" lon="7.66237">
        <ele>381.81</ele>
        <time>2017-01-08T07:42:59Z</time>
      </trkpt>
      <trkpt lat="45.38611" lon="7.66227">
        <ele>379.26</ele>
        <time>2017-01-08T07:43:00Z</time>
      </trkpt>
      <trkpt lat="45.38628" lon="7.66217">
        <ele>379.2</ele>
        <time>2017-01-08T07:43:01Z</time>
      </trkpt>
      <trkpt lat="45.38646" lon="7.66208">
        <ele>378.8</ele>
        <time>2017-01-08T07:43:02Z</time>
      </trkpt>
      <trkpt lat="45.38664" lon="7.66198">
        <ele>378.82</ele>
        <time>2017-01-08T07:43:03Z</time>
      </trkpt>
      <trkpt lat="45.38682" lon="7.66189">
        <ele>377.18</ele>
        <time>2017-01-08T07:43:04Z</time>
      </trkpt>
      <trkpt lat="45.38701" lon="7.6618">
        <ele>375.26</ele>
        <time>2017-01-08T07:43:05Z</time>
      </trkpt>
      <trkpt lat="45.38719" lon="7.66172">
        <ele>373.9</ele>
        <time>2017-01-08T07:43:06Z</time>
      </trkpt>
      <trkpt lat="45.38737" lon="7.66162">
        <ele>374.03</ele>
        <time>2017-01-08T07:43:07Z</time>
      </trkpt>
      <trkpt lat="45.38754" lon="7.66153">
        <ele>373.94</ele>
        <time>2017-01-08T07:43:08Z</time>
      </trkpt>
      <trkpt lat="45.38774" lon="7.66144">
        <ele>372.2</ele>
        <time>2017-01-08T07:43:09Z</time>
      </trkpt>
      <trkpt lat="45.38792" lon="7.66136">
        <ele>371.72</ele>
        <time>2017-01-08T07:43:10Z</time>
      </trkpt>
      <trkpt lat="45.3881" lon="7.66127">
        <ele>371.73</ele>
        <time>2017-01-08T07:43:11Z</time>
      </trkpt>
      <trkpt lat="45.38828" lon="7.66118">
        <ele>371.71</ele>
        <time>2017-01-08T07:43:12Z</time>
      </trkpt>
      <trkpt lat="45.38846" lon="7.66109">
        <ele>371.7</ele>
        <time>2017-01-08T07:43:13Z</time>
      </trkpt>
      <trkpt lat="45.38864" lon="7.661">
        <ele>371.94</ele>
        <time>2017-01-08T07:43:14Z</time>
      </trkpt>
      <trkpt lat="45.38882" lon="7.66091">
        <ele>373.21</ele>
        <time>2017-01-08T07:43:15Z</time>
      </trkpt>
      <trkpt lat="45.389" lon="7.66082">
        <ele>373.68</ele>
        <time>2017-01-08T07:43:17Z</time>
      </trkpt>
      <trkpt lat="45.38917" lon="7.66074">
        <ele>373.27</ele>
        <time>2017-01-08T07:43:18Z</time>
      </trkpt>
      <trkpt lat="45.38935" lon="7.66067">
        <ele>371.9</ele>
        <time>2017-01-08T07:43:19Z</time>
      </trkpt>
      <trkpt lat="45.38952" lon="7.6606">
        <ele>371.28</ele>
        <time>2017-01-08T07:43:20Z</time>
      </trkpt>
      <trkpt lat="45.38987" lon="7.66049">
        <ele>373.15</ele>
        <time>2017-01-08T07:43:21Z</time>
      </trkpt>
      <trkpt lat="45.39021" lon="7.66041">
        <ele>374.54</ele>
        <time>2017-01-08T07:43:23Z</time>
      </trkpt>
      <trkpt lat="45.39056" lon="7.66036">
        <ele>373.69</ele>
        <time>2017-01-08T07:43:25Z</time>
      </trkpt>
      <trkpt lat="45.39074" lon="7.66036">
        <ele>373.05</ele>
        <time>2017-01-08T07:43:26Z</time>
      </trkpt>
      <trkpt lat="45.39093" lon="7.66036">
        <ele>372.95</ele>
        <time>2017-01-08T07:43:27Z</time>
      </trkpt>
      <trkpt lat="45.39111" lon="7.66036">
        <ele>373.41</ele>
        <time>2017-01-08T07:43:28Z</time>
      </trkpt>
      <trkpt lat="45.39129" lon="7.66036">
        <ele>373.39</ele>
        <time>2017-01-08T07:43:29Z</time>
      </trkpt>
      <trkpt lat="45.39147" lon="7.66037">
        <ele>373.65</ele>
        <time>2017-01-08T07:43:30Z</time>
      </trkpt>
      <trkpt lat="45.39166" lon="7.66037">
        <ele>374.3</ele>
        <time>2017-01-08T07:43:31Z</time>
      </trkpt>
      <trkpt lat="45.39201" lon="7.66038">
        <ele>374.19</ele>
        <time>2017-01-08T07:43:33Z</time>
      </trkpt>
      <trkpt lat="45.39219" lon="7.66039">
        <ele>373.7</ele>
        <time>2017-01-08T07:43:34Z</time>
      </trkpt>
      <trkpt lat="45.39254" lon="7.66039">
        <ele>372.42</ele>
        <time>2017-01-08T07:43:36Z</time>
      </trkpt>
      <trkpt lat="45.39288" lon="7.66039">
        <ele>369.84</ele>
        <time>2017-01-08T07:43:38Z</time>
      </trkpt>
      <trkpt lat="45.39321" lon="7.66039">
        <ele>369.42</ele>
        <time>2017-01-08T07:43:40Z</time>
      </trkpt>
      <trkpt lat="45.39354" lon="7.66039">
        <ele>372.09</ele>
        <time>2017-01-08T07:43:42Z</time>
      </trkpt>
      <trkpt lat="45.39387" lon="7.66039">
        <ele>375.38</ele>
        <time>2017-01-08T07:43:43Z</time>
      </trkpt>
      <trkpt lat="45.39422" lon="7.66039">
        <ele>374.7</ele>
        <time>2017-01-08T07:43:45Z</time>
      </trkpt>
      <trkpt lat="45.39456" lon="7.6604">
        <ele>372.75</ele>
        <time>2017-01-08T07:43:47Z</time>
      </trkpt>
      <trkpt lat="45.39486" lon="7.66041">
        <ele>374.25</ele>
        <time>2017-01-08T07:43:49Z</time>
      </trkpt>
      <trkpt lat="45.39509" lon="7.66041">
        <ele>376.26</ele>
        <time>2017-01-08T07:43:50Z</time>
      </trkpt>
      <trkpt lat="45.39532" lon="7.66043">
        <ele>378.13</ele>
        <time>2017-01-08T07:43:51Z</time>
      </trkpt>
      <trkpt lat="45.39547" lon="7.66061">
        <ele>379.52</ele>
        <time>2017-01-08T07:43:52Z</time>
      </trkpt>
      <trkpt lat="45.39528" lon="7.66082">
        <ele>380.94</ele>
        <time>2017-01-08T07:43:54Z</time>
      </trkpt>
      <trkpt lat="45.39506" lon="7.66097">
        <ele>380.54</ele>
        <time>2017-01-08T07:43:55Z</time>
      </trkpt>
      <trkpt lat="45.39482" lon="7.66112">
        <ele>380.39</ele>
        <time>2017-01-08T07:43:57Z</time>
      </trkpt>
      <trkpt lat="45.39455" lon="7.66129">
        <ele>382.64</ele>
        <time>2017-01-08T07:43:58Z</time>
      </trkpt>
      <trkpt lat="45.39425" lon="7.66149">
        <ele>383.42</ele>
        <time>2017-01-08T07:44:00Z</time>
      </trkpt>
      <trkpt lat="45.39393" lon="7.66175">
        <ele>382.66</ele>
        <time>2017-01-08T07:44:02Z</time>
      </trkpt>
      <trkpt lat="45.39377" lon="7.66191">
        <ele>382.19</ele>
        <time>2017-01-08T07:44:03Z</time>
      </trkpt>
      <trkpt lat="45.39361" lon="7.66208">
        <ele>379.88</ele>
        <time>2017-01-08T07:44:04Z</time>
      </trkpt>
      <trkpt lat="45.39346" lon="7.66225">
        <ele>378.61</ele>
        <time>2017-01-08T07:44:05Z</time>
      </trkpt>
      <trkpt lat="45.39331" lon="7.66242">
        <ele>377.79</ele>
        <time>2017-01-08T07:44:06Z</time>
      </trkpt>
      <trkpt lat="45.39315" lon="7.66259">
        <ele>377.28</ele>
        <time>2017-01-08T07:44:07Z</time>
      </trkpt>
      <trkpt lat="45.393" lon="7.66274">
        <ele>376.3</ele>
        <time>2017-01-08T07:44:08Z</time>
      </trkpt>
      <trkpt lat="45.39273" lon="7.66301">
        <ele>375.26</ele>
        <time>2017-01-08T07:44:10Z</time>
      </trkpt>
      <trkpt lat="45.3925" lon="7.66328">
        <ele>375.08</ele>
        <time>2017-01-08T07:44:12Z</time>
      </trkpt>
      <trkpt lat="45.39228" lon="7.66358">
        <ele>374.95</ele>
        <time>2017-01-08T07:44:13Z</time>
      </trkpt>
      <trkpt lat="45.39213" lon="7.66398">
        <ele>376.4</ele>
        <time>2017-01-08T07:44:15Z</time>
      </trkpt>
      <trkpt lat="45.39204" lon="7.66438">
        <ele>376.59</ele>
        <time>2017-01-08T07:44:17Z</time>
      </trkpt>
      <trkpt lat="45.39199" lon="7.66473">
        <ele>374.78</ele>
        <time>2017-01-08T07:44:18Z</time>
      </trkpt>
      <trkpt lat="45.39193" lon="7.66504">
        <ele>373.87</ele>
        <time>2017-01-08T07:44:19Z</time>
      </trkpt>
      <trkpt lat="45.39189" lon="7.6653">
        <ele>373.75</ele>
        <time>2017-01-08T07:44:20Z</time>
      </trkpt>
      <trkpt lat="45.39179" lon="7.66565">
        <ele>372.85</ele>
        <time>2017-01-08T07:44:22Z</time>
      </trkpt>
      <trkpt lat="45.39167" lon="7.66596">
        <ele>372.46</ele>
        <time>2017-01-08T07:44:23Z</time>
      </trkpt>
      <trkpt lat="45.39157" lon="7.66619">
        <ele>374.43</ele>
        <time>2017-01-08T07:44:24Z</time>
      </trkpt>
      <trkpt lat="45.39147" lon="7.66645">
        <ele>377.82</ele>
        <time>2017-01-08T07:44:25Z</time>
      </trkpt>
      <trkpt lat="45.39138" lon="7.66673">
        <ele>380.54</ele>
        <time>2017-01-08T07:44:27Z</time>
      </trkpt>
      <trkpt lat="45.39123" lon="7.667">
        <ele>379.99</ele>
        <time>2017-01-08T07:44:28Z</time>
      </trkpt>
      <trkpt lat="45.39102" lon="7.66732">
        <ele>379.49</ele>
        <time>2017-01-08T07:44:30Z</time>
      </trkpt>
      <trkpt lat="45.39081" lon="7.66766">
        <ele>378.41</ele>
        <time>2017-01-08T07:44:31Z</time>
      </trkpt>
      <trkpt lat="45.39061" lon="7.66798">
        <ele>375.94</ele>
        <time>2017-01-08T07:44:33Z</time>
      </trkpt>
      <trkpt lat="45.39043" lon="7.66827">
        <ele>376.33</ele>
        <time>2017-01-08T07:44:35Z</time>
      </trkpt>
      <trkpt lat="45.39026" lon="7.66856">
        <ele>377.92</ele>
        <time>2017-01-08T07:44:36Z</time>
      </trkpt>
      <trkpt lat="45.3901" lon="7.66885">
        <ele>380.7</ele>
        <time>2017-01-08T07:44:37Z</time>
      </trkpt>
      <trkpt lat="45.38994" lon="7.66916">
        <ele>377.43</ele>
        <time>2017-01-08T07:44:39Z</time>
      </trkpt>
      <trkpt lat="45.38977" lon="7.66952">
        <ele>373.58</ele>
        <time>2017-01-08T07:44:41Z</time>
      </trkpt>
      <trkpt lat="45.38958" lon="7.66989">
        <ele>372.36</ele>
        <time>2017-01-08T07:44:42Z</time>
      </trkpt>
      <trkpt lat="45.38936" lon="7.67031">
        <ele>374.11</ele>
        <time>2017-01-08T07:44:44Z</time>
      </trkpt>
      <trkpt lat="45.38925" lon="7.67054">
        <ele>376.29</ele>
        <time>2017-01-08T07:44:45Z</time>
      </trkpt>
      <trkpt lat="45.38913" lon="7.6708">
        <ele>376.67</ele>
        <time>2017-01-08T07:44:47Z</time>
      </trkpt>
      <trkpt lat="45.38901" lon="7.67105">
        <ele>376.91</ele>
        <time>2017-01-08T07:44:48Z</time>
      </trkpt>
      <trkpt lat="45.38888" lon="7.67133">
        <ele>377.43</ele>
        <time>2017-01-08T07:44:49Z</time>
      </trkpt>
      <trkpt lat="45.38876" lon="7.67162">
        <ele>377.76</ele>
        <time>2017-01-08T07:44:50Z</time>
      </trkpt>
      <trkpt lat="45.38863" lon="7.67192">
        <ele>373.94</ele>
        <time>2017-01-08T07:44:52Z</time>
      </trkpt>
      <trkpt lat="45.38851" lon="7.67222">
        <ele>371.94</ele>
        <time>2017-01-08T07:44:53Z</time>
      </trkpt>
      <trkpt lat="45.3884" lon="7.6725">
        <ele>370.24</ele>
        <time>2017-01-08T07:44:54Z</time>
      </trkpt>
      <trkpt lat="45.38829" lon="7.67278">
        <ele>369.54</ele>
        <time>2017-01-08T07:44:55Z</time>
      </trkpt>
      <trkpt lat="45.38819" lon="7.67304">
        <ele>371.63</ele>
        <time>2017-01-08T07:44:57Z</time>
      </trkpt>
      <trkpt lat="45.38807" lon="7.6733">
        <ele>371.98</ele>
        <time>2017-01-08T07:44:58Z</time>
      </trkpt>
      <trkpt lat="45.38795" lon="7.67356">
        <ele>372.78</ele>
        <time>2017-01-08T07:44:59Z</time>
      </trkpt>
      <trkpt lat="45.38782" lon="7.67383">
        <ele>371.05</ele>
        <time>2017-01-08T07:45:00Z</time>
      </trkpt>
      <trkpt lat="45.3877" lon="7.67408">
        <ele>371.66</ele>
        <time>2017-01-08T07:45:01Z</time>
      </trkpt>
      <trkpt lat="45.38758" lon="7.67431">
        <ele>371.42</ele>
        <time>2017-01-08T07:45:03Z</time>
      </trkpt>
      <trkpt lat="45.38746" lon="7.67456">
        <ele>369.24</ele>
        <time>2017-01-08T07:45:04Z</time>
      </trkpt>
      <trkpt lat="45.38735" lon="7.67483">
        <ele>367.17</ele>
        <time>2017-01-08T07:45:05Z</time>
      </trkpt>
      <trkpt lat="45.38726" lon="7.67511">
        <ele>366.01</ele>
        <time>2017-01-08T07:45:06Z</time>
      </trkpt>
      <trkpt lat="45.38718" lon="7.67538">
        <ele>366.97</ele>
        <time>2017-01-08T07:45:07Z</time>
      </trkpt>
      <trkpt lat="45.38711" lon="7.67562">
        <ele>368.99</ele>
        <time>2017-01-08T07:45:08Z</time>
      </trkpt>
      <trkpt lat="45.38698" lon="7.67607">
        <ele>371.24</ele>
        <time>2017-01-08T07:45:10Z</time>
      </trkpt>
      <trkpt lat="45.38682" lon="7.67649">
        <ele>367.47</ele>
        <time>2017-01-08T07:45:12Z</time>
      </trkpt>
      <trkpt lat="45.38672" lon="7.67671">
        <ele>363.3</ele>
        <time>2017-01-08T07:45:13Z</time>
      </trkpt>
      <trkpt lat="45.38662" lon="7.67694">
        <ele>361.82</ele>
        <time>2017-01-08T07:45:14Z</time>
      </trkpt>
      <trkpt lat="45.38651" lon="7.67716">
        <ele>361.43</ele>
        <time>2017-01-08T07:45:15Z</time>
      </trkpt>
      <trkpt lat="45.3864" lon="7.67739">
        <ele>361.05</ele>
        <time>2017-01-08T07:45:16Z</time>
      </trkpt>
      <trkpt lat="45.38629" lon="7.67762">
        <ele>360.27</ele>
        <time>2017-01-08T07:45:17Z</time>
      </trkpt>
      <trkpt lat="45.38617" lon="7.67785">
        <ele>359.18</ele>
        <time>2017-01-08T07:45:18Z</time>
      </trkpt>
      <trkpt lat="45.38606" lon="7.67809">
        <ele>357.59</ele>
        <time>2017-01-08T07:45:19Z</time>
      </trkpt>
      <trkpt lat="45.38594" lon="7.67832">
        <ele>355.46</ele>
        <time>2017-01-08T07:45:21Z</time>
      </trkpt>
      <trkpt lat="45.38582" lon="7.67856">
        <ele>355.04</ele>
        <time>2017-01-08T07:45:22Z</time>
      </trkpt>
      <trkpt lat="45.38571" lon="7.6788">
        <ele>355.45</ele>
        <time>2017-01-08T07:45:23Z</time>
      </trkpt>
      <trkpt lat="45.3856" lon="7.67904">
        <ele>356.45</ele>
        <time>2017-01-08T07:45:24Z</time>
      </trkpt>
      <trkpt lat="45.38549" lon="7.67926">
        <ele>357.26</ele>
        <time>2017-01-08T07:45:25Z</time>
      </trkpt>
      <trkpt lat="45.38539" lon="7.67948">
        <ele>357.46</ele>
        <time>2017-01-08T07:45:26Z</time>
      </trkpt>
      <trkpt lat="45.38519" lon="7.67989">
        <ele>357.67</ele>
        <time>2017-01-08T07:45:28Z</time>
      </trkpt>
      <trkpt lat="45.38499" lon="7.68026">
        <ele>357.02</ele>
        <time>2017-01-08T07:45:30Z</time>
      </trkpt>
      <trkpt lat="45.38483" lon="7.68058">
        <ele>357</ele>
        <time>2017-01-08T07:45:31Z</time>
      </trkpt>
      <trkpt lat="45.3847" lon="7.68085">
        <ele>356.99</ele>
        <time>2017-01-08T07:45:32Z</time>
      </trkpt>
      <trkpt lat="45.38458" lon="7.68111">
        <ele>356.98</ele>
        <time>2017-01-08T07:45:34Z</time>
      </trkpt>
      <trkpt lat="45.38449" lon="7.68085">
        <ele>356.17</ele>
        <time>2017-01-08T07:45:35Z</time>
      </trkpt>
      <trkpt lat="45.38452" lon="7.68059">
        <ele>356.9</ele>
        <time>2017-01-08T07:45:36Z</time>
      </trkpt>
      <trkpt lat="45.38453" lon="7.68028">
        <ele>358</ele>
        <time>2017-01-08T07:45:37Z</time>
      </trkpt>
      <trkpt lat="45.38457" lon="7.68001">
        <ele>358</ele>
        <time>2017-01-08T07:45:38Z</time>
      </trkpt>
      <trkpt lat="45.38454" lon="7.68028">
        <ele>357.99</ele>
        <time>2017-01-08T07:45:39Z</time>
      </trkpt>
      <trkpt lat="45.38454" lon="7.68063">
        <ele>356.83</ele>
        <time>2017-01-08T07:45:40Z</time>
      </trkpt>
      <trkpt lat="45.38454" lon="7.68097">
        <ele>356.51</ele>
        <time>2017-01-08T07:45:42Z</time>
      </trkpt>
      <trkpt lat="45.38448" lon="7.68132">
        <ele>356.33</ele>
        <time>2017-01-08T07:45:43Z</time>
      </trkpt>
      <trkpt lat="45.38438" lon="7.68161">
        <ele>356.15</ele>
        <time>2017-01-08T07:45:44Z</time>
      </trkpt>
      <trkpt lat="45.38423" lon="7.68198">
        <ele>355.65</ele>
        <time>2017-01-08T07:45:46Z</time>
      </trkpt>
      <trkpt lat="45.38413" lon="7.6822">
        <ele>354.59</ele>
        <time>2017-01-08T07:45:47Z</time>
      </trkpt>
      <trkpt lat="45.38404" lon="7.68243">
        <ele>353.96</ele>
        <time>2017-01-08T07:45:48Z</time>
      </trkpt>
      <trkpt lat="45.38396" lon="7.68267">
        <ele>354.11</ele>
        <time>2017-01-08T07:45:49Z</time>
      </trkpt>
      <trkpt lat="45.38388" lon="7.68291">
        <ele>354</ele>
        <time>2017-01-08T07:45:50Z</time>
      </trkpt>
      <trkpt lat="45.38381" lon="7.68316">
        <ele>353.89</ele>
        <time>2017-01-08T07:45:51Z</time>
      </trkpt>
      <trkpt lat="45.38375" lon="7.68341">
        <ele>353.23</ele>
        <time>2017-01-08T07:45:52Z</time>
      </trkpt>
      <trkpt lat="45.38368" lon="7.68366">
        <ele>352.3</ele>
        <time>2017-01-08T07:45:53Z</time>
      </trkpt>
      <trkpt lat="45.38363" lon="7.68392">
        <ele>352.14</ele>
        <time>2017-01-08T07:45:54Z</time>
      </trkpt>
      <trkpt lat="45.38358" lon="7.68418">
        <ele>351.89</ele>
        <time>2017-01-08T07:45:55Z</time>
      </trkpt>
      <trkpt lat="45.38354" lon="7.68444">
        <ele>351.51</ele>
        <time>2017-01-08T07:45:56Z</time>
      </trkpt>
      <trkpt lat="45.38351" lon="7.6847">
        <ele>351.29</ele>
        <time>2017-01-08T07:45:57Z</time>
      </trkpt>
      <trkpt lat="45.3835" lon="7.68496">
        <ele>351.16</ele>
        <time>2017-01-08T07:45:58Z</time>
      </trkpt>
      <trkpt lat="45.38348" lon="7.68523">
        <ele>351.43</ele>
        <time>2017-01-08T07:45:59Z</time>
      </trkpt>
      <trkpt lat="45.38347" lon="7.68549">
        <ele>351.49</ele>
        <time>2017-01-08T07:46:00Z</time>
      </trkpt>
      <trkpt lat="45.38347" lon="7.68575">
        <ele>351.47</ele>
        <time>2017-01-08T07:46:01Z</time>
      </trkpt>
      <trkpt lat="45.38347" lon="7.68623">
        <ele>352.48</ele>
        <time>2017-01-08T07:46:03Z</time>
      </trkpt>
      <trkpt lat="45.38347" lon="7.68661">
        <ele>353.27</ele>
        <time>2017-01-08T07:46:05Z</time>
      </trkpt>
      <trkpt lat="45.38346" lon="7.68695">
        <ele>355.48</ele>
        <time>2017-01-08T07:46:06Z</time>
      </trkpt>
      <trkpt lat="45.38346" lon="7.68725">
        <ele>357.09</ele>
        <time>2017-01-08T07:46:07Z</time>
      </trkpt>
      <trkpt lat="45.38346" lon="7.68751">
        <ele>357.99</ele>
        <time>2017-01-08T07:46:08Z</time>
      </trkpt>
      <trkpt lat="45.38346" lon="7.68785">
        <ele>357.58</ele>
        <time>2017-01-08T07:46:09Z</time>
      </trkpt>
      <trkpt lat="45.38346" lon="7.68814">
        <ele>357.88</ele>
        <time>2017-01-08T07:46:11Z</time>
      </trkpt>
      <trkpt lat="45.38349" lon="7.68841">
        <ele>358.36</ele>
        <time>2017-01-08T07:46:12Z</time>
      </trkpt>
      <trkpt lat="45.3835" lon="7.68804">
        <ele>358.17</ele>
        <time>2017-01-08T07:46:13Z</time>
      </trkpt>
      <trkpt lat="45.38348" lon="7.68774">
        <ele>357.61</ele>
        <time>2017-01-08T07:46:14Z</time>
      </trkpt>
      <trkpt lat="45.38347" lon="7.68739">
        <ele>357.6</ele>
        <time>2017-01-08T07:46:16Z</time>
      </trkpt>
      <trkpt lat="45.38346" lon="7.68702">
        <ele>355.88</ele>
        <time>2017-01-08T07:46:17Z</time>
      </trkpt>
      <trkpt lat="45.38345" lon="7.68664">
        <ele>353.31</ele>
        <time>2017-01-08T07:46:18Z</time>
      </trkpt>
      <trkpt lat="45.38344" lon="7.68625">
        <ele>352.38</ele>
        <time>2017-01-08T07:46:20Z</time>
      </trkpt>
      <trkpt lat="45.38345" lon="7.68588">
        <ele>351.56</ele>
        <time>2017-01-08T07:46:21Z</time>
      </trkpt>
      <trkpt lat="45.38346" lon="7.68551">
        <ele>351.45</ele>
        <time>2017-01-08T07:46:23Z</time>
      </trkpt>
      <trkpt lat="45.38348" lon="7.68511">
        <ele>351.23</ele>
        <time>2017-01-08T07:46:24Z</time>
      </trkpt>
      <trkpt lat="45.38351" lon="7.68467">
        <ele>351.29</ele>
        <time>2017-01-08T07:46:26Z</time>
      </trkpt>
      <trkpt lat="45.38358" lon="7.6842">
        <ele>351.86</ele>
        <time>2017-01-08T07:46:28Z</time>
      </trkpt>
      <trkpt lat="45.38365" lon="7.68375">
        <ele>352.22</ele>
        <time>2017-01-08T07:46:30Z</time>
      </trkpt>
      <trkpt lat="45.38378" lon="7.68329">
        <ele>353.65</ele>
        <time>2017-01-08T07:46:32Z</time>
      </trkpt>
      <trkpt lat="45.38391" lon="7.68286">
        <ele>354.12</ele>
        <time>2017-01-08T07:46:33Z</time>
      </trkpt>
      <trkpt lat="45.38405" lon="7.68247">
        <ele>354.12</ele>
        <time>2017-01-08T07:46:35Z</time>
      </trkpt>
      <trkpt lat="45.38423" lon="7.68209">
        <ele>355.52</ele>
        <time>2017-01-08T07:46:37Z</time>
      </trkpt>
      <trkpt lat="45.38437" lon="7.68178">
        <ele>356.58</ele>
        <time>2017-01-08T07:46:38Z</time>
      </trkpt>
      <trkpt lat="45.38448" lon="7.68156">
        <ele>356.89</ele>
        <time>2017-01-08T07:46:39Z</time>
      </trkpt>
      <trkpt lat="45.38426" lon="7.68165">
        <ele>354.99</ele>
        <time>2017-01-08T07:46:40Z</time>
      </trkpt>
      <trkpt lat="45.38414" lon="7.68192">
        <ele>354.7</ele>
        <time>2017-01-08T07:46:42Z</time>
      </trkpt>
      <trkpt lat="45.38401" lon="7.68218">
        <ele>353.43</ele>
        <time>2017-01-08T07:46:43Z</time>
      </trkpt>
      <trkpt lat="45.38391" lon="7.68245">
        <ele>352.95</ele>
        <time>2017-01-08T07:46:44Z</time>
      </trkpt>
      <trkpt lat="45.3838" lon="7.68275">
        <ele>353.89</ele>
        <time>2017-01-08T07:46:45Z</time>
      </trkpt>
      <trkpt lat="45.38371" lon="7.68307">
        <ele>353.98</ele>
        <time>2017-01-08T07:46:47Z</time>
      </trkpt>
      <trkpt lat="45.38362" lon="7.68333">
        <ele>353.06</ele>
        <time>2017-01-08T07:46:48Z</time>
      </trkpt>
      <trkpt lat="45.38356" lon="7.68358">
        <ele>352.27</ele>
        <time>2017-01-08T07:46:49Z</time>
      </trkpt>
      <trkpt lat="45.38349" lon="7.68386">
        <ele>352.04</ele>
        <time>2017-01-08T07:46:50Z</time>
      </trkpt>
      <trkpt lat="45.38345" lon="7.68416">
        <ele>351.44</ele>
        <time>2017-01-08T07:46:51Z</time>
      </trkpt>
      <trkpt lat="45.38341" lon="7.68448">
        <ele>350.57</ele>
        <time>2017-01-08T07:46:52Z</time>
      </trkpt>
      <trkpt lat="45.38338" lon="7.68481">
        <ele>350.31</ele>
        <time>2017-01-08T07:46:54Z</time>
      </trkpt>
      <trkpt lat="45.38335" lon="7.68511">
        <ele>350.52</ele>
        <time>2017-01-08T07:46:55Z</time>
      </trkpt>
      <trkpt lat="45.38334" lon="7.6854">
        <ele>351.02</ele>
        <time>2017-01-08T07:46:56Z</time>
      </trkpt>
      <trkpt lat="45.38333" lon="7.68567">
        <ele>351</ele>
        <time>2017-01-08T07:46:57Z</time>
      </trkpt>
      <trkpt lat="45.38332" lon="7.68599">
        <ele>351.6</ele>
        <time>2017-01-08T07:46:58Z</time>
      </trkpt>
      <trkpt lat="45.3831" lon="7.68588">
        <ele>351.87</ele>
        <time>2017-01-08T07:47:00Z</time>
      </trkpt>
      <trkpt lat="45.38294" lon="7.6856">
        <ele>351.5</ele>
        <time>2017-01-08T07:47:01Z</time>
      </trkpt>
      <trkpt lat="45.3828" lon="7.6854">
        <ele>351.34</ele>
        <time>2017-01-08T07:47:02Z</time>
      </trkpt>
      <trkpt lat="45.38262" lon="7.68529">
        <ele>351.58</ele>
        <time>2017-01-08T07:47:03Z</time>
      </trkpt>
      <trkpt lat="45.38243" lon="7.68519">
        <ele>351.43</ele>
        <time>2017-01-08T07:47:04Z</time>
      </trkpt>
      <trkpt lat="45.38221" lon="7.68519">
        <ele>350.63</ele>
        <time>2017-01-08T07:47:05Z</time>
      </trkpt>
      <trkpt lat="45.38199" lon="7.68529">
        <ele>350.12</ele>
        <time>2017-01-08T07:47:07Z</time>
      </trkpt>
      <trkpt lat="45.38178" lon="7.68528">
        <ele>350</ele>
        <time>2017-01-08T07:47:08Z</time>
      </trkpt>
      <trkpt lat="45.38153" lon="7.68517">
        <ele>349.43</ele>
        <time>2017-01-08T07:47:09Z</time>
      </trkpt>
      <trkpt lat="45.38131" lon="7.68503">
        <ele>349.38</ele>
        <time>2017-01-08T07:47:11Z</time>
      </trkpt>
      <trkpt lat="45.38115" lon="7.68493">
        <ele>349.85</ele>
        <time>2017-01-08T07:47:12Z</time>
      </trkpt>
      <trkpt lat="45.38097" lon="7.68483">
        <ele>350.2</ele>
        <time>2017-01-08T07:47:13Z</time>
      </trkpt>
      <trkpt lat="45.38079" lon="7.68503">
        <ele>350.75</ele>
        <time>2017-01-08T07:47:14Z</time>
      </trkpt>
      <trkpt lat="45.38065" lon="7.6852">
        <ele>350.09</ele>
        <time>2017-01-08T07:47:15Z</time>
      </trkpt>
      <trkpt lat="45.38042" lon="7.68537">
        <ele>349.35</ele>
        <time>2017-01-08T07:47:16Z</time>
      </trkpt>
      <trkpt lat="45.3802" lon="7.68557">
        <ele>349</ele>
        <time>2017-01-08T07:47:18Z</time>
      </trkpt>
      <trkpt lat="45.38007" lon="7.68577">
        <ele>349</ele>
        <time>2017-01-08T07:47:19Z</time>
      </trkpt>
      <trkpt lat="45.37996" lon="7.68616">
        <ele>349.39</ele>
        <time>2017-01-08T07:47:20Z</time>
      </trkpt>
      <trkpt lat="45.37989" lon="7.68647">
        <ele>348.02</ele>
        <time>2017-01-08T07:47:22Z</time>
      </trkpt>
      <trkpt lat="45.37982" lon="7.68671">
        <ele>347.29</ele>
        <time>2017-01-08T07:47:23Z</time>
      </trkpt>
      <trkpt lat="45.37965" lon="7.68663">
        <ele>346.69</ele>
        <time>2017-01-08T07:47:24Z</time>
      </trkpt>
      <trkpt lat="45.3795" lon="7.68646">
        <ele>345.62</ele>
        <time>2017-01-08T07:47:25Z</time>
      </trkpt>
      <trkpt lat="45.37935" lon="7.68628">
        <ele>344.39</ele>
        <time>2017-01-08T07:47:26Z</time>
      </trkpt>
      <trkpt lat="45.37921" lon="7.68611">
        <ele>344</ele>
        <time>2017-01-08T07:47:27Z</time>
      </trkpt>
      <trkpt lat="45.37902" lon="7.686">
        <ele>344.54</ele>
        <time>2017-01-08T07:47:28Z</time>
      </trkpt>
      <trkpt lat="45.37887" lon="7.6862">
        <ele>345.11</ele>
        <time>2017-01-08T07:47:29Z</time>
      </trkpt>
      <trkpt lat="45.37877" lon="7.68645">
        <ele>345.42</ele>
        <time>2017-01-08T07:47:30Z</time>
      </trkpt>
      <trkpt lat="45.37865" lon="7.68667">
        <ele>345.87</ele>
        <time>2017-01-08T07:47:31Z</time>
      </trkpt>
      <trkpt lat="45.37854" lon="7.68689">
        <ele>346.51</ele>
        <time>2017-01-08T07:47:32Z</time>
      </trkpt>
      <trkpt lat="45.37844" lon="7.68711">
        <ele>346.28</ele>
        <time>2017-01-08T07:47:33Z</time>
      </trkpt>
      <trkpt lat="45.37831" lon="7.6873">
        <ele>345.64</ele>
        <time>2017-01-08T07:47:34Z</time>
      </trkpt>
      <trkpt lat="45.37813" lon="7.68757">
        <ele>345.21</ele>
        <time>2017-01-08T07:47:36Z</time>
      </trkpt>
      <trkpt lat="45.37801" lon="7.68789">
        <ele>345.1</ele>
        <time>2017-01-08T07:47:37Z</time>
      </trkpt>
      <trkpt lat="45.37791" lon="7.68813">
        <ele>344.87</ele>
        <time>2017-01-08T07:47:38Z</time>
      </trkpt>
      <trkpt lat="45.37777" lon="7.68835">
        <ele>344.91</ele>
        <time>2017-01-08T07:47:39Z</time>
      </trkpt>
      <trkpt lat="45.37761" lon="7.68858">
        <ele>343.53</ele>
        <time>2017-01-08T07:47:41Z</time>
      </trkpt>
      <trkpt lat="45.3775" lon="7.68879">
        <ele>343.64</ele>
        <time>2017-01-08T07:47:42Z</time>
      </trkpt>
      <trkpt lat="45.37743" lon="7.68909">
        <ele>343.21</ele>
        <time>2017-01-08T07:47:43Z</time>
      </trkpt>
      <trkpt lat="45.37741" lon="7.68937">
        <ele>343</ele>
        <time>2017-01-08T07:47:44Z</time>
      </trkpt>
      <trkpt lat="45.37741" lon="7.68969">
        <ele>343</ele>
        <time>2017-01-08T07:47:45Z</time>
      </trkpt>
      <trkpt lat="45.37735" lon="7.68999">
        <ele>344.41</ele>
        <time>2017-01-08T07:47:46Z</time>
      </trkpt>
      <trkpt lat="45.37725" lon="7.6903">
        <ele>346.27</ele>
        <time>2017-01-08T07:47:48Z</time>
      </trkpt>
      <trkpt lat="45.37718" lon="7.69055">
        <ele>346.82</ele>
        <time>2017-01-08T07:47:49Z</time>
      </trkpt>
      <trkpt lat="45.37711" lon="7.6908">
        <ele>346.58</ele>
        <time>2017-01-08T07:47:50Z</time>
      </trkpt>
      <trkpt lat="45.37704" lon="7.69111">
        <ele>346.36</ele>
        <time>2017-01-08T07:47:51Z</time>
      </trkpt>
      <trkpt lat="45.37699" lon="7.69144">
        <ele>344.69</ele>
        <time>2017-01-08T07:47:52Z</time>
      </trkpt>
      <trkpt lat="45.37694" lon="7.69173">
        <ele>342.78</ele>
        <time>2017-01-08T07:47:53Z</time>
      </trkpt>
      <trkpt lat="45.37694" lon="7.69201">
        <ele>341.54</ele>
        <time>2017-01-08T07:47:54Z</time>
      </trkpt>
      <trkpt lat="45.37688" lon="7.69234">
        <ele>340.23</ele>
        <time>2017-01-08T07:47:56Z</time>
      </trkpt>
      <trkpt lat="45.37678" lon="7.69257">
        <ele>340.58</ele>
        <time>2017-01-08T07:47:57Z</time>
      </trkpt>
      <trkpt lat="45.37664" lon="7.69281">
        <ele>341.09</ele>
        <time>2017-01-08T07:47:58Z</time>
      </trkpt>
      <trkpt lat="45.37648" lon="7.69295">
        <ele>342.53</ele>
        <time>2017-01-08T07:47:59Z</time>
      </trkpt>
      <trkpt lat="45.37626" lon="7.69295">
        <ele>343.44</ele>
        <time>2017-01-08T07:48:00Z</time>
      </trkpt>
      <trkpt lat="45.37604" lon="7.693">
        <ele>343.6</ele>
        <time>2017-01-08T07:48:02Z</time>
      </trkpt>
      <trkpt lat="45.37588" lon="7.6932">
        <ele>344.61</ele>
        <time>2017-01-08T07:48:03Z</time>
      </trkpt>
      <trkpt lat="45.37582" lon="7.69354">
        <ele>345</ele>
        <time>2017-01-08T07:48:04Z</time>
      </trkpt>
      <trkpt lat="45.37572" lon="7.6938">
        <ele>344.59</ele>
        <time>2017-01-08T07:48:05Z</time>
      </trkpt>
      <trkpt lat="45.37563" lon="7.6941">
        <ele>344.35</ele>
        <time>2017-01-08T07:48:06Z</time>
      </trkpt>
      <trkpt lat="45.37554" lon="7.69441">
        <ele>343.3</ele>
        <time>2017-01-08T07:48:08Z</time>
      </trkpt>
      <trkpt lat="45.37548" lon="7.69471">
        <ele>341.79</ele>
        <time>2017-01-08T07:48:09Z</time>
      </trkpt>
      <trkpt lat="45.37542" lon="7.69497">
        <ele>340.16</ele>
        <time>2017-01-08T07:48:10Z</time>
      </trkpt>
      <trkpt lat="45.37537" lon="7.69527">
        <ele>338.7</ele>
        <time>2017-01-08T07:48:11Z</time>
      </trkpt>
      <trkpt lat="45.37526" lon="7.69553">
        <ele>338.1</ele>
        <time>2017-01-08T07:48:12Z</time>
      </trkpt>
      <trkpt lat="45.37511" lon="7.6958">
        <ele>337.31</ele>
        <time>2017-01-08T07:48:14Z</time>
      </trkpt>
      <trkpt lat="45.37496" lon="7.69603">
        <ele>337.28</ele>
        <time>2017-01-08T07:48:15Z</time>
      </trkpt>
      <trkpt lat="45.37486" lon="7.6963">
        <ele>336.66</ele>
        <time>2017-01-08T07:48:16Z</time>
      </trkpt>
      <trkpt lat="45.37478" lon="7.69654">
        <ele>336.66</ele>
        <time>2017-01-08T07:48:17Z</time>
      </trkpt>
      <trkpt lat="45.37471" lon="7.69679">
        <ele>337</ele>
        <time>2017-01-08T07:48:18Z</time>
      </trkpt>
      <trkpt lat="45.37461" lon="7.69703">
        <ele>336.81</ele>
        <time>2017-01-08T07:48:19Z</time>
      </trkpt>
      <trkpt lat="45.37453" lon="7.69727">
        <ele>336.59</ele>
        <time>2017-01-08T07:48:20Z</time>
      </trkpt>
      <trkpt lat="45.37443" lon="7.69757">
        <ele>336</ele>
        <time>2017-01-08T07:48:21Z</time>
      </trkpt>
      <trkpt lat="45.37431" lon="7.6978">
        <ele>336</ele>
        <time>2017-01-08T07:48:23Z</time>
      </trkpt>
      <trkpt lat="45.37415" lon="7.69793">
        <ele>336.04</ele>
        <time>2017-01-08T07:48:24Z</time>
      </trkpt>
      <trkpt lat="45.37421" lon="7.6982">
        <ele>336.5</ele>
        <time>2017-01-08T07:48:25Z</time>
      </trkpt>
      <trkpt lat="45.37405" lon="7.69842">
        <ele>337.14</ele>
        <time>2017-01-08T07:48:26Z</time>
      </trkpt>
      <trkpt lat="45.37391" lon="7.69861">
        <ele>337.93</ele>
        <time>2017-01-08T07:48:27Z</time>
      </trkpt>
      <trkpt lat="45.37374" lon="7.69878">
        <ele>337.18</ele>
        <time>2017-01-08T07:48:28Z</time>
      </trkpt>
      <trkpt lat="45.37354" lon="7.69891">
        <ele>337.25</ele>
        <time>2017-01-08T07:48:29Z</time>
      </trkpt>
      <trkpt lat="45.37337" lon="7.69904">
        <ele>337.86</ele>
        <time>2017-01-08T07:48:30Z</time>
      </trkpt>
      <trkpt lat="45.37319" lon="7.69918">
        <ele>339</ele>
        <time>2017-01-08T07:48:31Z</time>
      </trkpt>
      <trkpt lat="45.37297" lon="7.69927">
        <ele>339.69</ele>
        <time>2017-01-08T07:48:33Z</time>
      </trkpt>
      <trkpt lat="45.37277" lon="7.69933">
        <ele>338.92</ele>
        <time>2017-01-08T07:48:34Z</time>
      </trkpt>
      <trkpt lat="45.37256" lon="7.6994">
        <ele>337.32</ele>
        <time>2017-01-08T07:48:35Z</time>
      </trkpt>
      <trkpt lat="45.37239" lon="7.69935">
        <ele>335.82</ele>
        <time>2017-01-08T07:48:36Z</time>
      </trkpt>
      <trkpt lat="45.37226" lon="7.69912">
        <ele>334.27</ele>
        <time>2017-01-08T07:48:37Z</time>
      </trkpt>
      <trkpt lat="45.37211" lon="7.69891">
        <ele>334</ele>
        <time>2017-01-08T07:48:38Z</time>
      </trkpt>
      <trkpt lat="45.3719" lon="7.69888">
        <ele>334</ele>
        <time>2017-01-08T07:48:39Z</time>
      </trkpt>
      <trkpt lat="45.3717" lon="7.69888">
        <ele>334</ele>
        <time>2017-01-08T07:48:41Z</time>
      </trkpt>
      <trkpt lat="45.37153" lon="7.69872">
        <ele>333.7</ele>
        <time>2017-01-08T07:48:42Z</time>
      </trkpt>
      <trkpt lat="45.37139" lon="7.69857">
        <ele>333.15</ele>
        <time>2017-01-08T07:48:43Z</time>
      </trkpt>
      <trkpt lat="45.37121" lon="7.6985">
        <ele>333.14</ele>
        <time>2017-01-08T07:48:44Z</time>
      </trkpt>
      <trkpt lat="45.37109" lon="7.69873">
        <ele>333.43</ele>
        <time>2017-01-08T07:48:45Z</time>
      </trkpt>
      <trkpt lat="45.37098" lon="7.69894">
        <ele>334.09</ele>
        <time>2017-01-08T07:48:46Z</time>
      </trkpt>
      <trkpt lat="45.37091" lon="7.69923">
        <ele>335.01</ele>
        <time>2017-01-08T07:48:47Z</time>
      </trkpt>
      <trkpt lat="45.37076" lon="7.69941">
        <ele>336.2</ele>
        <time>2017-01-08T07:48:48Z</time>
      </trkpt>
      <trkpt lat="45.37056" lon="7.6996">
        <ele>336.46</ele>
        <time>2017-01-08T07:48:49Z</time>
      </trkpt>
      <trkpt lat="45.37041" lon="7.69978">
        <ele>336.12</ele>
        <time>2017-01-08T07:48:50Z</time>
      </trkpt>
      <trkpt lat="45.37021" lon="7.69991">
        <ele>336.44</ele>
        <time>2017-01-08T07:48:52Z</time>
      </trkpt>
      <trkpt lat="45.36998" lon="7.70005">
        <ele>335.95</ele>
        <time>2017-01-08T07:48:53Z</time>
      </trkpt>
      <trkpt lat="45.36981" lon="7.70019">
        <ele>335.07</ele>
        <time>2017-01-08T07:48:54Z</time>
      </trkpt>
      <trkpt lat="45.3696" lon="7.70038">
        <ele>333.66</ele>
        <time>2017-01-08T07:48:55Z</time>
      </trkpt>
      <trkpt lat="45.36944" lon="7.70055">
        <ele>333.04</ele>
        <time>2017-01-08T07:48:56Z</time>
      </trkpt>
      <trkpt lat="45.3693" lon="7.70077">
        <ele>334.8</ele>
        <time>2017-01-08T07:48:58Z</time>
      </trkpt>
      <trkpt lat="45.36916" lon="7.70096">
        <ele>335.96</ele>
        <time>2017-01-08T07:48:59Z</time>
      </trkpt>
      <trkpt lat="45.36896" lon="7.7009">
        <ele>335.26</ele>
        <time>2017-01-08T07:49:00Z</time>
      </trkpt>
      <trkpt lat="45.36915" lon="7.70088">
        <ele>335.92</ele>
        <time>2017-01-08T07:49:01Z</time>
      </trkpt>
      <trkpt lat="45.36931" lon="7.70064">
        <ele>334.32</ele>
        <time>2017-01-08T07:49:02Z</time>
      </trkpt>
      <trkpt lat="45.36949" lon="7.70041">
        <ele>332.77</ele>
        <time>2017-01-08T07:49:03Z</time>
      </trkpt>
      <trkpt lat="45.36966" lon="7.70025">
        <ele>334.12</ele>
        <time>2017-01-08T07:49:05Z</time>
      </trkpt>
      <trkpt lat="45.36983" lon="7.70011">
        <ele>334.73</ele>
        <time>2017-01-08T07:49:06Z</time>
      </trkpt>
      <trkpt lat="45.36999" lon="7.69999">
        <ele>335.88</ele>
        <time>2017-01-08T07:49:07Z</time>
      </trkpt>
      <trkpt lat="45.37018" lon="7.69989">
        <ele>336.22</ele>
        <time>2017-01-08T07:49:08Z</time>
      </trkpt>
      <trkpt lat="45.37036" lon="7.6998">
        <ele>336.19</ele>
        <time>2017-01-08T07:49:09Z</time>
      </trkpt>
      <trkpt lat="45.37052" lon="7.69994">
        <ele>336.1</ele>
        <time>2017-01-08T07:49:10Z</time>
      </trkpt>
      <trkpt lat="45.37073" lon="7.7">
        <ele>335.37</ele>
        <time>2017-01-08T07:49:11Z</time>
      </trkpt>
      <trkpt lat="45.37095" lon="7.70004">
        <ele>336.18</ele>
        <time>2017-01-08T07:49:12Z</time>
      </trkpt>
      <trkpt lat="45.37119" lon="7.69999">
        <ele>338.76</ele>
        <time>2017-01-08T07:49:13Z</time>
      </trkpt>
      <trkpt lat="45.37141" lon="7.6999">
        <ele>340.3</ele>
        <time>2017-01-08T07:49:15Z</time>
      </trkpt>
      <trkpt lat="45.37162" lon="7.69982">
        <ele>340.24</ele>
        <time>2017-01-08T07:49:16Z</time>
      </trkpt>
      <trkpt lat="45.37182" lon="7.69986">
        <ele>339.71</ele>
        <time>2017-01-08T07:49:17Z</time>
      </trkpt>
      <trkpt lat="45.37205" lon="7.69992">
        <ele>339.45</ele>
        <time>2017-01-08T07:49:18Z</time>
      </trkpt>
      <trkpt lat="45.37224" lon="7.69998">
        <ele>339.85</ele>
        <time>2017-01-08T07:49:19Z</time>
      </trkpt>
      <trkpt lat="45.37244" lon="7.70007">
        <ele>339.8</ele>
        <time>2017-01-08T07:49:21Z</time>
      </trkpt>
      <trkpt lat="45.37256" lon="7.70028">
        <ele>338.59</ele>
        <time>2017-01-08T07:49:22Z</time>
      </trkpt>
      <trkpt lat="45.37278" lon="7.70041">
        <ele>336.54</ele>
        <time>2017-01-08T07:49:23Z</time>
      </trkpt>
      <trkpt lat="45.37296" lon="7.70057">
        <ele>335.37</ele>
        <time>2017-01-08T07:49:24Z</time>
      </trkpt>
      <trkpt lat="45.37316" lon="7.70071">
        <ele>335.72</ele>
        <time>2017-01-08T07:49:25Z</time>
      </trkpt>
      <trkpt lat="45.37336" lon="7.70095">
        <ele>335.95</ele>
        <time>2017-01-08T07:49:27Z</time>
      </trkpt>
      <trkpt lat="45.37349" lon="7.70114">
        <ele>335.49</ele>
        <time>2017-01-08T07:49:28Z</time>
      </trkpt>
      <trkpt lat="45.37367" lon="7.70142">
        <ele>335</ele>
        <time>2017-01-08T07:49:29Z</time>
      </trkpt>
      <trkpt lat="45.37381" lon="7.70165">
        <ele>335</ele>
        <time>2017-01-08T07:49:30Z</time>
      </trkpt>
      <trkpt lat="45.37394" lon="7.70184">
        <ele>335.38</ele>
        <time>2017-01-08T07:49:31Z</time>
      </trkpt>
      <trkpt lat="45.37413" lon="7.70205">
        <ele>336.8</ele>
        <time>2017-01-08T07:49:33Z</time>
      </trkpt>
      <trkpt lat="45.37424" lon="7.70227">
        <ele>337.13</ele>
        <time>2017-01-08T07:49:34Z</time>
      </trkpt>
      <trkpt lat="45.37415" lon="7.70252">
        <ele>336.05</ele>
        <time>2017-01-08T07:49:35Z</time>
      </trkpt>
      <trkpt lat="45.37405" lon="7.70275">
        <ele>336.04</ele>
        <time>2017-01-08T07:49:36Z</time>
      </trkpt>
      <trkpt lat="45.37387" lon="7.70304">
        <ele>336.09</ele>
        <time>2017-01-08T07:49:37Z</time>
      </trkpt>
      <trkpt lat="45.37374" lon="7.70324">
        <ele>336.18</ele>
        <time>2017-01-08T07:49:38Z</time>
      </trkpt>
      <trkpt lat="45.37362" lon="7.70348">
        <ele>336.02</ele>
        <time>2017-01-08T07:49:40Z</time>
      </trkpt>
      <trkpt lat="45.37352" lon="7.70373">
        <ele>335.37</ele>
        <time>2017-01-08T07:49:41Z</time>
      </trkpt>
      <trkpt lat="45.37342" lon="7.704">
        <ele>334.88</ele>
        <time>2017-01-08T07:49:42Z</time>
      </trkpt>
      <trkpt lat="45.37334" lon="7.70424">
        <ele>335.05</ele>
        <time>2017-01-08T07:49:43Z</time>
      </trkpt>
      <trkpt lat="45.37325" lon="7.70447">
        <ele>334.74</ele>
        <time>2017-01-08T07:49:44Z</time>
      </trkpt>
      <trkpt lat="45.37315" lon="7.70471">
        <ele>334.62</ele>
        <time>2017-01-08T07:49:45Z</time>
      </trkpt>
      <trkpt lat="45.37306" lon="7.70493">
        <ele>334.74</ele>
        <time>2017-01-08T07:49:46Z</time>
      </trkpt>
      <trkpt lat="45.37294" lon="7.70519">
        <ele>335.26</ele>
        <time>2017-01-08T07:49:47Z</time>
      </trkpt>
      <trkpt lat="45.37271" lon="7.70548">
        <ele>335.5</ele>
        <time>2017-01-08T07:49:49Z</time>
      </trkpt>
      <trkpt lat="45.37257" lon="7.70573">
        <ele>335.89</ele>
        <time>2017-01-08T07:49:50Z</time>
      </trkpt>
      <trkpt lat="45.37248" lon="7.70597">
        <ele>335.82</ele>
        <time>2017-01-08T07:49:51Z</time>
      </trkpt>
      <trkpt lat="45.37231" lon="7.70627">
        <ele>334.83</ele>
        <time>2017-01-08T07:49:53Z</time>
      </trkpt>
      <trkpt lat="45.37221" lon="7.70656">
        <ele>334.61</ele>
        <time>2017-01-08T07:49:54Z</time>
      </trkpt>
      <trkpt lat="45.37211" lon="7.70686">
        <ele>335</ele>
        <time>2017-01-08T07:49:55Z</time>
      </trkpt>
      <trkpt lat="45.37204" lon="7.70713">
        <ele>335.43</ele>
        <time>2017-01-08T07:49:56Z</time>
      </trkpt>
      <trkpt lat="45.372" lon="7.70742">
        <ele>336.53</ele>
        <time>2017-01-08T07:49:57Z</time>
      </trkpt>
      <trkpt lat="45.37196" lon="7.70775">
        <ele>336.95</ele>
        <time>2017-01-08T07:49:59Z</time>
      </trkpt>
      <trkpt lat="45.37191" lon="7.70805">
        <ele>336.78</ele>
        <time>2017-01-08T07:50:00Z</time>
      </trkpt>
      <trkpt lat="45.37188" lon="7.70837">
        <ele>335.42</ele>
        <time>2017-01-08T07:50:01Z</time>
      </trkpt>
      <trkpt lat="45.37189" lon="7.7087">
        <ele>334.79</ele>
        <time>2017-01-08T07:50:02Z</time>
      </trkpt>
      <trkpt lat="45.3719" lon="7.70898">
        <ele>334.85</ele>
        <time>2017-01-08T07:50:03Z</time>
      </trkpt>
      <trkpt lat="45.37191" lon="7.70927">
        <ele>335.24</ele>
        <time>2017-01-08T07:50:05Z</time>
      </trkpt>
      <trkpt lat="45.37192" lon="7.70956">
        <ele>336.72</ele>
        <time>2017-01-08T07:50:06Z</time>
      </trkpt>
      <trkpt lat="45.37198" lon="7.70991">
        <ele>337.96</ele>
        <time>2017-01-08T07:50:07Z</time>
      </trkpt>
      <trkpt lat="45.372" lon="7.71018">
        <ele>337.36</ele>
        <time>2017-01-08T07:50:08Z</time>
      </trkpt>
      <trkpt lat="45.3718" lon="7.71016">
        <ele>337.73</ele>
        <time>2017-01-08T07:50:09Z</time>
      </trkpt>
      <trkpt lat="45.3716" lon="7.71009">
        <ele>337.61</ele>
        <time>2017-01-08T07:50:10Z</time>
      </trkpt>
      <trkpt lat="45.37136" lon="7.71016">
        <ele>336.29</ele>
        <time>2017-01-08T07:50:12Z</time>
      </trkpt>
      <trkpt lat="45.37119" lon="7.71027">
        <ele>334.83</ele>
        <time>2017-01-08T07:50:13Z</time>
      </trkpt>
      <trkpt lat="45.37099" lon="7.71042">
        <ele>333.67</ele>
        <time>2017-01-08T07:50:14Z</time>
      </trkpt>
      <trkpt lat="45.37077" lon="7.71072">
        <ele>334.24</ele>
        <time>2017-01-08T07:50:16Z</time>
      </trkpt>
      <trkpt lat="45.37062" lon="7.71098">
        <ele>335.41</ele>
        <time>2017-01-08T07:50:17Z</time>
      </trkpt>
      <trkpt lat="45.37047" lon="7.71121">
        <ele>335.44</ele>
        <time>2017-01-08T07:50:18Z</time>
      </trkpt>
      <trkpt lat="45.37031" lon="7.71141">
        <ele>334.91</ele>
        <time>2017-01-08T07:50:19Z</time>
      </trkpt>
      <trkpt lat="45.37007" lon="7.71135">
        <ele>335</ele>
        <time>2017-01-08T07:50:21Z</time>
      </trkpt>
      <trkpt lat="45.36985" lon="7.71124">
        <ele>333.94</ele>
        <time>2017-01-08T07:50:22Z</time>
      </trkpt>
      <trkpt lat="45.36965" lon="7.71115">
        <ele>332.13</ele>
        <time>2017-01-08T07:50:23Z</time>
      </trkpt>
      <trkpt lat="45.36944" lon="7.71109">
        <ele>330.02</ele>
        <time>2017-01-08T07:50:24Z</time>
      </trkpt>
      <trkpt lat="45.36926" lon="7.71101">
        <ele>329.08</ele>
        <time>2017-01-08T07:50:25Z</time>
      </trkpt>
      <trkpt lat="45.36908" lon="7.71077">
        <ele>328.92</ele>
        <time>2017-01-08T07:50:27Z</time>
      </trkpt>
      <trkpt lat="45.36895" lon="7.71054">
        <ele>329.23</ele>
        <time>2017-01-08T07:50:28Z</time>
      </trkpt>
      <trkpt lat="45.36884" lon="7.71031">
        <ele>328.81</ele>
        <time>2017-01-08T07:50:29Z</time>
      </trkpt>
      <trkpt lat="45.3687" lon="7.71003">
        <ele>327.44</ele>
        <time>2017-01-08T07:50:30Z</time>
      </trkpt>
      <trkpt lat="45.36849" lon="7.70984">
        <ele>326.25</ele>
        <time>2017-01-08T07:50:31Z</time>
      </trkpt>
      <trkpt lat="45.36826" lon="7.70971">
        <ele>326.05</ele>
        <time>2017-01-08T07:50:33Z</time>
      </trkpt>
      <trkpt lat="45.36808" lon="7.7096">
        <ele>326.43</ele>
        <time>2017-01-08T07:50:34Z</time>
      </trkpt>
      <trkpt lat="45.3679" lon="7.70971">
        <ele>326.58</ele>
        <time>2017-01-08T07:50:35Z</time>
      </trkpt>
      <trkpt lat="45.36779" lon="7.71003">
        <ele>326</ele>
        <time>2017-01-08T07:50:36Z</time>
      </trkpt>
      <trkpt lat="45.3677" lon="7.71033">
        <ele>326.06</ele>
        <time>2017-01-08T07:50:38Z</time>
      </trkpt>
      <trkpt lat="45.36754" lon="7.71058">
        <ele>326.87</ele>
        <time>2017-01-08T07:50:39Z</time>
      </trkpt>
      <trkpt lat="45.36739" lon="7.71076">
        <ele>326.9</ele>
        <time>2017-01-08T07:50:40Z</time>
      </trkpt>
      <trkpt lat="45.36721" lon="7.71091">
        <ele>326.96</ele>
        <time>2017-01-08T07:50:41Z</time>
      </trkpt>
      <trkpt lat="45.36703" lon="7.711">
        <ele>326.32</ele>
        <time>2017-01-08T07:50:42Z</time>
      </trkpt>
      <trkpt lat="45.36684" lon="7.7111">
        <ele>325.21</ele>
        <time>2017-01-08T07:50:43Z</time>
      </trkpt>
      <trkpt lat="45.36665" lon="7.71121">
        <ele>323.54</ele>
        <time>2017-01-08T07:50:44Z</time>
      </trkpt>
      <trkpt lat="45.36647" lon="7.71131">
        <ele>322.37</ele>
        <time>2017-01-08T07:50:45Z</time>
      </trkpt>
      <trkpt lat="45.36629" lon="7.71141">
        <ele>322.71</ele>
        <time>2017-01-08T07:50:46Z</time>
      </trkpt>
      <trkpt lat="45.36608" lon="7.71151">
        <ele>324.12</ele>
        <time>2017-01-08T07:50:48Z</time>
      </trkpt>
      <trkpt lat="45.36588" lon="7.7115">
        <ele>324.84</ele>
        <time>2017-01-08T07:50:49Z</time>
      </trkpt>
      <trkpt lat="45.36567" lon="7.71139">
        <ele>325.58</ele>
        <time>2017-01-08T07:50:50Z</time>
      </trkpt>
      <trkpt lat="45.36547" lon="7.71133">
        <ele>326.25</ele>
        <time>2017-01-08T07:50:51Z</time>
      </trkpt>
      <trkpt lat="45.36528" lon="7.71133">
        <ele>326.78</ele>
        <time>2017-01-08T07:50:52Z</time>
      </trkpt>
      <trkpt lat="45.36509" lon="7.71135">
        <ele>326.78</ele>
        <time>2017-01-08T07:50:53Z</time>
      </trkpt>
      <trkpt lat="45.36488" lon="7.71139">
        <ele>326.15</ele>
        <time>2017-01-08T07:50:54Z</time>
      </trkpt>
      <trkpt lat="45.36473" lon="7.71155">
        <ele>325.63</ele>
        <time>2017-01-08T07:50:55Z</time>
      </trkpt>
      <trkpt lat="45.36453" lon="7.7117">
        <ele>324.43</ele>
        <time>2017-01-08T07:50:57Z</time>
      </trkpt>
      <trkpt lat="45.36452" lon="7.71203">
        <ele>323.1</ele>
        <time>2017-01-08T07:50:58Z</time>
      </trkpt>
      <trkpt lat="45.36456" lon="7.71238">
        <ele>321.79</ele>
        <time>2017-01-08T07:50:59Z</time>
      </trkpt>
      <trkpt lat="45.36454" lon="7.71274">
        <ele>320.48</ele>
        <time>2017-01-08T07:51:01Z</time>
      </trkpt>
      <trkpt lat="45.36448" lon="7.71303">
        <ele>319.96</ele>
        <time>2017-01-08T07:51:02Z</time>
      </trkpt>
      <trkpt lat="45.36438" lon="7.71332">
        <ele>319.27</ele>
        <time>2017-01-08T07:51:03Z</time>
      </trkpt>
      <trkpt lat="45.36421" lon="7.71359">
        <ele>319.08</ele>
        <time>2017-01-08T07:51:05Z</time>
      </trkpt>
      <trkpt lat="45.36408" lon="7.71379">
        <ele>319.96</ele>
        <time>2017-01-08T07:51:06Z</time>
      </trkpt>
      <trkpt lat="45.36395" lon="7.7141">
        <ele>321.38</ele>
        <time>2017-01-08T07:51:07Z</time>
      </trkpt>
      <trkpt lat="45.36382" lon="7.71428">
        <ele>322.36</ele>
        <time>2017-01-08T07:51:08Z</time>
      </trkpt>
      <trkpt lat="45.36368" lon="7.7145">
        <ele>323.7</ele>
        <time>2017-01-08T07:51:09Z</time>
      </trkpt>
      <trkpt lat="45.36371" lon="7.71478">
        <ele>323.88</ele>
        <time>2017-01-08T07:51:10Z</time>
      </trkpt>
      <trkpt lat="45.36385" lon="7.71499">
        <ele>321.65</ele>
        <time>2017-01-08T07:51:11Z</time>
      </trkpt>
      <trkpt lat="45.36403" lon="7.71524">
        <ele>318.8</ele>
        <time>2017-01-08T07:51:13Z</time>
      </trkpt>
      <trkpt lat="45.36421" lon="7.71547">
        <ele>318.16</ele>
        <time>2017-01-08T07:51:14Z</time>
      </trkpt>
      <trkpt lat="45.36441" lon="7.71571">
        <ele>318.39</ele>
        <time>2017-01-08T07:51:15Z</time>
      </trkpt>
      <trkpt lat="45.36458" lon="7.71595">
        <ele>319.18</ele>
        <time>2017-01-08T07:51:17Z</time>
      </trkpt>
      <trkpt lat="45.36476" lon="7.71619">
        <ele>320.55</ele>
        <time>2017-01-08T07:51:18Z</time>
      </trkpt>
      <trkpt lat="45.36494" lon="7.71643">
        <ele>321.8</ele>
        <time>2017-01-08T07:51:19Z</time>
      </trkpt>
      <trkpt lat="45.36511" lon="7.71665">
        <ele>321.97</ele>
        <time>2017-01-08T07:51:21Z</time>
      </trkpt>
      <trkpt lat="45.36526" lon="7.71684">
        <ele>321.96</ele>
        <time>2017-01-08T07:51:22Z</time>
      </trkpt>
      <trkpt lat="45.36543" lon="7.71708">
        <ele>322.5</ele>
        <time>2017-01-08T07:51:23Z</time>
      </trkpt>
      <trkpt lat="45.3655" lon="7.71734">
        <ele>323.08</ele>
        <time>2017-01-08T07:51:24Z</time>
      </trkpt>
      <trkpt lat="45.36531" lon="7.71755">
        <ele>323.74</ele>
        <time>2017-01-08T07:51:26Z</time>
      </trkpt>
      <trkpt lat="45.36508" lon="7.71783">
        <ele>322.81</ele>
        <time>2017-01-08T07:51:27Z</time>
      </trkpt>
      <trkpt lat="45.36487" lon="7.71817">
        <ele>321.32</ele>
        <time>2017-01-08T07:51:29Z</time>
      </trkpt>
      <trkpt lat="45.36467" lon="7.7185">
        <ele>320.34</ele>
        <time>2017-01-08T07:51:31Z</time>
      </trkpt>
      <trkpt lat="45.36443" lon="7.71881">
        <ele>319.28</ele>
        <time>2017-01-08T07:51:32Z</time>
      </trkpt>
      <trkpt lat="45.36418" lon="7.71912">
        <ele>318.2</ele>
        <time>2017-01-08T07:51:34Z</time>
      </trkpt>
      <trkpt lat="45.36393" lon="7.71942">
        <ele>317.85</ele>
        <time>2017-01-08T07:51:36Z</time>
      </trkpt>
      <trkpt lat="45.36369" lon="7.71964">
        <ele>318.5</ele>
        <time>2017-01-08T07:51:38Z</time>
      </trkpt>
      <trkpt lat="45.36347" lon="7.71983">
        <ele>318.29</ele>
        <time>2017-01-08T07:51:39Z</time>
      </trkpt>
      <trkpt lat="45.36325" lon="7.71998">
        <ele>317.7</ele>
        <time>2017-01-08T07:51:40Z</time>
      </trkpt>
      <trkpt lat="45.36302" lon="7.72008">
        <ele>316.85</ele>
        <time>2017-01-08T07:51:42Z</time>
      </trkpt>
      <trkpt lat="45.36285" lon="7.72016">
        <ele>317.18</ele>
        <time>2017-01-08T07:51:43Z</time>
      </trkpt>
      <trkpt lat="45.36265" lon="7.72019">
        <ele>317.64</ele>
        <time>2017-01-08T07:51:44Z</time>
      </trkpt>
      <trkpt lat="45.36246" lon="7.72047">
        <ele>317.27</ele>
        <time>2017-01-08T07:51:45Z</time>
      </trkpt>
      <trkpt lat="45.36221" lon="7.72066">
        <ele>316.61</ele>
        <time>2017-01-08T07:51:47Z</time>
      </trkpt>
      <trkpt lat="45.3619" lon="7.72085">
        <ele>315.83</ele>
        <time>2017-01-08T07:51:49Z</time>
      </trkpt>
      <trkpt lat="45.36172" lon="7.72096">
        <ele>315.18</ele>
        <time>2017-01-08T07:51:50Z</time>
      </trkpt>
      <trkpt lat="45.36154" lon="7.72108">
        <ele>314.56</ele>
        <time>2017-01-08T07:51:51Z</time>
      </trkpt>
      <trkpt lat="45.36138" lon="7.7212">
        <ele>314.28</ele>
        <time>2017-01-08T07:51:52Z</time>
      </trkpt>
      <trkpt lat="45.36122" lon="7.72131">
        <ele>314.09</ele>
        <time>2017-01-08T07:51:53Z</time>
      </trkpt>
      <trkpt lat="45.36091" lon="7.7215">
        <ele>313.37</ele>
        <time>2017-01-08T07:51:55Z</time>
      </trkpt>
      <trkpt lat="45.3606" lon="7.72165">
        <ele>313.79</ele>
        <time>2017-01-08T07:51:56Z</time>
      </trkpt>
      <trkpt lat="45.36034" lon="7.7218">
        <ele>314</ele>
        <time>2017-01-08T07:51:58Z</time>
      </trkpt>
      <trkpt lat="45.36013" lon="7.722">
        <ele>314.08</ele>
        <time>2017-01-08T07:51:59Z</time>
      </trkpt>
      <trkpt lat="45.35991" lon="7.72224">
        <ele>313.99</ele>
        <time>2017-01-08T07:52:01Z</time>
      </trkpt>
      <trkpt lat="45.35972" lon="7.72252">
        <ele>312.98</ele>
        <time>2017-01-08T07:52:02Z</time>
      </trkpt>
      <trkpt lat="45.35959" lon="7.72276">
        <ele>312.52</ele>
        <time>2017-01-08T07:52:04Z</time>
      </trkpt>
      <trkpt lat="45.35948" lon="7.72306">
        <ele>313.14</ele>
        <time>2017-01-08T07:52:05Z</time>
      </trkpt>
      <trkpt lat="45.35958" lon="7.72279">
        <ele>312.53</ele>
        <time>2017-01-08T07:52:06Z</time>
      </trkpt>
      <trkpt lat="45.35969" lon="7.72256">
        <ele>312.89</ele>
        <time>2017-01-08T07:52:07Z</time>
      </trkpt>
      <trkpt lat="45.35974" lon="7.72231">
        <ele>313.71</ele>
        <time>2017-01-08T07:52:08Z</time>
      </trkpt>
      <trkpt lat="45.35955" lon="7.72208">
        <ele>313.7</ele>
        <time>2017-01-08T07:52:09Z</time>
      </trkpt>
      <trkpt lat="45.35936" lon="7.72193">
        <ele>313.61</ele>
        <time>2017-01-08T07:52:11Z</time>
      </trkpt>
      <trkpt lat="45.35916" lon="7.72186">
        <ele>312.64</ele>
        <time>2017-01-08T07:52:12Z</time>
      </trkpt>
      <trkpt lat="45.35892" lon="7.72189">
        <ele>311.89</ele>
        <time>2017-01-08T07:52:13Z</time>
      </trkpt>
      <trkpt lat="45.35867" lon="7.72191">
        <ele>311.98</ele>
        <time>2017-01-08T07:52:14Z</time>
      </trkpt>
      <trkpt lat="45.35846" lon="7.72186">
        <ele>311.84</ele>
        <time>2017-01-08T07:52:16Z</time>
      </trkpt>
      <trkpt lat="45.35827" lon="7.72176">
        <ele>311.25</ele>
        <time>2017-01-08T07:52:17Z</time>
      </trkpt>
      <trkpt lat="45.35809" lon="7.72164">
        <ele>310.93</ele>
        <time>2017-01-08T07:52:18Z</time>
      </trkpt>
      <trkpt lat="45.35791" lon="7.72146">
        <ele>310.66</ele>
        <time>2017-01-08T07:52:19Z</time>
      </trkpt>
      <trkpt lat="45.35773" lon="7.72125">
        <ele>310.75</ele>
        <time>2017-01-08T07:52:20Z</time>
      </trkpt>
      <trkpt lat="45.35755" lon="7.72107">
        <ele>311.52</ele>
        <time>2017-01-08T07:52:22Z</time>
      </trkpt>
      <trkpt lat="45.3573" lon="7.72117">
        <ele>312.15</ele>
        <time>2017-01-08T07:52:23Z</time>
      </trkpt>
      <trkpt lat="45.35712" lon="7.72129">
        <ele>312.42</ele>
        <time>2017-01-08T07:52:24Z</time>
      </trkpt>
      <trkpt lat="45.35696" lon="7.72141">
        <ele>311.99</ele>
        <time>2017-01-08T07:52:25Z</time>
      </trkpt>
      <trkpt lat="45.35677" lon="7.72153">
        <ele>311.82</ele>
        <time>2017-01-08T07:52:26Z</time>
      </trkpt>
      <trkpt lat="45.35659" lon="7.7216">
        <ele>311.5</ele>
        <time>2017-01-08T07:52:27Z</time>
      </trkpt>
      <trkpt lat="45.3564" lon="7.72169">
        <ele>310.06</ele>
        <time>2017-01-08T07:52:28Z</time>
      </trkpt>
      <trkpt lat="45.35619" lon="7.72178">
        <ele>308.99</ele>
        <time>2017-01-08T07:52:29Z</time>
      </trkpt>
      <trkpt lat="45.35603" lon="7.72159">
        <ele>309.38</ele>
        <time>2017-01-08T07:52:31Z</time>
      </trkpt>
      <trkpt lat="45.35591" lon="7.72136">
        <ele>310.91</ele>
        <time>2017-01-08T07:52:32Z</time>
      </trkpt>
      <trkpt lat="45.35578" lon="7.72112">
        <ele>313.12</ele>
        <time>2017-01-08T07:52:33Z</time>
      </trkpt>
      <trkpt lat="45.35565" lon="7.72093">
        <ele>313.66</ele>
        <time>2017-01-08T07:52:34Z</time>
      </trkpt>
      <trkpt lat="45.35555" lon="7.7207">
        <ele>312.51</ele>
        <time>2017-01-08T07:52:35Z</time>
      </trkpt>
      <trkpt lat="45.35565" lon="7.72049">
        <ele>312.52</ele>
        <time>2017-01-08T07:52:36Z</time>
      </trkpt>
      <trkpt lat="45.35574" lon="7.72023">
        <ele>311.73</ele>
        <time>2017-01-08T07:52:37Z</time>
      </trkpt>
      <trkpt lat="45.35575" lon="7.71994">
        <ele>310.52</ele>
        <time>2017-01-08T07:52:38Z</time>
      </trkpt>
      <trkpt lat="45.35575" lon="7.71967">
        <ele>311.16</ele>
        <time>2017-01-08T07:52:39Z</time>
      </trkpt>
      <trkpt lat="45.35578" lon="7.71939">
        <ele>310.37</ele>
        <time>2017-01-08T07:52:40Z</time>
      </trkpt>
      <trkpt lat="45.35574" lon="7.71911">
        <ele>310.83</ele>
        <time>2017-01-08T07:52:41Z</time>
      </trkpt>
      <trkpt lat="45.35558" lon="7.71896">
        <ele>311.9</ele>
        <time>2017-01-08T07:52:43Z</time>
      </trkpt>
      <trkpt lat="45.35537" lon="7.71905">
        <ele>312.39</ele>
        <time>2017-01-08T07:52:44Z</time>
      </trkpt>
      <trkpt lat="45.35515" lon="7.71914">
        <ele>312.94</ele>
        <time>2017-01-08T07:52:45Z</time>
      </trkpt>
      <trkpt lat="45.35495" lon="7.71918">
        <ele>312.59</ele>
        <time>2017-01-08T07:52:46Z</time>
      </trkpt>
      <trkpt lat="45.35475" lon="7.71919">
        <ele>311.16</ele>
        <time>2017-01-08T07:52:47Z</time>
      </trkpt>
      <trkpt lat="45.35451" lon="7.71922">
        <ele>311.77</ele>
        <time>2017-01-08T07:52:48Z</time>
      </trkpt>
      <trkpt lat="45.35432" lon="7.71911">
        <ele>312</ele>
        <time>2017-01-08T07:52:50Z</time>
      </trkpt>
      <trkpt lat="45.35416" lon="7.71887">
        <ele>311.9</ele>
        <time>2017-01-08T07:52:51Z</time>
      </trkpt>
      <trkpt lat="45.35397" lon="7.7187">
        <ele>310.63</ele>
        <time>2017-01-08T07:52:52Z</time>
      </trkpt>
      <trkpt lat="45.35378" lon="7.71872">
        <ele>310.23</ele>
        <time>2017-01-08T07:52:53Z</time>
      </trkpt>
      <trkpt lat="45.3536" lon="7.71894">
        <ele>310.06</ele>
        <time>2017-01-08T07:52:54Z</time>
      </trkpt>
      <trkpt lat="45.35343" lon="7.71913">
        <ele>310.64</ele>
        <time>2017-01-08T07:52:56Z</time>
      </trkpt>
      <trkpt lat="45.35332" lon="7.7194">
        <ele>310.21</ele>
        <time>2017-01-08T07:52:57Z</time>
      </trkpt>
      <trkpt lat="45.35325" lon="7.71967">
        <ele>309.47</ele>
        <time>2017-01-08T07:52:58Z</time>
      </trkpt>
      <trkpt lat="45.35315" lon="7.71993">
        <ele>308.92</ele>
        <time>2017-01-08T07:52:59Z</time>
      </trkpt>
      <trkpt lat="45.35303" lon="7.72014">
        <ele>308.54</ele>
        <time>2017-01-08T07:53:00Z</time>
      </trkpt>
      <trkpt lat="45.35284" lon="7.72012">
        <ele>309</ele>
        <time>2017-01-08T07:53:01Z</time>
      </trkpt>
      <trkpt lat="45.35267" lon="7.72037">
        <ele>307.41</ele>
        <time>2017-01-08T07:53:03Z</time>
      </trkpt>
      <trkpt lat="45.35255" lon="7.72064">
        <ele>306.7</ele>
        <time>2017-01-08T07:53:04Z</time>
      </trkpt>
      <trkpt lat="45.35248" lon="7.72088">
        <ele>305.9</ele>
        <time>2017-01-08T07:53:05Z</time>
      </trkpt>
      <trkpt lat="45.35249" lon="7.72121">
        <ele>305.04</ele>
        <time>2017-01-08T07:53:06Z</time>
      </trkpt>
      <trkpt lat="45.35245" lon="7.7215">
        <ele>305.51</ele>
        <time>2017-01-08T07:53:07Z</time>
      </trkpt>
      <trkpt lat="45.35228" lon="7.72165">
        <ele>305.99</ele>
        <time>2017-01-08T07:53:08Z</time>
      </trkpt>
      <trkpt lat="45.35207" lon="7.72184">
        <ele>305.37</ele>
        <time>2017-01-08T07:53:10Z</time>
      </trkpt>
      <trkpt lat="45.35188" lon="7.72203">
        <ele>304.93</ele>
        <time>2017-01-08T07:53:11Z</time>
      </trkpt>
      <trkpt lat="45.35164" lon="7.72226">
        <ele>304.09</ele>
        <time>2017-01-08T07:53:12Z</time>
      </trkpt>
      <trkpt lat="45.35142" lon="7.72248">
        <ele>304.07</ele>
        <time>2017-01-08T07:53:14Z</time>
      </trkpt>
      <trkpt lat="45.35124" lon="7.72264">
        <ele>303.72</ele>
        <time>2017-01-08T07:53:15Z</time>
      </trkpt>
      <trkpt lat="45.3511" lon="7.72284">
        <ele>303.42</ele>
        <time>2017-01-08T07:53:16Z</time>
      </trkpt>
      <trkpt lat="45.35107" lon="7.72311">
        <ele>304.88</ele>
        <time>2017-01-08T07:53:17Z</time>
      </trkpt>
      <trkpt lat="45.35092" lon="7.72331">
        <ele>304.94</ele>
        <time>2017-01-08T07:53:18Z</time>
      </trkpt>
      <trkpt lat="45.35073" lon="7.72334">
        <ele>304.61</ele>
        <time>2017-01-08T07:53:19Z</time>
      </trkpt>
      <trkpt lat="45.35051" lon="7.72344">
        <ele>303.35</ele>
        <time>2017-01-08T07:53:21Z</time>
      </trkpt>
      <trkpt lat="45.35032" lon="7.72364">
        <ele>302.13</ele>
        <time>2017-01-08T07:53:22Z</time>
      </trkpt>
      <trkpt lat="45.35012" lon="7.72388">
        <ele>303.13</ele>
        <time>2017-01-08T07:53:23Z</time>
      </trkpt>
      <trkpt lat="45.34996" lon="7.72408">
        <ele>303.94</ele>
        <time>2017-01-08T07:53:25Z</time>
      </trkpt>
      <trkpt lat="45.34982" lon="7.72427">
        <ele>303.11</ele>
        <time>2017-01-08T07:53:26Z</time>
      </trkpt>
      <trkpt lat="45.34959" lon="7.72443">
        <ele>302.51</ele>
        <time>2017-01-08T07:53:27Z</time>
      </trkpt>
      <trkpt lat="45.34936" lon="7.72458">
        <ele>302.81</ele>
        <time>2017-01-08T07:53:28Z</time>
      </trkpt>
      <trkpt lat="45.3492" lon="7.7248">
        <ele>302.86</ele>
        <time>2017-01-08T07:53:30Z</time>
      </trkpt>
      <trkpt lat="45.34902" lon="7.72505">
        <ele>302.91</ele>
        <time>2017-01-08T07:53:31Z</time>
      </trkpt>
      <trkpt lat="45.34886" lon="7.7253">
        <ele>302.94</ele>
        <time>2017-01-08T07:53:32Z</time>
      </trkpt>
      <trkpt lat="45.3487" lon="7.72559">
        <ele>301.89</ele>
        <time>2017-01-08T07:53:34Z</time>
      </trkpt>
      <trkpt lat="45.34855" lon="7.72582">
        <ele>301.29</ele>
        <time>2017-01-08T07:53:35Z</time>
      </trkpt>
      <trkpt lat="45.34837" lon="7.72605">
        <ele>300.32</ele>
        <time>2017-01-08T07:53:36Z</time>
      </trkpt>
      <trkpt lat="45.34822" lon="7.72625">
        <ele>299.92</ele>
        <time>2017-01-08T07:53:37Z</time>
      </trkpt>
      <trkpt lat="45.34817" lon="7.72654">
        <ele>299.81</ele>
        <time>2017-01-08T07:53:39Z</time>
      </trkpt>
      <trkpt lat="45.34818" lon="7.72691">
        <ele>299.92</ele>
        <time>2017-01-08T07:53:40Z</time>
      </trkpt>
      <trkpt lat="45.34813" lon="7.72718">
        <ele>299.5</ele>
        <time>2017-01-08T07:53:41Z</time>
      </trkpt>
      <trkpt lat="45.34799" lon="7.72749">
        <ele>298.75</ele>
        <time>2017-01-08T07:53:42Z</time>
      </trkpt>
      <trkpt lat="45.34784" lon="7.72776">
        <ele>298.73</ele>
        <time>2017-01-08T07:53:44Z</time>
      </trkpt>
      <trkpt lat="45.34764" lon="7.72793">
        <ele>300.26</ele>
        <time>2017-01-08T07:53:45Z</time>
      </trkpt>
      <trkpt lat="45.34741" lon="7.72807">
        <ele>302.67</ele>
        <time>2017-01-08T07:53:46Z</time>
      </trkpt>
      <trkpt lat="45.34712" lon="7.72824">
        <ele>303.16</ele>
        <time>2017-01-08T07:53:48Z</time>
      </trkpt>
      <trkpt lat="45.34685" lon="7.72845">
        <ele>301.14</ele>
        <time>2017-01-08T07:53:50Z</time>
      </trkpt>
      <trkpt lat="45.34659" lon="7.72864">
        <ele>299.66</ele>
        <time>2017-01-08T07:53:51Z</time>
      </trkpt>
      <trkpt lat="45.34629" lon="7.72873">
        <ele>297.69</ele>
        <time>2017-01-08T07:53:53Z</time>
      </trkpt>
      <trkpt lat="45.34597" lon="7.72872">
        <ele>296.37</ele>
        <time>2017-01-08T07:53:55Z</time>
      </trkpt>
      <trkpt lat="45.34571" lon="7.72872">
        <ele>295.92</ele>
        <time>2017-01-08T07:53:56Z</time>
      </trkpt>
      <trkpt lat="45.34548" lon="7.72885">
        <ele>295.89</ele>
        <time>2017-01-08T07:53:58Z</time>
      </trkpt>
      <trkpt lat="45.3453" lon="7.72897">
        <ele>296.02</ele>
        <time>2017-01-08T07:53:59Z</time>
      </trkpt>
      <trkpt lat="45.34507" lon="7.72901">
        <ele>296.45</ele>
        <time>2017-01-08T07:54:00Z</time>
      </trkpt>
      <trkpt lat="45.34476" lon="7.72896">
        <ele>296.1</ele>
        <time>2017-01-08T07:54:02Z</time>
      </trkpt>
      <trkpt lat="45.34444" lon="7.72887">
        <ele>294.97</ele>
        <time>2017-01-08T07:54:04Z</time>
      </trkpt>
      <trkpt lat="45.34412" lon="7.72878">
        <ele>294.18</ele>
        <time>2017-01-08T07:54:05Z</time>
      </trkpt>
      <trkpt lat="45.34384" lon="7.72879">
        <ele>295.58</ele>
        <time>2017-01-08T07:54:07Z</time>
      </trkpt>
      <trkpt lat="45.34359" lon="7.72874">
        <ele>298.09</ele>
        <time>2017-01-08T07:54:08Z</time>
      </trkpt>
      <trkpt lat="45.34335" lon="7.72863">
        <ele>298.94</ele>
        <time>2017-01-08T07:54:10Z</time>
      </trkpt>
      <trkpt lat="45.34311" lon="7.72855">
        <ele>298.19</ele>
        <time>2017-01-08T07:54:11Z</time>
      </trkpt>
      <trkpt lat="45.34285" lon="7.72855">
        <ele>298.73</ele>
        <time>2017-01-08T07:54:12Z</time>
      </trkpt>
      <trkpt lat="45.3426" lon="7.72868">
        <ele>299.66</ele>
        <time>2017-01-08T07:54:14Z</time>
      </trkpt>
      <trkpt lat="45.34232" lon="7.72891">
        <ele>298.71</ele>
        <time>2017-01-08T07:54:16Z</time>
      </trkpt>
      <trkpt lat="45.34216" lon="7.72909">
        <ele>298.52</ele>
        <time>2017-01-08T07:54:17Z</time>
      </trkpt>
      <trkpt lat="45.34201" lon="7.72929">
        <ele>298.66</ele>
        <time>2017-01-08T07:54:18Z</time>
      </trkpt>
      <trkpt lat="45.34185" lon="7.72947">
        <ele>298.42</ele>
        <time>2017-01-08T07:54:19Z</time>
      </trkpt>
      <trkpt lat="45.34169" lon="7.72964">
        <ele>297.88</ele>
        <time>2017-01-08T07:54:20Z</time>
      </trkpt>
      <trkpt lat="45.34154" lon="7.7298">
        <ele>296.73</ele>
        <time>2017-01-08T07:54:21Z</time>
      </trkpt>
      <trkpt lat="45.34139" lon="7.72994">
        <ele>295.79</ele>
        <time>2017-01-08T07:54:22Z</time>
      </trkpt>
      <trkpt lat="45.34116" lon="7.73018">
        <ele>295.82</ele>
        <time>2017-01-08T07:54:24Z</time>
      </trkpt>
      <trkpt lat="45.341" lon="7.73043">
        <ele>296</ele>
        <time>2017-01-08T07:54:25Z</time>
      </trkpt>
      <trkpt lat="45.34086" lon="7.73074">
        <ele>295.41</ele>
        <time>2017-01-08T07:54:26Z</time>
      </trkpt>
      <trkpt lat="45.34067" lon="7.73097">
        <ele>292.87</ele>
        <time>2017-01-08T07:54:28Z</time>
      </trkpt>
      <trkpt lat="45.34049" lon="7.73116">
        <ele>290.83</ele>
        <time>2017-01-08T07:54:29Z</time>
      </trkpt>
      <trkpt lat="45.34028" lon="7.73125">
        <ele>290.51</ele>
        <time>2017-01-08T07:54:30Z</time>
      </trkpt>
      <trkpt lat="45.3401" lon="7.73135">
        <ele>290.7</ele>
        <time>2017-01-08T07:54:31Z</time>
      </trkpt>
      <trkpt lat="45.33998" lon="7.73158">
        <ele>291.07</ele>
        <time>2017-01-08T07:54:32Z</time>
      </trkpt>
      <trkpt lat="45.33984" lon="7.73175">
        <ele>291.28</ele>
        <time>2017-01-08T07:54:33Z</time>
      </trkpt>
      <trkpt lat="45.33961" lon="7.73197">
        <ele>291.35</ele>
        <time>2017-01-08T07:54:35Z</time>
      </trkpt>
      <trkpt lat="45.33944" lon="7.73208">
        <ele>291.53</ele>
        <time>2017-01-08T07:54:36Z</time>
      </trkpt>
      <trkpt lat="45.33925" lon="7.73216">
        <ele>291.93</ele>
        <time>2017-01-08T07:54:37Z</time>
      </trkpt>
      <trkpt lat="45.33902" lon="7.73231">
        <ele>292.16</ele>
        <time>2017-01-08T07:54:38Z</time>
      </trkpt>
      <trkpt lat="45.33876" lon="7.73251">
        <ele>293.55</ele>
        <time>2017-01-08T07:54:40Z</time>
      </trkpt>
      <trkpt lat="45.33848" lon="7.73271">
        <ele>294.86</ele>
        <time>2017-01-08T07:54:42Z</time>
      </trkpt>
      <trkpt lat="45.33818" lon="7.73296">
        <ele>295.1</ele>
        <time>2017-01-08T07:54:44Z</time>
      </trkpt>
      <trkpt lat="45.33803" lon="7.73311">
        <ele>294.79</ele>
        <time>2017-01-08T07:54:45Z</time>
      </trkpt>
      <trkpt lat="45.3378" lon="7.73338">
        <ele>292.91</ele>
        <time>2017-01-08T07:54:46Z</time>
      </trkpt>
      <trkpt lat="45.3376" lon="7.73352">
        <ele>292.56</ele>
        <time>2017-01-08T07:54:47Z</time>
      </trkpt>
      <trkpt lat="45.33735" lon="7.73353">
        <ele>291.39</ele>
        <time>2017-01-08T07:54:49Z</time>
      </trkpt>
      <trkpt lat="45.33711" lon="7.73348">
        <ele>289.43</ele>
        <time>2017-01-08T07:54:50Z</time>
      </trkpt>
      <trkpt lat="45.33687" lon="7.73347">
        <ele>287.86</ele>
        <time>2017-01-08T07:54:51Z</time>
      </trkpt>
      <trkpt lat="45.33667" lon="7.73348">
        <ele>287.47</ele>
        <time>2017-01-08T07:54:53Z</time>
      </trkpt>
      <trkpt lat="45.33648" lon="7.7335">
        <ele>288.2</ele>
        <time>2017-01-08T07:54:54Z</time>
      </trkpt>
      <trkpt lat="45.33627" lon="7.73356">
        <ele>289.21</ele>
        <time>2017-01-08T07:54:55Z</time>
      </trkpt>
      <trkpt lat="45.33608" lon="7.73358">
        <ele>289.79</ele>
        <time>2017-01-08T07:54:56Z</time>
      </trkpt>
      <trkpt lat="45.33583" lon="7.73376">
        <ele>288.47</ele>
        <time>2017-01-08T07:54:57Z</time>
      </trkpt>
      <trkpt lat="45.33564" lon="7.73401">
        <ele>285.34</ele>
        <time>2017-01-08T07:54:59Z</time>
      </trkpt>
      <trkpt lat="45.33541" lon="7.7343">
        <ele>284.01</ele>
        <time>2017-01-08T07:55:00Z</time>
      </trkpt>
      <trkpt lat="45.33515" lon="7.73462">
        <ele>285.46</ele>
        <time>2017-01-08T07:55:02Z</time>
      </trkpt>
      <trkpt lat="45.335" lon="7.73479">
        <ele>285.99</ele>
        <time>2017-01-08T07:55:03Z</time>
      </trkpt>
      <trkpt lat="45.33473" lon="7.73512">
        <ele>285.58</ele>
        <time>2017-01-08T07:55:05Z</time>
      </trkpt>
      <trkpt lat="45.33448" lon="7.73543">
        <ele>285.86</ele>
        <time>2017-01-08T07:55:07Z</time>
      </trkpt>
      <trkpt lat="45.33426" lon="7.73574">
        <ele>286.45</ele>
        <time>2017-01-08T07:55:09Z</time>
      </trkpt>
      <trkpt lat="45.33402" lon="7.73607">
        <ele>287</ele>
        <time>2017-01-08T07:55:11Z</time>
      </trkpt>
      <trkpt lat="45.33378" lon="7.73638">
        <ele>287.01</ele>
        <time>2017-01-08T07:55:12Z</time>
      </trkpt>
      <trkpt lat="45.33353" lon="7.73668">
        <ele>285.97</ele>
        <time>2017-01-08T07:55:14Z</time>
      </trkpt>
      <trkpt lat="45.33328" lon="7.73698">
        <ele>284.85</ele>
        <time>2017-01-08T07:55:16Z</time>
      </trkpt>
      <trkpt lat="45.333" lon="7.7373">
        <ele>282.74</ele>
        <time>2017-01-08T07:55:18Z</time>
      </trkpt>
      <trkpt lat="45.33269" lon="7.73759">
        <ele>281.12</ele>
        <time>2017-01-08T07:55:20Z</time>
      </trkpt>
      <trkpt lat="45.33251" lon="7.73772">
        <ele>280.27</ele>
        <time>2017-01-08T07:55:21Z</time>
      </trkpt>
      <trkpt lat="45.33231" lon="7.73785">
        <ele>280.77</ele>
        <time>2017-01-08T07:55:22Z</time>
      </trkpt>
      <trkpt lat="45.3321" lon="7.73798">
        <ele>281.43</ele>
        <time>2017-01-08T07:55:24Z</time>
      </trkpt>
      <trkpt lat="45.33191" lon="7.7381">
        <ele>282.11</ele>
        <time>2017-01-08T07:55:25Z</time>
      </trkpt>
      <trkpt lat="45.33174" lon="7.73822">
        <ele>282.31</ele>
        <time>2017-01-08T07:55:26Z</time>
      </trkpt>
      <trkpt lat="45.33145" lon="7.73841">
        <ele>281.72</ele>
        <time>2017-01-08T07:55:28Z</time>
      </trkpt>
      <trkpt lat="45.33118" lon="7.73859">
        <ele>281.77</ele>
        <time>2017-01-08T07:55:29Z</time>
      </trkpt>
      <trkpt lat="45.33093" lon="7.73876">
        <ele>282.75</ele>
        <time>2017-01-08T07:55:31Z</time>
      </trkpt>
      <trkpt lat="45.33075" lon="7.73891">
        <ele>282.6</ele>
        <time>2017-01-08T07:55:32Z</time>
      </trkpt>
      <trkpt lat="45.33067" lon="7.73919">
        <ele>280.78</ele>
        <time>2017-01-08T07:55:33Z</time>
      </trkpt>
      <trkpt lat="45.33072" lon="7.73962">
        <ele>279.95</ele>
        <time>2017-01-08T07:55:35Z</time>
      </trkpt>
      <trkpt lat="45.3308" lon="7.74007">
        <ele>280.23</ele>
        <time>2017-01-08T07:55:36Z</time>
      </trkpt>
      <trkpt lat="45.33084" lon="7.74035">
        <ele>281.01</ele>
        <time>2017-01-08T07:55:38Z</time>
      </trkpt>
      <trkpt lat="45.33089" lon="7.74065">
        <ele>281.14</ele>
        <time>2017-01-08T07:55:39Z</time>
      </trkpt>
      <trkpt lat="45.33094" lon="7.74094">
        <ele>280.85</ele>
        <time>2017-01-08T07:55:40Z</time>
      </trkpt>
      <trkpt lat="45.33098" lon="7.74121">
        <ele>280.28</ele>
        <time>2017-01-08T07:55:41Z</time>
      </trkpt>
      <trkpt lat="45.33106" lon="7.74166">
        <ele>279.01</ele>
        <time>2017-01-08T07:55:43Z</time>
      </trkpt>
      <trkpt lat="45.33112" lon="7.74202">
        <ele>280.26</ele>
        <time>2017-01-08T07:55:44Z</time>
      </trkpt>
      <trkpt lat="45.33114" lon="7.74232">
        <ele>280.9</ele>
        <time>2017-01-08T07:55:45Z</time>
      </trkpt>
      <trkpt lat="45.3311" lon="7.74267">
        <ele>280.41</ele>
        <time>2017-01-08T07:55:47Z</time>
      </trkpt>
      <trkpt lat="45.3309" lon="7.74279">
        <ele>280.72</ele>
        <time>2017-01-08T07:55:48Z</time>
      </trkpt>
      <trkpt lat="45.33057" lon="7.74287">
        <ele>281.61</ele>
        <time>2017-01-08T07:55:50Z</time>
      </trkpt>
      <trkpt lat="45.33033" lon="7.74289">
        <ele>281.1</ele>
        <time>2017-01-08T07:55:51Z</time>
      </trkpt>
      <trkpt lat="45.33014" lon="7.74292">
        <ele>281.25</ele>
        <time>2017-01-08T07:55:52Z</time>
      </trkpt>
      <trkpt lat="45.32982" lon="7.74302">
        <ele>281.4</ele>
        <time>2017-01-08T07:55:54Z</time>
      </trkpt>
      <trkpt lat="45.32955" lon="7.74315">
        <ele>280.39</ele>
        <time>2017-01-08T07:55:55Z</time>
      </trkpt>
      <trkpt lat="45.32932" lon="7.74329">
        <ele>279.13</ele>
        <time>2017-01-08T07:55:57Z</time>
      </trkpt>
      <trkpt lat="45.32911" lon="7.74344">
        <ele>277.51</ele>
        <time>2017-01-08T07:55:58Z</time>
      </trkpt>
      <trkpt lat="45.3289" lon="7.74361">
        <ele>277</ele>
        <time>2017-01-08T07:55:59Z</time>
      </trkpt>
      <trkpt lat="45.32864" lon="7.74384">
        <ele>277</ele>
        <time>2017-01-08T07:56:01Z</time>
      </trkpt>
      <trkpt lat="45.32847" lon="7.74399">
        <ele>277</ele>
        <time>2017-01-08T07:56:02Z</time>
      </trkpt>
      <trkpt lat="45.32831" lon="7.74415">
        <ele>277</ele>
        <time>2017-01-08T07:56:03Z</time>
      </trkpt>
      <trkpt lat="45.32816" lon="7.7443">
        <ele>276.7</ele>
        <time>2017-01-08T07:56:04Z</time>
      </trkpt>
      <trkpt lat="45.32802" lon="7.74446">
        <ele>276.01</ele>
        <time>2017-01-08T07:56:05Z</time>
      </trkpt>
      <trkpt lat="45.32777" lon="7.74481">
        <ele>277.32</ele>
        <time>2017-01-08T07:56:07Z</time>
      </trkpt>
      <trkpt lat="45.32759" lon="7.74519">
        <ele>278</ele>
        <time>2017-01-08T07:56:09Z</time>
      </trkpt>
      <trkpt lat="45.32742" lon="7.74556">
        <ele>278</ele>
        <time>2017-01-08T07:56:11Z</time>
      </trkpt>
      <trkpt lat="45.32724" lon="7.74592">
        <ele>278.98</ele>
        <time>2017-01-08T07:56:12Z</time>
      </trkpt>
      <trkpt lat="45.32704" lon="7.74624">
        <ele>277.72</ele>
        <time>2017-01-08T07:56:14Z</time>
      </trkpt>
      <trkpt lat="45.32683" lon="7.74645">
        <ele>276.34</ele>
        <time>2017-01-08T07:56:15Z</time>
      </trkpt>
      <trkpt lat="45.32662" lon="7.74657">
        <ele>276.06</ele>
        <time>2017-01-08T07:56:17Z</time>
      </trkpt>
      <trkpt lat="45.32641" lon="7.74666">
        <ele>276.04</ele>
        <time>2017-01-08T07:56:18Z</time>
      </trkpt>
      <trkpt lat="45.32624" lon="7.74672">
        <ele>276.11</ele>
        <time>2017-01-08T07:56:19Z</time>
      </trkpt>
      <trkpt lat="45.32604" lon="7.74666">
        <ele>275.73</ele>
        <time>2017-01-08T07:56:20Z</time>
      </trkpt>
      <trkpt lat="45.32609" lon="7.74696">
        <ele>277</ele>
        <time>2017-01-08T07:56:21Z</time>
      </trkpt>
      <trkpt lat="45.32602" lon="7.74728">
        <ele>276.79</ele>
        <time>2017-01-08T07:56:22Z</time>
      </trkpt>
      <trkpt lat="45.32604" lon="7.74759">
        <ele>276</ele>
        <time>2017-01-08T07:56:24Z</time>
      </trkpt>
      <trkpt lat="45.32616" lon="7.74794">
        <ele>275.34</ele>
        <time>2017-01-08T07:56:25Z</time>
      </trkpt>
      <trkpt lat="45.32624" lon="7.7482">
        <ele>275.28</ele>
        <time>2017-01-08T07:56:26Z</time>
      </trkpt>
      <trkpt lat="45.32632" lon="7.74848">
        <ele>275.26</ele>
        <time>2017-01-08T07:56:27Z</time>
      </trkpt>
      <trkpt lat="45.3264" lon="7.74878">
        <ele>275.01</ele>
        <time>2017-01-08T07:56:29Z</time>
      </trkpt>
      <trkpt lat="45.32648" lon="7.74919">
        <ele>274.59</ele>
        <time>2017-01-08T07:56:30Z</time>
      </trkpt>
      <trkpt lat="45.32654" lon="7.74956">
        <ele>273.27</ele>
        <time>2017-01-08T07:56:32Z</time>
      </trkpt>
      <trkpt lat="45.32659" lon="7.74986">
        <ele>273.35</ele>
        <time>2017-01-08T07:56:33Z</time>
      </trkpt>
      <trkpt lat="45.32666" lon="7.7501">
        <ele>274.35</ele>
        <time>2017-01-08T07:56:34Z</time>
      </trkpt>
      <trkpt lat="45.32679" lon="7.75031">
        <ele>275.26</ele>
        <time>2017-01-08T07:56:35Z</time>
      </trkpt>
      <trkpt lat="45.32691" lon="7.75057">
        <ele>273.93</ele>
        <time>2017-01-08T07:56:36Z</time>
      </trkpt>
      <trkpt lat="45.32711" lon="7.75091">
        <ele>272.59</ele>
        <time>2017-01-08T07:56:38Z</time>
      </trkpt>
      <trkpt lat="45.32727" lon="7.75111">
        <ele>273</ele>
        <time>2017-01-08T07:56:39Z</time>
      </trkpt>
      <trkpt lat="45.32743" lon="7.75132">
        <ele>273</ele>
        <time>2017-01-08T07:56:40Z</time>
      </trkpt>
      <trkpt lat="45.32758" lon="7.75152">
        <ele>273.91</ele>
        <time>2017-01-08T07:56:41Z</time>
      </trkpt>
      <trkpt lat="45.32773" lon="7.75172">
        <ele>275.7</ele>
        <time>2017-01-08T07:56:43Z</time>
      </trkpt>
      <trkpt lat="45.32786" lon="7.75189">
        <ele>276.25</ele>
        <time>2017-01-08T07:56:44Z</time>
      </trkpt>
      <trkpt lat="45.32811" lon="7.75221">
        <ele>276.22</ele>
        <time>2017-01-08T07:56:45Z</time>
      </trkpt>
      <trkpt lat="45.32831" lon="7.75259">
        <ele>277.92</ele>
        <time>2017-01-08T07:56:47Z</time>
      </trkpt>
      <trkpt lat="45.32845" lon="7.75305">
        <ele>278.41</ele>
        <time>2017-01-08T07:56:49Z</time>
      </trkpt>
      <trkpt lat="45.32854" lon="7.75354">
        <ele>278.19</ele>
        <time>2017-01-08T07:56:51Z</time>
      </trkpt>
      <trkpt lat="45.32856" lon="7.7538">
        <ele>278</ele>
        <time>2017-01-08T07:56:52Z</time>
      </trkpt>
      <trkpt lat="45.32858" lon="7.75406">
        <ele>277.37</ele>
        <time>2017-01-08T07:56:53Z</time>
      </trkpt>
      <trkpt lat="45.3286" lon="7.75432">
        <ele>276.97</ele>
        <time>2017-01-08T07:56:54Z</time>
      </trkpt>
      <trkpt lat="45.32865" lon="7.75478">
        <ele>277.03</ele>
        <time>2017-01-08T07:56:56Z</time>
      </trkpt>
      <trkpt lat="45.32871" lon="7.7552">
        <ele>277.81</ele>
        <time>2017-01-08T07:56:58Z</time>
      </trkpt>
      <trkpt lat="45.32873" lon="7.75564">
        <ele>278.29</ele>
        <time>2017-01-08T07:56:59Z</time>
      </trkpt>
      <trkpt lat="45.3287" lon="7.75604">
        <ele>277.26</ele>
        <time>2017-01-08T07:57:01Z</time>
      </trkpt>
      <trkpt lat="45.32865" lon="7.75641">
        <ele>276</ele>
        <time>2017-01-08T07:57:02Z</time>
      </trkpt>
      <trkpt lat="45.32863" lon="7.75677">
        <ele>276</ele>
        <time>2017-01-08T07:57:04Z</time>
      </trkpt>
      <trkpt lat="45.32868" lon="7.75712">
        <ele>276.47</ele>
        <time>2017-01-08T07:57:05Z</time>
      </trkpt>
      <trkpt lat="45.32876" lon="7.75744">
        <ele>276.52</ele>
        <time>2017-01-08T07:57:06Z</time>
      </trkpt>
      <trkpt lat="45.32886" lon="7.75773">
        <ele>276.15</ele>
        <time>2017-01-08T07:57:08Z</time>
      </trkpt>
      <trkpt lat="45.329" lon="7.758">
        <ele>276.48</ele>
        <time>2017-01-08T07:57:09Z</time>
      </trkpt>
      <trkpt lat="45.32915" lon="7.75818">
        <ele>276.05</ele>
        <time>2017-01-08T07:57:10Z</time>
      </trkpt>
      <trkpt lat="45.32931" lon="7.75838">
        <ele>276.6</ele>
        <time>2017-01-08T07:57:11Z</time>
      </trkpt>
      <trkpt lat="45.32927" lon="7.75864">
        <ele>277.04</ele>
        <time>2017-01-08T07:57:12Z</time>
      </trkpt>
      <trkpt lat="45.32908" lon="7.75893">
        <ele>277</ele>
        <time>2017-01-08T07:57:14Z</time>
      </trkpt>
      <trkpt lat="45.3289" lon="7.75912">
        <ele>277</ele>
        <time>2017-01-08T07:57:15Z</time>
      </trkpt>
      <trkpt lat="45.32869" lon="7.75931">
        <ele>277.73</ele>
        <time>2017-01-08T07:57:16Z</time>
      </trkpt>
      <trkpt lat="45.32849" lon="7.75946">
        <ele>277.94</ele>
        <time>2017-01-08T07:57:18Z</time>
      </trkpt>
      <trkpt lat="45.32823" lon="7.75961">
        <ele>277.62</ele>
        <time>2017-01-08T07:57:19Z</time>
      </trkpt>
      <trkpt lat="45.32803" lon="7.75976">
        <ele>277.77</ele>
        <time>2017-01-08T07:57:20Z</time>
      </trkpt>
      <trkpt lat="45.32786" lon="7.7599">
        <ele>277.1</ele>
        <time>2017-01-08T07:57:21Z</time>
      </trkpt>
      <trkpt lat="45.3277" lon="7.76004">
        <ele>276.61</ele>
        <time>2017-01-08T07:57:22Z</time>
      </trkpt>
      <trkpt lat="45.32752" lon="7.76021">
        <ele>276.02</ele>
        <time>2017-01-08T07:57:24Z</time>
      </trkpt>
      <trkpt lat="45.32738" lon="7.76047">
        <ele>275.19</ele>
        <time>2017-01-08T07:57:25Z</time>
      </trkpt>
      <trkpt lat="45.32725" lon="7.76073">
        <ele>275</ele>
        <time>2017-01-08T07:57:26Z</time>
      </trkpt>
      <trkpt lat="45.32717" lon="7.76099">
        <ele>274.36</ele>
        <time>2017-01-08T07:57:27Z</time>
      </trkpt>
      <trkpt lat="45.32704" lon="7.76122">
        <ele>274</ele>
        <time>2017-01-08T07:57:28Z</time>
      </trkpt>
      <trkpt lat="45.32681" lon="7.76118">
        <ele>274</ele>
        <time>2017-01-08T07:57:30Z</time>
      </trkpt>
      <trkpt lat="45.32653" lon="7.76112">
        <ele>274.49</ele>
        <time>2017-01-08T07:57:31Z</time>
      </trkpt>
      <trkpt lat="45.32619" lon="7.76104">
        <ele>275.27</ele>
        <time>2017-01-08T07:57:33Z</time>
      </trkpt>
      <trkpt lat="45.32594" lon="7.76097">
        <ele>274.25</ele>
        <time>2017-01-08T07:57:34Z</time>
      </trkpt>
      <trkpt lat="45.3257" lon="7.76092">
        <ele>273.37</ele>
        <time>2017-01-08T07:57:36Z</time>
      </trkpt>
      <trkpt lat="45.32546" lon="7.76086">
        <ele>273</ele>
        <time>2017-01-08T07:57:37Z</time>
      </trkpt>
      <trkpt lat="45.32517" lon="7.7608">
        <ele>272.39</ele>
        <time>2017-01-08T07:57:39Z</time>
      </trkpt>
      <trkpt lat="45.32489" lon="7.76073">
        <ele>271.62</ele>
        <time>2017-01-08T07:57:40Z</time>
      </trkpt>
      <trkpt lat="45.32459" lon="7.76066">
        <ele>271.2</ele>
        <time>2017-01-08T07:57:42Z</time>
      </trkpt>
      <trkpt lat="45.32428" lon="7.7606">
        <ele>270.49</ele>
        <time>2017-01-08T07:57:44Z</time>
      </trkpt>
      <trkpt lat="45.32396" lon="7.76053">
        <ele>270.11</ele>
        <time>2017-01-08T07:57:45Z</time>
      </trkpt>
      <trkpt lat="45.32364" lon="7.76045">
        <ele>270.37</ele>
        <time>2017-01-08T07:57:47Z</time>
      </trkpt>
      <trkpt lat="45.32332" lon="7.76038">
        <ele>268.64</ele>
        <time>2017-01-08T07:57:49Z</time>
      </trkpt>
      <trkpt lat="45.32299" lon="7.76031">
        <ele>269</ele>
        <time>2017-01-08T07:57:51Z</time>
      </trkpt>
      <trkpt lat="45.32266" lon="7.76023">
        <ele>269.77</ele>
        <time>2017-01-08T07:57:53Z</time>
      </trkpt>
      <trkpt lat="45.32233" lon="7.76015">
        <ele>271.46</ele>
        <time>2017-01-08T07:57:55Z</time>
      </trkpt>
      <trkpt lat="45.32198" lon="7.76007">
        <ele>272</ele>
        <time>2017-01-08T07:57:56Z</time>
      </trkpt>
      <trkpt lat="45.32164" lon="7.75999">
        <ele>270</ele>
        <time>2017-01-08T07:57:58Z</time>
      </trkpt>
      <trkpt lat="45.3213" lon="7.75991">
        <ele>269.45</ele>
        <time>2017-01-08T07:58:00Z</time>
      </trkpt>
      <trkpt lat="45.32097" lon="7.75983">
        <ele>269</ele>
        <time>2017-01-08T07:58:02Z</time>
      </trkpt>
      <trkpt lat="45.32067" lon="7.75975">
        <ele>269</ele>
        <time>2017-01-08T07:58:04Z</time>
      </trkpt>
      <trkpt lat="45.32038" lon="7.75968">
        <ele>269</ele>
        <time>2017-01-08T07:58:05Z</time>
      </trkpt>
      <trkpt lat="45.32013" lon="7.75962">
        <ele>269</ele>
        <time>2017-01-08T07:58:07Z</time>
      </trkpt>
      <trkpt lat="45.3199" lon="7.75957">
        <ele>269.21</ele>
        <time>2017-01-08T07:58:08Z</time>
      </trkpt>
      <trkpt lat="45.31968" lon="7.75952">
        <ele>269.62</ele>
        <time>2017-01-08T07:58:09Z</time>
      </trkpt>
      <trkpt lat="45.31947" lon="7.75947">
        <ele>269.09</ele>
        <time>2017-01-08T07:58:10Z</time>
      </trkpt>
      <trkpt lat="45.31928" lon="7.75942">
        <ele>267.89</ele>
        <time>2017-01-08T07:58:11Z</time>
      </trkpt>
      <trkpt lat="45.3191" lon="7.75938">
        <ele>266.92</ele>
        <time>2017-01-08T07:58:12Z</time>
      </trkpt>
      <trkpt lat="45.31875" lon="7.7593">
        <ele>266</ele>
        <time>2017-01-08T07:58:14Z</time>
      </trkpt>
      <trkpt lat="45.3184" lon="7.75922">
        <ele>266.61</ele>
        <time>2017-01-08T07:58:16Z</time>
      </trkpt>
      <trkpt lat="45.31823" lon="7.75917">
        <ele>267.38</ele>
        <time>2017-01-08T07:58:17Z</time>
      </trkpt>
      <trkpt lat="45.31804" lon="7.75913">
        <ele>268.13</ele>
        <time>2017-01-08T07:58:18Z</time>
      </trkpt>
      <trkpt lat="45.31786" lon="7.75909">
        <ele>268.08</ele>
        <time>2017-01-08T07:58:19Z</time>
      </trkpt>
      <trkpt lat="45.31768" lon="7.75905">
        <ele>267.64</ele>
        <time>2017-01-08T07:58:20Z</time>
      </trkpt>
      <trkpt lat="45.3175" lon="7.75901">
        <ele>266.98</ele>
        <time>2017-01-08T07:58:21Z</time>
      </trkpt>
      <trkpt lat="45.31732" lon="7.75896">
        <ele>265.85</ele>
        <time>2017-01-08T07:58:22Z</time>
      </trkpt>
      <trkpt lat="45.31713" lon="7.75892">
        <ele>265.07</ele>
        <time>2017-01-08T07:58:23Z</time>
      </trkpt>
      <trkpt lat="45.31695" lon="7.75888">
        <ele>264.96</ele>
        <time>2017-01-08T07:58:24Z</time>
      </trkpt>
      <trkpt lat="45.31678" lon="7.75884">
        <ele>264.93</ele>
        <time>2017-01-08T07:58:25Z</time>
      </trkpt>
      <trkpt lat="45.31659" lon="7.7588">
        <ele>265.18</ele>
        <time>2017-01-08T07:58:26Z</time>
      </trkpt>
      <trkpt lat="45.31641" lon="7.75875">
        <ele>265.46</ele>
        <time>2017-01-08T07:58:27Z</time>
      </trkpt>
      <trkpt lat="45.31623" lon="7.75871">
        <ele>265.73</ele>
        <time>2017-01-08T07:58:28Z</time>
      </trkpt>
      <trkpt lat="45.31605" lon="7.75867">
        <ele>266.24</ele>
        <time>2017-01-08T07:58:29Z</time>
      </trkpt>
      <trkpt lat="45.31587" lon="7.75862">
        <ele>266.89</ele>
        <time>2017-01-08T07:58:30Z</time>
      </trkpt>
      <trkpt lat="45.31568" lon="7.75858">
        <ele>266.36</ele>
        <time>2017-01-08T07:58:31Z</time>
      </trkpt>
      <trkpt lat="45.3155" lon="7.75854">
        <ele>265.38</ele>
        <time>2017-01-08T07:58:32Z</time>
      </trkpt>
      <trkpt lat="45.31533" lon="7.7585">
        <ele>263.95</ele>
        <time>2017-01-08T07:58:33Z</time>
      </trkpt>
      <trkpt lat="45.31515" lon="7.75846">
        <ele>263.46</ele>
        <time>2017-01-08T07:58:34Z</time>
      </trkpt>
      <trkpt lat="45.31497" lon="7.75842">
        <ele>263.28</ele>
        <time>2017-01-08T07:58:35Z</time>
      </trkpt>
      <trkpt lat="45.31462" lon="7.75834">
        <ele>262.62</ele>
        <time>2017-01-08T07:58:37Z</time>
      </trkpt>
      <trkpt lat="45.31427" lon="7.75826">
        <ele>262.26</ele>
        <time>2017-01-08T07:58:39Z</time>
      </trkpt>
      <trkpt lat="45.31393" lon="7.75817">
        <ele>263.07</ele>
        <time>2017-01-08T07:58:41Z</time>
      </trkpt>
      <trkpt lat="45.31358" lon="7.75809">
        <ele>263.87</ele>
        <time>2017-01-08T07:58:43Z</time>
      </trkpt>
      <trkpt lat="45.3134" lon="7.75803">
        <ele>264.09</ele>
        <time>2017-01-08T07:58:44Z</time>
      </trkpt>
      <trkpt lat="45.31322" lon="7.75796">
        <ele>264.34</ele>
        <time>2017-01-08T07:58:45Z</time>
      </trkpt>
      <trkpt lat="45.31303" lon="7.75788">
        <ele>264.71</ele>
        <time>2017-01-08T07:58:46Z</time>
      </trkpt>
      <trkpt lat="45.31285" lon="7.75779">
        <ele>265.71</ele>
        <time>2017-01-08T07:58:47Z</time>
      </trkpt>
      <trkpt lat="45.31266" lon="7.75769">
        <ele>266</ele>
        <time>2017-01-08T07:58:48Z</time>
      </trkpt>
      <trkpt lat="45.31247" lon="7.75757">
        <ele>265.86</ele>
        <time>2017-01-08T07:58:50Z</time>
      </trkpt>
      <trkpt lat="45.31228" lon="7.75745">
        <ele>265.2</ele>
        <time>2017-01-08T07:58:51Z</time>
      </trkpt>
      <trkpt lat="45.31209" lon="7.75732">
        <ele>264.51</ele>
        <time>2017-01-08T07:58:52Z</time>
      </trkpt>
      <trkpt lat="45.3119" lon="7.75719">
        <ele>264.12</ele>
        <time>2017-01-08T07:58:53Z</time>
      </trkpt>
      <trkpt lat="45.31171" lon="7.75705">
        <ele>264.61</ele>
        <time>2017-01-08T07:58:54Z</time>
      </trkpt>
      <trkpt lat="45.31152" lon="7.75692">
        <ele>263.34</ele>
        <time>2017-01-08T07:58:55Z</time>
      </trkpt>
      <trkpt lat="45.31132" lon="7.75678">
        <ele>262.14</ele>
        <time>2017-01-08T07:58:57Z</time>
      </trkpt>
      <trkpt lat="45.31113" lon="7.75664">
        <ele>262.93</ele>
        <time>2017-01-08T07:58:58Z</time>
      </trkpt>
      <trkpt lat="45.31095" lon="7.75649">
        <ele>263.6</ele>
        <time>2017-01-08T07:58:59Z</time>
      </trkpt>
      <trkpt lat="45.31077" lon="7.75635">
        <ele>264.03</ele>
        <time>2017-01-08T07:59:00Z</time>
      </trkpt>
      <trkpt lat="45.31061" lon="7.75622">
        <ele>264.49</ele>
        <time>2017-01-08T07:59:01Z</time>
      </trkpt>
      <trkpt lat="45.31045" lon="7.75611">
        <ele>264.61</ele>
        <time>2017-01-08T07:59:02Z</time>
      </trkpt>
      <trkpt lat="45.31029" lon="7.75599">
        <ele>264.03</ele>
        <time>2017-01-08T07:59:03Z</time>
      </trkpt>
      <trkpt lat="45.30996" lon="7.75576">
        <ele>262.42</ele>
        <time>2017-01-08T07:59:05Z</time>
      </trkpt>
      <trkpt lat="45.30979" lon="7.75564">
        <ele>260.82</ele>
        <time>2017-01-08T07:59:06Z</time>
      </trkpt>
      <trkpt lat="45.30963" lon="7.75552">
        <ele>259.36</ele>
        <time>2017-01-08T07:59:07Z</time>
      </trkpt>
      <trkpt lat="45.30946" lon="7.7554">
        <ele>258.65</ele>
        <time>2017-01-08T07:59:08Z</time>
      </trkpt>
      <trkpt lat="45.30929" lon="7.75527">
        <ele>259.03</ele>
        <time>2017-01-08T07:59:09Z</time>
      </trkpt>
      <trkpt lat="45.30912" lon="7.75515">
        <ele>259.99</ele>
        <time>2017-01-08T07:59:10Z</time>
      </trkpt>
      <trkpt lat="45.30895" lon="7.75503">
        <ele>261.53</ele>
        <time>2017-01-08T07:59:11Z</time>
      </trkpt>
      <trkpt lat="45.30877" lon="7.7549">
        <ele>263.19</ele>
        <time>2017-01-08T07:59:12Z</time>
      </trkpt>
      <trkpt lat="45.30859" lon="7.75478">
        <ele>264.89</ele>
        <time>2017-01-08T07:59:13Z</time>
      </trkpt>
      <trkpt lat="45.3084" lon="7.75465">
        <ele>265.23</ele>
        <time>2017-01-08T07:59:15Z</time>
      </trkpt>
      <trkpt lat="45.30821" lon="7.75452">
        <ele>264.1</ele>
        <time>2017-01-08T07:59:16Z</time>
      </trkpt>
      <trkpt lat="45.30802" lon="7.75439">
        <ele>262.62</ele>
        <time>2017-01-08T07:59:17Z</time>
      </trkpt>
      <trkpt lat="45.30784" lon="7.75424">
        <ele>262.12</ele>
        <time>2017-01-08T07:59:18Z</time>
      </trkpt>
      <trkpt lat="45.30766" lon="7.75409">
        <ele>262.25</ele>
        <time>2017-01-08T07:59:19Z</time>
      </trkpt>
      <trkpt lat="45.3075" lon="7.75394">
        <ele>263.03</ele>
        <time>2017-01-08T07:59:20Z</time>
      </trkpt>
      <trkpt lat="45.30735" lon="7.75378">
        <ele>264.69</ele>
        <time>2017-01-08T07:59:21Z</time>
      </trkpt>
      <trkpt lat="45.30711" lon="7.75348">
        <ele>264.52</ele>
        <time>2017-01-08T07:59:23Z</time>
      </trkpt>
      <trkpt lat="45.30693" lon="7.75322">
        <ele>262.58</ele>
        <time>2017-01-08T07:59:24Z</time>
      </trkpt>
      <trkpt lat="45.30681" lon="7.753">
        <ele>262.1</ele>
        <time>2017-01-08T07:59:25Z</time>
      </trkpt>
      <trkpt lat="45.3068" lon="7.75332">
        <ele>262.95</ele>
        <time>2017-01-08T07:59:27Z</time>
      </trkpt>
      <trkpt lat="45.30662" lon="7.75351">
        <ele>263.95</ele>
        <time>2017-01-08T07:59:28Z</time>
      </trkpt>
      <trkpt lat="45.30641" lon="7.75379">
        <ele>263.9</ele>
        <time>2017-01-08T07:59:29Z</time>
      </trkpt>
      <trkpt lat="45.3062" lon="7.75408">
        <ele>262.88</ele>
        <time>2017-01-08T07:59:31Z</time>
      </trkpt>
      <trkpt lat="45.30596" lon="7.75439">
        <ele>261.44</ele>
        <time>2017-01-08T07:59:33Z</time>
      </trkpt>
      <trkpt lat="45.3057" lon="7.75471">
        <ele>261.03</ele>
        <time>2017-01-08T07:59:35Z</time>
      </trkpt>
      <trkpt lat="45.30557" lon="7.75489">
        <ele>261</ele>
        <time>2017-01-08T07:59:36Z</time>
      </trkpt>
      <trkpt lat="45.30543" lon="7.75508">
        <ele>260.37</ele>
        <time>2017-01-08T07:59:37Z</time>
      </trkpt>
      <trkpt lat="45.30528" lon="7.75526">
        <ele>260</ele>
        <time>2017-01-08T07:59:38Z</time>
      </trkpt>
      <trkpt lat="45.30514" lon="7.75545">
        <ele>259.32</ele>
        <time>2017-01-08T07:59:39Z</time>
      </trkpt>
      <trkpt lat="45.30501" lon="7.75564">
        <ele>259.02</ele>
        <time>2017-01-08T07:59:40Z</time>
      </trkpt>
      <trkpt lat="45.30487" lon="7.75582">
        <ele>258.98</ele>
        <time>2017-01-08T07:59:41Z</time>
      </trkpt>
      <trkpt lat="45.30474" lon="7.75601">
        <ele>258.97</ele>
        <time>2017-01-08T07:59:42Z</time>
      </trkpt>
      <trkpt lat="45.30449" lon="7.75635">
        <ele>259.85</ele>
        <time>2017-01-08T07:59:44Z</time>
      </trkpt>
      <trkpt lat="45.30429" lon="7.75662">
        <ele>259.83</ele>
        <time>2017-01-08T07:59:45Z</time>
      </trkpt>
      <trkpt lat="45.30417" lon="7.7568">
        <ele>259.49</ele>
        <time>2017-01-08T07:59:46Z</time>
      </trkpt>
      <trkpt lat="45.30408" lon="7.75714">
        <ele>258.67</ele>
        <time>2017-01-08T07:59:48Z</time>
      </trkpt>
      <trkpt lat="45.3041" lon="7.75746">
        <ele>257.88</ele>
        <time>2017-01-08T07:59:49Z</time>
      </trkpt>
      <trkpt lat="45.30423" lon="7.75801">
        <ele>258.21</ele>
        <time>2017-01-08T07:59:51Z</time>
      </trkpt>
      <trkpt lat="45.30427" lon="7.75828">
        <ele>258.36</ele>
        <time>2017-01-08T07:59:52Z</time>
      </trkpt>
      <trkpt lat="45.30431" lon="7.75853">
        <ele>257.83</ele>
        <time>2017-01-08T07:59:53Z</time>
      </trkpt>
      <trkpt lat="45.30439" lon="7.75902">
        <ele>257.82</ele>
        <time>2017-01-08T07:59:55Z</time>
      </trkpt>
      <trkpt lat="45.30446" lon="7.75947">
        <ele>258.09</ele>
        <time>2017-01-08T07:59:57Z</time>
      </trkpt>
      <trkpt lat="45.30451" lon="7.75984">
        <ele>258.45</ele>
        <time>2017-01-08T07:59:58Z</time>
      </trkpt>
      <trkpt lat="45.30453" lon="7.76014">
        <ele>258.49</ele>
        <time>2017-01-08T08:00:00Z</time>
      </trkpt>
      <trkpt lat="45.3045" lon="7.76051">
        <ele>259.17</ele>
        <time>2017-01-08T08:00:01Z</time>
      </trkpt>
      <trkpt lat="45.30437" lon="7.76081">
        <ele>259.37</ele>
        <time>2017-01-08T08:00:02Z</time>
      </trkpt>
      <trkpt lat="45.30419" lon="7.76111">
        <ele>258.25</ele>
        <time>2017-01-08T08:00:04Z</time>
      </trkpt>
      <trkpt lat="45.30404" lon="7.76137">
        <ele>256.68</ele>
        <time>2017-01-08T08:00:05Z</time>
      </trkpt>
      <trkpt lat="45.30388" lon="7.76159">
        <ele>255.76</ele>
        <time>2017-01-08T08:00:06Z</time>
      </trkpt>
      <trkpt lat="45.30367" lon="7.7618">
        <ele>256.89</ele>
        <time>2017-01-08T08:00:08Z</time>
      </trkpt>
      <trkpt lat="45.30348" lon="7.762">
        <ele>257.38</ele>
        <time>2017-01-08T08:00:09Z</time>
      </trkpt>
      <trkpt lat="45.30335" lon="7.76223">
        <ele>257</ele>
        <time>2017-01-08T08:00:10Z</time>
      </trkpt>
      <trkpt lat="45.30327" lon="7.76248">
        <ele>257</ele>
        <time>2017-01-08T08:00:11Z</time>
      </trkpt>
      <trkpt lat="45.30318" lon="7.76275">
        <ele>257.5</ele>
        <time>2017-01-08T08:00:13Z</time>
      </trkpt>
      <trkpt lat="45.30304" lon="7.76292">
        <ele>258.03</ele>
        <time>2017-01-08T08:00:14Z</time>
      </trkpt>
      <trkpt lat="45.30304" lon="7.76322">
        <ele>258.6</ele>
        <time>2017-01-08T08:00:15Z</time>
      </trkpt>
      <trkpt lat="45.30313" lon="7.76351">
        <ele>259</ele>
        <time>2017-01-08T08:00:16Z</time>
      </trkpt>
      <trkpt lat="45.30321" lon="7.76377">
        <ele>258.69</ele>
        <time>2017-01-08T08:00:17Z</time>
      </trkpt>
      <trkpt lat="45.3033" lon="7.76412">
        <ele>258.02</ele>
        <time>2017-01-08T08:00:18Z</time>
      </trkpt>
      <trkpt lat="45.30337" lon="7.76449">
        <ele>257.85</ele>
        <time>2017-01-08T08:00:20Z</time>
      </trkpt>
      <trkpt lat="45.30334" lon="7.76487">
        <ele>256.49</ele>
        <time>2017-01-08T08:00:21Z</time>
      </trkpt>
      <trkpt lat="45.30331" lon="7.76512">
        <ele>255.6</ele>
        <time>2017-01-08T08:00:22Z</time>
      </trkpt>
      <trkpt lat="45.30323" lon="7.76539">
        <ele>255.62</ele>
        <time>2017-01-08T08:00:23Z</time>
      </trkpt>
      <trkpt lat="45.30312" lon="7.7656">
        <ele>256.04</ele>
        <time>2017-01-08T08:00:24Z</time>
      </trkpt>
      <trkpt lat="45.30294" lon="7.76582">
        <ele>256.41</ele>
        <time>2017-01-08T08:00:26Z</time>
      </trkpt>
      <trkpt lat="45.30279" lon="7.76609">
        <ele>256.97</ele>
        <time>2017-01-08T08:00:27Z</time>
      </trkpt>
      <trkpt lat="45.30274" lon="7.76637">
        <ele>257.13</ele>
        <time>2017-01-08T08:00:28Z</time>
      </trkpt>
      <trkpt lat="45.30271" lon="7.76668">
        <ele>257.25</ele>
        <time>2017-01-08T08:00:29Z</time>
      </trkpt>
      <trkpt lat="45.30261" lon="7.76697">
        <ele>257.55</ele>
        <time>2017-01-08T08:00:31Z</time>
      </trkpt>
      <trkpt lat="45.30246" lon="7.76716">
        <ele>257.36</ele>
        <time>2017-01-08T08:00:32Z</time>
      </trkpt>
      <trkpt lat="45.30232" lon="7.76731">
        <ele>257.66</ele>
        <time>2017-01-08T08:00:33Z</time>
      </trkpt>
      <trkpt lat="45.3021" lon="7.76755">
        <ele>257.92</ele>
        <time>2017-01-08T08:00:34Z</time>
      </trkpt>
      <trkpt lat="45.30191" lon="7.76774">
        <ele>257.14</ele>
        <time>2017-01-08T08:00:36Z</time>
      </trkpt>
      <trkpt lat="45.30174" lon="7.76788">
        <ele>256.65</ele>
        <time>2017-01-08T08:00:37Z</time>
      </trkpt>
      <trkpt lat="45.30153" lon="7.76806">
        <ele>256.49</ele>
        <time>2017-01-08T08:00:38Z</time>
      </trkpt>
      <trkpt lat="45.30131" lon="7.76829">
        <ele>256.73</ele>
        <time>2017-01-08T08:00:39Z</time>
      </trkpt>
      <trkpt lat="45.30106" lon="7.76855">
        <ele>255.17</ele>
        <time>2017-01-08T08:00:41Z</time>
      </trkpt>
      <trkpt lat="45.30076" lon="7.76885">
        <ele>254.1</ele>
        <time>2017-01-08T08:00:43Z</time>
      </trkpt>
      <trkpt lat="45.3006" lon="7.769">
        <ele>253.66</ele>
        <time>2017-01-08T08:00:44Z</time>
      </trkpt>
      <trkpt lat="45.30045" lon="7.76914">
        <ele>253.06</ele>
        <time>2017-01-08T08:00:45Z</time>
      </trkpt>
      <trkpt lat="45.30019" lon="7.7694">
        <ele>253</ele>
        <time>2017-01-08T08:00:47Z</time>
      </trkpt>
      <trkpt lat="45.29992" lon="7.76966">
        <ele>253</ele>
        <time>2017-01-08T08:00:49Z</time>
      </trkpt>
      <trkpt lat="45.29964" lon="7.76993">
        <ele>252.92</ele>
        <time>2017-01-08T08:00:51Z</time>
      </trkpt>
      <trkpt lat="45.29938" lon="7.77016">
        <ele>253.03</ele>
        <time>2017-01-08T08:00:52Z</time>
      </trkpt>
      <trkpt lat="45.29919" lon="7.77032">
        <ele>254.16</ele>
        <time>2017-01-08T08:01:16Z</time>
      </trkpt>
      <trkpt lat="45.299" lon="7.77053">
        <ele>255.87</ele>
        <time>2017-01-08T08:01:18Z</time>
      </trkpt>
      <trkpt lat="45.29898" lon="7.77013">
        <ele>253.58</ele>
        <time>2017-01-08T08:01:38Z</time>
      </trkpt>
      <trkpt lat="45.29899" lon="7.7698">
        <ele>251.9</ele>
        <time>2017-01-08T08:01:39Z</time>
      </trkpt>
      <trkpt lat="45.29888" lon="7.76948">
        <ele>251.14</ele>
        <time>2017-01-08T08:01:40Z</time>
      </trkpt>
      <trkpt lat="45.29873" lon="7.76917">
        <ele>250.02</ele>
        <time>2017-01-08T08:01:42Z</time>
      </trkpt>
      <trkpt lat="45.29865" lon="7.76889">
        <ele>249.15</ele>
        <time>2017-01-08T08:01:43Z</time>
      </trkpt>
      <trkpt lat="45.29857" lon="7.76861">
        <ele>249.16</ele>
        <time>2017-01-08T08:01:44Z</time>
      </trkpt>
      <trkpt lat="45.2985" lon="7.76836">
        <ele>248.5</ele>
        <time>2017-01-08T08:01:45Z</time>
      </trkpt>
      <trkpt lat="45.29841" lon="7.76809">
        <ele>248.74</ele>
        <time>2017-01-08T08:01:46Z</time>
      </trkpt>
      <trkpt lat="45.29832" lon="7.76781">
        <ele>249.04</ele>
        <time>2017-01-08T08:01:47Z</time>
      </trkpt>
      <trkpt lat="45.29822" lon="7.76745">
        <ele>250.6</ele>
        <time>2017-01-08T08:01:49Z</time>
      </trkpt>
      <trkpt lat="45.29809" lon="7.767">
        <ele>252.69</ele>
        <time>2017-01-08T08:01:51Z</time>
      </trkpt>
      <trkpt lat="45.29795" lon="7.7666">
        <ele>254</ele>
        <time>2017-01-08T08:01:52Z</time>
      </trkpt>
      <trkpt lat="45.29781" lon="7.7662">
        <ele>254</ele>
        <time>2017-01-08T08:01:54Z</time>
      </trkpt>
      <trkpt lat="45.29769" lon="7.76582">
        <ele>253</ele>
        <time>2017-01-08T08:01:56Z</time>
      </trkpt>
      <trkpt lat="45.29758" lon="7.76547">
        <ele>252.91</ele>
        <time>2017-01-08T08:01:57Z</time>
      </trkpt>
      <trkpt lat="45.29746" lon="7.76507">
        <ele>252.5</ele>
        <time>2017-01-08T08:01:59Z</time>
      </trkpt>
      <trkpt lat="45.29732" lon="7.76464">
        <ele>253.1</ele>
        <time>2017-01-08T08:02:01Z</time>
      </trkpt>
      <trkpt lat="45.2972" lon="7.76423">
        <ele>252.05</ele>
        <time>2017-01-08T08:02:02Z</time>
      </trkpt>
      <trkpt lat="45.2971" lon="7.76389">
        <ele>251.08</ele>
        <time>2017-01-08T08:02:04Z</time>
      </trkpt>
      <trkpt lat="45.29699" lon="7.76354">
        <ele>250.38</ele>
        <time>2017-01-08T08:02:05Z</time>
      </trkpt>
      <trkpt lat="45.29689" lon="7.76321">
        <ele>251.31</ele>
        <time>2017-01-08T08:02:07Z</time>
      </trkpt>
      <trkpt lat="45.29683" lon="7.76295">
        <ele>251.91</ele>
        <time>2017-01-08T08:02:08Z</time>
      </trkpt>
      <trkpt lat="45.29666" lon="7.76283">
        <ele>252.23</ele>
        <time>2017-01-08T08:02:09Z</time>
      </trkpt>
      <trkpt lat="45.29647" lon="7.7631">
        <ele>253.69</ele>
        <time>2017-01-08T08:02:10Z</time>
      </trkpt>
      <trkpt lat="45.29627" lon="7.7633">
        <ele>254</ele>
        <time>2017-01-08T08:02:12Z</time>
      </trkpt>
      <trkpt lat="45.29602" lon="7.76351">
        <ele>252.7</ele>
        <time>2017-01-08T08:02:13Z</time>
      </trkpt>
      <trkpt lat="45.29572" lon="7.76373">
        <ele>250.83</ele>
        <time>2017-01-08T08:02:15Z</time>
      </trkpt>
      <trkpt lat="45.29545" lon="7.76392">
        <ele>250</ele>
        <time>2017-01-08T08:02:17Z</time>
      </trkpt>
      <trkpt lat="45.29519" lon="7.76415">
        <ele>250</ele>
        <time>2017-01-08T08:02:18Z</time>
      </trkpt>
      <trkpt lat="45.29495" lon="7.76438">
        <ele>250</ele>
        <time>2017-01-08T08:02:20Z</time>
      </trkpt>
      <trkpt lat="45.29466" lon="7.76459">
        <ele>250</ele>
        <time>2017-01-08T08:02:22Z</time>
      </trkpt>
      <trkpt lat="45.2945" lon="7.76471">
        <ele>250</ele>
        <time>2017-01-08T08:02:23Z</time>
      </trkpt>
      <trkpt lat="45.29432" lon="7.76483">
        <ele>250</ele>
        <time>2017-01-08T08:02:24Z</time>
      </trkpt>
      <trkpt lat="45.29415" lon="7.76495">
        <ele>250.01</ele>
        <time>2017-01-08T08:02:25Z</time>
      </trkpt>
      <trkpt lat="45.29388" lon="7.76511">
        <ele>250</ele>
        <time>2017-01-08T08:02:26Z</time>
      </trkpt>
      <trkpt lat="45.2937" lon="7.76522">
        <ele>250</ele>
        <time>2017-01-08T08:02:28Z</time>
      </trkpt>
      <trkpt lat="45.29348" lon="7.76537">
        <ele>249.82</ele>
        <time>2017-01-08T08:02:29Z</time>
      </trkpt>
      <trkpt lat="45.29331" lon="7.76561">
        <ele>250</ele>
        <time>2017-01-08T08:02:30Z</time>
      </trkpt>
      <trkpt lat="45.29308" lon="7.76586">
        <ele>250</ele>
        <time>2017-01-08T08:02:32Z</time>
      </trkpt>
      <trkpt lat="45.2928" lon="7.7661">
        <ele>249.07</ele>
        <time>2017-01-08T08:02:34Z</time>
      </trkpt>
      <trkpt lat="45.29251" lon="7.76633">
        <ele>249.02</ele>
        <time>2017-01-08T08:02:35Z</time>
      </trkpt>
      <trkpt lat="45.29217" lon="7.76655">
        <ele>248.15</ele>
        <time>2017-01-08T08:02:37Z</time>
      </trkpt>
      <trkpt lat="45.29199" lon="7.76667">
        <ele>247.15</ele>
        <time>2017-01-08T08:02:39Z</time>
      </trkpt>
      <trkpt lat="45.29182" lon="7.76677">
        <ele>247</ele>
        <time>2017-01-08T08:02:40Z</time>
      </trkpt>
      <trkpt lat="45.29165" lon="7.76687">
        <ele>247</ele>
        <time>2017-01-08T08:02:41Z</time>
      </trkpt>
      <trkpt lat="45.29137" lon="7.76703">
        <ele>247</ele>
        <time>2017-01-08T08:02:42Z</time>
      </trkpt>
      <trkpt lat="45.29114" lon="7.7672">
        <ele>247</ele>
        <time>2017-01-08T08:02:44Z</time>
      </trkpt>
      <trkpt lat="45.29088" lon="7.76744">
        <ele>247.17</ele>
        <time>2017-01-08T08:02:45Z</time>
      </trkpt>
      <trkpt lat="45.29073" lon="7.76759">
        <ele>247.24</ele>
        <time>2017-01-08T08:02:46Z</time>
      </trkpt>
      <trkpt lat="45.29058" lon="7.76774">
        <ele>247.11</ele>
        <time>2017-01-08T08:02:47Z</time>
      </trkpt>
      <trkpt lat="45.29043" lon="7.7679">
        <ele>247.01</ele>
        <time>2017-01-08T08:02:48Z</time>
      </trkpt>
      <trkpt lat="45.29014" lon="7.76818">
        <ele>248.21</ele>
        <time>2017-01-08T08:02:50Z</time>
      </trkpt>
      <trkpt lat="45.28987" lon="7.76847">
        <ele>249.5</ele>
        <time>2017-01-08T08:02:52Z</time>
      </trkpt>
      <trkpt lat="45.28961" lon="7.76877">
        <ele>249.21</ele>
        <time>2017-01-08T08:02:54Z</time>
      </trkpt>
      <trkpt lat="45.28937" lon="7.76909">
        <ele>247.93</ele>
        <time>2017-01-08T08:02:56Z</time>
      </trkpt>
      <trkpt lat="45.28913" lon="7.76939">
        <ele>248</ele>
        <time>2017-01-08T08:02:58Z</time>
      </trkpt>
      <trkpt lat="45.2889" lon="7.76966">
        <ele>247.22</ele>
        <time>2017-01-08T08:02:59Z</time>
      </trkpt>
      <trkpt lat="45.28868" lon="7.76987">
        <ele>247.23</ele>
        <time>2017-01-08T08:03:01Z</time>
      </trkpt>
      <trkpt lat="45.28843" lon="7.77006">
        <ele>247.31</ele>
        <time>2017-01-08T08:03:02Z</time>
      </trkpt>
      <trkpt lat="45.28825" lon="7.77019">
        <ele>246.65</ele>
        <time>2017-01-08T08:03:03Z</time>
      </trkpt>
      <trkpt lat="45.2881" lon="7.77035">
        <ele>245.48</ele>
        <time>2017-01-08T08:03:04Z</time>
      </trkpt>
      <trkpt lat="45.28796" lon="7.77052">
        <ele>244.9</ele>
        <time>2017-01-08T08:03:05Z</time>
      </trkpt>
      <trkpt lat="45.28774" lon="7.77066">
        <ele>245.88</ele>
        <time>2017-01-08T08:03:07Z</time>
      </trkpt>
      <trkpt lat="45.28755" lon="7.77074">
        <ele>246.96</ele>
        <time>2017-01-08T08:03:08Z</time>
      </trkpt>
      <trkpt lat="45.28743" lon="7.77101">
        <ele>246.53</ele>
        <time>2017-01-08T08:03:09Z</time>
      </trkpt>
      <trkpt lat="45.2873" lon="7.77131">
        <ele>246.21</ele>
        <time>2017-01-08T08:03:10Z</time>
      </trkpt>
      <trkpt lat="45.28715" lon="7.77146">
        <ele>245.73</ele>
        <time>2017-01-08T08:03:11Z</time>
      </trkpt>
      <trkpt lat="45.28691" lon="7.77164">
        <ele>245.3</ele>
        <time>2017-01-08T08:03:13Z</time>
      </trkpt>
      <trkpt lat="45.28664" lon="7.77184">
        <ele>245.96</ele>
        <time>2017-01-08T08:03:14Z</time>
      </trkpt>
      <trkpt lat="45.28637" lon="7.77205">
        <ele>246.28</ele>
        <time>2017-01-08T08:03:16Z</time>
      </trkpt>
      <trkpt lat="45.28614" lon="7.77223">
        <ele>245.83</ele>
        <time>2017-01-08T08:03:18Z</time>
      </trkpt>
      <trkpt lat="45.28598" lon="7.77237">
        <ele>245.68</ele>
        <time>2017-01-08T08:03:19Z</time>
      </trkpt>
      <trkpt lat="45.28582" lon="7.77252">
        <ele>246</ele>
        <time>2017-01-08T08:03:20Z</time>
      </trkpt>
      <trkpt lat="45.2856" lon="7.77271">
        <ele>246.64</ele>
        <time>2017-01-08T08:03:21Z</time>
      </trkpt>
      <trkpt lat="45.28536" lon="7.77284">
        <ele>245.8</ele>
        <time>2017-01-08T08:03:22Z</time>
      </trkpt>
      <trkpt lat="45.28516" lon="7.77294">
        <ele>245.58</ele>
        <time>2017-01-08T08:03:24Z</time>
      </trkpt>
      <trkpt lat="45.28497" lon="7.77308">
        <ele>246.01</ele>
        <time>2017-01-08T08:03:25Z</time>
      </trkpt>
      <trkpt lat="45.28483" lon="7.77328">
        <ele>246.5</ele>
        <time>2017-01-08T08:03:26Z</time>
      </trkpt>
      <trkpt lat="45.28469" lon="7.77347">
        <ele>246.45</ele>
        <time>2017-01-08T08:03:27Z</time>
      </trkpt>
      <trkpt lat="45.28454" lon="7.77368">
        <ele>245.74</ele>
        <time>2017-01-08T08:03:28Z</time>
      </trkpt>
      <trkpt lat="45.28439" lon="7.77384">
        <ele>245.15</ele>
        <time>2017-01-08T08:03:29Z</time>
      </trkpt>
      <trkpt lat="45.28418" lon="7.77389">
        <ele>244.99</ele>
        <time>2017-01-08T08:03:30Z</time>
      </trkpt>
      <trkpt lat="45.28394" lon="7.77396">
        <ele>243.52</ele>
        <time>2017-01-08T08:03:32Z</time>
      </trkpt>
      <trkpt lat="45.28375" lon="7.77401">
        <ele>243.43</ele>
        <time>2017-01-08T08:03:33Z</time>
      </trkpt>
      <trkpt lat="45.28356" lon="7.77405">
        <ele>243.56</ele>
        <time>2017-01-08T08:03:34Z</time>
      </trkpt>
      <trkpt lat="45.28349" lon="7.77429">
        <ele>244.06</ele>
        <time>2017-01-08T08:03:35Z</time>
      </trkpt>
      <trkpt lat="45.28359" lon="7.77462">
        <ele>243.66</ele>
        <time>2017-01-08T08:03:36Z</time>
      </trkpt>
      <trkpt lat="45.28367" lon="7.77488">
        <ele>242.56</ele>
        <time>2017-01-08T08:03:37Z</time>
      </trkpt>
      <trkpt lat="45.28374" lon="7.77513">
        <ele>242.46</ele>
        <time>2017-01-08T08:03:38Z</time>
      </trkpt>
      <trkpt lat="45.28356" lon="7.77533">
        <ele>241.97</ele>
        <time>2017-01-08T08:03:40Z</time>
      </trkpt>
      <trkpt lat="45.28334" lon="7.77536">
        <ele>241.02</ele>
        <time>2017-01-08T08:03:41Z</time>
      </trkpt>
      <trkpt lat="45.2831" lon="7.77537">
        <ele>240.44</ele>
        <time>2017-01-08T08:03:42Z</time>
      </trkpt>
      <trkpt lat="45.2829" lon="7.77538">
        <ele>240.16</ele>
        <time>2017-01-08T08:03:43Z</time>
      </trkpt>
      <trkpt lat="45.28269" lon="7.77546">
        <ele>239.67</ele>
        <time>2017-01-08T08:03:44Z</time>
      </trkpt>
      <trkpt lat="45.2825" lon="7.77559">
        <ele>239.12</ele>
        <time>2017-01-08T08:03:45Z</time>
      </trkpt>
      <trkpt lat="45.28231" lon="7.77573">
        <ele>239.19</ele>
        <time>2017-01-08T08:03:47Z</time>
      </trkpt>
      <trkpt lat="45.28209" lon="7.77586">
        <ele>239.44</ele>
        <time>2017-01-08T08:03:48Z</time>
      </trkpt>
      <trkpt lat="45.28202" lon="7.77614">
        <ele>239.03</ele>
        <time>2017-01-08T08:03:49Z</time>
      </trkpt>
      <trkpt lat="45.28214" lon="7.77648">
        <ele>239.48</ele>
        <time>2017-01-08T08:03:51Z</time>
      </trkpt>
      <trkpt lat="45.28222" lon="7.77672">
        <ele>239</ele>
        <time>2017-01-08T08:03:52Z</time>
      </trkpt>
      <trkpt lat="45.28226" lon="7.77698">
        <ele>239</ele>
        <time>2017-01-08T08:03:53Z</time>
      </trkpt>
      <trkpt lat="45.28202" lon="7.77714">
        <ele>239</ele>
        <time>2017-01-08T08:03:54Z</time>
      </trkpt>
      <trkpt lat="45.28179" lon="7.77726">
        <ele>238.88</ele>
        <time>2017-01-08T08:03:55Z</time>
      </trkpt>
      <trkpt lat="45.28157" lon="7.77737">
        <ele>238.67</ele>
        <time>2017-01-08T08:03:57Z</time>
      </trkpt>
      <trkpt lat="45.28137" lon="7.77745">
        <ele>238.92</ele>
        <time>2017-01-08T08:03:58Z</time>
      </trkpt>
      <trkpt lat="45.28112" lon="7.77757">
        <ele>238.03</ele>
        <time>2017-01-08T08:03:59Z</time>
      </trkpt>
      <trkpt lat="45.28088" lon="7.77767">
        <ele>237.49</ele>
        <time>2017-01-08T08:04:01Z</time>
      </trkpt>
      <trkpt lat="45.28067" lon="7.77777">
        <ele>237.01</ele>
        <time>2017-01-08T08:04:02Z</time>
      </trkpt>
      <trkpt lat="45.28051" lon="7.77801">
        <ele>237.18</ele>
        <time>2017-01-08T08:04:03Z</time>
      </trkpt>
      <trkpt lat="45.28031" lon="7.77817">
        <ele>237.94</ele>
        <time>2017-01-08T08:04:04Z</time>
      </trkpt>
      <trkpt lat="45.28011" lon="7.7783">
        <ele>238.07</ele>
        <time>2017-01-08T08:04:06Z</time>
      </trkpt>
      <trkpt lat="45.2799" lon="7.77842">
        <ele>237.62</ele>
        <time>2017-01-08T08:04:07Z</time>
      </trkpt>
      <trkpt lat="45.27974" lon="7.77865">
        <ele>236.94</ele>
        <time>2017-01-08T08:04:08Z</time>
      </trkpt>
      <trkpt lat="45.27952" lon="7.77875">
        <ele>236.12</ele>
        <time>2017-01-08T08:04:09Z</time>
      </trkpt>
      <trkpt lat="45.27933" lon="7.77881">
        <ele>236.4</ele>
        <time>2017-01-08T08:04:10Z</time>
      </trkpt>
      <trkpt lat="45.27913" lon="7.77885">
        <ele>237.11</ele>
        <time>2017-01-08T08:04:12Z</time>
      </trkpt>
      <trkpt lat="45.27894" lon="7.77886">
        <ele>237.75</ele>
        <time>2017-01-08T08:04:13Z</time>
      </trkpt>
      <trkpt lat="45.27883" lon="7.77865">
        <ele>237.59</ele>
        <time>2017-01-08T08:04:14Z</time>
      </trkpt>
      <trkpt lat="45.27872" lon="7.77829">
        <ele>237.7</ele>
        <time>2017-01-08T08:04:15Z</time>
      </trkpt>
      <trkpt lat="45.27861" lon="7.77798">
        <ele>237.99</ele>
        <time>2017-01-08T08:04:16Z</time>
      </trkpt>
      <trkpt lat="45.27852" lon="7.77768">
        <ele>238.07</ele>
        <time>2017-01-08T08:04:18Z</time>
      </trkpt>
      <trkpt lat="45.2784" lon="7.77735">
        <ele>239.03</ele>
        <time>2017-01-08T08:04:19Z</time>
      </trkpt>
      <trkpt lat="45.27834" lon="7.77711">
        <ele>240.39</ele>
        <time>2017-01-08T08:04:20Z</time>
      </trkpt>
      <trkpt lat="45.27826" lon="7.77684">
        <ele>241.27</ele>
        <time>2017-01-08T08:04:21Z</time>
      </trkpt>
      <trkpt lat="45.27818" lon="7.77661">
        <ele>241.64</ele>
        <time>2017-01-08T08:04:22Z</time>
      </trkpt>
      <trkpt lat="45.2781" lon="7.77638">
        <ele>241.91</ele>
        <time>2017-01-08T08:04:23Z</time>
      </trkpt>
      <trkpt lat="45.278" lon="7.7761">
        <ele>239.78</ele>
        <time>2017-01-08T08:04:24Z</time>
      </trkpt>
      <trkpt lat="45.2779" lon="7.77581">
        <ele>238.91</ele>
        <time>2017-01-08T08:04:26Z</time>
      </trkpt>
      <trkpt lat="45.27781" lon="7.77552">
        <ele>238.66</ele>
        <time>2017-01-08T08:04:27Z</time>
      </trkpt>
      <trkpt lat="45.27771" lon="7.77521">
        <ele>238.7</ele>
        <time>2017-01-08T08:04:28Z</time>
      </trkpt>
      <trkpt lat="45.27762" lon="7.77495">
        <ele>239.57</ele>
        <time>2017-01-08T08:04:29Z</time>
      </trkpt>
      <trkpt lat="45.27753" lon="7.77471">
        <ele>239.9</ele>
        <time>2017-01-08T08:04:30Z</time>
      </trkpt>
      <trkpt lat="45.27742" lon="7.77449">
        <ele>240.55</ele>
        <time>2017-01-08T08:04:31Z</time>
      </trkpt>
      <trkpt lat="45.2773" lon="7.77419">
        <ele>241.71</ele>
        <time>2017-01-08T08:04:33Z</time>
      </trkpt>
      <trkpt lat="45.27717" lon="7.77391">
        <ele>242.19</ele>
        <time>2017-01-08T08:04:34Z</time>
      </trkpt>
      <trkpt lat="45.27688" lon="7.77395">
        <ele>242.77</ele>
        <time>2017-01-08T08:04:36Z</time>
      </trkpt>
      <trkpt lat="45.27663" lon="7.774">
        <ele>241.7</ele>
        <time>2017-01-08T08:04:37Z</time>
      </trkpt>
      <trkpt lat="45.27641" lon="7.77405">
        <ele>240.14</ele>
        <time>2017-01-08T08:04:38Z</time>
      </trkpt>
      <trkpt lat="45.27617" lon="7.77421">
        <ele>239.87</ele>
        <time>2017-01-08T08:04:40Z</time>
      </trkpt>
      <trkpt lat="45.27597" lon="7.77438">
        <ele>239.75</ele>
        <time>2017-01-08T08:04:41Z</time>
      </trkpt>
      <trkpt lat="45.27581" lon="7.77451">
        <ele>239.84</ele>
        <time>2017-01-08T08:04:42Z</time>
      </trkpt>
      <trkpt lat="45.27564" lon="7.77467">
        <ele>239.9</ele>
        <time>2017-01-08T08:04:43Z</time>
      </trkpt>
      <trkpt lat="45.27544" lon="7.77489">
        <ele>240</ele>
        <time>2017-01-08T08:04:45Z</time>
      </trkpt>
      <trkpt lat="45.27512" lon="7.77504">
        <ele>239.28</ele>
        <time>2017-01-08T08:04:46Z</time>
      </trkpt>
      <trkpt lat="45.27479" lon="7.77516">
        <ele>237.34</ele>
        <time>2017-01-08T08:04:48Z</time>
      </trkpt>
      <trkpt lat="45.27453" lon="7.77524">
        <ele>236.91</ele>
        <time>2017-01-08T08:04:50Z</time>
      </trkpt>
      <trkpt lat="45.27431" lon="7.77532">
        <ele>237.64</ele>
        <time>2017-01-08T08:04:51Z</time>
      </trkpt>
      <trkpt lat="45.27409" lon="7.7754">
        <ele>238.42</ele>
        <time>2017-01-08T08:04:52Z</time>
      </trkpt>
      <trkpt lat="45.27389" lon="7.77547">
        <ele>238.69</ele>
        <time>2017-01-08T08:04:53Z</time>
      </trkpt>
      <trkpt lat="45.27368" lon="7.77555">
        <ele>238.23</ele>
        <time>2017-01-08T08:04:54Z</time>
      </trkpt>
      <trkpt lat="45.27347" lon="7.77562">
        <ele>237.37</ele>
        <time>2017-01-08T08:04:56Z</time>
      </trkpt>
      <trkpt lat="45.27327" lon="7.77569">
        <ele>236.77</ele>
        <time>2017-01-08T08:04:57Z</time>
      </trkpt>
      <trkpt lat="45.27309" lon="7.77576">
        <ele>236.12</ele>
        <time>2017-01-08T08:04:58Z</time>
      </trkpt>
      <trkpt lat="45.27276" lon="7.77587">
        <ele>235.27</ele>
        <time>2017-01-08T08:05:00Z</time>
      </trkpt>
      <trkpt lat="45.27243" lon="7.77598">
        <ele>235.42</ele>
        <time>2017-01-08T08:05:02Z</time>
      </trkpt>
      <trkpt lat="45.27214" lon="7.77609">
        <ele>235.57</ele>
        <time>2017-01-08T08:05:03Z</time>
      </trkpt>
      <trkpt lat="45.27185" lon="7.77618">
        <ele>235.49</ele>
        <time>2017-01-08T08:05:05Z</time>
      </trkpt>
      <trkpt lat="45.2716" lon="7.77625">
        <ele>235.87</ele>
        <time>2017-01-08T08:05:06Z</time>
      </trkpt>
      <trkpt lat="45.27139" lon="7.77631">
        <ele>235.28</ele>
        <time>2017-01-08T08:05:07Z</time>
      </trkpt>
      <trkpt lat="45.27119" lon="7.77636">
        <ele>235.09</ele>
        <time>2017-01-08T08:05:09Z</time>
      </trkpt>
      <trkpt lat="45.2711" lon="7.77662">
        <ele>234.22</ele>
        <time>2017-01-08T08:05:10Z</time>
      </trkpt>
      <trkpt lat="45.27108" lon="7.77694">
        <ele>234</ele>
        <time>2017-01-08T08:05:11Z</time>
      </trkpt>
      <trkpt lat="45.27106" lon="7.77742">
        <ele>233.76</ele>
        <time>2017-01-08T08:05:13Z</time>
      </trkpt>
      <trkpt lat="45.27104" lon="7.77789">
        <ele>234</ele>
        <time>2017-01-08T08:05:15Z</time>
      </trkpt>
      <trkpt lat="45.27104" lon="7.77829">
        <ele>234.63</ele>
        <time>2017-01-08T08:05:16Z</time>
      </trkpt>
      <trkpt lat="45.27104" lon="7.7786">
        <ele>234.74</ele>
        <time>2017-01-08T08:05:17Z</time>
      </trkpt>
      <trkpt lat="45.27101" lon="7.77886">
        <ele>233.73</ele>
        <time>2017-01-08T08:05:18Z</time>
      </trkpt>
      <trkpt lat="45.27092" lon="7.77913">
        <ele>232.68</ele>
        <time>2017-01-08T08:05:19Z</time>
      </trkpt>
      <trkpt lat="45.27066" lon="7.77934">
        <ele>231.39</ele>
        <time>2017-01-08T08:05:21Z</time>
      </trkpt>
      <trkpt lat="45.27044" lon="7.7796">
        <ele>231.22</ele>
        <time>2017-01-08T08:05:23Z</time>
      </trkpt>
      <trkpt lat="45.2702" lon="7.77988">
        <ele>233.4</ele>
        <time>2017-01-08T08:05:24Z</time>
      </trkpt>
      <trkpt lat="45.26997" lon="7.78017">
        <ele>236.23</ele>
        <time>2017-01-08T08:05:26Z</time>
      </trkpt>
      <trkpt lat="45.26976" lon="7.78045">
        <ele>236.82</ele>
        <time>2017-01-08T08:05:28Z</time>
      </trkpt>
      <trkpt lat="45.26953" lon="7.78074">
        <ele>235.65</ele>
        <time>2017-01-08T08:05:29Z</time>
      </trkpt>
      <trkpt lat="45.2694" lon="7.78091">
        <ele>235.22</ele>
        <time>2017-01-08T08:05:30Z</time>
      </trkpt>
      <trkpt lat="45.26925" lon="7.78109">
        <ele>236.34</ele>
        <time>2017-01-08T08:05:31Z</time>
      </trkpt>
      <trkpt lat="45.26909" lon="7.78128">
        <ele>236.84</ele>
        <time>2017-01-08T08:05:32Z</time>
      </trkpt>
      <trkpt lat="45.26894" lon="7.78147">
        <ele>236.19</ele>
        <time>2017-01-08T08:05:34Z</time>
      </trkpt>
      <trkpt lat="45.2688" lon="7.78164">
        <ele>235.37</ele>
        <time>2017-01-08T08:05:35Z</time>
      </trkpt>
      <trkpt lat="45.26852" lon="7.78196">
        <ele>235.02</ele>
        <time>2017-01-08T08:05:37Z</time>
      </trkpt>
      <trkpt lat="45.26838" lon="7.78215">
        <ele>235.6</ele>
        <time>2017-01-08T08:05:38Z</time>
      </trkpt>
      <trkpt lat="45.26824" lon="7.78233">
        <ele>235.97</ele>
        <time>2017-01-08T08:05:39Z</time>
      </trkpt>
      <trkpt lat="45.2681" lon="7.78249">
        <ele>235.88</ele>
        <time>2017-01-08T08:05:40Z</time>
      </trkpt>
      <trkpt lat="45.26784" lon="7.78283">
        <ele>234.83</ele>
        <time>2017-01-08T08:05:42Z</time>
      </trkpt>
      <trkpt lat="45.26759" lon="7.78314">
        <ele>234.58</ele>
        <time>2017-01-08T08:05:43Z</time>
      </trkpt>
      <trkpt lat="45.26737" lon="7.78341">
        <ele>235.32</ele>
        <time>2017-01-08T08:05:45Z</time>
      </trkpt>
      <trkpt lat="45.26715" lon="7.7836">
        <ele>235.73</ele>
        <time>2017-01-08T08:05:46Z</time>
      </trkpt>
      <trkpt lat="45.26687" lon="7.78379">
        <ele>235.37</ele>
        <time>2017-01-08T08:05:48Z</time>
      </trkpt>
      <trkpt lat="45.26669" lon="7.78389">
        <ele>235.07</ele>
        <time>2017-01-08T08:05:49Z</time>
      </trkpt>
      <trkpt lat="45.26647" lon="7.78398">
        <ele>235.66</ele>
        <time>2017-01-08T08:05:50Z</time>
      </trkpt>
      <trkpt lat="45.26628" lon="7.7841">
        <ele>235.25</ele>
        <time>2017-01-08T08:05:52Z</time>
      </trkpt>
      <trkpt lat="45.26607" lon="7.78422">
        <ele>233.77</ele>
        <time>2017-01-08T08:05:53Z</time>
      </trkpt>
      <trkpt lat="45.26585" lon="7.78435">
        <ele>232.09</ele>
        <time>2017-01-08T08:05:54Z</time>
      </trkpt>
      <trkpt lat="45.26562" lon="7.78447">
        <ele>232.43</ele>
        <time>2017-01-08T08:05:55Z</time>
      </trkpt>
      <trkpt lat="45.2654" lon="7.7846">
        <ele>232.59</ele>
        <time>2017-01-08T08:05:57Z</time>
      </trkpt>
      <trkpt lat="45.2652" lon="7.78471">
        <ele>232.9</ele>
        <time>2017-01-08T08:05:58Z</time>
      </trkpt>
      <trkpt lat="45.26502" lon="7.7848">
        <ele>233.57</ele>
        <time>2017-01-08T08:05:59Z</time>
      </trkpt>
      <trkpt lat="45.26485" lon="7.78488">
        <ele>233.11</ele>
        <time>2017-01-08T08:06:00Z</time>
      </trkpt>
      <trkpt lat="45.26452" lon="7.78506">
        <ele>231.74</ele>
        <time>2017-01-08T08:06:02Z</time>
      </trkpt>
      <trkpt lat="45.2642" lon="7.78525">
        <ele>231.04</ele>
        <time>2017-01-08T08:06:04Z</time>
      </trkpt>
      <trkpt lat="45.26394" lon="7.78539">
        <ele>230.25</ele>
        <time>2017-01-08T08:06:05Z</time>
      </trkpt>
      <trkpt lat="45.26369" lon="7.78551">
        <ele>228.76</ele>
        <time>2017-01-08T08:06:07Z</time>
      </trkpt>
      <trkpt lat="45.26339" lon="7.78563">
        <ele>226.94</ele>
        <time>2017-01-08T08:06:08Z</time>
      </trkpt>
      <trkpt lat="45.26307" lon="7.78574">
        <ele>226.02</ele>
        <time>2017-01-08T08:06:10Z</time>
      </trkpt>
      <trkpt lat="45.26272" lon="7.78584">
        <ele>226</ele>
        <time>2017-01-08T08:06:12Z</time>
      </trkpt>
      <trkpt lat="45.26238" lon="7.78593">
        <ele>226.43</ele>
        <time>2017-01-08T08:06:14Z</time>
      </trkpt>
      <trkpt lat="45.26205" lon="7.78603">
        <ele>227.61</ele>
        <time>2017-01-08T08:06:16Z</time>
      </trkpt>
      <trkpt lat="45.26176" lon="7.78612">
        <ele>229.35</ele>
        <time>2017-01-08T08:06:18Z</time>
      </trkpt>
      <trkpt lat="45.26149" lon="7.78619">
        <ele>230</ele>
        <time>2017-01-08T08:06:19Z</time>
      </trkpt>
      <trkpt lat="45.26123" lon="7.78625">
        <ele>229.11</ele>
        <time>2017-01-08T08:06:21Z</time>
      </trkpt>
      <trkpt lat="45.26098" lon="7.78632">
        <ele>227.89</ele>
        <time>2017-01-08T08:06:22Z</time>
      </trkpt>
      <trkpt lat="45.26072" lon="7.78638">
        <ele>227.44</ele>
        <time>2017-01-08T08:06:23Z</time>
      </trkpt>
      <trkpt lat="45.26045" lon="7.78645">
        <ele>228.01</ele>
        <time>2017-01-08T08:06:25Z</time>
      </trkpt>
      <trkpt lat="45.26019" lon="7.78652">
        <ele>228.37</ele>
        <time>2017-01-08T08:06:26Z</time>
      </trkpt>
      <trkpt lat="45.25993" lon="7.78658">
        <ele>227.37</ele>
        <time>2017-01-08T08:06:28Z</time>
      </trkpt>
      <trkpt lat="45.2597" lon="7.78663">
        <ele>225.87</ele>
        <time>2017-01-08T08:06:29Z</time>
      </trkpt>
      <trkpt lat="45.25949" lon="7.78668">
        <ele>226.05</ele>
        <time>2017-01-08T08:06:30Z</time>
      </trkpt>
      <trkpt lat="45.25931" lon="7.78673">
        <ele>226.72</ele>
        <time>2017-01-08T08:06:31Z</time>
      </trkpt>
      <trkpt lat="45.25907" lon="7.78678">
        <ele>228.11</ele>
        <time>2017-01-08T08:06:33Z</time>
      </trkpt>
      <trkpt lat="45.25886" lon="7.78679">
        <ele>229.54</ele>
        <time>2017-01-08T08:06:34Z</time>
      </trkpt>
      <trkpt lat="45.25865" lon="7.78672">
        <ele>230.05</ele>
        <time>2017-01-08T08:06:35Z</time>
      </trkpt>
      <trkpt lat="45.25849" lon="7.78654">
        <ele>230.27</ele>
        <time>2017-01-08T08:06:36Z</time>
      </trkpt>
      <trkpt lat="45.25833" lon="7.78642">
        <ele>229.98</ele>
        <time>2017-01-08T08:06:37Z</time>
      </trkpt>
      <trkpt lat="45.25813" lon="7.78643">
        <ele>228.55</ele>
        <time>2017-01-08T08:06:38Z</time>
      </trkpt>
      <trkpt lat="45.25794" lon="7.78643">
        <ele>227.15</ele>
        <time>2017-01-08T08:06:39Z</time>
      </trkpt>
      <trkpt lat="45.25773" lon="7.78645">
        <ele>225.84</ele>
        <time>2017-01-08T08:06:40Z</time>
      </trkpt>
      <trkpt lat="45.25753" lon="7.78649">
        <ele>225.12</ele>
        <time>2017-01-08T08:06:41Z</time>
      </trkpt>
      <trkpt lat="45.25735" lon="7.78651">
        <ele>225</ele>
        <time>2017-01-08T08:06:42Z</time>
      </trkpt>
      <trkpt lat="45.25717" lon="7.78653">
        <ele>225</ele>
        <time>2017-01-08T08:06:43Z</time>
      </trkpt>
      <trkpt lat="45.25693" lon="7.78661">
        <ele>224.97</ele>
        <time>2017-01-08T08:06:45Z</time>
      </trkpt>
      <trkpt lat="45.2567" lon="7.78668">
        <ele>224.17</ele>
        <time>2017-01-08T08:06:46Z</time>
      </trkpt>
      <trkpt lat="45.25652" lon="7.78677">
        <ele>223.65</ele>
        <time>2017-01-08T08:06:47Z</time>
      </trkpt>
      <trkpt lat="45.25642" lon="7.78702">
        <ele>223.46</ele>
        <time>2017-01-08T08:06:48Z</time>
      </trkpt>
      <trkpt lat="45.25632" lon="7.78725">
        <ele>223.89</ele>
        <time>2017-01-08T08:06:49Z</time>
      </trkpt>
      <trkpt lat="45.25625" lon="7.78749">
        <ele>224.94</ele>
        <time>2017-01-08T08:06:50Z</time>
      </trkpt>
      <trkpt lat="45.25614" lon="7.7877">
        <ele>225.6</ele>
        <time>2017-01-08T08:06:51Z</time>
      </trkpt>
      <trkpt lat="45.25604" lon="7.78796">
        <ele>226.17</ele>
        <time>2017-01-08T08:06:52Z</time>
      </trkpt>
      <trkpt lat="45.25592" lon="7.78819">
        <ele>226.83</ele>
        <time>2017-01-08T08:06:53Z</time>
      </trkpt>
      <trkpt lat="45.25579" lon="7.7884">
        <ele>227.35</ele>
        <time>2017-01-08T08:06:55Z</time>
      </trkpt>
      <trkpt lat="45.25567" lon="7.78863">
        <ele>228.68</ele>
        <time>2017-01-08T08:06:56Z</time>
      </trkpt>
      <trkpt lat="45.25559" lon="7.78889">
        <ele>228.58</ele>
        <time>2017-01-08T08:06:57Z</time>
      </trkpt>
      <trkpt lat="45.25548" lon="7.78915">
        <ele>227.9</ele>
        <time>2017-01-08T08:06:58Z</time>
      </trkpt>
      <trkpt lat="45.2554" lon="7.78942">
        <ele>227.22</ele>
        <time>2017-01-08T08:06:59Z</time>
      </trkpt>
      <trkpt lat="45.25532" lon="7.78965">
        <ele>227.81</ele>
        <time>2017-01-08T08:07:00Z</time>
      </trkpt>
      <trkpt lat="45.25521" lon="7.78987">
        <ele>227.75</ele>
        <time>2017-01-08T08:07:01Z</time>
      </trkpt>
      <trkpt lat="45.25512" lon="7.79015">
        <ele>226.62</ele>
        <time>2017-01-08T08:07:02Z</time>
      </trkpt>
      <trkpt lat="45.2551" lon="7.79041">
        <ele>226.37</ele>
        <time>2017-01-08T08:07:03Z</time>
      </trkpt>
      <trkpt lat="45.25514" lon="7.79071">
        <ele>226.49</ele>
        <time>2017-01-08T08:07:04Z</time>
      </trkpt>
      <trkpt lat="45.2551" lon="7.79096">
        <ele>226.37</ele>
        <time>2017-01-08T08:07:05Z</time>
      </trkpt>
      <trkpt lat="45.25506" lon="7.79122">
        <ele>226.22</ele>
        <time>2017-01-08T08:07:06Z</time>
      </trkpt>
      <trkpt lat="45.25505" lon="7.79149">
        <ele>226.17</ele>
        <time>2017-01-08T08:07:08Z</time>
      </trkpt>
      <trkpt lat="45.25504" lon="7.79178">
        <ele>226.54</ele>
        <time>2017-01-08T08:07:09Z</time>
      </trkpt>
      <trkpt lat="45.25502" lon="7.79204">
        <ele>227.07</ele>
        <time>2017-01-08T08:07:10Z</time>
      </trkpt>
      <trkpt lat="45.25494" lon="7.79222">
        <ele>261</ele>
        <time>2017-02-13T16:00:12Z</time>
      </trkpt>
      <trkpt lat="45.25483" lon="7.79231">
        <ele>264</ele>
        <time>2017-02-13T16:00:13Z</time>
      </trkpt>
      <trkpt lat="45.25471" lon="7.79253">
        <ele>265</ele>
        <time>2017-02-13T16:00:14Z</time>
      </trkpt>
      <trkpt lat="45.25466" lon="7.79272">
        <ele>266</ele>
        <time>2017-02-13T16:00:15Z</time>
      </trkpt>
      <trkpt lat="45.25451" lon="7.79285">
        <ele>266</ele>
        <time>2017-02-13T16:00:17Z</time>
      </trkpt>
      <trkpt lat="45.2544" lon="7.7929">
        <ele>268</ele>
        <time>2017-02-13T16:00:17Z</time>
      </trkpt>
      <trkpt lat="45.25428" lon="7.79294">
        <ele>268</ele>
        <time>2017-02-13T16:00:18Z</time>
      </trkpt>
      <trkpt lat="45.25419" lon="7.79301">
        <ele>266</ele>
        <time>2017-02-13T16:00:19Z</time>
      </trkpt>
      <trkpt lat="45.2541" lon="7.7931">
        <ele>263</ele>
        <time>2017-02-13T16:00:20Z</time>
      </trkpt>
      <trkpt lat="45.254" lon="7.79319">
        <ele>264</ele>
        <time>2017-02-13T16:00:21Z</time>
      </trkpt>
      <trkpt lat="45.25391" lon="7.79325">
        <ele>263</ele>
        <time>2017-02-13T16:00:21Z</time>
      </trkpt>
      <trkpt lat="45.25382" lon="7.79333">
        <ele>265</ele>
        <time>2017-02-13T16:00:22Z</time>
      </trkpt>
      <trkpt lat="45.25372" lon="7.79336">
        <ele>270</ele>
        <time>2017-02-13T16:00:23Z</time>
      </trkpt>
      <trkpt lat="45.25361" lon="7.79337">
        <ele>271</ele>
        <time>2017-02-13T16:00:23Z</time>
      </trkpt>
      <trkpt lat="45.25343" lon="7.79332">
        <ele>268</ele>
        <time>2017-02-13T16:00:25Z</time>
      </trkpt>
      <trkpt lat="45.25324" lon="7.79338">
        <ele>270</ele>
        <time>2017-02-13T16:00:26Z</time>
      </trkpt>
      <trkpt lat="45.25315" lon="7.79345">
        <ele>272</ele>
        <time>2017-02-13T16:00:27Z</time>
      </trkpt>
      <trkpt lat="45.25296" lon="7.7936">
        <ele>280</ele>
        <time>2017-02-13T16:00:28Z</time>
      </trkpt>
      <trkpt lat="45.25283" lon="7.79364">
        <ele>280</ele>
        <time>2017-02-13T16:00:29Z</time>
      </trkpt>
      <trkpt lat="45.25271" lon="7.79365">
        <ele>279</ele>
        <time>2017-02-13T16:00:30Z</time>
      </trkpt>
      <trkpt lat="45.2526" lon="7.79371">
        <ele>277</ele>
        <time>2017-02-13T16:00:30Z</time>
      </trkpt>
      <trkpt lat="45.2525" lon="7.79377">
        <ele>275</ele>
        <time>2017-02-13T16:00:31Z</time>
      </trkpt>
      <trkpt lat="45.25239" lon="7.79386">
        <ele>275</ele>
        <time>2017-02-13T16:00:32Z</time>
      </trkpt>
      <trkpt lat="45.25224" lon="7.79399">
        <ele>277</ele>
        <time>2017-02-13T16:00:33Z</time>
      </trkpt>
      <trkpt lat="45.25212" lon="7.79407">
        <ele>274</ele>
        <time>2017-02-13T16:00:34Z</time>
      </trkpt>
      <trkpt lat="45.25195" lon="7.79421">
        <ele>270</ele>
        <time>2017-02-13T16:00:35Z</time>
      </trkpt>
      <trkpt lat="45.25188" lon="7.79431">
        <ele>272</ele>
        <time>2017-02-13T16:00:36Z</time>
      </trkpt>
      <trkpt lat="45.25182" lon="7.79443">
        <ele>275</ele>
        <time>2017-02-13T16:00:37Z</time>
      </trkpt>
      <trkpt lat="45.25163" lon="7.79452">
        <ele>270</ele>
        <time>2017-02-13T16:00:38Z</time>
      </trkpt>
      <trkpt lat="45.25157" lon="7.79464">
        <ele>270</ele>
        <time>2017-02-13T16:00:39Z</time>
      </trkpt>
      <trkpt lat="45.25147" lon="7.79471">
        <ele>268</ele>
        <time>2017-02-13T16:00:40Z</time>
      </trkpt>
      <trkpt lat="45.25136" lon="7.79469">
        <ele>267</ele>
        <time>2017-02-13T16:00:40Z</time>
      </trkpt>
      <trkpt lat="45.25125" lon="7.79467">
        <ele>268</ele>
        <time>2017-02-13T16:00:41Z</time>
      </trkpt>
      <trkpt lat="45.25114" lon="7.79467">
        <ele>268</ele>
        <time>2017-02-13T16:00:42Z</time>
      </trkpt>
      <trkpt lat="45.25101" lon="7.79469">
        <ele>269</ele>
        <time>2017-02-13T16:00:43Z</time>
      </trkpt>
      <trkpt lat="45.2508" lon="7.79478">
        <ele>271</ele>
        <time>2017-02-13T16:00:44Z</time>
      </trkpt>
      <trkpt lat="45.25069" lon="7.79484">
        <ele>270</ele>
        <time>2017-02-13T16:00:45Z</time>
      </trkpt>
      <trkpt lat="45.25058" lon="7.79488">
        <ele>273</ele>
        <time>2017-02-13T16:00:46Z</time>
      </trkpt>
      <trkpt lat="45.25038" lon="7.79499">
        <ele>271</ele>
        <time>2017-02-13T16:00:47Z</time>
      </trkpt>
      <trkpt lat="45.25019" lon="7.795">
        <ele>277</ele>
        <time>2017-02-13T16:00:48Z</time>
      </trkpt>
      <trkpt lat="45.25008" lon="7.79499">
        <ele>276</ele>
        <time>2017-02-13T16:00:49Z</time>
      </trkpt>
      <trkpt lat="45.24998" lon="7.795">
        <ele>278</ele>
        <time>2017-02-13T16:00:50Z</time>
      </trkpt>
      <trkpt lat="45.24988" lon="7.79497">
        <ele>277</ele>
        <time>2017-02-13T16:00:50Z</time>
      </trkpt>
      <trkpt lat="45.24978" lon="7.79495">
        <ele>276</ele>
        <time>2017-02-13T16:00:51Z</time>
      </trkpt>
      <trkpt lat="45.24968" lon="7.79492">
        <ele>275</ele>
        <time>2017-02-13T16:00:52Z</time>
      </trkpt>
      <trkpt lat="45.24957" lon="7.79495">
        <ele>266</ele>
        <time>2017-02-13T16:00:53Z</time>
      </trkpt>
      <trkpt lat="45.24946" lon="7.79496">
        <ele>265</ele>
        <time>2017-02-13T16:00:53Z</time>
      </trkpt>
      <trkpt lat="45.24935" lon="7.79495">
        <ele>268</ele>
        <time>2017-02-13T16:00:54Z</time>
      </trkpt>
      <trkpt lat="45.24919" lon="7.79482">
        <ele>268</ele>
        <time>2017-02-13T16:00:55Z</time>
      </trkpt>
      <trkpt lat="45.24902" lon="7.79462">
        <ele>269</ele>
        <time>2017-02-13T16:00:57Z</time>
      </trkpt>
      <trkpt lat="45.24893" lon="7.7945">
        <ele>267</ele>
        <time>2017-02-13T16:00:58Z</time>
      </trkpt>
      <trkpt lat="45.24884" lon="7.79442">
        <ele>269</ele>
        <time>2017-02-13T16:00:58Z</time>
      </trkpt>
      <trkpt lat="45.24875" lon="7.79432">
        <ele>270</ele>
        <time>2017-02-13T16:00:59Z</time>
      </trkpt>
      <trkpt lat="45.24864" lon="7.79431">
        <ele>268</ele>
        <time>2017-02-13T16:01:00Z</time>
      </trkpt>
      <trkpt lat="45.24859" lon="7.79443">
        <ele>270</ele>
        <time>2017-02-13T16:01:00Z</time>
      </trkpt>
      <trkpt lat="45.24851" lon="7.7947">
        <ele>270</ele>
        <time>2017-02-13T16:01:02Z</time>
      </trkpt>
      <trkpt lat="45.24842" lon="7.79482">
        <ele>269</ele>
        <time>2017-02-13T16:01:03Z</time>
      </trkpt>
      <trkpt lat="45.24831" lon="7.7949">
        <ele>270</ele>
        <time>2017-02-13T16:01:03Z</time>
      </trkpt>
      <trkpt lat="45.2482" lon="7.79498">
        <ele>270</ele>
        <time>2017-02-13T16:01:04Z</time>
      </trkpt>
      <trkpt lat="45.24809" lon="7.79503">
        <ele>269</ele>
        <time>2017-02-13T16:01:05Z</time>
      </trkpt>
      <trkpt lat="45.24799" lon="7.7951">
        <ele>271</ele>
        <time>2017-02-13T16:01:06Z</time>
      </trkpt>
      <trkpt lat="45.24789" lon="7.79532">
        <ele>270</ele>
        <time>2017-02-13T16:01:07Z</time>
      </trkpt>
      <trkpt lat="45.24783" lon="7.79549">
        <ele>270</ele>
        <time>2017-02-13T16:01:08Z</time>
      </trkpt>
      <trkpt lat="45.24773" lon="7.79577">
        <ele>271</ele>
        <time>2017-02-13T16:01:09Z</time>
      </trkpt>
      <trkpt lat="45.24761" lon="7.79599">
        <ele>268</ele>
        <time>2017-02-13T16:01:11Z</time>
      </trkpt>
      <trkpt lat="45.24755" lon="7.79613">
        <ele>268</ele>
        <time>2017-02-13T16:01:11Z</time>
      </trkpt>
      <trkpt lat="45.24749" lon="7.79627">
        <ele>268</ele>
        <time>2017-02-13T16:01:12Z</time>
      </trkpt>
      <trkpt lat="45.24744" lon="7.79648">
        <ele>268</ele>
        <time>2017-02-13T16:01:13Z</time>
      </trkpt>
      <trkpt lat="45.24745" lon="7.79662">
        <ele>268</ele>
        <time>2017-02-13T16:01:14Z</time>
      </trkpt>
      <trkpt lat="45.24747" lon="7.79681">
        <ele>268</ele>
        <time>2017-02-13T16:01:15Z</time>
      </trkpt>
      <trkpt lat="45.24749" lon="7.79697">
        <ele>268</ele>
        <time>2017-02-13T16:01:16Z</time>
      </trkpt>
      <trkpt lat="45.24751" lon="7.79715">
        <ele>268</ele>
        <time>2017-02-13T16:01:16Z</time>
      </trkpt>
      <trkpt lat="45.24753" lon="7.79733">
        <ele>267</ele>
        <time>2017-02-13T16:01:17Z</time>
      </trkpt>
      <trkpt lat="45.24757" lon="7.79759">
        <ele>269</ele>
        <time>2017-02-13T16:01:19Z</time>
      </trkpt>
      <trkpt lat="45.24751" lon="7.79772">
        <ele>268</ele>
        <time>2017-02-13T16:01:19Z</time>
      </trkpt>
      <trkpt lat="45.24748" lon="7.79786">
        <ele>269</ele>
        <time>2017-02-13T16:01:20Z</time>
      </trkpt>
      <trkpt lat="45.24741" lon="7.79802">
        <ele>267</ele>
        <time>2017-02-13T16:01:21Z</time>
      </trkpt>
      <trkpt lat="45.24737" lon="7.79821">
        <ele>268</ele>
        <time>2017-02-13T16:01:22Z</time>
      </trkpt>
      <trkpt lat="45.24731" lon="7.79837">
        <ele>267</ele>
        <time>2017-02-13T16:01:23Z</time>
      </trkpt>
      <trkpt lat="45.24727" lon="7.79856">
        <ele>267</ele>
        <time>2017-02-13T16:01:24Z</time>
      </trkpt>
      <trkpt lat="45.24719" lon="7.79872">
        <ele>267</ele>
        <time>2017-02-13T16:01:25Z</time>
      </trkpt>
      <trkpt lat="45.2471" lon="7.79885">
        <ele>267</ele>
        <time>2017-02-13T16:01:25Z</time>
      </trkpt>
      <trkpt lat="45.24704" lon="7.79897">
        <ele>269</ele>
        <time>2017-02-13T16:01:26Z</time>
      </trkpt>
      <trkpt lat="45.24695" lon="7.7991">
        <ele>269</ele>
        <time>2017-02-13T16:01:27Z</time>
      </trkpt>
      <trkpt lat="45.24683" lon="7.79921">
        <ele>270</ele>
        <time>2017-02-13T16:01:28Z</time>
      </trkpt>
      <trkpt lat="45.24675" lon="7.79932">
        <ele>268</ele>
        <time>2017-02-13T16:01:29Z</time>
      </trkpt>
      <trkpt lat="45.24671" lon="7.79946">
        <ele>267</ele>
        <time>2017-02-13T16:01:29Z</time>
      </trkpt>
      <trkpt lat="45.24662" lon="7.79967">
        <ele>267</ele>
        <time>2017-02-13T16:01:30Z</time>
      </trkpt>
      <trkpt lat="45.24653" lon="7.79979">
        <ele>265</ele>
        <time>2017-02-13T16:01:31Z</time>
      </trkpt>
      <trkpt lat="45.24633" lon="7.79996">
        <ele>267</ele>
        <time>2017-02-13T16:01:33Z</time>
      </trkpt>
      <trkpt lat="45.2462" lon="7.80001">
        <ele>268</ele>
        <time>2017-02-13T16:01:34Z</time>
      </trkpt>
      <trkpt lat="45.24608" lon="7.80003">
        <ele>268</ele>
        <time>2017-02-13T16:01:35Z</time>
      </trkpt>
      <trkpt lat="45.24596" lon="7.80008">
        <ele>270</ele>
        <time>2017-02-13T16:01:35Z</time>
      </trkpt>
      <trkpt lat="45.24579" lon="7.80017">
        <ele>270</ele>
        <time>2017-02-13T16:01:37Z</time>
      </trkpt>
      <trkpt lat="45.24571" lon="7.80024">
        <ele>271</ele>
        <time>2017-02-13T16:01:37Z</time>
      </trkpt>
      <trkpt lat="45.24562" lon="7.8003">
        <ele>273</ele>
        <time>2017-02-13T16:01:38Z</time>
      </trkpt>
      <trkpt lat="45.24553" lon="7.80036">
        <ele>275</ele>
        <time>2017-02-13T16:01:39Z</time>
      </trkpt>
      <trkpt lat="45.24542" lon="7.8004">
        <ele>272</ele>
        <time>2017-02-13T16:01:39Z</time>
      </trkpt>
      <trkpt lat="45.24528" lon="7.80048">
        <ele>273</ele>
        <time>2017-02-13T16:01:40Z</time>
      </trkpt>
      <trkpt lat="45.24514" lon="7.8005">
        <ele>275</ele>
        <time>2017-02-13T16:01:41Z</time>
      </trkpt>
      <trkpt lat="45.24499" lon="7.80056">
        <ele>275</ele>
        <time>2017-02-13T16:01:42Z</time>
      </trkpt>
      <trkpt lat="45.24485" lon="7.80063">
        <ele>275</ele>
        <time>2017-02-13T16:01:43Z</time>
      </trkpt>
      <trkpt lat="45.24474" lon="7.80064">
        <ele>276</ele>
        <time>2017-02-13T16:01:44Z</time>
      </trkpt>
      <trkpt lat="45.24463" lon="7.80074">
        <ele>276</ele>
        <time>2017-02-13T16:01:45Z</time>
      </trkpt>
      <trkpt lat="45.24456" lon="7.80085">
        <ele>273</ele>
        <time>2017-02-13T16:01:46Z</time>
      </trkpt>
      <trkpt lat="45.24447" lon="7.80099">
        <ele>275</ele>
        <time>2017-02-13T16:01:46Z</time>
      </trkpt>
      <trkpt lat="45.2444" lon="7.80108">
        <ele>274</ele>
        <time>2017-02-13T16:01:47Z</time>
      </trkpt>
      <trkpt lat="45.24424" lon="7.80117">
        <ele>269</ele>
        <time>2017-02-13T16:01:48Z</time>
      </trkpt>
    </trkseg>
  </trk>
  <trk>
    <name><![CDATA[Limone - Monesi_Limone - Monesi]]></name>
    <trkseg>
      <trkpt lat="44.08256" lon="7.74907">
        <ele>1330</ele>
      </trkpt>
      <trkpt lat="44.08256" lon="7.74907">
        <ele>1330</ele>
      </trkpt>
      <trkpt lat="44.08256" lon="7.74907">
        <ele>1330</ele>
      </trkpt>
      <trkpt lat="44.08209" lon="7.7486">
        <ele>1319.3</ele>
      </trkpt>
      <trkpt lat="44.08111" lon="7.7483">
        <ele>1310.5</ele>
      </trkpt>
      <trkpt lat="44.08071" lon="7.74783">
        <ele>1297.3</ele>
      </trkpt>
      <trkpt lat="44.08015" lon="7.74727">
        <ele>1312.5</ele>
      </trkpt>
      <trkpt lat="44.07954" lon="7.74629">
        <ele>1315.6</ele>
      </trkpt>
      <trkpt lat="44.07892" lon="7.7453">
        <ele>1316.5</ele>
      </trkpt>
      <trkpt lat="44.07876" lon="7.74453">
        <ele>1329.6</ele>
      </trkpt>
      <trkpt lat="44.07852" lon="7.74337">
        <ele>1338.2</ele>
      </trkpt>
      <trkpt lat="44.07843" lon="7.74229">
        <ele>1350.1</ele>
      </trkpt>
      <trkpt lat="44.07778" lon="7.74277">
        <ele>1345.8</ele>
      </trkpt>
      <trkpt lat="44.07707" lon="7.74332">
        <ele>1371.4</ele>
      </trkpt>
      <trkpt lat="44.07682" lon="7.74448">
        <ele>1362.1</ele>
      </trkpt>
      <trkpt lat="44.07654" lon="7.745">
        <ele>1374.7</ele>
      </trkpt>
      <trkpt lat="44.07614" lon="7.74581">
        <ele>1375.7</ele>
      </trkpt>
      <trkpt lat="44.07597" lon="7.74676">
        <ele>1375</ele>
      </trkpt>
      <trkpt lat="44.07561" lon="7.74596">
        <ele>1388.5</ele>
      </trkpt>
      <trkpt lat="44.07539" lon="7.74565">
        <ele>1396.2</ele>
      </trkpt>
      <trkpt lat="44.07574" lon="7.74492">
        <ele>1397.6</ele>
      </trkpt>
      <trkpt lat="44.07546" lon="7.7446">
        <ele>1407.8</ele>
      </trkpt>
      <trkpt lat="44.07572" lon="7.74404">
        <ele>1413.5</ele>
      </trkpt>
      <trkpt lat="44.07572" lon="7.74377">
        <ele>1419.5</ele>
      </trkpt>
      <trkpt lat="44.07529" lon="7.74384">
        <ele>1424.6</ele>
      </trkpt>
      <trkpt lat="44.07498" lon="7.74464">
        <ele>1429.5</ele>
      </trkpt>
      <trkpt lat="44.07471" lon="7.74509">
        <ele>1420.1</ele>
      </trkpt>
      <trkpt lat="44.07432" lon="7.74544">
        <ele>1424.3</ele>
      </trkpt>
      <trkpt lat="44.07381" lon="7.74587">
        <ele>1437.7</ele>
      </trkpt>
      <trkpt lat="44.07368" lon="7.74614">
        <ele>1440.3</ele>
      </trkpt>
      <trkpt lat="44.0737" lon="7.7467">
        <ele>1433.8</ele>
      </trkpt>
      <trkpt lat="44.07369" lon="7.74709">
        <ele>1431.9</ele>
      </trkpt>
      <trkpt lat="44.07345" lon="7.74722">
        <ele>1434.6</ele>
      </trkpt>
      <trkpt lat="44.07316" lon="7.74768">
        <ele>1443.3</ele>
      </trkpt>
      <trkpt lat="44.07293" lon="7.74743">
        <ele>1459.5</ele>
      </trkpt>
      <trkpt lat="44.0731" lon="7.74669">
        <ele>1458.7</ele>
      </trkpt>
      <trkpt lat="44.07313" lon="7.74648">
        <ele>1465.4</ele>
      </trkpt>
      <trkpt lat="44.07313" lon="7.74575">
        <ele>1475.1</ele>
      </trkpt>
      <trkpt lat="44.07324" lon="7.74516">
        <ele>1481.2</ele>
      </trkpt>
      <trkpt lat="44.07354" lon="7.7449">
        <ele>1473.3</ele>
      </trkpt>
      <trkpt lat="44.07375" lon="7.74448">
        <ele>1473.7</ele>
      </trkpt>
      <trkpt lat="44.07398" lon="7.74402">
        <ele>1483.2</ele>
      </trkpt>
      <trkpt lat="44.07376" lon="7.74408">
        <ele>1491</ele>
      </trkpt>
      <trkpt lat="44.07352" lon="7.74438">
        <ele>1482.1</ele>
      </trkpt>
      <trkpt lat="44.07306" lon="7.74499">
        <ele>1496.3</ele>
      </trkpt>
      <trkpt lat="44.07281" lon="7.74531">
        <ele>1489.5</ele>
      </trkpt>
      <trkpt lat="44.07255" lon="7.74577">
        <ele>1493.2</ele>
      </trkpt>
      <trkpt lat="44.07237" lon="7.74625">
        <ele>1496.9</ele>
      </trkpt>
      <trkpt lat="44.07213" lon="7.74643">
        <ele>1498</ele>
      </trkpt>
      <trkpt lat="44.07206" lon="7.74601">
        <ele>1501</ele>
      </trkpt>
      <trkpt lat="44.07219" lon="7.74582">
        <ele>1506.8</ele>
      </trkpt>
      <trkpt lat="44.0723" lon="7.74544">
        <ele>1509.1</ele>
      </trkpt>
      <trkpt lat="44.07217" lon="7.74538">
        <ele>1510.9</ele>
      </trkpt>
      <trkpt lat="44.07177" lon="7.74525">
        <ele>1516</ele>
      </trkpt>
      <trkpt lat="44.07163" lon="7.74543">
        <ele>1522</ele>
      </trkpt>
      <trkpt lat="44.07151" lon="7.74599">
        <ele>1512.8</ele>
      </trkpt>
      <trkpt lat="44.07126" lon="7.74612">
        <ele>1513.8</ele>
      </trkpt>
      <trkpt lat="44.07104" lon="7.74591">
        <ele>1517.2</ele>
      </trkpt>
      <trkpt lat="44.07095" lon="7.74542">
        <ele>1526</ele>
      </trkpt>
      <trkpt lat="44.07077" lon="7.74518">
        <ele>1539.2</ele>
      </trkpt>
      <trkpt lat="44.07066" lon="7.74482">
        <ele>1550.7</ele>
      </trkpt>
      <trkpt lat="44.07039" lon="7.74492">
        <ele>1555.9</ele>
      </trkpt>
      <trkpt lat="44.07029" lon="7.74537">
        <ele>1544.4</ele>
      </trkpt>
      <trkpt lat="44.07282" lon="7.74273">
        <ele>1545</ele>
      </trkpt>
      <trkpt lat="44.07289" lon="7.74176">
        <ele>1555.7</ele>
      </trkpt>
      <trkpt lat="44.07307" lon="7.74103">
        <ele>1564.6</ele>
      </trkpt>
      <trkpt lat="44.07325" lon="7.7405">
        <ele>1572.8</ele>
      </trkpt>
      <trkpt lat="44.07342" lon="7.73999">
        <ele>1560.3</ele>
      </trkpt>
      <trkpt lat="44.07322" lon="7.73951">
        <ele>1578.9</ele>
      </trkpt>
      <trkpt lat="44.07296" lon="7.73884">
        <ele>1582.3</ele>
      </trkpt>
      <trkpt lat="44.0727" lon="7.73812">
        <ele>1585.8</ele>
      </trkpt>
      <trkpt lat="44.07251" lon="7.73737">
        <ele>1588.1</ele>
      </trkpt>
      <trkpt lat="44.07264" lon="7.73681">
        <ele>1587.8</ele>
      </trkpt>
      <trkpt lat="44.0727" lon="7.73632">
        <ele>1587.9</ele>
      </trkpt>
      <trkpt lat="44.07267" lon="7.73572">
        <ele>1590.8</ele>
      </trkpt>
      <trkpt lat="44.07254" lon="7.73547">
        <ele>1589.2</ele>
      </trkpt>
      <trkpt lat="44.0725" lon="7.73601">
        <ele>1605.8</ele>
      </trkpt>
      <trkpt lat="44.07228" lon="7.73665">
        <ele>1605.5</ele>
      </trkpt>
      <trkpt lat="44.07224" lon="7.7358">
        <ele>1610.7</ele>
      </trkpt>
      <trkpt lat="44.07225" lon="7.73544">
        <ele>1611.9</ele>
      </trkpt>
      <trkpt lat="44.07215" lon="7.735">
        <ele>1610.9</ele>
      </trkpt>
      <trkpt lat="44.07191" lon="7.73557">
        <ele>1617.7</ele>
      </trkpt>
      <trkpt lat="44.07159" lon="7.73629">
        <ele>1639.8</ele>
      </trkpt>
      <trkpt lat="44.07153" lon="7.73574">
        <ele>1636.1</ele>
      </trkpt>
      <trkpt lat="44.07162" lon="7.73514">
        <ele>1637.1</ele>
      </trkpt>
      <trkpt lat="44.07159" lon="7.73475">
        <ele>1638.2</ele>
      </trkpt>
      <trkpt lat="44.07136" lon="7.73478">
        <ele>1641.6</ele>
      </trkpt>
      <trkpt lat="44.07114" lon="7.73451">
        <ele>1645.5</ele>
      </trkpt>
      <trkpt lat="44.07131" lon="7.73403">
        <ele>1638.7</ele>
      </trkpt>
      <trkpt lat="44.07103" lon="7.73388">
        <ele>1644.7</ele>
      </trkpt>
      <trkpt lat="44.0706" lon="7.73313">
        <ele>1657.4</ele>
      </trkpt>
      <trkpt lat="44.07019" lon="7.73277">
        <ele>1660.2</ele>
      </trkpt>
      <trkpt lat="44.06972" lon="7.73255">
        <ele>1677</ele>
      </trkpt>
      <trkpt lat="44.06948" lon="7.73188">
        <ele>1678</ele>
      </trkpt>
      <trkpt lat="44.06966" lon="7.73123">
        <ele>1678.7</ele>
      </trkpt>
      <trkpt lat="44.06982" lon="7.73088">
        <ele>1677.1</ele>
      </trkpt>
      <trkpt lat="44.06988" lon="7.73046">
        <ele>1688.9</ele>
      </trkpt>
      <trkpt lat="44.06999" lon="7.72997">
        <ele>1694.1</ele>
      </trkpt>
      <trkpt lat="44.07039" lon="7.72972">
        <ele>1690.4</ele>
      </trkpt>
      <trkpt lat="44.07076" lon="7.72946">
        <ele>1689.5</ele>
      </trkpt>
      <trkpt lat="44.0708" lon="7.72902">
        <ele>1699.2</ele>
      </trkpt>
      <trkpt lat="44.07094" lon="7.72808">
        <ele>1700.8</ele>
      </trkpt>
      <trkpt lat="44.07125" lon="7.72752">
        <ele>1700.6</ele>
      </trkpt>
      <trkpt lat="44.07125" lon="7.72655">
        <ele>1718.3</ele>
      </trkpt>
      <trkpt lat="44.07127" lon="7.72562">
        <ele>1726.6</ele>
      </trkpt>
      <trkpt lat="44.07116" lon="7.72501">
        <ele>1732.6</ele>
      </trkpt>
      <trkpt lat="44.07126" lon="7.72444">
        <ele>1736.3</ele>
      </trkpt>
      <trkpt lat="44.07148" lon="7.72397">
        <ele>1735.9</ele>
      </trkpt>
      <trkpt lat="44.07141" lon="7.72309">
        <ele>1744.9</ele>
      </trkpt>
      <trkpt lat="44.07117" lon="7.72281">
        <ele>1749.9</ele>
      </trkpt>
      <trkpt lat="44.07108" lon="7.72365">
        <ele>1745.1</ele>
      </trkpt>
      <trkpt lat="44.07079" lon="7.72409">
        <ele>1761.4</ele>
      </trkpt>
      <trkpt lat="44.07074" lon="7.72323">
        <ele>1764.7</ele>
      </trkpt>
      <trkpt lat="44.07068" lon="7.72266">
        <ele>1767.1</ele>
      </trkpt>
      <trkpt lat="44.0704" lon="7.72206">
        <ele>1773.7</ele>
      </trkpt>
      <trkpt lat="44.0702" lon="7.72162">
        <ele>1785</ele>
      </trkpt>
      <trkpt lat="44.07028" lon="7.72117">
        <ele>1788.6</ele>
      </trkpt>
      <trkpt lat="44.07068" lon="7.72137">
        <ele>1782.8</ele>
      </trkpt>
      <trkpt lat="44.07105" lon="7.7214">
        <ele>1782.4</ele>
      </trkpt>
      <trkpt lat="44.07143" lon="7.7212">
        <ele>1788.7</ele>
      </trkpt>
      <trkpt lat="44.07207" lon="7.72131">
        <ele>1795.9</ele>
      </trkpt>
      <trkpt lat="44.07284" lon="7.72166">
        <ele>1806.2</ele>
      </trkpt>
      <trkpt lat="44.07353" lon="7.72176">
        <ele>1803.5</ele>
      </trkpt>
      <trkpt lat="44.07406" lon="7.72176">
        <ele>1811.9</ele>
      </trkpt>
      <trkpt lat="44.07475" lon="7.72167">
        <ele>1819</ele>
      </trkpt>
      <trkpt lat="44.07523" lon="7.72174">
        <ele>1825</ele>
      </trkpt>
      <trkpt lat="44.07551" lon="7.72212">
        <ele>1821.8</ele>
      </trkpt>
      <trkpt lat="44.07595" lon="7.72177">
        <ele>1830.6</ele>
      </trkpt>
      <trkpt lat="44.07632" lon="7.72104">
        <ele>1842.2</ele>
      </trkpt>
      <trkpt lat="44.0766" lon="7.72075">
        <ele>1849</ele>
      </trkpt>
      <trkpt lat="44.07688" lon="7.72089">
        <ele>1844.4</ele>
      </trkpt>
      <trkpt lat="44.07703" lon="7.72137">
        <ele>1842.6</ele>
      </trkpt>
      <trkpt lat="44.07711" lon="7.72168">
        <ele>1834.5</ele>
      </trkpt>
      <trkpt lat="44.07759" lon="7.7219">
        <ele>1841.6</ele>
      </trkpt>
      <trkpt lat="44.0778" lon="7.72214">
        <ele>1840.4</ele>
      </trkpt>
      <trkpt lat="44.07828" lon="7.72226">
        <ele>1841.5</ele>
      </trkpt>
      <trkpt lat="44.07857" lon="7.72256">
        <ele>1846.9</ele>
      </trkpt>
      <trkpt lat="44.07863" lon="7.72278">
        <ele>1848.4</ele>
      </trkpt>
      <trkpt lat="44.07876" lon="7.72381">
        <ele>1841.5</ele>
      </trkpt>
      <trkpt lat="44.07899" lon="7.72452">
        <ele>1834.1</ele>
      </trkpt>
      <trkpt lat="44.07918" lon="7.72507">
        <ele>1840.8</ele>
      </trkpt>
      <trkpt lat="44.07936" lon="7.72564">
        <ele>1839.1</ele>
      </trkpt>
      <trkpt lat="44.07957" lon="7.72586">
        <ele>1834.1</ele>
      </trkpt>
      <trkpt lat="44.07969" lon="7.72661">
        <ele>1833.4</ele>
      </trkpt>
      <trkpt lat="44.07982" lon="7.72751">
        <ele>1820.4</ele>
      </trkpt>
      <trkpt lat="44.08013" lon="7.72779">
        <ele>1832.4</ele>
      </trkpt>
      <trkpt lat="44.0808" lon="7.72813">
        <ele>1831.8</ele>
      </trkpt>
      <trkpt lat="44.08112" lon="7.7284">
        <ele>1829.6</ele>
      </trkpt>
      <trkpt lat="44.08147" lon="7.72879">
        <ele>1831.3</ele>
      </trkpt>
      <trkpt lat="44.08167" lon="7.729">
        <ele>1831.4</ele>
      </trkpt>
      <trkpt lat="44.08189" lon="7.72958">
        <ele>1838.7</ele>
      </trkpt>
      <trkpt lat="44.08212" lon="7.73007">
        <ele>1823.6</ele>
      </trkpt>
      <trkpt lat="44.08227" lon="7.7303">
        <ele>1825.3</ele>
      </trkpt>
      <trkpt lat="44.0825" lon="7.73092">
        <ele>1831.7</ele>
      </trkpt>
      <trkpt lat="44.08283" lon="7.73133">
        <ele>1837.2</ele>
      </trkpt>
      <trkpt lat="44.08305" lon="7.73176">
        <ele>1826.1</ele>
      </trkpt>
      <trkpt lat="44.08326" lon="7.73234">
        <ele>1824.5</ele>
      </trkpt>
      <trkpt lat="44.08339" lon="7.73281">
        <ele>1821.9</ele>
      </trkpt>
      <trkpt lat="44.0835" lon="7.73294">
        <ele>1819.9</ele>
      </trkpt>
      <trkpt lat="44.08381" lon="7.73258">
        <ele>1821.5</ele>
      </trkpt>
      <trkpt lat="44.08424" lon="7.73207">
        <ele>1828.4</ele>
      </trkpt>
      <trkpt lat="44.08455" lon="7.73173">
        <ele>1828.5</ele>
      </trkpt>
      <trkpt lat="44.08491" lon="7.73113">
        <ele>1839.3</ele>
      </trkpt>
      <trkpt lat="44.08517" lon="7.73066">
        <ele>1830.8</ele>
      </trkpt>
      <trkpt lat="44.08536" lon="7.73022">
        <ele>1831.4</ele>
      </trkpt>
      <trkpt lat="44.08566" lon="7.72975">
        <ele>1840.2</ele>
      </trkpt>
      <trkpt lat="44.08606" lon="7.72956">
        <ele>1826.5</ele>
      </trkpt>
      <trkpt lat="44.0864" lon="7.72939">
        <ele>1823.9</ele>
      </trkpt>
      <trkpt lat="44.08675" lon="7.72875">
        <ele>1819.4</ele>
      </trkpt>
      <trkpt lat="44.08704" lon="7.72823">
        <ele>1828.5</ele>
      </trkpt>
      <trkpt lat="44.08739" lon="7.72758">
        <ele>1823.9</ele>
      </trkpt>
      <trkpt lat="44.0875" lon="7.72731">
        <ele>1832.3</ele>
      </trkpt>
      <trkpt lat="44.08764" lon="7.72656">
        <ele>1829.3</ele>
      </trkpt>
      <trkpt lat="44.08784" lon="7.72583">
        <ele>1832.8</ele>
      </trkpt>
      <trkpt lat="44.08799" lon="7.72488">
        <ele>1833.7</ele>
      </trkpt>
      <trkpt lat="44.08807" lon="7.72411">
        <ele>1835.1</ele>
      </trkpt>
      <trkpt lat="44.08818" lon="7.72295">
        <ele>1843.1</ele>
      </trkpt>
      <trkpt lat="44.08839" lon="7.72266">
        <ele>1827.4</ele>
      </trkpt>
      <trkpt lat="44.08881" lon="7.72252">
        <ele>1823.8</ele>
      </trkpt>
      <trkpt lat="44.08924" lon="7.72247">
        <ele>1826.1</ele>
      </trkpt>
      <trkpt lat="44.08947" lon="7.72233">
        <ele>1823.9</ele>
      </trkpt>
      <trkpt lat="44.08957" lon="7.72183">
        <ele>1825.6</ele>
      </trkpt>
      <trkpt lat="44.08982" lon="7.72163">
        <ele>1827.1</ele>
      </trkpt>
      <trkpt lat="44.08982" lon="7.72087">
        <ele>1829.7</ele>
      </trkpt>
      <trkpt lat="44.09003" lon="7.72025">
        <ele>1833.3</ele>
      </trkpt>
      <trkpt lat="44.09015" lon="7.72008">
        <ele>1834.5</ele>
      </trkpt>
      <trkpt lat="44.09065" lon="7.72035">
        <ele>1833.2</ele>
      </trkpt>
      <trkpt lat="44.09115" lon="7.72059">
        <ele>1835.2</ele>
      </trkpt>
      <trkpt lat="44.09155" lon="7.72083">
        <ele>1833</ele>
      </trkpt>
      <trkpt lat="44.09199" lon="7.7208">
        <ele>1847.9</ele>
      </trkpt>
      <trkpt lat="44.09257" lon="7.72095">
        <ele>1844</ele>
      </trkpt>
      <trkpt lat="44.09275" lon="7.72118">
        <ele>1839.7</ele>
      </trkpt>
      <trkpt lat="44.09309" lon="7.72165">
        <ele>1836.9</ele>
      </trkpt>
      <trkpt lat="44.09361" lon="7.72196">
        <ele>1820.3</ele>
      </trkpt>
      <trkpt lat="44.09421" lon="7.72177">
        <ele>1833.8</ele>
      </trkpt>
      <trkpt lat="44.09498" lon="7.72237">
        <ele>1829.8</ele>
      </trkpt>
      <trkpt lat="44.09534" lon="7.72271">
        <ele>1823.6</ele>
      </trkpt>
      <trkpt lat="44.09601" lon="7.7226">
        <ele>1820.6</ele>
      </trkpt>
      <trkpt lat="44.09604" lon="7.72235">
        <ele>1823.7</ele>
      </trkpt>
      <trkpt lat="44.09604" lon="7.72181">
        <ele>1827.1</ele>
      </trkpt>
      <trkpt lat="44.09594" lon="7.72144">
        <ele>1835</ele>
      </trkpt>
      <trkpt lat="44.09613" lon="7.72062">
        <ele>1844.6</ele>
      </trkpt>
      <trkpt lat="44.09615" lon="7.72019">
        <ele>1848.3</ele>
      </trkpt>
      <trkpt lat="44.09644" lon="7.71949">
        <ele>1855.5</ele>
      </trkpt>
      <trkpt lat="44.09659" lon="7.71917">
        <ele>1853.2</ele>
      </trkpt>
      <trkpt lat="44.09663" lon="7.71828">
        <ele>1865.1</ele>
      </trkpt>
      <trkpt lat="44.09667" lon="7.71753">
        <ele>1870.1</ele>
      </trkpt>
      <trkpt lat="44.09659" lon="7.71713">
        <ele>1882.8</ele>
      </trkpt>
      <trkpt lat="44.09699" lon="7.71644">
        <ele>1870.5</ele>
      </trkpt>
      <trkpt lat="44.09734" lon="7.7159">
        <ele>1869.2</ele>
      </trkpt>
      <trkpt lat="44.09772" lon="7.71549">
        <ele>1875.9</ele>
      </trkpt>
      <trkpt lat="44.09804" lon="7.71563">
        <ele>1875.1</ele>
      </trkpt>
      <trkpt lat="44.09836" lon="7.71616">
        <ele>1868.8</ele>
      </trkpt>
      <trkpt lat="44.09882" lon="7.71661">
        <ele>1870.3</ele>
      </trkpt>
      <trkpt lat="44.099" lon="7.71697">
        <ele>1856.1</ele>
      </trkpt>
      <trkpt lat="44.09936" lon="7.71746">
        <ele>1863</ele>
      </trkpt>
      <trkpt lat="44.0997" lon="7.71751">
        <ele>1855.3</ele>
      </trkpt>
      <trkpt lat="44.10023" lon="7.71789">
        <ele>1865.9</ele>
      </trkpt>
      <trkpt lat="44.10085" lon="7.71854">
        <ele>1863.5</ele>
      </trkpt>
      <trkpt lat="44.1012" lon="7.71897">
        <ele>1858.9</ele>
      </trkpt>
      <trkpt lat="44.10153" lon="7.71904">
        <ele>1858</ele>
      </trkpt>
      <trkpt lat="44.10192" lon="7.71882">
        <ele>1860.1</ele>
      </trkpt>
      <trkpt lat="44.10227" lon="7.71841">
        <ele>1863.2</ele>
      </trkpt>
      <trkpt lat="44.1028" lon="7.71852">
        <ele>1857.6</ele>
      </trkpt>
      <trkpt lat="44.103" lon="7.71825">
        <ele>1858.9</ele>
      </trkpt>
      <trkpt lat="44.103" lon="7.71723">
        <ele>1846.3</ele>
      </trkpt>
      <trkpt lat="44.10266" lon="7.7171">
        <ele>1851.7</ele>
      </trkpt>
      <trkpt lat="44.10233" lon="7.71678">
        <ele>1868.5</ele>
      </trkpt>
      <trkpt lat="44.102" lon="7.71665">
        <ele>1874.1</ele>
      </trkpt>
      <trkpt lat="44.10173" lon="7.71608">
        <ele>1877.5</ele>
      </trkpt>
      <trkpt lat="44.10164" lon="7.71541">
        <ele>1908.3</ele>
      </trkpt>
      <trkpt lat="44.10202" lon="7.71469">
        <ele>1882.1</ele>
      </trkpt>
      <trkpt lat="44.10214" lon="7.71419">
        <ele>1880.3</ele>
      </trkpt>
      <trkpt lat="44.10211" lon="7.71327">
        <ele>1901</ele>
      </trkpt>
      <trkpt lat="44.10209" lon="7.71293">
        <ele>1904</ele>
      </trkpt>
      <trkpt lat="44.10232" lon="7.71223">
        <ele>1907.6</ele>
      </trkpt>
      <trkpt lat="44.10257" lon="7.71122">
        <ele>1901.2</ele>
      </trkpt>
      <trkpt lat="44.10254" lon="7.7105">
        <ele>1911.5</ele>
      </trkpt>
      <trkpt lat="44.10257" lon="7.70975">
        <ele>1920.4</ele>
      </trkpt>
      <trkpt lat="44.10265" lon="7.70954">
        <ele>1921.5</ele>
      </trkpt>
      <trkpt lat="44.10317" lon="7.70927">
        <ele>1921.8</ele>
      </trkpt>
      <trkpt lat="44.10343" lon="7.70958">
        <ele>1920.5</ele>
      </trkpt>
      <trkpt lat="44.10409" lon="7.70977">
        <ele>1919.3</ele>
      </trkpt>
      <trkpt lat="44.10451" lon="7.70987">
        <ele>1928.5</ele>
      </trkpt>
      <trkpt lat="44.10472" lon="7.71022">
        <ele>1908.1</ele>
      </trkpt>
      <trkpt lat="44.10507" lon="7.71041">
        <ele>1900.3</ele>
      </trkpt>
      <trkpt lat="44.10556" lon="7.71022">
        <ele>1897.6</ele>
      </trkpt>
      <trkpt lat="44.10579" lon="7.70967">
        <ele>1917.4</ele>
      </trkpt>
      <trkpt lat="44.10622" lon="7.70923">
        <ele>1898.1</ele>
      </trkpt>
      <trkpt lat="44.10662" lon="7.70862">
        <ele>1911.5</ele>
      </trkpt>
      <trkpt lat="44.10679" lon="7.70821">
        <ele>1903.7</ele>
      </trkpt>
      <trkpt lat="44.10703" lon="7.70775">
        <ele>1900.1</ele>
      </trkpt>
      <trkpt lat="44.10728" lon="7.70728">
        <ele>1904.5</ele>
      </trkpt>
      <trkpt lat="44.10737" lon="7.70679">
        <ele>1905.8</ele>
      </trkpt>
      <trkpt lat="44.10758" lon="7.7062">
        <ele>1894.5</ele>
      </trkpt>
      <trkpt lat="44.10796" lon="7.70539">
        <ele>1903.7</ele>
      </trkpt>
      <trkpt lat="44.10813" lon="7.70475">
        <ele>1912.6</ele>
      </trkpt>
      <trkpt lat="44.10813" lon="7.70419">
        <ele>1915.1</ele>
      </trkpt>
      <trkpt lat="44.10863" lon="7.70395">
        <ele>1906.4</ele>
      </trkpt>
      <trkpt lat="44.10898" lon="7.70374">
        <ele>1904.9</ele>
      </trkpt>
      <trkpt lat="44.10924" lon="7.70361">
        <ele>1899.4</ele>
      </trkpt>
      <trkpt lat="44.10946" lon="7.70338">
        <ele>1899.9</ele>
      </trkpt>
      <trkpt lat="44.10976" lon="7.70333">
        <ele>1904.3</ele>
      </trkpt>
      <trkpt lat="44.10999" lon="7.70337">
        <ele>1899.7</ele>
      </trkpt>
      <trkpt lat="44.11027" lon="7.70349">
        <ele>1900</ele>
      </trkpt>
      <trkpt lat="44.11052" lon="7.70354">
        <ele>1901.3</ele>
      </trkpt>
      <trkpt lat="44.11062" lon="7.70355">
        <ele>1902.2</ele>
      </trkpt>
      <trkpt lat="44.11122" lon="7.7039">
        <ele>1908.1</ele>
      </trkpt>
      <trkpt lat="44.11164" lon="7.704">
        <ele>1908.1</ele>
      </trkpt>
      <trkpt lat="44.11193" lon="7.70428">
        <ele>1902.4</ele>
      </trkpt>
      <trkpt lat="44.1121" lon="7.70463">
        <ele>1899.9</ele>
      </trkpt>
      <trkpt lat="44.11233" lon="7.70497">
        <ele>1899.4</ele>
      </trkpt>
      <trkpt lat="44.1127" lon="7.70499">
        <ele>1897.6</ele>
      </trkpt>
      <trkpt lat="44.11298" lon="7.70445">
        <ele>1897.4</ele>
      </trkpt>
      <trkpt lat="44.11322" lon="7.70385">
        <ele>1907.9</ele>
      </trkpt>
      <trkpt lat="44.11364" lon="7.70287">
        <ele>1903.9</ele>
      </trkpt>
      <trkpt lat="44.11388" lon="7.70227">
        <ele>1909.9</ele>
      </trkpt>
      <trkpt lat="44.1141" lon="7.70188">
        <ele>1910.6</ele>
      </trkpt>
      <trkpt lat="44.11432" lon="7.70162">
        <ele>1901.8</ele>
      </trkpt>
      <trkpt lat="44.11458" lon="7.70145">
        <ele>1894.9</ele>
      </trkpt>
      <trkpt lat="44.11458" lon="7.70085">
        <ele>1896.8</ele>
      </trkpt>
      <trkpt lat="44.11442" lon="7.70012">
        <ele>1908.1</ele>
      </trkpt>
      <trkpt lat="44.11472" lon="7.69993">
        <ele>1907.1</ele>
      </trkpt>
      <trkpt lat="44.11506" lon="7.69918">
        <ele>1900.5</ele>
      </trkpt>
      <trkpt lat="44.11544" lon="7.69827">
        <ele>1911.4</ele>
      </trkpt>
      <trkpt lat="44.11581" lon="7.69804">
        <ele>1910.2</ele>
      </trkpt>
      <trkpt lat="44.11601" lon="7.69838">
        <ele>1896.8</ele>
      </trkpt>
      <trkpt lat="44.11623" lon="7.69881">
        <ele>1892.8</ele>
      </trkpt>
      <trkpt lat="44.1165" lon="7.69862">
        <ele>1894.3</ele>
      </trkpt>
      <trkpt lat="44.11669" lon="7.6983">
        <ele>1900</ele>
      </trkpt>
      <trkpt lat="44.11695" lon="7.69823">
        <ele>1902.9</ele>
      </trkpt>
      <trkpt lat="44.11717" lon="7.69787">
        <ele>1906</ele>
      </trkpt>
      <trkpt lat="44.1174" lon="7.69752">
        <ele>1911.1</ele>
      </trkpt>
      <trkpt lat="44.11772" lon="7.69782">
        <ele>1914.1</ele>
      </trkpt>
      <trkpt lat="44.11806" lon="7.69836">
        <ele>1905.5</ele>
      </trkpt>
      <trkpt lat="44.11811" lon="7.69903">
        <ele>1900.6</ele>
      </trkpt>
      <trkpt lat="44.11817" lon="7.69986">
        <ele>1892.6</ele>
      </trkpt>
      <trkpt lat="44.11849" lon="7.69986">
        <ele>1897.4</ele>
      </trkpt>
      <trkpt lat="44.11863" lon="7.69892">
        <ele>1907.2</ele>
      </trkpt>
      <trkpt lat="44.11886" lon="7.69821">
        <ele>1920</ele>
      </trkpt>
      <trkpt lat="44.11929" lon="7.69797">
        <ele>1913.8</ele>
      </trkpt>
      <trkpt lat="44.11968" lon="7.69752">
        <ele>1912.8</ele>
      </trkpt>
      <trkpt lat="44.11991" lon="7.69692">
        <ele>1920.5</ele>
      </trkpt>
      <trkpt lat="44.12012" lon="7.69634">
        <ele>1910.7</ele>
      </trkpt>
      <trkpt lat="44.12014" lon="7.69596">
        <ele>1914.9</ele>
      </trkpt>
      <trkpt lat="44.12012" lon="7.69514">
        <ele>1921.3</ele>
      </trkpt>
      <trkpt lat="44.12035" lon="7.69491">
        <ele>1916.4</ele>
      </trkpt>
      <trkpt lat="44.12035" lon="7.69426">
        <ele>1917</ele>
      </trkpt>
      <trkpt lat="44.12035" lon="7.69345">
        <ele>1919.9</ele>
      </trkpt>
      <trkpt lat="44.12043" lon="7.69254">
        <ele>1928</ele>
      </trkpt>
      <trkpt lat="44.12068" lon="7.69216">
        <ele>1933.3</ele>
      </trkpt>
      <trkpt lat="44.12072" lon="7.69158">
        <ele>1940.7</ele>
      </trkpt>
      <trkpt lat="44.12091" lon="7.69113">
        <ele>1935.9</ele>
      </trkpt>
      <trkpt lat="44.1212" lon="7.69121">
        <ele>1931.8</ele>
      </trkpt>
      <trkpt lat="44.12142" lon="7.69126">
        <ele>1929.5</ele>
      </trkpt>
      <trkpt lat="44.12177" lon="7.69124">
        <ele>1920.8</ele>
      </trkpt>
      <trkpt lat="44.12194" lon="7.69091">
        <ele>1923.2</ele>
      </trkpt>
      <trkpt lat="44.12199" lon="7.69046">
        <ele>1932.5</ele>
      </trkpt>
      <trkpt lat="44.12222" lon="7.69014">
        <ele>1934.7</ele>
      </trkpt>
      <trkpt lat="44.1225" lon="7.69015">
        <ele>1938.9</ele>
      </trkpt>
      <trkpt lat="44.12261" lon="7.69024">
        <ele>1938.3</ele>
      </trkpt>
      <trkpt lat="44.12283" lon="7.6905">
        <ele>1935.7</ele>
      </trkpt>
      <trkpt lat="44.1232" lon="7.69043">
        <ele>1940.1</ele>
      </trkpt>
      <trkpt lat="44.12362" lon="7.69058">
        <ele>1949.9</ele>
      </trkpt>
      <trkpt lat="44.12404" lon="7.69047">
        <ele>1957.3</ele>
      </trkpt>
      <trkpt lat="44.1245" lon="7.69086">
        <ele>1943.9</ele>
      </trkpt>
      <trkpt lat="44.12485" lon="7.69144">
        <ele>1941.5</ele>
      </trkpt>
      <trkpt lat="44.12504" lon="7.69208">
        <ele>1934.8</ele>
      </trkpt>
      <trkpt lat="44.12545" lon="7.6923">
        <ele>1934.6</ele>
      </trkpt>
      <trkpt lat="44.12605" lon="7.69198">
        <ele>1942.4</ele>
      </trkpt>
      <trkpt lat="44.1267" lon="7.69163">
        <ele>1947.9</ele>
      </trkpt>
      <trkpt lat="44.12716" lon="7.69125">
        <ele>1951.5</ele>
      </trkpt>
      <trkpt lat="44.12764" lon="7.69103">
        <ele>1946.2</ele>
      </trkpt>
      <trkpt lat="44.12809" lon="7.69067">
        <ele>1951.9</ele>
      </trkpt>
      <trkpt lat="44.12835" lon="7.69013">
        <ele>1947.8</ele>
      </trkpt>
      <trkpt lat="44.12844" lon="7.6894">
        <ele>1947.6</ele>
      </trkpt>
      <trkpt lat="44.12838" lon="7.68876">
        <ele>1943</ele>
      </trkpt>
      <trkpt lat="44.12819" lon="7.68796">
        <ele>1970</ele>
      </trkpt>
      <trkpt lat="44.12819" lon="7.68732">
        <ele>1968.3</ele>
      </trkpt>
      <trkpt lat="44.12836" lon="7.68685">
        <ele>1940.3</ele>
      </trkpt>
      <trkpt lat="44.1283" lon="7.68625">
        <ele>1957.6</ele>
      </trkpt>
      <trkpt lat="44.12809" lon="7.68571">
        <ele>1945.1</ele>
      </trkpt>
      <trkpt lat="44.12761" lon="7.68562">
        <ele>1958.8</ele>
      </trkpt>
      <trkpt lat="44.12739" lon="7.68505">
        <ele>1969.4</ele>
      </trkpt>
      <trkpt lat="44.12709" lon="7.68438">
        <ele>1971.5</ele>
      </trkpt>
      <trkpt lat="44.12687" lon="7.68372">
        <ele>1969.2</ele>
      </trkpt>
      <trkpt lat="44.12661" lon="7.6832">
        <ele>1987.8</ele>
      </trkpt>
      <trkpt lat="44.12662" lon="7.68262">
        <ele>1984</ele>
      </trkpt>
      <trkpt lat="44.12664" lon="7.68213">
        <ele>1987</ele>
      </trkpt>
      <trkpt lat="44.1267" lon="7.68172">
        <ele>1968.5</ele>
      </trkpt>
      <trkpt lat="44.12689" lon="7.68146">
        <ele>1962.3</ele>
      </trkpt>
      <trkpt lat="44.1267" lon="7.68088">
        <ele>1964.7</ele>
      </trkpt>
      <trkpt lat="44.12659" lon="7.68039">
        <ele>1979.4</ele>
      </trkpt>
      <trkpt lat="44.12681" lon="7.67994">
        <ele>1981.8</ele>
      </trkpt>
      <trkpt lat="44.12715" lon="7.67985">
        <ele>1985.7</ele>
      </trkpt>
      <trkpt lat="44.12769" lon="7.68007">
        <ele>1970</ele>
      </trkpt>
      <trkpt lat="44.12799" lon="7.68015">
        <ele>1965.6</ele>
      </trkpt>
      <trkpt lat="44.12821" lon="7.68">
        <ele>1966.6</ele>
      </trkpt>
      <trkpt lat="44.12847" lon="7.68">
        <ele>1965.5</ele>
      </trkpt>
      <trkpt lat="44.1286" lon="7.68041">
        <ele>1961.4</ele>
      </trkpt>
      <trkpt lat="44.129" lon="7.68032">
        <ele>1963</ele>
      </trkpt>
      <trkpt lat="44.12926" lon="7.68">
        <ele>1970.8</ele>
      </trkpt>
      <trkpt lat="44.12946" lon="7.67968">
        <ele>1991.8</ele>
      </trkpt>
      <trkpt lat="44.12981" lon="7.6797">
        <ele>1996.6</ele>
      </trkpt>
      <trkpt lat="44.13012" lon="7.68022">
        <ele>1990.9</ele>
      </trkpt>
      <trkpt lat="44.13049" lon="7.68097">
        <ele>1965.5</ele>
      </trkpt>
      <trkpt lat="44.13072" lon="7.68144">
        <ele>1958.3</ele>
      </trkpt>
      <trkpt lat="44.13111" lon="7.68178">
        <ele>1947.3</ele>
      </trkpt>
      <trkpt lat="44.13132" lon="7.68138">
        <ele>1971.4</ele>
      </trkpt>
      <trkpt lat="44.13163" lon="7.68123">
        <ele>1973.8</ele>
      </trkpt>
      <trkpt lat="44.13181" lon="7.68073">
        <ele>1976</ele>
      </trkpt>
      <trkpt lat="44.13185" lon="7.67987">
        <ele>1985.6</ele>
      </trkpt>
      <trkpt lat="44.13221" lon="7.67917">
        <ele>1991.1</ele>
      </trkpt>
      <trkpt lat="44.13255" lon="7.6785">
        <ele>1980.9</ele>
      </trkpt>
      <trkpt lat="44.13285" lon="7.6782">
        <ele>1987.9</ele>
      </trkpt>
      <trkpt lat="44.13317" lon="7.67809">
        <ele>1982.9</ele>
      </trkpt>
      <trkpt lat="44.13342" lon="7.67792">
        <ele>1961.4</ele>
      </trkpt>
      <trkpt lat="44.13343" lon="7.67745">
        <ele>1976.9</ele>
      </trkpt>
      <trkpt lat="44.13342" lon="7.67687">
        <ele>1977.4</ele>
      </trkpt>
      <trkpt lat="44.13357" lon="7.67629">
        <ele>1980.6</ele>
      </trkpt>
      <trkpt lat="44.13362" lon="7.67578">
        <ele>1990.2</ele>
      </trkpt>
      <trkpt lat="44.13369" lon="7.6752">
        <ele>1992.1</ele>
      </trkpt>
      <trkpt lat="44.13382" lon="7.67494">
        <ele>1997.9</ele>
      </trkpt>
      <trkpt lat="44.13374" lon="7.67449">
        <ele>2003.6</ele>
      </trkpt>
      <trkpt lat="44.13385" lon="7.67423">
        <ele>2001.6</ele>
      </trkpt>
      <trkpt lat="44.13417" lon="7.67395">
        <ele>1996.5</ele>
      </trkpt>
      <trkpt lat="44.13445" lon="7.6735">
        <ele>2003.9</ele>
      </trkpt>
      <trkpt lat="44.13468" lon="7.67324">
        <ele>2017.7</ele>
      </trkpt>
      <trkpt lat="44.13493" lon="7.67352">
        <ele>2007.1</ele>
      </trkpt>
      <trkpt lat="44.13526" lon="7.67389">
        <ele>2016.1</ele>
      </trkpt>
      <trkpt lat="44.13576" lon="7.67417">
        <ele>2021</ele>
      </trkpt>
      <trkpt lat="44.13611" lon="7.67434">
        <ele>2027.1</ele>
      </trkpt>
      <trkpt lat="44.13637" lon="7.6746">
        <ele>2030.2</ele>
      </trkpt>
      <trkpt lat="44.1365" lon="7.67492">
        <ele>2030.5</ele>
      </trkpt>
      <trkpt lat="44.13668" lon="7.67509">
        <ele>2041.5</ele>
      </trkpt>
      <trkpt lat="44.13671" lon="7.67554">
        <ele>2041.9</ele>
      </trkpt>
      <trkpt lat="44.13693" lon="7.67593">
        <ele>2030</ele>
      </trkpt>
      <trkpt lat="44.13722" lon="7.67633">
        <ele>2035.4</ele>
      </trkpt>
      <trkpt lat="44.13742" lon="7.67672">
        <ele>2034.8</ele>
      </trkpt>
      <trkpt lat="44.1376" lon="7.67723">
        <ele>2039.1</ele>
      </trkpt>
      <trkpt lat="44.13791" lon="7.67713">
        <ele>2042.9</ele>
      </trkpt>
      <trkpt lat="44.1385" lon="7.67672">
        <ele>2056.4</ele>
      </trkpt>
      <trkpt lat="44.13893" lon="7.67653">
        <ele>2072.6</ele>
      </trkpt>
      <trkpt lat="44.13933" lon="7.6764">
        <ele>2079.1</ele>
      </trkpt>
      <trkpt lat="44.13965" lon="7.67663">
        <ele>2080.5</ele>
      </trkpt>
      <trkpt lat="44.14016" lon="7.67696">
        <ele>2073</ele>
      </trkpt>
      <trkpt lat="44.14062" lon="7.67713">
        <ele>2073.8</ele>
      </trkpt>
      <trkpt lat="44.14119" lon="7.67696">
        <ele>2080.7</ele>
      </trkpt>
      <trkpt lat="44.14196" lon="7.67689">
        <ele>2079.1</ele>
      </trkpt>
      <trkpt lat="44.14247" lon="7.67698">
        <ele>2078.3</ele>
      </trkpt>
      <trkpt lat="44.14304" lon="7.67721">
        <ele>2087.6</ele>
      </trkpt>
      <trkpt lat="44.14332" lon="7.67745">
        <ele>2093.3</ele>
      </trkpt>
      <trkpt lat="44.1437" lon="7.67794">
        <ele>2106.2</ele>
      </trkpt>
      <trkpt lat="44.14396" lon="7.67857">
        <ele>2103.9</ele>
      </trkpt>
      <trkpt lat="44.14403" lon="7.67923">
        <ele>2102.6</ele>
      </trkpt>
      <trkpt lat="44.1442" lon="7.6799">
        <ele>2119.8</ele>
      </trkpt>
      <trkpt lat="44.14423" lon="7.68039">
        <ele>2124.5</ele>
      </trkpt>
      <trkpt lat="44.14432" lon="7.68086">
        <ele>2119.7</ele>
      </trkpt>
      <trkpt lat="44.14429" lon="7.68153">
        <ele>2125.4</ele>
      </trkpt>
      <trkpt lat="44.14421" lon="7.682">
        <ele>2131.6</ele>
      </trkpt>
      <trkpt lat="44.14441" lon="7.68251">
        <ele>2130.3</ele>
      </trkpt>
      <trkpt lat="44.14449" lon="7.68305">
        <ele>2133.9</ele>
      </trkpt>
      <trkpt lat="44.14467" lon="7.68339">
        <ele>2136.5</ele>
      </trkpt>
      <trkpt lat="44.14478" lon="7.68414">
        <ele>2139.2</ele>
      </trkpt>
      <trkpt lat="44.14477" lon="7.68483">
        <ele>2126.5</ele>
      </trkpt>
      <trkpt lat="44.14493" lon="7.6852">
        <ele>2128.4</ele>
      </trkpt>
      <trkpt lat="44.14506" lon="7.68571">
        <ele>2155</ele>
      </trkpt>
      <trkpt lat="44.14492" lon="7.68618">
        <ele>2122.6</ele>
      </trkpt>
      <trkpt lat="44.14498" lon="7.68657">
        <ele>2135.9</ele>
      </trkpt>
      <trkpt lat="44.14489" lon="7.68685">
        <ele>2130.6</ele>
      </trkpt>
      <trkpt lat="44.14486" lon="7.68741">
        <ele>2133</ele>
      </trkpt>
      <trkpt lat="44.14495" lon="7.68783">
        <ele>2125.8</ele>
      </trkpt>
      <trkpt lat="44.14515" lon="7.6882">
        <ele>2160.2</ele>
      </trkpt>
      <trkpt lat="44.14533" lon="7.68884">
        <ele>2162.8</ele>
      </trkpt>
      <trkpt lat="44.14538" lon="7.68962">
        <ele>2158.7</ele>
      </trkpt>
      <trkpt lat="44.14547" lon="7.69041">
        <ele>2157.4</ele>
      </trkpt>
      <trkpt lat="44.14566" lon="7.69131">
        <ele>2157.2</ele>
      </trkpt>
      <trkpt lat="44.14586" lon="7.69215">
        <ele>2185.8</ele>
      </trkpt>
      <trkpt lat="44.14606" lon="7.69249">
        <ele>2184.5</ele>
      </trkpt>
      <trkpt lat="44.14638" lon="7.69294">
        <ele>2179.6</ele>
      </trkpt>
      <trkpt lat="44.1466" lon="7.69341">
        <ele>2173.9</ele>
      </trkpt>
      <trkpt lat="44.14674" lon="7.69408">
        <ele>2174.8</ele>
      </trkpt>
      <trkpt lat="44.14701" lon="7.69442">
        <ele>2172.9</ele>
      </trkpt>
      <trkpt lat="44.1472" lon="7.69498">
        <ele>2174.4</ele>
      </trkpt>
      <trkpt lat="44.14724" lon="7.69543">
        <ele>2164.3</ele>
      </trkpt>
      <trkpt lat="44.14748" lon="7.69547">
        <ele>2165.6</ele>
      </trkpt>
      <trkpt lat="44.14752" lon="7.69511">
        <ele>2169.9</ele>
      </trkpt>
      <trkpt lat="44.14746" lon="7.69453">
        <ele>2175.5</ele>
      </trkpt>
      <trkpt lat="44.14738" lon="7.69371">
        <ele>2180.4</ele>
      </trkpt>
      <trkpt lat="44.1474" lon="7.69307">
        <ele>2191.6</ele>
      </trkpt>
      <trkpt lat="44.14748" lon="7.69236">
        <ele>2203.6</ele>
      </trkpt>
      <trkpt lat="44.14754" lon="7.69161">
        <ele>2198.4</ele>
      </trkpt>
      <trkpt lat="44.14763" lon="7.69077">
        <ele>2198.9</ele>
      </trkpt>
      <trkpt lat="44.14761" lon="7.69002">
        <ele>2207.6</ele>
      </trkpt>
      <trkpt lat="44.14771" lon="7.68925">
        <ele>2206.2</ele>
      </trkpt>
      <trkpt lat="44.14777" lon="7.68856">
        <ele>2203.7</ele>
      </trkpt>
      <trkpt lat="44.14774" lon="7.68801">
        <ele>2201.3</ele>
      </trkpt>
      <trkpt lat="44.14754" lon="7.6876">
        <ele>2209.3</ele>
      </trkpt>
      <trkpt lat="44.14731" lon="7.68728">
        <ele>2221.9</ele>
      </trkpt>
      <trkpt lat="44.14721" lon="7.68668">
        <ele>2221.5</ele>
      </trkpt>
      <trkpt lat="44.14731" lon="7.6861">
        <ele>2229.3</ele>
      </trkpt>
      <trkpt lat="44.14755" lon="7.68532">
        <ele>2220.9</ele>
      </trkpt>
      <trkpt lat="44.14777" lon="7.68464">
        <ele>2231.6</ele>
      </trkpt>
      <trkpt lat="44.14788" lon="7.68404">
        <ele>2247.1</ele>
      </trkpt>
      <trkpt lat="44.14804" lon="7.68359">
        <ele>2247.4</ele>
      </trkpt>
      <trkpt lat="44.14841" lon="7.68326">
        <ele>2241.2</ele>
      </trkpt>
      <trkpt lat="44.14877" lon="7.68316">
        <ele>2237.5</ele>
      </trkpt>
      <trkpt lat="44.14905" lon="7.68314">
        <ele>2231</ele>
      </trkpt>
      <trkpt lat="44.14921" lon="7.68266">
        <ele>2216.8</ele>
      </trkpt>
      <trkpt lat="44.14931" lon="7.68232">
        <ele>2221.1</ele>
      </trkpt>
      <trkpt lat="44.14945" lon="7.68153">
        <ele>2223.2</ele>
      </trkpt>
      <trkpt lat="44.1496" lon="7.6808">
        <ele>2217.5</ele>
      </trkpt>
      <trkpt lat="44.14974" lon="7.68">
        <ele>2212.3</ele>
      </trkpt>
      <trkpt lat="44.14965" lon="7.67957">
        <ele>2227.1</ele>
      </trkpt>
      <trkpt lat="44.14985" lon="7.67923">
        <ele>2216.8</ele>
      </trkpt>
      <trkpt lat="44.14995" lon="7.67869">
        <ele>2227.9</ele>
      </trkpt>
      <trkpt lat="44.15" lon="7.6782">
        <ele>2226.3</ele>
      </trkpt>
      <trkpt lat="44.15005" lon="7.67777">
        <ele>2202.6</ele>
      </trkpt>
      <trkpt lat="44.15018" lon="7.67747">
        <ele>2212.7</ele>
      </trkpt>
      <trkpt lat="44.15023" lon="7.67708">
        <ele>2208.8</ele>
      </trkpt>
      <trkpt lat="44.15043" lon="7.6767">
        <ele>2203.8</ele>
      </trkpt>
      <trkpt lat="44.15074" lon="7.67642">
        <ele>2202.1</ele>
      </trkpt>
      <trkpt lat="44.15094" lon="7.67608">
        <ele>2176.3</ele>
      </trkpt>
      <trkpt lat="44.15105" lon="7.67556">
        <ele>2183.3</ele>
      </trkpt>
      <trkpt lat="44.15117" lon="7.67498">
        <ele>2189.1</ele>
      </trkpt>
      <trkpt lat="44.15122" lon="7.67466">
        <ele>2187.8</ele>
      </trkpt>
      <trkpt lat="44.15143" lon="7.67384">
        <ele>2189.6</ele>
      </trkpt>
      <trkpt lat="44.15159" lon="7.67335">
        <ele>2189.3</ele>
      </trkpt>
      <trkpt lat="44.1518" lon="7.67305">
        <ele>2185.4</ele>
      </trkpt>
      <trkpt lat="44.15225" lon="7.67288">
        <ele>2181.8</ele>
      </trkpt>
      <trkpt lat="44.15253" lon="7.67279">
        <ele>2161.5</ele>
      </trkpt>
      <trkpt lat="44.15268" lon="7.67254">
        <ele>2168.1</ele>
      </trkpt>
      <trkpt lat="44.15286" lon="7.67228">
        <ele>2178.1</ele>
      </trkpt>
      <trkpt lat="44.15306" lon="7.67208">
        <ele>2176</ele>
      </trkpt>
      <trkpt lat="44.15334" lon="7.67189">
        <ele>2157</ele>
      </trkpt>
      <trkpt lat="44.15346" lon="7.67161">
        <ele>2175.8</ele>
      </trkpt>
      <trkpt lat="44.15379" lon="7.67125">
        <ele>2174.9</ele>
      </trkpt>
      <trkpt lat="44.1541" lon="7.67125">
        <ele>2170.7</ele>
      </trkpt>
      <trkpt lat="44.15437" lon="7.67123">
        <ele>2154.7</ele>
      </trkpt>
      <trkpt lat="44.15459" lon="7.67108">
        <ele>2154.9</ele>
      </trkpt>
      <trkpt lat="44.15487" lon="7.67101">
        <ele>2153.7</ele>
      </trkpt>
      <trkpt lat="44.15511" lon="7.67088">
        <ele>2149.6</ele>
      </trkpt>
      <trkpt lat="44.15531" lon="7.67114">
        <ele>2140.1</ele>
      </trkpt>
      <trkpt lat="44.15559" lon="7.67129">
        <ele>2135.8</ele>
      </trkpt>
      <trkpt lat="44.1559" lon="7.67144">
        <ele>2124.9</ele>
      </trkpt>
      <trkpt lat="44.15628" lon="7.67146">
        <ele>2123.5</ele>
      </trkpt>
      <trkpt lat="44.15653" lon="7.6714">
        <ele>2121.8</ele>
      </trkpt>
      <trkpt lat="44.15673" lon="7.67114">
        <ele>2117.6</ele>
      </trkpt>
      <trkpt lat="44.15705" lon="7.67108">
        <ele>2114.6</ele>
      </trkpt>
      <trkpt lat="44.15745" lon="7.67114">
        <ele>2110.7</ele>
      </trkpt>
      <trkpt lat="44.15777" lon="7.67123">
        <ele>2104.8</ele>
      </trkpt>
      <trkpt lat="44.15797" lon="7.67142">
        <ele>2104.8</ele>
      </trkpt>
      <trkpt lat="44.15824" lon="7.67153">
        <ele>2105.1</ele>
      </trkpt>
      <trkpt lat="44.15821" lon="7.67189">
        <ele>2102.4</ele>
      </trkpt>
      <trkpt lat="44.15791" lon="7.67185">
        <ele>2102.1</ele>
      </trkpt>
      <trkpt lat="44.15767" lon="7.67176">
        <ele>2103.6</ele>
      </trkpt>
      <trkpt lat="44.15742" lon="7.67189">
        <ele>2102.3</ele>
      </trkpt>
      <trkpt lat="44.15742" lon="7.67221">
        <ele>2098</ele>
      </trkpt>
      <trkpt lat="44.1577" lon="7.67262">
        <ele>2091</ele>
      </trkpt>
      <trkpt lat="44.15793" lon="7.67266">
        <ele>2091.1</ele>
      </trkpt>
      <trkpt lat="44.15808" lon="7.67299">
        <ele>2090.1</ele>
      </trkpt>
      <trkpt lat="44.15822" lon="7.6732">
        <ele>2090.2</ele>
      </trkpt>
      <trkpt lat="44.15819" lon="7.67273">
        <ele>2092.1</ele>
      </trkpt>
      <trkpt lat="44.15793" lon="7.67243">
        <ele>2098.5</ele>
      </trkpt>
      <trkpt lat="44.15768" lon="7.67226">
        <ele>2098.6</ele>
      </trkpt>
      <trkpt lat="44.15776" lon="7.67206">
        <ele>2100.6</ele>
      </trkpt>
      <trkpt lat="44.15807" lon="7.67211">
        <ele>2100.4</ele>
      </trkpt>
      <trkpt lat="44.15842" lon="7.67208">
        <ele>2105.2</ele>
      </trkpt>
      <trkpt lat="44.15856" lon="7.67172">
        <ele>2106.8</ele>
      </trkpt>
      <trkpt lat="44.15856" lon="7.67123">
        <ele>2103.7</ele>
      </trkpt>
      <trkpt lat="44.15887" lon="7.6711">
        <ele>2103.5</ele>
      </trkpt>
      <trkpt lat="44.15921" lon="7.67112">
        <ele>2107.8</ele>
      </trkpt>
      <trkpt lat="44.15936" lon="7.67054">
        <ele>2095.9</ele>
      </trkpt>
      <trkpt lat="44.15958" lon="7.67018">
        <ele>2093.3</ele>
      </trkpt>
      <trkpt lat="44.15981" lon="7.67003">
        <ele>2094.6</ele>
      </trkpt>
      <trkpt lat="44.15996" lon="7.66983">
        <ele>2086.6</ele>
      </trkpt>
      <trkpt lat="44.16019" lon="7.6697">
        <ele>2086.9</ele>
      </trkpt>
      <trkpt lat="44.16045" lon="7.66992">
        <ele>2088.4</ele>
      </trkpt>
      <trkpt lat="44.16078" lon="7.66994">
        <ele>2092.1</ele>
      </trkpt>
      <trkpt lat="44.16105" lon="7.66992">
        <ele>2089.5</ele>
      </trkpt>
      <trkpt lat="44.16119" lon="7.66962">
        <ele>2085</ele>
      </trkpt>
      <trkpt lat="44.16144" lon="7.66947">
        <ele>2082</ele>
      </trkpt>
      <trkpt lat="44.16172" lon="7.66953">
        <ele>2081.1</ele>
      </trkpt>
      <trkpt lat="44.16213" lon="7.66957">
        <ele>2081.2</ele>
      </trkpt>
      <trkpt lat="44.16239" lon="7.6697">
        <ele>2083.4</ele>
      </trkpt>
      <trkpt lat="44.1627" lon="7.6697">
        <ele>2080</ele>
      </trkpt>
      <trkpt lat="44.16296" lon="7.66953">
        <ele>2076.4</ele>
      </trkpt>
      <trkpt lat="44.16319" lon="7.66947">
        <ele>2074.7</ele>
      </trkpt>
      <trkpt lat="44.16342" lon="7.66957">
        <ele>2077</ele>
      </trkpt>
      <trkpt lat="44.16379" lon="7.66968">
        <ele>2079.1</ele>
      </trkpt>
      <trkpt lat="44.16402" lon="7.66947">
        <ele>2076.3</ele>
      </trkpt>
      <trkpt lat="44.16436" lon="7.6694">
        <ele>2080.1</ele>
      </trkpt>
      <trkpt lat="44.16459" lon="7.66908">
        <ele>2070.4</ele>
      </trkpt>
      <trkpt lat="44.16486" lon="7.66908">
        <ele>2073.4</ele>
      </trkpt>
      <trkpt lat="44.16481" lon="7.66869">
        <ele>2069.1</ele>
      </trkpt>
      <trkpt lat="44.16496" lon="7.66852">
        <ele>2067.9</ele>
      </trkpt>
      <trkpt lat="44.16526" lon="7.66869">
        <ele>2074.8</ele>
      </trkpt>
      <trkpt lat="44.16556" lon="7.66857">
        <ele>2075.2</ele>
      </trkpt>
      <trkpt lat="44.16578" lon="7.6685">
        <ele>2074.8</ele>
      </trkpt>
      <trkpt lat="44.16599" lon="7.66829">
        <ele>2072.2</ele>
      </trkpt>
      <trkpt lat="44.16639" lon="7.6682">
        <ele>2074.1</ele>
      </trkpt>
      <trkpt lat="44.16666" lon="7.66831">
        <ele>2080.8</ele>
      </trkpt>
      <trkpt lat="44.16678" lon="7.66812">
        <ele>2079.1</ele>
      </trkpt>
      <trkpt lat="44.16676" lon="7.66775">
        <ele>2074.6</ele>
      </trkpt>
      <trkpt lat="44.16701" lon="7.66773">
        <ele>2075.7</ele>
      </trkpt>
      <trkpt lat="44.16729" lon="7.66773">
        <ele>2076.1</ele>
      </trkpt>
      <trkpt lat="44.16755" lon="7.66779">
        <ele>2081.8</ele>
      </trkpt>
      <trkpt lat="44.16776" lon="7.66779">
        <ele>2083.5</ele>
      </trkpt>
      <trkpt lat="44.16796" lon="7.66775">
        <ele>2084.7</ele>
      </trkpt>
      <trkpt lat="44.16821" lon="7.6676">
        <ele>2083.9</ele>
      </trkpt>
      <trkpt lat="44.16837" lon="7.66739">
        <ele>2083.8</ele>
      </trkpt>
      <trkpt lat="44.16858" lon="7.66745">
        <ele>2086.2</ele>
      </trkpt>
      <trkpt lat="44.16881" lon="7.66749">
        <ele>2090.3</ele>
      </trkpt>
      <trkpt lat="44.16907" lon="7.66728">
        <ele>2093.1</ele>
      </trkpt>
      <trkpt lat="44.1693" lon="7.66715">
        <ele>2103</ele>
      </trkpt>
      <trkpt lat="44.16949" lon="7.66683">
        <ele>2101.6</ele>
      </trkpt>
      <trkpt lat="44.16969" lon="7.66651">
        <ele>2099.5</ele>
      </trkpt>
      <trkpt lat="44.16992" lon="7.66642">
        <ele>2101.4</ele>
      </trkpt>
      <trkpt lat="44.17021" lon="7.66612">
        <ele>2113.4</ele>
      </trkpt>
      <trkpt lat="44.17021" lon="7.66573">
        <ele>2111.6</ele>
      </trkpt>
      <trkpt lat="44.17009" lon="7.6655">
        <ele>2112.4</ele>
      </trkpt>
      <trkpt lat="44.16998" lon="7.66522">
        <ele>2106.4</ele>
      </trkpt>
      <trkpt lat="44.17001" lon="7.66494">
        <ele>2110</ele>
      </trkpt>
      <trkpt lat="44.17026" lon="7.66485">
        <ele>2112.9</ele>
      </trkpt>
      <trkpt lat="44.17046" lon="7.66462">
        <ele>2114.3</ele>
      </trkpt>
      <trkpt lat="44.17064" lon="7.66425">
        <ele>2115.3</ele>
      </trkpt>
      <trkpt lat="44.17084" lon="7.66397">
        <ele>2120.3</ele>
      </trkpt>
      <trkpt lat="44.17092" lon="7.66365">
        <ele>2119.1</ele>
      </trkpt>
      <trkpt lat="44.17087" lon="7.66344">
        <ele>2113.6</ele>
      </trkpt>
      <trkpt lat="44.17095" lon="7.66314">
        <ele>2115.4</ele>
      </trkpt>
      <trkpt lat="44.17094" lon="7.66288">
        <ele>2117.4</ele>
      </trkpt>
      <trkpt lat="44.17067" lon="7.66273">
        <ele>2109.5</ele>
      </trkpt>
      <trkpt lat="44.17041" lon="7.66249">
        <ele>2114.3</ele>
      </trkpt>
      <trkpt lat="44.17021" lon="7.66239">
        <ele>2113.6</ele>
      </trkpt>
      <trkpt lat="44.17003" lon="7.66215">
        <ele>2114.7</ele>
      </trkpt>
      <trkpt lat="44.16989" lon="7.66211">
        <ele>2117.6</ele>
      </trkpt>
      <trkpt lat="44.16986" lon="7.66179">
        <ele>2118.9</ele>
      </trkpt>
      <trkpt lat="44.16983" lon="7.66144">
        <ele>2121.2</ele>
      </trkpt>
      <trkpt lat="44.16961" lon="7.66133">
        <ele>2122.7</ele>
      </trkpt>
      <trkpt lat="44.1694" lon="7.66112">
        <ele>2123.7</ele>
      </trkpt>
      <trkpt lat="44.1692" lon="7.66088">
        <ele>2125.4</ele>
      </trkpt>
      <trkpt lat="44.1691" lon="7.66037">
        <ele>2132</ele>
      </trkpt>
      <trkpt lat="44.1691" lon="7.65998">
        <ele>2133.6</ele>
      </trkpt>
      <trkpt lat="44.16921" lon="7.6597">
        <ele>2129.6</ele>
      </trkpt>
      <trkpt lat="44.16933" lon="7.6594">
        <ele>2132.8</ele>
      </trkpt>
      <trkpt lat="44.16957" lon="7.65915">
        <ele>2141.1</ele>
      </trkpt>
      <trkpt lat="44.16972" lon="7.65872">
        <ele>2143</ele>
      </trkpt>
      <trkpt lat="44.16983" lon="7.65812">
        <ele>2155.2</ele>
      </trkpt>
      <trkpt lat="44.16992" lon="7.65762">
        <ele>2154.8</ele>
      </trkpt>
      <trkpt lat="44.16995" lon="7.65706">
        <ele>2169.2</ele>
      </trkpt>
      <trkpt lat="44.17003" lon="7.65679">
        <ele>2155.7</ele>
      </trkpt>
      <trkpt lat="44.1703" lon="7.65666">
        <ele>2161.6</ele>
      </trkpt>
      <trkpt lat="44.17055" lon="7.65642">
        <ele>2160.7</ele>
      </trkpt>
      <trkpt lat="44.1707" lon="7.65606">
        <ele>2165.6</ele>
      </trkpt>
      <trkpt lat="44.17094" lon="7.65608">
        <ele>2164.6</ele>
      </trkpt>
      <trkpt lat="44.17118" lon="7.65612">
        <ele>2164.4</ele>
      </trkpt>
      <trkpt lat="44.17135" lon="7.65578">
        <ele>2184</ele>
      </trkpt>
      <trkpt lat="44.17094" lon="7.65584">
        <ele>2167.9</ele>
      </trkpt>
      <trkpt lat="44.17077" lon="7.65552">
        <ele>2182.9</ele>
      </trkpt>
      <trkpt lat="44.17049" lon="7.65528">
        <ele>2188.3</ele>
      </trkpt>
      <trkpt lat="44.17026" lon="7.65548">
        <ele>2186.6</ele>
      </trkpt>
      <trkpt lat="44.16998" lon="7.65552">
        <ele>2196.7</ele>
      </trkpt>
      <trkpt lat="44.16981" lon="7.65565">
        <ele>2195.7</ele>
      </trkpt>
      <trkpt lat="44.16957" lon="7.65595">
        <ele>2189.7</ele>
      </trkpt>
      <trkpt lat="44.16935" lon="7.65618">
        <ele>2192.2</ele>
      </trkpt>
      <trkpt lat="44.16917" lon="7.65608">
        <ele>2199.9</ele>
      </trkpt>
      <trkpt lat="44.16893" lon="7.65627">
        <ele>2196.2</ele>
      </trkpt>
      <trkpt lat="44.16872" lon="7.65621">
        <ele>2193.8</ele>
      </trkpt>
      <trkpt lat="44.16889" lon="7.65591">
        <ele>2197.4</ele>
      </trkpt>
      <trkpt lat="44.16927" lon="7.65582">
        <ele>2206.3</ele>
      </trkpt>
      <trkpt lat="44.16949" lon="7.65558">
        <ele>2203.9</ele>
      </trkpt>
      <trkpt lat="44.16963" lon="7.65518">
        <ele>2206.3</ele>
      </trkpt>
      <trkpt lat="44.16975" lon="7.65488">
        <ele>2213.9</ele>
      </trkpt>
      <trkpt lat="44.16973" lon="7.65458">
        <ele>2216.5</ele>
      </trkpt>
      <trkpt lat="44.16969" lon="7.65408">
        <ele>2220.7</ele>
      </trkpt>
      <trkpt lat="44.1699" lon="7.65395">
        <ele>2218.1</ele>
      </trkpt>
      <trkpt lat="44.17007" lon="7.65385">
        <ele>2214.5</ele>
      </trkpt>
      <trkpt lat="44.17027" lon="7.65374">
        <ele>2215.4</ele>
      </trkpt>
      <trkpt lat="44.1705" lon="7.6538">
        <ele>2215.8</ele>
      </trkpt>
      <trkpt lat="44.17074" lon="7.65367">
        <ele>2216.8</ele>
      </trkpt>
      <trkpt lat="44.17072" lon="7.65337">
        <ele>2218.4</ele>
      </trkpt>
      <trkpt lat="44.1705" lon="7.6532">
        <ele>2217.9</ele>
      </trkpt>
      <trkpt lat="44.17027" lon="7.65305">
        <ele>2217.3</ele>
      </trkpt>
      <trkpt lat="44.16998" lon="7.65275">
        <ele>2220.3</ele>
      </trkpt>
      <trkpt lat="44.16989" lon="7.65247">
        <ele>2217.6</ele>
      </trkpt>
      <trkpt lat="44.16972" lon="7.65206">
        <ele>2218.7</ele>
      </trkpt>
      <trkpt lat="44.1697" lon="7.65172">
        <ele>2216.5</ele>
      </trkpt>
      <trkpt lat="44.16963" lon="7.65101">
        <ele>2218.3</ele>
      </trkpt>
      <trkpt lat="44.16977" lon="7.65063">
        <ele>2220.4</ele>
      </trkpt>
      <trkpt lat="44.16984" lon="7.65026">
        <ele>2223.1</ele>
      </trkpt>
      <trkpt lat="44.17001" lon="7.65">
        <ele>2223.1</ele>
      </trkpt>
      <trkpt lat="44.17017" lon="7.64975">
        <ele>2231.3</ele>
      </trkpt>
      <trkpt lat="44.17014" lon="7.6494">
        <ele>2233.8</ele>
      </trkpt>
      <trkpt lat="44.17006" lon="7.64882">
        <ele>2236.6</ele>
      </trkpt>
      <trkpt lat="44.17006" lon="7.64835">
        <ele>2238.4</ele>
      </trkpt>
      <trkpt lat="44.17007" lon="7.64807">
        <ele>2231.6</ele>
      </trkpt>
      <trkpt lat="44.17001" lon="7.64779">
        <ele>2228.2</ele>
      </trkpt>
      <trkpt lat="44.16995" lon="7.64756">
        <ele>2231.6</ele>
      </trkpt>
      <trkpt lat="44.1702" lon="7.64767">
        <ele>2226.8</ele>
      </trkpt>
      <trkpt lat="44.17043" lon="7.64788">
        <ele>2227.3</ele>
      </trkpt>
      <trkpt lat="44.17064" lon="7.64792">
        <ele>2226.6</ele>
      </trkpt>
      <trkpt lat="44.17089" lon="7.64782">
        <ele>2225.6</ele>
      </trkpt>
      <trkpt lat="44.17095" lon="7.64754">
        <ele>2219.6</ele>
      </trkpt>
      <trkpt lat="44.1709" lon="7.64719">
        <ele>2210.8</ele>
      </trkpt>
      <trkpt lat="44.17094" lon="7.64685">
        <ele>2205.3</ele>
      </trkpt>
      <trkpt lat="44.17114" lon="7.64659">
        <ele>2197.1</ele>
      </trkpt>
      <trkpt lat="44.17146" lon="7.64631">
        <ele>2197.8</ele>
      </trkpt>
      <trkpt lat="44.17181" lon="7.64629">
        <ele>2204.6</ele>
      </trkpt>
      <trkpt lat="44.17203" lon="7.64636">
        <ele>2205.5</ele>
      </trkpt>
      <trkpt lat="44.17215" lon="7.64614">
        <ele>2205.2</ele>
      </trkpt>
      <trkpt lat="44.17226" lon="7.64582">
        <ele>2201.9</ele>
      </trkpt>
      <trkpt lat="44.17243" lon="7.64584">
        <ele>2207.2</ele>
      </trkpt>
      <trkpt lat="44.1722" lon="7.64552">
        <ele>2199.5</ele>
      </trkpt>
      <trkpt lat="44.17201" lon="7.64505">
        <ele>2195.4</ele>
      </trkpt>
      <trkpt lat="44.17207" lon="7.64479">
        <ele>2190</ele>
      </trkpt>
      <trkpt lat="44.17221" lon="7.64453">
        <ele>2190.3</ele>
      </trkpt>
      <trkpt lat="44.17214" lon="7.64421">
        <ele>2188.2</ele>
      </trkpt>
      <trkpt lat="44.17198" lon="7.64376">
        <ele>2178.9</ele>
      </trkpt>
      <trkpt lat="44.1718" lon="7.64322">
        <ele>2170.1</ele>
      </trkpt>
      <trkpt lat="44.17174" lon="7.64284">
        <ele>2172.6</ele>
      </trkpt>
      <trkpt lat="44.17178" lon="7.64247">
        <ele>2168.8</ele>
      </trkpt>
      <trkpt lat="44.1717" lon="7.64209">
        <ele>2173.7</ele>
      </trkpt>
      <trkpt lat="44.17154" lon="7.64168">
        <ele>2159</ele>
      </trkpt>
      <trkpt lat="44.17135" lon="7.64146">
        <ele>2156.6</ele>
      </trkpt>
      <trkpt lat="44.17115" lon="7.64116">
        <ele>2155</ele>
      </trkpt>
      <trkpt lat="44.17098" lon="7.64069">
        <ele>2156.3</ele>
      </trkpt>
      <trkpt lat="44.17089" lon="7.64054">
        <ele>2156.9</ele>
      </trkpt>
      <trkpt lat="44.17075" lon="7.64031">
        <ele>2153.2</ele>
      </trkpt>
      <trkpt lat="44.17047" lon="7.64022">
        <ele>2152.5</ele>
      </trkpt>
      <trkpt lat="44.1704" lon="7.63979">
        <ele>2147</ele>
      </trkpt>
      <trkpt lat="44.17044" lon="7.63943">
        <ele>2143.5</ele>
      </trkpt>
      <trkpt lat="44.1708" lon="7.6394">
        <ele>2144.1</ele>
      </trkpt>
      <trkpt lat="44.17117" lon="7.63932">
        <ele>2149.3</ele>
      </trkpt>
      <trkpt lat="44.17141" lon="7.63904">
        <ele>2137.7</ele>
      </trkpt>
      <trkpt lat="44.17167" lon="7.63893">
        <ele>2141.5</ele>
      </trkpt>
      <trkpt lat="44.17194" lon="7.63906">
        <ele>2142.1</ele>
      </trkpt>
      <trkpt lat="44.17215" lon="7.63908">
        <ele>2142.3</ele>
      </trkpt>
      <trkpt lat="44.17254" lon="7.63919">
        <ele>2150.4</ele>
      </trkpt>
      <trkpt lat="44.17281" lon="7.63915">
        <ele>2146.8</ele>
      </trkpt>
      <trkpt lat="44.17304" lon="7.63885">
        <ele>2146</ele>
      </trkpt>
      <trkpt lat="44.17337" lon="7.63863">
        <ele>2153</ele>
      </trkpt>
      <trkpt lat="44.17375" lon="7.6384">
        <ele>2156.4</ele>
      </trkpt>
      <trkpt lat="44.17377" lon="7.6378">
        <ele>2152.6</ele>
      </trkpt>
      <trkpt lat="44.1738" lon="7.63752">
        <ele>2153.2</ele>
      </trkpt>
      <trkpt lat="44.17378" lon="7.63704">
        <ele>2161</ele>
      </trkpt>
      <trkpt lat="44.17352" lon="7.63704">
        <ele>2158.1</ele>
      </trkpt>
      <trkpt lat="44.17321" lon="7.63679">
        <ele>2149.1</ele>
      </trkpt>
      <trkpt lat="44.17281" lon="7.63664">
        <ele>2153</ele>
      </trkpt>
      <trkpt lat="44.17244" lon="7.63642">
        <ele>2136.2</ele>
      </trkpt>
      <trkpt lat="44.17221" lon="7.63606">
        <ele>2142.5</ele>
      </trkpt>
      <trkpt lat="44.17186" lon="7.63586">
        <ele>2137.1</ele>
      </trkpt>
      <trkpt lat="44.17158" lon="7.63565">
        <ele>2131.2</ele>
      </trkpt>
      <trkpt lat="44.17134" lon="7.63571">
        <ele>2124.6</ele>
      </trkpt>
      <trkpt lat="44.17114" lon="7.63539">
        <ele>2122.6</ele>
      </trkpt>
      <trkpt lat="44.17118" lon="7.63494">
        <ele>2142.7</ele>
      </trkpt>
      <trkpt lat="44.17114" lon="7.63462">
        <ele>2146.1</ele>
      </trkpt>
      <trkpt lat="44.17106" lon="7.63421">
        <ele>2147.3</ele>
      </trkpt>
      <trkpt lat="44.17083" lon="7.63383">
        <ele>2138.4</ele>
      </trkpt>
      <trkpt lat="44.17064" lon="7.63383">
        <ele>2135.4</ele>
      </trkpt>
      <trkpt lat="44.1701" lon="7.63353">
        <ele>2124.8</ele>
      </trkpt>
      <trkpt lat="44.1698" lon="7.63314">
        <ele>2123.1</ele>
      </trkpt>
      <trkpt lat="44.16957" lon="7.6329">
        <ele>2125.6</ele>
      </trkpt>
      <trkpt lat="44.1693" lon="7.63284">
        <ele>2125</ele>
      </trkpt>
      <trkpt lat="44.16887" lon="7.63297">
        <ele>2114.7</ele>
      </trkpt>
      <trkpt lat="44.16846" lon="7.63312">
        <ele>2109.5</ele>
      </trkpt>
      <trkpt lat="44.1681" lon="7.63314">
        <ele>2109.8</ele>
      </trkpt>
      <trkpt lat="44.16778" lon="7.63307">
        <ele>2111.7</ele>
      </trkpt>
      <trkpt lat="44.16753" lon="7.6331">
        <ele>2109.7</ele>
      </trkpt>
      <trkpt lat="44.16741" lon="7.63342">
        <ele>2104.7</ele>
      </trkpt>
      <trkpt lat="44.1672" lon="7.63395">
        <ele>2105.9</ele>
      </trkpt>
      <trkpt lat="44.16692" lon="7.63451">
        <ele>2093.6</ele>
      </trkpt>
      <trkpt lat="44.1668" lon="7.63503">
        <ele>2079.9</ele>
      </trkpt>
      <trkpt lat="44.16655" lon="7.63513">
        <ele>2085.6</ele>
      </trkpt>
      <trkpt lat="44.16627" lon="7.63522">
        <ele>2081.7</ele>
      </trkpt>
      <trkpt lat="44.16584" lon="7.63537">
        <ele>2080.1</ele>
      </trkpt>
      <trkpt lat="44.1655" lon="7.63511">
        <ele>2070.9</ele>
      </trkpt>
      <trkpt lat="44.16526" lon="7.63456">
        <ele>2081.6</ele>
      </trkpt>
      <trkpt lat="44.16523" lon="7.63395">
        <ele>2086.9</ele>
      </trkpt>
      <trkpt lat="44.16524" lon="7.6334">
        <ele>2086.8</ele>
      </trkpt>
      <trkpt lat="44.16512" lon="7.63297">
        <ele>2089.8</ele>
      </trkpt>
      <trkpt lat="44.16499" lon="7.63243">
        <ele>2074.6</ele>
      </trkpt>
      <trkpt lat="44.16487" lon="7.63196">
        <ele>2073.1</ele>
      </trkpt>
      <trkpt lat="44.16482" lon="7.63153">
        <ele>2078.7</ele>
      </trkpt>
      <trkpt lat="44.16467" lon="7.63134">
        <ele>2078.3</ele>
      </trkpt>
      <trkpt lat="44.16432" lon="7.63153">
        <ele>2072.2</ele>
      </trkpt>
      <trkpt lat="44.16419" lon="7.63121">
        <ele>2075.4</ele>
      </trkpt>
      <trkpt lat="44.16402" lon="7.63082">
        <ele>2078</ele>
      </trkpt>
      <trkpt lat="44.16381" lon="7.63104">
        <ele>2076.1</ele>
      </trkpt>
      <trkpt lat="44.16367" lon="7.6314">
        <ele>2076.4</ele>
      </trkpt>
      <trkpt lat="44.16355" lon="7.63121">
        <ele>2077.4</ele>
      </trkpt>
      <trkpt lat="44.16359" lon="7.63059">
        <ele>2081.6</ele>
      </trkpt>
      <trkpt lat="44.16355" lon="7.62996">
        <ele>2090.5</ele>
      </trkpt>
      <trkpt lat="44.16358" lon="7.62956">
        <ele>2095.3</ele>
      </trkpt>
      <trkpt lat="44.16382" lon="7.62906">
        <ele>2108.1</ele>
      </trkpt>
      <trkpt lat="44.16396" lon="7.62868">
        <ele>2109.8</ele>
      </trkpt>
      <trkpt lat="44.16401" lon="7.6281">
        <ele>2125</ele>
      </trkpt>
      <trkpt lat="44.1641" lon="7.62782">
        <ele>2129.5</ele>
      </trkpt>
      <trkpt lat="44.16422" lon="7.6273">
        <ele>2114.4</ele>
      </trkpt>
      <trkpt lat="44.16439" lon="7.627">
        <ele>2112.6</ele>
      </trkpt>
      <trkpt lat="44.16458" lon="7.62672">
        <ele>2108.7</ele>
      </trkpt>
      <trkpt lat="44.1647" lon="7.62653">
        <ele>2116</ele>
      </trkpt>
      <trkpt lat="44.16504" lon="7.62595">
        <ele>2103.4</ele>
      </trkpt>
      <trkpt lat="44.16523" lon="7.62569">
        <ele>2105.1</ele>
      </trkpt>
      <trkpt lat="44.16526" lon="7.62531">
        <ele>2104.5</ele>
      </trkpt>
      <trkpt lat="44.16541" lon="7.62503">
        <ele>2102.8</ele>
      </trkpt>
      <trkpt lat="44.16555" lon="7.62473">
        <ele>2098.1</ele>
      </trkpt>
      <trkpt lat="44.16578" lon="7.62456">
        <ele>2096.5</ele>
      </trkpt>
      <trkpt lat="44.16595" lon="7.62447">
        <ele>2066.5</ele>
      </trkpt>
      <trkpt lat="44.16604" lon="7.6243">
        <ele>2066.9</ele>
      </trkpt>
      <trkpt lat="44.16598" lon="7.62408">
        <ele>2071.9</ele>
      </trkpt>
      <trkpt lat="44.16575" lon="7.62436">
        <ele>2095.8</ele>
      </trkpt>
      <trkpt lat="44.16544" lon="7.62449">
        <ele>2096.7</ele>
      </trkpt>
      <trkpt lat="44.16533" lon="7.62464">
        <ele>2099</ele>
      </trkpt>
      <trkpt lat="44.16519" lon="7.6249">
        <ele>2106.7</ele>
      </trkpt>
      <trkpt lat="44.16504" lon="7.6252">
        <ele>2110.6</ele>
      </trkpt>
      <trkpt lat="44.16492" lon="7.62535">
        <ele>2123.6</ele>
      </trkpt>
      <trkpt lat="44.16469" lon="7.6255">
        <ele>2125.4</ele>
      </trkpt>
      <trkpt lat="44.16444" lon="7.62563">
        <ele>2130.1</ele>
      </trkpt>
      <trkpt lat="44.16412" lon="7.62587">
        <ele>2150.5</ele>
      </trkpt>
      <trkpt lat="44.16379" lon="7.62578">
        <ele>2137.8</ele>
      </trkpt>
      <trkpt lat="44.16339" lon="7.62569">
        <ele>2144.4</ele>
      </trkpt>
      <trkpt lat="44.16312" lon="7.62574">
        <ele>2138.4</ele>
      </trkpt>
      <trkpt lat="44.16278" lon="7.62593">
        <ele>2169.4</ele>
      </trkpt>
      <trkpt lat="44.16247" lon="7.62587">
        <ele>2158.9</ele>
      </trkpt>
      <trkpt lat="44.16222" lon="7.62593">
        <ele>2169.9</ele>
      </trkpt>
      <trkpt lat="44.16195" lon="7.62617">
        <ele>2176.2</ele>
      </trkpt>
      <trkpt lat="44.16156" lon="7.62612">
        <ele>2167.9</ele>
      </trkpt>
      <trkpt lat="44.16122" lon="7.62599">
        <ele>2162.8</ele>
      </trkpt>
      <trkpt lat="44.16084" lon="7.62606">
        <ele>2156.9</ele>
      </trkpt>
      <trkpt lat="44.16061" lon="7.62623">
        <ele>2152.1</ele>
      </trkpt>
      <trkpt lat="44.1603" lon="7.62642">
        <ele>2153.8</ele>
      </trkpt>
      <trkpt lat="44.15995" lon="7.6264">
        <ele>2142.3</ele>
      </trkpt>
      <trkpt lat="44.15931" lon="7.62627">
        <ele>2131.6</ele>
      </trkpt>
      <trkpt lat="44.15887" lon="7.62634">
        <ele>2130.3</ele>
      </trkpt>
      <trkpt lat="44.15856" lon="7.62621">
        <ele>2127.6</ele>
      </trkpt>
      <trkpt lat="44.15811" lon="7.62599">
        <ele>2125.9</ele>
      </trkpt>
      <trkpt lat="44.15779" lon="7.62569">
        <ele>2101.4</ele>
      </trkpt>
      <trkpt lat="44.15739" lon="7.62546">
        <ele>2097.2</ele>
      </trkpt>
      <trkpt lat="44.15704" lon="7.62518">
        <ele>2089.5</ele>
      </trkpt>
      <trkpt lat="44.1568" lon="7.62516">
        <ele>2086.6</ele>
      </trkpt>
      <trkpt lat="44.15648" lon="7.62511">
        <ele>2080.4</ele>
      </trkpt>
      <trkpt lat="44.15613" lon="7.62492">
        <ele>2069.1</ele>
      </trkpt>
      <trkpt lat="44.15579" lon="7.62458">
        <ele>2066.6</ele>
      </trkpt>
      <trkpt lat="44.15554" lon="7.62449">
        <ele>2065.4</ele>
      </trkpt>
      <trkpt lat="44.15534" lon="7.62423">
        <ele>2065.4</ele>
      </trkpt>
      <trkpt lat="44.15513" lon="7.62391">
        <ele>2062.6</ele>
      </trkpt>
      <trkpt lat="44.15496" lon="7.62331">
        <ele>2080.1</ele>
      </trkpt>
      <trkpt lat="44.155" lon="7.62288">
        <ele>2060.7</ele>
      </trkpt>
      <trkpt lat="44.15516" lon="7.62243">
        <ele>2061.9</ele>
      </trkpt>
      <trkpt lat="44.15534" lon="7.62224">
        <ele>2047.6</ele>
      </trkpt>
      <trkpt lat="44.1555" lon="7.62205">
        <ele>2040.3</ele>
      </trkpt>
      <trkpt lat="44.15528" lon="7.62183">
        <ele>2048.8</ele>
      </trkpt>
      <trkpt lat="44.15514" lon="7.62121">
        <ele>2039.2</ele>
      </trkpt>
      <trkpt lat="44.15497" lon="7.62093">
        <ele>2066.5</ele>
      </trkpt>
      <trkpt lat="44.15477" lon="7.62039">
        <ele>2062.8</ele>
      </trkpt>
      <trkpt lat="44.15451" lon="7.61996">
        <ele>2049.8</ele>
      </trkpt>
      <trkpt lat="44.15439" lon="7.61958">
        <ele>2048.1</ele>
      </trkpt>
      <trkpt lat="44.15408" lon="7.61936">
        <ele>2058.6</ele>
      </trkpt>
      <trkpt lat="44.15376" lon="7.61936">
        <ele>2064.7</ele>
      </trkpt>
      <trkpt lat="44.15339" lon="7.61938">
        <ele>2066.5</ele>
      </trkpt>
      <trkpt lat="44.15294" lon="7.6193">
        <ele>2080.9</ele>
      </trkpt>
      <trkpt lat="44.1526" lon="7.61915">
        <ele>2070.3</ele>
      </trkpt>
      <trkpt lat="44.15225" lon="7.61898">
        <ele>2083.3</ele>
      </trkpt>
      <trkpt lat="44.15208" lon="7.61855">
        <ele>2082.3</ele>
      </trkpt>
      <trkpt lat="44.15182" lon="7.6181">
        <ele>2077.4</ele>
      </trkpt>
      <trkpt lat="44.15151" lon="7.61741">
        <ele>2090.6</ele>
      </trkpt>
      <trkpt lat="44.15148" lon="7.61679">
        <ele>2092.8</ele>
      </trkpt>
      <trkpt lat="44.15152" lon="7.61619">
        <ele>2097.3</ele>
      </trkpt>
      <trkpt lat="44.15162" lon="7.61587">
        <ele>2093.2</ele>
      </trkpt>
      <trkpt lat="44.15179" lon="7.61563">
        <ele>2090.1</ele>
      </trkpt>
      <trkpt lat="44.15183" lon="7.61529">
        <ele>2092.2</ele>
      </trkpt>
      <trkpt lat="44.1518" lon="7.61499">
        <ele>2101.8</ele>
      </trkpt>
      <trkpt lat="44.15191" lon="7.61454">
        <ele>2105.6</ele>
      </trkpt>
      <trkpt lat="44.15212" lon="7.61441">
        <ele>2105.7</ele>
      </trkpt>
      <trkpt lat="44.15243" lon="7.61443">
        <ele>2105</ele>
      </trkpt>
      <trkpt lat="44.15259" lon="7.61462">
        <ele>2095</ele>
      </trkpt>
      <trkpt lat="44.15276" lon="7.61481">
        <ele>2091.7</ele>
      </trkpt>
      <trkpt lat="44.15299" lon="7.61477">
        <ele>2090.7</ele>
      </trkpt>
      <trkpt lat="44.15319" lon="7.61439">
        <ele>2096.5</ele>
      </trkpt>
      <trkpt lat="44.15322" lon="7.61413">
        <ele>2109.7</ele>
      </trkpt>
      <trkpt lat="44.15359" lon="7.61411">
        <ele>2101.1</ele>
      </trkpt>
      <trkpt lat="44.15386" lon="7.61387">
        <ele>2098.6</ele>
      </trkpt>
      <trkpt lat="44.154" lon="7.61357">
        <ele>2102.5</ele>
      </trkpt>
      <trkpt lat="44.15419" lon="7.61331">
        <ele>2102.7</ele>
      </trkpt>
      <trkpt lat="44.1543" lon="7.61295">
        <ele>2097.1</ele>
      </trkpt>
      <trkpt lat="44.15443" lon="7.61278">
        <ele>2096.5</ele>
      </trkpt>
      <trkpt lat="44.15459" lon="7.61252">
        <ele>2094.8</ele>
      </trkpt>
      <trkpt lat="44.1545" lon="7.6122">
        <ele>2090.4</ele>
      </trkpt>
      <trkpt lat="44.15383" lon="7.61196">
        <ele>2105.7</ele>
      </trkpt>
      <trkpt lat="44.15345" lon="7.61181">
        <ele>2107.2</ele>
      </trkpt>
      <trkpt lat="44.15306" lon="7.6114">
        <ele>2109.7</ele>
      </trkpt>
      <trkpt lat="44.15268" lon="7.61115">
        <ele>2114.3</ele>
      </trkpt>
      <trkpt lat="44.15236" lon="7.61074">
        <ele>2121</ele>
      </trkpt>
      <trkpt lat="44.15217" lon="7.61012">
        <ele>2116.9</ele>
      </trkpt>
      <trkpt lat="44.15199" lon="7.60973">
        <ele>2110.4</ele>
      </trkpt>
      <trkpt lat="44.15171" lon="7.60939">
        <ele>2114.6</ele>
      </trkpt>
      <trkpt lat="44.15156" lon="7.60883">
        <ele>2132.5</ele>
      </trkpt>
      <trkpt lat="44.15146" lon="7.60784">
        <ele>2125.1</ele>
      </trkpt>
      <trkpt lat="44.15139" lon="7.60711">
        <ele>2126.8</ele>
      </trkpt>
      <trkpt lat="44.15151" lon="7.60681">
        <ele>2121.5</ele>
      </trkpt>
      <trkpt lat="44.15146" lon="7.60657">
        <ele>2124.4</ele>
      </trkpt>
      <trkpt lat="44.15142" lon="7.60604">
        <ele>2129</ele>
      </trkpt>
      <trkpt lat="44.15152" lon="7.60569">
        <ele>2128.3</ele>
      </trkpt>
      <trkpt lat="44.15165" lon="7.60533">
        <ele>2133.2</ele>
      </trkpt>
      <trkpt lat="44.15185" lon="7.60505">
        <ele>2112.6</ele>
      </trkpt>
      <trkpt lat="44.15191" lon="7.60469">
        <ele>2114.6</ele>
      </trkpt>
      <trkpt lat="44.15199" lon="7.60421">
        <ele>2116.9</ele>
      </trkpt>
      <trkpt lat="44.15203" lon="7.60355">
        <ele>2125</ele>
      </trkpt>
      <trkpt lat="44.15217" lon="7.60314">
        <ele>2127</ele>
      </trkpt>
      <trkpt lat="44.15223" lon="7.60258">
        <ele>2125.6</ele>
      </trkpt>
      <trkpt lat="44.15225" lon="7.60228">
        <ele>2133.2</ele>
      </trkpt>
      <trkpt lat="44.15226" lon="7.6017">
        <ele>2134.7</ele>
      </trkpt>
      <trkpt lat="44.1524" lon="7.60106">
        <ele>2147.2</ele>
      </trkpt>
      <trkpt lat="44.15256" lon="7.60076">
        <ele>2134.8</ele>
      </trkpt>
      <trkpt lat="44.15269" lon="7.60039">
        <ele>2134.4</ele>
      </trkpt>
      <trkpt lat="44.15291" lon="7.60003">
        <ele>2134.1</ele>
      </trkpt>
      <trkpt lat="44.15316" lon="7.59973">
        <ele>2147.4</ele>
      </trkpt>
      <trkpt lat="44.15343" lon="7.59956">
        <ele>2135.9</ele>
      </trkpt>
      <trkpt lat="44.15371" lon="7.59949">
        <ele>2134.9</ele>
      </trkpt>
      <trkpt lat="44.15394" lon="7.59919">
        <ele>2136.1</ele>
      </trkpt>
      <trkpt lat="44.15427" lon="7.59888">
        <ele>2140.6</ele>
      </trkpt>
      <trkpt lat="44.15457" lon="7.59911">
        <ele>2139.6</ele>
      </trkpt>
      <trkpt lat="44.15483" lon="7.59901">
        <ele>2139.2</ele>
      </trkpt>
      <trkpt lat="44.15526" lon="7.59903">
        <ele>2136.2</ele>
      </trkpt>
      <trkpt lat="44.15547" lon="7.59886">
        <ele>2135.4</ele>
      </trkpt>
      <trkpt lat="44.15563" lon="7.59871">
        <ele>2133.7</ele>
      </trkpt>
      <trkpt lat="44.15535" lon="7.59825">
        <ele>2121.2</ele>
      </trkpt>
      <trkpt lat="44.15514" lon="7.59793">
        <ele>2117.6</ele>
      </trkpt>
      <trkpt lat="44.15495" lon="7.5975">
        <ele>2112.9</ele>
      </trkpt>
      <trkpt lat="44.15518" lon="7.59759">
        <ele>2110.7</ele>
      </trkpt>
      <trkpt lat="44.15547" lon="7.598">
        <ele>2115.2</ele>
      </trkpt>
      <trkpt lat="44.15572" lon="7.59823">
        <ele>2118.5</ele>
      </trkpt>
      <trkpt lat="44.15604" lon="7.59817">
        <ele>2105.2</ele>
      </trkpt>
      <trkpt lat="44.15635" lon="7.5981">
        <ele>2099.6</ele>
      </trkpt>
      <trkpt lat="44.15671" lon="7.5983">
        <ele>2105.9</ele>
      </trkpt>
      <trkpt lat="44.15711" lon="7.59847">
        <ele>2118.6</ele>
      </trkpt>
      <trkpt lat="44.1574" lon="7.59851">
        <ele>2112.5</ele>
      </trkpt>
      <trkpt lat="44.15763" lon="7.59834">
        <ele>2106.7</ele>
      </trkpt>
      <trkpt lat="44.15741" lon="7.59825">
        <ele>2089.8</ele>
      </trkpt>
      <trkpt lat="44.15714" lon="7.59828">
        <ele>2088.2</ele>
      </trkpt>
      <trkpt lat="44.15691" lon="7.59817">
        <ele>2090.6</ele>
      </trkpt>
      <trkpt lat="44.15667" lon="7.59787">
        <ele>2081</ele>
      </trkpt>
      <trkpt lat="44.15647" lon="7.5975">
        <ele>2079.4</ele>
      </trkpt>
      <trkpt lat="44.15623" lon="7.59729">
        <ele>2065.1</ele>
      </trkpt>
      <trkpt lat="44.15591" lon="7.59722">
        <ele>2069.7</ele>
      </trkpt>
      <trkpt lat="44.15592" lon="7.5969">
        <ele>2062.3</ele>
      </trkpt>
      <trkpt lat="44.15592" lon="7.59643">
        <ele>2048.6</ele>
      </trkpt>
      <trkpt lat="44.15572" lon="7.59622">
        <ele>2052.3</ele>
      </trkpt>
      <trkpt lat="44.1557" lon="7.59596">
        <ele>2047.6</ele>
      </trkpt>
      <trkpt lat="44.15581" lon="7.59557">
        <ele>2035</ele>
      </trkpt>
      <trkpt lat="44.15591" lon="7.59521">
        <ele>2032.8</ele>
      </trkpt>
      <trkpt lat="44.15592" lon="7.59489">
        <ele>2028.7</ele>
      </trkpt>
      <trkpt lat="44.1562" lon="7.59529">
        <ele>2033</ele>
      </trkpt>
      <trkpt lat="44.15646" lon="7.59529">
        <ele>2032.4</ele>
      </trkpt>
      <trkpt lat="44.15677" lon="7.59508">
        <ele>2027.4</ele>
      </trkpt>
      <trkpt lat="44.15711" lon="7.59504">
        <ele>2022</ele>
      </trkpt>
      <trkpt lat="44.15729" lon="7.59521">
        <ele>2019.9</ele>
      </trkpt>
      <trkpt lat="44.15715" lon="7.59534">
        <ele>2021.6</ele>
      </trkpt>
      <trkpt lat="44.15738" lon="7.59544">
        <ele>2019.8</ele>
      </trkpt>
      <trkpt lat="44.15755" lon="7.59501">
        <ele>2012.6</ele>
      </trkpt>
      <trkpt lat="44.15768" lon="7.59456">
        <ele>2004.9</ele>
      </trkpt>
      <trkpt lat="44.15771" lon="7.59409">
        <ele>2002</ele>
      </trkpt>
      <trkpt lat="44.15774" lon="7.59341">
        <ele>1999.5</ele>
      </trkpt>
      <trkpt lat="44.15781" lon="7.59283">
        <ele>1990</ele>
      </trkpt>
      <trkpt lat="44.15801" lon="7.59268">
        <ele>1986.1</ele>
      </trkpt>
      <trkpt lat="44.15838" lon="7.59205">
        <ele>1964.4</ele>
      </trkpt>
      <trkpt lat="44.15869" lon="7.59175">
        <ele>1962</ele>
      </trkpt>
      <trkpt lat="44.15894" lon="7.59145">
        <ele>1955.2</ele>
      </trkpt>
      <trkpt lat="44.15923" lon="7.59117">
        <ele>1951.6</ele>
      </trkpt>
      <trkpt lat="44.15951" lon="7.59111">
        <ele>1949.6</ele>
      </trkpt>
      <trkpt lat="44.15977" lon="7.591">
        <ele>1947.6</ele>
      </trkpt>
      <trkpt lat="44.15991" lon="7.59066">
        <ele>1942.8</ele>
      </trkpt>
      <trkpt lat="44.15977" lon="7.59042">
        <ele>1939.8</ele>
      </trkpt>
      <trkpt lat="44.15948" lon="7.59021">
        <ele>1936.5</ele>
      </trkpt>
      <trkpt lat="44.15923" lon="7.5904">
        <ele>1939.4</ele>
      </trkpt>
      <trkpt lat="44.15898" lon="7.59072">
        <ele>1939.5</ele>
      </trkpt>
      <trkpt lat="44.1586" lon="7.59083">
        <ele>1931.1</ele>
      </trkpt>
      <trkpt lat="44.15818" lon="7.59102">
        <ele>1937.1</ele>
      </trkpt>
      <trkpt lat="44.15775" lon="7.59132">
        <ele>1940.4</ele>
      </trkpt>
      <trkpt lat="44.15741" lon="7.59147">
        <ele>1934.5</ele>
      </trkpt>
      <trkpt lat="44.15708" lon="7.59152">
        <ele>1926.2</ele>
      </trkpt>
      <trkpt lat="44.15671" lon="7.59173">
        <ele>1936.4</ele>
      </trkpt>
      <trkpt lat="44.15647" lon="7.59188">
        <ele>1935.4</ele>
      </trkpt>
      <trkpt lat="44.15626" lon="7.59195">
        <ele>1935.6</ele>
      </trkpt>
      <trkpt lat="44.15591" lon="7.59195">
        <ele>1931.1</ele>
      </trkpt>
      <trkpt lat="44.15567" lon="7.59192">
        <ele>1923.5</ele>
      </trkpt>
      <trkpt lat="44.15554" lon="7.59169">
        <ele>1920.9</ele>
      </trkpt>
      <trkpt lat="44.15524" lon="7.59186">
        <ele>1921.3</ele>
      </trkpt>
      <trkpt lat="44.15487" lon="7.59184">
        <ele>1926.5</ele>
      </trkpt>
      <trkpt lat="44.15481" lon="7.59139">
        <ele>1917.5</ele>
      </trkpt>
      <trkpt lat="44.15455" lon="7.59107">
        <ele>1920</ele>
      </trkpt>
      <trkpt lat="44.15433" lon="7.59092">
        <ele>1925.3</ele>
      </trkpt>
      <trkpt lat="44.15432" lon="7.59044">
        <ele>1911.5</ele>
      </trkpt>
      <trkpt lat="44.15417" lon="7.59012">
        <ele>1937</ele>
      </trkpt>
      <trkpt lat="44.15418" lon="7.5898">
        <ele>1908.8</ele>
      </trkpt>
      <trkpt lat="44.1541" lon="7.5895">
        <ele>1936.8</ele>
      </trkpt>
      <trkpt lat="44.15403" lon="7.58898">
        <ele>1929.1</ele>
      </trkpt>
      <trkpt lat="44.15403" lon="7.5886">
        <ele>1927.5</ele>
      </trkpt>
      <trkpt lat="44.15378" lon="7.58823">
        <ele>1927.4</ele>
      </trkpt>
      <trkpt lat="44.15375" lon="7.5877">
        <ele>1925.4</ele>
      </trkpt>
      <trkpt lat="44.15364" lon="7.58731">
        <ele>1919.8</ele>
      </trkpt>
      <trkpt lat="44.15358" lon="7.58684">
        <ele>1918.1</ele>
      </trkpt>
      <trkpt lat="44.15332" lon="7.5862">
        <ele>1938.3</ele>
      </trkpt>
      <trkpt lat="44.15318" lon="7.58551">
        <ele>1924.6</ele>
      </trkpt>
      <trkpt lat="44.15289" lon="7.58463">
        <ele>1925</ele>
      </trkpt>
      <trkpt lat="44.15301" lon="7.58392">
        <ele>1918.6</ele>
      </trkpt>
      <trkpt lat="44.15307" lon="7.58317">
        <ele>1915.3</ele>
      </trkpt>
      <trkpt lat="44.15329" lon="7.58278">
        <ele>1910.7</ele>
      </trkpt>
      <trkpt lat="44.15343" lon="7.5825">
        <ele>1890.8</ele>
      </trkpt>
      <trkpt lat="44.15313" lon="7.58193">
        <ele>1903.1</ele>
      </trkpt>
      <trkpt lat="44.15284" lon="7.58122">
        <ele>1893.2</ele>
      </trkpt>
      <trkpt lat="44.15253" lon="7.58057">
        <ele>1882.7</ele>
      </trkpt>
      <trkpt lat="44.15246" lon="7.57987">
        <ele>1884.2</ele>
      </trkpt>
      <trkpt lat="44.15236" lon="7.57873">
        <ele>1875.4</ele>
      </trkpt>
      <trkpt lat="44.15255" lon="7.57802">
        <ele>1875.2</ele>
      </trkpt>
      <trkpt lat="44.1527" lon="7.57772">
        <ele>1877.3</ele>
      </trkpt>
      <trkpt lat="44.15295" lon="7.57733">
        <ele>1886.7</ele>
      </trkpt>
      <trkpt lat="44.15323" lon="7.57705">
        <ele>1887.5</ele>
      </trkpt>
      <trkpt lat="44.15349" lon="7.57671">
        <ele>1873.9</ele>
      </trkpt>
      <trkpt lat="44.15378" lon="7.5763">
        <ele>1874.3</ele>
      </trkpt>
      <trkpt lat="44.1538" lon="7.57579">
        <ele>1880.6</ele>
      </trkpt>
      <trkpt lat="44.15353" lon="7.57508">
        <ele>1884.9</ele>
      </trkpt>
      <trkpt lat="44.15316" lon="7.57424">
        <ele>1886.6</ele>
      </trkpt>
      <trkpt lat="44.15276" lon="7.57373">
        <ele>1876.6</ele>
      </trkpt>
      <trkpt lat="44.15241" lon="7.57356">
        <ele>1887.8</ele>
      </trkpt>
      <trkpt lat="44.15209" lon="7.57302">
        <ele>1876.6</ele>
      </trkpt>
      <trkpt lat="44.15178" lon="7.57255">
        <ele>1878.7</ele>
      </trkpt>
      <trkpt lat="44.15179" lon="7.57201">
        <ele>1872</ele>
      </trkpt>
      <trkpt lat="44.15213" lon="7.57135">
        <ele>1871.4</ele>
      </trkpt>
      <trkpt lat="44.15243" lon="7.57085">
        <ele>1866.5</ele>
      </trkpt>
      <trkpt lat="44.15301" lon="7.56976">
        <ele>1862.6</ele>
      </trkpt>
      <trkpt lat="44.15335" lon="7.56901">
        <ele>1849</ele>
      </trkpt>
      <trkpt lat="44.15358" lon="7.56847">
        <ele>1849.9</ele>
      </trkpt>
      <trkpt lat="44.15384" lon="7.56817">
        <ele>1855.5</ele>
      </trkpt>
      <trkpt lat="44.15421" lon="7.56793">
        <ele>1832.7</ele>
      </trkpt>
      <trkpt lat="44.15458" lon="7.56759">
        <ele>1829.6</ele>
      </trkpt>
      <trkpt lat="44.15483" lon="7.56703">
        <ele>1838.8</ele>
      </trkpt>
      <trkpt lat="44.15506" lon="7.56607">
        <ele>1814.6</ele>
      </trkpt>
      <trkpt lat="44.15532" lon="7.5653">
        <ele>1814.1</ele>
      </trkpt>
      <trkpt lat="44.15552" lon="7.56474">
        <ele>1811.1</ele>
      </trkpt>
      <trkpt lat="44.15578" lon="7.56424">
        <ele>1804.7</ele>
      </trkpt>
      <trkpt lat="44.15626" lon="7.56377">
        <ele>1792</ele>
      </trkpt>
      <trkpt lat="44.15651" lon="7.56344">
        <ele>1792.9</ele>
      </trkpt>
      <trkpt lat="44.15787" lon="7.56331">
        <ele>1789.3</ele>
      </trkpt>
      <trkpt lat="44.15888" lon="7.56292">
        <ele>1774.6</ele>
      </trkpt>
      <trkpt lat="44.15981" lon="7.56194">
        <ele>1771.1</ele>
      </trkpt>
      <trkpt lat="44.16036" lon="7.56134">
        <ele>1768.3</ele>
      </trkpt>
      <trkpt lat="44.16101" lon="7.56112">
        <ele>1751.7</ele>
      </trkpt>
      <trkpt lat="44.16039" lon="7.56211">
        <ele>1749.8</ele>
      </trkpt>
      <trkpt lat="44.16008" lon="7.5631">
        <ele>1733</ele>
      </trkpt>
      <trkpt lat="44.15937" lon="7.56395">
        <ele>1735.9</ele>
      </trkpt>
      <trkpt lat="44.15864" lon="7.5649">
        <ele>1731.7</ele>
      </trkpt>
      <trkpt lat="44.15817" lon="7.56528">
        <ele>1725.5</ele>
      </trkpt>
      <trkpt lat="44.15765" lon="7.56571">
        <ele>1719.9</ele>
      </trkpt>
      <trkpt lat="44.15867" lon="7.56558">
        <ele>1708.6</ele>
      </trkpt>
      <trkpt lat="44.15971" lon="7.56494">
        <ele>1704.6</ele>
      </trkpt>
      <trkpt lat="44.16024" lon="7.56455">
        <ele>1692</ele>
      </trkpt>
      <trkpt lat="44.16085" lon="7.56378">
        <ele>1694.2</ele>
      </trkpt>
      <trkpt lat="44.16153" lon="7.56361">
        <ele>1689.7</ele>
      </trkpt>
      <trkpt lat="44.16205" lon="7.56348">
        <ele>1674.1</ele>
      </trkpt>
      <trkpt lat="44.16131" lon="7.56438">
        <ele>1671.9</ele>
      </trkpt>
      <trkpt lat="44.16061" lon="7.56554">
        <ele>1663.7</ele>
      </trkpt>
      <trkpt lat="44.15999" lon="7.56588">
        <ele>1664.2</ele>
      </trkpt>
      <trkpt lat="44.1594" lon="7.56661">
        <ele>1665.2</ele>
      </trkpt>
      <trkpt lat="44.15925" lon="7.56747">
        <ele>1650.5</ele>
      </trkpt>
      <trkpt lat="44.15928" lon="7.56846">
        <ele>1637.2</ele>
      </trkpt>
      <trkpt lat="44.15931" lon="7.56932">
        <ele>1624.9</ele>
      </trkpt>
      <trkpt lat="44.15968" lon="7.56842">
        <ele>1627.2</ele>
      </trkpt>
      <trkpt lat="44.15974" lon="7.56743">
        <ele>1640.3</ele>
      </trkpt>
      <trkpt lat="44.1603" lon="7.56674">
        <ele>1629</ele>
      </trkpt>
      <trkpt lat="44.16131" lon="7.56623">
        <ele>1623.5</ele>
      </trkpt>
      <trkpt lat="44.16174" lon="7.56558">
        <ele>1624.3</ele>
      </trkpt>
      <trkpt lat="44.1627" lon="7.56511">
        <ele>1601.9</ele>
      </trkpt>
      <trkpt lat="44.16156" lon="7.56687">
        <ele>1598.8</ele>
      </trkpt>
      <trkpt lat="44.16116" lon="7.56739">
        <ele>1597.1</ele>
      </trkpt>
      <trkpt lat="44.16088" lon="7.56799">
        <ele>1583.6</ele>
      </trkpt>
      <trkpt lat="44.16088" lon="7.56906">
        <ele>1577.2</ele>
      </trkpt>
      <trkpt lat="44.16104" lon="7.57009">
        <ele>1568.1</ele>
      </trkpt>
      <trkpt lat="44.16104" lon="7.57099">
        <ele>1562.7</ele>
      </trkpt>
      <trkpt lat="44.16085" lon="7.57219">
        <ele>1545.7</ele>
      </trkpt>
      <trkpt lat="44.16144" lon="7.57099">
        <ele>1552.9</ele>
      </trkpt>
      <trkpt lat="44.16138" lon="7.57">
        <ele>1555.7</ele>
      </trkpt>
      <trkpt lat="44.16153" lon="7.56915">
        <ele>1553.8</ele>
      </trkpt>
      <trkpt lat="44.1619" lon="7.56825">
        <ele>1551.4</ele>
      </trkpt>
      <trkpt lat="44.16267" lon="7.56722">
        <ele>1539.6</ele>
      </trkpt>
      <trkpt lat="44.16322" lon="7.56687">
        <ele>1534</ele>
      </trkpt>
      <trkpt lat="44.16276" lon="7.56799">
        <ele>1516.4</ele>
      </trkpt>
      <trkpt lat="44.16236" lon="7.56863">
        <ele>1528.6</ele>
      </trkpt>
      <trkpt lat="44.16242" lon="7.56949">
        <ele>1518.3</ele>
      </trkpt>
      <trkpt lat="44.16224" lon="7.57005">
        <ele>1518</ele>
      </trkpt>
      <trkpt lat="44.16239" lon="7.57073">
        <ele>1512.7</ele>
      </trkpt>
      <trkpt lat="44.16248" lon="7.57168">
        <ele>1501.8</ele>
      </trkpt>
      <trkpt lat="44.16264" lon="7.57206">
        <ele>1477.9</ele>
      </trkpt>
      <trkpt lat="44.16276" lon="7.57018">
        <ele>1490.2</ele>
      </trkpt>
      <trkpt lat="44.16319" lon="7.56966">
        <ele>1484.6</ele>
      </trkpt>
      <trkpt lat="44.16307" lon="7.57095">
        <ele>1476.4</ele>
      </trkpt>
      <trkpt lat="44.1631" lon="7.57194">
        <ele>1468</ele>
      </trkpt>
      <trkpt lat="44.16288" lon="7.57279">
        <ele>1457.2</ele>
      </trkpt>
      <trkpt lat="44.16218" lon="7.57314">
        <ele>1480</ele>
      </trkpt>
      <trkpt lat="44.16338" lon="7.57228">
        <ele>1443.6</ele>
      </trkpt>
      <trkpt lat="44.16356" lon="7.57151">
        <ele>1448.5</ele>
      </trkpt>
      <trkpt lat="44.16381" lon="7.57069">
        <ele>1448.4</ele>
      </trkpt>
      <trkpt lat="44.16399" lon="7.57018">
        <ele>1444.8</ele>
      </trkpt>
      <trkpt lat="44.1643" lon="7.57099">
        <ele>1426.7</ele>
      </trkpt>
      <trkpt lat="44.16396" lon="7.57159">
        <ele>1439.8</ele>
      </trkpt>
      <trkpt lat="44.16399" lon="7.57228">
        <ele>1432.3</ele>
      </trkpt>
      <trkpt lat="44.16439" lon="7.57219">
        <ele>1414.9</ele>
      </trkpt>
      <trkpt lat="44.16488" lon="7.57176">
        <ele>1409.3</ele>
      </trkpt>
      <trkpt lat="44.16519" lon="7.57116">
        <ele>1403</ele>
      </trkpt>
      <trkpt lat="44.16485" lon="7.57069">
        <ele>1418.3</ele>
      </trkpt>
      <trkpt lat="44.16504" lon="7.57">
        <ele>1411.2</ele>
      </trkpt>
      <trkpt lat="44.16544" lon="7.5697">
        <ele>1407.1</ele>
      </trkpt>
      <trkpt lat="44.16584" lon="7.5703">
        <ele>1397</ele>
      </trkpt>
      <trkpt lat="44.1659" lon="7.5688">
        <ele>1400.1</ele>
      </trkpt>
      <trkpt lat="44.16676" lon="7.56859">
        <ele>1391.5</ele>
      </trkpt>
      <trkpt lat="44.16713" lon="7.56807">
        <ele>1398.4</ele>
      </trkpt>
      <trkpt lat="44.16766" lon="7.56863">
        <ele>1386.8</ele>
      </trkpt>
      <trkpt lat="44.16802" lon="7.56897">
        <ele>1383.9</ele>
      </trkpt>
      <trkpt lat="44.16892" lon="7.5688">
        <ele>1385.3</ele>
      </trkpt>
      <trkpt lat="44.16963" lon="7.56919">
        <ele>1362.6</ele>
      </trkpt>
      <trkpt lat="44.1703" lon="7.56936">
        <ele>1354</ele>
      </trkpt>
      <trkpt lat="44.1711" lon="7.56919">
        <ele>1341.9</ele>
      </trkpt>
      <trkpt lat="44.17175" lon="7.56863">
        <ele>1333.2</ele>
      </trkpt>
      <trkpt lat="44.1719" lon="7.56777">
        <ele>1347.6</ele>
      </trkpt>
      <trkpt lat="44.17249" lon="7.56747">
        <ele>1343.2</ele>
      </trkpt>
      <trkpt lat="44.17347" lon="7.56799">
        <ele>1321.8</ele>
      </trkpt>
      <trkpt lat="44.17421" lon="7.56807">
        <ele>1308.2</ele>
      </trkpt>
      <trkpt lat="44.17477" lon="7.56794">
        <ele>1302</ele>
      </trkpt>
      <trkpt lat="44.17492" lon="7.56696">
        <ele>1314.7</ele>
      </trkpt>
      <trkpt lat="44.17563" lon="7.56653">
        <ele>1314.3</ele>
      </trkpt>
      <trkpt lat="44.17621" lon="7.5667">
        <ele>1289.4</ele>
      </trkpt>
      <trkpt lat="44.17726" lon="7.56687">
        <ele>1272.5</ele>
      </trkpt>
      <trkpt lat="44.17806" lon="7.5661">
        <ele>1271.2</ele>
      </trkpt>
      <trkpt lat="44.17852" lon="7.56558">
        <ele>1264.5</ele>
      </trkpt>
      <trkpt lat="44.17911" lon="7.56494">
        <ele>1261.6</ele>
      </trkpt>
      <trkpt lat="44.17941" lon="7.56408">
        <ele>1257.6</ele>
      </trkpt>
      <trkpt lat="44.17954" lon="7.56297">
        <ele>1268.5</ele>
      </trkpt>
      <trkpt lat="44.18052" lon="7.56297">
        <ele>1242.6</ele>
      </trkpt>
      <trkpt lat="44.18089" lon="7.56335">
        <ele>1226.2</ele>
      </trkpt>
      <trkpt lat="44.18006" lon="7.56387">
        <ele>1230.4</ele>
      </trkpt>
      <trkpt lat="44.17947" lon="7.56546">
        <ele>1231.5</ele>
      </trkpt>
      <trkpt lat="44.17911" lon="7.56666">
        <ele>1222.1</ele>
      </trkpt>
      <trkpt lat="44.17957" lon="7.56679">
        <ele>1208.4</ele>
      </trkpt>
      <trkpt lat="44.18024" lon="7.56619">
        <ele>1202.5</ele>
      </trkpt>
      <trkpt lat="44.18092" lon="7.56481">
        <ele>1198.6</ele>
      </trkpt>
      <trkpt lat="44.18169" lon="7.56404">
        <ele>1187.7</ele>
      </trkpt>
      <trkpt lat="44.18206" lon="7.56348">
        <ele>1182</ele>
      </trkpt>
      <trkpt lat="44.18194" lon="7.56189">
        <ele>1181.6</ele>
      </trkpt>
      <trkpt lat="44.18194" lon="7.56052">
        <ele>1173.4</ele>
      </trkpt>
      <trkpt lat="44.18221" lon="7.55975">
        <ele>1165.9</ele>
      </trkpt>
      <trkpt lat="44.18237" lon="7.56095">
        <ele>1166.9</ele>
      </trkpt>
      <trkpt lat="44.18255" lon="7.56267">
        <ele>1158.7</ele>
      </trkpt>
      <trkpt lat="44.18301" lon="7.56279">
        <ele>1153.9</ele>
      </trkpt>
      <trkpt lat="44.18277" lon="7.56099">
        <ele>1152.7</ele>
      </trkpt>
      <trkpt lat="44.18317" lon="7.56073">
        <ele>1146.5</ele>
      </trkpt>
      <trkpt lat="44.18323" lon="7.56151">
        <ele>1146.1</ele>
      </trkpt>
      <trkpt lat="44.18345" lon="7.56228">
        <ele>1137.6</ele>
      </trkpt>
      <trkpt lat="44.18348" lon="7.56031">
        <ele>1143.5</ele>
      </trkpt>
      <trkpt lat="44.18388" lon="7.56065">
        <ele>1139.9</ele>
      </trkpt>
      <trkpt lat="44.18381" lon="7.56189">
        <ele>1131.9</ele>
      </trkpt>
      <trkpt lat="44.18455" lon="7.5631">
        <ele>1126.2</ele>
      </trkpt>
      <trkpt lat="44.18541" lon="7.5637">
        <ele>1121.7</ele>
      </trkpt>
      <trkpt lat="44.18603" lon="7.56331">
        <ele>1101.9</ele>
      </trkpt>
      <trkpt lat="44.18511" lon="7.56297">
        <ele>1112.5</ele>
      </trkpt>
      <trkpt lat="44.18557" lon="7.56215">
        <ele>1107.3</ele>
      </trkpt>
      <trkpt lat="44.18621" lon="7.56215">
        <ele>1101.9</ele>
      </trkpt>
      <trkpt lat="44.1868" lon="7.56318">
        <ele>1091</ele>
      </trkpt>
      <trkpt lat="44.18766" lon="7.5646">
        <ele>1079.1</ele>
      </trkpt>
      <trkpt lat="44.1888" lon="7.56619">
        <ele>1068</ele>
      </trkpt>
      <trkpt lat="44.18945" lon="7.56764">
        <ele>1063.6</ele>
      </trkpt>
      <trkpt lat="44.19025" lon="7.56893">
        <ele>1057.9</ele>
      </trkpt>
      <trkpt lat="44.19148" lon="7.56966">
        <ele>1050.5</ele>
      </trkpt>
      <trkpt lat="44.19252" lon="7.57099">
        <ele>1041</ele>
      </trkpt>
      <trkpt lat="44.19385" lon="7.57224">
        <ele>1042.3</ele>
      </trkpt>
      <trkpt lat="44.19486" lon="7.57378">
        <ele>1033.4</ele>
      </trkpt>
      <trkpt lat="44.19575" lon="7.57468">
        <ele>1028.5</ele>
      </trkpt>
      <trkpt lat="44.19745" lon="7.57494">
        <ele>1023.2</ele>
      </trkpt>
      <trkpt lat="44.19908" lon="7.57507">
        <ele>1013.5</ele>
      </trkpt>
      <trkpt lat="44.20034" lon="7.57477">
        <ele>1009.5</ele>
      </trkpt>
      <trkpt lat="44.20191" lon="7.57434">
        <ele>999.8</ele>
      </trkpt>
      <trkpt lat="44.20292" lon="7.57391">
        <ele>998</ele>
      </trkpt>
      <trkpt lat="44.20394" lon="7.57412">
        <ele>986.9</ele>
      </trkpt>
      <trkpt lat="44.20449" lon="7.57503">
        <ele>981.8</ele>
      </trkpt>
    </trkseg>
  </trk>
  <trk>
    <name><![CDATA[Itinéraire de 400 La Plaine de Buissonnière]]></name>
    <extensions>
      <line xmlns="http://www.topografix.com/GPX/gpx_style/0/2">
        <color>0000ff</color>
        <opacity>0.85</opacity>
        <width>5</width>
        <dasharray>10</dasharray>
      </line>
    </extensions>
    <trkseg>
      <trkpt lat="45.20002" lon="5.42078">
        <ele>251.8</ele>
      </trkpt>
      <trkpt lat="45.20002" lon="5.42078">
        <ele>251.8</ele>
      </trkpt>
      <trkpt lat="45.20017" lon="5.42043">
        <ele>251.2</ele>
      </trkpt>
      <trkpt lat="45.20043" lon="5.41994">
        <ele>250.5</ele>
      </trkpt>
      <trkpt lat="45.20062" lon="5.41944">
        <ele>250.8</ele>
      </trkpt>
      <trkpt lat="45.20074" lon="5.419">
        <ele>251</ele>
      </trkpt>
      <trkpt lat="45.20092" lon="5.41794">
        <ele>249.2</ele>
      </trkpt>
      <trkpt lat="45.20092" lon="5.41788">
        <ele>249.1</ele>
      </trkpt>
      <trkpt lat="45.20089" lon="5.41776">
        <ele>248.9</ele>
      </trkpt>
      <trkpt lat="45.20086" lon="5.41771">
        <ele>248.7</ele>
      </trkpt>
      <trkpt lat="45.20081" lon="5.41759">
        <ele>248.6</ele>
      </trkpt>
      <trkpt lat="45.2008" lon="5.41755">
        <ele>248.4</ele>
      </trkpt>
      <trkpt lat="45.2008" lon="5.41747">
        <ele>248.1</ele>
      </trkpt>
      <trkpt lat="45.20079" lon="5.41738">
        <ele>248.2</ele>
      </trkpt>
      <trkpt lat="45.20082" lon="5.41726">
        <ele>248.3</ele>
      </trkpt>
      <trkpt lat="45.20082" lon="5.41713">
        <ele>248.3</ele>
      </trkpt>
      <trkpt lat="45.20078" lon="5.41702">
        <ele>248.3</ele>
      </trkpt>
      <trkpt lat="45.20074" lon="5.41694">
        <ele>248.3</ele>
      </trkpt>
      <trkpt lat="45.20071" lon="5.41692">
        <ele>248.3</ele>
      </trkpt>
      <trkpt lat="45.20069" lon="5.4169">
        <ele>248.2</ele>
      </trkpt>
      <trkpt lat="45.20064" lon="5.41687">
        <ele>248.2</ele>
      </trkpt>
      <trkpt lat="45.20059" lon="5.41686">
        <ele>248.2</ele>
      </trkpt>
      <trkpt lat="45.20046" lon="5.41666">
        <ele>247.9</ele>
      </trkpt>
      <trkpt lat="45.20037" lon="5.41655">
        <ele>247.8</ele>
      </trkpt>
      <trkpt lat="45.20026" lon="5.41647">
        <ele>247.7</ele>
      </trkpt>
      <trkpt lat="45.20013" lon="5.41646">
        <ele>247.6</ele>
      </trkpt>
      <trkpt lat="45.2" lon="5.41648">
        <ele>247.4</ele>
      </trkpt>
      <trkpt lat="45.19921" lon="5.41673">
        <ele>245.8</ele>
      </trkpt>
      <trkpt lat="45.19904" lon="5.41682">
        <ele>242</ele>
      </trkpt>
      <trkpt lat="45.19892" lon="5.41692">
        <ele>240.8</ele>
      </trkpt>
      <trkpt lat="45.19883" lon="5.41702">
        <ele>240.2</ele>
      </trkpt>
      <trkpt lat="45.19874" lon="5.41716">
        <ele>240</ele>
      </trkpt>
      <trkpt lat="45.19857" lon="5.41759">
        <ele>243.1</ele>
      </trkpt>
      <trkpt lat="45.19851" lon="5.41768">
        <ele>243</ele>
      </trkpt>
      <trkpt lat="45.19842" lon="5.41779">
        <ele>243.5</ele>
      </trkpt>
      <trkpt lat="45.19837" lon="5.41784">
        <ele>243.8</ele>
      </trkpt>
      <trkpt lat="45.19828" lon="5.4179">
        <ele>239.6</ele>
      </trkpt>
      <trkpt lat="45.19815" lon="5.41794">
        <ele>239.5</ele>
      </trkpt>
      <trkpt lat="45.19792" lon="5.41797">
        <ele>238.7</ele>
      </trkpt>
      <trkpt lat="45.19754" lon="5.41794">
        <ele>237</ele>
      </trkpt>
      <trkpt lat="45.19743" lon="5.41797">
        <ele>229.3</ele>
      </trkpt>
      <trkpt lat="45.19733" lon="5.41802">
        <ele>229.2</ele>
      </trkpt>
      <trkpt lat="45.19722" lon="5.41811">
        <ele>228.8</ele>
      </trkpt>
      <trkpt lat="45.19713" lon="5.41821">
        <ele>227.9</ele>
      </trkpt>
      <trkpt lat="45.19701" lon="5.41838">
        <ele>232.2</ele>
      </trkpt>
      <trkpt lat="45.197" lon="5.41839">
        <ele>232.1</ele>
      </trkpt>
      <trkpt lat="45.19693" lon="5.41854">
        <ele>231.9</ele>
      </trkpt>
      <trkpt lat="45.1967" lon="5.41918">
        <ele>236.3</ele>
      </trkpt>
      <trkpt lat="45.19659" lon="5.41934">
        <ele>236.6</ele>
      </trkpt>
      <trkpt lat="45.1965" lon="5.41944">
        <ele>237.2</ele>
      </trkpt>
      <trkpt lat="45.19638" lon="5.4195">
        <ele>237.5</ele>
      </trkpt>
      <trkpt lat="45.19635" lon="5.41951">
        <ele>237.5</ele>
      </trkpt>
      <trkpt lat="45.19626" lon="5.41956">
        <ele>237.6</ele>
      </trkpt>
      <trkpt lat="45.19607" lon="5.41961">
        <ele>237.7</ele>
      </trkpt>
      <trkpt lat="45.19606" lon="5.41961">
        <ele>237.6</ele>
      </trkpt>
      <trkpt lat="45.19563" lon="5.4197">
        <ele>232.4</ele>
      </trkpt>
      <trkpt lat="45.19556" lon="5.41973">
        <ele>231.9</ele>
      </trkpt>
      <trkpt lat="45.19551" lon="5.41977">
        <ele>231.5</ele>
      </trkpt>
      <trkpt lat="45.19523" lon="5.42005">
        <ele>227.6</ele>
      </trkpt>
      <trkpt lat="45.19511" lon="5.42021">
        <ele>227</ele>
      </trkpt>
      <trkpt lat="45.19506" lon="5.4203">
        <ele>227.6</ele>
      </trkpt>
      <trkpt lat="45.19505" lon="5.42034">
        <ele>227.9</ele>
      </trkpt>
      <trkpt lat="45.19503" lon="5.42039">
        <ele>228.1</ele>
      </trkpt>
      <trkpt lat="45.19502" lon="5.42044">
        <ele>228.2</ele>
      </trkpt>
      <trkpt lat="45.19502" lon="5.42048">
        <ele>228.2</ele>
      </trkpt>
      <trkpt lat="45.19501" lon="5.42054">
        <ele>228.1</ele>
      </trkpt>
      <trkpt lat="45.19502" lon="5.42062">
        <ele>227.7</ele>
      </trkpt>
      <trkpt lat="45.19502" lon="5.42069">
        <ele>227</ele>
      </trkpt>
      <trkpt lat="45.19505" lon="5.42087">
        <ele>226</ele>
      </trkpt>
      <trkpt lat="45.19507" lon="5.42094">
        <ele>227.6</ele>
      </trkpt>
      <trkpt lat="45.19508" lon="5.42102">
        <ele>228.8</ele>
      </trkpt>
      <trkpt lat="45.1951" lon="5.4211">
        <ele>229.6</ele>
      </trkpt>
      <trkpt lat="45.19513" lon="5.42135">
        <ele>230</ele>
      </trkpt>
      <trkpt lat="45.19513" lon="5.42207">
        <ele>226.2</ele>
      </trkpt>
      <trkpt lat="45.19514" lon="5.42212">
        <ele>226</ele>
      </trkpt>
      <trkpt lat="45.19516" lon="5.42217">
        <ele>225.7</ele>
      </trkpt>
      <trkpt lat="45.19517" lon="5.42222">
        <ele>225.2</ele>
      </trkpt>
      <trkpt lat="45.19522" lon="5.42233">
        <ele>224.7</ele>
      </trkpt>
      <trkpt lat="45.19526" lon="5.42239">
        <ele>224.9</ele>
      </trkpt>
      <trkpt lat="45.19526" lon="5.4224">
        <ele>224.9</ele>
      </trkpt>
      <trkpt lat="45.19533" lon="5.42249">
        <ele>226.1</ele>
      </trkpt>
      <trkpt lat="45.19537" lon="5.42256">
        <ele>218.9</ele>
      </trkpt>
      <trkpt lat="45.19539" lon="5.42258">
        <ele>219.2</ele>
      </trkpt>
      <trkpt lat="45.19541" lon="5.42263">
        <ele>219.3</ele>
      </trkpt>
      <trkpt lat="45.19544" lon="5.42268">
        <ele>219.5</ele>
      </trkpt>
      <trkpt lat="45.19555" lon="5.42294">
        <ele>218.4</ele>
      </trkpt>
      <trkpt lat="45.19555" lon="5.42299">
        <ele>217.9</ele>
      </trkpt>
      <trkpt lat="45.19553" lon="5.42311">
        <ele>216.7</ele>
      </trkpt>
      <trkpt lat="45.19551" lon="5.42316">
        <ele>216.1</ele>
      </trkpt>
      <trkpt lat="45.19514" lon="5.4244">
        <ele>196.5</ele>
      </trkpt>
      <trkpt lat="45.19513" lon="5.42445">
        <ele>196.7</ele>
      </trkpt>
      <trkpt lat="45.19442" lon="5.42657">
        <ele>219.9</ele>
      </trkpt>
      <trkpt lat="45.19408" lon="5.42714">
        <ele>225.1</ele>
      </trkpt>
      <trkpt lat="45.19263" lon="5.42558">
        <ele>220.1</ele>
      </trkpt>
      <trkpt lat="45.19237" lon="5.42536">
        <ele>220.9</ele>
      </trkpt>
      <trkpt lat="45.1921" lon="5.42519">
        <ele>220.8</ele>
      </trkpt>
      <trkpt lat="45.19203" lon="5.42517">
        <ele>221</ele>
      </trkpt>
      <trkpt lat="45.19188" lon="5.42511">
        <ele>221.3</ele>
      </trkpt>
      <trkpt lat="45.19169" lon="5.42505">
        <ele>221.2</ele>
      </trkpt>
      <trkpt lat="45.19154" lon="5.42502">
        <ele>223.7</ele>
      </trkpt>
      <trkpt lat="45.19009" lon="5.42456">
        <ele>228.3</ele>
      </trkpt>
      <trkpt lat="45.18991" lon="5.42449">
        <ele>231.8</ele>
      </trkpt>
      <trkpt lat="45.18952" lon="5.42437">
        <ele>232.5</ele>
      </trkpt>
      <trkpt lat="45.18929" lon="5.42433">
        <ele>233.1</ele>
      </trkpt>
      <trkpt lat="45.18918" lon="5.42432">
        <ele>233.3</ele>
      </trkpt>
      <trkpt lat="45.18902" lon="5.42432">
        <ele>234.2</ele>
      </trkpt>
      <trkpt lat="45.18894" lon="5.42433">
        <ele>234.3</ele>
      </trkpt>
      <trkpt lat="45.18882" lon="5.42436">
        <ele>234.4</ele>
      </trkpt>
      <trkpt lat="45.18868" lon="5.42441">
        <ele>234.4</ele>
      </trkpt>
      <trkpt lat="45.18524" lon="5.42591">
        <ele>235.1</ele>
      </trkpt>
      <trkpt lat="45.18481" lon="5.42601">
        <ele>234</ele>
      </trkpt>
      <trkpt lat="45.18466" lon="5.42603">
        <ele>233.7</ele>
      </trkpt>
      <trkpt lat="45.18453" lon="5.42603">
        <ele>233.4</ele>
      </trkpt>
      <trkpt lat="45.18418" lon="5.42597">
        <ele>232.6</ele>
      </trkpt>
      <trkpt lat="45.18404" lon="5.42592">
        <ele>235.2</ele>
      </trkpt>
      <trkpt lat="45.1838" lon="5.4258">
        <ele>235.8</ele>
      </trkpt>
      <trkpt lat="45.18376" lon="5.42577">
        <ele>236.1</ele>
      </trkpt>
      <trkpt lat="45.18369" lon="5.42573">
        <ele>236.7</ele>
      </trkpt>
      <trkpt lat="45.18356" lon="5.42563">
        <ele>237.4</ele>
      </trkpt>
      <trkpt lat="45.18345" lon="5.42553">
        <ele>237.4</ele>
      </trkpt>
      <trkpt lat="45.18297" lon="5.42496">
        <ele>243</ele>
      </trkpt>
      <trkpt lat="45.18232" lon="5.42391">
        <ele>249.1</ele>
      </trkpt>
      <trkpt lat="45.18225" lon="5.42377">
        <ele>249.5</ele>
      </trkpt>
      <trkpt lat="45.18206" lon="5.42332">
        <ele>247.7</ele>
      </trkpt>
      <trkpt lat="45.18191" lon="5.42282">
        <ele>248.2</ele>
      </trkpt>
      <trkpt lat="45.18165" lon="5.4221">
        <ele>253</ele>
      </trkpt>
      <trkpt lat="45.18161" lon="5.42202">
        <ele>252.2</ele>
      </trkpt>
      <trkpt lat="45.18127" lon="5.42153">
        <ele>245.9</ele>
      </trkpt>
      <trkpt lat="45.18088" lon="5.42112">
        <ele>246.8</ele>
      </trkpt>
      <trkpt lat="45.18082" lon="5.42104">
        <ele>254.9</ele>
      </trkpt>
      <trkpt lat="45.18075" lon="5.42097">
        <ele>254</ele>
      </trkpt>
      <trkpt lat="45.18049" lon="5.42062">
        <ele>251.9</ele>
      </trkpt>
      <trkpt lat="45.17984" lon="5.41935">
        <ele>257.1</ele>
      </trkpt>
      <trkpt lat="45.17964" lon="5.41903">
        <ele>253</ele>
      </trkpt>
      <trkpt lat="45.17945" lon="5.41877">
        <ele>253.7</ele>
      </trkpt>
      <trkpt lat="45.17928" lon="5.41858">
        <ele>254.5</ele>
      </trkpt>
      <trkpt lat="45.17861" lon="5.41794">
        <ele>259.1</ele>
      </trkpt>
      <trkpt lat="45.17823" lon="5.41755">
        <ele>263.9</ele>
      </trkpt>
      <trkpt lat="45.17755" lon="5.41697">
        <ele>261.9</ele>
      </trkpt>
      <trkpt lat="45.1775" lon="5.41692">
        <ele>262.1</ele>
      </trkpt>
      <trkpt lat="45.17722" lon="5.4167">
        <ele>266.7</ele>
      </trkpt>
      <trkpt lat="45.17688" lon="5.41648">
        <ele>266.7</ele>
      </trkpt>
      <trkpt lat="45.17687" lon="5.41647">
        <ele>266.7</ele>
      </trkpt>
      <trkpt lat="45.17411" lon="5.4148">
        <ele>271.2</ele>
      </trkpt>
      <trkpt lat="45.17356" lon="5.41449">
        <ele>271.7</ele>
      </trkpt>
      <trkpt lat="45.17294" lon="5.4141">
        <ele>273.4</ele>
      </trkpt>
      <trkpt lat="45.17251" lon="5.41374">
        <ele>273.9</ele>
      </trkpt>
      <trkpt lat="45.17112" lon="5.41247">
        <ele>276.4</ele>
      </trkpt>
      <trkpt lat="45.17103" lon="5.4124">
        <ele>276.6</ele>
      </trkpt>
      <trkpt lat="45.17081" lon="5.41219">
        <ele>277.4</ele>
      </trkpt>
      <trkpt lat="45.17043" lon="5.41175">
        <ele>276.8</ele>
      </trkpt>
      <trkpt lat="45.16905" lon="5.41">
        <ele>266.4</ele>
      </trkpt>
      <trkpt lat="45.16889" lon="5.40976">
        <ele>266.1</ele>
      </trkpt>
      <trkpt lat="45.16879" lon="5.40958">
        <ele>266.3</ele>
      </trkpt>
      <trkpt lat="45.16866" lon="5.40924">
        <ele>266.2</ele>
      </trkpt>
      <trkpt lat="45.16861" lon="5.409">
        <ele>264.4</ele>
      </trkpt>
      <trkpt lat="45.16854" lon="5.40847">
        <ele>264.5</ele>
      </trkpt>
      <trkpt lat="45.1684" lon="5.40675">
        <ele>263.3</ele>
      </trkpt>
      <trkpt lat="45.16821" lon="5.40583">
        <ele>266.5</ele>
      </trkpt>
      <trkpt lat="45.16812" lon="5.4055">
        <ele>266.7</ele>
      </trkpt>
      <trkpt lat="45.16793" lon="5.40498">
        <ele>264.9</ele>
      </trkpt>
      <trkpt lat="45.16665" lon="5.40222">
        <ele>263.5</ele>
      </trkpt>
      <trkpt lat="45.16631" lon="5.40157">
        <ele>262.4</ele>
      </trkpt>
      <trkpt lat="45.16409" lon="5.39803">
        <ele>261.6</ele>
      </trkpt>
      <trkpt lat="45.16408" lon="5.39802">
        <ele>261.6</ele>
      </trkpt>
      <trkpt lat="45.16147" lon="5.39347">
        <ele>255.1</ele>
      </trkpt>
      <trkpt lat="45.16142" lon="5.3934">
        <ele>255.1</ele>
      </trkpt>
      <trkpt lat="45.1604" lon="5.3913">
        <ele>253.3</ele>
      </trkpt>
      <trkpt lat="45.1602" lon="5.39097">
        <ele>253.1</ele>
      </trkpt>
      <trkpt lat="45.15884" lon="5.38899">
        <ele>252.4</ele>
      </trkpt>
      <trkpt lat="45.15863" lon="5.38865">
        <ele>252.1</ele>
      </trkpt>
      <trkpt lat="45.15749" lon="5.38634">
        <ele>250.2</ele>
      </trkpt>
      <trkpt lat="45.15748" lon="5.3863">
        <ele>250.2</ele>
      </trkpt>
      <trkpt lat="45.15688" lon="5.38508">
        <ele>247.1</ele>
      </trkpt>
      <trkpt lat="45.15686" lon="5.38505">
        <ele>247.2</ele>
      </trkpt>
      <trkpt lat="45.15679" lon="5.3849">
        <ele>244.3</ele>
      </trkpt>
      <trkpt lat="45.15677" lon="5.38488">
        <ele>244.3</ele>
      </trkpt>
      <trkpt lat="45.15669" lon="5.38474">
        <ele>242.9</ele>
      </trkpt>
      <trkpt lat="45.15615" lon="5.38397">
        <ele>240</ele>
      </trkpt>
      <trkpt lat="45.1555" lon="5.38311">
        <ele>240.3</ele>
      </trkpt>
      <trkpt lat="45.15537" lon="5.38292">
        <ele>240.5</ele>
      </trkpt>
      <trkpt lat="45.15463" lon="5.38147">
        <ele>232.6</ele>
      </trkpt>
      <trkpt lat="45.15458" lon="5.38131">
        <ele>232.4</ele>
      </trkpt>
      <trkpt lat="45.15417" lon="5.38051">
        <ele>230.4</ele>
      </trkpt>
      <trkpt lat="45.15406" lon="5.38032">
        <ele>231.1</ele>
      </trkpt>
      <trkpt lat="45.15393" lon="5.38013">
        <ele>230.9</ele>
      </trkpt>
      <trkpt lat="45.1537" lon="5.37988">
        <ele>230.4</ele>
      </trkpt>
      <trkpt lat="45.1536" lon="5.37979">
        <ele>230.4</ele>
      </trkpt>
      <trkpt lat="45.15342" lon="5.37965">
        <ele>230.4</ele>
      </trkpt>
      <trkpt lat="45.15321" lon="5.37951">
        <ele>230.9</ele>
      </trkpt>
      <trkpt lat="45.15258" lon="5.37915">
        <ele>230.8</ele>
      </trkpt>
      <trkpt lat="45.15247" lon="5.37912">
        <ele>231</ele>
      </trkpt>
      <trkpt lat="45.1515" lon="5.37859">
        <ele>231.9</ele>
      </trkpt>
      <trkpt lat="45.15093" lon="5.37823">
        <ele>231.5</ele>
      </trkpt>
      <trkpt lat="45.15056" lon="5.37797">
        <ele>231.5</ele>
      </trkpt>
      <trkpt lat="45.14993" lon="5.37745">
        <ele>232.4</ele>
      </trkpt>
      <trkpt lat="45.14844" lon="5.37612">
        <ele>235.2</ele>
      </trkpt>
      <trkpt lat="45.14757" lon="5.37541">
        <ele>237.3</ele>
      </trkpt>
      <trkpt lat="45.14713" lon="5.37499">
        <ele>238.3</ele>
      </trkpt>
      <trkpt lat="45.14691" lon="5.37475">
        <ele>238.5</ele>
      </trkpt>
      <trkpt lat="45.14666" lon="5.37445">
        <ele>239.5</ele>
      </trkpt>
      <trkpt lat="45.1462" lon="5.37398">
        <ele>239.1</ele>
      </trkpt>
      <trkpt lat="45.14597" lon="5.37381">
        <ele>239.2</ele>
      </trkpt>
      <trkpt lat="45.14519" lon="5.37337">
        <ele>240.3</ele>
      </trkpt>
      <trkpt lat="45.145" lon="5.37324">
        <ele>239.4</ele>
      </trkpt>
      <trkpt lat="45.14481" lon="5.37307">
        <ele>238.6</ele>
      </trkpt>
      <trkpt lat="45.14463" lon="5.37289">
        <ele>238.2</ele>
      </trkpt>
      <trkpt lat="45.14239" lon="5.37025">
        <ele>234.3</ele>
      </trkpt>
      <trkpt lat="45.14226" lon="5.37008">
        <ele>234.4</ele>
      </trkpt>
      <trkpt lat="45.13873" lon="5.36591">
        <ele>224.9</ele>
      </trkpt>
      <trkpt lat="45.13829" lon="5.36549">
        <ele>224.1</ele>
      </trkpt>
      <trkpt lat="45.13754" lon="5.36486">
        <ele>221.5</ele>
      </trkpt>
      <trkpt lat="45.13746" lon="5.36478">
        <ele>221.4</ele>
      </trkpt>
      <trkpt lat="45.13679" lon="5.364">
        <ele>217</ele>
      </trkpt>
      <trkpt lat="45.13576" lon="5.36296">
        <ele>220.5</ele>
      </trkpt>
      <trkpt lat="45.13549" lon="5.36273">
        <ele>220.8</ele>
      </trkpt>
      <trkpt lat="45.1347" lon="5.36212">
        <ele>224.7</ele>
      </trkpt>
      <trkpt lat="45.13427" lon="5.36181">
        <ele>226</ele>
      </trkpt>
      <trkpt lat="45.13214" lon="5.36017">
        <ele>234.7</ele>
      </trkpt>
      <trkpt lat="45.13199" lon="5.36003">
        <ele>235.3</ele>
      </trkpt>
      <trkpt lat="45.13185" lon="5.35985">
        <ele>229.6</ele>
      </trkpt>
      <trkpt lat="45.13174" lon="5.35966">
        <ele>228.1</ele>
      </trkpt>
      <trkpt lat="45.13163" lon="5.3594">
        <ele>235</ele>
      </trkpt>
      <trkpt lat="45.13146" lon="5.35893">
        <ele>228.6</ele>
      </trkpt>
      <trkpt lat="45.13107" lon="5.35765">
        <ele>222.4</ele>
      </trkpt>
      <trkpt lat="45.13085" lon="5.35701">
        <ele>217.5</ele>
      </trkpt>
      <trkpt lat="45.13066" lon="5.35652">
        <ele>218.3</ele>
      </trkpt>
      <trkpt lat="45.13003" lon="5.35522">
        <ele>213.8</ele>
      </trkpt>
      <trkpt lat="45.12955" lon="5.3543">
        <ele>218</ele>
      </trkpt>
      <trkpt lat="45.12941" lon="5.35407">
        <ele>214.4</ele>
      </trkpt>
      <trkpt lat="45.12885" lon="5.35325">
        <ele>217.4</ele>
      </trkpt>
      <trkpt lat="45.12837" lon="5.35231">
        <ele>213.3</ele>
      </trkpt>
      <trkpt lat="45.12662" lon="5.34834">
        <ele>217.8</ele>
      </trkpt>
      <trkpt lat="45.12651" lon="5.34803">
        <ele>221.3</ele>
      </trkpt>
      <trkpt lat="45.12642" lon="5.34771">
        <ele>220.6</ele>
      </trkpt>
      <trkpt lat="45.12637" lon="5.34747">
        <ele>218.6</ele>
      </trkpt>
      <trkpt lat="45.12553" lon="5.34181">
        <ele>200.6</ele>
      </trkpt>
      <trkpt lat="45.12552" lon="5.3416">
        <ele>199.9</ele>
      </trkpt>
      <trkpt lat="45.12478" lon="5.337">
        <ele>205.1</ele>
      </trkpt>
      <trkpt lat="45.12469" lon="5.3367">
        <ele>205.5</ele>
      </trkpt>
      <trkpt lat="45.12458" lon="5.33643">
        <ele>205.4</ele>
      </trkpt>
      <trkpt lat="45.12437" lon="5.33606">
        <ele>205.7</ele>
      </trkpt>
      <trkpt lat="45.1243" lon="5.33598">
        <ele>206</ele>
      </trkpt>
      <trkpt lat="45.12389" lon="5.33559">
        <ele>207.9</ele>
      </trkpt>
      <trkpt lat="45.12284" lon="5.3347">
        <ele>208.4</ele>
      </trkpt>
      <trkpt lat="45.12208" lon="5.334">
        <ele>208.3</ele>
      </trkpt>
      <trkpt lat="45.12205" lon="5.33398">
        <ele>208.3</ele>
      </trkpt>
      <trkpt lat="45.12178" lon="5.33368">
        <ele>208.4</ele>
      </trkpt>
      <trkpt lat="45.12155" lon="5.33339">
        <ele>210.1</ele>
      </trkpt>
      <trkpt lat="45.11849" lon="5.32919">
        <ele>214.9</ele>
      </trkpt>
      <trkpt lat="45.11836" lon="5.32899">
        <ele>214.3</ele>
      </trkpt>
      <trkpt lat="45.1147" lon="5.32392">
        <ele>219.7</ele>
      </trkpt>
      <trkpt lat="45.1139" lon="5.3229">
        <ele>219.3</ele>
      </trkpt>
      <trkpt lat="45.11362" lon="5.3226">
        <ele>219.5</ele>
      </trkpt>
      <trkpt lat="45.11118" lon="5.32015">
        <ele>217.4</ele>
      </trkpt>
      <trkpt lat="45.11096" lon="5.31998">
        <ele>216.3</ele>
      </trkpt>
      <trkpt lat="45.11096" lon="5.31994">
        <ele>216.3</ele>
      </trkpt>
      <trkpt lat="45.11095" lon="5.31992">
        <ele>216.3</ele>
      </trkpt>
      <trkpt lat="45.11095" lon="5.3199">
        <ele>216.3</ele>
      </trkpt>
      <trkpt lat="45.11094" lon="5.31988">
        <ele>216.3</ele>
      </trkpt>
      <trkpt lat="45.11094" lon="5.31986">
        <ele>216.3</ele>
      </trkpt>
      <trkpt lat="45.11091" lon="5.3198">
        <ele>216.4</ele>
      </trkpt>
      <trkpt lat="45.11085" lon="5.31974">
        <ele>216.3</ele>
      </trkpt>
      <trkpt lat="45.11083" lon="5.31973">
        <ele>216.2</ele>
      </trkpt>
      <trkpt lat="45.11082" lon="5.31973">
        <ele>216.2</ele>
      </trkpt>
      <trkpt lat="45.1108" lon="5.31972">
        <ele>216.2</ele>
      </trkpt>
      <trkpt lat="45.11072" lon="5.31972">
        <ele>216.2</ele>
      </trkpt>
      <trkpt lat="45.1107" lon="5.31974">
        <ele>216.2</ele>
      </trkpt>
      <trkpt lat="45.11062" lon="5.31965">
        <ele>216.3</ele>
      </trkpt>
      <trkpt lat="45.11034" lon="5.31927">
        <ele>216.7</ele>
      </trkpt>
      <trkpt lat="45.09707" lon="5.30591">
        <ele>220.1</ele>
      </trkpt>
      <trkpt lat="45.09688" lon="5.3057">
        <ele>219.9</ele>
      </trkpt>
      <trkpt lat="45.09181" lon="5.3006">
        <ele>217.4</ele>
      </trkpt>
      <trkpt lat="45.09178" lon="5.30058">
        <ele>217.3</ele>
      </trkpt>
      <trkpt lat="45.09055" lon="5.29934">
        <ele>217.6</ele>
      </trkpt>
      <trkpt lat="45.0904" lon="5.29913">
        <ele>217.7</ele>
      </trkpt>
      <trkpt lat="45.09033" lon="5.29897">
        <ele>217.7</ele>
      </trkpt>
      <trkpt lat="45.09033" lon="5.29895">
        <ele>217.7</ele>
      </trkpt>
      <trkpt lat="45.09032" lon="5.29894">
        <ele>217.7</ele>
      </trkpt>
      <trkpt lat="45.09032" lon="5.2989">
        <ele>217.7</ele>
      </trkpt>
      <trkpt lat="45.09031" lon="5.29889">
        <ele>217.7</ele>
      </trkpt>
      <trkpt lat="45.09031" lon="5.29888">
        <ele>217.7</ele>
      </trkpt>
      <trkpt lat="45.0903" lon="5.29887">
        <ele>217.7</ele>
      </trkpt>
      <trkpt lat="45.0903" lon="5.29886">
        <ele>217.7</ele>
      </trkpt>
      <trkpt lat="45.09029" lon="5.29885">
        <ele>217.7</ele>
      </trkpt>
      <trkpt lat="45.09029" lon="5.29883">
        <ele>217.7</ele>
      </trkpt>
      <trkpt lat="45.09028" lon="5.29882">
        <ele>217.6</ele>
      </trkpt>
      <trkpt lat="45.09028" lon="5.29881">
        <ele>217.6</ele>
      </trkpt>
      <trkpt lat="45.09027" lon="5.2988">
        <ele>217.6</ele>
      </trkpt>
      <trkpt lat="45.09026" lon="5.2988">
        <ele>217.6</ele>
      </trkpt>
      <trkpt lat="45.09026" lon="5.29879">
        <ele>217.6</ele>
      </trkpt>
      <trkpt lat="45.09024" lon="5.29877">
        <ele>217.6</ele>
      </trkpt>
      <trkpt lat="45.09023" lon="5.29877">
        <ele>217.6</ele>
      </trkpt>
      <trkpt lat="45.09022" lon="5.29876">
        <ele>217.6</ele>
      </trkpt>
      <trkpt lat="45.09021" lon="5.29876">
        <ele>217.6</ele>
      </trkpt>
      <trkpt lat="45.09021" lon="5.29875">
        <ele>217.6</ele>
      </trkpt>
      <trkpt lat="45.09013" lon="5.29875">
        <ele>217.7</ele>
      </trkpt>
      <trkpt lat="45.09012" lon="5.29876">
        <ele>217.7</ele>
      </trkpt>
      <trkpt lat="45.09011" lon="5.29876">
        <ele>217.7</ele>
      </trkpt>
      <trkpt lat="45.09009" lon="5.29878">
        <ele>217.7</ele>
      </trkpt>
      <trkpt lat="45.09008" lon="5.29878">
        <ele>217.7</ele>
      </trkpt>
      <trkpt lat="45.09008" lon="5.29879">
        <ele>217.7</ele>
      </trkpt>
      <trkpt lat="45.08984" lon="5.29862">
        <ele>217.8</ele>
      </trkpt>
      <trkpt lat="45.08834" lon="5.29714">
        <ele>216.4</ele>
      </trkpt>
      <trkpt lat="45.0883" lon="5.29709">
        <ele>216.2</ele>
      </trkpt>
      <trkpt lat="45.08823" lon="5.29703">
        <ele>216.1</ele>
      </trkpt>
      <trkpt lat="45.08717" lon="5.29596">
        <ele>215.1</ele>
      </trkpt>
      <trkpt lat="45.0871" lon="5.2959">
        <ele>215</ele>
      </trkpt>
      <trkpt lat="45.08695" lon="5.29573">
        <ele>213.8</ele>
      </trkpt>
      <trkpt lat="45.0773" lon="5.28602">
        <ele>208.8</ele>
      </trkpt>
      <trkpt lat="45.07724" lon="5.28592">
        <ele>208.8</ele>
      </trkpt>
      <trkpt lat="45.07672" lon="5.28537">
        <ele>208.7</ele>
      </trkpt>
      <trkpt lat="45.07665" lon="5.28528">
        <ele>208.3</ele>
      </trkpt>
      <trkpt lat="45.0766" lon="5.2852">
        <ele>208.4</ele>
      </trkpt>
      <trkpt lat="45.07653" lon="5.28503">
        <ele>208.5</ele>
      </trkpt>
      <trkpt lat="45.07651" lon="5.28489">
        <ele>208.3</ele>
      </trkpt>
      <trkpt lat="45.07652" lon="5.28488">
        <ele>208.3</ele>
      </trkpt>
      <trkpt lat="45.07652" lon="5.28476">
        <ele>208.1</ele>
      </trkpt>
      <trkpt lat="45.07651" lon="5.28475">
        <ele>208.1</ele>
      </trkpt>
      <trkpt lat="45.07651" lon="5.28473">
        <ele>208.1</ele>
      </trkpt>
      <trkpt lat="45.0765" lon="5.28472">
        <ele>208.1</ele>
      </trkpt>
      <trkpt lat="45.0765" lon="5.28471">
        <ele>208.1</ele>
      </trkpt>
      <trkpt lat="45.07649" lon="5.28471">
        <ele>208.1</ele>
      </trkpt>
      <trkpt lat="45.07649" lon="5.28469">
        <ele>208</ele>
      </trkpt>
      <trkpt lat="45.07648" lon="5.28468">
        <ele>208</ele>
      </trkpt>
      <trkpt lat="45.07647" lon="5.28468">
        <ele>208</ele>
      </trkpt>
      <trkpt lat="45.07647" lon="5.28467">
        <ele>208</ele>
      </trkpt>
      <trkpt lat="45.07646" lon="5.28467">
        <ele>208</ele>
      </trkpt>
      <trkpt lat="45.07646" lon="5.28466">
        <ele>208</ele>
      </trkpt>
      <trkpt lat="45.07645" lon="5.28466">
        <ele>208</ele>
      </trkpt>
      <trkpt lat="45.07644" lon="5.28465">
        <ele>208</ele>
      </trkpt>
      <trkpt lat="45.07643" lon="5.28465">
        <ele>207.9</ele>
      </trkpt>
      <trkpt lat="45.07642" lon="5.28464">
        <ele>207.9</ele>
      </trkpt>
      <trkpt lat="45.07637" lon="5.28464">
        <ele>207.9</ele>
      </trkpt>
      <trkpt lat="45.07636" lon="5.28465">
        <ele>207.9</ele>
      </trkpt>
      <trkpt lat="45.07634" lon="5.28465">
        <ele>207.9</ele>
      </trkpt>
      <trkpt lat="45.07634" lon="5.28466">
        <ele>207.9</ele>
      </trkpt>
      <trkpt lat="45.07633" lon="5.28466">
        <ele>207.9</ele>
      </trkpt>
      <trkpt lat="45.07629" lon="5.2847">
        <ele>207.8</ele>
      </trkpt>
      <trkpt lat="45.07615" lon="5.2847">
        <ele>207.7</ele>
      </trkpt>
      <trkpt lat="45.07597" lon="5.28463">
        <ele>207.5</ele>
      </trkpt>
      <trkpt lat="45.07537" lon="5.28401">
        <ele>207.4</ele>
      </trkpt>
      <trkpt lat="45.0753" lon="5.28398">
        <ele>207.4</ele>
      </trkpt>
      <trkpt lat="45.07429" lon="5.28297">
        <ele>207.9</ele>
      </trkpt>
      <trkpt lat="45.07427" lon="5.28296">
        <ele>208</ele>
      </trkpt>
      <trkpt lat="45.07372" lon="5.28238">
        <ele>208.5</ele>
      </trkpt>
      <trkpt lat="45.0737" lon="5.28233">
        <ele>208.5</ele>
      </trkpt>
      <trkpt lat="45.07367" lon="5.28229">
        <ele>208.4</ele>
      </trkpt>
      <trkpt lat="45.07353" lon="5.28216">
        <ele>208.4</ele>
      </trkpt>
      <trkpt lat="45.07325" lon="5.28186">
        <ele>207.6</ele>
      </trkpt>
      <trkpt lat="45.07289" lon="5.28151">
        <ele>207.3</ele>
      </trkpt>
      <trkpt lat="45.07231" lon="5.28101">
        <ele>207.4</ele>
      </trkpt>
      <trkpt lat="45.07171" lon="5.28039">
        <ele>208.2</ele>
      </trkpt>
      <trkpt lat="45.06732" lon="5.2753">
        <ele>204.2</ele>
      </trkpt>
      <trkpt lat="45.06685" lon="5.27468">
        <ele>203.3</ele>
      </trkpt>
      <trkpt lat="45.06677" lon="5.27454">
        <ele>203.4</ele>
      </trkpt>
      <trkpt lat="45.06671" lon="5.27441">
        <ele>203.4</ele>
      </trkpt>
      <trkpt lat="45.06664" lon="5.27429">
        <ele>203.3</ele>
      </trkpt>
      <trkpt lat="45.06641" lon="5.27374">
        <ele>203.4</ele>
      </trkpt>
      <trkpt lat="45.06453" lon="5.26865">
        <ele>198</ele>
      </trkpt>
      <trkpt lat="45.06451" lon="5.26853">
        <ele>198</ele>
      </trkpt>
      <trkpt lat="45.06441" lon="5.2681">
        <ele>198.4</ele>
      </trkpt>
      <trkpt lat="45.06441" lon="5.26798">
        <ele>198.5</ele>
      </trkpt>
      <trkpt lat="45.0644" lon="5.26797">
        <ele>198.5</ele>
      </trkpt>
      <trkpt lat="45.0644" lon="5.26795">
        <ele>198.5</ele>
      </trkpt>
      <trkpt lat="45.06439" lon="5.26794">
        <ele>198.5</ele>
      </trkpt>
      <trkpt lat="45.06439" lon="5.26793">
        <ele>198.5</ele>
      </trkpt>
      <trkpt lat="45.06438" lon="5.26792">
        <ele>198.5</ele>
      </trkpt>
      <trkpt lat="45.06438" lon="5.26791">
        <ele>198.5</ele>
      </trkpt>
      <trkpt lat="45.06437" lon="5.26791">
        <ele>198.5</ele>
      </trkpt>
      <trkpt lat="45.06437" lon="5.2679">
        <ele>198.5</ele>
      </trkpt>
      <trkpt lat="45.06436" lon="5.2679">
        <ele>198.5</ele>
      </trkpt>
      <trkpt lat="45.06436" lon="5.26789">
        <ele>198.5</ele>
      </trkpt>
      <trkpt lat="45.06435" lon="5.26789">
        <ele>198.5</ele>
      </trkpt>
      <trkpt lat="45.06434" lon="5.26788">
        <ele>198.5</ele>
      </trkpt>
      <trkpt lat="45.06433" lon="5.26788">
        <ele>198.5</ele>
      </trkpt>
      <trkpt lat="45.06433" lon="5.26787">
        <ele>198.5</ele>
      </trkpt>
      <trkpt lat="45.06428" lon="5.26787">
        <ele>198.5</ele>
      </trkpt>
      <trkpt lat="45.06427" lon="5.26788">
        <ele>198.5</ele>
      </trkpt>
      <trkpt lat="45.06425" lon="5.26788">
        <ele>198.5</ele>
      </trkpt>
      <trkpt lat="45.06424" lon="5.26789">
        <ele>198.5</ele>
      </trkpt>
      <trkpt lat="45.06423" lon="5.26789">
        <ele>198.5</ele>
      </trkpt>
      <trkpt lat="45.06422" lon="5.2679">
        <ele>198.5</ele>
      </trkpt>
      <trkpt lat="45.06422" lon="5.26791">
        <ele>198.5</ele>
      </trkpt>
      <trkpt lat="45.06421" lon="5.26791">
        <ele>198.5</ele>
      </trkpt>
      <trkpt lat="45.06419" lon="5.26793">
        <ele>198.5</ele>
      </trkpt>
      <trkpt lat="45.06419" lon="5.26794">
        <ele>198.5</ele>
      </trkpt>
      <trkpt lat="45.06418" lon="5.26795">
        <ele>198.5</ele>
      </trkpt>
      <trkpt lat="45.06417" lon="5.26797">
        <ele>198.5</ele>
      </trkpt>
      <trkpt lat="45.06417" lon="5.26801">
        <ele>198.4</ele>
      </trkpt>
      <trkpt lat="45.06416" lon="5.26801">
        <ele>198.3</ele>
      </trkpt>
      <trkpt lat="45.06416" lon="5.26802">
        <ele>198.3</ele>
      </trkpt>
      <trkpt lat="45.06413" lon="5.26806">
        <ele>198.2</ele>
      </trkpt>
      <trkpt lat="45.06409" lon="5.26809">
        <ele>198.2</ele>
      </trkpt>
      <trkpt lat="45.0639" lon="5.26819">
        <ele>198.2</ele>
      </trkpt>
      <trkpt lat="45.06363" lon="5.26823">
        <ele>198.1</ele>
      </trkpt>
      <trkpt lat="45.06349" lon="5.26827">
        <ele>198.1</ele>
      </trkpt>
      <trkpt lat="45.06336" lon="5.26833">
        <ele>198</ele>
      </trkpt>
      <trkpt lat="45.06329" lon="5.26837">
        <ele>197.4</ele>
      </trkpt>
      <trkpt lat="45.06312" lon="5.26851">
        <ele>196.1</ele>
      </trkpt>
      <trkpt lat="45.0631" lon="5.26854">
        <ele>196</ele>
      </trkpt>
      <trkpt lat="45.06307" lon="5.26857">
        <ele>195.8</ele>
      </trkpt>
      <trkpt lat="45.06293" lon="5.26879">
        <ele>195.3</ele>
      </trkpt>
      <trkpt lat="45.06284" lon="5.26903">
        <ele>194.9</ele>
      </trkpt>
      <trkpt lat="45.06274" lon="5.26945">
        <ele>196.3</ele>
      </trkpt>
      <trkpt lat="45.0627" lon="5.26967">
        <ele>196.9</ele>
      </trkpt>
      <trkpt lat="45.06267" lon="5.26976">
        <ele>196.9</ele>
      </trkpt>
      <trkpt lat="45.06266" lon="5.26983">
        <ele>196.9</ele>
      </trkpt>
      <trkpt lat="45.06253" lon="5.27023">
        <ele>200.4</ele>
      </trkpt>
      <trkpt lat="45.06252" lon="5.27023">
        <ele>200.4</ele>
      </trkpt>
      <trkpt lat="45.06249" lon="5.27032">
        <ele>194.9</ele>
      </trkpt>
      <trkpt lat="45.06245" lon="5.27039">
        <ele>195</ele>
      </trkpt>
      <trkpt lat="45.0624" lon="5.27046">
        <ele>195.2</ele>
      </trkpt>
      <trkpt lat="45.06232" lon="5.27061">
        <ele>195.8</ele>
      </trkpt>
      <trkpt lat="45.06214" lon="5.27089">
        <ele>198.9</ele>
      </trkpt>
      <trkpt lat="45.06209" lon="5.27086">
        <ele>198.3</ele>
      </trkpt>
      <trkpt lat="45.06203" lon="5.27085">
        <ele>197.5</ele>
      </trkpt>
      <trkpt lat="45.06198" lon="5.27086">
        <ele>196.8</ele>
      </trkpt>
      <trkpt lat="45.06193" lon="5.27086">
        <ele>196</ele>
      </trkpt>
      <trkpt lat="45.06188" lon="5.27087">
        <ele>195.2</ele>
      </trkpt>
      <trkpt lat="45.06174" lon="5.27093">
        <ele>193</ele>
      </trkpt>
      <trkpt lat="45.06147" lon="5.27114">
        <ele>187.5</ele>
      </trkpt>
      <trkpt lat="45.06114" lon="5.27145">
        <ele>186</ele>
      </trkpt>
      <trkpt lat="45.06111" lon="5.27146">
        <ele>185.8</ele>
      </trkpt>
      <trkpt lat="45.06108" lon="5.27146">
        <ele>185.5</ele>
      </trkpt>
      <trkpt lat="45.06105" lon="5.27145">
        <ele>185.3</ele>
      </trkpt>
      <trkpt lat="45.06102" lon="5.27143">
        <ele>185.1</ele>
      </trkpt>
      <trkpt lat="45.061" lon="5.27141">
        <ele>185.1</ele>
      </trkpt>
      <trkpt lat="45.06098" lon="5.27136">
        <ele>185</ele>
      </trkpt>
      <trkpt lat="45.06098" lon="5.27126">
        <ele>184.9</ele>
      </trkpt>
      <trkpt lat="45.06103" lon="5.27072">
        <ele>182.1</ele>
      </trkpt>
      <trkpt lat="45.06104" lon="5.27048">
        <ele>182.4</ele>
      </trkpt>
      <trkpt lat="45.06106" lon="5.27043">
        <ele>182.5</ele>
      </trkpt>
      <trkpt lat="45.06107" lon="5.27043">
        <ele>182.5</ele>
      </trkpt>
      <trkpt lat="45.0611" lon="5.27042">
        <ele>182.6</ele>
      </trkpt>
      <trkpt lat="45.06125" lon="5.27043">
        <ele>183.3</ele>
      </trkpt>
      <trkpt lat="45.06137" lon="5.27046">
        <ele>183.9</ele>
      </trkpt>
      <trkpt lat="45.06142" lon="5.27048">
        <ele>184.1</ele>
      </trkpt>
      <trkpt lat="45.06146" lon="5.27049">
        <ele>184.4</ele>
      </trkpt>
      <trkpt lat="45.06153" lon="5.27056">
        <ele>185</ele>
      </trkpt>
      <trkpt lat="45.06162" lon="5.27068">
        <ele>186.3</ele>
      </trkpt>
      <trkpt lat="45.06169" lon="5.2707">
        <ele>190.5</ele>
      </trkpt>
      <trkpt lat="45.06177" lon="5.27067">
        <ele>191.1</ele>
      </trkpt>
      <trkpt lat="45.06184" lon="5.27062">
        <ele>191.6</ele>
      </trkpt>
      <trkpt lat="45.06188" lon="5.2706">
        <ele>191.9</ele>
      </trkpt>
      <trkpt lat="45.0619" lon="5.27062">
        <ele>192</ele>
      </trkpt>
      <trkpt lat="45.06194" lon="5.27086">
        <ele>196.2</ele>
      </trkpt>
      <trkpt lat="45.06198" lon="5.27086">
        <ele>196.8</ele>
      </trkpt>
      <trkpt lat="45.06203" lon="5.27085">
        <ele>197.5</ele>
      </trkpt>
      <trkpt lat="45.06209" lon="5.27086">
        <ele>198.3</ele>
      </trkpt>
      <trkpt lat="45.06214" lon="5.27089">
        <ele>198.9</ele>
      </trkpt>
      <trkpt lat="45.06141" lon="5.27205">
        <ele>192.3</ele>
      </trkpt>
      <trkpt lat="45.0613" lon="5.27228">
        <ele>192.1</ele>
      </trkpt>
      <trkpt lat="45.06124" lon="5.27244">
        <ele>191.7</ele>
      </trkpt>
      <trkpt lat="45.06105" lon="5.27315">
        <ele>194.7</ele>
      </trkpt>
      <trkpt lat="45.06079" lon="5.27482">
        <ele>185.1</ele>
      </trkpt>
      <trkpt lat="45.06079" lon="5.275">
        <ele>186.1</ele>
      </trkpt>
      <trkpt lat="45.06081" lon="5.27535">
        <ele>183.5</ele>
      </trkpt>
      <trkpt lat="45.06102" lon="5.27622">
        <ele>188.2</ele>
      </trkpt>
      <trkpt lat="45.06102" lon="5.27628">
        <ele>187.9</ele>
      </trkpt>
      <trkpt lat="45.06104" lon="5.27637">
        <ele>187.5</ele>
      </trkpt>
      <trkpt lat="45.06104" lon="5.27672">
        <ele>183.7</ele>
      </trkpt>
      <trkpt lat="45.06103" lon="5.27682">
        <ele>183.9</ele>
      </trkpt>
      <trkpt lat="45.06103" lon="5.27715">
        <ele>184.1</ele>
      </trkpt>
      <trkpt lat="45.06107" lon="5.27739">
        <ele>183.5</ele>
      </trkpt>
      <trkpt lat="45.06108" lon="5.27751">
        <ele>182.8</ele>
      </trkpt>
      <trkpt lat="45.06116" lon="5.278">
        <ele>184</ele>
      </trkpt>
      <trkpt lat="45.06127" lon="5.27845">
        <ele>184.5</ele>
      </trkpt>
      <trkpt lat="45.06135" lon="5.27864">
        <ele>185.3</ele>
      </trkpt>
      <trkpt lat="45.06148" lon="5.27888">
        <ele>186.6</ele>
      </trkpt>
      <trkpt lat="45.06154" lon="5.27905">
        <ele>188.5</ele>
      </trkpt>
      <trkpt lat="45.06155" lon="5.27915">
        <ele>189.5</ele>
      </trkpt>
      <trkpt lat="45.06155" lon="5.27935">
        <ele>188.7</ele>
      </trkpt>
      <trkpt lat="45.06154" lon="5.27945">
        <ele>188.2</ele>
      </trkpt>
      <trkpt lat="45.06154" lon="5.27956">
        <ele>188.3</ele>
      </trkpt>
      <trkpt lat="45.06151" lon="5.27973">
        <ele>189.2</ele>
      </trkpt>
      <trkpt lat="45.06151" lon="5.27977">
        <ele>189.6</ele>
      </trkpt>
      <trkpt lat="45.06097" lon="5.28292">
        <ele>202.4</ele>
      </trkpt>
      <trkpt lat="45.06085" lon="5.28331">
        <ele>191.1</ele>
      </trkpt>
      <trkpt lat="45.06079" lon="5.28362">
        <ele>184.2</ele>
      </trkpt>
      <trkpt lat="45.06074" lon="5.28414">
        <ele>185.1</ele>
      </trkpt>
      <trkpt lat="45.06071" lon="5.28476">
        <ele>182.2</ele>
      </trkpt>
      <trkpt lat="45.06076" lon="5.28519">
        <ele>181.7</ele>
      </trkpt>
      <trkpt lat="45.06082" lon="5.28547">
        <ele>180.6</ele>
      </trkpt>
      <trkpt lat="45.06123" lon="5.28707">
        <ele>185.6</ele>
      </trkpt>
      <trkpt lat="45.06136" lon="5.2875">
        <ele>185.7</ele>
      </trkpt>
      <trkpt lat="45.06152" lon="5.28787">
        <ele>181.4</ele>
      </trkpt>
      <trkpt lat="45.06169" lon="5.28816">
        <ele>187.8</ele>
      </trkpt>
      <trkpt lat="45.06182" lon="5.28841">
        <ele>184.1</ele>
      </trkpt>
      <trkpt lat="45.06196" lon="5.28864">
        <ele>186.5</ele>
      </trkpt>
      <trkpt lat="45.06213" lon="5.28896">
        <ele>187.1</ele>
      </trkpt>
      <trkpt lat="45.06218" lon="5.28903">
        <ele>187.4</ele>
      </trkpt>
      <trkpt lat="45.06222" lon="5.28913">
        <ele>187.7</ele>
      </trkpt>
      <trkpt lat="45.06232" lon="5.2893">
        <ele>184</ele>
      </trkpt>
      <trkpt lat="45.06238" lon="5.28936">
        <ele>184</ele>
      </trkpt>
      <trkpt lat="45.06244" lon="5.28944">
        <ele>183.2</ele>
      </trkpt>
      <trkpt lat="45.06254" lon="5.28955">
        <ele>189</ele>
      </trkpt>
      <trkpt lat="45.0626" lon="5.28959">
        <ele>188.8</ele>
      </trkpt>
      <trkpt lat="45.06266" lon="5.28964">
        <ele>188.6</ele>
      </trkpt>
      <trkpt lat="45.06274" lon="5.28967">
        <ele>188.9</ele>
      </trkpt>
      <trkpt lat="45.06284" lon="5.28972">
        <ele>189.3</ele>
      </trkpt>
      <trkpt lat="45.06294" lon="5.28976">
        <ele>189.8</ele>
      </trkpt>
      <trkpt lat="45.06314" lon="5.28986">
        <ele>190</ele>
      </trkpt>
      <trkpt lat="45.06321" lon="5.28992">
        <ele>189.5</ele>
      </trkpt>
      <trkpt lat="45.06335" lon="5.29002">
        <ele>188.4</ele>
      </trkpt>
      <trkpt lat="45.06347" lon="5.29016">
        <ele>190.1</ele>
      </trkpt>
      <trkpt lat="45.06365" lon="5.29041">
        <ele>190.6</ele>
      </trkpt>
      <trkpt lat="45.06376" lon="5.29063">
        <ele>190.4</ele>
      </trkpt>
      <trkpt lat="45.0638" lon="5.29077">
        <ele>190.4</ele>
      </trkpt>
      <trkpt lat="45.06385" lon="5.29089">
        <ele>187</ele>
      </trkpt>
      <trkpt lat="45.06407" lon="5.29195">
        <ele>186.4</ele>
      </trkpt>
      <trkpt lat="45.06409" lon="5.29219">
        <ele>185.3</ele>
      </trkpt>
      <trkpt lat="45.06409" lon="5.29274">
        <ele>184.2</ele>
      </trkpt>
      <trkpt lat="45.06406" lon="5.293">
        <ele>184.2</ele>
      </trkpt>
      <trkpt lat="45.06385" lon="5.29776">
        <ele>182.5</ele>
      </trkpt>
      <trkpt lat="45.06383" lon="5.29799">
        <ele>182.3</ele>
      </trkpt>
      <trkpt lat="45.06383" lon="5.2986">
        <ele>183.5</ele>
      </trkpt>
      <trkpt lat="45.06378" lon="5.29976">
        <ele>187.2</ele>
      </trkpt>
      <trkpt lat="45.06373" lon="5.30023">
        <ele>189.6</ele>
      </trkpt>
      <trkpt lat="45.06366" lon="5.30053">
        <ele>189.9</ele>
      </trkpt>
      <trkpt lat="45.06293" lon="5.30217">
        <ele>190.7</ele>
      </trkpt>
      <trkpt lat="45.06283" lon="5.30249">
        <ele>190.3</ele>
      </trkpt>
      <trkpt lat="45.06283" lon="5.30251">
        <ele>191.9</ele>
      </trkpt>
      <trkpt lat="45.06274" lon="5.30282">
        <ele>192</ele>
      </trkpt>
      <trkpt lat="45.06263" lon="5.30338">
        <ele>194.1</ele>
      </trkpt>
      <trkpt lat="45.06258" lon="5.30354">
        <ele>195.3</ele>
      </trkpt>
      <trkpt lat="45.06212" lon="5.30437">
        <ele>197.2</ele>
      </trkpt>
      <trkpt lat="45.06167" lon="5.30512">
        <ele>201</ele>
      </trkpt>
      <trkpt lat="45.06156" lon="5.30551">
        <ele>195.2</ele>
      </trkpt>
      <trkpt lat="45.06153" lon="5.30567">
        <ele>197.4</ele>
      </trkpt>
      <trkpt lat="45.06149" lon="5.30579">
        <ele>198.1</ele>
      </trkpt>
      <trkpt lat="45.06141" lon="5.30598">
        <ele>200.5</ele>
      </trkpt>
      <trkpt lat="45.06107" lon="5.30669">
        <ele>203.5</ele>
      </trkpt>
      <trkpt lat="45.06094" lon="5.30693">
        <ele>204.8</ele>
      </trkpt>
      <trkpt lat="45.06065" lon="5.30738">
        <ele>201.9</ele>
      </trkpt>
      <trkpt lat="45.06049" lon="5.30758">
        <ele>211.6</ele>
      </trkpt>
      <trkpt lat="45.06025" lon="5.3078">
        <ele>211</ele>
      </trkpt>
      <trkpt lat="45.06012" lon="5.30788">
        <ele>211.4</ele>
      </trkpt>
      <trkpt lat="45.06002" lon="5.30797">
        <ele>212.9</ele>
      </trkpt>
      <trkpt lat="45.05979" lon="5.30815">
        <ele>207.4</ele>
      </trkpt>
      <trkpt lat="45.05965" lon="5.30823">
        <ele>206.2</ele>
      </trkpt>
      <trkpt lat="45.05952" lon="5.30829">
        <ele>205.2</ele>
      </trkpt>
      <trkpt lat="45.05935" lon="5.30832">
        <ele>205</ele>
      </trkpt>
      <trkpt lat="45.0592" lon="5.30836">
        <ele>209.9</ele>
      </trkpt>
      <trkpt lat="45.05912" lon="5.30839">
        <ele>209.5</ele>
      </trkpt>
      <trkpt lat="45.0591" lon="5.30839">
        <ele>209.9</ele>
      </trkpt>
      <trkpt lat="45.05899" lon="5.30845">
        <ele>212.3</ele>
      </trkpt>
      <trkpt lat="45.05887" lon="5.30854">
        <ele>213.9</ele>
      </trkpt>
      <trkpt lat="45.05875" lon="5.30865">
        <ele>215.2</ele>
      </trkpt>
      <trkpt lat="45.05864" lon="5.30871">
        <ele>215.6</ele>
      </trkpt>
      <trkpt lat="45.05851" lon="5.30876">
        <ele>216.1</ele>
      </trkpt>
      <trkpt lat="45.05837" lon="5.30877">
        <ele>216</ele>
      </trkpt>
      <trkpt lat="45.0582" lon="5.30875">
        <ele>215.8</ele>
      </trkpt>
      <trkpt lat="45.05803" lon="5.30867">
        <ele>215</ele>
      </trkpt>
      <trkpt lat="45.05781" lon="5.30853">
        <ele>214</ele>
      </trkpt>
      <trkpt lat="45.05718" lon="5.30829">
        <ele>204.1</ele>
      </trkpt>
      <trkpt lat="45.05702" lon="5.30824">
        <ele>204.7</ele>
      </trkpt>
      <trkpt lat="45.0569" lon="5.30822">
        <ele>206.3</ele>
      </trkpt>
      <trkpt lat="45.05676" lon="5.30822">
        <ele>209.4</ele>
      </trkpt>
      <trkpt lat="45.05659" lon="5.30824">
        <ele>210.1</ele>
      </trkpt>
      <trkpt lat="45.05642" lon="5.30829">
        <ele>206.2</ele>
      </trkpt>
      <trkpt lat="45.05607" lon="5.30844">
        <ele>213.6</ele>
      </trkpt>
      <trkpt lat="45.05581" lon="5.3086">
        <ele>206</ele>
      </trkpt>
      <trkpt lat="45.05562" lon="5.30882">
        <ele>208.1</ele>
      </trkpt>
      <trkpt lat="45.05552" lon="5.30902">
        <ele>209.3</ele>
      </trkpt>
      <trkpt lat="45.05506" lon="5.31016">
        <ele>218.4</ele>
      </trkpt>
      <trkpt lat="45.05499" lon="5.31031">
        <ele>209.8</ele>
      </trkpt>
      <trkpt lat="45.0548" lon="5.3109">
        <ele>215.9</ele>
      </trkpt>
      <trkpt lat="45.05469" lon="5.31135">
        <ele>214.7</ele>
      </trkpt>
      <trkpt lat="45.05465" lon="5.31159">
        <ele>215.2</ele>
      </trkpt>
      <trkpt lat="45.05461" lon="5.31251">
        <ele>219.2</ele>
      </trkpt>
      <trkpt lat="45.05457" lon="5.31294">
        <ele>218.8</ele>
      </trkpt>
      <trkpt lat="45.05458" lon="5.31323">
        <ele>219.3</ele>
      </trkpt>
      <trkpt lat="45.05466" lon="5.31362">
        <ele>219.6</ele>
      </trkpt>
      <trkpt lat="45.05473" lon="5.31384">
        <ele>219.7</ele>
      </trkpt>
      <trkpt lat="45.05514" lon="5.31492">
        <ele>225.3</ele>
      </trkpt>
      <trkpt lat="45.0552" lon="5.31513">
        <ele>225.5</ele>
      </trkpt>
      <trkpt lat="45.05522" lon="5.31524">
        <ele>226.1</ele>
      </trkpt>
      <trkpt lat="45.05526" lon="5.31539">
        <ele>226.5</ele>
      </trkpt>
      <trkpt lat="45.05528" lon="5.31558">
        <ele>226.2</ele>
      </trkpt>
      <trkpt lat="45.05529" lon="5.31629">
        <ele>226</ele>
      </trkpt>
      <trkpt lat="45.05527" lon="5.31707">
        <ele>225.5</ele>
      </trkpt>
      <trkpt lat="45.05523" lon="5.31757">
        <ele>222.6</ele>
      </trkpt>
      <trkpt lat="45.05523" lon="5.31777">
        <ele>223</ele>
      </trkpt>
      <trkpt lat="45.05526" lon="5.31807">
        <ele>222.9</ele>
      </trkpt>
      <trkpt lat="45.0553" lon="5.3182">
        <ele>222.8</ele>
      </trkpt>
      <trkpt lat="45.05535" lon="5.3183">
        <ele>223</ele>
      </trkpt>
      <trkpt lat="45.05544" lon="5.31841">
        <ele>219.1</ele>
      </trkpt>
      <trkpt lat="45.05551" lon="5.31847">
        <ele>219.2</ele>
      </trkpt>
      <trkpt lat="45.05566" lon="5.31854">
        <ele>219.6</ele>
      </trkpt>
      <trkpt lat="45.05631" lon="5.31874">
        <ele>221.2</ele>
      </trkpt>
      <trkpt lat="45.05641" lon="5.31878">
        <ele>221.1</ele>
      </trkpt>
      <trkpt lat="45.05662" lon="5.31884">
        <ele>220.7</ele>
      </trkpt>
      <trkpt lat="45.05697" lon="5.31899">
        <ele>224.6</ele>
      </trkpt>
      <trkpt lat="45.05713" lon="5.31909">
        <ele>225.7</ele>
      </trkpt>
      <trkpt lat="45.05732" lon="5.31923">
        <ele>220.8</ele>
      </trkpt>
      <trkpt lat="45.0574" lon="5.31938">
        <ele>219.6</ele>
      </trkpt>
      <trkpt lat="45.05756" lon="5.31962">
        <ele>225.7</ele>
      </trkpt>
      <trkpt lat="45.0577" lon="5.31986">
        <ele>224</ele>
      </trkpt>
      <trkpt lat="45.0579" lon="5.32015">
        <ele>219</ele>
      </trkpt>
      <trkpt lat="45.05803" lon="5.32037">
        <ele>219.1</ele>
      </trkpt>
      <trkpt lat="45.05806" lon="5.32041">
        <ele>219.1</ele>
      </trkpt>
      <trkpt lat="45.05813" lon="5.32055">
        <ele>219.2</ele>
      </trkpt>
      <trkpt lat="45.05818" lon="5.32069">
        <ele>220</ele>
      </trkpt>
      <trkpt lat="45.0582" lon="5.32085">
        <ele>217.9</ele>
      </trkpt>
      <trkpt lat="45.0582" lon="5.32114">
        <ele>214</ele>
      </trkpt>
      <trkpt lat="45.05815" lon="5.32154">
        <ele>213.4</ele>
      </trkpt>
      <trkpt lat="45.05814" lon="5.32176">
        <ele>212.5</ele>
      </trkpt>
      <trkpt lat="45.05815" lon="5.32193">
        <ele>211.4</ele>
      </trkpt>
      <trkpt lat="45.05819" lon="5.32208">
        <ele>211.3</ele>
      </trkpt>
      <trkpt lat="45.05827" lon="5.32224">
        <ele>212.4</ele>
      </trkpt>
      <trkpt lat="45.05838" lon="5.32239">
        <ele>220.4</ele>
      </trkpt>
      <trkpt lat="45.05851" lon="5.32251">
        <ele>219.9</ele>
      </trkpt>
      <trkpt lat="45.05866" lon="5.32267">
        <ele>221.1</ele>
      </trkpt>
      <trkpt lat="45.05874" lon="5.32278">
        <ele>221.5</ele>
      </trkpt>
      <trkpt lat="45.05882" lon="5.32295">
        <ele>221.6</ele>
      </trkpt>
      <trkpt lat="45.05883" lon="5.32296">
        <ele>221.7</ele>
      </trkpt>
      <trkpt lat="45.0589" lon="5.32314">
        <ele>221.9</ele>
      </trkpt>
      <trkpt lat="45.05895" lon="5.32338">
        <ele>220.7</ele>
      </trkpt>
      <trkpt lat="45.05899" lon="5.32365">
        <ele>219.8</ele>
      </trkpt>
      <trkpt lat="45.05901" lon="5.32392">
        <ele>219.8</ele>
      </trkpt>
      <trkpt lat="45.05901" lon="5.32492">
        <ele>219.7</ele>
      </trkpt>
      <trkpt lat="45.05899" lon="5.32536">
        <ele>218.4</ele>
      </trkpt>
      <trkpt lat="45.05887" lon="5.32596">
        <ele>216.8</ele>
      </trkpt>
      <trkpt lat="45.05886" lon="5.3262">
        <ele>215.8</ele>
      </trkpt>
      <trkpt lat="45.05887" lon="5.32631">
        <ele>215.4</ele>
      </trkpt>
      <trkpt lat="45.05893" lon="5.32643">
        <ele>215.4</ele>
      </trkpt>
      <trkpt lat="45.059" lon="5.32652">
        <ele>215.5</ele>
      </trkpt>
      <trkpt lat="45.05906" lon="5.32656">
        <ele>215.7</ele>
      </trkpt>
      <trkpt lat="45.05924" lon="5.32663">
        <ele>218.2</ele>
      </trkpt>
      <trkpt lat="45.05953" lon="5.32672">
        <ele>217.5</ele>
      </trkpt>
      <trkpt lat="45.05967" lon="5.32681">
        <ele>218.4</ele>
      </trkpt>
      <trkpt lat="45.05984" lon="5.32696">
        <ele>218.8</ele>
      </trkpt>
      <trkpt lat="45.06004" lon="5.32718">
        <ele>224.1</ele>
      </trkpt>
      <trkpt lat="45.06026" lon="5.32748">
        <ele>223.7</ele>
      </trkpt>
      <trkpt lat="45.06041" lon="5.32773">
        <ele>221</ele>
      </trkpt>
      <trkpt lat="45.06054" lon="5.32799">
        <ele>221</ele>
      </trkpt>
      <trkpt lat="45.06067" lon="5.32834">
        <ele>219.4</ele>
      </trkpt>
      <trkpt lat="45.06074" lon="5.32867">
        <ele>217.4</ele>
      </trkpt>
      <trkpt lat="45.06075" lon="5.32886">
        <ele>216.9</ele>
      </trkpt>
      <trkpt lat="45.06074" lon="5.32929">
        <ele>215.7</ele>
      </trkpt>
      <trkpt lat="45.06075" lon="5.32951">
        <ele>213.4</ele>
      </trkpt>
      <trkpt lat="45.06077" lon="5.32968">
        <ele>213</ele>
      </trkpt>
      <trkpt lat="45.06082" lon="5.32987">
        <ele>214</ele>
      </trkpt>
      <trkpt lat="45.0609" lon="5.3301">
        <ele>219.4</ele>
      </trkpt>
      <trkpt lat="45.06109" lon="5.33055">
        <ele>221.6</ele>
      </trkpt>
      <trkpt lat="45.06115" lon="5.33074">
        <ele>221.3</ele>
      </trkpt>
      <trkpt lat="45.06122" lon="5.33102">
        <ele>217.8</ele>
      </trkpt>
      <trkpt lat="45.06129" lon="5.33138">
        <ele>217.7</ele>
      </trkpt>
      <trkpt lat="45.06136" lon="5.33162">
        <ele>218.7</ele>
      </trkpt>
      <trkpt lat="45.06138" lon="5.33173">
        <ele>215.1</ele>
      </trkpt>
      <trkpt lat="45.06179" lon="5.33301">
        <ele>221.1</ele>
      </trkpt>
      <trkpt lat="45.0618" lon="5.33301">
        <ele>221.2</ele>
      </trkpt>
      <trkpt lat="45.06188" lon="5.33322">
        <ele>219.6</ele>
      </trkpt>
      <trkpt lat="45.06189" lon="5.33323">
        <ele>219.8</ele>
      </trkpt>
      <trkpt lat="45.062" lon="5.33347">
        <ele>214.7</ele>
      </trkpt>
      <trkpt lat="45.06212" lon="5.33369">
        <ele>215</ele>
      </trkpt>
      <trkpt lat="45.06249" lon="5.33424">
        <ele>210.8</ele>
      </trkpt>
      <trkpt lat="45.06254" lon="5.33429">
        <ele>213</ele>
      </trkpt>
      <trkpt lat="45.06256" lon="5.33429">
        <ele>213</ele>
      </trkpt>
      <trkpt lat="45.06261" lon="5.33424">
        <ele>213.3</ele>
      </trkpt>
      <trkpt lat="45.06266" lon="5.3343">
        <ele>213.4</ele>
      </trkpt>
      <trkpt lat="45.06272" lon="5.33433">
        <ele>213.7</ele>
      </trkpt>
      <trkpt lat="45.06278" lon="5.33435">
        <ele>214.1</ele>
      </trkpt>
      <trkpt lat="45.06299" lon="5.3344">
        <ele>216.1</ele>
      </trkpt>
      <trkpt lat="45.06311" lon="5.33439">
        <ele>218.3</ele>
      </trkpt>
      <trkpt lat="45.06331" lon="5.33442">
        <ele>220.2</ele>
      </trkpt>
      <trkpt lat="45.06342" lon="5.33446">
        <ele>230.2</ele>
      </trkpt>
      <trkpt lat="45.0635" lon="5.33448">
        <ele>230.3</ele>
      </trkpt>
      <trkpt lat="45.06368" lon="5.33458">
        <ele>230.3</ele>
      </trkpt>
      <trkpt lat="45.06386" lon="5.33472">
        <ele>230.2</ele>
      </trkpt>
      <trkpt lat="45.064" lon="5.33485">
        <ele>229.4</ele>
      </trkpt>
      <trkpt lat="45.06433" lon="5.33521">
        <ele>228.1</ele>
      </trkpt>
      <trkpt lat="45.0644" lon="5.3353">
        <ele>227.9</ele>
      </trkpt>
      <trkpt lat="45.06443" lon="5.33535">
        <ele>227.5</ele>
      </trkpt>
      <trkpt lat="45.06443" lon="5.33536">
        <ele>227.3</ele>
      </trkpt>
      <trkpt lat="45.06444" lon="5.33539">
        <ele>226.8</ele>
      </trkpt>
      <trkpt lat="45.06447" lon="5.33545">
        <ele>226.1</ele>
      </trkpt>
      <trkpt lat="45.06451" lon="5.33565">
        <ele>222.6</ele>
      </trkpt>
      <trkpt lat="45.06445" lon="5.33598">
        <ele>206.3</ele>
      </trkpt>
      <trkpt lat="45.06437" lon="5.33627">
        <ele>205.4</ele>
      </trkpt>
      <trkpt lat="45.06417" lon="5.33679">
        <ele>202.3</ele>
      </trkpt>
      <trkpt lat="45.0641" lon="5.33692">
        <ele>200.8</ele>
      </trkpt>
      <trkpt lat="45.0641" lon="5.33693">
        <ele>200.8</ele>
      </trkpt>
      <trkpt lat="45.06344" lon="5.33814">
        <ele>204</ele>
      </trkpt>
      <trkpt lat="45.06326" lon="5.33844">
        <ele>203.4</ele>
      </trkpt>
      <trkpt lat="45.06306" lon="5.33885">
        <ele>203.5</ele>
      </trkpt>
      <trkpt lat="45.06248" lon="5.34043">
        <ele>206.2</ele>
      </trkpt>
      <trkpt lat="45.06235" lon="5.34084">
        <ele>207.8</ele>
      </trkpt>
      <trkpt lat="45.06221" lon="5.34148">
        <ele>208.4</ele>
      </trkpt>
      <trkpt lat="45.06216" lon="5.34179">
        <ele>209.6</ele>
      </trkpt>
      <trkpt lat="45.06206" lon="5.3422">
        <ele>209.2</ele>
      </trkpt>
      <trkpt lat="45.06186" lon="5.34284">
        <ele>212.9</ele>
      </trkpt>
      <trkpt lat="45.06171" lon="5.3432">
        <ele>213.4</ele>
      </trkpt>
      <trkpt lat="45.06166" lon="5.34328">
        <ele>210.3</ele>
      </trkpt>
      <trkpt lat="45.06151" lon="5.34348">
        <ele>211.3</ele>
      </trkpt>
      <trkpt lat="45.06132" lon="5.34384">
        <ele>211.6</ele>
      </trkpt>
      <trkpt lat="45.06121" lon="5.34409">
        <ele>210.9</ele>
      </trkpt>
      <trkpt lat="45.06119" lon="5.34416">
        <ele>210.6</ele>
      </trkpt>
      <trkpt lat="45.0611" lon="5.34439">
        <ele>215.4</ele>
      </trkpt>
      <trkpt lat="45.06102" lon="5.34467">
        <ele>215.9</ele>
      </trkpt>
      <trkpt lat="45.06102" lon="5.3447">
        <ele>215.9</ele>
      </trkpt>
      <trkpt lat="45.06097" lon="5.34506">
        <ele>218.3</ele>
      </trkpt>
      <trkpt lat="45.06097" lon="5.34518">
        <ele>221.7</ele>
      </trkpt>
      <trkpt lat="45.06094" lon="5.3455">
        <ele>226.4</ele>
      </trkpt>
      <trkpt lat="45.06088" lon="5.34577">
        <ele>221.9</ele>
      </trkpt>
      <trkpt lat="45.06086" lon="5.34594">
        <ele>229.5</ele>
      </trkpt>
      <trkpt lat="45.06082" lon="5.34604">
        <ele>227.4</ele>
      </trkpt>
      <trkpt lat="45.06076" lon="5.34615">
        <ele>230.5</ele>
      </trkpt>
      <trkpt lat="45.06054" lon="5.34636">
        <ele>235</ele>
      </trkpt>
      <trkpt lat="45.06049" lon="5.34648">
        <ele>236.3</ele>
      </trkpt>
      <trkpt lat="45.06045" lon="5.34668">
        <ele>249.8</ele>
      </trkpt>
      <trkpt lat="45.06045" lon="5.34672">
        <ele>250.1</ele>
      </trkpt>
      <trkpt lat="45.06043" lon="5.34675">
        <ele>250.4</ele>
      </trkpt>
      <trkpt lat="45.06041" lon="5.34676">
        <ele>250.6</ele>
      </trkpt>
      <trkpt lat="45.0604" lon="5.34677">
        <ele>250.7</ele>
      </trkpt>
      <trkpt lat="45.06038" lon="5.34678">
        <ele>250.8</ele>
      </trkpt>
      <trkpt lat="45.06034" lon="5.34678">
        <ele>250.9</ele>
      </trkpt>
      <trkpt lat="45.06052" lon="5.34724">
        <ele>255.2</ele>
      </trkpt>
      <trkpt lat="45.06053" lon="5.34729">
        <ele>255.6</ele>
      </trkpt>
      <trkpt lat="45.06056" lon="5.34732">
        <ele>255.7</ele>
      </trkpt>
      <trkpt lat="45.06064" lon="5.34743">
        <ele>256.1</ele>
      </trkpt>
      <trkpt lat="45.06066" lon="5.34744">
        <ele>256.1</ele>
      </trkpt>
      <trkpt lat="45.06118" lon="5.34807">
        <ele>287.3</ele>
      </trkpt>
      <trkpt lat="45.06151" lon="5.34842">
        <ele>305.8</ele>
      </trkpt>
      <trkpt lat="45.06172" lon="5.34867">
        <ele>306.9</ele>
      </trkpt>
      <trkpt lat="45.06194" lon="5.34889">
        <ele>316.3</ele>
      </trkpt>
      <trkpt lat="45.06209" lon="5.34899">
        <ele>316.9</ele>
      </trkpt>
      <trkpt lat="45.06223" lon="5.34906">
        <ele>317.2</ele>
      </trkpt>
      <trkpt lat="45.06226" lon="5.34907">
        <ele>317.4</ele>
      </trkpt>
      <trkpt lat="45.0626" lon="5.34924">
        <ele>351.8</ele>
      </trkpt>
      <trkpt lat="45.0627" lon="5.3493">
        <ele>368.1</ele>
      </trkpt>
      <trkpt lat="45.06284" lon="5.34936">
        <ele>380.7</ele>
      </trkpt>
      <trkpt lat="45.06302" lon="5.34947">
        <ele>391</ele>
      </trkpt>
      <trkpt lat="45.0631" lon="5.34954">
        <ele>395.4</ele>
      </trkpt>
      <trkpt lat="45.06314" lon="5.34956">
        <ele>396.9</ele>
      </trkpt>
      <trkpt lat="45.06337" lon="5.34977">
        <ele>432.7</ele>
      </trkpt>
      <trkpt lat="45.06349" lon="5.34986">
        <ele>435.9</ele>
      </trkpt>
      <trkpt lat="45.06365" lon="5.35001">
        <ele>441</ele>
      </trkpt>
      <trkpt lat="45.06375" lon="5.35012">
        <ele>441.9</ele>
      </trkpt>
      <trkpt lat="45.06383" lon="5.35024">
        <ele>440.8</ele>
      </trkpt>
      <trkpt lat="45.06395" lon="5.35052">
        <ele>429.7</ele>
      </trkpt>
      <trkpt lat="45.0641" lon="5.35093">
        <ele>378</ele>
      </trkpt>
      <trkpt lat="45.0642" lon="5.35127">
        <ele>352.9</ele>
      </trkpt>
      <trkpt lat="45.06448" lon="5.35192">
        <ele>271.8</ele>
      </trkpt>
      <trkpt lat="45.06456" lon="5.35216">
        <ele>270.7</ele>
      </trkpt>
      <trkpt lat="45.06472" lon="5.35275">
        <ele>263.7</ele>
      </trkpt>
      <trkpt lat="45.06489" lon="5.35328">
        <ele>249.5</ele>
      </trkpt>
      <trkpt lat="45.06491" lon="5.3534">
        <ele>246.2</ele>
      </trkpt>
      <trkpt lat="45.06494" lon="5.35375">
        <ele>251.1</ele>
      </trkpt>
      <trkpt lat="45.06496" lon="5.35383">
        <ele>250.1</ele>
      </trkpt>
      <trkpt lat="45.06499" lon="5.35391">
        <ele>248.3</ele>
      </trkpt>
      <trkpt lat="45.06505" lon="5.354">
        <ele>241.6</ele>
      </trkpt>
      <trkpt lat="45.06514" lon="5.35408">
        <ele>241.7</ele>
      </trkpt>
      <trkpt lat="45.0653" lon="5.35415">
        <ele>245.7</ele>
      </trkpt>
      <trkpt lat="45.06538" lon="5.3542">
        <ele>243.3</ele>
      </trkpt>
      <trkpt lat="45.06541" lon="5.35424">
        <ele>243.9</ele>
      </trkpt>
      <trkpt lat="45.06542" lon="5.35428">
        <ele>244</ele>
      </trkpt>
      <trkpt lat="45.06543" lon="5.3543">
        <ele>244.2</ele>
      </trkpt>
      <trkpt lat="45.06543" lon="5.35433">
        <ele>244.1</ele>
      </trkpt>
      <trkpt lat="45.06546" lon="5.35448">
        <ele>244</ele>
      </trkpt>
      <trkpt lat="45.06546" lon="5.35464">
        <ele>243.4</ele>
      </trkpt>
      <trkpt lat="45.06544" lon="5.35475">
        <ele>242.8</ele>
      </trkpt>
      <trkpt lat="45.06532" lon="5.35521">
        <ele>241.4</ele>
      </trkpt>
      <trkpt lat="45.06526" lon="5.3555">
        <ele>242.2</ele>
      </trkpt>
      <trkpt lat="45.06517" lon="5.35607">
        <ele>246.8</ele>
      </trkpt>
      <trkpt lat="45.06512" lon="5.35625">
        <ele>247.9</ele>
      </trkpt>
      <trkpt lat="45.06506" lon="5.35659">
        <ele>245.8</ele>
      </trkpt>
      <trkpt lat="45.06507" lon="5.35682">
        <ele>246.7</ele>
      </trkpt>
      <trkpt lat="45.06509" lon="5.35697">
        <ele>247.7</ele>
      </trkpt>
      <trkpt lat="45.06518" lon="5.35725">
        <ele>247.4</ele>
      </trkpt>
      <trkpt lat="45.06524" lon="5.35734">
        <ele>247.3</ele>
      </trkpt>
      <trkpt lat="45.06533" lon="5.35744">
        <ele>247.7</ele>
      </trkpt>
      <trkpt lat="45.06543" lon="5.35753">
        <ele>243.3</ele>
      </trkpt>
      <trkpt lat="45.06558" lon="5.3576">
        <ele>244</ele>
      </trkpt>
      <trkpt lat="45.06565" lon="5.35762">
        <ele>244.4</ele>
      </trkpt>
      <trkpt lat="45.06569" lon="5.35766">
        <ele>244.3</ele>
      </trkpt>
      <trkpt lat="45.06571" lon="5.35767">
        <ele>244.3</ele>
      </trkpt>
      <trkpt lat="45.06585" lon="5.35771">
        <ele>251.3</ele>
      </trkpt>
      <trkpt lat="45.06602" lon="5.35779">
        <ele>253</ele>
      </trkpt>
      <trkpt lat="45.06613" lon="5.35787">
        <ele>254</ele>
      </trkpt>
      <trkpt lat="45.06623" lon="5.35798">
        <ele>254.5</ele>
      </trkpt>
      <trkpt lat="45.06632" lon="5.3582">
        <ele>253.9</ele>
      </trkpt>
      <trkpt lat="45.06645" lon="5.35863">
        <ele>247</ele>
      </trkpt>
      <trkpt lat="45.06647" lon="5.35872">
        <ele>246.5</ele>
      </trkpt>
      <trkpt lat="45.06648" lon="5.35881">
        <ele>246.1</ele>
      </trkpt>
      <trkpt lat="45.0665" lon="5.3589">
        <ele>245.9</ele>
      </trkpt>
      <trkpt lat="45.06652" lon="5.35909">
        <ele>245.9</ele>
      </trkpt>
      <trkpt lat="45.06654" lon="5.35912">
        <ele>246.1</ele>
      </trkpt>
      <trkpt lat="45.06657" lon="5.3597">
        <ele>242.9</ele>
      </trkpt>
      <trkpt lat="45.06659" lon="5.35987">
        <ele>242.1</ele>
      </trkpt>
      <trkpt lat="45.0666" lon="5.36012">
        <ele>242.1</ele>
      </trkpt>
      <trkpt lat="45.06659" lon="5.36032">
        <ele>242.8</ele>
      </trkpt>
      <trkpt lat="45.06654" lon="5.3608">
        <ele>241.8</ele>
      </trkpt>
      <trkpt lat="45.06609" lon="5.36329">
        <ele>248.7</ele>
      </trkpt>
      <trkpt lat="45.06608" lon="5.36352">
        <ele>250</ele>
      </trkpt>
      <trkpt lat="45.0661" lon="5.36379">
        <ele>250.8</ele>
      </trkpt>
      <trkpt lat="45.06627" lon="5.36493">
        <ele>246.2</ele>
      </trkpt>
      <trkpt lat="45.06629" lon="5.36502">
        <ele>242.6</ele>
      </trkpt>
      <trkpt lat="45.0663" lon="5.36511">
        <ele>242.5</ele>
      </trkpt>
      <trkpt lat="45.06634" lon="5.36525">
        <ele>242.6</ele>
      </trkpt>
      <trkpt lat="45.06638" lon="5.36532">
        <ele>242.7</ele>
      </trkpt>
      <trkpt lat="45.06642" lon="5.36537">
        <ele>242.7</ele>
      </trkpt>
      <trkpt lat="45.06664" lon="5.36554">
        <ele>243.1</ele>
      </trkpt>
      <trkpt lat="45.06681" lon="5.3657">
        <ele>251.9</ele>
      </trkpt>
      <trkpt lat="45.06686" lon="5.36577">
        <ele>252.3</ele>
      </trkpt>
      <trkpt lat="45.06706" lon="5.36617">
        <ele>254</ele>
      </trkpt>
      <trkpt lat="45.06719" lon="5.36655">
        <ele>256.1</ele>
      </trkpt>
      <trkpt lat="45.06723" lon="5.36676">
        <ele>255.4</ele>
      </trkpt>
      <trkpt lat="45.06724" lon="5.36686">
        <ele>255</ele>
      </trkpt>
      <trkpt lat="45.06724" lon="5.36717">
        <ele>253.8</ele>
      </trkpt>
      <trkpt lat="45.06721" lon="5.36748">
        <ele>253.9</ele>
      </trkpt>
      <trkpt lat="45.06715" lon="5.36778">
        <ele>252.8</ele>
      </trkpt>
      <trkpt lat="45.06704" lon="5.36809">
        <ele>251.6</ele>
      </trkpt>
      <trkpt lat="45.06703" lon="5.36809">
        <ele>251.4</ele>
      </trkpt>
      <trkpt lat="45.06694" lon="5.36826">
        <ele>249.2</ele>
      </trkpt>
      <trkpt lat="45.06659" lon="5.36878">
        <ele>242.5</ele>
      </trkpt>
      <trkpt lat="45.06634" lon="5.3692">
        <ele>247.3</ele>
      </trkpt>
      <trkpt lat="45.06632" lon="5.36922">
        <ele>247.2</ele>
      </trkpt>
      <trkpt lat="45.06618" lon="5.36947">
        <ele>247.4</ele>
      </trkpt>
      <trkpt lat="45.06606" lon="5.36972">
        <ele>247.6</ele>
      </trkpt>
      <trkpt lat="45.06573" lon="5.3703">
        <ele>244.1</ele>
      </trkpt>
      <trkpt lat="45.0656" lon="5.37049">
        <ele>244.2</ele>
      </trkpt>
      <trkpt lat="45.06489" lon="5.37132">
        <ele>241.8</ele>
      </trkpt>
      <trkpt lat="45.0648" lon="5.37144">
        <ele>242</ele>
      </trkpt>
      <trkpt lat="45.06475" lon="5.37154">
        <ele>242.1</ele>
      </trkpt>
      <trkpt lat="45.06472" lon="5.37164">
        <ele>242.2</ele>
      </trkpt>
      <trkpt lat="45.06472" lon="5.37177">
        <ele>243</ele>
      </trkpt>
      <trkpt lat="45.06474" lon="5.37193">
        <ele>243.1</ele>
      </trkpt>
      <trkpt lat="45.0649" lon="5.37235">
        <ele>242.8</ele>
      </trkpt>
      <trkpt lat="45.06504" lon="5.37256">
        <ele>243.3</ele>
      </trkpt>
      <trkpt lat="45.06517" lon="5.37268">
        <ele>245.2</ele>
      </trkpt>
      <trkpt lat="45.0653" lon="5.37276">
        <ele>246.4</ele>
      </trkpt>
      <trkpt lat="45.06604" lon="5.37308">
        <ele>260</ele>
      </trkpt>
      <trkpt lat="45.0663" lon="5.37316">
        <ele>263.7</ele>
      </trkpt>
      <trkpt lat="45.0664" lon="5.37318">
        <ele>265</ele>
      </trkpt>
      <trkpt lat="45.06651" lon="5.37322">
        <ele>266</ele>
      </trkpt>
      <trkpt lat="45.06664" lon="5.37328">
        <ele>266.7</ele>
      </trkpt>
      <trkpt lat="45.0667" lon="5.37333">
        <ele>269.3</ele>
      </trkpt>
      <trkpt lat="45.06682" lon="5.37345">
        <ele>267</ele>
      </trkpt>
      <trkpt lat="45.06686" lon="5.37352">
        <ele>266.9</ele>
      </trkpt>
      <trkpt lat="45.0669" lon="5.37361">
        <ele>266.5</ele>
      </trkpt>
      <trkpt lat="45.067" lon="5.3739">
        <ele>264.3</ele>
      </trkpt>
      <trkpt lat="45.06707" lon="5.37422">
        <ele>258.7</ele>
      </trkpt>
      <trkpt lat="45.0671" lon="5.37444">
        <ele>259.4</ele>
      </trkpt>
      <trkpt lat="45.06712" lon="5.37481">
        <ele>260.1</ele>
      </trkpt>
      <trkpt lat="45.06707" lon="5.37593">
        <ele>261.7</ele>
      </trkpt>
      <trkpt lat="45.0671" lon="5.37638">
        <ele>263</ele>
      </trkpt>
      <trkpt lat="45.06717" lon="5.37675">
        <ele>265.6</ele>
      </trkpt>
      <trkpt lat="45.06723" lon="5.3772">
        <ele>265.8</ele>
      </trkpt>
      <trkpt lat="45.06723" lon="5.3774">
        <ele>266.3</ele>
      </trkpt>
      <trkpt lat="45.06718" lon="5.37801">
        <ele>266.2</ele>
      </trkpt>
      <trkpt lat="45.06719" lon="5.37847">
        <ele>268.5</ele>
      </trkpt>
      <trkpt lat="45.06726" lon="5.37929">
        <ele>271.4</ele>
      </trkpt>
      <trkpt lat="45.06727" lon="5.3796">
        <ele>271.7</ele>
      </trkpt>
      <trkpt lat="45.06732" lon="5.38008">
        <ele>272</ele>
      </trkpt>
      <trkpt lat="45.06738" lon="5.38041">
        <ele>272.2</ele>
      </trkpt>
      <trkpt lat="45.06771" lon="5.38166">
        <ele>275.5</ele>
      </trkpt>
      <trkpt lat="45.06775" lon="5.38194">
        <ele>277.9</ele>
      </trkpt>
      <trkpt lat="45.06774" lon="5.38259">
        <ele>275.3</ele>
      </trkpt>
      <trkpt lat="45.06775" lon="5.3828">
        <ele>277.7</ele>
      </trkpt>
      <trkpt lat="45.0678" lon="5.38316">
        <ele>278.6</ele>
      </trkpt>
      <trkpt lat="45.06786" lon="5.38342">
        <ele>280.2</ele>
      </trkpt>
      <trkpt lat="45.0679" lon="5.3837">
        <ele>281.6</ele>
      </trkpt>
      <trkpt lat="45.06802" lon="5.38421">
        <ele>283.5</ele>
      </trkpt>
      <trkpt lat="45.06806" lon="5.38451">
        <ele>282.6</ele>
      </trkpt>
      <trkpt lat="45.06807" lon="5.38466">
        <ele>282.3</ele>
      </trkpt>
      <trkpt lat="45.06806" lon="5.385">
        <ele>282.8</ele>
      </trkpt>
      <trkpt lat="45.06803" lon="5.38525">
        <ele>282.3</ele>
      </trkpt>
      <trkpt lat="45.06794" lon="5.38562">
        <ele>281.7</ele>
      </trkpt>
      <trkpt lat="45.06779" lon="5.38598">
        <ele>281.2</ele>
      </trkpt>
      <trkpt lat="45.06766" lon="5.38645">
        <ele>279.1</ele>
      </trkpt>
      <trkpt lat="45.06759" lon="5.38686">
        <ele>280.3</ele>
      </trkpt>
      <trkpt lat="45.06754" lon="5.38705">
        <ele>283.6</ele>
      </trkpt>
      <trkpt lat="45.06748" lon="5.38722">
        <ele>271.1</ele>
      </trkpt>
      <trkpt lat="45.06743" lon="5.3874">
        <ele>272.3</ele>
      </trkpt>
      <trkpt lat="45.06741" lon="5.38756">
        <ele>273.6</ele>
      </trkpt>
      <trkpt lat="45.06743" lon="5.38816">
        <ele>278.4</ele>
      </trkpt>
      <trkpt lat="45.06741" lon="5.38831">
        <ele>281</ele>
      </trkpt>
      <trkpt lat="45.06732" lon="5.38858">
        <ele>280.7</ele>
      </trkpt>
      <trkpt lat="45.06725" lon="5.38871">
        <ele>280.2</ele>
      </trkpt>
      <trkpt lat="45.06717" lon="5.38879">
        <ele>279.8</ele>
      </trkpt>
      <trkpt lat="45.06714" lon="5.38881">
        <ele>279.5</ele>
      </trkpt>
      <trkpt lat="45.06704" lon="5.38885">
        <ele>278.7</ele>
      </trkpt>
      <trkpt lat="45.06694" lon="5.38885">
        <ele>277.8</ele>
      </trkpt>
      <trkpt lat="45.06684" lon="5.38886">
        <ele>277.1</ele>
      </trkpt>
      <trkpt lat="45.06672" lon="5.38892">
        <ele>276.5</ele>
      </trkpt>
      <trkpt lat="45.06662" lon="5.38901">
        <ele>274.9</ele>
      </trkpt>
      <trkpt lat="45.06652" lon="5.38912">
        <ele>275.1</ele>
      </trkpt>
      <trkpt lat="45.06647" lon="5.38923">
        <ele>274.4</ele>
      </trkpt>
      <trkpt lat="45.06646" lon="5.38923">
        <ele>274.4</ele>
      </trkpt>
      <trkpt lat="45.06643" lon="5.38934">
        <ele>274.3</ele>
      </trkpt>
      <trkpt lat="45.06641" lon="5.38947">
        <ele>274.3</ele>
      </trkpt>
      <trkpt lat="45.06642" lon="5.38979">
        <ele>275.3</ele>
      </trkpt>
      <trkpt lat="45.06662" lon="5.3907">
        <ele>278.2</ele>
      </trkpt>
      <trkpt lat="45.06663" lon="5.39071">
        <ele>278.4</ele>
      </trkpt>
      <trkpt lat="45.06679" lon="5.39099">
        <ele>286.2</ele>
      </trkpt>
      <trkpt lat="45.0668" lon="5.39103">
        <ele>286.7</ele>
      </trkpt>
      <trkpt lat="45.06685" lon="5.39116">
        <ele>287.7</ele>
      </trkpt>
      <trkpt lat="45.06688" lon="5.39145">
        <ele>286.7</ele>
      </trkpt>
      <trkpt lat="45.06688" lon="5.39163">
        <ele>285.4</ele>
      </trkpt>
      <trkpt lat="45.06687" lon="5.39168">
        <ele>283.2</ele>
      </trkpt>
      <trkpt lat="45.0669" lon="5.39199">
        <ele>284.5</ele>
      </trkpt>
      <trkpt lat="45.06693" lon="5.39211">
        <ele>284.7</ele>
      </trkpt>
      <trkpt lat="45.06697" lon="5.39221">
        <ele>284.9</ele>
      </trkpt>
      <trkpt lat="45.06701" lon="5.39235">
        <ele>285.1</ele>
      </trkpt>
      <trkpt lat="45.06701" lon="5.3925">
        <ele>289.8</ele>
      </trkpt>
      <trkpt lat="45.06699" lon="5.39258">
        <ele>289.9</ele>
      </trkpt>
      <trkpt lat="45.06699" lon="5.39261">
        <ele>290.1</ele>
      </trkpt>
      <trkpt lat="45.06696" lon="5.39267">
        <ele>290.3</ele>
      </trkpt>
      <trkpt lat="45.06692" lon="5.39271">
        <ele>290.3</ele>
      </trkpt>
      <trkpt lat="45.06687" lon="5.39273">
        <ele>290</ele>
      </trkpt>
      <trkpt lat="45.06682" lon="5.39274">
        <ele>289.6</ele>
      </trkpt>
      <trkpt lat="45.06666" lon="5.3927">
        <ele>281.5</ele>
      </trkpt>
      <trkpt lat="45.06658" lon="5.39272">
        <ele>281.7</ele>
      </trkpt>
      <trkpt lat="45.06651" lon="5.39275">
        <ele>281.9</ele>
      </trkpt>
      <trkpt lat="45.06632" lon="5.39288">
        <ele>282.2</ele>
      </trkpt>
      <trkpt lat="45.06618" lon="5.39311">
        <ele>282.7</ele>
      </trkpt>
      <trkpt lat="45.06612" lon="5.39326">
        <ele>282.5</ele>
      </trkpt>
      <trkpt lat="45.06599" lon="5.39349">
        <ele>290.2</ele>
      </trkpt>
      <trkpt lat="45.06598" lon="5.39349">
        <ele>290</ele>
      </trkpt>
      <trkpt lat="45.06586" lon="5.39367">
        <ele>293</ele>
      </trkpt>
      <trkpt lat="45.06579" lon="5.39376">
        <ele>282.6</ele>
      </trkpt>
      <trkpt lat="45.0657" lon="5.3939">
        <ele>284.4</ele>
      </trkpt>
      <trkpt lat="45.06561" lon="5.39407">
        <ele>285.6</ele>
      </trkpt>
      <trkpt lat="45.06554" lon="5.39423">
        <ele>290.2</ele>
      </trkpt>
      <trkpt lat="45.06546" lon="5.39457">
        <ele>289.8</ele>
      </trkpt>
      <trkpt lat="45.0655" lon="5.39592">
        <ele>304.6</ele>
      </trkpt>
      <trkpt lat="45.06552" lon="5.39612">
        <ele>305.2</ele>
      </trkpt>
      <trkpt lat="45.06552" lon="5.39633">
        <ele>306.2</ele>
      </trkpt>
      <trkpt lat="45.06551" lon="5.39643">
        <ele>306.8</ele>
      </trkpt>
      <trkpt lat="45.06545" lon="5.39663">
        <ele>306.2</ele>
      </trkpt>
      <trkpt lat="45.06542" lon="5.3967">
        <ele>312.2</ele>
      </trkpt>
      <trkpt lat="45.06526" lon="5.39693">
        <ele>309.7</ele>
      </trkpt>
      <trkpt lat="45.06505" lon="5.39731">
        <ele>309.3</ele>
      </trkpt>
      <trkpt lat="45.06486" lon="5.39772">
        <ele>302.2</ele>
      </trkpt>
      <trkpt lat="45.06462" lon="5.39812">
        <ele>302.5</ele>
      </trkpt>
      <trkpt lat="45.06431" lon="5.39876">
        <ele>316.6</ele>
      </trkpt>
      <trkpt lat="45.06427" lon="5.39882">
        <ele>317.4</ele>
      </trkpt>
      <trkpt lat="45.06413" lon="5.39898">
        <ele>310.1</ele>
      </trkpt>
      <trkpt lat="45.06405" lon="5.39903">
        <ele>310.4</ele>
      </trkpt>
      <trkpt lat="45.06398" lon="5.3991">
        <ele>309.8</ele>
      </trkpt>
      <trkpt lat="45.0639" lon="5.39916">
        <ele>307.7</ele>
      </trkpt>
      <trkpt lat="45.06344" lon="5.39968">
        <ele>321.5</ele>
      </trkpt>
      <trkpt lat="45.06331" lon="5.39981">
        <ele>313.5</ele>
      </trkpt>
      <trkpt lat="45.0633" lon="5.39981">
        <ele>313.4</ele>
      </trkpt>
      <trkpt lat="45.06317" lon="5.39989">
        <ele>313.2</ele>
      </trkpt>
      <trkpt lat="45.06294" lon="5.40007">
        <ele>322.8</ele>
      </trkpt>
      <trkpt lat="45.06277" lon="5.40028">
        <ele>322</ele>
      </trkpt>
      <trkpt lat="45.06268" lon="5.40045">
        <ele>323.2</ele>
      </trkpt>
      <trkpt lat="45.06262" lon="5.40059">
        <ele>323.8</ele>
      </trkpt>
      <trkpt lat="45.06246" lon="5.40108">
        <ele>315.2</ele>
      </trkpt>
      <trkpt lat="45.06242" lon="5.40126">
        <ele>315.6</ele>
      </trkpt>
      <trkpt lat="45.06238" lon="5.40152">
        <ele>320.9</ele>
      </trkpt>
      <trkpt lat="45.06235" lon="5.40183">
        <ele>326.5</ele>
      </trkpt>
      <trkpt lat="45.06235" lon="5.40214">
        <ele>326.9</ele>
      </trkpt>
      <trkpt lat="45.06237" lon="5.40232">
        <ele>330.8</ele>
      </trkpt>
      <trkpt lat="45.06237" lon="5.40243">
        <ele>333.8</ele>
      </trkpt>
      <trkpt lat="45.06238" lon="5.4025">
        <ele>335.3</ele>
      </trkpt>
      <trkpt lat="45.06237" lon="5.40256">
        <ele>339</ele>
      </trkpt>
      <trkpt lat="45.06237" lon="5.40261">
        <ele>338.6</ele>
      </trkpt>
      <trkpt lat="45.06235" lon="5.40271">
        <ele>337.5</ele>
      </trkpt>
      <trkpt lat="45.0623" lon="5.40282">
        <ele>336.7</ele>
      </trkpt>
      <trkpt lat="45.06196" lon="5.40345">
        <ele>341.9</ele>
      </trkpt>
      <trkpt lat="45.06194" lon="5.40351">
        <ele>342</ele>
      </trkpt>
      <trkpt lat="45.06192" lon="5.40355">
        <ele>342</ele>
      </trkpt>
      <trkpt lat="45.06189" lon="5.40364">
        <ele>342.7</ele>
      </trkpt>
      <trkpt lat="45.06163" lon="5.40486">
        <ele>337.3</ele>
      </trkpt>
      <trkpt lat="45.06163" lon="5.40505">
        <ele>344.7</ele>
      </trkpt>
      <trkpt lat="45.06165" lon="5.40514">
        <ele>343</ele>
      </trkpt>
      <trkpt lat="45.06167" lon="5.40519">
        <ele>358.5</ele>
      </trkpt>
      <trkpt lat="45.06167" lon="5.40522">
        <ele>359.6</ele>
      </trkpt>
      <trkpt lat="45.06168" lon="5.40525">
        <ele>360.6</ele>
      </trkpt>
      <trkpt lat="45.06169" lon="5.40531">
        <ele>362.1</ele>
      </trkpt>
      <trkpt lat="45.06171" lon="5.40535">
        <ele>363</ele>
      </trkpt>
      <trkpt lat="45.06173" lon="5.40544">
        <ele>364.3</ele>
      </trkpt>
      <trkpt lat="45.06173" lon="5.40552">
        <ele>364.6</ele>
      </trkpt>
      <trkpt lat="45.06172" lon="5.40556">
        <ele>364.5</ele>
      </trkpt>
      <trkpt lat="45.06172" lon="5.40559">
        <ele>364.4</ele>
      </trkpt>
      <trkpt lat="45.06171" lon="5.40563">
        <ele>364.1</ele>
      </trkpt>
      <trkpt lat="45.06169" lon="5.40566">
        <ele>363.6</ele>
      </trkpt>
      <trkpt lat="45.06168" lon="5.4057">
        <ele>362.9</ele>
      </trkpt>
      <trkpt lat="45.06164" lon="5.40576">
        <ele>353.1</ele>
      </trkpt>
      <trkpt lat="45.06162" lon="5.4058">
        <ele>354.4</ele>
      </trkpt>
      <trkpt lat="45.06159" lon="5.40583">
        <ele>353.1</ele>
      </trkpt>
      <trkpt lat="45.06157" lon="5.40587">
        <ele>358</ele>
      </trkpt>
      <trkpt lat="45.06154" lon="5.4059">
        <ele>357.7</ele>
      </trkpt>
      <trkpt lat="45.0615" lon="5.40596">
        <ele>357.4</ele>
      </trkpt>
      <trkpt lat="45.06147" lon="5.40603">
        <ele>357.4</ele>
      </trkpt>
      <trkpt lat="45.06144" lon="5.40614">
        <ele>358.2</ele>
      </trkpt>
      <trkpt lat="45.06144" lon="5.40618">
        <ele>358.7</ele>
      </trkpt>
      <trkpt lat="45.06142" lon="5.40626">
        <ele>359.7</ele>
      </trkpt>
      <trkpt lat="45.06142" lon="5.40629">
        <ele>360.2</ele>
      </trkpt>
      <trkpt lat="45.06141" lon="5.40633">
        <ele>360.8</ele>
      </trkpt>
      <trkpt lat="45.06134" lon="5.40645">
        <ele>361.6</ele>
      </trkpt>
      <trkpt lat="45.06131" lon="5.40646">
        <ele>361.2</ele>
      </trkpt>
      <trkpt lat="45.06128" lon="5.40648">
        <ele>360.9</ele>
      </trkpt>
      <trkpt lat="45.06127" lon="5.40649">
        <ele>360.8</ele>
      </trkpt>
      <trkpt lat="45.06125" lon="5.40649">
        <ele>360.4</ele>
      </trkpt>
      <trkpt lat="45.06119" lon="5.40651">
        <ele>359.7</ele>
      </trkpt>
      <trkpt lat="45.06109" lon="5.40651">
        <ele>358.4</ele>
      </trkpt>
      <trkpt lat="45.06089" lon="5.40649">
        <ele>357</ele>
      </trkpt>
      <trkpt lat="45.06081" lon="5.4065">
        <ele>342.4</ele>
      </trkpt>
      <trkpt lat="45.06072" lon="5.40655">
        <ele>342.4</ele>
      </trkpt>
      <trkpt lat="45.06063" lon="5.40664">
        <ele>339.6</ele>
      </trkpt>
      <trkpt lat="45.06055" lon="5.40675">
        <ele>353.1</ele>
      </trkpt>
      <trkpt lat="45.06052" lon="5.40684">
        <ele>353.1</ele>
      </trkpt>
      <trkpt lat="45.06045" lon="5.40699">
        <ele>353.5</ele>
      </trkpt>
      <trkpt lat="45.06042" lon="5.4071">
        <ele>354.9</ele>
      </trkpt>
      <trkpt lat="45.06039" lon="5.40717">
        <ele>355.6</ele>
      </trkpt>
      <trkpt lat="45.06031" lon="5.40729">
        <ele>355.8</ele>
      </trkpt>
      <trkpt lat="45.06029" lon="5.40731">
        <ele>355.7</ele>
      </trkpt>
      <trkpt lat="45.06022" lon="5.40742">
        <ele>355.5</ele>
      </trkpt>
      <trkpt lat="45.06017" lon="5.40747">
        <ele>355.1</ele>
      </trkpt>
      <trkpt lat="45.06016" lon="5.40749">
        <ele>355.1</ele>
      </trkpt>
      <trkpt lat="45.0601" lon="5.40756">
        <ele>365.2</ele>
      </trkpt>
      <trkpt lat="45.0594" lon="5.40816">
        <ele>348.2</ele>
      </trkpt>
      <trkpt lat="45.05932" lon="5.40822">
        <ele>347.4</ele>
      </trkpt>
      <trkpt lat="45.05917" lon="5.40836">
        <ele>349.3</ele>
      </trkpt>
      <trkpt lat="45.05909" lon="5.40846">
        <ele>342.3</ele>
      </trkpt>
      <trkpt lat="45.05906" lon="5.40851">
        <ele>341.5</ele>
      </trkpt>
      <trkpt lat="45.05901" lon="5.40867">
        <ele>341.7</ele>
      </trkpt>
      <trkpt lat="45.05901" lon="5.40873">
        <ele>342.8</ele>
      </trkpt>
      <trkpt lat="45.059" lon="5.40878">
        <ele>343.6</ele>
      </trkpt>
      <trkpt lat="45.059" lon="5.40921">
        <ele>365.6</ele>
      </trkpt>
      <trkpt lat="45.05897" lon="5.40933">
        <ele>364.1</ele>
      </trkpt>
      <trkpt lat="45.05894" lon="5.40941">
        <ele>363.3</ele>
      </trkpt>
      <trkpt lat="45.05893" lon="5.40942">
        <ele>363.1</ele>
      </trkpt>
      <trkpt lat="45.05891" lon="5.40946">
        <ele>362.8</ele>
      </trkpt>
      <trkpt lat="45.05875" lon="5.40967">
        <ele>361.3</ele>
      </trkpt>
      <trkpt lat="45.05869" lon="5.40978">
        <ele>361.1</ele>
      </trkpt>
      <trkpt lat="45.05869" lon="5.40979">
        <ele>361.2</ele>
      </trkpt>
      <trkpt lat="45.05867" lon="5.40985">
        <ele>361.2</ele>
      </trkpt>
      <trkpt lat="45.05865" lon="5.40995">
        <ele>361.3</ele>
      </trkpt>
      <trkpt lat="45.05865" lon="5.41002">
        <ele>366.5</ele>
      </trkpt>
      <trkpt lat="45.05869" lon="5.41021">
        <ele>367.7</ele>
      </trkpt>
      <trkpt lat="45.05875" lon="5.41038">
        <ele>368.6</ele>
      </trkpt>
      <trkpt lat="45.05888" lon="5.41062">
        <ele>370.3</ele>
      </trkpt>
      <trkpt lat="45.05899" lon="5.41078">
        <ele>372.8</ele>
      </trkpt>
      <trkpt lat="45.05914" lon="5.41092">
        <ele>371.9</ele>
      </trkpt>
      <trkpt lat="45.05921" lon="5.41097">
        <ele>380.2</ele>
      </trkpt>
      <trkpt lat="45.05928" lon="5.41101">
        <ele>381</ele>
      </trkpt>
      <trkpt lat="45.05955" lon="5.41112">
        <ele>384.6</ele>
      </trkpt>
      <trkpt lat="45.05963" lon="5.41119">
        <ele>385.5</ele>
      </trkpt>
      <trkpt lat="45.05972" lon="5.41134">
        <ele>386.1</ele>
      </trkpt>
      <trkpt lat="45.05978" lon="5.41151">
        <ele>387.2</ele>
      </trkpt>
      <trkpt lat="45.05982" lon="5.41182">
        <ele>383.3</ele>
      </trkpt>
      <trkpt lat="45.05988" lon="5.41263">
        <ele>381.1</ele>
      </trkpt>
      <trkpt lat="45.05992" lon="5.41283">
        <ele>376.7</ele>
      </trkpt>
      <trkpt lat="45.06" lon="5.41302">
        <ele>401.1</ele>
      </trkpt>
      <trkpt lat="45.06016" lon="5.41333">
        <ele>397.7</ele>
      </trkpt>
      <trkpt lat="45.06016" lon="5.41335">
        <ele>394.2</ele>
      </trkpt>
      <trkpt lat="45.06021" lon="5.41353">
        <ele>397.2</ele>
      </trkpt>
      <trkpt lat="45.06025" lon="5.41373">
        <ele>397.9</ele>
      </trkpt>
      <trkpt lat="45.06024" lon="5.41424">
        <ele>385</ele>
      </trkpt>
      <trkpt lat="45.06025" lon="5.41439">
        <ele>385.9</ele>
      </trkpt>
      <trkpt lat="45.06028" lon="5.41451">
        <ele>386.5</ele>
      </trkpt>
      <trkpt lat="45.06031" lon="5.41458">
        <ele>386.9</ele>
      </trkpt>
      <trkpt lat="45.06036" lon="5.41466">
        <ele>387.5</ele>
      </trkpt>
      <trkpt lat="45.06044" lon="5.41476">
        <ele>389</ele>
      </trkpt>
      <trkpt lat="45.06046" lon="5.4148">
        <ele>389.4</ele>
      </trkpt>
      <trkpt lat="45.06058" lon="5.4149">
        <ele>393.1</ele>
      </trkpt>
      <trkpt lat="45.06058" lon="5.41491">
        <ele>393.1</ele>
      </trkpt>
      <trkpt lat="45.06071" lon="5.415">
        <ele>397.6</ele>
      </trkpt>
      <trkpt lat="45.06079" lon="5.4151">
        <ele>396.4</ele>
      </trkpt>
      <trkpt lat="45.06084" lon="5.41524">
        <ele>414.3</ele>
      </trkpt>
      <trkpt lat="45.06085" lon="5.41544">
        <ele>415.8</ele>
      </trkpt>
      <trkpt lat="45.06079" lon="5.41602">
        <ele>392.8</ele>
      </trkpt>
      <trkpt lat="45.06078" lon="5.41627">
        <ele>390.1</ele>
      </trkpt>
      <trkpt lat="45.06081" lon="5.41652">
        <ele>394.4</ele>
      </trkpt>
      <trkpt lat="45.06101" lon="5.41717">
        <ele>415.4</ele>
      </trkpt>
      <trkpt lat="45.06101" lon="5.41718">
        <ele>415.3</ele>
      </trkpt>
      <trkpt lat="45.06106" lon="5.41741">
        <ele>414.3</ele>
      </trkpt>
      <trkpt lat="45.06108" lon="5.41746">
        <ele>414.8</ele>
      </trkpt>
      <trkpt lat="45.06109" lon="5.41763">
        <ele>413.5</ele>
      </trkpt>
      <trkpt lat="45.0611" lon="5.41766">
        <ele>413.9</ele>
      </trkpt>
      <trkpt lat="45.06112" lon="5.41795">
        <ele>414</ele>
      </trkpt>
      <trkpt lat="45.06119" lon="5.41836">
        <ele>411</ele>
      </trkpt>
      <trkpt lat="45.06128" lon="5.41864">
        <ele>413.8</ele>
      </trkpt>
      <trkpt lat="45.0614" lon="5.41887">
        <ele>415.7</ele>
      </trkpt>
      <trkpt lat="45.06159" lon="5.41918">
        <ele>417.8</ele>
      </trkpt>
      <trkpt lat="45.06171" lon="5.4193">
        <ele>427</ele>
      </trkpt>
      <trkpt lat="45.0619" lon="5.41956">
        <ele>428.4</ele>
      </trkpt>
      <trkpt lat="45.06204" lon="5.41972">
        <ele>429.2</ele>
      </trkpt>
      <trkpt lat="45.06241" lon="5.42019">
        <ele>417.5</ele>
      </trkpt>
      <trkpt lat="45.06265" lon="5.42042">
        <ele>439.4</ele>
      </trkpt>
      <trkpt lat="45.06274" lon="5.42052">
        <ele>438.7</ele>
      </trkpt>
      <trkpt lat="45.06287" lon="5.42069">
        <ele>440.3</ele>
      </trkpt>
      <trkpt lat="45.06289" lon="5.42071">
        <ele>441.1</ele>
      </trkpt>
      <trkpt lat="45.06296" lon="5.42084">
        <ele>431.3</ele>
      </trkpt>
      <trkpt lat="45.06297" lon="5.42089">
        <ele>431.8</ele>
      </trkpt>
      <trkpt lat="45.06299" lon="5.42094">
        <ele>432.6</ele>
      </trkpt>
      <trkpt lat="45.06304" lon="5.42112">
        <ele>433</ele>
      </trkpt>
      <trkpt lat="45.06304" lon="5.42113">
        <ele>432.8</ele>
      </trkpt>
      <trkpt lat="45.06306" lon="5.42122">
        <ele>432.5</ele>
      </trkpt>
      <trkpt lat="45.06308" lon="5.42138">
        <ele>432.5</ele>
      </trkpt>
      <trkpt lat="45.06309" lon="5.42142">
        <ele>433</ele>
      </trkpt>
      <trkpt lat="45.06311" lon="5.42163">
        <ele>435.3</ele>
      </trkpt>
      <trkpt lat="45.06315" lon="5.42188">
        <ele>430.7</ele>
      </trkpt>
      <trkpt lat="45.06315" lon="5.42193">
        <ele>429.7</ele>
      </trkpt>
      <trkpt lat="45.06321" lon="5.42238">
        <ele>432.4</ele>
      </trkpt>
      <trkpt lat="45.06321" lon="5.42241">
        <ele>433.1</ele>
      </trkpt>
      <trkpt lat="45.06325" lon="5.42272">
        <ele>428.7</ele>
      </trkpt>
      <trkpt lat="45.06333" lon="5.42364">
        <ele>426.7</ele>
      </trkpt>
      <trkpt lat="45.06333" lon="5.42371">
        <ele>426.1</ele>
      </trkpt>
      <trkpt lat="45.06335" lon="5.4239">
        <ele>457.7</ele>
      </trkpt>
      <trkpt lat="45.06335" lon="5.42398">
        <ele>455.7</ele>
      </trkpt>
      <trkpt lat="45.0634" lon="5.42454">
        <ele>457.9</ele>
      </trkpt>
      <trkpt lat="45.06347" lon="5.4249">
        <ele>452.9</ele>
      </trkpt>
      <trkpt lat="45.0635" lon="5.425">
        <ele>453</ele>
      </trkpt>
      <trkpt lat="45.06352" lon="5.42514">
        <ele>451.2</ele>
      </trkpt>
      <trkpt lat="45.06354" lon="5.42521">
        <ele>452.4</ele>
      </trkpt>
      <trkpt lat="45.06371" lon="5.42624">
        <ele>439.4</ele>
      </trkpt>
      <trkpt lat="45.06375" lon="5.42637">
        <ele>438.6</ele>
      </trkpt>
      <trkpt lat="45.06378" lon="5.42661">
        <ele>437.4</ele>
      </trkpt>
      <trkpt lat="45.06379" lon="5.42662">
        <ele>437.7</ele>
      </trkpt>
      <trkpt lat="45.06384" lon="5.42673">
        <ele>450.6</ele>
      </trkpt>
      <trkpt lat="45.06391" lon="5.42681">
        <ele>454.8</ele>
      </trkpt>
      <trkpt lat="45.06403" lon="5.42697">
        <ele>464.3</ele>
      </trkpt>
      <trkpt lat="45.06419" lon="5.42712">
        <ele>515.6</ele>
      </trkpt>
      <trkpt lat="45.0643" lon="5.42721">
        <ele>523.6</ele>
      </trkpt>
      <trkpt lat="45.0645" lon="5.42732">
        <ele>527.6</ele>
      </trkpt>
      <trkpt lat="45.06469" lon="5.42741">
        <ele>532.7</ele>
      </trkpt>
      <trkpt lat="45.06489" lon="5.42754">
        <ele>566.9</ele>
      </trkpt>
      <trkpt lat="45.06507" lon="5.42772">
        <ele>570</ele>
      </trkpt>
      <trkpt lat="45.06522" lon="5.42806">
        <ele>571.8</ele>
      </trkpt>
      <trkpt lat="45.06522" lon="5.42807">
        <ele>571.9</ele>
      </trkpt>
      <trkpt lat="45.06533" lon="5.42846">
        <ele>573.6</ele>
      </trkpt>
      <trkpt lat="45.06545" lon="5.42874">
        <ele>574.1</ele>
      </trkpt>
      <trkpt lat="45.06548" lon="5.42879">
        <ele>574.4</ele>
      </trkpt>
      <trkpt lat="45.06558" lon="5.42892">
        <ele>575.4</ele>
      </trkpt>
      <trkpt lat="45.066" lon="5.42939">
        <ele>580.4</ele>
      </trkpt>
      <trkpt lat="45.06659" lon="5.42998">
        <ele>579.2</ele>
      </trkpt>
      <trkpt lat="45.06667" lon="5.43005">
        <ele>578.9</ele>
      </trkpt>
      <trkpt lat="45.0668" lon="5.43025">
        <ele>578.6</ele>
      </trkpt>
      <trkpt lat="45.06694" lon="5.43066">
        <ele>578.3</ele>
      </trkpt>
      <trkpt lat="45.06711" lon="5.43099">
        <ele>577.6</ele>
      </trkpt>
      <trkpt lat="45.06716" lon="5.43106">
        <ele>577.6</ele>
      </trkpt>
      <trkpt lat="45.06732" lon="5.4312">
        <ele>577.6</ele>
      </trkpt>
      <trkpt lat="45.06743" lon="5.43134">
        <ele>577.7</ele>
      </trkpt>
      <trkpt lat="45.0675" lon="5.43145">
        <ele>578</ele>
      </trkpt>
      <trkpt lat="45.06758" lon="5.4316">
        <ele>578</ele>
      </trkpt>
      <trkpt lat="45.06759" lon="5.43163">
        <ele>578</ele>
      </trkpt>
      <trkpt lat="45.06767" lon="5.43178">
        <ele>577.8</ele>
      </trkpt>
      <trkpt lat="45.06768" lon="5.43181">
        <ele>577.8</ele>
      </trkpt>
      <trkpt lat="45.06774" lon="5.43192">
        <ele>577.8</ele>
      </trkpt>
      <trkpt lat="45.06809" lon="5.43284">
        <ele>581.4</ele>
      </trkpt>
      <trkpt lat="45.06829" lon="5.43346">
        <ele>587.4</ele>
      </trkpt>
      <trkpt lat="45.06834" lon="5.434">
        <ele>626.3</ele>
      </trkpt>
      <trkpt lat="45.06832" lon="5.4348">
        <ele>642.4</ele>
      </trkpt>
      <trkpt lat="45.06833" lon="5.43483">
        <ele>642.1</ele>
      </trkpt>
      <trkpt lat="45.06835" lon="5.43509">
        <ele>724.1</ele>
      </trkpt>
      <trkpt lat="45.06845" lon="5.43562">
        <ele>891.6</ele>
      </trkpt>
      <trkpt lat="45.06855" lon="5.436">
        <ele>959.6</ele>
      </trkpt>
      <trkpt lat="45.06859" lon="5.43609">
        <ele>970.7</ele>
      </trkpt>
      <trkpt lat="45.06864" lon="5.43625">
        <ele>981.8</ele>
      </trkpt>
      <trkpt lat="45.06868" lon="5.43634">
        <ele>987.1</ele>
      </trkpt>
      <trkpt lat="45.06871" lon="5.43644">
        <ele>991</ele>
      </trkpt>
      <trkpt lat="45.06882" lon="5.43666">
        <ele>1006</ele>
      </trkpt>
      <trkpt lat="45.06885" lon="5.4367">
        <ele>1003.2</ele>
      </trkpt>
      <trkpt lat="45.0691" lon="5.43736">
        <ele>992.6</ele>
      </trkpt>
      <trkpt lat="45.0691" lon="5.43737">
        <ele>992.7</ele>
      </trkpt>
      <trkpt lat="45.06933" lon="5.43787">
        <ele>989.2</ele>
      </trkpt>
      <trkpt lat="45.06945" lon="5.43808">
        <ele>981.6</ele>
      </trkpt>
      <trkpt lat="45.06964" lon="5.43873">
        <ele>935.4</ele>
      </trkpt>
      <trkpt lat="45.06979" lon="5.43916">
        <ele>922.2</ele>
      </trkpt>
      <trkpt lat="45.07011" lon="5.43973">
        <ele>897.5</ele>
      </trkpt>
      <trkpt lat="45.0703" lon="5.44">
        <ele>879</ele>
      </trkpt>
      <trkpt lat="45.0707" lon="5.44052">
        <ele>873.2</ele>
      </trkpt>
      <trkpt lat="45.07082" lon="5.4407">
        <ele>871.7</ele>
      </trkpt>
      <trkpt lat="45.07084" lon="5.44072">
        <ele>881.1</ele>
      </trkpt>
      <trkpt lat="45.07098" lon="5.44096">
        <ele>868.7</ele>
      </trkpt>
      <trkpt lat="45.07108" lon="5.44135">
        <ele>858.8</ele>
      </trkpt>
      <trkpt lat="45.07121" lon="5.44178">
        <ele>835</ele>
      </trkpt>
      <trkpt lat="45.07121" lon="5.44183">
        <ele>834.7</ele>
      </trkpt>
      <trkpt lat="45.07148" lon="5.44322">
        <ele>820</ele>
      </trkpt>
      <trkpt lat="45.07166" lon="5.44376">
        <ele>823.1</ele>
      </trkpt>
      <trkpt lat="45.07166" lon="5.44389">
        <ele>823</ele>
      </trkpt>
      <trkpt lat="45.07168" lon="5.44409">
        <ele>820</ele>
      </trkpt>
      <trkpt lat="45.07171" lon="5.44416">
        <ele>820</ele>
      </trkpt>
      <trkpt lat="45.07176" lon="5.44424">
        <ele>820</ele>
      </trkpt>
      <trkpt lat="45.07185" lon="5.44434">
        <ele>820</ele>
      </trkpt>
      <trkpt lat="45.07201" lon="5.44446">
        <ele>820</ele>
      </trkpt>
      <trkpt lat="45.07216" lon="5.4446">
        <ele>820</ele>
      </trkpt>
      <trkpt lat="45.07218" lon="5.44461">
        <ele>820</ele>
      </trkpt>
      <trkpt lat="45.07226" lon="5.4447">
        <ele>820</ele>
      </trkpt>
      <trkpt lat="45.07231" lon="5.44474">
        <ele>820</ele>
      </trkpt>
      <trkpt lat="45.07239" lon="5.44482">
        <ele>820</ele>
      </trkpt>
      <trkpt lat="45.07242" lon="5.44488">
        <ele>820</ele>
      </trkpt>
      <trkpt lat="45.07243" lon="5.44492">
        <ele>820</ele>
      </trkpt>
      <trkpt lat="45.07245" lon="5.44496">
        <ele>820</ele>
      </trkpt>
      <trkpt lat="45.07247" lon="5.44509">
        <ele>816.2</ele>
      </trkpt>
      <trkpt lat="45.07247" lon="5.44517">
        <ele>813.6</ele>
      </trkpt>
      <trkpt lat="45.07249" lon="5.44537">
        <ele>807.7</ele>
      </trkpt>
      <trkpt lat="45.0725" lon="5.44542">
        <ele>806.1</ele>
      </trkpt>
      <trkpt lat="45.0725" lon="5.44545">
        <ele>805</ele>
      </trkpt>
      <trkpt lat="45.07252" lon="5.44551">
        <ele>792.5</ele>
      </trkpt>
      <trkpt lat="45.07261" lon="5.44566">
        <ele>787.8</ele>
      </trkpt>
      <trkpt lat="45.07269" lon="5.44583">
        <ele>785.6</ele>
      </trkpt>
      <trkpt lat="45.07269" lon="5.44584">
        <ele>762.3</ele>
      </trkpt>
      <trkpt lat="45.07274" lon="5.44601">
        <ele>755.2</ele>
      </trkpt>
      <trkpt lat="45.07274" lon="5.44608">
        <ele>752.5</ele>
      </trkpt>
      <trkpt lat="45.07275" lon="5.44615">
        <ele>749.4</ele>
      </trkpt>
      <trkpt lat="45.07274" lon="5.4463">
        <ele>743.1</ele>
      </trkpt>
      <trkpt lat="45.07274" lon="5.44661">
        <ele>732</ele>
      </trkpt>
      <trkpt lat="45.07275" lon="5.44668">
        <ele>701.6</ele>
      </trkpt>
      <trkpt lat="45.0728" lon="5.44685">
        <ele>697.6</ele>
      </trkpt>
      <trkpt lat="45.07281" lon="5.44685">
        <ele>697.5</ele>
      </trkpt>
      <trkpt lat="45.07284" lon="5.44692">
        <ele>695.4</ele>
      </trkpt>
      <trkpt lat="45.07302" lon="5.4471">
        <ele>689.4</ele>
      </trkpt>
      <trkpt lat="45.07317" lon="5.44721">
        <ele>683.5</ele>
      </trkpt>
      <trkpt lat="45.07347" lon="5.44729">
        <ele>679.8</ele>
      </trkpt>
      <trkpt lat="45.07349" lon="5.4473">
        <ele>679.8</ele>
      </trkpt>
      <trkpt lat="45.07353" lon="5.44731">
        <ele>680.4</ele>
      </trkpt>
      <trkpt lat="45.07364" lon="5.44736">
        <ele>681.2</ele>
      </trkpt>
      <trkpt lat="45.07366" lon="5.44738">
        <ele>681</ele>
      </trkpt>
      <trkpt lat="45.0737" lon="5.4474">
        <ele>681.1</ele>
      </trkpt>
      <trkpt lat="45.07378" lon="5.44746">
        <ele>680.4</ele>
      </trkpt>
      <trkpt lat="45.07382" lon="5.4475">
        <ele>679.6</ele>
      </trkpt>
      <trkpt lat="45.07396" lon="5.44761">
        <ele>636.5</ele>
      </trkpt>
      <trkpt lat="45.07398" lon="5.44762">
        <ele>636.8</ele>
      </trkpt>
      <trkpt lat="45.07409" lon="5.44772">
        <ele>633.6</ele>
      </trkpt>
      <trkpt lat="45.07416" lon="5.44777">
        <ele>630</ele>
      </trkpt>
      <trkpt lat="45.07419" lon="5.44782">
        <ele>640.4</ele>
      </trkpt>
      <trkpt lat="45.07424" lon="5.44795">
        <ele>631.4</ele>
      </trkpt>
      <trkpt lat="45.07425" lon="5.44796">
        <ele>630.8</ele>
      </trkpt>
      <trkpt lat="45.07426" lon="5.44806">
        <ele>622.1</ele>
      </trkpt>
      <trkpt lat="45.07429" lon="5.44816">
        <ele>613.2</ele>
      </trkpt>
      <trkpt lat="45.07429" lon="5.44819">
        <ele>610</ele>
      </trkpt>
      <trkpt lat="45.07435" lon="5.4484">
        <ele>580</ele>
      </trkpt>
      <trkpt lat="45.07437" lon="5.44842">
        <ele>580.8</ele>
      </trkpt>
      <trkpt lat="45.07439" lon="5.44846">
        <ele>581.6</ele>
      </trkpt>
      <trkpt lat="45.07451" lon="5.44857">
        <ele>585.1</ele>
      </trkpt>
      <trkpt lat="45.07452" lon="5.44857">
        <ele>585.5</ele>
      </trkpt>
      <trkpt lat="45.07467" lon="5.44867">
        <ele>588.6</ele>
      </trkpt>
      <trkpt lat="45.07468" lon="5.44867">
        <ele>588.9</ele>
      </trkpt>
      <trkpt lat="45.0748" lon="5.44876">
        <ele>589.1</ele>
      </trkpt>
      <trkpt lat="45.07501" lon="5.44888">
        <ele>620.9</ele>
      </trkpt>
      <trkpt lat="45.07532" lon="5.44908">
        <ele>625.7</ele>
      </trkpt>
      <trkpt lat="45.07547" lon="5.44919">
        <ele>596.1</ele>
      </trkpt>
      <trkpt lat="45.07561" lon="5.44933">
        <ele>601.5</ele>
      </trkpt>
      <trkpt lat="45.07564" lon="5.44935">
        <ele>602.3</ele>
      </trkpt>
      <trkpt lat="45.07575" lon="5.44945">
        <ele>600.3</ele>
      </trkpt>
      <trkpt lat="45.07587" lon="5.44959">
        <ele>630.7</ele>
      </trkpt>
      <trkpt lat="45.07609" lon="5.44978">
        <ele>627.5</ele>
      </trkpt>
      <trkpt lat="45.0764" lon="5.45001">
        <ele>609</ele>
      </trkpt>
      <trkpt lat="45.07641" lon="5.45001">
        <ele>609.8</ele>
      </trkpt>
      <trkpt lat="45.07651" lon="5.45009">
        <ele>616.8</ele>
      </trkpt>
      <trkpt lat="45.07673" lon="5.45024">
        <ele>649.7</ele>
      </trkpt>
      <trkpt lat="45.07675" lon="5.45025">
        <ele>649.9</ele>
      </trkpt>
      <trkpt lat="45.07715" lon="5.45061">
        <ele>657.5</ele>
      </trkpt>
      <trkpt lat="45.07736" lon="5.45089">
        <ele>663.1</ele>
      </trkpt>
      <trkpt lat="45.07744" lon="5.45095">
        <ele>666.2</ele>
      </trkpt>
      <trkpt lat="45.07773" lon="5.45134">
        <ele>708.7</ele>
      </trkpt>
      <trkpt lat="45.07777" lon="5.45145">
        <ele>709.3</ele>
      </trkpt>
      <trkpt lat="45.07779" lon="5.45149">
        <ele>709.7</ele>
      </trkpt>
      <trkpt lat="45.07785" lon="5.45181">
        <ele>709.2</ele>
      </trkpt>
      <trkpt lat="45.07784" lon="5.45216">
        <ele>709.2</ele>
      </trkpt>
      <trkpt lat="45.07775" lon="5.45269">
        <ele>693.6</ele>
      </trkpt>
      <trkpt lat="45.07775" lon="5.45278">
        <ele>691.6</ele>
      </trkpt>
      <trkpt lat="45.07774" lon="5.45285">
        <ele>690</ele>
      </trkpt>
      <trkpt lat="45.07776" lon="5.45305">
        <ele>685.1</ele>
      </trkpt>
      <trkpt lat="45.07784" lon="5.45331">
        <ele>681.2</ele>
      </trkpt>
      <trkpt lat="45.07785" lon="5.45331">
        <ele>681.2</ele>
      </trkpt>
      <trkpt lat="45.07788" lon="5.45341">
        <ele>660.6</ele>
      </trkpt>
      <trkpt lat="45.07794" lon="5.45352">
        <ele>659.2</ele>
      </trkpt>
      <trkpt lat="45.07794" lon="5.45353">
        <ele>659.1</ele>
      </trkpt>
      <trkpt lat="45.07799" lon="5.4536">
        <ele>658</ele>
      </trkpt>
      <trkpt lat="45.07808" lon="5.45368">
        <ele>656.6</ele>
      </trkpt>
      <trkpt lat="45.07808" lon="5.45369">
        <ele>656.4</ele>
      </trkpt>
      <trkpt lat="45.07814" lon="5.45373">
        <ele>655.4</ele>
      </trkpt>
      <trkpt lat="45.07823" lon="5.45381">
        <ele>653.2</ele>
      </trkpt>
      <trkpt lat="45.07824" lon="5.45381">
        <ele>653.1</ele>
      </trkpt>
      <trkpt lat="45.07838" lon="5.45396">
        <ele>655.2</ele>
      </trkpt>
      <trkpt lat="45.07839" lon="5.45396">
        <ele>655.3</ele>
      </trkpt>
      <trkpt lat="45.07851" lon="5.45408">
        <ele>654.3</ele>
      </trkpt>
      <trkpt lat="45.07853" lon="5.45411">
        <ele>654.6</ele>
      </trkpt>
      <trkpt lat="45.0787" lon="5.45431">
        <ele>643.4</ele>
      </trkpt>
      <trkpt lat="45.07881" lon="5.45442">
        <ele>644.1</ele>
      </trkpt>
      <trkpt lat="45.07886" lon="5.45446">
        <ele>644.2</ele>
      </trkpt>
      <trkpt lat="45.07912" lon="5.45457">
        <ele>643.6</ele>
      </trkpt>
      <trkpt lat="45.07931" lon="5.45472">
        <ele>655.5</ele>
      </trkpt>
      <trkpt lat="45.07993" lon="5.45539">
        <ele>658.8</ele>
      </trkpt>
      <trkpt lat="45.08011" lon="5.45553">
        <ele>662.2</ele>
      </trkpt>
      <trkpt lat="45.08018" lon="5.45557">
        <ele>662.6</ele>
      </trkpt>
      <trkpt lat="45.08027" lon="5.4556">
        <ele>664.4</ele>
      </trkpt>
      <trkpt lat="45.08033" lon="5.45565">
        <ele>665.3</ele>
      </trkpt>
      <trkpt lat="45.08036" lon="5.4557">
        <ele>665.4</ele>
      </trkpt>
      <trkpt lat="45.08037" lon="5.45571">
        <ele>665.6</ele>
      </trkpt>
      <trkpt lat="45.08046" lon="5.45591">
        <ele>669.3</ele>
      </trkpt>
      <trkpt lat="45.08052" lon="5.456">
        <ele>670.7</ele>
      </trkpt>
      <trkpt lat="45.08056" lon="5.45604">
        <ele>671.1</ele>
      </trkpt>
      <trkpt lat="45.08075" lon="5.45617">
        <ele>670.4</ele>
      </trkpt>
      <trkpt lat="45.08076" lon="5.45618">
        <ele>670.3</ele>
      </trkpt>
      <trkpt lat="45.0809" lon="5.45627">
        <ele>671.2</ele>
      </trkpt>
      <trkpt lat="45.08107" lon="5.45643">
        <ele>670</ele>
      </trkpt>
      <trkpt lat="45.08109" lon="5.45644">
        <ele>670.4</ele>
      </trkpt>
      <trkpt lat="45.08127" lon="5.4566">
        <ele>673.7</ele>
      </trkpt>
      <trkpt lat="45.08171" lon="5.45689">
        <ele>675.2</ele>
      </trkpt>
      <trkpt lat="45.08183" lon="5.45699">
        <ele>673.4</ele>
      </trkpt>
      <trkpt lat="45.08188" lon="5.45708">
        <ele>671.5</ele>
      </trkpt>
      <trkpt lat="45.08189" lon="5.45716">
        <ele>669.4</ele>
      </trkpt>
      <trkpt lat="45.08191" lon="5.45721">
        <ele>668.3</ele>
      </trkpt>
      <trkpt lat="45.08192" lon="5.45729">
        <ele>666.3</ele>
      </trkpt>
      <trkpt lat="45.08205" lon="5.45749">
        <ele>666.2</ele>
      </trkpt>
      <trkpt lat="45.08205" lon="5.4575">
        <ele>666.2</ele>
      </trkpt>
      <trkpt lat="45.08211" lon="5.45756">
        <ele>679.2</ele>
      </trkpt>
      <trkpt lat="45.0822" lon="5.45763">
        <ele>680.6</ele>
      </trkpt>
      <trkpt lat="45.08237" lon="5.4577">
        <ele>680.1</ele>
      </trkpt>
      <trkpt lat="45.08238" lon="5.45771">
        <ele>680.3</ele>
      </trkpt>
      <trkpt lat="45.08247" lon="5.45773">
        <ele>680.1</ele>
      </trkpt>
      <trkpt lat="45.08255" lon="5.45773">
        <ele>671.7</ele>
      </trkpt>
      <trkpt lat="45.08264" lon="5.45772">
        <ele>671.9</ele>
      </trkpt>
      <trkpt lat="45.08284" lon="5.45768">
        <ele>673.1</ele>
      </trkpt>
      <trkpt lat="45.08306" lon="5.45755">
        <ele>676.5</ele>
      </trkpt>
      <trkpt lat="45.08307" lon="5.45754">
        <ele>676.8</ele>
      </trkpt>
      <trkpt lat="45.08311" lon="5.45753">
        <ele>677.8</ele>
      </trkpt>
      <trkpt lat="45.08314" lon="5.45753">
        <ele>678.6</ele>
      </trkpt>
      <trkpt lat="45.08318" lon="5.45755">
        <ele>679.6</ele>
      </trkpt>
      <trkpt lat="45.08323" lon="5.45761">
        <ele>679.7</ele>
      </trkpt>
      <trkpt lat="45.08335" lon="5.45785">
        <ele>677.8</ele>
      </trkpt>
      <trkpt lat="45.08347" lon="5.45798">
        <ele>674.2</ele>
      </trkpt>
      <trkpt lat="45.08363" lon="5.4581">
        <ele>673.6</ele>
      </trkpt>
      <trkpt lat="45.08386" lon="5.45825">
        <ele>676.2</ele>
      </trkpt>
      <trkpt lat="45.08394" lon="5.45835">
        <ele>674.2</ele>
      </trkpt>
      <trkpt lat="45.08398" lon="5.45839">
        <ele>674.6</ele>
      </trkpt>
      <trkpt lat="45.08433" lon="5.45888">
        <ele>677</ele>
      </trkpt>
      <trkpt lat="45.08446" lon="5.45903">
        <ele>677.8</ele>
      </trkpt>
      <trkpt lat="45.08526" lon="5.45986">
        <ele>689.4</ele>
      </trkpt>
      <trkpt lat="45.08558" lon="5.46009">
        <ele>677.6</ele>
      </trkpt>
      <trkpt lat="45.08599" lon="5.46031">
        <ele>669.2</ele>
      </trkpt>
      <trkpt lat="45.08606" lon="5.46034">
        <ele>670.2</ele>
      </trkpt>
      <trkpt lat="45.08624" lon="5.46045">
        <ele>672.7</ele>
      </trkpt>
      <trkpt lat="45.08629" lon="5.4605">
        <ele>673.1</ele>
      </trkpt>
      <trkpt lat="45.08638" lon="5.46061">
        <ele>673.8</ele>
      </trkpt>
      <trkpt lat="45.08641" lon="5.46069">
        <ele>673.9</ele>
      </trkpt>
      <trkpt lat="45.08643" lon="5.46072">
        <ele>674.1</ele>
      </trkpt>
      <trkpt lat="45.08652" lon="5.46097">
        <ele>670.6</ele>
      </trkpt>
      <trkpt lat="45.08656" lon="5.46105">
        <ele>669.9</ele>
      </trkpt>
      <trkpt lat="45.08656" lon="5.46107">
        <ele>669.6</ele>
      </trkpt>
      <trkpt lat="45.08663" lon="5.46119">
        <ele>668.3</ele>
      </trkpt>
      <trkpt lat="45.08666" lon="5.46126">
        <ele>667.6</ele>
      </trkpt>
      <trkpt lat="45.08673" lon="5.46138">
        <ele>687.4</ele>
      </trkpt>
      <trkpt lat="45.08679" lon="5.46158">
        <ele>679.9</ele>
      </trkpt>
      <trkpt lat="45.08681" lon="5.46172">
        <ele>675.5</ele>
      </trkpt>
      <trkpt lat="45.0868" lon="5.46223">
        <ele>681.8</ele>
      </trkpt>
      <trkpt lat="45.08679" lon="5.46229">
        <ele>680.5</ele>
      </trkpt>
      <trkpt lat="45.08681" lon="5.46255">
        <ele>678.3</ele>
      </trkpt>
      <trkpt lat="45.08684" lon="5.46273">
        <ele>683.4</ele>
      </trkpt>
      <trkpt lat="45.08695" lon="5.46307">
        <ele>687.8</ele>
      </trkpt>
      <trkpt lat="45.08711" lon="5.46346">
        <ele>689.9</ele>
      </trkpt>
      <trkpt lat="45.0872" lon="5.46377">
        <ele>689.6</ele>
      </trkpt>
      <trkpt lat="45.08731" lon="5.46437">
        <ele>685</ele>
      </trkpt>
      <trkpt lat="45.08734" lon="5.46462">
        <ele>682.9</ele>
      </trkpt>
      <trkpt lat="45.08733" lon="5.46469">
        <ele>682.4</ele>
      </trkpt>
      <trkpt lat="45.08733" lon="5.46482">
        <ele>681.4</ele>
      </trkpt>
      <trkpt lat="45.08729" lon="5.46512">
        <ele>678.1</ele>
      </trkpt>
      <trkpt lat="45.08728" lon="5.46538">
        <ele>677.6</ele>
      </trkpt>
      <trkpt lat="45.08731" lon="5.46565">
        <ele>676.3</ele>
      </trkpt>
      <trkpt lat="45.08742" lon="5.46598">
        <ele>672.6</ele>
      </trkpt>
      <trkpt lat="45.08758" lon="5.46629">
        <ele>672.7</ele>
      </trkpt>
      <trkpt lat="45.08762" lon="5.46635">
        <ele>672</ele>
      </trkpt>
      <trkpt lat="45.08771" lon="5.46653">
        <ele>670.1</ele>
      </trkpt>
      <trkpt lat="45.08802" lon="5.46746">
        <ele>662.8</ele>
      </trkpt>
      <trkpt lat="45.08807" lon="5.46756">
        <ele>661.9</ele>
      </trkpt>
      <trkpt lat="45.08815" lon="5.46777">
        <ele>661.9</ele>
      </trkpt>
      <trkpt lat="45.08811" lon="5.4678">
        <ele>661.8</ele>
      </trkpt>
      <trkpt lat="45.08799" lon="5.46787">
        <ele>661.4</ele>
      </trkpt>
      <trkpt lat="45.08798" lon="5.46787">
        <ele>661.4</ele>
      </trkpt>
      <trkpt lat="45.08781" lon="5.46797">
        <ele>661.1</ele>
      </trkpt>
      <trkpt lat="45.08762" lon="5.46816">
        <ele>661</ele>
      </trkpt>
      <trkpt lat="45.08754" lon="5.4682">
        <ele>661</ele>
      </trkpt>
      <trkpt lat="45.0875" lon="5.46835">
        <ele>661.4</ele>
      </trkpt>
      <trkpt lat="45.08738" lon="5.46945">
        <ele>665.3</ele>
      </trkpt>
      <trkpt lat="45.0873" lon="5.46981">
        <ele>665.3</ele>
      </trkpt>
      <trkpt lat="45.08726" lon="5.46987">
        <ele>665.4</ele>
      </trkpt>
      <trkpt lat="45.08723" lon="5.4699">
        <ele>665.6</ele>
      </trkpt>
      <trkpt lat="45.08718" lon="5.46992">
        <ele>665.9</ele>
      </trkpt>
      <trkpt lat="45.0871" lon="5.46993">
        <ele>666.5</ele>
      </trkpt>
      <trkpt lat="45.08704" lon="5.46992">
        <ele>667</ele>
      </trkpt>
      <trkpt lat="45.08698" lon="5.46992">
        <ele>667.4</ele>
      </trkpt>
      <trkpt lat="45.08688" lon="5.4699">
        <ele>668.1</ele>
      </trkpt>
      <trkpt lat="45.08678" lon="5.46987">
        <ele>668.6</ele>
      </trkpt>
      <trkpt lat="45.08669" lon="5.4698">
        <ele>668.7</ele>
      </trkpt>
      <trkpt lat="45.08644" lon="5.46857">
        <ele>679.3</ele>
      </trkpt>
      <trkpt lat="45.08637" lon="5.46847">
        <ele>679.8</ele>
      </trkpt>
      <trkpt lat="45.08623" lon="5.46836">
        <ele>681.4</ele>
      </trkpt>
      <trkpt lat="45.08605" lon="5.4682">
        <ele>685.1</ele>
      </trkpt>
      <trkpt lat="45.08596" lon="5.46806">
        <ele>685.6</ele>
      </trkpt>
      <trkpt lat="45.08584" lon="5.46793">
        <ele>686.2</ele>
      </trkpt>
      <trkpt lat="45.08563" lon="5.46773">
        <ele>694.4</ele>
      </trkpt>
      <trkpt lat="45.08552" lon="5.46765">
        <ele>694.9</ele>
      </trkpt>
    </trkseg>
  </trk>
  <trk>
    <name><![CDATA[Raid sur les anciennes pistes militaires autour de Jausiers (Haute-Ubaye)]]></name>
    <trkseg>
      <trkpt lat="44.42055" lon="6.73667">
        <ele>1220.043</ele>
        <time>2020-03-03T14:14:28Z</time>
      </trkpt>
      <trkpt lat="44.42055" lon="6.73667">
        <ele>1220.043</ele>
        <time>2020-03-03T14:14:28Z</time>
      </trkpt>
      <trkpt lat="44.42055" lon="6.73667">
        <ele>1220.064</ele>
        <time>2020-03-03T14:14:48Z</time>
      </trkpt>
      <trkpt lat="44.42178" lon="6.73713">
        <ele>1220.01</ele>
        <time>2020-03-03T14:15:08Z</time>
      </trkpt>
      <trkpt lat="44.42279" lon="6.73723">
        <ele>1220.008</ele>
        <time>2020-03-03T14:15:28Z</time>
      </trkpt>
      <trkpt lat="44.42594" lon="6.73701">
        <ele>1230.018</ele>
        <time>2020-03-03T14:15:48Z</time>
      </trkpt>
      <trkpt lat="44.42738" lon="6.73691">
        <ele>1230.081</ele>
        <time>2020-03-03T14:16:08Z</time>
      </trkpt>
      <trkpt lat="44.42884" lon="6.73632">
        <ele>1230.398</ele>
        <time>2020-03-03T14:16:28Z</time>
      </trkpt>
      <trkpt lat="44.42954" lon="6.73641">
        <ele>1230.017</ele>
        <time>2020-03-03T14:16:48Z</time>
      </trkpt>
      <trkpt lat="44.4302" lon="6.73707">
        <ele>1233.485</ele>
        <time>2020-03-03T14:17:08Z</time>
      </trkpt>
      <trkpt lat="44.43087" lon="6.7383">
        <ele>1230.726</ele>
        <time>2020-03-03T14:17:28Z</time>
      </trkpt>
      <trkpt lat="44.43114" lon="6.73851">
        <ele>1231.218</ele>
        <time>2020-03-03T14:17:48Z</time>
      </trkpt>
      <trkpt lat="44.43176" lon="6.73874">
        <ele>1236.764</ele>
        <time>2020-03-03T14:18:08Z</time>
      </trkpt>
      <trkpt lat="44.43271" lon="6.74042">
        <ele>1240.417</ele>
        <time>2020-03-03T14:18:28Z</time>
      </trkpt>
      <trkpt lat="44.43347" lon="6.74105">
        <ele>1240.587</ele>
        <time>2020-03-03T14:18:48Z</time>
      </trkpt>
      <trkpt lat="44.43372" lon="6.74155">
        <ele>1240.015</ele>
        <time>2020-03-03T14:19:08Z</time>
      </trkpt>
      <trkpt lat="44.43434" lon="6.74379">
        <ele>1249.308</ele>
        <time>2020-03-03T14:19:28Z</time>
      </trkpt>
      <trkpt lat="44.43488" lon="6.74404">
        <ele>1252.765</ele>
        <time>2020-03-03T14:19:48Z</time>
      </trkpt>
      <trkpt lat="44.4357" lon="6.74405">
        <ele>1247.038</ele>
        <time>2020-03-03T14:20:08Z</time>
      </trkpt>
      <trkpt lat="44.43618" lon="6.74363">
        <ele>1248.615</ele>
        <time>2020-03-03T14:20:28Z</time>
      </trkpt>
      <trkpt lat="44.43756" lon="6.74413">
        <ele>1251.514</ele>
        <time>2020-03-03T14:20:48Z</time>
      </trkpt>
      <trkpt lat="44.43816" lon="6.74385">
        <ele>1251.812</ele>
        <time>2020-03-03T14:21:08Z</time>
      </trkpt>
      <trkpt lat="44.43876" lon="6.744">
        <ele>1252.753</ele>
        <time>2020-03-03T14:21:28Z</time>
      </trkpt>
      <trkpt lat="44.43934" lon="6.74359">
        <ele>1253.645</ele>
        <time>2020-03-03T14:21:48Z</time>
      </trkpt>
      <trkpt lat="44.43992" lon="6.74271">
        <ele>1257.611</ele>
        <time>2020-03-03T14:22:08Z</time>
      </trkpt>
      <trkpt lat="44.44062" lon="6.74277">
        <ele>1256.779</ele>
        <time>2020-03-03T14:22:28Z</time>
      </trkpt>
      <trkpt lat="44.44158" lon="6.74193">
        <ele>1255.305</ele>
        <time>2020-03-03T14:22:48Z</time>
      </trkpt>
      <trkpt lat="44.44324" lon="6.74219">
        <ele>1260.825</ele>
        <time>2020-03-03T14:23:08Z</time>
      </trkpt>
      <trkpt lat="44.44421" lon="6.74264">
        <ele>1262.508</ele>
        <time>2020-03-03T14:23:28Z</time>
      </trkpt>
      <trkpt lat="44.44457" lon="6.74262">
        <ele>1262.441</ele>
        <time>2020-03-03T14:23:48Z</time>
      </trkpt>
      <trkpt lat="44.44568" lon="6.74199">
        <ele>1261.314</ele>
        <time>2020-03-03T14:24:08Z</time>
      </trkpt>
      <trkpt lat="44.44738" lon="6.74025">
        <ele>1263.341</ele>
        <time>2020-03-03T14:24:28Z</time>
      </trkpt>
      <trkpt lat="44.44798" lon="6.74022">
        <ele>1262.75</ele>
        <time>2020-03-03T14:24:48Z</time>
      </trkpt>
      <trkpt lat="44.44985" lon="6.74069">
        <ele>1262.528</ele>
        <time>2020-03-03T14:25:08Z</time>
      </trkpt>
      <trkpt lat="44.4513" lon="6.74224">
        <ele>1270.079</ele>
        <time>2020-03-03T14:25:28Z</time>
      </trkpt>
      <trkpt lat="44.45224" lon="6.74294">
        <ele>1271.731</ele>
        <time>2020-03-03T14:25:48Z</time>
      </trkpt>
      <trkpt lat="44.45262" lon="6.74315">
        <ele>1271.087</ele>
        <time>2020-03-03T14:26:08Z</time>
      </trkpt>
      <trkpt lat="44.45315" lon="6.74386">
        <ele>1273.271</ele>
        <time>2020-03-03T14:26:28Z</time>
      </trkpt>
      <trkpt lat="44.45354" lon="6.74386">
        <ele>1274.141</ele>
        <time>2020-03-03T14:26:48Z</time>
      </trkpt>
      <trkpt lat="44.45406" lon="6.74363">
        <ele>1276.015</ele>
        <time>2020-03-03T14:27:08Z</time>
      </trkpt>
      <trkpt lat="44.45523" lon="6.74371">
        <ele>1280.008</ele>
        <time>2020-03-03T14:27:28Z</time>
      </trkpt>
      <trkpt lat="44.45589" lon="6.74409">
        <ele>1283.571</ele>
        <time>2020-03-03T14:27:48Z</time>
      </trkpt>
      <trkpt lat="44.45682" lon="6.74409">
        <ele>1289.134</ele>
        <time>2020-03-03T14:28:08Z</time>
      </trkpt>
      <trkpt lat="44.45783" lon="6.7448">
        <ele>1287.371</ele>
        <time>2020-03-03T14:28:28Z</time>
      </trkpt>
      <trkpt lat="44.45806" lon="6.74524">
        <ele>1288.24</ele>
        <time>2020-03-03T14:28:48Z</time>
      </trkpt>
      <trkpt lat="44.45847" lon="6.74477">
        <ele>1295.848</ele>
        <time>2020-03-03T14:29:08Z</time>
      </trkpt>
      <trkpt lat="44.45864" lon="6.74363">
        <ele>1300.249</ele>
        <time>2020-03-03T14:29:28Z</time>
      </trkpt>
      <trkpt lat="44.45912" lon="6.74327">
        <ele>1302.051</ele>
        <time>2020-03-03T14:29:48Z</time>
      </trkpt>
      <trkpt lat="44.45988" lon="6.74213">
        <ele>1310.597</ele>
        <time>2020-03-03T14:30:08Z</time>
      </trkpt>
      <trkpt lat="44.46027" lon="6.74052">
        <ele>1312.498</ele>
        <time>2020-03-03T14:30:28Z</time>
      </trkpt>
      <trkpt lat="44.46007" lon="6.74035">
        <ele>1316.215</ele>
        <time>2020-03-03T14:30:48Z</time>
      </trkpt>
      <trkpt lat="44.45943" lon="6.74173">
        <ele>1325.626</ele>
        <time>2020-03-03T14:31:08Z</time>
      </trkpt>
      <trkpt lat="44.45862" lon="6.7425">
        <ele>1331.508</ele>
        <time>2020-03-03T14:31:28Z</time>
      </trkpt>
      <trkpt lat="44.4584" lon="6.74248">
        <ele>1337.463</ele>
        <time>2020-03-03T14:31:48Z</time>
      </trkpt>
      <trkpt lat="44.4584" lon="6.74239">
        <ele>1341.116</ele>
        <time>2020-03-03T14:32:08Z</time>
      </trkpt>
      <trkpt lat="44.45872" lon="6.74222">
        <ele>1339.323</ele>
        <time>2020-03-03T14:32:28Z</time>
      </trkpt>
      <trkpt lat="44.45912" lon="6.74152">
        <ele>1342.032</ele>
        <time>2020-03-03T14:32:48Z</time>
      </trkpt>
      <trkpt lat="44.45939" lon="6.74054">
        <ele>1349.02</ele>
        <time>2020-03-03T14:33:08Z</time>
      </trkpt>
      <trkpt lat="44.45934" lon="6.74047">
        <ele>1352.071</ele>
        <time>2020-03-03T14:33:28Z</time>
      </trkpt>
      <trkpt lat="44.45874" lon="6.74163">
        <ele>1354.913</ele>
        <time>2020-03-03T14:33:48Z</time>
      </trkpt>
      <trkpt lat="44.45767" lon="6.7419">
        <ele>1366.239</ele>
        <time>2020-03-03T14:34:08Z</time>
      </trkpt>
      <trkpt lat="44.45619" lon="6.74195">
        <ele>1371.675</ele>
        <time>2020-03-03T14:34:28Z</time>
      </trkpt>
      <trkpt lat="44.45577" lon="6.74177">
        <ele>1379.128</ele>
        <time>2020-03-03T14:34:48Z</time>
      </trkpt>
      <trkpt lat="44.45524" lon="6.74177">
        <ele>1384.82</ele>
        <time>2020-03-03T14:35:08Z</time>
      </trkpt>
      <trkpt lat="44.45526" lon="6.74161">
        <ele>1390.108</ele>
        <time>2020-03-03T14:35:28Z</time>
      </trkpt>
      <trkpt lat="44.45552" lon="6.74151">
        <ele>1390.281</ele>
        <time>2020-03-03T14:35:48Z</time>
      </trkpt>
      <trkpt lat="44.45605" lon="6.74155">
        <ele>1387.964</ele>
        <time>2020-03-03T14:36:08Z</time>
      </trkpt>
      <trkpt lat="44.45672" lon="6.74104">
        <ele>1396.651</ele>
        <time>2020-03-03T14:36:28Z</time>
      </trkpt>
      <trkpt lat="44.45764" lon="6.74066">
        <ele>1406.79</ele>
        <time>2020-03-03T14:36:48Z</time>
      </trkpt>
      <trkpt lat="44.45766" lon="6.74043">
        <ele>1410.828</ele>
        <time>2020-03-03T14:37:08Z</time>
      </trkpt>
      <trkpt lat="44.45757" lon="6.74023">
        <ele>1415.179</ele>
        <time>2020-03-03T14:37:28Z</time>
      </trkpt>
      <trkpt lat="44.45714" lon="6.74015">
        <ele>1419.251</ele>
        <time>2020-03-03T14:37:48Z</time>
      </trkpt>
      <trkpt lat="44.45709" lon="6.73993">
        <ele>1420.647</ele>
        <time>2020-03-03T14:38:08Z</time>
      </trkpt>
      <trkpt lat="44.45717" lon="6.73977">
        <ele>1421.321</ele>
        <time>2020-03-03T14:38:28Z</time>
      </trkpt>
      <trkpt lat="44.45772" lon="6.73954">
        <ele>1421.041</ele>
        <time>2020-03-03T14:38:48Z</time>
      </trkpt>
      <trkpt lat="44.45877" lon="6.73736">
        <ele>1436.605</ele>
        <time>2020-03-03T14:39:08Z</time>
      </trkpt>
      <trkpt lat="44.45975" lon="6.73645">
        <ele>1449.908</ele>
        <time>2020-03-03T14:39:28Z</time>
      </trkpt>
      <trkpt lat="44.45964" lon="6.7359">
        <ele>1456.686</ele>
        <time>2020-03-03T14:39:48Z</time>
      </trkpt>
      <trkpt lat="44.45956" lon="6.736">
        <ele>1460.259</ele>
        <time>2020-03-03T14:40:08Z</time>
      </trkpt>
      <trkpt lat="44.45955" lon="6.73638">
        <ele>1457.436</ele>
        <time>2020-03-03T14:40:28Z</time>
      </trkpt>
      <trkpt lat="44.45885" lon="6.73657">
        <ele>1462.785</ele>
        <time>2020-03-03T14:40:48Z</time>
      </trkpt>
      <trkpt lat="44.45879" lon="6.73643">
        <ele>1468.373</ele>
        <time>2020-03-03T14:41:08Z</time>
      </trkpt>
      <trkpt lat="44.45928" lon="6.73625">
        <ele>1466.474</ele>
        <time>2020-03-03T14:41:28Z</time>
      </trkpt>
      <trkpt lat="44.45929" lon="6.73601">
        <ele>1469.426</ele>
        <time>2020-03-03T14:41:48Z</time>
      </trkpt>
      <trkpt lat="44.45907" lon="6.73516">
        <ele>1480.932</ele>
        <time>2020-03-03T14:42:08Z</time>
      </trkpt>
      <trkpt lat="44.45932" lon="6.73472">
        <ele>1481.379</ele>
        <time>2020-03-03T14:42:28Z</time>
      </trkpt>
      <trkpt lat="44.45965" lon="6.73425">
        <ele>1486.405</ele>
        <time>2020-03-03T14:42:48Z</time>
      </trkpt>
      <trkpt lat="44.45971" lon="6.73378">
        <ele>1494.525</ele>
        <time>2020-03-03T14:43:08Z</time>
      </trkpt>
      <trkpt lat="44.46015" lon="6.73332">
        <ele>1499.808</ele>
        <time>2020-03-03T14:43:28Z</time>
      </trkpt>
      <trkpt lat="44.46065" lon="6.73318">
        <ele>1501.591</ele>
        <time>2020-03-03T14:43:48Z</time>
      </trkpt>
      <trkpt lat="44.46087" lon="6.73299">
        <ele>1507.914</ele>
        <time>2020-03-03T14:44:08Z</time>
      </trkpt>
      <trkpt lat="44.46108" lon="6.73316">
        <ele>1505.851</ele>
        <time>2020-03-03T14:44:28Z</time>
      </trkpt>
      <trkpt lat="44.46224" lon="6.73247">
        <ele>1526.49</ele>
        <time>2020-03-03T14:44:48Z</time>
      </trkpt>
      <trkpt lat="44.46302" lon="6.73321">
        <ele>1528.348</ele>
        <time>2020-03-03T14:45:08Z</time>
      </trkpt>
      <trkpt lat="44.46446" lon="6.73298">
        <ele>1547.139</ele>
        <time>2020-03-03T14:45:28Z</time>
      </trkpt>
      <trkpt lat="44.46493" lon="6.73279">
        <ele>1550.531</ele>
        <time>2020-03-03T14:45:48Z</time>
      </trkpt>
      <trkpt lat="44.46544" lon="6.73216">
        <ele>1561.247</ele>
        <time>2020-03-03T14:46:08Z</time>
      </trkpt>
      <trkpt lat="44.4662" lon="6.73069">
        <ele>1568.344</ele>
        <time>2020-03-03T14:46:28Z</time>
      </trkpt>
      <trkpt lat="44.46643" lon="6.73004">
        <ele>1573.405</ele>
        <time>2020-03-03T14:46:48Z</time>
      </trkpt>
      <trkpt lat="44.46632" lon="6.73">
        <ele>1579.215</ele>
        <time>2020-03-03T14:47:08Z</time>
      </trkpt>
      <trkpt lat="44.46598" lon="6.73065">
        <ele>1579.208</ele>
        <time>2020-03-03T14:47:28Z</time>
      </trkpt>
      <trkpt lat="44.46569" lon="6.731">
        <ele>1582.718</ele>
        <time>2020-03-03T14:47:48Z</time>
      </trkpt>
      <trkpt lat="44.46554" lon="6.73122">
        <ele>1584.481</ele>
        <time>2020-03-03T14:48:08Z</time>
      </trkpt>
      <trkpt lat="44.46547" lon="6.73115">
        <ele>1590.788</ele>
        <time>2020-03-03T14:48:28Z</time>
      </trkpt>
      <trkpt lat="44.46582" lon="6.73055">
        <ele>1589.617</ele>
        <time>2020-03-03T14:48:48Z</time>
      </trkpt>
      <trkpt lat="44.46596" lon="6.73004">
        <ele>1595.395</ele>
        <time>2020-03-03T14:49:08Z</time>
      </trkpt>
      <trkpt lat="44.46629" lon="6.72934">
        <ele>1597.896</ele>
        <time>2020-03-03T14:49:28Z</time>
      </trkpt>
      <trkpt lat="44.46651" lon="6.72841">
        <ele>1610.078</ele>
        <time>2020-03-03T14:49:48Z</time>
      </trkpt>
      <trkpt lat="44.46699" lon="6.72794">
        <ele>1611.664</ele>
        <time>2020-03-03T14:50:08Z</time>
      </trkpt>
      <trkpt lat="44.4673" lon="6.72774">
        <ele>1614.048</ele>
        <time>2020-03-03T14:50:28Z</time>
      </trkpt>
      <trkpt lat="44.46778" lon="6.72706">
        <ele>1624.361</ele>
        <time>2020-03-03T14:50:48Z</time>
      </trkpt>
      <trkpt lat="44.46809" lon="6.72643">
        <ele>1633.217</ele>
        <time>2020-03-03T14:51:08Z</time>
      </trkpt>
      <trkpt lat="44.4692" lon="6.72604">
        <ele>1648.508</ele>
        <time>2020-03-03T14:51:28Z</time>
      </trkpt>
      <trkpt lat="44.46951" lon="6.72608">
        <ele>1649.848</ele>
        <time>2020-03-03T14:51:48Z</time>
      </trkpt>
      <trkpt lat="44.46996" lon="6.72582">
        <ele>1660.651</ele>
        <time>2020-03-03T14:52:08Z</time>
      </trkpt>
      <trkpt lat="44.47037" lon="6.72579">
        <ele>1663.298</ele>
        <time>2020-03-03T14:52:28Z</time>
      </trkpt>
      <trkpt lat="44.47114" lon="6.72544">
        <ele>1674.247</ele>
        <time>2020-03-03T14:52:48Z</time>
      </trkpt>
      <trkpt lat="44.47174" lon="6.72549">
        <ele>1678.825</ele>
        <time>2020-03-03T14:53:08Z</time>
      </trkpt>
      <trkpt lat="44.4719" lon="6.72531">
        <ele>1681.896</ele>
        <time>2020-03-03T14:53:28Z</time>
      </trkpt>
      <trkpt lat="44.47221" lon="6.72436">
        <ele>1689.678</ele>
        <time>2020-03-03T14:53:48Z</time>
      </trkpt>
      <trkpt lat="44.47225" lon="6.72374">
        <ele>1697.214</ele>
        <time>2020-03-03T14:54:08Z</time>
      </trkpt>
      <trkpt lat="44.47274" lon="6.72259">
        <ele>1702.266</ele>
        <time>2020-03-03T14:54:28Z</time>
      </trkpt>
      <trkpt lat="44.47315" lon="6.72201">
        <ele>1704.429</ele>
        <time>2020-03-03T14:54:48Z</time>
      </trkpt>
      <trkpt lat="44.47334" lon="6.72154">
        <ele>1706.321</ele>
        <time>2020-03-03T14:55:08Z</time>
      </trkpt>
      <trkpt lat="44.47356" lon="6.7209">
        <ele>1711.508</ele>
        <time>2020-03-03T14:55:28Z</time>
      </trkpt>
      <trkpt lat="44.47392" lon="6.72058">
        <ele>1713.23</ele>
        <time>2020-03-03T14:55:48Z</time>
      </trkpt>
      <trkpt lat="44.47434" lon="6.71951">
        <ele>1717.863</ele>
        <time>2020-03-03T14:56:08Z</time>
      </trkpt>
      <trkpt lat="44.47489" lon="6.71878">
        <ele>1717.79</ele>
        <time>2020-03-03T14:56:28Z</time>
      </trkpt>
      <trkpt lat="44.4759" lon="6.71756">
        <ele>1725.869</ele>
        <time>2020-03-03T14:56:48Z</time>
      </trkpt>
      <trkpt lat="44.47622" lon="6.71715">
        <ele>1724.127</ele>
        <time>2020-03-03T14:57:08Z</time>
      </trkpt>
      <trkpt lat="44.47654" lon="6.71665">
        <ele>1727.348</ele>
        <time>2020-03-03T14:57:28Z</time>
      </trkpt>
      <trkpt lat="44.47682" lon="6.71589">
        <ele>1732.97</ele>
        <time>2020-03-03T14:57:48Z</time>
      </trkpt>
      <trkpt lat="44.47714" lon="6.71548">
        <ele>1735.616</ele>
        <time>2020-03-03T14:58:08Z</time>
      </trkpt>
      <trkpt lat="44.47726" lon="6.71525">
        <ele>1739.075</ele>
        <time>2020-03-03T14:58:28Z</time>
      </trkpt>
      <trkpt lat="44.47738" lon="6.71492">
        <ele>1743.728</ele>
        <time>2020-03-03T14:58:48Z</time>
      </trkpt>
      <trkpt lat="44.47768" lon="6.71457">
        <ele>1746.52</ele>
        <time>2020-03-03T14:59:08Z</time>
      </trkpt>
      <trkpt lat="44.4778" lon="6.71434">
        <ele>1751.308</ele>
        <time>2020-03-03T14:59:28Z</time>
      </trkpt>
      <trkpt lat="44.47809" lon="6.71418">
        <ele>1748.451</ele>
        <time>2020-03-03T14:59:48Z</time>
      </trkpt>
      <trkpt lat="44.47837" lon="6.71377">
        <ele>1752.124</ele>
        <time>2020-03-03T15:00:08Z</time>
      </trkpt>
      <trkpt lat="44.47888" lon="6.71329">
        <ele>1751.491</ele>
        <time>2020-03-03T15:00:28Z</time>
      </trkpt>
      <trkpt lat="44.47947" lon="6.71246">
        <ele>1752.04</ele>
        <time>2020-03-03T15:00:48Z</time>
      </trkpt>
      <trkpt lat="44.47989" lon="6.71184">
        <ele>1753.158</ele>
        <time>2020-03-03T15:01:08Z</time>
      </trkpt>
      <trkpt lat="44.48014" lon="6.71157">
        <ele>1752.739</ele>
        <time>2020-03-03T15:01:28Z</time>
      </trkpt>
      <trkpt lat="44.48029" lon="6.71128">
        <ele>1752.531</ele>
        <time>2020-03-03T15:01:48Z</time>
      </trkpt>
      <trkpt lat="44.48043" lon="6.71074">
        <ele>1749.837</ele>
        <time>2020-03-03T15:02:08Z</time>
      </trkpt>
      <trkpt lat="44.48042" lon="6.71046">
        <ele>1750.176</ele>
        <time>2020-03-03T15:02:28Z</time>
      </trkpt>
      <trkpt lat="44.48023" lon="6.70904">
        <ele>1750.59</ele>
        <time>2020-03-03T15:02:48Z</time>
      </trkpt>
      <trkpt lat="44.47998" lon="6.70845">
        <ele>1759.219</ele>
        <time>2020-03-03T15:03:08Z</time>
      </trkpt>
      <trkpt lat="44.47993" lon="6.70804">
        <ele>1761.408</ele>
        <time>2020-03-03T15:03:28Z</time>
      </trkpt>
      <trkpt lat="44.47995" lon="6.70723">
        <ele>1761.761</ele>
        <time>2020-03-03T15:03:48Z</time>
      </trkpt>
      <trkpt lat="44.47998" lon="6.70686">
        <ele>1761.414</ele>
        <time>2020-03-03T15:04:08Z</time>
      </trkpt>
      <trkpt lat="44.47995" lon="6.70612">
        <ele>1769.081</ele>
        <time>2020-03-03T15:04:28Z</time>
      </trkpt>
      <trkpt lat="44.48007" lon="6.70565">
        <ele>1772.31</ele>
        <time>2020-03-03T15:04:48Z</time>
      </trkpt>
      <trkpt lat="44.48059" lon="6.70474">
        <ele>1773.488</ele>
        <time>2020-03-03T15:05:08Z</time>
      </trkpt>
      <trkpt lat="44.4807" lon="6.70444">
        <ele>1776.539</ele>
        <time>2020-03-03T15:05:28Z</time>
      </trkpt>
      <trkpt lat="44.48077" lon="6.70417">
        <ele>1781.441</ele>
        <time>2020-03-03T15:05:48Z</time>
      </trkpt>
      <trkpt lat="44.48087" lon="6.70408">
        <ele>1780.397</ele>
        <time>2020-03-03T15:06:08Z</time>
      </trkpt>
      <trkpt lat="44.48102" lon="6.70399">
        <ele>1777.868</ele>
        <time>2020-03-03T15:06:28Z</time>
      </trkpt>
      <trkpt lat="44.48116" lon="6.70357">
        <ele>1781.042</ele>
        <time>2020-03-03T15:06:48Z</time>
      </trkpt>
      <trkpt lat="44.48129" lon="6.70302">
        <ele>1781.826</ele>
        <time>2020-03-03T15:07:08Z</time>
      </trkpt>
      <trkpt lat="44.48135" lon="6.7024">
        <ele>1786.308</ele>
        <time>2020-03-03T15:07:28Z</time>
      </trkpt>
      <trkpt lat="44.48146" lon="6.70184">
        <ele>1784.77</ele>
        <time>2020-03-03T15:07:48Z</time>
      </trkpt>
      <trkpt lat="44.48146" lon="6.70145">
        <ele>1789.833</ele>
        <time>2020-03-03T15:08:08Z</time>
      </trkpt>
      <trkpt lat="44.48153" lon="6.70119">
        <ele>1790.48</ele>
        <time>2020-03-03T15:08:28Z</time>
      </trkpt>
      <trkpt lat="44.48173" lon="6.70081">
        <ele>1790.019</ele>
        <time>2020-03-03T15:08:48Z</time>
      </trkpt>
      <trkpt lat="44.48174" lon="6.7006">
        <ele>1791.517</ele>
        <time>2020-03-03T15:09:08Z</time>
      </trkpt>
      <trkpt lat="44.48169" lon="6.70006">
        <ele>1798.018</ele>
        <time>2020-03-03T15:09:28Z</time>
      </trkpt>
      <trkpt lat="44.48173" lon="6.69985">
        <ele>1798.95</ele>
        <time>2020-03-03T15:09:48Z</time>
      </trkpt>
      <trkpt lat="44.4818" lon="6.69967">
        <ele>1798.486</ele>
        <time>2020-03-03T15:10:08Z</time>
      </trkpt>
      <trkpt lat="44.48171" lon="6.69896">
        <ele>1801.224</ele>
        <time>2020-03-03T15:10:28Z</time>
      </trkpt>
      <trkpt lat="44.48146" lon="6.6981">
        <ele>1807.904</ele>
        <time>2020-03-03T15:10:48Z</time>
      </trkpt>
      <trkpt lat="44.48148" lon="6.69744">
        <ele>1805.114</ele>
        <time>2020-03-03T15:11:08Z</time>
      </trkpt>
      <trkpt lat="44.4813" lon="6.69666">
        <ele>1811.608</ele>
        <time>2020-03-03T15:11:28Z</time>
      </trkpt>
      <trkpt lat="44.48121" lon="6.69582">
        <ele>1813.036</ele>
        <time>2020-03-03T15:11:48Z</time>
      </trkpt>
      <trkpt lat="44.48118" lon="6.69521">
        <ele>1813.439</ele>
        <time>2020-03-03T15:12:08Z</time>
      </trkpt>
      <trkpt lat="44.4811" lon="6.69477">
        <ele>1819.976</ele>
        <time>2020-03-03T15:12:28Z</time>
      </trkpt>
      <trkpt lat="44.48112" lon="6.69412">
        <ele>1822.085</ele>
        <time>2020-03-03T15:12:48Z</time>
      </trkpt>
      <trkpt lat="44.48119" lon="6.69362">
        <ele>1825.643</ele>
        <time>2020-03-03T15:13:08Z</time>
      </trkpt>
      <trkpt lat="44.48134" lon="6.69326">
        <ele>1820.674</ele>
        <time>2020-03-03T15:13:28Z</time>
      </trkpt>
      <trkpt lat="44.48111" lon="6.69273">
        <ele>1827.586</ele>
        <time>2020-03-03T15:13:48Z</time>
      </trkpt>
      <trkpt lat="44.4806" lon="6.692">
        <ele>1832.152</ele>
        <time>2020-03-03T15:14:08Z</time>
      </trkpt>
      <trkpt lat="44.48034" lon="6.69178">
        <ele>1835.272</ele>
        <time>2020-03-03T15:14:28Z</time>
      </trkpt>
      <trkpt lat="44.4803" lon="6.6916">
        <ele>1837.913</ele>
        <time>2020-03-03T15:14:48Z</time>
      </trkpt>
      <trkpt lat="44.48027" lon="6.69137">
        <ele>1846.514</ele>
        <time>2020-03-03T15:15:08Z</time>
      </trkpt>
      <trkpt lat="44.48039" lon="6.69126">
        <ele>1848.108</ele>
        <time>2020-03-03T15:15:28Z</time>
      </trkpt>
      <trkpt lat="44.48074" lon="6.69103">
        <ele>1848.241</ele>
        <time>2020-03-03T15:15:48Z</time>
      </trkpt>
      <trkpt lat="44.48099" lon="6.69078">
        <ele>1852.054</ele>
        <time>2020-03-03T15:16:08Z</time>
      </trkpt>
      <trkpt lat="44.48107" lon="6.69064">
        <ele>1856.331</ele>
        <time>2020-03-03T15:16:28Z</time>
      </trkpt>
      <trkpt lat="44.48142" lon="6.69034">
        <ele>1865.11</ele>
        <time>2020-03-03T15:16:48Z</time>
      </trkpt>
      <trkpt lat="44.48194" lon="6.69012">
        <ele>1867.388</ele>
        <time>2020-03-03T15:17:08Z</time>
      </trkpt>
      <trkpt lat="44.48229" lon="6.68974">
        <ele>1875.459</ele>
        <time>2020-03-03T15:17:28Z</time>
      </trkpt>
      <trkpt lat="44.4826" lon="6.68945">
        <ele>1873.461</ele>
        <time>2020-03-03T15:17:48Z</time>
      </trkpt>
      <trkpt lat="44.48284" lon="6.6886">
        <ele>1884.637</ele>
        <time>2020-03-03T15:18:08Z</time>
      </trkpt>
      <trkpt lat="44.48314" lon="6.68789">
        <ele>1881.031</ele>
        <time>2020-03-03T15:18:28Z</time>
      </trkpt>
      <trkpt lat="44.48312" lon="6.6875">
        <ele>1886.861</ele>
        <time>2020-03-03T15:18:48Z</time>
      </trkpt>
      <trkpt lat="44.48313" lon="6.68712">
        <ele>1890.207</ele>
        <time>2020-03-03T15:19:08Z</time>
      </trkpt>
      <trkpt lat="44.48302" lon="6.68709">
        <ele>1897.708</ele>
        <time>2020-03-03T15:19:28Z</time>
      </trkpt>
      <trkpt lat="44.48292" lon="6.68793">
        <ele>1895.447</ele>
        <time>2020-03-03T15:19:48Z</time>
      </trkpt>
      <trkpt lat="44.4826" lon="6.68828">
        <ele>1905.88</ele>
        <time>2020-03-03T15:20:08Z</time>
      </trkpt>
      <trkpt lat="44.48244" lon="6.68836">
        <ele>1910.197</ele>
        <time>2020-03-03T15:20:28Z</time>
      </trkpt>
      <trkpt lat="44.48242" lon="6.68856">
        <ele>1906.126</ele>
        <time>2020-03-03T15:20:48Z</time>
      </trkpt>
      <trkpt lat="44.482" lon="6.68886">
        <ele>1913.254</ele>
        <time>2020-03-03T15:21:08Z</time>
      </trkpt>
      <trkpt lat="44.48118" lon="6.6889">
        <ele>1924.245</ele>
        <time>2020-03-03T15:21:28Z</time>
      </trkpt>
      <trkpt lat="44.48102" lon="6.68896">
        <ele>1924.697</ele>
        <time>2020-03-03T15:21:48Z</time>
      </trkpt>
      <trkpt lat="44.48087" lon="6.68905">
        <ele>1924.583</ele>
        <time>2020-03-03T15:22:08Z</time>
      </trkpt>
      <trkpt lat="44.48061" lon="6.68913">
        <ele>1929.423</ele>
        <time>2020-03-03T15:22:28Z</time>
      </trkpt>
      <trkpt lat="44.48022" lon="6.68934">
        <ele>1933.283</ele>
        <time>2020-03-03T15:22:48Z</time>
      </trkpt>
      <trkpt lat="44.48013" lon="6.68923">
        <ele>1939.211</ele>
        <time>2020-03-03T15:23:08Z</time>
      </trkpt>
      <trkpt lat="44.48038" lon="6.68913">
        <ele>1935.808</ele>
        <time>2020-03-03T15:23:28Z</time>
      </trkpt>
      <trkpt lat="44.48061" lon="6.68894">
        <ele>1934.086</ele>
        <time>2020-03-03T15:23:48Z</time>
      </trkpt>
      <trkpt lat="44.48072" lon="6.68876">
        <ele>1934.539</ele>
        <time>2020-03-03T15:24:08Z</time>
      </trkpt>
      <trkpt lat="44.4808" lon="6.68835">
        <ele>1941.976</ele>
        <time>2020-03-03T15:24:28Z</time>
      </trkpt>
      <trkpt lat="44.48138" lon="6.68813">
        <ele>1944.655</ele>
        <time>2020-03-03T15:24:48Z</time>
      </trkpt>
      <trkpt lat="44.48164" lon="6.68771">
        <ele>1947.013</ele>
        <time>2020-03-03T15:25:08Z</time>
      </trkpt>
      <trkpt lat="44.48195" lon="6.68701">
        <ele>1954.174</ele>
        <time>2020-03-03T15:25:28Z</time>
      </trkpt>
      <trkpt lat="44.482" lon="6.68677">
        <ele>1955.076</ele>
        <time>2020-03-03T15:25:48Z</time>
      </trkpt>
      <trkpt lat="44.48201" lon="6.68631">
        <ele>1961.842</ele>
        <time>2020-03-03T15:26:08Z</time>
      </trkpt>
      <trkpt lat="44.4821" lon="6.68555">
        <ele>1968.436</ele>
        <time>2020-03-03T15:26:28Z</time>
      </trkpt>
      <trkpt lat="44.48222" lon="6.68525">
        <ele>1967.617</ele>
        <time>2020-03-03T15:26:48Z</time>
      </trkpt>
      <trkpt lat="44.48259" lon="6.68464">
        <ele>1971.718</ele>
        <time>2020-03-03T15:27:08Z</time>
      </trkpt>
      <trkpt lat="44.4827" lon="6.68423">
        <ele>1975.908</ele>
        <time>2020-03-03T15:27:28Z</time>
      </trkpt>
      <trkpt lat="44.48272" lon="6.68334">
        <ele>1984.227</ele>
        <time>2020-03-03T15:27:48Z</time>
      </trkpt>
      <trkpt lat="44.48278" lon="6.68305">
        <ele>1986.26</ele>
        <time>2020-03-03T15:28:08Z</time>
      </trkpt>
      <trkpt lat="44.48296" lon="6.68248">
        <ele>1990.677</ele>
        <time>2020-03-03T15:28:28Z</time>
      </trkpt>
      <trkpt lat="44.48301" lon="6.68205">
        <ele>2000.016</ele>
        <time>2020-03-03T15:28:48Z</time>
      </trkpt>
      <trkpt lat="44.48319" lon="6.68177">
        <ele>1998.924</ele>
        <time>2020-03-03T15:29:08Z</time>
      </trkpt>
      <trkpt lat="44.48321" lon="6.68128">
        <ele>2005.325</ele>
        <time>2020-03-03T15:29:28Z</time>
      </trkpt>
      <trkpt lat="44.48327" lon="6.68089">
        <ele>2008.827</ele>
        <time>2020-03-03T15:29:48Z</time>
      </trkpt>
      <trkpt lat="44.48333" lon="6.68071">
        <ele>2010.393</ele>
        <time>2020-03-03T15:30:08Z</time>
      </trkpt>
      <trkpt lat="44.48348" lon="6.68045">
        <ele>2006.285</ele>
        <time>2020-03-03T15:30:28Z</time>
      </trkpt>
      <trkpt lat="44.48344" lon="6.68009">
        <ele>2009.889</ele>
        <time>2020-03-03T15:30:48Z</time>
      </trkpt>
      <trkpt lat="44.48332" lon="6.67946">
        <ele>2021.417</ele>
        <time>2020-03-03T15:31:08Z</time>
      </trkpt>
      <trkpt lat="44.48347" lon="6.67923">
        <ele>2019.908</ele>
        <time>2020-03-03T15:31:28Z</time>
      </trkpt>
      <trkpt lat="44.48371" lon="6.67893">
        <ele>2014.752</ele>
        <time>2020-03-03T15:31:48Z</time>
      </trkpt>
      <trkpt lat="44.48373" lon="6.6788">
        <ele>2014.795</ele>
        <time>2020-03-03T15:32:08Z</time>
      </trkpt>
      <trkpt lat="44.48364" lon="6.67841">
        <ele>2021.252</ele>
        <time>2020-03-03T15:32:28Z</time>
      </trkpt>
      <trkpt lat="44.48367" lon="6.67831">
        <ele>2021.261</ele>
        <time>2020-03-03T15:32:48Z</time>
      </trkpt>
      <trkpt lat="44.48387" lon="6.67783">
        <ele>2015.119</ele>
        <time>2020-03-03T15:33:08Z</time>
      </trkpt>
      <trkpt lat="44.48378" lon="6.67756">
        <ele>2019.38</ele>
        <time>2020-03-03T15:33:28Z</time>
      </trkpt>
      <trkpt lat="44.48369" lon="6.67678">
        <ele>2024.692</ele>
        <time>2020-03-03T15:33:48Z</time>
      </trkpt>
      <trkpt lat="44.48381" lon="6.67639">
        <ele>2021.748</ele>
        <time>2020-03-03T15:34:08Z</time>
      </trkpt>
      <trkpt lat="44.48375" lon="6.67603">
        <ele>2022.499</ele>
        <time>2020-03-03T15:34:28Z</time>
      </trkpt>
      <trkpt lat="44.4836" lon="6.67549">
        <ele>2026.707</ele>
        <time>2020-03-03T15:34:48Z</time>
      </trkpt>
      <trkpt lat="44.48361" lon="6.67518">
        <ele>2027.427</ele>
        <time>2020-03-03T15:35:08Z</time>
      </trkpt>
      <trkpt lat="44.48375" lon="6.67477">
        <ele>2026.508</ele>
        <time>2020-03-03T15:35:28Z</time>
      </trkpt>
      <trkpt lat="44.48384" lon="6.67459">
        <ele>2026.973</ele>
        <time>2020-03-03T15:35:48Z</time>
      </trkpt>
      <trkpt lat="44.48391" lon="6.67449">
        <ele>2026.636</ele>
        <time>2020-03-03T15:36:08Z</time>
      </trkpt>
      <trkpt lat="44.48409" lon="6.67386">
        <ele>2031.253</ele>
        <time>2020-03-03T15:36:28Z</time>
      </trkpt>
      <trkpt lat="44.48422" lon="6.6736">
        <ele>2028.482</ele>
        <time>2020-03-03T15:36:48Z</time>
      </trkpt>
      <trkpt lat="44.48431" lon="6.67312">
        <ele>2022.62</ele>
        <time>2020-03-03T15:37:08Z</time>
      </trkpt>
      <trkpt lat="44.48413" lon="6.67249">
        <ele>2026.241</ele>
        <time>2020-03-03T15:37:28Z</time>
      </trkpt>
      <trkpt lat="44.48404" lon="6.67193">
        <ele>2025.963</ele>
        <time>2020-03-03T15:37:48Z</time>
      </trkpt>
      <trkpt lat="44.48405" lon="6.67169">
        <ele>2022.179</ele>
        <time>2020-03-03T15:38:08Z</time>
      </trkpt>
      <trkpt lat="44.48382" lon="6.671">
        <ele>2023.036</ele>
        <time>2020-03-03T15:38:28Z</time>
      </trkpt>
      <trkpt lat="44.48358" lon="6.67046">
        <ele>2035.517</ele>
        <time>2020-03-03T15:38:48Z</time>
      </trkpt>
      <trkpt lat="44.48381" lon="6.67017">
        <ele>2032.418</ele>
        <time>2020-03-03T15:39:08Z</time>
      </trkpt>
      <trkpt lat="44.48386" lon="6.67004">
        <ele>2032.408</ele>
        <time>2020-03-03T15:39:28Z</time>
      </trkpt>
      <trkpt lat="44.48393" lon="6.66933">
        <ele>2025.717</ele>
        <time>2020-03-03T15:39:48Z</time>
      </trkpt>
      <trkpt lat="44.48379" lon="6.6688">
        <ele>2025.93</ele>
        <time>2020-03-03T15:40:08Z</time>
      </trkpt>
      <trkpt lat="44.48363" lon="6.66866">
        <ele>2028.957</ele>
        <time>2020-03-03T15:40:28Z</time>
      </trkpt>
      <trkpt lat="44.48342" lon="6.66843">
        <ele>2030.146</ele>
        <time>2020-03-03T15:40:48Z</time>
      </trkpt>
      <trkpt lat="44.48343" lon="6.66815">
        <ele>2030.254</ele>
        <time>2020-03-03T15:41:08Z</time>
      </trkpt>
      <trkpt lat="44.48348" lon="6.66781">
        <ele>2033.315</ele>
        <time>2020-03-03T15:41:28Z</time>
      </trkpt>
      <trkpt lat="44.48293" lon="6.66635">
        <ele>2044.987</ele>
        <time>2020-03-03T15:41:48Z</time>
      </trkpt>
      <trkpt lat="44.48276" lon="6.66509">
        <ele>2055.243</ele>
        <time>2020-03-03T15:42:08Z</time>
      </trkpt>
      <trkpt lat="44.48283" lon="6.66431">
        <ele>2060.845</ele>
        <time>2020-03-03T15:42:28Z</time>
      </trkpt>
      <trkpt lat="44.48288" lon="6.66334">
        <ele>2066.547</ele>
        <time>2020-03-03T15:42:48Z</time>
      </trkpt>
      <trkpt lat="44.48304" lon="6.66285">
        <ele>2069.811</ele>
        <time>2020-03-03T15:43:08Z</time>
      </trkpt>
      <trkpt lat="44.48347" lon="6.6624">
        <ele>2077.808</ele>
        <time>2020-03-03T15:43:28Z</time>
      </trkpt>
      <trkpt lat="44.4835" lon="6.66202">
        <ele>2082.618</ele>
        <time>2020-03-03T15:43:48Z</time>
      </trkpt>
      <trkpt lat="44.48339" lon="6.66164">
        <ele>2087.371</ele>
        <time>2020-03-03T15:44:08Z</time>
      </trkpt>
      <trkpt lat="44.48295" lon="6.66103">
        <ele>2090.088</ele>
        <time>2020-03-03T15:44:28Z</time>
      </trkpt>
      <trkpt lat="44.48285" lon="6.6607">
        <ele>2098.357</ele>
        <time>2020-03-03T15:44:48Z</time>
      </trkpt>
      <trkpt lat="44.48249" lon="6.66028">
        <ele>2100.415</ele>
        <time>2020-03-03T15:45:08Z</time>
      </trkpt>
      <trkpt lat="44.48235" lon="6.65999">
        <ele>2107.836</ele>
        <time>2020-03-03T15:45:28Z</time>
      </trkpt>
      <trkpt lat="44.48214" lon="6.65987">
        <ele>2103.958</ele>
        <time>2020-03-03T15:45:48Z</time>
      </trkpt>
      <trkpt lat="44.48195" lon="6.65952">
        <ele>2109.964</ele>
        <time>2020-03-03T15:46:08Z</time>
      </trkpt>
      <trkpt lat="44.48162" lon="6.65922">
        <ele>2110.122</ele>
        <time>2020-03-03T15:46:28Z</time>
      </trkpt>
      <trkpt lat="44.48108" lon="6.65854">
        <ele>2116.662</ele>
        <time>2020-03-03T15:46:48Z</time>
      </trkpt>
      <trkpt lat="44.48099" lon="6.65833">
        <ele>2121.608</ele>
        <time>2020-03-03T15:47:08Z</time>
      </trkpt>
      <trkpt lat="44.48066" lon="6.65816">
        <ele>2122.108</ele>
        <time>2020-03-03T15:47:28Z</time>
      </trkpt>
      <trkpt lat="44.48033" lon="6.65789">
        <ele>2125.946</ele>
        <time>2020-03-03T15:47:48Z</time>
      </trkpt>
      <trkpt lat="44.48009" lon="6.65759">
        <ele>2130.439</ele>
        <time>2020-03-03T15:48:08Z</time>
      </trkpt>
      <trkpt lat="44.47995" lon="6.65733">
        <ele>2135.876</ele>
        <time>2020-03-03T15:48:28Z</time>
      </trkpt>
      <trkpt lat="44.47946" lon="6.65692">
        <ele>2136.055</ele>
        <time>2020-03-03T15:48:48Z</time>
      </trkpt>
      <trkpt lat="44.47938" lon="6.65675">
        <ele>2138.433</ele>
        <time>2020-03-03T15:49:08Z</time>
      </trkpt>
      <trkpt lat="44.47875" lon="6.65606">
        <ele>2143.174</ele>
        <time>2020-03-03T15:49:28Z</time>
      </trkpt>
      <trkpt lat="44.47863" lon="6.65582">
        <ele>2149.856</ele>
        <time>2020-03-03T15:49:48Z</time>
      </trkpt>
      <trkpt lat="44.4784" lon="6.65579">
        <ele>2144.482</ele>
        <time>2020-03-03T15:50:08Z</time>
      </trkpt>
      <trkpt lat="44.47823" lon="6.65554">
        <ele>2150.034</ele>
        <time>2020-03-03T15:50:28Z</time>
      </trkpt>
      <trkpt lat="44.47819" lon="6.6553">
        <ele>2160.355</ele>
        <time>2020-03-03T15:50:48Z</time>
      </trkpt>
      <trkpt lat="44.47771" lon="6.65533">
        <ele>2157.81</ele>
        <time>2020-03-03T15:51:08Z</time>
      </trkpt>
      <trkpt lat="44.47699" lon="6.65499">
        <ele>2162.108</ele>
        <time>2020-03-03T15:51:28Z</time>
      </trkpt>
      <trkpt lat="44.47686" lon="6.65485">
        <ele>2163.587</ele>
        <time>2020-03-03T15:51:48Z</time>
      </trkpt>
      <trkpt lat="44.47655" lon="6.65443">
        <ele>2174.77</ele>
        <time>2020-03-03T15:52:08Z</time>
      </trkpt>
      <trkpt lat="44.47645" lon="6.65441">
        <ele>2176.737</ele>
        <time>2020-03-03T15:52:28Z</time>
      </trkpt>
      <trkpt lat="44.47621" lon="6.65457">
        <ele>2171.976</ele>
        <time>2020-03-03T15:52:48Z</time>
      </trkpt>
      <trkpt lat="44.4759" lon="6.65441">
        <ele>2172.564</ele>
        <time>2020-03-03T15:53:08Z</time>
      </trkpt>
      <trkpt lat="44.47577" lon="6.65409">
        <ele>2182.365</ele>
        <time>2020-03-03T15:53:28Z</time>
      </trkpt>
      <trkpt lat="44.47561" lon="6.65412">
        <ele>2185.987</ele>
        <time>2020-03-03T15:53:48Z</time>
      </trkpt>
      <trkpt lat="44.47544" lon="6.65424">
        <ele>2182.643</ele>
        <time>2020-03-03T15:54:08Z</time>
      </trkpt>
      <trkpt lat="44.47482" lon="6.65387">
        <ele>2191.275</ele>
        <time>2020-03-03T15:54:28Z</time>
      </trkpt>
      <trkpt lat="44.47489" lon="6.65382">
        <ele>2193.228</ele>
        <time>2020-03-03T15:54:48Z</time>
      </trkpt>
      <trkpt lat="44.4754" lon="6.65394">
        <ele>2191.52</ele>
        <time>2020-03-03T15:55:08Z</time>
      </trkpt>
      <trkpt lat="44.47558" lon="6.65381">
        <ele>2196.108</ele>
        <time>2020-03-03T15:55:28Z</time>
      </trkpt>
      <trkpt lat="44.47576" lon="6.65345">
        <ele>2206.251</ele>
        <time>2020-03-03T15:55:48Z</time>
      </trkpt>
      <trkpt lat="44.47603" lon="6.65363">
        <ele>2201.744</ele>
        <time>2020-03-03T15:56:08Z</time>
      </trkpt>
      <trkpt lat="44.47628" lon="6.65362">
        <ele>2208.051</ele>
        <time>2020-03-03T15:56:28Z</time>
      </trkpt>
      <trkpt lat="44.47692" lon="6.65365">
        <ele>2215.63</ele>
        <time>2020-03-03T15:56:48Z</time>
      </trkpt>
      <trkpt lat="44.4774" lon="6.65374">
        <ele>2220.978</ele>
        <time>2020-03-03T15:57:08Z</time>
      </trkpt>
      <trkpt lat="44.47772" lon="6.65398">
        <ele>2218.379</ele>
        <time>2020-03-03T15:57:28Z</time>
      </trkpt>
      <trkpt lat="44.47777" lon="6.65389">
        <ele>2222.921</ele>
        <time>2020-03-03T15:57:48Z</time>
      </trkpt>
      <trkpt lat="44.47754" lon="6.6537">
        <ele>2226.487</ele>
        <time>2020-03-03T15:58:08Z</time>
      </trkpt>
      <trkpt lat="44.47745" lon="6.65359">
        <ele>2229.944</ele>
        <time>2020-03-03T15:58:28Z</time>
      </trkpt>
      <trkpt lat="44.47725" lon="6.6535">
        <ele>2230.005</ele>
        <time>2020-03-03T15:58:48Z</time>
      </trkpt>
      <trkpt lat="44.47691" lon="6.65324">
        <ele>2239.115</ele>
        <time>2020-03-03T15:59:08Z</time>
      </trkpt>
      <trkpt lat="44.47657" lon="6.65323">
        <ele>2234.508</ele>
        <time>2020-03-03T15:59:28Z</time>
      </trkpt>
      <trkpt lat="44.47622" lon="6.65287">
        <ele>2234.678</ele>
        <time>2020-03-03T15:59:48Z</time>
      </trkpt>
      <trkpt lat="44.47603" lon="6.65229">
        <ele>2250.621</ele>
        <time>2020-03-03T16:00:08Z</time>
      </trkpt>
      <trkpt lat="44.47564" lon="6.65235">
        <ele>2254.488</ele>
        <time>2020-03-03T16:00:28Z</time>
      </trkpt>
      <trkpt lat="44.47545" lon="6.6524">
        <ele>2253.247</ele>
        <time>2020-03-03T16:00:48Z</time>
      </trkpt>
      <trkpt lat="44.4748" lon="6.65206">
        <ele>2262.515</ele>
        <time>2020-03-03T16:01:08Z</time>
      </trkpt>
      <trkpt lat="44.47406" lon="6.65179">
        <ele>2272.786</ele>
        <time>2020-03-03T16:01:28Z</time>
      </trkpt>
      <trkpt lat="44.47361" lon="6.65191">
        <ele>2277.028</ele>
        <time>2020-03-03T16:01:48Z</time>
      </trkpt>
      <trkpt lat="44.47338" lon="6.6522">
        <ele>2272.584</ele>
        <time>2020-03-03T16:02:08Z</time>
      </trkpt>
      <trkpt lat="44.47333" lon="6.65209">
        <ele>2276.671</ele>
        <time>2020-03-03T16:02:28Z</time>
      </trkpt>
      <trkpt lat="44.47354" lon="6.65169">
        <ele>2284.041</ele>
        <time>2020-03-03T16:02:48Z</time>
      </trkpt>
      <trkpt lat="44.47371" lon="6.65155">
        <ele>2284.315</ele>
        <time>2020-03-03T16:03:08Z</time>
      </trkpt>
      <trkpt lat="44.47367" lon="6.65143">
        <ele>2288.608</ele>
        <time>2020-03-03T16:03:28Z</time>
      </trkpt>
      <trkpt lat="44.47335" lon="6.65164">
        <ele>2289.551</ele>
        <time>2020-03-03T16:03:48Z</time>
      </trkpt>
      <trkpt lat="44.47327" lon="6.65178">
        <ele>2286.394</ele>
        <time>2020-03-03T16:04:08Z</time>
      </trkpt>
      <trkpt lat="44.47306" lon="6.65177">
        <ele>2286.881</ele>
        <time>2020-03-03T16:04:28Z</time>
      </trkpt>
      <trkpt lat="44.47264" lon="6.65159">
        <ele>2288.64</ele>
        <time>2020-03-03T16:04:48Z</time>
      </trkpt>
      <trkpt lat="44.47269" lon="6.65148">
        <ele>2294.038</ele>
        <time>2020-03-03T16:05:08Z</time>
      </trkpt>
      <trkpt lat="44.47299" lon="6.65151">
        <ele>2295.579</ele>
        <time>2020-03-03T16:05:28Z</time>
      </trkpt>
      <trkpt lat="44.47337" lon="6.65117">
        <ele>2305.351</ele>
        <time>2020-03-03T16:05:48Z</time>
      </trkpt>
      <trkpt lat="44.47361" lon="6.65102">
        <ele>2308.247</ele>
        <time>2020-03-03T16:06:08Z</time>
      </trkpt>
      <trkpt lat="44.47397" lon="6.65101">
        <ele>2306.583</ele>
        <time>2020-03-03T16:06:28Z</time>
      </trkpt>
      <trkpt lat="44.47418" lon="6.65093">
        <ele>2311.925</ele>
        <time>2020-03-03T16:06:48Z</time>
      </trkpt>
      <trkpt lat="44.47455" lon="6.65099">
        <ele>2311.717</ele>
        <time>2020-03-03T16:07:08Z</time>
      </trkpt>
      <trkpt lat="44.47493" lon="6.65081">
        <ele>2319.708</ele>
        <time>2020-03-03T16:07:28Z</time>
      </trkpt>
      <trkpt lat="44.47539" lon="6.65078">
        <ele>2325.292</ele>
        <time>2020-03-03T16:07:48Z</time>
      </trkpt>
      <trkpt lat="44.47574" lon="6.65089">
        <ele>2325.215</ele>
        <time>2020-03-03T16:08:08Z</time>
      </trkpt>
      <trkpt lat="44.47601" lon="6.65067">
        <ele>2336.712</ele>
        <time>2020-03-03T16:08:28Z</time>
      </trkpt>
      <trkpt lat="44.47638" lon="6.65073">
        <ele>2335.431</ele>
        <time>2020-03-03T16:08:48Z</time>
      </trkpt>
      <trkpt lat="44.47661" lon="6.65083">
        <ele>2334.149</ele>
        <time>2020-03-03T16:09:08Z</time>
      </trkpt>
      <trkpt lat="44.47677" lon="6.6508">
        <ele>2337.56</ele>
        <time>2020-03-03T16:09:28Z</time>
      </trkpt>
      <trkpt lat="44.47698" lon="6.65102">
        <ele>2336.492</ele>
        <time>2020-03-03T16:09:48Z</time>
      </trkpt>
      <trkpt lat="44.47738" lon="6.65097">
        <ele>2343.228</ele>
        <time>2020-03-03T16:10:08Z</time>
      </trkpt>
      <trkpt lat="44.47769" lon="6.65099">
        <ele>2344.769</ele>
        <time>2020-03-03T16:10:28Z</time>
      </trkpt>
      <trkpt lat="44.47774" lon="6.65087">
        <ele>2347.104</ele>
        <time>2020-03-03T16:10:48Z</time>
      </trkpt>
      <trkpt lat="44.47742" lon="6.65048">
        <ele>2351.324</ele>
        <time>2020-03-03T16:11:08Z</time>
      </trkpt>
      <trkpt lat="44.47692" lon="6.64978">
        <ele>2358.508</ele>
        <time>2020-03-03T16:11:28Z</time>
      </trkpt>
      <trkpt lat="44.47669" lon="6.6497">
        <ele>2365.35</ele>
        <time>2020-03-03T16:11:48Z</time>
      </trkpt>
      <trkpt lat="44.47613" lon="6.65009">
        <ele>2366.113</ele>
        <time>2020-03-03T16:12:08Z</time>
      </trkpt>
      <trkpt lat="44.47569" lon="6.6498">
        <ele>2378.23</ele>
        <time>2020-03-03T16:12:28Z</time>
      </trkpt>
      <trkpt lat="44.47532" lon="6.64967">
        <ele>2379.089</ele>
        <time>2020-03-03T16:12:48Z</time>
      </trkpt>
      <trkpt lat="44.47492" lon="6.64944">
        <ele>2382.517</ele>
        <time>2020-03-03T16:13:08Z</time>
      </trkpt>
      <trkpt lat="44.47462" lon="6.64928">
        <ele>2382.688</ele>
        <time>2020-03-03T16:13:28Z</time>
      </trkpt>
      <trkpt lat="44.47398" lon="6.64867">
        <ele>2393.64</ele>
        <time>2020-03-03T16:13:48Z</time>
      </trkpt>
      <trkpt lat="44.47359" lon="6.6486">
        <ele>2398.466</ele>
        <time>2020-03-03T16:14:08Z</time>
      </trkpt>
      <trkpt lat="44.47325" lon="6.64865">
        <ele>2397.233</ele>
        <time>2020-03-03T16:14:28Z</time>
      </trkpt>
      <trkpt lat="44.47279" lon="6.64843">
        <ele>2408.523</ele>
        <time>2020-03-03T16:14:48Z</time>
      </trkpt>
      <trkpt lat="44.4725" lon="6.64847">
        <ele>2408.015</ele>
        <time>2020-03-03T16:15:08Z</time>
      </trkpt>
      <trkpt lat="44.47218" lon="6.64838">
        <ele>2411.708</ele>
        <time>2020-03-03T16:15:28Z</time>
      </trkpt>
      <trkpt lat="44.47176" lon="6.64839">
        <ele>2409.597</ele>
        <time>2020-03-03T16:15:48Z</time>
      </trkpt>
      <trkpt lat="44.47169" lon="6.64823">
        <ele>2412.09</ele>
        <time>2020-03-03T16:16:08Z</time>
      </trkpt>
      <trkpt lat="44.47178" lon="6.64816">
        <ele>2414.127</ele>
        <time>2020-03-03T16:16:28Z</time>
      </trkpt>
      <trkpt lat="44.47252" lon="6.64806">
        <ele>2422.776</ele>
        <time>2020-03-03T16:16:48Z</time>
      </trkpt>
      <trkpt lat="44.47282" lon="6.64791">
        <ele>2428.714</ele>
        <time>2020-03-03T16:17:08Z</time>
      </trkpt>
      <trkpt lat="44.47312" lon="6.6479">
        <ele>2429.755</ele>
        <time>2020-03-03T16:17:28Z</time>
      </trkpt>
      <trkpt lat="44.4734" lon="6.6478">
        <ele>2432.817</ele>
        <time>2020-03-03T16:17:48Z</time>
      </trkpt>
      <trkpt lat="44.47372" lon="6.64762">
        <ele>2439.743</ele>
        <time>2020-03-03T16:18:08Z</time>
      </trkpt>
      <trkpt lat="44.47418" lon="6.64763">
        <ele>2442.938</ele>
        <time>2020-03-03T16:18:28Z</time>
      </trkpt>
      <trkpt lat="44.47469" lon="6.648">
        <ele>2442.37</ele>
        <time>2020-03-03T16:18:48Z</time>
      </trkpt>
      <trkpt lat="44.47497" lon="6.64808">
        <ele>2447.217</ele>
        <time>2020-03-03T16:19:08Z</time>
      </trkpt>
      <trkpt lat="44.47549" lon="6.64801">
        <ele>2454.608</ele>
        <time>2020-03-03T16:19:28Z</time>
      </trkpt>
      <trkpt lat="44.47586" lon="6.64782">
        <ele>2455.927</ele>
        <time>2020-03-03T16:19:48Z</time>
      </trkpt>
      <trkpt lat="44.47596" lon="6.64721">
        <ele>2465.36</ele>
        <time>2020-03-03T16:20:08Z</time>
      </trkpt>
      <trkpt lat="44.4763" lon="6.64611">
        <ele>2476.837</ele>
        <time>2020-03-03T16:20:28Z</time>
      </trkpt>
      <trkpt lat="44.47673" lon="6.64574">
        <ele>2482.646</ele>
        <time>2020-03-03T16:20:48Z</time>
      </trkpt>
      <trkpt lat="44.47703" lon="6.64586">
        <ele>2477.294</ele>
        <time>2020-03-03T16:21:08Z</time>
      </trkpt>
      <trkpt lat="44.47731" lon="6.64571">
        <ele>2484.425</ele>
        <time>2020-03-03T16:21:28Z</time>
      </trkpt>
      <trkpt lat="44.4776" lon="6.64536">
        <ele>2490.337</ele>
        <time>2020-03-03T16:21:48Z</time>
      </trkpt>
      <trkpt lat="44.47798" lon="6.64519">
        <ele>2490.883</ele>
        <time>2020-03-03T16:22:08Z</time>
      </trkpt>
      <trkpt lat="44.47829" lon="6.64536">
        <ele>2492.461</ele>
        <time>2020-03-03T16:22:28Z</time>
      </trkpt>
      <trkpt lat="44.47844" lon="6.64559">
        <ele>2491.521</ele>
        <time>2020-03-03T16:22:48Z</time>
      </trkpt>
      <trkpt lat="44.47871" lon="6.64595">
        <ele>2492.613</ele>
        <time>2020-03-03T16:23:08Z</time>
      </trkpt>
      <trkpt lat="44.47912" lon="6.64598">
        <ele>2505.808</ele>
        <time>2020-03-03T16:23:28Z</time>
      </trkpt>
      <trkpt lat="44.47937" lon="6.64625">
        <ele>2503.15</ele>
        <time>2020-03-03T16:23:48Z</time>
      </trkpt>
      <trkpt lat="44.47957" lon="6.6463">
        <ele>2508.983</ele>
        <time>2020-03-03T16:24:08Z</time>
      </trkpt>
      <trkpt lat="44.47966" lon="6.64689">
        <ele>2503.31</ele>
        <time>2020-03-03T16:24:28Z</time>
      </trkpt>
      <trkpt lat="44.47989" lon="6.64701">
        <ele>2514.299</ele>
        <time>2020-03-03T16:24:48Z</time>
      </trkpt>
      <trkpt lat="44.47991" lon="6.64731">
        <ele>2510.517</ele>
        <time>2020-03-03T16:25:08Z</time>
      </trkpt>
      <trkpt lat="44.48003" lon="6.6475">
        <ele>2514.558</ele>
        <time>2020-03-03T16:25:28Z</time>
      </trkpt>
      <trkpt lat="44.48006" lon="6.64778">
        <ele>2512.44</ele>
        <time>2020-03-03T16:25:48Z</time>
      </trkpt>
      <trkpt lat="44.48013" lon="6.64794">
        <ele>2514.356</ele>
        <time>2020-03-03T16:26:08Z</time>
      </trkpt>
      <trkpt lat="44.4802" lon="6.64845">
        <ele>2514.011</ele>
        <time>2020-03-03T16:26:28Z</time>
      </trkpt>
      <trkpt lat="44.48036" lon="6.64863">
        <ele>2520.921</ele>
        <time>2020-03-03T16:26:48Z</time>
      </trkpt>
      <trkpt lat="44.48056" lon="6.64872">
        <ele>2529.003</ele>
        <time>2020-03-03T16:27:08Z</time>
      </trkpt>
      <trkpt lat="44.48092" lon="6.64872">
        <ele>2534.508</ele>
        <time>2020-03-03T16:27:28Z</time>
      </trkpt>
      <trkpt lat="44.48124" lon="6.64854">
        <ele>2541.135</ele>
        <time>2020-03-03T16:27:48Z</time>
      </trkpt>
      <trkpt lat="44.4814" lon="6.64835">
        <ele>2546.438</ele>
        <time>2020-03-03T16:28:08Z</time>
      </trkpt>
      <trkpt lat="44.48214" lon="6.64842">
        <ele>2546.225</ele>
        <time>2020-03-03T16:28:28Z</time>
      </trkpt>
      <trkpt lat="44.48243" lon="6.64855">
        <ele>2545.564</ele>
        <time>2020-03-03T16:28:48Z</time>
      </trkpt>
      <trkpt lat="44.48281" lon="6.64863">
        <ele>2550.112</ele>
        <time>2020-03-03T16:29:08Z</time>
      </trkpt>
      <trkpt lat="44.48342" lon="6.64878">
        <ele>2560.753</ele>
        <time>2020-03-03T16:29:28Z</time>
      </trkpt>
      <trkpt lat="44.48383" lon="6.64882">
        <ele>2567.645</ele>
        <time>2020-03-03T16:29:48Z</time>
      </trkpt>
      <trkpt lat="44.48441" lon="6.64862">
        <ele>2576.831</ele>
        <time>2020-03-03T16:30:08Z</time>
      </trkpt>
      <trkpt lat="44.48491" lon="6.64807">
        <ele>2585.637</ele>
        <time>2020-03-03T16:30:28Z</time>
      </trkpt>
      <trkpt lat="44.48524" lon="6.64804">
        <ele>2583.549</ele>
        <time>2020-03-03T16:30:48Z</time>
      </trkpt>
      <trkpt lat="44.48541" lon="6.64818">
        <ele>2582.713</ele>
        <time>2020-03-03T16:31:08Z</time>
      </trkpt>
      <trkpt lat="44.48573" lon="6.64859">
        <ele>2583.308</ele>
        <time>2020-03-03T16:31:28Z</time>
      </trkpt>
      <trkpt lat="44.48609" lon="6.64883">
        <ele>2588.687</ele>
        <time>2020-03-03T16:31:48Z</time>
      </trkpt>
      <trkpt lat="44.48617" lon="6.65032">
        <ele>2589.23</ele>
        <time>2020-03-03T16:32:08Z</time>
      </trkpt>
      <trkpt lat="44.48633" lon="6.65047">
        <ele>2596.617</ele>
        <time>2020-03-03T16:32:28Z</time>
      </trkpt>
      <trkpt lat="44.48666" lon="6.65044">
        <ele>2607.026</ele>
        <time>2020-03-03T16:32:48Z</time>
      </trkpt>
      <trkpt lat="44.48693" lon="6.65058">
        <ele>2605.274</ele>
        <time>2020-03-03T16:33:08Z</time>
      </trkpt>
      <trkpt lat="44.48691" lon="6.65045">
        <ele>2609.925</ele>
        <time>2020-03-03T16:33:28Z</time>
      </trkpt>
      <trkpt lat="44.48666" lon="6.6503">
        <ele>2614.097</ele>
        <time>2020-03-03T16:33:48Z</time>
      </trkpt>
      <trkpt lat="44.48634" lon="6.65017">
        <ele>2602.323</ele>
        <time>2020-03-03T16:34:08Z</time>
      </trkpt>
      <trkpt lat="44.4865" lon="6.64916">
        <ele>2611.542</ele>
        <time>2020-03-03T16:34:28Z</time>
      </trkpt>
      <trkpt lat="44.4866" lon="6.64889">
        <ele>2614.322</ele>
        <time>2020-03-03T16:34:48Z</time>
      </trkpt>
      <trkpt lat="44.48683" lon="6.64834">
        <ele>2624.814</ele>
        <time>2020-03-03T16:35:08Z</time>
      </trkpt>
      <trkpt lat="44.48659" lon="6.64764">
        <ele>2630.208</ele>
        <time>2020-03-03T16:35:28Z</time>
      </trkpt>
      <trkpt lat="44.48657" lon="6.64717">
        <ele>2636.418</ele>
        <time>2020-03-03T16:35:48Z</time>
      </trkpt>
      <trkpt lat="44.48675" lon="6.64705">
        <ele>2640.291</ele>
        <time>2020-03-03T16:36:08Z</time>
      </trkpt>
      <trkpt lat="44.49091" lon="6.64405">
        <ele>2637.778</ele>
        <time>2020-03-03T16:36:28Z</time>
      </trkpt>
      <trkpt lat="44.49155" lon="6.64371">
        <ele>2626.367</ele>
        <time>2020-03-03T16:36:48Z</time>
      </trkpt>
      <trkpt lat="44.49188" lon="6.64392">
        <ele>2624.215</ele>
        <time>2020-03-03T16:37:08Z</time>
      </trkpt>
      <trkpt lat="44.49211" lon="6.64421">
        <ele>2624.836</ele>
        <time>2020-03-03T16:37:28Z</time>
      </trkpt>
      <trkpt lat="44.49267" lon="6.6439">
        <ele>2620.128</ele>
        <time>2020-03-03T16:37:48Z</time>
      </trkpt>
      <trkpt lat="44.49298" lon="6.64354">
        <ele>2612.714</ele>
        <time>2020-03-03T16:38:08Z</time>
      </trkpt>
      <trkpt lat="44.49424" lon="6.64338">
        <ele>2593.875</ele>
        <time>2020-03-03T16:38:28Z</time>
      </trkpt>
      <trkpt lat="44.49444" lon="6.6434">
        <ele>2593.928</ele>
        <time>2020-03-03T16:38:48Z</time>
      </trkpt>
      <trkpt lat="44.49464" lon="6.64331">
        <ele>2586.92</ele>
        <time>2020-03-03T16:39:08Z</time>
      </trkpt>
      <trkpt lat="44.49506" lon="6.6434">
        <ele>2587.708</ele>
        <time>2020-03-03T16:39:28Z</time>
      </trkpt>
      <trkpt lat="44.49602" lon="6.64334">
        <ele>2577.691</ele>
        <time>2020-03-03T16:39:48Z</time>
      </trkpt>
      <trkpt lat="44.49655" lon="6.64315">
        <ele>2568.674</ele>
        <time>2020-03-03T16:40:08Z</time>
      </trkpt>
      <trkpt lat="44.49702" lon="6.6432">
        <ele>2564.251</ele>
        <time>2020-03-03T16:40:28Z</time>
      </trkpt>
      <trkpt lat="44.49762" lon="6.64316">
        <ele>2558.96</ele>
        <time>2020-03-03T16:40:48Z</time>
      </trkpt>
      <trkpt lat="44.49819" lon="6.64291">
        <ele>2553.518</ele>
        <time>2020-03-03T16:41:08Z</time>
      </trkpt>
      <trkpt lat="44.49815" lon="6.64283">
        <ele>2550.779</ele>
        <time>2020-03-03T16:41:28Z</time>
      </trkpt>
      <trkpt lat="44.49767" lon="6.64293">
        <ele>2550.691</ele>
        <time>2020-03-03T16:41:48Z</time>
      </trkpt>
      <trkpt lat="44.49726" lon="6.64285">
        <ele>2545.547</ele>
        <time>2020-03-03T16:42:08Z</time>
      </trkpt>
      <trkpt lat="44.49678" lon="6.64253">
        <ele>2544.966</ele>
        <time>2020-03-03T16:42:28Z</time>
      </trkpt>
      <trkpt lat="44.49678" lon="6.64236">
        <ele>2544.829</ele>
        <time>2020-03-03T16:42:48Z</time>
      </trkpt>
      <trkpt lat="44.49692" lon="6.64212">
        <ele>2542.921</ele>
        <time>2020-03-03T16:43:08Z</time>
      </trkpt>
      <trkpt lat="44.49728" lon="6.64181">
        <ele>2537.708</ele>
        <time>2020-03-03T16:43:28Z</time>
      </trkpt>
      <trkpt lat="44.49766" lon="6.64116">
        <ele>2535.32</ele>
        <time>2020-03-03T16:43:48Z</time>
      </trkpt>
      <trkpt lat="44.49777" lon="6.64118">
        <ele>2533.623</ele>
        <time>2020-03-03T16:44:08Z</time>
      </trkpt>
      <trkpt lat="44.49784" lon="6.64149">
        <ele>2529.91</ele>
        <time>2020-03-03T16:44:28Z</time>
      </trkpt>
      <trkpt lat="44.49811" lon="6.64181">
        <ele>2525.459</ele>
        <time>2020-03-03T16:44:48Z</time>
      </trkpt>
      <trkpt lat="44.49895" lon="6.64206">
        <ele>2517.967</ele>
        <time>2020-03-03T16:45:08Z</time>
      </trkpt>
      <trkpt lat="44.49922" lon="6.64198">
        <ele>2515.638</ele>
        <time>2020-03-03T16:45:28Z</time>
      </trkpt>
      <trkpt lat="44.4996" lon="6.64168">
        <ele>2508.82</ele>
        <time>2020-03-03T16:45:48Z</time>
      </trkpt>
      <trkpt lat="44.49987" lon="6.64158">
        <ele>2508.676</ele>
        <time>2020-03-03T16:46:08Z</time>
      </trkpt>
      <trkpt lat="44.50026" lon="6.64108">
        <ele>2499.454</ele>
        <time>2020-03-03T16:46:28Z</time>
      </trkpt>
      <trkpt lat="44.5002" lon="6.64096">
        <ele>2493.956</ele>
        <time>2020-03-03T16:46:48Z</time>
      </trkpt>
      <trkpt lat="44.49979" lon="6.64121">
        <ele>2496.311</ele>
        <time>2020-03-03T16:47:08Z</time>
      </trkpt>
      <trkpt lat="44.49888" lon="6.64109">
        <ele>2491.808</ele>
        <time>2020-03-03T16:47:28Z</time>
      </trkpt>
      <trkpt lat="44.49876" lon="6.6408">
        <ele>2490.249</ele>
        <time>2020-03-03T16:47:48Z</time>
      </trkpt>
      <trkpt lat="44.49868" lon="6.64037">
        <ele>2483.222</ele>
        <time>2020-03-03T16:48:08Z</time>
      </trkpt>
      <trkpt lat="44.49831" lon="6.64018">
        <ele>2482.439</ele>
        <time>2020-03-03T16:48:28Z</time>
      </trkpt>
      <trkpt lat="44.49785" lon="6.63972">
        <ele>2475.978</ele>
        <time>2020-03-03T16:48:48Z</time>
      </trkpt>
      <trkpt lat="44.49769" lon="6.63943">
        <ele>2473.396</ele>
        <time>2020-03-03T16:49:08Z</time>
      </trkpt>
      <trkpt lat="44.49765" lon="6.63925">
        <ele>2472.257</ele>
        <time>2020-03-03T16:49:28Z</time>
      </trkpt>
      <trkpt lat="44.4975" lon="6.63899">
        <ele>2477.659</ele>
        <time>2020-03-03T16:49:48Z</time>
      </trkpt>
      <trkpt lat="44.49758" lon="6.63889">
        <ele>2477.065</ele>
        <time>2020-03-03T16:50:08Z</time>
      </trkpt>
      <trkpt lat="44.49823" lon="6.63882">
        <ele>2464.354</ele>
        <time>2020-03-03T16:50:28Z</time>
      </trkpt>
      <trkpt lat="44.49903" lon="6.63827">
        <ele>2454.356</ele>
        <time>2020-03-03T16:50:48Z</time>
      </trkpt>
      <trkpt lat="44.49956" lon="6.63809">
        <ele>2446.511</ele>
        <time>2020-03-03T16:51:08Z</time>
      </trkpt>
      <trkpt lat="44.50095" lon="6.63803">
        <ele>2438.308</ele>
        <time>2020-03-03T16:51:28Z</time>
      </trkpt>
      <trkpt lat="44.50129" lon="6.63803">
        <ele>2436.689</ele>
        <time>2020-03-03T16:51:48Z</time>
      </trkpt>
      <trkpt lat="44.50231" lon="6.63877">
        <ele>2421.442</ele>
        <time>2020-03-03T16:52:08Z</time>
      </trkpt>
      <trkpt lat="44.50245" lon="6.63906">
        <ele>2419.749</ele>
        <time>2020-03-03T16:52:28Z</time>
      </trkpt>
      <trkpt lat="44.5029" lon="6.63898">
        <ele>2415.858</ele>
        <time>2020-03-03T16:52:48Z</time>
      </trkpt>
      <trkpt lat="44.50305" lon="6.63834">
        <ele>2409.436</ele>
        <time>2020-03-03T16:53:08Z</time>
      </trkpt>
      <trkpt lat="44.50297" lon="6.63802">
        <ele>2411.617</ele>
        <time>2020-03-03T16:53:28Z</time>
      </trkpt>
      <trkpt lat="44.50308" lon="6.63782">
        <ele>2408.889</ele>
        <time>2020-03-03T16:53:48Z</time>
      </trkpt>
      <trkpt lat="44.50342" lon="6.63759">
        <ele>2404.355</ele>
        <time>2020-03-03T16:54:08Z</time>
      </trkpt>
      <trkpt lat="44.50403" lon="6.63744">
        <ele>2398.627</ele>
        <time>2020-03-03T16:54:28Z</time>
      </trkpt>
      <trkpt lat="44.50453" lon="6.63801">
        <ele>2387.968</ele>
        <time>2020-03-03T16:54:48Z</time>
      </trkpt>
      <trkpt lat="44.50499" lon="6.63811">
        <ele>2385.614</ele>
        <time>2020-03-03T16:55:08Z</time>
      </trkpt>
      <trkpt lat="44.50533" lon="6.63771">
        <ele>2385.108</ele>
        <time>2020-03-03T16:55:28Z</time>
      </trkpt>
      <trkpt lat="44.50632" lon="6.63767">
        <ele>2372.356</ele>
        <time>2020-03-03T16:55:48Z</time>
      </trkpt>
      <trkpt lat="44.50661" lon="6.63749">
        <ele>2370.179</ele>
        <time>2020-03-03T16:56:08Z</time>
      </trkpt>
      <trkpt lat="44.50714" lon="6.63767">
        <ele>2365.926</ele>
        <time>2020-03-03T16:56:28Z</time>
      </trkpt>
      <trkpt lat="44.50749" lon="6.63817">
        <ele>2355.515</ele>
        <time>2020-03-03T16:56:48Z</time>
      </trkpt>
      <trkpt lat="44.50804" lon="6.63858">
        <ele>2351.553</ele>
        <time>2020-03-03T16:57:08Z</time>
      </trkpt>
      <trkpt lat="44.50826" lon="6.63896">
        <ele>2346.384</ele>
        <time>2020-03-03T16:57:28Z</time>
      </trkpt>
      <trkpt lat="44.50877" lon="6.63873">
        <ele>2349.116</ele>
        <time>2020-03-03T16:57:48Z</time>
      </trkpt>
      <trkpt lat="44.50984" lon="6.63984">
        <ele>2332.842</ele>
        <time>2020-03-03T16:58:08Z</time>
      </trkpt>
      <trkpt lat="44.50997" lon="6.64103">
        <ele>2320.361</ele>
        <time>2020-03-03T16:58:28Z</time>
      </trkpt>
      <trkpt lat="44.51028" lon="6.64158">
        <ele>2318.021</ele>
        <time>2020-03-03T16:58:48Z</time>
      </trkpt>
      <trkpt lat="44.51061" lon="6.64174">
        <ele>2316.113</ele>
        <time>2020-03-03T16:59:08Z</time>
      </trkpt>
      <trkpt lat="44.51131" lon="6.64232">
        <ele>2307.508</ele>
        <time>2020-03-03T16:59:28Z</time>
      </trkpt>
      <trkpt lat="44.51164" lon="6.6431">
        <ele>2299.66</ele>
        <time>2020-03-03T16:59:48Z</time>
      </trkpt>
      <trkpt lat="44.51157" lon="6.64338">
        <ele>2298.153</ele>
        <time>2020-03-03T17:00:08Z</time>
      </trkpt>
      <trkpt lat="44.51198" lon="6.64385">
        <ele>2290.97</ele>
        <time>2020-03-03T17:00:28Z</time>
      </trkpt>
      <trkpt lat="44.51261" lon="6.64412">
        <ele>2283.189</ele>
        <time>2020-03-03T17:00:48Z</time>
      </trkpt>
      <trkpt lat="44.51309" lon="6.64402">
        <ele>2281.117</ele>
        <time>2020-03-03T17:01:08Z</time>
      </trkpt>
      <trkpt lat="44.51337" lon="6.64386">
        <ele>2280.898</ele>
        <time>2020-03-03T17:01:28Z</time>
      </trkpt>
      <trkpt lat="44.51356" lon="6.644">
        <ele>2276.88</ele>
        <time>2020-03-03T17:01:48Z</time>
      </trkpt>
      <trkpt lat="44.5138" lon="6.64455">
        <ele>2269.426</ele>
        <time>2020-03-03T17:02:08Z</time>
      </trkpt>
      <trkpt lat="44.51428" lon="6.64497">
        <ele>2264.575</ele>
        <time>2020-03-03T17:02:28Z</time>
      </trkpt>
      <trkpt lat="44.51486" lon="6.64554">
        <ele>2257.328</ele>
        <time>2020-03-03T17:02:48Z</time>
      </trkpt>
      <trkpt lat="44.51537" lon="6.64589">
        <ele>2256.22</ele>
        <time>2020-03-03T17:03:08Z</time>
      </trkpt>
      <trkpt lat="44.51541" lon="6.6465">
        <ele>2249.408</ele>
        <time>2020-03-03T17:03:28Z</time>
      </trkpt>
      <trkpt lat="44.51523" lon="6.64705">
        <ele>2241.691</ele>
        <time>2020-03-03T17:03:48Z</time>
      </trkpt>
      <trkpt lat="44.51536" lon="6.64744">
        <ele>2242.014</ele>
        <time>2020-03-03T17:04:08Z</time>
      </trkpt>
      <trkpt lat="44.51531" lon="6.64762">
        <ele>2239.741</ele>
        <time>2020-03-03T17:04:28Z</time>
      </trkpt>
      <trkpt lat="44.51507" lon="6.64756">
        <ele>2236.89</ele>
        <time>2020-03-03T17:04:48Z</time>
      </trkpt>
      <trkpt lat="44.51487" lon="6.64757">
        <ele>2234.378</ele>
        <time>2020-03-03T17:05:08Z</time>
      </trkpt>
      <trkpt lat="44.51445" lon="6.64785">
        <ele>2227.479</ele>
        <time>2020-03-03T17:05:28Z</time>
      </trkpt>
      <trkpt lat="44.51448" lon="6.64803">
        <ele>2226.031</ele>
        <time>2020-03-03T17:05:48Z</time>
      </trkpt>
      <trkpt lat="44.5146" lon="6.64823">
        <ele>2225.377</ele>
        <time>2020-03-03T17:06:08Z</time>
      </trkpt>
      <trkpt lat="44.51509" lon="6.64843">
        <ele>2223.661</ele>
        <time>2020-03-03T17:06:28Z</time>
      </trkpt>
      <trkpt lat="44.51593" lon="6.64901">
        <ele>2213.721</ele>
        <time>2020-03-03T17:06:48Z</time>
      </trkpt>
      <trkpt lat="44.51644" lon="6.64886">
        <ele>2210.213</ele>
        <time>2020-03-03T17:07:08Z</time>
      </trkpt>
      <trkpt lat="44.51692" lon="6.64901">
        <ele>2203.008</ele>
        <time>2020-03-03T17:07:28Z</time>
      </trkpt>
      <trkpt lat="44.5174" lon="6.64929">
        <ele>2197.25</ele>
        <time>2020-03-03T17:07:48Z</time>
      </trkpt>
      <trkpt lat="44.51753" lon="6.64942">
        <ele>2195.783</ele>
        <time>2020-03-03T17:08:08Z</time>
      </trkpt>
      <trkpt lat="44.51775" lon="6.64955">
        <ele>2193.67</ele>
        <time>2020-03-03T17:08:28Z</time>
      </trkpt>
      <trkpt lat="44.51792" lon="6.65016">
        <ele>2183.349</ele>
        <time>2020-03-03T17:08:48Z</time>
      </trkpt>
      <trkpt lat="44.51812" lon="6.65026">
        <ele>2182.957</ele>
        <time>2020-03-03T17:09:08Z</time>
      </trkpt>
      <trkpt lat="44.51855" lon="6.64988">
        <ele>2183.468</ele>
        <time>2020-03-03T17:09:28Z</time>
      </trkpt>
      <trkpt lat="44.51935" lon="6.64968">
        <ele>2170.48</ele>
        <time>2020-03-03T17:09:48Z</time>
      </trkpt>
      <trkpt lat="44.51964" lon="6.64925">
        <ele>2169.136</ele>
        <time>2020-03-03T17:10:08Z</time>
      </trkpt>
      <trkpt lat="44.52002" lon="6.64891">
        <ele>2163.588</ele>
        <time>2020-03-03T17:10:28Z</time>
      </trkpt>
      <trkpt lat="44.52055" lon="6.64772">
        <ele>2155.624</ele>
        <time>2020-03-03T17:10:48Z</time>
      </trkpt>
      <trkpt lat="44.52092" lon="6.64732">
        <ele>2151.626</ele>
        <time>2020-03-03T17:11:08Z</time>
      </trkpt>
      <trkpt lat="44.5213" lon="6.64707">
        <ele>2142.608</ele>
        <time>2020-03-03T17:11:28Z</time>
      </trkpt>
      <trkpt lat="44.52168" lon="6.64658">
        <ele>2139.322</ele>
        <time>2020-03-03T17:11:48Z</time>
      </trkpt>
      <trkpt lat="44.52182" lon="6.6467">
        <ele>2132.065</ele>
        <time>2020-03-03T17:12:08Z</time>
      </trkpt>
      <trkpt lat="44.52146" lon="6.64758">
        <ele>2128.672</ele>
        <time>2020-03-03T17:12:28Z</time>
      </trkpt>
      <trkpt lat="44.5216" lon="6.64789">
        <ele>2121.881</ele>
        <time>2020-03-03T17:12:48Z</time>
      </trkpt>
      <trkpt lat="44.52152" lon="6.64821">
        <ele>2122.039</ele>
        <time>2020-03-03T17:13:08Z</time>
      </trkpt>
      <trkpt lat="44.5216" lon="6.64825">
        <ele>2119.34</ele>
        <time>2020-03-03T17:13:28Z</time>
      </trkpt>
      <trkpt lat="44.52191" lon="6.64778">
        <ele>2113.922</ele>
        <time>2020-03-03T17:13:48Z</time>
      </trkpt>
      <trkpt lat="44.52191" lon="6.64747">
        <ele>2116.668</ele>
        <time>2020-03-03T17:14:08Z</time>
      </trkpt>
      <trkpt lat="44.52271" lon="6.64684">
        <ele>2102.888</ele>
        <time>2020-03-03T17:14:28Z</time>
      </trkpt>
      <trkpt lat="44.52304" lon="6.64591">
        <ele>2092.524</ele>
        <time>2020-03-03T17:14:48Z</time>
      </trkpt>
      <trkpt lat="44.52302" lon="6.64566">
        <ele>2092.226</ele>
        <time>2020-03-03T17:15:08Z</time>
      </trkpt>
      <trkpt lat="44.5233" lon="6.64525">
        <ele>2085.208</ele>
        <time>2020-03-03T17:15:28Z</time>
      </trkpt>
      <trkpt lat="44.52311" lon="6.64505">
        <ele>2086.412</ele>
        <time>2020-03-03T17:15:48Z</time>
      </trkpt>
      <trkpt lat="44.52313" lon="6.64474">
        <ele>2083.675</ele>
        <time>2020-03-03T17:16:08Z</time>
      </trkpt>
      <trkpt lat="44.52327" lon="6.64433">
        <ele>2086.492</ele>
        <time>2020-03-03T17:16:28Z</time>
      </trkpt>
      <trkpt lat="44.52382" lon="6.6441">
        <ele>2075.431</ele>
        <time>2020-03-03T17:16:48Z</time>
      </trkpt>
      <trkpt lat="44.52397" lon="6.64384">
        <ele>2076.059</ele>
        <time>2020-03-03T17:17:08Z</time>
      </trkpt>
      <trkpt lat="44.52449" lon="6.64322">
        <ele>2072.03</ele>
        <time>2020-03-03T17:17:28Z</time>
      </trkpt>
      <trkpt lat="44.52478" lon="6.64297">
        <ele>2065.772</ele>
        <time>2020-03-03T17:17:48Z</time>
      </trkpt>
      <trkpt lat="44.52498" lon="6.64272">
        <ele>2062.348</ele>
        <time>2020-03-03T17:18:08Z</time>
      </trkpt>
      <trkpt lat="44.52498" lon="6.64286">
        <ele>2058.916</ele>
        <time>2020-03-03T17:18:28Z</time>
      </trkpt>
      <trkpt lat="44.52486" lon="6.64335">
        <ele>2051.676</ele>
        <time>2020-03-03T17:18:48Z</time>
      </trkpt>
      <trkpt lat="44.52456" lon="6.64371">
        <ele>2054.113</ele>
        <time>2020-03-03T17:19:08Z</time>
      </trkpt>
      <trkpt lat="44.52426" lon="6.64409">
        <ele>2055.108</ele>
        <time>2020-03-03T17:19:28Z</time>
      </trkpt>
      <trkpt lat="44.5243" lon="6.64415">
        <ele>2052.095</ele>
        <time>2020-03-03T17:19:48Z</time>
      </trkpt>
      <trkpt lat="44.52464" lon="6.6439">
        <ele>2045.568</ele>
        <time>2020-03-03T17:20:08Z</time>
      </trkpt>
      <trkpt lat="44.52481" lon="6.64381">
        <ele>2040.615</ele>
        <time>2020-03-03T17:20:28Z</time>
      </trkpt>
      <trkpt lat="44.5255" lon="6.643">
        <ele>2026.554</ele>
        <time>2020-03-03T17:20:48Z</time>
      </trkpt>
      <trkpt lat="44.52576" lon="6.64262">
        <ele>2029.412</ele>
        <time>2020-03-03T17:21:08Z</time>
      </trkpt>
      <trkpt lat="44.52627" lon="6.64263">
        <ele>2019.553</ele>
        <time>2020-03-03T17:21:28Z</time>
      </trkpt>
      <trkpt lat="44.52676" lon="6.64231">
        <ele>2015.395</ele>
        <time>2020-03-03T17:21:48Z</time>
      </trkpt>
      <trkpt lat="44.52709" lon="6.64199">
        <ele>2012.831</ele>
        <time>2020-03-03T17:22:08Z</time>
      </trkpt>
      <trkpt lat="44.5277" lon="6.64178">
        <ele>2009.114</ele>
        <time>2020-03-03T17:22:28Z</time>
      </trkpt>
      <trkpt lat="44.5283" lon="6.64186">
        <ele>1999.254</ele>
        <time>2020-03-03T17:22:48Z</time>
      </trkpt>
      <trkpt lat="44.52854" lon="6.64183">
        <ele>1998.709</ele>
        <time>2020-03-03T17:23:08Z</time>
      </trkpt>
      <trkpt lat="44.52957" lon="6.64202">
        <ele>1986.208</ele>
        <time>2020-03-03T17:23:28Z</time>
      </trkpt>
      <trkpt lat="44.53044" lon="6.64204">
        <ele>1976.155</ele>
        <time>2020-03-03T17:23:48Z</time>
      </trkpt>
      <trkpt lat="44.5309" lon="6.64184">
        <ele>1973.248</ele>
        <time>2020-03-03T17:24:08Z</time>
      </trkpt>
      <trkpt lat="44.53145" lon="6.64173">
        <ele>1968.455</ele>
        <time>2020-03-03T17:24:28Z</time>
      </trkpt>
      <trkpt lat="44.53189" lon="6.64179">
        <ele>1957.754</ele>
        <time>2020-03-03T17:24:48Z</time>
      </trkpt>
      <trkpt lat="44.53217" lon="6.64162">
        <ele>1956.822</ele>
        <time>2020-03-03T17:25:08Z</time>
      </trkpt>
      <trkpt lat="44.53253" lon="6.64137">
        <ele>1959.013</ele>
        <time>2020-03-03T17:25:28Z</time>
      </trkpt>
      <trkpt lat="44.53285" lon="6.6415">
        <ele>1950.225</ele>
        <time>2020-03-03T17:25:48Z</time>
      </trkpt>
      <trkpt lat="44.53364" lon="6.64169">
        <ele>1941.581</ele>
        <time>2020-03-03T17:26:08Z</time>
      </trkpt>
      <trkpt lat="44.53419" lon="6.64168">
        <ele>1938.948</ele>
        <time>2020-03-03T17:26:28Z</time>
      </trkpt>
      <trkpt lat="44.5347" lon="6.64148">
        <ele>1938.861</ele>
        <time>2020-03-03T17:26:48Z</time>
      </trkpt>
      <trkpt lat="44.53494" lon="6.64151">
        <ele>1933.817</ele>
        <time>2020-03-03T17:27:08Z</time>
      </trkpt>
      <trkpt lat="44.53527" lon="6.6415">
        <ele>1932.108</ele>
        <time>2020-03-03T17:27:28Z</time>
      </trkpt>
      <trkpt lat="44.53554" lon="6.64175">
        <ele>1927.258</ele>
        <time>2020-03-03T17:27:48Z</time>
      </trkpt>
      <trkpt lat="44.53588" lon="6.64161">
        <ele>1926.971</ele>
        <time>2020-03-03T17:28:08Z</time>
      </trkpt>
      <trkpt lat="44.53616" lon="6.64141">
        <ele>1924.718</ele>
        <time>2020-03-03T17:28:28Z</time>
      </trkpt>
      <trkpt lat="44.53734" lon="6.64081">
        <ele>1909.057</ele>
        <time>2020-03-03T17:28:48Z</time>
      </trkpt>
      <trkpt lat="44.53758" lon="6.64071">
        <ele>1903.475</ele>
        <time>2020-03-03T17:29:08Z</time>
      </trkpt>
      <trkpt lat="44.53807" lon="6.64016">
        <ele>1894.836</ele>
        <time>2020-03-03T17:29:28Z</time>
      </trkpt>
      <trkpt lat="44.53823" lon="6.63958">
        <ele>1889.058</ele>
        <time>2020-03-03T17:29:48Z</time>
      </trkpt>
      <trkpt lat="44.53835" lon="6.63962">
        <ele>1884.384</ele>
        <time>2020-03-03T17:30:08Z</time>
      </trkpt>
      <trkpt lat="44.5383" lon="6.64015">
        <ele>1888.864</ele>
        <time>2020-03-03T17:30:28Z</time>
      </trkpt>
      <trkpt lat="44.53819" lon="6.64046">
        <ele>1887.606</ele>
        <time>2020-03-03T17:30:48Z</time>
      </trkpt>
      <trkpt lat="44.53805" lon="6.64066">
        <ele>1888.316</ele>
        <time>2020-03-03T17:31:08Z</time>
      </trkpt>
      <trkpt lat="44.53817" lon="6.64079">
        <ele>1882.108</ele>
        <time>2020-03-03T17:31:28Z</time>
      </trkpt>
      <trkpt lat="44.53853" lon="6.63999">
        <ele>1878.98</ele>
        <time>2020-03-03T17:31:48Z</time>
      </trkpt>
      <trkpt lat="44.53852" lon="6.63956">
        <ele>1873.733</ele>
        <time>2020-03-03T17:32:08Z</time>
      </trkpt>
      <trkpt lat="44.5383" lon="6.63903">
        <ele>1869.36</ele>
        <time>2020-03-03T17:32:28Z</time>
      </trkpt>
      <trkpt lat="44.53803" lon="6.63862">
        <ele>1869.979</ele>
        <time>2020-03-03T17:32:48Z</time>
      </trkpt>
      <trkpt lat="44.53805" lon="6.63843">
        <ele>1869.227</ele>
        <time>2020-03-03T17:33:08Z</time>
      </trkpt>
      <trkpt lat="44.53822" lon="6.63821">
        <ele>1862.078</ele>
        <time>2020-03-03T17:33:28Z</time>
      </trkpt>
      <trkpt lat="44.53819" lon="6.63801">
        <ele>1860.46</ele>
        <time>2020-03-03T17:33:48Z</time>
      </trkpt>
      <trkpt lat="44.53807" lon="6.63752">
        <ele>1858.866</ele>
        <time>2020-03-03T17:34:08Z</time>
      </trkpt>
      <trkpt lat="44.53822" lon="6.6372">
        <ele>1857.834</ele>
        <time>2020-03-03T17:34:28Z</time>
      </trkpt>
      <trkpt lat="44.53842" lon="6.63693">
        <ele>1859.455</ele>
        <time>2020-03-03T17:34:48Z</time>
      </trkpt>
      <trkpt lat="44.53874" lon="6.63679">
        <ele>1854.41</ele>
        <time>2020-03-03T17:35:08Z</time>
      </trkpt>
      <trkpt lat="44.53901" lon="6.63632">
        <ele>1855.608</ele>
        <time>2020-03-03T17:35:28Z</time>
      </trkpt>
      <trkpt lat="44.53912" lon="6.63582">
        <ele>1854.767</ele>
        <time>2020-03-03T17:35:48Z</time>
      </trkpt>
      <trkpt lat="44.53912" lon="6.63527">
        <ele>1853.81</ele>
        <time>2020-03-03T17:36:08Z</time>
      </trkpt>
      <trkpt lat="44.53951" lon="6.63462">
        <ele>1845.177</ele>
        <time>2020-03-03T17:36:28Z</time>
      </trkpt>
      <trkpt lat="44.53994" lon="6.63431">
        <ele>1837.676</ele>
        <time>2020-03-03T17:36:48Z</time>
      </trkpt>
      <trkpt lat="44.54029" lon="6.63366">
        <ele>1831.594</ele>
        <time>2020-03-03T17:37:08Z</time>
      </trkpt>
      <trkpt lat="44.54052" lon="6.63303">
        <ele>1825.045</ele>
        <time>2020-03-03T17:37:28Z</time>
      </trkpt>
      <trkpt lat="44.54062" lon="6.63191">
        <ele>1818.287</ele>
        <time>2020-03-03T17:37:48Z</time>
      </trkpt>
      <trkpt lat="44.54084" lon="6.63122">
        <ele>1814.783</ele>
        <time>2020-03-03T17:38:08Z</time>
      </trkpt>
      <trkpt lat="44.54095" lon="6.63132">
        <ele>1809.941</ele>
        <time>2020-03-03T17:38:28Z</time>
      </trkpt>
      <trkpt lat="44.54091" lon="6.63207">
        <ele>1807.181</ele>
        <time>2020-03-03T17:38:48Z</time>
      </trkpt>
      <trkpt lat="44.54115" lon="6.63257">
        <ele>1800.309</ele>
        <time>2020-03-03T17:39:08Z</time>
      </trkpt>
      <trkpt lat="44.54116" lon="6.63295">
        <ele>1801.808</ele>
        <time>2020-03-03T17:39:28Z</time>
      </trkpt>
      <trkpt lat="44.5411" lon="6.6336">
        <ele>1801.588</ele>
        <time>2020-03-03T17:39:48Z</time>
      </trkpt>
      <trkpt lat="44.54121" lon="6.63368">
        <ele>1797.391</ele>
        <time>2020-03-03T17:40:08Z</time>
      </trkpt>
      <trkpt lat="44.54179" lon="6.6322">
        <ele>1783.688</ele>
        <time>2020-03-03T17:40:28Z</time>
      </trkpt>
      <trkpt lat="44.54199" lon="6.63203">
        <ele>1780.657</ele>
        <time>2020-03-03T17:40:48Z</time>
      </trkpt>
      <trkpt lat="44.54221" lon="6.63184">
        <ele>1776.785</ele>
        <time>2020-03-03T17:41:08Z</time>
      </trkpt>
      <trkpt lat="44.54232" lon="6.63142">
        <ele>1772.936</ele>
        <time>2020-03-03T17:41:28Z</time>
      </trkpt>
      <trkpt lat="44.54231" lon="6.6311">
        <ele>1773.748</ele>
        <time>2020-03-03T17:41:48Z</time>
      </trkpt>
      <trkpt lat="44.54267" lon="6.63001">
        <ele>1762.234</ele>
        <time>2020-03-03T17:42:08Z</time>
      </trkpt>
      <trkpt lat="44.54263" lon="6.62953">
        <ele>1760.876</ele>
        <time>2020-03-03T17:42:28Z</time>
      </trkpt>
      <trkpt lat="44.54353" lon="6.62803">
        <ele>1743.39</ele>
        <time>2020-03-03T17:42:48Z</time>
      </trkpt>
      <trkpt lat="44.54366" lon="6.62774">
        <ele>1740.219</ele>
        <time>2020-03-03T17:43:08Z</time>
      </trkpt>
      <trkpt lat="44.54381" lon="6.62698">
        <ele>1739.508</ele>
        <time>2020-03-03T17:43:28Z</time>
      </trkpt>
      <trkpt lat="44.54397" lon="6.6266">
        <ele>1734.541</ele>
        <time>2020-03-03T17:43:48Z</time>
      </trkpt>
      <trkpt lat="44.54406" lon="6.62616">
        <ele>1731.964</ele>
        <time>2020-03-03T17:44:08Z</time>
      </trkpt>
      <trkpt lat="44.54414" lon="6.62602">
        <ele>1728.541</ele>
        <time>2020-03-03T17:44:28Z</time>
      </trkpt>
      <trkpt lat="44.54405" lon="6.62534">
        <ele>1728.32</ele>
        <time>2020-03-03T17:44:48Z</time>
      </trkpt>
      <trkpt lat="44.54407" lon="6.62509">
        <ele>1728.398</ele>
        <time>2020-03-03T17:45:08Z</time>
      </trkpt>
      <trkpt lat="44.54422" lon="6.6245">
        <ele>1725.789</ele>
        <time>2020-03-03T17:45:28Z</time>
      </trkpt>
      <trkpt lat="44.54436" lon="6.62361">
        <ele>1723.681</ele>
        <time>2020-03-03T17:45:48Z</time>
      </trkpt>
      <trkpt lat="44.54468" lon="6.62178">
        <ele>1705.997</ele>
        <time>2020-03-03T17:46:08Z</time>
      </trkpt>
      <trkpt lat="44.54465" lon="6.62079">
        <ele>1701.124</ele>
        <time>2020-03-03T17:46:28Z</time>
      </trkpt>
      <trkpt lat="44.54468" lon="6.62021">
        <ele>1695.604</ele>
        <time>2020-03-03T17:46:48Z</time>
      </trkpt>
      <trkpt lat="44.54462" lon="6.61983">
        <ele>1691.514</ele>
        <time>2020-03-03T17:47:08Z</time>
      </trkpt>
      <trkpt lat="44.54454" lon="6.61958">
        <ele>1689.708</ele>
        <time>2020-03-03T17:47:28Z</time>
      </trkpt>
      <trkpt lat="44.54452" lon="6.61929">
        <ele>1684.276</ele>
        <time>2020-03-03T17:47:48Z</time>
      </trkpt>
      <trkpt lat="44.54428" lon="6.61896">
        <ele>1685.929</ele>
        <time>2020-03-03T17:48:08Z</time>
      </trkpt>
      <trkpt lat="44.54429" lon="6.61887">
        <ele>1684.876</ele>
        <time>2020-03-03T17:48:28Z</time>
      </trkpt>
      <trkpt lat="44.54451" lon="6.61853">
        <ele>1679.885</ele>
        <time>2020-03-03T17:48:48Z</time>
      </trkpt>
      <trkpt lat="44.54466" lon="6.618">
        <ele>1675.493</ele>
        <time>2020-03-03T17:49:08Z</time>
      </trkpt>
      <trkpt lat="44.54468" lon="6.61777">
        <ele>1672.564</ele>
        <time>2020-03-03T17:49:28Z</time>
      </trkpt>
      <trkpt lat="44.54453" lon="6.61719">
        <ele>1674.536</ele>
        <time>2020-03-03T17:49:48Z</time>
      </trkpt>
      <trkpt lat="44.54454" lon="6.61659">
        <ele>1669.452</ele>
        <time>2020-03-03T17:50:08Z</time>
      </trkpt>
      <trkpt lat="44.5446" lon="6.61607">
        <ele>1663.567</ele>
        <time>2020-03-03T17:50:28Z</time>
      </trkpt>
      <trkpt lat="44.54468" lon="6.61573">
        <ele>1661.181</ele>
        <time>2020-03-03T17:50:48Z</time>
      </trkpt>
      <trkpt lat="44.5448" lon="6.6155">
        <ele>1659.519</ele>
        <time>2020-03-03T17:51:08Z</time>
      </trkpt>
      <trkpt lat="44.54504" lon="6.61531">
        <ele>1654.408</ele>
        <time>2020-03-03T17:51:28Z</time>
      </trkpt>
      <trkpt lat="44.54519" lon="6.61419">
        <ele>1652.03</ele>
        <time>2020-03-03T17:51:48Z</time>
      </trkpt>
      <trkpt lat="44.54527" lon="6.61403">
        <ele>1649.753</ele>
        <time>2020-03-03T17:52:08Z</time>
      </trkpt>
      <trkpt lat="44.54539" lon="6.61383">
        <ele>1645.96</ele>
        <time>2020-03-03T17:52:28Z</time>
      </trkpt>
      <trkpt lat="44.5458" lon="6.6129">
        <ele>1638.189</ele>
        <time>2020-03-03T17:52:48Z</time>
      </trkpt>
      <trkpt lat="44.54623" lon="6.61241">
        <ele>1630.177</ele>
        <time>2020-03-03T17:53:08Z</time>
      </trkpt>
      <trkpt lat="44.54674" lon="6.61205">
        <ele>1620.258</ele>
        <time>2020-03-03T17:53:28Z</time>
      </trkpt>
      <trkpt lat="44.54691" lon="6.6118">
        <ele>1619.26</ele>
        <time>2020-03-03T17:53:48Z</time>
      </trkpt>
      <trkpt lat="44.54729" lon="6.61072">
        <ele>1615.686</ele>
        <time>2020-03-03T17:54:08Z</time>
      </trkpt>
      <trkpt lat="44.54738" lon="6.61042">
        <ele>1615.096</ele>
        <time>2020-03-03T17:54:28Z</time>
      </trkpt>
      <trkpt lat="44.54759" lon="6.61008">
        <ele>1612.531</ele>
        <time>2020-03-03T17:54:48Z</time>
      </trkpt>
      <trkpt lat="44.54792" lon="6.60975">
        <ele>1607.524</ele>
        <time>2020-03-03T17:55:08Z</time>
      </trkpt>
      <trkpt lat="44.54799" lon="6.60959">
        <ele>1604.908</ele>
        <time>2020-03-03T17:55:28Z</time>
      </trkpt>
      <trkpt lat="44.54798" lon="6.60938">
        <ele>1602.163</ele>
        <time>2020-03-03T17:55:48Z</time>
      </trkpt>
      <trkpt lat="44.54759" lon="6.60889">
        <ele>1594.776</ele>
        <time>2020-03-03T17:56:08Z</time>
      </trkpt>
      <trkpt lat="44.54724" lon="6.60856">
        <ele>1593.473</ele>
        <time>2020-03-03T17:56:28Z</time>
      </trkpt>
      <trkpt lat="44.54728" lon="6.6085">
        <ele>1591.232</ele>
        <time>2020-03-03T17:56:48Z</time>
      </trkpt>
      <trkpt lat="44.54761" lon="6.60869">
        <ele>1589.52</ele>
        <time>2020-03-03T17:57:08Z</time>
      </trkpt>
      <trkpt lat="44.54838" lon="6.60878">
        <ele>1583.411</ele>
        <time>2020-03-03T17:57:28Z</time>
      </trkpt>
      <trkpt lat="44.5486" lon="6.609">
        <ele>1582.223</ele>
        <time>2020-03-03T17:57:48Z</time>
      </trkpt>
      <trkpt lat="44.54865" lon="6.60887">
        <ele>1580.499</ele>
        <time>2020-03-03T17:58:08Z</time>
      </trkpt>
      <trkpt lat="44.54805" lon="6.60744">
        <ele>1573.855</ele>
        <time>2020-03-03T17:58:28Z</time>
      </trkpt>
      <trkpt lat="44.54812" lon="6.60722">
        <ele>1572.107</ele>
        <time>2020-03-03T17:58:48Z</time>
      </trkpt>
      <trkpt lat="44.54829" lon="6.60702">
        <ele>1569.117</ele>
        <time>2020-03-03T17:59:08Z</time>
      </trkpt>
      <trkpt lat="44.54858" lon="6.60714">
        <ele>1565.708</ele>
        <time>2020-03-03T17:59:28Z</time>
      </trkpt>
      <trkpt lat="44.54904" lon="6.60713">
        <ele>1558.129</ele>
        <time>2020-03-03T17:59:48Z</time>
      </trkpt>
      <trkpt lat="44.54909" lon="6.60952">
        <ele>1551.592</ele>
        <time>2020-03-03T18:00:08Z</time>
      </trkpt>
      <trkpt lat="44.54922" lon="6.61008">
        <ele>1548.979</ele>
        <time>2020-03-03T18:00:28Z</time>
      </trkpt>
      <trkpt lat="44.54955" lon="6.6104">
        <ele>1538.988</ele>
        <time>2020-03-03T18:00:48Z</time>
      </trkpt>
      <trkpt lat="44.54976" lon="6.61025">
        <ele>1538.756</ele>
        <time>2020-03-03T18:01:08Z</time>
      </trkpt>
      <trkpt lat="44.55035" lon="6.60863">
        <ele>1532.817</ele>
        <time>2020-03-03T18:01:28Z</time>
      </trkpt>
      <trkpt lat="44.5503" lon="6.60754">
        <ele>1531.669</ele>
        <time>2020-03-03T18:01:48Z</time>
      </trkpt>
      <trkpt lat="44.54999" lon="6.60643">
        <ele>1517.815</ele>
        <time>2020-03-03T18:02:08Z</time>
      </trkpt>
      <trkpt lat="44.54978" lon="6.60414">
        <ele>1503.825</ele>
        <time>2020-03-03T18:02:28Z</time>
      </trkpt>
      <trkpt lat="44.54996" lon="6.60355">
        <ele>1502.726</ele>
        <time>2020-03-03T18:02:48Z</time>
      </trkpt>
      <trkpt lat="44.55015" lon="6.60205">
        <ele>1495.508</ele>
        <time>2020-03-03T18:03:08Z</time>
      </trkpt>
      <trkpt lat="44.5498" lon="6.60075">
        <ele>1487.608</ele>
        <time>2020-03-03T18:03:28Z</time>
      </trkpt>
      <trkpt lat="44.5496" lon="6.59985">
        <ele>1483.726</ele>
        <time>2020-03-03T18:03:48Z</time>
      </trkpt>
      <trkpt lat="44.54962" lon="6.59872">
        <ele>1481.869</ele>
        <time>2020-03-03T18:04:08Z</time>
      </trkpt>
      <trkpt lat="44.5495" lon="6.59766">
        <ele>1471.996</ele>
        <time>2020-03-03T18:04:28Z</time>
      </trkpt>
      <trkpt lat="44.54973" lon="6.59683">
        <ele>1475.235</ele>
        <time>2020-03-03T18:04:48Z</time>
      </trkpt>
      <trkpt lat="44.54935" lon="6.59581">
        <ele>1475.563</ele>
        <time>2020-03-03T18:05:08Z</time>
      </trkpt>
      <trkpt lat="44.54913" lon="6.59537">
        <ele>1470.244</ele>
        <time>2020-03-03T18:05:28Z</time>
      </trkpt>
      <trkpt lat="44.54922" lon="6.59429">
        <ele>1461.386</ele>
        <time>2020-03-03T18:05:48Z</time>
      </trkpt>
      <trkpt lat="44.54942" lon="6.5935">
        <ele>1454.762</ele>
        <time>2020-03-03T18:06:08Z</time>
      </trkpt>
      <trkpt lat="44.55008" lon="6.5919">
        <ele>1447.873</ele>
        <time>2020-03-03T18:06:28Z</time>
      </trkpt>
      <trkpt lat="44.55001" lon="6.59109">
        <ele>1439.285</ele>
        <time>2020-03-03T18:06:48Z</time>
      </trkpt>
      <trkpt lat="44.55007" lon="6.59015">
        <ele>1431.613</ele>
        <time>2020-03-03T18:07:08Z</time>
      </trkpt>
      <trkpt lat="44.55024" lon="6.58951">
        <ele>1427.508</ele>
        <time>2020-03-03T18:07:28Z</time>
      </trkpt>
      <trkpt lat="44.55021" lon="6.58909">
        <ele>1420.951</ele>
        <time>2020-03-03T18:07:48Z</time>
      </trkpt>
      <trkpt lat="44.55026" lon="6.58849">
        <ele>1419.744</ele>
        <time>2020-03-03T18:08:08Z</time>
      </trkpt>
      <trkpt lat="44.55018" lon="6.5879">
        <ele>1412.091</ele>
        <time>2020-03-03T18:08:28Z</time>
      </trkpt>
      <trkpt lat="44.55025" lon="6.58715">
        <ele>1413.32</ele>
        <time>2020-03-03T18:08:48Z</time>
      </trkpt>
      <trkpt lat="44.54999" lon="6.58531">
        <ele>1396.958</ele>
        <time>2020-03-03T18:09:08Z</time>
      </trkpt>
      <trkpt lat="44.55014" lon="6.58294">
        <ele>1383.659</ele>
        <time>2020-03-03T18:09:28Z</time>
      </trkpt>
      <trkpt lat="44.55076" lon="6.58148">
        <ele>1377.621</ele>
        <time>2020-03-03T18:09:48Z</time>
      </trkpt>
      <trkpt lat="44.55091" lon="6.57984">
        <ele>1361.367</ele>
        <time>2020-03-03T18:10:08Z</time>
      </trkpt>
      <trkpt lat="44.5517" lon="6.57876">
        <ele>1356.483</ele>
        <time>2020-03-03T18:10:28Z</time>
      </trkpt>
      <trkpt lat="44.55228" lon="6.57747">
        <ele>1345.225</ele>
        <time>2020-03-03T18:10:48Z</time>
      </trkpt>
      <trkpt lat="44.55277" lon="6.57721">
        <ele>1346.417</ele>
        <time>2020-03-03T18:11:08Z</time>
      </trkpt>
      <trkpt lat="44.55354" lon="6.57577">
        <ele>1326.208</ele>
        <time>2020-03-03T18:11:28Z</time>
      </trkpt>
      <trkpt lat="44.55381" lon="6.57496">
        <ele>1323.242</ele>
        <time>2020-03-03T18:11:48Z</time>
      </trkpt>
      <trkpt lat="44.55536" lon="6.57291">
        <ele>1306.015</ele>
        <time>2020-03-03T18:12:08Z</time>
      </trkpt>
      <trkpt lat="44.55627" lon="6.57125">
        <ele>1291.242</ele>
        <time>2020-03-03T18:12:28Z</time>
      </trkpt>
      <trkpt lat="44.55683" lon="6.5692">
        <ele>1279.531</ele>
        <time>2020-03-03T18:12:48Z</time>
      </trkpt>
      <trkpt lat="44.55687" lon="6.56846">
        <ele>1270.869</ele>
        <time>2020-03-03T18:13:08Z</time>
      </trkpt>
      <trkpt lat="44.55722" lon="6.56732">
        <ele>1262.34</ele>
        <time>2020-03-03T18:13:28Z</time>
      </trkpt>
      <trkpt lat="44.55729" lon="6.56657">
        <ele>1260.882</ele>
        <time>2020-03-03T18:13:48Z</time>
      </trkpt>
      <trkpt lat="44.5572" lon="6.56609">
        <ele>1251.298</ele>
        <time>2020-03-03T18:14:08Z</time>
      </trkpt>
      <trkpt lat="44.55742" lon="6.56532">
        <ele>1245.489</ele>
        <time>2020-03-03T18:14:28Z</time>
      </trkpt>
      <trkpt lat="44.55794" lon="6.56423">
        <ele>1243.306</ele>
        <time>2020-03-03T18:14:48Z</time>
      </trkpt>
      <trkpt lat="44.55809" lon="6.56231">
        <ele>1231.426</ele>
        <time>2020-03-03T18:15:08Z</time>
      </trkpt>
      <trkpt lat="44.55793" lon="6.56232">
        <ele>1223.208</ele>
        <time>2020-03-03T18:15:28Z</time>
      </trkpt>
      <trkpt lat="44.55769" lon="6.56324">
        <ele>1221.882</ele>
        <time>2020-03-03T18:15:48Z</time>
      </trkpt>
      <trkpt lat="44.55739" lon="6.56375">
        <ele>1221.915</ele>
        <time>2020-03-03T18:16:08Z</time>
      </trkpt>
      <trkpt lat="44.55726" lon="6.5636">
        <ele>1220.222</ele>
        <time>2020-03-03T18:16:28Z</time>
      </trkpt>
      <trkpt lat="44.55736" lon="6.55992">
        <ele>1198.611</ele>
        <time>2020-03-03T18:16:48Z</time>
      </trkpt>
      <trkpt lat="44.55789" lon="6.55862">
        <ele>1192.939</ele>
        <time>2020-03-03T18:17:08Z</time>
      </trkpt>
      <trkpt lat="44.5579" lon="6.55756">
        <ele>1184.46</ele>
        <time>2020-03-03T18:17:28Z</time>
      </trkpt>
      <trkpt lat="44.55824" lon="6.55636">
        <ele>1180.572</ele>
        <time>2020-03-03T18:17:48Z</time>
      </trkpt>
      <trkpt lat="44.55813" lon="6.5558">
        <ele>1184.628</ele>
        <time>2020-03-03T18:18:08Z</time>
      </trkpt>
      <trkpt lat="44.55825" lon="6.55562">
        <ele>1187.361</ele>
        <time>2020-03-03T18:18:28Z</time>
      </trkpt>
      <trkpt lat="44.55869" lon="6.55552">
        <ele>1178.821</ele>
        <time>2020-03-03T18:18:48Z</time>
      </trkpt>
      <trkpt lat="44.55926" lon="6.55451">
        <ele>1177.113</ele>
        <time>2020-03-03T18:19:08Z</time>
      </trkpt>
      <trkpt lat="44.55985" lon="6.55441">
        <ele>1168.508</ele>
        <time>2020-03-03T18:19:28Z</time>
      </trkpt>
      <trkpt lat="44.56053" lon="6.55464">
        <ele>1157.67</ele>
        <time>2020-03-03T18:19:48Z</time>
      </trkpt>
      <trkpt lat="44.56084" lon="6.5544">
        <ele>1157.193</ele>
        <time>2020-03-03T18:20:08Z</time>
      </trkpt>
      <trkpt lat="44.56083" lon="6.55328">
        <ele>1150.58</ele>
        <time>2020-03-03T18:20:28Z</time>
      </trkpt>
      <trkpt lat="44.56069" lon="6.55226">
        <ele>1140.389</ele>
        <time>2020-03-03T18:20:48Z</time>
      </trkpt>
      <trkpt lat="44.5605" lon="6.55188">
        <ele>1140.927</ele>
        <time>2020-03-03T18:21:08Z</time>
      </trkpt>
      <trkpt lat="44.5605" lon="6.55141">
        <ele>1136.068</ele>
        <time>2020-03-03T18:21:28Z</time>
      </trkpt>
      <trkpt lat="44.56039" lon="6.55101">
        <ele>1133.13</ele>
        <time>2020-03-03T18:21:48Z</time>
      </trkpt>
      <trkpt lat="44.56049" lon="6.55094">
        <ele>1130.036</ele>
        <time>2020-03-03T18:22:08Z</time>
      </trkpt>
      <trkpt lat="44.56116" lon="6.55236">
        <ele>1125.081</ele>
        <time>2020-03-03T18:22:28Z</time>
      </trkpt>
      <trkpt lat="44.56142" lon="6.55258">
        <ele>1121.861</ele>
        <time>2020-03-03T18:22:48Z</time>
      </trkpt>
      <trkpt lat="44.5613" lon="6.55333">
        <ele>1126.017</ele>
        <time>2020-03-03T18:23:08Z</time>
      </trkpt>
      <trkpt lat="44.56142" lon="6.55348">
        <ele>1120.308</ele>
        <time>2020-03-03T18:23:28Z</time>
      </trkpt>
      <trkpt lat="44.56163" lon="6.55348">
        <ele>1119.322</ele>
        <time>2020-03-03T18:23:48Z</time>
      </trkpt>
      <trkpt lat="44.56182" lon="6.55308">
        <ele>1117.235</ele>
        <time>2020-03-03T18:24:08Z</time>
      </trkpt>
      <trkpt lat="44.56207" lon="6.55271">
        <ele>1115.972</ele>
        <time>2020-03-03T18:24:28Z</time>
      </trkpt>
      <trkpt lat="44.56228" lon="6.55196">
        <ele>1114.171</ele>
        <time>2020-03-03T18:24:48Z</time>
      </trkpt>
      <trkpt lat="44.56235" lon="6.55131">
        <ele>1113.779</ele>
        <time>2020-03-03T18:25:08Z</time>
      </trkpt>
      <trkpt lat="44.56226" lon="6.55077">
        <ele>1106.58</ele>
        <time>2020-03-03T18:25:28Z</time>
      </trkpt>
      <trkpt lat="44.56225" lon="6.55048">
        <ele>1105.912</ele>
        <time>2020-03-03T18:25:48Z</time>
      </trkpt>
      <trkpt lat="44.56237" lon="6.5503">
        <ele>1110.178</ele>
        <time>2020-03-03T18:26:08Z</time>
      </trkpt>
      <trkpt lat="44.56283" lon="6.55027">
        <ele>1111.175</ele>
        <time>2020-03-03T18:26:28Z</time>
      </trkpt>
      <trkpt lat="44.5635" lon="6.54981">
        <ele>1100.828</ele>
        <time>2020-03-03T18:26:48Z</time>
      </trkpt>
      <trkpt lat="44.56385" lon="6.54992">
        <ele>1101.42</ele>
        <time>2020-03-03T18:27:08Z</time>
      </trkpt>
      <trkpt lat="44.564" lon="6.54969">
        <ele>1094.508</ele>
        <time>2020-03-03T18:27:28Z</time>
      </trkpt>
      <trkpt lat="44.56378" lon="6.54888">
        <ele>1088.281</ele>
        <time>2020-03-03T18:27:48Z</time>
      </trkpt>
      <trkpt lat="44.56388" lon="6.54818">
        <ele>1090.464</ele>
        <time>2020-03-03T18:28:08Z</time>
      </trkpt>
      <trkpt lat="44.56396" lon="6.54746">
        <ele>1088.741</ele>
        <time>2020-03-03T18:28:28Z</time>
      </trkpt>
      <trkpt lat="44.56426" lon="6.54657">
        <ele>1091.59</ele>
        <time>2020-03-03T18:28:48Z</time>
      </trkpt>
      <trkpt lat="44.56445" lon="6.54642">
        <ele>1094.428</ele>
        <time>2020-03-03T18:29:08Z</time>
      </trkpt>
      <trkpt lat="44.56477" lon="6.54662">
        <ele>1096.829</ele>
        <time>2020-03-03T18:29:28Z</time>
      </trkpt>
      <trkpt lat="44.56489" lon="6.54647">
        <ele>1093.321</ele>
        <time>2020-03-03T18:29:48Z</time>
      </trkpt>
      <trkpt lat="44.56509" lon="6.54622">
        <ele>1089.777</ele>
        <time>2020-03-03T18:30:08Z</time>
      </trkpt>
      <trkpt lat="44.56547" lon="6.54605">
        <ele>1093.231</ele>
        <time>2020-03-03T18:30:28Z</time>
      </trkpt>
      <trkpt lat="44.56595" lon="6.54557">
        <ele>1096.161</ele>
        <time>2020-03-03T18:30:48Z</time>
      </trkpt>
      <trkpt lat="44.56629" lon="6.54494">
        <ele>1095.407</ele>
        <time>2020-03-03T18:31:08Z</time>
      </trkpt>
      <trkpt lat="44.56676" lon="6.54347">
        <ele>1091.308</ele>
        <time>2020-03-03T18:31:28Z</time>
      </trkpt>
      <trkpt lat="44.56682" lon="6.54252">
        <ele>1092.137</ele>
        <time>2020-03-03T18:31:48Z</time>
      </trkpt>
      <trkpt lat="44.56665" lon="6.54148">
        <ele>1096.11</ele>
        <time>2020-03-03T18:32:08Z</time>
      </trkpt>
      <trkpt lat="44.56626" lon="6.5411">
        <ele>1091.887</ele>
        <time>2020-03-03T18:32:28Z</time>
      </trkpt>
      <trkpt lat="44.56641" lon="6.54044">
        <ele>1093.266</ele>
        <time>2020-03-03T18:32:48Z</time>
      </trkpt>
      <trkpt lat="44.56644" lon="6.53999">
        <ele>1088.094</ele>
        <time>2020-03-03T18:33:08Z</time>
      </trkpt>
      <trkpt lat="44.56678" lon="6.53935">
        <ele>1091.525</ele>
        <time>2020-03-03T18:33:28Z</time>
      </trkpt>
      <trkpt lat="44.56676" lon="6.53904">
        <ele>1093.587</ele>
        <time>2020-03-03T18:33:48Z</time>
      </trkpt>
      <trkpt lat="44.56647" lon="6.53868">
        <ele>1093.013</ele>
        <time>2020-03-03T18:34:08Z</time>
      </trkpt>
      <trkpt lat="44.56599" lon="6.53835">
        <ele>1086.912</ele>
        <time>2020-03-03T18:34:28Z</time>
      </trkpt>
      <trkpt lat="44.56656" lon="6.53694">
        <ele>1089.332</ele>
        <time>2020-03-03T18:34:48Z</time>
      </trkpt>
      <trkpt lat="44.56734" lon="6.53693">
        <ele>1095.805</ele>
        <time>2020-03-03T18:35:08Z</time>
      </trkpt>
      <trkpt lat="44.56752" lon="6.53679">
        <ele>1094.008</ele>
        <time>2020-03-03T18:35:28Z</time>
      </trkpt>
      <trkpt lat="44.56759" lon="6.53687">
        <ele>1095.815</ele>
        <time>2020-03-03T18:35:48Z</time>
      </trkpt>
      <trkpt lat="44.56784" lon="6.53658">
        <ele>1094.948</ele>
        <time>2020-03-03T18:36:08Z</time>
      </trkpt>
      <trkpt lat="44.56832" lon="6.53629">
        <ele>1102.265</ele>
        <time>2020-03-03T18:36:28Z</time>
      </trkpt>
      <trkpt lat="44.56855" lon="6.53617">
        <ele>1106.044</ele>
        <time>2020-03-03T18:36:48Z</time>
      </trkpt>
      <trkpt lat="44.56893" lon="6.53614">
        <ele>1109.432</ele>
        <time>2020-03-03T18:37:08Z</time>
      </trkpt>
      <trkpt lat="44.56925" lon="6.53636">
        <ele>1113.233</ele>
        <time>2020-03-03T18:37:28Z</time>
      </trkpt>
      <trkpt lat="44.5692" lon="6.53646">
        <ele>1115.095</ele>
        <time>2020-03-03T18:37:48Z</time>
      </trkpt>
      <trkpt lat="44.56887" lon="6.53656">
        <ele>1115.981</ele>
        <time>2020-03-03T18:38:08Z</time>
      </trkpt>
      <trkpt lat="44.56868" lon="6.53672">
        <ele>1115.814</ele>
        <time>2020-03-03T18:38:28Z</time>
      </trkpt>
      <trkpt lat="44.56846" lon="6.53741">
        <ele>1120.854</ele>
        <time>2020-03-03T18:38:48Z</time>
      </trkpt>
      <trkpt lat="44.56851" lon="6.53743">
        <ele>1122.309</ele>
        <time>2020-03-03T18:39:08Z</time>
      </trkpt>
      <trkpt lat="44.56901" lon="6.53726">
        <ele>1126.708</ele>
        <time>2020-03-03T18:39:28Z</time>
      </trkpt>
      <trkpt lat="44.56928" lon="6.53732">
        <ele>1129.195</ele>
        <time>2020-03-03T18:39:48Z</time>
      </trkpt>
      <trkpt lat="44.56961" lon="6.53794">
        <ele>1135.598</ele>
        <time>2020-03-03T18:40:08Z</time>
      </trkpt>
      <trkpt lat="44.56999" lon="6.53812">
        <ele>1136.415</ele>
        <time>2020-03-03T18:40:28Z</time>
      </trkpt>
      <trkpt lat="44.57029" lon="6.53845">
        <ele>1139.524</ele>
        <time>2020-03-03T18:40:48Z</time>
      </trkpt>
      <trkpt lat="44.57046" lon="6.53843">
        <ele>1138.162</ele>
        <time>2020-03-03T18:41:08Z</time>
      </trkpt>
      <trkpt lat="44.57078" lon="6.53816">
        <ele>1137.063</ele>
        <time>2020-03-03T18:41:28Z</time>
      </trkpt>
      <trkpt lat="44.57103" lon="6.53817">
        <ele>1138.785</ele>
        <time>2020-03-03T18:41:48Z</time>
      </trkpt>
      <trkpt lat="44.57126" lon="6.53837">
        <ele>1142.671</ele>
        <time>2020-03-03T18:42:08Z</time>
      </trkpt>
      <trkpt lat="44.57138" lon="6.53857">
        <ele>1146.339</ele>
        <time>2020-03-03T18:42:28Z</time>
      </trkpt>
      <trkpt lat="44.5716" lon="6.53869">
        <ele>1146.701</ele>
        <time>2020-03-03T18:42:48Z</time>
      </trkpt>
      <trkpt lat="44.57171" lon="6.53897">
        <ele>1150.621</ele>
        <time>2020-03-03T18:43:08Z</time>
      </trkpt>
      <trkpt lat="44.57195" lon="6.53893">
        <ele>1150.008</ele>
        <time>2020-03-03T18:43:28Z</time>
      </trkpt>
      <trkpt lat="44.57207" lon="6.53894">
        <ele>1150.997</ele>
        <time>2020-03-03T18:43:48Z</time>
      </trkpt>
      <trkpt lat="44.5723" lon="6.5391">
        <ele>1154.96</ele>
        <time>2020-03-03T18:44:08Z</time>
      </trkpt>
      <trkpt lat="44.57238" lon="6.53935">
        <ele>1158.987</ele>
        <time>2020-03-03T18:44:28Z</time>
      </trkpt>
      <trkpt lat="44.57217" lon="6.53949">
        <ele>1162.266</ele>
        <time>2020-03-03T18:44:48Z</time>
      </trkpt>
      <trkpt lat="44.57219" lon="6.53962">
        <ele>1165.494</ele>
        <time>2020-03-03T18:45:08Z</time>
      </trkpt>
      <trkpt lat="44.57253" lon="6.53995">
        <ele>1169.035</ele>
        <time>2020-03-03T18:45:28Z</time>
      </trkpt>
      <trkpt lat="44.57286" lon="6.54024">
        <ele>1170.967</ele>
        <time>2020-03-03T18:45:48Z</time>
      </trkpt>
      <trkpt lat="44.57299" lon="6.54046">
        <ele>1173.573</ele>
        <time>2020-03-03T18:46:08Z</time>
      </trkpt>
      <trkpt lat="44.57316" lon="6.54077">
        <ele>1178.027</ele>
        <time>2020-03-03T18:46:28Z</time>
      </trkpt>
      <trkpt lat="44.57355" lon="6.54102">
        <ele>1179.568</ele>
        <time>2020-03-03T18:46:48Z</time>
      </trkpt>
      <trkpt lat="44.57388" lon="6.54152">
        <ele>1184.914</ele>
        <time>2020-03-03T18:47:08Z</time>
      </trkpt>
      <trkpt lat="44.57414" lon="6.54179">
        <ele>1188.908</ele>
        <time>2020-03-03T18:47:28Z</time>
      </trkpt>
      <trkpt lat="44.57461" lon="6.54194">
        <ele>1193.066</ele>
        <time>2020-03-03T18:47:48Z</time>
      </trkpt>
      <trkpt lat="44.57474" lon="6.5421">
        <ele>1195.789</ele>
        <time>2020-03-03T18:48:08Z</time>
      </trkpt>
      <trkpt lat="44.57491" lon="6.54236">
        <ele>1198.846</ele>
        <time>2020-03-03T18:48:28Z</time>
      </trkpt>
      <trkpt lat="44.57525" lon="6.54265">
        <ele>1202.265</ele>
        <time>2020-03-03T18:48:48Z</time>
      </trkpt>
      <trkpt lat="44.57555" lon="6.54277">
        <ele>1203.943</ele>
        <time>2020-03-03T18:49:08Z</time>
      </trkpt>
      <trkpt lat="44.57592" lon="6.54281">
        <ele>1204.334</ele>
        <time>2020-03-03T18:49:28Z</time>
      </trkpt>
      <trkpt lat="44.57632" lon="6.54302">
        <ele>1206.536</ele>
        <time>2020-03-03T18:49:48Z</time>
      </trkpt>
      <trkpt lat="44.5767" lon="6.54338">
        <ele>1211.372</ele>
        <time>2020-03-03T18:50:08Z</time>
      </trkpt>
      <trkpt lat="44.57688" lon="6.54367">
        <ele>1213.624</ele>
        <time>2020-03-03T18:50:28Z</time>
      </trkpt>
      <trkpt lat="44.57722" lon="6.54375">
        <ele>1216.504</ele>
        <time>2020-03-03T18:50:48Z</time>
      </trkpt>
      <trkpt lat="44.57752" lon="6.54371">
        <ele>1217.114</ele>
        <time>2020-03-03T18:51:08Z</time>
      </trkpt>
      <trkpt lat="44.57878" lon="6.54398">
        <ele>1219.608</ele>
        <time>2020-03-03T18:51:28Z</time>
      </trkpt>
      <trkpt lat="44.57898" lon="6.54413">
        <ele>1220.376</ele>
        <time>2020-03-03T18:51:48Z</time>
      </trkpt>
      <trkpt lat="44.57925" lon="6.54446">
        <ele>1221.779</ele>
        <time>2020-03-03T18:52:08Z</time>
      </trkpt>
      <trkpt lat="44.57969" lon="6.54444">
        <ele>1221.656</ele>
        <time>2020-03-03T18:52:28Z</time>
      </trkpt>
      <trkpt lat="44.57985" lon="6.54461">
        <ele>1223.425</ele>
        <time>2020-03-03T18:52:48Z</time>
      </trkpt>
      <trkpt lat="44.58012" lon="6.54511">
        <ele>1226.333</ele>
        <time>2020-03-03T18:53:08Z</time>
      </trkpt>
      <trkpt lat="44.58031" lon="6.54564">
        <ele>1228.294</ele>
        <time>2020-03-03T18:53:28Z</time>
      </trkpt>
      <trkpt lat="44.58082" lon="6.5463">
        <ele>1230.486</ele>
        <time>2020-03-03T18:53:48Z</time>
      </trkpt>
      <trkpt lat="44.58118" lon="6.54681">
        <ele>1230.632</ele>
        <time>2020-03-03T18:54:08Z</time>
      </trkpt>
      <trkpt lat="44.58144" lon="6.54736">
        <ele>1231.952</ele>
        <time>2020-03-03T18:54:28Z</time>
      </trkpt>
      <trkpt lat="44.58163" lon="6.54797">
        <ele>1233.553</ele>
        <time>2020-03-03T18:54:48Z</time>
      </trkpt>
      <trkpt lat="44.58192" lon="6.54884">
        <ele>1235.108</ele>
        <time>2020-03-03T18:55:08Z</time>
      </trkpt>
      <trkpt lat="44.58209" lon="6.54965">
        <ele>1243.608</ele>
        <time>2020-03-03T18:55:28Z</time>
      </trkpt>
      <trkpt lat="44.58231" lon="6.55053">
        <ele>1251.899</ele>
        <time>2020-03-03T18:55:48Z</time>
      </trkpt>
      <trkpt lat="44.58252" lon="6.55136">
        <ele>1260.552</ele>
        <time>2020-03-03T18:56:08Z</time>
      </trkpt>
      <trkpt lat="44.58272" lon="6.55172">
        <ele>1259.289</ele>
        <time>2020-03-03T18:56:28Z</time>
      </trkpt>
      <trkpt lat="44.58285" lon="6.55125">
        <ele>1255.378</ele>
        <time>2020-03-03T18:56:48Z</time>
      </trkpt>
      <trkpt lat="44.58293" lon="6.55048">
        <ele>1254.716</ele>
        <time>2020-03-03T18:57:08Z</time>
      </trkpt>
      <trkpt lat="44.58316" lon="6.54933">
        <ele>1263.957</ele>
        <time>2020-03-03T18:57:28Z</time>
      </trkpt>
      <trkpt lat="44.58317" lon="6.54899">
        <ele>1262.619</ele>
        <time>2020-03-03T18:57:48Z</time>
      </trkpt>
      <trkpt lat="44.58319" lon="6.5487">
        <ele>1262.425</ele>
        <time>2020-03-03T18:58:08Z</time>
      </trkpt>
      <trkpt lat="44.58331" lon="6.54862">
        <ele>1268.644</ele>
        <time>2020-03-03T18:58:28Z</time>
      </trkpt>
      <trkpt lat="44.58353" lon="6.5488">
        <ele>1271.805</ele>
        <time>2020-03-03T18:58:48Z</time>
      </trkpt>
      <trkpt lat="44.58382" lon="6.54908">
        <ele>1274.415</ele>
        <time>2020-03-03T18:59:08Z</time>
      </trkpt>
      <trkpt lat="44.58429" lon="6.54946">
        <ele>1277.608</ele>
        <time>2020-03-03T18:59:28Z</time>
      </trkpt>
      <trkpt lat="44.58449" lon="6.54963">
        <ele>1278.278</ele>
        <time>2020-03-03T18:59:48Z</time>
      </trkpt>
      <trkpt lat="44.5847" lon="6.54988">
        <ele>1279.221</ele>
        <time>2020-03-03T19:00:08Z</time>
      </trkpt>
      <trkpt lat="44.58489" lon="6.55012">
        <ele>1280.278</ele>
        <time>2020-03-03T19:00:28Z</time>
      </trkpt>
      <trkpt lat="44.58509" lon="6.55043">
        <ele>1282.297</ele>
        <time>2020-03-03T19:00:48Z</time>
      </trkpt>
      <trkpt lat="44.58522" lon="6.55065">
        <ele>1284.585</ele>
        <time>2020-03-03T19:01:08Z</time>
      </trkpt>
      <trkpt lat="44.58541" lon="6.55074">
        <ele>1285.946</ele>
        <time>2020-03-03T19:01:28Z</time>
      </trkpt>
      <trkpt lat="44.5854" lon="6.55081">
        <ele>1287.178</ele>
        <time>2020-03-03T19:01:48Z</time>
      </trkpt>
      <trkpt lat="44.58524" lon="6.5509">
        <ele>1288.574</ele>
        <time>2020-03-03T19:02:08Z</time>
      </trkpt>
      <trkpt lat="44.58491" lon="6.55124">
        <ele>1295.037</ele>
        <time>2020-03-03T19:02:28Z</time>
      </trkpt>
      <trkpt lat="44.58431" lon="6.55144">
        <ele>1301.449</ele>
        <time>2020-03-03T19:02:48Z</time>
      </trkpt>
      <trkpt lat="44.58408" lon="6.55142">
        <ele>1301.213</ele>
        <time>2020-03-03T19:03:08Z</time>
      </trkpt>
      <trkpt lat="44.58405" lon="6.5516">
        <ele>1306.208</ele>
        <time>2020-03-03T19:03:28Z</time>
      </trkpt>
      <trkpt lat="44.58471" lon="6.55169">
        <ele>1313.157</ele>
        <time>2020-03-03T19:03:48Z</time>
      </trkpt>
      <trkpt lat="44.58531" lon="6.55206">
        <ele>1326.37</ele>
        <time>2020-03-03T19:04:08Z</time>
      </trkpt>
      <trkpt lat="44.58557" lon="6.55201">
        <ele>1324.317</ele>
        <time>2020-03-03T19:04:28Z</time>
      </trkpt>
      <trkpt lat="44.58607" lon="6.55235">
        <ele>1336.096</ele>
        <time>2020-03-03T19:04:48Z</time>
      </trkpt>
      <trkpt lat="44.58654" lon="6.55252">
        <ele>1340.014</ele>
        <time>2020-03-03T19:05:08Z</time>
      </trkpt>
      <trkpt lat="44.58744" lon="6.55305">
        <ele>1356.435</ele>
        <time>2020-03-03T19:05:28Z</time>
      </trkpt>
      <trkpt lat="44.58772" lon="6.55332">
        <ele>1362.237</ele>
        <time>2020-03-03T19:05:48Z</time>
      </trkpt>
      <trkpt lat="44.5879" lon="6.55336">
        <ele>1362.393</ele>
        <time>2020-03-03T19:06:08Z</time>
      </trkpt>
      <trkpt lat="44.58821" lon="6.5533">
        <ele>1360.949</ele>
        <time>2020-03-03T19:06:28Z</time>
      </trkpt>
      <trkpt lat="44.58838" lon="6.55346">
        <ele>1364.502</ele>
        <time>2020-03-03T19:06:48Z</time>
      </trkpt>
      <trkpt lat="44.58851" lon="6.55404">
        <ele>1376.922</ele>
        <time>2020-03-03T19:07:08Z</time>
      </trkpt>
      <trkpt lat="44.58898" lon="6.55437">
        <ele>1381.008</ele>
        <time>2020-03-03T19:07:28Z</time>
      </trkpt>
      <trkpt lat="44.58914" lon="6.55464">
        <ele>1386.298</ele>
        <time>2020-03-03T19:07:48Z</time>
      </trkpt>
      <trkpt lat="44.58938" lon="6.55492">
        <ele>1389.091</ele>
        <time>2020-03-03T19:08:08Z</time>
      </trkpt>
      <trkpt lat="44.58899" lon="6.55527">
        <ele>1401.268</ele>
        <time>2020-03-03T19:08:28Z</time>
      </trkpt>
      <trkpt lat="44.58861" lon="6.55595">
        <ele>1414.117</ele>
        <time>2020-03-03T19:08:48Z</time>
      </trkpt>
      <trkpt lat="44.58858" lon="6.55618">
        <ele>1415.165</ele>
        <time>2020-03-03T19:09:08Z</time>
      </trkpt>
      <trkpt lat="44.58864" lon="6.55649">
        <ele>1415.536</ele>
        <time>2020-03-03T19:09:28Z</time>
      </trkpt>
      <trkpt lat="44.58851" lon="6.55687">
        <ele>1420.388</ele>
        <time>2020-03-03T19:09:48Z</time>
      </trkpt>
      <trkpt lat="44.58828" lon="6.55727">
        <ele>1429.474</ele>
        <time>2020-03-03T19:10:08Z</time>
      </trkpt>
      <trkpt lat="44.58813" lon="6.5582">
        <ele>1435.722</ele>
        <time>2020-03-03T19:10:28Z</time>
      </trkpt>
      <trkpt lat="44.58792" lon="6.55846">
        <ele>1446.662</ele>
        <time>2020-03-03T19:10:48Z</time>
      </trkpt>
      <trkpt lat="44.58767" lon="6.55937">
        <ele>1456.708</ele>
        <time>2020-03-03T19:11:08Z</time>
      </trkpt>
      <trkpt lat="44.58779" lon="6.55987">
        <ele>1457.508</ele>
        <time>2020-03-03T19:11:28Z</time>
      </trkpt>
      <trkpt lat="44.58814" lon="6.56023">
        <ele>1459.536</ele>
        <time>2020-03-03T19:11:48Z</time>
      </trkpt>
      <trkpt lat="44.58857" lon="6.56026">
        <ele>1459.569</ele>
        <time>2020-03-03T19:12:08Z</time>
      </trkpt>
      <trkpt lat="44.58896" lon="6.5602">
        <ele>1461.196</ele>
        <time>2020-03-03T19:12:28Z</time>
      </trkpt>
      <trkpt lat="44.58947" lon="6.56044">
        <ele>1471.825</ele>
        <time>2020-03-03T19:12:48Z</time>
      </trkpt>
      <trkpt lat="44.58989" lon="6.56096">
        <ele>1479.063</ele>
        <time>2020-03-03T19:13:08Z</time>
      </trkpt>
      <trkpt lat="44.59024" lon="6.56127">
        <ele>1480.164</ele>
        <time>2020-03-03T19:13:28Z</time>
      </trkpt>
      <trkpt lat="44.59057" lon="6.56132">
        <ele>1481.386</ele>
        <time>2020-03-03T19:13:48Z</time>
      </trkpt>
      <trkpt lat="44.59131" lon="6.56172">
        <ele>1489.132</ele>
        <time>2020-03-03T19:14:08Z</time>
      </trkpt>
      <trkpt lat="44.5915" lon="6.56173">
        <ele>1488.136</ele>
        <time>2020-03-03T19:14:28Z</time>
      </trkpt>
      <trkpt lat="44.59199" lon="6.56168">
        <ele>1490.817</ele>
        <time>2020-03-03T19:14:48Z</time>
      </trkpt>
      <trkpt lat="44.59258" lon="6.56205">
        <ele>1498.918</ele>
        <time>2020-03-03T19:15:08Z</time>
      </trkpt>
      <trkpt lat="44.59284" lon="6.56205">
        <ele>1498.708</ele>
        <time>2020-03-03T19:15:28Z</time>
      </trkpt>
      <trkpt lat="44.59356" lon="6.56176">
        <ele>1503.977</ele>
        <time>2020-03-03T19:15:48Z</time>
      </trkpt>
      <trkpt lat="44.59385" lon="6.56154">
        <ele>1504.09</ele>
        <time>2020-03-03T19:16:08Z</time>
      </trkpt>
      <trkpt lat="44.5941" lon="6.56173">
        <ele>1511.597</ele>
        <time>2020-03-03T19:16:28Z</time>
      </trkpt>
      <trkpt lat="44.59453" lon="6.56187">
        <ele>1514.276</ele>
        <time>2020-03-03T19:16:48Z</time>
      </trkpt>
      <trkpt lat="44.59508" lon="6.56261">
        <ele>1526.334</ele>
        <time>2020-03-03T19:17:08Z</time>
      </trkpt>
      <trkpt lat="44.59547" lon="6.56292">
        <ele>1529.395</ele>
        <time>2020-03-03T19:17:28Z</time>
      </trkpt>
      <trkpt lat="44.59564" lon="6.56292">
        <ele>1529.727</ele>
        <time>2020-03-03T19:17:48Z</time>
      </trkpt>
      <trkpt lat="44.5959" lon="6.56281">
        <ele>1528.493</ele>
        <time>2020-03-03T19:18:08Z</time>
      </trkpt>
      <trkpt lat="44.59609" lon="6.56281">
        <ele>1530.163</ele>
        <time>2020-03-03T19:18:28Z</time>
      </trkpt>
      <trkpt lat="44.59653" lon="6.56301">
        <ele>1537.544</ele>
        <time>2020-03-03T19:18:48Z</time>
      </trkpt>
      <trkpt lat="44.59709" lon="6.56311">
        <ele>1544.018</ele>
        <time>2020-03-03T19:19:08Z</time>
      </trkpt>
      <trkpt lat="44.59741" lon="6.56311">
        <ele>1546.408</ele>
        <time>2020-03-03T19:19:28Z</time>
      </trkpt>
      <trkpt lat="44.59771" lon="6.56297">
        <ele>1545.11</ele>
        <time>2020-03-03T19:19:48Z</time>
      </trkpt>
      <trkpt lat="44.59836" lon="6.56319">
        <ele>1555.033</ele>
        <time>2020-03-03T19:20:08Z</time>
      </trkpt>
      <trkpt lat="44.59876" lon="6.56345">
        <ele>1562.22</ele>
        <time>2020-03-03T19:20:28Z</time>
      </trkpt>
      <trkpt lat="44.59908" lon="6.56348">
        <ele>1558.549</ele>
        <time>2020-03-03T19:20:48Z</time>
      </trkpt>
      <trkpt lat="44.59935" lon="6.56374">
        <ele>1565.997</ele>
        <time>2020-03-03T19:21:08Z</time>
      </trkpt>
      <trkpt lat="44.59967" lon="6.56383">
        <ele>1567.338</ele>
        <time>2020-03-03T19:21:28Z</time>
      </trkpt>
      <trkpt lat="44.59995" lon="6.56386">
        <ele>1566.51</ele>
        <time>2020-03-03T19:21:48Z</time>
      </trkpt>
      <trkpt lat="44.60013" lon="6.56419">
        <ele>1572.876</ele>
        <time>2020-03-03T19:22:08Z</time>
      </trkpt>
      <trkpt lat="44.60035" lon="6.56434">
        <ele>1574.423</ele>
        <time>2020-03-03T19:22:28Z</time>
      </trkpt>
      <trkpt lat="44.60068" lon="6.5642">
        <ele>1569.583</ele>
        <time>2020-03-03T19:22:48Z</time>
      </trkpt>
      <trkpt lat="44.60075" lon="6.56435">
        <ele>1570.511</ele>
        <time>2020-03-03T19:23:08Z</time>
      </trkpt>
      <trkpt lat="44.60058" lon="6.56456">
        <ele>1576.708</ele>
        <time>2020-03-03T19:23:28Z</time>
      </trkpt>
      <trkpt lat="44.60022" lon="6.56445">
        <ele>1580.476</ele>
        <time>2020-03-03T19:23:48Z</time>
      </trkpt>
      <trkpt lat="44.60004" lon="6.56434">
        <ele>1581.329</ele>
        <time>2020-03-03T19:24:08Z</time>
      </trkpt>
      <trkpt lat="44.59922" lon="6.56423">
        <ele>1592.356</ele>
        <time>2020-03-03T19:24:28Z</time>
      </trkpt>
      <trkpt lat="44.5987" lon="6.56404">
        <ele>1597.035</ele>
        <time>2020-03-03T19:24:48Z</time>
      </trkpt>
      <trkpt lat="44.59825" lon="6.5639">
        <ele>1593.813</ele>
        <time>2020-03-03T19:25:08Z</time>
      </trkpt>
      <trkpt lat="44.59793" lon="6.56415">
        <ele>1597.734</ele>
        <time>2020-03-03T19:25:28Z</time>
      </trkpt>
      <trkpt lat="44.59758" lon="6.5643">
        <ele>1601.736</ele>
        <time>2020-03-03T19:25:48Z</time>
      </trkpt>
      <trkpt lat="44.59734" lon="6.56446">
        <ele>1607.442</ele>
        <time>2020-03-03T19:26:08Z</time>
      </trkpt>
      <trkpt lat="44.59705" lon="6.56455">
        <ele>1612.042</ele>
        <time>2020-03-03T19:26:28Z</time>
      </trkpt>
      <trkpt lat="44.59667" lon="6.5646">
        <ele>1612.822</ele>
        <time>2020-03-03T19:26:48Z</time>
      </trkpt>
      <trkpt lat="44.5963" lon="6.56475">
        <ele>1614.814</ele>
        <time>2020-03-03T19:27:08Z</time>
      </trkpt>
      <trkpt lat="44.59594" lon="6.56489">
        <ele>1620.008</ele>
        <time>2020-03-03T19:27:28Z</time>
      </trkpt>
      <trkpt lat="44.59551" lon="6.56495">
        <ele>1623.158</ele>
        <time>2020-03-03T19:27:48Z</time>
      </trkpt>
      <trkpt lat="44.595" lon="6.56493">
        <ele>1621.821</ele>
        <time>2020-03-03T19:28:08Z</time>
      </trkpt>
      <trkpt lat="44.59404" lon="6.56517">
        <ele>1628.218</ele>
        <time>2020-03-03T19:28:28Z</time>
      </trkpt>
      <trkpt lat="44.59355" lon="6.56533">
        <ele>1638.427</ele>
        <time>2020-03-03T19:28:48Z</time>
      </trkpt>
      <trkpt lat="44.59286" lon="6.5654">
        <ele>1644.815</ele>
        <time>2020-03-03T19:29:08Z</time>
      </trkpt>
      <trkpt lat="44.59212" lon="6.56554">
        <ele>1654.776</ele>
        <time>2020-03-03T19:29:28Z</time>
      </trkpt>
      <trkpt lat="44.59182" lon="6.5655">
        <ele>1655.498</ele>
        <time>2020-03-03T19:29:48Z</time>
      </trkpt>
      <trkpt lat="44.59155" lon="6.56561">
        <ele>1665.084</ele>
        <time>2020-03-03T19:30:08Z</time>
      </trkpt>
      <trkpt lat="44.59132" lon="6.56543">
        <ele>1665.012</ele>
        <time>2020-03-03T19:30:28Z</time>
      </trkpt>
      <trkpt lat="44.59105" lon="6.56535">
        <ele>1669.732</ele>
        <time>2020-03-03T19:30:48Z</time>
      </trkpt>
      <trkpt lat="44.59073" lon="6.56514">
        <ele>1664.605</ele>
        <time>2020-03-03T19:31:08Z</time>
      </trkpt>
      <trkpt lat="44.59034" lon="6.56537">
        <ele>1673.208</ele>
        <time>2020-03-03T19:31:28Z</time>
      </trkpt>
      <trkpt lat="44.58968" lon="6.56528">
        <ele>1681.035</ele>
        <time>2020-03-03T19:31:48Z</time>
      </trkpt>
      <trkpt lat="44.58894" lon="6.56515">
        <ele>1693.428</ele>
        <time>2020-03-03T19:32:08Z</time>
      </trkpt>
      <trkpt lat="44.58867" lon="6.565">
        <ele>1691.155</ele>
        <time>2020-03-03T19:32:28Z</time>
      </trkpt>
      <trkpt lat="44.58821" lon="6.56494">
        <ele>1695.424</ele>
        <time>2020-03-03T19:32:48Z</time>
      </trkpt>
      <trkpt lat="44.58762" lon="6.565">
        <ele>1707.912</ele>
        <time>2020-03-03T19:33:08Z</time>
      </trkpt>
      <trkpt lat="44.58743" lon="6.56489">
        <ele>1711.413</ele>
        <time>2020-03-03T19:33:28Z</time>
      </trkpt>
      <trkpt lat="44.58724" lon="6.56441">
        <ele>1706.675</ele>
        <time>2020-03-03T19:33:48Z</time>
      </trkpt>
      <trkpt lat="44.58701" lon="6.56439">
        <ele>1711.891</ele>
        <time>2020-03-03T19:34:08Z</time>
      </trkpt>
      <trkpt lat="44.58696" lon="6.56458">
        <ele>1718.574</ele>
        <time>2020-03-03T19:34:28Z</time>
      </trkpt>
      <trkpt lat="44.58721" lon="6.5648">
        <ele>1716.056</ele>
        <time>2020-03-03T19:34:48Z</time>
      </trkpt>
      <trkpt lat="44.58742" lon="6.56525">
        <ele>1722.321</ele>
        <time>2020-03-03T19:35:08Z</time>
      </trkpt>
      <trkpt lat="44.58764" lon="6.56536">
        <ele>1721.608</ele>
        <time>2020-03-03T19:35:28Z</time>
      </trkpt>
      <trkpt lat="44.58803" lon="6.56539">
        <ele>1721.051</ele>
        <time>2020-03-03T19:35:48Z</time>
      </trkpt>
      <trkpt lat="44.58833" lon="6.56557">
        <ele>1727.434</ele>
        <time>2020-03-03T19:36:08Z</time>
      </trkpt>
      <trkpt lat="44.58865" lon="6.56596">
        <ele>1734.411</ele>
        <time>2020-03-03T19:36:28Z</time>
      </trkpt>
      <trkpt lat="44.58895" lon="6.56605">
        <ele>1732.08</ele>
        <time>2020-03-03T19:36:48Z</time>
      </trkpt>
      <trkpt lat="44.58923" lon="6.56625">
        <ele>1737.558</ele>
        <time>2020-03-03T19:37:08Z</time>
      </trkpt>
      <trkpt lat="44.58949" lon="6.56655">
        <ele>1747.279</ele>
        <time>2020-03-03T19:37:28Z</time>
      </trkpt>
      <trkpt lat="44.58982" lon="6.56662">
        <ele>1745.521</ele>
        <time>2020-03-03T19:37:48Z</time>
      </trkpt>
      <trkpt lat="44.59012" lon="6.56681">
        <ele>1750.127</ele>
        <time>2020-03-03T19:38:08Z</time>
      </trkpt>
      <trkpt lat="44.5904" lon="6.56715">
        <ele>1756.419</ele>
        <time>2020-03-03T19:38:28Z</time>
      </trkpt>
      <trkpt lat="44.59115" lon="6.56745">
        <ele>1762.409</ele>
        <time>2020-03-03T19:38:48Z</time>
      </trkpt>
      <trkpt lat="44.59132" lon="6.56761">
        <ele>1766.719</ele>
        <time>2020-03-03T19:39:08Z</time>
      </trkpt>
      <trkpt lat="44.59151" lon="6.56787">
        <ele>1770.708</ele>
        <time>2020-03-03T19:39:28Z</time>
      </trkpt>
      <trkpt lat="44.59184" lon="6.56809">
        <ele>1773.045</ele>
        <time>2020-03-03T19:39:48Z</time>
      </trkpt>
      <trkpt lat="44.59205" lon="6.56811">
        <ele>1771.568</ele>
        <time>2020-03-03T19:40:08Z</time>
      </trkpt>
      <trkpt lat="44.59253" lon="6.56846">
        <ele>1781.335</ele>
        <time>2020-03-03T19:40:28Z</time>
      </trkpt>
      <trkpt lat="44.59309" lon="6.56876">
        <ele>1785.194</ele>
        <time>2020-03-03T19:40:48Z</time>
      </trkpt>
      <trkpt lat="44.59354" lon="6.56907">
        <ele>1787.192</ele>
        <time>2020-03-03T19:41:08Z</time>
      </trkpt>
      <trkpt lat="44.5936" lon="6.56924">
        <ele>1789.333</ele>
        <time>2020-03-03T19:41:28Z</time>
      </trkpt>
      <trkpt lat="44.59343" lon="6.56934">
        <ele>1789.955</ele>
        <time>2020-03-03T19:41:48Z</time>
      </trkpt>
      <trkpt lat="44.59333" lon="6.56965">
        <ele>1790.941</ele>
        <time>2020-03-03T19:42:08Z</time>
      </trkpt>
      <trkpt lat="44.59312" lon="6.56992">
        <ele>1797.639</ele>
        <time>2020-03-03T19:42:28Z</time>
      </trkpt>
      <trkpt lat="44.59328" lon="6.57045">
        <ele>1797.701</ele>
        <time>2020-03-03T19:42:48Z</time>
      </trkpt>
      <trkpt lat="44.5934" lon="6.57066">
        <ele>1799.021</ele>
        <time>2020-03-03T19:43:08Z</time>
      </trkpt>
      <trkpt lat="44.59365" lon="6.5708">
        <ele>1799.108</ele>
        <time>2020-03-03T19:43:28Z</time>
      </trkpt>
      <trkpt lat="44.5939" lon="6.57084">
        <ele>1801.277</ele>
        <time>2020-03-03T19:43:48Z</time>
      </trkpt>
      <trkpt lat="44.59467" lon="6.57131">
        <ele>1803.66</ele>
        <time>2020-03-03T19:44:08Z</time>
      </trkpt>
      <trkpt lat="44.59474" lon="6.57164">
        <ele>1808.157</ele>
        <time>2020-03-03T19:44:28Z</time>
      </trkpt>
      <trkpt lat="44.59471" lon="6.57249">
        <ele>1812.446</ele>
        <time>2020-03-03T19:44:48Z</time>
      </trkpt>
      <trkpt lat="44.59471" lon="6.57268">
        <ele>1811.984</ele>
        <time>2020-03-03T19:45:08Z</time>
      </trkpt>
      <trkpt lat="44.59446" lon="6.57324">
        <ele>1815.795</ele>
        <time>2020-03-03T19:45:28Z</time>
      </trkpt>
      <trkpt lat="44.59435" lon="6.57353">
        <ele>1813.887</ele>
        <time>2020-03-03T19:45:48Z</time>
      </trkpt>
      <trkpt lat="44.59407" lon="6.57367">
        <ele>1817.973</ele>
        <time>2020-03-03T19:46:08Z</time>
      </trkpt>
      <trkpt lat="44.59385" lon="6.57411">
        <ele>1814.961</ele>
        <time>2020-03-03T19:46:28Z</time>
      </trkpt>
      <trkpt lat="44.59369" lon="6.5742">
        <ele>1812.521</ele>
        <time>2020-03-03T19:46:48Z</time>
      </trkpt>
      <trkpt lat="44.5935" lon="6.57395">
        <ele>1810.913</ele>
        <time>2020-03-03T19:47:08Z</time>
      </trkpt>
      <trkpt lat="44.59347" lon="6.57373">
        <ele>1813.208</ele>
        <time>2020-03-03T19:47:28Z</time>
      </trkpt>
      <trkpt lat="44.59342" lon="6.5733">
        <ele>1820.77</ele>
        <time>2020-03-03T19:47:48Z</time>
      </trkpt>
      <trkpt lat="44.5933" lon="6.57317">
        <ele>1822.453</ele>
        <time>2020-03-03T19:48:08Z</time>
      </trkpt>
      <trkpt lat="44.59318" lon="6.57318">
        <ele>1824.24</ele>
        <time>2020-03-03T19:48:28Z</time>
      </trkpt>
      <trkpt lat="44.59305" lon="6.57333">
        <ele>1824.299</ele>
        <time>2020-03-03T19:48:48Z</time>
      </trkpt>
      <trkpt lat="44.59286" lon="6.57373">
        <ele>1819.977</ele>
        <time>2020-03-03T19:49:08Z</time>
      </trkpt>
      <trkpt lat="44.59263" lon="6.57382">
        <ele>1821.898</ele>
        <time>2020-03-03T19:49:28Z</time>
      </trkpt>
      <trkpt lat="44.59178" lon="6.57375">
        <ele>1826.78</ele>
        <time>2020-03-03T19:49:48Z</time>
      </trkpt>
      <trkpt lat="44.5916" lon="6.57372">
        <ele>1829.576</ele>
        <time>2020-03-03T19:50:08Z</time>
      </trkpt>
      <trkpt lat="44.59142" lon="6.57397">
        <ele>1832.891</ele>
        <time>2020-03-03T19:50:28Z</time>
      </trkpt>
      <trkpt lat="44.59124" lon="6.57452">
        <ele>1840.181</ele>
        <time>2020-03-03T19:50:48Z</time>
      </trkpt>
      <trkpt lat="44.59121" lon="6.57478">
        <ele>1837.819</ele>
        <time>2020-03-03T19:51:08Z</time>
      </trkpt>
      <trkpt lat="44.59104" lon="6.57537">
        <ele>1844.108</ele>
        <time>2020-03-03T19:51:28Z</time>
      </trkpt>
      <trkpt lat="44.59102" lon="6.57665">
        <ele>1847.533</ele>
        <time>2020-03-03T19:51:48Z</time>
      </trkpt>
      <trkpt lat="44.59119" lon="6.57765">
        <ele>1844.296</ele>
        <time>2020-03-03T19:52:08Z</time>
      </trkpt>
      <trkpt lat="44.59124" lon="6.57815">
        <ele>1848.543</ele>
        <time>2020-03-03T19:52:28Z</time>
      </trkpt>
      <trkpt lat="44.59153" lon="6.57996">
        <ele>1850.862</ele>
        <time>2020-03-03T19:52:48Z</time>
      </trkpt>
      <trkpt lat="44.5915" lon="6.58021">
        <ele>1850.15</ele>
        <time>2020-03-03T19:53:08Z</time>
      </trkpt>
      <trkpt lat="44.59128" lon="6.58064">
        <ele>1857.121</ele>
        <time>2020-03-03T19:53:28Z</time>
      </trkpt>
      <trkpt lat="44.59123" lon="6.58117">
        <ele>1854.623</ele>
        <time>2020-03-03T19:53:48Z</time>
      </trkpt>
      <trkpt lat="44.59112" lon="6.58163">
        <ele>1855.759</ele>
        <time>2020-03-03T19:54:08Z</time>
      </trkpt>
      <trkpt lat="44.59093" lon="6.58192">
        <ele>1857.572</ele>
        <time>2020-03-03T19:54:28Z</time>
      </trkpt>
      <trkpt lat="44.5905" lon="6.58249">
        <ele>1859.513</ele>
        <time>2020-03-03T19:54:48Z</time>
      </trkpt>
      <trkpt lat="44.59028" lon="6.58288">
        <ele>1860.214</ele>
        <time>2020-03-03T19:55:08Z</time>
      </trkpt>
      <trkpt lat="44.59008" lon="6.58339">
        <ele>1863.208</ele>
        <time>2020-03-03T19:55:28Z</time>
      </trkpt>
      <trkpt lat="44.59006" lon="6.58395">
        <ele>1863.731</ele>
        <time>2020-03-03T19:55:48Z</time>
      </trkpt>
      <trkpt lat="44.59013" lon="6.58451">
        <ele>1862.664</ele>
        <time>2020-03-03T19:56:08Z</time>
      </trkpt>
      <trkpt lat="44.59008" lon="6.5851">
        <ele>1862.391</ele>
        <time>2020-03-03T19:56:28Z</time>
      </trkpt>
      <trkpt lat="44.58985" lon="6.5855">
        <ele>1868.31</ele>
        <time>2020-03-03T19:56:48Z</time>
      </trkpt>
      <trkpt lat="44.58993" lon="6.58603">
        <ele>1864.928</ele>
        <time>2020-03-03T19:57:08Z</time>
      </trkpt>
      <trkpt lat="44.5899" lon="6.58694">
        <ele>1866.069</ele>
        <time>2020-03-03T19:57:28Z</time>
      </trkpt>
      <trkpt lat="44.58983" lon="6.58722">
        <ele>1866.511</ele>
        <time>2020-03-03T19:57:48Z</time>
      </trkpt>
      <trkpt lat="44.58971" lon="6.58762">
        <ele>1868.297</ele>
        <time>2020-03-03T19:58:08Z</time>
      </trkpt>
      <trkpt lat="44.58956" lon="6.58804">
        <ele>1867.325</ele>
        <time>2020-03-03T19:58:28Z</time>
      </trkpt>
      <trkpt lat="44.58934" lon="6.5885">
        <ele>1868.626</ele>
        <time>2020-03-03T19:58:48Z</time>
      </trkpt>
      <trkpt lat="44.5892" lon="6.58875">
        <ele>1867.208</ele>
        <time>2020-03-03T19:59:08Z</time>
      </trkpt>
      <trkpt lat="44.58894" lon="6.58902">
        <ele>1870.908</ele>
        <time>2020-03-03T19:59:28Z</time>
      </trkpt>
      <trkpt lat="44.58882" lon="6.5894">
        <ele>1872.776</ele>
        <time>2020-03-03T19:59:48Z</time>
      </trkpt>
      <trkpt lat="44.58881" lon="6.58989">
        <ele>1875.339</ele>
        <time>2020-03-03T20:00:08Z</time>
      </trkpt>
      <trkpt lat="44.58891" lon="6.59033">
        <ele>1876.226</ele>
        <time>2020-03-03T20:00:28Z</time>
      </trkpt>
      <trkpt lat="44.58916" lon="6.59072">
        <ele>1872.245</ele>
        <time>2020-03-03T20:00:48Z</time>
      </trkpt>
      <trkpt lat="44.58955" lon="6.59156">
        <ele>1873.343</ele>
        <time>2020-03-03T20:01:08Z</time>
      </trkpt>
      <trkpt lat="44.58951" lon="6.5917">
        <ele>1875.874</ele>
        <time>2020-03-03T20:01:28Z</time>
      </trkpt>
      <trkpt lat="44.58937" lon="6.59206">
        <ele>1879.056</ele>
        <time>2020-03-03T20:01:48Z</time>
      </trkpt>
      <trkpt lat="44.58931" lon="6.59226">
        <ele>1880.132</ele>
        <time>2020-03-03T20:02:08Z</time>
      </trkpt>
      <trkpt lat="44.58932" lon="6.59265">
        <ele>1877.286</ele>
        <time>2020-03-03T20:02:28Z</time>
      </trkpt>
      <trkpt lat="44.58926" lon="6.59308">
        <ele>1879.36</ele>
        <time>2020-03-03T20:02:48Z</time>
      </trkpt>
      <trkpt lat="44.58928" lon="6.59348">
        <ele>1879.326</ele>
        <time>2020-03-03T20:03:08Z</time>
      </trkpt>
      <trkpt lat="44.58949" lon="6.59372">
        <ele>1876.608</ele>
        <time>2020-03-03T20:03:28Z</time>
      </trkpt>
      <trkpt lat="44.58954" lon="6.59391">
        <ele>1877.042</ele>
        <time>2020-03-03T20:03:48Z</time>
      </trkpt>
      <trkpt lat="44.58933" lon="6.59448">
        <ele>1878.735</ele>
        <time>2020-03-03T20:04:08Z</time>
      </trkpt>
      <trkpt lat="44.58911" lon="6.59465">
        <ele>1881.322</ele>
        <time>2020-03-03T20:04:28Z</time>
      </trkpt>
      <trkpt lat="44.58884" lon="6.59536">
        <ele>1877.831</ele>
        <time>2020-03-03T20:04:48Z</time>
      </trkpt>
      <trkpt lat="44.58822" lon="6.5963">
        <ele>1883.449</ele>
        <time>2020-03-03T20:05:08Z</time>
      </trkpt>
      <trkpt lat="44.58787" lon="6.5965">
        <ele>1889.59</ele>
        <time>2020-03-03T20:05:28Z</time>
      </trkpt>
      <trkpt lat="44.58767" lon="6.59684">
        <ele>1885.292</ele>
        <time>2020-03-03T20:05:48Z</time>
      </trkpt>
      <trkpt lat="44.58745" lon="6.59698">
        <ele>1885.868</ele>
        <time>2020-03-03T20:06:08Z</time>
      </trkpt>
      <trkpt lat="44.58704" lon="6.59703">
        <ele>1890.975</ele>
        <time>2020-03-03T20:06:28Z</time>
      </trkpt>
      <trkpt lat="44.58676" lon="6.59717">
        <ele>1889.128</ele>
        <time>2020-03-03T20:06:48Z</time>
      </trkpt>
      <trkpt lat="44.58621" lon="6.597">
        <ele>1895.72</ele>
        <time>2020-03-03T20:07:08Z</time>
      </trkpt>
      <trkpt lat="44.58594" lon="6.59694">
        <ele>1898.108</ele>
        <time>2020-03-03T20:07:28Z</time>
      </trkpt>
      <trkpt lat="44.58559" lon="6.59695">
        <ele>1898.821</ele>
        <time>2020-03-03T20:07:48Z</time>
      </trkpt>
      <trkpt lat="44.58536" lon="6.59703">
        <ele>1898.414</ele>
        <time>2020-03-03T20:08:08Z</time>
      </trkpt>
      <trkpt lat="44.58499" lon="6.59695">
        <ele>1901.791</ele>
        <time>2020-03-03T20:08:28Z</time>
      </trkpt>
      <trkpt lat="44.58465" lon="6.59692">
        <ele>1901.87</ele>
        <time>2020-03-03T20:08:48Z</time>
      </trkpt>
      <trkpt lat="44.58438" lon="6.59675">
        <ele>1905.998</ele>
        <time>2020-03-03T20:09:08Z</time>
      </trkpt>
      <trkpt lat="44.58413" lon="6.59684">
        <ele>1907.659</ele>
        <time>2020-03-03T20:09:28Z</time>
      </trkpt>
      <trkpt lat="44.58388" lon="6.59706">
        <ele>1908.231</ele>
        <time>2020-03-03T20:09:48Z</time>
      </trkpt>
      <trkpt lat="44.58389" lon="6.59739">
        <ele>1906.437</ele>
        <time>2020-03-03T20:10:08Z</time>
      </trkpt>
      <trkpt lat="44.58402" lon="6.59768">
        <ele>1903.369</ele>
        <time>2020-03-03T20:10:28Z</time>
      </trkpt>
      <trkpt lat="44.58404" lon="6.59835">
        <ele>1910.104</ele>
        <time>2020-03-03T20:10:48Z</time>
      </trkpt>
      <trkpt lat="44.58427" lon="6.59865">
        <ele>1912.324</ele>
        <time>2020-03-03T20:11:08Z</time>
      </trkpt>
      <trkpt lat="44.5846" lon="6.59894">
        <ele>1912.908</ele>
        <time>2020-03-03T20:11:28Z</time>
      </trkpt>
      <trkpt lat="44.5849" lon="6.59954">
        <ele>1917.09</ele>
        <time>2020-03-03T20:11:48Z</time>
      </trkpt>
      <trkpt lat="44.5851" lon="6.5998">
        <ele>1917.513</ele>
        <time>2020-03-03T20:12:08Z</time>
      </trkpt>
      <trkpt lat="44.58545" lon="6.60038">
        <ele>1925.33</ele>
        <time>2020-03-03T20:12:28Z</time>
      </trkpt>
      <trkpt lat="44.58573" lon="6.60064">
        <ele>1925.389</ele>
        <time>2020-03-03T20:12:48Z</time>
      </trkpt>
      <trkpt lat="44.58598" lon="6.60116">
        <ele>1933.617</ele>
        <time>2020-03-03T20:13:08Z</time>
      </trkpt>
      <trkpt lat="44.58684" lon="6.60159">
        <ele>1940.218</ele>
        <time>2020-03-03T20:13:28Z</time>
      </trkpt>
      <trkpt lat="44.58704" lon="6.60177">
        <ele>1944.68</ele>
        <time>2020-03-03T20:13:48Z</time>
      </trkpt>
      <trkpt lat="44.58733" lon="6.60203">
        <ele>1946.776</ele>
        <time>2020-03-03T20:14:08Z</time>
      </trkpt>
      <trkpt lat="44.58768" lon="6.60246">
        <ele>1949.568</ele>
        <time>2020-03-03T20:14:28Z</time>
      </trkpt>
      <trkpt lat="44.58811" lon="6.60315">
        <ele>1951.742</ele>
        <time>2020-03-03T20:14:48Z</time>
      </trkpt>
      <trkpt lat="44.58843" lon="6.60374">
        <ele>1959.126</ele>
        <time>2020-03-03T20:15:08Z</time>
      </trkpt>
      <trkpt lat="44.58879" lon="6.60419">
        <ele>1959.108</ele>
        <time>2020-03-03T20:15:28Z</time>
      </trkpt>
      <trkpt lat="44.58898" lon="6.60443">
        <ele>1961.83</ele>
        <time>2020-03-03T20:15:48Z</time>
      </trkpt>
      <trkpt lat="44.58923" lon="6.6045">
        <ele>1957.113</ele>
        <time>2020-03-03T20:16:08Z</time>
      </trkpt>
      <trkpt lat="44.58933" lon="6.60468">
        <ele>1960.55</ele>
        <time>2020-03-03T20:16:28Z</time>
      </trkpt>
      <trkpt lat="44.58962" lon="6.60535">
        <ele>1963.559</ele>
        <time>2020-03-03T20:16:48Z</time>
      </trkpt>
      <trkpt lat="44.58963" lon="6.60565">
        <ele>1965.577</ele>
        <time>2020-03-03T20:17:08Z</time>
      </trkpt>
      <trkpt lat="44.58955" lon="6.60599">
        <ele>1969.538</ele>
        <time>2020-03-03T20:17:28Z</time>
      </trkpt>
      <trkpt lat="44.58956" lon="6.60631">
        <ele>1965.96</ele>
        <time>2020-03-03T20:17:48Z</time>
      </trkpt>
      <trkpt lat="44.5892" lon="6.60718">
        <ele>1963.036</ele>
        <time>2020-03-03T20:18:08Z</time>
      </trkpt>
      <trkpt lat="44.58881" lon="6.60753">
        <ele>1967.283</ele>
        <time>2020-03-03T20:18:28Z</time>
      </trkpt>
      <trkpt lat="44.58862" lon="6.60802">
        <ele>1964.225</ele>
        <time>2020-03-03T20:18:48Z</time>
      </trkpt>
      <trkpt lat="44.58821" lon="6.60838">
        <ele>1968.017</ele>
        <time>2020-03-03T20:19:08Z</time>
      </trkpt>
      <trkpt lat="44.58793" lon="6.60893">
        <ele>1968.108</ele>
        <time>2020-03-03T20:19:28Z</time>
      </trkpt>
      <trkpt lat="44.58788" lon="6.60922">
        <ele>1964.642</ele>
        <time>2020-03-03T20:19:48Z</time>
      </trkpt>
      <trkpt lat="44.58737" lon="6.60942">
        <ele>1966.235</ele>
        <time>2020-03-03T20:20:08Z</time>
      </trkpt>
      <trkpt lat="44.58691" lon="6.60936">
        <ele>1971.162</ele>
        <time>2020-03-03T20:20:28Z</time>
      </trkpt>
      <trkpt lat="44.58641" lon="6.60956">
        <ele>1971.321</ele>
        <time>2020-03-03T20:20:48Z</time>
      </trkpt>
      <trkpt lat="44.58599" lon="6.60952">
        <ele>1973.179</ele>
        <time>2020-03-03T20:21:08Z</time>
      </trkpt>
      <trkpt lat="44.58568" lon="6.60945">
        <ele>1977.58</ele>
        <time>2020-03-03T20:21:28Z</time>
      </trkpt>
      <trkpt lat="44.58565" lon="6.60954">
        <ele>1977.152</ele>
        <time>2020-03-03T20:21:48Z</time>
      </trkpt>
      <trkpt lat="44.58571" lon="6.61004">
        <ele>1972.668</ele>
        <time>2020-03-03T20:22:08Z</time>
      </trkpt>
      <trkpt lat="44.58565" lon="6.6103">
        <ele>1975.996</ele>
        <time>2020-03-03T20:22:28Z</time>
      </trkpt>
      <trkpt lat="44.58577" lon="6.6106">
        <ele>1977.531</ele>
        <time>2020-03-03T20:22:48Z</time>
      </trkpt>
      <trkpt lat="44.58599" lon="6.61095">
        <ele>1978.324</ele>
        <time>2020-03-03T20:23:08Z</time>
      </trkpt>
      <trkpt lat="44.58635" lon="6.61176">
        <ele>1981.908</ele>
        <time>2020-03-03T20:23:28Z</time>
      </trkpt>
      <trkpt lat="44.58658" lon="6.61216">
        <ele>1985.473</ele>
        <time>2020-03-03T20:23:48Z</time>
      </trkpt>
      <trkpt lat="44.58672" lon="6.61236">
        <ele>1986.286</ele>
        <time>2020-03-03T20:24:08Z</time>
      </trkpt>
      <trkpt lat="44.58702" lon="6.61302">
        <ele>1991.723</ele>
        <time>2020-03-03T20:24:28Z</time>
      </trkpt>
      <trkpt lat="44.58715" lon="6.61337">
        <ele>1999.542</ele>
        <time>2020-03-03T20:24:48Z</time>
      </trkpt>
      <trkpt lat="44.58739" lon="6.61368">
        <ele>1999.43</ele>
        <time>2020-03-03T20:25:08Z</time>
      </trkpt>
      <trkpt lat="44.58739" lon="6.61402">
        <ele>2008.061</ele>
        <time>2020-03-03T20:25:28Z</time>
      </trkpt>
      <trkpt lat="44.58745" lon="6.61431">
        <ele>2007.853</ele>
        <time>2020-03-03T20:25:48Z</time>
      </trkpt>
      <trkpt lat="44.58748" lon="6.61469">
        <ele>2011.229</ele>
        <time>2020-03-03T20:26:08Z</time>
      </trkpt>
      <trkpt lat="44.58753" lon="6.61487">
        <ele>2011.415</ele>
        <time>2020-03-03T20:26:28Z</time>
      </trkpt>
      <trkpt lat="44.58767" lon="6.61562">
        <ele>2018.265</ele>
        <time>2020-03-03T20:26:48Z</time>
      </trkpt>
      <trkpt lat="44.58767" lon="6.6162">
        <ele>2030.211</ele>
        <time>2020-03-03T20:27:08Z</time>
      </trkpt>
      <trkpt lat="44.58782" lon="6.61677">
        <ele>2027.108</ele>
        <time>2020-03-03T20:27:28Z</time>
      </trkpt>
      <trkpt lat="44.58765" lon="6.61743">
        <ele>2032.815</ele>
        <time>2020-03-03T20:27:48Z</time>
      </trkpt>
      <trkpt lat="44.58753" lon="6.61765">
        <ele>2039.888</ele>
        <time>2020-03-03T20:28:08Z</time>
      </trkpt>
      <trkpt lat="44.58769" lon="6.61786">
        <ele>2038.235</ele>
        <time>2020-03-03T20:28:28Z</time>
      </trkpt>
      <trkpt lat="44.58788" lon="6.61804">
        <ele>2038.744</ele>
        <time>2020-03-03T20:28:48Z</time>
      </trkpt>
      <trkpt lat="44.58794" lon="6.6182">
        <ele>2040.292</ele>
        <time>2020-03-03T20:29:08Z</time>
      </trkpt>
      <trkpt lat="44.58793" lon="6.61853">
        <ele>2046.553</ele>
        <time>2020-03-03T20:29:28Z</time>
      </trkpt>
      <trkpt lat="44.58805" lon="6.61892">
        <ele>2050.985</ele>
        <time>2020-03-03T20:29:48Z</time>
      </trkpt>
      <trkpt lat="44.58817" lon="6.61945">
        <ele>2050.361</ele>
        <time>2020-03-03T20:30:08Z</time>
      </trkpt>
      <trkpt lat="44.58811" lon="6.61961">
        <ele>2046.599</ele>
        <time>2020-03-03T20:30:28Z</time>
      </trkpt>
      <trkpt lat="44.58786" lon="6.61957">
        <ele>2050.107</ele>
        <time>2020-03-03T20:30:48Z</time>
      </trkpt>
      <trkpt lat="44.58767" lon="6.61949">
        <ele>2054.427</ele>
        <time>2020-03-03T20:31:08Z</time>
      </trkpt>
      <trkpt lat="44.58704" lon="6.61949">
        <ele>2063.708</ele>
        <time>2020-03-03T20:31:28Z</time>
      </trkpt>
      <trkpt lat="44.58643" lon="6.61978">
        <ele>2072.463</ele>
        <time>2020-03-03T20:31:48Z</time>
      </trkpt>
      <trkpt lat="44.58613" lon="6.61991">
        <ele>2076.696</ele>
        <time>2020-03-03T20:32:08Z</time>
      </trkpt>
      <trkpt lat="44.58597" lon="6.62023">
        <ele>2078.543</ele>
        <time>2020-03-03T20:32:28Z</time>
      </trkpt>
      <trkpt lat="44.58589" lon="6.62042">
        <ele>2080.712</ele>
        <time>2020-03-03T20:32:48Z</time>
      </trkpt>
      <trkpt lat="44.5857" lon="6.62068">
        <ele>2086.87</ele>
        <time>2020-03-03T20:33:08Z</time>
      </trkpt>
      <trkpt lat="44.58576" lon="6.62095">
        <ele>2086.031</ele>
        <time>2020-03-03T20:33:28Z</time>
      </trkpt>
      <trkpt lat="44.5859" lon="6.62137">
        <ele>2087.763</ele>
        <time>2020-03-03T20:33:48Z</time>
      </trkpt>
      <trkpt lat="44.58604" lon="6.62153">
        <ele>2089.099</ele>
        <time>2020-03-03T20:34:08Z</time>
      </trkpt>
      <trkpt lat="44.5863" lon="6.62204">
        <ele>2097.225</ele>
        <time>2020-03-03T20:34:28Z</time>
      </trkpt>
      <trkpt lat="44.58663" lon="6.62216">
        <ele>2096.326</ele>
        <time>2020-03-03T20:34:48Z</time>
      </trkpt>
      <trkpt lat="44.58683" lon="6.62267">
        <ele>2105.308</ele>
        <time>2020-03-03T20:35:08Z</time>
      </trkpt>
      <trkpt lat="44.58736" lon="6.62288">
        <ele>2112.208</ele>
        <time>2020-03-03T20:35:28Z</time>
      </trkpt>
      <trkpt lat="44.58756" lon="6.62291">
        <ele>2112.036</ele>
        <time>2020-03-03T20:35:48Z</time>
      </trkpt>
      <trkpt lat="44.58811" lon="6.6236">
        <ele>2110.349</ele>
        <time>2020-03-03T20:36:08Z</time>
      </trkpt>
      <trkpt lat="44.58863" lon="6.62413">
        <ele>2114.516</ele>
        <time>2020-03-03T20:36:28Z</time>
      </trkpt>
      <trkpt lat="44.58904" lon="6.62433">
        <ele>2118.375</ele>
        <time>2020-03-03T20:36:48Z</time>
      </trkpt>
      <trkpt lat="44.58952" lon="6.62444">
        <ele>2120.833</ele>
        <time>2020-03-03T20:37:08Z</time>
      </trkpt>
      <trkpt lat="44.58964" lon="6.62466">
        <ele>2122.634</ele>
        <time>2020-03-03T20:37:28Z</time>
      </trkpt>
      <trkpt lat="44.5897" lon="6.62493">
        <ele>2123.276</ele>
        <time>2020-03-03T20:37:48Z</time>
      </trkpt>
      <trkpt lat="44.58966" lon="6.62549">
        <ele>2129.482</ele>
        <time>2020-03-03T20:38:08Z</time>
      </trkpt>
      <trkpt lat="44.58973" lon="6.62591">
        <ele>2130.354</ele>
        <time>2020-03-03T20:38:28Z</time>
      </trkpt>
      <trkpt lat="44.58968" lon="6.62622">
        <ele>2134.256</ele>
        <time>2020-03-03T20:38:48Z</time>
      </trkpt>
      <trkpt lat="44.5896" lon="6.62682">
        <ele>2140.111</ele>
        <time>2020-03-03T20:39:08Z</time>
      </trkpt>
      <trkpt lat="44.58965" lon="6.62716">
        <ele>2140.108</ele>
        <time>2020-03-03T20:39:28Z</time>
      </trkpt>
      <trkpt lat="44.58948" lon="6.6275">
        <ele>2148.729</ele>
        <time>2020-03-03T20:39:48Z</time>
      </trkpt>
      <trkpt lat="44.58946" lon="6.62769">
        <ele>2147.522</ele>
        <time>2020-03-03T20:40:08Z</time>
      </trkpt>
      <trkpt lat="44.5893" lon="6.62801">
        <ele>2155.889</ele>
        <time>2020-03-03T20:40:28Z</time>
      </trkpt>
      <trkpt lat="44.58948" lon="6.62834">
        <ele>2154.438</ele>
        <time>2020-03-03T20:40:48Z</time>
      </trkpt>
      <trkpt lat="44.58955" lon="6.62906">
        <ele>2157.466</ele>
        <time>2020-03-03T20:41:08Z</time>
      </trkpt>
      <trkpt lat="44.58952" lon="6.62942">
        <ele>2163.467</ele>
        <time>2020-03-03T20:41:28Z</time>
      </trkpt>
      <trkpt lat="44.58959" lon="6.62988">
        <ele>2165.719</ele>
        <time>2020-03-03T20:41:48Z</time>
      </trkpt>
      <trkpt lat="44.58964" lon="6.63045">
        <ele>2171.315</ele>
        <time>2020-03-03T20:42:08Z</time>
      </trkpt>
      <trkpt lat="44.58964" lon="6.63094">
        <ele>2176.528</ele>
        <time>2020-03-03T20:42:28Z</time>
      </trkpt>
      <trkpt lat="44.58972" lon="6.63114">
        <ele>2178.289</ele>
        <time>2020-03-03T20:42:48Z</time>
      </trkpt>
      <trkpt lat="44.59012" lon="6.63133">
        <ele>2175.817</ele>
        <time>2020-03-03T20:43:08Z</time>
      </trkpt>
      <trkpt lat="44.58991" lon="6.63213">
        <ele>2185.008</ele>
        <time>2020-03-03T20:43:28Z</time>
      </trkpt>
      <trkpt lat="44.58995" lon="6.63225">
        <ele>2184.176</ele>
        <time>2020-03-03T20:43:48Z</time>
      </trkpt>
      <trkpt lat="44.59007" lon="6.63234">
        <ele>2182.559</ele>
        <time>2020-03-03T20:44:08Z</time>
      </trkpt>
      <trkpt lat="44.59009" lon="6.63261">
        <ele>2183.956</ele>
        <time>2020-03-03T20:44:28Z</time>
      </trkpt>
      <trkpt lat="44.58997" lon="6.63295">
        <ele>2185.325</ele>
        <time>2020-03-03T20:44:48Z</time>
      </trkpt>
      <trkpt lat="44.58981" lon="6.63311">
        <ele>2187.063</ele>
        <time>2020-03-03T20:45:08Z</time>
      </trkpt>
      <trkpt lat="44.58968" lon="6.63307">
        <ele>2190.274</ele>
        <time>2020-03-03T20:45:28Z</time>
      </trkpt>
      <trkpt lat="44.58973" lon="6.63266">
        <ele>2191.216</ele>
        <time>2020-03-03T20:45:48Z</time>
      </trkpt>
      <trkpt lat="44.58962" lon="6.63234">
        <ele>2195.362</ele>
        <time>2020-03-03T20:46:08Z</time>
      </trkpt>
      <trkpt lat="44.58965" lon="6.63182">
        <ele>2192.963</ele>
        <time>2020-03-03T20:46:28Z</time>
      </trkpt>
      <trkpt lat="44.58959" lon="6.63171">
        <ele>2194.144</ele>
        <time>2020-03-03T20:46:48Z</time>
      </trkpt>
      <trkpt lat="44.58946" lon="6.63173">
        <ele>2197.918</ele>
        <time>2020-03-03T20:47:08Z</time>
      </trkpt>
      <trkpt lat="44.58939" lon="6.63195">
        <ele>2202.508</ele>
        <time>2020-03-03T20:47:28Z</time>
      </trkpt>
      <trkpt lat="44.58938" lon="6.63219">
        <ele>2203.01</ele>
        <time>2020-03-03T20:47:48Z</time>
      </trkpt>
      <trkpt lat="44.5892" lon="6.63252">
        <ele>2207.723</ele>
        <time>2020-03-03T20:48:08Z</time>
      </trkpt>
      <trkpt lat="44.58923" lon="6.63282">
        <ele>2205.62</ele>
        <time>2020-03-03T20:48:28Z</time>
      </trkpt>
      <trkpt lat="44.58892" lon="6.63366">
        <ele>2215.099</ele>
        <time>2020-03-03T20:48:48Z</time>
      </trkpt>
      <trkpt lat="44.58852" lon="6.63401">
        <ele>2226.347</ele>
        <time>2020-03-03T20:49:08Z</time>
      </trkpt>
      <trkpt lat="44.58826" lon="6.63458">
        <ele>2231.948</ele>
        <time>2020-03-03T20:49:28Z</time>
      </trkpt>
      <trkpt lat="44.58804" lon="6.63525">
        <ele>2239.82</ele>
        <time>2020-03-03T20:49:48Z</time>
      </trkpt>
      <trkpt lat="44.58825" lon="6.63557">
        <ele>2237.776</ele>
        <time>2020-03-03T20:50:08Z</time>
      </trkpt>
      <trkpt lat="44.58823" lon="6.63586">
        <ele>2242.942</ele>
        <time>2020-03-03T20:50:28Z</time>
      </trkpt>
      <trkpt lat="44.58838" lon="6.6361">
        <ele>2244.122</ele>
        <time>2020-03-03T20:50:48Z</time>
      </trkpt>
      <trkpt lat="44.58819" lon="6.63634">
        <ele>2247.614</ele>
        <time>2020-03-03T20:51:08Z</time>
      </trkpt>
      <trkpt lat="44.58791" lon="6.63678">
        <ele>2248.908</ele>
        <time>2020-03-03T20:51:28Z</time>
      </trkpt>
      <trkpt lat="44.58748" lon="6.63746">
        <ele>2251.528</ele>
        <time>2020-03-03T20:51:48Z</time>
      </trkpt>
      <trkpt lat="44.58718" lon="6.63751">
        <ele>2253.891</ele>
        <time>2020-03-03T20:52:08Z</time>
      </trkpt>
      <trkpt lat="44.58683" lon="6.63796">
        <ele>2257.918</ele>
        <time>2020-03-03T20:52:28Z</time>
      </trkpt>
      <trkpt lat="44.58688" lon="6.63817">
        <ele>2257.667</ele>
        <time>2020-03-03T20:52:48Z</time>
      </trkpt>
      <trkpt lat="44.58708" lon="6.63851">
        <ele>2257.225</ele>
        <time>2020-03-03T20:53:08Z</time>
      </trkpt>
      <trkpt lat="44.58721" lon="6.63901">
        <ele>2260.356</ele>
        <time>2020-03-03T20:53:28Z</time>
      </trkpt>
      <trkpt lat="44.58757" lon="6.63974">
        <ele>2265.498</ele>
        <time>2020-03-03T20:53:48Z</time>
      </trkpt>
      <trkpt lat="44.58778" lon="6.64026">
        <ele>2264.924</ele>
        <time>2020-03-03T20:54:08Z</time>
      </trkpt>
      <trkpt lat="44.58743" lon="6.64094">
        <ele>2267.642</ele>
        <time>2020-03-03T20:54:28Z</time>
      </trkpt>
      <trkpt lat="44.5873" lon="6.6413">
        <ele>2268.822</ele>
        <time>2020-03-03T20:54:48Z</time>
      </trkpt>
      <trkpt lat="44.58721" lon="6.64152">
        <ele>2270.014</ele>
        <time>2020-03-03T20:55:08Z</time>
      </trkpt>
      <trkpt lat="44.58754" lon="6.64163">
        <ele>2269.208</ele>
        <time>2020-03-03T20:55:28Z</time>
      </trkpt>
      <trkpt lat="44.58779" lon="6.64165">
        <ele>2271.648</ele>
        <time>2020-03-03T20:55:48Z</time>
      </trkpt>
      <trkpt lat="44.58802" lon="6.64152">
        <ele>2269.651</ele>
        <time>2020-03-03T20:56:08Z</time>
      </trkpt>
      <trkpt lat="44.58835" lon="6.64172">
        <ele>2272.068</ele>
        <time>2020-03-03T20:56:28Z</time>
      </trkpt>
      <trkpt lat="44.58876" lon="6.64182">
        <ele>2276.187</ele>
        <time>2020-03-03T20:56:48Z</time>
      </trkpt>
      <trkpt lat="44.58884" lon="6.64161">
        <ele>2275.315</ele>
        <time>2020-03-03T20:57:08Z</time>
      </trkpt>
      <trkpt lat="44.58897" lon="6.64115">
        <ele>2272.646</ele>
        <time>2020-03-03T20:57:28Z</time>
      </trkpt>
      <trkpt lat="44.58912" lon="6.64115">
        <ele>2276.348</ele>
        <time>2020-03-03T20:57:48Z</time>
      </trkpt>
      <trkpt lat="44.58932" lon="6.64121">
        <ele>2280.474</ele>
        <time>2020-03-03T20:58:08Z</time>
      </trkpt>
      <trkpt lat="44.58966" lon="6.64107">
        <ele>2282.233</ele>
        <time>2020-03-03T20:58:28Z</time>
      </trkpt>
      <trkpt lat="44.58997" lon="6.64082">
        <ele>2283.223</ele>
        <time>2020-03-03T20:58:48Z</time>
      </trkpt>
      <trkpt lat="44.59024" lon="6.64078">
        <ele>2285.215</ele>
        <time>2020-03-03T20:59:08Z</time>
      </trkpt>
      <trkpt lat="44.59057" lon="6.64081">
        <ele>2287.608</ele>
        <time>2020-03-03T20:59:28Z</time>
      </trkpt>
      <trkpt lat="44.59089" lon="6.64073">
        <ele>2291.487</ele>
        <time>2020-03-03T20:59:48Z</time>
      </trkpt>
      <trkpt lat="44.5911" lon="6.64051">
        <ele>2293.52</ele>
        <time>2020-03-03T21:00:08Z</time>
      </trkpt>
      <trkpt lat="44.59113" lon="6.64025">
        <ele>2292.017</ele>
        <time>2020-03-03T21:00:28Z</time>
      </trkpt>
      <trkpt lat="44.59131" lon="6.64005">
        <ele>2293.696</ele>
        <time>2020-03-03T21:00:48Z</time>
      </trkpt>
      <trkpt lat="44.59174" lon="6.63945">
        <ele>2294.124</ele>
        <time>2020-03-03T21:01:08Z</time>
      </trkpt>
      <trkpt lat="44.59192" lon="6.63942">
        <ele>2296.265</ele>
        <time>2020-03-03T21:01:28Z</time>
      </trkpt>
      <trkpt lat="44.5921" lon="6.63966">
        <ele>2301.777</ele>
        <time>2020-03-03T21:01:48Z</time>
      </trkpt>
      <trkpt lat="44.59224" lon="6.63964">
        <ele>2303.113</ele>
        <time>2020-03-03T21:02:08Z</time>
      </trkpt>
      <trkpt lat="44.59262" lon="6.63915">
        <ele>2305.249</ele>
        <time>2020-03-03T21:02:28Z</time>
      </trkpt>
      <trkpt lat="44.59279" lon="6.63915">
        <ele>2306.702</ele>
        <time>2020-03-03T21:02:48Z</time>
      </trkpt>
      <trkpt lat="44.59287" lon="6.63932">
        <ele>2307.522</ele>
        <time>2020-03-03T21:03:08Z</time>
      </trkpt>
      <trkpt lat="44.59284" lon="6.6396">
        <ele>2310.208</ele>
        <time>2020-03-03T21:03:28Z</time>
      </trkpt>
      <trkpt lat="44.59261" lon="6.63982">
        <ele>2309.948</ele>
        <time>2020-03-03T21:03:48Z</time>
      </trkpt>
      <trkpt lat="44.5927" lon="6.64019">
        <ele>2314.421</ele>
        <time>2020-03-03T21:04:08Z</time>
      </trkpt>
      <trkpt lat="44.59317" lon="6.6405">
        <ele>2323.998</ele>
        <time>2020-03-03T21:04:28Z</time>
      </trkpt>
      <trkpt lat="44.5934" lon="6.64038">
        <ele>2324.717</ele>
        <time>2020-03-03T21:04:48Z</time>
      </trkpt>
      <trkpt lat="44.59364" lon="6.63995">
        <ele>2326.555</ele>
        <time>2020-03-03T21:05:08Z</time>
      </trkpt>
      <trkpt lat="44.59376" lon="6.63991">
        <ele>2327.536</ele>
        <time>2020-03-03T21:05:28Z</time>
      </trkpt>
      <trkpt lat="44.59399" lon="6.63997">
        <ele>2332.848</ele>
        <time>2020-03-03T21:05:48Z</time>
      </trkpt>
      <trkpt lat="44.59452" lon="6.63984">
        <ele>2341.254</ele>
        <time>2020-03-03T21:06:08Z</time>
      </trkpt>
      <trkpt lat="44.59472" lon="6.63934">
        <ele>2338.271</ele>
        <time>2020-03-03T21:06:28Z</time>
      </trkpt>
      <trkpt lat="44.59489" lon="6.63916">
        <ele>2341.441</ele>
        <time>2020-03-03T21:06:48Z</time>
      </trkpt>
      <trkpt lat="44.59565" lon="6.63897">
        <ele>2353.015</ele>
        <time>2020-03-03T21:07:08Z</time>
      </trkpt>
      <trkpt lat="44.5957" lon="6.63907">
        <ele>2356.308</ele>
        <time>2020-03-03T21:07:28Z</time>
      </trkpt>
      <trkpt lat="44.5952" lon="6.63955">
        <ele>2359.751</ele>
        <time>2020-03-03T21:07:48Z</time>
      </trkpt>
      <trkpt lat="44.59526" lon="6.63962">
        <ele>2362.214</ele>
        <time>2020-03-03T21:08:08Z</time>
      </trkpt>
      <trkpt lat="44.59609" lon="6.63926">
        <ele>2372.911</ele>
        <time>2020-03-03T21:08:28Z</time>
      </trkpt>
      <trkpt lat="44.59632" lon="6.63886">
        <ele>2371.48</ele>
        <time>2020-03-03T21:08:48Z</time>
      </trkpt>
      <trkpt lat="44.59656" lon="6.63851">
        <ele>2376.888</ele>
        <time>2020-03-03T21:09:08Z</time>
      </trkpt>
      <trkpt lat="44.59674" lon="6.63818">
        <ele>2378.049</ele>
        <time>2020-03-03T21:09:28Z</time>
      </trkpt>
      <trkpt lat="44.59683" lon="6.63796">
        <ele>2380.061</ele>
        <time>2020-03-03T21:09:48Z</time>
      </trkpt>
      <trkpt lat="44.59684" lon="6.63814">
        <ele>2379.397</ele>
        <time>2020-03-03T21:10:08Z</time>
      </trkpt>
      <trkpt lat="44.59671" lon="6.63884">
        <ele>2384.514</ele>
        <time>2020-03-03T21:10:28Z</time>
      </trkpt>
      <trkpt lat="44.59671" lon="6.63933">
        <ele>2393.554</ele>
        <time>2020-03-03T21:10:48Z</time>
      </trkpt>
      <trkpt lat="44.5966" lon="6.63967">
        <ele>2399.109</ele>
        <time>2020-03-03T21:11:08Z</time>
      </trkpt>
      <trkpt lat="44.5961" lon="6.6403">
        <ele>2404.208</ele>
        <time>2020-03-03T21:11:28Z</time>
      </trkpt>
      <trkpt lat="44.59576" lon="6.64071">
        <ele>2405.935</ele>
        <time>2020-03-03T21:11:48Z</time>
      </trkpt>
      <trkpt lat="44.59567" lon="6.64095">
        <ele>2405.888</ele>
        <time>2020-03-03T21:12:08Z</time>
      </trkpt>
      <trkpt lat="44.5958" lon="6.64128">
        <ele>2407.145</ele>
        <time>2020-03-03T21:12:28Z</time>
      </trkpt>
      <trkpt lat="44.59581" lon="6.64165">
        <ele>2410.494</ele>
        <time>2020-03-03T21:12:48Z</time>
      </trkpt>
      <trkpt lat="44.59568" lon="6.64219">
        <ele>2415.792</ele>
        <time>2020-03-03T21:13:08Z</time>
      </trkpt>
      <trkpt lat="44.5954" lon="6.64275">
        <ele>2421.493</ele>
        <time>2020-03-03T21:13:28Z</time>
      </trkpt>
      <trkpt lat="44.59493" lon="6.64339">
        <ele>2424.235</ele>
        <time>2020-03-03T21:13:48Z</time>
      </trkpt>
      <trkpt lat="44.59461" lon="6.64371">
        <ele>2425.591</ele>
        <time>2020-03-03T21:14:08Z</time>
      </trkpt>
      <trkpt lat="44.59441" lon="6.64401">
        <ele>2428.499</ele>
        <time>2020-03-03T21:14:28Z</time>
      </trkpt>
      <trkpt lat="44.59376" lon="6.64422">
        <ele>2433.307</ele>
        <time>2020-03-03T21:14:48Z</time>
      </trkpt>
      <trkpt lat="44.59336" lon="6.64432">
        <ele>2432.227</ele>
        <time>2020-03-03T21:15:08Z</time>
      </trkpt>
      <trkpt lat="44.5931" lon="6.64466">
        <ele>2434.308</ele>
        <time>2020-03-03T21:15:28Z</time>
      </trkpt>
      <trkpt lat="44.59293" lon="6.64516">
        <ele>2437.963</ele>
        <time>2020-03-03T21:15:48Z</time>
      </trkpt>
      <trkpt lat="44.59286" lon="6.64573">
        <ele>2441.826</ele>
        <time>2020-03-03T21:16:08Z</time>
      </trkpt>
      <trkpt lat="44.59288" lon="6.6462">
        <ele>2445.823</ele>
        <time>2020-03-03T21:16:28Z</time>
      </trkpt>
      <trkpt lat="44.59249" lon="6.64728">
        <ele>2456.012</ele>
        <time>2020-03-03T21:16:48Z</time>
      </trkpt>
      <trkpt lat="44.59205" lon="6.64778">
        <ele>2464.21</ele>
        <time>2020-03-03T21:17:08Z</time>
      </trkpt>
      <trkpt lat="44.5916" lon="6.64804">
        <ele>2463.841</ele>
        <time>2020-03-03T21:17:28Z</time>
      </trkpt>
      <trkpt lat="44.59114" lon="6.64864">
        <ele>2468.083</ele>
        <time>2020-03-03T21:17:48Z</time>
      </trkpt>
      <trkpt lat="44.59074" lon="6.64898">
        <ele>2466.479</ele>
        <time>2020-03-03T21:18:08Z</time>
      </trkpt>
      <trkpt lat="44.59067" lon="6.64909">
        <ele>2464.511</ele>
        <time>2020-03-03T21:18:28Z</time>
      </trkpt>
      <trkpt lat="44.59019" lon="6.6493">
        <ele>2464.321</ele>
        <time>2020-03-03T21:18:48Z</time>
      </trkpt>
      <trkpt lat="44.5898" lon="6.64959">
        <ele>2467.403</ele>
        <time>2020-03-03T21:19:08Z</time>
      </trkpt>
      <trkpt lat="44.5896" lon="6.64979">
        <ele>2471.108</ele>
        <time>2020-03-03T21:19:28Z</time>
      </trkpt>
      <trkpt lat="44.58951" lon="6.64974">
        <ele>2474.045</ele>
        <time>2020-03-03T21:19:48Z</time>
      </trkpt>
      <trkpt lat="44.58943" lon="6.64955">
        <ele>2472.488</ele>
        <time>2020-03-03T21:20:08Z</time>
      </trkpt>
      <trkpt lat="44.58905" lon="6.64954">
        <ele>2472.475</ele>
        <time>2020-03-03T21:20:28Z</time>
      </trkpt>
      <trkpt lat="44.58847" lon="6.64967">
        <ele>2471.994</ele>
        <time>2020-03-03T21:20:48Z</time>
      </trkpt>
      <trkpt lat="44.588" lon="6.64956">
        <ele>2466.752</ele>
        <time>2020-03-03T21:21:08Z</time>
      </trkpt>
      <trkpt lat="44.5874" lon="6.64958">
        <ele>2465.043</ele>
        <time>2020-03-03T21:21:28Z</time>
      </trkpt>
      <trkpt lat="44.58715" lon="6.64942">
        <ele>2459.365</ele>
        <time>2020-03-03T21:21:48Z</time>
      </trkpt>
      <trkpt lat="44.58668" lon="6.64952">
        <ele>2458.011</ele>
        <time>2020-03-03T21:22:08Z</time>
      </trkpt>
      <trkpt lat="44.58642" lon="6.6495">
        <ele>2456.282</ele>
        <time>2020-03-03T21:22:28Z</time>
      </trkpt>
      <trkpt lat="44.58609" lon="6.64937">
        <ele>2454.043</ele>
        <time>2020-03-03T21:22:48Z</time>
      </trkpt>
      <trkpt lat="44.58587" lon="6.64944">
        <ele>2451.517</ele>
        <time>2020-03-03T21:23:08Z</time>
      </trkpt>
      <trkpt lat="44.5855" lon="6.64981">
        <ele>2451.608</ele>
        <time>2020-03-03T21:23:28Z</time>
      </trkpt>
      <trkpt lat="44.58513" lon="6.64987">
        <ele>2448.422</ele>
        <time>2020-03-03T21:23:48Z</time>
      </trkpt>
      <trkpt lat="44.58488" lon="6.64996">
        <ele>2449.375</ele>
        <time>2020-03-03T21:24:08Z</time>
      </trkpt>
      <trkpt lat="44.58445" lon="6.6499">
        <ele>2445.052</ele>
        <time>2020-03-03T21:24:28Z</time>
      </trkpt>
      <trkpt lat="44.58417" lon="6.64968">
        <ele>2442.441</ele>
        <time>2020-03-03T21:24:48Z</time>
      </trkpt>
      <trkpt lat="44.58361" lon="6.64967">
        <ele>2440.559</ele>
        <time>2020-03-03T21:25:08Z</time>
      </trkpt>
      <trkpt lat="44.58401" lon="6.64994">
        <ele>2447.52</ele>
        <time>2020-03-03T21:25:28Z</time>
      </trkpt>
      <trkpt lat="44.58433" lon="6.65014">
        <ele>2454.312</ele>
        <time>2020-03-03T21:25:48Z</time>
      </trkpt>
      <trkpt lat="44.58478" lon="6.65027">
        <ele>2462.128</ele>
        <time>2020-03-03T21:26:08Z</time>
      </trkpt>
      <trkpt lat="44.58501" lon="6.6504">
        <ele>2467.067</ele>
        <time>2020-03-03T21:26:28Z</time>
      </trkpt>
      <trkpt lat="44.58532" lon="6.65055">
        <ele>2470.981</ele>
        <time>2020-03-03T21:26:48Z</time>
      </trkpt>
      <trkpt lat="44.58608" lon="6.65049">
        <ele>2480.019</ele>
        <time>2020-03-03T21:27:08Z</time>
      </trkpt>
      <trkpt lat="44.58647" lon="6.65055">
        <ele>2489.508</ele>
        <time>2020-03-03T21:27:28Z</time>
      </trkpt>
      <trkpt lat="44.58682" lon="6.65045">
        <ele>2495.44</ele>
        <time>2020-03-03T21:27:48Z</time>
      </trkpt>
      <trkpt lat="44.58719" lon="6.65044">
        <ele>2499.733</ele>
        <time>2020-03-03T21:28:08Z</time>
      </trkpt>
      <trkpt lat="44.58776" lon="6.65056">
        <ele>2504.44</ele>
        <time>2020-03-03T21:28:28Z</time>
      </trkpt>
      <trkpt lat="44.58813" lon="6.65047">
        <ele>2506.639</ele>
        <time>2020-03-03T21:28:48Z</time>
      </trkpt>
      <trkpt lat="44.58842" lon="6.65066">
        <ele>2508.727</ele>
        <time>2020-03-03T21:29:08Z</time>
      </trkpt>
      <trkpt lat="44.58831" lon="6.65192">
        <ele>2512.638</ele>
        <time>2020-03-03T21:29:28Z</time>
      </trkpt>
      <trkpt lat="44.58807" lon="6.65255">
        <ele>2523.31</ele>
        <time>2020-03-03T21:29:48Z</time>
      </trkpt>
      <trkpt lat="44.58804" lon="6.65321">
        <ele>2524.096</ele>
        <time>2020-03-03T21:30:08Z</time>
      </trkpt>
      <trkpt lat="44.58756" lon="6.65446">
        <ele>2533.816</ele>
        <time>2020-03-03T21:30:28Z</time>
      </trkpt>
      <trkpt lat="44.58764" lon="6.65367">
        <ele>2535.376</ele>
        <time>2020-03-03T21:30:48Z</time>
      </trkpt>
      <trkpt lat="44.58774" lon="6.65316">
        <ele>2540.813</ele>
        <time>2020-03-03T21:31:08Z</time>
      </trkpt>
      <trkpt lat="44.58747" lon="6.65225">
        <ele>2554.208</ele>
        <time>2020-03-03T21:31:28Z</time>
      </trkpt>
      <trkpt lat="44.58719" lon="6.65236">
        <ele>2562.665</ele>
        <time>2020-03-03T21:31:48Z</time>
      </trkpt>
      <trkpt lat="44.58686" lon="6.6529">
        <ele>2562.918</ele>
        <time>2020-03-03T21:32:08Z</time>
      </trkpt>
      <trkpt lat="44.58692" lon="6.65328">
        <ele>2567.675</ele>
        <time>2020-03-03T21:32:28Z</time>
      </trkpt>
      <trkpt lat="44.58689" lon="6.65328">
        <ele>2567.074</ele>
        <time>2020-03-03T21:32:48Z</time>
      </trkpt>
      <trkpt lat="44.58683" lon="6.65287">
        <ele>2561.572</ele>
        <time>2020-03-03T21:33:08Z</time>
      </trkpt>
      <trkpt lat="44.58717" lon="6.65231">
        <ele>2561.353</ele>
        <time>2020-03-03T21:33:28Z</time>
      </trkpt>
      <trkpt lat="44.58749" lon="6.65219">
        <ele>2553.445</ele>
        <time>2020-03-03T21:33:48Z</time>
      </trkpt>
      <trkpt lat="44.58776" lon="6.65316">
        <ele>2539.441</ele>
        <time>2020-03-03T21:34:08Z</time>
      </trkpt>
      <trkpt lat="44.58766" lon="6.65367">
        <ele>2534.325</ele>
        <time>2020-03-03T21:34:28Z</time>
      </trkpt>
      <trkpt lat="44.58759" lon="6.65429">
        <ele>2534.226</ele>
        <time>2020-03-03T21:34:48Z</time>
      </trkpt>
      <trkpt lat="44.58801" lon="6.6532">
        <ele>2525.308</ele>
        <time>2020-03-03T21:35:08Z</time>
      </trkpt>
      <trkpt lat="44.58805" lon="6.65252">
        <ele>2524.108</ele>
        <time>2020-03-03T21:35:28Z</time>
      </trkpt>
      <trkpt lat="44.58828" lon="6.6519">
        <ele>2513.846</ele>
        <time>2020-03-03T21:35:48Z</time>
      </trkpt>
      <trkpt lat="44.5884" lon="6.6507">
        <ele>2510.379</ele>
        <time>2020-03-03T21:36:08Z</time>
      </trkpt>
      <trkpt lat="44.58813" lon="6.65052">
        <ele>2508.386</ele>
        <time>2020-03-03T21:36:28Z</time>
      </trkpt>
      <trkpt lat="44.58776" lon="6.65059">
        <ele>2505.735</ele>
        <time>2020-03-03T21:36:48Z</time>
      </trkpt>
      <trkpt lat="44.58717" lon="6.65046">
        <ele>2500.723</ele>
        <time>2020-03-03T21:37:08Z</time>
      </trkpt>
      <trkpt lat="44.58684" lon="6.65049">
        <ele>2498.174</ele>
        <time>2020-03-03T21:37:28Z</time>
      </trkpt>
      <trkpt lat="44.58645" lon="6.6506">
        <ele>2490.046</ele>
        <time>2020-03-03T21:37:48Z</time>
      </trkpt>
      <trkpt lat="44.58604" lon="6.65054">
        <ele>2480.112</ele>
        <time>2020-03-03T21:38:08Z</time>
      </trkpt>
      <trkpt lat="44.58531" lon="6.65058">
        <ele>2471.756</ele>
        <time>2020-03-03T21:38:28Z</time>
      </trkpt>
      <trkpt lat="44.58477" lon="6.6503">
        <ele>2462.859</ele>
        <time>2020-03-03T21:38:48Z</time>
      </trkpt>
      <trkpt lat="44.58427" lon="6.65017">
        <ele>2455.514</ele>
        <time>2020-03-03T21:39:08Z</time>
      </trkpt>
      <trkpt lat="44.58355" lon="6.64968">
        <ele>2439.108</ele>
        <time>2020-03-03T21:39:28Z</time>
      </trkpt>
      <trkpt lat="44.58292" lon="6.64968">
        <ele>2429.539</ele>
        <time>2020-03-03T21:39:48Z</time>
      </trkpt>
      <trkpt lat="44.58274" lon="6.64965">
        <ele>2427.762</ele>
        <time>2020-03-03T21:40:08Z</time>
      </trkpt>
      <trkpt lat="44.58259" lon="6.64942">
        <ele>2422.359</ele>
        <time>2020-03-03T21:40:28Z</time>
      </trkpt>
      <trkpt lat="44.58235" lon="6.64924">
        <ele>2416.678</ele>
        <time>2020-03-03T21:40:48Z</time>
      </trkpt>
      <trkpt lat="44.58217" lon="6.64919">
        <ele>2415.266</ele>
        <time>2020-03-03T21:41:08Z</time>
      </trkpt>
      <trkpt lat="44.582" lon="6.64929">
        <ele>2415.317</ele>
        <time>2020-03-03T21:41:28Z</time>
      </trkpt>
      <trkpt lat="44.58176" lon="6.64944">
        <ele>2413.789</ele>
        <time>2020-03-03T21:41:48Z</time>
      </trkpt>
      <trkpt lat="44.5815" lon="6.64937">
        <ele>2407.995</ele>
        <time>2020-03-03T21:42:08Z</time>
      </trkpt>
      <trkpt lat="44.58133" lon="6.64912">
        <ele>2403.466</ele>
        <time>2020-03-03T21:42:28Z</time>
      </trkpt>
      <trkpt lat="44.58115" lon="6.64901">
        <ele>2399.929</ele>
        <time>2020-03-03T21:42:48Z</time>
      </trkpt>
      <trkpt lat="44.58088" lon="6.64896">
        <ele>2397.621</ele>
        <time>2020-03-03T21:43:08Z</time>
      </trkpt>
      <trkpt lat="44.58067" lon="6.64884">
        <ele>2394.108</ele>
        <time>2020-03-03T21:43:28Z</time>
      </trkpt>
      <trkpt lat="44.58041" lon="6.64879">
        <ele>2392.29</ele>
        <time>2020-03-03T21:43:48Z</time>
      </trkpt>
      <trkpt lat="44.58028" lon="6.64887">
        <ele>2389.513</ele>
        <time>2020-03-03T21:44:08Z</time>
      </trkpt>
      <trkpt lat="44.58018" lon="6.64904">
        <ele>2389.99</ele>
        <time>2020-03-03T21:44:28Z</time>
      </trkpt>
      <trkpt lat="44.58001" lon="6.64938">
        <ele>2385.089</ele>
        <time>2020-03-03T21:44:48Z</time>
      </trkpt>
      <trkpt lat="44.57979" lon="6.6495">
        <ele>2381.597</ele>
        <time>2020-03-03T21:45:08Z</time>
      </trkpt>
      <trkpt lat="44.57942" lon="6.64957">
        <ele>2378.588</ele>
        <time>2020-03-03T21:45:28Z</time>
      </trkpt>
      <trkpt lat="44.57922" lon="6.64958">
        <ele>2377.42</ele>
        <time>2020-03-03T21:45:48Z</time>
      </trkpt>
      <trkpt lat="44.5788" lon="6.64969">
        <ele>2375.396</ele>
        <time>2020-03-03T21:46:08Z</time>
      </trkpt>
      <trkpt lat="44.57847" lon="6.64969">
        <ele>2372.581</ele>
        <time>2020-03-03T21:46:28Z</time>
      </trkpt>
      <trkpt lat="44.57826" lon="6.64957">
        <ele>2372.761</ele>
        <time>2020-03-03T21:46:48Z</time>
      </trkpt>
      <trkpt lat="44.57815" lon="6.64949">
        <ele>2371.617</ele>
        <time>2020-03-03T21:47:08Z</time>
      </trkpt>
      <trkpt lat="44.57802" lon="6.64948">
        <ele>2369.308</ele>
        <time>2020-03-03T21:47:28Z</time>
      </trkpt>
      <trkpt lat="44.57765" lon="6.64948">
        <ele>2365.082</ele>
        <time>2020-03-03T21:47:48Z</time>
      </trkpt>
      <trkpt lat="44.57712" lon="6.64907">
        <ele>2357.325</ele>
        <time>2020-03-03T21:48:08Z</time>
      </trkpt>
      <trkpt lat="44.57686" lon="6.64901">
        <ele>2353.852</ele>
        <time>2020-03-03T21:48:28Z</time>
      </trkpt>
      <trkpt lat="44.57645" lon="6.64894">
        <ele>2352.871</ele>
        <time>2020-03-03T21:48:48Z</time>
      </trkpt>
      <trkpt lat="44.5762" lon="6.64905">
        <ele>2349.049</ele>
        <time>2020-03-03T21:49:08Z</time>
      </trkpt>
      <trkpt lat="44.57525" lon="6.64906">
        <ele>2340.81</ele>
        <time>2020-03-03T21:49:28Z</time>
      </trkpt>
      <trkpt lat="44.57485" lon="6.64914">
        <ele>2336.492</ele>
        <time>2020-03-03T21:49:48Z</time>
      </trkpt>
      <trkpt lat="44.57361" lon="6.64994">
        <ele>2321.018</ele>
        <time>2020-03-03T21:50:08Z</time>
      </trkpt>
      <trkpt lat="44.57333" lon="6.65027">
        <ele>2319.237</ele>
        <time>2020-03-03T21:50:28Z</time>
      </trkpt>
      <trkpt lat="44.57304" lon="6.65045">
        <ele>2320.349</ele>
        <time>2020-03-03T21:50:48Z</time>
      </trkpt>
      <trkpt lat="44.57273" lon="6.65107">
        <ele>2317.213</ele>
        <time>2020-03-03T21:51:08Z</time>
      </trkpt>
      <trkpt lat="44.57256" lon="6.65166">
        <ele>2313.308</ele>
        <time>2020-03-03T21:51:28Z</time>
      </trkpt>
      <trkpt lat="44.57204" lon="6.65272">
        <ele>2306.127</ele>
        <time>2020-03-03T21:51:48Z</time>
      </trkpt>
      <trkpt lat="44.57155" lon="6.65385">
        <ele>2298.92</ele>
        <time>2020-03-03T21:52:08Z</time>
      </trkpt>
      <trkpt lat="44.57163" lon="6.65453">
        <ele>2291.877</ele>
        <time>2020-03-03T21:52:28Z</time>
      </trkpt>
      <trkpt lat="44.57155" lon="6.6549">
        <ele>2286.976</ele>
        <time>2020-03-03T21:52:48Z</time>
      </trkpt>
      <trkpt lat="44.57145" lon="6.6553">
        <ele>2284.584</ele>
        <time>2020-03-03T21:53:08Z</time>
      </trkpt>
      <trkpt lat="44.57148" lon="6.65578">
        <ele>2278.825</ele>
        <time>2020-03-03T21:53:28Z</time>
      </trkpt>
      <trkpt lat="44.57115" lon="6.65625">
        <ele>2272.667</ele>
        <time>2020-03-03T21:53:48Z</time>
      </trkpt>
      <trkpt lat="44.57052" lon="6.65662">
        <ele>2266.463</ele>
        <time>2020-03-03T21:54:08Z</time>
      </trkpt>
      <trkpt lat="44.57017" lon="6.65668">
        <ele>2263.113</ele>
        <time>2020-03-03T21:54:28Z</time>
      </trkpt>
      <trkpt lat="44.56985" lon="6.65689">
        <ele>2259.543</ele>
        <time>2020-03-03T21:54:48Z</time>
      </trkpt>
      <trkpt lat="44.56955" lon="6.65733">
        <ele>2252.107</ele>
        <time>2020-03-03T21:55:08Z</time>
      </trkpt>
      <trkpt lat="44.56926" lon="6.65805">
        <ele>2251.308</ele>
        <time>2020-03-03T21:55:28Z</time>
      </trkpt>
      <trkpt lat="44.56923" lon="6.65852">
        <ele>2248.585</ele>
        <time>2020-03-03T21:55:48Z</time>
      </trkpt>
      <trkpt lat="44.56866" lon="6.66006">
        <ele>2237.598</ele>
        <time>2020-03-03T21:56:08Z</time>
      </trkpt>
      <trkpt lat="44.5687" lon="6.66054">
        <ele>2232.525</ele>
        <time>2020-03-03T21:56:28Z</time>
      </trkpt>
      <trkpt lat="44.56861" lon="6.66066">
        <ele>2231.014</ele>
        <time>2020-03-03T21:56:48Z</time>
      </trkpt>
      <trkpt lat="44.5682" lon="6.66052">
        <ele>2225.082</ele>
        <time>2020-03-03T21:57:08Z</time>
      </trkpt>
      <trkpt lat="44.56786" lon="6.66064">
        <ele>2219.783</ele>
        <time>2020-03-03T21:57:28Z</time>
      </trkpt>
      <trkpt lat="44.56798" lon="6.66106">
        <ele>2212.735</ele>
        <time>2020-03-03T21:57:48Z</time>
      </trkpt>
      <trkpt lat="44.56815" lon="6.66246">
        <ele>2206.671</ele>
        <time>2020-03-03T21:58:08Z</time>
      </trkpt>
      <trkpt lat="44.56806" lon="6.6628">
        <ele>2204.913</ele>
        <time>2020-03-03T21:58:28Z</time>
      </trkpt>
      <trkpt lat="44.56771" lon="6.66344">
        <ele>2192.243</ele>
        <time>2020-03-03T21:58:48Z</time>
      </trkpt>
      <trkpt lat="44.56762" lon="6.6639">
        <ele>2184.207</ele>
        <time>2020-03-03T21:59:08Z</time>
      </trkpt>
      <trkpt lat="44.56767" lon="6.66417">
        <ele>2181.608</ele>
        <time>2020-03-03T21:59:28Z</time>
      </trkpt>
      <trkpt lat="44.56867" lon="6.66479">
        <ele>2179.385</ele>
        <time>2020-03-03T21:59:48Z</time>
      </trkpt>
      <trkpt lat="44.56882" lon="6.66516">
        <ele>2176.858</ele>
        <time>2020-03-03T22:00:08Z</time>
      </trkpt>
      <trkpt lat="44.5693" lon="6.6658">
        <ele>2172.155</ele>
        <time>2020-03-03T22:00:28Z</time>
      </trkpt>
      <trkpt lat="44.56935" lon="6.66597">
        <ele>2168.864</ele>
        <time>2020-03-03T22:00:48Z</time>
      </trkpt>
      <trkpt lat="44.56919" lon="6.66611">
        <ele>2163.492</ele>
        <time>2020-03-03T22:01:08Z</time>
      </trkpt>
      <trkpt lat="44.56895" lon="6.66609">
        <ele>2159.693</ele>
        <time>2020-03-03T22:01:28Z</time>
      </trkpt>
      <trkpt lat="44.56873" lon="6.66592">
        <ele>2160.625</ele>
        <time>2020-03-03T22:01:48Z</time>
      </trkpt>
      <trkpt lat="44.56832" lon="6.66597">
        <ele>2155.891</ele>
        <time>2020-03-03T22:02:08Z</time>
      </trkpt>
      <trkpt lat="44.56795" lon="6.66603">
        <ele>2148.746</ele>
        <time>2020-03-03T22:02:28Z</time>
      </trkpt>
      <trkpt lat="44.56811" lon="6.66651">
        <ele>2140.588</ele>
        <time>2020-03-03T22:02:48Z</time>
      </trkpt>
      <trkpt lat="44.56835" lon="6.66673">
        <ele>2139.016</ele>
        <time>2020-03-03T22:03:08Z</time>
      </trkpt>
      <trkpt lat="44.56871" lon="6.66679">
        <ele>2135.208</ele>
        <time>2020-03-03T22:03:28Z</time>
      </trkpt>
      <trkpt lat="44.56908" lon="6.66725">
        <ele>2128.028</ele>
        <time>2020-03-03T22:03:48Z</time>
      </trkpt>
      <trkpt lat="44.56936" lon="6.66741">
        <ele>2126.111</ele>
        <time>2020-03-03T22:04:08Z</time>
      </trkpt>
      <trkpt lat="44.56926" lon="6.66749">
        <ele>2125.498</ele>
        <time>2020-03-03T22:04:28Z</time>
      </trkpt>
      <trkpt lat="44.5689" lon="6.66737">
        <ele>2125.447</ele>
        <time>2020-03-03T22:04:48Z</time>
      </trkpt>
      <trkpt lat="44.56881" lon="6.66753">
        <ele>2121.735</ele>
        <time>2020-03-03T22:05:08Z</time>
      </trkpt>
      <trkpt lat="44.5689" lon="6.66845">
        <ele>2108.246</ele>
        <time>2020-03-03T22:05:28Z</time>
      </trkpt>
      <trkpt lat="44.5694" lon="6.66999">
        <ele>2094.698</ele>
        <time>2020-03-03T22:05:48Z</time>
      </trkpt>
      <trkpt lat="44.5695" lon="6.67033">
        <ele>2090.714</ele>
        <time>2020-03-03T22:06:08Z</time>
      </trkpt>
      <trkpt lat="44.5697" lon="6.67056">
        <ele>2088.626</ele>
        <time>2020-03-03T22:06:28Z</time>
      </trkpt>
      <trkpt lat="44.56978" lon="6.67081">
        <ele>2083.947</ele>
        <time>2020-03-03T22:06:48Z</time>
      </trkpt>
      <trkpt lat="44.56943" lon="6.67106">
        <ele>2078.511</ele>
        <time>2020-03-03T22:07:08Z</time>
      </trkpt>
      <trkpt lat="44.56938" lon="6.67138">
        <ele>2073.208</ele>
        <time>2020-03-03T22:07:28Z</time>
      </trkpt>
      <trkpt lat="44.56951" lon="6.67174">
        <ele>2067.416</ele>
        <time>2020-03-03T22:07:48Z</time>
      </trkpt>
      <trkpt lat="44.56976" lon="6.67201">
        <ele>2062.989</ele>
        <time>2020-03-03T22:08:08Z</time>
      </trkpt>
      <trkpt lat="44.57002" lon="6.67213">
        <ele>2061.186</ele>
        <time>2020-03-03T22:08:28Z</time>
      </trkpt>
      <trkpt lat="44.57006" lon="6.67234">
        <ele>2057.925</ele>
        <time>2020-03-03T22:08:48Z</time>
      </trkpt>
      <trkpt lat="44.56981" lon="6.6727">
        <ele>2049.183</ele>
        <time>2020-03-03T22:09:08Z</time>
      </trkpt>
      <trkpt lat="44.56989" lon="6.67286">
        <ele>2045.744</ele>
        <time>2020-03-03T22:09:28Z</time>
      </trkpt>
      <trkpt lat="44.5702" lon="6.67298">
        <ele>2045.336</ele>
        <time>2020-03-03T22:09:48Z</time>
      </trkpt>
      <trkpt lat="44.57023" lon="6.67313">
        <ele>2041.262</ele>
        <time>2020-03-03T22:10:08Z</time>
      </trkpt>
      <trkpt lat="44.56982" lon="6.67325">
        <ele>2030.123</ele>
        <time>2020-03-03T22:10:28Z</time>
      </trkpt>
      <trkpt lat="44.56888" lon="6.67285">
        <ele>2022.483</ele>
        <time>2020-03-03T22:10:48Z</time>
      </trkpt>
      <trkpt lat="44.5687" lon="6.6731">
        <ele>2023.111</ele>
        <time>2020-03-03T22:11:08Z</time>
      </trkpt>
      <trkpt lat="44.56848" lon="6.6737">
        <ele>2018.008</ele>
        <time>2020-03-03T22:11:28Z</time>
      </trkpt>
      <trkpt lat="44.5682" lon="6.674">
        <ele>2012.586</ele>
        <time>2020-03-03T22:11:48Z</time>
      </trkpt>
      <trkpt lat="44.56788" lon="6.67425">
        <ele>2007.719</ele>
        <time>2020-03-03T22:12:08Z</time>
      </trkpt>
      <trkpt lat="44.56784" lon="6.6746">
        <ele>2005.966</ele>
        <time>2020-03-03T22:12:28Z</time>
      </trkpt>
      <trkpt lat="44.56796" lon="6.67515">
        <ele>2005.455</ele>
        <time>2020-03-03T22:12:48Z</time>
      </trkpt>
      <trkpt lat="44.56794" lon="6.67566">
        <ele>2004.093</ele>
        <time>2020-03-03T22:13:08Z</time>
      </trkpt>
      <trkpt lat="44.56768" lon="6.67663">
        <ele>1995.334</ele>
        <time>2020-03-03T22:13:28Z</time>
      </trkpt>
      <trkpt lat="44.56755" lon="6.67729">
        <ele>1989.896</ele>
        <time>2020-03-03T22:13:48Z</time>
      </trkpt>
      <trkpt lat="44.56754" lon="6.67762">
        <ele>1984.592</ele>
        <time>2020-03-03T22:14:08Z</time>
      </trkpt>
      <trkpt lat="44.56725" lon="6.67838">
        <ele>1979.167</ele>
        <time>2020-03-03T22:14:28Z</time>
      </trkpt>
      <trkpt lat="44.56673" lon="6.67931">
        <ele>1968.281</ele>
        <time>2020-03-03T22:14:48Z</time>
      </trkpt>
      <trkpt lat="44.56608" lon="6.68002">
        <ele>1958.419</ele>
        <time>2020-03-03T22:15:08Z</time>
      </trkpt>
      <trkpt lat="44.56587" lon="6.68044">
        <ele>1958.208</ele>
        <time>2020-03-03T22:15:28Z</time>
      </trkpt>
      <trkpt lat="44.56589" lon="6.68092">
        <ele>1954.15</ele>
        <time>2020-03-03T22:15:48Z</time>
      </trkpt>
      <trkpt lat="44.56581" lon="6.6813">
        <ele>1953.363</ele>
        <time>2020-03-03T22:16:08Z</time>
      </trkpt>
      <trkpt lat="44.56572" lon="6.68161">
        <ele>1955.27</ele>
        <time>2020-03-03T22:16:28Z</time>
      </trkpt>
      <trkpt lat="44.56588" lon="6.68216">
        <ele>1950.539</ele>
        <time>2020-03-03T22:16:48Z</time>
      </trkpt>
      <trkpt lat="44.56616" lon="6.68299">
        <ele>1940.617</ele>
        <time>2020-03-03T22:17:08Z</time>
      </trkpt>
      <trkpt lat="44.5664" lon="6.68329">
        <ele>1936.638</ele>
        <time>2020-03-03T22:17:28Z</time>
      </trkpt>
      <trkpt lat="44.56681" lon="6.6836">
        <ele>1929.88</ele>
        <time>2020-03-03T22:17:48Z</time>
      </trkpt>
      <trkpt lat="44.56702" lon="6.68392">
        <ele>1930.586</ele>
        <time>2020-03-03T22:18:08Z</time>
      </trkpt>
      <trkpt lat="44.56729" lon="6.68403">
        <ele>1926.443</ele>
        <time>2020-03-03T22:18:28Z</time>
      </trkpt>
      <trkpt lat="44.56755" lon="6.6842">
        <ele>1923.464</ele>
        <time>2020-03-03T22:18:48Z</time>
      </trkpt>
      <trkpt lat="44.56742" lon="6.68475">
        <ele>1925.11</ele>
        <time>2020-03-03T22:19:08Z</time>
      </trkpt>
      <trkpt lat="44.56713" lon="6.68487">
        <ele>1928.508</ele>
        <time>2020-03-03T22:19:28Z</time>
      </trkpt>
      <trkpt lat="44.56712" lon="6.685">
        <ele>1928.458</ele>
        <time>2020-03-03T22:19:48Z</time>
      </trkpt>
      <trkpt lat="44.56685" lon="6.68528">
        <ele>1929.071</ele>
        <time>2020-03-03T22:20:08Z</time>
      </trkpt>
      <trkpt lat="44.56645" lon="6.6859">
        <ele>1930.958</ele>
        <time>2020-03-03T22:20:28Z</time>
      </trkpt>
      <trkpt lat="44.56565" lon="6.68669">
        <ele>1931.417</ele>
        <time>2020-03-03T22:20:48Z</time>
      </trkpt>
      <trkpt lat="44.56504" lon="6.68748">
        <ele>1936.825</ele>
        <time>2020-03-03T22:21:08Z</time>
      </trkpt>
      <trkpt lat="44.56417" lon="6.6877">
        <ele>1942.296</ele>
        <time>2020-03-03T22:21:28Z</time>
      </trkpt>
      <trkpt lat="44.5635" lon="6.68855">
        <ele>1951.828</ele>
        <time>2020-03-03T22:21:48Z</time>
      </trkpt>
      <trkpt lat="44.56292" lon="6.68931">
        <ele>1949.994</ele>
        <time>2020-03-03T22:22:08Z</time>
      </trkpt>
      <trkpt lat="44.56178" lon="6.68974">
        <ele>1946.693</ele>
        <time>2020-03-03T22:22:28Z</time>
      </trkpt>
      <trkpt lat="44.56045" lon="6.69084">
        <ele>1952.865</ele>
        <time>2020-03-03T22:22:48Z</time>
      </trkpt>
      <trkpt lat="44.5602" lon="6.69166">
        <ele>1959.821</ele>
        <time>2020-03-03T22:23:08Z</time>
      </trkpt>
      <trkpt lat="44.55993" lon="6.69213">
        <ele>1969.208</ele>
        <time>2020-03-03T22:23:28Z</time>
      </trkpt>
      <trkpt lat="44.55912" lon="6.6929">
        <ele>1980.493</ele>
        <time>2020-03-03T22:23:48Z</time>
      </trkpt>
      <trkpt lat="44.55745" lon="6.69424">
        <ele>1990.056</ele>
        <time>2020-03-03T22:24:08Z</time>
      </trkpt>
      <trkpt lat="44.55699" lon="6.69519">
        <ele>1986.633</ele>
        <time>2020-03-03T22:24:28Z</time>
      </trkpt>
      <trkpt lat="44.55637" lon="6.69732">
        <ele>1989.272</ele>
        <time>2020-03-03T22:24:48Z</time>
      </trkpt>
      <trkpt lat="44.55571" lon="6.69826">
        <ele>1991.85</ele>
        <time>2020-03-03T22:25:08Z</time>
      </trkpt>
      <trkpt lat="44.55517" lon="6.69869">
        <ele>1994.321</ele>
        <time>2020-03-03T22:25:28Z</time>
      </trkpt>
      <trkpt lat="44.55333" lon="6.69916">
        <ele>1998.973</ele>
        <time>2020-03-03T22:25:48Z</time>
      </trkpt>
      <trkpt lat="44.55286" lon="6.69955">
        <ele>2004.829</ele>
        <time>2020-03-03T22:26:08Z</time>
      </trkpt>
      <trkpt lat="44.55243" lon="6.70049">
        <ele>2008.341</ele>
        <time>2020-03-03T22:26:28Z</time>
      </trkpt>
      <trkpt lat="44.55152" lon="6.7004">
        <ele>2015.381</ele>
        <time>2020-03-03T22:26:48Z</time>
      </trkpt>
      <trkpt lat="44.55123" lon="6.70046">
        <ele>2018.109</ele>
        <time>2020-03-03T22:27:08Z</time>
      </trkpt>
      <trkpt lat="44.55049" lon="6.70106">
        <ele>2020.508</ele>
        <time>2020-03-03T22:27:28Z</time>
      </trkpt>
      <trkpt lat="44.54964" lon="6.70154">
        <ele>2030.088</ele>
        <time>2020-03-03T22:27:48Z</time>
      </trkpt>
      <trkpt lat="44.5488" lon="6.70219">
        <ele>2047.591</ele>
        <time>2020-03-03T22:28:08Z</time>
      </trkpt>
      <trkpt lat="44.54802" lon="6.70283">
        <ele>2051.148</ele>
        <time>2020-03-03T22:28:28Z</time>
      </trkpt>
      <trkpt lat="44.54728" lon="6.70248">
        <ele>2051.677</ele>
        <time>2020-03-03T22:28:48Z</time>
      </trkpt>
      <trkpt lat="44.54689" lon="6.70235">
        <ele>2055.395</ele>
        <time>2020-03-03T22:29:08Z</time>
      </trkpt>
      <trkpt lat="44.54607" lon="6.70225">
        <ele>2061.216</ele>
        <time>2020-03-03T22:29:28Z</time>
      </trkpt>
      <trkpt lat="44.54542" lon="6.70217">
        <ele>2068.698</ele>
        <time>2020-03-03T22:29:48Z</time>
      </trkpt>
      <trkpt lat="44.54441" lon="6.70249">
        <ele>2077.354</ele>
        <time>2020-03-03T22:30:08Z</time>
      </trkpt>
      <trkpt lat="44.54399" lon="6.70243">
        <ele>2079.325</ele>
        <time>2020-03-03T22:30:28Z</time>
      </trkpt>
      <trkpt lat="44.54342" lon="6.70272">
        <ele>2079.826</ele>
        <time>2020-03-03T22:30:48Z</time>
      </trkpt>
      <trkpt lat="44.54296" lon="6.70269">
        <ele>2080.408</ele>
        <time>2020-03-03T22:31:08Z</time>
      </trkpt>
      <trkpt lat="44.54236" lon="6.70292">
        <ele>2082.308</ele>
        <time>2020-03-03T22:31:28Z</time>
      </trkpt>
      <trkpt lat="44.54153" lon="6.70251">
        <ele>2086.636</ele>
        <time>2020-03-03T22:31:48Z</time>
      </trkpt>
      <trkpt lat="44.54051" lon="6.70249">
        <ele>2091.139</ele>
        <time>2020-03-03T22:32:08Z</time>
      </trkpt>
      <trkpt lat="44.54011" lon="6.70221">
        <ele>2097.026</ele>
        <time>2020-03-03T22:32:28Z</time>
      </trkpt>
      <trkpt lat="44.53942" lon="6.70233">
        <ele>2107.445</ele>
        <time>2020-03-03T22:32:48Z</time>
      </trkpt>
      <trkpt lat="44.53868" lon="6.70298">
        <ele>2107.783</ele>
        <time>2020-03-03T22:33:08Z</time>
      </trkpt>
      <trkpt lat="44.538" lon="6.70301">
        <ele>2102.354</ele>
        <time>2020-03-03T22:33:28Z</time>
      </trkpt>
      <trkpt lat="44.53746" lon="6.70301">
        <ele>2098.916</ele>
        <time>2020-03-03T22:33:48Z</time>
      </trkpt>
      <trkpt lat="44.53687" lon="6.70326">
        <ele>2089.352</ele>
        <time>2020-03-03T22:34:08Z</time>
      </trkpt>
      <trkpt lat="44.53603" lon="6.70351">
        <ele>2081.883</ele>
        <time>2020-03-03T22:34:28Z</time>
      </trkpt>
      <trkpt lat="44.53536" lon="6.70467">
        <ele>2074.125</ele>
        <time>2020-03-03T22:34:48Z</time>
      </trkpt>
      <trkpt lat="44.53491" lon="6.70488">
        <ele>2070.117</ele>
        <time>2020-03-03T22:35:08Z</time>
      </trkpt>
      <trkpt lat="44.53456" lon="6.70476">
        <ele>2065.008</ele>
        <time>2020-03-03T22:35:28Z</time>
      </trkpt>
      <trkpt lat="44.53404" lon="6.70448">
        <ele>2059.572</ele>
        <time>2020-03-03T22:35:48Z</time>
      </trkpt>
      <trkpt lat="44.53335" lon="6.70473">
        <ele>2048.915</ele>
        <time>2020-03-03T22:36:08Z</time>
      </trkpt>
      <trkpt lat="44.53301" lon="6.70455">
        <ele>2045.212</ele>
        <time>2020-03-03T22:36:28Z</time>
      </trkpt>
      <trkpt lat="44.53275" lon="6.70344">
        <ele>2040.131</ele>
        <time>2020-03-03T22:36:48Z</time>
      </trkpt>
      <trkpt lat="44.53242" lon="6.70285">
        <ele>2034.969</ele>
        <time>2020-03-03T22:37:08Z</time>
      </trkpt>
      <trkpt lat="44.53202" lon="6.70135">
        <ele>2034.01</ele>
        <time>2020-03-03T22:37:28Z</time>
      </trkpt>
      <trkpt lat="44.53174" lon="6.70153">
        <ele>2022.172</ele>
        <time>2020-03-03T22:37:48Z</time>
      </trkpt>
      <trkpt lat="44.53214" lon="6.70275">
        <ele>2020.028</ele>
        <time>2020-03-03T22:38:08Z</time>
      </trkpt>
      <trkpt lat="44.53217" lon="6.7035">
        <ele>2015.434</ele>
        <time>2020-03-03T22:38:28Z</time>
      </trkpt>
      <trkpt lat="44.53205" lon="6.70459">
        <ele>2002.255</ele>
        <time>2020-03-03T22:38:48Z</time>
      </trkpt>
      <trkpt lat="44.53231" lon="6.70531">
        <ele>2004.21</ele>
        <time>2020-03-03T22:39:08Z</time>
      </trkpt>
      <trkpt lat="44.53234" lon="6.70734">
        <ele>1988.708</ele>
        <time>2020-03-03T22:39:28Z</time>
      </trkpt>
      <trkpt lat="44.53255" lon="6.70769">
        <ele>1987.787</ele>
        <time>2020-03-03T22:39:48Z</time>
      </trkpt>
      <trkpt lat="44.53292" lon="6.70792">
        <ele>1984.82</ele>
        <time>2020-03-03T22:40:08Z</time>
      </trkpt>
      <trkpt lat="44.53292" lon="6.70845">
        <ele>1980.017</ele>
        <time>2020-03-03T22:40:28Z</time>
      </trkpt>
      <trkpt lat="44.53265" lon="6.70889">
        <ele>1969.956</ele>
        <time>2020-03-03T22:40:48Z</time>
      </trkpt>
      <trkpt lat="44.53225" lon="6.70964">
        <ele>1961.594</ele>
        <time>2020-03-03T22:41:08Z</time>
      </trkpt>
      <trkpt lat="44.53133" lon="6.71042">
        <ele>1944.475</ele>
        <time>2020-03-03T22:41:28Z</time>
      </trkpt>
      <trkpt lat="44.53107" lon="6.71119">
        <ele>1943.687</ele>
        <time>2020-03-03T22:41:48Z</time>
      </trkpt>
      <trkpt lat="44.53114" lon="6.71193">
        <ele>1943.623</ele>
        <time>2020-03-03T22:42:08Z</time>
      </trkpt>
      <trkpt lat="44.53143" lon="6.71269">
        <ele>1941.193</ele>
        <time>2020-03-03T22:42:28Z</time>
      </trkpt>
      <trkpt lat="44.53121" lon="6.71317">
        <ele>1935.465</ele>
        <time>2020-03-03T22:42:48Z</time>
      </trkpt>
      <trkpt lat="44.53087" lon="6.71297">
        <ele>1927.221</ele>
        <time>2020-03-03T22:43:08Z</time>
      </trkpt>
      <trkpt lat="44.53035" lon="6.71157">
        <ele>1913.008</ele>
        <time>2020-03-03T22:43:28Z</time>
      </trkpt>
      <trkpt lat="44.53045" lon="6.71085">
        <ele>1908.713</ele>
        <time>2020-03-03T22:43:48Z</time>
      </trkpt>
      <trkpt lat="44.53084" lon="6.71015">
        <ele>1912.226</ele>
        <time>2020-03-03T22:44:08Z</time>
      </trkpt>
      <trkpt lat="44.53076" lon="6.70986">
        <ele>1913.023</ele>
        <time>2020-03-03T22:44:28Z</time>
      </trkpt>
      <trkpt lat="44.53056" lon="6.70992">
        <ele>1905.922</ele>
        <time>2020-03-03T22:44:48Z</time>
      </trkpt>
      <trkpt lat="44.53037" lon="6.71051">
        <ele>1899.26</ele>
        <time>2020-03-03T22:45:08Z</time>
      </trkpt>
      <trkpt lat="44.52967" lon="6.71161">
        <ele>1889.421</ele>
        <time>2020-03-03T22:45:28Z</time>
      </trkpt>
      <trkpt lat="44.52949" lon="6.7124">
        <ele>1886.243</ele>
        <time>2020-03-03T22:45:48Z</time>
      </trkpt>
      <trkpt lat="44.52949" lon="6.71286">
        <ele>1883.669</ele>
        <time>2020-03-03T22:46:08Z</time>
      </trkpt>
      <trkpt lat="44.52964" lon="6.7135">
        <ele>1878.777</ele>
        <time>2020-03-03T22:46:28Z</time>
      </trkpt>
      <trkpt lat="44.52947" lon="6.71448">
        <ele>1872.661</ele>
        <time>2020-03-03T22:46:48Z</time>
      </trkpt>
      <trkpt lat="44.5293" lon="6.71612">
        <ele>1855.527</ele>
        <time>2020-03-03T22:47:08Z</time>
      </trkpt>
      <trkpt lat="44.52941" lon="6.71706">
        <ele>1847.908</ele>
        <time>2020-03-03T22:47:28Z</time>
      </trkpt>
      <trkpt lat="44.52897" lon="6.72057">
        <ele>1820.161</ele>
        <time>2020-03-03T22:47:48Z</time>
      </trkpt>
      <trkpt lat="44.52882" lon="6.7216">
        <ele>1811.644</ele>
        <time>2020-03-03T22:48:08Z</time>
      </trkpt>
      <trkpt lat="44.52885" lon="6.72222">
        <ele>1811.881</ele>
        <time>2020-03-03T22:48:28Z</time>
      </trkpt>
      <trkpt lat="44.52865" lon="6.7222">
        <ele>1804.31</ele>
        <time>2020-03-03T22:48:48Z</time>
      </trkpt>
      <trkpt lat="44.52864" lon="6.72165">
        <ele>1802.368</ele>
        <time>2020-03-03T22:49:08Z</time>
      </trkpt>
      <trkpt lat="44.52831" lon="6.71944">
        <ele>1782.229</ele>
        <time>2020-03-03T22:49:28Z</time>
      </trkpt>
      <trkpt lat="44.52803" lon="6.71822">
        <ele>1770.671</ele>
        <time>2020-03-03T22:49:48Z</time>
      </trkpt>
      <trkpt lat="44.52808" lon="6.71749">
        <ele>1767.977</ele>
        <time>2020-03-03T22:50:08Z</time>
      </trkpt>
      <trkpt lat="44.52767" lon="6.7168">
        <ele>1760.517</ele>
        <time>2020-03-03T22:50:28Z</time>
      </trkpt>
      <trkpt lat="44.52719" lon="6.71555">
        <ele>1749.787</ele>
        <time>2020-03-03T22:50:48Z</time>
      </trkpt>
      <trkpt lat="44.52715" lon="6.71504">
        <ele>1750.715</ele>
        <time>2020-03-03T22:51:08Z</time>
      </trkpt>
      <trkpt lat="44.52692" lon="6.71501">
        <ele>1740.208</ele>
        <time>2020-03-03T22:51:28Z</time>
      </trkpt>
      <trkpt lat="44.52697" lon="6.71552">
        <ele>1739.325</ele>
        <time>2020-03-03T22:51:48Z</time>
      </trkpt>
      <trkpt lat="44.52695" lon="6.71652">
        <ele>1731.338</ele>
        <time>2020-03-03T22:52:08Z</time>
      </trkpt>
      <trkpt lat="44.52687" lon="6.71747">
        <ele>1721.725</ele>
        <time>2020-03-03T22:52:28Z</time>
      </trkpt>
      <trkpt lat="44.52716" lon="6.71775">
        <ele>1724.264</ele>
        <time>2020-03-03T22:52:48Z</time>
      </trkpt>
      <trkpt lat="44.52712" lon="6.718">
        <ele>1717.212</ele>
        <time>2020-03-03T22:53:08Z</time>
      </trkpt>
      <trkpt lat="44.5267" lon="6.71842">
        <ele>1704.513</ele>
        <time>2020-03-03T22:53:28Z</time>
      </trkpt>
      <trkpt lat="44.5265" lon="6.71946">
        <ele>1698.495</ele>
        <time>2020-03-03T22:53:48Z</time>
      </trkpt>
      <trkpt lat="44.52618" lon="6.72018">
        <ele>1690.041</ele>
        <time>2020-03-03T22:54:08Z</time>
      </trkpt>
      <trkpt lat="44.52575" lon="6.72161">
        <ele>1680.185</ele>
        <time>2020-03-03T22:54:28Z</time>
      </trkpt>
      <trkpt lat="44.52565" lon="6.72218">
        <ele>1675.989</ele>
        <time>2020-03-03T22:54:48Z</time>
      </trkpt>
      <trkpt lat="44.52553" lon="6.72249">
        <ele>1670.817</ele>
        <time>2020-03-03T22:55:08Z</time>
      </trkpt>
      <trkpt lat="44.52536" lon="6.72381">
        <ele>1661.408</ele>
        <time>2020-03-03T22:55:28Z</time>
      </trkpt>
      <trkpt lat="44.52547" lon="6.72469">
        <ele>1657.072</ele>
        <time>2020-03-03T22:55:48Z</time>
      </trkpt>
      <trkpt lat="44.5254" lon="6.72505">
        <ele>1661.445</ele>
        <time>2020-03-03T22:56:08Z</time>
      </trkpt>
      <trkpt lat="44.52559" lon="6.72582">
        <ele>1670.382</ele>
        <time>2020-03-03T22:56:28Z</time>
      </trkpt>
      <trkpt lat="44.52593" lon="6.72607">
        <ele>1674.491</ele>
        <time>2020-03-03T22:56:48Z</time>
      </trkpt>
      <trkpt lat="44.52631" lon="6.72605">
        <ele>1672.849</ele>
        <time>2020-03-03T22:57:08Z</time>
      </trkpt>
      <trkpt lat="44.52636" lon="6.72629">
        <ele>1662.57</ele>
        <time>2020-03-03T22:57:28Z</time>
      </trkpt>
      <trkpt lat="44.52609" lon="6.72674">
        <ele>1658.752</ele>
        <time>2020-03-03T22:57:48Z</time>
      </trkpt>
      <trkpt lat="44.52548" lon="6.72696">
        <ele>1658.928</ele>
        <time>2020-03-03T22:58:08Z</time>
      </trkpt>
      <trkpt lat="44.52533" lon="6.72737">
        <ele>1661.431</ele>
        <time>2020-03-03T22:58:28Z</time>
      </trkpt>
      <trkpt lat="44.52527" lon="6.72796">
        <ele>1663.861</ele>
        <time>2020-03-03T22:58:48Z</time>
      </trkpt>
      <trkpt lat="44.52503" lon="6.72865">
        <ele>1657.807</ele>
        <time>2020-03-03T22:59:08Z</time>
      </trkpt>
      <trkpt lat="44.5251" lon="6.73029">
        <ele>1661.208</ele>
        <time>2020-03-03T22:59:28Z</time>
      </trkpt>
      <trkpt lat="44.52492" lon="6.73125">
        <ele>1657.087</ele>
        <time>2020-03-03T22:59:48Z</time>
      </trkpt>
      <trkpt lat="44.5249" lon="6.73211">
        <ele>1646.09</ele>
        <time>2020-03-03T23:00:08Z</time>
      </trkpt>
      <trkpt lat="44.52458" lon="6.73245">
        <ele>1654.077</ele>
        <time>2020-03-03T23:00:28Z</time>
      </trkpt>
      <trkpt lat="44.52391" lon="6.73272">
        <ele>1646.356</ele>
        <time>2020-03-03T23:00:48Z</time>
      </trkpt>
      <trkpt lat="44.52347" lon="6.73337">
        <ele>1642.754</ele>
        <time>2020-03-03T23:01:08Z</time>
      </trkpt>
      <trkpt lat="44.52325" lon="6.73397">
        <ele>1636.185</ele>
        <time>2020-03-03T23:01:28Z</time>
      </trkpt>
      <trkpt lat="44.52327" lon="6.73462">
        <ele>1633.997</ele>
        <time>2020-03-03T23:01:48Z</time>
      </trkpt>
      <trkpt lat="44.52338" lon="6.73506">
        <ele>1634.813</ele>
        <time>2020-03-03T23:02:08Z</time>
      </trkpt>
      <trkpt lat="44.52327" lon="6.73581">
        <ele>1627.622</ele>
        <time>2020-03-03T23:02:28Z</time>
      </trkpt>
      <trkpt lat="44.52293" lon="6.73734">
        <ele>1621.862</ele>
        <time>2020-03-03T23:02:48Z</time>
      </trkpt>
      <trkpt lat="44.52314" lon="6.7383">
        <ele>1617.308</ele>
        <time>2020-03-03T23:03:08Z</time>
      </trkpt>
      <trkpt lat="44.52311" lon="6.73875">
        <ele>1611.708</ele>
        <time>2020-03-03T23:03:28Z</time>
      </trkpt>
      <trkpt lat="44.52289" lon="6.73927">
        <ele>1606.196</ele>
        <time>2020-03-03T23:03:48Z</time>
      </trkpt>
      <trkpt lat="44.52196" lon="6.73962">
        <ele>1600.739</ele>
        <time>2020-03-03T23:04:08Z</time>
      </trkpt>
      <trkpt lat="44.52136" lon="6.74066">
        <ele>1583.236</ele>
        <time>2020-03-03T23:04:28Z</time>
      </trkpt>
      <trkpt lat="44.52048" lon="6.74047">
        <ele>1583.095</ele>
        <time>2020-03-03T23:04:48Z</time>
      </trkpt>
      <trkpt lat="44.52018" lon="6.74071">
        <ele>1586.863</ele>
        <time>2020-03-03T23:05:08Z</time>
      </trkpt>
      <trkpt lat="44.52007" lon="6.74123">
        <ele>1585.734</ele>
        <time>2020-03-03T23:05:28Z</time>
      </trkpt>
      <trkpt lat="44.5203" lon="6.74215">
        <ele>1582.846</ele>
        <time>2020-03-03T23:05:48Z</time>
      </trkpt>
      <trkpt lat="44.52037" lon="6.74306">
        <ele>1577.932</ele>
        <time>2020-03-03T23:06:08Z</time>
      </trkpt>
      <trkpt lat="44.52017" lon="6.74369">
        <ele>1573.168</ele>
        <time>2020-03-03T23:06:28Z</time>
      </trkpt>
      <trkpt lat="44.51951" lon="6.74446">
        <ele>1564.242</ele>
        <time>2020-03-03T23:06:48Z</time>
      </trkpt>
      <trkpt lat="44.51816" lon="6.74569">
        <ele>1548.426</ele>
        <time>2020-03-03T23:07:08Z</time>
      </trkpt>
      <trkpt lat="44.51749" lon="6.74692">
        <ele>1535.708</ele>
        <time>2020-03-03T23:07:28Z</time>
      </trkpt>
      <trkpt lat="44.51714" lon="6.74784">
        <ele>1527.68</ele>
        <time>2020-03-03T23:07:48Z</time>
      </trkpt>
      <trkpt lat="44.51709" lon="6.74877">
        <ele>1519.873</ele>
        <time>2020-03-03T23:08:08Z</time>
      </trkpt>
      <trkpt lat="44.51726" lon="6.74965">
        <ele>1515.94</ele>
        <time>2020-03-03T23:08:28Z</time>
      </trkpt>
      <trkpt lat="44.51802" lon="6.75174">
        <ele>1504.919</ele>
        <time>2020-03-03T23:08:48Z</time>
      </trkpt>
      <trkpt lat="44.51809" lon="6.75248">
        <ele>1505.797</ele>
        <time>2020-03-03T23:09:08Z</time>
      </trkpt>
      <trkpt lat="44.51784" lon="6.75282">
        <ele>1500.698</ele>
        <time>2020-03-03T23:09:28Z</time>
      </trkpt>
      <trkpt lat="44.51794" lon="6.75306">
        <ele>1499.97</ele>
        <time>2020-03-03T23:09:48Z</time>
      </trkpt>
      <trkpt lat="44.51836" lon="6.75381">
        <ele>1497.816</ele>
        <time>2020-03-03T23:10:08Z</time>
      </trkpt>
      <trkpt lat="44.51836" lon="6.75415">
        <ele>1493.734</ele>
        <time>2020-03-03T23:10:28Z</time>
      </trkpt>
      <trkpt lat="44.51816" lon="6.75494">
        <ele>1485.055</ele>
        <time>2020-03-03T23:10:48Z</time>
      </trkpt>
      <trkpt lat="44.51809" lon="6.75536">
        <ele>1484.91</ele>
        <time>2020-03-03T23:11:08Z</time>
      </trkpt>
      <trkpt lat="44.51806" lon="6.75558">
        <ele>1485.508</ele>
        <time>2020-03-03T23:11:28Z</time>
      </trkpt>
      <trkpt lat="44.51802" lon="6.75552">
        <ele>1484.297</ele>
        <time>2020-03-03T23:11:48Z</time>
      </trkpt>
      <trkpt lat="44.51801" lon="6.75515">
        <ele>1480.95</ele>
        <time>2020-03-03T23:12:08Z</time>
      </trkpt>
      <trkpt lat="44.51806" lon="6.75485">
        <ele>1479.437</ele>
        <time>2020-03-03T23:12:28Z</time>
      </trkpt>
      <trkpt lat="44.51795" lon="6.75489">
        <ele>1477.216</ele>
        <time>2020-03-03T23:12:48Z</time>
      </trkpt>
      <trkpt lat="44.51756" lon="6.75539">
        <ele>1473.644</ele>
        <time>2020-03-03T23:13:08Z</time>
      </trkpt>
      <trkpt lat="44.51749" lon="6.75573">
        <ele>1475.775</ele>
        <time>2020-03-03T23:13:28Z</time>
      </trkpt>
      <trkpt lat="44.5174" lon="6.7559">
        <ele>1474.697</ele>
        <time>2020-03-03T23:13:48Z</time>
      </trkpt>
      <trkpt lat="44.51741" lon="6.75629">
        <ele>1473.833</ele>
        <time>2020-03-03T23:14:08Z</time>
      </trkpt>
      <trkpt lat="44.51762" lon="6.75693">
        <ele>1472.977</ele>
        <time>2020-03-03T23:14:28Z</time>
      </trkpt>
      <trkpt lat="44.51768" lon="6.75715">
        <ele>1472.161</ele>
        <time>2020-03-03T23:14:48Z</time>
      </trkpt>
      <trkpt lat="44.51758" lon="6.75728">
        <ele>1469.427</ele>
        <time>2020-03-03T23:15:08Z</time>
      </trkpt>
      <trkpt lat="44.51735" lon="6.75721">
        <ele>1465.408</ele>
        <time>2020-03-03T23:15:28Z</time>
      </trkpt>
      <trkpt lat="44.51786" lon="6.75782">
        <ele>1467.121</ele>
        <time>2020-03-03T23:15:48Z</time>
      </trkpt>
      <trkpt lat="44.5183" lon="6.75819">
        <ele>1468.354</ele>
        <time>2020-03-03T23:16:08Z</time>
      </trkpt>
      <trkpt lat="44.51888" lon="6.75842">
        <ele>1473.211</ele>
        <time>2020-03-03T23:16:28Z</time>
      </trkpt>
      <trkpt lat="44.51924" lon="6.75869">
        <ele>1468.08</ele>
        <time>2020-03-03T23:16:48Z</time>
      </trkpt>
      <trkpt lat="44.51974" lon="6.75933">
        <ele>1469.788</ele>
        <time>2020-03-03T23:17:08Z</time>
      </trkpt>
      <trkpt lat="44.52045" lon="6.76035">
        <ele>1472.699</ele>
        <time>2020-03-03T23:17:28Z</time>
      </trkpt>
      <trkpt lat="44.52075" lon="6.76103">
        <ele>1471.561</ele>
        <time>2020-03-03T23:17:48Z</time>
      </trkpt>
      <trkpt lat="44.52101" lon="6.76151">
        <ele>1473.677</ele>
        <time>2020-03-03T23:18:08Z</time>
      </trkpt>
      <trkpt lat="44.52134" lon="6.76176">
        <ele>1479.313</ele>
        <time>2020-03-03T23:18:28Z</time>
      </trkpt>
      <trkpt lat="44.52145" lon="6.76231">
        <ele>1473.343</ele>
        <time>2020-03-03T23:18:48Z</time>
      </trkpt>
      <trkpt lat="44.52187" lon="6.76316">
        <ele>1475.007</ele>
        <time>2020-03-03T23:19:08Z</time>
      </trkpt>
      <trkpt lat="44.52226" lon="6.76334">
        <ele>1481.708</ele>
        <time>2020-03-03T23:19:28Z</time>
      </trkpt>
      <trkpt lat="44.52238" lon="6.76381">
        <ele>1475.815</ele>
        <time>2020-03-03T23:19:48Z</time>
      </trkpt>
      <trkpt lat="44.52252" lon="6.76401">
        <ele>1477.548</ele>
        <time>2020-03-03T23:20:08Z</time>
      </trkpt>
      <trkpt lat="44.52281" lon="6.76416">
        <ele>1491.015</ele>
        <time>2020-03-03T23:20:28Z</time>
      </trkpt>
      <trkpt lat="44.52305" lon="6.76468">
        <ele>1486.244</ele>
        <time>2020-03-03T23:20:48Z</time>
      </trkpt>
      <trkpt lat="44.5233" lon="6.76493">
        <ele>1490.252</ele>
        <time>2020-03-03T23:21:08Z</time>
      </trkpt>
      <trkpt lat="44.52358" lon="6.76512">
        <ele>1492.553</ele>
        <time>2020-03-03T23:21:28Z</time>
      </trkpt>
      <trkpt lat="44.52378" lon="6.76558">
        <ele>1487.055</ele>
        <time>2020-03-03T23:21:48Z</time>
      </trkpt>
      <trkpt lat="44.52402" lon="6.76635">
        <ele>1488.171</ele>
        <time>2020-03-03T23:22:08Z</time>
      </trkpt>
      <trkpt lat="44.52422" lon="6.76665">
        <ele>1490.252</ele>
        <time>2020-03-03T23:22:28Z</time>
      </trkpt>
      <trkpt lat="44.5249" lon="6.76742">
        <ele>1499.453</ele>
        <time>2020-03-03T23:22:48Z</time>
      </trkpt>
      <trkpt lat="44.52517" lon="6.76806">
        <ele>1502.008</ele>
        <time>2020-03-03T23:23:08Z</time>
      </trkpt>
      <trkpt lat="44.52562" lon="6.76883">
        <ele>1498.408</ele>
        <time>2020-03-03T23:23:28Z</time>
      </trkpt>
      <trkpt lat="44.5256" lon="6.76922">
        <ele>1494.339</ele>
        <time>2020-03-03T23:23:48Z</time>
      </trkpt>
      <trkpt lat="44.52578" lon="6.7696">
        <ele>1503.062</ele>
        <time>2020-03-03T23:24:08Z</time>
      </trkpt>
      <trkpt lat="44.52621" lon="6.77013">
        <ele>1509.469</ele>
        <time>2020-03-03T23:24:28Z</time>
      </trkpt>
      <trkpt lat="44.52641" lon="6.77058">
        <ele>1507.468</ele>
        <time>2020-03-03T23:24:48Z</time>
      </trkpt>
      <trkpt lat="44.52659" lon="6.77128">
        <ele>1506.256</ele>
        <time>2020-03-03T23:25:08Z</time>
      </trkpt>
      <trkpt lat="44.52692" lon="6.77144">
        <ele>1509.817</ele>
        <time>2020-03-03T23:25:28Z</time>
      </trkpt>
      <trkpt lat="44.52746" lon="6.77154">
        <ele>1514.199</ele>
        <time>2020-03-03T23:25:48Z</time>
      </trkpt>
      <trkpt lat="44.52766" lon="6.77186">
        <ele>1515.015</ele>
        <time>2020-03-03T23:26:08Z</time>
      </trkpt>
      <trkpt lat="44.52776" lon="6.77251">
        <ele>1513.876</ele>
        <time>2020-03-03T23:26:28Z</time>
      </trkpt>
      <trkpt lat="44.5281" lon="6.77316">
        <ele>1513.19</ele>
        <time>2020-03-03T23:26:48Z</time>
      </trkpt>
      <trkpt lat="44.5286" lon="6.77384">
        <ele>1513.319</ele>
        <time>2020-03-03T23:27:08Z</time>
      </trkpt>
      <trkpt lat="44.52885" lon="6.77433">
        <ele>1513.608</ele>
        <time>2020-03-03T23:27:28Z</time>
      </trkpt>
      <trkpt lat="44.52909" lon="6.77505">
        <ele>1518.391</ele>
        <time>2020-03-03T23:27:48Z</time>
      </trkpt>
      <trkpt lat="44.52965" lon="6.77538">
        <ele>1524.784</ele>
        <time>2020-03-03T23:28:08Z</time>
      </trkpt>
      <trkpt lat="44.53026" lon="6.77541">
        <ele>1529.481</ele>
        <time>2020-03-03T23:28:28Z</time>
      </trkpt>
      <trkpt lat="44.53041" lon="6.77527">
        <ele>1532.36</ele>
        <time>2020-03-03T23:28:48Z</time>
      </trkpt>
      <trkpt lat="44.53061" lon="6.77544">
        <ele>1530.618</ele>
        <time>2020-03-03T23:29:08Z</time>
      </trkpt>
      <trkpt lat="44.53064" lon="6.7757">
        <ele>1528.889</ele>
        <time>2020-03-03T23:29:28Z</time>
      </trkpt>
      <trkpt lat="44.53044" lon="6.77603">
        <ele>1522.741</ele>
        <time>2020-03-03T23:29:48Z</time>
      </trkpt>
      <trkpt lat="44.53049" lon="6.77633">
        <ele>1525.987</ele>
        <time>2020-03-03T23:30:08Z</time>
      </trkpt>
      <trkpt lat="44.53079" lon="6.77688">
        <ele>1530.738</ele>
        <time>2020-03-03T23:30:28Z</time>
      </trkpt>
      <trkpt lat="44.53116" lon="6.77736">
        <ele>1533.07</ele>
        <time>2020-03-03T23:30:48Z</time>
      </trkpt>
      <trkpt lat="44.53127" lon="6.77762">
        <ele>1532.317</ele>
        <time>2020-03-03T23:31:08Z</time>
      </trkpt>
      <trkpt lat="44.53161" lon="6.77808">
        <ele>1535.508</ele>
        <time>2020-03-03T23:31:28Z</time>
      </trkpt>
      <trkpt lat="44.53178" lon="6.77866">
        <ele>1535.247</ele>
        <time>2020-03-03T23:31:48Z</time>
      </trkpt>
      <trkpt lat="44.53195" lon="6.77891">
        <ele>1536.81</ele>
        <time>2020-03-03T23:32:08Z</time>
      </trkpt>
      <trkpt lat="44.53254" lon="6.77954">
        <ele>1546.087</ele>
        <time>2020-03-03T23:32:28Z</time>
      </trkpt>
      <trkpt lat="44.53323" lon="6.78012">
        <ele>1549.026</ele>
        <time>2020-03-03T23:32:48Z</time>
      </trkpt>
      <trkpt lat="44.53378" lon="6.78051">
        <ele>1557.414</ele>
        <time>2020-03-03T23:33:08Z</time>
      </trkpt>
      <trkpt lat="44.53472" lon="6.78118">
        <ele>1566.955</ele>
        <time>2020-03-03T23:33:28Z</time>
      </trkpt>
      <trkpt lat="44.53531" lon="6.78161">
        <ele>1569.717</ele>
        <time>2020-03-03T23:33:48Z</time>
      </trkpt>
      <trkpt lat="44.53587" lon="6.7819">
        <ele>1574.963</ele>
        <time>2020-03-03T23:34:08Z</time>
      </trkpt>
      <trkpt lat="44.53631" lon="6.78207">
        <ele>1579.923</ele>
        <time>2020-03-03T23:34:28Z</time>
      </trkpt>
      <trkpt lat="44.53633" lon="6.78236">
        <ele>1573.183</ele>
        <time>2020-03-03T23:34:48Z</time>
      </trkpt>
      <trkpt lat="44.53627" lon="6.78244">
        <ele>1571.911</ele>
        <time>2020-03-03T23:35:08Z</time>
      </trkpt>
      <trkpt lat="44.53599" lon="6.78258">
        <ele>1570.608</ele>
        <time>2020-03-03T23:35:28Z</time>
      </trkpt>
      <trkpt lat="44.53555" lon="6.78256">
        <ele>1568.746</ele>
        <time>2020-03-03T23:35:48Z</time>
      </trkpt>
      <trkpt lat="44.53552" lon="6.78272">
        <ele>1570.819</ele>
        <time>2020-03-03T23:36:08Z</time>
      </trkpt>
      <trkpt lat="44.53557" lon="6.78282">
        <ele>1572.626</ele>
        <time>2020-03-03T23:36:28Z</time>
      </trkpt>
      <trkpt lat="44.53589" lon="6.7829">
        <ele>1573.025</ele>
        <time>2020-03-03T23:36:48Z</time>
      </trkpt>
      <trkpt lat="44.53616" lon="6.78311">
        <ele>1578.683</ele>
        <time>2020-03-03T23:37:08Z</time>
      </trkpt>
      <trkpt lat="44.53654" lon="6.78331">
        <ele>1581.364</ele>
        <time>2020-03-03T23:37:28Z</time>
      </trkpt>
      <trkpt lat="44.53692" lon="6.78338">
        <ele>1586.616</ele>
        <time>2020-03-03T23:37:48Z</time>
      </trkpt>
      <trkpt lat="44.53737" lon="6.78322">
        <ele>1595.252</ele>
        <time>2020-03-03T23:38:08Z</time>
      </trkpt>
      <trkpt lat="44.53766" lon="6.78293">
        <ele>1596.512</ele>
        <time>2020-03-03T23:38:28Z</time>
      </trkpt>
      <trkpt lat="44.53765" lon="6.78305">
        <ele>1599.432</ele>
        <time>2020-03-03T23:38:48Z</time>
      </trkpt>
      <trkpt lat="44.53711" lon="6.78361">
        <ele>1600.905</ele>
        <time>2020-03-03T23:39:08Z</time>
      </trkpt>
      <trkpt lat="44.53688" lon="6.78386">
        <ele>1605.708</ele>
        <time>2020-03-03T23:39:28Z</time>
      </trkpt>
      <trkpt lat="44.53661" lon="6.784">
        <ele>1605.145</ele>
        <time>2020-03-03T23:39:48Z</time>
      </trkpt>
      <trkpt lat="44.53638" lon="6.78437">
        <ele>1612.238</ele>
        <time>2020-03-03T23:40:08Z</time>
      </trkpt>
      <trkpt lat="44.53642" lon="6.78466">
        <ele>1625.445</ele>
        <time>2020-03-03T23:40:28Z</time>
      </trkpt>
      <trkpt lat="44.53654" lon="6.78475">
        <ele>1629.734</ele>
        <time>2020-03-03T23:40:48Z</time>
      </trkpt>
      <trkpt lat="44.53662" lon="6.78485">
        <ele>1630.952</ele>
        <time>2020-03-03T23:41:08Z</time>
      </trkpt>
      <trkpt lat="44.53656" lon="6.78515">
        <ele>1626.093</ele>
        <time>2020-03-03T23:41:28Z</time>
      </trkpt>
      <trkpt lat="44.53643" lon="6.78537">
        <ele>1607.745</ele>
        <time>2020-03-03T23:41:48Z</time>
      </trkpt>
      <trkpt lat="44.53646" lon="6.78559">
        <ele>1595.471</ele>
        <time>2020-03-03T23:42:08Z</time>
      </trkpt>
      <trkpt lat="44.5363" lon="6.78576">
        <ele>1558.388</ele>
        <time>2020-03-03T23:42:28Z</time>
      </trkpt>
      <trkpt lat="44.53617" lon="6.78577">
        <ele>1560.324</ele>
        <time>2020-03-03T23:42:48Z</time>
      </trkpt>
      <trkpt lat="44.53601" lon="6.78581">
        <ele>1576.426</ele>
        <time>2020-03-03T23:43:08Z</time>
      </trkpt>
      <trkpt lat="44.53576" lon="6.78603">
        <ele>1627.708</ele>
        <time>2020-03-03T23:43:28Z</time>
      </trkpt>
      <trkpt lat="44.53544" lon="6.78568">
        <ele>1608.662</ele>
        <time>2020-03-03T23:43:48Z</time>
      </trkpt>
      <trkpt lat="44.53513" lon="6.78568">
        <ele>1620.695</ele>
        <time>2020-03-03T23:44:08Z</time>
      </trkpt>
      <trkpt lat="44.53463" lon="6.7859">
        <ele>1631.992</ele>
        <time>2020-03-03T23:44:28Z</time>
      </trkpt>
      <trkpt lat="44.5344" lon="6.78614">
        <ele>1638.341</ele>
        <time>2020-03-03T23:44:48Z</time>
      </trkpt>
      <trkpt lat="44.53404" lon="6.78672">
        <ele>1645.579</ele>
        <time>2020-03-03T23:45:08Z</time>
      </trkpt>
      <trkpt lat="44.53384" lon="6.78706">
        <ele>1650.55</ele>
        <time>2020-03-03T23:45:28Z</time>
      </trkpt>
      <trkpt lat="44.5335" lon="6.78738">
        <ele>1651.632</ele>
        <time>2020-03-03T23:45:48Z</time>
      </trkpt>
      <trkpt lat="44.53304" lon="6.7883">
        <ele>1665.338</ele>
        <time>2020-03-03T23:46:08Z</time>
      </trkpt>
      <trkpt lat="44.53287" lon="6.7883">
        <ele>1665.022</ele>
        <time>2020-03-03T23:46:28Z</time>
      </trkpt>
      <trkpt lat="44.53254" lon="6.78809">
        <ele>1663.462</ele>
        <time>2020-03-03T23:46:48Z</time>
      </trkpt>
      <trkpt lat="44.53237" lon="6.78808">
        <ele>1667.108</ele>
        <time>2020-03-03T23:47:08Z</time>
      </trkpt>
      <trkpt lat="44.53197" lon="6.78811">
        <ele>1675.808</ele>
        <time>2020-03-03T23:47:28Z</time>
      </trkpt>
      <trkpt lat="44.53137" lon="6.78779">
        <ele>1679.226</ele>
        <time>2020-03-03T23:47:48Z</time>
      </trkpt>
      <trkpt lat="44.53081" lon="6.78749">
        <ele>1689.119</ele>
        <time>2020-03-03T23:48:08Z</time>
      </trkpt>
      <trkpt lat="44.53054" lon="6.78742">
        <ele>1691.386</ele>
        <time>2020-03-03T23:48:28Z</time>
      </trkpt>
      <trkpt lat="44.52971" lon="6.78786">
        <ele>1700.315</ele>
        <time>2020-03-03T23:48:48Z</time>
      </trkpt>
      <trkpt lat="44.52951" lon="6.78819">
        <ele>1704.883</ele>
        <time>2020-03-03T23:49:08Z</time>
      </trkpt>
      <trkpt lat="44.52927" lon="6.78846">
        <ele>1710.114</ele>
        <time>2020-03-03T23:49:28Z</time>
      </trkpt>
      <trkpt lat="44.5294" lon="6.78847">
        <ele>1713.196</ele>
        <time>2020-03-03T23:49:48Z</time>
      </trkpt>
      <trkpt lat="44.52972" lon="6.78809">
        <ele>1710.142</ele>
        <time>2020-03-03T23:50:08Z</time>
      </trkpt>
      <trkpt lat="44.53013" lon="6.78805">
        <ele>1717.384</ele>
        <time>2020-03-03T23:50:28Z</time>
      </trkpt>
      <trkpt lat="44.53046" lon="6.78798">
        <ele>1715.207</ele>
        <time>2020-03-03T23:50:48Z</time>
      </trkpt>
      <trkpt lat="44.53062" lon="6.78805">
        <ele>1716.117</ele>
        <time>2020-03-03T23:51:08Z</time>
      </trkpt>
      <trkpt lat="44.53058" lon="6.78814">
        <ele>1719.608</ele>
        <time>2020-03-03T23:51:28Z</time>
      </trkpt>
      <trkpt lat="44.53033" lon="6.78814">
        <ele>1721.122</ele>
        <time>2020-03-03T23:51:48Z</time>
      </trkpt>
      <trkpt lat="44.52975" lon="6.78845">
        <ele>1722.755</ele>
        <time>2020-03-03T23:52:08Z</time>
      </trkpt>
      <trkpt lat="44.5296" lon="6.78875">
        <ele>1728.842</ele>
        <time>2020-03-03T23:52:28Z</time>
      </trkpt>
      <trkpt lat="44.52957" lon="6.789">
        <ele>1736.711</ele>
        <time>2020-03-03T23:52:48Z</time>
      </trkpt>
      <trkpt lat="44.52932" lon="6.78926">
        <ele>1734.869</ele>
        <time>2020-03-03T23:53:08Z</time>
      </trkpt>
      <trkpt lat="44.52908" lon="6.78967">
        <ele>1739.97</ele>
        <time>2020-03-03T23:53:28Z</time>
      </trkpt>
      <trkpt lat="44.52914" lon="6.78978">
        <ele>1745.232</ele>
        <time>2020-03-03T23:53:48Z</time>
      </trkpt>
      <trkpt lat="44.52935" lon="6.78943">
        <ele>1741.928</ele>
        <time>2020-03-03T23:54:08Z</time>
      </trkpt>
      <trkpt lat="44.52952" lon="6.78923">
        <ele>1743.196</ele>
        <time>2020-03-03T23:54:28Z</time>
      </trkpt>
      <trkpt lat="44.5297" lon="6.78912">
        <ele>1748.331</ele>
        <time>2020-03-03T23:54:48Z</time>
      </trkpt>
      <trkpt lat="44.5299" lon="6.78893">
        <ele>1746.324</ele>
        <time>2020-03-03T23:55:08Z</time>
      </trkpt>
      <trkpt lat="44.5303" lon="6.78892">
        <ele>1749.308</ele>
        <time>2020-03-03T23:55:28Z</time>
      </trkpt>
      <trkpt lat="44.53067" lon="6.78912">
        <ele>1751.543</ele>
        <time>2020-03-03T23:55:48Z</time>
      </trkpt>
      <trkpt lat="44.53079" lon="6.7893">
        <ele>1755.676</ele>
        <time>2020-03-03T23:56:08Z</time>
      </trkpt>
      <trkpt lat="44.53071" lon="6.78937">
        <ele>1761.073</ele>
        <time>2020-03-03T23:56:28Z</time>
      </trkpt>
      <trkpt lat="44.5303" lon="6.78925">
        <ele>1762.182</ele>
        <time>2020-03-03T23:56:48Z</time>
      </trkpt>
      <trkpt lat="44.53012" lon="6.78931">
        <ele>1764.13</ele>
        <time>2020-03-03T23:57:08Z</time>
      </trkpt>
      <trkpt lat="44.52957" lon="6.7897">
        <ele>1764.181</ele>
        <time>2020-03-03T23:57:28Z</time>
      </trkpt>
      <trkpt lat="44.52918" lon="6.79095">
        <ele>1790.623</ele>
        <time>2020-03-03T23:57:48Z</time>
      </trkpt>
      <trkpt lat="44.52897" lon="6.79133">
        <ele>1792.069</ele>
        <time>2020-03-03T23:58:08Z</time>
      </trkpt>
      <trkpt lat="44.52873" lon="6.79169">
        <ele>1794.865</ele>
        <time>2020-03-03T23:58:28Z</time>
      </trkpt>
      <trkpt lat="44.52859" lon="6.79206">
        <ele>1800.968</ele>
        <time>2020-03-03T23:58:48Z</time>
      </trkpt>
      <trkpt lat="44.52834" lon="6.79207">
        <ele>1797.114</ele>
        <time>2020-03-03T23:59:08Z</time>
      </trkpt>
      <trkpt lat="44.52773" lon="6.79182">
        <ele>1799.308</ele>
        <time>2020-03-03T23:59:28Z</time>
      </trkpt>
      <trkpt lat="44.52737" lon="6.79206">
        <ele>1811.51</ele>
        <time>2020-03-03T23:59:48Z</time>
      </trkpt>
      <trkpt lat="44.52713" lon="6.79232">
        <ele>1816.983</ele>
        <time>2020-03-04T00:00:08Z</time>
      </trkpt>
      <trkpt lat="44.52674" lon="6.79237">
        <ele>1812.21</ele>
        <time>2020-03-04T00:00:28Z</time>
      </trkpt>
      <trkpt lat="44.52633" lon="6.79265">
        <ele>1822.349</ele>
        <time>2020-03-04T00:00:48Z</time>
      </trkpt>
      <trkpt lat="44.5261" lon="6.79309">
        <ele>1832.697</ele>
        <time>2020-03-04T00:01:08Z</time>
      </trkpt>
      <trkpt lat="44.52598" lon="6.79353">
        <ele>1839.848</ele>
        <time>2020-03-04T00:01:28Z</time>
      </trkpt>
      <trkpt lat="44.52564" lon="6.79429">
        <ele>1845.03</ele>
        <time>2020-03-04T00:01:48Z</time>
      </trkpt>
      <trkpt lat="44.52546" lon="6.79481">
        <ele>1851.686</ele>
        <time>2020-03-04T00:02:08Z</time>
      </trkpt>
      <trkpt lat="44.52508" lon="6.79547">
        <ele>1855.837</ele>
        <time>2020-03-04T00:02:28Z</time>
      </trkpt>
      <trkpt lat="44.52474" lon="6.79584">
        <ele>1860.349</ele>
        <time>2020-03-04T00:02:48Z</time>
      </trkpt>
      <trkpt lat="44.52457" lon="6.79625">
        <ele>1862.213</ele>
        <time>2020-03-04T00:03:08Z</time>
      </trkpt>
      <trkpt lat="44.52461" lon="6.79678">
        <ele>1870.808</ele>
        <time>2020-03-04T00:03:28Z</time>
      </trkpt>
      <trkpt lat="44.52487" lon="6.7974">
        <ele>1880.747</ele>
        <time>2020-03-04T00:03:48Z</time>
      </trkpt>
      <trkpt lat="44.525" lon="6.79777">
        <ele>1885.03</ele>
        <time>2020-03-04T00:04:08Z</time>
      </trkpt>
      <trkpt lat="44.52509" lon="6.79832">
        <ele>1885.557</ele>
        <time>2020-03-04T00:04:28Z</time>
      </trkpt>
      <trkpt lat="44.52513" lon="6.79855">
        <ele>1886.426</ele>
        <time>2020-03-04T00:04:48Z</time>
      </trkpt>
      <trkpt lat="44.52526" lon="6.79894">
        <ele>1891.084</ele>
        <time>2020-03-04T00:05:08Z</time>
      </trkpt>
      <trkpt lat="44.5254" lon="6.79977">
        <ele>1891.755</ele>
        <time>2020-03-04T00:05:28Z</time>
      </trkpt>
      <trkpt lat="44.5255" lon="6.80016">
        <ele>1893.767</ele>
        <time>2020-03-04T00:05:48Z</time>
      </trkpt>
      <trkpt lat="44.52545" lon="6.80089">
        <ele>1890.153</ele>
        <time>2020-03-04T00:06:08Z</time>
      </trkpt>
      <trkpt lat="44.5255" lon="6.80129">
        <ele>1891.663</ele>
        <time>2020-03-04T00:06:28Z</time>
      </trkpt>
      <trkpt lat="44.52557" lon="6.80161">
        <ele>1895.244</ele>
        <time>2020-03-04T00:06:48Z</time>
      </trkpt>
      <trkpt lat="44.52564" lon="6.80178">
        <ele>1898.318</ele>
        <time>2020-03-04T00:07:08Z</time>
      </trkpt>
      <trkpt lat="44.52572" lon="6.8021">
        <ele>1899.308</ele>
        <time>2020-03-04T00:07:28Z</time>
      </trkpt>
      <trkpt lat="44.52587" lon="6.80253">
        <ele>1901.82</ele>
        <time>2020-03-04T00:07:48Z</time>
      </trkpt>
      <trkpt lat="44.52598" lon="6.80297">
        <ele>1901.493</ele>
        <time>2020-03-04T00:08:08Z</time>
      </trkpt>
      <trkpt lat="44.52596" lon="6.80327">
        <ele>1896.64</ele>
        <time>2020-03-04T00:08:28Z</time>
      </trkpt>
      <trkpt lat="44.526" lon="6.80365">
        <ele>1897.029</ele>
        <time>2020-03-04T00:08:48Z</time>
      </trkpt>
      <trkpt lat="44.52598" lon="6.80414">
        <ele>1896.557</ele>
        <time>2020-03-04T00:09:08Z</time>
      </trkpt>
      <trkpt lat="44.52602" lon="6.80429">
        <ele>1899.018</ele>
        <time>2020-03-04T00:09:28Z</time>
      </trkpt>
      <trkpt lat="44.52583" lon="6.80506">
        <ele>1900.07</ele>
        <time>2020-03-04T00:09:48Z</time>
      </trkpt>
      <trkpt lat="44.52573" lon="6.80531">
        <ele>1900.926</ele>
        <time>2020-03-04T00:10:08Z</time>
      </trkpt>
      <trkpt lat="44.52563" lon="6.80579">
        <ele>1903.452</ele>
        <time>2020-03-04T00:10:28Z</time>
      </trkpt>
      <trkpt lat="44.52563" lon="6.80613">
        <ele>1905.253</ele>
        <time>2020-03-04T00:10:48Z</time>
      </trkpt>
      <trkpt lat="44.52548" lon="6.80686">
        <ele>1909.108</ele>
        <time>2020-03-04T00:11:08Z</time>
      </trkpt>
      <trkpt lat="44.52529" lon="6.80741">
        <ele>1909.808</ele>
        <time>2020-03-04T00:11:28Z</time>
      </trkpt>
      <trkpt lat="44.52506" lon="6.80768">
        <ele>1910.929</ele>
        <time>2020-03-04T00:11:48Z</time>
      </trkpt>
      <trkpt lat="44.52478" lon="6.80791">
        <ele>1915.672</ele>
        <time>2020-03-04T00:12:08Z</time>
      </trkpt>
      <trkpt lat="44.5247" lon="6.80804">
        <ele>1917.079</ele>
        <time>2020-03-04T00:12:28Z</time>
      </trkpt>
      <trkpt lat="44.52457" lon="6.80824">
        <ele>1919.038</ele>
        <time>2020-03-04T00:12:48Z</time>
      </trkpt>
      <trkpt lat="44.52439" lon="6.80835">
        <ele>1919.676</ele>
        <time>2020-03-04T00:13:08Z</time>
      </trkpt>
      <trkpt lat="44.52411" lon="6.80846">
        <ele>1922.427</ele>
        <time>2020-03-04T00:13:28Z</time>
      </trkpt>
      <trkpt lat="44.52396" lon="6.80862">
        <ele>1925.219</ele>
        <time>2020-03-04T00:13:48Z</time>
      </trkpt>
      <trkpt lat="44.5238" lon="6.80891">
        <ele>1928.645</ele>
        <time>2020-03-04T00:14:08Z</time>
      </trkpt>
      <trkpt lat="44.52376" lon="6.8093">
        <ele>1933.744</ele>
        <time>2020-03-04T00:14:28Z</time>
      </trkpt>
      <trkpt lat="44.52375" lon="6.80943">
        <ele>1936.305</ele>
        <time>2020-03-04T00:14:48Z</time>
      </trkpt>
      <trkpt lat="44.52371" lon="6.80952">
        <ele>1937.215</ele>
        <time>2020-03-04T00:15:08Z</time>
      </trkpt>
      <trkpt lat="44.5237" lon="6.80964">
        <ele>1939.008</ele>
        <time>2020-03-04T00:15:28Z</time>
      </trkpt>
      <trkpt lat="44.52359" lon="6.80991">
        <ele>1943.268</ele>
        <time>2020-03-04T00:15:48Z</time>
      </trkpt>
      <trkpt lat="44.52345" lon="6.81004">
        <ele>1945.151</ele>
        <time>2020-03-04T00:16:08Z</time>
      </trkpt>
      <trkpt lat="44.52334" lon="6.81047">
        <ele>1953.368</ele>
        <time>2020-03-04T00:16:28Z</time>
      </trkpt>
      <trkpt lat="44.52323" lon="6.8108">
        <ele>1957.717</ele>
        <time>2020-03-04T00:16:48Z</time>
      </trkpt>
      <trkpt lat="44.52308" lon="6.81109">
        <ele>1962.955</ele>
        <time>2020-03-04T00:17:08Z</time>
      </trkpt>
      <trkpt lat="44.52293" lon="6.8114">
        <ele>1968.976</ele>
        <time>2020-03-04T00:17:28Z</time>
      </trkpt>
      <trkpt lat="44.52274" lon="6.81173">
        <ele>1976.678</ele>
        <time>2020-03-04T00:17:48Z</time>
      </trkpt>
      <trkpt lat="44.52245" lon="6.81211">
        <ele>1980.694</ele>
        <time>2020-03-04T00:18:08Z</time>
      </trkpt>
      <trkpt lat="44.52225" lon="6.81234">
        <ele>1985.944</ele>
        <time>2020-03-04T00:18:28Z</time>
      </trkpt>
      <trkpt lat="44.52219" lon="6.81249">
        <ele>1989.005</ele>
        <time>2020-03-04T00:18:48Z</time>
      </trkpt>
      <trkpt lat="44.52195" lon="6.81271">
        <ele>1990.715</ele>
        <time>2020-03-04T00:19:08Z</time>
      </trkpt>
      <trkpt lat="44.52179" lon="6.81307">
        <ele>1995.508</ele>
        <time>2020-03-04T00:19:28Z</time>
      </trkpt>
      <trkpt lat="44.5215" lon="6.81341">
        <ele>2001.798</ele>
        <time>2020-03-04T00:19:48Z</time>
      </trkpt>
      <trkpt lat="44.52125" lon="6.81356">
        <ele>2004.891</ele>
        <time>2020-03-04T00:20:08Z</time>
      </trkpt>
      <trkpt lat="44.5209" lon="6.81374">
        <ele>2009.288</ele>
        <time>2020-03-04T00:20:28Z</time>
      </trkpt>
      <trkpt lat="44.5206" lon="6.81401">
        <ele>2009.977</ele>
        <time>2020-03-04T00:20:48Z</time>
      </trkpt>
      <trkpt lat="44.52041" lon="6.81428">
        <ele>2011.255</ele>
        <time>2020-03-04T00:21:08Z</time>
      </trkpt>
      <trkpt lat="44.52033" lon="6.8146">
        <ele>2014.136</ele>
        <time>2020-03-04T00:21:28Z</time>
      </trkpt>
      <trkpt lat="44.52033" lon="6.81491">
        <ele>2015.988</ele>
        <time>2020-03-04T00:21:48Z</time>
      </trkpt>
      <trkpt lat="44.52018" lon="6.81567">
        <ele>2019.644</ele>
        <time>2020-03-04T00:22:08Z</time>
      </trkpt>
      <trkpt lat="44.52007" lon="6.81579">
        <ele>2022.749</ele>
        <time>2020-03-04T00:22:28Z</time>
      </trkpt>
      <trkpt lat="44.51985" lon="6.81576">
        <ele>2029.202</ele>
        <time>2020-03-04T00:22:48Z</time>
      </trkpt>
      <trkpt lat="44.51972" lon="6.81598">
        <ele>2035.122</ele>
        <time>2020-03-04T00:23:08Z</time>
      </trkpt>
      <trkpt lat="44.51957" lon="6.81601">
        <ele>2039.108</ele>
        <time>2020-03-04T00:23:28Z</time>
      </trkpt>
      <trkpt lat="44.51946" lon="6.81597">
        <ele>2041.668</ele>
        <time>2020-03-04T00:23:48Z</time>
      </trkpt>
      <trkpt lat="44.51948" lon="6.81609">
        <ele>2041.961</ele>
        <time>2020-03-04T00:24:08Z</time>
      </trkpt>
      <trkpt lat="44.5195" lon="6.81622">
        <ele>2042.238</ele>
        <time>2020-03-04T00:24:28Z</time>
      </trkpt>
      <trkpt lat="44.51929" lon="6.8162">
        <ele>2046.387</ele>
        <time>2020-03-04T00:24:48Z</time>
      </trkpt>
      <trkpt lat="44.51933" lon="6.81638">
        <ele>2047.475</ele>
        <time>2020-03-04T00:25:08Z</time>
      </trkpt>
      <trkpt lat="44.51914" lon="6.81642">
        <ele>2051.556</ele>
        <time>2020-03-04T00:25:28Z</time>
      </trkpt>
      <trkpt lat="44.51899" lon="6.81641">
        <ele>2052.058</ele>
        <time>2020-03-04T00:25:48Z</time>
      </trkpt>
      <trkpt lat="44.51896" lon="6.81652">
        <ele>2053.964</ele>
        <time>2020-03-04T00:26:08Z</time>
      </trkpt>
      <trkpt lat="44.51884" lon="6.81664">
        <ele>2056.118</ele>
        <time>2020-03-04T00:26:28Z</time>
      </trkpt>
      <trkpt lat="44.51896" lon="6.81682">
        <ele>2058.798</ele>
        <time>2020-03-04T00:26:48Z</time>
      </trkpt>
      <trkpt lat="44.51899" lon="6.81695">
        <ele>2060.317</ele>
        <time>2020-03-04T00:27:08Z</time>
      </trkpt>
      <trkpt lat="44.51904" lon="6.81707">
        <ele>2061.508</ele>
        <time>2020-03-04T00:27:28Z</time>
      </trkpt>
      <trkpt lat="44.51895" lon="6.81717">
        <ele>2065.585</ele>
        <time>2020-03-04T00:27:48Z</time>
      </trkpt>
      <trkpt lat="44.51885" lon="6.81714">
        <ele>2066.278</ele>
        <time>2020-03-04T00:28:08Z</time>
      </trkpt>
      <trkpt lat="44.51874" lon="6.8172">
        <ele>2068.165</ele>
        <time>2020-03-04T00:28:28Z</time>
      </trkpt>
      <trkpt lat="44.51872" lon="6.81754">
        <ele>2075.124</ele>
        <time>2020-03-04T00:28:48Z</time>
      </trkpt>
      <trkpt lat="44.51856" lon="6.81755">
        <ele>2076.752</ele>
        <time>2020-03-04T00:29:08Z</time>
      </trkpt>
      <trkpt lat="44.51839" lon="6.81754">
        <ele>2075.473</ele>
        <time>2020-03-04T00:29:28Z</time>
      </trkpt>
      <trkpt lat="44.51823" lon="6.81777">
        <ele>2078.285</ele>
        <time>2020-03-04T00:29:48Z</time>
      </trkpt>
      <trkpt lat="44.51825" lon="6.81785">
        <ele>2080.461</ele>
        <time>2020-03-04T00:30:08Z</time>
      </trkpt>
      <trkpt lat="44.5183" lon="6.81791">
        <ele>2082.746</ele>
        <time>2020-03-04T00:30:28Z</time>
      </trkpt>
      <trkpt lat="44.51827" lon="6.81808">
        <ele>2085.888</ele>
        <time>2020-03-04T00:30:48Z</time>
      </trkpt>
      <trkpt lat="44.5181" lon="6.81838">
        <ele>2091.116</ele>
        <time>2020-03-04T00:31:08Z</time>
      </trkpt>
      <trkpt lat="44.51799" lon="6.81857">
        <ele>2094.908</ele>
        <time>2020-03-04T00:31:28Z</time>
      </trkpt>
      <trkpt lat="44.51776" lon="6.81913">
        <ele>2105.258</ele>
        <time>2020-03-04T00:31:48Z</time>
      </trkpt>
      <trkpt lat="44.51762" lon="6.81935">
        <ele>2108.731</ele>
        <time>2020-03-04T00:32:08Z</time>
      </trkpt>
      <trkpt lat="44.51735" lon="6.81984">
        <ele>2117.088</ele>
        <time>2020-03-04T00:32:28Z</time>
      </trkpt>
      <trkpt lat="44.51717" lon="6.82021">
        <ele>2122.177</ele>
        <time>2020-03-04T00:32:48Z</time>
      </trkpt>
      <trkpt lat="44.51704" lon="6.82058">
        <ele>2126.365</ele>
        <time>2020-03-04T00:33:08Z</time>
      </trkpt>
      <trkpt lat="44.51697" lon="6.82078">
        <ele>2129.076</ele>
        <time>2020-03-04T00:33:28Z</time>
      </trkpt>
      <trkpt lat="44.51682" lon="6.82097">
        <ele>2132.098</ele>
        <time>2020-03-04T00:33:48Z</time>
      </trkpt>
      <trkpt lat="44.5168" lon="6.82132">
        <ele>2139.024</ele>
        <time>2020-03-04T00:34:08Z</time>
      </trkpt>
      <trkpt lat="44.51662" lon="6.82149">
        <ele>2141.398</ele>
        <time>2020-03-04T00:34:28Z</time>
      </trkpt>
      <trkpt lat="44.51647" lon="6.82173">
        <ele>2145.015</ele>
        <time>2020-03-04T00:34:48Z</time>
      </trkpt>
      <trkpt lat="44.51643" lon="6.82181">
        <ele>2146.926</ele>
        <time>2020-03-04T00:35:08Z</time>
      </trkpt>
      <trkpt lat="44.51629" lon="6.82194">
        <ele>2148.708</ele>
        <time>2020-03-04T00:35:28Z</time>
      </trkpt>
      <trkpt lat="44.51638" lon="6.822">
        <ele>2151.443</ele>
        <time>2020-03-04T00:35:48Z</time>
      </trkpt>
      <trkpt lat="44.5165" lon="6.82199">
        <ele>2151.656</ele>
        <time>2020-03-04T00:36:08Z</time>
      </trkpt>
      <trkpt lat="44.51657" lon="6.82204">
        <ele>2153.063</ele>
        <time>2020-03-04T00:36:28Z</time>
      </trkpt>
      <trkpt lat="44.51657" lon="6.82216">
        <ele>2155.732</ele>
        <time>2020-03-04T00:36:48Z</time>
      </trkpt>
      <trkpt lat="44.51653" lon="6.82227">
        <ele>2158.59</ele>
        <time>2020-03-04T00:37:08Z</time>
      </trkpt>
      <trkpt lat="44.51636" lon="6.82247">
        <ele>2163.581</ele>
        <time>2020-03-04T00:37:28Z</time>
      </trkpt>
      <trkpt lat="44.51624" lon="6.82264">
        <ele>2167.673</ele>
        <time>2020-03-04T00:37:48Z</time>
      </trkpt>
      <trkpt lat="44.51603" lon="6.82279">
        <ele>2172.549</ele>
        <time>2020-03-04T00:38:08Z</time>
      </trkpt>
      <trkpt lat="44.51592" lon="6.82285">
        <ele>2174.046</ele>
        <time>2020-03-04T00:38:28Z</time>
      </trkpt>
      <trkpt lat="44.51579" lon="6.82303">
        <ele>2178.188</ele>
        <time>2020-03-04T00:38:48Z</time>
      </trkpt>
      <trkpt lat="44.51568" lon="6.82314">
        <ele>2179.116</ele>
        <time>2020-03-04T00:39:08Z</time>
      </trkpt>
      <trkpt lat="44.51567" lon="6.82335">
        <ele>2180.908</ele>
        <time>2020-03-04T00:39:28Z</time>
      </trkpt>
      <trkpt lat="44.51559" lon="6.82364">
        <ele>2183.988</ele>
        <time>2020-03-04T00:39:48Z</time>
      </trkpt>
      <trkpt lat="44.51546" lon="6.82394">
        <ele>2188.411</ele>
        <time>2020-03-04T00:40:08Z</time>
      </trkpt>
      <trkpt lat="44.51539" lon="6.8241">
        <ele>2190.928</ele>
        <time>2020-03-04T00:40:28Z</time>
      </trkpt>
      <trkpt lat="44.5154" lon="6.82425">
        <ele>2193.247</ele>
        <time>2020-03-04T00:40:48Z</time>
      </trkpt>
      <trkpt lat="44.51535" lon="6.82435">
        <ele>2195.415</ele>
        <time>2020-03-04T00:41:08Z</time>
      </trkpt>
      <trkpt lat="44.51526" lon="6.82448">
        <ele>2197.476</ele>
        <time>2020-03-04T00:41:28Z</time>
      </trkpt>
      <trkpt lat="44.51539" lon="6.82463">
        <ele>2199.948</ele>
        <time>2020-03-04T00:41:48Z</time>
      </trkpt>
      <trkpt lat="44.5154" lon="6.82478">
        <ele>2202.424</ele>
        <time>2020-03-04T00:42:08Z</time>
      </trkpt>
      <trkpt lat="44.51539" lon="6.82499">
        <ele>2205.449</ele>
        <time>2020-03-04T00:42:28Z</time>
      </trkpt>
      <trkpt lat="44.51538" lon="6.82512">
        <ele>2206.802</ele>
        <time>2020-03-04T00:42:48Z</time>
      </trkpt>
      <trkpt lat="44.51532" lon="6.82519">
        <ele>2207.422</ele>
        <time>2020-03-04T00:43:08Z</time>
      </trkpt>
      <trkpt lat="44.51529" lon="6.82517">
        <ele>2207.208</ele>
        <time>2020-03-04T00:43:28Z</time>
      </trkpt>
      <trkpt lat="44.51536" lon="6.82509">
        <ele>2206.538</ele>
        <time>2020-03-04T00:43:48Z</time>
      </trkpt>
      <trkpt lat="44.51538" lon="6.82481">
        <ele>2202.731</ele>
        <time>2020-03-04T00:44:08Z</time>
      </trkpt>
      <trkpt lat="44.51536" lon="6.82465">
        <ele>2200.198</ele>
        <time>2020-03-04T00:44:28Z</time>
      </trkpt>
      <trkpt lat="44.51524" lon="6.82448">
        <ele>2197.187</ele>
        <time>2020-03-04T00:44:48Z</time>
      </trkpt>
      <trkpt lat="44.51538" lon="6.82424">
        <ele>2193.315</ele>
        <time>2020-03-04T00:45:08Z</time>
      </trkpt>
      <trkpt lat="44.51538" lon="6.82408">
        <ele>2190.726</ele>
        <time>2020-03-04T00:45:28Z</time>
      </trkpt>
      <trkpt lat="44.51556" lon="6.82365">
        <ele>2184.338</ele>
        <time>2020-03-04T00:45:48Z</time>
      </trkpt>
      <trkpt lat="44.51564" lon="6.82334">
        <ele>2181.194</ele>
        <time>2020-03-04T00:46:08Z</time>
      </trkpt>
      <trkpt lat="44.51566" lon="6.82312">
        <ele>2178.995</ele>
        <time>2020-03-04T00:46:28Z</time>
      </trkpt>
      <trkpt lat="44.51579" lon="6.82299">
        <ele>2177.349</ele>
        <time>2020-03-04T00:46:48Z</time>
      </trkpt>
      <trkpt lat="44.51591" lon="6.82281">
        <ele>2173.223</ele>
        <time>2020-03-04T00:47:08Z</time>
      </trkpt>
      <trkpt lat="44.51622" lon="6.82262">
        <ele>2167.308</ele>
        <time>2020-03-04T00:47:28Z</time>
      </trkpt>
      <trkpt lat="44.5165" lon="6.82227">
        <ele>2158.643</ele>
        <time>2020-03-04T00:47:48Z</time>
      </trkpt>
      <trkpt lat="44.51655" lon="6.82216">
        <ele>2155.956</ele>
        <time>2020-03-04T00:48:08Z</time>
      </trkpt>
      <trkpt lat="44.51654" lon="6.82207">
        <ele>2153.583</ele>
        <time>2020-03-04T00:48:28Z</time>
      </trkpt>
      <trkpt lat="44.5165" lon="6.82202">
        <ele>2152.242</ele>
        <time>2020-03-04T00:48:48Z</time>
      </trkpt>
      <trkpt lat="44.51637" lon="6.82203">
        <ele>2152.21</ele>
        <time>2020-03-04T00:49:08Z</time>
      </trkpt>
      <trkpt lat="44.51625" lon="6.82193">
        <ele>2148.111</ele>
        <time>2020-03-04T00:49:28Z</time>
      </trkpt>
      <trkpt lat="44.51641" lon="6.82178">
        <ele>2146.023</ele>
        <time>2020-03-04T00:49:48Z</time>
      </trkpt>
      <trkpt lat="44.51646" lon="6.82169">
        <ele>2144.149</ele>
        <time>2020-03-04T00:50:08Z</time>
      </trkpt>
      <trkpt lat="44.5166" lon="6.82147">
        <ele>2140.854</ele>
        <time>2020-03-04T00:50:28Z</time>
      </trkpt>
      <trkpt lat="44.51678" lon="6.82129">
        <ele>2138.356</ele>
        <time>2020-03-04T00:50:48Z</time>
      </trkpt>
      <trkpt lat="44.51679" lon="6.82095">
        <ele>2131.611</ele>
        <time>2020-03-04T00:51:08Z</time>
      </trkpt>
      <trkpt lat="44.51695" lon="6.82075">
        <ele>2128.808</ele>
        <time>2020-03-04T00:51:28Z</time>
      </trkpt>
      <trkpt lat="44.51715" lon="6.82022">
        <ele>2122.029</ele>
        <time>2020-03-04T00:51:48Z</time>
      </trkpt>
      <trkpt lat="44.51734" lon="6.8198">
        <ele>2116.532</ele>
        <time>2020-03-04T00:52:08Z</time>
      </trkpt>
      <trkpt lat="44.51774" lon="6.81911">
        <ele>2104.849</ele>
        <time>2020-03-04T00:52:28Z</time>
      </trkpt>
      <trkpt lat="44.51799" lon="6.81853">
        <ele>2093.958</ele>
        <time>2020-03-04T00:52:48Z</time>
      </trkpt>
      <trkpt lat="44.51822" lon="6.81813">
        <ele>2086.146</ele>
        <time>2020-03-04T00:53:08Z</time>
      </trkpt>
      <trkpt lat="44.51826" lon="6.81805">
        <ele>2085.017</ele>
        <time>2020-03-04T00:53:28Z</time>
      </trkpt>
      <trkpt lat="44.51828" lon="6.81791">
        <ele>2082.459</ele>
        <time>2020-03-04T00:53:48Z</time>
      </trkpt>
      <trkpt lat="44.51823" lon="6.81787">
        <ele>2080.545</ele>
        <time>2020-03-04T00:54:08Z</time>
      </trkpt>
      <trkpt lat="44.51821" lon="6.81776">
        <ele>2077.484</ele>
        <time>2020-03-04T00:54:28Z</time>
      </trkpt>
      <trkpt lat="44.5184" lon="6.8175">
        <ele>2074.407</ele>
        <time>2020-03-04T00:54:48Z</time>
      </trkpt>
      <trkpt lat="44.51855" lon="6.81753">
        <ele>2076.217</ele>
        <time>2020-03-04T00:55:08Z</time>
      </trkpt>
      <trkpt lat="44.5187" lon="6.81751">
        <ele>2075.008</ele>
        <time>2020-03-04T00:55:28Z</time>
      </trkpt>
      <trkpt lat="44.51872" lon="6.81719">
        <ele>2067.762</ele>
        <time>2020-03-04T00:55:48Z</time>
      </trkpt>
      <trkpt lat="44.51885" lon="6.81711">
        <ele>2065.665</ele>
        <time>2020-03-04T00:56:08Z</time>
      </trkpt>
      <trkpt lat="44.51894" lon="6.81715">
        <ele>2065.142</ele>
        <time>2020-03-04T00:56:28Z</time>
      </trkpt>
      <trkpt lat="44.51901" lon="6.81708">
        <ele>2062.391</ele>
        <time>2020-03-04T00:56:48Z</time>
      </trkpt>
      <trkpt lat="44.51897" lon="6.81698">
        <ele>2061.299</ele>
        <time>2020-03-04T00:57:08Z</time>
      </trkpt>
      <trkpt lat="44.51895" lon="6.81684">
        <ele>2059.23</ele>
        <time>2020-03-04T00:57:28Z</time>
      </trkpt>
      <trkpt lat="44.51881" lon="6.81661">
        <ele>2055.592</ele>
        <time>2020-03-04T00:57:48Z</time>
      </trkpt>
      <trkpt lat="44.51895" lon="6.8165">
        <ele>2053.668</ele>
        <time>2020-03-04T00:58:08Z</time>
      </trkpt>
      <trkpt lat="44.51897" lon="6.81637">
        <ele>2051.482</ele>
        <time>2020-03-04T00:58:28Z</time>
      </trkpt>
      <trkpt lat="44.51917" lon="6.81639">
        <ele>2051.043</ele>
        <time>2020-03-04T00:58:48Z</time>
      </trkpt>
      <trkpt lat="44.51929" lon="6.81636">
        <ele>2047.917</ele>
        <time>2020-03-04T00:59:08Z</time>
      </trkpt>
      <trkpt lat="44.51926" lon="6.81617">
        <ele>2046.408</ele>
        <time>2020-03-04T00:59:28Z</time>
      </trkpt>
      <trkpt lat="44.51948" lon="6.8162">
        <ele>2042.652</ele>
        <time>2020-03-04T00:59:48Z</time>
      </trkpt>
      <trkpt lat="44.51943" lon="6.81594">
        <ele>2041.955</ele>
        <time>2020-03-04T01:00:08Z</time>
      </trkpt>
      <trkpt lat="44.51956" lon="6.81597">
        <ele>2039.092</ele>
        <time>2020-03-04T01:00:28Z</time>
      </trkpt>
      <trkpt lat="44.5197" lon="6.81595">
        <ele>2035.471</ele>
        <time>2020-03-04T01:00:48Z</time>
      </trkpt>
      <trkpt lat="44.51985" lon="6.81569">
        <ele>2028.529</ele>
        <time>2020-03-04T01:01:08Z</time>
      </trkpt>
      <trkpt lat="44.52005" lon="6.81575">
        <ele>2023.14</ele>
        <time>2020-03-04T01:01:28Z</time>
      </trkpt>
      <trkpt lat="44.52016" lon="6.81565">
        <ele>2019.912</ele>
        <time>2020-03-04T01:01:48Z</time>
      </trkpt>
      <trkpt lat="44.52032" lon="6.81488">
        <ele>2016.058</ele>
        <time>2020-03-04T01:02:08Z</time>
      </trkpt>
      <trkpt lat="44.52031" lon="6.81458">
        <ele>2014.425</ele>
        <time>2020-03-04T01:02:28Z</time>
      </trkpt>
      <trkpt lat="44.52038" lon="6.81427">
        <ele>2011.326</ele>
        <time>2020-03-04T01:02:48Z</time>
      </trkpt>
      <trkpt lat="44.5206" lon="6.81395">
        <ele>2009.908</ele>
        <time>2020-03-04T01:03:08Z</time>
      </trkpt>
      <trkpt lat="44.52091" lon="6.8137">
        <ele>2009.108</ele>
        <time>2020-03-04T01:03:28Z</time>
      </trkpt>
      <trkpt lat="44.52148" lon="6.81341">
        <ele>2002.016</ele>
        <time>2020-03-04T01:03:48Z</time>
      </trkpt>
      <trkpt lat="44.52176" lon="6.81305">
        <ele>1995.979</ele>
        <time>2020-03-04T01:04:08Z</time>
      </trkpt>
      <trkpt lat="44.52195" lon="6.81266">
        <ele>1990.516</ele>
        <time>2020-03-04T01:04:28Z</time>
      </trkpt>
      <trkpt lat="44.52217" lon="6.81247">
        <ele>1988.885</ele>
        <time>2020-03-04T01:04:48Z</time>
      </trkpt>
      <trkpt lat="44.52225" lon="6.81232">
        <ele>1985.853</ele>
        <time>2020-03-04T01:05:08Z</time>
      </trkpt>
      <trkpt lat="44.52271" lon="6.81172">
        <ele>1976.614</ele>
        <time>2020-03-04T01:05:28Z</time>
      </trkpt>
      <trkpt lat="44.52292" lon="6.81135">
        <ele>1968.256</ele>
        <time>2020-03-04T01:05:48Z</time>
      </trkpt>
      <trkpt lat="44.52322" lon="6.81078">
        <ele>1957.332</ele>
        <time>2020-03-04T01:06:08Z</time>
      </trkpt>
      <trkpt lat="44.52345" lon="6.80999">
        <ele>1944.264</ele>
        <time>2020-03-04T01:06:28Z</time>
      </trkpt>
      <trkpt lat="44.52357" lon="6.8099">
        <ele>1943.006</ele>
        <time>2020-03-04T01:06:48Z</time>
      </trkpt>
      <trkpt lat="44.52369" lon="6.8096">
        <ele>1938.416</ele>
        <time>2020-03-04T01:07:08Z</time>
      </trkpt>
      <trkpt lat="44.52369" lon="6.80952">
        <ele>1937.008</ele>
        <time>2020-03-04T01:07:28Z</time>
      </trkpt>
      <trkpt lat="44.52373" lon="6.80942">
        <ele>1935.73</ele>
        <time>2020-03-04T01:07:48Z</time>
      </trkpt>
      <trkpt lat="44.52378" lon="6.80891">
        <ele>1928.613</ele>
        <time>2020-03-04T01:08:08Z</time>
      </trkpt>
      <trkpt lat="44.52395" lon="6.80858">
        <ele>1925.17</ele>
        <time>2020-03-04T01:08:28Z</time>
      </trkpt>
      <trkpt lat="44.52409" lon="6.80845">
        <ele>1922.819</ele>
        <time>2020-03-04T01:08:48Z</time>
      </trkpt>
      <trkpt lat="44.52439" lon="6.80833">
        <ele>1919.447</ele>
        <time>2020-03-04T01:09:08Z</time>
      </trkpt>
      <trkpt lat="44.52456" lon="6.80821">
        <ele>1918.988</ele>
        <time>2020-03-04T01:09:28Z</time>
      </trkpt>
      <trkpt lat="44.52477" lon="6.80789">
        <ele>1915.57</ele>
        <time>2020-03-04T01:09:48Z</time>
      </trkpt>
      <trkpt lat="44.52507" lon="6.80762">
        <ele>1910.436</ele>
        <time>2020-03-04T01:10:08Z</time>
      </trkpt>
      <trkpt lat="44.52527" lon="6.80739">
        <ele>1909.661</ele>
        <time>2020-03-04T01:10:28Z</time>
      </trkpt>
      <trkpt lat="44.52546" lon="6.80684">
        <ele>1908.521</ele>
        <time>2020-03-04T01:10:48Z</time>
      </trkpt>
      <trkpt lat="44.52561" lon="6.80616">
        <ele>1904.713</ele>
        <time>2020-03-04T01:11:08Z</time>
      </trkpt>
      <trkpt lat="44.52561" lon="6.8058">
        <ele>1902.708</ele>
        <time>2020-03-04T01:11:28Z</time>
      </trkpt>
      <trkpt lat="44.52572" lon="6.80526">
        <ele>1900.06</ele>
        <time>2020-03-04T01:11:48Z</time>
      </trkpt>
      <trkpt lat="44.52581" lon="6.80505">
        <ele>1899.283</ele>
        <time>2020-03-04T01:12:08Z</time>
      </trkpt>
      <trkpt lat="44.526" lon="6.8043">
        <ele>1897.96</ele>
        <time>2020-03-04T01:12:28Z</time>
      </trkpt>
      <trkpt lat="44.52596" lon="6.80413">
        <ele>1895.339</ele>
        <time>2020-03-04T01:12:48Z</time>
      </trkpt>
      <trkpt lat="44.52597" lon="6.80361">
        <ele>1895.667</ele>
        <time>2020-03-04T01:13:08Z</time>
      </trkpt>
      <trkpt lat="44.52594" lon="6.80329">
        <ele>1895.498</ele>
        <time>2020-03-04T01:13:28Z</time>
      </trkpt>
      <trkpt lat="44.52596" lon="6.80296">
        <ele>1900.37</ele>
        <time>2020-03-04T01:13:48Z</time>
      </trkpt>
      <trkpt lat="44.52584" lon="6.80252">
        <ele>1900.346</ele>
        <time>2020-03-04T01:14:08Z</time>
      </trkpt>
      <trkpt lat="44.52571" lon="6.80211">
        <ele>1898.768</ele>
        <time>2020-03-04T01:14:28Z</time>
      </trkpt>
      <trkpt lat="44.52562" lon="6.80177">
        <ele>1897.342</ele>
        <time>2020-03-04T01:14:48Z</time>
      </trkpt>
      <trkpt lat="44.52553" lon="6.80161">
        <ele>1893.726</ele>
        <time>2020-03-04T01:15:08Z</time>
      </trkpt>
      <trkpt lat="44.52543" lon="6.80089">
        <ele>1889.308</ele>
        <time>2020-03-04T01:15:28Z</time>
      </trkpt>
      <trkpt lat="44.52549" lon="6.80016">
        <ele>1893.28</ele>
        <time>2020-03-04T01:15:48Z</time>
      </trkpt>
      <trkpt lat="44.52536" lon="6.79973">
        <ele>1890.783</ele>
        <time>2020-03-04T01:16:08Z</time>
      </trkpt>
      <trkpt lat="44.52524" lon="6.79896">
        <ele>1889.97</ele>
        <time>2020-03-04T01:16:28Z</time>
      </trkpt>
      <trkpt lat="44.5251" lon="6.79854">
        <ele>1885.099</ele>
        <time>2020-03-04T01:16:48Z</time>
      </trkpt>
      <trkpt lat="44.52497" lon="6.79778">
        <ele>1883.197</ele>
        <time>2020-03-04T01:17:08Z</time>
      </trkpt>
      <trkpt lat="44.52458" lon="6.79672">
        <ele>1868.948</ele>
        <time>2020-03-04T01:17:28Z</time>
      </trkpt>
      <trkpt lat="44.52456" lon="6.79622">
        <ele>1861.48</ele>
        <time>2020-03-04T01:17:48Z</time>
      </trkpt>
      <trkpt lat="44.52473" lon="6.79581">
        <ele>1859.466</ele>
        <time>2020-03-04T01:18:08Z</time>
      </trkpt>
      <trkpt lat="44.52506" lon="6.79543">
        <ele>1854.647</ele>
        <time>2020-03-04T01:18:28Z</time>
      </trkpt>
      <trkpt lat="44.52545" lon="6.7948">
        <ele>1850.829</ele>
        <time>2020-03-04T01:18:48Z</time>
      </trkpt>
      <trkpt lat="44.52562" lon="6.79427">
        <ele>1844.121</ele>
        <time>2020-03-04T01:19:08Z</time>
      </trkpt>
      <trkpt lat="44.52596" lon="6.79348">
        <ele>1838.008</ele>
        <time>2020-03-04T01:19:28Z</time>
      </trkpt>
      <trkpt lat="44.52609" lon="6.79303">
        <ele>1830.378</ele>
        <time>2020-03-04T01:19:48Z</time>
      </trkpt>
      <trkpt lat="44.52633" lon="6.79261">
        <ele>1820.441</ele>
        <time>2020-03-04T01:20:08Z</time>
      </trkpt>
      <trkpt lat="44.52673" lon="6.79232">
        <ele>1808.848</ele>
        <time>2020-03-04T01:20:28Z</time>
      </trkpt>
      <trkpt lat="44.52712" lon="6.79228">
        <ele>1814.327</ele>
        <time>2020-03-04T01:20:48Z</time>
      </trkpt>
      <trkpt lat="44.52738" lon="6.79201">
        <ele>1809.175</ele>
        <time>2020-03-04T01:21:08Z</time>
      </trkpt>
      <trkpt lat="44.52773" lon="6.79177">
        <ele>1796.586</ele>
        <time>2020-03-04T01:21:28Z</time>
      </trkpt>
      <trkpt lat="44.52835" lon="6.79204">
        <ele>1795.868</ele>
        <time>2020-03-04T01:21:48Z</time>
      </trkpt>
      <trkpt lat="44.52859" lon="6.79202">
        <ele>1799.914</ele>
        <time>2020-03-04T01:22:08Z</time>
      </trkpt>
      <trkpt lat="44.52872" lon="6.79164">
        <ele>1793.259</ele>
        <time>2020-03-04T01:22:28Z</time>
      </trkpt>
      <trkpt lat="44.52914" lon="6.79097">
        <ele>1789.103</ele>
        <time>2020-03-04T01:22:48Z</time>
      </trkpt>
      <trkpt lat="44.52955" lon="6.78966">
        <ele>1761.223</ele>
        <time>2020-03-04T01:23:08Z</time>
      </trkpt>
      <trkpt lat="44.53014" lon="6.78926">
        <ele>1762.208</ele>
        <time>2020-03-04T01:23:28Z</time>
      </trkpt>
      <trkpt lat="44.53033" lon="6.78922">
        <ele>1760.789</ele>
        <time>2020-03-04T01:23:48Z</time>
      </trkpt>
      <trkpt lat="44.53071" lon="6.78934">
        <ele>1759.412</ele>
        <time>2020-03-04T01:24:08Z</time>
      </trkpt>
      <trkpt lat="44.53075" lon="6.78931">
        <ele>1757.189</ele>
        <time>2020-03-04T01:24:28Z</time>
      </trkpt>
      <trkpt lat="44.53066" lon="6.78916">
        <ele>1753.558</ele>
        <time>2020-03-04T01:24:48Z</time>
      </trkpt>
      <trkpt lat="44.53028" lon="6.78896">
        <ele>1750.686</ele>
        <time>2020-03-04T01:25:08Z</time>
      </trkpt>
      <trkpt lat="44.5299" lon="6.78898">
        <ele>1747.967</ele>
        <time>2020-03-04T01:25:28Z</time>
      </trkpt>
      <trkpt lat="44.52975" lon="6.78914">
        <ele>1750.439</ele>
        <time>2020-03-04T01:25:48Z</time>
      </trkpt>
      <trkpt lat="44.52952" lon="6.78927">
        <ele>1744.075</ele>
        <time>2020-03-04T01:26:08Z</time>
      </trkpt>
      <trkpt lat="44.5293" lon="6.78958">
        <ele>1744.939</ele>
        <time>2020-03-04T01:26:28Z</time>
      </trkpt>
      <trkpt lat="44.52913" lon="6.78986">
        <ele>1748.301</ele>
        <time>2020-03-04T01:26:48Z</time>
      </trkpt>
      <trkpt lat="44.52905" lon="6.78968">
        <ele>1739.421</ele>
        <time>2020-03-04T01:27:08Z</time>
      </trkpt>
      <trkpt lat="44.52929" lon="6.78923">
        <ele>1732.908</ele>
        <time>2020-03-04T01:27:28Z</time>
      </trkpt>
      <trkpt lat="44.52955" lon="6.78897">
        <ele>1734.827</ele>
        <time>2020-03-04T01:27:48Z</time>
      </trkpt>
      <trkpt lat="44.52959" lon="6.78873">
        <ele>1727.77</ele>
        <time>2020-03-04T01:28:08Z</time>
      </trkpt>
      <trkpt lat="44.52973" lon="6.78841">
        <ele>1721.547</ele>
        <time>2020-03-04T01:28:28Z</time>
      </trkpt>
      <trkpt lat="44.53035" lon="6.7881">
        <ele>1720.156</ele>
        <time>2020-03-04T01:28:48Z</time>
      </trkpt>
      <trkpt lat="44.53058" lon="6.78811">
        <ele>1719.074</ele>
        <time>2020-03-04T01:29:08Z</time>
      </trkpt>
      <trkpt lat="44.53058" lon="6.78805">
        <ele>1717.285</ele>
        <time>2020-03-04T01:29:28Z</time>
      </trkpt>
      <trkpt lat="44.53046" lon="6.78801">
        <ele>1716.557</ele>
        <time>2020-03-04T01:29:48Z</time>
      </trkpt>
      <trkpt lat="44.53012" lon="6.78809">
        <ele>1718.163</ele>
        <time>2020-03-04T01:30:08Z</time>
      </trkpt>
      <trkpt lat="44.52971" lon="6.78811">
        <ele>1710.784</ele>
        <time>2020-03-04T01:30:28Z</time>
      </trkpt>
      <trkpt lat="44.52938" lon="6.78853">
        <ele>1714.807</ele>
        <time>2020-03-04T01:30:48Z</time>
      </trkpt>
      <trkpt lat="44.52922" lon="6.78846">
        <ele>1709.017</ele>
        <time>2020-03-04T01:31:08Z</time>
      </trkpt>
      <trkpt lat="44.52947" lon="6.78818">
        <ele>1703.008</ele>
        <time>2020-03-04T01:31:28Z</time>
      </trkpt>
      <trkpt lat="44.52971" lon="6.78784">
        <ele>1699.222</ele>
        <time>2020-03-04T01:31:48Z</time>
      </trkpt>
      <trkpt lat="44.53056" lon="6.78738">
        <ele>1690.035</ele>
        <time>2020-03-04T01:32:08Z</time>
      </trkpt>
      <trkpt lat="44.53092" lon="6.7875">
        <ele>1685.842</ele>
        <time>2020-03-04T01:32:28Z</time>
      </trkpt>
      <trkpt lat="44.53197" lon="6.78808">
        <ele>1674.611</ele>
        <time>2020-03-04T01:32:48Z</time>
      </trkpt>
      <trkpt lat="44.5324" lon="6.78803">
        <ele>1664.849</ele>
        <time>2020-03-04T01:33:08Z</time>
      </trkpt>
      <trkpt lat="44.53258" lon="6.78808">
        <ele>1662.32</ele>
        <time>2020-03-04T01:33:28Z</time>
      </trkpt>
      <trkpt lat="44.53287" lon="6.78827">
        <ele>1664.472</ele>
        <time>2020-03-04T01:33:48Z</time>
      </trkpt>
      <trkpt lat="44.53301" lon="6.78826">
        <ele>1664.478</ele>
        <time>2020-03-04T01:34:08Z</time>
      </trkpt>
      <trkpt lat="44.53351" lon="6.78734">
        <ele>1649.737</ele>
        <time>2020-03-04T01:34:28Z</time>
      </trkpt>
      <trkpt lat="44.53383" lon="6.78703">
        <ele>1648.549</ele>
        <time>2020-03-04T01:34:48Z</time>
      </trkpt>
      <trkpt lat="44.53441" lon="6.78608">
        <ele>1636.513</ele>
        <time>2020-03-04T01:35:08Z</time>
      </trkpt>
      <trkpt lat="44.53464" lon="6.78584">
        <ele>1630.308</ele>
        <time>2020-03-04T01:35:28Z</time>
      </trkpt>
      <trkpt lat="44.53514" lon="6.78566">
        <ele>1619.017</ele>
        <time>2020-03-04T01:35:48Z</time>
      </trkpt>
      <trkpt lat="44.53548" lon="6.78567">
        <ele>1606.05</ele>
        <time>2020-03-04T01:36:08Z</time>
      </trkpt>
      <trkpt lat="44.53575" lon="6.78599">
        <ele>1624.457</ele>
        <time>2020-03-04T01:36:28Z</time>
      </trkpt>
      <trkpt lat="44.53605" lon="6.78575">
        <ele>1564.916</ele>
        <time>2020-03-04T01:36:48Z</time>
      </trkpt>
      <trkpt lat="44.53629" lon="6.78575">
        <ele>1559.244</ele>
        <time>2020-03-04T01:37:08Z</time>
      </trkpt>
      <trkpt lat="44.53643" lon="6.78558">
        <ele>1591.835</ele>
        <time>2020-03-04T01:37:28Z</time>
      </trkpt>
      <trkpt lat="44.5364" lon="6.78535">
        <ele>1604.667</ele>
        <time>2020-03-04T01:37:48Z</time>
      </trkpt>
      <trkpt lat="44.53655" lon="6.78513">
        <ele>1625.093</ele>
        <time>2020-03-04T01:38:08Z</time>
      </trkpt>
      <trkpt lat="44.53658" lon="6.78487">
        <ele>1629.215</ele>
        <time>2020-03-04T01:38:28Z</time>
      </trkpt>
      <trkpt lat="44.5365" lon="6.78476">
        <ele>1628.765</ele>
        <time>2020-03-04T01:38:48Z</time>
      </trkpt>
      <trkpt lat="44.5364" lon="6.7847">
        <ele>1626.411</ele>
        <time>2020-03-04T01:39:08Z</time>
      </trkpt>
      <trkpt lat="44.53635" lon="6.78437">
        <ele>1608.908</ele>
        <time>2020-03-04T01:39:28Z</time>
      </trkpt>
      <trkpt lat="44.5366" lon="6.78395">
        <ele>1603.075</ele>
        <time>2020-03-04T01:39:48Z</time>
      </trkpt>
      <trkpt lat="44.53686" lon="6.78383">
        <ele>1603.898</ele>
        <time>2020-03-04T01:40:08Z</time>
      </trkpt>
      <trkpt lat="44.53763" lon="6.78304">
        <ele>1598.315</ele>
        <time>2020-03-04T01:40:28Z</time>
      </trkpt>
      <trkpt lat="44.53763" lon="6.783">
        <ele>1597.084</ele>
        <time>2020-03-04T01:40:48Z</time>
      </trkpt>
      <trkpt lat="44.53736" lon="6.78327">
        <ele>1596.362</ele>
        <time>2020-03-04T01:41:08Z</time>
      </trkpt>
      <trkpt lat="44.53689" lon="6.78343">
        <ele>1588.163</ele>
        <time>2020-03-04T01:41:28Z</time>
      </trkpt>
      <trkpt lat="44.53651" lon="6.78334">
        <ele>1581.685</ele>
        <time>2020-03-04T01:41:48Z</time>
      </trkpt>
      <trkpt lat="44.5361" lon="6.7831">
        <ele>1578.391</ele>
        <time>2020-03-04T01:42:08Z</time>
      </trkpt>
      <trkpt lat="44.53586" lon="6.78295">
        <ele>1573.112</ele>
        <time>2020-03-04T01:42:28Z</time>
      </trkpt>
      <trkpt lat="44.53553" lon="6.78285">
        <ele>1572.732</ele>
        <time>2020-03-04T01:42:48Z</time>
      </trkpt>
      <trkpt lat="44.5355" lon="6.78275">
        <ele>1571.005</ele>
        <time>2020-03-04T01:43:08Z</time>
      </trkpt>
      <trkpt lat="44.53554" lon="6.78249">
        <ele>1567.608</ele>
        <time>2020-03-04T01:43:28Z</time>
      </trkpt>
      <trkpt lat="44.53599" lon="6.78255">
        <ele>1570.415</ele>
        <time>2020-03-04T01:43:48Z</time>
      </trkpt>
      <trkpt lat="44.53626" lon="6.78242">
        <ele>1571.978</ele>
        <time>2020-03-04T01:44:08Z</time>
      </trkpt>
      <trkpt lat="44.5363" lon="6.78235">
        <ele>1572.795</ele>
        <time>2020-03-04T01:44:28Z</time>
      </trkpt>
      <trkpt lat="44.5363" lon="6.78212">
        <ele>1577.864</ele>
        <time>2020-03-04T01:44:48Z</time>
      </trkpt>
      <trkpt lat="44.53575" lon="6.78188">
        <ele>1572.712</ele>
        <time>2020-03-04T01:45:08Z</time>
      </trkpt>
      <trkpt lat="44.53525" lon="6.78163">
        <ele>1567.363</ele>
        <time>2020-03-04T01:45:28Z</time>
      </trkpt>
      <trkpt lat="44.53421" lon="6.78086">
        <ele>1562.495</ele>
        <time>2020-03-04T01:45:48Z</time>
      </trkpt>
      <trkpt lat="44.53308" lon="6.78007">
        <ele>1546.381</ele>
        <time>2020-03-04T01:46:08Z</time>
      </trkpt>
      <trkpt lat="44.53248" lon="6.77953">
        <ele>1544.712</ele>
        <time>2020-03-04T01:46:28Z</time>
      </trkpt>
      <trkpt lat="44.53196" lon="6.77896">
        <ele>1536.532</ele>
        <time>2020-03-04T01:46:48Z</time>
      </trkpt>
      <trkpt lat="44.53175" lon="6.77865">
        <ele>1534.405</ele>
        <time>2020-03-04T01:47:08Z</time>
      </trkpt>
      <trkpt lat="44.53159" lon="6.77812">
        <ele>1534.408</ele>
        <time>2020-03-04T01:47:28Z</time>
      </trkpt>
      <trkpt lat="44.53125" lon="6.77764">
        <ele>1531.575</ele>
        <time>2020-03-04T01:47:48Z</time>
      </trkpt>
      <trkpt lat="44.53077" lon="6.7769">
        <ele>1530.248</ele>
        <time>2020-03-04T01:48:08Z</time>
      </trkpt>
      <trkpt lat="44.53046" lon="6.77635">
        <ele>1525.415</ele>
        <time>2020-03-04T01:48:28Z</time>
      </trkpt>
      <trkpt lat="44.53042" lon="6.776">
        <ele>1522.234</ele>
        <time>2020-03-04T01:48:48Z</time>
      </trkpt>
      <trkpt lat="44.53061" lon="6.77571">
        <ele>1527.892</ele>
        <time>2020-03-04T01:49:08Z</time>
      </trkpt>
      <trkpt lat="44.53059" lon="6.77547">
        <ele>1529.773</ele>
        <time>2020-03-04T01:49:28Z</time>
      </trkpt>
      <trkpt lat="44.5304" lon="6.77533">
        <ele>1531.195</ele>
        <time>2020-03-04T01:49:48Z</time>
      </trkpt>
      <trkpt lat="44.53025" lon="6.77544">
        <ele>1528.071</ele>
        <time>2020-03-04T01:50:08Z</time>
      </trkpt>
      <trkpt lat="44.52962" lon="6.77542">
        <ele>1522.955</ele>
        <time>2020-03-04T01:50:28Z</time>
      </trkpt>
      <trkpt lat="44.52904" lon="6.77505">
        <ele>1515.207</ele>
        <time>2020-03-04T01:50:48Z</time>
      </trkpt>
      <trkpt lat="44.52884" lon="6.77434">
        <ele>1513.117</ele>
        <time>2020-03-04T01:51:08Z</time>
      </trkpt>
      <trkpt lat="44.52859" lon="6.7739">
        <ele>1512.508</ele>
        <time>2020-03-04T01:51:28Z</time>
      </trkpt>
      <trkpt lat="44.52812" lon="6.77322">
        <ele>1513.089</ele>
        <time>2020-03-04T01:51:48Z</time>
      </trkpt>
      <trkpt lat="44.52773" lon="6.7725">
        <ele>1513.632</ele>
        <time>2020-03-04T01:52:08Z</time>
      </trkpt>
      <trkpt lat="44.52764" lon="6.77189">
        <ele>1514.569</ele>
        <time>2020-03-04T01:52:28Z</time>
      </trkpt>
      <trkpt lat="44.52744" lon="6.77158">
        <ele>1513.088</ele>
        <time>2020-03-04T01:52:48Z</time>
      </trkpt>
      <trkpt lat="44.52688" lon="6.77148">
        <ele>1508.666</ele>
        <time>2020-03-04T01:53:08Z</time>
      </trkpt>
      <trkpt lat="44.52657" lon="6.7713">
        <ele>1505.087</ele>
        <time>2020-03-04T01:53:28Z</time>
      </trkpt>
      <trkpt lat="44.52638" lon="6.77057">
        <ele>1506.519</ele>
        <time>2020-03-04T01:53:48Z</time>
      </trkpt>
      <trkpt lat="44.52617" lon="6.77014">
        <ele>1507.225</ele>
        <time>2020-03-04T01:54:08Z</time>
      </trkpt>
      <trkpt lat="44.52576" lon="6.76962">
        <ele>1501.811</ele>
        <time>2020-03-04T01:54:28Z</time>
      </trkpt>
      <trkpt lat="44.52556" lon="6.76921">
        <ele>1492.621</ele>
        <time>2020-03-04T01:54:48Z</time>
      </trkpt>
      <trkpt lat="44.52559" lon="6.76884">
        <ele>1496.703</ele>
        <time>2020-03-04T01:55:08Z</time>
      </trkpt>
      <trkpt lat="44.52515" lon="6.76808">
        <ele>1500.508</ele>
        <time>2020-03-04T01:55:28Z</time>
      </trkpt>
      <trkpt lat="44.52488" lon="6.76745">
        <ele>1497.115</ele>
        <time>2020-03-04T01:55:48Z</time>
      </trkpt>
      <trkpt lat="44.52418" lon="6.76667">
        <ele>1487.428</ele>
        <time>2020-03-04T01:56:08Z</time>
      </trkpt>
      <trkpt lat="44.52397" lon="6.76631">
        <ele>1485.315</ele>
        <time>2020-03-04T01:56:28Z</time>
      </trkpt>
      <trkpt lat="44.52373" lon="6.76556">
        <ele>1484.914</ele>
        <time>2020-03-04T01:56:48Z</time>
      </trkpt>
      <trkpt lat="44.52356" lon="6.76516">
        <ele>1489.752</ele>
        <time>2020-03-04T01:57:08Z</time>
      </trkpt>
      <trkpt lat="44.52303" lon="6.7647">
        <ele>1483.933</ele>
        <time>2020-03-04T01:57:28Z</time>
      </trkpt>
      <trkpt lat="44.52279" lon="6.76417">
        <ele>1489.535</ele>
        <time>2020-03-04T01:57:48Z</time>
      </trkpt>
      <trkpt lat="44.52251" lon="6.76403">
        <ele>1476.481</ele>
        <time>2020-03-04T01:58:08Z</time>
      </trkpt>
      <trkpt lat="44.52233" lon="6.7638">
        <ele>1474.355</ele>
        <time>2020-03-04T01:58:28Z</time>
      </trkpt>
      <trkpt lat="44.52223" lon="6.76339">
        <ele>1479.907</ele>
        <time>2020-03-04T01:58:48Z</time>
      </trkpt>
      <trkpt lat="44.52185" lon="6.76321">
        <ele>1473.017</ele>
        <time>2020-03-04T01:59:08Z</time>
      </trkpt>
      <trkpt lat="44.52141" lon="6.76226">
        <ele>1472.808</ele>
        <time>2020-03-04T01:59:28Z</time>
      </trkpt>
      <trkpt lat="44.5213" lon="6.76177">
        <ele>1478.059</ele>
        <time>2020-03-04T01:59:48Z</time>
      </trkpt>
      <trkpt lat="44.52101" lon="6.76152">
        <ele>1473.292</ele>
        <time>2020-03-04T02:00:08Z</time>
      </trkpt>
      <trkpt lat="44.52073" lon="6.76104">
        <ele>1470.479</ele>
        <time>2020-03-04T02:00:28Z</time>
      </trkpt>
      <trkpt lat="44.52045" lon="6.76037">
        <ele>1472.028</ele>
        <time>2020-03-04T02:00:48Z</time>
      </trkpt>
      <trkpt lat="44.51958" lon="6.75923">
        <ele>1468.296</ele>
        <time>2020-03-04T02:01:08Z</time>
      </trkpt>
      <trkpt lat="44.51921" lon="6.75872">
        <ele>1467.397</ele>
        <time>2020-03-04T02:01:28Z</time>
      </trkpt>
      <trkpt lat="44.51885" lon="6.75844">
        <ele>1472.049</ele>
        <time>2020-03-04T02:01:48Z</time>
      </trkpt>
      <trkpt lat="44.51828" lon="6.75823">
        <ele>1466.765</ele>
        <time>2020-03-04T02:02:08Z</time>
      </trkpt>
      <trkpt lat="44.51784" lon="6.75786">
        <ele>1465.337</ele>
        <time>2020-03-04T02:02:28Z</time>
      </trkpt>
      <trkpt lat="44.51734" lon="6.7572">
        <ele>1465.249</ele>
        <time>2020-03-04T02:02:48Z</time>
      </trkpt>
      <trkpt lat="44.51699" lon="6.75649">
        <ele>1461.313</ele>
        <time>2020-03-04T02:03:08Z</time>
      </trkpt>
      <trkpt lat="44.51674" lon="6.75592">
        <ele>1456.108</ele>
        <time>2020-03-04T02:03:28Z</time>
      </trkpt>
      <trkpt lat="44.51675" lon="6.75506">
        <ele>1457.417</ele>
        <time>2020-03-04T02:03:48Z</time>
      </trkpt>
      <trkpt lat="44.51659" lon="6.75473">
        <ele>1459.64</ele>
        <time>2020-03-04T02:04:08Z</time>
      </trkpt>
      <trkpt lat="44.51577" lon="6.75407">
        <ele>1458.577</ele>
        <time>2020-03-04T02:04:28Z</time>
      </trkpt>
      <trkpt lat="44.51554" lon="6.75328">
        <ele>1459.676</ele>
        <time>2020-03-04T02:04:48Z</time>
      </trkpt>
      <trkpt lat="44.51541" lon="6.753">
        <ele>1456.834</ele>
        <time>2020-03-04T02:05:08Z</time>
      </trkpt>
      <trkpt lat="44.51515" lon="6.75204">
        <ele>1461.575</ele>
        <time>2020-03-04T02:05:28Z</time>
      </trkpt>
      <trkpt lat="44.51479" lon="6.75144">
        <ele>1456.867</ele>
        <time>2020-03-04T02:05:48Z</time>
      </trkpt>
      <trkpt lat="44.51478" lon="6.75109">
        <ele>1458.833</ele>
        <time>2020-03-04T02:06:08Z</time>
      </trkpt>
      <trkpt lat="44.51457" lon="6.75048">
        <ele>1460.037</ele>
        <time>2020-03-04T02:06:28Z</time>
      </trkpt>
      <trkpt lat="44.51459" lon="6.7502">
        <ele>1461.749</ele>
        <time>2020-03-04T02:06:48Z</time>
      </trkpt>
      <trkpt lat="44.51484" lon="6.74991">
        <ele>1465.713</ele>
        <time>2020-03-04T02:07:08Z</time>
      </trkpt>
      <trkpt lat="44.51456" lon="6.74882">
        <ele>1461.508</ele>
        <time>2020-03-04T02:07:28Z</time>
      </trkpt>
      <trkpt lat="44.51459" lon="6.74815">
        <ele>1460.647</ele>
        <time>2020-03-04T02:07:48Z</time>
      </trkpt>
      <trkpt lat="44.5148" lon="6.74672">
        <ele>1455.42</ele>
        <time>2020-03-04T02:08:08Z</time>
      </trkpt>
      <trkpt lat="44.51536" lon="6.74558">
        <ele>1457.697</ele>
        <time>2020-03-04T02:08:28Z</time>
      </trkpt>
      <trkpt lat="44.51564" lon="6.74444">
        <ele>1451.766</ele>
        <time>2020-03-04T02:08:48Z</time>
      </trkpt>
      <trkpt lat="44.51539" lon="6.74402">
        <ele>1466.814</ele>
        <time>2020-03-04T02:09:08Z</time>
      </trkpt>
      <trkpt lat="44.51328" lon="6.74421">
        <ele>1455.165</ele>
        <time>2020-03-04T02:09:28Z</time>
      </trkpt>
      <trkpt lat="44.51212" lon="6.74434">
        <ele>1452.167</ele>
        <time>2020-03-04T02:09:48Z</time>
      </trkpt>
      <trkpt lat="44.51142" lon="6.74418">
        <ele>1445.953</ele>
        <time>2020-03-04T02:10:08Z</time>
      </trkpt>
      <trkpt lat="44.51092" lon="6.74451">
        <ele>1442.075</ele>
        <time>2020-03-04T02:10:28Z</time>
      </trkpt>
      <trkpt lat="44.5104" lon="6.74533">
        <ele>1439.328</ele>
        <time>2020-03-04T02:10:48Z</time>
      </trkpt>
      <trkpt lat="44.51021" lon="6.74641">
        <ele>1430.02</ele>
        <time>2020-03-04T02:11:08Z</time>
      </trkpt>
      <trkpt lat="44.50986" lon="6.74676">
        <ele>1423.508</ele>
        <time>2020-03-04T02:11:28Z</time>
      </trkpt>
      <trkpt lat="44.50909" lon="6.74646">
        <ele>1419.441</ele>
        <time>2020-03-04T02:11:48Z</time>
      </trkpt>
      <trkpt lat="44.5065" lon="6.74553">
        <ele>1407.634</ele>
        <time>2020-03-04T02:12:08Z</time>
      </trkpt>
      <trkpt lat="44.50499" lon="6.74497">
        <ele>1422.891</ele>
        <time>2020-03-04T02:12:28Z</time>
      </trkpt>
      <trkpt lat="44.50468" lon="6.74444">
        <ele>1409.92</ele>
        <time>2020-03-04T02:12:48Z</time>
      </trkpt>
      <trkpt lat="44.50455" lon="6.74367">
        <ele>1445.398</ele>
        <time>2020-03-04T02:13:08Z</time>
      </trkpt>
      <trkpt lat="44.50426" lon="6.74343">
        <ele>1441.619</ele>
        <time>2020-03-04T02:13:28Z</time>
      </trkpt>
      <trkpt lat="44.50378" lon="6.74334">
        <ele>1415.231</ele>
        <time>2020-03-04T02:13:48Z</time>
      </trkpt>
      <trkpt lat="44.50341" lon="6.74306">
        <ele>1409.577</ele>
        <time>2020-03-04T02:14:08Z</time>
      </trkpt>
      <trkpt lat="44.50306" lon="6.74294">
        <ele>1397.279</ele>
        <time>2020-03-04T02:14:28Z</time>
      </trkpt>
      <trkpt lat="44.50273" lon="6.74126">
        <ele>1381.205</ele>
        <time>2020-03-04T02:14:48Z</time>
      </trkpt>
      <trkpt lat="44.50219" lon="6.74064">
        <ele>1380.025</ele>
        <time>2020-03-04T02:15:08Z</time>
      </trkpt>
      <trkpt lat="44.50089" lon="6.74055">
        <ele>1381.408</ele>
        <time>2020-03-04T02:15:28Z</time>
      </trkpt>
      <trkpt lat="44.5003" lon="6.74018">
        <ele>1381.841</ele>
        <time>2020-03-04T02:15:48Z</time>
      </trkpt>
      <trkpt lat="44.49945" lon="6.73942">
        <ele>1378.194</ele>
        <time>2020-03-04T02:16:08Z</time>
      </trkpt>
      <trkpt lat="44.49837" lon="6.73915">
        <ele>1376.641</ele>
        <time>2020-03-04T02:16:28Z</time>
      </trkpt>
      <trkpt lat="44.49736" lon="6.73966">
        <ele>1377.62</ele>
        <time>2020-03-04T02:16:48Z</time>
      </trkpt>
      <trkpt lat="44.49639" lon="6.74054">
        <ele>1373.258</ele>
        <time>2020-03-04T02:17:08Z</time>
      </trkpt>
      <trkpt lat="44.49518" lon="6.74102">
        <ele>1369.029</ele>
        <time>2020-03-04T02:17:28Z</time>
      </trkpt>
      <trkpt lat="44.49374" lon="6.74147">
        <ele>1367.521</ele>
        <time>2020-03-04T02:17:48Z</time>
      </trkpt>
      <trkpt lat="44.49293" lon="6.742">
        <ele>1363.717</ele>
        <time>2020-03-04T02:18:08Z</time>
      </trkpt>
      <trkpt lat="44.49263" lon="6.74209">
        <ele>1362.351</ele>
        <time>2020-03-04T02:18:28Z</time>
      </trkpt>
      <trkpt lat="44.49155" lon="6.74211">
        <ele>1355.701</ele>
        <time>2020-03-04T02:18:48Z</time>
      </trkpt>
      <trkpt lat="44.49116" lon="6.74226">
        <ele>1359.011</ele>
        <time>2020-03-04T02:19:08Z</time>
      </trkpt>
      <trkpt lat="44.49059" lon="6.74298">
        <ele>1354.208</ele>
        <time>2020-03-04T02:19:28Z</time>
      </trkpt>
      <trkpt lat="44.49021" lon="6.74317">
        <ele>1353.199</ele>
        <time>2020-03-04T02:19:48Z</time>
      </trkpt>
      <trkpt lat="44.48948" lon="6.74342">
        <ele>1349.482</ele>
        <time>2020-03-04T02:20:08Z</time>
      </trkpt>
      <trkpt lat="44.48905" lon="6.74394">
        <ele>1347.919</ele>
        <time>2020-03-04T02:20:28Z</time>
      </trkpt>
      <trkpt lat="44.48859" lon="6.74484">
        <ele>1345.228</ele>
        <time>2020-03-04T02:20:48Z</time>
      </trkpt>
      <trkpt lat="44.48791" lon="6.74555">
        <ele>1340.686</ele>
        <time>2020-03-04T02:21:08Z</time>
      </trkpt>
      <trkpt lat="44.48702" lon="6.7461">
        <ele>1340.057</ele>
        <time>2020-03-04T02:21:28Z</time>
      </trkpt>
      <trkpt lat="44.48636" lon="6.74709">
        <ele>1337.899</ele>
        <time>2020-03-04T02:21:48Z</time>
      </trkpt>
      <trkpt lat="44.48598" lon="6.74759">
        <ele>1336.355</ele>
        <time>2020-03-04T02:22:08Z</time>
      </trkpt>
      <trkpt lat="44.48527" lon="6.74775">
        <ele>1336.332</ele>
        <time>2020-03-04T02:22:28Z</time>
      </trkpt>
      <trkpt lat="44.48433" lon="6.74845">
        <ele>1334.692</ele>
        <time>2020-03-04T02:22:48Z</time>
      </trkpt>
      <trkpt lat="44.48387" lon="6.74902">
        <ele>1333.511</ele>
        <time>2020-03-04T02:23:08Z</time>
      </trkpt>
      <trkpt lat="44.48324" lon="6.74987">
        <ele>1331.308</ele>
        <time>2020-03-04T02:23:28Z</time>
      </trkpt>
      <trkpt lat="44.48167" lon="6.75162">
        <ele>1327.797</ele>
        <time>2020-03-04T02:23:48Z</time>
      </trkpt>
      <trkpt lat="44.48061" lon="6.7532">
        <ele>1326.21</ele>
        <time>2020-03-04T02:24:08Z</time>
      </trkpt>
      <trkpt lat="44.48025" lon="6.75492">
        <ele>1320.037</ele>
        <time>2020-03-04T02:24:28Z</time>
      </trkpt>
      <trkpt lat="44.4797" lon="6.75614">
        <ele>1321.196</ele>
        <time>2020-03-04T02:24:48Z</time>
      </trkpt>
      <trkpt lat="44.47854" lon="6.75725">
        <ele>1313.464</ele>
        <time>2020-03-04T02:25:08Z</time>
      </trkpt>
      <trkpt lat="44.47778" lon="6.75838">
        <ele>1311.065</ele>
        <time>2020-03-04T02:25:28Z</time>
      </trkpt>
      <trkpt lat="44.47713" lon="6.75989">
        <ele>1310.047</ele>
        <time>2020-03-04T02:25:48Z</time>
      </trkpt>
      <trkpt lat="44.47714" lon="6.75997">
        <ele>1310.043</ele>
        <time>2020-03-04T02:26:08Z</time>
      </trkpt>
      <trkpt lat="44.4769" lon="6.76052">
        <ele>1310.026</ele>
        <time>2020-03-04T02:26:28Z</time>
      </trkpt>
      <trkpt lat="44.47675" lon="6.76075">
        <ele>1310.947</ele>
        <time>2020-03-04T02:26:48Z</time>
      </trkpt>
      <trkpt lat="44.47633" lon="6.76121">
        <ele>1309.111</ele>
        <time>2020-03-04T02:27:08Z</time>
      </trkpt>
      <trkpt lat="44.47611" lon="6.76182">
        <ele>1309.608</ele>
        <time>2020-03-04T02:27:28Z</time>
      </trkpt>
      <trkpt lat="44.47606" lon="6.76202">
        <ele>1310.386</ele>
        <time>2020-03-04T02:27:48Z</time>
      </trkpt>
      <trkpt lat="44.47597" lon="6.76248">
        <ele>1313.419</ele>
        <time>2020-03-04T02:28:08Z</time>
      </trkpt>
      <trkpt lat="44.47592" lon="6.76277">
        <ele>1315.386</ele>
        <time>2020-03-04T02:28:28Z</time>
      </trkpt>
      <trkpt lat="44.47597" lon="6.76307">
        <ele>1315.535</ele>
        <time>2020-03-04T02:28:48Z</time>
      </trkpt>
      <trkpt lat="44.47606" lon="6.76377">
        <ele>1317.543</ele>
        <time>2020-03-04T02:29:08Z</time>
      </trkpt>
      <trkpt lat="44.47602" lon="6.76436">
        <ele>1318.744</ele>
        <time>2020-03-04T02:29:28Z</time>
      </trkpt>
      <trkpt lat="44.47602" lon="6.76476">
        <ele>1319.216</ele>
        <time>2020-03-04T02:29:48Z</time>
      </trkpt>
      <trkpt lat="44.47599" lon="6.76518">
        <ele>1321.632</ele>
        <time>2020-03-04T02:30:08Z</time>
      </trkpt>
      <trkpt lat="44.47654" lon="6.76464">
        <ele>1324.996</ele>
        <time>2020-03-04T02:30:28Z</time>
      </trkpt>
      <trkpt lat="44.47671" lon="6.76374">
        <ele>1324.531</ele>
        <time>2020-03-04T02:30:48Z</time>
      </trkpt>
      <trkpt lat="44.47728" lon="6.76263">
        <ele>1330.924</ele>
        <time>2020-03-04T02:31:08Z</time>
      </trkpt>
      <trkpt lat="44.47796" lon="6.76161">
        <ele>1335.308</ele>
        <time>2020-03-04T02:31:28Z</time>
      </trkpt>
      <trkpt lat="44.47847" lon="6.76116">
        <ele>1340.963</ele>
        <time>2020-03-04T02:31:48Z</time>
      </trkpt>
      <trkpt lat="44.47886" lon="6.76013">
        <ele>1341.076</ele>
        <time>2020-03-04T02:32:08Z</time>
      </trkpt>
      <trkpt lat="44.47942" lon="6.75949">
        <ele>1346.023</ele>
        <time>2020-03-04T02:32:28Z</time>
      </trkpt>
      <trkpt lat="44.47997" lon="6.75843">
        <ele>1345.772</ele>
        <time>2020-03-04T02:32:48Z</time>
      </trkpt>
      <trkpt lat="44.48019" lon="6.75844">
        <ele>1349.78</ele>
        <time>2020-03-04T02:33:08Z</time>
      </trkpt>
      <trkpt lat="44.47956" lon="6.7598">
        <ele>1354.791</ele>
        <time>2020-03-04T02:33:28Z</time>
      </trkpt>
      <trkpt lat="44.47913" lon="6.76102">
        <ele>1361.233</ele>
        <time>2020-03-04T02:33:48Z</time>
      </trkpt>
      <trkpt lat="44.47844" lon="6.76328">
        <ele>1371.969</ele>
        <time>2020-03-04T02:34:08Z</time>
      </trkpt>
      <trkpt lat="44.47773" lon="6.76494">
        <ele>1379.476</ele>
        <time>2020-03-04T02:34:28Z</time>
      </trkpt>
      <trkpt lat="44.47741" lon="6.7661">
        <ele>1385.09</ele>
        <time>2020-03-04T02:34:48Z</time>
      </trkpt>
      <trkpt lat="44.47698" lon="6.767">
        <ele>1387.319</ele>
        <time>2020-03-04T02:35:08Z</time>
      </trkpt>
      <trkpt lat="44.47633" lon="6.7684">
        <ele>1387.808</ele>
        <time>2020-03-04T02:35:28Z</time>
      </trkpt>
      <trkpt lat="44.47604" lon="6.76946">
        <ele>1391.541</ele>
        <time>2020-03-04T02:35:48Z</time>
      </trkpt>
      <trkpt lat="44.47623" lon="6.77046">
        <ele>1401.474</ele>
        <time>2020-03-04T02:36:08Z</time>
      </trkpt>
      <trkpt lat="44.47652" lon="6.77115">
        <ele>1407.431</ele>
        <time>2020-03-04T02:36:28Z</time>
      </trkpt>
      <trkpt lat="44.4767" lon="6.77186">
        <ele>1411.29</ele>
        <time>2020-03-04T02:36:48Z</time>
      </trkpt>
      <trkpt lat="44.47664" lon="6.77241">
        <ele>1409.928</ele>
        <time>2020-03-04T02:37:08Z</time>
      </trkpt>
      <trkpt lat="44.47638" lon="6.77322">
        <ele>1411.079</ele>
        <time>2020-03-04T02:37:28Z</time>
      </trkpt>
      <trkpt lat="44.47642" lon="6.77505">
        <ele>1424.141</ele>
        <time>2020-03-04T02:37:48Z</time>
      </trkpt>
      <trkpt lat="44.47673" lon="6.77576">
        <ele>1428.977</ele>
        <time>2020-03-04T02:38:08Z</time>
      </trkpt>
      <trkpt lat="44.47667" lon="6.77608">
        <ele>1424.054</ele>
        <time>2020-03-04T02:38:28Z</time>
      </trkpt>
      <trkpt lat="44.47643" lon="6.77649">
        <ele>1424.756</ele>
        <time>2020-03-04T02:38:48Z</time>
      </trkpt>
      <trkpt lat="44.47664" lon="6.77756">
        <ele>1433.611</ele>
        <time>2020-03-04T02:39:08Z</time>
      </trkpt>
      <trkpt lat="44.47661" lon="6.77856">
        <ele>1432.808</ele>
        <time>2020-03-04T02:39:28Z</time>
      </trkpt>
      <trkpt lat="44.47665" lon="6.77948">
        <ele>1437.779</ele>
        <time>2020-03-04T02:39:48Z</time>
      </trkpt>
      <trkpt lat="44.47651" lon="6.78002">
        <ele>1434.762</ele>
        <time>2020-03-04T02:40:08Z</time>
      </trkpt>
      <trkpt lat="44.47651" lon="6.78052">
        <ele>1436.849</ele>
        <time>2020-03-04T02:40:28Z</time>
      </trkpt>
      <trkpt lat="44.47644" lon="6.781">
        <ele>1436.398</ele>
        <time>2020-03-04T02:40:48Z</time>
      </trkpt>
      <trkpt lat="44.47654" lon="6.78185">
        <ele>1442.346</ele>
        <time>2020-03-04T02:41:08Z</time>
      </trkpt>
      <trkpt lat="44.47646" lon="6.78255">
        <ele>1442.197</ele>
        <time>2020-03-04T02:41:28Z</time>
      </trkpt>
      <trkpt lat="44.47659" lon="6.78329">
        <ele>1446.739</ele>
        <time>2020-03-04T02:41:48Z</time>
      </trkpt>
      <trkpt lat="44.47663" lon="6.78436">
        <ele>1448.245</ele>
        <time>2020-03-04T02:42:08Z</time>
      </trkpt>
      <trkpt lat="44.47673" lon="6.78473">
        <ele>1458.047</ele>
        <time>2020-03-04T02:42:28Z</time>
      </trkpt>
      <trkpt lat="44.4767" lon="6.78536">
        <ele>1460.629</ele>
        <time>2020-03-04T02:42:48Z</time>
      </trkpt>
      <trkpt lat="44.47703" lon="6.7862">
        <ele>1471.421</ele>
        <time>2020-03-04T02:43:08Z</time>
      </trkpt>
      <trkpt lat="44.47727" lon="6.78703">
        <ele>1467.708</ele>
        <time>2020-03-04T02:43:28Z</time>
      </trkpt>
      <trkpt lat="44.47737" lon="6.78795">
        <ele>1466.478</ele>
        <time>2020-03-04T02:43:48Z</time>
      </trkpt>
      <trkpt lat="44.47768" lon="6.78874">
        <ele>1473.551</ele>
        <time>2020-03-04T02:44:08Z</time>
      </trkpt>
      <trkpt lat="44.47791" lon="6.78959">
        <ele>1475.228</ele>
        <time>2020-03-04T02:44:28Z</time>
      </trkpt>
      <trkpt lat="44.47791" lon="6.78996">
        <ele>1475.317</ele>
        <time>2020-03-04T02:44:48Z</time>
      </trkpt>
      <trkpt lat="44.47786" lon="6.79067">
        <ele>1477.865</ele>
        <time>2020-03-04T02:45:08Z</time>
      </trkpt>
      <trkpt lat="44.47807" lon="6.79128">
        <ele>1481.026</ele>
        <time>2020-03-04T02:45:28Z</time>
      </trkpt>
      <trkpt lat="44.47848" lon="6.79211">
        <ele>1487.558</ele>
        <time>2020-03-04T02:45:48Z</time>
      </trkpt>
      <trkpt lat="44.47815" lon="6.79271">
        <ele>1484.124</ele>
        <time>2020-03-04T02:46:08Z</time>
      </trkpt>
      <trkpt lat="44.47773" lon="6.79299">
        <ele>1484.994</ele>
        <time>2020-03-04T02:46:28Z</time>
      </trkpt>
      <trkpt lat="44.47725" lon="6.79327">
        <ele>1484.957</ele>
        <time>2020-03-04T02:46:48Z</time>
      </trkpt>
      <trkpt lat="44.47668" lon="6.7938">
        <ele>1487.622</ele>
        <time>2020-03-04T02:47:08Z</time>
      </trkpt>
      <trkpt lat="44.47634" lon="6.79433">
        <ele>1491.108</ele>
        <time>2020-03-04T02:47:28Z</time>
      </trkpt>
      <trkpt lat="44.47616" lon="6.79489">
        <ele>1493.863</ele>
        <time>2020-03-04T02:47:48Z</time>
      </trkpt>
      <trkpt lat="44.47588" lon="6.7962">
        <ele>1501.026</ele>
        <time>2020-03-04T02:48:08Z</time>
      </trkpt>
      <trkpt lat="44.47604" lon="6.79626">
        <ele>1504.993</ele>
        <time>2020-03-04T02:48:28Z</time>
      </trkpt>
      <trkpt lat="44.47619" lon="6.79587">
        <ele>1505.352</ele>
        <time>2020-03-04T02:48:48Z</time>
      </trkpt>
      <trkpt lat="44.47646" lon="6.79543">
        <ele>1509.17</ele>
        <time>2020-03-04T02:49:08Z</time>
      </trkpt>
      <trkpt lat="44.47672" lon="6.7948">
        <ele>1509.791</ele>
        <time>2020-03-04T02:49:28Z</time>
      </trkpt>
      <trkpt lat="44.47686" lon="6.79494">
        <ele>1513.653</ele>
        <time>2020-03-04T02:49:48Z</time>
      </trkpt>
      <trkpt lat="44.47668" lon="6.79539">
        <ele>1515.039</ele>
        <time>2020-03-04T02:50:08Z</time>
      </trkpt>
      <trkpt lat="44.47663" lon="6.79678">
        <ele>1519.217</ele>
        <time>2020-03-04T02:50:28Z</time>
      </trkpt>
      <trkpt lat="44.47652" lon="6.797">
        <ele>1519.787</ele>
        <time>2020-03-04T02:50:48Z</time>
      </trkpt>
      <trkpt lat="44.47649" lon="6.79715">
        <ele>1521.315</ele>
        <time>2020-03-04T02:51:08Z</time>
      </trkpt>
      <trkpt lat="44.47621" lon="6.79747">
        <ele>1522.508</ele>
        <time>2020-03-04T02:51:28Z</time>
      </trkpt>
      <trkpt lat="44.47615" lon="6.79783">
        <ele>1527.355</ele>
        <time>2020-03-04T02:51:48Z</time>
      </trkpt>
      <trkpt lat="44.47618" lon="6.79929">
        <ele>1531.288</ele>
        <time>2020-03-04T02:52:08Z</time>
      </trkpt>
      <trkpt lat="44.47626" lon="6.79936">
        <ele>1533.165</ele>
        <time>2020-03-04T02:52:28Z</time>
      </trkpt>
      <trkpt lat="44.47646" lon="6.79919">
        <ele>1538.054</ele>
        <time>2020-03-04T02:52:48Z</time>
      </trkpt>
      <trkpt lat="44.47651" lon="6.79904">
        <ele>1540.272</ele>
        <time>2020-03-04T02:53:08Z</time>
      </trkpt>
      <trkpt lat="44.47653" lon="6.79868">
        <ele>1540.883</ele>
        <time>2020-03-04T02:53:28Z</time>
      </trkpt>
      <trkpt lat="44.4766" lon="6.79858">
        <ele>1541.675</ele>
        <time>2020-03-04T02:53:48Z</time>
      </trkpt>
      <trkpt lat="44.47673" lon="6.79857">
        <ele>1544.081</ele>
        <time>2020-03-04T02:54:08Z</time>
      </trkpt>
      <trkpt lat="44.47681" lon="6.79849">
        <ele>1544.938</ele>
        <time>2020-03-04T02:54:28Z</time>
      </trkpt>
      <trkpt lat="44.47695" lon="6.79828">
        <ele>1545.57</ele>
        <time>2020-03-04T02:54:48Z</time>
      </trkpt>
      <trkpt lat="44.47704" lon="6.7979">
        <ele>1543.717</ele>
        <time>2020-03-04T02:55:08Z</time>
      </trkpt>
      <trkpt lat="44.47718" lon="6.79768">
        <ele>1544.508</ele>
        <time>2020-03-04T02:55:28Z</time>
      </trkpt>
      <trkpt lat="44.47724" lon="6.79754">
        <ele>1544.757</ele>
        <time>2020-03-04T02:55:48Z</time>
      </trkpt>
      <trkpt lat="44.47729" lon="6.79735">
        <ele>1544.16</ele>
        <time>2020-03-04T02:56:08Z</time>
      </trkpt>
      <trkpt lat="44.47732" lon="6.7974">
        <ele>1545.797</ele>
        <time>2020-03-04T02:56:28Z</time>
      </trkpt>
      <trkpt lat="44.47733" lon="6.79753">
        <ele>1546.936</ele>
        <time>2020-03-04T02:56:48Z</time>
      </trkpt>
      <trkpt lat="44.47737" lon="6.79777">
        <ele>1550.114</ele>
        <time>2020-03-04T02:57:08Z</time>
      </trkpt>
      <trkpt lat="44.47732" lon="6.79795">
        <ele>1550.715</ele>
        <time>2020-03-04T02:57:28Z</time>
      </trkpt>
      <trkpt lat="44.47725" lon="6.79813">
        <ele>1551.047</ele>
        <time>2020-03-04T02:57:48Z</time>
      </trkpt>
      <trkpt lat="44.47725" lon="6.79842">
        <ele>1554.443</ele>
        <time>2020-03-04T02:58:08Z</time>
      </trkpt>
      <trkpt lat="44.47728" lon="6.79868">
        <ele>1556.496</ele>
        <time>2020-03-04T02:58:28Z</time>
      </trkpt>
      <trkpt lat="44.47749" lon="6.79899">
        <ele>1560.431</ele>
        <time>2020-03-04T02:58:48Z</time>
      </trkpt>
      <trkpt lat="44.47755" lon="6.79926">
        <ele>1561.824</ele>
        <time>2020-03-04T02:59:08Z</time>
      </trkpt>
      <trkpt lat="44.47753" lon="6.79953">
        <ele>1562.408</ele>
        <time>2020-03-04T02:59:28Z</time>
      </trkpt>
      <trkpt lat="44.47739" lon="6.79992">
        <ele>1561.933</ele>
        <time>2020-03-04T02:59:48Z</time>
      </trkpt>
      <trkpt lat="44.47746" lon="6.80019">
        <ele>1563.926</ele>
        <time>2020-03-04T03:00:08Z</time>
      </trkpt>
      <trkpt lat="44.4776" lon="6.80046">
        <ele>1568.573</ele>
        <time>2020-03-04T03:00:28Z</time>
      </trkpt>
      <trkpt lat="44.47763" lon="6.80081">
        <ele>1570.892</ele>
        <time>2020-03-04T03:00:48Z</time>
      </trkpt>
      <trkpt lat="44.47768" lon="6.80114">
        <ele>1574.34</ele>
        <time>2020-03-04T03:01:08Z</time>
      </trkpt>
      <trkpt lat="44.47758" lon="6.80129">
        <ele>1574.551</ele>
        <time>2020-03-04T03:01:28Z</time>
      </trkpt>
      <trkpt lat="44.47738" lon="6.80149">
        <ele>1572.273</ele>
        <time>2020-03-04T03:01:48Z</time>
      </trkpt>
      <trkpt lat="44.47731" lon="6.80184">
        <ele>1577.069</ele>
        <time>2020-03-04T03:02:08Z</time>
      </trkpt>
      <trkpt lat="44.47713" lon="6.80211">
        <ele>1578.927</ele>
        <time>2020-03-04T03:02:28Z</time>
      </trkpt>
      <trkpt lat="44.477" lon="6.80257">
        <ele>1583.768</ele>
        <time>2020-03-04T03:02:48Z</time>
      </trkpt>
      <trkpt lat="44.47687" lon="6.80283">
        <ele>1585.814</ele>
        <time>2020-03-04T03:03:08Z</time>
      </trkpt>
      <trkpt lat="44.47675" lon="6.80312">
        <ele>1589.908</ele>
        <time>2020-03-04T03:03:28Z</time>
      </trkpt>
      <trkpt lat="44.47662" lon="6.80322">
        <ele>1590.576</ele>
        <time>2020-03-04T03:03:48Z</time>
      </trkpt>
      <trkpt lat="44.47645" lon="6.80315">
        <ele>1588.579</ele>
        <time>2020-03-04T03:04:08Z</time>
      </trkpt>
      <trkpt lat="44.47605" lon="6.80322">
        <ele>1592.196</ele>
        <time>2020-03-04T03:04:28Z</time>
      </trkpt>
      <trkpt lat="44.47603" lon="6.80338">
        <ele>1597.145</ele>
        <time>2020-03-04T03:04:48Z</time>
      </trkpt>
      <trkpt lat="44.47615" lon="6.80345">
        <ele>1598.153</ele>
        <time>2020-03-04T03:05:08Z</time>
      </trkpt>
      <trkpt lat="44.47634" lon="6.80351">
        <ele>1598.484</ele>
        <time>2020-03-04T03:05:28Z</time>
      </trkpt>
      <trkpt lat="44.47661" lon="6.80353">
        <ele>1597.466</ele>
        <time>2020-03-04T03:05:48Z</time>
      </trkpt>
      <trkpt lat="44.47678" lon="6.80374">
        <ele>1600.972</ele>
        <time>2020-03-04T03:06:08Z</time>
      </trkpt>
      <trkpt lat="44.4769" lon="6.80383">
        <ele>1602.121</ele>
        <time>2020-03-04T03:06:28Z</time>
      </trkpt>
      <trkpt lat="44.47708" lon="6.80364">
        <ele>1603.241</ele>
        <time>2020-03-04T03:06:48Z</time>
      </trkpt>
      <trkpt lat="44.47713" lon="6.80341">
        <ele>1603.105</ele>
        <time>2020-03-04T03:07:08Z</time>
      </trkpt>
      <trkpt lat="44.47717" lon="6.8032">
        <ele>1601.308</ele>
        <time>2020-03-04T03:07:28Z</time>
      </trkpt>
      <trkpt lat="44.47729" lon="6.80312">
        <ele>1602.496</ele>
        <time>2020-03-04T03:07:48Z</time>
      </trkpt>
      <trkpt lat="44.47737" lon="6.80322">
        <ele>1605.999</ele>
        <time>2020-03-04T03:08:08Z</time>
      </trkpt>
      <trkpt lat="44.47737" lon="6.80335">
        <ele>1607.956</ele>
        <time>2020-03-04T03:08:28Z</time>
      </trkpt>
      <trkpt lat="44.47721" lon="6.80363">
        <ele>1606.935</ele>
        <time>2020-03-04T03:08:48Z</time>
      </trkpt>
      <trkpt lat="44.47706" lon="6.80413">
        <ele>1613.233</ele>
        <time>2020-03-04T03:09:08Z</time>
      </trkpt>
      <trkpt lat="44.47686" lon="6.80422">
        <ele>1611.854</ele>
        <time>2020-03-04T03:09:28Z</time>
      </trkpt>
      <trkpt lat="44.47673" lon="6.80433">
        <ele>1612.926</ele>
        <time>2020-03-04T03:09:48Z</time>
      </trkpt>
      <trkpt lat="44.47664" lon="6.80451">
        <ele>1614.812</ele>
        <time>2020-03-04T03:10:08Z</time>
      </trkpt>
      <trkpt lat="44.47665" lon="6.8047">
        <ele>1617.432</ele>
        <time>2020-03-04T03:10:28Z</time>
      </trkpt>
      <trkpt lat="44.47681" lon="6.80473">
        <ele>1620.792</ele>
        <time>2020-03-04T03:10:48Z</time>
      </trkpt>
      <trkpt lat="44.47697" lon="6.80464">
        <ele>1622.611</ele>
        <time>2020-03-04T03:11:08Z</time>
      </trkpt>
      <trkpt lat="44.47723" lon="6.80432">
        <ele>1622.008</ele>
        <time>2020-03-04T03:11:28Z</time>
      </trkpt>
      <trkpt lat="44.47739" lon="6.80428">
        <ele>1623.057</ele>
        <time>2020-03-04T03:11:48Z</time>
      </trkpt>
      <trkpt lat="44.47767" lon="6.80418">
        <ele>1626.05</ele>
        <time>2020-03-04T03:12:08Z</time>
      </trkpt>
      <trkpt lat="44.47793" lon="6.80392">
        <ele>1626.497</ele>
        <time>2020-03-04T03:12:28Z</time>
      </trkpt>
      <trkpt lat="44.4782" lon="6.80375">
        <ele>1631.686</ele>
        <time>2020-03-04T03:12:48Z</time>
      </trkpt>
      <trkpt lat="44.47827" lon="6.80345">
        <ele>1630.694</ele>
        <time>2020-03-04T03:13:08Z</time>
      </trkpt>
      <trkpt lat="44.47849" lon="6.80307">
        <ele>1634.295</ele>
        <time>2020-03-04T03:13:28Z</time>
      </trkpt>
      <trkpt lat="44.47865" lon="6.80275">
        <ele>1635.327</ele>
        <time>2020-03-04T03:13:48Z</time>
      </trkpt>
      <trkpt lat="44.47884" lon="6.80251">
        <ele>1639.293</ele>
        <time>2020-03-04T03:14:08Z</time>
      </trkpt>
      <trkpt lat="44.47907" lon="6.80203">
        <ele>1636.452</ele>
        <time>2020-03-04T03:14:28Z</time>
      </trkpt>
      <trkpt lat="44.47923" lon="6.80192">
        <ele>1639.453</ele>
        <time>2020-03-04T03:14:48Z</time>
      </trkpt>
      <trkpt lat="44.47932" lon="6.80171">
        <ele>1638.308</ele>
        <time>2020-03-04T03:15:08Z</time>
      </trkpt>
      <trkpt lat="44.47955" lon="6.80152">
        <ele>1642.308</ele>
        <time>2020-03-04T03:15:28Z</time>
      </trkpt>
      <trkpt lat="44.47968" lon="6.80133">
        <ele>1642.789</ele>
        <time>2020-03-04T03:15:48Z</time>
      </trkpt>
      <trkpt lat="44.47987" lon="6.80123">
        <ele>1647.432</ele>
        <time>2020-03-04T03:16:08Z</time>
      </trkpt>
      <trkpt lat="44.47994" lon="6.80105">
        <ele>1647.939</ele>
        <time>2020-03-04T03:16:28Z</time>
      </trkpt>
      <trkpt lat="44.48006" lon="6.80061">
        <ele>1647.338</ele>
        <time>2020-03-04T03:16:48Z</time>
      </trkpt>
      <trkpt lat="44.48016" lon="6.80051">
        <ele>1648.956</ele>
        <time>2020-03-04T03:17:08Z</time>
      </trkpt>
      <trkpt lat="44.48028" lon="6.80042">
        <ele>1651.437</ele>
        <time>2020-03-04T03:17:28Z</time>
      </trkpt>
      <trkpt lat="44.48047" lon="6.80032">
        <ele>1656.469</ele>
        <time>2020-03-04T03:17:48Z</time>
      </trkpt>
      <trkpt lat="44.48055" lon="6.80008">
        <ele>1654.615</ele>
        <time>2020-03-04T03:18:08Z</time>
      </trkpt>
      <trkpt lat="44.48064" lon="6.79995">
        <ele>1654.732</ele>
        <time>2020-03-04T03:18:28Z</time>
      </trkpt>
      <trkpt lat="44.48077" lon="6.79998">
        <ele>1659.792</ele>
        <time>2020-03-04T03:18:48Z</time>
      </trkpt>
      <trkpt lat="44.48076" lon="6.80015">
        <ele>1662.011</ele>
        <time>2020-03-04T03:19:08Z</time>
      </trkpt>
      <trkpt lat="44.4807" lon="6.8003">
        <ele>1663.008</ele>
        <time>2020-03-04T03:19:28Z</time>
      </trkpt>
      <trkpt lat="44.48054" lon="6.80057">
        <ele>1661.767</ele>
        <time>2020-03-04T03:19:48Z</time>
      </trkpt>
      <trkpt lat="44.48047" lon="6.80082">
        <ele>1663.22</ele>
        <time>2020-03-04T03:20:08Z</time>
      </trkpt>
      <trkpt lat="44.48045" lon="6.80119">
        <ele>1666.157</ele>
        <time>2020-03-04T03:20:28Z</time>
      </trkpt>
      <trkpt lat="44.48043" lon="6.80158">
        <ele>1670.746</ele>
        <time>2020-03-04T03:20:48Z</time>
      </trkpt>
      <trkpt lat="44.48036" lon="6.80173">
        <ele>1671.374</ele>
        <time>2020-03-04T03:21:08Z</time>
      </trkpt>
      <trkpt lat="44.47999" lon="6.802">
        <ele>1668.995</ele>
        <time>2020-03-04T03:21:28Z</time>
      </trkpt>
      <trkpt lat="44.47976" lon="6.80218">
        <ele>1667.567</ele>
        <time>2020-03-04T03:21:48Z</time>
      </trkpt>
      <trkpt lat="44.4797" lon="6.80236">
        <ele>1670.453</ele>
        <time>2020-03-04T03:22:08Z</time>
      </trkpt>
      <trkpt lat="44.47984" lon="6.8029">
        <ele>1681.523</ele>
        <time>2020-03-04T03:22:28Z</time>
      </trkpt>
      <trkpt lat="44.47998" lon="6.80339">
        <ele>1685.783</ele>
        <time>2020-03-04T03:22:48Z</time>
      </trkpt>
      <trkpt lat="44.48" lon="6.80381">
        <ele>1686.611</ele>
        <time>2020-03-04T03:23:08Z</time>
      </trkpt>
      <trkpt lat="44.4798" lon="6.80441">
        <ele>1686.508</ele>
        <time>2020-03-04T03:23:28Z</time>
      </trkpt>
      <trkpt lat="44.47962" lon="6.80504">
        <ele>1690.626</ele>
        <time>2020-03-04T03:23:48Z</time>
      </trkpt>
      <trkpt lat="44.4792" lon="6.80566">
        <ele>1696.589</ele>
        <time>2020-03-04T03:24:08Z</time>
      </trkpt>
      <trkpt lat="44.47916" lon="6.80594">
        <ele>1700.956</ele>
        <time>2020-03-04T03:24:28Z</time>
      </trkpt>
      <trkpt lat="44.47914" lon="6.80627">
        <ele>1704.595</ele>
        <time>2020-03-04T03:24:48Z</time>
      </trkpt>
      <trkpt lat="44.47901" lon="6.80656">
        <ele>1704.133</ele>
        <time>2020-03-04T03:25:08Z</time>
      </trkpt>
      <trkpt lat="44.47895" lon="6.80682">
        <ele>1708.234</ele>
        <time>2020-03-04T03:25:28Z</time>
      </trkpt>
      <trkpt lat="44.47879" lon="6.80694">
        <ele>1708.976</ele>
        <time>2020-03-04T03:25:48Z</time>
      </trkpt>
      <trkpt lat="44.47841" lon="6.80686">
        <ele>1708.192</ele>
        <time>2020-03-04T03:26:08Z</time>
      </trkpt>
      <trkpt lat="44.47819" lon="6.80714">
        <ele>1711.052</ele>
        <time>2020-03-04T03:26:28Z</time>
      </trkpt>
      <trkpt lat="44.47789" lon="6.80725">
        <ele>1712.753</ele>
        <time>2020-03-04T03:26:48Z</time>
      </trkpt>
      <trkpt lat="44.47783" lon="6.80748">
        <ele>1718.408</ele>
        <time>2020-03-04T03:27:08Z</time>
      </trkpt>
      <trkpt lat="44.47847" lon="6.80797">
        <ele>1727.508</ele>
        <time>2020-03-04T03:27:28Z</time>
      </trkpt>
      <trkpt lat="44.4787" lon="6.80791">
        <ele>1729.729</ele>
        <time>2020-03-04T03:27:48Z</time>
      </trkpt>
      <trkpt lat="44.47904" lon="6.80756">
        <ele>1733.962</ele>
        <time>2020-03-04T03:28:08Z</time>
      </trkpt>
      <trkpt lat="44.47916" lon="6.80735">
        <ele>1734.969</ele>
        <time>2020-03-04T03:28:28Z</time>
      </trkpt>
      <trkpt lat="44.47929" lon="6.80722">
        <ele>1738.378</ele>
        <time>2020-03-04T03:28:48Z</time>
      </trkpt>
      <trkpt lat="44.47939" lon="6.80699">
        <ele>1737.666</ele>
        <time>2020-03-04T03:29:08Z</time>
      </trkpt>
      <trkpt lat="44.47951" lon="6.8068">
        <ele>1737.457</ele>
        <time>2020-03-04T03:29:28Z</time>
      </trkpt>
      <trkpt lat="44.47967" lon="6.80671">
        <ele>1738.139</ele>
        <time>2020-03-04T03:29:48Z</time>
      </trkpt>
      <trkpt lat="44.47984" lon="6.80671">
        <ele>1742.255</ele>
        <time>2020-03-04T03:30:08Z</time>
      </trkpt>
      <trkpt lat="44.48004" lon="6.80666">
        <ele>1746.027</ele>
        <time>2020-03-04T03:30:28Z</time>
      </trkpt>
      <trkpt lat="44.48027" lon="6.80653">
        <ele>1747.868</ele>
        <time>2020-03-04T03:30:48Z</time>
      </trkpt>
      <trkpt lat="44.48046" lon="6.80633">
        <ele>1744.914</ele>
        <time>2020-03-04T03:31:08Z</time>
      </trkpt>
      <trkpt lat="44.48083" lon="6.80633">
        <ele>1751.908</ele>
        <time>2020-03-04T03:31:28Z</time>
      </trkpt>
      <trkpt lat="44.48155" lon="6.80606">
        <ele>1759.666</ele>
        <time>2020-03-04T03:31:48Z</time>
      </trkpt>
      <trkpt lat="44.48181" lon="6.80581">
        <ele>1762.419</ele>
        <time>2020-03-04T03:32:08Z</time>
      </trkpt>
      <trkpt lat="44.48224" lon="6.80541">
        <ele>1767.576</ele>
        <time>2020-03-04T03:32:28Z</time>
      </trkpt>
      <trkpt lat="44.4825" lon="6.8053">
        <ele>1768.215</ele>
        <time>2020-03-04T03:32:48Z</time>
      </trkpt>
      <trkpt lat="44.48263" lon="6.80525">
        <ele>1769.313</ele>
        <time>2020-03-04T03:33:08Z</time>
      </trkpt>
      <trkpt lat="44.48277" lon="6.805">
        <ele>1770.974</ele>
        <time>2020-03-04T03:33:28Z</time>
      </trkpt>
      <trkpt lat="44.48279" lon="6.80435">
        <ele>1774.596</ele>
        <time>2020-03-04T03:33:48Z</time>
      </trkpt>
      <trkpt lat="44.48289" lon="6.80429">
        <ele>1776.762</ele>
        <time>2020-03-04T03:34:08Z</time>
      </trkpt>
      <trkpt lat="44.4833" lon="6.8045">
        <ele>1783.064</ele>
        <time>2020-03-04T03:34:28Z</time>
      </trkpt>
      <trkpt lat="44.48348" lon="6.8047">
        <ele>1784.706</ele>
        <time>2020-03-04T03:34:48Z</time>
      </trkpt>
      <trkpt lat="44.48359" lon="6.80514">
        <ele>1784.916</ele>
        <time>2020-03-04T03:35:08Z</time>
      </trkpt>
      <trkpt lat="44.48362" lon="6.80565">
        <ele>1786.508</ele>
        <time>2020-03-04T03:35:28Z</time>
      </trkpt>
      <trkpt lat="44.48379" lon="6.80603">
        <ele>1790.81</ele>
        <time>2020-03-04T03:35:48Z</time>
      </trkpt>
      <trkpt lat="44.48388" lon="6.80655">
        <ele>1794.073</ele>
        <time>2020-03-04T03:36:08Z</time>
      </trkpt>
      <trkpt lat="44.4838" lon="6.8069">
        <ele>1794.82</ele>
        <time>2020-03-04T03:36:28Z</time>
      </trkpt>
      <trkpt lat="44.48379" lon="6.80741">
        <ele>1799.639</ele>
        <time>2020-03-04T03:36:48Z</time>
      </trkpt>
      <trkpt lat="44.48367" lon="6.80776">
        <ele>1800.387</ele>
        <time>2020-03-04T03:37:08Z</time>
      </trkpt>
      <trkpt lat="44.48341" lon="6.80849">
        <ele>1804.388</ele>
        <time>2020-03-04T03:37:28Z</time>
      </trkpt>
      <trkpt lat="44.48339" lon="6.80897">
        <ele>1809.94</ele>
        <time>2020-03-04T03:37:48Z</time>
      </trkpt>
      <trkpt lat="44.48336" lon="6.80943">
        <ele>1813.496</ele>
        <time>2020-03-04T03:38:08Z</time>
      </trkpt>
      <trkpt lat="44.48353" lon="6.81001">
        <ele>1819.645</ele>
        <time>2020-03-04T03:38:28Z</time>
      </trkpt>
      <trkpt lat="44.48357" lon="6.81039">
        <ele>1821.647</ele>
        <time>2020-03-04T03:38:48Z</time>
      </trkpt>
      <trkpt lat="44.48356" lon="6.81109">
        <ele>1825.611</ele>
        <time>2020-03-04T03:39:08Z</time>
      </trkpt>
      <trkpt lat="44.48349" lon="6.81129">
        <ele>1826.208</ele>
        <time>2020-03-04T03:39:28Z</time>
      </trkpt>
      <trkpt lat="44.48321" lon="6.81165">
        <ele>1827.328</ele>
        <time>2020-03-04T03:39:48Z</time>
      </trkpt>
      <trkpt lat="44.48229" lon="6.81239">
        <ele>1832.251</ele>
        <time>2020-03-04T03:40:08Z</time>
      </trkpt>
      <trkpt lat="44.48178" lon="6.81258">
        <ele>1834.828</ele>
        <time>2020-03-04T03:40:28Z</time>
      </trkpt>
      <trkpt lat="44.48151" lon="6.81253">
        <ele>1835.447</ele>
        <time>2020-03-04T03:40:48Z</time>
      </trkpt>
      <trkpt lat="44.48111" lon="6.8126">
        <ele>1839.875</ele>
        <time>2020-03-04T03:41:08Z</time>
      </trkpt>
      <trkpt lat="44.4808" lon="6.81307">
        <ele>1843.846</ele>
        <time>2020-03-04T03:41:28Z</time>
      </trkpt>
      <trkpt lat="44.48056" lon="6.81353">
        <ele>1850.068</ele>
        <time>2020-03-04T03:41:48Z</time>
      </trkpt>
      <trkpt lat="44.48015" lon="6.81364">
        <ele>1849.464</ele>
        <time>2020-03-04T03:42:08Z</time>
      </trkpt>
      <trkpt lat="44.47989" lon="6.81416">
        <ele>1860.955</ele>
        <time>2020-03-04T03:42:28Z</time>
      </trkpt>
      <trkpt lat="44.47963" lon="6.81423">
        <ele>1860.307</ele>
        <time>2020-03-04T03:42:48Z</time>
      </trkpt>
      <trkpt lat="44.47949" lon="6.81446">
        <ele>1865.717</ele>
        <time>2020-03-04T03:43:08Z</time>
      </trkpt>
      <trkpt lat="44.47936" lon="6.8147">
        <ele>1870.308</ele>
        <time>2020-03-04T03:43:28Z</time>
      </trkpt>
      <trkpt lat="44.47833" lon="6.81549">
        <ele>1872.099</ele>
        <time>2020-03-04T03:43:48Z</time>
      </trkpt>
      <trkpt lat="44.47801" lon="6.81579">
        <ele>1873.662</ele>
        <time>2020-03-04T03:44:08Z</time>
      </trkpt>
      <trkpt lat="44.47723" lon="6.81637">
        <ele>1878.599</ele>
        <time>2020-03-04T03:44:28Z</time>
      </trkpt>
      <trkpt lat="44.47684" lon="6.8166">
        <ele>1875.828</ele>
        <time>2020-03-04T03:44:48Z</time>
      </trkpt>
      <trkpt lat="44.47667" lon="6.81689">
        <ele>1877.976</ele>
        <time>2020-03-04T03:45:08Z</time>
      </trkpt>
      <trkpt lat="44.47664" lon="6.81712">
        <ele>1878.957</ele>
        <time>2020-03-04T03:45:28Z</time>
      </trkpt>
      <trkpt lat="44.47654" lon="6.81736">
        <ele>1874.939</ele>
        <time>2020-03-04T03:45:48Z</time>
      </trkpt>
      <trkpt lat="44.47641" lon="6.81796">
        <ele>1869.715</ele>
        <time>2020-03-04T03:46:08Z</time>
      </trkpt>
      <trkpt lat="44.47641" lon="6.81855">
        <ele>1867.626</ele>
        <time>2020-03-04T03:46:28Z</time>
      </trkpt>
      <trkpt lat="44.47645" lon="6.81885">
        <ele>1867.047</ele>
        <time>2020-03-04T03:46:48Z</time>
      </trkpt>
      <trkpt lat="44.47661" lon="6.81908">
        <ele>1868.211</ele>
        <time>2020-03-04T03:47:08Z</time>
      </trkpt>
      <trkpt lat="44.47679" lon="6.81909">
        <ele>1873.808</ele>
        <time>2020-03-04T03:47:28Z</time>
      </trkpt>
      <trkpt lat="44.47712" lon="6.81924">
        <ele>1879.716</ele>
        <time>2020-03-04T03:47:48Z</time>
      </trkpt>
      <trkpt lat="44.47726" lon="6.81961">
        <ele>1876.019</ele>
        <time>2020-03-04T03:48:08Z</time>
      </trkpt>
      <trkpt lat="44.47723" lon="6.82004">
        <ele>1871.656</ele>
        <time>2020-03-04T03:48:28Z</time>
      </trkpt>
      <trkpt lat="44.47725" lon="6.8203">
        <ele>1873.955</ele>
        <time>2020-03-04T03:48:48Z</time>
      </trkpt>
      <trkpt lat="44.47723" lon="6.82053">
        <ele>1873.273</ele>
        <time>2020-03-04T03:49:08Z</time>
      </trkpt>
      <trkpt lat="44.47745" lon="6.82077">
        <ele>1877.044</ele>
        <time>2020-03-04T03:49:28Z</time>
      </trkpt>
      <trkpt lat="44.47772" lon="6.8208">
        <ele>1877.846</ele>
        <time>2020-03-04T03:49:48Z</time>
      </trkpt>
      <trkpt lat="44.47794" lon="6.82064">
        <ele>1886.112</ele>
        <time>2020-03-04T03:50:08Z</time>
      </trkpt>
      <trkpt lat="44.47807" lon="6.82067">
        <ele>1885.621</ele>
        <time>2020-03-04T03:50:28Z</time>
      </trkpt>
      <trkpt lat="44.47811" lon="6.82087">
        <ele>1882.141</ele>
        <time>2020-03-04T03:50:48Z</time>
      </trkpt>
      <trkpt lat="44.47802" lon="6.82153">
        <ele>1879.805</ele>
        <time>2020-03-04T03:51:08Z</time>
      </trkpt>
      <trkpt lat="44.4778" lon="6.82201">
        <ele>1877.608</ele>
        <time>2020-03-04T03:51:28Z</time>
      </trkpt>
      <trkpt lat="44.47785" lon="6.82245">
        <ele>1884.366</ele>
        <time>2020-03-04T03:51:48Z</time>
      </trkpt>
      <trkpt lat="44.47793" lon="6.82295">
        <ele>1884.759</ele>
        <time>2020-03-04T03:52:08Z</time>
      </trkpt>
      <trkpt lat="44.47796" lon="6.82337">
        <ele>1883.336</ele>
        <time>2020-03-04T03:52:28Z</time>
      </trkpt>
      <trkpt lat="44.47799" lon="6.82372">
        <ele>1884.515</ele>
        <time>2020-03-04T03:52:48Z</time>
      </trkpt>
      <trkpt lat="44.47809" lon="6.82423">
        <ele>1888.993</ele>
        <time>2020-03-04T03:53:08Z</time>
      </trkpt>
      <trkpt lat="44.47809" lon="6.82493">
        <ele>1886.064</ele>
        <time>2020-03-04T03:53:28Z</time>
      </trkpt>
      <trkpt lat="44.47814" lon="6.82531">
        <ele>1887.436</ele>
        <time>2020-03-04T03:53:48Z</time>
      </trkpt>
      <trkpt lat="44.47821" lon="6.8255">
        <ele>1891.212</ele>
        <time>2020-03-04T03:54:08Z</time>
      </trkpt>
      <trkpt lat="44.47806" lon="6.82566">
        <ele>1886.553</ele>
        <time>2020-03-04T03:54:28Z</time>
      </trkpt>
      <trkpt lat="44.47802" lon="6.82589">
        <ele>1889.104</ele>
        <time>2020-03-04T03:54:48Z</time>
      </trkpt>
      <trkpt lat="44.478" lon="6.82629">
        <ele>1894.414</ele>
        <time>2020-03-04T03:55:08Z</time>
      </trkpt>
      <trkpt lat="44.47806" lon="6.82655">
        <ele>1898.908</ele>
        <time>2020-03-04T03:55:28Z</time>
      </trkpt>
      <trkpt lat="44.47813" lon="6.82672">
        <ele>1903.389</ele>
        <time>2020-03-04T03:55:48Z</time>
      </trkpt>
      <trkpt lat="44.47802" lon="6.82694">
        <ele>1900.172</ele>
        <time>2020-03-04T03:56:08Z</time>
      </trkpt>
      <trkpt lat="44.47783" lon="6.8269">
        <ele>1899.689</ele>
        <time>2020-03-04T03:56:28Z</time>
      </trkpt>
      <trkpt lat="44.47758" lon="6.82677">
        <ele>1898.578</ele>
        <time>2020-03-04T03:56:48Z</time>
      </trkpt>
      <trkpt lat="44.47713" lon="6.82665">
        <ele>1904.936</ele>
        <time>2020-03-04T03:57:08Z</time>
      </trkpt>
      <trkpt lat="44.47679" lon="6.82665">
        <ele>1913.687</ele>
        <time>2020-03-04T03:57:28Z</time>
      </trkpt>
      <trkpt lat="44.47665" lon="6.82644">
        <ele>1911.299</ele>
        <time>2020-03-04T03:57:48Z</time>
      </trkpt>
      <trkpt lat="44.47658" lon="6.82623">
        <ele>1909.695</ele>
        <time>2020-03-04T03:58:08Z</time>
      </trkpt>
      <trkpt lat="44.47634" lon="6.82605">
        <ele>1914.372</ele>
        <time>2020-03-04T03:58:28Z</time>
      </trkpt>
      <trkpt lat="44.47636" lon="6.82614">
        <ele>1915.813</ele>
        <time>2020-03-04T03:58:48Z</time>
      </trkpt>
      <trkpt lat="44.47652" lon="6.82645">
        <ele>1917.014</ele>
        <time>2020-03-04T03:59:08Z</time>
      </trkpt>
      <trkpt lat="44.47673" lon="6.82694">
        <ele>1925.708</ele>
        <time>2020-03-04T03:59:28Z</time>
      </trkpt>
      <trkpt lat="44.47706" lon="6.82709">
        <ele>1926.251</ele>
        <time>2020-03-04T03:59:48Z</time>
      </trkpt>
      <trkpt lat="44.47714" lon="6.82719">
        <ele>1929.374</ele>
        <time>2020-03-04T04:00:08Z</time>
      </trkpt>
      <trkpt lat="44.47694" lon="6.8275">
        <ele>1940.031</ele>
        <time>2020-03-04T04:00:28Z</time>
      </trkpt>
      <trkpt lat="44.47675" lon="6.82771">
        <ele>1942.84</ele>
        <time>2020-03-04T04:00:48Z</time>
      </trkpt>
      <trkpt lat="44.47678" lon="6.82782">
        <ele>1944.758</ele>
        <time>2020-03-04T04:01:08Z</time>
      </trkpt>
      <trkpt lat="44.47695" lon="6.82792">
        <ele>1946.669</ele>
        <time>2020-03-04T04:01:28Z</time>
      </trkpt>
      <trkpt lat="44.47718" lon="6.82793">
        <ele>1948.821</ele>
        <time>2020-03-04T04:01:48Z</time>
      </trkpt>
      <trkpt lat="44.47735" lon="6.82797">
        <ele>1949.387</ele>
        <time>2020-03-04T04:02:08Z</time>
      </trkpt>
      <trkpt lat="44.47752" lon="6.82798">
        <ele>1947.851</ele>
        <time>2020-03-04T04:02:28Z</time>
      </trkpt>
      <trkpt lat="44.47754" lon="6.82808">
        <ele>1950.401</ele>
        <time>2020-03-04T04:02:48Z</time>
      </trkpt>
      <trkpt lat="44.47736" lon="6.82829">
        <ele>1956.911</ele>
        <time>2020-03-04T04:03:08Z</time>
      </trkpt>
      <trkpt lat="44.47722" lon="6.8285">
        <ele>1960.908</ele>
        <time>2020-03-04T04:03:28Z</time>
      </trkpt>
      <trkpt lat="44.47672" lon="6.82875">
        <ele>1962.499</ele>
        <time>2020-03-04T04:03:48Z</time>
      </trkpt>
      <trkpt lat="44.47675" lon="6.82886">
        <ele>1965.082</ele>
        <time>2020-03-04T04:04:08Z</time>
      </trkpt>
      <trkpt lat="44.47694" lon="6.82882">
        <ele>1965.689</ele>
        <time>2020-03-04T04:04:28Z</time>
      </trkpt>
      <trkpt lat="44.4771" lon="6.82887">
        <ele>1967.818</ele>
        <time>2020-03-04T04:04:48Z</time>
      </trkpt>
      <trkpt lat="44.47742" lon="6.82903">
        <ele>1973.646</ele>
        <time>2020-03-04T04:05:08Z</time>
      </trkpt>
      <trkpt lat="44.47762" lon="6.82902">
        <ele>1973.957</ele>
        <time>2020-03-04T04:05:28Z</time>
      </trkpt>
      <trkpt lat="44.47785" lon="6.82911">
        <ele>1974.279</ele>
        <time>2020-03-04T04:05:48Z</time>
      </trkpt>
      <trkpt lat="44.47801" lon="6.82929">
        <ele>1974.135</ele>
        <time>2020-03-04T04:06:08Z</time>
      </trkpt>
      <trkpt lat="44.47804" lon="6.82959">
        <ele>1979.562</ele>
        <time>2020-03-04T04:06:28Z</time>
      </trkpt>
      <trkpt lat="44.47807" lon="6.82982">
        <ele>1984.383</ele>
        <time>2020-03-04T04:06:48Z</time>
      </trkpt>
      <trkpt lat="44.47814" lon="6.82982">
        <ele>1985.011</ele>
        <time>2020-03-04T04:07:08Z</time>
      </trkpt>
      <trkpt lat="44.47827" lon="6.82957">
        <ele>1979.708</ele>
        <time>2020-03-04T04:07:28Z</time>
      </trkpt>
      <trkpt lat="44.4784" lon="6.82953">
        <ele>1978.09</ele>
        <time>2020-03-04T04:07:48Z</time>
      </trkpt>
      <trkpt lat="44.47851" lon="6.82963">
        <ele>1979.393</ele>
        <time>2020-03-04T04:08:08Z</time>
      </trkpt>
      <trkpt lat="44.47856" lon="6.82971">
        <ele>1980.63</ele>
        <time>2020-03-04T04:08:28Z</time>
      </trkpt>
      <trkpt lat="44.47857" lon="6.82996">
        <ele>1985.289</ele>
        <time>2020-03-04T04:08:48Z</time>
      </trkpt>
      <trkpt lat="44.47869" lon="6.83004">
        <ele>1983.617</ele>
        <time>2020-03-04T04:09:08Z</time>
      </trkpt>
      <trkpt lat="44.47882" lon="6.83016">
        <ele>1983.868</ele>
        <time>2020-03-04T04:09:28Z</time>
      </trkpt>
      <trkpt lat="44.47925" lon="6.8306">
        <ele>1989.78</ele>
        <time>2020-03-04T04:09:48Z</time>
      </trkpt>
      <trkpt lat="44.47952" lon="6.83093">
        <ele>1994.416</ele>
        <time>2020-03-04T04:10:08Z</time>
      </trkpt>
      <trkpt lat="44.47964" lon="6.83106">
        <ele>1997.133</ele>
        <time>2020-03-04T04:10:28Z</time>
      </trkpt>
      <trkpt lat="44.47973" lon="6.83113">
        <ele>1997.823</ele>
        <time>2020-03-04T04:10:48Z</time>
      </trkpt>
      <trkpt lat="44.47979" lon="6.83112">
        <ele>1999.815</ele>
        <time>2020-03-04T04:11:08Z</time>
      </trkpt>
      <trkpt lat="44.47989" lon="6.83099">
        <ele>2003.108</ele>
        <time>2020-03-04T04:11:28Z</time>
      </trkpt>
      <trkpt lat="44.47989" lon="6.83056">
        <ele>2005.757</ele>
        <time>2020-03-04T04:11:48Z</time>
      </trkpt>
      <trkpt lat="44.47978" lon="6.82996">
        <ele>2006.09</ele>
        <time>2020-03-04T04:12:08Z</time>
      </trkpt>
      <trkpt lat="44.47979" lon="6.82972">
        <ele>2007.697</ele>
        <time>2020-03-04T04:12:28Z</time>
      </trkpt>
      <trkpt lat="44.47986" lon="6.82945">
        <ele>2011.816</ele>
        <time>2020-03-04T04:12:48Z</time>
      </trkpt>
      <trkpt lat="44.47986" lon="6.82926">
        <ele>2011.074</ele>
        <time>2020-03-04T04:13:08Z</time>
      </trkpt>
      <trkpt lat="44.4799" lon="6.8291">
        <ele>2012.515</ele>
        <time>2020-03-04T04:13:28Z</time>
      </trkpt>
      <trkpt lat="44.47996" lon="6.82917">
        <ele>2016.537</ele>
        <time>2020-03-04T04:13:48Z</time>
      </trkpt>
      <trkpt lat="44.47991" lon="6.82937">
        <ele>2014.963</ele>
        <time>2020-03-04T04:14:08Z</time>
      </trkpt>
      <trkpt lat="44.47994" lon="6.82958">
        <ele>2017.183</ele>
        <time>2020-03-04T04:14:28Z</time>
      </trkpt>
      <trkpt lat="44.47995" lon="6.82984">
        <ele>2017.825</ele>
        <time>2020-03-04T04:14:48Z</time>
      </trkpt>
      <trkpt lat="44.48003" lon="6.82999">
        <ele>2021.817</ele>
        <time>2020-03-04T04:15:08Z</time>
      </trkpt>
      <trkpt lat="44.48013" lon="6.83013">
        <ele>2025.008</ele>
        <time>2020-03-04T04:15:28Z</time>
      </trkpt>
      <trkpt lat="44.48023" lon="6.83035">
        <ele>2027.842</ele>
        <time>2020-03-04T04:15:48Z</time>
      </trkpt>
      <trkpt lat="44.4802" lon="6.82999">
        <ele>2030.395</ele>
        <time>2020-03-04T04:16:08Z</time>
      </trkpt>
      <trkpt lat="44.48017" lon="6.82982">
        <ele>2030.122</ele>
        <time>2020-03-04T04:16:28Z</time>
      </trkpt>
      <trkpt lat="44.48023" lon="6.82955">
        <ele>2034.621</ele>
        <time>2020-03-04T04:16:48Z</time>
      </trkpt>
      <trkpt lat="44.48029" lon="6.82958">
        <ele>2038.699</ele>
        <time>2020-03-04T04:17:08Z</time>
      </trkpt>
      <trkpt lat="44.48028" lon="6.82975">
        <ele>2037.04</ele>
        <time>2020-03-04T04:17:28Z</time>
      </trkpt>
      <trkpt lat="44.48046" lon="6.83008">
        <ele>2044.462</ele>
        <time>2020-03-04T04:17:48Z</time>
      </trkpt>
      <trkpt lat="44.48057" lon="6.83041">
        <ele>2046.588</ele>
        <time>2020-03-04T04:18:08Z</time>
      </trkpt>
      <trkpt lat="44.48077" lon="6.83069">
        <ele>2051.223</ele>
        <time>2020-03-04T04:18:28Z</time>
      </trkpt>
      <trkpt lat="44.48081" lon="6.83093">
        <ele>2050.183</ele>
        <time>2020-03-04T04:18:48Z</time>
      </trkpt>
      <trkpt lat="44.48093" lon="6.83104">
        <ele>2053.711</ele>
        <time>2020-03-04T04:19:08Z</time>
      </trkpt>
      <trkpt lat="44.48093" lon="6.83083">
        <ele>2055.708</ele>
        <time>2020-03-04T04:19:28Z</time>
      </trkpt>
      <trkpt lat="44.48091" lon="6.83057">
        <ele>2059.546</ele>
        <time>2020-03-04T04:19:48Z</time>
      </trkpt>
      <trkpt lat="44.48085" lon="6.83034">
        <ele>2061.039</ele>
        <time>2020-03-04T04:20:08Z</time>
      </trkpt>
      <trkpt lat="44.48095" lon="6.83042">
        <ele>2064.426</ele>
        <time>2020-03-04T04:20:28Z</time>
      </trkpt>
      <trkpt lat="44.48102" lon="6.83057">
        <ele>2064.425</ele>
        <time>2020-03-04T04:20:48Z</time>
      </trkpt>
      <trkpt lat="44.48113" lon="6.83073">
        <ele>2066.143</ele>
        <time>2020-03-04T04:21:08Z</time>
      </trkpt>
      <trkpt lat="44.48133" lon="6.8309">
        <ele>2070.474</ele>
        <time>2020-03-04T04:21:28Z</time>
      </trkpt>
      <trkpt lat="44.48144" lon="6.83105">
        <ele>2071.866</ele>
        <time>2020-03-04T04:21:48Z</time>
      </trkpt>
      <trkpt lat="44.4816" lon="6.83117">
        <ele>2075.492</ele>
        <time>2020-03-04T04:22:08Z</time>
      </trkpt>
      <trkpt lat="44.48188" lon="6.83132">
        <ele>2081.718</ele>
        <time>2020-03-04T04:22:28Z</time>
      </trkpt>
      <trkpt lat="44.48198" lon="6.83147">
        <ele>2081.798</ele>
        <time>2020-03-04T04:22:48Z</time>
      </trkpt>
      <trkpt lat="44.48204" lon="6.8316">
        <ele>2082.217</ele>
        <time>2020-03-04T04:23:08Z</time>
      </trkpt>
      <trkpt lat="44.48214" lon="6.83169">
        <ele>2085.108</ele>
        <time>2020-03-04T04:23:28Z</time>
      </trkpt>
      <trkpt lat="44.48226" lon="6.83216">
        <ele>2086.995</ele>
        <time>2020-03-04T04:23:48Z</time>
      </trkpt>
      <trkpt lat="44.48231" lon="6.83232">
        <ele>2088.638</ele>
        <time>2020-03-04T04:24:08Z</time>
      </trkpt>
      <trkpt lat="44.48237" lon="6.83275">
        <ele>2093.015</ele>
        <time>2020-03-04T04:24:28Z</time>
      </trkpt>
      <trkpt lat="44.48236" lon="6.83315">
        <ele>2096.374</ele>
        <time>2020-03-04T04:24:48Z</time>
      </trkpt>
      <trkpt lat="44.48247" lon="6.83292">
        <ele>2099.062</ele>
        <time>2020-03-04T04:25:08Z</time>
      </trkpt>
      <trkpt lat="44.4826" lon="6.83266">
        <ele>2102.633</ele>
        <time>2020-03-04T04:25:28Z</time>
      </trkpt>
      <trkpt lat="44.48264" lon="6.83242">
        <ele>2103.895</ele>
        <time>2020-03-04T04:25:48Z</time>
      </trkpt>
      <trkpt lat="44.48268" lon="6.83254">
        <ele>2105.441</ele>
        <time>2020-03-04T04:26:08Z</time>
      </trkpt>
      <trkpt lat="44.48269" lon="6.83277">
        <ele>2107.171</ele>
        <time>2020-03-04T04:26:28Z</time>
      </trkpt>
      <trkpt lat="44.48267" lon="6.83306">
        <ele>2108.641</ele>
        <time>2020-03-04T04:26:48Z</time>
      </trkpt>
      <trkpt lat="44.4827" lon="6.83328">
        <ele>2110.715</ele>
        <time>2020-03-04T04:27:08Z</time>
      </trkpt>
      <trkpt lat="44.48275" lon="6.83312">
        <ele>2112.108</ele>
        <time>2020-03-04T04:27:28Z</time>
      </trkpt>
      <trkpt lat="44.48286" lon="6.83286">
        <ele>2115.651</ele>
        <time>2020-03-04T04:27:48Z</time>
      </trkpt>
      <trkpt lat="44.48295" lon="6.83272">
        <ele>2119.294</ele>
        <time>2020-03-04T04:28:08Z</time>
      </trkpt>
      <trkpt lat="44.483" lon="6.83251">
        <ele>2121.191</ele>
        <time>2020-03-04T04:28:28Z</time>
      </trkpt>
      <trkpt lat="44.48304" lon="6.83264">
        <ele>2123.04</ele>
        <time>2020-03-04T04:28:48Z</time>
      </trkpt>
      <trkpt lat="44.48299" lon="6.8329">
        <ele>2122.088</ele>
        <time>2020-03-04T04:29:08Z</time>
      </trkpt>
      <trkpt lat="44.48307" lon="6.83315">
        <ele>2126.659</ele>
        <time>2020-03-04T04:29:28Z</time>
      </trkpt>
      <trkpt lat="44.48302" lon="6.83339">
        <ele>2124.981</ele>
        <time>2020-03-04T04:29:48Z</time>
      </trkpt>
      <trkpt lat="44.48304" lon="6.83353">
        <ele>2126.827</ele>
        <time>2020-03-04T04:30:08Z</time>
      </trkpt>
      <trkpt lat="44.48303" lon="6.83369">
        <ele>2127.586</ele>
        <time>2020-03-04T04:30:28Z</time>
      </trkpt>
      <trkpt lat="44.4831" lon="6.83382">
        <ele>2131.86</ele>
        <time>2020-03-04T04:30:48Z</time>
      </trkpt>
      <trkpt lat="44.48313" lon="6.83363">
        <ele>2131.426</ele>
        <time>2020-03-04T04:31:08Z</time>
      </trkpt>
      <trkpt lat="44.48318" lon="6.83349">
        <ele>2132.508</ele>
        <time>2020-03-04T04:31:28Z</time>
      </trkpt>
      <trkpt lat="44.48332" lon="6.83319">
        <ele>2137.872</ele>
        <time>2020-03-04T04:31:48Z</time>
      </trkpt>
      <trkpt lat="44.48333" lon="6.83303">
        <ele>2138.725</ele>
        <time>2020-03-04T04:32:08Z</time>
      </trkpt>
      <trkpt lat="44.48335" lon="6.8328">
        <ele>2139.832</ele>
        <time>2020-03-04T04:32:28Z</time>
      </trkpt>
      <trkpt lat="44.48344" lon="6.83313">
        <ele>2145.551</ele>
        <time>2020-03-04T04:32:48Z</time>
      </trkpt>
      <trkpt lat="44.48348" lon="6.83369">
        <ele>2150.719</ele>
        <time>2020-03-04T04:33:08Z</time>
      </trkpt>
      <trkpt lat="44.48348" lon="6.83395">
        <ele>2152.13</ele>
        <time>2020-03-04T04:33:28Z</time>
      </trkpt>
      <trkpt lat="44.48361" lon="6.83432">
        <ele>2156.542</ele>
        <time>2020-03-04T04:33:48Z</time>
      </trkpt>
      <trkpt lat="44.48382" lon="6.83452">
        <ele>2162.848</ele>
        <time>2020-03-04T04:34:08Z</time>
      </trkpt>
      <trkpt lat="44.48397" lon="6.83479">
        <ele>2166.297</ele>
        <time>2020-03-04T04:34:28Z</time>
      </trkpt>
      <trkpt lat="44.48392" lon="6.83441">
        <ele>2169.323</ele>
        <time>2020-03-04T04:34:48Z</time>
      </trkpt>
      <trkpt lat="44.48382" lon="6.83421">
        <ele>2168.225</ele>
        <time>2020-03-04T04:35:08Z</time>
      </trkpt>
      <trkpt lat="44.4839" lon="6.83424">
        <ele>2171.308</ele>
        <time>2020-03-04T04:35:28Z</time>
      </trkpt>
      <trkpt lat="44.48417" lon="6.83462">
        <ele>2178.183</ele>
        <time>2020-03-04T04:35:48Z</time>
      </trkpt>
      <trkpt lat="44.48444" lon="6.83513">
        <ele>2182.716</ele>
        <time>2020-03-04T04:36:08Z</time>
      </trkpt>
      <trkpt lat="44.4845" lon="6.83556">
        <ele>2184.423</ele>
        <time>2020-03-04T04:36:28Z</time>
      </trkpt>
      <trkpt lat="44.48489" lon="6.83623">
        <ele>2196.622</ele>
        <time>2020-03-04T04:36:48Z</time>
      </trkpt>
      <trkpt lat="44.48506" lon="6.83645">
        <ele>2201.37</ele>
        <time>2020-03-04T04:37:08Z</time>
      </trkpt>
      <trkpt lat="44.48514" lon="6.83675">
        <ele>2204.171</ele>
        <time>2020-03-04T04:37:28Z</time>
      </trkpt>
      <trkpt lat="44.48519" lon="6.83758">
        <ele>2210.223</ele>
        <time>2020-03-04T04:37:48Z</time>
      </trkpt>
      <trkpt lat="44.48539" lon="6.83801">
        <ele>2215.529</ele>
        <time>2020-03-04T04:38:08Z</time>
      </trkpt>
      <trkpt lat="44.48557" lon="6.83834">
        <ele>2217.778</ele>
        <time>2020-03-04T04:38:28Z</time>
      </trkpt>
      <trkpt lat="44.48572" lon="6.83863">
        <ele>2221.333</ele>
        <time>2020-03-04T04:38:48Z</time>
      </trkpt>
      <trkpt lat="44.48575" lon="6.83888">
        <ele>2220.626</ele>
        <time>2020-03-04T04:39:08Z</time>
      </trkpt>
      <trkpt lat="44.4858" lon="6.83906">
        <ele>2221.008</ele>
        <time>2020-03-04T04:39:28Z</time>
      </trkpt>
      <trkpt lat="44.48573" lon="6.83916">
        <ele>2219.971</ele>
        <time>2020-03-04T04:39:48Z</time>
      </trkpt>
      <trkpt lat="44.48561" lon="6.83911">
        <ele>2218.524</ele>
        <time>2020-03-04T04:40:08Z</time>
      </trkpt>
      <trkpt lat="44.48554" lon="6.8389">
        <ele>2217.041</ele>
        <time>2020-03-04T04:40:28Z</time>
      </trkpt>
      <trkpt lat="44.48524" lon="6.8388">
        <ele>2216.67</ele>
        <time>2020-03-04T04:40:48Z</time>
      </trkpt>
      <trkpt lat="44.48498" lon="6.8386">
        <ele>2219.628</ele>
        <time>2020-03-04T04:41:08Z</time>
      </trkpt>
      <trkpt lat="44.48473" lon="6.83834">
        <ele>2224.039</ele>
        <time>2020-03-04T04:41:28Z</time>
      </trkpt>
      <trkpt lat="44.4847" lon="6.8385">
        <ele>2226.961</ele>
        <time>2020-03-04T04:41:48Z</time>
      </trkpt>
      <trkpt lat="44.48475" lon="6.83877">
        <ele>2229.397</ele>
        <time>2020-03-04T04:42:08Z</time>
      </trkpt>
      <trkpt lat="44.48478" lon="6.8392">
        <ele>2233.913</ele>
        <time>2020-03-04T04:42:28Z</time>
      </trkpt>
      <trkpt lat="44.48481" lon="6.83954">
        <ele>2236.943</ele>
        <time>2020-03-04T04:42:48Z</time>
      </trkpt>
      <trkpt lat="44.48494" lon="6.83993">
        <ele>2238.307</ele>
        <time>2020-03-04T04:43:08Z</time>
      </trkpt>
      <trkpt lat="44.48503" lon="6.84042">
        <ele>2244.608</ele>
        <time>2020-03-04T04:43:28Z</time>
      </trkpt>
      <trkpt lat="44.4852" lon="6.8407">
        <ele>2248.875</ele>
        <time>2020-03-04T04:43:48Z</time>
      </trkpt>
      <trkpt lat="44.48539" lon="6.84093">
        <ele>2251.868</ele>
        <time>2020-03-04T04:44:08Z</time>
      </trkpt>
      <trkpt lat="44.48553" lon="6.84108">
        <ele>2252.855</ele>
        <time>2020-03-04T04:44:28Z</time>
      </trkpt>
      <trkpt lat="44.48557" lon="6.84159">
        <ele>2260.794</ele>
        <time>2020-03-04T04:44:48Z</time>
      </trkpt>
      <trkpt lat="44.48559" lon="6.8421">
        <ele>2266.262</ele>
        <time>2020-03-04T04:45:08Z</time>
      </trkpt>
      <trkpt lat="44.4855" lon="6.84222">
        <ele>2269.013</ele>
        <time>2020-03-04T04:45:28Z</time>
      </trkpt>
      <trkpt lat="44.48515" lon="6.84225">
        <ele>2275.015</ele>
        <time>2020-03-04T04:45:48Z</time>
      </trkpt>
      <trkpt lat="44.485" lon="6.84201">
        <ele>2275.431</ele>
        <time>2020-03-04T04:46:08Z</time>
      </trkpt>
      <trkpt lat="44.48495" lon="6.84222">
        <ele>2278.671</ele>
        <time>2020-03-04T04:46:28Z</time>
      </trkpt>
      <trkpt lat="44.48495" lon="6.84254">
        <ele>2280.641</ele>
        <time>2020-03-04T04:46:48Z</time>
      </trkpt>
      <trkpt lat="44.48506" lon="6.84271">
        <ele>2280.015</ele>
        <time>2020-03-04T04:47:08Z</time>
      </trkpt>
      <trkpt lat="44.48524" lon="6.8432">
        <ele>2287.408</ele>
        <time>2020-03-04T04:47:28Z</time>
      </trkpt>
      <trkpt lat="44.4854" lon="6.84324">
        <ele>2286.361</ele>
        <time>2020-03-04T04:47:48Z</time>
      </trkpt>
      <trkpt lat="44.48548" lon="6.84335">
        <ele>2287.324</ele>
        <time>2020-03-04T04:48:08Z</time>
      </trkpt>
      <trkpt lat="44.48554" lon="6.84348">
        <ele>2287.831</ele>
        <time>2020-03-04T04:48:28Z</time>
      </trkpt>
      <trkpt lat="44.48545" lon="6.84386">
        <ele>2295.18</ele>
        <time>2020-03-04T04:48:48Z</time>
      </trkpt>
      <trkpt lat="44.48541" lon="6.84416">
        <ele>2298.268</ele>
        <time>2020-03-04T04:49:08Z</time>
      </trkpt>
      <trkpt lat="44.48543" lon="6.84454">
        <ele>2301.169</ele>
        <time>2020-03-04T04:49:28Z</time>
      </trkpt>
      <trkpt lat="44.48543" lon="6.84494">
        <ele>2305.571</ele>
        <time>2020-03-04T04:49:48Z</time>
      </trkpt>
      <trkpt lat="44.48534" lon="6.84565">
        <ele>2312.897</ele>
        <time>2020-03-04T04:50:08Z</time>
      </trkpt>
      <trkpt lat="44.48523" lon="6.84513">
        <ele>2313.723</ele>
        <time>2020-03-04T04:50:28Z</time>
      </trkpt>
      <trkpt lat="44.48508" lon="6.84503">
        <ele>2318.583</ele>
        <time>2020-03-04T04:50:48Z</time>
      </trkpt>
      <trkpt lat="44.48504" lon="6.84494">
        <ele>2319.011</ele>
        <time>2020-03-04T04:51:08Z</time>
      </trkpt>
      <trkpt lat="44.48489" lon="6.84482">
        <ele>2323.608</ele>
        <time>2020-03-04T04:51:28Z</time>
      </trkpt>
      <trkpt lat="44.48485" lon="6.84454">
        <ele>2323.566</ele>
        <time>2020-03-04T04:51:48Z</time>
      </trkpt>
      <trkpt lat="44.48473" lon="6.84399">
        <ele>2326.659</ele>
        <time>2020-03-04T04:52:08Z</time>
      </trkpt>
      <trkpt lat="44.4847" lon="6.84424">
        <ele>2329.126</ele>
        <time>2020-03-04T04:52:28Z</time>
      </trkpt>
      <trkpt lat="44.48467" lon="6.84439">
        <ele>2331.085</ele>
        <time>2020-03-04T04:52:48Z</time>
      </trkpt>
      <trkpt lat="44.48448" lon="6.84472">
        <ele>2337.873</ele>
        <time>2020-03-04T04:53:08Z</time>
      </trkpt>
      <trkpt lat="44.48447" lon="6.84486">
        <ele>2337.674</ele>
        <time>2020-03-04T04:53:28Z</time>
      </trkpt>
      <trkpt lat="44.4845" lon="6.845">
        <ele>2336.336</ele>
        <time>2020-03-04T04:53:48Z</time>
      </trkpt>
      <trkpt lat="44.48457" lon="6.84552">
        <ele>2340.482</ele>
        <time>2020-03-04T04:54:08Z</time>
      </trkpt>
      <trkpt lat="44.48413" lon="6.8464">
        <ele>2354.223</ele>
        <time>2020-03-04T04:54:28Z</time>
      </trkpt>
      <trkpt lat="44.48402" lon="6.84662">
        <ele>2356.983</ele>
        <time>2020-03-04T04:54:48Z</time>
      </trkpt>
      <trkpt lat="44.48372" lon="6.84704">
        <ele>2363.111</ele>
        <time>2020-03-04T04:55:08Z</time>
      </trkpt>
      <trkpt lat="44.48354" lon="6.84731">
        <ele>2365.808</ele>
        <time>2020-03-04T04:55:28Z</time>
      </trkpt>
      <trkpt lat="44.48296" lon="6.84767">
        <ele>2374.516</ele>
        <time>2020-03-04T04:55:48Z</time>
      </trkpt>
      <trkpt lat="44.4823" lon="6.84821">
        <ele>2381.729</ele>
        <time>2020-03-04T04:56:08Z</time>
      </trkpt>
      <trkpt lat="44.48196" lon="6.84823">
        <ele>2388.326</ele>
        <time>2020-03-04T04:56:28Z</time>
      </trkpt>
      <trkpt lat="44.48163" lon="6.84838">
        <ele>2393.575</ele>
        <time>2020-03-04T04:56:48Z</time>
      </trkpt>
      <trkpt lat="44.48149" lon="6.84841">
        <ele>2396.973</ele>
        <time>2020-03-04T04:57:08Z</time>
      </trkpt>
      <trkpt lat="44.48134" lon="6.84854">
        <ele>2397.874</ele>
        <time>2020-03-04T04:57:28Z</time>
      </trkpt>
      <trkpt lat="44.4811" lon="6.84859">
        <ele>2399.616</ele>
        <time>2020-03-04T04:57:48Z</time>
      </trkpt>
      <trkpt lat="44.48077" lon="6.84879">
        <ele>2400.942</ele>
        <time>2020-03-04T04:58:08Z</time>
      </trkpt>
      <trkpt lat="44.4804" lon="6.84908">
        <ele>2406.449</ele>
        <time>2020-03-04T04:58:28Z</time>
      </trkpt>
      <trkpt lat="44.48007" lon="6.84976">
        <ele>2414.802</ele>
        <time>2020-03-04T04:58:48Z</time>
      </trkpt>
      <trkpt lat="44.47973" lon="6.85">
        <ele>2420.022</ele>
        <time>2020-03-04T04:59:08Z</time>
      </trkpt>
      <trkpt lat="44.47952" lon="6.85014">
        <ele>2421.508</ele>
        <time>2020-03-04T04:59:28Z</time>
      </trkpt>
      <trkpt lat="44.47939" lon="6.85007">
        <ele>2422.368</ele>
        <time>2020-03-04T04:59:48Z</time>
      </trkpt>
      <trkpt lat="44.47915" lon="6.84978">
        <ele>2430.991</ele>
        <time>2020-03-04T05:00:08Z</time>
      </trkpt>
      <trkpt lat="44.47928" lon="6.84957">
        <ele>2429.218</ele>
        <time>2020-03-04T05:00:28Z</time>
      </trkpt>
      <trkpt lat="44.47932" lon="6.84942">
        <ele>2430.237</ele>
        <time>2020-03-04T05:00:48Z</time>
      </trkpt>
      <trkpt lat="44.47926" lon="6.84932">
        <ele>2432.065</ele>
        <time>2020-03-04T05:01:08Z</time>
      </trkpt>
      <trkpt lat="44.47915" lon="6.84927">
        <ele>2435.096</ele>
        <time>2020-03-04T05:01:28Z</time>
      </trkpt>
      <trkpt lat="44.47901" lon="6.84932">
        <ele>2438.758</ele>
        <time>2020-03-04T05:01:48Z</time>
      </trkpt>
      <trkpt lat="44.47879" lon="6.8497">
        <ele>2443.514</ele>
        <time>2020-03-04T05:02:08Z</time>
      </trkpt>
      <trkpt lat="44.47874" lon="6.85001">
        <ele>2443.486</ele>
        <time>2020-03-04T05:02:28Z</time>
      </trkpt>
      <trkpt lat="44.47875" lon="6.85037">
        <ele>2445.96</ele>
        <time>2020-03-04T05:02:48Z</time>
      </trkpt>
      <trkpt lat="44.47867" lon="6.8509">
        <ele>2449.926</ele>
        <time>2020-03-04T05:03:08Z</time>
      </trkpt>
      <trkpt lat="44.47808" lon="6.85127">
        <ele>2465.908</ele>
        <time>2020-03-04T05:03:28Z</time>
      </trkpt>
      <trkpt lat="44.47789" lon="6.85139">
        <ele>2467.242</ele>
        <time>2020-03-04T05:03:48Z</time>
      </trkpt>
      <trkpt lat="44.47747" lon="6.85199">
        <ele>2472.565</ele>
        <time>2020-03-04T05:04:08Z</time>
      </trkpt>
      <trkpt lat="44.47738" lon="6.8523">
        <ele>2475.662</ele>
        <time>2020-03-04T05:04:28Z</time>
      </trkpt>
      <trkpt lat="44.47737" lon="6.85185">
        <ele>2478.571</ele>
        <time>2020-03-04T05:04:48Z</time>
      </trkpt>
      <trkpt lat="44.47732" lon="6.85155">
        <ele>2484.119</ele>
        <time>2020-03-04T05:05:08Z</time>
      </trkpt>
      <trkpt lat="44.47726" lon="6.85171">
        <ele>2485.35</ele>
        <time>2020-03-04T05:05:28Z</time>
      </trkpt>
      <trkpt lat="44.47726" lon="6.85182">
        <ele>2484.852</ele>
        <time>2020-03-04T05:05:48Z</time>
      </trkpt>
      <trkpt lat="44.477" lon="6.85247">
        <ele>2490.238</ele>
        <time>2020-03-04T05:06:08Z</time>
      </trkpt>
      <trkpt lat="44.47689" lon="6.85272">
        <ele>2493.054</ele>
        <time>2020-03-04T05:06:28Z</time>
      </trkpt>
      <trkpt lat="44.47679" lon="6.8529">
        <ele>2496.456</ele>
        <time>2020-03-04T05:06:48Z</time>
      </trkpt>
      <trkpt lat="44.47639" lon="6.85328">
        <ele>2502.211</ele>
        <time>2020-03-04T05:07:08Z</time>
      </trkpt>
      <trkpt lat="44.47615" lon="6.85302">
        <ele>2506.508</ele>
        <time>2020-03-04T05:07:28Z</time>
      </trkpt>
      <trkpt lat="44.47623" lon="6.85296">
        <ele>2505.699</ele>
        <time>2020-03-04T05:07:48Z</time>
      </trkpt>
      <trkpt lat="44.47626" lon="6.853">
        <ele>2505.152</ele>
        <time>2020-03-04T05:08:08Z</time>
      </trkpt>
      <trkpt lat="44.4762" lon="6.85302">
        <ele>2505.869</ele>
        <time>2020-03-04T05:08:28Z</time>
      </trkpt>
      <trkpt lat="44.4764" lon="6.85323">
        <ele>2502.368</ele>
        <time>2020-03-04T05:08:48Z</time>
      </trkpt>
      <trkpt lat="44.47677" lon="6.85287">
        <ele>2496.776</ele>
        <time>2020-03-04T05:09:08Z</time>
      </trkpt>
      <trkpt lat="44.47723" lon="6.85182">
        <ele>2486.127</ele>
        <time>2020-03-04T05:09:28Z</time>
      </trkpt>
      <trkpt lat="44.47722" lon="6.8517">
        <ele>2486.939</ele>
        <time>2020-03-04T05:09:48Z</time>
      </trkpt>
      <trkpt lat="44.47733" lon="6.85148">
        <ele>2484.785</ele>
        <time>2020-03-04T05:10:08Z</time>
      </trkpt>
      <trkpt lat="44.47739" lon="6.85182">
        <ele>2477.931</ele>
        <time>2020-03-04T05:10:28Z</time>
      </trkpt>
      <trkpt lat="44.47741" lon="6.85215">
        <ele>2474.461</ele>
        <time>2020-03-04T05:10:48Z</time>
      </trkpt>
      <trkpt lat="44.47744" lon="6.85196">
        <ele>2473.907</ele>
        <time>2020-03-04T05:11:08Z</time>
      </trkpt>
      <trkpt lat="44.47788" lon="6.85135">
        <ele>2468.808</ele>
        <time>2020-03-04T05:11:28Z</time>
      </trkpt>
      <trkpt lat="44.47865" lon="6.85088">
        <ele>2450.597</ele>
        <time>2020-03-04T05:11:48Z</time>
      </trkpt>
      <trkpt lat="44.47872" lon="6.85037">
        <ele>2447.28</ele>
        <time>2020-03-04T05:12:08Z</time>
      </trkpt>
      <trkpt lat="44.47873" lon="6.85001">
        <ele>2444.087</ele>
        <time>2020-03-04T05:12:28Z</time>
      </trkpt>
      <trkpt lat="44.47877" lon="6.84968">
        <ele>2444.576</ele>
        <time>2020-03-04T05:12:48Z</time>
      </trkpt>
      <trkpt lat="44.47902" lon="6.84927">
        <ele>2438.844</ele>
        <time>2020-03-04T05:13:08Z</time>
      </trkpt>
      <trkpt lat="44.47917" lon="6.84925">
        <ele>2434.725</ele>
        <time>2020-03-04T05:13:28Z</time>
      </trkpt>
      <trkpt lat="44.47929" lon="6.84931">
        <ele>2431.267</ele>
        <time>2020-03-04T05:13:48Z</time>
      </trkpt>
      <trkpt lat="44.47935" lon="6.84942">
        <ele>2429.513</ele>
        <time>2020-03-04T05:14:08Z</time>
      </trkpt>
      <trkpt lat="44.47929" lon="6.84963">
        <ele>2428.183</ele>
        <time>2020-03-04T05:14:28Z</time>
      </trkpt>
      <trkpt lat="44.47918" lon="6.84978">
        <ele>2429.825</ele>
        <time>2020-03-04T05:14:48Z</time>
      </trkpt>
      <trkpt lat="44.47939" lon="6.85003">
        <ele>2421.817</ele>
        <time>2020-03-04T05:15:08Z</time>
      </trkpt>
      <trkpt lat="44.4795" lon="6.8501">
        <ele>2421.108</ele>
        <time>2020-03-04T05:15:28Z</time>
      </trkpt>
      <trkpt lat="44.48004" lon="6.84975">
        <ele>2414.912</ele>
        <time>2020-03-04T05:15:48Z</time>
      </trkpt>
      <trkpt lat="44.4804" lon="6.84905">
        <ele>2406.535</ele>
        <time>2020-03-04T05:16:08Z</time>
      </trkpt>
      <trkpt lat="44.48077" lon="6.84874">
        <ele>2401.182</ele>
        <time>2020-03-04T05:16:28Z</time>
      </trkpt>
      <trkpt lat="44.48112" lon="6.84855">
        <ele>2400.171</ele>
        <time>2020-03-04T05:16:48Z</time>
      </trkpt>
      <trkpt lat="44.48132" lon="6.84852">
        <ele>2398.669</ele>
        <time>2020-03-04T05:17:08Z</time>
      </trkpt>
      <trkpt lat="44.48149" lon="6.84837">
        <ele>2397.55</ele>
        <time>2020-03-04T05:17:28Z</time>
      </trkpt>
      <trkpt lat="44.48162" lon="6.84837">
        <ele>2393.822</ele>
        <time>2020-03-04T05:17:48Z</time>
      </trkpt>
      <trkpt lat="44.48198" lon="6.84819">
        <ele>2388.058</ele>
        <time>2020-03-04T05:18:08Z</time>
      </trkpt>
      <trkpt lat="44.48229" lon="6.84817">
        <ele>2381.476</ele>
        <time>2020-03-04T05:18:28Z</time>
      </trkpt>
      <trkpt lat="44.48297" lon="6.84763">
        <ele>2374.19</ele>
        <time>2020-03-04T05:18:48Z</time>
      </trkpt>
      <trkpt lat="44.48353" lon="6.84728">
        <ele>2365.919</ele>
        <time>2020-03-04T05:19:08Z</time>
      </trkpt>
      <trkpt lat="44.484" lon="6.84659">
        <ele>2357.608</ele>
        <time>2020-03-04T05:19:28Z</time>
      </trkpt>
      <trkpt lat="44.48454" lon="6.84552">
        <ele>2341.771</ele>
        <time>2020-03-04T05:19:48Z</time>
      </trkpt>
      <trkpt lat="44.48448" lon="6.84501">
        <ele>2337.034</ele>
        <time>2020-03-04T05:20:08Z</time>
      </trkpt>
      <trkpt lat="44.48444" lon="6.84486">
        <ele>2338.671</ele>
        <time>2020-03-04T05:20:28Z</time>
      </trkpt>
      <trkpt lat="44.48445" lon="6.84468">
        <ele>2339.09</ele>
        <time>2020-03-04T05:20:48Z</time>
      </trkpt>
      <trkpt lat="44.48466" lon="6.84439">
        <ele>2331.468</ele>
        <time>2020-03-04T05:21:08Z</time>
      </trkpt>
      <trkpt lat="44.48473" lon="6.84393">
        <ele>2326.099</ele>
        <time>2020-03-04T05:21:28Z</time>
      </trkpt>
      <trkpt lat="44.48488" lon="6.84456">
        <ele>2322.461</ele>
        <time>2020-03-04T05:21:48Z</time>
      </trkpt>
      <trkpt lat="44.4849" lon="6.8448">
        <ele>2322.937</ele>
        <time>2020-03-04T05:22:08Z</time>
      </trkpt>
      <trkpt lat="44.48507" lon="6.84493">
        <ele>2317.978</ele>
        <time>2020-03-04T05:22:28Z</time>
      </trkpt>
      <trkpt lat="44.4851" lon="6.84501">
        <ele>2317.533</ele>
        <time>2020-03-04T05:22:48Z</time>
      </trkpt>
      <trkpt lat="44.48528" lon="6.84512">
        <ele>2312.026</ele>
        <time>2020-03-04T05:23:08Z</time>
      </trkpt>
      <trkpt lat="44.48534" lon="6.84556">
        <ele>2312.308</ele>
        <time>2020-03-04T05:23:28Z</time>
      </trkpt>
      <trkpt lat="44.48541" lon="6.84497">
        <ele>2306.611</ele>
        <time>2020-03-04T05:23:48Z</time>
      </trkpt>
      <trkpt lat="44.48539" lon="6.84411">
        <ele>2299.054</ele>
        <time>2020-03-04T05:24:08Z</time>
      </trkpt>
      <trkpt lat="44.48544" lon="6.84382">
        <ele>2295.051</ele>
        <time>2020-03-04T05:24:28Z</time>
      </trkpt>
      <trkpt lat="44.48551" lon="6.84349">
        <ele>2288.69</ele>
        <time>2020-03-04T05:24:48Z</time>
      </trkpt>
      <trkpt lat="44.48545" lon="6.84337">
        <ele>2288.088</ele>
        <time>2020-03-04T05:25:08Z</time>
      </trkpt>
      <trkpt lat="44.48539" lon="6.84328">
        <ele>2287.229</ele>
        <time>2020-03-04T05:25:28Z</time>
      </trkpt>
      <trkpt lat="44.4852" lon="6.84321">
        <ele>2288.421</ele>
        <time>2020-03-04T05:25:48Z</time>
      </trkpt>
      <trkpt lat="44.48503" lon="6.84273">
        <ele>2280.467</ele>
        <time>2020-03-04T05:26:08Z</time>
      </trkpt>
      <trkpt lat="44.48493" lon="6.84254">
        <ele>2281.345</ele>
        <time>2020-03-04T05:26:28Z</time>
      </trkpt>
      <trkpt lat="44.48493" lon="6.84221">
        <ele>2279.147</ele>
        <time>2020-03-04T05:26:48Z</time>
      </trkpt>
      <trkpt lat="44.48499" lon="6.84198">
        <ele>2275.511</ele>
        <time>2020-03-04T05:27:08Z</time>
      </trkpt>
      <trkpt lat="44.48516" lon="6.84219">
        <ele>2274.508</ele>
        <time>2020-03-04T05:27:28Z</time>
      </trkpt>
      <trkpt lat="44.48549" lon="6.84219">
        <ele>2268.898</ele>
        <time>2020-03-04T05:27:48Z</time>
      </trkpt>
      <trkpt lat="44.48557" lon="6.84209">
        <ele>2266.421</ele>
        <time>2020-03-04T05:28:08Z</time>
      </trkpt>
      <trkpt lat="44.48552" lon="6.84112">
        <ele>2253.868</ele>
        <time>2020-03-04T05:28:28Z</time>
      </trkpt>
      <trkpt lat="44.48532" lon="6.8409">
        <ele>2252.117</ele>
        <time>2020-03-04T05:28:48Z</time>
      </trkpt>
      <trkpt lat="44.48502" lon="6.84046">
        <ele>2245.785</ele>
        <time>2020-03-04T05:29:08Z</time>
      </trkpt>
      <trkpt lat="44.48492" lon="6.83996">
        <ele>2239.246</ele>
        <time>2020-03-04T05:29:28Z</time>
      </trkpt>
      <trkpt lat="44.48479" lon="6.8395">
        <ele>2237.128</ele>
        <time>2020-03-04T05:29:48Z</time>
      </trkpt>
      <trkpt lat="44.48473" lon="6.83878">
        <ele>2230.124</ele>
        <time>2020-03-04T05:30:08Z</time>
      </trkpt>
      <trkpt lat="44.48468" lon="6.83845">
        <ele>2227.149</ele>
        <time>2020-03-04T05:30:28Z</time>
      </trkpt>
      <trkpt lat="44.48473" lon="6.83829">
        <ele>2223.102</ele>
        <time>2020-03-04T05:30:48Z</time>
      </trkpt>
      <trkpt lat="44.485" lon="6.83858">
        <ele>2218.422</ele>
        <time>2020-03-04T05:31:08Z</time>
      </trkpt>
      <trkpt lat="44.48524" lon="6.83876">
        <ele>2215.908</ele>
        <time>2020-03-04T05:31:28Z</time>
      </trkpt>
      <trkpt lat="44.48555" lon="6.83887">
        <ele>2216.998</ele>
        <time>2020-03-04T05:31:48Z</time>
      </trkpt>
      <trkpt lat="44.48564" lon="6.83908">
        <ele>2218.741</ele>
        <time>2020-03-04T05:32:08Z</time>
      </trkpt>
      <trkpt lat="44.48573" lon="6.83913">
        <ele>2219.968</ele>
        <time>2020-03-04T05:32:28Z</time>
      </trkpt>
      <trkpt lat="44.48578" lon="6.83906">
        <ele>2220.767</ele>
        <time>2020-03-04T05:32:48Z</time>
      </trkpt>
      <trkpt lat="44.48573" lon="6.83889">
        <ele>2220.175</ele>
        <time>2020-03-04T05:33:08Z</time>
      </trkpt>
      <trkpt lat="44.48571" lon="6.83864">
        <ele>2220.866</ele>
        <time>2020-03-04T05:33:28Z</time>
      </trkpt>
      <trkpt lat="44.48537" lon="6.83801">
        <ele>2214.688</ele>
        <time>2020-03-04T05:33:48Z</time>
      </trkpt>
      <trkpt lat="44.48518" lon="6.83758">
        <ele>2209.484</ele>
        <time>2020-03-04T05:34:08Z</time>
      </trkpt>
      <trkpt lat="44.48513" lon="6.83678">
        <ele>2203.449</ele>
        <time>2020-03-04T05:34:28Z</time>
      </trkpt>
      <trkpt lat="44.48505" lon="6.83649">
        <ele>2200.402</ele>
        <time>2020-03-04T05:34:48Z</time>
      </trkpt>
      <trkpt lat="44.48489" lon="6.83626">
        <ele>2196.122</ele>
        <time>2020-03-04T05:35:08Z</time>
      </trkpt>
      <trkpt lat="44.48448" lon="6.83557">
        <ele>2182.608</ele>
        <time>2020-03-04T05:35:28Z</time>
      </trkpt>
      <trkpt lat="44.48441" lon="6.83515">
        <ele>2181.648</ele>
        <time>2020-03-04T05:35:48Z</time>
      </trkpt>
      <trkpt lat="44.48416" lon="6.83468">
        <ele>2176.641</ele>
        <time>2020-03-04T05:36:08Z</time>
      </trkpt>
      <trkpt lat="44.48389" lon="6.83426">
        <ele>2170.558</ele>
        <time>2020-03-04T05:36:28Z</time>
      </trkpt>
      <trkpt lat="44.48387" lon="6.83426">
        <ele>2169.487</ele>
        <time>2020-03-04T05:36:48Z</time>
      </trkpt>
      <trkpt lat="44.48394" lon="6.8344">
        <ele>2170.355</ele>
        <time>2020-03-04T05:37:08Z</time>
      </trkpt>
      <trkpt lat="44.48399" lon="6.83483">
        <ele>2166.656</ele>
        <time>2020-03-04T05:37:28Z</time>
      </trkpt>
      <trkpt lat="44.48379" lon="6.83453">
        <ele>2161.498</ele>
        <time>2020-03-04T05:37:48Z</time>
      </trkpt>
      <trkpt lat="44.48361" lon="6.83435">
        <ele>2156.144</ele>
        <time>2020-03-04T05:38:08Z</time>
      </trkpt>
      <trkpt lat="44.48346" lon="6.83395">
        <ele>2151.266</ele>
        <time>2020-03-04T05:38:28Z</time>
      </trkpt>
      <trkpt lat="44.48346" lon="6.83365">
        <ele>2149.329</ele>
        <time>2020-03-04T05:38:48Z</time>
      </trkpt>
      <trkpt lat="44.48342" lon="6.83317">
        <ele>2144.321</ele>
        <time>2020-03-04T05:39:08Z</time>
      </trkpt>
      <trkpt lat="44.48336" lon="6.83294">
        <ele>2140.708</ele>
        <time>2020-03-04T05:39:28Z</time>
      </trkpt>
      <trkpt lat="44.48335" lon="6.8332">
        <ele>2139.34</ele>
        <time>2020-03-04T05:39:48Z</time>
      </trkpt>
      <trkpt lat="44.48316" lon="6.8336">
        <ele>2132.533</ele>
        <time>2020-03-04T05:40:08Z</time>
      </trkpt>
      <trkpt lat="44.48312" lon="6.83386">
        <ele>2133.09</ele>
        <time>2020-03-04T05:40:28Z</time>
      </trkpt>
      <trkpt lat="44.48302" lon="6.83369">
        <ele>2127.159</ele>
        <time>2020-03-04T05:40:48Z</time>
      </trkpt>
      <trkpt lat="44.48302" lon="6.83352">
        <ele>2125.837</ele>
        <time>2020-03-04T05:41:08Z</time>
      </trkpt>
      <trkpt lat="44.48301" lon="6.83339">
        <ele>2124.378</ele>
        <time>2020-03-04T05:41:28Z</time>
      </trkpt>
      <trkpt lat="44.48306" lon="6.83315">
        <ele>2126.24</ele>
        <time>2020-03-04T05:41:48Z</time>
      </trkpt>
      <trkpt lat="44.48299" lon="6.83292">
        <ele>2122.086</ele>
        <time>2020-03-04T05:42:08Z</time>
      </trkpt>
      <trkpt lat="44.48302" lon="6.83264">
        <ele>2122.336</ele>
        <time>2020-03-04T05:42:28Z</time>
      </trkpt>
      <trkpt lat="44.483" lon="6.83261">
        <ele>2121.417</ele>
        <time>2020-03-04T05:42:48Z</time>
      </trkpt>
      <trkpt lat="44.48296" lon="6.83276">
        <ele>2119.618</ele>
        <time>2020-03-04T05:43:08Z</time>
      </trkpt>
      <trkpt lat="44.48289" lon="6.83289">
        <ele>2116.908</ele>
        <time>2020-03-04T05:43:28Z</time>
      </trkpt>
      <trkpt lat="44.48276" lon="6.83315">
        <ele>2112.667</ele>
        <time>2020-03-04T05:43:48Z</time>
      </trkpt>
      <trkpt lat="44.48271" lon="6.83332">
        <ele>2111.37</ele>
        <time>2020-03-04T05:44:08Z</time>
      </trkpt>
      <trkpt lat="44.48266" lon="6.83308">
        <ele>2108.387</ele>
        <time>2020-03-04T05:44:28Z</time>
      </trkpt>
      <trkpt lat="44.48267" lon="6.83276">
        <ele>2106.236</ele>
        <time>2020-03-04T05:44:48Z</time>
      </trkpt>
      <trkpt lat="44.48267" lon="6.83256">
        <ele>2105.084</ele>
        <time>2020-03-04T05:45:08Z</time>
      </trkpt>
      <trkpt lat="44.48264" lon="6.83249">
        <ele>2103.795</ele>
        <time>2020-03-04T05:45:28Z</time>
      </trkpt>
      <trkpt lat="44.4826" lon="6.83268">
        <ele>2102.987</ele>
        <time>2020-03-04T05:45:48Z</time>
      </trkpt>
      <trkpt lat="44.48237" lon="6.8332">
        <ele>2096.743</ele>
        <time>2020-03-04T05:46:08Z</time>
      </trkpt>
      <trkpt lat="44.48235" lon="6.83279">
        <ele>2092.644</ele>
        <time>2020-03-04T05:46:28Z</time>
      </trkpt>
      <trkpt lat="44.4823" lon="6.83233">
        <ele>2088.105</ele>
        <time>2020-03-04T05:46:48Z</time>
      </trkpt>
      <trkpt lat="44.48214" lon="6.83172">
        <ele>2084.715</ele>
        <time>2020-03-04T05:47:08Z</time>
      </trkpt>
      <trkpt lat="44.48203" lon="6.83162">
        <ele>2081.208</ele>
        <time>2020-03-04T05:47:28Z</time>
      </trkpt>
      <trkpt lat="44.48188" lon="6.83137">
        <ele>2080.328</ele>
        <time>2020-03-04T05:47:48Z</time>
      </trkpt>
      <trkpt lat="44.48148" lon="6.83113">
        <ele>2071.521</ele>
        <time>2020-03-04T05:48:08Z</time>
      </trkpt>
      <trkpt lat="44.48131" lon="6.83092">
        <ele>2069.298</ele>
        <time>2020-03-04T05:48:28Z</time>
      </trkpt>
      <trkpt lat="44.4811" lon="6.83075">
        <ele>2064.277</ele>
        <time>2020-03-04T05:48:48Z</time>
      </trkpt>
      <trkpt lat="44.481" lon="6.83058">
        <ele>2063.295</ele>
        <time>2020-03-04T05:49:08Z</time>
      </trkpt>
      <trkpt lat="44.48094" lon="6.83043">
        <ele>2063.356</ele>
        <time>2020-03-04T05:49:28Z</time>
      </trkpt>
      <trkpt lat="44.48089" lon="6.8304">
        <ele>2061.728</ele>
        <time>2020-03-04T05:49:48Z</time>
      </trkpt>
      <trkpt lat="44.48093" lon="6.83058">
        <ele>2060.294</ele>
        <time>2020-03-04T05:50:08Z</time>
      </trkpt>
      <trkpt lat="44.48095" lon="6.83109">
        <ele>2053.645</ele>
        <time>2020-03-04T05:50:28Z</time>
      </trkpt>
      <trkpt lat="44.4808" lon="6.83095">
        <ele>2049.447</ele>
        <time>2020-03-04T05:50:48Z</time>
      </trkpt>
      <trkpt lat="44.48076" lon="6.8307">
        <ele>2050.511</ele>
        <time>2020-03-04T05:51:08Z</time>
      </trkpt>
      <trkpt lat="44.48055" lon="6.83045">
        <ele>2045.308</ele>
        <time>2020-03-04T05:51:28Z</time>
      </trkpt>
      <trkpt lat="44.48046" lon="6.83011">
        <ele>2043.788</ele>
        <time>2020-03-04T05:51:48Z</time>
      </trkpt>
      <trkpt lat="44.48025" lon="6.82972">
        <ele>2035.591</ele>
        <time>2020-03-04T05:52:08Z</time>
      </trkpt>
      <trkpt lat="44.48028" lon="6.8296">
        <ele>2037.648</ele>
        <time>2020-03-04T05:52:28Z</time>
      </trkpt>
      <trkpt lat="44.48024" lon="6.8296">
        <ele>2035.227</ele>
        <time>2020-03-04T05:52:48Z</time>
      </trkpt>
      <trkpt lat="44.4802" lon="6.82986">
        <ele>2031.545</ele>
        <time>2020-03-04T05:53:08Z</time>
      </trkpt>
      <trkpt lat="44.48023" lon="6.83003">
        <ele>2031.486</ele>
        <time>2020-03-04T05:53:28Z</time>
      </trkpt>
      <trkpt lat="44.48023" lon="6.83039">
        <ele>2027.618</ele>
        <time>2020-03-04T05:53:48Z</time>
      </trkpt>
      <trkpt lat="44.4801" lon="6.83013">
        <ele>2023.754</ele>
        <time>2020-03-04T05:54:08Z</time>
      </trkpt>
      <trkpt lat="44.47993" lon="6.82985">
        <ele>2016.656</ele>
        <time>2020-03-04T05:54:28Z</time>
      </trkpt>
      <trkpt lat="44.4799" lon="6.82937">
        <ele>2014.059</ele>
        <time>2020-03-04T05:54:48Z</time>
      </trkpt>
      <trkpt lat="44.47994" lon="6.82919">
        <ele>2015.514</ele>
        <time>2020-03-04T05:55:08Z</time>
      </trkpt>
      <trkpt lat="44.47992" lon="6.82915">
        <ele>2013.808</ele>
        <time>2020-03-04T05:55:28Z</time>
      </trkpt>
      <trkpt lat="44.47989" lon="6.82929">
        <ele>2012.779</ele>
        <time>2020-03-04T05:55:48Z</time>
      </trkpt>
      <trkpt lat="44.47988" lon="6.82947">
        <ele>2012.922</ele>
        <time>2020-03-04T05:56:08Z</time>
      </trkpt>
      <trkpt lat="44.47982" lon="6.82972">
        <ele>2009.859</ele>
        <time>2020-03-04T05:56:28Z</time>
      </trkpt>
      <trkpt lat="44.47981" lon="6.82994">
        <ele>2007.778</ele>
        <time>2020-03-04T05:56:48Z</time>
      </trkpt>
      <trkpt lat="44.47991" lon="6.83055">
        <ele>2006.966</ele>
        <time>2020-03-04T05:57:08Z</time>
      </trkpt>
      <trkpt lat="44.47991" lon="6.83105">
        <ele>2003.787</ele>
        <time>2020-03-04T05:57:28Z</time>
      </trkpt>
      <trkpt lat="44.47981" lon="6.83115">
        <ele>2001.049</ele>
        <time>2020-03-04T05:57:48Z</time>
      </trkpt>
      <trkpt lat="44.4797" lon="6.83113">
        <ele>1998.065</ele>
        <time>2020-03-04T05:58:08Z</time>
      </trkpt>
      <trkpt lat="44.47921" lon="6.83061">
        <ele>1990.459</ele>
        <time>2020-03-04T05:58:28Z</time>
      </trkpt>
      <trkpt lat="44.47867" lon="6.83008">
        <ele>1985.503</ele>
        <time>2020-03-04T05:58:48Z</time>
      </trkpt>
      <trkpt lat="44.47854" lon="6.82995">
        <ele>1985.723</ele>
        <time>2020-03-04T05:59:08Z</time>
      </trkpt>
      <trkpt lat="44.47853" lon="6.8297">
        <ele>1980.908</ele>
        <time>2020-03-04T05:59:28Z</time>
      </trkpt>
      <trkpt lat="44.47838" lon="6.82956">
        <ele>1979.249</ele>
        <time>2020-03-04T05:59:48Z</time>
      </trkpt>
      <trkpt lat="44.47829" lon="6.82961">
        <ele>1981.062</ele>
        <time>2020-03-04T06:00:08Z</time>
      </trkpt>
      <trkpt lat="44.47814" lon="6.82986">
        <ele>1986.049</ele>
        <time>2020-03-04T06:00:28Z</time>
      </trkpt>
      <trkpt lat="44.47805" lon="6.82983">
        <ele>1984.338</ele>
        <time>2020-03-04T06:00:48Z</time>
      </trkpt>
      <trkpt lat="44.47799" lon="6.82932">
        <ele>1975.316</ele>
        <time>2020-03-04T06:01:08Z</time>
      </trkpt>
      <trkpt lat="44.47784" lon="6.82914">
        <ele>1974.937</ele>
        <time>2020-03-04T06:01:28Z</time>
      </trkpt>
      <trkpt lat="44.47761" lon="6.82905">
        <ele>1974.619</ele>
        <time>2020-03-04T06:01:48Z</time>
      </trkpt>
      <trkpt lat="44.47738" lon="6.82906">
        <ele>1974.135</ele>
        <time>2020-03-04T06:02:08Z</time>
      </trkpt>
      <trkpt lat="44.47694" lon="6.82885">
        <ele>1966.197</ele>
        <time>2020-03-04T06:02:28Z</time>
      </trkpt>
      <trkpt lat="44.47674" lon="6.82889">
        <ele>1965.623</ele>
        <time>2020-03-04T06:02:48Z</time>
      </trkpt>
      <trkpt lat="44.47669" lon="6.82872">
        <ele>1961.525</ele>
        <time>2020-03-04T06:03:08Z</time>
      </trkpt>
      <trkpt lat="44.4772" lon="6.82847">
        <ele>1960.208</ele>
        <time>2020-03-04T06:03:28Z</time>
      </trkpt>
      <trkpt lat="44.47734" lon="6.82826">
        <ele>1956.273</ele>
        <time>2020-03-04T06:03:48Z</time>
      </trkpt>
      <trkpt lat="44.47751" lon="6.82808">
        <ele>1951.226</ele>
        <time>2020-03-04T06:04:08Z</time>
      </trkpt>
      <trkpt lat="44.47751" lon="6.82801">
        <ele>1949.333</ele>
        <time>2020-03-04T06:04:28Z</time>
      </trkpt>
      <trkpt lat="44.47734" lon="6.828">
        <ele>1950.122</ele>
        <time>2020-03-04T06:04:48Z</time>
      </trkpt>
      <trkpt lat="44.47715" lon="6.82797">
        <ele>1949.38</ele>
        <time>2020-03-04T06:05:08Z</time>
      </trkpt>
      <trkpt lat="44.47693" lon="6.82795">
        <ele>1947.011</ele>
        <time>2020-03-04T06:05:28Z</time>
      </trkpt>
      <trkpt lat="44.47675" lon="6.82784">
        <ele>1944.973</ele>
        <time>2020-03-04T06:05:48Z</time>
      </trkpt>
      <trkpt lat="44.47674" lon="6.82768">
        <ele>1942.379</ele>
        <time>2020-03-04T06:06:08Z</time>
      </trkpt>
      <trkpt lat="44.47695" lon="6.82746">
        <ele>1939.082</ele>
        <time>2020-03-04T06:06:28Z</time>
      </trkpt>
      <trkpt lat="44.47711" lon="6.82719">
        <ele>1929.743</ele>
        <time>2020-03-04T06:06:48Z</time>
      </trkpt>
      <trkpt lat="44.47703" lon="6.82712">
        <ele>1927.917</ele>
        <time>2020-03-04T06:07:08Z</time>
      </trkpt>
      <trkpt lat="44.47672" lon="6.82696">
        <ele>1926.408</ele>
        <time>2020-03-04T06:07:28Z</time>
      </trkpt>
      <trkpt lat="44.47629" lon="6.82601">
        <ele>1914.452</ele>
        <time>2020-03-04T06:07:48Z</time>
      </trkpt>
      <trkpt lat="44.47623" lon="6.82601">
        <ele>1915.245</ele>
        <time>2020-03-04T06:08:08Z</time>
      </trkpt>
      <trkpt lat="44.47614" lon="6.82653">
        <ele>1924.482</ele>
        <time>2020-03-04T06:08:28Z</time>
      </trkpt>
      <trkpt lat="44.47584" lon="6.8269">
        <ele>1923.321</ele>
        <time>2020-03-04T06:08:48Z</time>
      </trkpt>
      <trkpt lat="44.47568" lon="6.82701">
        <ele>1927.149</ele>
        <time>2020-03-04T06:09:08Z</time>
      </trkpt>
      <trkpt lat="44.47513" lon="6.82692">
        <ele>1926.51</ele>
        <time>2020-03-04T06:09:28Z</time>
      </trkpt>
      <trkpt lat="44.47481" lon="6.82705">
        <ele>1930.592</ele>
        <time>2020-03-04T06:09:48Z</time>
      </trkpt>
      <trkpt lat="44.47452" lon="6.8273">
        <ele>1940.498</ele>
        <time>2020-03-04T06:10:08Z</time>
      </trkpt>
      <trkpt lat="44.47423" lon="6.82731">
        <ele>1945.671</ele>
        <time>2020-03-04T06:10:28Z</time>
      </trkpt>
      <trkpt lat="44.47403" lon="6.82698">
        <ele>1946.241</ele>
        <time>2020-03-04T06:10:48Z</time>
      </trkpt>
      <trkpt lat="44.47397" lon="6.82675">
        <ele>1948.215</ele>
        <time>2020-03-04T06:11:08Z</time>
      </trkpt>
      <trkpt lat="44.47387" lon="6.82629">
        <ele>1947.608</ele>
        <time>2020-03-04T06:11:28Z</time>
      </trkpt>
      <trkpt lat="44.47329" lon="6.8266">
        <ele>1963.221</ele>
        <time>2020-03-04T06:11:48Z</time>
      </trkpt>
      <trkpt lat="44.473" lon="6.82679">
        <ele>1971.674</ele>
        <time>2020-03-04T06:12:08Z</time>
      </trkpt>
      <trkpt lat="44.47283" lon="6.82701">
        <ele>1979.311</ele>
        <time>2020-03-04T06:12:28Z</time>
      </trkpt>
      <trkpt lat="44.47245" lon="6.82727">
        <ele>1987.59</ele>
        <time>2020-03-04T06:12:48Z</time>
      </trkpt>
      <trkpt lat="44.47209" lon="6.82753">
        <ele>1995.168</ele>
        <time>2020-03-04T06:13:08Z</time>
      </trkpt>
      <trkpt lat="44.47179" lon="6.8278">
        <ele>2001.029</ele>
        <time>2020-03-04T06:13:28Z</time>
      </trkpt>
      <trkpt lat="44.47132" lon="6.828">
        <ele>2010.951</ele>
        <time>2020-03-04T06:13:48Z</time>
      </trkpt>
      <trkpt lat="44.47123" lon="6.82811">
        <ele>2014.227</ele>
        <time>2020-03-04T06:14:08Z</time>
      </trkpt>
      <trkpt lat="44.47102" lon="6.82874">
        <ele>2026.243</ele>
        <time>2020-03-04T06:14:28Z</time>
      </trkpt>
      <trkpt lat="44.47081" lon="6.8291">
        <ele>2032.164</ele>
        <time>2020-03-04T06:14:48Z</time>
      </trkpt>
      <trkpt lat="44.47038" lon="6.8299">
        <ele>2045.01</ele>
        <time>2020-03-04T06:15:08Z</time>
      </trkpt>
      <trkpt lat="44.47007" lon="6.8307">
        <ele>2052.108</ele>
        <time>2020-03-04T06:15:28Z</time>
      </trkpt>
      <trkpt lat="44.46993" lon="6.83106">
        <ele>2054.148</ele>
        <time>2020-03-04T06:15:48Z</time>
      </trkpt>
      <trkpt lat="44.46955" lon="6.8317">
        <ele>2055.711</ele>
        <time>2020-03-04T06:16:08Z</time>
      </trkpt>
      <trkpt lat="44.46923" lon="6.83134">
        <ele>2047.748</ele>
        <time>2020-03-04T06:16:28Z</time>
      </trkpt>
      <trkpt lat="44.46924" lon="6.8313">
        <ele>2047.017</ele>
        <time>2020-03-04T06:16:48Z</time>
      </trkpt>
      <trkpt lat="44.46953" lon="6.83164">
        <ele>2055.185</ele>
        <time>2020-03-04T06:17:08Z</time>
      </trkpt>
      <trkpt lat="44.46991" lon="6.83107">
        <ele>2054.046</ele>
        <time>2020-03-04T06:17:28Z</time>
      </trkpt>
      <trkpt lat="44.47035" lon="6.82991">
        <ele>2045.278</ele>
        <time>2020-03-04T06:17:48Z</time>
      </trkpt>
      <trkpt lat="44.47099" lon="6.82872">
        <ele>2026.094</ele>
        <time>2020-03-04T06:18:08Z</time>
      </trkpt>
      <trkpt lat="44.47123" lon="6.82805">
        <ele>2013.299</ele>
        <time>2020-03-04T06:18:28Z</time>
      </trkpt>
      <trkpt lat="44.4713" lon="6.82798">
        <ele>2010.607</ele>
        <time>2020-03-04T06:18:48Z</time>
      </trkpt>
      <trkpt lat="44.4718" lon="6.82775">
        <ele>1999.727</ele>
        <time>2020-03-04T06:19:08Z</time>
      </trkpt>
      <trkpt lat="44.47281" lon="6.82697">
        <ele>1978.508</ele>
        <time>2020-03-04T06:19:28Z</time>
      </trkpt>
      <trkpt lat="44.47298" lon="6.82674">
        <ele>1970.293</ele>
        <time>2020-03-04T06:19:48Z</time>
      </trkpt>
      <trkpt lat="44.47389" lon="6.82625">
        <ele>1946.666</ele>
        <time>2020-03-04T06:20:08Z</time>
      </trkpt>
      <trkpt lat="44.47398" lon="6.82673">
        <ele>1947.423</ele>
        <time>2020-03-04T06:20:28Z</time>
      </trkpt>
      <trkpt lat="44.47406" lon="6.82699">
        <ele>1945.342</ele>
        <time>2020-03-04T06:20:48Z</time>
      </trkpt>
      <trkpt lat="44.47424" lon="6.82726">
        <ele>1944.15</ele>
        <time>2020-03-04T06:21:08Z</time>
      </trkpt>
      <trkpt lat="44.47451" lon="6.82726">
        <ele>1938.551</ele>
        <time>2020-03-04T06:21:28Z</time>
      </trkpt>
      <trkpt lat="44.47478" lon="6.82705">
        <ele>1930.143</ele>
        <time>2020-03-04T06:21:48Z</time>
      </trkpt>
      <trkpt lat="44.47513" lon="6.8269">
        <ele>1925.889</ele>
        <time>2020-03-04T06:22:08Z</time>
      </trkpt>
      <trkpt lat="44.47569" lon="6.82697">
        <ele>1925.732</ele>
        <time>2020-03-04T06:22:28Z</time>
      </trkpt>
      <trkpt lat="44.47585" lon="6.82686">
        <ele>1922.492</ele>
        <time>2020-03-04T06:22:48Z</time>
      </trkpt>
      <trkpt lat="44.47612" lon="6.82652">
        <ele>1924.311</ele>
        <time>2020-03-04T06:23:08Z</time>
      </trkpt>
      <trkpt lat="44.47622" lon="6.8259">
        <ele>1913.508</ele>
        <time>2020-03-04T06:23:28Z</time>
      </trkpt>
      <trkpt lat="44.47662" lon="6.82623">
        <ele>1908.237</ele>
        <time>2020-03-04T06:23:48Z</time>
      </trkpt>
      <trkpt lat="44.47667" lon="6.8264">
        <ele>1909.48</ele>
        <time>2020-03-04T06:24:08Z</time>
      </trkpt>
      <trkpt lat="44.47682" lon="6.82661">
        <ele>1911.597</ele>
        <time>2020-03-04T06:24:28Z</time>
      </trkpt>
      <trkpt lat="44.47716" lon="6.82662">
        <ele>1902.966</ele>
        <time>2020-03-04T06:24:48Z</time>
      </trkpt>
      <trkpt lat="44.4776" lon="6.82675">
        <ele>1897.424</ele>
        <time>2020-03-04T06:25:08Z</time>
      </trkpt>
      <trkpt lat="44.47783" lon="6.82686">
        <ele>1898.545</ele>
        <time>2020-03-04T06:25:28Z</time>
      </trkpt>
      <trkpt lat="44.47801" lon="6.82691">
        <ele>1899.917</ele>
        <time>2020-03-04T06:25:48Z</time>
      </trkpt>
      <trkpt lat="44.4781" lon="6.82673">
        <ele>1901.533</ele>
        <time>2020-03-04T06:26:08Z</time>
      </trkpt>
      <trkpt lat="44.47798" lon="6.8263">
        <ele>1893.782</ele>
        <time>2020-03-04T06:26:28Z</time>
      </trkpt>
      <trkpt lat="44.47805" lon="6.82562">
        <ele>1885.743</ele>
        <time>2020-03-04T06:26:48Z</time>
      </trkpt>
      <trkpt lat="44.47819" lon="6.8255">
        <ele>1890.117</ele>
        <time>2020-03-04T06:27:08Z</time>
      </trkpt>
      <trkpt lat="44.47813" lon="6.82532">
        <ele>1887.108</ele>
        <time>2020-03-04T06:27:28Z</time>
      </trkpt>
      <trkpt lat="44.47807" lon="6.82495">
        <ele>1884.812</ele>
        <time>2020-03-04T06:27:48Z</time>
      </trkpt>
      <trkpt lat="44.47808" lon="6.82426">
        <ele>1887.785</ele>
        <time>2020-03-04T06:28:08Z</time>
      </trkpt>
      <trkpt lat="44.47797" lon="6.82367">
        <ele>1883.352</ele>
        <time>2020-03-04T06:28:28Z</time>
      </trkpt>
      <trkpt lat="44.47791" lon="6.82293">
        <ele>1882.661</ele>
        <time>2020-03-04T06:28:48Z</time>
      </trkpt>
      <trkpt lat="44.47785" lon="6.82257">
        <ele>1883.159</ele>
        <time>2020-03-04T06:29:08Z</time>
      </trkpt>
      <trkpt lat="44.47777" lon="6.82203">
        <ele>1875.98</ele>
        <time>2020-03-04T06:29:28Z</time>
      </trkpt>
      <trkpt lat="44.47801" lon="6.82152">
        <ele>1878.562</ele>
        <time>2020-03-04T06:29:48Z</time>
      </trkpt>
      <trkpt lat="44.47809" lon="6.82088">
        <ele>1881.258</ele>
        <time>2020-03-04T06:30:08Z</time>
      </trkpt>
      <trkpt lat="44.47806" lon="6.82072">
        <ele>1884.089</ele>
        <time>2020-03-04T06:30:28Z</time>
      </trkpt>
      <trkpt lat="44.47795" lon="6.82068">
        <ele>1884.506</ele>
        <time>2020-03-04T06:30:48Z</time>
      </trkpt>
      <trkpt lat="44.4777" lon="6.82085">
        <ele>1875.626</ele>
        <time>2020-03-04T06:31:08Z</time>
      </trkpt>
      <trkpt lat="44.47743" lon="6.82079">
        <ele>1875.408</ele>
        <time>2020-03-04T06:31:28Z</time>
      </trkpt>
      <trkpt lat="44.47721" lon="6.82054">
        <ele>1871.882</ele>
        <time>2020-03-04T06:31:48Z</time>
      </trkpt>
      <trkpt lat="44.47724" lon="6.82031">
        <ele>1872.925</ele>
        <time>2020-03-04T06:32:08Z</time>
      </trkpt>
      <trkpt lat="44.47721" lon="6.82006">
        <ele>1870.532</ele>
        <time>2020-03-04T06:32:28Z</time>
      </trkpt>
      <trkpt lat="44.47723" lon="6.81963">
        <ele>1873.981</ele>
        <time>2020-03-04T06:32:48Z</time>
      </trkpt>
      <trkpt lat="44.47711" lon="6.81928">
        <ele>1877.999</ele>
        <time>2020-03-04T06:33:08Z</time>
      </trkpt>
      <trkpt lat="44.47677" lon="6.81911">
        <ele>1872.76</ele>
        <time>2020-03-04T06:33:28Z</time>
      </trkpt>
      <trkpt lat="44.47654" lon="6.8191">
        <ele>1865.542</ele>
        <time>2020-03-04T06:33:48Z</time>
      </trkpt>
      <trkpt lat="44.47635" lon="6.81882">
        <ele>1861.928</ele>
        <time>2020-03-04T06:34:08Z</time>
      </trkpt>
      <trkpt lat="44.4763" lon="6.8187">
        <ele>1859.893</ele>
        <time>2020-03-04T06:34:28Z</time>
      </trkpt>
      <trkpt lat="44.47624" lon="6.81806">
        <ele>1857.165</ele>
        <time>2020-03-04T06:34:48Z</time>
      </trkpt>
      <trkpt lat="44.47626" lon="6.8176">
        <ele>1858.521</ele>
        <time>2020-03-04T06:35:08Z</time>
      </trkpt>
      <trkpt lat="44.47616" lon="6.81725">
        <ele>1851.108</ele>
        <time>2020-03-04T06:35:28Z</time>
      </trkpt>
      <trkpt lat="44.47615" lon="6.81692">
        <ele>1847.483</ele>
        <time>2020-03-04T06:35:48Z</time>
      </trkpt>
      <trkpt lat="44.47607" lon="6.81656">
        <ele>1839.696</ele>
        <time>2020-03-04T06:36:08Z</time>
      </trkpt>
      <trkpt lat="44.47615" lon="6.81618">
        <ele>1837.063</ele>
        <time>2020-03-04T06:36:28Z</time>
      </trkpt>
      <trkpt lat="44.47633" lon="6.81567">
        <ele>1832.592</ele>
        <time>2020-03-04T06:36:48Z</time>
      </trkpt>
      <trkpt lat="44.47647" lon="6.81499">
        <ele>1824.86</ele>
        <time>2020-03-04T06:37:08Z</time>
      </trkpt>
      <trkpt lat="44.47662" lon="6.81473">
        <ele>1824.521</ele>
        <time>2020-03-04T06:37:28Z</time>
      </trkpt>
      <trkpt lat="44.47672" lon="6.8144">
        <ele>1821.543</ele>
        <time>2020-03-04T06:37:48Z</time>
      </trkpt>
      <trkpt lat="44.47685" lon="6.81402">
        <ele>1816.879</ele>
        <time>2020-03-04T06:38:08Z</time>
      </trkpt>
      <trkpt lat="44.477" lon="6.81384">
        <ele>1815.825</ele>
        <time>2020-03-04T06:38:28Z</time>
      </trkpt>
      <trkpt lat="44.47706" lon="6.81368">
        <ele>1813.926</ele>
        <time>2020-03-04T06:38:48Z</time>
      </trkpt>
      <trkpt lat="44.47732" lon="6.81343">
        <ele>1809.308</ele>
        <time>2020-03-04T06:39:08Z</time>
      </trkpt>
      <trkpt lat="44.47747" lon="6.81339">
        <ele>1806.808</ele>
        <time>2020-03-04T06:39:28Z</time>
      </trkpt>
      <trkpt lat="44.4776" lon="6.81338">
        <ele>1806.336</ele>
        <time>2020-03-04T06:39:48Z</time>
      </trkpt>
      <trkpt lat="44.47783" lon="6.81327">
        <ele>1803.339</ele>
        <time>2020-03-04T06:40:08Z</time>
      </trkpt>
      <trkpt lat="44.47812" lon="6.81315">
        <ele>1799.196</ele>
        <time>2020-03-04T06:40:28Z</time>
      </trkpt>
      <trkpt lat="44.47843" lon="6.81314">
        <ele>1797.735</ele>
        <time>2020-03-04T06:40:48Z</time>
      </trkpt>
      <trkpt lat="44.47869" lon="6.8131">
        <ele>1794.363</ele>
        <time>2020-03-04T06:41:08Z</time>
      </trkpt>
      <trkpt lat="44.47891" lon="6.81307">
        <ele>1793.834</ele>
        <time>2020-03-04T06:41:28Z</time>
      </trkpt>
      <trkpt lat="44.47908" lon="6.81294">
        <ele>1794.616</ele>
        <time>2020-03-04T06:41:48Z</time>
      </trkpt>
      <trkpt lat="44.47925" lon="6.8127">
        <ele>1792.172</ele>
        <time>2020-03-04T06:42:08Z</time>
      </trkpt>
      <trkpt lat="44.47937" lon="6.81248">
        <ele>1789.951</ele>
        <time>2020-03-04T06:42:28Z</time>
      </trkpt>
      <trkpt lat="44.47955" lon="6.81232">
        <ele>1790.701</ele>
        <time>2020-03-04T06:42:48Z</time>
      </trkpt>
      <trkpt lat="44.47957" lon="6.81206">
        <ele>1787.211</ele>
        <time>2020-03-04T06:43:08Z</time>
      </trkpt>
      <trkpt lat="44.47954" lon="6.81177">
        <ele>1782.508</ele>
        <time>2020-03-04T06:43:28Z</time>
      </trkpt>
      <trkpt lat="44.47958" lon="6.81165">
        <ele>1781.789</ele>
        <time>2020-03-04T06:43:48Z</time>
      </trkpt>
      <trkpt lat="44.4797" lon="6.81142">
        <ele>1780.152</ele>
        <time>2020-03-04T06:44:08Z</time>
      </trkpt>
      <trkpt lat="44.47979" lon="6.81113">
        <ele>1778.299</ele>
        <time>2020-03-04T06:44:28Z</time>
      </trkpt>
      <trkpt lat="44.47986" lon="6.81063">
        <ele>1774.588</ele>
        <time>2020-03-04T06:44:48Z</time>
      </trkpt>
      <trkpt lat="44.47981" lon="6.81047">
        <ele>1773.456</ele>
        <time>2020-03-04T06:45:08Z</time>
      </trkpt>
      <trkpt lat="44.47992" lon="6.8101">
        <ele>1775.847</ele>
        <time>2020-03-04T06:45:28Z</time>
      </trkpt>
      <trkpt lat="44.48009" lon="6.80939">
        <ele>1779.429</ele>
        <time>2020-03-04T06:45:48Z</time>
      </trkpt>
      <trkpt lat="44.48009" lon="6.80889">
        <ele>1777.635</ele>
        <time>2020-03-04T06:46:08Z</time>
      </trkpt>
      <trkpt lat="44.48023" lon="6.8083">
        <ele>1774.596</ele>
        <time>2020-03-04T06:46:28Z</time>
      </trkpt>
      <trkpt lat="44.48031" lon="6.8081">
        <ele>1774.231</ele>
        <time>2020-03-04T06:46:48Z</time>
      </trkpt>
      <trkpt lat="44.48019" lon="6.80798">
        <ele>1772.824</ele>
        <time>2020-03-04T06:47:08Z</time>
      </trkpt>
      <trkpt lat="44.47983" lon="6.80801">
        <ele>1769.108</ele>
        <time>2020-03-04T06:47:28Z</time>
      </trkpt>
      <trkpt lat="44.479" lon="6.80873">
        <ele>1762.993</ele>
        <time>2020-03-04T06:47:48Z</time>
      </trkpt>
      <trkpt lat="44.47899" lon="6.80959">
        <ele>1764.036</ele>
        <time>2020-03-04T06:48:08Z</time>
      </trkpt>
      <trkpt lat="44.4792" lon="6.81019">
        <ele>1763.273</ele>
        <time>2020-03-04T06:48:28Z</time>
      </trkpt>
      <trkpt lat="44.47912" lon="6.8103">
        <ele>1759.332</ele>
        <time>2020-03-04T06:48:48Z</time>
      </trkpt>
      <trkpt lat="44.47892" lon="6.81004">
        <ele>1757.98</ele>
        <time>2020-03-04T06:49:08Z</time>
      </trkpt>
      <trkpt lat="44.47853" lon="6.80956">
        <ele>1750.761</ele>
        <time>2020-03-04T06:49:28Z</time>
      </trkpt>
      <trkpt lat="44.47808" lon="6.80886">
        <ele>1742.773</ele>
        <time>2020-03-04T06:49:48Z</time>
      </trkpt>
      <trkpt lat="44.47797" lon="6.80858">
        <ele>1737.759</ele>
        <time>2020-03-04T06:50:08Z</time>
      </trkpt>
      <trkpt lat="44.47803" lon="6.80826">
        <ele>1734.398</ele>
        <time>2020-03-04T06:50:28Z</time>
      </trkpt>
      <trkpt lat="44.47824" lon="6.80811">
        <ele>1731.115</ele>
        <time>2020-03-04T06:50:48Z</time>
      </trkpt>
      <trkpt lat="44.47807" lon="6.80794">
        <ele>1727.826</ele>
        <time>2020-03-04T06:51:08Z</time>
      </trkpt>
      <trkpt lat="44.47784" lon="6.80787">
        <ele>1725.708</ele>
        <time>2020-03-04T06:51:28Z</time>
      </trkpt>
      <trkpt lat="44.47744" lon="6.80816">
        <ele>1722.263</ele>
        <time>2020-03-04T06:51:48Z</time>
      </trkpt>
      <trkpt lat="44.47736" lon="6.8087">
        <ele>1723.666</ele>
        <time>2020-03-04T06:52:08Z</time>
      </trkpt>
      <trkpt lat="44.47764" lon="6.8098">
        <ele>1715.483</ele>
        <time>2020-03-04T06:52:28Z</time>
      </trkpt>
      <trkpt lat="44.47774" lon="6.81013">
        <ele>1712.572</ele>
        <time>2020-03-04T06:52:48Z</time>
      </trkpt>
      <trkpt lat="44.47768" lon="6.8103">
        <ele>1709.51</ele>
        <time>2020-03-04T06:53:08Z</time>
      </trkpt>
      <trkpt lat="44.47737" lon="6.81011">
        <ele>1705.531</ele>
        <time>2020-03-04T06:53:28Z</time>
      </trkpt>
      <trkpt lat="44.47706" lon="6.80988">
        <ele>1700.093</ele>
        <time>2020-03-04T06:53:48Z</time>
      </trkpt>
      <trkpt lat="44.47694" lon="6.80927">
        <ele>1703.219</ele>
        <time>2020-03-04T06:54:08Z</time>
      </trkpt>
      <trkpt lat="44.47661" lon="6.80888">
        <ele>1692.158</ele>
        <time>2020-03-04T06:54:28Z</time>
      </trkpt>
      <trkpt lat="44.4766" lon="6.80767">
        <ele>1683.152</ele>
        <time>2020-03-04T06:54:48Z</time>
      </trkpt>
      <trkpt lat="44.47669" lon="6.8071">
        <ele>1676.217</ele>
        <time>2020-03-04T06:55:08Z</time>
      </trkpt>
      <trkpt lat="44.47685" lon="6.80671">
        <ele>1675.508</ele>
        <time>2020-03-04T06:55:28Z</time>
      </trkpt>
      <trkpt lat="44.47678" lon="6.80665">
        <ele>1671.699</ele>
        <time>2020-03-04T06:55:48Z</time>
      </trkpt>
      <trkpt lat="44.47646" lon="6.80693">
        <ele>1667.682</ele>
        <time>2020-03-04T06:56:08Z</time>
      </trkpt>
      <trkpt lat="44.47623" lon="6.80707">
        <ele>1663.929</ele>
        <time>2020-03-04T06:56:28Z</time>
      </trkpt>
      <trkpt lat="44.47605" lon="6.80756">
        <ele>1663.898</ele>
        <time>2020-03-04T06:56:48Z</time>
      </trkpt>
      <trkpt lat="44.47594" lon="6.80805">
        <ele>1659.476</ele>
        <time>2020-03-04T06:57:08Z</time>
      </trkpt>
      <trkpt lat="44.47563" lon="6.80829">
        <ele>1653.247</ele>
        <time>2020-03-04T06:57:28Z</time>
      </trkpt>
      <trkpt lat="44.47554" lon="6.80848">
        <ele>1653.079</ele>
        <time>2020-03-04T06:57:48Z</time>
      </trkpt>
      <trkpt lat="44.47525" lon="6.80763">
        <ele>1644.075</ele>
        <time>2020-03-04T06:58:08Z</time>
      </trkpt>
      <trkpt lat="44.47527" lon="6.80736">
        <ele>1642.971</ele>
        <time>2020-03-04T06:58:28Z</time>
      </trkpt>
      <trkpt lat="44.47549" lon="6.80686">
        <ele>1637.941</ele>
        <time>2020-03-04T06:58:48Z</time>
      </trkpt>
      <trkpt lat="44.47544" lon="6.80677">
        <ele>1635.815</ele>
        <time>2020-03-04T06:59:08Z</time>
      </trkpt>
      <trkpt lat="44.47504" lon="6.80676">
        <ele>1635.108</ele>
        <time>2020-03-04T06:59:28Z</time>
      </trkpt>
      <trkpt lat="44.47468" lon="6.80731">
        <ele>1632.031</ele>
        <time>2020-03-04T06:59:48Z</time>
      </trkpt>
      <trkpt lat="44.47469" lon="6.80754">
        <ele>1633.084</ele>
        <time>2020-03-04T07:00:08Z</time>
      </trkpt>
      <trkpt lat="44.47488" lon="6.80815">
        <ele>1632.051</ele>
        <time>2020-03-04T07:00:28Z</time>
      </trkpt>
      <trkpt lat="44.47491" lon="6.80872">
        <ele>1626.35</ele>
        <time>2020-03-04T07:00:48Z</time>
      </trkpt>
      <trkpt lat="44.47466" lon="6.80933">
        <ele>1619.968</ele>
        <time>2020-03-04T07:01:08Z</time>
      </trkpt>
      <trkpt lat="44.47443" lon="6.80935">
        <ele>1617.929</ele>
        <time>2020-03-04T07:01:28Z</time>
      </trkpt>
      <trkpt lat="44.47374" lon="6.80921">
        <ele>1608.921</ele>
        <time>2020-03-04T07:01:48Z</time>
      </trkpt>
      <trkpt lat="44.47328" lon="6.80955">
        <ele>1605.017</ele>
        <time>2020-03-04T07:02:08Z</time>
      </trkpt>
      <trkpt lat="44.47309" lon="6.80993">
        <ele>1603.994</ele>
        <time>2020-03-04T07:02:28Z</time>
      </trkpt>
      <trkpt lat="44.47282" lon="6.81028">
        <ele>1596.957</ele>
        <time>2020-03-04T07:02:48Z</time>
      </trkpt>
      <trkpt lat="44.47268" lon="6.81098">
        <ele>1592.522</ele>
        <time>2020-03-04T07:03:08Z</time>
      </trkpt>
      <trkpt lat="44.47261" lon="6.81145">
        <ele>1592.808</ele>
        <time>2020-03-04T07:03:28Z</time>
      </trkpt>
      <trkpt lat="44.47212" lon="6.81197">
        <ele>1582.823</ele>
        <time>2020-03-04T07:03:48Z</time>
      </trkpt>
      <trkpt lat="44.47207" lon="6.81244">
        <ele>1583.556</ele>
        <time>2020-03-04T07:04:08Z</time>
      </trkpt>
      <trkpt lat="44.47185" lon="6.8128">
        <ele>1579.963</ele>
        <time>2020-03-04T07:04:28Z</time>
      </trkpt>
      <trkpt lat="44.47156" lon="6.81317">
        <ele>1577.772</ele>
        <time>2020-03-04T07:04:48Z</time>
      </trkpt>
      <trkpt lat="44.47115" lon="6.8129">
        <ele>1572.23</ele>
        <time>2020-03-04T07:05:08Z</time>
      </trkpt>
      <trkpt lat="44.47097" lon="6.81241">
        <ele>1566.951</ele>
        <time>2020-03-04T07:05:28Z</time>
      </trkpt>
      <trkpt lat="44.47078" lon="6.81157">
        <ele>1558.823</ele>
        <time>2020-03-04T07:05:48Z</time>
      </trkpt>
      <trkpt lat="44.47062" lon="6.8111">
        <ele>1556.429</ele>
        <time>2020-03-04T07:06:08Z</time>
      </trkpt>
      <trkpt lat="44.47039" lon="6.81066">
        <ele>1550.882</ele>
        <time>2020-03-04T07:06:28Z</time>
      </trkpt>
      <trkpt lat="44.47066" lon="6.8089">
        <ele>1553.943</ele>
        <time>2020-03-04T07:06:48Z</time>
      </trkpt>
      <trkpt lat="44.47085" lon="6.80746">
        <ele>1556.917</ele>
        <time>2020-03-04T07:07:08Z</time>
      </trkpt>
      <trkpt lat="44.47114" lon="6.80671">
        <ele>1555.908</ele>
        <time>2020-03-04T07:07:28Z</time>
      </trkpt>
      <trkpt lat="44.47263" lon="6.80441">
        <ele>1551.512</ele>
        <time>2020-03-04T07:07:48Z</time>
      </trkpt>
      <trkpt lat="44.47345" lon="6.80278">
        <ele>1551.355</ele>
        <time>2020-03-04T07:08:08Z</time>
      </trkpt>
      <trkpt lat="44.47407" lon="6.80179">
        <ele>1540.042</ele>
        <time>2020-03-04T07:08:28Z</time>
      </trkpt>
      <trkpt lat="44.47477" lon="6.80093">
        <ele>1535.811</ele>
        <time>2020-03-04T07:08:48Z</time>
      </trkpt>
      <trkpt lat="44.4747" lon="6.80073">
        <ele>1527.189</ele>
        <time>2020-03-04T07:09:08Z</time>
      </trkpt>
      <trkpt lat="44.47452" lon="6.80078">
        <ele>1524.19</ele>
        <time>2020-03-04T07:09:28Z</time>
      </trkpt>
      <trkpt lat="44.47424" lon="6.80098">
        <ele>1522.392</ele>
        <time>2020-03-04T07:09:48Z</time>
      </trkpt>
      <trkpt lat="44.474" lon="6.80104">
        <ele>1516.258</ele>
        <time>2020-03-04T07:10:08Z</time>
      </trkpt>
      <trkpt lat="44.47373" lon="6.8013">
        <ele>1514.783</ele>
        <time>2020-03-04T07:10:28Z</time>
      </trkpt>
      <trkpt lat="44.47354" lon="6.80149">
        <ele>1514.925</ele>
        <time>2020-03-04T07:10:48Z</time>
      </trkpt>
      <trkpt lat="44.47321" lon="6.80163">
        <ele>1513.517</ele>
        <time>2020-03-04T07:11:08Z</time>
      </trkpt>
      <trkpt lat="44.47296" lon="6.8017">
        <ele>1512.608</ele>
        <time>2020-03-04T07:11:28Z</time>
      </trkpt>
      <trkpt lat="44.47279" lon="6.80164">
        <ele>1510.162</ele>
        <time>2020-03-04T07:11:48Z</time>
      </trkpt>
      <trkpt lat="44.47278" lon="6.8015">
        <ele>1510.045</ele>
        <time>2020-03-04T07:12:08Z</time>
      </trkpt>
      <trkpt lat="44.47292" lon="6.80114">
        <ele>1518.812</ele>
        <time>2020-03-04T07:12:28Z</time>
      </trkpt>
      <trkpt lat="44.47314" lon="6.80078">
        <ele>1522.771</ele>
        <time>2020-03-04T07:12:48Z</time>
      </trkpt>
      <trkpt lat="44.47319" lon="6.80044">
        <ele>1530.989</ele>
        <time>2020-03-04T07:13:08Z</time>
      </trkpt>
      <trkpt lat="44.47343" lon="6.79992">
        <ele>1532.98</ele>
        <time>2020-03-04T07:13:28Z</time>
      </trkpt>
      <trkpt lat="44.47352" lon="6.79956">
        <ele>1535.842</ele>
        <time>2020-03-04T07:13:48Z</time>
      </trkpt>
      <trkpt lat="44.4736" lon="6.79916">
        <ele>1541.698</ele>
        <time>2020-03-04T07:14:08Z</time>
      </trkpt>
      <trkpt lat="44.47357" lon="6.79889">
        <ele>1551.946</ele>
        <time>2020-03-04T07:14:28Z</time>
      </trkpt>
      <trkpt lat="44.47368" lon="6.7982">
        <ele>1555.588</ele>
        <time>2020-03-04T07:14:48Z</time>
      </trkpt>
      <trkpt lat="44.47357" lon="6.7984">
        <ele>1560.816</ele>
        <time>2020-03-04T07:15:08Z</time>
      </trkpt>
      <trkpt lat="44.47342" lon="6.79874">
        <ele>1567.508</ele>
        <time>2020-03-04T07:15:28Z</time>
      </trkpt>
      <trkpt lat="44.47327" lon="6.79923">
        <ele>1566.278</ele>
        <time>2020-03-04T07:15:48Z</time>
      </trkpt>
      <trkpt lat="44.47306" lon="6.79949">
        <ele>1571.581</ele>
        <time>2020-03-04T07:16:08Z</time>
      </trkpt>
      <trkpt lat="44.47282" lon="6.79962">
        <ele>1579.418</ele>
        <time>2020-03-04T07:16:28Z</time>
      </trkpt>
      <trkpt lat="44.47277" lon="6.79959">
        <ele>1582.697</ele>
        <time>2020-03-04T07:16:48Z</time>
      </trkpt>
      <trkpt lat="44.47292" lon="6.79946">
        <ele>1579.335</ele>
        <time>2020-03-04T07:17:08Z</time>
      </trkpt>
      <trkpt lat="44.47306" lon="6.79913">
        <ele>1582.266</ele>
        <time>2020-03-04T07:17:28Z</time>
      </trkpt>
      <trkpt lat="44.47317" lon="6.79878">
        <ele>1583.558</ele>
        <time>2020-03-04T07:17:48Z</time>
      </trkpt>
      <trkpt lat="44.47327" lon="6.79808">
        <ele>1592.384</ele>
        <time>2020-03-04T07:18:08Z</time>
      </trkpt>
      <trkpt lat="44.47319" lon="6.79749">
        <ele>1607.229</ele>
        <time>2020-03-04T07:18:28Z</time>
      </trkpt>
      <trkpt lat="44.47327" lon="6.79707">
        <ele>1608.9</ele>
        <time>2020-03-04T07:18:48Z</time>
      </trkpt>
      <trkpt lat="44.4734" lon="6.79667">
        <ele>1610.32</ele>
        <time>2020-03-04T07:19:08Z</time>
      </trkpt>
      <trkpt lat="44.47369" lon="6.79613">
        <ele>1605.808</ele>
        <time>2020-03-04T07:19:28Z</time>
      </trkpt>
      <trkpt lat="44.47368" lon="6.79597">
        <ele>1607.566</ele>
        <time>2020-03-04T07:19:48Z</time>
      </trkpt>
      <trkpt lat="44.47354" lon="6.79562">
        <ele>1616.119</ele>
        <time>2020-03-04T07:20:08Z</time>
      </trkpt>
      <trkpt lat="44.47331" lon="6.79488">
        <ele>1624.136</ele>
        <time>2020-03-04T07:20:28Z</time>
      </trkpt>
      <trkpt lat="44.47324" lon="6.79455">
        <ele>1626.675</ele>
        <time>2020-03-04T07:20:48Z</time>
      </trkpt>
      <trkpt lat="44.47317" lon="6.79416">
        <ele>1627.593</ele>
        <time>2020-03-04T07:21:08Z</time>
      </trkpt>
      <trkpt lat="44.47296" lon="6.79362">
        <ele>1631.364</ele>
        <time>2020-03-04T07:21:28Z</time>
      </trkpt>
      <trkpt lat="44.47294" lon="6.79326">
        <ele>1635.196</ele>
        <time>2020-03-04T07:21:48Z</time>
      </trkpt>
      <trkpt lat="44.47314" lon="6.79284">
        <ele>1628.362</ele>
        <time>2020-03-04T07:22:08Z</time>
      </trkpt>
      <trkpt lat="44.47321" lon="6.79247">
        <ele>1626.282</ele>
        <time>2020-03-04T07:22:28Z</time>
      </trkpt>
      <trkpt lat="44.47293" lon="6.79139">
        <ele>1621.643</ele>
        <time>2020-03-04T07:22:48Z</time>
      </trkpt>
      <trkpt lat="44.47252" lon="6.79016">
        <ele>1618.217</ele>
        <time>2020-03-04T07:23:08Z</time>
      </trkpt>
      <trkpt lat="44.47235" lon="6.78951">
        <ele>1622.008</ele>
        <time>2020-03-04T07:23:28Z</time>
      </trkpt>
      <trkpt lat="44.4722" lon="6.78915">
        <ele>1626.292</ele>
        <time>2020-03-04T07:23:48Z</time>
      </trkpt>
      <trkpt lat="44.47216" lon="6.78815">
        <ele>1629.075</ele>
        <time>2020-03-04T07:24:08Z</time>
      </trkpt>
      <trkpt lat="44.47207" lon="6.78774">
        <ele>1633.382</ele>
        <time>2020-03-04T07:24:28Z</time>
      </trkpt>
      <trkpt lat="44.47226" lon="6.78735">
        <ele>1634.891</ele>
        <time>2020-03-04T07:24:48Z</time>
      </trkpt>
      <trkpt lat="44.47242" lon="6.78703">
        <ele>1636.049</ele>
        <time>2020-03-04T07:25:08Z</time>
      </trkpt>
      <trkpt lat="44.47241" lon="6.78658">
        <ele>1638.25</ele>
        <time>2020-03-04T07:25:28Z</time>
      </trkpt>
      <trkpt lat="44.47233" lon="6.78635">
        <ele>1639.852</ele>
        <time>2020-03-04T07:25:48Z</time>
      </trkpt>
      <trkpt lat="44.47261" lon="6.78552">
        <ele>1640.058</ele>
        <time>2020-03-04T07:26:08Z</time>
      </trkpt>
      <trkpt lat="44.47254" lon="6.78527">
        <ele>1639.046</ele>
        <time>2020-03-04T07:26:28Z</time>
      </trkpt>
      <trkpt lat="44.47223" lon="6.78518">
        <ele>1645.188</ele>
        <time>2020-03-04T07:26:48Z</time>
      </trkpt>
      <trkpt lat="44.47213" lon="6.785">
        <ele>1646.216</ele>
        <time>2020-03-04T07:27:08Z</time>
      </trkpt>
      <trkpt lat="44.4722" lon="6.78475">
        <ele>1647.208</ele>
        <time>2020-03-04T07:27:28Z</time>
      </trkpt>
      <trkpt lat="44.47239" lon="6.78456">
        <ele>1643.178</ele>
        <time>2020-03-04T07:27:48Z</time>
      </trkpt>
      <trkpt lat="44.47236" lon="6.78431">
        <ele>1642.791</ele>
        <time>2020-03-04T07:28:08Z</time>
      </trkpt>
      <trkpt lat="44.47226" lon="6.78419">
        <ele>1644.198</ele>
        <time>2020-03-04T07:28:28Z</time>
      </trkpt>
      <trkpt lat="44.4719" lon="6.78396">
        <ele>1652.197</ele>
        <time>2020-03-04T07:28:48Z</time>
      </trkpt>
      <trkpt lat="44.47179" lon="6.78364">
        <ele>1654.625</ele>
        <time>2020-03-04T07:29:08Z</time>
      </trkpt>
      <trkpt lat="44.47185" lon="6.78322">
        <ele>1655.716</ele>
        <time>2020-03-04T07:29:28Z</time>
      </trkpt>
      <trkpt lat="44.47175" lon="6.78277">
        <ele>1662.848</ele>
        <time>2020-03-04T07:29:48Z</time>
      </trkpt>
      <trkpt lat="44.47186" lon="6.78241">
        <ele>1662.964</ele>
        <time>2020-03-04T07:30:08Z</time>
      </trkpt>
      <trkpt lat="44.47187" lon="6.7817">
        <ele>1665.195</ele>
        <time>2020-03-04T07:30:28Z</time>
      </trkpt>
      <trkpt lat="44.47168" lon="6.78099">
        <ele>1665.249</ele>
        <time>2020-03-04T07:30:48Z</time>
      </trkpt>
      <trkpt lat="44.47146" lon="6.7806">
        <ele>1671.923</ele>
        <time>2020-03-04T07:31:08Z</time>
      </trkpt>
      <trkpt lat="44.47149" lon="6.78017">
        <ele>1671.508</ele>
        <time>2020-03-04T07:31:28Z</time>
      </trkpt>
      <trkpt lat="44.47146" lon="6.77983">
        <ele>1672.373</ele>
        <time>2020-03-04T07:31:48Z</time>
      </trkpt>
      <trkpt lat="44.47141" lon="6.77964">
        <ele>1673.556</ele>
        <time>2020-03-04T07:32:08Z</time>
      </trkpt>
      <trkpt lat="44.47141" lon="6.77927">
        <ele>1672.843</ele>
        <time>2020-03-04T07:32:28Z</time>
      </trkpt>
      <trkpt lat="44.47121" lon="6.7796">
        <ele>1677.892</ele>
        <time>2020-03-04T07:32:48Z</time>
      </trkpt>
      <trkpt lat="44.47124" lon="6.78004">
        <ele>1677.97</ele>
        <time>2020-03-04T07:33:08Z</time>
      </trkpt>
      <trkpt lat="44.47113" lon="6.78042">
        <ele>1681.681</ele>
        <time>2020-03-04T07:33:28Z</time>
      </trkpt>
      <trkpt lat="44.47121" lon="6.78082">
        <ele>1681.093</ele>
        <time>2020-03-04T07:33:48Z</time>
      </trkpt>
      <trkpt lat="44.47084" lon="6.78152">
        <ele>1692.049</ele>
        <time>2020-03-04T07:34:08Z</time>
      </trkpt>
      <trkpt lat="44.47051" lon="6.78243">
        <ele>1695.982</ele>
        <time>2020-03-04T07:34:28Z</time>
      </trkpt>
      <trkpt lat="44.46995" lon="6.78251">
        <ele>1707.143</ele>
        <time>2020-03-04T07:34:48Z</time>
      </trkpt>
      <trkpt lat="44.46938" lon="6.78286">
        <ele>1715.517</ele>
        <time>2020-03-04T07:35:08Z</time>
      </trkpt>
      <trkpt lat="44.46921" lon="6.78339">
        <ele>1715.008</ele>
        <time>2020-03-04T07:35:28Z</time>
      </trkpt>
      <trkpt lat="44.46934" lon="6.78367">
        <ele>1710.982</ele>
        <time>2020-03-04T07:35:48Z</time>
      </trkpt>
      <trkpt lat="44.46923" lon="6.78413">
        <ele>1717.875</ele>
        <time>2020-03-04T07:36:08Z</time>
      </trkpt>
      <trkpt lat="44.46943" lon="6.78462">
        <ele>1718.572</ele>
        <time>2020-03-04T07:36:28Z</time>
      </trkpt>
      <trkpt lat="44.46941" lon="6.78499">
        <ele>1723.781</ele>
        <time>2020-03-04T07:36:48Z</time>
      </trkpt>
      <trkpt lat="44.46922" lon="6.78526">
        <ele>1727.719</ele>
        <time>2020-03-04T07:37:08Z</time>
      </trkpt>
      <trkpt lat="44.46918" lon="6.78556">
        <ele>1727.99</ele>
        <time>2020-03-04T07:37:28Z</time>
      </trkpt>
      <trkpt lat="44.46911" lon="6.78539">
        <ele>1730.132</ele>
        <time>2020-03-04T07:37:48Z</time>
      </trkpt>
      <trkpt lat="44.46911" lon="6.78522">
        <ele>1730.798</ele>
        <time>2020-03-04T07:38:08Z</time>
      </trkpt>
      <trkpt lat="44.46885" lon="6.78467">
        <ele>1734.256</ele>
        <time>2020-03-04T07:38:28Z</time>
      </trkpt>
      <trkpt lat="44.46868" lon="6.78452">
        <ele>1735.059</ele>
        <time>2020-03-04T07:38:48Z</time>
      </trkpt>
      <trkpt lat="44.46842" lon="6.78437">
        <ele>1738.814</ele>
        <time>2020-03-04T07:39:08Z</time>
      </trkpt>
      <trkpt lat="44.46833" lon="6.78404">
        <ele>1740.708</ele>
        <time>2020-03-04T07:39:28Z</time>
      </trkpt>
      <trkpt lat="44.4682" lon="6.7839">
        <ele>1745.549</ele>
        <time>2020-03-04T07:39:48Z</time>
      </trkpt>
      <trkpt lat="44.4682" lon="6.78327">
        <ele>1753.672</ele>
        <time>2020-03-04T07:40:08Z</time>
      </trkpt>
      <trkpt lat="44.46852" lon="6.78248">
        <ele>1755.819</ele>
        <time>2020-03-04T07:40:28Z</time>
      </trkpt>
      <trkpt lat="44.46832" lon="6.78201">
        <ele>1765.058</ele>
        <time>2020-03-04T07:40:48Z</time>
      </trkpt>
      <trkpt lat="44.46837" lon="6.78179">
        <ele>1766.976</ele>
        <time>2020-03-04T07:41:08Z</time>
      </trkpt>
      <trkpt lat="44.46858" lon="6.78139">
        <ele>1768.277</ele>
        <time>2020-03-04T07:41:28Z</time>
      </trkpt>
      <trkpt lat="44.46855" lon="6.78108">
        <ele>1770.919</ele>
        <time>2020-03-04T07:41:48Z</time>
      </trkpt>
      <trkpt lat="44.46846" lon="6.78076">
        <ele>1772.045</ele>
        <time>2020-03-04T07:42:08Z</time>
      </trkpt>
      <trkpt lat="44.46846" lon="6.78036">
        <ele>1769.792</ele>
        <time>2020-03-04T07:42:28Z</time>
      </trkpt>
      <trkpt lat="44.46835" lon="6.7802">
        <ele>1771.173</ele>
        <time>2020-03-04T07:42:48Z</time>
      </trkpt>
      <trkpt lat="44.46796" lon="6.7803">
        <ele>1779.22</ele>
        <time>2020-03-04T07:43:08Z</time>
      </trkpt>
      <trkpt lat="44.46791" lon="6.78059">
        <ele>1782.508</ele>
        <time>2020-03-04T07:43:28Z</time>
      </trkpt>
      <trkpt lat="44.46797" lon="6.78091">
        <ele>1784.463</ele>
        <time>2020-03-04T07:43:48Z</time>
      </trkpt>
      <trkpt lat="44.46772" lon="6.78139">
        <ele>1790.466</ele>
        <time>2020-03-04T07:44:08Z</time>
      </trkpt>
      <trkpt lat="44.46773" lon="6.78141">
        <ele>1789.783</ele>
        <time>2020-03-04T07:44:28Z</time>
      </trkpt>
      <trkpt lat="44.46739" lon="6.78169">
        <ele>1794.652</ele>
        <time>2020-03-04T07:44:48Z</time>
      </trkpt>
      <trkpt lat="44.4674" lon="6.78209">
        <ele>1793.47</ele>
        <time>2020-03-04T07:45:08Z</time>
      </trkpt>
      <trkpt lat="44.46704" lon="6.78286">
        <ele>1801.191</ele>
        <time>2020-03-04T07:45:28Z</time>
      </trkpt>
      <trkpt lat="44.46674" lon="6.78327">
        <ele>1807.713</ele>
        <time>2020-03-04T07:45:48Z</time>
      </trkpt>
      <trkpt lat="44.46674" lon="6.78395">
        <ele>1808.289</ele>
        <time>2020-03-04T07:46:08Z</time>
      </trkpt>
      <trkpt lat="44.46631" lon="6.78417">
        <ele>1818.288</ele>
        <time>2020-03-04T07:46:28Z</time>
      </trkpt>
      <trkpt lat="44.46624" lon="6.78457">
        <ele>1816.724</ele>
        <time>2020-03-04T07:46:48Z</time>
      </trkpt>
      <trkpt lat="44.4664" lon="6.78555">
        <ele>1820.626</ele>
        <time>2020-03-04T07:47:08Z</time>
      </trkpt>
      <trkpt lat="44.46696" lon="6.78614">
        <ele>1820.508</ele>
        <time>2020-03-04T07:47:28Z</time>
      </trkpt>
      <trkpt lat="44.46754" lon="6.78708">
        <ele>1831.222</ele>
        <time>2020-03-04T07:47:48Z</time>
      </trkpt>
      <trkpt lat="44.46775" lon="6.78733">
        <ele>1830.265</ele>
        <time>2020-03-04T07:48:08Z</time>
      </trkpt>
      <trkpt lat="44.46774" lon="6.78884">
        <ele>1852.492</ele>
        <time>2020-03-04T07:48:28Z</time>
      </trkpt>
      <trkpt lat="44.46839" lon="6.79012">
        <ele>1862.911</ele>
        <time>2020-03-04T07:48:48Z</time>
      </trkpt>
      <trkpt lat="44.46881" lon="6.79137">
        <ele>1888.599</ele>
        <time>2020-03-04T07:49:08Z</time>
      </trkpt>
      <trkpt lat="44.46928" lon="6.79157">
        <ele>1873.67</ele>
        <time>2020-03-04T07:49:28Z</time>
      </trkpt>
      <trkpt lat="44.46952" lon="6.79198">
        <ele>1881.132</ele>
        <time>2020-03-04T07:49:48Z</time>
      </trkpt>
      <trkpt lat="44.46954" lon="6.79247">
        <ele>1888.828</ele>
        <time>2020-03-04T07:50:08Z</time>
      </trkpt>
      <trkpt lat="44.46949" lon="6.79261">
        <ele>1891.448</ele>
        <time>2020-03-04T07:50:28Z</time>
      </trkpt>
      <trkpt lat="44.46945" lon="6.79289">
        <ele>1892.561</ele>
        <time>2020-03-04T07:50:48Z</time>
      </trkpt>
      <trkpt lat="44.46925" lon="6.79251">
        <ele>1896.917</ele>
        <time>2020-03-04T07:51:08Z</time>
      </trkpt>
      <trkpt lat="44.46911" lon="6.79261">
        <ele>1898.908</ele>
        <time>2020-03-04T07:51:28Z</time>
      </trkpt>
      <trkpt lat="44.46883" lon="6.7929">
        <ele>1901.868</ele>
        <time>2020-03-04T07:51:48Z</time>
      </trkpt>
      <trkpt lat="44.46872" lon="6.7928">
        <ele>1904.861</ele>
        <time>2020-03-04T07:52:08Z</time>
      </trkpt>
      <trkpt lat="44.46871" lon="6.79257">
        <ele>1905.578</ele>
        <time>2020-03-04T07:52:28Z</time>
      </trkpt>
      <trkpt lat="44.46864" lon="6.79204">
        <ele>1908.177</ele>
        <time>2020-03-04T07:52:48Z</time>
      </trkpt>
      <trkpt lat="44.46859" lon="6.79181">
        <ele>1909.485</ele>
        <time>2020-03-04T07:53:08Z</time>
      </trkpt>
      <trkpt lat="44.4685" lon="6.79179">
        <ele>1913.696</ele>
        <time>2020-03-04T07:53:28Z</time>
      </trkpt>
      <trkpt lat="44.46843" lon="6.79228">
        <ele>1916.058</ele>
        <time>2020-03-04T07:53:48Z</time>
      </trkpt>
      <trkpt lat="44.46793" lon="6.79304">
        <ele>1927.714</ele>
        <time>2020-03-04T07:54:08Z</time>
      </trkpt>
      <trkpt lat="44.46755" lon="6.7933">
        <ele>1937.476</ele>
        <time>2020-03-04T07:54:28Z</time>
      </trkpt>
      <trkpt lat="44.46769" lon="6.79346">
        <ele>1933.99</ele>
        <time>2020-03-04T07:54:48Z</time>
      </trkpt>
      <trkpt lat="44.46781" lon="6.79375">
        <ele>1931.719</ele>
        <time>2020-03-04T07:55:08Z</time>
      </trkpt>
      <trkpt lat="44.46736" lon="6.79437">
        <ele>1941.708</ele>
        <time>2020-03-04T07:55:28Z</time>
      </trkpt>
      <trkpt lat="44.46699" lon="6.79455">
        <ele>1948.121</ele>
        <time>2020-03-04T07:55:48Z</time>
      </trkpt>
      <trkpt lat="44.46672" lon="6.7947">
        <ele>1953.134</ele>
        <time>2020-03-04T07:56:08Z</time>
      </trkpt>
      <trkpt lat="44.46654" lon="6.79485">
        <ele>1952.361</ele>
        <time>2020-03-04T07:56:28Z</time>
      </trkpt>
      <trkpt lat="44.46588" lon="6.79448">
        <ele>1964.29</ele>
        <time>2020-03-04T07:56:48Z</time>
      </trkpt>
      <trkpt lat="44.46568" lon="6.79449">
        <ele>1965.398</ele>
        <time>2020-03-04T07:57:08Z</time>
      </trkpt>
      <trkpt lat="44.46558" lon="6.79466">
        <ele>1964.469</ele>
        <time>2020-03-04T07:57:28Z</time>
      </trkpt>
      <trkpt lat="44.46553" lon="6.79492">
        <ele>1964.521</ele>
        <time>2020-03-04T07:57:48Z</time>
      </trkpt>
      <trkpt lat="44.4656" lon="6.79519">
        <ele>1962.487</ele>
        <time>2020-03-04T07:58:08Z</time>
      </trkpt>
      <trkpt lat="44.4654" lon="6.79536">
        <ele>1969.414</ele>
        <time>2020-03-04T07:58:28Z</time>
      </trkpt>
      <trkpt lat="44.4656" lon="6.79598">
        <ele>1969.154</ele>
        <time>2020-03-04T07:58:48Z</time>
      </trkpt>
      <trkpt lat="44.46567" lon="6.79619">
        <ele>1968.809</ele>
        <time>2020-03-04T07:59:08Z</time>
      </trkpt>
      <trkpt lat="44.46548" lon="6.79631">
        <ele>1976.008</ele>
        <time>2020-03-04T07:59:28Z</time>
      </trkpt>
      <trkpt lat="44.46544" lon="6.79656">
        <ele>1975.885</ele>
        <time>2020-03-04T07:59:48Z</time>
      </trkpt>
      <trkpt lat="44.46543" lon="6.79683">
        <ele>1974.748</ele>
        <time>2020-03-04T08:00:08Z</time>
      </trkpt>
      <trkpt lat="44.46528" lon="6.79727">
        <ele>1980.525</ele>
        <time>2020-03-04T08:00:28Z</time>
      </trkpt>
      <trkpt lat="44.46524" lon="6.79755">
        <ele>1980.534</ele>
        <time>2020-03-04T08:00:48Z</time>
      </trkpt>
      <trkpt lat="44.46518" lon="6.79752">
        <ele>1983.832</ele>
        <time>2020-03-04T08:01:08Z</time>
      </trkpt>
      <trkpt lat="44.46514" lon="6.79736">
        <ele>1988.233</ele>
        <time>2020-03-04T08:01:28Z</time>
      </trkpt>
      <trkpt lat="44.46522" lon="6.797">
        <ele>1987.015</ele>
        <time>2020-03-04T08:01:48Z</time>
      </trkpt>
      <trkpt lat="44.46525" lon="6.79683">
        <ele>1985.311</ele>
        <time>2020-03-04T08:02:08Z</time>
      </trkpt>
      <trkpt lat="44.46513" lon="6.79603">
        <ele>1993.822</ele>
        <time>2020-03-04T08:02:28Z</time>
      </trkpt>
      <trkpt lat="44.46475" lon="6.79547">
        <ele>2003.462</ele>
        <time>2020-03-04T08:02:48Z</time>
      </trkpt>
      <trkpt lat="44.46455" lon="6.79474">
        <ele>2005.808</ele>
        <time>2020-03-04T08:03:08Z</time>
      </trkpt>
      <trkpt lat="44.46447" lon="6.79482">
        <ele>2010.808</ele>
        <time>2020-03-04T08:03:28Z</time>
      </trkpt>
      <trkpt lat="44.46454" lon="6.79512">
        <ele>2008.456</ele>
        <time>2020-03-04T08:03:48Z</time>
      </trkpt>
      <trkpt lat="44.4646" lon="6.79555">
        <ele>2013.279</ele>
        <time>2020-03-04T08:04:08Z</time>
      </trkpt>
      <trkpt lat="44.46467" lon="6.79578">
        <ele>2015.116</ele>
        <time>2020-03-04T08:04:28Z</time>
      </trkpt>
      <trkpt lat="44.46463" lon="6.79626">
        <ele>2020.375</ele>
        <time>2020-03-04T08:04:48Z</time>
      </trkpt>
      <trkpt lat="44.46452" lon="6.79613">
        <ele>2021.943</ele>
        <time>2020-03-04T08:05:08Z</time>
      </trkpt>
      <trkpt lat="44.46444" lon="6.7958">
        <ele>2021.044</ele>
        <time>2020-03-04T08:05:28Z</time>
      </trkpt>
      <trkpt lat="44.46419" lon="6.79551">
        <ele>2023.496</ele>
        <time>2020-03-04T08:05:48Z</time>
      </trkpt>
      <trkpt lat="44.46403" lon="6.79551">
        <ele>2026.672</ele>
        <time>2020-03-04T08:06:08Z</time>
      </trkpt>
      <trkpt lat="44.46377" lon="6.79568">
        <ele>2032.659</ele>
        <time>2020-03-04T08:06:28Z</time>
      </trkpt>
      <trkpt lat="44.46359" lon="6.79582">
        <ele>2036.603</ele>
        <time>2020-03-04T08:06:48Z</time>
      </trkpt>
      <trkpt lat="44.46349" lon="6.79575">
        <ele>2039.223</ele>
        <time>2020-03-04T08:07:08Z</time>
      </trkpt>
      <trkpt lat="44.46348" lon="6.79556">
        <ele>2041.208</ele>
        <time>2020-03-04T08:07:28Z</time>
      </trkpt>
      <trkpt lat="44.46362" lon="6.79532">
        <ele>2041.729</ele>
        <time>2020-03-04T08:07:48Z</time>
      </trkpt>
      <trkpt lat="44.46361" lon="6.79526">
        <ele>2043.352</ele>
        <time>2020-03-04T08:08:08Z</time>
      </trkpt>
      <trkpt lat="44.46331" lon="6.79552">
        <ele>2046.199</ele>
        <time>2020-03-04T08:08:28Z</time>
      </trkpt>
      <trkpt lat="44.46303" lon="6.79576">
        <ele>2048.848</ele>
        <time>2020-03-04T08:08:48Z</time>
      </trkpt>
      <trkpt lat="44.46274" lon="6.79574">
        <ele>2055.116</ele>
        <time>2020-03-04T08:09:08Z</time>
      </trkpt>
      <trkpt lat="44.46256" lon="6.79597">
        <ele>2056.287</ele>
        <time>2020-03-04T08:09:28Z</time>
      </trkpt>
      <trkpt lat="44.46243" lon="6.79623">
        <ele>2058.659</ele>
        <time>2020-03-04T08:09:48Z</time>
      </trkpt>
      <trkpt lat="44.46241" lon="6.79676">
        <ele>2064.025</ele>
        <time>2020-03-04T08:10:08Z</time>
      </trkpt>
      <trkpt lat="44.46248" lon="6.79734">
        <ele>2066.481</ele>
        <time>2020-03-04T08:10:28Z</time>
      </trkpt>
      <trkpt lat="44.46282" lon="6.79787">
        <ele>2068.161</ele>
        <time>2020-03-04T08:10:48Z</time>
      </trkpt>
      <trkpt lat="44.4629" lon="6.79809">
        <ele>2073.917</ele>
        <time>2020-03-04T08:11:08Z</time>
      </trkpt>
      <trkpt lat="44.46321" lon="6.79841">
        <ele>2073.608</ele>
        <time>2020-03-04T08:11:28Z</time>
      </trkpt>
      <trkpt lat="44.46359" lon="6.79884">
        <ele>2076.822</ele>
        <time>2020-03-04T08:11:48Z</time>
      </trkpt>
      <trkpt lat="44.46401" lon="6.79923">
        <ele>2083.985</ele>
        <time>2020-03-04T08:12:08Z</time>
      </trkpt>
      <trkpt lat="44.46429" lon="6.79933">
        <ele>2080.722</ele>
        <time>2020-03-04T08:12:28Z</time>
      </trkpt>
      <trkpt lat="44.4644" lon="6.79949">
        <ele>2087.181</ele>
        <time>2020-03-04T08:12:48Z</time>
      </trkpt>
      <trkpt lat="44.46441" lon="6.79965">
        <ele>2095.199</ele>
        <time>2020-03-04T08:13:08Z</time>
      </trkpt>
      <trkpt lat="44.46437" lon="6.79965">
        <ele>2096.21</ele>
        <time>2020-03-04T08:13:28Z</time>
      </trkpt>
      <trkpt lat="44.46438" lon="6.79949">
        <ele>2087.512</ele>
        <time>2020-03-04T08:13:48Z</time>
      </trkpt>
      <trkpt lat="44.46426" lon="6.79936">
        <ele>2083.438</ele>
        <time>2020-03-04T08:14:08Z</time>
      </trkpt>
      <trkpt lat="44.46398" lon="6.79925">
        <ele>2087.089</ele>
        <time>2020-03-04T08:14:28Z</time>
      </trkpt>
      <trkpt lat="44.46352" lon="6.79883">
        <ele>2079.806</ele>
        <time>2020-03-04T08:14:48Z</time>
      </trkpt>
      <trkpt lat="44.4632" lon="6.79845">
        <ele>2076.426</ele>
        <time>2020-03-04T08:15:08Z</time>
      </trkpt>
      <trkpt lat="44.46288" lon="6.79813">
        <ele>2076.808</ele>
        <time>2020-03-04T08:15:28Z</time>
      </trkpt>
      <trkpt lat="44.4628" lon="6.79787">
        <ele>2069.572</ele>
        <time>2020-03-04T08:15:48Z</time>
      </trkpt>
      <trkpt lat="44.46246" lon="6.79735">
        <ele>2068.025</ele>
        <time>2020-03-04T08:16:08Z</time>
      </trkpt>
      <trkpt lat="44.46237" lon="6.79673">
        <ele>2065.682</ele>
        <time>2020-03-04T08:16:28Z</time>
      </trkpt>
      <trkpt lat="44.46241" lon="6.79622">
        <ele>2059.551</ele>
        <time>2020-03-04T08:16:48Z</time>
      </trkpt>
      <trkpt lat="44.46255" lon="6.79597">
        <ele>2056.679</ele>
        <time>2020-03-04T08:17:08Z</time>
      </trkpt>
      <trkpt lat="44.46273" lon="6.7957">
        <ele>2056.17</ele>
        <time>2020-03-04T08:17:28Z</time>
      </trkpt>
      <trkpt lat="44.46304" lon="6.79574">
        <ele>2049.162</ele>
        <time>2020-03-04T08:17:48Z</time>
      </trkpt>
      <trkpt lat="44.46362" lon="6.79522">
        <ele>2043.648</ele>
        <time>2020-03-04T08:18:08Z</time>
      </trkpt>
      <trkpt lat="44.46365" lon="6.79533">
        <ele>2040.725</ele>
        <time>2020-03-04T08:18:28Z</time>
      </trkpt>
      <trkpt lat="44.4635" lon="6.79558">
        <ele>2040.526</ele>
        <time>2020-03-04T08:18:48Z</time>
      </trkpt>
      <trkpt lat="44.46351" lon="6.79573">
        <ele>2038.808</ele>
        <time>2020-03-04T08:19:08Z</time>
      </trkpt>
      <trkpt lat="44.46358" lon="6.79579">
        <ele>2037.008</ele>
        <time>2020-03-04T08:19:28Z</time>
      </trkpt>
      <trkpt lat="44.46403" lon="6.79548">
        <ele>2026.876</ele>
        <time>2020-03-04T08:19:48Z</time>
      </trkpt>
      <trkpt lat="44.4642" lon="6.79548">
        <ele>2023.199</ele>
        <time>2020-03-04T08:20:08Z</time>
      </trkpt>
      <trkpt lat="44.46447" lon="6.79582">
        <ele>2020.496</ele>
        <time>2020-03-04T08:20:28Z</time>
      </trkpt>
      <trkpt lat="44.46454" lon="6.79611">
        <ele>2021.725</ele>
        <time>2020-03-04T08:20:48Z</time>
      </trkpt>
      <trkpt lat="44.46461" lon="6.7962">
        <ele>2020.623</ele>
        <time>2020-03-04T08:21:08Z</time>
      </trkpt>
      <trkpt lat="44.46466" lon="6.7958">
        <ele>2015.784</ele>
        <time>2020-03-04T08:21:28Z</time>
      </trkpt>
      <trkpt lat="44.46457" lon="6.79554">
        <ele>2014.246</ele>
        <time>2020-03-04T08:21:48Z</time>
      </trkpt>
      <trkpt lat="44.46452" lon="6.79516">
        <ele>2010.292</ele>
        <time>2020-03-04T08:22:08Z</time>
      </trkpt>
      <trkpt lat="44.46443" lon="6.79479">
        <ele>2013.878</ele>
        <time>2020-03-04T08:22:28Z</time>
      </trkpt>
      <trkpt lat="44.46456" lon="6.79472">
        <ele>2005.233</ele>
        <time>2020-03-04T08:22:48Z</time>
      </trkpt>
      <trkpt lat="44.46476" lon="6.79544">
        <ele>2002.426</ele>
        <time>2020-03-04T08:23:08Z</time>
      </trkpt>
      <trkpt lat="44.46515" lon="6.796">
        <ele>1991.908</ele>
        <time>2020-03-04T08:23:28Z</time>
      </trkpt>
      <trkpt lat="44.46527" lon="6.79685">
        <ele>1983.711</ele>
        <time>2020-03-04T08:23:48Z</time>
      </trkpt>
      <trkpt lat="44.46516" lon="6.79734">
        <ele>1987.284</ele>
        <time>2020-03-04T08:24:08Z</time>
      </trkpt>
      <trkpt lat="44.4652" lon="6.79751">
        <ele>1982.891</ele>
        <time>2020-03-04T08:24:28Z</time>
      </trkpt>
      <trkpt lat="44.46523" lon="6.79753">
        <ele>1981.15</ele>
        <time>2020-03-04T08:24:48Z</time>
      </trkpt>
      <trkpt lat="44.46525" lon="6.79727">
        <ele>1982.278</ele>
        <time>2020-03-04T08:25:08Z</time>
      </trkpt>
      <trkpt lat="44.46542" lon="6.79684">
        <ele>1975.519</ele>
        <time>2020-03-04T08:25:28Z</time>
      </trkpt>
      <trkpt lat="44.46542" lon="6.79646">
        <ele>1978.171</ele>
        <time>2020-03-04T08:25:48Z</time>
      </trkpt>
      <trkpt lat="44.46547" lon="6.79629">
        <ele>1976.787</ele>
        <time>2020-03-04T08:26:08Z</time>
      </trkpt>
      <trkpt lat="44.46563" lon="6.7962">
        <ele>1970.474</ele>
        <time>2020-03-04T08:26:28Z</time>
      </trkpt>
      <trkpt lat="44.46538" lon="6.79537">
        <ele>1970.056</ele>
        <time>2020-03-04T08:26:48Z</time>
      </trkpt>
      <trkpt lat="44.46558" lon="6.79518">
        <ele>1963.121</ele>
        <time>2020-03-04T08:27:08Z</time>
      </trkpt>
      <trkpt lat="44.46552" lon="6.79488">
        <ele>1965.008</ele>
        <time>2020-03-04T08:27:28Z</time>
      </trkpt>
      <trkpt lat="44.46556" lon="6.79462">
        <ele>1965.071</ele>
        <time>2020-03-04T08:27:48Z</time>
      </trkpt>
      <trkpt lat="44.46568" lon="6.79445">
        <ele>1966.064</ele>
        <time>2020-03-04T08:28:08Z</time>
      </trkpt>
      <trkpt lat="44.46588" lon="6.79445">
        <ele>1964.611</ele>
        <time>2020-03-04T08:28:28Z</time>
      </trkpt>
      <trkpt lat="44.46653" lon="6.7948">
        <ele>1953.69</ele>
        <time>2020-03-04T08:28:48Z</time>
      </trkpt>
      <trkpt lat="44.46734" lon="6.79435">
        <ele>1942.568</ele>
        <time>2020-03-04T08:29:08Z</time>
      </trkpt>
      <trkpt lat="44.46777" lon="6.79373">
        <ele>1932.989</ele>
        <time>2020-03-04T08:29:28Z</time>
      </trkpt>
      <trkpt lat="44.46764" lon="6.79345">
        <ele>1935.761</ele>
        <time>2020-03-04T08:29:48Z</time>
      </trkpt>
      <trkpt lat="44.46751" lon="6.79329">
        <ele>1938.677</ele>
        <time>2020-03-04T08:30:08Z</time>
      </trkpt>
      <trkpt lat="44.46792" lon="6.79301">
        <ele>1928.481</ele>
        <time>2020-03-04T08:30:28Z</time>
      </trkpt>
      <trkpt lat="44.46842" lon="6.79228">
        <ele>1916.661</ele>
        <time>2020-03-04T08:30:48Z</time>
      </trkpt>
      <trkpt lat="44.46848" lon="6.79178">
        <ele>1914.317</ele>
        <time>2020-03-04T08:31:08Z</time>
      </trkpt>
      <trkpt lat="44.46862" lon="6.7918">
        <ele>1908.308</ele>
        <time>2020-03-04T08:31:28Z</time>
      </trkpt>
      <trkpt lat="44.46874" lon="6.79256">
        <ele>1904.872</ele>
        <time>2020-03-04T08:31:48Z</time>
      </trkpt>
      <trkpt lat="44.46874" lon="6.79276">
        <ele>1904.345</ele>
        <time>2020-03-04T08:32:08Z</time>
      </trkpt>
      <trkpt lat="44.46882" lon="6.79286">
        <ele>1902.042</ele>
        <time>2020-03-04T08:32:28Z</time>
      </trkpt>
      <trkpt lat="44.4691" lon="6.79259">
        <ele>1899.081</ele>
        <time>2020-03-04T08:32:48Z</time>
      </trkpt>
      <trkpt lat="44.46927" lon="6.79246">
        <ele>1896.389</ele>
        <time>2020-03-04T08:33:08Z</time>
      </trkpt>
      <trkpt lat="44.46942" lon="6.7928">
        <ele>1893.35</ele>
        <time>2020-03-04T08:33:28Z</time>
      </trkpt>
      <trkpt lat="44.46946" lon="6.79258">
        <ele>1891.842</ele>
        <time>2020-03-04T08:33:48Z</time>
      </trkpt>
      <trkpt lat="44.46951" lon="6.79247">
        <ele>1889.948</ele>
        <time>2020-03-04T08:34:08Z</time>
      </trkpt>
      <trkpt lat="44.46949" lon="6.79201">
        <ele>1884.316</ele>
        <time>2020-03-04T08:34:28Z</time>
      </trkpt>
      <trkpt lat="44.46926" lon="6.7916">
        <ele>1877.376</ele>
        <time>2020-03-04T08:34:48Z</time>
      </trkpt>
      <trkpt lat="44.46879" lon="6.79139">
        <ele>1890.313</ele>
        <time>2020-03-04T08:35:08Z</time>
      </trkpt>
      <trkpt lat="44.46838" lon="6.79015">
        <ele>1864.708</ele>
        <time>2020-03-04T08:35:28Z</time>
      </trkpt>
      <trkpt lat="44.4677" lon="6.78882">
        <ele>1854.595</ele>
        <time>2020-03-04T08:35:48Z</time>
      </trkpt>
      <trkpt lat="44.46773" lon="6.78736">
        <ele>1833.268</ele>
        <time>2020-03-04T08:36:08Z</time>
      </trkpt>
      <trkpt lat="44.46693" lon="6.78616">
        <ele>1822.335</ele>
        <time>2020-03-04T08:36:28Z</time>
      </trkpt>
      <trkpt lat="44.46637" lon="6.78554">
        <ele>1821.534</ele>
        <time>2020-03-04T08:36:48Z</time>
      </trkpt>
      <trkpt lat="44.4662" lon="6.78454">
        <ele>1818.482</ele>
        <time>2020-03-04T08:37:08Z</time>
      </trkpt>
      <trkpt lat="44.46629" lon="6.78415">
        <ele>1819.223</ele>
        <time>2020-03-04T08:37:28Z</time>
      </trkpt>
      <trkpt lat="44.4667" lon="6.78392">
        <ele>1809.775</ele>
        <time>2020-03-04T08:37:48Z</time>
      </trkpt>
      <trkpt lat="44.46672" lon="6.78324">
        <ele>1809.351</ele>
        <time>2020-03-04T08:38:08Z</time>
      </trkpt>
      <trkpt lat="44.467" lon="6.78288">
        <ele>1802.323</ele>
        <time>2020-03-04T08:38:28Z</time>
      </trkpt>
      <trkpt lat="44.46737" lon="6.78208">
        <ele>1794.483</ele>
        <time>2020-03-04T08:38:48Z</time>
      </trkpt>
      <trkpt lat="44.46738" lon="6.78166">
        <ele>1795.211</ele>
        <time>2020-03-04T08:39:08Z</time>
      </trkpt>
      <trkpt lat="44.46771" lon="6.7814">
        <ele>1790.508</ele>
        <time>2020-03-04T08:39:28Z</time>
      </trkpt>
      <trkpt lat="44.46794" lon="6.78091">
        <ele>1785.156</ele>
        <time>2020-03-04T08:39:48Z</time>
      </trkpt>
      <trkpt lat="44.46789" lon="6.78064">
        <ele>1783.439</ele>
        <time>2020-03-04T08:40:08Z</time>
      </trkpt>
      <trkpt lat="44.46793" lon="6.78029">
        <ele>1779.796</ele>
        <time>2020-03-04T08:40:28Z</time>
      </trkpt>
      <trkpt lat="44.46836" lon="6.78017">
        <ele>1770.615</ele>
        <time>2020-03-04T08:40:48Z</time>
      </trkpt>
      <trkpt lat="44.46849" lon="6.78035">
        <ele>1769.053</ele>
        <time>2020-03-04T08:41:08Z</time>
      </trkpt>
      <trkpt lat="44.46847" lon="6.78076">
        <ele>1771.724</ele>
        <time>2020-03-04T08:41:28Z</time>
      </trkpt>
      <trkpt lat="44.46859" lon="6.78108">
        <ele>1769.716</ele>
        <time>2020-03-04T08:41:48Z</time>
      </trkpt>
      <trkpt lat="44.4686" lon="6.78142">
        <ele>1766.832</ele>
        <time>2020-03-04T08:42:08Z</time>
      </trkpt>
      <trkpt lat="44.46841" lon="6.78178">
        <ele>1765.975</ele>
        <time>2020-03-04T08:42:28Z</time>
      </trkpt>
      <trkpt lat="44.46836" lon="6.78201">
        <ele>1763.628</ele>
        <time>2020-03-04T08:42:48Z</time>
      </trkpt>
      <trkpt lat="44.46854" lon="6.78249">
        <ele>1754.82</ele>
        <time>2020-03-04T08:43:08Z</time>
      </trkpt>
      <trkpt lat="44.46822" lon="6.78327">
        <ele>1752.908</ele>
        <time>2020-03-04T08:43:28Z</time>
      </trkpt>
      <trkpt lat="44.46823" lon="6.7839">
        <ele>1744.231</ele>
        <time>2020-03-04T08:43:48Z</time>
      </trkpt>
      <trkpt lat="44.46835" lon="6.78404">
        <ele>1740.064</ele>
        <time>2020-03-04T08:44:08Z</time>
      </trkpt>
      <trkpt lat="44.46843" lon="6.78434">
        <ele>1738.521</ele>
        <time>2020-03-04T08:44:28Z</time>
      </trkpt>
      <trkpt lat="44.46869" lon="6.78448">
        <ele>1734.24</ele>
        <time>2020-03-04T08:44:48Z</time>
      </trkpt>
      <trkpt lat="44.46886" lon="6.78466">
        <ele>1733.748</ele>
        <time>2020-03-04T08:45:08Z</time>
      </trkpt>
      <trkpt lat="44.46914" lon="6.7852">
        <ele>1729.959</ele>
        <time>2020-03-04T08:45:28Z</time>
      </trkpt>
      <trkpt lat="44.46913" lon="6.78539">
        <ele>1729.721</ele>
        <time>2020-03-04T08:45:48Z</time>
      </trkpt>
      <trkpt lat="44.46918" lon="6.78547">
        <ele>1728.187</ele>
        <time>2020-03-04T08:46:08Z</time>
      </trkpt>
      <trkpt lat="44.46922" lon="6.78524">
        <ele>1727.858</ele>
        <time>2020-03-04T08:46:28Z</time>
      </trkpt>
      <trkpt lat="44.46939" lon="6.78498">
        <ele>1724.252</ele>
        <time>2020-03-04T08:46:48Z</time>
      </trkpt>
      <trkpt lat="44.46941" lon="6.78465">
        <ele>1719.717</ele>
        <time>2020-03-04T08:47:08Z</time>
      </trkpt>
      <trkpt lat="44.46921" lon="6.78414">
        <ele>1718.708</ele>
        <time>2020-03-04T08:47:28Z</time>
      </trkpt>
      <trkpt lat="44.46931" lon="6.78369">
        <ele>1712.199</ele>
        <time>2020-03-04T08:47:48Z</time>
      </trkpt>
      <trkpt lat="44.46921" lon="6.78342">
        <ele>1715.492</ele>
        <time>2020-03-04T08:48:08Z</time>
      </trkpt>
      <trkpt lat="44.46937" lon="6.78282">
        <ele>1716.839</ele>
        <time>2020-03-04T08:48:28Z</time>
      </trkpt>
      <trkpt lat="44.46995" lon="6.78246">
        <ele>1708.248</ele>
        <time>2020-03-04T08:48:48Z</time>
      </trkpt>
      <trkpt lat="44.47049" lon="6.78241">
        <ele>1696.566</ele>
        <time>2020-03-04T08:49:08Z</time>
      </trkpt>
      <trkpt lat="44.47118" lon="6.78082">
        <ele>1681.987</ele>
        <time>2020-03-04T08:49:28Z</time>
      </trkpt>
      <trkpt lat="44.4711" lon="6.78042">
        <ele>1682.269</ele>
        <time>2020-03-04T08:49:48Z</time>
      </trkpt>
      <trkpt lat="44.47122" lon="6.78003">
        <ele>1678.455</ele>
        <time>2020-03-04T08:50:08Z</time>
      </trkpt>
      <trkpt lat="44.4712" lon="6.7796">
        <ele>1678.114</ele>
        <time>2020-03-04T08:50:28Z</time>
      </trkpt>
      <trkpt lat="44.47138" lon="6.77925">
        <ele>1673.554</ele>
        <time>2020-03-04T08:50:48Z</time>
      </trkpt>
      <trkpt lat="44.47151" lon="6.7791">
        <ele>1669.809</ele>
        <time>2020-03-04T08:51:08Z</time>
      </trkpt>
      <trkpt lat="44.4714" lon="6.77863">
        <ele>1668.708</ele>
        <time>2020-03-04T08:51:28Z</time>
      </trkpt>
      <trkpt lat="44.47157" lon="6.77806">
        <ele>1663.185</ele>
        <time>2020-03-04T08:51:48Z</time>
      </trkpt>
      <trkpt lat="44.47156" lon="6.77744">
        <ele>1658.758</ele>
        <time>2020-03-04T08:52:08Z</time>
      </trkpt>
      <trkpt lat="44.47162" lon="6.77715">
        <ele>1651.675</ele>
        <time>2020-03-04T08:52:28Z</time>
      </trkpt>
      <trkpt lat="44.47143" lon="6.77664">
        <ele>1648.614</ele>
        <time>2020-03-04T08:52:48Z</time>
      </trkpt>
      <trkpt lat="44.47119" lon="6.77609">
        <ele>1648.232</ele>
        <time>2020-03-04T08:53:08Z</time>
      </trkpt>
      <trkpt lat="44.47122" lon="6.77573">
        <ele>1640.843</ele>
        <time>2020-03-04T08:53:28Z</time>
      </trkpt>
      <trkpt lat="44.47099" lon="6.77493">
        <ele>1638.985</ele>
        <time>2020-03-04T08:53:48Z</time>
      </trkpt>
      <trkpt lat="44.47112" lon="6.77452">
        <ele>1632.221</ele>
        <time>2020-03-04T08:54:08Z</time>
      </trkpt>
      <trkpt lat="44.47097" lon="6.77366">
        <ele>1626.073</ele>
        <time>2020-03-04T08:54:28Z</time>
      </trkpt>
      <trkpt lat="44.47086" lon="6.77332">
        <ele>1627.385</ele>
        <time>2020-03-04T08:54:48Z</time>
      </trkpt>
      <trkpt lat="44.47084" lon="6.77265">
        <ele>1618.613</ele>
        <time>2020-03-04T08:55:08Z</time>
      </trkpt>
      <trkpt lat="44.47025" lon="6.77166">
        <ele>1617.408</ele>
        <time>2020-03-04T08:55:28Z</time>
      </trkpt>
      <trkpt lat="44.47016" lon="6.7711">
        <ele>1618.271</ele>
        <time>2020-03-04T08:55:48Z</time>
      </trkpt>
      <trkpt lat="44.47024" lon="6.77101">
        <ele>1614.394</ele>
        <time>2020-03-04T08:56:08Z</time>
      </trkpt>
      <trkpt lat="44.47029" lon="6.77105">
        <ele>1611.821</ele>
        <time>2020-03-04T08:56:28Z</time>
      </trkpt>
      <trkpt lat="44.47032" lon="6.7715">
        <ele>1613.05</ele>
        <time>2020-03-04T08:56:48Z</time>
      </trkpt>
      <trkpt lat="44.47074" lon="6.77184">
        <ele>1602.398</ele>
        <time>2020-03-04T08:57:08Z</time>
      </trkpt>
      <trkpt lat="44.47116" lon="6.77232">
        <ele>1597.829</ele>
        <time>2020-03-04T08:57:28Z</time>
      </trkpt>
      <trkpt lat="44.4714" lon="6.77244">
        <ele>1594.041</ele>
        <time>2020-03-04T08:57:48Z</time>
      </trkpt>
      <trkpt lat="44.47142" lon="6.77284">
        <ele>1596.347</ele>
        <time>2020-03-04T08:58:08Z</time>
      </trkpt>
      <trkpt lat="44.47169" lon="6.77338">
        <ele>1589.535</ele>
        <time>2020-03-04T08:58:28Z</time>
      </trkpt>
      <trkpt lat="44.47188" lon="6.77358">
        <ele>1583.286</ele>
        <time>2020-03-04T08:58:48Z</time>
      </trkpt>
      <trkpt lat="44.47192" lon="6.77347">
        <ele>1579.014</ele>
        <time>2020-03-04T08:59:08Z</time>
      </trkpt>
      <trkpt lat="44.47169" lon="6.77313">
        <ele>1585.908</ele>
        <time>2020-03-04T08:59:28Z</time>
      </trkpt>
      <trkpt lat="44.4717" lon="6.77294">
        <ele>1584.627</ele>
        <time>2020-03-04T08:59:48Z</time>
      </trkpt>
      <trkpt lat="44.4718" lon="6.77262">
        <ele>1577.58</ele>
        <time>2020-03-04T09:00:08Z</time>
      </trkpt>
      <trkpt lat="44.47168" lon="6.77208">
        <ele>1574.397</ele>
        <time>2020-03-04T09:00:28Z</time>
      </trkpt>
      <trkpt lat="44.47139" lon="6.77147">
        <ele>1568.856</ele>
        <time>2020-03-04T09:00:48Z</time>
      </trkpt>
      <trkpt lat="44.47124" lon="6.77117">
        <ele>1568.064</ele>
        <time>2020-03-04T09:01:08Z</time>
      </trkpt>
      <trkpt lat="44.47123" lon="6.77089">
        <ele>1562.835</ele>
        <time>2020-03-04T09:01:28Z</time>
      </trkpt>
      <trkpt lat="44.4711" lon="6.77059">
        <ele>1564.937</ele>
        <time>2020-03-04T09:01:48Z</time>
      </trkpt>
      <trkpt lat="44.47104" lon="6.77028">
        <ele>1564.953</ele>
        <time>2020-03-04T09:02:08Z</time>
      </trkpt>
      <trkpt lat="44.47092" lon="6.77017">
        <ele>1568.193</ele>
        <time>2020-03-04T09:02:28Z</time>
      </trkpt>
      <trkpt lat="44.47096" lon="6.76999">
        <ele>1563.165</ele>
        <time>2020-03-04T09:02:48Z</time>
      </trkpt>
      <trkpt lat="44.47107" lon="6.77003">
        <ele>1559.521</ele>
        <time>2020-03-04T09:03:08Z</time>
      </trkpt>
      <trkpt lat="44.47148" lon="6.77094">
        <ele>1551.908</ele>
        <time>2020-03-04T09:03:28Z</time>
      </trkpt>
      <trkpt lat="44.47179" lon="6.77131">
        <ele>1542.493</ele>
        <time>2020-03-04T09:03:48Z</time>
      </trkpt>
      <trkpt lat="44.47202" lon="6.77175">
        <ele>1542.026</ele>
        <time>2020-03-04T09:04:08Z</time>
      </trkpt>
      <trkpt lat="44.47227" lon="6.7721">
        <ele>1537.683</ele>
        <time>2020-03-04T09:04:28Z</time>
      </trkpt>
      <trkpt lat="44.47239" lon="6.77245">
        <ele>1537.272</ele>
        <time>2020-03-04T09:04:48Z</time>
      </trkpt>
      <trkpt lat="44.47247" lon="6.77239">
        <ele>1530.31</ele>
        <time>2020-03-04T09:05:08Z</time>
      </trkpt>
      <trkpt lat="44.47232" lon="6.77189">
        <ele>1528.681</ele>
        <time>2020-03-04T09:05:28Z</time>
      </trkpt>
      <trkpt lat="44.47212" lon="6.77159">
        <ele>1530.963</ele>
        <time>2020-03-04T09:05:48Z</time>
      </trkpt>
      <trkpt lat="44.472" lon="6.77096">
        <ele>1521.559</ele>
        <time>2020-03-04T09:06:08Z</time>
      </trkpt>
      <trkpt lat="44.47183" lon="6.77045">
        <ele>1522.774</ele>
        <time>2020-03-04T09:06:28Z</time>
      </trkpt>
      <trkpt lat="44.47173" lon="6.76973">
        <ele>1511.156</ele>
        <time>2020-03-04T09:06:48Z</time>
      </trkpt>
      <trkpt lat="44.47146" lon="6.76932">
        <ele>1506.721</ele>
        <time>2020-03-04T09:07:08Z</time>
      </trkpt>
      <trkpt lat="44.47113" lon="6.76899">
        <ele>1506.308</ele>
        <time>2020-03-04T09:07:28Z</time>
      </trkpt>
      <trkpt lat="44.47112" lon="6.76894">
        <ele>1503.751</ele>
        <time>2020-03-04T09:07:48Z</time>
      </trkpt>
      <trkpt lat="44.47122" lon="6.76896">
        <ele>1500.654</ele>
        <time>2020-03-04T09:08:08Z</time>
      </trkpt>
      <trkpt lat="44.47167" lon="6.76925">
        <ele>1494.111</ele>
        <time>2020-03-04T09:08:28Z</time>
      </trkpt>
      <trkpt lat="44.472" lon="6.76957">
        <ele>1493.42</ele>
        <time>2020-03-04T09:08:48Z</time>
      </trkpt>
      <trkpt lat="44.4725" lon="6.76983">
        <ele>1482.028</ele>
        <time>2020-03-04T09:09:08Z</time>
      </trkpt>
      <trkpt lat="44.47264" lon="6.77012">
        <ele>1481.389</ele>
        <time>2020-03-04T09:09:28Z</time>
      </trkpt>
      <trkpt lat="44.47282" lon="6.77058">
        <ele>1481.251</ele>
        <time>2020-03-04T09:09:48Z</time>
      </trkpt>
      <trkpt lat="44.4731" lon="6.77066">
        <ele>1475.287</ele>
        <time>2020-03-04T09:10:08Z</time>
      </trkpt>
      <trkpt lat="44.47341" lon="6.771">
        <ele>1467.592</ele>
        <time>2020-03-04T09:10:28Z</time>
      </trkpt>
      <trkpt lat="44.47344" lon="6.77145">
        <ele>1469.673</ele>
        <time>2020-03-04T09:10:48Z</time>
      </trkpt>
      <trkpt lat="44.47352" lon="6.77173">
        <ele>1466.72</ele>
        <time>2020-03-04T09:11:08Z</time>
      </trkpt>
      <trkpt lat="44.47347" lon="6.7721">
        <ele>1471.708</ele>
        <time>2020-03-04T09:11:28Z</time>
      </trkpt>
      <trkpt lat="44.47359" lon="6.77208">
        <ele>1465.453</ele>
        <time>2020-03-04T09:11:48Z</time>
      </trkpt>
      <trkpt lat="44.47359" lon="6.77184">
        <ele>1463.536</ele>
        <time>2020-03-04T09:12:08Z</time>
      </trkpt>
      <trkpt lat="44.47361" lon="6.7714">
        <ele>1459.333</ele>
        <time>2020-03-04T09:12:28Z</time>
      </trkpt>
      <trkpt lat="44.47365" lon="6.77104">
        <ele>1454.282</ele>
        <time>2020-03-04T09:12:48Z</time>
      </trkpt>
      <trkpt lat="44.47358" lon="6.77075">
        <ele>1455.85</ele>
        <time>2020-03-04T09:13:08Z</time>
      </trkpt>
      <trkpt lat="44.47365" lon="6.77022">
        <ele>1444.941</ele>
        <time>2020-03-04T09:13:28Z</time>
      </trkpt>
      <trkpt lat="44.47356" lon="6.76982">
        <ele>1440.683</ele>
        <time>2020-03-04T09:13:48Z</time>
      </trkpt>
      <trkpt lat="44.47331" lon="6.7695">
        <ele>1440.899</ele>
        <time>2020-03-04T09:14:08Z</time>
      </trkpt>
      <trkpt lat="44.47311" lon="6.76911">
        <ele>1433.958</ele>
        <time>2020-03-04T09:14:28Z</time>
      </trkpt>
      <trkpt lat="44.47248" lon="6.76855">
        <ele>1427.252</ele>
        <time>2020-03-04T09:14:48Z</time>
      </trkpt>
      <trkpt lat="44.47194" lon="6.76819">
        <ele>1424.617</ele>
        <time>2020-03-04T09:15:08Z</time>
      </trkpt>
      <trkpt lat="44.47167" lon="6.76801">
        <ele>1424.008</ele>
        <time>2020-03-04T09:15:28Z</time>
      </trkpt>
      <trkpt lat="44.47171" lon="6.7679">
        <ele>1418.679</ele>
        <time>2020-03-04T09:15:48Z</time>
      </trkpt>
      <trkpt lat="44.47187" lon="6.76805">
        <ele>1420.012</ele>
        <time>2020-03-04T09:16:08Z</time>
      </trkpt>
      <trkpt lat="44.4722" lon="6.76815">
        <ele>1413.259</ele>
        <time>2020-03-04T09:16:28Z</time>
      </trkpt>
      <trkpt lat="44.47302" lon="6.76844">
        <ele>1406.128</ele>
        <time>2020-03-04T09:16:48Z</time>
      </trkpt>
      <trkpt lat="44.47344" lon="6.76841">
        <ele>1397.536</ele>
        <time>2020-03-04T09:17:08Z</time>
      </trkpt>
      <trkpt lat="44.47359" lon="6.76853">
        <ele>1399.727</ele>
        <time>2020-03-04T09:17:28Z</time>
      </trkpt>
      <trkpt lat="44.47371" lon="6.76872">
        <ele>1400.759</ele>
        <time>2020-03-04T09:17:48Z</time>
      </trkpt>
      <trkpt lat="44.47379" lon="6.76862">
        <ele>1395.155</ele>
        <time>2020-03-04T09:18:08Z</time>
      </trkpt>
      <trkpt lat="44.4735" lon="6.76823">
        <ele>1388.876</ele>
        <time>2020-03-04T09:18:28Z</time>
      </trkpt>
      <trkpt lat="44.47332" lon="6.76815">
        <ele>1387.09</ele>
        <time>2020-03-04T09:18:48Z</time>
      </trkpt>
      <trkpt lat="44.47281" lon="6.76798">
        <ele>1381.719</ele>
        <time>2020-03-04T09:19:08Z</time>
      </trkpt>
      <trkpt lat="44.4723" lon="6.7676">
        <ele>1378.508</ele>
        <time>2020-03-04T09:19:28Z</time>
      </trkpt>
      <trkpt lat="44.47204" lon="6.76715">
        <ele>1375.041</ele>
        <time>2020-03-04T09:19:48Z</time>
      </trkpt>
      <trkpt lat="44.4719" lon="6.76678">
        <ele>1365.884</ele>
        <time>2020-03-04T09:20:08Z</time>
      </trkpt>
      <trkpt lat="44.47092" lon="6.76625">
        <ele>1359.451</ele>
        <time>2020-03-04T09:20:28Z</time>
      </trkpt>
      <trkpt lat="44.47069" lon="6.76573">
        <ele>1356.79</ele>
        <time>2020-03-04T09:20:48Z</time>
      </trkpt>
      <trkpt lat="44.47047" lon="6.7651">
        <ele>1348.688</ele>
        <time>2020-03-04T09:21:08Z</time>
      </trkpt>
      <trkpt lat="44.47024" lon="6.76475">
        <ele>1343.439</ele>
        <time>2020-03-04T09:21:28Z</time>
      </trkpt>
      <trkpt lat="44.46911" lon="6.76378">
        <ele>1329.271</ele>
        <time>2020-03-04T09:21:48Z</time>
      </trkpt>
      <trkpt lat="44.46872" lon="6.76338">
        <ele>1325.857</ele>
        <time>2020-03-04T09:22:08Z</time>
      </trkpt>
      <trkpt lat="44.46839" lon="6.76288">
        <ele>1316.144</ele>
        <time>2020-03-04T09:22:28Z</time>
      </trkpt>
      <trkpt lat="44.46786" lon="6.76265">
        <ele>1315.405</ele>
        <time>2020-03-04T09:22:48Z</time>
      </trkpt>
      <trkpt lat="44.46712" lon="6.76174">
        <ele>1304.915</ele>
        <time>2020-03-04T09:23:08Z</time>
      </trkpt>
      <trkpt lat="44.46701" lon="6.76145">
        <ele>1303.408</ele>
        <time>2020-03-04T09:23:28Z</time>
      </trkpt>
      <trkpt lat="44.46702" lon="6.76104">
        <ele>1298.318</ele>
        <time>2020-03-04T09:23:48Z</time>
      </trkpt>
      <trkpt lat="44.46646" lon="6.75998">
        <ele>1296.381</ele>
        <time>2020-03-04T09:24:08Z</time>
      </trkpt>
      <trkpt lat="44.46499" lon="6.7571">
        <ele>1291.428</ele>
        <time>2020-03-04T09:24:28Z</time>
      </trkpt>
      <trkpt lat="44.46493" lon="6.75644">
        <ele>1288.247</ele>
        <time>2020-03-04T09:24:48Z</time>
      </trkpt>
      <trkpt lat="44.46524" lon="6.75437">
        <ele>1287.135</ele>
        <time>2020-03-04T09:25:08Z</time>
      </trkpt>
      <trkpt lat="44.46527" lon="6.75336">
        <ele>1294.466</ele>
        <time>2020-03-04T09:25:28Z</time>
      </trkpt>
      <trkpt lat="44.46498" lon="6.75261">
        <ele>1298.848</ele>
        <time>2020-03-04T09:25:48Z</time>
      </trkpt>
      <trkpt lat="44.46457" lon="6.75188">
        <ele>1302.094</ele>
        <time>2020-03-04T09:26:08Z</time>
      </trkpt>
      <trkpt lat="44.4637" lon="6.75079">
        <ele>1295.323</ele>
        <time>2020-03-04T09:26:28Z</time>
      </trkpt>
      <trkpt lat="44.46321" lon="6.75034">
        <ele>1297.083</ele>
        <time>2020-03-04T09:26:48Z</time>
      </trkpt>
      <trkpt lat="44.46252" lon="6.75009">
        <ele>1292.611</ele>
        <time>2020-03-04T09:27:08Z</time>
      </trkpt>
      <trkpt lat="44.46183" lon="6.74931">
        <ele>1290.508</ele>
        <time>2020-03-04T09:27:28Z</time>
      </trkpt>
      <trkpt lat="44.4608" lon="6.74772">
        <ele>1291.796</ele>
        <time>2020-03-04T09:27:48Z</time>
      </trkpt>
      <trkpt lat="44.46029" lon="6.7472">
        <ele>1292.789</ele>
        <time>2020-03-04T09:28:08Z</time>
      </trkpt>
      <trkpt lat="44.45974" lon="6.74685">
        <ele>1294.056</ele>
        <time>2020-03-04T09:28:28Z</time>
      </trkpt>
      <trkpt lat="44.45901" lon="6.74671">
        <ele>1292.625</ele>
        <time>2020-03-04T09:28:48Z</time>
      </trkpt>
      <trkpt lat="44.4585" lon="6.74668">
        <ele>1287.863</ele>
        <time>2020-03-04T09:29:08Z</time>
      </trkpt>
      <trkpt lat="44.45823" lon="6.7463">
        <ele>1286.514</ele>
        <time>2020-03-04T09:29:28Z</time>
      </trkpt>
      <trkpt lat="44.45802" lon="6.74526">
        <ele>1287.786</ele>
        <time>2020-03-04T09:29:48Z</time>
      </trkpt>
      <trkpt lat="44.45782" lon="6.74483">
        <ele>1287.062</ele>
        <time>2020-03-04T09:30:08Z</time>
      </trkpt>
      <trkpt lat="44.4568" lon="6.74411">
        <ele>1288.832</ele>
        <time>2020-03-04T09:30:28Z</time>
      </trkpt>
      <trkpt lat="44.45587" lon="6.74411">
        <ele>1282.992</ele>
        <time>2020-03-04T09:30:48Z</time>
      </trkpt>
      <trkpt lat="44.4552" lon="6.74373">
        <ele>1280.011</ele>
        <time>2020-03-04T09:31:08Z</time>
      </trkpt>
      <trkpt lat="44.45404" lon="6.74367">
        <ele>1275.008</ele>
        <time>2020-03-04T09:31:28Z</time>
      </trkpt>
      <trkpt lat="44.45353" lon="6.74388">
        <ele>1273.157</ele>
        <time>2020-03-04T09:31:48Z</time>
      </trkpt>
      <trkpt lat="44.45309" lon="6.74389">
        <ele>1271.52</ele>
        <time>2020-03-04T09:32:08Z</time>
      </trkpt>
      <trkpt lat="44.45259" lon="6.74318">
        <ele>1270.677</ele>
        <time>2020-03-04T09:32:28Z</time>
      </trkpt>
      <trkpt lat="44.45214" lon="6.74292">
        <ele>1271.566</ele>
        <time>2020-03-04T09:32:48Z</time>
      </trkpt>
      <trkpt lat="44.45125" lon="6.74225">
        <ele>1269.534</ele>
        <time>2020-03-04T09:33:08Z</time>
      </trkpt>
      <trkpt lat="44.44982" lon="6.7407">
        <ele>1262.255</ele>
        <time>2020-03-04T09:33:28Z</time>
      </trkpt>
      <trkpt lat="44.44796" lon="6.74024">
        <ele>1262.457</ele>
        <time>2020-03-04T09:33:48Z</time>
      </trkpt>
      <trkpt lat="44.4474" lon="6.7403">
        <ele>1262.883</ele>
        <time>2020-03-04T09:34:08Z</time>
      </trkpt>
      <trkpt lat="44.44569" lon="6.74202">
        <ele>1261.123</ele>
        <time>2020-03-04T09:34:28Z</time>
      </trkpt>
      <trkpt lat="44.44454" lon="6.74266">
        <ele>1261.983</ele>
        <time>2020-03-04T09:34:48Z</time>
      </trkpt>
      <trkpt lat="44.44416" lon="6.74266">
        <ele>1262.211</ele>
        <time>2020-03-04T09:35:08Z</time>
      </trkpt>
      <trkpt lat="44.44319" lon="6.74221">
        <ele>1259.708</ele>
        <time>2020-03-04T09:35:28Z</time>
      </trkpt>
      <trkpt lat="44.44158" lon="6.74196">
        <ele>1254.846</ele>
        <time>2020-03-04T09:35:48Z</time>
      </trkpt>
      <trkpt lat="44.44059" lon="6.74282">
        <ele>1256.259</ele>
        <time>2020-03-04T09:36:08Z</time>
      </trkpt>
      <trkpt lat="44.43993" lon="6.74276">
        <ele>1256.346</ele>
        <time>2020-03-04T09:36:28Z</time>
      </trkpt>
      <trkpt lat="44.43932" lon="6.74364">
        <ele>1253.425</ele>
        <time>2020-03-04T09:36:48Z</time>
      </trkpt>
      <trkpt lat="44.43875" lon="6.74405">
        <ele>1251.943</ele>
        <time>2020-03-04T09:37:08Z</time>
      </trkpt>
      <trkpt lat="44.43816" lon="6.74389">
        <ele>1250.974</ele>
        <time>2020-03-04T09:37:28Z</time>
      </trkpt>
      <trkpt lat="44.43754" lon="6.74417">
        <ele>1250.746</ele>
        <time>2020-03-04T09:37:48Z</time>
      </trkpt>
      <trkpt lat="44.43616" lon="6.74366">
        <ele>1247.812</ele>
        <time>2020-03-04T09:38:08Z</time>
      </trkpt>
      <trkpt lat="44.43569" lon="6.74413">
        <ele>1244.098</ele>
        <time>2020-03-04T09:38:28Z</time>
      </trkpt>
      <trkpt lat="44.43484" lon="6.74407">
        <ele>1250.315</ele>
        <time>2020-03-04T09:38:48Z</time>
      </trkpt>
      <trkpt lat="44.43431" lon="6.74379">
        <ele>1247.926</ele>
        <time>2020-03-04T09:39:08Z</time>
      </trkpt>
      <trkpt lat="44.43385" lon="6.74215">
        <ele>1240.008</ele>
        <time>2020-03-04T09:39:28Z</time>
      </trkpt>
      <trkpt lat="44.43372" lon="6.74216">
        <ele>1240.073</ele>
        <time>2020-03-04T09:39:48Z</time>
      </trkpt>
      <trkpt lat="44.43362" lon="6.74259">
        <ele>1240.086</ele>
        <time>2020-03-04T09:40:08Z</time>
      </trkpt>
      <trkpt lat="44.43334" lon="6.74299">
        <ele>1240.053</ele>
        <time>2020-03-04T09:40:28Z</time>
      </trkpt>
      <trkpt lat="44.43317" lon="6.74301">
        <ele>1240.272</ele>
        <time>2020-03-04T09:40:48Z</time>
      </trkpt>
      <trkpt lat="44.433" lon="6.74299">
        <ele>1242.69</ele>
        <time>2020-03-04T09:41:08Z</time>
      </trkpt>
      <trkpt lat="44.43293" lon="6.7429">
        <ele>1245.851</ele>
        <time>2020-03-04T09:41:28Z</time>
      </trkpt>
      <trkpt lat="44.43299" lon="6.7421">
        <ele>1248.283</ele>
        <time>2020-03-04T09:41:48Z</time>
      </trkpt>
      <trkpt lat="44.43277" lon="6.74162">
        <ele>1254.399</ele>
        <time>2020-03-04T09:42:08Z</time>
      </trkpt>
      <trkpt lat="44.43262" lon="6.74161">
        <ele>1252.773</ele>
        <time>2020-03-04T09:42:28Z</time>
      </trkpt>
      <trkpt lat="44.43256" lon="6.74169">
        <ele>1253.185</ele>
        <time>2020-03-04T09:42:48Z</time>
      </trkpt>
      <trkpt lat="44.43254" lon="6.74188">
        <ele>1256.613</ele>
        <time>2020-03-04T09:43:08Z</time>
      </trkpt>
      <trkpt lat="44.43231" lon="6.74209">
        <ele>1256.508</ele>
        <time>2020-03-04T09:43:28Z</time>
      </trkpt>
      <trkpt lat="44.43227" lon="6.74233">
        <ele>1260.721</ele>
        <time>2020-03-04T09:43:48Z</time>
      </trkpt>
      <trkpt lat="44.4321" lon="6.74239">
        <ele>1264.984</ele>
        <time>2020-03-04T09:44:08Z</time>
      </trkpt>
      <trkpt lat="44.43166" lon="6.7422">
        <ele>1269.791</ele>
        <time>2020-03-04T09:44:28Z</time>
      </trkpt>
      <trkpt lat="44.43171" lon="6.74233">
        <ele>1273.08</ele>
        <time>2020-03-04T09:44:48Z</time>
      </trkpt>
      <trkpt lat="44.43187" lon="6.74242">
        <ele>1271.748</ele>
        <time>2020-03-04T09:45:08Z</time>
      </trkpt>
      <trkpt lat="44.43197" lon="6.74261">
        <ele>1273.559</ele>
        <time>2020-03-04T09:45:28Z</time>
      </trkpt>
      <trkpt lat="44.43204" lon="6.74292">
        <ele>1277.091</ele>
        <time>2020-03-04T09:45:48Z</time>
      </trkpt>
      <trkpt lat="44.43203" lon="6.74317">
        <ele>1281.157</ele>
        <time>2020-03-04T09:46:08Z</time>
      </trkpt>
      <trkpt lat="44.43197" lon="6.74317">
        <ele>1283.659</ele>
        <time>2020-03-04T09:46:28Z</time>
      </trkpt>
      <trkpt lat="44.43188" lon="6.74295">
        <ele>1283.803</ele>
        <time>2020-03-04T09:46:48Z</time>
      </trkpt>
      <trkpt lat="44.43177" lon="6.74281">
        <ele>1285.523</ele>
        <time>2020-03-04T09:47:08Z</time>
      </trkpt>
      <trkpt lat="44.4316" lon="6.74269">
        <ele>1288.408</ele>
        <time>2020-03-04T09:47:28Z</time>
      </trkpt>
      <trkpt lat="44.43139" lon="6.74262">
        <ele>1292.149</ele>
        <time>2020-03-04T09:47:48Z</time>
      </trkpt>
      <trkpt lat="44.43115" lon="6.74261">
        <ele>1300.222</ele>
        <time>2020-03-04T09:48:08Z</time>
      </trkpt>
      <trkpt lat="44.431" lon="6.74234">
        <ele>1299.449</ele>
        <time>2020-03-04T09:48:28Z</time>
      </trkpt>
      <trkpt lat="44.43081" lon="6.74189">
        <ele>1302.688</ele>
        <time>2020-03-04T09:48:48Z</time>
      </trkpt>
      <trkpt lat="44.43061" lon="6.74164">
        <ele>1309.946</ele>
        <time>2020-03-04T09:49:08Z</time>
      </trkpt>
      <trkpt lat="44.43046" lon="6.74145">
        <ele>1313.517</ele>
        <time>2020-03-04T09:49:28Z</time>
      </trkpt>
      <trkpt lat="44.43023" lon="6.74112">
        <ele>1317.179</ele>
        <time>2020-03-04T09:49:48Z</time>
      </trkpt>
      <trkpt lat="44.42977" lon="6.74076">
        <ele>1325.945</ele>
        <time>2020-03-04T09:50:08Z</time>
      </trkpt>
      <trkpt lat="44.42959" lon="6.7405">
        <ele>1326.931</ele>
        <time>2020-03-04T09:50:28Z</time>
      </trkpt>
      <trkpt lat="44.42941" lon="6.74006">
        <ele>1325.261</ele>
        <time>2020-03-04T09:50:48Z</time>
      </trkpt>
      <trkpt lat="44.42918" lon="6.73998">
        <ele>1332.007</ele>
        <time>2020-03-04T09:51:08Z</time>
      </trkpt>
      <trkpt lat="44.42881" lon="6.74017">
        <ele>1342.608</ele>
        <time>2020-03-04T09:51:28Z</time>
      </trkpt>
      <trkpt lat="44.42854" lon="6.74024">
        <ele>1347.697</ele>
        <time>2020-03-04T09:51:48Z</time>
      </trkpt>
      <trkpt lat="44.42861" lon="6.7406">
        <ele>1351.12</ele>
        <time>2020-03-04T09:52:08Z</time>
      </trkpt>
      <trkpt lat="44.42869" lon="6.74078">
        <ele>1353.397</ele>
        <time>2020-03-04T09:52:28Z</time>
      </trkpt>
      <trkpt lat="44.42882" lon="6.7409">
        <ele>1353.336</ele>
        <time>2020-03-04T09:52:48Z</time>
      </trkpt>
      <trkpt lat="44.42891" lon="6.74113">
        <ele>1355.914</ele>
        <time>2020-03-04T09:53:08Z</time>
      </trkpt>
      <trkpt lat="44.429" lon="6.74123">
        <ele>1356.355</ele>
        <time>2020-03-04T09:53:28Z</time>
      </trkpt>
      <trkpt lat="44.42891" lon="6.74129">
        <ele>1358.957</ele>
        <time>2020-03-04T09:53:48Z</time>
      </trkpt>
      <trkpt lat="44.42877" lon="6.74123">
        <ele>1360.573</ele>
        <time>2020-03-04T09:54:08Z</time>
      </trkpt>
      <trkpt lat="44.42826" lon="6.74129">
        <ele>1369.765</ele>
        <time>2020-03-04T09:54:28Z</time>
      </trkpt>
      <trkpt lat="44.4281" lon="6.74129">
        <ele>1372.868</ele>
        <time>2020-03-04T09:54:48Z</time>
      </trkpt>
      <trkpt lat="44.42785" lon="6.74116">
        <ele>1374.414</ele>
        <time>2020-03-04T09:55:08Z</time>
      </trkpt>
      <trkpt lat="44.42759" lon="6.74097">
        <ele>1378.808</ele>
        <time>2020-03-04T09:55:28Z</time>
      </trkpt>
      <trkpt lat="44.42725" lon="6.74069">
        <ele>1383.82</ele>
        <time>2020-03-04T09:55:48Z</time>
      </trkpt>
      <trkpt lat="44.42711" lon="6.74067">
        <ele>1386.513</ele>
        <time>2020-03-04T09:56:08Z</time>
      </trkpt>
      <trkpt lat="44.427" lon="6.74076">
        <ele>1390.17</ele>
        <time>2020-03-04T09:56:28Z</time>
      </trkpt>
      <trkpt lat="44.42693" lon="6.74089">
        <ele>1392.789</ele>
        <time>2020-03-04T09:56:48Z</time>
      </trkpt>
      <trkpt lat="44.42696" lon="6.74114">
        <ele>1394.957</ele>
        <time>2020-03-04T09:57:08Z</time>
      </trkpt>
      <trkpt lat="44.42715" lon="6.74151">
        <ele>1394.038</ele>
        <time>2020-03-04T09:57:28Z</time>
      </trkpt>
      <trkpt lat="44.42726" lon="6.7418">
        <ele>1397.16</ele>
        <time>2020-03-04T09:57:48Z</time>
      </trkpt>
      <trkpt lat="44.42756" lon="6.74209">
        <ele>1398.386</ele>
        <time>2020-03-04T09:58:08Z</time>
      </trkpt>
      <trkpt lat="44.42755" lon="6.74242">
        <ele>1406.918</ele>
        <time>2020-03-04T09:58:28Z</time>
      </trkpt>
      <trkpt lat="44.42761" lon="6.74262">
        <ele>1410.198</ele>
        <time>2020-03-04T09:58:48Z</time>
      </trkpt>
      <trkpt lat="44.4278" lon="6.7428">
        <ele>1410.017</ele>
        <time>2020-03-04T09:59:08Z</time>
      </trkpt>
      <trkpt lat="44.42781" lon="6.74316">
        <ele>1417.708</ele>
        <time>2020-03-04T09:59:28Z</time>
      </trkpt>
      <trkpt lat="44.42785" lon="6.74337">
        <ele>1419.215</ele>
        <time>2020-03-04T09:59:48Z</time>
      </trkpt>
      <trkpt lat="44.42789" lon="6.74371">
        <ele>1424.818</ele>
        <time>2020-03-04T10:00:08Z</time>
      </trkpt>
      <trkpt lat="44.42808" lon="6.74402">
        <ele>1423.045</ele>
        <time>2020-03-04T10:00:28Z</time>
      </trkpt>
      <trkpt lat="44.42804" lon="6.74421">
        <ele>1427.864</ele>
        <time>2020-03-04T10:00:48Z</time>
      </trkpt>
      <trkpt lat="44.42792" lon="6.74446">
        <ele>1433.132</ele>
        <time>2020-03-04T10:01:08Z</time>
      </trkpt>
      <trkpt lat="44.42794" lon="6.74482">
        <ele>1434.073</ele>
        <time>2020-03-04T10:01:28Z</time>
      </trkpt>
      <trkpt lat="44.42804" lon="6.74509">
        <ele>1436.345</ele>
        <time>2020-03-04T10:01:48Z</time>
      </trkpt>
      <trkpt lat="44.42797" lon="6.74517">
        <ele>1439.181</ele>
        <time>2020-03-04T10:02:08Z</time>
      </trkpt>
      <trkpt lat="44.42768" lon="6.74496">
        <ele>1442.312</ele>
        <time>2020-03-04T10:02:28Z</time>
      </trkpt>
      <trkpt lat="44.42755" lon="6.74469">
        <ele>1445.132</ele>
        <time>2020-03-04T10:02:48Z</time>
      </trkpt>
      <trkpt lat="44.42726" lon="6.74429">
        <ele>1453.305</ele>
        <time>2020-03-04T10:03:08Z</time>
      </trkpt>
      <trkpt lat="44.42729" lon="6.74406">
        <ele>1452.208</ele>
        <time>2020-03-04T10:03:28Z</time>
      </trkpt>
      <trkpt lat="44.42725" lon="6.74396">
        <ele>1451.615</ele>
        <time>2020-03-04T10:03:48Z</time>
      </trkpt>
      <trkpt lat="44.42704" lon="6.74394">
        <ele>1455.568</ele>
        <time>2020-03-04T10:04:08Z</time>
      </trkpt>
      <trkpt lat="44.42684" lon="6.744">
        <ele>1459.845</ele>
        <time>2020-03-04T10:04:28Z</time>
      </trkpt>
      <trkpt lat="44.42646" lon="6.74395">
        <ele>1466.274</ele>
        <time>2020-03-04T10:04:48Z</time>
      </trkpt>
      <trkpt lat="44.4261" lon="6.74411">
        <ele>1471.452</ele>
        <time>2020-03-04T10:05:08Z</time>
      </trkpt>
      <trkpt lat="44.42575" lon="6.7444">
        <ele>1479.383</ele>
        <time>2020-03-04T10:05:28Z</time>
      </trkpt>
      <trkpt lat="44.42571" lon="6.74461">
        <ele>1483.135</ele>
        <time>2020-03-04T10:05:48Z</time>
      </trkpt>
      <trkpt lat="44.42574" lon="6.7449">
        <ele>1486.571</ele>
        <time>2020-03-04T10:06:08Z</time>
      </trkpt>
      <trkpt lat="44.42581" lon="6.74542">
        <ele>1491.569</ele>
        <time>2020-03-04T10:06:28Z</time>
      </trkpt>
      <trkpt lat="44.4258" lon="6.74563">
        <ele>1496.604</ele>
        <time>2020-03-04T10:06:48Z</time>
      </trkpt>
      <trkpt lat="44.42556" lon="6.74569">
        <ele>1500.724</ele>
        <time>2020-03-04T10:07:08Z</time>
      </trkpt>
      <trkpt lat="44.42498" lon="6.74565">
        <ele>1512.608</ele>
        <time>2020-03-04T10:07:28Z</time>
      </trkpt>
      <trkpt lat="44.42488" lon="6.7457">
        <ele>1511.99</ele>
        <time>2020-03-04T10:07:48Z</time>
      </trkpt>
      <trkpt lat="44.42517" lon="6.74586">
        <ele>1517.993</ele>
        <time>2020-03-04T10:08:08Z</time>
      </trkpt>
      <trkpt lat="44.42549" lon="6.746">
        <ele>1518.37</ele>
        <time>2020-03-04T10:08:28Z</time>
      </trkpt>
      <trkpt lat="44.42586" lon="6.7461">
        <ele>1518.519</ele>
        <time>2020-03-04T10:08:48Z</time>
      </trkpt>
      <trkpt lat="44.42624" lon="6.74637">
        <ele>1528.437</ele>
        <time>2020-03-04T10:09:08Z</time>
      </trkpt>
      <trkpt lat="44.4266" lon="6.74667">
        <ele>1535.858</ele>
        <time>2020-03-04T10:09:28Z</time>
      </trkpt>
      <trkpt lat="44.42678" lon="6.74672">
        <ele>1534.23</ele>
        <time>2020-03-04T10:09:48Z</time>
      </trkpt>
      <trkpt lat="44.42724" lon="6.74738">
        <ele>1543.436</ele>
        <time>2020-03-04T10:10:08Z</time>
      </trkpt>
      <trkpt lat="44.42734" lon="6.74779">
        <ele>1549.199</ele>
        <time>2020-03-04T10:10:28Z</time>
      </trkpt>
      <trkpt lat="44.42739" lon="6.7482">
        <ele>1554.407</ele>
        <time>2020-03-04T10:10:48Z</time>
      </trkpt>
      <trkpt lat="44.42757" lon="6.74847">
        <ele>1557.627</ele>
        <time>2020-03-04T10:11:08Z</time>
      </trkpt>
      <trkpt lat="44.42777" lon="6.74867">
        <ele>1563.308</ele>
        <time>2020-03-04T10:11:28Z</time>
      </trkpt>
      <trkpt lat="44.4281" lon="6.74885">
        <ele>1566.023</ele>
        <time>2020-03-04T10:11:48Z</time>
      </trkpt>
      <trkpt lat="44.42841" lon="6.74901">
        <ele>1571.216</ele>
        <time>2020-03-04T10:12:08Z</time>
      </trkpt>
      <trkpt lat="44.42838" lon="6.74909">
        <ele>1574.773</ele>
        <time>2020-03-04T10:12:28Z</time>
      </trkpt>
      <trkpt lat="44.42819" lon="6.74906">
        <ele>1574.382</ele>
        <time>2020-03-04T10:12:48Z</time>
      </trkpt>
      <trkpt lat="44.4279" lon="6.74918">
        <ele>1581.71</ele>
        <time>2020-03-04T10:13:08Z</time>
      </trkpt>
      <trkpt lat="44.42763" lon="6.74916">
        <ele>1582.931</ele>
        <time>2020-03-04T10:13:28Z</time>
      </trkpt>
      <trkpt lat="44.42733" lon="6.74928">
        <ele>1589.413</ele>
        <time>2020-03-04T10:13:48Z</time>
      </trkpt>
      <trkpt lat="44.427" lon="6.74928">
        <ele>1592.689</ele>
        <time>2020-03-04T10:14:08Z</time>
      </trkpt>
      <trkpt lat="44.42669" lon="6.74907">
        <ele>1594.593</ele>
        <time>2020-03-04T10:14:28Z</time>
      </trkpt>
      <trkpt lat="44.42648" lon="6.74885">
        <ele>1596.265</ele>
        <time>2020-03-04T10:14:48Z</time>
      </trkpt>
      <trkpt lat="44.42632" lon="6.74875">
        <ele>1600.321</ele>
        <time>2020-03-04T10:15:08Z</time>
      </trkpt>
      <trkpt lat="44.42605" lon="6.7487">
        <ele>1610.108</ele>
        <time>2020-03-04T10:15:28Z</time>
      </trkpt>
      <trkpt lat="44.42588" lon="6.74813">
        <ele>1611.743</ele>
        <time>2020-03-04T10:15:48Z</time>
      </trkpt>
      <trkpt lat="44.42577" lon="6.74807">
        <ele>1615.286</ele>
        <time>2020-03-04T10:16:08Z</time>
      </trkpt>
      <trkpt lat="44.42551" lon="6.74815">
        <ele>1624.973</ele>
        <time>2020-03-04T10:16:28Z</time>
      </trkpt>
      <trkpt lat="44.42524" lon="6.748">
        <ele>1625.192</ele>
        <time>2020-03-04T10:16:48Z</time>
      </trkpt>
      <trkpt lat="44.4252" lon="6.74811">
        <ele>1629.96</ele>
        <time>2020-03-04T10:17:08Z</time>
      </trkpt>
      <trkpt lat="44.42534" lon="6.74831">
        <ele>1632.081</ele>
        <time>2020-03-04T10:17:28Z</time>
      </trkpt>
      <trkpt lat="44.42547" lon="6.74852">
        <ele>1631.783</ele>
        <time>2020-03-04T10:17:48Z</time>
      </trkpt>
      <trkpt lat="44.42534" lon="6.74879">
        <ele>1637.929</ele>
        <time>2020-03-04T10:18:08Z</time>
      </trkpt>
      <trkpt lat="44.42526" lon="6.74896">
        <ele>1642.098</ele>
        <time>2020-03-04T10:18:28Z</time>
      </trkpt>
      <trkpt lat="44.42536" lon="6.74923">
        <ele>1641.015</ele>
        <time>2020-03-04T10:18:48Z</time>
      </trkpt>
      <trkpt lat="44.42538" lon="6.74961">
        <ele>1645.126</ele>
        <time>2020-03-04T10:19:08Z</time>
      </trkpt>
      <trkpt lat="44.42544" lon="6.74992">
        <ele>1649.208</ele>
        <time>2020-03-04T10:19:28Z</time>
      </trkpt>
      <trkpt lat="44.42556" lon="6.75006">
        <ele>1648.583</ele>
        <time>2020-03-04T10:19:48Z</time>
      </trkpt>
      <trkpt lat="44.42581" lon="6.75061">
        <ele>1658.756</ele>
        <time>2020-03-04T10:20:08Z</time>
      </trkpt>
      <trkpt lat="44.42611" lon="6.7509">
        <ele>1663.763</ele>
        <time>2020-03-04T10:20:28Z</time>
      </trkpt>
      <trkpt lat="44.42642" lon="6.75102">
        <ele>1664.162</ele>
        <time>2020-03-04T10:20:48Z</time>
      </trkpt>
      <trkpt lat="44.42669" lon="6.75112">
        <ele>1667.39</ele>
        <time>2020-03-04T10:21:08Z</time>
      </trkpt>
      <trkpt lat="44.42684" lon="6.75126">
        <ele>1674.861</ele>
        <time>2020-03-04T10:21:28Z</time>
      </trkpt>
      <trkpt lat="44.42637" lon="6.75137">
        <ele>1681.373</ele>
        <time>2020-03-04T10:21:48Z</time>
      </trkpt>
      <trkpt lat="44.42618" lon="6.75132">
        <ele>1681.389</ele>
        <time>2020-03-04T10:22:08Z</time>
      </trkpt>
      <trkpt lat="44.42588" lon="6.7513">
        <ele>1687.963</ele>
        <time>2020-03-04T10:22:28Z</time>
      </trkpt>
      <trkpt lat="44.42561" lon="6.75122">
        <ele>1692.944</ele>
        <time>2020-03-04T10:22:48Z</time>
      </trkpt>
      <trkpt lat="44.42541" lon="6.75108">
        <ele>1693.018</ele>
        <time>2020-03-04T10:23:08Z</time>
      </trkpt>
      <trkpt lat="44.4254" lon="6.75121">
        <ele>1698.708</ele>
        <time>2020-03-04T10:23:28Z</time>
      </trkpt>
      <trkpt lat="44.42574" lon="6.75158">
        <ele>1703.73</ele>
        <time>2020-03-04T10:23:48Z</time>
      </trkpt>
      <trkpt lat="44.42598" lon="6.75179">
        <ele>1706.163</ele>
        <time>2020-03-04T10:24:08Z</time>
      </trkpt>
      <trkpt lat="44.42608" lon="6.75193">
        <ele>1710.64</ele>
        <time>2020-03-04T10:24:28Z</time>
      </trkpt>
      <trkpt lat="44.42634" lon="6.7521">
        <ele>1713.049</ele>
        <time>2020-03-04T10:24:48Z</time>
      </trkpt>
      <trkpt lat="44.42628" lon="6.75218">
        <ele>1716.337</ele>
        <time>2020-03-04T10:25:08Z</time>
      </trkpt>
      <trkpt lat="44.42587" lon="6.75213">
        <ele>1721.898</ele>
        <time>2020-03-04T10:25:28Z</time>
      </trkpt>
      <trkpt lat="44.42542" lon="6.75197">
        <ele>1729.66</ele>
        <time>2020-03-04T10:25:48Z</time>
      </trkpt>
      <trkpt lat="44.42527" lon="6.75185">
        <ele>1731.596</ele>
        <time>2020-03-04T10:26:08Z</time>
      </trkpt>
      <trkpt lat="44.42506" lon="6.7516">
        <ele>1729.742</ele>
        <time>2020-03-04T10:26:28Z</time>
      </trkpt>
      <trkpt lat="44.42503" lon="6.75164">
        <ele>1732.922</ele>
        <time>2020-03-04T10:26:48Z</time>
      </trkpt>
      <trkpt lat="44.42511" lon="6.75192">
        <ele>1738.114</ele>
        <time>2020-03-04T10:27:08Z</time>
      </trkpt>
      <trkpt lat="44.42522" lon="6.75228">
        <ele>1743.408</ele>
        <time>2020-03-04T10:27:28Z</time>
      </trkpt>
      <trkpt lat="44.42554" lon="6.75252">
        <ele>1742.368</ele>
        <time>2020-03-04T10:27:48Z</time>
      </trkpt>
      <trkpt lat="44.42575" lon="6.75282">
        <ele>1749.761</ele>
        <time>2020-03-04T10:28:08Z</time>
      </trkpt>
      <trkpt lat="44.42595" lon="6.75308">
        <ele>1757.018</ele>
        <time>2020-03-04T10:28:28Z</time>
      </trkpt>
      <trkpt lat="44.42608" lon="6.75317">
        <ele>1760.397</ele>
        <time>2020-03-04T10:28:48Z</time>
      </trkpt>
      <trkpt lat="44.42662" lon="6.75316">
        <ele>1768.885</ele>
        <time>2020-03-04T10:29:08Z</time>
      </trkpt>
      <trkpt lat="44.42664" lon="6.75329">
        <ele>1778.166</ele>
        <time>2020-03-04T10:29:28Z</time>
      </trkpt>
      <trkpt lat="44.42618" lon="6.75344">
        <ele>1777.628</ele>
        <time>2020-03-04T10:29:48Z</time>
      </trkpt>
      <trkpt lat="44.42587" lon="6.75356">
        <ele>1782.424</ele>
        <time>2020-03-04T10:30:08Z</time>
      </trkpt>
      <trkpt lat="44.42551" lon="6.75357">
        <ele>1787.162</ele>
        <time>2020-03-04T10:30:28Z</time>
      </trkpt>
      <trkpt lat="44.42529" lon="6.75346">
        <ele>1789.683</ele>
        <time>2020-03-04T10:30:48Z</time>
      </trkpt>
      <trkpt lat="44.42493" lon="6.75322">
        <ele>1796.011</ele>
        <time>2020-03-04T10:31:08Z</time>
      </trkpt>
      <trkpt lat="44.42467" lon="6.753">
        <ele>1798.608</ele>
        <time>2020-03-04T10:31:28Z</time>
      </trkpt>
      <trkpt lat="44.4245" lon="6.75283">
        <ele>1797.08</ele>
        <time>2020-03-04T10:31:48Z</time>
      </trkpt>
      <trkpt lat="44.42444" lon="6.75291">
        <ele>1802.273</ele>
        <time>2020-03-04T10:32:08Z</time>
      </trkpt>
      <trkpt lat="44.42451" lon="6.75311">
        <ele>1807.44</ele>
        <time>2020-03-04T10:32:28Z</time>
      </trkpt>
      <trkpt lat="44.42468" lon="6.75334">
        <ele>1807.919</ele>
        <time>2020-03-04T10:32:48Z</time>
      </trkpt>
      <trkpt lat="44.42488" lon="6.75378">
        <ele>1815.787</ele>
        <time>2020-03-04T10:33:08Z</time>
      </trkpt>
      <trkpt lat="44.42508" lon="6.75426">
        <ele>1822.928</ele>
        <time>2020-03-04T10:33:28Z</time>
      </trkpt>
      <trkpt lat="44.42529" lon="6.75447">
        <ele>1828.08</ele>
        <time>2020-03-04T10:33:48Z</time>
      </trkpt>
      <trkpt lat="44.42549" lon="6.75452">
        <ele>1832.456</ele>
        <time>2020-03-04T10:34:08Z</time>
      </trkpt>
      <trkpt lat="44.42572" lon="6.75455">
        <ele>1837.722</ele>
        <time>2020-03-04T10:34:28Z</time>
      </trkpt>
      <trkpt lat="44.42572" lon="6.75463">
        <ele>1841.062</ele>
        <time>2020-03-04T10:34:48Z</time>
      </trkpt>
      <trkpt lat="44.42535" lon="6.75476">
        <ele>1839.608</ele>
        <time>2020-03-04T10:35:08Z</time>
      </trkpt>
      <trkpt lat="44.42511" lon="6.75497">
        <ele>1840.608</ele>
        <time>2020-03-04T10:35:28Z</time>
      </trkpt>
      <trkpt lat="44.42492" lon="6.75519">
        <ele>1839.046</ele>
        <time>2020-03-04T10:35:48Z</time>
      </trkpt>
      <trkpt lat="44.4249" lon="6.7555">
        <ele>1841.449</ele>
        <time>2020-03-04T10:36:08Z</time>
      </trkpt>
      <trkpt lat="44.42495" lon="6.75594">
        <ele>1849.066</ele>
        <time>2020-03-04T10:36:28Z</time>
      </trkpt>
      <trkpt lat="44.42487" lon="6.75652">
        <ele>1854.285</ele>
        <time>2020-03-04T10:36:48Z</time>
      </trkpt>
      <trkpt lat="44.42476" lon="6.75692">
        <ele>1856.023</ele>
        <time>2020-03-04T10:37:08Z</time>
      </trkpt>
      <trkpt lat="44.42449" lon="6.75765">
        <ele>1857.364</ele>
        <time>2020-03-04T10:37:28Z</time>
      </trkpt>
      <trkpt lat="44.42433" lon="6.75804">
        <ele>1857.486</ele>
        <time>2020-03-04T10:37:48Z</time>
      </trkpt>
      <trkpt lat="44.42414" lon="6.75831">
        <ele>1860.362</ele>
        <time>2020-03-04T10:38:08Z</time>
      </trkpt>
      <trkpt lat="44.42422" lon="6.75846">
        <ele>1865.097</ele>
        <time>2020-03-04T10:38:28Z</time>
      </trkpt>
      <trkpt lat="44.42421" lon="6.75849">
        <ele>1865.323</ele>
        <time>2020-03-04T10:38:48Z</time>
      </trkpt>
      <trkpt lat="44.4241" lon="6.75829">
        <ele>1859.925</ele>
        <time>2020-03-04T10:39:08Z</time>
      </trkpt>
      <trkpt lat="44.42433" lon="6.75799">
        <ele>1856.408</ele>
        <time>2020-03-04T10:39:28Z</time>
      </trkpt>
      <trkpt lat="44.42476" lon="6.75684">
        <ele>1854.423</ele>
        <time>2020-03-04T10:39:48Z</time>
      </trkpt>
      <trkpt lat="44.42486" lon="6.7565">
        <ele>1853.046</ele>
        <time>2020-03-04T10:40:08Z</time>
      </trkpt>
      <trkpt lat="44.42492" lon="6.75594">
        <ele>1847.793</ele>
        <time>2020-03-04T10:40:28Z</time>
      </trkpt>
      <trkpt lat="44.42487" lon="6.75549">
        <ele>1840.112</ele>
        <time>2020-03-04T10:40:48Z</time>
      </trkpt>
      <trkpt lat="44.4249" lon="6.75516">
        <ele>1838.22</ele>
        <time>2020-03-04T10:41:08Z</time>
      </trkpt>
      <trkpt lat="44.42532" lon="6.75474">
        <ele>1838.571</ele>
        <time>2020-03-04T10:41:28Z</time>
      </trkpt>
      <trkpt lat="44.42569" lon="6.7546">
        <ele>1839.183</ele>
        <time>2020-03-04T10:41:48Z</time>
      </trkpt>
      <trkpt lat="44.42529" lon="6.75451">
        <ele>1829.319</ele>
        <time>2020-03-04T10:42:08Z</time>
      </trkpt>
      <trkpt lat="44.42506" lon="6.75428">
        <ele>1823.663</ele>
        <time>2020-03-04T10:42:28Z</time>
      </trkpt>
      <trkpt lat="44.42466" lon="6.7534">
        <ele>1810.744</ele>
        <time>2020-03-04T10:42:48Z</time>
      </trkpt>
      <trkpt lat="44.42448" lon="6.75312">
        <ele>1808.818</ele>
        <time>2020-03-04T10:43:08Z</time>
      </trkpt>
      <trkpt lat="44.42441" lon="6.7529">
        <ele>1802.008</ele>
        <time>2020-03-04T10:43:28Z</time>
      </trkpt>
      <trkpt lat="44.4245" lon="6.75278">
        <ele>1795.12</ele>
        <time>2020-03-04T10:43:48Z</time>
      </trkpt>
      <trkpt lat="44.42479" lon="6.75307">
        <ele>1796.873</ele>
        <time>2020-03-04T10:44:08Z</time>
      </trkpt>
      <trkpt lat="44.42549" lon="6.75353">
        <ele>1785.96</ele>
        <time>2020-03-04T10:44:28Z</time>
      </trkpt>
      <trkpt lat="44.42588" lon="6.75354">
        <ele>1781.259</ele>
        <time>2020-03-04T10:44:48Z</time>
      </trkpt>
      <trkpt lat="44.42661" lon="6.75327">
        <ele>1775.657</ele>
        <time>2020-03-04T10:45:08Z</time>
      </trkpt>
      <trkpt lat="44.42659" lon="6.7532">
        <ele>1770.888</ele>
        <time>2020-03-04T10:45:28Z</time>
      </trkpt>
      <trkpt lat="44.42607" lon="6.75321">
        <ele>1762.43</ele>
        <time>2020-03-04T10:45:48Z</time>
      </trkpt>
      <trkpt lat="44.42554" lon="6.75255">
        <ele>1743.856</ele>
        <time>2020-03-04T10:46:08Z</time>
      </trkpt>
      <trkpt lat="44.4252" lon="6.75233">
        <ele>1745.142</ele>
        <time>2020-03-04T10:46:28Z</time>
      </trkpt>
      <trkpt lat="44.42499" lon="6.7516">
        <ele>1732.222</ele>
        <time>2020-03-04T10:46:48Z</time>
      </trkpt>
      <trkpt lat="44.42505" lon="6.75156">
        <ele>1727.914</ele>
        <time>2020-03-04T10:47:08Z</time>
      </trkpt>
      <trkpt lat="44.42529" lon="6.75183">
        <ele>1730.308</ele>
        <time>2020-03-04T10:47:28Z</time>
      </trkpt>
      <trkpt lat="44.42544" lon="6.75195">
        <ele>1728.388</ele>
        <time>2020-03-04T10:47:48Z</time>
      </trkpt>
      <trkpt lat="44.42587" lon="6.75211">
        <ele>1720.891</ele>
        <time>2020-03-04T10:48:08Z</time>
      </trkpt>
      <trkpt lat="44.42624" lon="6.75215">
        <ele>1715.628</ele>
        <time>2020-03-04T10:48:28Z</time>
      </trkpt>
      <trkpt lat="44.42629" lon="6.7521">
        <ele>1713.737</ele>
        <time>2020-03-04T10:48:48Z</time>
      </trkpt>
      <trkpt lat="44.42602" lon="6.75188">
        <ele>1709.765</ele>
        <time>2020-03-04T10:49:08Z</time>
      </trkpt>
      <trkpt lat="44.42579" lon="6.75165">
        <ele>1705.786</ele>
        <time>2020-03-04T10:49:28Z</time>
      </trkpt>
      <trkpt lat="44.42538" lon="6.75121">
        <ele>1699.588</ele>
        <time>2020-03-04T10:49:48Z</time>
      </trkpt>
      <trkpt lat="44.4254" lon="6.75107">
        <ele>1692.494</ele>
        <time>2020-03-04T10:50:08Z</time>
      </trkpt>
      <trkpt lat="44.42561" lon="6.75119">
        <ele>1691.395</ele>
        <time>2020-03-04T10:50:28Z</time>
      </trkpt>
      <trkpt lat="44.42593" lon="6.75127">
        <ele>1684.849</ele>
        <time>2020-03-04T10:50:48Z</time>
      </trkpt>
      <trkpt lat="44.42622" lon="6.7513">
        <ele>1679.623</ele>
        <time>2020-03-04T10:51:08Z</time>
      </trkpt>
      <trkpt lat="44.42636" lon="6.75135">
        <ele>1680.408</ele>
        <time>2020-03-04T10:51:28Z</time>
      </trkpt>
      <trkpt lat="44.4268" lon="6.75124">
        <ele>1673.923</ele>
        <time>2020-03-04T10:51:48Z</time>
      </trkpt>
      <trkpt lat="44.42666" lon="6.75114">
        <ele>1668.326</ele>
        <time>2020-03-04T10:52:08Z</time>
      </trkpt>
      <trkpt lat="44.42611" lon="6.75093">
        <ele>1665.463</ele>
        <time>2020-03-04T10:52:28Z</time>
      </trkpt>
      <trkpt lat="44.4258" lon="6.75065">
        <ele>1661.182</ele>
        <time>2020-03-04T10:52:48Z</time>
      </trkpt>
      <trkpt lat="44.42554" lon="6.7501">
        <ele>1650.53</ele>
        <time>2020-03-04T10:53:08Z</time>
      </trkpt>
      <trkpt lat="44.42543" lon="6.74996">
        <ele>1650.161</ele>
        <time>2020-03-04T10:53:28Z</time>
      </trkpt>
      <trkpt lat="44.42534" lon="6.7496">
        <ele>1646.343</ele>
        <time>2020-03-04T10:53:48Z</time>
      </trkpt>
      <trkpt lat="44.42534" lon="6.74927">
        <ele>1642.269</ele>
        <time>2020-03-04T10:54:08Z</time>
      </trkpt>
      <trkpt lat="44.42524" lon="6.74896">
        <ele>1642.886</ele>
        <time>2020-03-04T10:54:28Z</time>
      </trkpt>
      <trkpt lat="44.42544" lon="6.74853">
        <ele>1632.66</ele>
        <time>2020-03-04T10:54:48Z</time>
      </trkpt>
      <trkpt lat="44.42518" lon="6.74812">
        <ele>1630.926</ele>
        <time>2020-03-04T10:55:08Z</time>
      </trkpt>
      <trkpt lat="44.42525" lon="6.74798">
        <ele>1624.008</ele>
        <time>2020-03-04T10:55:28Z</time>
      </trkpt>
      <trkpt lat="44.42552" lon="6.74812">
        <ele>1624.082</ele>
        <time>2020-03-04T10:55:48Z</time>
      </trkpt>
      <trkpt lat="44.42578" lon="6.74806">
        <ele>1614.885</ele>
        <time>2020-03-04T10:56:08Z</time>
      </trkpt>
      <trkpt lat="44.42591" lon="6.74813">
        <ele>1610.492</ele>
        <time>2020-03-04T10:56:28Z</time>
      </trkpt>
      <trkpt lat="44.42607" lon="6.74868">
        <ele>1609.221</ele>
        <time>2020-03-04T10:56:48Z</time>
      </trkpt>
      <trkpt lat="44.42636" lon="6.74876">
        <ele>1598.799</ele>
        <time>2020-03-04T10:57:08Z</time>
      </trkpt>
      <trkpt lat="44.42657" lon="6.74894">
        <ele>1594.71</ele>
        <time>2020-03-04T10:57:28Z</time>
      </trkpt>
      <trkpt lat="44.42672" lon="6.74907">
        <ele>1593.322</ele>
        <time>2020-03-04T10:57:48Z</time>
      </trkpt>
      <trkpt lat="44.42702" lon="6.74925">
        <ele>1591.558</ele>
        <time>2020-03-04T10:58:08Z</time>
      </trkpt>
      <trkpt lat="44.42737" lon="6.74923">
        <ele>1587.035</ele>
        <time>2020-03-04T10:58:28Z</time>
      </trkpt>
      <trkpt lat="44.42765" lon="6.74914">
        <ele>1581.986</ele>
        <time>2020-03-04T10:58:48Z</time>
      </trkpt>
      <trkpt lat="44.42792" lon="6.74915">
        <ele>1580.314</ele>
        <time>2020-03-04T10:59:08Z</time>
      </trkpt>
      <trkpt lat="44.42818" lon="6.74904">
        <ele>1573.608</ele>
        <time>2020-03-04T10:59:28Z</time>
      </trkpt>
      <trkpt lat="44.42837" lon="6.74906">
        <ele>1573.097</ele>
        <time>2020-03-04T10:59:48Z</time>
      </trkpt>
      <trkpt lat="44.42811" lon="6.7489">
        <ele>1567.94</ele>
        <time>2020-03-04T11:00:08Z</time>
      </trkpt>
      <trkpt lat="44.42775" lon="6.74872">
        <ele>1565.097</ele>
        <time>2020-03-04T11:00:28Z</time>
      </trkpt>
      <trkpt lat="44.42737" lon="6.74825">
        <ele>1555.316</ele>
        <time>2020-03-04T11:00:48Z</time>
      </trkpt>
      <trkpt lat="44.42732" lon="6.74783">
        <ele>1550.144</ele>
        <time>2020-03-04T11:01:08Z</time>
      </trkpt>
      <trkpt lat="44.42721" lon="6.74741">
        <ele>1544.925</ele>
        <time>2020-03-04T11:01:28Z</time>
      </trkpt>
      <trkpt lat="44.42677" lon="6.74676">
        <ele>1535.967</ele>
        <time>2020-03-04T11:01:48Z</time>
      </trkpt>
      <trkpt lat="44.42659" lon="6.74674">
        <ele>1538.473</ele>
        <time>2020-03-04T11:02:08Z</time>
      </trkpt>
      <trkpt lat="44.42586" lon="6.74612">
        <ele>1519.436</ele>
        <time>2020-03-04T11:02:28Z</time>
      </trkpt>
      <trkpt lat="44.42552" lon="6.74604">
        <ele>1520.317</ele>
        <time>2020-03-04T11:02:48Z</time>
      </trkpt>
      <trkpt lat="44.42484" lon="6.74571">
        <ele>1511.718</ele>
        <time>2020-03-04T11:03:08Z</time>
      </trkpt>
      <trkpt lat="44.42497" lon="6.74561">
        <ele>1510.908</ele>
        <time>2020-03-04T11:03:28Z</time>
      </trkpt>
      <trkpt lat="44.42554" lon="6.74565">
        <ele>1500.137</ele>
        <time>2020-03-04T11:03:48Z</time>
      </trkpt>
      <trkpt lat="44.42576" lon="6.7456">
        <ele>1496.11</ele>
        <time>2020-03-04T11:04:08Z</time>
      </trkpt>
      <trkpt lat="44.42579" lon="6.7454">
        <ele>1491.487</ele>
        <time>2020-03-04T11:04:28Z</time>
      </trkpt>
      <trkpt lat="44.42571" lon="6.74466">
        <ele>1483.946</ele>
        <time>2020-03-04T11:04:48Z</time>
      </trkpt>
      <trkpt lat="44.42574" lon="6.74437">
        <ele>1478.854</ele>
        <time>2020-03-04T11:05:08Z</time>
      </trkpt>
      <trkpt lat="44.42573" lon="6.74438">
        <ele>1478.915</ele>
        <time>2020-03-04T11:05:28Z</time>
      </trkpt>
      <trkpt lat="44.4261" lon="6.74406">
        <ele>1470.577</ele>
        <time>2020-03-04T11:05:48Z</time>
      </trkpt>
      <trkpt lat="44.42647" lon="6.74389">
        <ele>1465.323</ele>
        <time>2020-03-04T11:06:08Z</time>
      </trkpt>
      <trkpt lat="44.42686" lon="6.74395">
        <ele>1458.932</ele>
        <time>2020-03-04T11:06:28Z</time>
      </trkpt>
      <trkpt lat="44.42709" lon="6.74392">
        <ele>1454.392</ele>
        <time>2020-03-04T11:06:48Z</time>
      </trkpt>
      <trkpt lat="44.42727" lon="6.74394">
        <ele>1450.811</ele>
        <time>2020-03-04T11:07:08Z</time>
      </trkpt>
      <trkpt lat="44.42731" lon="6.74406">
        <ele>1451.708</ele>
        <time>2020-03-04T11:07:28Z</time>
      </trkpt>
      <trkpt lat="44.42729" lon="6.74427">
        <ele>1452.917</ele>
        <time>2020-03-04T11:07:48Z</time>
      </trkpt>
      <trkpt lat="44.4276" lon="6.74474">
        <ele>1443.75</ele>
        <time>2020-03-04T11:08:08Z</time>
      </trkpt>
      <trkpt lat="44.4277" lon="6.74496">
        <ele>1441.597</ele>
        <time>2020-03-04T11:08:28Z</time>
      </trkpt>
      <trkpt lat="44.42797" lon="6.74513">
        <ele>1438.496</ele>
        <time>2020-03-04T11:08:48Z</time>
      </trkpt>
      <trkpt lat="44.42801" lon="6.7451">
        <ele>1437.154</ele>
        <time>2020-03-04T11:09:08Z</time>
      </trkpt>
      <trkpt lat="44.42794" lon="6.74485">
        <ele>1434.465</ele>
        <time>2020-03-04T11:09:28Z</time>
      </trkpt>
      <trkpt lat="44.4279" lon="6.74445">
        <ele>1433.657</ele>
        <time>2020-03-04T11:09:48Z</time>
      </trkpt>
      <trkpt lat="44.428" lon="6.74421">
        <ele>1429.743</ele>
        <time>2020-03-04T11:10:08Z</time>
      </trkpt>
      <trkpt lat="44.42806" lon="6.74404">
        <ele>1424.735</ele>
        <time>2020-03-04T11:10:28Z</time>
      </trkpt>
      <trkpt lat="44.42787" lon="6.74374">
        <ele>1426.486</ele>
        <time>2020-03-04T11:10:48Z</time>
      </trkpt>
      <trkpt lat="44.42782" lon="6.74337">
        <ele>1420.614</ele>
        <time>2020-03-04T11:11:08Z</time>
      </trkpt>
      <trkpt lat="44.42779" lon="6.74318">
        <ele>1418.608</ele>
        <time>2020-03-04T11:11:28Z</time>
      </trkpt>
      <trkpt lat="44.42779" lon="6.74284">
        <ele>1411.327</ele>
        <time>2020-03-04T11:11:48Z</time>
      </trkpt>
      <trkpt lat="44.42761" lon="6.74267">
        <ele>1411.51</ele>
        <time>2020-03-04T11:12:08Z</time>
      </trkpt>
      <trkpt lat="44.42754" lon="6.74242">
        <ele>1407.327</ele>
        <time>2020-03-04T11:12:28Z</time>
      </trkpt>
      <trkpt lat="44.42753" lon="6.74212">
        <ele>1400.136</ele>
        <time>2020-03-04T11:12:48Z</time>
      </trkpt>
      <trkpt lat="44.42724" lon="6.74181">
        <ele>1397.724</ele>
        <time>2020-03-04T11:13:08Z</time>
      </trkpt>
      <trkpt lat="44.42708" lon="6.74146">
        <ele>1395.175</ele>
        <time>2020-03-04T11:13:28Z</time>
      </trkpt>
      <trkpt lat="44.42693" lon="6.74114">
        <ele>1395.477</ele>
        <time>2020-03-04T11:13:48Z</time>
      </trkpt>
      <trkpt lat="44.42692" lon="6.74086">
        <ele>1392.533</ele>
        <time>2020-03-04T11:14:08Z</time>
      </trkpt>
      <trkpt lat="44.4271" lon="6.74065">
        <ele>1386.777</ele>
        <time>2020-03-04T11:14:28Z</time>
      </trkpt>
      <trkpt lat="44.42729" lon="6.74066">
        <ele>1382.561</ele>
        <time>2020-03-04T11:14:48Z</time>
      </trkpt>
      <trkpt lat="44.42806" lon="6.74126">
        <ele>1373.027</ele>
        <time>2020-03-04T11:15:08Z</time>
      </trkpt>
      <trkpt lat="44.42874" lon="6.74121">
        <ele>1360.608</ele>
        <time>2020-03-04T11:15:28Z</time>
      </trkpt>
      <trkpt lat="44.42892" lon="6.74127">
        <ele>1358.571</ele>
        <time>2020-03-04T11:15:48Z</time>
      </trkpt>
      <trkpt lat="44.42895" lon="6.74123">
        <ele>1357.134</ele>
        <time>2020-03-04T11:16:08Z</time>
      </trkpt>
      <trkpt lat="44.4289" lon="6.74117">
        <ele>1356.891</ele>
        <time>2020-03-04T11:16:28Z</time>
      </trkpt>
      <trkpt lat="44.42879" lon="6.74092">
        <ele>1354.22</ele>
        <time>2020-03-04T11:16:48Z</time>
      </trkpt>
      <trkpt lat="44.42867" lon="6.74082">
        <ele>1354.628</ele>
        <time>2020-03-04T11:17:08Z</time>
      </trkpt>
      <trkpt lat="44.4286" lon="6.74061">
        <ele>1351.539</ele>
        <time>2020-03-04T11:17:28Z</time>
      </trkpt>
      <trkpt lat="44.42853" lon="6.74024">
        <ele>1347.811</ele>
        <time>2020-03-04T11:17:48Z</time>
      </trkpt>
      <trkpt lat="44.42883" lon="6.74014">
        <ele>1342.267</ele>
        <time>2020-03-04T11:18:08Z</time>
      </trkpt>
      <trkpt lat="44.42919" lon="6.73997">
        <ele>1331.517</ele>
        <time>2020-03-04T11:18:28Z</time>
      </trkpt>
      <trkpt lat="44.42943" lon="6.74005">
        <ele>1324.387</ele>
        <time>2020-03-04T11:18:48Z</time>
      </trkpt>
      <trkpt lat="44.42959" lon="6.74048">
        <ele>1326.515</ele>
        <time>2020-03-04T11:19:08Z</time>
      </trkpt>
      <trkpt lat="44.42981" lon="6.74076">
        <ele>1324.508</ele>
        <time>2020-03-04T11:19:28Z</time>
      </trkpt>
      <trkpt lat="44.43023" lon="6.74109">
        <ele>1316.685</ele>
        <time>2020-03-04T11:19:48Z</time>
      </trkpt>
      <trkpt lat="44.43082" lon="6.7419">
        <ele>1301.838</ele>
        <time>2020-03-04T11:20:08Z</time>
      </trkpt>
      <trkpt lat="44.43116" lon="6.74258">
        <ele>1299.085</ele>
        <time>2020-03-04T11:20:28Z</time>
      </trkpt>
      <trkpt lat="44.4314" lon="6.74261">
        <ele>1291.474</ele>
        <time>2020-03-04T11:20:48Z</time>
      </trkpt>
      <trkpt lat="44.43159" lon="6.74266">
        <ele>1287.732</ele>
        <time>2020-03-04T11:21:08Z</time>
      </trkpt>
      <trkpt lat="44.43184" lon="6.74284">
        <ele>1283.493</ele>
        <time>2020-03-04T11:21:28Z</time>
      </trkpt>
      <trkpt lat="44.43198" lon="6.74315">
        <ele>1283.075</ele>
        <time>2020-03-04T11:21:48Z</time>
      </trkpt>
      <trkpt lat="44.43202" lon="6.74295">
        <ele>1278.441</ele>
        <time>2020-03-04T11:22:08Z</time>
      </trkpt>
      <trkpt lat="44.43196" lon="6.74266">
        <ele>1274.926</ele>
        <time>2020-03-04T11:22:28Z</time>
      </trkpt>
      <trkpt lat="44.43185" lon="6.74245">
        <ele>1273.347</ele>
        <time>2020-03-04T11:22:48Z</time>
      </trkpt>
      <trkpt lat="44.43171" lon="6.74237">
        <ele>1274.711</ele>
        <time>2020-03-04T11:23:08Z</time>
      </trkpt>
      <trkpt lat="44.43165" lon="6.74221">
        <ele>1270.308</ele>
        <time>2020-03-04T11:23:28Z</time>
      </trkpt>
      <trkpt lat="44.43167" lon="6.74216">
        <ele>1268.656</ele>
        <time>2020-03-04T11:23:48Z</time>
      </trkpt>
      <trkpt lat="44.43209" lon="6.74236">
        <ele>1264.179</ele>
        <time>2020-03-04T11:24:08Z</time>
      </trkpt>
      <trkpt lat="44.43227" lon="6.74232">
        <ele>1260.486</ele>
        <time>2020-03-04T11:24:28Z</time>
      </trkpt>
      <trkpt lat="44.43225" lon="6.7423">
        <ele>1260.025</ele>
        <time>2020-03-04T11:24:48Z</time>
      </trkpt>
      <trkpt lat="44.43229" lon="6.74206">
        <ele>1255.673</ele>
        <time>2020-03-04T11:25:08Z</time>
      </trkpt>
      <trkpt lat="44.43252" lon="6.74185">
        <ele>1256.044</ele>
        <time>2020-03-04T11:25:28Z</time>
      </trkpt>
      <trkpt lat="44.43255" lon="6.74164">
        <ele>1252.446</ele>
        <time>2020-03-04T11:25:48Z</time>
      </trkpt>
      <trkpt lat="44.43261" lon="6.74158">
        <ele>1252.392</ele>
        <time>2020-03-04T11:26:08Z</time>
      </trkpt>
      <trkpt lat="44.43279" lon="6.74161">
        <ele>1253.635</ele>
        <time>2020-03-04T11:26:28Z</time>
      </trkpt>
      <trkpt lat="44.433" lon="6.74211">
        <ele>1247.586</ele>
        <time>2020-03-04T11:26:48Z</time>
      </trkpt>
      <trkpt lat="44.43295" lon="6.74289">
        <ele>1245.214</ele>
        <time>2020-03-04T11:27:08Z</time>
      </trkpt>
      <trkpt lat="44.43301" lon="6.74296">
        <ele>1242.208</ele>
        <time>2020-03-04T11:27:28Z</time>
      </trkpt>
      <trkpt lat="44.43335" lon="6.74297">
        <ele>1240.077</ele>
        <time>2020-03-04T11:27:48Z</time>
      </trkpt>
      <trkpt lat="44.4336" lon="6.74257">
        <ele>1240.03</ele>
        <time>2020-03-04T11:28:08Z</time>
      </trkpt>
      <trkpt lat="44.43372" lon="6.74212">
        <ele>1240.097</ele>
        <time>2020-03-04T11:28:28Z</time>
      </trkpt>
      <trkpt lat="44.43384" lon="6.74212">
        <ele>1240.096</ele>
        <time>2020-03-04T11:28:48Z</time>
      </trkpt>
      <trkpt lat="44.4337" lon="6.74157">
        <ele>1240.014</ele>
        <time>2020-03-04T11:29:08Z</time>
      </trkpt>
      <trkpt lat="44.43345" lon="6.74107">
        <ele>1240.285</ele>
        <time>2020-03-04T11:29:28Z</time>
      </trkpt>
      <trkpt lat="44.43271" lon="6.74046">
        <ele>1240.017</ele>
        <time>2020-03-04T11:29:48Z</time>
      </trkpt>
      <trkpt lat="44.43174" lon="6.73879">
        <ele>1234.713</ele>
        <time>2020-03-04T11:30:08Z</time>
      </trkpt>
      <trkpt lat="44.43111" lon="6.73854">
        <ele>1230.745</ele>
        <time>2020-03-04T11:30:28Z</time>
      </trkpt>
      <trkpt lat="44.43083" lon="6.73831">
        <ele>1230.247</ele>
        <time>2020-03-04T11:30:48Z</time>
      </trkpt>
      <trkpt lat="44.43016" lon="6.73709">
        <ele>1232.611</ele>
        <time>2020-03-04T11:31:08Z</time>
      </trkpt>
      <trkpt lat="44.42952" lon="6.73644">
        <ele>1230.008</ele>
        <time>2020-03-04T11:31:28Z</time>
      </trkpt>
      <trkpt lat="44.42882" lon="6.73636">
        <ele>1230.188</ele>
        <time>2020-03-04T11:31:48Z</time>
      </trkpt>
      <trkpt lat="44.42738" lon="6.73697">
        <ele>1230.091</ele>
        <time>2020-03-04T11:32:08Z</time>
      </trkpt>
      <trkpt lat="44.42449" lon="6.73712">
        <ele>1223.488</ele>
        <time>2020-03-04T11:32:28Z</time>
      </trkpt>
      <trkpt lat="44.42268" lon="6.73726">
        <ele>1220.057</ele>
        <time>2020-03-04T11:32:48Z</time>
      </trkpt>
      <trkpt lat="44.42171" lon="6.73717">
        <ele>1220.095</ele>
        <time>2020-03-04T11:33:08Z</time>
      </trkpt>
      <trkpt lat="44.42054" lon="6.73671">
        <ele>1220.016</ele>
        <time>2020-03-04T11:33:28Z</time>
      </trkpt>
    </trkseg>
  </trk>
</gpx>